<?xml version="1.0" encoding="UTF-8" standalone="no" ?>
<gpx xmlns="http://www.topografix.com/GPX/1/1" xmlns:xsi="http://www.w3.org/2001/XMLSchema-instance" xsi:schemaLocation="http://www.topografix.com/GPX/1/1 http://www.topografix.com/GPX/1/1/gpx.xsd" version="1.1" creator="VisuGPX - https://www.visugpx.com">
  <metadata>
    <name>7 majeurs jour 1</name>
  </metadata>
  <trk>
    <name><![CDATA[7 majeurs jour 1]]></name>
    <extensions>
      <line xmlns="http://www.topografix.com/GPX/gpx_style/0/2">
        <color>FF0000</color>
        <width>4</width>
      </line>
    </extensions>
    <trkseg>
      <trkpt lat="44.86837" lon="6.72111">
        <ele>1537.2</ele>
        <time>2022-07-18T03:41:14Z</time>
      </trkpt>
      <trkpt lat="44.86838" lon="6.7211">
        <ele>1537.2</ele>
        <time>2022-07-18T03:41:17Z</time>
      </trkpt>
      <trkpt lat="44.86839" lon="6.72109">
        <ele>1536.2</ele>
        <time>2022-07-18T03:41:18Z</time>
      </trkpt>
      <trkpt lat="44.8684" lon="6.72107">
        <ele>1536.2</ele>
        <time>2022-07-18T03:41:19Z</time>
      </trkpt>
      <trkpt lat="44.86841" lon="6.72105">
        <ele>1536.2</ele>
        <time>2022-07-18T03:41:20Z</time>
      </trkpt>
      <trkpt lat="44.86842" lon="6.72103">
        <ele>1536.2</ele>
        <time>2022-07-18T03:41:21Z</time>
      </trkpt>
      <trkpt lat="44.86842" lon="6.72101">
        <ele>1536.2</ele>
        <time>2022-07-18T03:41:22Z</time>
      </trkpt>
      <trkpt lat="44.86841" lon="6.72098">
        <ele>1536.2</ele>
        <time>2022-07-18T03:41:23Z</time>
      </trkpt>
      <trkpt lat="44.86841" lon="6.72096">
        <ele>1536.2</ele>
        <time>2022-07-18T03:41:24Z</time>
      </trkpt>
      <trkpt lat="44.8684" lon="6.72094">
        <ele>1536.2</ele>
        <time>2022-07-18T03:41:25Z</time>
      </trkpt>
      <trkpt lat="44.8684" lon="6.72091">
        <ele>1536.2</ele>
        <time>2022-07-18T03:41:26Z</time>
      </trkpt>
      <trkpt lat="44.86839" lon="6.72088">
        <ele>1536.2</ele>
        <time>2022-07-18T03:41:27Z</time>
      </trkpt>
      <trkpt lat="44.86838" lon="6.72085">
        <ele>1536.2</ele>
        <time>2022-07-18T03:41:28Z</time>
      </trkpt>
      <trkpt lat="44.86838" lon="6.72081">
        <ele>1536.2</ele>
        <time>2022-07-18T03:41:29Z</time>
      </trkpt>
      <trkpt lat="44.86838" lon="6.72077">
        <ele>1536.2</ele>
        <time>2022-07-18T03:41:30Z</time>
      </trkpt>
      <trkpt lat="44.86837" lon="6.72073">
        <ele>1536.2</ele>
        <time>2022-07-18T03:41:31Z</time>
      </trkpt>
      <trkpt lat="44.86836" lon="6.72069">
        <ele>1536</ele>
        <time>2022-07-18T03:41:32Z</time>
      </trkpt>
      <trkpt lat="44.86834" lon="6.72066">
        <ele>1536</ele>
        <time>2022-07-18T03:41:33Z</time>
      </trkpt>
      <trkpt lat="44.86831" lon="6.72063">
        <ele>1536</ele>
        <time>2022-07-18T03:41:34Z</time>
      </trkpt>
      <trkpt lat="44.86828" lon="6.72062">
        <ele>1535.8</ele>
        <time>2022-07-18T03:41:35Z</time>
      </trkpt>
      <trkpt lat="44.86825" lon="6.72063">
        <ele>1535.8</ele>
        <time>2022-07-18T03:41:36Z</time>
      </trkpt>
      <trkpt lat="44.86823" lon="6.72065">
        <ele>1536</ele>
        <time>2022-07-18T03:41:37Z</time>
      </trkpt>
      <trkpt lat="44.86821" lon="6.72068">
        <ele>1536.2</ele>
        <time>2022-07-18T03:41:38Z</time>
      </trkpt>
      <trkpt lat="44.8682" lon="6.72072">
        <ele>1536.2</ele>
        <time>2022-07-18T03:41:39Z</time>
      </trkpt>
      <trkpt lat="44.8682" lon="6.72075">
        <ele>1536.6</ele>
        <time>2022-07-18T03:41:40Z</time>
      </trkpt>
      <trkpt lat="44.86819" lon="6.72079">
        <ele>1536.6</ele>
        <time>2022-07-18T03:41:41Z</time>
      </trkpt>
      <trkpt lat="44.86819" lon="6.72082">
        <ele>1537</ele>
        <time>2022-07-18T03:41:42Z</time>
      </trkpt>
      <trkpt lat="44.86819" lon="6.72085">
        <ele>1537.2</ele>
        <time>2022-07-18T03:41:43Z</time>
      </trkpt>
      <trkpt lat="44.86819" lon="6.72089">
        <ele>1537.2</ele>
        <time>2022-07-18T03:41:44Z</time>
      </trkpt>
      <trkpt lat="44.86819" lon="6.72092">
        <ele>1537.4</ele>
        <time>2022-07-18T03:41:45Z</time>
      </trkpt>
      <trkpt lat="44.86819" lon="6.72096">
        <ele>1537.4</ele>
        <time>2022-07-18T03:41:46Z</time>
      </trkpt>
      <trkpt lat="44.8682" lon="6.72099">
        <ele>1537.8</ele>
        <time>2022-07-18T03:41:47Z</time>
      </trkpt>
      <trkpt lat="44.8682" lon="6.72103">
        <ele>1538</ele>
        <time>2022-07-18T03:41:48Z</time>
      </trkpt>
      <trkpt lat="44.8682" lon="6.72107">
        <ele>1538</ele>
        <time>2022-07-18T03:41:49Z</time>
      </trkpt>
      <trkpt lat="44.8682" lon="6.7211">
        <ele>1538.4</ele>
        <time>2022-07-18T03:41:50Z</time>
      </trkpt>
      <trkpt lat="44.8682" lon="6.72114">
        <ele>1538.4</ele>
        <time>2022-07-18T03:41:51Z</time>
      </trkpt>
      <trkpt lat="44.8682" lon="6.72117">
        <ele>1538.8</ele>
        <time>2022-07-18T03:41:52Z</time>
      </trkpt>
      <trkpt lat="44.8682" lon="6.7212">
        <ele>1538.8</ele>
        <time>2022-07-18T03:41:53Z</time>
      </trkpt>
      <trkpt lat="44.8682" lon="6.72124">
        <ele>1539.2</ele>
        <time>2022-07-18T03:41:54Z</time>
      </trkpt>
      <trkpt lat="44.8682" lon="6.72127">
        <ele>1539.2</ele>
        <time>2022-07-18T03:41:55Z</time>
      </trkpt>
      <trkpt lat="44.8682" lon="6.7213">
        <ele>1539.6</ele>
        <time>2022-07-18T03:41:56Z</time>
      </trkpt>
      <trkpt lat="44.86821" lon="6.72133">
        <ele>1539.8</ele>
        <time>2022-07-18T03:41:57Z</time>
      </trkpt>
      <trkpt lat="44.86821" lon="6.72136">
        <ele>1539.8</ele>
        <time>2022-07-18T03:41:58Z</time>
      </trkpt>
      <trkpt lat="44.86821" lon="6.72139">
        <ele>1540</ele>
        <time>2022-07-18T03:41:59Z</time>
      </trkpt>
      <trkpt lat="44.86821" lon="6.72142">
        <ele>1540</ele>
        <time>2022-07-18T03:42:00Z</time>
      </trkpt>
      <trkpt lat="44.86821" lon="6.72145">
        <ele>1540.4</ele>
        <time>2022-07-18T03:42:01Z</time>
      </trkpt>
      <trkpt lat="44.86822" lon="6.72148">
        <ele>1540.4</ele>
        <time>2022-07-18T03:42:02Z</time>
      </trkpt>
      <trkpt lat="44.86822" lon="6.7215">
        <ele>1540.6</ele>
        <time>2022-07-18T03:42:03Z</time>
      </trkpt>
      <trkpt lat="44.86823" lon="6.72153">
        <ele>1540.6</ele>
        <time>2022-07-18T03:42:04Z</time>
      </trkpt>
      <trkpt lat="44.86823" lon="6.72155">
        <ele>1540.6</ele>
        <time>2022-07-18T03:42:05Z</time>
      </trkpt>
      <trkpt lat="44.86824" lon="6.72158">
        <ele>1540.8</ele>
        <time>2022-07-18T03:42:06Z</time>
      </trkpt>
      <trkpt lat="44.86824" lon="6.7216">
        <ele>1540.8</ele>
        <time>2022-07-18T03:42:07Z</time>
      </trkpt>
      <trkpt lat="44.86824" lon="6.72162">
        <ele>1541.2</ele>
        <time>2022-07-18T03:42:08Z</time>
      </trkpt>
      <trkpt lat="44.86825" lon="6.72164">
        <ele>1541.2</ele>
        <time>2022-07-18T03:42:09Z</time>
      </trkpt>
      <trkpt lat="44.86825" lon="6.72166">
        <ele>1541.4</ele>
        <time>2022-07-18T03:42:10Z</time>
      </trkpt>
      <trkpt lat="44.86825" lon="6.72169">
        <ele>1541.4</ele>
        <time>2022-07-18T03:42:11Z</time>
      </trkpt>
      <trkpt lat="44.86826" lon="6.72171">
        <ele>1541.6</ele>
        <time>2022-07-18T03:42:12Z</time>
      </trkpt>
      <trkpt lat="44.86826" lon="6.72173">
        <ele>1541.6</ele>
        <time>2022-07-18T03:42:13Z</time>
      </trkpt>
      <trkpt lat="44.86827" lon="6.72175">
        <ele>1541.8</ele>
        <time>2022-07-18T03:42:14Z</time>
      </trkpt>
      <trkpt lat="44.86828" lon="6.72178">
        <ele>1541.8</ele>
        <time>2022-07-18T03:42:15Z</time>
      </trkpt>
      <trkpt lat="44.86828" lon="6.7218">
        <ele>1542</ele>
        <time>2022-07-18T03:42:16Z</time>
      </trkpt>
      <trkpt lat="44.86828" lon="6.72183">
        <ele>1542</ele>
        <time>2022-07-18T03:42:17Z</time>
      </trkpt>
      <trkpt lat="44.86829" lon="6.72185">
        <ele>1542.4</ele>
        <time>2022-07-18T03:42:18Z</time>
      </trkpt>
      <trkpt lat="44.86829" lon="6.72188">
        <ele>1542.4</ele>
        <time>2022-07-18T03:42:19Z</time>
      </trkpt>
      <trkpt lat="44.8683" lon="6.72191">
        <ele>1542.8</ele>
        <time>2022-07-18T03:42:20Z</time>
      </trkpt>
      <trkpt lat="44.8683" lon="6.72193">
        <ele>1542.8</ele>
        <time>2022-07-18T03:42:21Z</time>
      </trkpt>
      <trkpt lat="44.86831" lon="6.72196">
        <ele>1543</ele>
        <time>2022-07-18T03:42:22Z</time>
      </trkpt>
      <trkpt lat="44.86832" lon="6.72198">
        <ele>1543.2</ele>
        <time>2022-07-18T03:42:23Z</time>
      </trkpt>
      <trkpt lat="44.86832" lon="6.72201">
        <ele>1543.2</ele>
        <time>2022-07-18T03:42:24Z</time>
      </trkpt>
      <trkpt lat="44.86833" lon="6.72204">
        <ele>1543.6</ele>
        <time>2022-07-18T03:42:25Z</time>
      </trkpt>
      <trkpt lat="44.86834" lon="6.72206">
        <ele>1543.6</ele>
        <time>2022-07-18T03:42:26Z</time>
      </trkpt>
      <trkpt lat="44.86835" lon="6.72209">
        <ele>1543.8</ele>
        <time>2022-07-18T03:42:27Z</time>
      </trkpt>
      <trkpt lat="44.86835" lon="6.72212">
        <ele>1543.8</ele>
        <time>2022-07-18T03:42:28Z</time>
      </trkpt>
      <trkpt lat="44.86836" lon="6.72215">
        <ele>1544</ele>
        <time>2022-07-18T03:42:29Z</time>
      </trkpt>
      <trkpt lat="44.86837" lon="6.72218">
        <ele>1544</ele>
        <time>2022-07-18T03:42:30Z</time>
      </trkpt>
      <trkpt lat="44.86837" lon="6.7222">
        <ele>1544.4</ele>
        <time>2022-07-18T03:42:31Z</time>
      </trkpt>
      <trkpt lat="44.86838" lon="6.72223">
        <ele>1544.4</ele>
        <time>2022-07-18T03:42:32Z</time>
      </trkpt>
      <trkpt lat="44.86839" lon="6.72226">
        <ele>1544.6</ele>
        <time>2022-07-18T03:42:33Z</time>
      </trkpt>
      <trkpt lat="44.8684" lon="6.72229">
        <ele>1544.6</ele>
        <time>2022-07-18T03:42:34Z</time>
      </trkpt>
      <trkpt lat="44.86841" lon="6.72233">
        <ele>1545</ele>
        <time>2022-07-18T03:42:35Z</time>
      </trkpt>
      <trkpt lat="44.86842" lon="6.72236">
        <ele>1545</ele>
        <time>2022-07-18T03:42:36Z</time>
      </trkpt>
      <trkpt lat="44.86842" lon="6.72239">
        <ele>1545.4</ele>
        <time>2022-07-18T03:42:37Z</time>
      </trkpt>
      <trkpt lat="44.86843" lon="6.72242">
        <ele>1545.4</ele>
        <time>2022-07-18T03:42:38Z</time>
      </trkpt>
      <trkpt lat="44.86844" lon="6.72245">
        <ele>1545.6</ele>
        <time>2022-07-18T03:42:39Z</time>
      </trkpt>
      <trkpt lat="44.86845" lon="6.72247">
        <ele>1545.6</ele>
        <time>2022-07-18T03:42:40Z</time>
      </trkpt>
      <trkpt lat="44.86846" lon="6.7225">
        <ele>1545.8</ele>
        <time>2022-07-18T03:42:41Z</time>
      </trkpt>
      <trkpt lat="44.86847" lon="6.72253">
        <ele>1545.8</ele>
        <time>2022-07-18T03:42:42Z</time>
      </trkpt>
      <trkpt lat="44.86849" lon="6.72256">
        <ele>1546.2</ele>
        <time>2022-07-18T03:42:43Z</time>
      </trkpt>
      <trkpt lat="44.8685" lon="6.72258">
        <ele>1546.2</ele>
        <time>2022-07-18T03:42:44Z</time>
      </trkpt>
      <trkpt lat="44.8685" lon="6.72261">
        <ele>1546.2</ele>
        <time>2022-07-18T03:42:45Z</time>
      </trkpt>
      <trkpt lat="44.86851" lon="6.72264">
        <ele>1546.4</ele>
        <time>2022-07-18T03:42:46Z</time>
      </trkpt>
      <trkpt lat="44.86852" lon="6.72267">
        <ele>1546.4</ele>
        <time>2022-07-18T03:42:47Z</time>
      </trkpt>
      <trkpt lat="44.86854" lon="6.72269">
        <ele>1546.8</ele>
        <time>2022-07-18T03:42:48Z</time>
      </trkpt>
      <trkpt lat="44.86855" lon="6.72272">
        <ele>1546.8</ele>
        <time>2022-07-18T03:42:49Z</time>
      </trkpt>
      <trkpt lat="44.86856" lon="6.72275">
        <ele>1547.2</ele>
        <time>2022-07-18T03:42:50Z</time>
      </trkpt>
      <trkpt lat="44.86858" lon="6.72278">
        <ele>1547.2</ele>
        <time>2022-07-18T03:42:51Z</time>
      </trkpt>
      <trkpt lat="44.86859" lon="6.7228">
        <ele>1547.4</ele>
        <time>2022-07-18T03:42:52Z</time>
      </trkpt>
      <trkpt lat="44.8686" lon="6.72283">
        <ele>1547.4</ele>
        <time>2022-07-18T03:42:53Z</time>
      </trkpt>
      <trkpt lat="44.86861" lon="6.72286">
        <ele>1547.6</ele>
        <time>2022-07-18T03:42:54Z</time>
      </trkpt>
      <trkpt lat="44.86862" lon="6.72289">
        <ele>1547.6</ele>
        <time>2022-07-18T03:42:55Z</time>
      </trkpt>
      <trkpt lat="44.86863" lon="6.72291">
        <ele>1548</ele>
        <time>2022-07-18T03:42:56Z</time>
      </trkpt>
      <trkpt lat="44.86865" lon="6.72294">
        <ele>1548</ele>
        <time>2022-07-18T03:42:57Z</time>
      </trkpt>
      <trkpt lat="44.86866" lon="6.72296">
        <ele>1548.4</ele>
        <time>2022-07-18T03:42:58Z</time>
      </trkpt>
      <trkpt lat="44.86868" lon="6.72299">
        <ele>1548.6</ele>
        <time>2022-07-18T03:42:59Z</time>
      </trkpt>
      <trkpt lat="44.86869" lon="6.72301">
        <ele>1548.6</ele>
        <time>2022-07-18T03:43:00Z</time>
      </trkpt>
      <trkpt lat="44.8687" lon="6.72304">
        <ele>1549</ele>
        <time>2022-07-18T03:43:01Z</time>
      </trkpt>
      <trkpt lat="44.86872" lon="6.72307">
        <ele>1549</ele>
        <time>2022-07-18T03:43:02Z</time>
      </trkpt>
      <trkpt lat="44.86874" lon="6.7231">
        <ele>1549.4</ele>
        <time>2022-07-18T03:43:03Z</time>
      </trkpt>
      <trkpt lat="44.86875" lon="6.72312">
        <ele>1549.4</ele>
        <time>2022-07-18T03:43:04Z</time>
      </trkpt>
      <trkpt lat="44.86877" lon="6.72315">
        <ele>1549.6</ele>
        <time>2022-07-18T03:43:05Z</time>
      </trkpt>
      <trkpt lat="44.86878" lon="6.72317">
        <ele>1549.8</ele>
        <time>2022-07-18T03:43:06Z</time>
      </trkpt>
      <trkpt lat="44.8688" lon="6.7232">
        <ele>1549.8</ele>
        <time>2022-07-18T03:43:07Z</time>
      </trkpt>
      <trkpt lat="44.86881" lon="6.72322">
        <ele>1550</ele>
        <time>2022-07-18T03:43:08Z</time>
      </trkpt>
      <trkpt lat="44.86883" lon="6.72325">
        <ele>1550</ele>
        <time>2022-07-18T03:43:09Z</time>
      </trkpt>
      <trkpt lat="44.86884" lon="6.72328">
        <ele>1550.4</ele>
        <time>2022-07-18T03:43:10Z</time>
      </trkpt>
      <trkpt lat="44.86885" lon="6.72331">
        <ele>1550.4</ele>
        <time>2022-07-18T03:43:11Z</time>
      </trkpt>
      <trkpt lat="44.86887" lon="6.72334">
        <ele>1551</ele>
        <time>2022-07-18T03:43:12Z</time>
      </trkpt>
      <trkpt lat="44.86888" lon="6.72336">
        <ele>1551.2</ele>
        <time>2022-07-18T03:43:13Z</time>
      </trkpt>
      <trkpt lat="44.8689" lon="6.72339">
        <ele>1551.4</ele>
        <time>2022-07-18T03:43:14Z</time>
      </trkpt>
      <trkpt lat="44.86891" lon="6.72342">
        <ele>1551.6</ele>
        <time>2022-07-18T03:43:15Z</time>
      </trkpt>
      <trkpt lat="44.86893" lon="6.72344">
        <ele>1552</ele>
        <time>2022-07-18T03:43:16Z</time>
      </trkpt>
      <trkpt lat="44.86894" lon="6.72347">
        <ele>1552</ele>
        <time>2022-07-18T03:43:17Z</time>
      </trkpt>
      <trkpt lat="44.86896" lon="6.72349">
        <ele>1552.4</ele>
        <time>2022-07-18T03:43:18Z</time>
      </trkpt>
      <trkpt lat="44.86897" lon="6.72352">
        <ele>1552.4</ele>
        <time>2022-07-18T03:43:19Z</time>
      </trkpt>
      <trkpt lat="44.86899" lon="6.72354">
        <ele>1552.6</ele>
        <time>2022-07-18T03:43:20Z</time>
      </trkpt>
      <trkpt lat="44.869" lon="6.72357">
        <ele>1552.8</ele>
        <time>2022-07-18T03:43:21Z</time>
      </trkpt>
      <trkpt lat="44.86902" lon="6.7236">
        <ele>1553</ele>
        <time>2022-07-18T03:43:22Z</time>
      </trkpt>
      <trkpt lat="44.86904" lon="6.72362">
        <ele>1553.2</ele>
        <time>2022-07-18T03:43:23Z</time>
      </trkpt>
      <trkpt lat="44.86905" lon="6.72364">
        <ele>1553.2</ele>
        <time>2022-07-18T03:43:24Z</time>
      </trkpt>
      <trkpt lat="44.86907" lon="6.72367">
        <ele>1553.6</ele>
        <time>2022-07-18T03:43:25Z</time>
      </trkpt>
      <trkpt lat="44.86908" lon="6.7237">
        <ele>1553.8</ele>
        <time>2022-07-18T03:43:26Z</time>
      </trkpt>
      <trkpt lat="44.86909" lon="6.72373">
        <ele>1553.8</ele>
        <time>2022-07-18T03:43:27Z</time>
      </trkpt>
      <trkpt lat="44.86911" lon="6.72375">
        <ele>1554.2</ele>
        <time>2022-07-18T03:43:28Z</time>
      </trkpt>
      <trkpt lat="44.86913" lon="6.72378">
        <ele>1554.4</ele>
        <time>2022-07-18T03:43:29Z</time>
      </trkpt>
      <trkpt lat="44.86914" lon="6.72381">
        <ele>1554.4</ele>
        <time>2022-07-18T03:43:30Z</time>
      </trkpt>
      <trkpt lat="44.86916" lon="6.72384">
        <ele>1554.6</ele>
        <time>2022-07-18T03:43:31Z</time>
      </trkpt>
      <trkpt lat="44.86917" lon="6.72387">
        <ele>1554.6</ele>
        <time>2022-07-18T03:43:32Z</time>
      </trkpt>
      <trkpt lat="44.86919" lon="6.72389">
        <ele>1555</ele>
        <time>2022-07-18T03:43:33Z</time>
      </trkpt>
      <trkpt lat="44.8692" lon="6.72392">
        <ele>1555</ele>
        <time>2022-07-18T03:43:34Z</time>
      </trkpt>
      <trkpt lat="44.86922" lon="6.72395">
        <ele>1555.4</ele>
        <time>2022-07-18T03:43:35Z</time>
      </trkpt>
      <trkpt lat="44.86923" lon="6.72397">
        <ele>1555.6</ele>
        <time>2022-07-18T03:43:36Z</time>
      </trkpt>
      <trkpt lat="44.86925" lon="6.724">
        <ele>1555.8</ele>
        <time>2022-07-18T03:43:37Z</time>
      </trkpt>
      <trkpt lat="44.86926" lon="6.72402">
        <ele>1555.8</ele>
        <time>2022-07-18T03:43:38Z</time>
      </trkpt>
      <trkpt lat="44.86928" lon="6.72405">
        <ele>1556.2</ele>
        <time>2022-07-18T03:43:39Z</time>
      </trkpt>
      <trkpt lat="44.86929" lon="6.72408">
        <ele>1556.2</ele>
        <time>2022-07-18T03:43:40Z</time>
      </trkpt>
      <trkpt lat="44.86931" lon="6.7241">
        <ele>1556.6</ele>
        <time>2022-07-18T03:43:41Z</time>
      </trkpt>
      <trkpt lat="44.86932" lon="6.72412">
        <ele>1556.8</ele>
        <time>2022-07-18T03:43:42Z</time>
      </trkpt>
      <trkpt lat="44.86934" lon="6.72415">
        <ele>1556.8</ele>
        <time>2022-07-18T03:43:43Z</time>
      </trkpt>
      <trkpt lat="44.86935" lon="6.72417">
        <ele>1557.2</ele>
        <time>2022-07-18T03:43:44Z</time>
      </trkpt>
      <trkpt lat="44.86937" lon="6.7242">
        <ele>1557.4</ele>
        <time>2022-07-18T03:43:45Z</time>
      </trkpt>
      <trkpt lat="44.86938" lon="6.72422">
        <ele>1557.4</ele>
        <time>2022-07-18T03:43:46Z</time>
      </trkpt>
      <trkpt lat="44.8694" lon="6.72425">
        <ele>1557.6</ele>
        <time>2022-07-18T03:43:47Z</time>
      </trkpt>
      <trkpt lat="44.86941" lon="6.72428">
        <ele>1557.6</ele>
        <time>2022-07-18T03:43:48Z</time>
      </trkpt>
      <trkpt lat="44.86942" lon="6.7243">
        <ele>1558</ele>
        <time>2022-07-18T03:43:49Z</time>
      </trkpt>
      <trkpt lat="44.86944" lon="6.72433">
        <ele>1558</ele>
        <time>2022-07-18T03:43:50Z</time>
      </trkpt>
      <trkpt lat="44.86945" lon="6.72435">
        <ele>1558.4</ele>
        <time>2022-07-18T03:43:51Z</time>
      </trkpt>
      <trkpt lat="44.86947" lon="6.72438">
        <ele>1558.6</ele>
        <time>2022-07-18T03:43:52Z</time>
      </trkpt>
      <trkpt lat="44.86948" lon="6.72441">
        <ele>1558.6</ele>
        <time>2022-07-18T03:43:53Z</time>
      </trkpt>
      <trkpt lat="44.8695" lon="6.72443">
        <ele>1559</ele>
        <time>2022-07-18T03:43:54Z</time>
      </trkpt>
      <trkpt lat="44.86951" lon="6.72446">
        <ele>1559</ele>
        <time>2022-07-18T03:43:55Z</time>
      </trkpt>
      <trkpt lat="44.86953" lon="6.72449">
        <ele>1559.4</ele>
        <time>2022-07-18T03:43:56Z</time>
      </trkpt>
      <trkpt lat="44.86954" lon="6.72452">
        <ele>1559.6</ele>
        <time>2022-07-18T03:43:57Z</time>
      </trkpt>
      <trkpt lat="44.86956" lon="6.72454">
        <ele>1559.8</ele>
        <time>2022-07-18T03:43:58Z</time>
      </trkpt>
      <trkpt lat="44.86957" lon="6.72457">
        <ele>1560.2</ele>
        <time>2022-07-18T03:43:59Z</time>
      </trkpt>
      <trkpt lat="44.86958" lon="6.72459">
        <ele>1560.2</ele>
        <time>2022-07-18T03:44:00Z</time>
      </trkpt>
      <trkpt lat="44.8696" lon="6.72461">
        <ele>1560.4</ele>
        <time>2022-07-18T03:44:01Z</time>
      </trkpt>
      <trkpt lat="44.86961" lon="6.72464">
        <ele>1560.4</ele>
        <time>2022-07-18T03:44:02Z</time>
      </trkpt>
      <trkpt lat="44.86963" lon="6.72466">
        <ele>1560.8</ele>
        <time>2022-07-18T03:44:03Z</time>
      </trkpt>
      <trkpt lat="44.86965" lon="6.72469">
        <ele>1560.8</ele>
        <time>2022-07-18T03:44:04Z</time>
      </trkpt>
      <trkpt lat="44.86966" lon="6.72471">
        <ele>1561.2</ele>
        <time>2022-07-18T03:44:05Z</time>
      </trkpt>
      <trkpt lat="44.86968" lon="6.72474">
        <ele>1561.2</ele>
        <time>2022-07-18T03:44:06Z</time>
      </trkpt>
      <trkpt lat="44.86969" lon="6.72477">
        <ele>1561.6</ele>
        <time>2022-07-18T03:44:07Z</time>
      </trkpt>
      <trkpt lat="44.86971" lon="6.7248">
        <ele>1561.8</ele>
        <time>2022-07-18T03:44:08Z</time>
      </trkpt>
      <trkpt lat="44.86972" lon="6.72482">
        <ele>1561.8</ele>
        <time>2022-07-18T03:44:09Z</time>
      </trkpt>
      <trkpt lat="44.86974" lon="6.72485">
        <ele>1562.2</ele>
        <time>2022-07-18T03:44:10Z</time>
      </trkpt>
      <trkpt lat="44.86975" lon="6.72488">
        <ele>1562.4</ele>
        <time>2022-07-18T03:44:11Z</time>
      </trkpt>
      <trkpt lat="44.86977" lon="6.72491">
        <ele>1562.4</ele>
        <time>2022-07-18T03:44:12Z</time>
      </trkpt>
      <trkpt lat="44.86978" lon="6.72493">
        <ele>1562.8</ele>
        <time>2022-07-18T03:44:13Z</time>
      </trkpt>
      <trkpt lat="44.8698" lon="6.72496">
        <ele>1562.8</ele>
        <time>2022-07-18T03:44:14Z</time>
      </trkpt>
      <trkpt lat="44.86982" lon="6.72499">
        <ele>1563</ele>
        <time>2022-07-18T03:44:15Z</time>
      </trkpt>
      <trkpt lat="44.86983" lon="6.72502">
        <ele>1563</ele>
        <time>2022-07-18T03:44:16Z</time>
      </trkpt>
      <trkpt lat="44.86985" lon="6.72504">
        <ele>1563.4</ele>
        <time>2022-07-18T03:44:17Z</time>
      </trkpt>
      <trkpt lat="44.86986" lon="6.72507">
        <ele>1563.4</ele>
        <time>2022-07-18T03:44:18Z</time>
      </trkpt>
      <trkpt lat="44.86988" lon="6.7251">
        <ele>1563.8</ele>
        <time>2022-07-18T03:44:19Z</time>
      </trkpt>
      <trkpt lat="44.86989" lon="6.72512">
        <ele>1563.8</ele>
        <time>2022-07-18T03:44:20Z</time>
      </trkpt>
      <trkpt lat="44.86991" lon="6.72515">
        <ele>1564</ele>
        <time>2022-07-18T03:44:21Z</time>
      </trkpt>
      <trkpt lat="44.86992" lon="6.72517">
        <ele>1564</ele>
        <time>2022-07-18T03:44:22Z</time>
      </trkpt>
      <trkpt lat="44.86994" lon="6.7252">
        <ele>1564.4</ele>
        <time>2022-07-18T03:44:23Z</time>
      </trkpt>
      <trkpt lat="44.86995" lon="6.72522">
        <ele>1564.4</ele>
        <time>2022-07-18T03:44:24Z</time>
      </trkpt>
      <trkpt lat="44.86997" lon="6.72525">
        <ele>1564.6</ele>
        <time>2022-07-18T03:44:25Z</time>
      </trkpt>
      <trkpt lat="44.86998" lon="6.72527">
        <ele>1564.6</ele>
        <time>2022-07-18T03:44:26Z</time>
      </trkpt>
      <trkpt lat="44.87" lon="6.7253">
        <ele>1565</ele>
        <time>2022-07-18T03:44:27Z</time>
      </trkpt>
      <trkpt lat="44.87001" lon="6.72533">
        <ele>1565</ele>
        <time>2022-07-18T03:44:28Z</time>
      </trkpt>
      <trkpt lat="44.87002" lon="6.72535">
        <ele>1565.2</ele>
        <time>2022-07-18T03:44:29Z</time>
      </trkpt>
      <trkpt lat="44.87004" lon="6.72538">
        <ele>1565.2</ele>
        <time>2022-07-18T03:44:30Z</time>
      </trkpt>
      <trkpt lat="44.87005" lon="6.72541">
        <ele>1565.6</ele>
        <time>2022-07-18T03:44:31Z</time>
      </trkpt>
      <trkpt lat="44.87007" lon="6.72543">
        <ele>1565.8</ele>
        <time>2022-07-18T03:44:32Z</time>
      </trkpt>
      <trkpt lat="44.87008" lon="6.72546">
        <ele>1565.8</ele>
        <time>2022-07-18T03:44:33Z</time>
      </trkpt>
      <trkpt lat="44.8701" lon="6.72549">
        <ele>1566</ele>
        <time>2022-07-18T03:44:34Z</time>
      </trkpt>
      <trkpt lat="44.87011" lon="6.72552">
        <ele>1566</ele>
        <time>2022-07-18T03:44:35Z</time>
      </trkpt>
      <trkpt lat="44.87013" lon="6.72555">
        <ele>1566.4</ele>
        <time>2022-07-18T03:44:36Z</time>
      </trkpt>
      <trkpt lat="44.87014" lon="6.72558">
        <ele>1566.4</ele>
        <time>2022-07-18T03:44:37Z</time>
      </trkpt>
      <trkpt lat="44.87015" lon="6.72561">
        <ele>1566.4</ele>
        <time>2022-07-18T03:44:38Z</time>
      </trkpt>
      <trkpt lat="44.87017" lon="6.72564">
        <ele>1566.8</ele>
        <time>2022-07-18T03:44:39Z</time>
      </trkpt>
      <trkpt lat="44.87018" lon="6.72567">
        <ele>1566.8</ele>
        <time>2022-07-18T03:44:40Z</time>
      </trkpt>
      <trkpt lat="44.87018" lon="6.7257">
        <ele>1567</ele>
        <time>2022-07-18T03:44:41Z</time>
      </trkpt>
      <trkpt lat="44.87019" lon="6.72574">
        <ele>1567</ele>
        <time>2022-07-18T03:44:42Z</time>
      </trkpt>
      <trkpt lat="44.87019" lon="6.72578">
        <ele>1567</ele>
        <time>2022-07-18T03:44:43Z</time>
      </trkpt>
      <trkpt lat="44.87019" lon="6.72581">
        <ele>1567</ele>
        <time>2022-07-18T03:44:44Z</time>
      </trkpt>
      <trkpt lat="44.87018" lon="6.72585">
        <ele>1567</ele>
        <time>2022-07-18T03:44:45Z</time>
      </trkpt>
      <trkpt lat="44.87017" lon="6.72588">
        <ele>1567.2</ele>
        <time>2022-07-18T03:44:46Z</time>
      </trkpt>
      <trkpt lat="44.87016" lon="6.72592">
        <ele>1567.2</ele>
        <time>2022-07-18T03:44:47Z</time>
      </trkpt>
      <trkpt lat="44.87015" lon="6.72595">
        <ele>1567.4</ele>
        <time>2022-07-18T03:44:48Z</time>
      </trkpt>
      <trkpt lat="44.87013" lon="6.72599">
        <ele>1567.6</ele>
        <time>2022-07-18T03:44:49Z</time>
      </trkpt>
      <trkpt lat="44.87012" lon="6.72602">
        <ele>1567.6</ele>
        <time>2022-07-18T03:44:50Z</time>
      </trkpt>
      <trkpt lat="44.8701" lon="6.72604">
        <ele>1567.8</ele>
        <time>2022-07-18T03:44:51Z</time>
      </trkpt>
      <trkpt lat="44.87008" lon="6.72607">
        <ele>1567.8</ele>
        <time>2022-07-18T03:44:52Z</time>
      </trkpt>
      <trkpt lat="44.87006" lon="6.72609">
        <ele>1568.2</ele>
        <time>2022-07-18T03:44:53Z</time>
      </trkpt>
      <trkpt lat="44.87004" lon="6.72612">
        <ele>1568.2</ele>
        <time>2022-07-18T03:44:54Z</time>
      </trkpt>
      <trkpt lat="44.87001" lon="6.72614">
        <ele>1568.2</ele>
        <time>2022-07-18T03:44:55Z</time>
      </trkpt>
      <trkpt lat="44.86999" lon="6.72616">
        <ele>1568.4</ele>
        <time>2022-07-18T03:44:56Z</time>
      </trkpt>
      <trkpt lat="44.86996" lon="6.72618">
        <ele>1568.4</ele>
        <time>2022-07-18T03:44:57Z</time>
      </trkpt>
      <trkpt lat="44.86993" lon="6.7262">
        <ele>1568.6</ele>
        <time>2022-07-18T03:44:58Z</time>
      </trkpt>
      <trkpt lat="44.8699" lon="6.72621">
        <ele>1568.6</ele>
        <time>2022-07-18T03:44:59Z</time>
      </trkpt>
      <trkpt lat="44.86987" lon="6.72621">
        <ele>1568.6</ele>
        <time>2022-07-18T03:45:00Z</time>
      </trkpt>
      <trkpt lat="44.86984" lon="6.72621">
        <ele>1568.6</ele>
        <time>2022-07-18T03:45:01Z</time>
      </trkpt>
      <trkpt lat="44.86981" lon="6.7262">
        <ele>1568.6</ele>
        <time>2022-07-18T03:45:02Z</time>
      </trkpt>
      <trkpt lat="44.86978" lon="6.72619">
        <ele>1569</ele>
        <time>2022-07-18T03:45:03Z</time>
      </trkpt>
      <trkpt lat="44.86975" lon="6.72618">
        <ele>1569</ele>
        <time>2022-07-18T03:45:04Z</time>
      </trkpt>
      <trkpt lat="44.86972" lon="6.72616">
        <ele>1569</ele>
        <time>2022-07-18T03:45:05Z</time>
      </trkpt>
      <trkpt lat="44.8697" lon="6.72615">
        <ele>1569.2</ele>
        <time>2022-07-18T03:45:06Z</time>
      </trkpt>
      <trkpt lat="44.86967" lon="6.72613">
        <ele>1569.2</ele>
        <time>2022-07-18T03:45:07Z</time>
      </trkpt>
      <trkpt lat="44.86965" lon="6.7261">
        <ele>1569.6</ele>
        <time>2022-07-18T03:45:08Z</time>
      </trkpt>
      <trkpt lat="44.86962" lon="6.72608">
        <ele>1569.6</ele>
        <time>2022-07-18T03:45:09Z</time>
      </trkpt>
      <trkpt lat="44.8696" lon="6.72605">
        <ele>1569.8</ele>
        <time>2022-07-18T03:45:10Z</time>
      </trkpt>
      <trkpt lat="44.86958" lon="6.72602">
        <ele>1569.8</ele>
        <time>2022-07-18T03:45:11Z</time>
      </trkpt>
      <trkpt lat="44.86956" lon="6.72599">
        <ele>1570</ele>
        <time>2022-07-18T03:45:12Z</time>
      </trkpt>
      <trkpt lat="44.86954" lon="6.72595">
        <ele>1570</ele>
        <time>2022-07-18T03:45:13Z</time>
      </trkpt>
      <trkpt lat="44.86952" lon="6.72592">
        <ele>1570.4</ele>
        <time>2022-07-18T03:45:14Z</time>
      </trkpt>
      <trkpt lat="44.8695" lon="6.72589">
        <ele>1570.4</ele>
        <time>2022-07-18T03:45:15Z</time>
      </trkpt>
      <trkpt lat="44.86947" lon="6.72586">
        <ele>1570.6</ele>
        <time>2022-07-18T03:45:16Z</time>
      </trkpt>
      <trkpt lat="44.86945" lon="6.72583">
        <ele>1570.6</ele>
        <time>2022-07-18T03:45:17Z</time>
      </trkpt>
      <trkpt lat="44.86943" lon="6.7258">
        <ele>1570.6</ele>
        <time>2022-07-18T03:45:18Z</time>
      </trkpt>
      <trkpt lat="44.86941" lon="6.72577">
        <ele>1570.8</ele>
        <time>2022-07-18T03:45:19Z</time>
      </trkpt>
      <trkpt lat="44.8694" lon="6.72574">
        <ele>1570.8</ele>
        <time>2022-07-18T03:45:20Z</time>
      </trkpt>
      <trkpt lat="44.86938" lon="6.72571">
        <ele>1570.8</ele>
        <time>2022-07-18T03:45:21Z</time>
      </trkpt>
      <trkpt lat="44.86936" lon="6.72568">
        <ele>1571</ele>
        <time>2022-07-18T03:45:22Z</time>
      </trkpt>
      <trkpt lat="44.86934" lon="6.72565">
        <ele>1571</ele>
        <time>2022-07-18T03:45:23Z</time>
      </trkpt>
      <trkpt lat="44.86931" lon="6.72563">
        <ele>1571.4</ele>
        <time>2022-07-18T03:45:24Z</time>
      </trkpt>
      <trkpt lat="44.86929" lon="6.72561">
        <ele>1571.4</ele>
        <time>2022-07-18T03:45:25Z</time>
      </trkpt>
      <trkpt lat="44.86927" lon="6.72559">
        <ele>1571.8</ele>
        <time>2022-07-18T03:45:26Z</time>
      </trkpt>
      <trkpt lat="44.86925" lon="6.72557">
        <ele>1571.8</ele>
        <time>2022-07-18T03:45:27Z</time>
      </trkpt>
      <trkpt lat="44.86923" lon="6.72555">
        <ele>1572</ele>
        <time>2022-07-18T03:45:28Z</time>
      </trkpt>
      <trkpt lat="44.8692" lon="6.72553">
        <ele>1572</ele>
        <time>2022-07-18T03:45:29Z</time>
      </trkpt>
      <trkpt lat="44.86918" lon="6.72551">
        <ele>1572.2</ele>
        <time>2022-07-18T03:45:30Z</time>
      </trkpt>
      <trkpt lat="44.86915" lon="6.7255">
        <ele>1572.2</ele>
        <time>2022-07-18T03:45:31Z</time>
      </trkpt>
      <trkpt lat="44.86913" lon="6.72548">
        <ele>1572.6</ele>
        <time>2022-07-18T03:45:32Z</time>
      </trkpt>
      <trkpt lat="44.8691" lon="6.72547">
        <ele>1572.6</ele>
        <time>2022-07-18T03:45:33Z</time>
      </trkpt>
      <trkpt lat="44.86908" lon="6.72547">
        <ele>1572.6</ele>
        <time>2022-07-18T03:45:34Z</time>
      </trkpt>
      <trkpt lat="44.86905" lon="6.72546">
        <ele>1572.8</ele>
        <time>2022-07-18T03:45:35Z</time>
      </trkpt>
      <trkpt lat="44.86903" lon="6.72545">
        <ele>1573</ele>
        <time>2022-07-18T03:45:36Z</time>
      </trkpt>
      <trkpt lat="44.869" lon="6.72543">
        <ele>1573</ele>
        <time>2022-07-18T03:45:37Z</time>
      </trkpt>
      <trkpt lat="44.86898" lon="6.72542">
        <ele>1573.4</ele>
        <time>2022-07-18T03:45:38Z</time>
      </trkpt>
      <trkpt lat="44.86895" lon="6.72541">
        <ele>1573.4</ele>
        <time>2022-07-18T03:45:39Z</time>
      </trkpt>
      <trkpt lat="44.86893" lon="6.7254">
        <ele>1573.6</ele>
        <time>2022-07-18T03:45:40Z</time>
      </trkpt>
      <trkpt lat="44.8689" lon="6.72538">
        <ele>1573.6</ele>
        <time>2022-07-18T03:45:41Z</time>
      </trkpt>
      <trkpt lat="44.86888" lon="6.72537">
        <ele>1573.8</ele>
        <time>2022-07-18T03:45:42Z</time>
      </trkpt>
      <trkpt lat="44.86885" lon="6.72535">
        <ele>1573.8</ele>
        <time>2022-07-18T03:45:43Z</time>
      </trkpt>
      <trkpt lat="44.86883" lon="6.72534">
        <ele>1574.2</ele>
        <time>2022-07-18T03:45:44Z</time>
      </trkpt>
      <trkpt lat="44.86881" lon="6.72532">
        <ele>1574.2</ele>
        <time>2022-07-18T03:45:45Z</time>
      </trkpt>
      <trkpt lat="44.86878" lon="6.7253">
        <ele>1574.4</ele>
        <time>2022-07-18T03:45:46Z</time>
      </trkpt>
      <trkpt lat="44.86876" lon="6.72528">
        <ele>1574.6</ele>
        <time>2022-07-18T03:45:47Z</time>
      </trkpt>
      <trkpt lat="44.86874" lon="6.72526">
        <ele>1575</ele>
        <time>2022-07-18T03:45:48Z</time>
      </trkpt>
      <trkpt lat="44.86872" lon="6.72524">
        <ele>1575</ele>
        <time>2022-07-18T03:45:49Z</time>
      </trkpt>
      <trkpt lat="44.8687" lon="6.72521">
        <ele>1575.2</ele>
        <time>2022-07-18T03:45:50Z</time>
      </trkpt>
      <trkpt lat="44.86868" lon="6.72519">
        <ele>1575.2</ele>
        <time>2022-07-18T03:45:51Z</time>
      </trkpt>
      <trkpt lat="44.86866" lon="6.72517">
        <ele>1575.8</ele>
        <time>2022-07-18T03:45:52Z</time>
      </trkpt>
      <trkpt lat="44.86864" lon="6.72514">
        <ele>1575.8</ele>
        <time>2022-07-18T03:45:53Z</time>
      </trkpt>
      <trkpt lat="44.86863" lon="6.72512">
        <ele>1576</ele>
        <time>2022-07-18T03:45:54Z</time>
      </trkpt>
      <trkpt lat="44.86861" lon="6.7251">
        <ele>1576.4</ele>
        <time>2022-07-18T03:45:55Z</time>
      </trkpt>
      <trkpt lat="44.86859" lon="6.72507">
        <ele>1576.4</ele>
        <time>2022-07-18T03:45:56Z</time>
      </trkpt>
      <trkpt lat="44.86857" lon="6.72505">
        <ele>1576.6</ele>
        <time>2022-07-18T03:45:57Z</time>
      </trkpt>
      <trkpt lat="44.86855" lon="6.72503">
        <ele>1577</ele>
        <time>2022-07-18T03:45:58Z</time>
      </trkpt>
      <trkpt lat="44.86853" lon="6.725">
        <ele>1577</ele>
        <time>2022-07-18T03:45:59Z</time>
      </trkpt>
      <trkpt lat="44.86851" lon="6.72498">
        <ele>1577.2</ele>
        <time>2022-07-18T03:46:00Z</time>
      </trkpt>
      <trkpt lat="44.86849" lon="6.72496">
        <ele>1577.4</ele>
        <time>2022-07-18T03:46:01Z</time>
      </trkpt>
      <trkpt lat="44.86847" lon="6.72493">
        <ele>1577.4</ele>
        <time>2022-07-18T03:46:02Z</time>
      </trkpt>
      <trkpt lat="44.86845" lon="6.72491">
        <ele>1577.6</ele>
        <time>2022-07-18T03:46:03Z</time>
      </trkpt>
      <trkpt lat="44.86843" lon="6.72489">
        <ele>1577.6</ele>
        <time>2022-07-18T03:46:04Z</time>
      </trkpt>
      <trkpt lat="44.8684" lon="6.72488">
        <ele>1578</ele>
        <time>2022-07-18T03:46:05Z</time>
      </trkpt>
      <trkpt lat="44.86838" lon="6.72487">
        <ele>1578.2</ele>
        <time>2022-07-18T03:46:06Z</time>
      </trkpt>
      <trkpt lat="44.86836" lon="6.72486">
        <ele>1578.6</ele>
        <time>2022-07-18T03:46:07Z</time>
      </trkpt>
      <trkpt lat="44.86834" lon="6.72485">
        <ele>1578.8</ele>
        <time>2022-07-18T03:46:08Z</time>
      </trkpt>
      <trkpt lat="44.86831" lon="6.72484">
        <ele>1578.8</ele>
        <time>2022-07-18T03:46:09Z</time>
      </trkpt>
      <trkpt lat="44.86829" lon="6.72483">
        <ele>1579</ele>
        <time>2022-07-18T03:46:10Z</time>
      </trkpt>
      <trkpt lat="44.86827" lon="6.72482">
        <ele>1579.2</ele>
        <time>2022-07-18T03:46:11Z</time>
      </trkpt>
      <trkpt lat="44.86824" lon="6.72481">
        <ele>1579.2</ele>
        <time>2022-07-18T03:46:12Z</time>
      </trkpt>
      <trkpt lat="44.86822" lon="6.72481">
        <ele>1579.6</ele>
        <time>2022-07-18T03:46:13Z</time>
      </trkpt>
      <trkpt lat="44.8682" lon="6.7248">
        <ele>1579.6</ele>
        <time>2022-07-18T03:46:14Z</time>
      </trkpt>
      <trkpt lat="44.86817" lon="6.72479">
        <ele>1580</ele>
        <time>2022-07-18T03:46:15Z</time>
      </trkpt>
      <trkpt lat="44.86815" lon="6.72479">
        <ele>1580</ele>
        <time>2022-07-18T03:46:16Z</time>
      </trkpt>
      <trkpt lat="44.86813" lon="6.72479">
        <ele>1580.2</ele>
        <time>2022-07-18T03:46:17Z</time>
      </trkpt>
      <trkpt lat="44.8681" lon="6.72478">
        <ele>1580.2</ele>
        <time>2022-07-18T03:46:18Z</time>
      </trkpt>
      <trkpt lat="44.86808" lon="6.72478">
        <ele>1580.6</ele>
        <time>2022-07-18T03:46:19Z</time>
      </trkpt>
      <trkpt lat="44.86805" lon="6.72477">
        <ele>1580.6</ele>
        <time>2022-07-18T03:46:20Z</time>
      </trkpt>
      <trkpt lat="44.86803" lon="6.72477">
        <ele>1581</ele>
        <time>2022-07-18T03:46:21Z</time>
      </trkpt>
      <trkpt lat="44.86801" lon="6.72476">
        <ele>1581</ele>
        <time>2022-07-18T03:46:22Z</time>
      </trkpt>
      <trkpt lat="44.86798" lon="6.72476">
        <ele>1581.4</ele>
        <time>2022-07-18T03:46:23Z</time>
      </trkpt>
      <trkpt lat="44.86796" lon="6.72475">
        <ele>1581.6</ele>
        <time>2022-07-18T03:46:24Z</time>
      </trkpt>
      <trkpt lat="44.86794" lon="6.72475">
        <ele>1581.6</ele>
        <time>2022-07-18T03:46:25Z</time>
      </trkpt>
      <trkpt lat="44.86791" lon="6.72475">
        <ele>1582</ele>
        <time>2022-07-18T03:46:26Z</time>
      </trkpt>
      <trkpt lat="44.86789" lon="6.72474">
        <ele>1582</ele>
        <time>2022-07-18T03:46:27Z</time>
      </trkpt>
      <trkpt lat="44.86786" lon="6.72474">
        <ele>1582.4</ele>
        <time>2022-07-18T03:46:28Z</time>
      </trkpt>
      <trkpt lat="44.86784" lon="6.72474">
        <ele>1582.4</ele>
        <time>2022-07-18T03:46:29Z</time>
      </trkpt>
      <trkpt lat="44.86781" lon="6.72473">
        <ele>1582.6</ele>
        <time>2022-07-18T03:46:30Z</time>
      </trkpt>
      <trkpt lat="44.86779" lon="6.72472">
        <ele>1582.6</ele>
        <time>2022-07-18T03:46:31Z</time>
      </trkpt>
      <trkpt lat="44.86777" lon="6.72472">
        <ele>1583</ele>
        <time>2022-07-18T03:46:32Z</time>
      </trkpt>
      <trkpt lat="44.86774" lon="6.72471">
        <ele>1583</ele>
        <time>2022-07-18T03:46:33Z</time>
      </trkpt>
      <trkpt lat="44.86772" lon="6.72471">
        <ele>1583.4</ele>
        <time>2022-07-18T03:46:34Z</time>
      </trkpt>
      <trkpt lat="44.8677" lon="6.7247">
        <ele>1583.6</ele>
        <time>2022-07-18T03:46:35Z</time>
      </trkpt>
      <trkpt lat="44.86767" lon="6.7247">
        <ele>1583.6</ele>
        <time>2022-07-18T03:46:36Z</time>
      </trkpt>
      <trkpt lat="44.86765" lon="6.72469">
        <ele>1583.8</ele>
        <time>2022-07-18T03:46:37Z</time>
      </trkpt>
      <trkpt lat="44.86762" lon="6.72469">
        <ele>1584</ele>
        <time>2022-07-18T03:46:38Z</time>
      </trkpt>
      <trkpt lat="44.8676" lon="6.72468">
        <ele>1584.4</ele>
        <time>2022-07-18T03:46:39Z</time>
      </trkpt>
      <trkpt lat="44.86758" lon="6.72468">
        <ele>1584.6</ele>
        <time>2022-07-18T03:46:40Z</time>
      </trkpt>
      <trkpt lat="44.86755" lon="6.72468">
        <ele>1584.8</ele>
        <time>2022-07-18T03:46:41Z</time>
      </trkpt>
      <trkpt lat="44.86753" lon="6.72468">
        <ele>1584.8</ele>
        <time>2022-07-18T03:46:42Z</time>
      </trkpt>
      <trkpt lat="44.8675" lon="6.72467">
        <ele>1585</ele>
        <time>2022-07-18T03:46:43Z</time>
      </trkpt>
      <trkpt lat="44.86748" lon="6.72467">
        <ele>1585</ele>
        <time>2022-07-18T03:46:44Z</time>
      </trkpt>
      <trkpt lat="44.86745" lon="6.72467">
        <ele>1585.4</ele>
        <time>2022-07-18T03:46:45Z</time>
      </trkpt>
      <trkpt lat="44.86743" lon="6.72466">
        <ele>1585.4</ele>
        <time>2022-07-18T03:46:46Z</time>
      </trkpt>
      <trkpt lat="44.8674" lon="6.72466">
        <ele>1585.8</ele>
        <time>2022-07-18T03:46:47Z</time>
      </trkpt>
      <trkpt lat="44.86738" lon="6.72466">
        <ele>1585.8</ele>
        <time>2022-07-18T03:46:48Z</time>
      </trkpt>
      <trkpt lat="44.86735" lon="6.72466">
        <ele>1586</ele>
        <time>2022-07-18T03:46:49Z</time>
      </trkpt>
      <trkpt lat="44.86733" lon="6.72466">
        <ele>1586.2</ele>
        <time>2022-07-18T03:46:50Z</time>
      </trkpt>
      <trkpt lat="44.8673" lon="6.72466">
        <ele>1586.2</ele>
        <time>2022-07-18T03:46:51Z</time>
      </trkpt>
      <trkpt lat="44.86728" lon="6.72466">
        <ele>1586.6</ele>
        <time>2022-07-18T03:46:52Z</time>
      </trkpt>
      <trkpt lat="44.86725" lon="6.72466">
        <ele>1586.6</ele>
        <time>2022-07-18T03:46:53Z</time>
      </trkpt>
      <trkpt lat="44.86723" lon="6.72467">
        <ele>1586.8</ele>
        <time>2022-07-18T03:46:54Z</time>
      </trkpt>
      <trkpt lat="44.86721" lon="6.72467">
        <ele>1586.8</ele>
        <time>2022-07-18T03:46:55Z</time>
      </trkpt>
      <trkpt lat="44.86719" lon="6.72468">
        <ele>1587.2</ele>
        <time>2022-07-18T03:46:56Z</time>
      </trkpt>
      <trkpt lat="44.86716" lon="6.72468">
        <ele>1587.2</ele>
        <time>2022-07-18T03:46:57Z</time>
      </trkpt>
      <trkpt lat="44.86714" lon="6.72469">
        <ele>1587.6</ele>
        <time>2022-07-18T03:46:58Z</time>
      </trkpt>
      <trkpt lat="44.86712" lon="6.7247">
        <ele>1587.6</ele>
        <time>2022-07-18T03:46:59Z</time>
      </trkpt>
      <trkpt lat="44.86709" lon="6.7247">
        <ele>1588</ele>
        <time>2022-07-18T03:47:00Z</time>
      </trkpt>
      <trkpt lat="44.86707" lon="6.72471">
        <ele>1588.2</ele>
        <time>2022-07-18T03:47:01Z</time>
      </trkpt>
      <trkpt lat="44.86704" lon="6.72472">
        <ele>1588.2</ele>
        <time>2022-07-18T03:47:02Z</time>
      </trkpt>
      <trkpt lat="44.86702" lon="6.72473">
        <ele>1588.6</ele>
        <time>2022-07-18T03:47:03Z</time>
      </trkpt>
      <trkpt lat="44.867" lon="6.72474">
        <ele>1588.6</ele>
        <time>2022-07-18T03:47:04Z</time>
      </trkpt>
      <trkpt lat="44.86697" lon="6.72474">
        <ele>1588.8</ele>
        <time>2022-07-18T03:47:05Z</time>
      </trkpt>
      <trkpt lat="44.86695" lon="6.72475">
        <ele>1589</ele>
        <time>2022-07-18T03:47:06Z</time>
      </trkpt>
      <trkpt lat="44.86692" lon="6.72476">
        <ele>1589.4</ele>
        <time>2022-07-18T03:47:07Z</time>
      </trkpt>
      <trkpt lat="44.8669" lon="6.72477">
        <ele>1589.4</ele>
        <time>2022-07-18T03:47:08Z</time>
      </trkpt>
      <trkpt lat="44.86687" lon="6.72478">
        <ele>1589.6</ele>
        <time>2022-07-18T03:47:09Z</time>
      </trkpt>
      <trkpt lat="44.86685" lon="6.72479">
        <ele>1589.8</ele>
        <time>2022-07-18T03:47:10Z</time>
      </trkpt>
      <trkpt lat="44.86682" lon="6.72479">
        <ele>1589.8</ele>
        <time>2022-07-18T03:47:11Z</time>
      </trkpt>
      <trkpt lat="44.8668" lon="6.72479">
        <ele>1590.2</ele>
        <time>2022-07-18T03:47:12Z</time>
      </trkpt>
      <trkpt lat="44.86677" lon="6.72479">
        <ele>1590.4</ele>
        <time>2022-07-18T03:47:13Z</time>
      </trkpt>
      <trkpt lat="44.86675" lon="6.72479">
        <ele>1590.4</ele>
        <time>2022-07-18T03:47:14Z</time>
      </trkpt>
      <trkpt lat="44.86672" lon="6.72478">
        <ele>1590.8</ele>
        <time>2022-07-18T03:47:15Z</time>
      </trkpt>
      <trkpt lat="44.86669" lon="6.72478">
        <ele>1590.8</ele>
        <time>2022-07-18T03:47:16Z</time>
      </trkpt>
      <trkpt lat="44.86666" lon="6.72477">
        <ele>1591.2</ele>
        <time>2022-07-18T03:47:17Z</time>
      </trkpt>
      <trkpt lat="44.86663" lon="6.72476">
        <ele>1591.2</ele>
        <time>2022-07-18T03:47:18Z</time>
      </trkpt>
      <trkpt lat="44.86661" lon="6.72475">
        <ele>1591.6</ele>
        <time>2022-07-18T03:47:19Z</time>
      </trkpt>
      <trkpt lat="44.86658" lon="6.72474">
        <ele>1591.6</ele>
        <time>2022-07-18T03:47:20Z</time>
      </trkpt>
      <trkpt lat="44.86655" lon="6.72473">
        <ele>1592</ele>
        <time>2022-07-18T03:47:21Z</time>
      </trkpt>
      <trkpt lat="44.86653" lon="6.72471">
        <ele>1592</ele>
        <time>2022-07-18T03:47:22Z</time>
      </trkpt>
      <trkpt lat="44.86651" lon="6.7247">
        <ele>1592.2</ele>
        <time>2022-07-18T03:47:24Z</time>
      </trkpt>
      <trkpt lat="44.86648" lon="6.72468">
        <ele>1592.6</ele>
        <time>2022-07-18T03:47:25Z</time>
      </trkpt>
      <trkpt lat="44.86646" lon="6.72467">
        <ele>1592.8</ele>
        <time>2022-07-18T03:47:26Z</time>
      </trkpt>
      <trkpt lat="44.86644" lon="6.72465">
        <ele>1593.2</ele>
        <time>2022-07-18T03:47:27Z</time>
      </trkpt>
      <trkpt lat="44.86642" lon="6.72464">
        <ele>1593.4</ele>
        <time>2022-07-18T03:47:28Z</time>
      </trkpt>
      <trkpt lat="44.8664" lon="6.72462">
        <ele>1593.6</ele>
        <time>2022-07-18T03:47:29Z</time>
      </trkpt>
      <trkpt lat="44.86638" lon="6.72461">
        <ele>1593.8</ele>
        <time>2022-07-18T03:47:30Z</time>
      </trkpt>
      <trkpt lat="44.86635" lon="6.72459">
        <ele>1593.8</ele>
        <time>2022-07-18T03:47:31Z</time>
      </trkpt>
      <trkpt lat="44.86633" lon="6.72458">
        <ele>1594.2</ele>
        <time>2022-07-18T03:47:32Z</time>
      </trkpt>
      <trkpt lat="44.86631" lon="6.72456">
        <ele>1594.6</ele>
        <time>2022-07-18T03:47:33Z</time>
      </trkpt>
      <trkpt lat="44.86629" lon="6.72455">
        <ele>1594.6</ele>
        <time>2022-07-18T03:47:34Z</time>
      </trkpt>
      <trkpt lat="44.86627" lon="6.72454">
        <ele>1595</ele>
        <time>2022-07-18T03:47:35Z</time>
      </trkpt>
      <trkpt lat="44.86625" lon="6.72453">
        <ele>1595.2</ele>
        <time>2022-07-18T03:47:36Z</time>
      </trkpt>
      <trkpt lat="44.86623" lon="6.72452">
        <ele>1595.4</ele>
        <time>2022-07-18T03:47:37Z</time>
      </trkpt>
      <trkpt lat="44.8662" lon="6.72451">
        <ele>1595.4</ele>
        <time>2022-07-18T03:47:38Z</time>
      </trkpt>
      <trkpt lat="44.86618" lon="6.7245">
        <ele>1595.6</ele>
        <time>2022-07-18T03:47:39Z</time>
      </trkpt>
      <trkpt lat="44.86616" lon="6.7245">
        <ele>1595.6</ele>
        <time>2022-07-18T03:47:40Z</time>
      </trkpt>
      <trkpt lat="44.86614" lon="6.72449">
        <ele>1596.2</ele>
        <time>2022-07-18T03:47:41Z</time>
      </trkpt>
      <trkpt lat="44.86611" lon="6.72449">
        <ele>1596.4</ele>
        <time>2022-07-18T03:47:42Z</time>
      </trkpt>
      <trkpt lat="44.86609" lon="6.72448">
        <ele>1596.6</ele>
        <time>2022-07-18T03:47:43Z</time>
      </trkpt>
      <trkpt lat="44.86607" lon="6.72448">
        <ele>1596.8</ele>
        <time>2022-07-18T03:47:44Z</time>
      </trkpt>
      <trkpt lat="44.86604" lon="6.72448">
        <ele>1597</ele>
        <time>2022-07-18T03:47:45Z</time>
      </trkpt>
      <trkpt lat="44.86602" lon="6.72448">
        <ele>1597.2</ele>
        <time>2022-07-18T03:47:46Z</time>
      </trkpt>
      <trkpt lat="44.86599" lon="6.72448">
        <ele>1597.2</ele>
        <time>2022-07-18T03:47:47Z</time>
      </trkpt>
      <trkpt lat="44.86596" lon="6.72448">
        <ele>1597.6</ele>
        <time>2022-07-18T03:47:48Z</time>
      </trkpt>
      <trkpt lat="44.86593" lon="6.72448">
        <ele>1597.8</ele>
        <time>2022-07-18T03:47:49Z</time>
      </trkpt>
      <trkpt lat="44.86591" lon="6.72449">
        <ele>1597.8</ele>
        <time>2022-07-18T03:47:50Z</time>
      </trkpt>
      <trkpt lat="44.86588" lon="6.72449">
        <ele>1598.2</ele>
        <time>2022-07-18T03:47:51Z</time>
      </trkpt>
      <trkpt lat="44.86585" lon="6.72449">
        <ele>1598.2</ele>
        <time>2022-07-18T03:47:52Z</time>
      </trkpt>
      <trkpt lat="44.86582" lon="6.7245">
        <ele>1598.6</ele>
        <time>2022-07-18T03:47:53Z</time>
      </trkpt>
      <trkpt lat="44.8658" lon="6.7245">
        <ele>1598.6</ele>
        <time>2022-07-18T03:47:54Z</time>
      </trkpt>
      <trkpt lat="44.86577" lon="6.7245">
        <ele>1598.8</ele>
        <time>2022-07-18T03:47:55Z</time>
      </trkpt>
      <trkpt lat="44.86575" lon="6.72451">
        <ele>1598.8</ele>
        <time>2022-07-18T03:47:56Z</time>
      </trkpt>
      <trkpt lat="44.86572" lon="6.72451">
        <ele>1599</ele>
        <time>2022-07-18T03:47:57Z</time>
      </trkpt>
      <trkpt lat="44.8657" lon="6.72452">
        <ele>1599</ele>
        <time>2022-07-18T03:47:58Z</time>
      </trkpt>
      <trkpt lat="44.86567" lon="6.72452">
        <ele>1599.6</ele>
        <time>2022-07-18T03:47:59Z</time>
      </trkpt>
      <trkpt lat="44.86565" lon="6.72453">
        <ele>1599.6</ele>
        <time>2022-07-18T03:48:00Z</time>
      </trkpt>
      <trkpt lat="44.86562" lon="6.72453">
        <ele>1599.8</ele>
        <time>2022-07-18T03:48:01Z</time>
      </trkpt>
      <trkpt lat="44.8656" lon="6.72454">
        <ele>1599.8</ele>
        <time>2022-07-18T03:48:02Z</time>
      </trkpt>
      <trkpt lat="44.86557" lon="6.72454">
        <ele>1600.2</ele>
        <time>2022-07-18T03:48:03Z</time>
      </trkpt>
      <trkpt lat="44.86555" lon="6.72454">
        <ele>1600.2</ele>
        <time>2022-07-18T03:48:04Z</time>
      </trkpt>
      <trkpt lat="44.86552" lon="6.72454">
        <ele>1600.6</ele>
        <time>2022-07-18T03:48:05Z</time>
      </trkpt>
      <trkpt lat="44.8655" lon="6.72454">
        <ele>1600.6</ele>
        <time>2022-07-18T03:48:06Z</time>
      </trkpt>
      <trkpt lat="44.86548" lon="6.72454">
        <ele>1601</ele>
        <time>2022-07-18T03:48:07Z</time>
      </trkpt>
      <trkpt lat="44.86545" lon="6.72455">
        <ele>1601.2</ele>
        <time>2022-07-18T03:48:08Z</time>
      </trkpt>
      <trkpt lat="44.86543" lon="6.72455">
        <ele>1601.4</ele>
        <time>2022-07-18T03:48:09Z</time>
      </trkpt>
      <trkpt lat="44.86541" lon="6.72455">
        <ele>1601.4</ele>
        <time>2022-07-18T03:48:10Z</time>
      </trkpt>
      <trkpt lat="44.86538" lon="6.72455">
        <ele>1601.8</ele>
        <time>2022-07-18T03:48:11Z</time>
      </trkpt>
      <trkpt lat="44.86536" lon="6.72454">
        <ele>1602</ele>
        <time>2022-07-18T03:48:12Z</time>
      </trkpt>
      <trkpt lat="44.86533" lon="6.72454">
        <ele>1602.2</ele>
        <time>2022-07-18T03:48:13Z</time>
      </trkpt>
      <trkpt lat="44.86531" lon="6.72453">
        <ele>1602.4</ele>
        <time>2022-07-18T03:48:14Z</time>
      </trkpt>
      <trkpt lat="44.86528" lon="6.72453">
        <ele>1602.4</ele>
        <time>2022-07-18T03:48:15Z</time>
      </trkpt>
      <trkpt lat="44.86526" lon="6.72453">
        <ele>1602.8</ele>
        <time>2022-07-18T03:48:16Z</time>
      </trkpt>
      <trkpt lat="44.86523" lon="6.72452">
        <ele>1602.8</ele>
        <time>2022-07-18T03:48:17Z</time>
      </trkpt>
      <trkpt lat="44.86521" lon="6.72452">
        <ele>1603.2</ele>
        <time>2022-07-18T03:48:18Z</time>
      </trkpt>
      <trkpt lat="44.86518" lon="6.72452">
        <ele>1603.2</ele>
        <time>2022-07-18T03:48:19Z</time>
      </trkpt>
      <trkpt lat="44.86516" lon="6.72451">
        <ele>1603.4</ele>
        <time>2022-07-18T03:48:20Z</time>
      </trkpt>
      <trkpt lat="44.86513" lon="6.7245">
        <ele>1603.4</ele>
        <time>2022-07-18T03:48:21Z</time>
      </trkpt>
      <trkpt lat="44.86511" lon="6.7245">
        <ele>1603.8</ele>
        <time>2022-07-18T03:48:22Z</time>
      </trkpt>
      <trkpt lat="44.86508" lon="6.7245">
        <ele>1604</ele>
        <time>2022-07-18T03:48:23Z</time>
      </trkpt>
      <trkpt lat="44.86506" lon="6.7245">
        <ele>1604</ele>
        <time>2022-07-18T03:48:24Z</time>
      </trkpt>
      <trkpt lat="44.86503" lon="6.72449">
        <ele>1604.4</ele>
        <time>2022-07-18T03:48:25Z</time>
      </trkpt>
      <trkpt lat="44.86501" lon="6.72448">
        <ele>1604.6</ele>
        <time>2022-07-18T03:48:26Z</time>
      </trkpt>
      <trkpt lat="44.86498" lon="6.72447">
        <ele>1604.6</ele>
        <time>2022-07-18T03:48:27Z</time>
      </trkpt>
      <trkpt lat="44.86496" lon="6.72446">
        <ele>1605</ele>
        <time>2022-07-18T03:48:28Z</time>
      </trkpt>
      <trkpt lat="44.86494" lon="6.72445">
        <ele>1605</ele>
        <time>2022-07-18T03:48:29Z</time>
      </trkpt>
      <trkpt lat="44.86491" lon="6.72443">
        <ele>1605.4</ele>
        <time>2022-07-18T03:48:30Z</time>
      </trkpt>
      <trkpt lat="44.86489" lon="6.72442">
        <ele>1605.4</ele>
        <time>2022-07-18T03:48:31Z</time>
      </trkpt>
      <trkpt lat="44.86487" lon="6.72441">
        <ele>1605.6</ele>
        <time>2022-07-18T03:48:32Z</time>
      </trkpt>
      <trkpt lat="44.86485" lon="6.7244">
        <ele>1605.6</ele>
        <time>2022-07-18T03:48:33Z</time>
      </trkpt>
      <trkpt lat="44.86482" lon="6.72439">
        <ele>1605.8</ele>
        <time>2022-07-18T03:48:34Z</time>
      </trkpt>
      <trkpt lat="44.8648" lon="6.72438">
        <ele>1605.8</ele>
        <time>2022-07-18T03:48:35Z</time>
      </trkpt>
      <trkpt lat="44.86478" lon="6.72437">
        <ele>1606.2</ele>
        <time>2022-07-18T03:48:36Z</time>
      </trkpt>
      <trkpt lat="44.86476" lon="6.72436">
        <ele>1606.2</ele>
        <time>2022-07-18T03:48:37Z</time>
      </trkpt>
      <trkpt lat="44.86474" lon="6.72435">
        <ele>1606.6</ele>
        <time>2022-07-18T03:48:38Z</time>
      </trkpt>
      <trkpt lat="44.86471" lon="6.72435">
        <ele>1606.6</ele>
        <time>2022-07-18T03:48:39Z</time>
      </trkpt>
      <trkpt lat="44.86469" lon="6.72434">
        <ele>1606.8</ele>
        <time>2022-07-18T03:48:40Z</time>
      </trkpt>
      <trkpt lat="44.86467" lon="6.72433">
        <ele>1606.8</ele>
        <time>2022-07-18T03:48:41Z</time>
      </trkpt>
      <trkpt lat="44.86465" lon="6.72432">
        <ele>1607.2</ele>
        <time>2022-07-18T03:48:42Z</time>
      </trkpt>
      <trkpt lat="44.86462" lon="6.72431">
        <ele>1607.4</ele>
        <time>2022-07-18T03:48:43Z</time>
      </trkpt>
      <trkpt lat="44.8646" lon="6.7243">
        <ele>1607.8</ele>
        <time>2022-07-18T03:48:44Z</time>
      </trkpt>
      <trkpt lat="44.86457" lon="6.72429">
        <ele>1607.8</ele>
        <time>2022-07-18T03:48:45Z</time>
      </trkpt>
      <trkpt lat="44.86455" lon="6.72428">
        <ele>1608</ele>
        <time>2022-07-18T03:48:46Z</time>
      </trkpt>
      <trkpt lat="44.86452" lon="6.72427">
        <ele>1608.4</ele>
        <time>2022-07-18T03:48:47Z</time>
      </trkpt>
      <trkpt lat="44.8645" lon="6.72427">
        <ele>1608.4</ele>
        <time>2022-07-18T03:48:48Z</time>
      </trkpt>
      <trkpt lat="44.86448" lon="6.72426">
        <ele>1608.6</ele>
        <time>2022-07-18T03:48:49Z</time>
      </trkpt>
      <trkpt lat="44.86445" lon="6.72426">
        <ele>1608.6</ele>
        <time>2022-07-18T03:48:50Z</time>
      </trkpt>
      <trkpt lat="44.86443" lon="6.72426">
        <ele>1609</ele>
        <time>2022-07-18T03:48:51Z</time>
      </trkpt>
      <trkpt lat="44.86441" lon="6.72425">
        <ele>1609.4</ele>
        <time>2022-07-18T03:48:52Z</time>
      </trkpt>
      <trkpt lat="44.86439" lon="6.72425">
        <ele>1609.4</ele>
        <time>2022-07-18T03:48:53Z</time>
      </trkpt>
      <trkpt lat="44.86437" lon="6.72424">
        <ele>1609.6</ele>
        <time>2022-07-18T03:48:54Z</time>
      </trkpt>
      <trkpt lat="44.86434" lon="6.72424">
        <ele>1609.6</ele>
        <time>2022-07-18T03:48:55Z</time>
      </trkpt>
      <trkpt lat="44.86432" lon="6.72424">
        <ele>1610</ele>
        <time>2022-07-18T03:48:56Z</time>
      </trkpt>
      <trkpt lat="44.8643" lon="6.72424">
        <ele>1610</ele>
        <time>2022-07-18T03:48:57Z</time>
      </trkpt>
      <trkpt lat="44.86427" lon="6.72423">
        <ele>1610.2</ele>
        <time>2022-07-18T03:48:58Z</time>
      </trkpt>
      <trkpt lat="44.86425" lon="6.72423">
        <ele>1610.4</ele>
        <time>2022-07-18T03:48:59Z</time>
      </trkpt>
      <trkpt lat="44.86423" lon="6.72423">
        <ele>1610.6</ele>
        <time>2022-07-18T03:49:00Z</time>
      </trkpt>
      <trkpt lat="44.86418" lon="6.72423">
        <ele>1611</ele>
        <time>2022-07-18T03:49:01Z</time>
      </trkpt>
      <trkpt lat="44.86416" lon="6.72423">
        <ele>1611.2</ele>
        <time>2022-07-18T03:49:02Z</time>
      </trkpt>
      <trkpt lat="44.86414" lon="6.72424">
        <ele>1611.2</ele>
        <time>2022-07-18T03:49:03Z</time>
      </trkpt>
      <trkpt lat="44.86411" lon="6.72424">
        <ele>1611.4</ele>
        <time>2022-07-18T03:49:04Z</time>
      </trkpt>
      <trkpt lat="44.86409" lon="6.72425">
        <ele>1611.4</ele>
        <time>2022-07-18T03:49:05Z</time>
      </trkpt>
      <trkpt lat="44.86406" lon="6.72425">
        <ele>1611.8</ele>
        <time>2022-07-18T03:49:06Z</time>
      </trkpt>
      <trkpt lat="44.86404" lon="6.72425">
        <ele>1612.2</ele>
        <time>2022-07-18T03:49:07Z</time>
      </trkpt>
      <trkpt lat="44.86401" lon="6.72425">
        <ele>1612.2</ele>
        <time>2022-07-18T03:49:08Z</time>
      </trkpt>
      <trkpt lat="44.86399" lon="6.72426">
        <ele>1612.6</ele>
        <time>2022-07-18T03:49:09Z</time>
      </trkpt>
      <trkpt lat="44.86396" lon="6.72427">
        <ele>1612.6</ele>
        <time>2022-07-18T03:49:10Z</time>
      </trkpt>
      <trkpt lat="44.86394" lon="6.72427">
        <ele>1612.8</ele>
        <time>2022-07-18T03:49:11Z</time>
      </trkpt>
      <trkpt lat="44.86392" lon="6.72428">
        <ele>1612.8</ele>
        <time>2022-07-18T03:49:12Z</time>
      </trkpt>
      <trkpt lat="44.8639" lon="6.72429">
        <ele>1613.2</ele>
        <time>2022-07-18T03:49:13Z</time>
      </trkpt>
      <trkpt lat="44.86387" lon="6.7243">
        <ele>1613.6</ele>
        <time>2022-07-18T03:49:14Z</time>
      </trkpt>
      <trkpt lat="44.86385" lon="6.7243">
        <ele>1613.6</ele>
        <time>2022-07-18T03:49:15Z</time>
      </trkpt>
      <trkpt lat="44.86383" lon="6.72431">
        <ele>1613.8</ele>
        <time>2022-07-18T03:49:16Z</time>
      </trkpt>
      <trkpt lat="44.8638" lon="6.72431">
        <ele>1614</ele>
        <time>2022-07-18T03:49:17Z</time>
      </trkpt>
      <trkpt lat="44.86378" lon="6.72432">
        <ele>1614.4</ele>
        <time>2022-07-18T03:49:18Z</time>
      </trkpt>
      <trkpt lat="44.86376" lon="6.72432">
        <ele>1614.4</ele>
        <time>2022-07-18T03:49:19Z</time>
      </trkpt>
      <trkpt lat="44.86374" lon="6.72433">
        <ele>1614.6</ele>
        <time>2022-07-18T03:49:20Z</time>
      </trkpt>
      <trkpt lat="44.86371" lon="6.72434">
        <ele>1614.8</ele>
        <time>2022-07-18T03:49:21Z</time>
      </trkpt>
      <trkpt lat="44.86369" lon="6.72434">
        <ele>1615.2</ele>
        <time>2022-07-18T03:49:22Z</time>
      </trkpt>
      <trkpt lat="44.86367" lon="6.72435">
        <ele>1615.2</ele>
        <time>2022-07-18T03:49:23Z</time>
      </trkpt>
      <trkpt lat="44.86365" lon="6.72435">
        <ele>1615.6</ele>
        <time>2022-07-18T03:49:24Z</time>
      </trkpt>
      <trkpt lat="44.86362" lon="6.72436">
        <ele>1615.8</ele>
        <time>2022-07-18T03:49:25Z</time>
      </trkpt>
      <trkpt lat="44.8636" lon="6.72437">
        <ele>1615.8</ele>
        <time>2022-07-18T03:49:26Z</time>
      </trkpt>
      <trkpt lat="44.86357" lon="6.72437">
        <ele>1616.2</ele>
        <time>2022-07-18T03:49:27Z</time>
      </trkpt>
      <trkpt lat="44.86355" lon="6.72438">
        <ele>1616.2</ele>
        <time>2022-07-18T03:49:28Z</time>
      </trkpt>
      <trkpt lat="44.86352" lon="6.72439">
        <ele>1616.6</ele>
        <time>2022-07-18T03:49:29Z</time>
      </trkpt>
      <trkpt lat="44.8635" lon="6.7244">
        <ele>1616.8</ele>
        <time>2022-07-18T03:49:30Z</time>
      </trkpt>
      <trkpt lat="44.86347" lon="6.72441">
        <ele>1616.8</ele>
        <time>2022-07-18T03:49:31Z</time>
      </trkpt>
      <trkpt lat="44.86345" lon="6.72442">
        <ele>1617.2</ele>
        <time>2022-07-18T03:49:32Z</time>
      </trkpt>
      <trkpt lat="44.86342" lon="6.72443">
        <ele>1617.2</ele>
        <time>2022-07-18T03:49:33Z</time>
      </trkpt>
      <trkpt lat="44.8634" lon="6.72444">
        <ele>1617.6</ele>
        <time>2022-07-18T03:49:34Z</time>
      </trkpt>
      <trkpt lat="44.86338" lon="6.72445">
        <ele>1617.6</ele>
        <time>2022-07-18T03:49:35Z</time>
      </trkpt>
      <trkpt lat="44.86335" lon="6.72446">
        <ele>1617.8</ele>
        <time>2022-07-18T03:49:36Z</time>
      </trkpt>
      <trkpt lat="44.86333" lon="6.72447">
        <ele>1618</ele>
        <time>2022-07-18T03:49:37Z</time>
      </trkpt>
      <trkpt lat="44.86331" lon="6.72449">
        <ele>1618.2</ele>
        <time>2022-07-18T03:49:38Z</time>
      </trkpt>
      <trkpt lat="44.86329" lon="6.7245">
        <ele>1618.6</ele>
        <time>2022-07-18T03:49:39Z</time>
      </trkpt>
      <trkpt lat="44.86327" lon="6.72451">
        <ele>1618.8</ele>
        <time>2022-07-18T03:49:40Z</time>
      </trkpt>
      <trkpt lat="44.86325" lon="6.72453">
        <ele>1618.8</ele>
        <time>2022-07-18T03:49:41Z</time>
      </trkpt>
      <trkpt lat="44.86322" lon="6.72454">
        <ele>1619</ele>
        <time>2022-07-18T03:49:42Z</time>
      </trkpt>
      <trkpt lat="44.8632" lon="6.72456">
        <ele>1619</ele>
        <time>2022-07-18T03:49:43Z</time>
      </trkpt>
      <trkpt lat="44.86318" lon="6.72457">
        <ele>1619.4</ele>
        <time>2022-07-18T03:49:44Z</time>
      </trkpt>
      <trkpt lat="44.86316" lon="6.72459">
        <ele>1619.6</ele>
        <time>2022-07-18T03:49:45Z</time>
      </trkpt>
      <trkpt lat="44.86314" lon="6.72461">
        <ele>1620</ele>
        <time>2022-07-18T03:49:46Z</time>
      </trkpt>
      <trkpt lat="44.86312" lon="6.72462">
        <ele>1620</ele>
        <time>2022-07-18T03:49:47Z</time>
      </trkpt>
      <trkpt lat="44.8631" lon="6.72464">
        <ele>1620.4</ele>
        <time>2022-07-18T03:49:48Z</time>
      </trkpt>
      <trkpt lat="44.86308" lon="6.72466">
        <ele>1620.4</ele>
        <time>2022-07-18T03:49:49Z</time>
      </trkpt>
      <trkpt lat="44.86305" lon="6.72468">
        <ele>1620.8</ele>
        <time>2022-07-18T03:49:50Z</time>
      </trkpt>
      <trkpt lat="44.86303" lon="6.7247">
        <ele>1620.8</ele>
        <time>2022-07-18T03:49:51Z</time>
      </trkpt>
      <trkpt lat="44.86301" lon="6.72472">
        <ele>1621.2</ele>
        <time>2022-07-18T03:49:52Z</time>
      </trkpt>
      <trkpt lat="44.86299" lon="6.72473">
        <ele>1621.4</ele>
        <time>2022-07-18T03:49:53Z</time>
      </trkpt>
      <trkpt lat="44.86297" lon="6.72475">
        <ele>1621.6</ele>
        <time>2022-07-18T03:49:54Z</time>
      </trkpt>
      <trkpt lat="44.86295" lon="6.72477">
        <ele>1621.8</ele>
        <time>2022-07-18T03:49:55Z</time>
      </trkpt>
      <trkpt lat="44.86293" lon="6.72479">
        <ele>1621.8</ele>
        <time>2022-07-18T03:49:56Z</time>
      </trkpt>
      <trkpt lat="44.86291" lon="6.72481">
        <ele>1622.2</ele>
        <time>2022-07-18T03:49:57Z</time>
      </trkpt>
      <trkpt lat="44.86289" lon="6.72482">
        <ele>1622.2</ele>
        <time>2022-07-18T03:49:58Z</time>
      </trkpt>
      <trkpt lat="44.86287" lon="6.72484">
        <ele>1622.4</ele>
        <time>2022-07-18T03:49:59Z</time>
      </trkpt>
      <trkpt lat="44.86284" lon="6.72486">
        <ele>1622.4</ele>
        <time>2022-07-18T03:50:00Z</time>
      </trkpt>
      <trkpt lat="44.86282" lon="6.72487">
        <ele>1622.8</ele>
        <time>2022-07-18T03:50:01Z</time>
      </trkpt>
      <trkpt lat="44.8628" lon="6.72488">
        <ele>1623</ele>
        <time>2022-07-18T03:50:02Z</time>
      </trkpt>
      <trkpt lat="44.86277" lon="6.72489">
        <ele>1623</ele>
        <time>2022-07-18T03:50:03Z</time>
      </trkpt>
      <trkpt lat="44.86275" lon="6.72489">
        <ele>1623.4</ele>
        <time>2022-07-18T03:50:04Z</time>
      </trkpt>
      <trkpt lat="44.86272" lon="6.72489">
        <ele>1623.4</ele>
        <time>2022-07-18T03:50:05Z</time>
      </trkpt>
      <trkpt lat="44.86269" lon="6.7249">
        <ele>1623.6</ele>
        <time>2022-07-18T03:50:06Z</time>
      </trkpt>
      <trkpt lat="44.86267" lon="6.7249">
        <ele>1623.8</ele>
        <time>2022-07-18T03:50:07Z</time>
      </trkpt>
      <trkpt lat="44.86265" lon="6.7249">
        <ele>1624</ele>
        <time>2022-07-18T03:50:08Z</time>
      </trkpt>
      <trkpt lat="44.86262" lon="6.7249">
        <ele>1624</ele>
        <time>2022-07-18T03:50:09Z</time>
      </trkpt>
      <trkpt lat="44.86259" lon="6.72489">
        <ele>1624.4</ele>
        <time>2022-07-18T03:50:10Z</time>
      </trkpt>
      <trkpt lat="44.86257" lon="6.72489">
        <ele>1624.4</ele>
        <time>2022-07-18T03:50:11Z</time>
      </trkpt>
      <trkpt lat="44.86254" lon="6.72488">
        <ele>1624.8</ele>
        <time>2022-07-18T03:50:12Z</time>
      </trkpt>
      <trkpt lat="44.86251" lon="6.72488">
        <ele>1625</ele>
        <time>2022-07-18T03:50:13Z</time>
      </trkpt>
      <trkpt lat="44.86249" lon="6.72487">
        <ele>1625</ele>
        <time>2022-07-18T03:50:14Z</time>
      </trkpt>
      <trkpt lat="44.86246" lon="6.72487">
        <ele>1625.4</ele>
        <time>2022-07-18T03:50:15Z</time>
      </trkpt>
      <trkpt lat="44.86244" lon="6.72486">
        <ele>1625.6</ele>
        <time>2022-07-18T03:50:16Z</time>
      </trkpt>
      <trkpt lat="44.86241" lon="6.72485">
        <ele>1626</ele>
        <time>2022-07-18T03:50:17Z</time>
      </trkpt>
      <trkpt lat="44.86239" lon="6.72485">
        <ele>1626</ele>
        <time>2022-07-18T03:50:18Z</time>
      </trkpt>
      <trkpt lat="44.86236" lon="6.72484">
        <ele>1626.4</ele>
        <time>2022-07-18T03:50:19Z</time>
      </trkpt>
      <trkpt lat="44.86233" lon="6.72484">
        <ele>1626.6</ele>
        <time>2022-07-18T03:50:20Z</time>
      </trkpt>
      <trkpt lat="44.86231" lon="6.72484">
        <ele>1626.6</ele>
        <time>2022-07-18T03:50:21Z</time>
      </trkpt>
      <trkpt lat="44.86229" lon="6.72483">
        <ele>1627</ele>
        <time>2022-07-18T03:50:22Z</time>
      </trkpt>
      <trkpt lat="44.86226" lon="6.72483">
        <ele>1627.2</ele>
        <time>2022-07-18T03:50:23Z</time>
      </trkpt>
      <trkpt lat="44.86224" lon="6.72483">
        <ele>1627.2</ele>
        <time>2022-07-18T03:50:24Z</time>
      </trkpt>
      <trkpt lat="44.86222" lon="6.72483">
        <ele>1627.6</ele>
        <time>2022-07-18T03:50:25Z</time>
      </trkpt>
      <trkpt lat="44.86219" lon="6.72483">
        <ele>1627.6</ele>
        <time>2022-07-18T03:50:26Z</time>
      </trkpt>
      <trkpt lat="44.86217" lon="6.72484">
        <ele>1628</ele>
        <time>2022-07-18T03:50:27Z</time>
      </trkpt>
      <trkpt lat="44.86214" lon="6.72484">
        <ele>1628</ele>
        <time>2022-07-18T03:50:28Z</time>
      </trkpt>
      <trkpt lat="44.86212" lon="6.72484">
        <ele>1628.4</ele>
        <time>2022-07-18T03:50:29Z</time>
      </trkpt>
      <trkpt lat="44.86209" lon="6.72485">
        <ele>1628.6</ele>
        <time>2022-07-18T03:50:30Z</time>
      </trkpt>
      <trkpt lat="44.86207" lon="6.72486">
        <ele>1628.8</ele>
        <time>2022-07-18T03:50:31Z</time>
      </trkpt>
      <trkpt lat="44.86205" lon="6.72486">
        <ele>1629</ele>
        <time>2022-07-18T03:50:32Z</time>
      </trkpt>
      <trkpt lat="44.86202" lon="6.72487">
        <ele>1629.2</ele>
        <time>2022-07-18T03:50:33Z</time>
      </trkpt>
      <trkpt lat="44.862" lon="6.72488">
        <ele>1629.2</ele>
        <time>2022-07-18T03:50:34Z</time>
      </trkpt>
      <trkpt lat="44.86198" lon="6.72488">
        <ele>1629.6</ele>
        <time>2022-07-18T03:50:35Z</time>
      </trkpt>
      <trkpt lat="44.86195" lon="6.72489">
        <ele>1629.6</ele>
        <time>2022-07-18T03:50:36Z</time>
      </trkpt>
      <trkpt lat="44.86193" lon="6.7249">
        <ele>1629.8</ele>
        <time>2022-07-18T03:50:37Z</time>
      </trkpt>
      <trkpt lat="44.86191" lon="6.72491">
        <ele>1629.8</ele>
        <time>2022-07-18T03:50:38Z</time>
      </trkpt>
      <trkpt lat="44.86189" lon="6.72492">
        <ele>1630.2</ele>
        <time>2022-07-18T03:50:39Z</time>
      </trkpt>
      <trkpt lat="44.86186" lon="6.72493">
        <ele>1630.2</ele>
        <time>2022-07-18T03:50:40Z</time>
      </trkpt>
      <trkpt lat="44.86184" lon="6.72494">
        <ele>1630.6</ele>
        <time>2022-07-18T03:50:41Z</time>
      </trkpt>
      <trkpt lat="44.86182" lon="6.72494">
        <ele>1630.6</ele>
        <time>2022-07-18T03:50:42Z</time>
      </trkpt>
      <trkpt lat="44.8618" lon="6.72495">
        <ele>1630.8</ele>
        <time>2022-07-18T03:50:43Z</time>
      </trkpt>
      <trkpt lat="44.86177" lon="6.72495">
        <ele>1630.8</ele>
        <time>2022-07-18T03:50:44Z</time>
      </trkpt>
      <trkpt lat="44.86175" lon="6.72496">
        <ele>1631.2</ele>
        <time>2022-07-18T03:50:45Z</time>
      </trkpt>
      <trkpt lat="44.86173" lon="6.72496">
        <ele>1631.2</ele>
        <time>2022-07-18T03:50:46Z</time>
      </trkpt>
      <trkpt lat="44.8617" lon="6.72497">
        <ele>1631.6</ele>
        <time>2022-07-18T03:50:47Z</time>
      </trkpt>
      <trkpt lat="44.86168" lon="6.72497">
        <ele>1631.6</ele>
        <time>2022-07-18T03:50:48Z</time>
      </trkpt>
      <trkpt lat="44.86165" lon="6.72498">
        <ele>1631.8</ele>
        <time>2022-07-18T03:50:49Z</time>
      </trkpt>
      <trkpt lat="44.86163" lon="6.72499">
        <ele>1631.8</ele>
        <time>2022-07-18T03:50:50Z</time>
      </trkpt>
      <trkpt lat="44.86161" lon="6.725">
        <ele>1632</ele>
        <time>2022-07-18T03:50:51Z</time>
      </trkpt>
      <trkpt lat="44.86158" lon="6.725">
        <ele>1632.2</ele>
        <time>2022-07-18T03:50:52Z</time>
      </trkpt>
      <trkpt lat="44.86155" lon="6.72501">
        <ele>1632.4</ele>
        <time>2022-07-18T03:50:53Z</time>
      </trkpt>
      <trkpt lat="44.86153" lon="6.72501">
        <ele>1632.8</ele>
        <time>2022-07-18T03:50:54Z</time>
      </trkpt>
      <trkpt lat="44.86151" lon="6.72502">
        <ele>1633</ele>
        <time>2022-07-18T03:50:55Z</time>
      </trkpt>
      <trkpt lat="44.86148" lon="6.72502">
        <ele>1633.2</ele>
        <time>2022-07-18T03:50:56Z</time>
      </trkpt>
      <trkpt lat="44.86146" lon="6.72503">
        <ele>1633.4</ele>
        <time>2022-07-18T03:50:57Z</time>
      </trkpt>
      <trkpt lat="44.86143" lon="6.72504">
        <ele>1633.4</ele>
        <time>2022-07-18T03:50:58Z</time>
      </trkpt>
      <trkpt lat="44.86141" lon="6.72504">
        <ele>1633.8</ele>
        <time>2022-07-18T03:50:59Z</time>
      </trkpt>
      <trkpt lat="44.86138" lon="6.72504">
        <ele>1633.8</ele>
        <time>2022-07-18T03:51:00Z</time>
      </trkpt>
      <trkpt lat="44.86136" lon="6.72504">
        <ele>1634.2</ele>
        <time>2022-07-18T03:51:01Z</time>
      </trkpt>
      <trkpt lat="44.86134" lon="6.72504">
        <ele>1634.2</ele>
        <time>2022-07-18T03:51:02Z</time>
      </trkpt>
      <trkpt lat="44.86131" lon="6.72504">
        <ele>1634.6</ele>
        <time>2022-07-18T03:51:03Z</time>
      </trkpt>
      <trkpt lat="44.86129" lon="6.72504">
        <ele>1634.6</ele>
        <time>2022-07-18T03:51:04Z</time>
      </trkpt>
      <trkpt lat="44.86126" lon="6.72504">
        <ele>1634.8</ele>
        <time>2022-07-18T03:51:05Z</time>
      </trkpt>
      <trkpt lat="44.86124" lon="6.72504">
        <ele>1634.8</ele>
        <time>2022-07-18T03:51:06Z</time>
      </trkpt>
      <trkpt lat="44.86122" lon="6.72504">
        <ele>1635.2</ele>
        <time>2022-07-18T03:51:07Z</time>
      </trkpt>
      <trkpt lat="44.86119" lon="6.72504">
        <ele>1635.2</ele>
        <time>2022-07-18T03:51:08Z</time>
      </trkpt>
      <trkpt lat="44.86117" lon="6.72504">
        <ele>1635.4</ele>
        <time>2022-07-18T03:51:09Z</time>
      </trkpt>
      <trkpt lat="44.86114" lon="6.72504">
        <ele>1635.4</ele>
        <time>2022-07-18T03:51:10Z</time>
      </trkpt>
      <trkpt lat="44.86112" lon="6.72503">
        <ele>1635.4</ele>
        <time>2022-07-18T03:51:11Z</time>
      </trkpt>
      <trkpt lat="44.86109" lon="6.72503">
        <ele>1635.8</ele>
        <time>2022-07-18T03:51:12Z</time>
      </trkpt>
      <trkpt lat="44.86107" lon="6.72503">
        <ele>1636</ele>
        <time>2022-07-18T03:51:13Z</time>
      </trkpt>
      <trkpt lat="44.86104" lon="6.72503">
        <ele>1636</ele>
        <time>2022-07-18T03:51:14Z</time>
      </trkpt>
      <trkpt lat="44.86102" lon="6.72502">
        <ele>1636.4</ele>
        <time>2022-07-18T03:51:15Z</time>
      </trkpt>
      <trkpt lat="44.86099" lon="6.72502">
        <ele>1636.6</ele>
        <time>2022-07-18T03:51:16Z</time>
      </trkpt>
      <trkpt lat="44.86097" lon="6.72501">
        <ele>1636.6</ele>
        <time>2022-07-18T03:51:17Z</time>
      </trkpt>
      <trkpt lat="44.86094" lon="6.72501">
        <ele>1637</ele>
        <time>2022-07-18T03:51:18Z</time>
      </trkpt>
      <trkpt lat="44.86092" lon="6.725">
        <ele>1637</ele>
        <time>2022-07-18T03:51:19Z</time>
      </trkpt>
      <trkpt lat="44.86089" lon="6.725">
        <ele>1637.4</ele>
        <time>2022-07-18T03:51:20Z</time>
      </trkpt>
      <trkpt lat="44.86087" lon="6.72499">
        <ele>1637.4</ele>
        <time>2022-07-18T03:51:21Z</time>
      </trkpt>
      <trkpt lat="44.86084" lon="6.72498">
        <ele>1637.8</ele>
        <time>2022-07-18T03:51:22Z</time>
      </trkpt>
      <trkpt lat="44.86082" lon="6.72498">
        <ele>1637.8</ele>
        <time>2022-07-18T03:51:23Z</time>
      </trkpt>
      <trkpt lat="44.86079" lon="6.72497">
        <ele>1638.2</ele>
        <time>2022-07-18T03:51:24Z</time>
      </trkpt>
      <trkpt lat="44.86076" lon="6.72497">
        <ele>1638.4</ele>
        <time>2022-07-18T03:51:25Z</time>
      </trkpt>
      <trkpt lat="44.86074" lon="6.72497">
        <ele>1638.8</ele>
        <time>2022-07-18T03:51:26Z</time>
      </trkpt>
      <trkpt lat="44.86072" lon="6.72496">
        <ele>1638.8</ele>
        <time>2022-07-18T03:51:27Z</time>
      </trkpt>
      <trkpt lat="44.86069" lon="6.72496">
        <ele>1639.2</ele>
        <time>2022-07-18T03:51:28Z</time>
      </trkpt>
      <trkpt lat="44.86067" lon="6.72495">
        <ele>1639.4</ele>
        <time>2022-07-18T03:51:29Z</time>
      </trkpt>
      <trkpt lat="44.86064" lon="6.72495">
        <ele>1639.4</ele>
        <time>2022-07-18T03:51:30Z</time>
      </trkpt>
      <trkpt lat="44.86062" lon="6.72494">
        <ele>1639.8</ele>
        <time>2022-07-18T03:51:31Z</time>
      </trkpt>
      <trkpt lat="44.8606" lon="6.72494">
        <ele>1639.8</ele>
        <time>2022-07-18T03:51:32Z</time>
      </trkpt>
      <trkpt lat="44.86057" lon="6.72494">
        <ele>1640</ele>
        <time>2022-07-18T03:51:33Z</time>
      </trkpt>
      <trkpt lat="44.86055" lon="6.72493">
        <ele>1640.2</ele>
        <time>2022-07-18T03:51:34Z</time>
      </trkpt>
      <trkpt lat="44.86053" lon="6.72493">
        <ele>1640.6</ele>
        <time>2022-07-18T03:51:35Z</time>
      </trkpt>
      <trkpt lat="44.8605" lon="6.72492">
        <ele>1640.8</ele>
        <time>2022-07-18T03:51:36Z</time>
      </trkpt>
      <trkpt lat="44.86048" lon="6.72492">
        <ele>1641</ele>
        <time>2022-07-18T03:51:37Z</time>
      </trkpt>
      <trkpt lat="44.86045" lon="6.72491">
        <ele>1641</ele>
        <time>2022-07-18T03:51:38Z</time>
      </trkpt>
      <trkpt lat="44.86043" lon="6.72491">
        <ele>1641.4</ele>
        <time>2022-07-18T03:51:39Z</time>
      </trkpt>
      <trkpt lat="44.86041" lon="6.72491">
        <ele>1641.6</ele>
        <time>2022-07-18T03:51:40Z</time>
      </trkpt>
      <trkpt lat="44.86038" lon="6.7249">
        <ele>1641.6</ele>
        <time>2022-07-18T03:51:41Z</time>
      </trkpt>
      <trkpt lat="44.86036" lon="6.7249">
        <ele>1642</ele>
        <time>2022-07-18T03:51:42Z</time>
      </trkpt>
      <trkpt lat="44.86033" lon="6.7249">
        <ele>1642.2</ele>
        <time>2022-07-18T03:51:43Z</time>
      </trkpt>
      <trkpt lat="44.86031" lon="6.72489">
        <ele>1642.4</ele>
        <time>2022-07-18T03:51:44Z</time>
      </trkpt>
      <trkpt lat="44.86029" lon="6.72489">
        <ele>1642.6</ele>
        <time>2022-07-18T03:51:45Z</time>
      </trkpt>
      <trkpt lat="44.86026" lon="6.72488">
        <ele>1642.8</ele>
        <time>2022-07-18T03:51:46Z</time>
      </trkpt>
      <trkpt lat="44.86024" lon="6.72488">
        <ele>1643</ele>
        <time>2022-07-18T03:51:47Z</time>
      </trkpt>
      <trkpt lat="44.86021" lon="6.72488">
        <ele>1643.2</ele>
        <time>2022-07-18T03:51:48Z</time>
      </trkpt>
      <trkpt lat="44.86019" lon="6.72488">
        <ele>1643.4</ele>
        <time>2022-07-18T03:51:49Z</time>
      </trkpt>
      <trkpt lat="44.86017" lon="6.72488">
        <ele>1643.4</ele>
        <time>2022-07-18T03:51:50Z</time>
      </trkpt>
      <trkpt lat="44.86014" lon="6.72487">
        <ele>1643.8</ele>
        <time>2022-07-18T03:51:51Z</time>
      </trkpt>
      <trkpt lat="44.86011" lon="6.72487">
        <ele>1643.8</ele>
        <time>2022-07-18T03:51:52Z</time>
      </trkpt>
      <trkpt lat="44.86009" lon="6.72487">
        <ele>1644</ele>
        <time>2022-07-18T03:51:53Z</time>
      </trkpt>
      <trkpt lat="44.86006" lon="6.72487">
        <ele>1644.4</ele>
        <time>2022-07-18T03:51:54Z</time>
      </trkpt>
      <trkpt lat="44.86004" lon="6.72487">
        <ele>1644.4</ele>
        <time>2022-07-18T03:51:55Z</time>
      </trkpt>
      <trkpt lat="44.86001" lon="6.72487">
        <ele>1644.6</ele>
        <time>2022-07-18T03:51:56Z</time>
      </trkpt>
      <trkpt lat="44.85999" lon="6.72487">
        <ele>1644.6</ele>
        <time>2022-07-18T03:51:57Z</time>
      </trkpt>
      <trkpt lat="44.85997" lon="6.72487">
        <ele>1645</ele>
        <time>2022-07-18T03:51:58Z</time>
      </trkpt>
      <trkpt lat="44.85994" lon="6.72486">
        <ele>1645.2</ele>
        <time>2022-07-18T03:51:59Z</time>
      </trkpt>
      <trkpt lat="44.85992" lon="6.72486">
        <ele>1645.2</ele>
        <time>2022-07-18T03:52:00Z</time>
      </trkpt>
      <trkpt lat="44.85989" lon="6.72486">
        <ele>1645.4</ele>
        <time>2022-07-18T03:52:01Z</time>
      </trkpt>
      <trkpt lat="44.85987" lon="6.72487">
        <ele>1645.4</ele>
        <time>2022-07-18T03:52:02Z</time>
      </trkpt>
      <trkpt lat="44.85985" lon="6.72487">
        <ele>1645.8</ele>
        <time>2022-07-18T03:52:03Z</time>
      </trkpt>
      <trkpt lat="44.85982" lon="6.72487">
        <ele>1645.8</ele>
        <time>2022-07-18T03:52:04Z</time>
      </trkpt>
      <trkpt lat="44.8598" lon="6.72487">
        <ele>1646.2</ele>
        <time>2022-07-18T03:52:05Z</time>
      </trkpt>
      <trkpt lat="44.85978" lon="6.72488">
        <ele>1646.2</ele>
        <time>2022-07-18T03:52:06Z</time>
      </trkpt>
      <trkpt lat="44.85975" lon="6.72488">
        <ele>1646.4</ele>
        <time>2022-07-18T03:52:07Z</time>
      </trkpt>
      <trkpt lat="44.85973" lon="6.72488">
        <ele>1646.4</ele>
        <time>2022-07-18T03:52:08Z</time>
      </trkpt>
      <trkpt lat="44.85971" lon="6.72488">
        <ele>1646.8</ele>
        <time>2022-07-18T03:52:09Z</time>
      </trkpt>
      <trkpt lat="44.85968" lon="6.72489">
        <ele>1646.8</ele>
        <time>2022-07-18T03:52:10Z</time>
      </trkpt>
      <trkpt lat="44.85966" lon="6.72489">
        <ele>1647.2</ele>
        <time>2022-07-18T03:52:11Z</time>
      </trkpt>
      <trkpt lat="44.85963" lon="6.72489">
        <ele>1647.4</ele>
        <time>2022-07-18T03:52:12Z</time>
      </trkpt>
      <trkpt lat="44.85961" lon="6.7249">
        <ele>1647.4</ele>
        <time>2022-07-18T03:52:13Z</time>
      </trkpt>
      <trkpt lat="44.85959" lon="6.7249">
        <ele>1647.8</ele>
        <time>2022-07-18T03:52:14Z</time>
      </trkpt>
      <trkpt lat="44.85956" lon="6.7249">
        <ele>1647.8</ele>
        <time>2022-07-18T03:52:15Z</time>
      </trkpt>
      <trkpt lat="44.85954" lon="6.7249">
        <ele>1648</ele>
        <time>2022-07-18T03:52:16Z</time>
      </trkpt>
      <trkpt lat="44.85952" lon="6.7249">
        <ele>1648</ele>
        <time>2022-07-18T03:52:17Z</time>
      </trkpt>
      <trkpt lat="44.85949" lon="6.72491">
        <ele>1648.4</ele>
        <time>2022-07-18T03:52:18Z</time>
      </trkpt>
      <trkpt lat="44.85947" lon="6.72491">
        <ele>1648.4</ele>
        <time>2022-07-18T03:52:19Z</time>
      </trkpt>
      <trkpt lat="44.85945" lon="6.72491">
        <ele>1648.6</ele>
        <time>2022-07-18T03:52:20Z</time>
      </trkpt>
      <trkpt lat="44.85943" lon="6.72491">
        <ele>1649</ele>
        <time>2022-07-18T03:52:21Z</time>
      </trkpt>
      <trkpt lat="44.8594" lon="6.72491">
        <ele>1649</ele>
        <time>2022-07-18T03:52:22Z</time>
      </trkpt>
      <trkpt lat="44.85938" lon="6.72492">
        <ele>1649.2</ele>
        <time>2022-07-18T03:52:23Z</time>
      </trkpt>
      <trkpt lat="44.85935" lon="6.72492">
        <ele>1649.2</ele>
        <time>2022-07-18T03:52:24Z</time>
      </trkpt>
      <trkpt lat="44.85933" lon="6.72492">
        <ele>1649.6</ele>
        <time>2022-07-18T03:52:25Z</time>
      </trkpt>
      <trkpt lat="44.85931" lon="6.72492">
        <ele>1649.6</ele>
        <time>2022-07-18T03:52:26Z</time>
      </trkpt>
      <trkpt lat="44.85929" lon="6.72492">
        <ele>1650</ele>
        <time>2022-07-18T03:52:27Z</time>
      </trkpt>
      <trkpt lat="44.85926" lon="6.72493">
        <ele>1650.2</ele>
        <time>2022-07-18T03:52:28Z</time>
      </trkpt>
      <trkpt lat="44.85924" lon="6.72493">
        <ele>1650.4</ele>
        <time>2022-07-18T03:52:29Z</time>
      </trkpt>
      <trkpt lat="44.85921" lon="6.72493">
        <ele>1650.4</ele>
        <time>2022-07-18T03:52:30Z</time>
      </trkpt>
      <trkpt lat="44.85919" lon="6.72493">
        <ele>1650.8</ele>
        <time>2022-07-18T03:52:31Z</time>
      </trkpt>
      <trkpt lat="44.85916" lon="6.72494">
        <ele>1651</ele>
        <time>2022-07-18T03:52:32Z</time>
      </trkpt>
      <trkpt lat="44.85913" lon="6.72494">
        <ele>1651</ele>
        <time>2022-07-18T03:52:33Z</time>
      </trkpt>
      <trkpt lat="44.85911" lon="6.72495">
        <ele>1651.2</ele>
        <time>2022-07-18T03:52:34Z</time>
      </trkpt>
      <trkpt lat="44.85908" lon="6.72496">
        <ele>1651.2</ele>
        <time>2022-07-18T03:52:35Z</time>
      </trkpt>
      <trkpt lat="44.85906" lon="6.72496">
        <ele>1651.6</ele>
        <time>2022-07-18T03:52:36Z</time>
      </trkpt>
      <trkpt lat="44.85903" lon="6.72497">
        <ele>1651.6</ele>
        <time>2022-07-18T03:52:37Z</time>
      </trkpt>
      <trkpt lat="44.85901" lon="6.72498">
        <ele>1652</ele>
        <time>2022-07-18T03:52:38Z</time>
      </trkpt>
      <trkpt lat="44.85898" lon="6.72499">
        <ele>1652</ele>
        <time>2022-07-18T03:52:39Z</time>
      </trkpt>
      <trkpt lat="44.85896" lon="6.72499">
        <ele>1652.4</ele>
        <time>2022-07-18T03:52:40Z</time>
      </trkpt>
      <trkpt lat="44.85893" lon="6.725">
        <ele>1652.6</ele>
        <time>2022-07-18T03:52:41Z</time>
      </trkpt>
      <trkpt lat="44.85891" lon="6.72501">
        <ele>1652.8</ele>
        <time>2022-07-18T03:52:42Z</time>
      </trkpt>
      <trkpt lat="44.85889" lon="6.72501">
        <ele>1653</ele>
        <time>2022-07-18T03:52:43Z</time>
      </trkpt>
      <trkpt lat="44.85886" lon="6.72502">
        <ele>1653.4</ele>
        <time>2022-07-18T03:52:44Z</time>
      </trkpt>
      <trkpt lat="44.85884" lon="6.72503">
        <ele>1653.6</ele>
        <time>2022-07-18T03:52:45Z</time>
      </trkpt>
      <trkpt lat="44.85881" lon="6.72505">
        <ele>1653.6</ele>
        <time>2022-07-18T03:52:46Z</time>
      </trkpt>
      <trkpt lat="44.85879" lon="6.72506">
        <ele>1653.8</ele>
        <time>2022-07-18T03:52:47Z</time>
      </trkpt>
      <trkpt lat="44.85876" lon="6.72507">
        <ele>1653.8</ele>
        <time>2022-07-18T03:52:48Z</time>
      </trkpt>
      <trkpt lat="44.85874" lon="6.72508">
        <ele>1654.2</ele>
        <time>2022-07-18T03:52:49Z</time>
      </trkpt>
      <trkpt lat="44.85871" lon="6.7251">
        <ele>1654.4</ele>
        <time>2022-07-18T03:52:50Z</time>
      </trkpt>
      <trkpt lat="44.85869" lon="6.72511">
        <ele>1654.4</ele>
        <time>2022-07-18T03:52:51Z</time>
      </trkpt>
      <trkpt lat="44.85867" lon="6.72512">
        <ele>1654.8</ele>
        <time>2022-07-18T03:52:52Z</time>
      </trkpt>
      <trkpt lat="44.85864" lon="6.72514">
        <ele>1654.8</ele>
        <time>2022-07-18T03:52:53Z</time>
      </trkpt>
      <trkpt lat="44.85861" lon="6.72515">
        <ele>1655.2</ele>
        <time>2022-07-18T03:52:54Z</time>
      </trkpt>
      <trkpt lat="44.85859" lon="6.72517">
        <ele>1655.2</ele>
        <time>2022-07-18T03:52:55Z</time>
      </trkpt>
      <trkpt lat="44.85856" lon="6.72518">
        <ele>1655.4</ele>
        <time>2022-07-18T03:52:56Z</time>
      </trkpt>
      <trkpt lat="44.85854" lon="6.7252">
        <ele>1655.6</ele>
        <time>2022-07-18T03:52:57Z</time>
      </trkpt>
      <trkpt lat="44.85852" lon="6.72521">
        <ele>1656</ele>
        <time>2022-07-18T03:52:58Z</time>
      </trkpt>
      <trkpt lat="44.85849" lon="6.72522">
        <ele>1656</ele>
        <time>2022-07-18T03:52:59Z</time>
      </trkpt>
      <trkpt lat="44.85847" lon="6.72524">
        <ele>1656.2</ele>
        <time>2022-07-18T03:53:00Z</time>
      </trkpt>
      <trkpt lat="44.85845" lon="6.72525">
        <ele>1656.2</ele>
        <time>2022-07-18T03:53:01Z</time>
      </trkpt>
      <trkpt lat="44.85842" lon="6.72527">
        <ele>1656.6</ele>
        <time>2022-07-18T03:53:02Z</time>
      </trkpt>
      <trkpt lat="44.8584" lon="6.72528">
        <ele>1656.6</ele>
        <time>2022-07-18T03:53:03Z</time>
      </trkpt>
      <trkpt lat="44.85837" lon="6.7253">
        <ele>1657</ele>
        <time>2022-07-18T03:53:04Z</time>
      </trkpt>
      <trkpt lat="44.85835" lon="6.72532">
        <ele>1657</ele>
        <time>2022-07-18T03:53:05Z</time>
      </trkpt>
      <trkpt lat="44.85832" lon="6.72533">
        <ele>1657.2</ele>
        <time>2022-07-18T03:53:06Z</time>
      </trkpt>
      <trkpt lat="44.8583" lon="6.72535">
        <ele>1657.4</ele>
        <time>2022-07-18T03:53:07Z</time>
      </trkpt>
      <trkpt lat="44.85827" lon="6.72536">
        <ele>1657.6</ele>
        <time>2022-07-18T03:53:08Z</time>
      </trkpt>
      <trkpt lat="44.85825" lon="6.72538">
        <ele>1657.6</ele>
        <time>2022-07-18T03:53:09Z</time>
      </trkpt>
      <trkpt lat="44.85823" lon="6.72539">
        <ele>1658</ele>
        <time>2022-07-18T03:53:10Z</time>
      </trkpt>
      <trkpt lat="44.8582" lon="6.72541">
        <ele>1658</ele>
        <time>2022-07-18T03:53:11Z</time>
      </trkpt>
      <trkpt lat="44.85818" lon="6.72542">
        <ele>1658.2</ele>
        <time>2022-07-18T03:53:12Z</time>
      </trkpt>
      <trkpt lat="44.85816" lon="6.72543">
        <ele>1658.4</ele>
        <time>2022-07-18T03:53:13Z</time>
      </trkpt>
      <trkpt lat="44.85813" lon="6.72545">
        <ele>1658.6</ele>
        <time>2022-07-18T03:53:14Z</time>
      </trkpt>
      <trkpt lat="44.85811" lon="6.72546">
        <ele>1658.6</ele>
        <time>2022-07-18T03:53:15Z</time>
      </trkpt>
      <trkpt lat="44.85809" lon="6.72548">
        <ele>1659</ele>
        <time>2022-07-18T03:53:16Z</time>
      </trkpt>
      <trkpt lat="44.85806" lon="6.72549">
        <ele>1659.2</ele>
        <time>2022-07-18T03:53:17Z</time>
      </trkpt>
      <trkpt lat="44.85804" lon="6.72551">
        <ele>1659.2</ele>
        <time>2022-07-18T03:53:18Z</time>
      </trkpt>
      <trkpt lat="44.85802" lon="6.72552">
        <ele>1659.6</ele>
        <time>2022-07-18T03:53:19Z</time>
      </trkpt>
      <trkpt lat="44.85799" lon="6.72553">
        <ele>1659.8</ele>
        <time>2022-07-18T03:53:20Z</time>
      </trkpt>
      <trkpt lat="44.85797" lon="6.72555">
        <ele>1660</ele>
        <time>2022-07-18T03:53:21Z</time>
      </trkpt>
      <trkpt lat="44.85795" lon="6.72556">
        <ele>1660</ele>
        <time>2022-07-18T03:53:22Z</time>
      </trkpt>
      <trkpt lat="44.85793" lon="6.72558">
        <ele>1660.4</ele>
        <time>2022-07-18T03:53:23Z</time>
      </trkpt>
      <trkpt lat="44.8579" lon="6.72559">
        <ele>1660.4</ele>
        <time>2022-07-18T03:53:24Z</time>
      </trkpt>
      <trkpt lat="44.85788" lon="6.7256">
        <ele>1660.6</ele>
        <time>2022-07-18T03:53:25Z</time>
      </trkpt>
      <trkpt lat="44.85785" lon="6.72562">
        <ele>1660.6</ele>
        <time>2022-07-18T03:53:26Z</time>
      </trkpt>
      <trkpt lat="44.85783" lon="6.72563">
        <ele>1660.8</ele>
        <time>2022-07-18T03:53:27Z</time>
      </trkpt>
      <trkpt lat="44.85781" lon="6.72565">
        <ele>1660.8</ele>
        <time>2022-07-18T03:53:28Z</time>
      </trkpt>
      <trkpt lat="44.85778" lon="6.72566">
        <ele>1661.2</ele>
        <time>2022-07-18T03:53:29Z</time>
      </trkpt>
      <trkpt lat="44.85776" lon="6.72567">
        <ele>1661.4</ele>
        <time>2022-07-18T03:53:30Z</time>
      </trkpt>
      <trkpt lat="44.85773" lon="6.72568">
        <ele>1661.4</ele>
        <time>2022-07-18T03:53:31Z</time>
      </trkpt>
      <trkpt lat="44.85771" lon="6.7257">
        <ele>1661.8</ele>
        <time>2022-07-18T03:53:32Z</time>
      </trkpt>
      <trkpt lat="44.85769" lon="6.72571">
        <ele>1661.8</ele>
        <time>2022-07-18T03:53:33Z</time>
      </trkpt>
      <trkpt lat="44.85766" lon="6.72573">
        <ele>1662</ele>
        <time>2022-07-18T03:53:34Z</time>
      </trkpt>
      <trkpt lat="44.85764" lon="6.72574">
        <ele>1662</ele>
        <time>2022-07-18T03:53:35Z</time>
      </trkpt>
      <trkpt lat="44.85762" lon="6.72576">
        <ele>1662.4</ele>
        <time>2022-07-18T03:53:36Z</time>
      </trkpt>
      <trkpt lat="44.85759" lon="6.72577">
        <ele>1662.4</ele>
        <time>2022-07-18T03:53:37Z</time>
      </trkpt>
      <trkpt lat="44.85757" lon="6.72579">
        <ele>1662.8</ele>
        <time>2022-07-18T03:53:38Z</time>
      </trkpt>
      <trkpt lat="44.85754" lon="6.7258">
        <ele>1662.8</ele>
        <time>2022-07-18T03:53:39Z</time>
      </trkpt>
      <trkpt lat="44.85752" lon="6.72582">
        <ele>1662.8</ele>
        <time>2022-07-18T03:53:40Z</time>
      </trkpt>
      <trkpt lat="44.8575" lon="6.72583">
        <ele>1663.2</ele>
        <time>2022-07-18T03:53:41Z</time>
      </trkpt>
      <trkpt lat="44.85748" lon="6.72585">
        <ele>1663.2</ele>
        <time>2022-07-18T03:53:42Z</time>
      </trkpt>
      <trkpt lat="44.85745" lon="6.72586">
        <ele>1663.6</ele>
        <time>2022-07-18T03:53:43Z</time>
      </trkpt>
      <trkpt lat="44.85743" lon="6.72588">
        <ele>1663.6</ele>
        <time>2022-07-18T03:53:44Z</time>
      </trkpt>
      <trkpt lat="44.85741" lon="6.72589">
        <ele>1664</ele>
        <time>2022-07-18T03:53:45Z</time>
      </trkpt>
      <trkpt lat="44.85738" lon="6.7259">
        <ele>1664.2</ele>
        <time>2022-07-18T03:53:46Z</time>
      </trkpt>
      <trkpt lat="44.85736" lon="6.72591">
        <ele>1664.4</ele>
        <time>2022-07-18T03:53:47Z</time>
      </trkpt>
      <trkpt lat="44.85734" lon="6.72593">
        <ele>1664.4</ele>
        <time>2022-07-18T03:53:48Z</time>
      </trkpt>
      <trkpt lat="44.85732" lon="6.72594">
        <ele>1664.8</ele>
        <time>2022-07-18T03:53:49Z</time>
      </trkpt>
      <trkpt lat="44.85729" lon="6.72596">
        <ele>1664.8</ele>
        <time>2022-07-18T03:53:50Z</time>
      </trkpt>
      <trkpt lat="44.85727" lon="6.72597">
        <ele>1665.2</ele>
        <time>2022-07-18T03:53:51Z</time>
      </trkpt>
      <trkpt lat="44.85724" lon="6.72599">
        <ele>1665.4</ele>
        <time>2022-07-18T03:53:52Z</time>
      </trkpt>
      <trkpt lat="44.85722" lon="6.726">
        <ele>1665.6</ele>
        <time>2022-07-18T03:53:53Z</time>
      </trkpt>
      <trkpt lat="44.8572" lon="6.72602">
        <ele>1665.8</ele>
        <time>2022-07-18T03:53:54Z</time>
      </trkpt>
      <trkpt lat="44.85717" lon="6.72603">
        <ele>1665.8</ele>
        <time>2022-07-18T03:53:55Z</time>
      </trkpt>
      <trkpt lat="44.85715" lon="6.72604">
        <ele>1666.2</ele>
        <time>2022-07-18T03:53:56Z</time>
      </trkpt>
      <trkpt lat="44.85712" lon="6.72606">
        <ele>1666.2</ele>
        <time>2022-07-18T03:53:57Z</time>
      </trkpt>
      <trkpt lat="44.8571" lon="6.72607">
        <ele>1666.6</ele>
        <time>2022-07-18T03:53:58Z</time>
      </trkpt>
      <trkpt lat="44.85708" lon="6.72609">
        <ele>1666.6</ele>
        <time>2022-07-18T03:53:59Z</time>
      </trkpt>
      <trkpt lat="44.85705" lon="6.72611">
        <ele>1666.8</ele>
        <time>2022-07-18T03:54:00Z</time>
      </trkpt>
      <trkpt lat="44.85703" lon="6.72612">
        <ele>1666.8</ele>
        <time>2022-07-18T03:54:01Z</time>
      </trkpt>
      <trkpt lat="44.857" lon="6.72614">
        <ele>1667.2</ele>
        <time>2022-07-18T03:54:02Z</time>
      </trkpt>
      <trkpt lat="44.85697" lon="6.72616">
        <ele>1667.4</ele>
        <time>2022-07-18T03:54:03Z</time>
      </trkpt>
      <trkpt lat="44.85695" lon="6.72618">
        <ele>1667.4</ele>
        <time>2022-07-18T03:54:04Z</time>
      </trkpt>
      <trkpt lat="44.85692" lon="6.72619">
        <ele>1667.8</ele>
        <time>2022-07-18T03:54:05Z</time>
      </trkpt>
      <trkpt lat="44.8569" lon="6.72621">
        <ele>1667.8</ele>
        <time>2022-07-18T03:54:06Z</time>
      </trkpt>
      <trkpt lat="44.85687" lon="6.72623">
        <ele>1668</ele>
        <time>2022-07-18T03:54:07Z</time>
      </trkpt>
      <trkpt lat="44.85684" lon="6.72624">
        <ele>1668</ele>
        <time>2022-07-18T03:54:08Z</time>
      </trkpt>
      <trkpt lat="44.85682" lon="6.72626">
        <ele>1668.4</ele>
        <time>2022-07-18T03:54:09Z</time>
      </trkpt>
      <trkpt lat="44.85679" lon="6.72628">
        <ele>1668.6</ele>
        <time>2022-07-18T03:54:10Z</time>
      </trkpt>
      <trkpt lat="44.85677" lon="6.72629">
        <ele>1668.6</ele>
        <time>2022-07-18T03:54:11Z</time>
      </trkpt>
      <trkpt lat="44.85674" lon="6.72631">
        <ele>1669</ele>
        <time>2022-07-18T03:54:12Z</time>
      </trkpt>
      <trkpt lat="44.85672" lon="6.72633">
        <ele>1669</ele>
        <time>2022-07-18T03:54:13Z</time>
      </trkpt>
      <trkpt lat="44.85669" lon="6.72635">
        <ele>1669.2</ele>
        <time>2022-07-18T03:54:14Z</time>
      </trkpt>
      <trkpt lat="44.85667" lon="6.72637">
        <ele>1669.2</ele>
        <time>2022-07-18T03:54:15Z</time>
      </trkpt>
      <trkpt lat="44.85664" lon="6.72639">
        <ele>1669.6</ele>
        <time>2022-07-18T03:54:16Z</time>
      </trkpt>
      <trkpt lat="44.85661" lon="6.72641">
        <ele>1669.6</ele>
        <time>2022-07-18T03:54:17Z</time>
      </trkpt>
      <trkpt lat="44.85659" lon="6.72643">
        <ele>1669.8</ele>
        <time>2022-07-18T03:54:18Z</time>
      </trkpt>
      <trkpt lat="44.85656" lon="6.72645">
        <ele>1669.8</ele>
        <time>2022-07-18T03:54:19Z</time>
      </trkpt>
      <trkpt lat="44.85654" lon="6.72647">
        <ele>1669.8</ele>
        <time>2022-07-18T03:54:20Z</time>
      </trkpt>
      <trkpt lat="44.85651" lon="6.72649">
        <ele>1669.8</ele>
        <time>2022-07-18T03:54:21Z</time>
      </trkpt>
      <trkpt lat="44.85648" lon="6.72651">
        <ele>1670</ele>
        <time>2022-07-18T03:54:22Z</time>
      </trkpt>
      <trkpt lat="44.85646" lon="6.72653">
        <ele>1670</ele>
        <time>2022-07-18T03:54:23Z</time>
      </trkpt>
      <trkpt lat="44.85643" lon="6.72655">
        <ele>1670.4</ele>
        <time>2022-07-18T03:54:24Z</time>
      </trkpt>
      <trkpt lat="44.8564" lon="6.72657">
        <ele>1670.4</ele>
        <time>2022-07-18T03:54:25Z</time>
      </trkpt>
      <trkpt lat="44.85638" lon="6.72659">
        <ele>1670.4</ele>
        <time>2022-07-18T03:54:26Z</time>
      </trkpt>
      <trkpt lat="44.85635" lon="6.72661">
        <ele>1670.6</ele>
        <time>2022-07-18T03:54:27Z</time>
      </trkpt>
      <trkpt lat="44.85632" lon="6.72663">
        <ele>1670.6</ele>
        <time>2022-07-18T03:54:28Z</time>
      </trkpt>
      <trkpt lat="44.8563" lon="6.72665">
        <ele>1670.6</ele>
        <time>2022-07-18T03:54:29Z</time>
      </trkpt>
      <trkpt lat="44.85627" lon="6.72667">
        <ele>1670.8</ele>
        <time>2022-07-18T03:54:30Z</time>
      </trkpt>
      <trkpt lat="44.85624" lon="6.72669">
        <ele>1670.8</ele>
        <time>2022-07-18T03:54:31Z</time>
      </trkpt>
      <trkpt lat="44.85621" lon="6.72671">
        <ele>1670.8</ele>
        <time>2022-07-18T03:54:32Z</time>
      </trkpt>
      <trkpt lat="44.85618" lon="6.72673">
        <ele>1670.8</ele>
        <time>2022-07-18T03:54:33Z</time>
      </trkpt>
      <trkpt lat="44.85615" lon="6.72675">
        <ele>1671</ele>
        <time>2022-07-18T03:54:34Z</time>
      </trkpt>
      <trkpt lat="44.85612" lon="6.72677">
        <ele>1671</ele>
        <time>2022-07-18T03:54:35Z</time>
      </trkpt>
      <trkpt lat="44.85609" lon="6.7268">
        <ele>1671.4</ele>
        <time>2022-07-18T03:54:36Z</time>
      </trkpt>
      <trkpt lat="44.85606" lon="6.72682">
        <ele>1671.4</ele>
        <time>2022-07-18T03:54:37Z</time>
      </trkpt>
      <trkpt lat="44.85603" lon="6.72684">
        <ele>1671.6</ele>
        <time>2022-07-18T03:54:38Z</time>
      </trkpt>
      <trkpt lat="44.856" lon="6.72686">
        <ele>1671.6</ele>
        <time>2022-07-18T03:54:39Z</time>
      </trkpt>
      <trkpt lat="44.85597" lon="6.72689">
        <ele>1671.6</ele>
        <time>2022-07-18T03:54:40Z</time>
      </trkpt>
      <trkpt lat="44.85594" lon="6.72691">
        <ele>1671.6</ele>
        <time>2022-07-18T03:54:41Z</time>
      </trkpt>
      <trkpt lat="44.85591" lon="6.72693">
        <ele>1671.8</ele>
        <time>2022-07-18T03:54:42Z</time>
      </trkpt>
      <trkpt lat="44.85588" lon="6.72696">
        <ele>1671.8</ele>
        <time>2022-07-18T03:54:43Z</time>
      </trkpt>
      <trkpt lat="44.85585" lon="6.72698">
        <ele>1671.8</ele>
        <time>2022-07-18T03:54:44Z</time>
      </trkpt>
      <trkpt lat="44.85582" lon="6.727">
        <ele>1671.8</ele>
        <time>2022-07-18T03:54:45Z</time>
      </trkpt>
      <trkpt lat="44.85579" lon="6.72702">
        <ele>1672.2</ele>
        <time>2022-07-18T03:54:46Z</time>
      </trkpt>
      <trkpt lat="44.85576" lon="6.72704">
        <ele>1672.2</ele>
        <time>2022-07-18T03:54:47Z</time>
      </trkpt>
      <trkpt lat="44.85573" lon="6.72706">
        <ele>1672.2</ele>
        <time>2022-07-18T03:54:48Z</time>
      </trkpt>
      <trkpt lat="44.8557" lon="6.72707">
        <ele>1672.4</ele>
        <time>2022-07-18T03:54:49Z</time>
      </trkpt>
      <trkpt lat="44.85567" lon="6.72709">
        <ele>1672.4</ele>
        <time>2022-07-18T03:54:50Z</time>
      </trkpt>
      <trkpt lat="44.85564" lon="6.7271">
        <ele>1672.4</ele>
        <time>2022-07-18T03:54:51Z</time>
      </trkpt>
      <trkpt lat="44.85561" lon="6.72712">
        <ele>1672.4</ele>
        <time>2022-07-18T03:54:52Z</time>
      </trkpt>
      <trkpt lat="44.85558" lon="6.72713">
        <ele>1672.8</ele>
        <time>2022-07-18T03:54:53Z</time>
      </trkpt>
      <trkpt lat="44.85555" lon="6.72714">
        <ele>1672.8</ele>
        <time>2022-07-18T03:54:54Z</time>
      </trkpt>
      <trkpt lat="44.85551" lon="6.72714">
        <ele>1672.8</ele>
        <time>2022-07-18T03:54:55Z</time>
      </trkpt>
      <trkpt lat="44.85548" lon="6.72715">
        <ele>1673</ele>
        <time>2022-07-18T03:54:56Z</time>
      </trkpt>
      <trkpt lat="44.85545" lon="6.72716">
        <ele>1673</ele>
        <time>2022-07-18T03:54:57Z</time>
      </trkpt>
      <trkpt lat="44.85542" lon="6.72716">
        <ele>1673.4</ele>
        <time>2022-07-18T03:54:58Z</time>
      </trkpt>
      <trkpt lat="44.85539" lon="6.72716">
        <ele>1673.4</ele>
        <time>2022-07-18T03:54:59Z</time>
      </trkpt>
      <trkpt lat="44.85536" lon="6.72716">
        <ele>1673.4</ele>
        <time>2022-07-18T03:55:00Z</time>
      </trkpt>
      <trkpt lat="44.85533" lon="6.72716">
        <ele>1673.6</ele>
        <time>2022-07-18T03:55:01Z</time>
      </trkpt>
      <trkpt lat="44.8553" lon="6.72716">
        <ele>1673.6</ele>
        <time>2022-07-18T03:55:02Z</time>
      </trkpt>
      <trkpt lat="44.85526" lon="6.72716">
        <ele>1673.6</ele>
        <time>2022-07-18T03:55:03Z</time>
      </trkpt>
      <trkpt lat="44.85523" lon="6.72715">
        <ele>1673.6</ele>
        <time>2022-07-18T03:55:04Z</time>
      </trkpt>
      <trkpt lat="44.8552" lon="6.72715">
        <ele>1673.8</ele>
        <time>2022-07-18T03:55:05Z</time>
      </trkpt>
      <trkpt lat="44.85517" lon="6.72714">
        <ele>1673.8</ele>
        <time>2022-07-18T03:55:06Z</time>
      </trkpt>
      <trkpt lat="44.85514" lon="6.72713">
        <ele>1674</ele>
        <time>2022-07-18T03:55:07Z</time>
      </trkpt>
      <trkpt lat="44.8551" lon="6.72713">
        <ele>1674</ele>
        <time>2022-07-18T03:55:08Z</time>
      </trkpt>
      <trkpt lat="44.85507" lon="6.72712">
        <ele>1674.4</ele>
        <time>2022-07-18T03:55:09Z</time>
      </trkpt>
      <trkpt lat="44.85504" lon="6.72712">
        <ele>1674.4</ele>
        <time>2022-07-18T03:55:10Z</time>
      </trkpt>
      <trkpt lat="44.85501" lon="6.72711">
        <ele>1674.4</ele>
        <time>2022-07-18T03:55:11Z</time>
      </trkpt>
      <trkpt lat="44.85498" lon="6.7271">
        <ele>1674.4</ele>
        <time>2022-07-18T03:55:12Z</time>
      </trkpt>
      <trkpt lat="44.85494" lon="6.7271">
        <ele>1674.6</ele>
        <time>2022-07-18T03:55:13Z</time>
      </trkpt>
      <trkpt lat="44.85491" lon="6.72709">
        <ele>1674.6</ele>
        <time>2022-07-18T03:55:14Z</time>
      </trkpt>
      <trkpt lat="44.85488" lon="6.72708">
        <ele>1674.8</ele>
        <time>2022-07-18T03:55:15Z</time>
      </trkpt>
      <trkpt lat="44.85485" lon="6.72707">
        <ele>1674.8</ele>
        <time>2022-07-18T03:55:16Z</time>
      </trkpt>
      <trkpt lat="44.85482" lon="6.72706">
        <ele>1675</ele>
        <time>2022-07-18T03:55:17Z</time>
      </trkpt>
      <trkpt lat="44.85479" lon="6.72705">
        <ele>1675</ele>
        <time>2022-07-18T03:55:18Z</time>
      </trkpt>
      <trkpt lat="44.85476" lon="6.72703">
        <ele>1675.2</ele>
        <time>2022-07-18T03:55:19Z</time>
      </trkpt>
      <trkpt lat="44.85473" lon="6.72702">
        <ele>1675.2</ele>
        <time>2022-07-18T03:55:20Z</time>
      </trkpt>
      <trkpt lat="44.8547" lon="6.727">
        <ele>1675.2</ele>
        <time>2022-07-18T03:55:21Z</time>
      </trkpt>
      <trkpt lat="44.85467" lon="6.72698">
        <ele>1675.6</ele>
        <time>2022-07-18T03:55:22Z</time>
      </trkpt>
      <trkpt lat="44.85465" lon="6.72696">
        <ele>1675.6</ele>
        <time>2022-07-18T03:55:23Z</time>
      </trkpt>
      <trkpt lat="44.85462" lon="6.72694">
        <ele>1675.8</ele>
        <time>2022-07-18T03:55:24Z</time>
      </trkpt>
      <trkpt lat="44.8546" lon="6.72691">
        <ele>1675.8</ele>
        <time>2022-07-18T03:55:25Z</time>
      </trkpt>
      <trkpt lat="44.85457" lon="6.72688">
        <ele>1676.2</ele>
        <time>2022-07-18T03:55:26Z</time>
      </trkpt>
      <trkpt lat="44.85455" lon="6.72686">
        <ele>1676.2</ele>
        <time>2022-07-18T03:55:27Z</time>
      </trkpt>
      <trkpt lat="44.85453" lon="6.72683">
        <ele>1676.4</ele>
        <time>2022-07-18T03:55:28Z</time>
      </trkpt>
      <trkpt lat="44.85451" lon="6.7268">
        <ele>1676.6</ele>
        <time>2022-07-18T03:55:29Z</time>
      </trkpt>
      <trkpt lat="44.85449" lon="6.72677">
        <ele>1676.6</ele>
        <time>2022-07-18T03:55:30Z</time>
      </trkpt>
      <trkpt lat="44.85447" lon="6.72673">
        <ele>1676.8</ele>
        <time>2022-07-18T03:55:31Z</time>
      </trkpt>
      <trkpt lat="44.85445" lon="6.7267">
        <ele>1676.8</ele>
        <time>2022-07-18T03:55:32Z</time>
      </trkpt>
      <trkpt lat="44.85443" lon="6.72666">
        <ele>1676.8</ele>
        <time>2022-07-18T03:55:33Z</time>
      </trkpt>
      <trkpt lat="44.85442" lon="6.72662">
        <ele>1677.2</ele>
        <time>2022-07-18T03:55:34Z</time>
      </trkpt>
      <trkpt lat="44.8544" lon="6.72659">
        <ele>1677.2</ele>
        <time>2022-07-18T03:55:35Z</time>
      </trkpt>
      <trkpt lat="44.85439" lon="6.72655">
        <ele>1677.2</ele>
        <time>2022-07-18T03:55:36Z</time>
      </trkpt>
      <trkpt lat="44.85437" lon="6.72651">
        <ele>1677.4</ele>
        <time>2022-07-18T03:55:37Z</time>
      </trkpt>
      <trkpt lat="44.85436" lon="6.72647">
        <ele>1677.4</ele>
        <time>2022-07-18T03:55:38Z</time>
      </trkpt>
      <trkpt lat="44.85435" lon="6.72643">
        <ele>1677.8</ele>
        <time>2022-07-18T03:55:39Z</time>
      </trkpt>
      <trkpt lat="44.85433" lon="6.72639">
        <ele>1677.8</ele>
        <time>2022-07-18T03:55:40Z</time>
      </trkpt>
      <trkpt lat="44.85432" lon="6.72635">
        <ele>1678</ele>
        <time>2022-07-18T03:55:41Z</time>
      </trkpt>
      <trkpt lat="44.8543" lon="6.72631">
        <ele>1678</ele>
        <time>2022-07-18T03:55:42Z</time>
      </trkpt>
      <trkpt lat="44.85428" lon="6.72628">
        <ele>1678.2</ele>
        <time>2022-07-18T03:55:44Z</time>
      </trkpt>
      <trkpt lat="44.85427" lon="6.72624">
        <ele>1678.6</ele>
        <time>2022-07-18T03:55:45Z</time>
      </trkpt>
      <trkpt lat="44.85425" lon="6.7262">
        <ele>1678.6</ele>
        <time>2022-07-18T03:55:46Z</time>
      </trkpt>
      <trkpt lat="44.85424" lon="6.72617">
        <ele>1678.6</ele>
        <time>2022-07-18T03:55:47Z</time>
      </trkpt>
      <trkpt lat="44.85422" lon="6.72613">
        <ele>1678.8</ele>
        <time>2022-07-18T03:55:48Z</time>
      </trkpt>
      <trkpt lat="44.8542" lon="6.7261">
        <ele>1678.8</ele>
        <time>2022-07-18T03:55:49Z</time>
      </trkpt>
      <trkpt lat="44.85418" lon="6.72606">
        <ele>1679.2</ele>
        <time>2022-07-18T03:55:50Z</time>
      </trkpt>
      <trkpt lat="44.85416" lon="6.72603">
        <ele>1679.6</ele>
        <time>2022-07-18T03:55:51Z</time>
      </trkpt>
      <trkpt lat="44.85415" lon="6.726">
        <ele>1679.6</ele>
        <time>2022-07-18T03:55:52Z</time>
      </trkpt>
      <trkpt lat="44.85413" lon="6.72597">
        <ele>1679.8</ele>
        <time>2022-07-18T03:55:53Z</time>
      </trkpt>
      <trkpt lat="44.85412" lon="6.72594">
        <ele>1679.8</ele>
        <time>2022-07-18T03:55:54Z</time>
      </trkpt>
      <trkpt lat="44.8541" lon="6.72591">
        <ele>1680.2</ele>
        <time>2022-07-18T03:55:55Z</time>
      </trkpt>
      <trkpt lat="44.85408" lon="6.72588">
        <ele>1680.4</ele>
        <time>2022-07-18T03:55:56Z</time>
      </trkpt>
      <trkpt lat="44.85407" lon="6.72585">
        <ele>1680.6</ele>
        <time>2022-07-18T03:55:57Z</time>
      </trkpt>
      <trkpt lat="44.85405" lon="6.72582">
        <ele>1680.8</ele>
        <time>2022-07-18T03:55:58Z</time>
      </trkpt>
      <trkpt lat="44.85403" lon="6.72579">
        <ele>1681</ele>
        <time>2022-07-18T03:55:59Z</time>
      </trkpt>
      <trkpt lat="44.85402" lon="6.72576">
        <ele>1681.2</ele>
        <time>2022-07-18T03:56:00Z</time>
      </trkpt>
      <trkpt lat="44.854" lon="6.72573">
        <ele>1681.2</ele>
        <time>2022-07-18T03:56:01Z</time>
      </trkpt>
      <trkpt lat="44.85398" lon="6.7257">
        <ele>1681.6</ele>
        <time>2022-07-18T03:56:02Z</time>
      </trkpt>
      <trkpt lat="44.85397" lon="6.72567">
        <ele>1682</ele>
        <time>2022-07-18T03:56:03Z</time>
      </trkpt>
      <trkpt lat="44.85395" lon="6.72565">
        <ele>1682.2</ele>
        <time>2022-07-18T03:56:04Z</time>
      </trkpt>
      <trkpt lat="44.85393" lon="6.72562">
        <ele>1682.2</ele>
        <time>2022-07-18T03:56:05Z</time>
      </trkpt>
      <trkpt lat="44.85392" lon="6.72559">
        <ele>1682.6</ele>
        <time>2022-07-18T03:56:06Z</time>
      </trkpt>
      <trkpt lat="44.8539" lon="6.72557">
        <ele>1682.8</ele>
        <time>2022-07-18T03:56:07Z</time>
      </trkpt>
      <trkpt lat="44.85388" lon="6.72554">
        <ele>1683</ele>
        <time>2022-07-18T03:56:08Z</time>
      </trkpt>
      <trkpt lat="44.85386" lon="6.72552">
        <ele>1683.2</ele>
        <time>2022-07-18T03:56:09Z</time>
      </trkpt>
      <trkpt lat="44.85384" lon="6.7255">
        <ele>1683.6</ele>
        <time>2022-07-18T03:56:10Z</time>
      </trkpt>
      <trkpt lat="44.85382" lon="6.72548">
        <ele>1683.8</ele>
        <time>2022-07-18T03:56:11Z</time>
      </trkpt>
      <trkpt lat="44.8538" lon="6.72546">
        <ele>1684</ele>
        <time>2022-07-18T03:56:12Z</time>
      </trkpt>
      <trkpt lat="44.85378" lon="6.72544">
        <ele>1684</ele>
        <time>2022-07-18T03:56:13Z</time>
      </trkpt>
      <trkpt lat="44.85376" lon="6.72542">
        <ele>1684.4</ele>
        <time>2022-07-18T03:56:14Z</time>
      </trkpt>
      <trkpt lat="44.85374" lon="6.7254">
        <ele>1684.4</ele>
        <time>2022-07-18T03:56:15Z</time>
      </trkpt>
      <trkpt lat="44.85372" lon="6.72538">
        <ele>1684.8</ele>
        <time>2022-07-18T03:56:16Z</time>
      </trkpt>
      <trkpt lat="44.85371" lon="6.72535">
        <ele>1685</ele>
        <time>2022-07-18T03:56:17Z</time>
      </trkpt>
      <trkpt lat="44.85369" lon="6.72533">
        <ele>1685</ele>
        <time>2022-07-18T03:56:18Z</time>
      </trkpt>
      <trkpt lat="44.85367" lon="6.72531">
        <ele>1685.4</ele>
        <time>2022-07-18T03:56:19Z</time>
      </trkpt>
      <trkpt lat="44.85365" lon="6.72529">
        <ele>1685.6</ele>
        <time>2022-07-18T03:56:20Z</time>
      </trkpt>
      <trkpt lat="44.85363" lon="6.72526">
        <ele>1685.8</ele>
        <time>2022-07-18T03:56:21Z</time>
      </trkpt>
      <trkpt lat="44.85361" lon="6.72524">
        <ele>1686</ele>
        <time>2022-07-18T03:56:22Z</time>
      </trkpt>
      <trkpt lat="44.85359" lon="6.72522">
        <ele>1686.4</ele>
        <time>2022-07-18T03:56:23Z</time>
      </trkpt>
      <trkpt lat="44.85357" lon="6.7252">
        <ele>1686.6</ele>
        <time>2022-07-18T03:56:24Z</time>
      </trkpt>
      <trkpt lat="44.85355" lon="6.72517">
        <ele>1686.6</ele>
        <time>2022-07-18T03:56:25Z</time>
      </trkpt>
      <trkpt lat="44.85353" lon="6.72515">
        <ele>1687</ele>
        <time>2022-07-18T03:56:26Z</time>
      </trkpt>
      <trkpt lat="44.85351" lon="6.72513">
        <ele>1687</ele>
        <time>2022-07-18T03:56:27Z</time>
      </trkpt>
      <trkpt lat="44.8535" lon="6.72511">
        <ele>1687.2</ele>
        <time>2022-07-18T03:56:28Z</time>
      </trkpt>
      <trkpt lat="44.85348" lon="6.72509">
        <ele>1687.2</ele>
        <time>2022-07-18T03:56:29Z</time>
      </trkpt>
      <trkpt lat="44.85346" lon="6.72506">
        <ele>1687.6</ele>
        <time>2022-07-18T03:56:30Z</time>
      </trkpt>
      <trkpt lat="44.85344" lon="6.72504">
        <ele>1687.6</ele>
        <time>2022-07-18T03:56:31Z</time>
      </trkpt>
      <trkpt lat="44.85342" lon="6.72502">
        <ele>1688</ele>
        <time>2022-07-18T03:56:32Z</time>
      </trkpt>
      <trkpt lat="44.8534" lon="6.725">
        <ele>1688.2</ele>
        <time>2022-07-18T03:56:33Z</time>
      </trkpt>
      <trkpt lat="44.85339" lon="6.72498">
        <ele>1688.2</ele>
        <time>2022-07-18T03:56:34Z</time>
      </trkpt>
      <trkpt lat="44.85337" lon="6.72496">
        <ele>1688.6</ele>
        <time>2022-07-18T03:56:35Z</time>
      </trkpt>
      <trkpt lat="44.85335" lon="6.72493">
        <ele>1688.8</ele>
        <time>2022-07-18T03:56:36Z</time>
      </trkpt>
      <trkpt lat="44.85334" lon="6.72491">
        <ele>1689</ele>
        <time>2022-07-18T03:56:37Z</time>
      </trkpt>
      <trkpt lat="44.85332" lon="6.72489">
        <ele>1689.2</ele>
        <time>2022-07-18T03:56:38Z</time>
      </trkpt>
      <trkpt lat="44.8533" lon="6.72487">
        <ele>1689.2</ele>
        <time>2022-07-18T03:56:39Z</time>
      </trkpt>
      <trkpt lat="44.85328" lon="6.72485">
        <ele>1689.4</ele>
        <time>2022-07-18T03:56:40Z</time>
      </trkpt>
      <trkpt lat="44.85326" lon="6.72483">
        <ele>1689.4</ele>
        <time>2022-07-18T03:56:41Z</time>
      </trkpt>
      <trkpt lat="44.85324" lon="6.72481">
        <ele>1689.8</ele>
        <time>2022-07-18T03:56:42Z</time>
      </trkpt>
      <trkpt lat="44.85322" lon="6.72479">
        <ele>1689.8</ele>
        <time>2022-07-18T03:56:43Z</time>
      </trkpt>
      <trkpt lat="44.85321" lon="6.72477">
        <ele>1690.2</ele>
        <time>2022-07-18T03:56:44Z</time>
      </trkpt>
      <trkpt lat="44.85319" lon="6.72475">
        <ele>1690.4</ele>
        <time>2022-07-18T03:56:45Z</time>
      </trkpt>
      <trkpt lat="44.85317" lon="6.72473">
        <ele>1690.8</ele>
        <time>2022-07-18T03:56:46Z</time>
      </trkpt>
      <trkpt lat="44.85316" lon="6.72472">
        <ele>1691</ele>
        <time>2022-07-18T03:56:47Z</time>
      </trkpt>
      <trkpt lat="44.85314" lon="6.7247">
        <ele>1691.2</ele>
        <time>2022-07-18T03:56:48Z</time>
      </trkpt>
      <trkpt lat="44.85312" lon="6.72468">
        <ele>1691.2</ele>
        <time>2022-07-18T03:56:49Z</time>
      </trkpt>
      <trkpt lat="44.8531" lon="6.72466">
        <ele>1691.6</ele>
        <time>2022-07-18T03:56:50Z</time>
      </trkpt>
      <trkpt lat="44.85308" lon="6.72465">
        <ele>1691.6</ele>
        <time>2022-07-18T03:56:51Z</time>
      </trkpt>
      <trkpt lat="44.85307" lon="6.72463">
        <ele>1691.8</ele>
        <time>2022-07-18T03:56:52Z</time>
      </trkpt>
      <trkpt lat="44.85305" lon="6.72461">
        <ele>1691.8</ele>
        <time>2022-07-18T03:56:53Z</time>
      </trkpt>
      <trkpt lat="44.85303" lon="6.7246">
        <ele>1692.2</ele>
        <time>2022-07-18T03:56:54Z</time>
      </trkpt>
      <trkpt lat="44.85301" lon="6.72458">
        <ele>1692.2</ele>
        <time>2022-07-18T03:56:55Z</time>
      </trkpt>
      <trkpt lat="44.853" lon="6.72456">
        <ele>1692.6</ele>
        <time>2022-07-18T03:56:56Z</time>
      </trkpt>
      <trkpt lat="44.85297" lon="6.72453">
        <ele>1692.6</ele>
        <time>2022-07-18T03:56:57Z</time>
      </trkpt>
      <trkpt lat="44.85294" lon="6.72452">
        <ele>1693</ele>
        <time>2022-07-18T03:56:58Z</time>
      </trkpt>
      <trkpt lat="44.85293" lon="6.7245">
        <ele>1693</ele>
        <time>2022-07-18T03:56:59Z</time>
      </trkpt>
      <trkpt lat="44.85291" lon="6.72449">
        <ele>1693.4</ele>
        <time>2022-07-18T03:57:00Z</time>
      </trkpt>
      <trkpt lat="44.85289" lon="6.72449">
        <ele>1693.6</ele>
        <time>2022-07-18T03:57:01Z</time>
      </trkpt>
      <trkpt lat="44.85287" lon="6.72448">
        <ele>1693.8</ele>
        <time>2022-07-18T03:57:02Z</time>
      </trkpt>
      <trkpt lat="44.85285" lon="6.72447">
        <ele>1693.8</ele>
        <time>2022-07-18T03:57:03Z</time>
      </trkpt>
      <trkpt lat="44.85283" lon="6.72447">
        <ele>1694.2</ele>
        <time>2022-07-18T03:57:04Z</time>
      </trkpt>
      <trkpt lat="44.85281" lon="6.72446">
        <ele>1694.2</ele>
        <time>2022-07-18T03:57:05Z</time>
      </trkpt>
      <trkpt lat="44.85279" lon="6.72446">
        <ele>1694.4</ele>
        <time>2022-07-18T03:57:06Z</time>
      </trkpt>
      <trkpt lat="44.85277" lon="6.72446">
        <ele>1694.4</ele>
        <time>2022-07-18T03:57:07Z</time>
      </trkpt>
      <trkpt lat="44.85274" lon="6.72446">
        <ele>1694.8</ele>
        <time>2022-07-18T03:57:08Z</time>
      </trkpt>
      <trkpt lat="44.85272" lon="6.72446">
        <ele>1694.8</ele>
        <time>2022-07-18T03:57:09Z</time>
      </trkpt>
      <trkpt lat="44.8527" lon="6.72445">
        <ele>1695.2</ele>
        <time>2022-07-18T03:57:10Z</time>
      </trkpt>
      <trkpt lat="44.85268" lon="6.72445">
        <ele>1695.2</ele>
        <time>2022-07-18T03:57:11Z</time>
      </trkpt>
      <trkpt lat="44.85265" lon="6.72445">
        <ele>1695.6</ele>
        <time>2022-07-18T03:57:12Z</time>
      </trkpt>
      <trkpt lat="44.85263" lon="6.72445">
        <ele>1695.6</ele>
        <time>2022-07-18T03:57:13Z</time>
      </trkpt>
      <trkpt lat="44.85261" lon="6.72445">
        <ele>1696</ele>
        <time>2022-07-18T03:57:14Z</time>
      </trkpt>
      <trkpt lat="44.85259" lon="6.72445">
        <ele>1696</ele>
        <time>2022-07-18T03:57:15Z</time>
      </trkpt>
      <trkpt lat="44.85257" lon="6.72445">
        <ele>1696.2</ele>
        <time>2022-07-18T03:57:16Z</time>
      </trkpt>
      <trkpt lat="44.85254" lon="6.72445">
        <ele>1696.2</ele>
        <time>2022-07-18T03:57:17Z</time>
      </trkpt>
      <trkpt lat="44.85252" lon="6.72445">
        <ele>1696.6</ele>
        <time>2022-07-18T03:57:18Z</time>
      </trkpt>
      <trkpt lat="44.8525" lon="6.72445">
        <ele>1696.8</ele>
        <time>2022-07-18T03:57:19Z</time>
      </trkpt>
      <trkpt lat="44.85248" lon="6.72445">
        <ele>1696.8</ele>
        <time>2022-07-18T03:57:20Z</time>
      </trkpt>
      <trkpt lat="44.85246" lon="6.72445">
        <ele>1697</ele>
        <time>2022-07-18T03:57:21Z</time>
      </trkpt>
      <trkpt lat="44.85243" lon="6.72445">
        <ele>1697</ele>
        <time>2022-07-18T03:57:22Z</time>
      </trkpt>
      <trkpt lat="44.85241" lon="6.72446">
        <ele>1697.4</ele>
        <time>2022-07-18T03:57:23Z</time>
      </trkpt>
      <trkpt lat="44.85239" lon="6.72446">
        <ele>1697.6</ele>
        <time>2022-07-18T03:57:24Z</time>
      </trkpt>
      <trkpt lat="44.85237" lon="6.72447">
        <ele>1697.8</ele>
        <time>2022-07-18T03:57:25Z</time>
      </trkpt>
      <trkpt lat="44.85235" lon="6.72447">
        <ele>1698</ele>
        <time>2022-07-18T03:57:26Z</time>
      </trkpt>
      <trkpt lat="44.85232" lon="6.72447">
        <ele>1698</ele>
        <time>2022-07-18T03:57:27Z</time>
      </trkpt>
      <trkpt lat="44.8523" lon="6.72448">
        <ele>1698.4</ele>
        <time>2022-07-18T03:57:28Z</time>
      </trkpt>
      <trkpt lat="44.85228" lon="6.72448">
        <ele>1698.8</ele>
        <time>2022-07-18T03:57:29Z</time>
      </trkpt>
      <trkpt lat="44.85226" lon="6.72448">
        <ele>1699</ele>
        <time>2022-07-18T03:57:30Z</time>
      </trkpt>
      <trkpt lat="44.85224" lon="6.72449">
        <ele>1699.2</ele>
        <time>2022-07-18T03:57:31Z</time>
      </trkpt>
      <trkpt lat="44.85222" lon="6.72449">
        <ele>1699.6</ele>
        <time>2022-07-18T03:57:32Z</time>
      </trkpt>
      <trkpt lat="44.85219" lon="6.7245">
        <ele>1699.6</ele>
        <time>2022-07-18T03:57:33Z</time>
      </trkpt>
      <trkpt lat="44.85217" lon="6.7245">
        <ele>1700</ele>
        <time>2022-07-18T03:57:34Z</time>
      </trkpt>
      <trkpt lat="44.85215" lon="6.72451">
        <ele>1700</ele>
        <time>2022-07-18T03:57:35Z</time>
      </trkpt>
      <trkpt lat="44.85213" lon="6.72451">
        <ele>1700.2</ele>
        <time>2022-07-18T03:57:36Z</time>
      </trkpt>
      <trkpt lat="44.85211" lon="6.72451">
        <ele>1700.2</ele>
        <time>2022-07-18T03:57:37Z</time>
      </trkpt>
      <trkpt lat="44.85209" lon="6.72451">
        <ele>1700.6</ele>
        <time>2022-07-18T03:57:38Z</time>
      </trkpt>
      <trkpt lat="44.85207" lon="6.72451">
        <ele>1700.6</ele>
        <time>2022-07-18T03:57:39Z</time>
      </trkpt>
      <trkpt lat="44.85205" lon="6.72452">
        <ele>1701</ele>
        <time>2022-07-18T03:57:40Z</time>
      </trkpt>
      <trkpt lat="44.85203" lon="6.72452">
        <ele>1701</ele>
        <time>2022-07-18T03:57:41Z</time>
      </trkpt>
      <trkpt lat="44.852" lon="6.72452">
        <ele>1701.2</ele>
        <time>2022-07-18T03:57:42Z</time>
      </trkpt>
      <trkpt lat="44.85198" lon="6.72453">
        <ele>1701.2</ele>
        <time>2022-07-18T03:57:43Z</time>
      </trkpt>
      <trkpt lat="44.85196" lon="6.72453">
        <ele>1701.6</ele>
        <time>2022-07-18T03:57:44Z</time>
      </trkpt>
      <trkpt lat="44.85194" lon="6.72454">
        <ele>1701.6</ele>
        <time>2022-07-18T03:57:45Z</time>
      </trkpt>
      <trkpt lat="44.85192" lon="6.72454">
        <ele>1701.8</ele>
        <time>2022-07-18T03:57:46Z</time>
      </trkpt>
      <trkpt lat="44.8519" lon="6.72454">
        <ele>1701.8</ele>
        <time>2022-07-18T03:57:47Z</time>
      </trkpt>
      <trkpt lat="44.85188" lon="6.72454">
        <ele>1702.2</ele>
        <time>2022-07-18T03:57:48Z</time>
      </trkpt>
      <trkpt lat="44.85186" lon="6.72455">
        <ele>1702.4</ele>
        <time>2022-07-18T03:57:49Z</time>
      </trkpt>
      <trkpt lat="44.85184" lon="6.72455">
        <ele>1702.4</ele>
        <time>2022-07-18T03:57:50Z</time>
      </trkpt>
      <trkpt lat="44.85182" lon="6.72455">
        <ele>1702.6</ele>
        <time>2022-07-18T03:57:51Z</time>
      </trkpt>
      <trkpt lat="44.8518" lon="6.72456">
        <ele>1702.8</ele>
        <time>2022-07-18T03:57:52Z</time>
      </trkpt>
      <trkpt lat="44.85178" lon="6.72456">
        <ele>1703.2</ele>
        <time>2022-07-18T03:57:53Z</time>
      </trkpt>
      <trkpt lat="44.85176" lon="6.72456">
        <ele>1703.4</ele>
        <time>2022-07-18T03:57:54Z</time>
      </trkpt>
      <trkpt lat="44.85173" lon="6.72456">
        <ele>1703.4</ele>
        <time>2022-07-18T03:57:55Z</time>
      </trkpt>
      <trkpt lat="44.85171" lon="6.72457">
        <ele>1703.8</ele>
        <time>2022-07-18T03:57:56Z</time>
      </trkpt>
      <trkpt lat="44.85169" lon="6.72457">
        <ele>1704</ele>
        <time>2022-07-18T03:57:57Z</time>
      </trkpt>
      <trkpt lat="44.85166" lon="6.72457">
        <ele>1704</ele>
        <time>2022-07-18T03:57:58Z</time>
      </trkpt>
      <trkpt lat="44.85164" lon="6.72457">
        <ele>1704.4</ele>
        <time>2022-07-18T03:57:59Z</time>
      </trkpt>
      <trkpt lat="44.85162" lon="6.72458">
        <ele>1704.4</ele>
        <time>2022-07-18T03:58:00Z</time>
      </trkpt>
      <trkpt lat="44.8516" lon="6.72458">
        <ele>1704.6</ele>
        <time>2022-07-18T03:58:01Z</time>
      </trkpt>
      <trkpt lat="44.85158" lon="6.72458">
        <ele>1704.6</ele>
        <time>2022-07-18T03:58:02Z</time>
      </trkpt>
      <trkpt lat="44.85155" lon="6.72459">
        <ele>1705</ele>
        <time>2022-07-18T03:58:03Z</time>
      </trkpt>
      <trkpt lat="44.85153" lon="6.72459">
        <ele>1705</ele>
        <time>2022-07-18T03:58:04Z</time>
      </trkpt>
      <trkpt lat="44.85151" lon="6.72459">
        <ele>1705.2</ele>
        <time>2022-07-18T03:58:05Z</time>
      </trkpt>
      <trkpt lat="44.85149" lon="6.7246">
        <ele>1705.4</ele>
        <time>2022-07-18T03:58:06Z</time>
      </trkpt>
      <trkpt lat="44.85147" lon="6.7246">
        <ele>1705.4</ele>
        <time>2022-07-18T03:58:07Z</time>
      </trkpt>
      <trkpt lat="44.85144" lon="6.7246">
        <ele>1705.8</ele>
        <time>2022-07-18T03:58:08Z</time>
      </trkpt>
      <trkpt lat="44.85142" lon="6.7246">
        <ele>1706</ele>
        <time>2022-07-18T03:58:09Z</time>
      </trkpt>
      <trkpt lat="44.8514" lon="6.7246">
        <ele>1706</ele>
        <time>2022-07-18T03:58:10Z</time>
      </trkpt>
      <trkpt lat="44.85138" lon="6.72461">
        <ele>1706.2</ele>
        <time>2022-07-18T03:58:11Z</time>
      </trkpt>
      <trkpt lat="44.85136" lon="6.72461">
        <ele>1706.2</ele>
        <time>2022-07-18T03:58:12Z</time>
      </trkpt>
      <trkpt lat="44.85134" lon="6.72462">
        <ele>1706.6</ele>
        <time>2022-07-18T03:58:13Z</time>
      </trkpt>
      <trkpt lat="44.85132" lon="6.72463">
        <ele>1706.6</ele>
        <time>2022-07-18T03:58:14Z</time>
      </trkpt>
      <trkpt lat="44.8513" lon="6.72463">
        <ele>1706.8</ele>
        <time>2022-07-18T03:58:15Z</time>
      </trkpt>
      <trkpt lat="44.85128" lon="6.72464">
        <ele>1706.8</ele>
        <time>2022-07-18T03:58:16Z</time>
      </trkpt>
      <trkpt lat="44.85126" lon="6.72465">
        <ele>1707.2</ele>
        <time>2022-07-18T03:58:17Z</time>
      </trkpt>
      <trkpt lat="44.85124" lon="6.72466">
        <ele>1707.2</ele>
        <time>2022-07-18T03:58:18Z</time>
      </trkpt>
      <trkpt lat="44.85121" lon="6.72466">
        <ele>1707.6</ele>
        <time>2022-07-18T03:58:19Z</time>
      </trkpt>
      <trkpt lat="44.85119" lon="6.72467">
        <ele>1707.6</ele>
        <time>2022-07-18T03:58:20Z</time>
      </trkpt>
      <trkpt lat="44.85117" lon="6.72468">
        <ele>1707.8</ele>
        <time>2022-07-18T03:58:21Z</time>
      </trkpt>
      <trkpt lat="44.85115" lon="6.72469">
        <ele>1707.8</ele>
        <time>2022-07-18T03:58:22Z</time>
      </trkpt>
      <trkpt lat="44.85113" lon="6.7247">
        <ele>1708.2</ele>
        <time>2022-07-18T03:58:23Z</time>
      </trkpt>
      <trkpt lat="44.85111" lon="6.72471">
        <ele>1708.4</ele>
        <time>2022-07-18T03:58:24Z</time>
      </trkpt>
      <trkpt lat="44.85109" lon="6.72472">
        <ele>1708.4</ele>
        <time>2022-07-18T03:58:25Z</time>
      </trkpt>
      <trkpt lat="44.85106" lon="6.72472">
        <ele>1708.8</ele>
        <time>2022-07-18T03:58:26Z</time>
      </trkpt>
      <trkpt lat="44.85104" lon="6.72473">
        <ele>1708.8</ele>
        <time>2022-07-18T03:58:27Z</time>
      </trkpt>
      <trkpt lat="44.85102" lon="6.72474">
        <ele>1709</ele>
        <time>2022-07-18T03:58:28Z</time>
      </trkpt>
      <trkpt lat="44.851" lon="6.72475">
        <ele>1709</ele>
        <time>2022-07-18T03:58:29Z</time>
      </trkpt>
      <trkpt lat="44.85098" lon="6.72476">
        <ele>1709.4</ele>
        <time>2022-07-18T03:58:30Z</time>
      </trkpt>
      <trkpt lat="44.85096" lon="6.72477">
        <ele>1709.6</ele>
        <time>2022-07-18T03:58:31Z</time>
      </trkpt>
      <trkpt lat="44.85093" lon="6.72478">
        <ele>1709.8</ele>
        <time>2022-07-18T03:58:32Z</time>
      </trkpt>
      <trkpt lat="44.85091" lon="6.72479">
        <ele>1709.8</ele>
        <time>2022-07-18T03:58:33Z</time>
      </trkpt>
      <trkpt lat="44.85089" lon="6.7248">
        <ele>1710.2</ele>
        <time>2022-07-18T03:58:34Z</time>
      </trkpt>
      <trkpt lat="44.85087" lon="6.72482">
        <ele>1710.4</ele>
        <time>2022-07-18T03:58:35Z</time>
      </trkpt>
      <trkpt lat="44.85086" lon="6.72483">
        <ele>1710.4</ele>
        <time>2022-07-18T03:58:36Z</time>
      </trkpt>
      <trkpt lat="44.85084" lon="6.72484">
        <ele>1710.8</ele>
        <time>2022-07-18T03:58:37Z</time>
      </trkpt>
      <trkpt lat="44.85081" lon="6.72484">
        <ele>1710.8</ele>
        <time>2022-07-18T03:58:38Z</time>
      </trkpt>
      <trkpt lat="44.85079" lon="6.72485">
        <ele>1711</ele>
        <time>2022-07-18T03:58:39Z</time>
      </trkpt>
      <trkpt lat="44.85077" lon="6.72486">
        <ele>1711.4</ele>
        <time>2022-07-18T03:58:40Z</time>
      </trkpt>
      <trkpt lat="44.85075" lon="6.72487">
        <ele>1711.6</ele>
        <time>2022-07-18T03:58:41Z</time>
      </trkpt>
      <trkpt lat="44.85073" lon="6.72487">
        <ele>1711.6</ele>
        <time>2022-07-18T03:58:42Z</time>
      </trkpt>
      <trkpt lat="44.85071" lon="6.72488">
        <ele>1711.8</ele>
        <time>2022-07-18T03:58:43Z</time>
      </trkpt>
      <trkpt lat="44.85069" lon="6.72489">
        <ele>1712</ele>
        <time>2022-07-18T03:58:44Z</time>
      </trkpt>
      <trkpt lat="44.85067" lon="6.7249">
        <ele>1712.4</ele>
        <time>2022-07-18T03:58:45Z</time>
      </trkpt>
      <trkpt lat="44.85066" lon="6.72491">
        <ele>1712.4</ele>
        <time>2022-07-18T03:58:46Z</time>
      </trkpt>
      <trkpt lat="44.85064" lon="6.72492">
        <ele>1712.6</ele>
        <time>2022-07-18T03:58:47Z</time>
      </trkpt>
      <trkpt lat="44.85062" lon="6.72493">
        <ele>1712.6</ele>
        <time>2022-07-18T03:58:48Z</time>
      </trkpt>
      <trkpt lat="44.8506" lon="6.72494">
        <ele>1712.8</ele>
        <time>2022-07-18T03:58:49Z</time>
      </trkpt>
      <trkpt lat="44.85058" lon="6.72495">
        <ele>1713.2</ele>
        <time>2022-07-18T03:58:50Z</time>
      </trkpt>
      <trkpt lat="44.85055" lon="6.72495">
        <ele>1713.4</ele>
        <time>2022-07-18T03:58:51Z</time>
      </trkpt>
      <trkpt lat="44.85053" lon="6.72496">
        <ele>1713.6</ele>
        <time>2022-07-18T03:58:52Z</time>
      </trkpt>
      <trkpt lat="44.85051" lon="6.72496">
        <ele>1713.6</ele>
        <time>2022-07-18T03:58:53Z</time>
      </trkpt>
      <trkpt lat="44.85049" lon="6.72497">
        <ele>1714</ele>
        <time>2022-07-18T03:58:54Z</time>
      </trkpt>
      <trkpt lat="44.85047" lon="6.72498">
        <ele>1714.2</ele>
        <time>2022-07-18T03:58:55Z</time>
      </trkpt>
      <trkpt lat="44.85045" lon="6.72498">
        <ele>1714.6</ele>
        <time>2022-07-18T03:58:56Z</time>
      </trkpt>
      <trkpt lat="44.85044" lon="6.72499">
        <ele>1714.6</ele>
        <time>2022-07-18T03:58:57Z</time>
      </trkpt>
      <trkpt lat="44.85042" lon="6.725">
        <ele>1714.8</ele>
        <time>2022-07-18T03:58:58Z</time>
      </trkpt>
      <trkpt lat="44.8504" lon="6.725">
        <ele>1714.8</ele>
        <time>2022-07-18T03:58:59Z</time>
      </trkpt>
      <trkpt lat="44.85039" lon="6.72501">
        <ele>1715.2</ele>
        <time>2022-07-18T03:59:00Z</time>
      </trkpt>
      <trkpt lat="44.85037" lon="6.72502">
        <ele>1715.2</ele>
        <time>2022-07-18T03:59:01Z</time>
      </trkpt>
      <trkpt lat="44.85036" lon="6.72502">
        <ele>1715.6</ele>
        <time>2022-07-18T03:59:02Z</time>
      </trkpt>
      <trkpt lat="44.85034" lon="6.72502">
        <ele>1715.6</ele>
        <time>2022-07-18T03:59:03Z</time>
      </trkpt>
      <trkpt lat="44.85033" lon="6.72503">
        <ele>1716</ele>
        <time>2022-07-18T03:59:04Z</time>
      </trkpt>
      <trkpt lat="44.85031" lon="6.72503">
        <ele>1716.2</ele>
        <time>2022-07-18T03:59:05Z</time>
      </trkpt>
      <trkpt lat="44.85029" lon="6.72503">
        <ele>1716.4</ele>
        <time>2022-07-18T03:59:06Z</time>
      </trkpt>
      <trkpt lat="44.85027" lon="6.72503">
        <ele>1716.6</ele>
        <time>2022-07-18T03:59:07Z</time>
      </trkpt>
      <trkpt lat="44.85025" lon="6.72503">
        <ele>1716.8</ele>
        <time>2022-07-18T03:59:08Z</time>
      </trkpt>
      <trkpt lat="44.85023" lon="6.72503">
        <ele>1716.8</ele>
        <time>2022-07-18T03:59:09Z</time>
      </trkpt>
      <trkpt lat="44.85021" lon="6.72502">
        <ele>1717.2</ele>
        <time>2022-07-18T03:59:10Z</time>
      </trkpt>
      <trkpt lat="44.85019" lon="6.72502">
        <ele>1717.4</ele>
        <time>2022-07-18T03:59:11Z</time>
      </trkpt>
      <trkpt lat="44.85017" lon="6.72501">
        <ele>1717.8</ele>
        <time>2022-07-18T03:59:12Z</time>
      </trkpt>
      <trkpt lat="44.85015" lon="6.725">
        <ele>1717.8</ele>
        <time>2022-07-18T03:59:13Z</time>
      </trkpt>
      <trkpt lat="44.85013" lon="6.725">
        <ele>1718</ele>
        <time>2022-07-18T03:59:14Z</time>
      </trkpt>
      <trkpt lat="44.85011" lon="6.72499">
        <ele>1718.2</ele>
        <time>2022-07-18T03:59:15Z</time>
      </trkpt>
      <trkpt lat="44.85009" lon="6.72498">
        <ele>1718.2</ele>
        <time>2022-07-18T03:59:16Z</time>
      </trkpt>
      <trkpt lat="44.85007" lon="6.72497">
        <ele>1718.6</ele>
        <time>2022-07-18T03:59:17Z</time>
      </trkpt>
      <trkpt lat="44.85005" lon="6.72496">
        <ele>1718.6</ele>
        <time>2022-07-18T03:59:18Z</time>
      </trkpt>
      <trkpt lat="44.85004" lon="6.72494">
        <ele>1718.8</ele>
        <time>2022-07-18T03:59:19Z</time>
      </trkpt>
      <trkpt lat="44.85002" lon="6.72493">
        <ele>1718.8</ele>
        <time>2022-07-18T03:59:20Z</time>
      </trkpt>
      <trkpt lat="44.85" lon="6.72492">
        <ele>1719.2</ele>
        <time>2022-07-18T03:59:21Z</time>
      </trkpt>
      <trkpt lat="44.84999" lon="6.7249">
        <ele>1719.6</ele>
        <time>2022-07-18T03:59:22Z</time>
      </trkpt>
      <trkpt lat="44.84997" lon="6.72489">
        <ele>1719.6</ele>
        <time>2022-07-18T03:59:23Z</time>
      </trkpt>
      <trkpt lat="44.84995" lon="6.72488">
        <ele>1720</ele>
        <time>2022-07-18T03:59:24Z</time>
      </trkpt>
      <trkpt lat="44.84993" lon="6.72487">
        <ele>1720.2</ele>
        <time>2022-07-18T03:59:25Z</time>
      </trkpt>
      <trkpt lat="44.84992" lon="6.72486">
        <ele>1720.2</ele>
        <time>2022-07-18T03:59:26Z</time>
      </trkpt>
      <trkpt lat="44.8499" lon="6.72486">
        <ele>1720.6</ele>
        <time>2022-07-18T03:59:27Z</time>
      </trkpt>
      <trkpt lat="44.84988" lon="6.72485">
        <ele>1720.6</ele>
        <time>2022-07-18T03:59:28Z</time>
      </trkpt>
      <trkpt lat="44.84986" lon="6.72484">
        <ele>1721</ele>
        <time>2022-07-18T03:59:29Z</time>
      </trkpt>
      <trkpt lat="44.84984" lon="6.72483">
        <ele>1721.2</ele>
        <time>2022-07-18T03:59:30Z</time>
      </trkpt>
      <trkpt lat="44.84983" lon="6.72482">
        <ele>1721.2</ele>
        <time>2022-07-18T03:59:31Z</time>
      </trkpt>
      <trkpt lat="44.8498" lon="6.72481">
        <ele>1721.4</ele>
        <time>2022-07-18T03:59:32Z</time>
      </trkpt>
      <trkpt lat="44.84977" lon="6.7248">
        <ele>1721.6</ele>
        <time>2022-07-18T03:59:33Z</time>
      </trkpt>
      <trkpt lat="44.84975" lon="6.72478">
        <ele>1721.6</ele>
        <time>2022-07-18T03:59:34Z</time>
      </trkpt>
      <trkpt lat="44.84973" lon="6.72477">
        <ele>1722</ele>
        <time>2022-07-18T03:59:35Z</time>
      </trkpt>
      <trkpt lat="44.84971" lon="6.72476">
        <ele>1722</ele>
        <time>2022-07-18T03:59:36Z</time>
      </trkpt>
      <trkpt lat="44.8497" lon="6.72474">
        <ele>1722.4</ele>
        <time>2022-07-18T03:59:37Z</time>
      </trkpt>
      <trkpt lat="44.84967" lon="6.72473">
        <ele>1722.4</ele>
        <time>2022-07-18T03:59:38Z</time>
      </trkpt>
      <trkpt lat="44.84966" lon="6.72472">
        <ele>1722.8</ele>
        <time>2022-07-18T03:59:39Z</time>
      </trkpt>
      <trkpt lat="44.84964" lon="6.72471">
        <ele>1722.8</ele>
        <time>2022-07-18T03:59:40Z</time>
      </trkpt>
      <trkpt lat="44.84962" lon="6.7247">
        <ele>1723</ele>
        <time>2022-07-18T03:59:41Z</time>
      </trkpt>
      <trkpt lat="44.8496" lon="6.72469">
        <ele>1723.2</ele>
        <time>2022-07-18T03:59:42Z</time>
      </trkpt>
      <trkpt lat="44.84957" lon="6.72468">
        <ele>1723.6</ele>
        <time>2022-07-18T03:59:43Z</time>
      </trkpt>
      <trkpt lat="44.84955" lon="6.72468">
        <ele>1723.8</ele>
        <time>2022-07-18T03:59:44Z</time>
      </trkpt>
      <trkpt lat="44.84952" lon="6.72467">
        <ele>1723.8</ele>
        <time>2022-07-18T03:59:45Z</time>
      </trkpt>
      <trkpt lat="44.8495" lon="6.72467">
        <ele>1724</ele>
        <time>2022-07-18T03:59:46Z</time>
      </trkpt>
      <trkpt lat="44.84948" lon="6.72467">
        <ele>1724.4</ele>
        <time>2022-07-18T03:59:47Z</time>
      </trkpt>
      <trkpt lat="44.84945" lon="6.72466">
        <ele>1724.4</ele>
        <time>2022-07-18T03:59:48Z</time>
      </trkpt>
      <trkpt lat="44.84943" lon="6.72465">
        <ele>1724.8</ele>
        <time>2022-07-18T03:59:49Z</time>
      </trkpt>
      <trkpt lat="44.84941" lon="6.72465">
        <ele>1724.8</ele>
        <time>2022-07-18T03:59:50Z</time>
      </trkpt>
      <trkpt lat="44.84938" lon="6.72465">
        <ele>1725.2</ele>
        <time>2022-07-18T03:59:51Z</time>
      </trkpt>
      <trkpt lat="44.84936" lon="6.72465">
        <ele>1725.2</ele>
        <time>2022-07-18T03:59:52Z</time>
      </trkpt>
      <trkpt lat="44.84933" lon="6.72465">
        <ele>1725.4</ele>
        <time>2022-07-18T03:59:53Z</time>
      </trkpt>
      <trkpt lat="44.84931" lon="6.72464">
        <ele>1725.4</ele>
        <time>2022-07-18T03:59:54Z</time>
      </trkpt>
      <trkpt lat="44.84928" lon="6.72464">
        <ele>1725.6</ele>
        <time>2022-07-18T03:59:55Z</time>
      </trkpt>
      <trkpt lat="44.84926" lon="6.72463">
        <ele>1725.8</ele>
        <time>2022-07-18T03:59:56Z</time>
      </trkpt>
      <trkpt lat="44.84924" lon="6.72463">
        <ele>1726</ele>
        <time>2022-07-18T03:59:57Z</time>
      </trkpt>
      <trkpt lat="44.84921" lon="6.72463">
        <ele>1726.4</ele>
        <time>2022-07-18T03:59:58Z</time>
      </trkpt>
      <trkpt lat="44.84919" lon="6.72463">
        <ele>1726.4</ele>
        <time>2022-07-18T03:59:59Z</time>
      </trkpt>
      <trkpt lat="44.84918" lon="6.72463">
        <ele>1726.6</ele>
        <time>2022-07-18T04:00:00Z</time>
      </trkpt>
      <trkpt lat="44.84916" lon="6.72462">
        <ele>1726.6</ele>
        <time>2022-07-18T04:00:01Z</time>
      </trkpt>
      <trkpt lat="44.84914" lon="6.72462">
        <ele>1726.6</ele>
        <time>2022-07-18T04:00:02Z</time>
      </trkpt>
      <trkpt lat="44.84911" lon="6.72462">
        <ele>1727</ele>
        <time>2022-07-18T04:00:03Z</time>
      </trkpt>
      <trkpt lat="44.84909" lon="6.72462">
        <ele>1727</ele>
        <time>2022-07-18T04:00:04Z</time>
      </trkpt>
      <trkpt lat="44.84907" lon="6.72461">
        <ele>1727.4</ele>
        <time>2022-07-18T04:00:05Z</time>
      </trkpt>
      <trkpt lat="44.84905" lon="6.72461">
        <ele>1727.4</ele>
        <time>2022-07-18T04:00:06Z</time>
      </trkpt>
      <trkpt lat="44.84903" lon="6.72461">
        <ele>1727.8</ele>
        <time>2022-07-18T04:00:07Z</time>
      </trkpt>
      <trkpt lat="44.84901" lon="6.72461">
        <ele>1727.8</ele>
        <time>2022-07-18T04:00:08Z</time>
      </trkpt>
      <trkpt lat="44.84899" lon="6.72461">
        <ele>1728</ele>
        <time>2022-07-18T04:00:09Z</time>
      </trkpt>
      <trkpt lat="44.84896" lon="6.72461">
        <ele>1728</ele>
        <time>2022-07-18T04:00:10Z</time>
      </trkpt>
      <trkpt lat="44.84894" lon="6.72461">
        <ele>1728.2</ele>
        <time>2022-07-18T04:00:11Z</time>
      </trkpt>
      <trkpt lat="44.84892" lon="6.72461">
        <ele>1728.2</ele>
        <time>2022-07-18T04:00:12Z</time>
      </trkpt>
      <trkpt lat="44.8489" lon="6.72461">
        <ele>1728.6</ele>
        <time>2022-07-18T04:00:13Z</time>
      </trkpt>
      <trkpt lat="44.84887" lon="6.72461">
        <ele>1728.6</ele>
        <time>2022-07-18T04:00:14Z</time>
      </trkpt>
      <trkpt lat="44.84885" lon="6.72461">
        <ele>1728.8</ele>
        <time>2022-07-18T04:00:15Z</time>
      </trkpt>
      <trkpt lat="44.84883" lon="6.72461">
        <ele>1728.8</ele>
        <time>2022-07-18T04:00:16Z</time>
      </trkpt>
      <trkpt lat="44.84881" lon="6.72461">
        <ele>1729.2</ele>
        <time>2022-07-18T04:00:17Z</time>
      </trkpt>
      <trkpt lat="44.84878" lon="6.72461">
        <ele>1729.2</ele>
        <time>2022-07-18T04:00:18Z</time>
      </trkpt>
      <trkpt lat="44.84876" lon="6.72461">
        <ele>1729.4</ele>
        <time>2022-07-18T04:00:19Z</time>
      </trkpt>
      <trkpt lat="44.84874" lon="6.72461">
        <ele>1729.4</ele>
        <time>2022-07-18T04:00:20Z</time>
      </trkpt>
      <trkpt lat="44.84872" lon="6.72462">
        <ele>1729.8</ele>
        <time>2022-07-18T04:00:21Z</time>
      </trkpt>
      <trkpt lat="44.8487" lon="6.72462">
        <ele>1729.8</ele>
        <time>2022-07-18T04:00:22Z</time>
      </trkpt>
      <trkpt lat="44.84868" lon="6.72462">
        <ele>1730.2</ele>
        <time>2022-07-18T04:00:23Z</time>
      </trkpt>
      <trkpt lat="44.84865" lon="6.72462">
        <ele>1730.2</ele>
        <time>2022-07-18T04:00:24Z</time>
      </trkpt>
      <trkpt lat="44.84863" lon="6.72463">
        <ele>1730.6</ele>
        <time>2022-07-18T04:00:25Z</time>
      </trkpt>
      <trkpt lat="44.84861" lon="6.72463">
        <ele>1730.6</ele>
        <time>2022-07-18T04:00:26Z</time>
      </trkpt>
      <trkpt lat="44.84859" lon="6.72463">
        <ele>1730.8</ele>
        <time>2022-07-18T04:00:27Z</time>
      </trkpt>
      <trkpt lat="44.84857" lon="6.72464">
        <ele>1730.8</ele>
        <time>2022-07-18T04:00:28Z</time>
      </trkpt>
      <trkpt lat="44.84855" lon="6.72464">
        <ele>1731.2</ele>
        <time>2022-07-18T04:00:29Z</time>
      </trkpt>
      <trkpt lat="44.84853" lon="6.72464">
        <ele>1731.2</ele>
        <time>2022-07-18T04:00:30Z</time>
      </trkpt>
      <trkpt lat="44.84851" lon="6.72465">
        <ele>1731.4</ele>
        <time>2022-07-18T04:00:31Z</time>
      </trkpt>
      <trkpt lat="44.84848" lon="6.72465">
        <ele>1731.6</ele>
        <time>2022-07-18T04:00:32Z</time>
      </trkpt>
      <trkpt lat="44.84846" lon="6.72465">
        <ele>1732</ele>
        <time>2022-07-18T04:00:33Z</time>
      </trkpt>
      <trkpt lat="44.84844" lon="6.72466">
        <ele>1732.2</ele>
        <time>2022-07-18T04:00:34Z</time>
      </trkpt>
      <trkpt lat="44.84842" lon="6.72466">
        <ele>1732.2</ele>
        <time>2022-07-18T04:00:35Z</time>
      </trkpt>
      <trkpt lat="44.84839" lon="6.72467">
        <ele>1732.6</ele>
        <time>2022-07-18T04:00:36Z</time>
      </trkpt>
      <trkpt lat="44.84837" lon="6.72467">
        <ele>1732.8</ele>
        <time>2022-07-18T04:00:37Z</time>
      </trkpt>
      <trkpt lat="44.84835" lon="6.72468">
        <ele>1733</ele>
        <time>2022-07-18T04:00:38Z</time>
      </trkpt>
      <trkpt lat="44.84833" lon="6.72468">
        <ele>1733</ele>
        <time>2022-07-18T04:00:39Z</time>
      </trkpt>
      <trkpt lat="44.84831" lon="6.72468">
        <ele>1733.6</ele>
        <time>2022-07-18T04:00:40Z</time>
      </trkpt>
      <trkpt lat="44.84829" lon="6.72468">
        <ele>1733.8</ele>
        <time>2022-07-18T04:00:41Z</time>
      </trkpt>
      <trkpt lat="44.84827" lon="6.72467">
        <ele>1733.8</ele>
        <time>2022-07-18T04:00:42Z</time>
      </trkpt>
      <trkpt lat="44.84825" lon="6.72467">
        <ele>1734.2</ele>
        <time>2022-07-18T04:00:43Z</time>
      </trkpt>
      <trkpt lat="44.84823" lon="6.72467">
        <ele>1734.2</ele>
        <time>2022-07-18T04:00:44Z</time>
      </trkpt>
      <trkpt lat="44.84821" lon="6.72467">
        <ele>1734.6</ele>
        <time>2022-07-18T04:00:45Z</time>
      </trkpt>
      <trkpt lat="44.84818" lon="6.72467">
        <ele>1734.6</ele>
        <time>2022-07-18T04:00:46Z</time>
      </trkpt>
      <trkpt lat="44.84816" lon="6.72467">
        <ele>1734.8</ele>
        <time>2022-07-18T04:00:47Z</time>
      </trkpt>
      <trkpt lat="44.84814" lon="6.72467">
        <ele>1734.8</ele>
        <time>2022-07-18T04:00:48Z</time>
      </trkpt>
      <trkpt lat="44.84812" lon="6.72468">
        <ele>1735</ele>
        <time>2022-07-18T04:00:49Z</time>
      </trkpt>
      <trkpt lat="44.8481" lon="6.72468">
        <ele>1735</ele>
        <time>2022-07-18T04:00:50Z</time>
      </trkpt>
      <trkpt lat="44.84808" lon="6.72468">
        <ele>1735.4</ele>
        <time>2022-07-18T04:00:51Z</time>
      </trkpt>
      <trkpt lat="44.84806" lon="6.72468">
        <ele>1735.6</ele>
        <time>2022-07-18T04:00:52Z</time>
      </trkpt>
      <trkpt lat="44.84804" lon="6.72468">
        <ele>1735.8</ele>
        <time>2022-07-18T04:00:53Z</time>
      </trkpt>
      <trkpt lat="44.84802" lon="6.72467">
        <ele>1735.8</ele>
        <time>2022-07-18T04:00:54Z</time>
      </trkpt>
      <trkpt lat="44.848" lon="6.72467">
        <ele>1736.2</ele>
        <time>2022-07-18T04:00:55Z</time>
      </trkpt>
      <trkpt lat="44.84798" lon="6.72467">
        <ele>1736.2</ele>
        <time>2022-07-18T04:00:56Z</time>
      </trkpt>
      <trkpt lat="44.84796" lon="6.72467">
        <ele>1736.6</ele>
        <time>2022-07-18T04:00:57Z</time>
      </trkpt>
      <trkpt lat="44.84794" lon="6.72468">
        <ele>1736.6</ele>
        <time>2022-07-18T04:00:58Z</time>
      </trkpt>
      <trkpt lat="44.84792" lon="6.72468">
        <ele>1737</ele>
        <time>2022-07-18T04:00:59Z</time>
      </trkpt>
      <trkpt lat="44.8479" lon="6.72469">
        <ele>1737.2</ele>
        <time>2022-07-18T04:01:00Z</time>
      </trkpt>
      <trkpt lat="44.84788" lon="6.72469">
        <ele>1737.2</ele>
        <time>2022-07-18T04:01:01Z</time>
      </trkpt>
      <trkpt lat="44.84786" lon="6.72468">
        <ele>1737.4</ele>
        <time>2022-07-18T04:01:02Z</time>
      </trkpt>
      <trkpt lat="44.84785" lon="6.72468">
        <ele>1737.4</ele>
        <time>2022-07-18T04:01:03Z</time>
      </trkpt>
      <trkpt lat="44.84783" lon="6.72468">
        <ele>1737.8</ele>
        <time>2022-07-18T04:01:04Z</time>
      </trkpt>
      <trkpt lat="44.84781" lon="6.72469">
        <ele>1737.8</ele>
        <time>2022-07-18T04:01:05Z</time>
      </trkpt>
      <trkpt lat="44.84779" lon="6.72469">
        <ele>1738</ele>
        <time>2022-07-18T04:01:06Z</time>
      </trkpt>
      <trkpt lat="44.84777" lon="6.7247">
        <ele>1738.2</ele>
        <time>2022-07-18T04:01:07Z</time>
      </trkpt>
      <trkpt lat="44.84776" lon="6.7247">
        <ele>1738.2</ele>
        <time>2022-07-18T04:01:08Z</time>
      </trkpt>
      <trkpt lat="44.84774" lon="6.7247">
        <ele>1738.6</ele>
        <time>2022-07-18T04:01:09Z</time>
      </trkpt>
      <trkpt lat="44.84772" lon="6.72471">
        <ele>1738.6</ele>
        <time>2022-07-18T04:01:10Z</time>
      </trkpt>
      <trkpt lat="44.84771" lon="6.72471">
        <ele>1739</ele>
        <time>2022-07-18T04:01:11Z</time>
      </trkpt>
      <trkpt lat="44.84769" lon="6.72472">
        <ele>1739</ele>
        <time>2022-07-18T04:01:12Z</time>
      </trkpt>
      <trkpt lat="44.84767" lon="6.72473">
        <ele>1739.2</ele>
        <time>2022-07-18T04:01:13Z</time>
      </trkpt>
      <trkpt lat="44.84765" lon="6.72474">
        <ele>1739.2</ele>
        <time>2022-07-18T04:01:14Z</time>
      </trkpt>
      <trkpt lat="44.84763" lon="6.72474">
        <ele>1739.8</ele>
        <time>2022-07-18T04:01:15Z</time>
      </trkpt>
      <trkpt lat="44.84761" lon="6.72475">
        <ele>1739.8</ele>
        <time>2022-07-18T04:01:16Z</time>
      </trkpt>
      <trkpt lat="44.84759" lon="6.72476">
        <ele>1740</ele>
        <time>2022-07-18T04:01:17Z</time>
      </trkpt>
      <trkpt lat="44.84757" lon="6.72477">
        <ele>1740.2</ele>
        <time>2022-07-18T04:01:18Z</time>
      </trkpt>
      <trkpt lat="44.84756" lon="6.72478">
        <ele>1740.4</ele>
        <time>2022-07-18T04:01:19Z</time>
      </trkpt>
      <trkpt lat="44.84754" lon="6.72479">
        <ele>1740.6</ele>
        <time>2022-07-18T04:01:20Z</time>
      </trkpt>
      <trkpt lat="44.84752" lon="6.7248">
        <ele>1740.6</ele>
        <time>2022-07-18T04:01:21Z</time>
      </trkpt>
      <trkpt lat="44.84751" lon="6.72481">
        <ele>1741</ele>
        <time>2022-07-18T04:01:22Z</time>
      </trkpt>
      <trkpt lat="44.84749" lon="6.72483">
        <ele>1741</ele>
        <time>2022-07-18T04:01:23Z</time>
      </trkpt>
      <trkpt lat="44.84747" lon="6.72484">
        <ele>1741</ele>
        <time>2022-07-18T04:01:24Z</time>
      </trkpt>
      <trkpt lat="44.84745" lon="6.72486">
        <ele>1741.2</ele>
        <time>2022-07-18T04:01:25Z</time>
      </trkpt>
      <trkpt lat="44.84743" lon="6.72488">
        <ele>1741.4</ele>
        <time>2022-07-18T04:01:26Z</time>
      </trkpt>
      <trkpt lat="44.84741" lon="6.72489">
        <ele>1741.6</ele>
        <time>2022-07-18T04:01:27Z</time>
      </trkpt>
      <trkpt lat="44.84739" lon="6.72491">
        <ele>1741.6</ele>
        <time>2022-07-18T04:01:28Z</time>
      </trkpt>
      <trkpt lat="44.84737" lon="6.72493">
        <ele>1742</ele>
        <time>2022-07-18T04:01:29Z</time>
      </trkpt>
      <trkpt lat="44.84735" lon="6.72495">
        <ele>1742</ele>
        <time>2022-07-18T04:01:30Z</time>
      </trkpt>
      <trkpt lat="44.84733" lon="6.72496">
        <ele>1742.2</ele>
        <time>2022-07-18T04:01:31Z</time>
      </trkpt>
      <trkpt lat="44.84732" lon="6.72498">
        <ele>1742.4</ele>
        <time>2022-07-18T04:01:32Z</time>
      </trkpt>
      <trkpt lat="44.84729" lon="6.725">
        <ele>1742.6</ele>
        <time>2022-07-18T04:01:33Z</time>
      </trkpt>
      <trkpt lat="44.84728" lon="6.72501">
        <ele>1742.6</ele>
        <time>2022-07-18T04:01:34Z</time>
      </trkpt>
      <trkpt lat="44.84726" lon="6.72503">
        <ele>1743</ele>
        <time>2022-07-18T04:01:35Z</time>
      </trkpt>
      <trkpt lat="44.84724" lon="6.72505">
        <ele>1743</ele>
        <time>2022-07-18T04:01:36Z</time>
      </trkpt>
      <trkpt lat="44.84723" lon="6.72507">
        <ele>1743.4</ele>
        <time>2022-07-18T04:01:37Z</time>
      </trkpt>
      <trkpt lat="44.84721" lon="6.72509">
        <ele>1743.6</ele>
        <time>2022-07-18T04:01:38Z</time>
      </trkpt>
      <trkpt lat="44.84719" lon="6.7251">
        <ele>1743.8</ele>
        <time>2022-07-18T04:01:39Z</time>
      </trkpt>
      <trkpt lat="44.84717" lon="6.72512">
        <ele>1743.8</ele>
        <time>2022-07-18T04:01:40Z</time>
      </trkpt>
      <trkpt lat="44.84715" lon="6.72513">
        <ele>1744.2</ele>
        <time>2022-07-18T04:01:41Z</time>
      </trkpt>
      <trkpt lat="44.84714" lon="6.72515">
        <ele>1744.2</ele>
        <time>2022-07-18T04:01:42Z</time>
      </trkpt>
      <trkpt lat="44.84712" lon="6.72517">
        <ele>1744.6</ele>
        <time>2022-07-18T04:01:43Z</time>
      </trkpt>
      <trkpt lat="44.8471" lon="6.72518">
        <ele>1744.6</ele>
        <time>2022-07-18T04:01:44Z</time>
      </trkpt>
      <trkpt lat="44.84709" lon="6.7252">
        <ele>1745</ele>
        <time>2022-07-18T04:01:45Z</time>
      </trkpt>
      <trkpt lat="44.84707" lon="6.72521">
        <ele>1745.2</ele>
        <time>2022-07-18T04:01:46Z</time>
      </trkpt>
      <trkpt lat="44.84705" lon="6.72523">
        <ele>1745.2</ele>
        <time>2022-07-18T04:01:47Z</time>
      </trkpt>
      <trkpt lat="44.84703" lon="6.72524">
        <ele>1745.6</ele>
        <time>2022-07-18T04:01:48Z</time>
      </trkpt>
      <trkpt lat="44.84702" lon="6.72525">
        <ele>1745.6</ele>
        <time>2022-07-18T04:01:49Z</time>
      </trkpt>
      <trkpt lat="44.847" lon="6.72527">
        <ele>1746</ele>
        <time>2022-07-18T04:01:50Z</time>
      </trkpt>
      <trkpt lat="44.84698" lon="6.72528">
        <ele>1746</ele>
        <time>2022-07-18T04:01:51Z</time>
      </trkpt>
      <trkpt lat="44.84696" lon="6.7253">
        <ele>1746.2</ele>
        <time>2022-07-18T04:01:52Z</time>
      </trkpt>
      <trkpt lat="44.84694" lon="6.72531">
        <ele>1746.2</ele>
        <time>2022-07-18T04:01:53Z</time>
      </trkpt>
      <trkpt lat="44.84693" lon="6.72533">
        <ele>1746.4</ele>
        <time>2022-07-18T04:01:54Z</time>
      </trkpt>
      <trkpt lat="44.84691" lon="6.72534">
        <ele>1746.4</ele>
        <time>2022-07-18T04:01:55Z</time>
      </trkpt>
      <trkpt lat="44.84689" lon="6.72535">
        <ele>1746.8</ele>
        <time>2022-07-18T04:01:56Z</time>
      </trkpt>
      <trkpt lat="44.84688" lon="6.72536">
        <ele>1747</ele>
        <time>2022-07-18T04:01:57Z</time>
      </trkpt>
      <trkpt lat="44.84686" lon="6.72537">
        <ele>1747</ele>
        <time>2022-07-18T04:01:58Z</time>
      </trkpt>
      <trkpt lat="44.84685" lon="6.72538">
        <ele>1747.4</ele>
        <time>2022-07-18T04:01:59Z</time>
      </trkpt>
      <trkpt lat="44.84683" lon="6.72539">
        <ele>1747.6</ele>
        <time>2022-07-18T04:02:00Z</time>
      </trkpt>
      <trkpt lat="44.84681" lon="6.7254">
        <ele>1747.6</ele>
        <time>2022-07-18T04:02:01Z</time>
      </trkpt>
      <trkpt lat="44.84679" lon="6.72541">
        <ele>1747.8</ele>
        <time>2022-07-18T04:02:02Z</time>
      </trkpt>
      <trkpt lat="44.84677" lon="6.72543">
        <ele>1748.2</ele>
        <time>2022-07-18T04:02:03Z</time>
      </trkpt>
      <trkpt lat="44.84675" lon="6.72544">
        <ele>1748.4</ele>
        <time>2022-07-18T04:02:04Z</time>
      </trkpt>
      <trkpt lat="44.84673" lon="6.72545">
        <ele>1748.6</ele>
        <time>2022-07-18T04:02:05Z</time>
      </trkpt>
      <trkpt lat="44.84672" lon="6.72546">
        <ele>1748.6</ele>
        <time>2022-07-18T04:02:06Z</time>
      </trkpt>
      <trkpt lat="44.8467" lon="6.72548">
        <ele>1749</ele>
        <time>2022-07-18T04:02:07Z</time>
      </trkpt>
      <trkpt lat="44.84668" lon="6.72549">
        <ele>1749</ele>
        <time>2022-07-18T04:02:08Z</time>
      </trkpt>
      <trkpt lat="44.84666" lon="6.7255">
        <ele>1749.4</ele>
        <time>2022-07-18T04:02:09Z</time>
      </trkpt>
      <trkpt lat="44.84664" lon="6.72551">
        <ele>1749.4</ele>
        <time>2022-07-18T04:02:10Z</time>
      </trkpt>
      <trkpt lat="44.84662" lon="6.72552">
        <ele>1749.8</ele>
        <time>2022-07-18T04:02:11Z</time>
      </trkpt>
      <trkpt lat="44.84659" lon="6.72553">
        <ele>1749.8</ele>
        <time>2022-07-18T04:02:12Z</time>
      </trkpt>
      <trkpt lat="44.84657" lon="6.72555">
        <ele>1750</ele>
        <time>2022-07-18T04:02:13Z</time>
      </trkpt>
      <trkpt lat="44.84655" lon="6.72556">
        <ele>1750</ele>
        <time>2022-07-18T04:02:14Z</time>
      </trkpt>
      <trkpt lat="44.84654" lon="6.72557">
        <ele>1750.4</ele>
        <time>2022-07-18T04:02:15Z</time>
      </trkpt>
      <trkpt lat="44.84651" lon="6.72558">
        <ele>1750.4</ele>
        <time>2022-07-18T04:02:16Z</time>
      </trkpt>
      <trkpt lat="44.84649" lon="6.72559">
        <ele>1750.8</ele>
        <time>2022-07-18T04:02:17Z</time>
      </trkpt>
      <trkpt lat="44.84647" lon="6.72559">
        <ele>1751</ele>
        <time>2022-07-18T04:02:18Z</time>
      </trkpt>
      <trkpt lat="44.84645" lon="6.7256">
        <ele>1751</ele>
        <time>2022-07-18T04:02:19Z</time>
      </trkpt>
      <trkpt lat="44.84643" lon="6.72561">
        <ele>1751.4</ele>
        <time>2022-07-18T04:02:20Z</time>
      </trkpt>
      <trkpt lat="44.84641" lon="6.72562">
        <ele>1751.4</ele>
        <time>2022-07-18T04:02:21Z</time>
      </trkpt>
      <trkpt lat="44.84639" lon="6.72563">
        <ele>1751.8</ele>
        <time>2022-07-18T04:02:22Z</time>
      </trkpt>
      <trkpt lat="44.84637" lon="6.72564">
        <ele>1751.8</ele>
        <time>2022-07-18T04:02:23Z</time>
      </trkpt>
      <trkpt lat="44.84634" lon="6.72565">
        <ele>1752</ele>
        <time>2022-07-18T04:02:24Z</time>
      </trkpt>
      <trkpt lat="44.84632" lon="6.72565">
        <ele>1752</ele>
        <time>2022-07-18T04:02:25Z</time>
      </trkpt>
      <trkpt lat="44.8463" lon="6.72566">
        <ele>1752.4</ele>
        <time>2022-07-18T04:02:26Z</time>
      </trkpt>
      <trkpt lat="44.84628" lon="6.72566">
        <ele>1752.4</ele>
        <time>2022-07-18T04:02:27Z</time>
      </trkpt>
      <trkpt lat="44.84626" lon="6.72566">
        <ele>1752.8</ele>
        <time>2022-07-18T04:02:28Z</time>
      </trkpt>
      <trkpt lat="44.84624" lon="6.72566">
        <ele>1752.8</ele>
        <time>2022-07-18T04:02:29Z</time>
      </trkpt>
      <trkpt lat="44.84622" lon="6.72566">
        <ele>1753.2</ele>
        <time>2022-07-18T04:02:30Z</time>
      </trkpt>
      <trkpt lat="44.84619" lon="6.72566">
        <ele>1753.2</ele>
        <time>2022-07-18T04:02:31Z</time>
      </trkpt>
      <trkpt lat="44.84617" lon="6.72565">
        <ele>1753.4</ele>
        <time>2022-07-18T04:02:32Z</time>
      </trkpt>
      <trkpt lat="44.84615" lon="6.72565">
        <ele>1753.4</ele>
        <time>2022-07-18T04:02:33Z</time>
      </trkpt>
      <trkpt lat="44.84613" lon="6.72565">
        <ele>1753.8</ele>
        <time>2022-07-18T04:02:34Z</time>
      </trkpt>
      <trkpt lat="44.84611" lon="6.72564">
        <ele>1753.8</ele>
        <time>2022-07-18T04:02:35Z</time>
      </trkpt>
      <trkpt lat="44.84608" lon="6.72564">
        <ele>1754.2</ele>
        <time>2022-07-18T04:02:36Z</time>
      </trkpt>
      <trkpt lat="44.84607" lon="6.72564">
        <ele>1754.2</ele>
        <time>2022-07-18T04:02:37Z</time>
      </trkpt>
      <trkpt lat="44.84604" lon="6.72563">
        <ele>1754.6</ele>
        <time>2022-07-18T04:02:38Z</time>
      </trkpt>
      <trkpt lat="44.84602" lon="6.72563">
        <ele>1754.6</ele>
        <time>2022-07-18T04:02:39Z</time>
      </trkpt>
      <trkpt lat="44.846" lon="6.72563">
        <ele>1755</ele>
        <time>2022-07-18T04:02:40Z</time>
      </trkpt>
      <trkpt lat="44.84598" lon="6.72562">
        <ele>1755.2</ele>
        <time>2022-07-18T04:02:41Z</time>
      </trkpt>
      <trkpt lat="44.84596" lon="6.72562">
        <ele>1755.2</ele>
        <time>2022-07-18T04:02:42Z</time>
      </trkpt>
      <trkpt lat="44.84594" lon="6.72561">
        <ele>1755.6</ele>
        <time>2022-07-18T04:02:43Z</time>
      </trkpt>
      <trkpt lat="44.84592" lon="6.7256">
        <ele>1756</ele>
        <time>2022-07-18T04:02:44Z</time>
      </trkpt>
      <trkpt lat="44.8459" lon="6.72559">
        <ele>1756.2</ele>
        <time>2022-07-18T04:02:45Z</time>
      </trkpt>
      <trkpt lat="44.84588" lon="6.72558">
        <ele>1756.4</ele>
        <time>2022-07-18T04:02:46Z</time>
      </trkpt>
      <trkpt lat="44.84586" lon="6.72558">
        <ele>1756.4</ele>
        <time>2022-07-18T04:02:47Z</time>
      </trkpt>
      <trkpt lat="44.84584" lon="6.72557">
        <ele>1756.8</ele>
        <time>2022-07-18T04:02:48Z</time>
      </trkpt>
      <trkpt lat="44.84582" lon="6.72556">
        <ele>1757</ele>
        <time>2022-07-18T04:02:49Z</time>
      </trkpt>
      <trkpt lat="44.84581" lon="6.72556">
        <ele>1757.2</ele>
        <time>2022-07-18T04:02:50Z</time>
      </trkpt>
      <trkpt lat="44.84579" lon="6.72555">
        <ele>1757.2</ele>
        <time>2022-07-18T04:02:51Z</time>
      </trkpt>
      <trkpt lat="44.84577" lon="6.72554">
        <ele>1757.4</ele>
        <time>2022-07-18T04:02:52Z</time>
      </trkpt>
      <trkpt lat="44.84575" lon="6.72553">
        <ele>1757.4</ele>
        <time>2022-07-18T04:02:53Z</time>
      </trkpt>
      <trkpt lat="44.84574" lon="6.72552">
        <ele>1757.8</ele>
        <time>2022-07-18T04:02:54Z</time>
      </trkpt>
      <trkpt lat="44.84573" lon="6.72551">
        <ele>1757.8</ele>
        <time>2022-07-18T04:02:55Z</time>
      </trkpt>
      <trkpt lat="44.84571" lon="6.7255">
        <ele>1758</ele>
        <time>2022-07-18T04:02:56Z</time>
      </trkpt>
      <trkpt lat="44.8457" lon="6.72548">
        <ele>1758</ele>
        <time>2022-07-18T04:02:57Z</time>
      </trkpt>
      <trkpt lat="44.84569" lon="6.72547">
        <ele>1758.4</ele>
        <time>2022-07-18T04:02:58Z</time>
      </trkpt>
      <trkpt lat="44.84568" lon="6.72546">
        <ele>1758.6</ele>
        <time>2022-07-18T04:02:59Z</time>
      </trkpt>
      <trkpt lat="44.84567" lon="6.72545">
        <ele>1758.8</ele>
        <time>2022-07-18T04:03:00Z</time>
      </trkpt>
      <trkpt lat="44.84566" lon="6.72544">
        <ele>1758.8</ele>
        <time>2022-07-18T04:03:01Z</time>
      </trkpt>
      <trkpt lat="44.84565" lon="6.72543">
        <ele>1759.2</ele>
        <time>2022-07-18T04:03:02Z</time>
      </trkpt>
      <trkpt lat="44.84563" lon="6.72542">
        <ele>1759.4</ele>
        <time>2022-07-18T04:03:03Z</time>
      </trkpt>
      <trkpt lat="44.84562" lon="6.72541">
        <ele>1759.4</ele>
        <time>2022-07-18T04:03:04Z</time>
      </trkpt>
      <trkpt lat="44.8456" lon="6.72539">
        <ele>1759.8</ele>
        <time>2022-07-18T04:03:05Z</time>
      </trkpt>
      <trkpt lat="44.84559" lon="6.72538">
        <ele>1759.8</ele>
        <time>2022-07-18T04:03:06Z</time>
      </trkpt>
      <trkpt lat="44.84558" lon="6.72537">
        <ele>1760.2</ele>
        <time>2022-07-18T04:03:07Z</time>
      </trkpt>
      <trkpt lat="44.84556" lon="6.72535">
        <ele>1760.4</ele>
        <time>2022-07-18T04:03:08Z</time>
      </trkpt>
      <trkpt lat="44.84555" lon="6.72534">
        <ele>1760.4</ele>
        <time>2022-07-18T04:03:09Z</time>
      </trkpt>
      <trkpt lat="44.84553" lon="6.72533">
        <ele>1760.6</ele>
        <time>2022-07-18T04:03:10Z</time>
      </trkpt>
      <trkpt lat="44.8455" lon="6.72531">
        <ele>1760.6</ele>
        <time>2022-07-18T04:03:11Z</time>
      </trkpt>
      <trkpt lat="44.84548" lon="6.7253">
        <ele>1761</ele>
        <time>2022-07-18T04:03:12Z</time>
      </trkpt>
      <trkpt lat="44.84545" lon="6.72529">
        <ele>1761.2</ele>
        <time>2022-07-18T04:03:13Z</time>
      </trkpt>
      <trkpt lat="44.84543" lon="6.72528">
        <ele>1761.4</ele>
        <time>2022-07-18T04:03:14Z</time>
      </trkpt>
      <trkpt lat="44.84541" lon="6.72527">
        <ele>1761.8</ele>
        <time>2022-07-18T04:03:15Z</time>
      </trkpt>
      <trkpt lat="44.84539" lon="6.72526">
        <ele>1762</ele>
        <time>2022-07-18T04:03:16Z</time>
      </trkpt>
      <trkpt lat="44.84537" lon="6.72524">
        <ele>1762</ele>
        <time>2022-07-18T04:03:17Z</time>
      </trkpt>
      <trkpt lat="44.84536" lon="6.72523">
        <ele>1762.4</ele>
        <time>2022-07-18T04:03:18Z</time>
      </trkpt>
      <trkpt lat="44.84534" lon="6.72522">
        <ele>1762.4</ele>
        <time>2022-07-18T04:03:19Z</time>
      </trkpt>
      <trkpt lat="44.84531" lon="6.72521">
        <ele>1762.8</ele>
        <time>2022-07-18T04:03:20Z</time>
      </trkpt>
      <trkpt lat="44.84529" lon="6.72519">
        <ele>1762.8</ele>
        <time>2022-07-18T04:03:21Z</time>
      </trkpt>
      <trkpt lat="44.84528" lon="6.72517">
        <ele>1763.2</ele>
        <time>2022-07-18T04:03:22Z</time>
      </trkpt>
      <trkpt lat="44.84526" lon="6.72516">
        <ele>1763.4</ele>
        <time>2022-07-18T04:03:23Z</time>
      </trkpt>
      <trkpt lat="44.84524" lon="6.72515">
        <ele>1763.4</ele>
        <time>2022-07-18T04:03:24Z</time>
      </trkpt>
      <trkpt lat="44.84523" lon="6.72513">
        <ele>1763.6</ele>
        <time>2022-07-18T04:03:25Z</time>
      </trkpt>
      <trkpt lat="44.84521" lon="6.72511">
        <ele>1763.8</ele>
        <time>2022-07-18T04:03:26Z</time>
      </trkpt>
      <trkpt lat="44.8452" lon="6.7251">
        <ele>1764</ele>
        <time>2022-07-18T04:03:27Z</time>
      </trkpt>
      <trkpt lat="44.84518" lon="6.72508">
        <ele>1764</ele>
        <time>2022-07-18T04:03:28Z</time>
      </trkpt>
      <trkpt lat="44.84516" lon="6.72507">
        <ele>1764.4</ele>
        <time>2022-07-18T04:03:29Z</time>
      </trkpt>
      <trkpt lat="44.84514" lon="6.72505">
        <ele>1764.4</ele>
        <time>2022-07-18T04:03:30Z</time>
      </trkpt>
      <trkpt lat="44.84513" lon="6.72503">
        <ele>1764.8</ele>
        <time>2022-07-18T04:03:31Z</time>
      </trkpt>
      <trkpt lat="44.84511" lon="6.72502">
        <ele>1765</ele>
        <time>2022-07-18T04:03:32Z</time>
      </trkpt>
      <trkpt lat="44.84509" lon="6.725">
        <ele>1765</ele>
        <time>2022-07-18T04:03:33Z</time>
      </trkpt>
      <trkpt lat="44.84507" lon="6.72498">
        <ele>1765.2</ele>
        <time>2022-07-18T04:03:34Z</time>
      </trkpt>
      <trkpt lat="44.84506" lon="6.72496">
        <ele>1765.2</ele>
        <time>2022-07-18T04:03:35Z</time>
      </trkpt>
      <trkpt lat="44.84504" lon="6.72495">
        <ele>1765.6</ele>
        <time>2022-07-18T04:03:36Z</time>
      </trkpt>
      <trkpt lat="44.84502" lon="6.72493">
        <ele>1765.6</ele>
        <time>2022-07-18T04:03:37Z</time>
      </trkpt>
      <trkpt lat="44.845" lon="6.72492">
        <ele>1766</ele>
        <time>2022-07-18T04:03:38Z</time>
      </trkpt>
      <trkpt lat="44.84499" lon="6.7249">
        <ele>1766</ele>
        <time>2022-07-18T04:03:39Z</time>
      </trkpt>
      <trkpt lat="44.84497" lon="6.72489">
        <ele>1766.4</ele>
        <time>2022-07-18T04:03:40Z</time>
      </trkpt>
      <trkpt lat="44.84495" lon="6.72487">
        <ele>1766.4</ele>
        <time>2022-07-18T04:03:41Z</time>
      </trkpt>
      <trkpt lat="44.84494" lon="6.72485">
        <ele>1766.8</ele>
        <time>2022-07-18T04:03:42Z</time>
      </trkpt>
      <trkpt lat="44.84492" lon="6.72483">
        <ele>1767</ele>
        <time>2022-07-18T04:03:43Z</time>
      </trkpt>
      <trkpt lat="44.84491" lon="6.72481">
        <ele>1767</ele>
        <time>2022-07-18T04:03:44Z</time>
      </trkpt>
      <trkpt lat="44.84488" lon="6.7248">
        <ele>1767.2</ele>
        <time>2022-07-18T04:03:45Z</time>
      </trkpt>
      <trkpt lat="44.84486" lon="6.72479">
        <ele>1767.2</ele>
        <time>2022-07-18T04:03:46Z</time>
      </trkpt>
      <trkpt lat="44.84484" lon="6.72477">
        <ele>1767.6</ele>
        <time>2022-07-18T04:03:47Z</time>
      </trkpt>
      <trkpt lat="44.84482" lon="6.72476">
        <ele>1767.6</ele>
        <time>2022-07-18T04:03:48Z</time>
      </trkpt>
      <trkpt lat="44.8448" lon="6.72475">
        <ele>1767.8</ele>
        <time>2022-07-18T04:03:49Z</time>
      </trkpt>
      <trkpt lat="44.84478" lon="6.72474">
        <ele>1767.8</ele>
        <time>2022-07-18T04:03:50Z</time>
      </trkpt>
      <trkpt lat="44.84476" lon="6.72473">
        <ele>1768.2</ele>
        <time>2022-07-18T04:03:51Z</time>
      </trkpt>
      <trkpt lat="44.84474" lon="6.72472">
        <ele>1768.4</ele>
        <time>2022-07-18T04:03:52Z</time>
      </trkpt>
      <trkpt lat="44.84472" lon="6.72471">
        <ele>1768.6</ele>
        <time>2022-07-18T04:03:53Z</time>
      </trkpt>
      <trkpt lat="44.8447" lon="6.72469">
        <ele>1768.8</ele>
        <time>2022-07-18T04:03:54Z</time>
      </trkpt>
      <trkpt lat="44.84468" lon="6.72468">
        <ele>1769.2</ele>
        <time>2022-07-18T04:03:55Z</time>
      </trkpt>
      <trkpt lat="44.84467" lon="6.72467">
        <ele>1769.4</ele>
        <time>2022-07-18T04:03:56Z</time>
      </trkpt>
      <trkpt lat="44.84465" lon="6.72466">
        <ele>1769.4</ele>
        <time>2022-07-18T04:03:57Z</time>
      </trkpt>
      <trkpt lat="44.84463" lon="6.72465">
        <ele>1769.6</ele>
        <time>2022-07-18T04:03:58Z</time>
      </trkpt>
      <trkpt lat="44.84461" lon="6.72463">
        <ele>1769.6</ele>
        <time>2022-07-18T04:03:59Z</time>
      </trkpt>
      <trkpt lat="44.84459" lon="6.72462">
        <ele>1770</ele>
        <time>2022-07-18T04:04:00Z</time>
      </trkpt>
      <trkpt lat="44.84457" lon="6.72461">
        <ele>1770</ele>
        <time>2022-07-18T04:04:01Z</time>
      </trkpt>
      <trkpt lat="44.84456" lon="6.7246">
        <ele>1770.4</ele>
        <time>2022-07-18T04:04:02Z</time>
      </trkpt>
      <trkpt lat="44.84454" lon="6.72459">
        <ele>1770.4</ele>
        <time>2022-07-18T04:04:03Z</time>
      </trkpt>
      <trkpt lat="44.84452" lon="6.72458">
        <ele>1770.8</ele>
        <time>2022-07-18T04:04:04Z</time>
      </trkpt>
      <trkpt lat="44.84451" lon="6.72457">
        <ele>1771</ele>
        <time>2022-07-18T04:04:05Z</time>
      </trkpt>
      <trkpt lat="44.84449" lon="6.72455">
        <ele>1771</ele>
        <time>2022-07-18T04:04:06Z</time>
      </trkpt>
      <trkpt lat="44.84448" lon="6.72454">
        <ele>1771.2</ele>
        <time>2022-07-18T04:04:08Z</time>
      </trkpt>
      <trkpt lat="44.84446" lon="6.72453">
        <ele>1771.6</ele>
        <time>2022-07-18T04:04:09Z</time>
      </trkpt>
      <trkpt lat="44.84444" lon="6.72452">
        <ele>1771.6</ele>
        <time>2022-07-18T04:04:10Z</time>
      </trkpt>
      <trkpt lat="44.84442" lon="6.72451">
        <ele>1771.8</ele>
        <time>2022-07-18T04:04:11Z</time>
      </trkpt>
      <trkpt lat="44.8444" lon="6.7245">
        <ele>1771.8</ele>
        <time>2022-07-18T04:04:12Z</time>
      </trkpt>
      <trkpt lat="44.84438" lon="6.72449">
        <ele>1772.2</ele>
        <time>2022-07-18T04:04:13Z</time>
      </trkpt>
      <trkpt lat="44.84436" lon="6.72448">
        <ele>1772.2</ele>
        <time>2022-07-18T04:04:14Z</time>
      </trkpt>
      <trkpt lat="44.84434" lon="6.72447">
        <ele>1772.4</ele>
        <time>2022-07-18T04:04:15Z</time>
      </trkpt>
      <trkpt lat="44.84431" lon="6.72446">
        <ele>1772.6</ele>
        <time>2022-07-18T04:04:16Z</time>
      </trkpt>
      <trkpt lat="44.84429" lon="6.72446">
        <ele>1772.6</ele>
        <time>2022-07-18T04:04:17Z</time>
      </trkpt>
      <trkpt lat="44.84427" lon="6.72445">
        <ele>1773</ele>
        <time>2022-07-18T04:04:18Z</time>
      </trkpt>
      <trkpt lat="44.84425" lon="6.72444">
        <ele>1773</ele>
        <time>2022-07-18T04:04:19Z</time>
      </trkpt>
      <trkpt lat="44.84424" lon="6.72442">
        <ele>1773.4</ele>
        <time>2022-07-18T04:04:20Z</time>
      </trkpt>
      <trkpt lat="44.84422" lon="6.7244">
        <ele>1773.4</ele>
        <time>2022-07-18T04:04:21Z</time>
      </trkpt>
      <trkpt lat="44.84421" lon="6.72438">
        <ele>1773.8</ele>
        <time>2022-07-18T04:04:22Z</time>
      </trkpt>
      <trkpt lat="44.8442" lon="6.72435">
        <ele>1773.8</ele>
        <time>2022-07-18T04:04:23Z</time>
      </trkpt>
      <trkpt lat="44.84419" lon="6.72432">
        <ele>1774</ele>
        <time>2022-07-18T04:04:24Z</time>
      </trkpt>
      <trkpt lat="44.84419" lon="6.72429">
        <ele>1774</ele>
        <time>2022-07-18T04:04:25Z</time>
      </trkpt>
      <trkpt lat="44.8442" lon="6.72426">
        <ele>1774.4</ele>
        <time>2022-07-18T04:04:26Z</time>
      </trkpt>
      <trkpt lat="44.84421" lon="6.72423">
        <ele>1774.4</ele>
        <time>2022-07-18T04:04:27Z</time>
      </trkpt>
      <trkpt lat="44.84423" lon="6.72421">
        <ele>1774.6</ele>
        <time>2022-07-18T04:04:28Z</time>
      </trkpt>
      <trkpt lat="44.84425" lon="6.7242">
        <ele>1774.6</ele>
        <time>2022-07-18T04:04:29Z</time>
      </trkpt>
      <trkpt lat="44.84427" lon="6.72419">
        <ele>1774.6</ele>
        <time>2022-07-18T04:04:30Z</time>
      </trkpt>
      <trkpt lat="44.84429" lon="6.72419">
        <ele>1775</ele>
        <time>2022-07-18T04:04:31Z</time>
      </trkpt>
      <trkpt lat="44.84431" lon="6.7242">
        <ele>1775</ele>
        <time>2022-07-18T04:04:32Z</time>
      </trkpt>
      <trkpt lat="44.84434" lon="6.72421">
        <ele>1775</ele>
        <time>2022-07-18T04:04:33Z</time>
      </trkpt>
      <trkpt lat="44.84436" lon="6.72422">
        <ele>1775.2</ele>
        <time>2022-07-18T04:04:34Z</time>
      </trkpt>
      <trkpt lat="44.84438" lon="6.72424">
        <ele>1775.2</ele>
        <time>2022-07-18T04:04:35Z</time>
      </trkpt>
      <trkpt lat="44.8444" lon="6.72425">
        <ele>1775.2</ele>
        <time>2022-07-18T04:04:36Z</time>
      </trkpt>
      <trkpt lat="44.84442" lon="6.72426">
        <ele>1775.2</ele>
        <time>2022-07-18T04:04:37Z</time>
      </trkpt>
      <trkpt lat="44.84445" lon="6.72427">
        <ele>1775.6</ele>
        <time>2022-07-18T04:04:38Z</time>
      </trkpt>
      <trkpt lat="44.84447" lon="6.72428">
        <ele>1775.6</ele>
        <time>2022-07-18T04:04:39Z</time>
      </trkpt>
      <trkpt lat="44.8445" lon="6.72428">
        <ele>1775.8</ele>
        <time>2022-07-18T04:04:40Z</time>
      </trkpt>
      <trkpt lat="44.84452" lon="6.72429">
        <ele>1775.8</ele>
        <time>2022-07-18T04:04:41Z</time>
      </trkpt>
      <trkpt lat="44.84454" lon="6.7243">
        <ele>1776</ele>
        <time>2022-07-18T04:04:42Z</time>
      </trkpt>
      <trkpt lat="44.84457" lon="6.72431">
        <ele>1776</ele>
        <time>2022-07-18T04:04:43Z</time>
      </trkpt>
      <trkpt lat="44.84459" lon="6.72431">
        <ele>1776.4</ele>
        <time>2022-07-18T04:04:44Z</time>
      </trkpt>
      <trkpt lat="44.84461" lon="6.72432">
        <ele>1776.4</ele>
        <time>2022-07-18T04:04:45Z</time>
      </trkpt>
      <trkpt lat="44.84464" lon="6.72432">
        <ele>1776.6</ele>
        <time>2022-07-18T04:04:46Z</time>
      </trkpt>
      <trkpt lat="44.84467" lon="6.72432">
        <ele>1776.6</ele>
        <time>2022-07-18T04:04:47Z</time>
      </trkpt>
      <trkpt lat="44.8447" lon="6.72432">
        <ele>1777</ele>
        <time>2022-07-18T04:04:48Z</time>
      </trkpt>
      <trkpt lat="44.84472" lon="6.72432">
        <ele>1777</ele>
        <time>2022-07-18T04:04:49Z</time>
      </trkpt>
      <trkpt lat="44.84475" lon="6.72432">
        <ele>1777</ele>
        <time>2022-07-18T04:04:50Z</time>
      </trkpt>
      <trkpt lat="44.84477" lon="6.72432">
        <ele>1777.4</ele>
        <time>2022-07-18T04:04:51Z</time>
      </trkpt>
      <trkpt lat="44.8448" lon="6.72433">
        <ele>1777.4</ele>
        <time>2022-07-18T04:04:52Z</time>
      </trkpt>
      <trkpt lat="44.84483" lon="6.72433">
        <ele>1777.6</ele>
        <time>2022-07-18T04:04:53Z</time>
      </trkpt>
      <trkpt lat="44.84485" lon="6.72433">
        <ele>1777.6</ele>
        <time>2022-07-18T04:04:54Z</time>
      </trkpt>
      <trkpt lat="44.84488" lon="6.72434">
        <ele>1777.8</ele>
        <time>2022-07-18T04:04:55Z</time>
      </trkpt>
      <trkpt lat="44.84491" lon="6.72434">
        <ele>1777.8</ele>
        <time>2022-07-18T04:04:56Z</time>
      </trkpt>
      <trkpt lat="44.84493" lon="6.72435">
        <ele>1778.2</ele>
        <time>2022-07-18T04:04:57Z</time>
      </trkpt>
      <trkpt lat="44.84495" lon="6.72436">
        <ele>1778.2</ele>
        <time>2022-07-18T04:04:58Z</time>
      </trkpt>
      <trkpt lat="44.84497" lon="6.72437">
        <ele>1778.4</ele>
        <time>2022-07-18T04:04:59Z</time>
      </trkpt>
      <trkpt lat="44.845" lon="6.72438">
        <ele>1778.4</ele>
        <time>2022-07-18T04:05:00Z</time>
      </trkpt>
      <trkpt lat="44.84503" lon="6.72439">
        <ele>1778.6</ele>
        <time>2022-07-18T04:05:01Z</time>
      </trkpt>
      <trkpt lat="44.84505" lon="6.72439">
        <ele>1778.6</ele>
        <time>2022-07-18T04:05:02Z</time>
      </trkpt>
      <trkpt lat="44.84508" lon="6.7244">
        <ele>1778.6</ele>
        <time>2022-07-18T04:05:03Z</time>
      </trkpt>
      <trkpt lat="44.84511" lon="6.72441">
        <ele>1779</ele>
        <time>2022-07-18T04:05:04Z</time>
      </trkpt>
      <trkpt lat="44.84513" lon="6.72441">
        <ele>1779</ele>
        <time>2022-07-18T04:05:05Z</time>
      </trkpt>
      <trkpt lat="44.84516" lon="6.72442">
        <ele>1779.2</ele>
        <time>2022-07-18T04:05:06Z</time>
      </trkpt>
      <trkpt lat="44.84519" lon="6.72442">
        <ele>1779.2</ele>
        <time>2022-07-18T04:05:07Z</time>
      </trkpt>
      <trkpt lat="44.84522" lon="6.72443">
        <ele>1779.6</ele>
        <time>2022-07-18T04:05:08Z</time>
      </trkpt>
      <trkpt lat="44.84524" lon="6.72444">
        <ele>1779.6</ele>
        <time>2022-07-18T04:05:09Z</time>
      </trkpt>
      <trkpt lat="44.84527" lon="6.72445">
        <ele>1779.8</ele>
        <time>2022-07-18T04:05:10Z</time>
      </trkpt>
      <trkpt lat="44.84529" lon="6.72446">
        <ele>1779.8</ele>
        <time>2022-07-18T04:05:11Z</time>
      </trkpt>
      <trkpt lat="44.84532" lon="6.72447">
        <ele>1779.8</ele>
        <time>2022-07-18T04:05:12Z</time>
      </trkpt>
      <trkpt lat="44.84534" lon="6.72446">
        <ele>1779.8</ele>
        <time>2022-07-18T04:05:13Z</time>
      </trkpt>
      <trkpt lat="44.84537" lon="6.72446">
        <ele>1779.8</ele>
        <time>2022-07-18T04:05:14Z</time>
      </trkpt>
      <trkpt lat="44.84539" lon="6.72444">
        <ele>1780.2</ele>
        <time>2022-07-18T04:05:15Z</time>
      </trkpt>
      <trkpt lat="44.84541" lon="6.72442">
        <ele>1780.2</ele>
        <time>2022-07-18T04:05:16Z</time>
      </trkpt>
      <trkpt lat="44.84542" lon="6.72439">
        <ele>1780.4</ele>
        <time>2022-07-18T04:05:17Z</time>
      </trkpt>
      <trkpt lat="44.84543" lon="6.72436">
        <ele>1780.4</ele>
        <time>2022-07-18T04:05:18Z</time>
      </trkpt>
      <trkpt lat="44.84544" lon="6.72433">
        <ele>1780.6</ele>
        <time>2022-07-18T04:05:19Z</time>
      </trkpt>
      <trkpt lat="44.84544" lon="6.7243">
        <ele>1780.6</ele>
        <time>2022-07-18T04:05:20Z</time>
      </trkpt>
      <trkpt lat="44.84544" lon="6.72427">
        <ele>1781</ele>
        <time>2022-07-18T04:05:21Z</time>
      </trkpt>
      <trkpt lat="44.84543" lon="6.72423">
        <ele>1781</ele>
        <time>2022-07-18T04:05:22Z</time>
      </trkpt>
      <trkpt lat="44.84542" lon="6.7242">
        <ele>1781.4</ele>
        <time>2022-07-18T04:05:23Z</time>
      </trkpt>
      <trkpt lat="44.84541" lon="6.72417">
        <ele>1781.4</ele>
        <time>2022-07-18T04:05:24Z</time>
      </trkpt>
      <trkpt lat="44.84539" lon="6.72415">
        <ele>1781.6</ele>
        <time>2022-07-18T04:05:25Z</time>
      </trkpt>
      <trkpt lat="44.84537" lon="6.72413">
        <ele>1781.6</ele>
        <time>2022-07-18T04:05:26Z</time>
      </trkpt>
      <trkpt lat="44.84535" lon="6.72412">
        <ele>1782</ele>
        <time>2022-07-18T04:05:27Z</time>
      </trkpt>
      <trkpt lat="44.84533" lon="6.72412">
        <ele>1782</ele>
        <time>2022-07-18T04:05:28Z</time>
      </trkpt>
      <trkpt lat="44.8453" lon="6.72411">
        <ele>1782</ele>
        <time>2022-07-18T04:05:29Z</time>
      </trkpt>
      <trkpt lat="44.84527" lon="6.72411">
        <ele>1782.4</ele>
        <time>2022-07-18T04:05:30Z</time>
      </trkpt>
      <trkpt lat="44.84525" lon="6.72411">
        <ele>1782.4</ele>
        <time>2022-07-18T04:05:31Z</time>
      </trkpt>
      <trkpt lat="44.84522" lon="6.72411">
        <ele>1782.6</ele>
        <time>2022-07-18T04:05:32Z</time>
      </trkpt>
      <trkpt lat="44.8452" lon="6.7241">
        <ele>1782.6</ele>
        <time>2022-07-18T04:05:33Z</time>
      </trkpt>
      <trkpt lat="44.84517" lon="6.7241">
        <ele>1782.8</ele>
        <time>2022-07-18T04:05:34Z</time>
      </trkpt>
      <trkpt lat="44.84515" lon="6.72409">
        <ele>1782.8</ele>
        <time>2022-07-18T04:05:35Z</time>
      </trkpt>
      <trkpt lat="44.84512" lon="6.72408">
        <ele>1783.2</ele>
        <time>2022-07-18T04:05:36Z</time>
      </trkpt>
      <trkpt lat="44.8451" lon="6.72407">
        <ele>1783.4</ele>
        <time>2022-07-18T04:05:37Z</time>
      </trkpt>
      <trkpt lat="44.84508" lon="6.72407">
        <ele>1783.6</ele>
        <time>2022-07-18T04:05:38Z</time>
      </trkpt>
      <trkpt lat="44.84506" lon="6.72406">
        <ele>1783.6</ele>
        <time>2022-07-18T04:05:39Z</time>
      </trkpt>
      <trkpt lat="44.84504" lon="6.72405">
        <ele>1784</ele>
        <time>2022-07-18T04:05:40Z</time>
      </trkpt>
      <trkpt lat="44.84502" lon="6.72404">
        <ele>1784</ele>
        <time>2022-07-18T04:05:41Z</time>
      </trkpt>
      <trkpt lat="44.845" lon="6.72403">
        <ele>1784.4</ele>
        <time>2022-07-18T04:05:42Z</time>
      </trkpt>
      <trkpt lat="44.84498" lon="6.72402">
        <ele>1784.4</ele>
        <time>2022-07-18T04:05:43Z</time>
      </trkpt>
      <trkpt lat="44.84494" lon="6.72399">
        <ele>1784.8</ele>
        <time>2022-07-18T04:05:44Z</time>
      </trkpt>
      <trkpt lat="44.84492" lon="6.72398">
        <ele>1784.8</ele>
        <time>2022-07-18T04:05:45Z</time>
      </trkpt>
      <trkpt lat="44.8449" lon="6.72396">
        <ele>1785</ele>
        <time>2022-07-18T04:05:46Z</time>
      </trkpt>
      <trkpt lat="44.84488" lon="6.72395">
        <ele>1785</ele>
        <time>2022-07-18T04:05:47Z</time>
      </trkpt>
      <trkpt lat="44.84487" lon="6.72393">
        <ele>1785.4</ele>
        <time>2022-07-18T04:05:48Z</time>
      </trkpt>
      <trkpt lat="44.84485" lon="6.72392">
        <ele>1785.4</ele>
        <time>2022-07-18T04:05:49Z</time>
      </trkpt>
      <trkpt lat="44.84483" lon="6.7239">
        <ele>1785.8</ele>
        <time>2022-07-18T04:05:50Z</time>
      </trkpt>
      <trkpt lat="44.84481" lon="6.72389">
        <ele>1786</ele>
        <time>2022-07-18T04:05:51Z</time>
      </trkpt>
      <trkpt lat="44.84479" lon="6.72388">
        <ele>1786</ele>
        <time>2022-07-18T04:05:52Z</time>
      </trkpt>
      <trkpt lat="44.84478" lon="6.72386">
        <ele>1786.4</ele>
        <time>2022-07-18T04:05:53Z</time>
      </trkpt>
      <trkpt lat="44.84476" lon="6.72384">
        <ele>1786.4</ele>
        <time>2022-07-18T04:05:54Z</time>
      </trkpt>
      <trkpt lat="44.84475" lon="6.72383">
        <ele>1786.8</ele>
        <time>2022-07-18T04:05:55Z</time>
      </trkpt>
      <trkpt lat="44.84473" lon="6.72381">
        <ele>1786.8</ele>
        <time>2022-07-18T04:05:56Z</time>
      </trkpt>
      <trkpt lat="44.84472" lon="6.7238">
        <ele>1787.2</ele>
        <time>2022-07-18T04:05:57Z</time>
      </trkpt>
      <trkpt lat="44.8447" lon="6.72378">
        <ele>1787.2</ele>
        <time>2022-07-18T04:05:58Z</time>
      </trkpt>
      <trkpt lat="44.84469" lon="6.72376">
        <ele>1787.6</ele>
        <time>2022-07-18T04:05:59Z</time>
      </trkpt>
      <trkpt lat="44.84467" lon="6.72374">
        <ele>1787.8</ele>
        <time>2022-07-18T04:06:00Z</time>
      </trkpt>
      <trkpt lat="44.84466" lon="6.72373">
        <ele>1788</ele>
        <time>2022-07-18T04:06:01Z</time>
      </trkpt>
      <trkpt lat="44.84464" lon="6.72372">
        <ele>1788</ele>
        <time>2022-07-18T04:06:02Z</time>
      </trkpt>
      <trkpt lat="44.84462" lon="6.7237">
        <ele>1788.2</ele>
        <time>2022-07-18T04:06:03Z</time>
      </trkpt>
      <trkpt lat="44.8446" lon="6.72369">
        <ele>1788.6</ele>
        <time>2022-07-18T04:06:04Z</time>
      </trkpt>
      <trkpt lat="44.84458" lon="6.72368">
        <ele>1788.8</ele>
        <time>2022-07-18T04:06:05Z</time>
      </trkpt>
      <trkpt lat="44.84455" lon="6.72367">
        <ele>1789.2</ele>
        <time>2022-07-18T04:06:06Z</time>
      </trkpt>
      <trkpt lat="44.84453" lon="6.72366">
        <ele>1789.4</ele>
        <time>2022-07-18T04:06:07Z</time>
      </trkpt>
      <trkpt lat="44.84451" lon="6.72365">
        <ele>1789.6</ele>
        <time>2022-07-18T04:06:08Z</time>
      </trkpt>
      <trkpt lat="44.84448" lon="6.72364">
        <ele>1790</ele>
        <time>2022-07-18T04:06:09Z</time>
      </trkpt>
      <trkpt lat="44.84446" lon="6.72363">
        <ele>1790.2</ele>
        <time>2022-07-18T04:06:10Z</time>
      </trkpt>
      <trkpt lat="44.84444" lon="6.72362">
        <ele>1790.4</ele>
        <time>2022-07-18T04:06:11Z</time>
      </trkpt>
      <trkpt lat="44.84442" lon="6.72361">
        <ele>1790.6</ele>
        <time>2022-07-18T04:06:12Z</time>
      </trkpt>
      <trkpt lat="44.8444" lon="6.72361">
        <ele>1790.8</ele>
        <time>2022-07-18T04:06:13Z</time>
      </trkpt>
      <trkpt lat="44.84438" lon="6.7236">
        <ele>1790.8</ele>
        <time>2022-07-18T04:06:14Z</time>
      </trkpt>
      <trkpt lat="44.84436" lon="6.72359">
        <ele>1791.2</ele>
        <time>2022-07-18T04:06:15Z</time>
      </trkpt>
      <trkpt lat="44.84433" lon="6.72359">
        <ele>1791.2</ele>
        <time>2022-07-18T04:06:16Z</time>
      </trkpt>
      <trkpt lat="44.84431" lon="6.72358">
        <ele>1791.6</ele>
        <time>2022-07-18T04:06:17Z</time>
      </trkpt>
      <trkpt lat="44.84429" lon="6.72358">
        <ele>1791.6</ele>
        <time>2022-07-18T04:06:18Z</time>
      </trkpt>
      <trkpt lat="44.84427" lon="6.72357">
        <ele>1792</ele>
        <time>2022-07-18T04:06:19Z</time>
      </trkpt>
      <trkpt lat="44.84425" lon="6.72357">
        <ele>1792</ele>
        <time>2022-07-18T04:06:20Z</time>
      </trkpt>
      <trkpt lat="44.84423" lon="6.72356">
        <ele>1792.4</ele>
        <time>2022-07-18T04:06:21Z</time>
      </trkpt>
      <trkpt lat="44.84422" lon="6.72355">
        <ele>1792.6</ele>
        <time>2022-07-18T04:06:22Z</time>
      </trkpt>
      <trkpt lat="44.8442" lon="6.72355">
        <ele>1792.6</ele>
        <time>2022-07-18T04:06:23Z</time>
      </trkpt>
      <trkpt lat="44.84418" lon="6.72354">
        <ele>1793</ele>
        <time>2022-07-18T04:06:24Z</time>
      </trkpt>
      <trkpt lat="44.84415" lon="6.72354">
        <ele>1793</ele>
        <time>2022-07-18T04:06:25Z</time>
      </trkpt>
      <trkpt lat="44.84413" lon="6.72354">
        <ele>1793.2</ele>
        <time>2022-07-18T04:06:26Z</time>
      </trkpt>
      <trkpt lat="44.84411" lon="6.72354">
        <ele>1793.4</ele>
        <time>2022-07-18T04:06:27Z</time>
      </trkpt>
      <trkpt lat="44.84409" lon="6.72354">
        <ele>1793.4</ele>
        <time>2022-07-18T04:06:28Z</time>
      </trkpt>
      <trkpt lat="44.84407" lon="6.72354">
        <ele>1793.8</ele>
        <time>2022-07-18T04:06:29Z</time>
      </trkpt>
      <trkpt lat="44.84405" lon="6.72354">
        <ele>1794</ele>
        <time>2022-07-18T04:06:30Z</time>
      </trkpt>
      <trkpt lat="44.84403" lon="6.72354">
        <ele>1794</ele>
        <time>2022-07-18T04:06:31Z</time>
      </trkpt>
      <trkpt lat="44.84402" lon="6.72354">
        <ele>1794.4</ele>
        <time>2022-07-18T04:06:32Z</time>
      </trkpt>
      <trkpt lat="44.844" lon="6.72353">
        <ele>1794.4</ele>
        <time>2022-07-18T04:06:33Z</time>
      </trkpt>
      <trkpt lat="44.84398" lon="6.72353">
        <ele>1794.6</ele>
        <time>2022-07-18T04:06:34Z</time>
      </trkpt>
      <trkpt lat="44.84396" lon="6.72353">
        <ele>1795</ele>
        <time>2022-07-18T04:06:35Z</time>
      </trkpt>
      <trkpt lat="44.84394" lon="6.72352">
        <ele>1795</ele>
        <time>2022-07-18T04:06:36Z</time>
      </trkpt>
      <trkpt lat="44.84392" lon="6.72352">
        <ele>1795.4</ele>
        <time>2022-07-18T04:06:37Z</time>
      </trkpt>
      <trkpt lat="44.8439" lon="6.72352">
        <ele>1795.6</ele>
        <time>2022-07-18T04:06:38Z</time>
      </trkpt>
      <trkpt lat="44.84388" lon="6.72353">
        <ele>1795.8</ele>
        <time>2022-07-18T04:06:39Z</time>
      </trkpt>
      <trkpt lat="44.84386" lon="6.72353">
        <ele>1796</ele>
        <time>2022-07-18T04:06:40Z</time>
      </trkpt>
      <trkpt lat="44.84384" lon="6.72353">
        <ele>1796.2</ele>
        <time>2022-07-18T04:06:41Z</time>
      </trkpt>
      <trkpt lat="44.84382" lon="6.72353">
        <ele>1796.2</ele>
        <time>2022-07-18T04:06:42Z</time>
      </trkpt>
      <trkpt lat="44.8438" lon="6.72353">
        <ele>1796.8</ele>
        <time>2022-07-18T04:06:43Z</time>
      </trkpt>
      <trkpt lat="44.84378" lon="6.72353">
        <ele>1796.8</ele>
        <time>2022-07-18T04:06:44Z</time>
      </trkpt>
      <trkpt lat="44.84375" lon="6.72352">
        <ele>1797</ele>
        <time>2022-07-18T04:06:45Z</time>
      </trkpt>
      <trkpt lat="44.84373" lon="6.72353">
        <ele>1797</ele>
        <time>2022-07-18T04:06:46Z</time>
      </trkpt>
      <trkpt lat="44.84371" lon="6.72353">
        <ele>1797.4</ele>
        <time>2022-07-18T04:06:47Z</time>
      </trkpt>
      <trkpt lat="44.84369" lon="6.72353">
        <ele>1797.6</ele>
        <time>2022-07-18T04:06:48Z</time>
      </trkpt>
      <trkpt lat="44.84367" lon="6.72353">
        <ele>1797.8</ele>
        <time>2022-07-18T04:06:49Z</time>
      </trkpt>
      <trkpt lat="44.84365" lon="6.72353">
        <ele>1798.2</ele>
        <time>2022-07-18T04:06:50Z</time>
      </trkpt>
      <trkpt lat="44.84363" lon="6.72353">
        <ele>1798.2</ele>
        <time>2022-07-18T04:06:51Z</time>
      </trkpt>
      <trkpt lat="44.84361" lon="6.72353">
        <ele>1798.4</ele>
        <time>2022-07-18T04:06:52Z</time>
      </trkpt>
      <trkpt lat="44.84359" lon="6.72354">
        <ele>1798.4</ele>
        <time>2022-07-18T04:06:53Z</time>
      </trkpt>
      <trkpt lat="44.84358" lon="6.72354">
        <ele>1798.8</ele>
        <time>2022-07-18T04:06:54Z</time>
      </trkpt>
      <trkpt lat="44.84356" lon="6.72354">
        <ele>1798.8</ele>
        <time>2022-07-18T04:06:55Z</time>
      </trkpt>
      <trkpt lat="44.84353" lon="6.72355">
        <ele>1799.2</ele>
        <time>2022-07-18T04:06:56Z</time>
      </trkpt>
      <trkpt lat="44.84351" lon="6.72355">
        <ele>1799.2</ele>
        <time>2022-07-18T04:06:57Z</time>
      </trkpt>
      <trkpt lat="44.84349" lon="6.72355">
        <ele>1799.4</ele>
        <time>2022-07-18T04:06:58Z</time>
      </trkpt>
      <trkpt lat="44.84347" lon="6.72356">
        <ele>1799.4</ele>
        <time>2022-07-18T04:06:59Z</time>
      </trkpt>
      <trkpt lat="44.84345" lon="6.72356">
        <ele>1799.8</ele>
        <time>2022-07-18T04:07:00Z</time>
      </trkpt>
      <trkpt lat="44.84343" lon="6.72357">
        <ele>1799.8</ele>
        <time>2022-07-18T04:07:01Z</time>
      </trkpt>
      <trkpt lat="44.84341" lon="6.72357">
        <ele>1800</ele>
        <time>2022-07-18T04:07:02Z</time>
      </trkpt>
      <trkpt lat="44.84339" lon="6.72357">
        <ele>1800</ele>
        <time>2022-07-18T04:07:03Z</time>
      </trkpt>
      <trkpt lat="44.84337" lon="6.72357">
        <ele>1800.4</ele>
        <time>2022-07-18T04:07:04Z</time>
      </trkpt>
      <trkpt lat="44.84335" lon="6.72357">
        <ele>1800.6</ele>
        <time>2022-07-18T04:07:05Z</time>
      </trkpt>
      <trkpt lat="44.84333" lon="6.72358">
        <ele>1800.8</ele>
        <time>2022-07-18T04:07:06Z</time>
      </trkpt>
      <trkpt lat="44.84331" lon="6.72358">
        <ele>1800.8</ele>
        <time>2022-07-18T04:07:07Z</time>
      </trkpt>
      <trkpt lat="44.84329" lon="6.72358">
        <ele>1801.2</ele>
        <time>2022-07-18T04:07:08Z</time>
      </trkpt>
      <trkpt lat="44.84327" lon="6.72358">
        <ele>1801.2</ele>
        <time>2022-07-18T04:07:09Z</time>
      </trkpt>
      <trkpt lat="44.84325" lon="6.72358">
        <ele>1801.6</ele>
        <time>2022-07-18T04:07:10Z</time>
      </trkpt>
      <trkpt lat="44.84323" lon="6.72358">
        <ele>1801.6</ele>
        <time>2022-07-18T04:07:11Z</time>
      </trkpt>
      <trkpt lat="44.8432" lon="6.72358">
        <ele>1802.2</ele>
        <time>2022-07-18T04:07:12Z</time>
      </trkpt>
      <trkpt lat="44.84318" lon="6.72358">
        <ele>1802.4</ele>
        <time>2022-07-18T04:07:13Z</time>
      </trkpt>
      <trkpt lat="44.84316" lon="6.72357">
        <ele>1802.6</ele>
        <time>2022-07-18T04:07:14Z</time>
      </trkpt>
      <trkpt lat="44.84314" lon="6.72357">
        <ele>1803</ele>
        <time>2022-07-18T04:07:15Z</time>
      </trkpt>
      <trkpt lat="44.84312" lon="6.72357">
        <ele>1803.2</ele>
        <time>2022-07-18T04:07:16Z</time>
      </trkpt>
      <trkpt lat="44.8431" lon="6.72357">
        <ele>1803.2</ele>
        <time>2022-07-18T04:07:17Z</time>
      </trkpt>
      <trkpt lat="44.84309" lon="6.72357">
        <ele>1803.6</ele>
        <time>2022-07-18T04:07:18Z</time>
      </trkpt>
      <trkpt lat="44.84307" lon="6.72356">
        <ele>1804</ele>
        <time>2022-07-18T04:07:19Z</time>
      </trkpt>
      <trkpt lat="44.84305" lon="6.72356">
        <ele>1804.2</ele>
        <time>2022-07-18T04:07:20Z</time>
      </trkpt>
      <trkpt lat="44.84303" lon="6.72355">
        <ele>1804.4</ele>
        <time>2022-07-18T04:07:21Z</time>
      </trkpt>
      <trkpt lat="44.84301" lon="6.72355">
        <ele>1804.4</ele>
        <time>2022-07-18T04:07:22Z</time>
      </trkpt>
      <trkpt lat="44.84299" lon="6.72355">
        <ele>1804.8</ele>
        <time>2022-07-18T04:07:23Z</time>
      </trkpt>
      <trkpt lat="44.84298" lon="6.72354">
        <ele>1805</ele>
        <time>2022-07-18T04:07:24Z</time>
      </trkpt>
      <trkpt lat="44.84296" lon="6.72353">
        <ele>1805</ele>
        <time>2022-07-18T04:07:25Z</time>
      </trkpt>
      <trkpt lat="44.84295" lon="6.72353">
        <ele>1805.2</ele>
        <time>2022-07-18T04:07:26Z</time>
      </trkpt>
      <trkpt lat="44.84293" lon="6.72352">
        <ele>1805.2</ele>
        <time>2022-07-18T04:07:27Z</time>
      </trkpt>
      <trkpt lat="44.84291" lon="6.72352">
        <ele>1805.6</ele>
        <time>2022-07-18T04:07:28Z</time>
      </trkpt>
      <trkpt lat="44.84289" lon="6.72352">
        <ele>1805.6</ele>
        <time>2022-07-18T04:07:29Z</time>
      </trkpt>
      <trkpt lat="44.84287" lon="6.72351">
        <ele>1805.8</ele>
        <time>2022-07-18T04:07:30Z</time>
      </trkpt>
      <trkpt lat="44.84285" lon="6.72351">
        <ele>1805.8</ele>
        <time>2022-07-18T04:07:31Z</time>
      </trkpt>
      <trkpt lat="44.84283" lon="6.72351">
        <ele>1806.2</ele>
        <time>2022-07-18T04:07:32Z</time>
      </trkpt>
      <trkpt lat="44.84281" lon="6.72351">
        <ele>1806.2</ele>
        <time>2022-07-18T04:07:33Z</time>
      </trkpt>
      <trkpt lat="44.84279" lon="6.72351">
        <ele>1806.6</ele>
        <time>2022-07-18T04:07:34Z</time>
      </trkpt>
      <trkpt lat="44.84276" lon="6.7235">
        <ele>1806.8</ele>
        <time>2022-07-18T04:07:35Z</time>
      </trkpt>
      <trkpt lat="44.84274" lon="6.72351">
        <ele>1806.8</ele>
        <time>2022-07-18T04:07:36Z</time>
      </trkpt>
      <trkpt lat="44.84272" lon="6.72351">
        <ele>1807.2</ele>
        <time>2022-07-18T04:07:37Z</time>
      </trkpt>
      <trkpt lat="44.8427" lon="6.72352">
        <ele>1807.4</ele>
        <time>2022-07-18T04:07:38Z</time>
      </trkpt>
      <trkpt lat="44.84268" lon="6.72352">
        <ele>1807.4</ele>
        <time>2022-07-18T04:07:39Z</time>
      </trkpt>
      <trkpt lat="44.84266" lon="6.72352">
        <ele>1807.8</ele>
        <time>2022-07-18T04:07:40Z</time>
      </trkpt>
      <trkpt lat="44.84264" lon="6.72352">
        <ele>1807.8</ele>
        <time>2022-07-18T04:07:41Z</time>
      </trkpt>
      <trkpt lat="44.84262" lon="6.72353">
        <ele>1808.2</ele>
        <time>2022-07-18T04:07:42Z</time>
      </trkpt>
      <trkpt lat="44.8426" lon="6.72353">
        <ele>1808.2</ele>
        <time>2022-07-18T04:07:43Z</time>
      </trkpt>
      <trkpt lat="44.84258" lon="6.72354">
        <ele>1808.6</ele>
        <time>2022-07-18T04:07:44Z</time>
      </trkpt>
      <trkpt lat="44.84256" lon="6.72354">
        <ele>1808.6</ele>
        <time>2022-07-18T04:07:45Z</time>
      </trkpt>
      <trkpt lat="44.84254" lon="6.72354">
        <ele>1809</ele>
        <time>2022-07-18T04:07:46Z</time>
      </trkpt>
      <trkpt lat="44.84252" lon="6.72355">
        <ele>1809</ele>
        <time>2022-07-18T04:07:47Z</time>
      </trkpt>
      <trkpt lat="44.8425" lon="6.72355">
        <ele>1809.2</ele>
        <time>2022-07-18T04:07:48Z</time>
      </trkpt>
      <trkpt lat="44.84248" lon="6.72355">
        <ele>1809.2</ele>
        <time>2022-07-18T04:07:49Z</time>
      </trkpt>
      <trkpt lat="44.84246" lon="6.72356">
        <ele>1809.2</ele>
        <time>2022-07-18T04:07:50Z</time>
      </trkpt>
      <trkpt lat="44.84244" lon="6.72356">
        <ele>1809.8</ele>
        <time>2022-07-18T04:07:51Z</time>
      </trkpt>
      <trkpt lat="44.84242" lon="6.72357">
        <ele>1810</ele>
        <time>2022-07-18T04:07:52Z</time>
      </trkpt>
      <trkpt lat="44.8424" lon="6.72357">
        <ele>1810</ele>
        <time>2022-07-18T04:07:53Z</time>
      </trkpt>
      <trkpt lat="44.84238" lon="6.72358">
        <ele>1810.4</ele>
        <time>2022-07-18T04:07:54Z</time>
      </trkpt>
      <trkpt lat="44.84236" lon="6.72359">
        <ele>1810.4</ele>
        <time>2022-07-18T04:07:55Z</time>
      </trkpt>
      <trkpt lat="44.84234" lon="6.72359">
        <ele>1810.8</ele>
        <time>2022-07-18T04:07:56Z</time>
      </trkpt>
      <trkpt lat="44.84233" lon="6.7236">
        <ele>1811</ele>
        <time>2022-07-18T04:07:57Z</time>
      </trkpt>
      <trkpt lat="44.84231" lon="6.7236">
        <ele>1811</ele>
        <time>2022-07-18T04:07:58Z</time>
      </trkpt>
      <trkpt lat="44.84229" lon="6.7236">
        <ele>1811.4</ele>
        <time>2022-07-18T04:07:59Z</time>
      </trkpt>
      <trkpt lat="44.84227" lon="6.7236">
        <ele>1811.6</ele>
        <time>2022-07-18T04:08:00Z</time>
      </trkpt>
      <trkpt lat="44.84225" lon="6.7236">
        <ele>1811.8</ele>
        <time>2022-07-18T04:08:01Z</time>
      </trkpt>
      <trkpt lat="44.84223" lon="6.7236">
        <ele>1811.8</ele>
        <time>2022-07-18T04:08:02Z</time>
      </trkpt>
      <trkpt lat="44.84221" lon="6.7236">
        <ele>1812.2</ele>
        <time>2022-07-18T04:08:03Z</time>
      </trkpt>
      <trkpt lat="44.8422" lon="6.7236">
        <ele>1812.2</ele>
        <time>2022-07-18T04:08:04Z</time>
      </trkpt>
      <trkpt lat="44.84218" lon="6.72361">
        <ele>1812.6</ele>
        <time>2022-07-18T04:08:05Z</time>
      </trkpt>
      <trkpt lat="44.84216" lon="6.7236">
        <ele>1812.8</ele>
        <time>2022-07-18T04:08:06Z</time>
      </trkpt>
      <trkpt lat="44.84214" lon="6.7236">
        <ele>1812.8</ele>
        <time>2022-07-18T04:08:07Z</time>
      </trkpt>
      <trkpt lat="44.84212" lon="6.7236">
        <ele>1813.2</ele>
        <time>2022-07-18T04:08:08Z</time>
      </trkpt>
      <trkpt lat="44.8421" lon="6.72359">
        <ele>1813.2</ele>
        <time>2022-07-18T04:08:09Z</time>
      </trkpt>
      <trkpt lat="44.84209" lon="6.72359">
        <ele>1813.6</ele>
        <time>2022-07-18T04:08:10Z</time>
      </trkpt>
      <trkpt lat="44.84207" lon="6.72359">
        <ele>1813.6</ele>
        <time>2022-07-18T04:08:11Z</time>
      </trkpt>
      <trkpt lat="44.84205" lon="6.72358">
        <ele>1813.8</ele>
        <time>2022-07-18T04:08:12Z</time>
      </trkpt>
      <trkpt lat="44.84203" lon="6.72357">
        <ele>1814</ele>
        <time>2022-07-18T04:08:13Z</time>
      </trkpt>
      <trkpt lat="44.84201" lon="6.72357">
        <ele>1814</ele>
        <time>2022-07-18T04:08:14Z</time>
      </trkpt>
      <trkpt lat="44.842" lon="6.72357">
        <ele>1814.4</ele>
        <time>2022-07-18T04:08:15Z</time>
      </trkpt>
      <trkpt lat="44.84198" lon="6.72356">
        <ele>1814.4</ele>
        <time>2022-07-18T04:08:16Z</time>
      </trkpt>
      <trkpt lat="44.84196" lon="6.72356">
        <ele>1814.6</ele>
        <time>2022-07-18T04:08:17Z</time>
      </trkpt>
      <trkpt lat="44.84194" lon="6.72355">
        <ele>1814.6</ele>
        <time>2022-07-18T04:08:18Z</time>
      </trkpt>
      <trkpt lat="44.84192" lon="6.72356">
        <ele>1815</ele>
        <time>2022-07-18T04:08:19Z</time>
      </trkpt>
      <trkpt lat="44.84191" lon="6.72355">
        <ele>1815</ele>
        <time>2022-07-18T04:08:20Z</time>
      </trkpt>
      <trkpt lat="44.84189" lon="6.72355">
        <ele>1815.4</ele>
        <time>2022-07-18T04:08:21Z</time>
      </trkpt>
      <trkpt lat="44.84187" lon="6.72355">
        <ele>1815.6</ele>
        <time>2022-07-18T04:08:22Z</time>
      </trkpt>
      <trkpt lat="44.84185" lon="6.72355">
        <ele>1815.6</ele>
        <time>2022-07-18T04:08:23Z</time>
      </trkpt>
      <trkpt lat="44.84183" lon="6.72355">
        <ele>1815.8</ele>
        <time>2022-07-18T04:08:24Z</time>
      </trkpt>
      <trkpt lat="44.84182" lon="6.72356">
        <ele>1815.8</ele>
        <time>2022-07-18T04:08:25Z</time>
      </trkpt>
      <trkpt lat="44.8418" lon="6.72356">
        <ele>1816.2</ele>
        <time>2022-07-18T04:08:26Z</time>
      </trkpt>
      <trkpt lat="44.84178" lon="6.72356">
        <ele>1816.4</ele>
        <time>2022-07-18T04:08:27Z</time>
      </trkpt>
      <trkpt lat="44.84176" lon="6.72356">
        <ele>1816.4</ele>
        <time>2022-07-18T04:08:28Z</time>
      </trkpt>
      <trkpt lat="44.84174" lon="6.72356">
        <ele>1816.8</ele>
        <time>2022-07-18T04:08:29Z</time>
      </trkpt>
      <trkpt lat="44.84172" lon="6.72356">
        <ele>1817</ele>
        <time>2022-07-18T04:08:30Z</time>
      </trkpt>
      <trkpt lat="44.84171" lon="6.72357">
        <ele>1817</ele>
        <time>2022-07-18T04:08:31Z</time>
      </trkpt>
      <trkpt lat="44.84169" lon="6.72357">
        <ele>1817.2</ele>
        <time>2022-07-18T04:08:32Z</time>
      </trkpt>
      <trkpt lat="44.84167" lon="6.72357">
        <ele>1817.2</ele>
        <time>2022-07-18T04:08:33Z</time>
      </trkpt>
      <trkpt lat="44.84165" lon="6.72357">
        <ele>1817.6</ele>
        <time>2022-07-18T04:08:34Z</time>
      </trkpt>
      <trkpt lat="44.84163" lon="6.72357">
        <ele>1817.6</ele>
        <time>2022-07-18T04:08:35Z</time>
      </trkpt>
      <trkpt lat="44.84162" lon="6.72357">
        <ele>1817.8</ele>
        <time>2022-07-18T04:08:36Z</time>
      </trkpt>
      <trkpt lat="44.8416" lon="6.72357">
        <ele>1817.8</ele>
        <time>2022-07-18T04:08:37Z</time>
      </trkpt>
      <trkpt lat="44.84158" lon="6.72357">
        <ele>1818.4</ele>
        <time>2022-07-18T04:08:38Z</time>
      </trkpt>
      <trkpt lat="44.84156" lon="6.72357">
        <ele>1818.4</ele>
        <time>2022-07-18T04:08:39Z</time>
      </trkpt>
      <trkpt lat="44.84155" lon="6.72358">
        <ele>1818.6</ele>
        <time>2022-07-18T04:08:40Z</time>
      </trkpt>
      <trkpt lat="44.84153" lon="6.72358">
        <ele>1818.6</ele>
        <time>2022-07-18T04:08:41Z</time>
      </trkpt>
      <trkpt lat="44.84151" lon="6.72358">
        <ele>1819</ele>
        <time>2022-07-18T04:08:42Z</time>
      </trkpt>
      <trkpt lat="44.84149" lon="6.72357">
        <ele>1819</ele>
        <time>2022-07-18T04:08:43Z</time>
      </trkpt>
      <trkpt lat="44.84147" lon="6.72357">
        <ele>1819.4</ele>
        <time>2022-07-18T04:08:44Z</time>
      </trkpt>
      <trkpt lat="44.84145" lon="6.72357">
        <ele>1819.4</ele>
        <time>2022-07-18T04:08:45Z</time>
      </trkpt>
      <trkpt lat="44.84143" lon="6.72357">
        <ele>1819.8</ele>
        <time>2022-07-18T04:08:46Z</time>
      </trkpt>
      <trkpt lat="44.84141" lon="6.72357">
        <ele>1819.8</ele>
        <time>2022-07-18T04:08:47Z</time>
      </trkpt>
      <trkpt lat="44.84139" lon="6.72357">
        <ele>1820</ele>
        <time>2022-07-18T04:08:48Z</time>
      </trkpt>
      <trkpt lat="44.84137" lon="6.72357">
        <ele>1820</ele>
        <time>2022-07-18T04:08:49Z</time>
      </trkpt>
      <trkpt lat="44.84135" lon="6.72357">
        <ele>1820.2</ele>
        <time>2022-07-18T04:08:50Z</time>
      </trkpt>
      <trkpt lat="44.84133" lon="6.72356">
        <ele>1820.6</ele>
        <time>2022-07-18T04:08:51Z</time>
      </trkpt>
      <trkpt lat="44.84131" lon="6.72356">
        <ele>1820.8</ele>
        <time>2022-07-18T04:08:52Z</time>
      </trkpt>
      <trkpt lat="44.84129" lon="6.72356">
        <ele>1821</ele>
        <time>2022-07-18T04:08:53Z</time>
      </trkpt>
      <trkpt lat="44.84127" lon="6.72355">
        <ele>1821</ele>
        <time>2022-07-18T04:08:54Z</time>
      </trkpt>
      <trkpt lat="44.84125" lon="6.72355">
        <ele>1821.4</ele>
        <time>2022-07-18T04:08:55Z</time>
      </trkpt>
      <trkpt lat="44.84123" lon="6.72355">
        <ele>1821.4</ele>
        <time>2022-07-18T04:08:56Z</time>
      </trkpt>
      <trkpt lat="44.84121" lon="6.72354">
        <ele>1821.8</ele>
        <time>2022-07-18T04:08:57Z</time>
      </trkpt>
      <trkpt lat="44.84119" lon="6.72354">
        <ele>1822</ele>
        <time>2022-07-18T04:08:58Z</time>
      </trkpt>
      <trkpt lat="44.84117" lon="6.72354">
        <ele>1822</ele>
        <time>2022-07-18T04:08:59Z</time>
      </trkpt>
      <trkpt lat="44.84115" lon="6.72353">
        <ele>1822.2</ele>
        <time>2022-07-18T04:09:00Z</time>
      </trkpt>
      <trkpt lat="44.84114" lon="6.72353">
        <ele>1822.2</ele>
        <time>2022-07-18T04:09:01Z</time>
      </trkpt>
      <trkpt lat="44.84112" lon="6.72352">
        <ele>1822.6</ele>
        <time>2022-07-18T04:09:02Z</time>
      </trkpt>
      <trkpt lat="44.8411" lon="6.72352">
        <ele>1822.6</ele>
        <time>2022-07-18T04:09:03Z</time>
      </trkpt>
      <trkpt lat="44.84108" lon="6.72351">
        <ele>1823</ele>
        <time>2022-07-18T04:09:04Z</time>
      </trkpt>
      <trkpt lat="44.84106" lon="6.72351">
        <ele>1823.2</ele>
        <time>2022-07-18T04:09:05Z</time>
      </trkpt>
      <trkpt lat="44.84104" lon="6.7235">
        <ele>1823.4</ele>
        <time>2022-07-18T04:09:06Z</time>
      </trkpt>
      <trkpt lat="44.84102" lon="6.7235">
        <ele>1823.6</ele>
        <time>2022-07-18T04:09:07Z</time>
      </trkpt>
      <trkpt lat="44.841" lon="6.72349">
        <ele>1823.8</ele>
        <time>2022-07-18T04:09:08Z</time>
      </trkpt>
      <trkpt lat="44.84099" lon="6.72349">
        <ele>1823.8</ele>
        <time>2022-07-18T04:09:09Z</time>
      </trkpt>
      <trkpt lat="44.84096" lon="6.72349">
        <ele>1824.2</ele>
        <time>2022-07-18T04:09:10Z</time>
      </trkpt>
      <trkpt lat="44.84095" lon="6.72349">
        <ele>1824.4</ele>
        <time>2022-07-18T04:09:11Z</time>
      </trkpt>
      <trkpt lat="44.84093" lon="6.72348">
        <ele>1824.4</ele>
        <time>2022-07-18T04:09:12Z</time>
      </trkpt>
      <trkpt lat="44.84091" lon="6.72348">
        <ele>1824.8</ele>
        <time>2022-07-18T04:09:13Z</time>
      </trkpt>
      <trkpt lat="44.84089" lon="6.72348">
        <ele>1824.8</ele>
        <time>2022-07-18T04:09:14Z</time>
      </trkpt>
      <trkpt lat="44.84087" lon="6.72347">
        <ele>1825</ele>
        <time>2022-07-18T04:09:15Z</time>
      </trkpt>
      <trkpt lat="44.84085" lon="6.72347">
        <ele>1825</ele>
        <time>2022-07-18T04:09:16Z</time>
      </trkpt>
      <trkpt lat="44.84083" lon="6.72346">
        <ele>1825.2</ele>
        <time>2022-07-18T04:09:17Z</time>
      </trkpt>
      <trkpt lat="44.84081" lon="6.72346">
        <ele>1825.4</ele>
        <time>2022-07-18T04:09:18Z</time>
      </trkpt>
      <trkpt lat="44.84079" lon="6.72346">
        <ele>1825.4</ele>
        <time>2022-07-18T04:09:19Z</time>
      </trkpt>
      <trkpt lat="44.84077" lon="6.72345">
        <ele>1825.8</ele>
        <time>2022-07-18T04:09:20Z</time>
      </trkpt>
      <trkpt lat="44.84075" lon="6.72345">
        <ele>1825.8</ele>
        <time>2022-07-18T04:09:21Z</time>
      </trkpt>
      <trkpt lat="44.84073" lon="6.72345">
        <ele>1826.2</ele>
        <time>2022-07-18T04:09:22Z</time>
      </trkpt>
      <trkpt lat="44.84071" lon="6.72345">
        <ele>1826.6</ele>
        <time>2022-07-18T04:09:23Z</time>
      </trkpt>
      <trkpt lat="44.84069" lon="6.72345">
        <ele>1826.6</ele>
        <time>2022-07-18T04:09:24Z</time>
      </trkpt>
      <trkpt lat="44.84067" lon="6.72344">
        <ele>1826.8</ele>
        <time>2022-07-18T04:09:25Z</time>
      </trkpt>
      <trkpt lat="44.84065" lon="6.72344">
        <ele>1827</ele>
        <time>2022-07-18T04:09:26Z</time>
      </trkpt>
      <trkpt lat="44.84064" lon="6.72343">
        <ele>1827</ele>
        <time>2022-07-18T04:09:27Z</time>
      </trkpt>
      <trkpt lat="44.84062" lon="6.72343">
        <ele>1827.4</ele>
        <time>2022-07-18T04:09:28Z</time>
      </trkpt>
      <trkpt lat="44.8406" lon="6.72343">
        <ele>1827.4</ele>
        <time>2022-07-18T04:09:29Z</time>
      </trkpt>
      <trkpt lat="44.84058" lon="6.72342">
        <ele>1827.8</ele>
        <time>2022-07-18T04:09:30Z</time>
      </trkpt>
      <trkpt lat="44.84056" lon="6.72342">
        <ele>1828</ele>
        <time>2022-07-18T04:09:31Z</time>
      </trkpt>
      <trkpt lat="44.84054" lon="6.72342">
        <ele>1828.2</ele>
        <time>2022-07-18T04:09:32Z</time>
      </trkpt>
      <trkpt lat="44.84052" lon="6.72341">
        <ele>1828.6</ele>
        <time>2022-07-18T04:09:33Z</time>
      </trkpt>
      <trkpt lat="44.8405" lon="6.72341">
        <ele>1828.6</ele>
        <time>2022-07-18T04:09:34Z</time>
      </trkpt>
      <trkpt lat="44.84048" lon="6.72341">
        <ele>1828.8</ele>
        <time>2022-07-18T04:09:35Z</time>
      </trkpt>
      <trkpt lat="44.84046" lon="6.7234">
        <ele>1828.8</ele>
        <time>2022-07-18T04:09:36Z</time>
      </trkpt>
      <trkpt lat="44.84044" lon="6.7234">
        <ele>1829.2</ele>
        <time>2022-07-18T04:09:37Z</time>
      </trkpt>
      <trkpt lat="44.84042" lon="6.7234">
        <ele>1829.2</ele>
        <time>2022-07-18T04:09:38Z</time>
      </trkpt>
      <trkpt lat="44.8404" lon="6.72339">
        <ele>1829.4</ele>
        <time>2022-07-18T04:09:39Z</time>
      </trkpt>
      <trkpt lat="44.84038" lon="6.72339">
        <ele>1829.4</ele>
        <time>2022-07-18T04:09:40Z</time>
      </trkpt>
      <trkpt lat="44.84036" lon="6.72338">
        <ele>1829.8</ele>
        <time>2022-07-18T04:09:41Z</time>
      </trkpt>
      <trkpt lat="44.84034" lon="6.72338">
        <ele>1830.2</ele>
        <time>2022-07-18T04:09:42Z</time>
      </trkpt>
      <trkpt lat="44.84032" lon="6.72337">
        <ele>1830.2</ele>
        <time>2022-07-18T04:09:43Z</time>
      </trkpt>
      <trkpt lat="44.8403" lon="6.72337">
        <ele>1830.4</ele>
        <time>2022-07-18T04:09:44Z</time>
      </trkpt>
      <trkpt lat="44.84028" lon="6.72336">
        <ele>1830.4</ele>
        <time>2022-07-18T04:09:45Z</time>
      </trkpt>
      <trkpt lat="44.84026" lon="6.72336">
        <ele>1830.8</ele>
        <time>2022-07-18T04:09:46Z</time>
      </trkpt>
      <trkpt lat="44.84024" lon="6.72335">
        <ele>1831</ele>
        <time>2022-07-18T04:09:47Z</time>
      </trkpt>
      <trkpt lat="44.84022" lon="6.72335">
        <ele>1831.2</ele>
        <time>2022-07-18T04:09:48Z</time>
      </trkpt>
      <trkpt lat="44.8402" lon="6.72334">
        <ele>1831.4</ele>
        <time>2022-07-18T04:09:49Z</time>
      </trkpt>
      <trkpt lat="44.84018" lon="6.72334">
        <ele>1831.4</ele>
        <time>2022-07-18T04:09:50Z</time>
      </trkpt>
      <trkpt lat="44.84016" lon="6.72334">
        <ele>1831.8</ele>
        <time>2022-07-18T04:09:51Z</time>
      </trkpt>
      <trkpt lat="44.84014" lon="6.72333">
        <ele>1831.8</ele>
        <time>2022-07-18T04:09:52Z</time>
      </trkpt>
      <trkpt lat="44.84012" lon="6.72333">
        <ele>1832.2</ele>
        <time>2022-07-18T04:09:53Z</time>
      </trkpt>
      <trkpt lat="44.8401" lon="6.72333">
        <ele>1832.2</ele>
        <time>2022-07-18T04:09:54Z</time>
      </trkpt>
      <trkpt lat="44.84008" lon="6.72333">
        <ele>1832.6</ele>
        <time>2022-07-18T04:09:55Z</time>
      </trkpt>
      <trkpt lat="44.84006" lon="6.72333">
        <ele>1832.6</ele>
        <time>2022-07-18T04:09:56Z</time>
      </trkpt>
      <trkpt lat="44.84004" lon="6.72332">
        <ele>1833</ele>
        <time>2022-07-18T04:09:57Z</time>
      </trkpt>
      <trkpt lat="44.84002" lon="6.72332">
        <ele>1833.2</ele>
        <time>2022-07-18T04:09:58Z</time>
      </trkpt>
      <trkpt lat="44.84" lon="6.72332">
        <ele>1833.2</ele>
        <time>2022-07-18T04:09:59Z</time>
      </trkpt>
      <trkpt lat="44.83998" lon="6.72332">
        <ele>1833.4</ele>
        <time>2022-07-18T04:10:00Z</time>
      </trkpt>
      <trkpt lat="44.83996" lon="6.72332">
        <ele>1833.4</ele>
        <time>2022-07-18T04:10:01Z</time>
      </trkpt>
      <trkpt lat="44.83995" lon="6.72332">
        <ele>1833.8</ele>
        <time>2022-07-18T04:10:02Z</time>
      </trkpt>
      <trkpt lat="44.83993" lon="6.72332">
        <ele>1833.8</ele>
        <time>2022-07-18T04:10:03Z</time>
      </trkpt>
      <trkpt lat="44.83991" lon="6.72332">
        <ele>1834.2</ele>
        <time>2022-07-18T04:10:04Z</time>
      </trkpt>
      <trkpt lat="44.83989" lon="6.72332">
        <ele>1834.4</ele>
        <time>2022-07-18T04:10:05Z</time>
      </trkpt>
      <trkpt lat="44.83987" lon="6.72333">
        <ele>1834.4</ele>
        <time>2022-07-18T04:10:06Z</time>
      </trkpt>
      <trkpt lat="44.83985" lon="6.72333">
        <ele>1834.6</ele>
        <time>2022-07-18T04:10:07Z</time>
      </trkpt>
      <trkpt lat="44.83984" lon="6.72333">
        <ele>1834.6</ele>
        <time>2022-07-18T04:10:08Z</time>
      </trkpt>
      <trkpt lat="44.83982" lon="6.72334">
        <ele>1835</ele>
        <time>2022-07-18T04:10:09Z</time>
      </trkpt>
      <trkpt lat="44.8398" lon="6.72334">
        <ele>1835</ele>
        <time>2022-07-18T04:10:10Z</time>
      </trkpt>
      <trkpt lat="44.83978" lon="6.72334">
        <ele>1835.4</ele>
        <time>2022-07-18T04:10:11Z</time>
      </trkpt>
      <trkpt lat="44.83976" lon="6.72334">
        <ele>1835.4</ele>
        <time>2022-07-18T04:10:12Z</time>
      </trkpt>
      <trkpt lat="44.83975" lon="6.72334">
        <ele>1835.8</ele>
        <time>2022-07-18T04:10:13Z</time>
      </trkpt>
      <trkpt lat="44.83973" lon="6.72335">
        <ele>1836</ele>
        <time>2022-07-18T04:10:14Z</time>
      </trkpt>
      <trkpt lat="44.8397" lon="6.72335">
        <ele>1836</ele>
        <time>2022-07-18T04:10:15Z</time>
      </trkpt>
      <trkpt lat="44.83968" lon="6.72335">
        <ele>1836.2</ele>
        <time>2022-07-18T04:10:16Z</time>
      </trkpt>
      <trkpt lat="44.83966" lon="6.72335">
        <ele>1836.2</ele>
        <time>2022-07-18T04:10:17Z</time>
      </trkpt>
      <trkpt lat="44.83964" lon="6.72334">
        <ele>1836.2</ele>
        <time>2022-07-18T04:10:18Z</time>
      </trkpt>
      <trkpt lat="44.83962" lon="6.72335">
        <ele>1836.6</ele>
        <time>2022-07-18T04:10:19Z</time>
      </trkpt>
      <trkpt lat="44.8396" lon="6.72335">
        <ele>1836.8</ele>
        <time>2022-07-18T04:10:20Z</time>
      </trkpt>
      <trkpt lat="44.83959" lon="6.72335">
        <ele>1836.8</ele>
        <time>2022-07-18T04:10:21Z</time>
      </trkpt>
      <trkpt lat="44.83957" lon="6.72334">
        <ele>1837.2</ele>
        <time>2022-07-18T04:10:22Z</time>
      </trkpt>
      <trkpt lat="44.83955" lon="6.72335">
        <ele>1837.4</ele>
        <time>2022-07-18T04:10:23Z</time>
      </trkpt>
      <trkpt lat="44.83953" lon="6.72334">
        <ele>1837.4</ele>
        <time>2022-07-18T04:10:24Z</time>
      </trkpt>
      <trkpt lat="44.83951" lon="6.72334">
        <ele>1837.8</ele>
        <time>2022-07-18T04:10:25Z</time>
      </trkpt>
      <trkpt lat="44.83949" lon="6.72334">
        <ele>1837.8</ele>
        <time>2022-07-18T04:10:26Z</time>
      </trkpt>
      <trkpt lat="44.83948" lon="6.72334">
        <ele>1838.2</ele>
        <time>2022-07-18T04:10:27Z</time>
      </trkpt>
      <trkpt lat="44.83946" lon="6.72333">
        <ele>1838.2</ele>
        <time>2022-07-18T04:10:28Z</time>
      </trkpt>
      <trkpt lat="44.83944" lon="6.72333">
        <ele>1838.6</ele>
        <time>2022-07-18T04:10:29Z</time>
      </trkpt>
      <trkpt lat="44.83942" lon="6.72333">
        <ele>1838.6</ele>
        <time>2022-07-18T04:10:30Z</time>
      </trkpt>
      <trkpt lat="44.8394" lon="6.72333">
        <ele>1839</ele>
        <time>2022-07-18T04:10:31Z</time>
      </trkpt>
      <trkpt lat="44.83938" lon="6.72332">
        <ele>1839</ele>
        <time>2022-07-18T04:10:32Z</time>
      </trkpt>
      <trkpt lat="44.83936" lon="6.72332">
        <ele>1839.4</ele>
        <time>2022-07-18T04:10:33Z</time>
      </trkpt>
      <trkpt lat="44.83934" lon="6.72332">
        <ele>1839.4</ele>
        <time>2022-07-18T04:10:34Z</time>
      </trkpt>
      <trkpt lat="44.83933" lon="6.72332">
        <ele>1839.6</ele>
        <time>2022-07-18T04:10:35Z</time>
      </trkpt>
      <trkpt lat="44.83931" lon="6.72332">
        <ele>1840</ele>
        <time>2022-07-18T04:10:36Z</time>
      </trkpt>
      <trkpt lat="44.83929" lon="6.72331">
        <ele>1840</ele>
        <time>2022-07-18T04:10:37Z</time>
      </trkpt>
      <trkpt lat="44.83927" lon="6.72332">
        <ele>1840.2</ele>
        <time>2022-07-18T04:10:38Z</time>
      </trkpt>
      <trkpt lat="44.83925" lon="6.72332">
        <ele>1840.2</ele>
        <time>2022-07-18T04:10:39Z</time>
      </trkpt>
      <trkpt lat="44.83923" lon="6.72331">
        <ele>1840.6</ele>
        <time>2022-07-18T04:10:40Z</time>
      </trkpt>
      <trkpt lat="44.83921" lon="6.72331">
        <ele>1840.6</ele>
        <time>2022-07-18T04:10:41Z</time>
      </trkpt>
      <trkpt lat="44.83919" lon="6.72331">
        <ele>1840.8</ele>
        <time>2022-07-18T04:10:42Z</time>
      </trkpt>
      <trkpt lat="44.83917" lon="6.72331">
        <ele>1841</ele>
        <time>2022-07-18T04:10:43Z</time>
      </trkpt>
      <trkpt lat="44.83915" lon="6.72331">
        <ele>1841</ele>
        <time>2022-07-18T04:10:44Z</time>
      </trkpt>
      <trkpt lat="44.83913" lon="6.72331">
        <ele>1841</ele>
        <time>2022-07-18T04:10:45Z</time>
      </trkpt>
      <trkpt lat="44.83911" lon="6.72331">
        <ele>1841.4</ele>
        <time>2022-07-18T04:10:46Z</time>
      </trkpt>
      <trkpt lat="44.83909" lon="6.72331">
        <ele>1841.8</ele>
        <time>2022-07-18T04:10:47Z</time>
      </trkpt>
      <trkpt lat="44.83908" lon="6.7233">
        <ele>1842</ele>
        <time>2022-07-18T04:10:48Z</time>
      </trkpt>
      <trkpt lat="44.83906" lon="6.72331">
        <ele>1842</ele>
        <time>2022-07-18T04:10:49Z</time>
      </trkpt>
      <trkpt lat="44.83904" lon="6.72331">
        <ele>1842.2</ele>
        <time>2022-07-18T04:10:50Z</time>
      </trkpt>
      <trkpt lat="44.83902" lon="6.7233">
        <ele>1842.4</ele>
        <time>2022-07-18T04:10:51Z</time>
      </trkpt>
      <trkpt lat="44.839" lon="6.7233">
        <ele>1842.4</ele>
        <time>2022-07-18T04:10:52Z</time>
      </trkpt>
      <trkpt lat="44.83898" lon="6.7233">
        <ele>1842.8</ele>
        <time>2022-07-18T04:10:53Z</time>
      </trkpt>
      <trkpt lat="44.83896" lon="6.72331">
        <ele>1843</ele>
        <time>2022-07-18T04:10:54Z</time>
      </trkpt>
      <trkpt lat="44.83895" lon="6.72332">
        <ele>1843</ele>
        <time>2022-07-18T04:10:55Z</time>
      </trkpt>
      <trkpt lat="44.83893" lon="6.72331">
        <ele>1843.4</ele>
        <time>2022-07-18T04:10:56Z</time>
      </trkpt>
      <trkpt lat="44.83891" lon="6.72332">
        <ele>1843.4</ele>
        <time>2022-07-18T04:10:57Z</time>
      </trkpt>
      <trkpt lat="44.83889" lon="6.72332">
        <ele>1843.8</ele>
        <time>2022-07-18T04:10:58Z</time>
      </trkpt>
      <trkpt lat="44.83887" lon="6.72332">
        <ele>1843.8</ele>
        <time>2022-07-18T04:10:59Z</time>
      </trkpt>
      <trkpt lat="44.83885" lon="6.72333">
        <ele>1844.2</ele>
        <time>2022-07-18T04:11:00Z</time>
      </trkpt>
      <trkpt lat="44.83883" lon="6.72334">
        <ele>1844.4</ele>
        <time>2022-07-18T04:11:01Z</time>
      </trkpt>
      <trkpt lat="44.83881" lon="6.72334">
        <ele>1844.4</ele>
        <time>2022-07-18T04:11:02Z</time>
      </trkpt>
      <trkpt lat="44.83879" lon="6.72335">
        <ele>1844.6</ele>
        <time>2022-07-18T04:11:03Z</time>
      </trkpt>
      <trkpt lat="44.83877" lon="6.72335">
        <ele>1845</ele>
        <time>2022-07-18T04:11:04Z</time>
      </trkpt>
      <trkpt lat="44.83876" lon="6.72336">
        <ele>1845.2</ele>
        <time>2022-07-18T04:11:05Z</time>
      </trkpt>
      <trkpt lat="44.83874" lon="6.72336">
        <ele>1845.4</ele>
        <time>2022-07-18T04:11:06Z</time>
      </trkpt>
      <trkpt lat="44.83872" lon="6.72337">
        <ele>1845.4</ele>
        <time>2022-07-18T04:11:07Z</time>
      </trkpt>
      <trkpt lat="44.8387" lon="6.72338">
        <ele>1845.8</ele>
        <time>2022-07-18T04:11:08Z</time>
      </trkpt>
      <trkpt lat="44.83868" lon="6.72338">
        <ele>1845.8</ele>
        <time>2022-07-18T04:11:09Z</time>
      </trkpt>
      <trkpt lat="44.83867" lon="6.72339">
        <ele>1846.2</ele>
        <time>2022-07-18T04:11:10Z</time>
      </trkpt>
      <trkpt lat="44.83865" lon="6.7234">
        <ele>1846.2</ele>
        <time>2022-07-18T04:11:11Z</time>
      </trkpt>
      <trkpt lat="44.83864" lon="6.72341">
        <ele>1846.4</ele>
        <time>2022-07-18T04:11:12Z</time>
      </trkpt>
      <trkpt lat="44.83862" lon="6.72341">
        <ele>1846.4</ele>
        <time>2022-07-18T04:11:13Z</time>
      </trkpt>
      <trkpt lat="44.8386" lon="6.72341">
        <ele>1846.8</ele>
        <time>2022-07-18T04:11:14Z</time>
      </trkpt>
      <trkpt lat="44.83858" lon="6.72342">
        <ele>1847</ele>
        <time>2022-07-18T04:11:15Z</time>
      </trkpt>
      <trkpt lat="44.83856" lon="6.72342">
        <ele>1847.2</ele>
        <time>2022-07-18T04:11:16Z</time>
      </trkpt>
      <trkpt lat="44.83854" lon="6.72343">
        <ele>1847.2</ele>
        <time>2022-07-18T04:11:17Z</time>
      </trkpt>
      <trkpt lat="44.83853" lon="6.72343">
        <ele>1847.6</ele>
        <time>2022-07-18T04:11:18Z</time>
      </trkpt>
      <trkpt lat="44.83851" lon="6.72343">
        <ele>1847.6</ele>
        <time>2022-07-18T04:11:19Z</time>
      </trkpt>
      <trkpt lat="44.83849" lon="6.72343">
        <ele>1848</ele>
        <time>2022-07-18T04:11:20Z</time>
      </trkpt>
      <trkpt lat="44.83847" lon="6.72344">
        <ele>1848</ele>
        <time>2022-07-18T04:11:21Z</time>
      </trkpt>
      <trkpt lat="44.83845" lon="6.72344">
        <ele>1848.4</ele>
        <time>2022-07-18T04:11:22Z</time>
      </trkpt>
      <trkpt lat="44.83844" lon="6.72345">
        <ele>1848.4</ele>
        <time>2022-07-18T04:11:23Z</time>
      </trkpt>
      <trkpt lat="44.83842" lon="6.72345">
        <ele>1848.6</ele>
        <time>2022-07-18T04:11:24Z</time>
      </trkpt>
      <trkpt lat="44.8384" lon="6.72344">
        <ele>1848.6</ele>
        <time>2022-07-18T04:11:25Z</time>
      </trkpt>
      <trkpt lat="44.83838" lon="6.72344">
        <ele>1849</ele>
        <time>2022-07-18T04:11:26Z</time>
      </trkpt>
      <trkpt lat="44.83837" lon="6.72344">
        <ele>1849</ele>
        <time>2022-07-18T04:11:27Z</time>
      </trkpt>
      <trkpt lat="44.83835" lon="6.72343">
        <ele>1849.4</ele>
        <time>2022-07-18T04:11:28Z</time>
      </trkpt>
      <trkpt lat="44.83834" lon="6.72342">
        <ele>1849.4</ele>
        <time>2022-07-18T04:11:29Z</time>
      </trkpt>
      <trkpt lat="44.83832" lon="6.72341">
        <ele>1849.6</ele>
        <time>2022-07-18T04:11:30Z</time>
      </trkpt>
      <trkpt lat="44.8383" lon="6.7234">
        <ele>1849.6</ele>
        <time>2022-07-18T04:11:31Z</time>
      </trkpt>
      <trkpt lat="44.83829" lon="6.72339">
        <ele>1850</ele>
        <time>2022-07-18T04:11:32Z</time>
      </trkpt>
      <trkpt lat="44.83827" lon="6.72339">
        <ele>1850.2</ele>
        <time>2022-07-18T04:11:33Z</time>
      </trkpt>
      <trkpt lat="44.83825" lon="6.72338">
        <ele>1850.2</ele>
        <time>2022-07-18T04:11:34Z</time>
      </trkpt>
      <trkpt lat="44.83824" lon="6.72337">
        <ele>1850.6</ele>
        <time>2022-07-18T04:11:35Z</time>
      </trkpt>
      <trkpt lat="44.83822" lon="6.72336">
        <ele>1850.8</ele>
        <time>2022-07-18T04:11:36Z</time>
      </trkpt>
      <trkpt lat="44.8382" lon="6.72335">
        <ele>1850.8</ele>
        <time>2022-07-18T04:11:37Z</time>
      </trkpt>
      <trkpt lat="44.83818" lon="6.72334">
        <ele>1851.2</ele>
        <time>2022-07-18T04:11:38Z</time>
      </trkpt>
      <trkpt lat="44.83817" lon="6.72332">
        <ele>1851.2</ele>
        <time>2022-07-18T04:11:39Z</time>
      </trkpt>
      <trkpt lat="44.83815" lon="6.72331">
        <ele>1851.6</ele>
        <time>2022-07-18T04:11:40Z</time>
      </trkpt>
      <trkpt lat="44.83814" lon="6.72329">
        <ele>1851.8</ele>
        <time>2022-07-18T04:11:41Z</time>
      </trkpt>
      <trkpt lat="44.83812" lon="6.72328">
        <ele>1852</ele>
        <time>2022-07-18T04:11:42Z</time>
      </trkpt>
      <trkpt lat="44.8381" lon="6.72327">
        <ele>1852.2</ele>
        <time>2022-07-18T04:11:43Z</time>
      </trkpt>
      <trkpt lat="44.83809" lon="6.72326">
        <ele>1852.2</ele>
        <time>2022-07-18T04:11:44Z</time>
      </trkpt>
      <trkpt lat="44.83807" lon="6.72324">
        <ele>1852.6</ele>
        <time>2022-07-18T04:11:45Z</time>
      </trkpt>
      <trkpt lat="44.83805" lon="6.72323">
        <ele>1853</ele>
        <time>2022-07-18T04:11:46Z</time>
      </trkpt>
      <trkpt lat="44.83803" lon="6.72322">
        <ele>1853</ele>
        <time>2022-07-18T04:11:47Z</time>
      </trkpt>
      <trkpt lat="44.83801" lon="6.72321">
        <ele>1853.2</ele>
        <time>2022-07-18T04:11:48Z</time>
      </trkpt>
      <trkpt lat="44.83799" lon="6.7232">
        <ele>1853.2</ele>
        <time>2022-07-18T04:11:49Z</time>
      </trkpt>
      <trkpt lat="44.83797" lon="6.72319">
        <ele>1853.6</ele>
        <time>2022-07-18T04:11:50Z</time>
      </trkpt>
      <trkpt lat="44.83796" lon="6.72317">
        <ele>1853.6</ele>
        <time>2022-07-18T04:11:51Z</time>
      </trkpt>
      <trkpt lat="44.83794" lon="6.72317">
        <ele>1853.8</ele>
        <time>2022-07-18T04:11:52Z</time>
      </trkpt>
      <trkpt lat="44.83792" lon="6.72316">
        <ele>1854</ele>
        <time>2022-07-18T04:11:53Z</time>
      </trkpt>
      <trkpt lat="44.8379" lon="6.72315">
        <ele>1854</ele>
        <time>2022-07-18T04:11:54Z</time>
      </trkpt>
      <trkpt lat="44.83788" lon="6.72314">
        <ele>1854.4</ele>
        <time>2022-07-18T04:11:55Z</time>
      </trkpt>
      <trkpt lat="44.83786" lon="6.72312">
        <ele>1854.6</ele>
        <time>2022-07-18T04:11:56Z</time>
      </trkpt>
      <trkpt lat="44.83784" lon="6.72312">
        <ele>1854.6</ele>
        <time>2022-07-18T04:11:57Z</time>
      </trkpt>
      <trkpt lat="44.83782" lon="6.72311">
        <ele>1855</ele>
        <time>2022-07-18T04:11:58Z</time>
      </trkpt>
      <trkpt lat="44.8378" lon="6.7231">
        <ele>1855</ele>
        <time>2022-07-18T04:11:59Z</time>
      </trkpt>
      <trkpt lat="44.83778" lon="6.72309">
        <ele>1855.4</ele>
        <time>2022-07-18T04:12:00Z</time>
      </trkpt>
      <trkpt lat="44.83776" lon="6.72309">
        <ele>1855.4</ele>
        <time>2022-07-18T04:12:01Z</time>
      </trkpt>
      <trkpt lat="44.83774" lon="6.72308">
        <ele>1855.8</ele>
        <time>2022-07-18T04:12:02Z</time>
      </trkpt>
      <trkpt lat="44.83772" lon="6.72308">
        <ele>1855.8</ele>
        <time>2022-07-18T04:12:03Z</time>
      </trkpt>
      <trkpt lat="44.83769" lon="6.72308">
        <ele>1856.2</ele>
        <time>2022-07-18T04:12:04Z</time>
      </trkpt>
      <trkpt lat="44.83767" lon="6.72307">
        <ele>1856.2</ele>
        <time>2022-07-18T04:12:05Z</time>
      </trkpt>
      <trkpt lat="44.83765" lon="6.72307">
        <ele>1856.4</ele>
        <time>2022-07-18T04:12:06Z</time>
      </trkpt>
      <trkpt lat="44.83763" lon="6.72308">
        <ele>1856.4</ele>
        <time>2022-07-18T04:12:07Z</time>
      </trkpt>
      <trkpt lat="44.83761" lon="6.72306">
        <ele>1856.4</ele>
        <time>2022-07-18T04:12:08Z</time>
      </trkpt>
      <trkpt lat="44.83759" lon="6.72306">
        <ele>1856.8</ele>
        <time>2022-07-18T04:12:09Z</time>
      </trkpt>
      <trkpt lat="44.83757" lon="6.72306">
        <ele>1856.8</ele>
        <time>2022-07-18T04:12:10Z</time>
      </trkpt>
      <trkpt lat="44.83755" lon="6.72307">
        <ele>1857</ele>
        <time>2022-07-18T04:12:11Z</time>
      </trkpt>
      <trkpt lat="44.83753" lon="6.72307">
        <ele>1857</ele>
        <time>2022-07-18T04:12:12Z</time>
      </trkpt>
      <trkpt lat="44.83751" lon="6.72307">
        <ele>1857.2</ele>
        <time>2022-07-18T04:12:13Z</time>
      </trkpt>
      <trkpt lat="44.83749" lon="6.72307">
        <ele>1857.2</ele>
        <time>2022-07-18T04:12:14Z</time>
      </trkpt>
      <trkpt lat="44.83747" lon="6.72307">
        <ele>1857.6</ele>
        <time>2022-07-18T04:12:15Z</time>
      </trkpt>
      <trkpt lat="44.83746" lon="6.72307">
        <ele>1857.8</ele>
        <time>2022-07-18T04:12:16Z</time>
      </trkpt>
      <trkpt lat="44.83744" lon="6.72307">
        <ele>1858</ele>
        <time>2022-07-18T04:12:17Z</time>
      </trkpt>
      <trkpt lat="44.83742" lon="6.72307">
        <ele>1858</ele>
        <time>2022-07-18T04:12:18Z</time>
      </trkpt>
      <trkpt lat="44.8374" lon="6.72306">
        <ele>1858.4</ele>
        <time>2022-07-18T04:12:19Z</time>
      </trkpt>
      <trkpt lat="44.83738" lon="6.72306">
        <ele>1858.6</ele>
        <time>2022-07-18T04:12:20Z</time>
      </trkpt>
      <trkpt lat="44.83736" lon="6.72305">
        <ele>1859</ele>
        <time>2022-07-18T04:12:21Z</time>
      </trkpt>
      <trkpt lat="44.83734" lon="6.72305">
        <ele>1859.2</ele>
        <time>2022-07-18T04:12:22Z</time>
      </trkpt>
      <trkpt lat="44.83733" lon="6.72305">
        <ele>1859.4</ele>
        <time>2022-07-18T04:12:23Z</time>
      </trkpt>
      <trkpt lat="44.83731" lon="6.72304">
        <ele>1859.4</ele>
        <time>2022-07-18T04:12:24Z</time>
      </trkpt>
      <trkpt lat="44.83729" lon="6.72304">
        <ele>1859.8</ele>
        <time>2022-07-18T04:12:25Z</time>
      </trkpt>
      <trkpt lat="44.83728" lon="6.72304">
        <ele>1859.8</ele>
        <time>2022-07-18T04:12:26Z</time>
      </trkpt>
      <trkpt lat="44.83726" lon="6.72303">
        <ele>1860</ele>
        <time>2022-07-18T04:12:27Z</time>
      </trkpt>
      <trkpt lat="44.83725" lon="6.72302">
        <ele>1860</ele>
        <time>2022-07-18T04:12:28Z</time>
      </trkpt>
      <trkpt lat="44.83723" lon="6.72302">
        <ele>1860.4</ele>
        <time>2022-07-18T04:12:29Z</time>
      </trkpt>
      <trkpt lat="44.83721" lon="6.72301">
        <ele>1860.6</ele>
        <time>2022-07-18T04:12:30Z</time>
      </trkpt>
      <trkpt lat="44.83719" lon="6.723">
        <ele>1860.6</ele>
        <time>2022-07-18T04:12:31Z</time>
      </trkpt>
      <trkpt lat="44.83717" lon="6.72298">
        <ele>1861</ele>
        <time>2022-07-18T04:12:32Z</time>
      </trkpt>
      <trkpt lat="44.83715" lon="6.72298">
        <ele>1861</ele>
        <time>2022-07-18T04:12:33Z</time>
      </trkpt>
      <trkpt lat="44.83713" lon="6.72297">
        <ele>1861.4</ele>
        <time>2022-07-18T04:12:34Z</time>
      </trkpt>
      <trkpt lat="44.83711" lon="6.72296">
        <ele>1861.4</ele>
        <time>2022-07-18T04:12:35Z</time>
      </trkpt>
      <trkpt lat="44.8371" lon="6.72295">
        <ele>1861.8</ele>
        <time>2022-07-18T04:12:36Z</time>
      </trkpt>
      <trkpt lat="44.83708" lon="6.72294">
        <ele>1861.8</ele>
        <time>2022-07-18T04:12:37Z</time>
      </trkpt>
      <trkpt lat="44.83706" lon="6.72293">
        <ele>1862</ele>
        <time>2022-07-18T04:12:38Z</time>
      </trkpt>
      <trkpt lat="44.83704" lon="6.72292">
        <ele>1862</ele>
        <time>2022-07-18T04:12:39Z</time>
      </trkpt>
      <trkpt lat="44.83702" lon="6.72291">
        <ele>1862.4</ele>
        <time>2022-07-18T04:12:40Z</time>
      </trkpt>
      <trkpt lat="44.837" lon="6.7229">
        <ele>1862.6</ele>
        <time>2022-07-18T04:12:41Z</time>
      </trkpt>
      <trkpt lat="44.83698" lon="6.72289">
        <ele>1862.6</ele>
        <time>2022-07-18T04:12:42Z</time>
      </trkpt>
      <trkpt lat="44.83696" lon="6.72288">
        <ele>1863</ele>
        <time>2022-07-18T04:12:43Z</time>
      </trkpt>
      <trkpt lat="44.83694" lon="6.72287">
        <ele>1863</ele>
        <time>2022-07-18T04:12:44Z</time>
      </trkpt>
      <trkpt lat="44.83692" lon="6.72286">
        <ele>1863.2</ele>
        <time>2022-07-18T04:12:45Z</time>
      </trkpt>
      <trkpt lat="44.8369" lon="6.72285">
        <ele>1863.2</ele>
        <time>2022-07-18T04:12:46Z</time>
      </trkpt>
      <trkpt lat="44.83688" lon="6.72284">
        <ele>1863.8</ele>
        <time>2022-07-18T04:12:47Z</time>
      </trkpt>
      <trkpt lat="44.83686" lon="6.72282">
        <ele>1864</ele>
        <time>2022-07-18T04:12:48Z</time>
      </trkpt>
      <trkpt lat="44.83684" lon="6.72281">
        <ele>1864.2</ele>
        <time>2022-07-18T04:12:49Z</time>
      </trkpt>
      <trkpt lat="44.83682" lon="6.72281">
        <ele>1864.4</ele>
        <time>2022-07-18T04:12:50Z</time>
      </trkpt>
      <trkpt lat="44.83681" lon="6.7228">
        <ele>1864.4</ele>
        <time>2022-07-18T04:12:51Z</time>
      </trkpt>
      <trkpt lat="44.83679" lon="6.72279">
        <ele>1864.8</ele>
        <time>2022-07-18T04:12:52Z</time>
      </trkpt>
      <trkpt lat="44.83677" lon="6.72279">
        <ele>1864.8</ele>
        <time>2022-07-18T04:12:53Z</time>
      </trkpt>
      <trkpt lat="44.83675" lon="6.72278">
        <ele>1865.2</ele>
        <time>2022-07-18T04:12:54Z</time>
      </trkpt>
      <trkpt lat="44.83673" lon="6.72278">
        <ele>1865.4</ele>
        <time>2022-07-18T04:12:55Z</time>
      </trkpt>
      <trkpt lat="44.83671" lon="6.72279">
        <ele>1865.4</ele>
        <time>2022-07-18T04:12:56Z</time>
      </trkpt>
      <trkpt lat="44.83669" lon="6.72279">
        <ele>1865.8</ele>
        <time>2022-07-18T04:12:57Z</time>
      </trkpt>
      <trkpt lat="44.83667" lon="6.72279">
        <ele>1865.8</ele>
        <time>2022-07-18T04:12:58Z</time>
      </trkpt>
      <trkpt lat="44.83666" lon="6.72278">
        <ele>1866.2</ele>
        <time>2022-07-18T04:12:59Z</time>
      </trkpt>
      <trkpt lat="44.83665" lon="6.72278">
        <ele>1866.4</ele>
        <time>2022-07-18T04:13:00Z</time>
      </trkpt>
      <trkpt lat="44.83663" lon="6.72278">
        <ele>1866.4</ele>
        <time>2022-07-18T04:13:01Z</time>
      </trkpt>
      <trkpt lat="44.83661" lon="6.72278">
        <ele>1866.8</ele>
        <time>2022-07-18T04:13:02Z</time>
      </trkpt>
      <trkpt lat="44.83659" lon="6.72278">
        <ele>1866.8</ele>
        <time>2022-07-18T04:13:03Z</time>
      </trkpt>
      <trkpt lat="44.83657" lon="6.72277">
        <ele>1867</ele>
        <time>2022-07-18T04:13:05Z</time>
      </trkpt>
      <trkpt lat="44.83655" lon="6.72277">
        <ele>1867.4</ele>
        <time>2022-07-18T04:13:06Z</time>
      </trkpt>
      <trkpt lat="44.83653" lon="6.72277">
        <ele>1867.4</ele>
        <time>2022-07-18T04:13:07Z</time>
      </trkpt>
      <trkpt lat="44.83651" lon="6.72277">
        <ele>1867.8</ele>
        <time>2022-07-18T04:13:08Z</time>
      </trkpt>
      <trkpt lat="44.83648" lon="6.72275">
        <ele>1867.8</ele>
        <time>2022-07-18T04:13:09Z</time>
      </trkpt>
      <trkpt lat="44.83647" lon="6.72273">
        <ele>1868.2</ele>
        <time>2022-07-18T04:13:10Z</time>
      </trkpt>
      <trkpt lat="44.83646" lon="6.72271">
        <ele>1868.4</ele>
        <time>2022-07-18T04:13:11Z</time>
      </trkpt>
      <trkpt lat="44.83645" lon="6.72268">
        <ele>1868.6</ele>
        <time>2022-07-18T04:13:12Z</time>
      </trkpt>
      <trkpt lat="44.83645" lon="6.72266">
        <ele>1869</ele>
        <time>2022-07-18T04:13:13Z</time>
      </trkpt>
      <trkpt lat="44.83647" lon="6.72263">
        <ele>1869.2</ele>
        <time>2022-07-18T04:13:14Z</time>
      </trkpt>
      <trkpt lat="44.83648" lon="6.72261">
        <ele>1869.4</ele>
        <time>2022-07-18T04:13:15Z</time>
      </trkpt>
      <trkpt lat="44.8365" lon="6.7226">
        <ele>1869.6</ele>
        <time>2022-07-18T04:13:16Z</time>
      </trkpt>
      <trkpt lat="44.83652" lon="6.72259">
        <ele>1869.8</ele>
        <time>2022-07-18T04:13:17Z</time>
      </trkpt>
      <trkpt lat="44.83653" lon="6.72258">
        <ele>1869.8</ele>
        <time>2022-07-18T04:13:18Z</time>
      </trkpt>
      <trkpt lat="44.83655" lon="6.72258">
        <ele>1870.2</ele>
        <time>2022-07-18T04:13:19Z</time>
      </trkpt>
      <trkpt lat="44.83657" lon="6.72258">
        <ele>1870.4</ele>
        <time>2022-07-18T04:13:20Z</time>
      </trkpt>
      <trkpt lat="44.83659" lon="6.72258">
        <ele>1870.6</ele>
        <time>2022-07-18T04:13:21Z</time>
      </trkpt>
      <trkpt lat="44.83661" lon="6.72258">
        <ele>1870.6</ele>
        <time>2022-07-18T04:13:22Z</time>
      </trkpt>
      <trkpt lat="44.83663" lon="6.72257">
        <ele>1871</ele>
        <time>2022-07-18T04:13:23Z</time>
      </trkpt>
      <trkpt lat="44.83664" lon="6.72257">
        <ele>1871</ele>
        <time>2022-07-18T04:13:24Z</time>
      </trkpt>
      <trkpt lat="44.83666" lon="6.72257">
        <ele>1871.2</ele>
        <time>2022-07-18T04:13:25Z</time>
      </trkpt>
      <trkpt lat="44.83668" lon="6.72257">
        <ele>1871.4</ele>
        <time>2022-07-18T04:13:26Z</time>
      </trkpt>
      <trkpt lat="44.8367" lon="6.72257">
        <ele>1871.8</ele>
        <time>2022-07-18T04:13:27Z</time>
      </trkpt>
      <trkpt lat="44.83672" lon="6.72257">
        <ele>1871.8</ele>
        <time>2022-07-18T04:13:28Z</time>
      </trkpt>
      <trkpt lat="44.83674" lon="6.72257">
        <ele>1872</ele>
        <time>2022-07-18T04:13:29Z</time>
      </trkpt>
      <trkpt lat="44.83676" lon="6.72257">
        <ele>1872.4</ele>
        <time>2022-07-18T04:13:30Z</time>
      </trkpt>
      <trkpt lat="44.83679" lon="6.72257">
        <ele>1872.4</ele>
        <time>2022-07-18T04:13:31Z</time>
      </trkpt>
      <trkpt lat="44.83681" lon="6.72257">
        <ele>1872.6</ele>
        <time>2022-07-18T04:13:32Z</time>
      </trkpt>
      <trkpt lat="44.83683" lon="6.72257">
        <ele>1872.6</ele>
        <time>2022-07-18T04:13:33Z</time>
      </trkpt>
      <trkpt lat="44.83686" lon="6.72257">
        <ele>1872.8</ele>
        <time>2022-07-18T04:13:34Z</time>
      </trkpt>
      <trkpt lat="44.83688" lon="6.72256">
        <ele>1872.8</ele>
        <time>2022-07-18T04:13:35Z</time>
      </trkpt>
      <trkpt lat="44.83691" lon="6.72256">
        <ele>1872.8</ele>
        <time>2022-07-18T04:13:36Z</time>
      </trkpt>
      <trkpt lat="44.83693" lon="6.72256">
        <ele>1873.2</ele>
        <time>2022-07-18T04:13:37Z</time>
      </trkpt>
      <trkpt lat="44.83695" lon="6.72256">
        <ele>1873.2</ele>
        <time>2022-07-18T04:13:38Z</time>
      </trkpt>
      <trkpt lat="44.83697" lon="6.72255">
        <ele>1873.4</ele>
        <time>2022-07-18T04:13:39Z</time>
      </trkpt>
      <trkpt lat="44.83699" lon="6.72255">
        <ele>1873.4</ele>
        <time>2022-07-18T04:13:40Z</time>
      </trkpt>
      <trkpt lat="44.83701" lon="6.72254">
        <ele>1873.6</ele>
        <time>2022-07-18T04:13:41Z</time>
      </trkpt>
      <trkpt lat="44.83703" lon="6.72254">
        <ele>1873.8</ele>
        <time>2022-07-18T04:13:42Z</time>
      </trkpt>
      <trkpt lat="44.83706" lon="6.72254">
        <ele>1873.8</ele>
        <time>2022-07-18T04:13:43Z</time>
      </trkpt>
      <trkpt lat="44.83708" lon="6.72254">
        <ele>1873.8</ele>
        <time>2022-07-18T04:13:44Z</time>
      </trkpt>
      <trkpt lat="44.8371" lon="6.72253">
        <ele>1874.2</ele>
        <time>2022-07-18T04:13:45Z</time>
      </trkpt>
      <trkpt lat="44.83712" lon="6.72253">
        <ele>1874.2</ele>
        <time>2022-07-18T04:13:46Z</time>
      </trkpt>
      <trkpt lat="44.83714" lon="6.72253">
        <ele>1874.4</ele>
        <time>2022-07-18T04:13:47Z</time>
      </trkpt>
      <trkpt lat="44.83717" lon="6.72253">
        <ele>1874.4</ele>
        <time>2022-07-18T04:13:48Z</time>
      </trkpt>
      <trkpt lat="44.83719" lon="6.72253">
        <ele>1874.4</ele>
        <time>2022-07-18T04:13:49Z</time>
      </trkpt>
      <trkpt lat="44.83721" lon="6.72253">
        <ele>1874.6</ele>
        <time>2022-07-18T04:13:50Z</time>
      </trkpt>
      <trkpt lat="44.83723" lon="6.72253">
        <ele>1874.6</ele>
        <time>2022-07-18T04:13:51Z</time>
      </trkpt>
      <trkpt lat="44.83726" lon="6.72253">
        <ele>1875</ele>
        <time>2022-07-18T04:13:52Z</time>
      </trkpt>
      <trkpt lat="44.83728" lon="6.72253">
        <ele>1875</ele>
        <time>2022-07-18T04:13:53Z</time>
      </trkpt>
      <trkpt lat="44.8373" lon="6.72253">
        <ele>1875.4</ele>
        <time>2022-07-18T04:13:54Z</time>
      </trkpt>
      <trkpt lat="44.83732" lon="6.72253">
        <ele>1875.4</ele>
        <time>2022-07-18T04:13:55Z</time>
      </trkpt>
      <trkpt lat="44.83733" lon="6.72253">
        <ele>1875.8</ele>
        <time>2022-07-18T04:13:56Z</time>
      </trkpt>
      <trkpt lat="44.83735" lon="6.72254">
        <ele>1875.8</ele>
        <time>2022-07-18T04:13:57Z</time>
      </trkpt>
      <trkpt lat="44.83737" lon="6.72254">
        <ele>1876</ele>
        <time>2022-07-18T04:13:58Z</time>
      </trkpt>
      <trkpt lat="44.8374" lon="6.72254">
        <ele>1876</ele>
        <time>2022-07-18T04:13:59Z</time>
      </trkpt>
      <trkpt lat="44.83742" lon="6.72254">
        <ele>1876</ele>
        <time>2022-07-18T04:14:00Z</time>
      </trkpt>
      <trkpt lat="44.83743" lon="6.72254">
        <ele>1876.4</ele>
        <time>2022-07-18T04:14:01Z</time>
      </trkpt>
      <trkpt lat="44.83745" lon="6.72254">
        <ele>1876.4</ele>
        <time>2022-07-18T04:14:02Z</time>
      </trkpt>
      <trkpt lat="44.83747" lon="6.72255">
        <ele>1876.8</ele>
        <time>2022-07-18T04:14:03Z</time>
      </trkpt>
      <trkpt lat="44.8375" lon="6.72256">
        <ele>1876.8</ele>
        <time>2022-07-18T04:14:04Z</time>
      </trkpt>
      <trkpt lat="44.83753" lon="6.72256">
        <ele>1877</ele>
        <time>2022-07-18T04:14:05Z</time>
      </trkpt>
      <trkpt lat="44.83754" lon="6.72255">
        <ele>1877</ele>
        <time>2022-07-18T04:14:06Z</time>
      </trkpt>
      <trkpt lat="44.83756" lon="6.72254">
        <ele>1877.2</ele>
        <time>2022-07-18T04:14:07Z</time>
      </trkpt>
      <trkpt lat="44.83757" lon="6.72253">
        <ele>1877.2</ele>
        <time>2022-07-18T04:14:08Z</time>
      </trkpt>
      <trkpt lat="44.83759" lon="6.72252">
        <ele>1877.6</ele>
        <time>2022-07-18T04:14:09Z</time>
      </trkpt>
      <trkpt lat="44.8376" lon="6.7225">
        <ele>1877.8</ele>
        <time>2022-07-18T04:14:10Z</time>
      </trkpt>
      <trkpt lat="44.83762" lon="6.72248">
        <ele>1877.8</ele>
        <time>2022-07-18T04:14:11Z</time>
      </trkpt>
      <trkpt lat="44.83762" lon="6.72245">
        <ele>1878</ele>
        <time>2022-07-18T04:14:12Z</time>
      </trkpt>
      <trkpt lat="44.83763" lon="6.72243">
        <ele>1878</ele>
        <time>2022-07-18T04:14:13Z</time>
      </trkpt>
      <trkpt lat="44.83762" lon="6.7224">
        <ele>1878.2</ele>
        <time>2022-07-18T04:14:14Z</time>
      </trkpt>
      <trkpt lat="44.83762" lon="6.72237">
        <ele>1878.2</ele>
        <time>2022-07-18T04:14:15Z</time>
      </trkpt>
      <trkpt lat="44.83761" lon="6.72235">
        <ele>1878.2</ele>
        <time>2022-07-18T04:14:16Z</time>
      </trkpt>
      <trkpt lat="44.8376" lon="6.72233">
        <ele>1878.4</ele>
        <time>2022-07-18T04:14:17Z</time>
      </trkpt>
      <trkpt lat="44.83759" lon="6.72231">
        <ele>1878.6</ele>
        <time>2022-07-18T04:14:18Z</time>
      </trkpt>
      <trkpt lat="44.83757" lon="6.7223">
        <ele>1878.6</ele>
        <time>2022-07-18T04:14:19Z</time>
      </trkpt>
      <trkpt lat="44.83755" lon="6.72228">
        <ele>1879</ele>
        <time>2022-07-18T04:14:20Z</time>
      </trkpt>
      <trkpt lat="44.83753" lon="6.72227">
        <ele>1879.2</ele>
        <time>2022-07-18T04:14:21Z</time>
      </trkpt>
      <trkpt lat="44.83751" lon="6.72227">
        <ele>1879.4</ele>
        <time>2022-07-18T04:14:22Z</time>
      </trkpt>
      <trkpt lat="44.83749" lon="6.72227">
        <ele>1879.4</ele>
        <time>2022-07-18T04:14:23Z</time>
      </trkpt>
      <trkpt lat="44.83747" lon="6.72228">
        <ele>1879.4</ele>
        <time>2022-07-18T04:14:24Z</time>
      </trkpt>
      <trkpt lat="44.83745" lon="6.72228">
        <ele>1879.8</ele>
        <time>2022-07-18T04:14:25Z</time>
      </trkpt>
      <trkpt lat="44.83743" lon="6.72228">
        <ele>1879.8</ele>
        <time>2022-07-18T04:14:26Z</time>
      </trkpt>
      <trkpt lat="44.83741" lon="6.72229">
        <ele>1880.2</ele>
        <time>2022-07-18T04:14:27Z</time>
      </trkpt>
      <trkpt lat="44.83739" lon="6.72229">
        <ele>1880.2</ele>
        <time>2022-07-18T04:14:28Z</time>
      </trkpt>
      <trkpt lat="44.83737" lon="6.7223">
        <ele>1880.4</ele>
        <time>2022-07-18T04:14:29Z</time>
      </trkpt>
      <trkpt lat="44.83735" lon="6.7223">
        <ele>1880.4</ele>
        <time>2022-07-18T04:14:30Z</time>
      </trkpt>
      <trkpt lat="44.83732" lon="6.72231">
        <ele>1880.6</ele>
        <time>2022-07-18T04:14:31Z</time>
      </trkpt>
      <trkpt lat="44.8373" lon="6.72231">
        <ele>1880.6</ele>
        <time>2022-07-18T04:14:32Z</time>
      </trkpt>
      <trkpt lat="44.83729" lon="6.72231">
        <ele>1880.8</ele>
        <time>2022-07-18T04:14:33Z</time>
      </trkpt>
      <trkpt lat="44.83727" lon="6.72231">
        <ele>1880.8</ele>
        <time>2022-07-18T04:14:34Z</time>
      </trkpt>
      <trkpt lat="44.83725" lon="6.72231">
        <ele>1881</ele>
        <time>2022-07-18T04:14:35Z</time>
      </trkpt>
      <trkpt lat="44.83723" lon="6.72231">
        <ele>1881.4</ele>
        <time>2022-07-18T04:14:36Z</time>
      </trkpt>
      <trkpt lat="44.83718" lon="6.7223">
        <ele>1881.6</ele>
        <time>2022-07-18T04:14:37Z</time>
      </trkpt>
      <trkpt lat="44.83717" lon="6.72229">
        <ele>1881.6</ele>
        <time>2022-07-18T04:14:38Z</time>
      </trkpt>
      <trkpt lat="44.83714" lon="6.72228">
        <ele>1882</ele>
        <time>2022-07-18T04:14:39Z</time>
      </trkpt>
      <trkpt lat="44.83712" lon="6.72227">
        <ele>1882</ele>
        <time>2022-07-18T04:14:40Z</time>
      </trkpt>
      <trkpt lat="44.83711" lon="6.72226">
        <ele>1882.2</ele>
        <time>2022-07-18T04:14:41Z</time>
      </trkpt>
      <trkpt lat="44.83709" lon="6.72225">
        <ele>1882.4</ele>
        <time>2022-07-18T04:14:42Z</time>
      </trkpt>
      <trkpt lat="44.83707" lon="6.72225">
        <ele>1882.4</ele>
        <time>2022-07-18T04:14:43Z</time>
      </trkpt>
      <trkpt lat="44.83705" lon="6.72224">
        <ele>1882.8</ele>
        <time>2022-07-18T04:14:44Z</time>
      </trkpt>
      <trkpt lat="44.83703" lon="6.72223">
        <ele>1883</ele>
        <time>2022-07-18T04:14:45Z</time>
      </trkpt>
      <trkpt lat="44.83701" lon="6.72222">
        <ele>1883</ele>
        <time>2022-07-18T04:14:46Z</time>
      </trkpt>
      <trkpt lat="44.83699" lon="6.72221">
        <ele>1883.4</ele>
        <time>2022-07-18T04:14:47Z</time>
      </trkpt>
      <trkpt lat="44.83697" lon="6.7222">
        <ele>1883.4</ele>
        <time>2022-07-18T04:14:48Z</time>
      </trkpt>
      <trkpt lat="44.83695" lon="6.72219">
        <ele>1883.8</ele>
        <time>2022-07-18T04:14:49Z</time>
      </trkpt>
      <trkpt lat="44.83693" lon="6.72218">
        <ele>1883.8</ele>
        <time>2022-07-18T04:14:50Z</time>
      </trkpt>
      <trkpt lat="44.83692" lon="6.72217">
        <ele>1884</ele>
        <time>2022-07-18T04:14:51Z</time>
      </trkpt>
      <trkpt lat="44.8369" lon="6.72216">
        <ele>1884</ele>
        <time>2022-07-18T04:14:52Z</time>
      </trkpt>
      <trkpt lat="44.83688" lon="6.72215">
        <ele>1884.4</ele>
        <time>2022-07-18T04:14:53Z</time>
      </trkpt>
      <trkpt lat="44.83686" lon="6.72215">
        <ele>1884.6</ele>
        <time>2022-07-18T04:14:54Z</time>
      </trkpt>
      <trkpt lat="44.83684" lon="6.72214">
        <ele>1884.8</ele>
        <time>2022-07-18T04:14:55Z</time>
      </trkpt>
      <trkpt lat="44.83682" lon="6.72213">
        <ele>1884.8</ele>
        <time>2022-07-18T04:14:56Z</time>
      </trkpt>
      <trkpt lat="44.8368" lon="6.72212">
        <ele>1885.2</ele>
        <time>2022-07-18T04:14:57Z</time>
      </trkpt>
      <trkpt lat="44.83679" lon="6.72211">
        <ele>1885.4</ele>
        <time>2022-07-18T04:14:58Z</time>
      </trkpt>
      <trkpt lat="44.83678" lon="6.72209">
        <ele>1885.4</ele>
        <time>2022-07-18T04:14:59Z</time>
      </trkpt>
      <trkpt lat="44.83676" lon="6.72208">
        <ele>1885.4</ele>
        <time>2022-07-18T04:15:00Z</time>
      </trkpt>
      <trkpt lat="44.83674" lon="6.72207">
        <ele>1885.8</ele>
        <time>2022-07-18T04:15:01Z</time>
      </trkpt>
      <trkpt lat="44.83672" lon="6.72206">
        <ele>1885.8</ele>
        <time>2022-07-18T04:15:02Z</time>
      </trkpt>
      <trkpt lat="44.8367" lon="6.72205">
        <ele>1886.2</ele>
        <time>2022-07-18T04:15:03Z</time>
      </trkpt>
      <trkpt lat="44.83668" lon="6.72204">
        <ele>1886.2</ele>
        <time>2022-07-18T04:15:04Z</time>
      </trkpt>
      <trkpt lat="44.83666" lon="6.72203">
        <ele>1886.6</ele>
        <time>2022-07-18T04:15:05Z</time>
      </trkpt>
      <trkpt lat="44.83665" lon="6.72201">
        <ele>1886.8</ele>
        <time>2022-07-18T04:15:06Z</time>
      </trkpt>
      <trkpt lat="44.83663" lon="6.722">
        <ele>1887</ele>
        <time>2022-07-18T04:15:07Z</time>
      </trkpt>
      <trkpt lat="44.83661" lon="6.72198">
        <ele>1887.2</ele>
        <time>2022-07-18T04:15:08Z</time>
      </trkpt>
      <trkpt lat="44.8366" lon="6.72198">
        <ele>1887.2</ele>
        <time>2022-07-18T04:15:09Z</time>
      </trkpt>
      <trkpt lat="44.83658" lon="6.72196">
        <ele>1887.6</ele>
        <time>2022-07-18T04:15:10Z</time>
      </trkpt>
      <trkpt lat="44.83657" lon="6.72195">
        <ele>1887.8</ele>
        <time>2022-07-18T04:15:11Z</time>
      </trkpt>
      <trkpt lat="44.83655" lon="6.72194">
        <ele>1888</ele>
        <time>2022-07-18T04:15:12Z</time>
      </trkpt>
      <trkpt lat="44.83653" lon="6.72193">
        <ele>1888</ele>
        <time>2022-07-18T04:15:13Z</time>
      </trkpt>
      <trkpt lat="44.83651" lon="6.72192">
        <ele>1888.4</ele>
        <time>2022-07-18T04:15:14Z</time>
      </trkpt>
      <trkpt lat="44.83649" lon="6.72191">
        <ele>1888.6</ele>
        <time>2022-07-18T04:15:15Z</time>
      </trkpt>
      <trkpt lat="44.83647" lon="6.7219">
        <ele>1888.6</ele>
        <time>2022-07-18T04:15:16Z</time>
      </trkpt>
      <trkpt lat="44.83645" lon="6.7219">
        <ele>1889</ele>
        <time>2022-07-18T04:15:17Z</time>
      </trkpt>
      <trkpt lat="44.83643" lon="6.72189">
        <ele>1889</ele>
        <time>2022-07-18T04:15:18Z</time>
      </trkpt>
      <trkpt lat="44.83641" lon="6.72188">
        <ele>1889.2</ele>
        <time>2022-07-18T04:15:19Z</time>
      </trkpt>
      <trkpt lat="44.83639" lon="6.72187">
        <ele>1889.2</ele>
        <time>2022-07-18T04:15:20Z</time>
      </trkpt>
      <trkpt lat="44.83638" lon="6.72187">
        <ele>1889.6</ele>
        <time>2022-07-18T04:15:21Z</time>
      </trkpt>
      <trkpt lat="44.83636" lon="6.72186">
        <ele>1889.8</ele>
        <time>2022-07-18T04:15:22Z</time>
      </trkpt>
      <trkpt lat="44.83634" lon="6.72185">
        <ele>1890</ele>
        <time>2022-07-18T04:15:23Z</time>
      </trkpt>
      <trkpt lat="44.83632" lon="6.72185">
        <ele>1890.2</ele>
        <time>2022-07-18T04:15:24Z</time>
      </trkpt>
      <trkpt lat="44.8363" lon="6.72184">
        <ele>1890.2</ele>
        <time>2022-07-18T04:15:25Z</time>
      </trkpt>
      <trkpt lat="44.83629" lon="6.72183">
        <ele>1890.6</ele>
        <time>2022-07-18T04:15:26Z</time>
      </trkpt>
      <trkpt lat="44.83628" lon="6.72181">
        <ele>1890.8</ele>
        <time>2022-07-18T04:15:27Z</time>
      </trkpt>
      <trkpt lat="44.83626" lon="6.7218">
        <ele>1890.8</ele>
        <time>2022-07-18T04:15:28Z</time>
      </trkpt>
      <trkpt lat="44.83624" lon="6.72179">
        <ele>1891.2</ele>
        <time>2022-07-18T04:15:29Z</time>
      </trkpt>
      <trkpt lat="44.83623" lon="6.72178">
        <ele>1891.2</ele>
        <time>2022-07-18T04:15:30Z</time>
      </trkpt>
      <trkpt lat="44.83621" lon="6.72178">
        <ele>1891.6</ele>
        <time>2022-07-18T04:15:31Z</time>
      </trkpt>
      <trkpt lat="44.83619" lon="6.72177">
        <ele>1891.6</ele>
        <time>2022-07-18T04:15:32Z</time>
      </trkpt>
      <trkpt lat="44.83618" lon="6.72175">
        <ele>1892</ele>
        <time>2022-07-18T04:15:33Z</time>
      </trkpt>
      <trkpt lat="44.83616" lon="6.72174">
        <ele>1892</ele>
        <time>2022-07-18T04:15:34Z</time>
      </trkpt>
      <trkpt lat="44.83614" lon="6.72173">
        <ele>1892.4</ele>
        <time>2022-07-18T04:15:35Z</time>
      </trkpt>
      <trkpt lat="44.83612" lon="6.72172">
        <ele>1892.6</ele>
        <time>2022-07-18T04:15:36Z</time>
      </trkpt>
      <trkpt lat="44.83611" lon="6.72172">
        <ele>1892.8</ele>
        <time>2022-07-18T04:15:37Z</time>
      </trkpt>
      <trkpt lat="44.83609" lon="6.72171">
        <ele>1893</ele>
        <time>2022-07-18T04:15:38Z</time>
      </trkpt>
      <trkpt lat="44.83607" lon="6.72171">
        <ele>1893.2</ele>
        <time>2022-07-18T04:15:39Z</time>
      </trkpt>
      <trkpt lat="44.83604" lon="6.72171">
        <ele>1893.2</ele>
        <time>2022-07-18T04:15:40Z</time>
      </trkpt>
      <trkpt lat="44.83602" lon="6.7217">
        <ele>1893.6</ele>
        <time>2022-07-18T04:15:41Z</time>
      </trkpt>
      <trkpt lat="44.83601" lon="6.7217">
        <ele>1893.6</ele>
        <time>2022-07-18T04:15:42Z</time>
      </trkpt>
      <trkpt lat="44.83599" lon="6.72169">
        <ele>1894</ele>
        <time>2022-07-18T04:15:43Z</time>
      </trkpt>
      <trkpt lat="44.83598" lon="6.7217">
        <ele>1894</ele>
        <time>2022-07-18T04:15:44Z</time>
      </trkpt>
      <trkpt lat="44.83596" lon="6.7217">
        <ele>1894.2</ele>
        <time>2022-07-18T04:15:45Z</time>
      </trkpt>
      <trkpt lat="44.83594" lon="6.7217">
        <ele>1894.2</ele>
        <time>2022-07-18T04:15:46Z</time>
      </trkpt>
      <trkpt lat="44.83592" lon="6.72171">
        <ele>1894.6</ele>
        <time>2022-07-18T04:15:47Z</time>
      </trkpt>
      <trkpt lat="44.8359" lon="6.72171">
        <ele>1894.6</ele>
        <time>2022-07-18T04:15:48Z</time>
      </trkpt>
      <trkpt lat="44.83588" lon="6.72172">
        <ele>1895</ele>
        <time>2022-07-18T04:15:49Z</time>
      </trkpt>
      <trkpt lat="44.83585" lon="6.72173">
        <ele>1895</ele>
        <time>2022-07-18T04:15:50Z</time>
      </trkpt>
      <trkpt lat="44.83584" lon="6.72173">
        <ele>1895.4</ele>
        <time>2022-07-18T04:15:51Z</time>
      </trkpt>
      <trkpt lat="44.83582" lon="6.72173">
        <ele>1895.4</ele>
        <time>2022-07-18T04:15:52Z</time>
      </trkpt>
      <trkpt lat="44.8358" lon="6.72173">
        <ele>1895.6</ele>
        <time>2022-07-18T04:15:53Z</time>
      </trkpt>
      <trkpt lat="44.83578" lon="6.72173">
        <ele>1895.8</ele>
        <time>2022-07-18T04:15:54Z</time>
      </trkpt>
      <trkpt lat="44.83576" lon="6.72173">
        <ele>1895.8</ele>
        <time>2022-07-18T04:15:55Z</time>
      </trkpt>
      <trkpt lat="44.83574" lon="6.72173">
        <ele>1896.2</ele>
        <time>2022-07-18T04:15:56Z</time>
      </trkpt>
      <trkpt lat="44.83573" lon="6.72173">
        <ele>1896.4</ele>
        <time>2022-07-18T04:15:57Z</time>
      </trkpt>
      <trkpt lat="44.83571" lon="6.72172">
        <ele>1896.4</ele>
        <time>2022-07-18T04:15:58Z</time>
      </trkpt>
      <trkpt lat="44.83569" lon="6.72175">
        <ele>1896.8</ele>
        <time>2022-07-18T04:15:59Z</time>
      </trkpt>
      <trkpt lat="44.83567" lon="6.72175">
        <ele>1896.8</ele>
        <time>2022-07-18T04:16:00Z</time>
      </trkpt>
      <trkpt lat="44.83566" lon="6.72176">
        <ele>1897</ele>
        <time>2022-07-18T04:16:01Z</time>
      </trkpt>
      <trkpt lat="44.83564" lon="6.72176">
        <ele>1897.2</ele>
        <time>2022-07-18T04:16:02Z</time>
      </trkpt>
      <trkpt lat="44.83562" lon="6.72177">
        <ele>1897.4</ele>
        <time>2022-07-18T04:16:03Z</time>
      </trkpt>
      <trkpt lat="44.83561" lon="6.72177">
        <ele>1897.4</ele>
        <time>2022-07-18T04:16:04Z</time>
      </trkpt>
      <trkpt lat="44.83559" lon="6.72178">
        <ele>1897.8</ele>
        <time>2022-07-18T04:16:05Z</time>
      </trkpt>
      <trkpt lat="44.83557" lon="6.72179">
        <ele>1898</ele>
        <time>2022-07-18T04:16:06Z</time>
      </trkpt>
      <trkpt lat="44.83556" lon="6.72181">
        <ele>1898.2</ele>
        <time>2022-07-18T04:16:07Z</time>
      </trkpt>
      <trkpt lat="44.83554" lon="6.72182">
        <ele>1898.2</ele>
        <time>2022-07-18T04:16:08Z</time>
      </trkpt>
      <trkpt lat="44.83552" lon="6.72185">
        <ele>1898.6</ele>
        <time>2022-07-18T04:16:09Z</time>
      </trkpt>
      <trkpt lat="44.83551" lon="6.72187">
        <ele>1898.6</ele>
        <time>2022-07-18T04:16:10Z</time>
      </trkpt>
      <trkpt lat="44.83549" lon="6.72188">
        <ele>1899</ele>
        <time>2022-07-18T04:16:11Z</time>
      </trkpt>
      <trkpt lat="44.83548" lon="6.7219">
        <ele>1899.2</ele>
        <time>2022-07-18T04:16:12Z</time>
      </trkpt>
      <trkpt lat="44.83546" lon="6.72191">
        <ele>1899.4</ele>
        <time>2022-07-18T04:16:13Z</time>
      </trkpt>
      <trkpt lat="44.83544" lon="6.72193">
        <ele>1899.8</ele>
        <time>2022-07-18T04:16:14Z</time>
      </trkpt>
      <trkpt lat="44.83543" lon="6.72194">
        <ele>1900</ele>
        <time>2022-07-18T04:16:15Z</time>
      </trkpt>
      <trkpt lat="44.83541" lon="6.72196">
        <ele>1900.2</ele>
        <time>2022-07-18T04:16:16Z</time>
      </trkpt>
      <trkpt lat="44.8354" lon="6.72198">
        <ele>1900.2</ele>
        <time>2022-07-18T04:16:17Z</time>
      </trkpt>
      <trkpt lat="44.83539" lon="6.72199">
        <ele>1900.6</ele>
        <time>2022-07-18T04:16:18Z</time>
      </trkpt>
      <trkpt lat="44.83538" lon="6.72202">
        <ele>1900.6</ele>
        <time>2022-07-18T04:16:19Z</time>
      </trkpt>
      <trkpt lat="44.83537" lon="6.72204">
        <ele>1900.8</ele>
        <time>2022-07-18T04:16:20Z</time>
      </trkpt>
      <trkpt lat="44.83536" lon="6.72206">
        <ele>1900.8</ele>
        <time>2022-07-18T04:16:21Z</time>
      </trkpt>
      <trkpt lat="44.83535" lon="6.72208">
        <ele>1901.2</ele>
        <time>2022-07-18T04:16:22Z</time>
      </trkpt>
      <trkpt lat="44.83534" lon="6.72211">
        <ele>1901.2</ele>
        <time>2022-07-18T04:16:23Z</time>
      </trkpt>
      <trkpt lat="44.83534" lon="6.72213">
        <ele>1901.6</ele>
        <time>2022-07-18T04:16:24Z</time>
      </trkpt>
      <trkpt lat="44.83533" lon="6.72215">
        <ele>1901.8</ele>
        <time>2022-07-18T04:16:25Z</time>
      </trkpt>
      <trkpt lat="44.83532" lon="6.72218">
        <ele>1901.8</ele>
        <time>2022-07-18T04:16:26Z</time>
      </trkpt>
      <trkpt lat="44.83531" lon="6.7222">
        <ele>1902</ele>
        <time>2022-07-18T04:16:27Z</time>
      </trkpt>
      <trkpt lat="44.8353" lon="6.72222">
        <ele>1902</ele>
        <time>2022-07-18T04:16:28Z</time>
      </trkpt>
      <trkpt lat="44.83529" lon="6.72225">
        <ele>1902.2</ele>
        <time>2022-07-18T04:16:29Z</time>
      </trkpt>
      <trkpt lat="44.83529" lon="6.72227">
        <ele>1902.2</ele>
        <time>2022-07-18T04:16:30Z</time>
      </trkpt>
      <trkpt lat="44.83528" lon="6.7223">
        <ele>1902.6</ele>
        <time>2022-07-18T04:16:31Z</time>
      </trkpt>
      <trkpt lat="44.83527" lon="6.72232">
        <ele>1902.6</ele>
        <time>2022-07-18T04:16:32Z</time>
      </trkpt>
      <trkpt lat="44.83527" lon="6.72234">
        <ele>1902.8</ele>
        <time>2022-07-18T04:16:33Z</time>
      </trkpt>
      <trkpt lat="44.83526" lon="6.72236">
        <ele>1902.8</ele>
        <time>2022-07-18T04:16:34Z</time>
      </trkpt>
      <trkpt lat="44.83525" lon="6.72238">
        <ele>1903.2</ele>
        <time>2022-07-18T04:16:35Z</time>
      </trkpt>
      <trkpt lat="44.83525" lon="6.7224">
        <ele>1903.2</ele>
        <time>2022-07-18T04:16:36Z</time>
      </trkpt>
      <trkpt lat="44.83524" lon="6.72242">
        <ele>1903.4</ele>
        <time>2022-07-18T04:16:37Z</time>
      </trkpt>
      <trkpt lat="44.83523" lon="6.72244">
        <ele>1903.4</ele>
        <time>2022-07-18T04:16:38Z</time>
      </trkpt>
      <trkpt lat="44.83522" lon="6.72247">
        <ele>1903.8</ele>
        <time>2022-07-18T04:16:39Z</time>
      </trkpt>
      <trkpt lat="44.83521" lon="6.72249">
        <ele>1903.8</ele>
        <time>2022-07-18T04:16:40Z</time>
      </trkpt>
      <trkpt lat="44.83521" lon="6.72251">
        <ele>1904.2</ele>
        <time>2022-07-18T04:16:41Z</time>
      </trkpt>
      <trkpt lat="44.8352" lon="6.72253">
        <ele>1904.4</ele>
        <time>2022-07-18T04:16:42Z</time>
      </trkpt>
      <trkpt lat="44.83519" lon="6.72256">
        <ele>1904.4</ele>
        <time>2022-07-18T04:16:43Z</time>
      </trkpt>
      <trkpt lat="44.83518" lon="6.72258">
        <ele>1905</ele>
        <time>2022-07-18T04:16:44Z</time>
      </trkpt>
      <trkpt lat="44.83517" lon="6.72261">
        <ele>1905.2</ele>
        <time>2022-07-18T04:16:45Z</time>
      </trkpt>
      <trkpt lat="44.83517" lon="6.72263">
        <ele>1905.2</ele>
        <time>2022-07-18T04:16:46Z</time>
      </trkpt>
      <trkpt lat="44.83516" lon="6.72266">
        <ele>1905.4</ele>
        <time>2022-07-18T04:16:47Z</time>
      </trkpt>
      <trkpt lat="44.83515" lon="6.72269">
        <ele>1905.6</ele>
        <time>2022-07-18T04:16:48Z</time>
      </trkpt>
      <trkpt lat="44.83515" lon="6.72271">
        <ele>1905.6</ele>
        <time>2022-07-18T04:16:49Z</time>
      </trkpt>
      <trkpt lat="44.83514" lon="6.72275">
        <ele>1906</ele>
        <time>2022-07-18T04:16:50Z</time>
      </trkpt>
      <trkpt lat="44.83514" lon="6.72278">
        <ele>1906.2</ele>
        <time>2022-07-18T04:16:51Z</time>
      </trkpt>
      <trkpt lat="44.83515" lon="6.72281">
        <ele>1906.2</ele>
        <time>2022-07-18T04:16:52Z</time>
      </trkpt>
      <trkpt lat="44.83514" lon="6.72283">
        <ele>1906.6</ele>
        <time>2022-07-18T04:16:53Z</time>
      </trkpt>
      <trkpt lat="44.83514" lon="6.72286">
        <ele>1906.8</ele>
        <time>2022-07-18T04:16:54Z</time>
      </trkpt>
      <trkpt lat="44.83514" lon="6.72289">
        <ele>1907.2</ele>
        <time>2022-07-18T04:16:55Z</time>
      </trkpt>
      <trkpt lat="44.83513" lon="6.72291">
        <ele>1907.2</ele>
        <time>2022-07-18T04:16:56Z</time>
      </trkpt>
      <trkpt lat="44.83513" lon="6.72294">
        <ele>1907.4</ele>
        <time>2022-07-18T04:16:57Z</time>
      </trkpt>
      <trkpt lat="44.83512" lon="6.72297">
        <ele>1907.4</ele>
        <time>2022-07-18T04:16:58Z</time>
      </trkpt>
      <trkpt lat="44.83512" lon="6.72299">
        <ele>1907.6</ele>
        <time>2022-07-18T04:16:59Z</time>
      </trkpt>
      <trkpt lat="44.83512" lon="6.72302">
        <ele>1907.8</ele>
        <time>2022-07-18T04:17:00Z</time>
      </trkpt>
      <trkpt lat="44.83512" lon="6.72305">
        <ele>1908.2</ele>
        <time>2022-07-18T04:17:01Z</time>
      </trkpt>
      <trkpt lat="44.83512" lon="6.72308">
        <ele>1908.2</ele>
        <time>2022-07-18T04:17:02Z</time>
      </trkpt>
      <trkpt lat="44.83512" lon="6.7231">
        <ele>1908.4</ele>
        <time>2022-07-18T04:17:03Z</time>
      </trkpt>
      <trkpt lat="44.83511" lon="6.72313">
        <ele>1908.6</ele>
        <time>2022-07-18T04:17:04Z</time>
      </trkpt>
      <trkpt lat="44.8351" lon="6.72315">
        <ele>1908.8</ele>
        <time>2022-07-18T04:17:05Z</time>
      </trkpt>
      <trkpt lat="44.8351" lon="6.72317">
        <ele>1908.8</ele>
        <time>2022-07-18T04:17:06Z</time>
      </trkpt>
      <trkpt lat="44.83509" lon="6.72319">
        <ele>1909.2</ele>
        <time>2022-07-18T04:17:07Z</time>
      </trkpt>
      <trkpt lat="44.83508" lon="6.72321">
        <ele>1909.2</ele>
        <time>2022-07-18T04:17:08Z</time>
      </trkpt>
      <trkpt lat="44.83506" lon="6.72322">
        <ele>1909.4</ele>
        <time>2022-07-18T04:17:09Z</time>
      </trkpt>
      <trkpt lat="44.83504" lon="6.72322">
        <ele>1909.4</ele>
        <time>2022-07-18T04:17:10Z</time>
      </trkpt>
      <trkpt lat="44.83502" lon="6.72321">
        <ele>1909.8</ele>
        <time>2022-07-18T04:17:11Z</time>
      </trkpt>
      <trkpt lat="44.835" lon="6.72319">
        <ele>1909.8</ele>
        <time>2022-07-18T04:17:12Z</time>
      </trkpt>
      <trkpt lat="44.83499" lon="6.72317">
        <ele>1910</ele>
        <time>2022-07-18T04:17:13Z</time>
      </trkpt>
      <trkpt lat="44.83499" lon="6.72314">
        <ele>1910</ele>
        <time>2022-07-18T04:17:14Z</time>
      </trkpt>
      <trkpt lat="44.83499" lon="6.72311">
        <ele>1910.4</ele>
        <time>2022-07-18T04:17:15Z</time>
      </trkpt>
      <trkpt lat="44.83499" lon="6.72308">
        <ele>1910.4</ele>
        <time>2022-07-18T04:17:16Z</time>
      </trkpt>
      <trkpt lat="44.83499" lon="6.72305">
        <ele>1910.6</ele>
        <time>2022-07-18T04:17:17Z</time>
      </trkpt>
      <trkpt lat="44.835" lon="6.72302">
        <ele>1910.6</ele>
        <time>2022-07-18T04:17:18Z</time>
      </trkpt>
      <trkpt lat="44.835" lon="6.723">
        <ele>1911</ele>
        <time>2022-07-18T04:17:19Z</time>
      </trkpt>
      <trkpt lat="44.83501" lon="6.72297">
        <ele>1911</ele>
        <time>2022-07-18T04:17:20Z</time>
      </trkpt>
      <trkpt lat="44.83502" lon="6.72294">
        <ele>1911</ele>
        <time>2022-07-18T04:17:21Z</time>
      </trkpt>
      <trkpt lat="44.83502" lon="6.72291">
        <ele>1911.2</ele>
        <time>2022-07-18T04:17:22Z</time>
      </trkpt>
      <trkpt lat="44.83503" lon="6.72288">
        <ele>1911.2</ele>
        <time>2022-07-18T04:17:23Z</time>
      </trkpt>
      <trkpt lat="44.83503" lon="6.72285">
        <ele>1911.6</ele>
        <time>2022-07-18T04:17:24Z</time>
      </trkpt>
      <trkpt lat="44.83503" lon="6.72282">
        <ele>1911.6</ele>
        <time>2022-07-18T04:17:25Z</time>
      </trkpt>
      <trkpt lat="44.83504" lon="6.7228">
        <ele>1911.8</ele>
        <time>2022-07-18T04:17:26Z</time>
      </trkpt>
      <trkpt lat="44.83504" lon="6.72277">
        <ele>1911.8</ele>
        <time>2022-07-18T04:17:27Z</time>
      </trkpt>
      <trkpt lat="44.83504" lon="6.72274">
        <ele>1912.2</ele>
        <time>2022-07-18T04:17:28Z</time>
      </trkpt>
      <trkpt lat="44.83504" lon="6.72271">
        <ele>1912.2</ele>
        <time>2022-07-18T04:17:29Z</time>
      </trkpt>
      <trkpt lat="44.83504" lon="6.72269">
        <ele>1912.4</ele>
        <time>2022-07-18T04:17:30Z</time>
      </trkpt>
      <trkpt lat="44.83503" lon="6.72266">
        <ele>1912.4</ele>
        <time>2022-07-18T04:17:31Z</time>
      </trkpt>
      <trkpt lat="44.83503" lon="6.72264">
        <ele>1912.8</ele>
        <time>2022-07-18T04:17:32Z</time>
      </trkpt>
      <trkpt lat="44.83503" lon="6.72261">
        <ele>1912.8</ele>
        <time>2022-07-18T04:17:33Z</time>
      </trkpt>
      <trkpt lat="44.83503" lon="6.72258">
        <ele>1913.2</ele>
        <time>2022-07-18T04:17:34Z</time>
      </trkpt>
      <trkpt lat="44.83502" lon="6.72256">
        <ele>1913.2</ele>
        <time>2022-07-18T04:17:35Z</time>
      </trkpt>
      <trkpt lat="44.83502" lon="6.72254">
        <ele>1913.4</ele>
        <time>2022-07-18T04:17:36Z</time>
      </trkpt>
      <trkpt lat="44.83501" lon="6.72251">
        <ele>1913.6</ele>
        <time>2022-07-18T04:17:37Z</time>
      </trkpt>
      <trkpt lat="44.83501" lon="6.72248">
        <ele>1913.6</ele>
        <time>2022-07-18T04:17:38Z</time>
      </trkpt>
      <trkpt lat="44.83501" lon="6.72246">
        <ele>1913.8</ele>
        <time>2022-07-18T04:17:39Z</time>
      </trkpt>
      <trkpt lat="44.83501" lon="6.72243">
        <ele>1913.8</ele>
        <time>2022-07-18T04:17:40Z</time>
      </trkpt>
      <trkpt lat="44.835" lon="6.7224">
        <ele>1914.4</ele>
        <time>2022-07-18T04:17:41Z</time>
      </trkpt>
      <trkpt lat="44.835" lon="6.72238">
        <ele>1914.4</ele>
        <time>2022-07-18T04:17:42Z</time>
      </trkpt>
      <trkpt lat="44.835" lon="6.72235">
        <ele>1914.6</ele>
        <time>2022-07-18T04:17:43Z</time>
      </trkpt>
      <trkpt lat="44.835" lon="6.72233">
        <ele>1914.6</ele>
        <time>2022-07-18T04:17:44Z</time>
      </trkpt>
      <trkpt lat="44.83501" lon="6.7223">
        <ele>1914.8</ele>
        <time>2022-07-18T04:17:45Z</time>
      </trkpt>
      <trkpt lat="44.83501" lon="6.72227">
        <ele>1914.8</ele>
        <time>2022-07-18T04:17:46Z</time>
      </trkpt>
      <trkpt lat="44.83501" lon="6.72224">
        <ele>1915.2</ele>
        <time>2022-07-18T04:17:47Z</time>
      </trkpt>
      <trkpt lat="44.83501" lon="6.72221">
        <ele>1915.2</ele>
        <time>2022-07-18T04:17:48Z</time>
      </trkpt>
      <trkpt lat="44.83501" lon="6.72219">
        <ele>1915.6</ele>
        <time>2022-07-18T04:17:49Z</time>
      </trkpt>
      <trkpt lat="44.83501" lon="6.72216">
        <ele>1915.8</ele>
        <time>2022-07-18T04:17:50Z</time>
      </trkpt>
      <trkpt lat="44.83501" lon="6.72213">
        <ele>1915.8</ele>
        <time>2022-07-18T04:17:51Z</time>
      </trkpt>
      <trkpt lat="44.83501" lon="6.72211">
        <ele>1916.2</ele>
        <time>2022-07-18T04:17:52Z</time>
      </trkpt>
      <trkpt lat="44.83501" lon="6.72208">
        <ele>1916.2</ele>
        <time>2022-07-18T04:17:53Z</time>
      </trkpt>
      <trkpt lat="44.83502" lon="6.72206">
        <ele>1916.6</ele>
        <time>2022-07-18T04:17:54Z</time>
      </trkpt>
      <trkpt lat="44.83502" lon="6.72203">
        <ele>1916.6</ele>
        <time>2022-07-18T04:17:55Z</time>
      </trkpt>
      <trkpt lat="44.83502" lon="6.722">
        <ele>1917</ele>
        <time>2022-07-18T04:17:56Z</time>
      </trkpt>
      <trkpt lat="44.83502" lon="6.72198">
        <ele>1917</ele>
        <time>2022-07-18T04:17:57Z</time>
      </trkpt>
      <trkpt lat="44.83502" lon="6.72195">
        <ele>1917.4</ele>
        <time>2022-07-18T04:17:58Z</time>
      </trkpt>
      <trkpt lat="44.83502" lon="6.72193">
        <ele>1917.6</ele>
        <time>2022-07-18T04:17:59Z</time>
      </trkpt>
      <trkpt lat="44.83503" lon="6.7219">
        <ele>1917.8</ele>
        <time>2022-07-18T04:18:00Z</time>
      </trkpt>
      <trkpt lat="44.83503" lon="6.72186">
        <ele>1917.8</ele>
        <time>2022-07-18T04:18:01Z</time>
      </trkpt>
      <trkpt lat="44.83503" lon="6.72183">
        <ele>1918.2</ele>
        <time>2022-07-18T04:18:02Z</time>
      </trkpt>
      <trkpt lat="44.83504" lon="6.7218">
        <ele>1918.2</ele>
        <time>2022-07-18T04:18:03Z</time>
      </trkpt>
      <trkpt lat="44.83505" lon="6.72177">
        <ele>1918.6</ele>
        <time>2022-07-18T04:18:04Z</time>
      </trkpt>
      <trkpt lat="44.83506" lon="6.72174">
        <ele>1918.6</ele>
        <time>2022-07-18T04:18:05Z</time>
      </trkpt>
      <trkpt lat="44.83507" lon="6.72172">
        <ele>1918.8</ele>
        <time>2022-07-18T04:18:06Z</time>
      </trkpt>
      <trkpt lat="44.83508" lon="6.72169">
        <ele>1918.8</ele>
        <time>2022-07-18T04:18:07Z</time>
      </trkpt>
      <trkpt lat="44.83509" lon="6.72166">
        <ele>1919.2</ele>
        <time>2022-07-18T04:18:08Z</time>
      </trkpt>
      <trkpt lat="44.8351" lon="6.72164">
        <ele>1919.2</ele>
        <time>2022-07-18T04:18:09Z</time>
      </trkpt>
      <trkpt lat="44.83511" lon="6.72161">
        <ele>1919.4</ele>
        <time>2022-07-18T04:18:10Z</time>
      </trkpt>
      <trkpt lat="44.83512" lon="6.72158">
        <ele>1919.4</ele>
        <time>2022-07-18T04:18:11Z</time>
      </trkpt>
      <trkpt lat="44.83512" lon="6.72155">
        <ele>1919.4</ele>
        <time>2022-07-18T04:18:12Z</time>
      </trkpt>
      <trkpt lat="44.83512" lon="6.72151">
        <ele>1919.6</ele>
        <time>2022-07-18T04:18:13Z</time>
      </trkpt>
      <trkpt lat="44.83512" lon="6.72148">
        <ele>1919.6</ele>
        <time>2022-07-18T04:18:14Z</time>
      </trkpt>
      <trkpt lat="44.83511" lon="6.72145">
        <ele>1920</ele>
        <time>2022-07-18T04:18:15Z</time>
      </trkpt>
      <trkpt lat="44.8351" lon="6.72142">
        <ele>1920</ele>
        <time>2022-07-18T04:18:16Z</time>
      </trkpt>
      <trkpt lat="44.83509" lon="6.7214">
        <ele>1920.2</ele>
        <time>2022-07-18T04:18:17Z</time>
      </trkpt>
      <trkpt lat="44.83507" lon="6.72138">
        <ele>1920.2</ele>
        <time>2022-07-18T04:18:18Z</time>
      </trkpt>
      <trkpt lat="44.83505" lon="6.72136">
        <ele>1920.2</ele>
        <time>2022-07-18T04:18:19Z</time>
      </trkpt>
      <trkpt lat="44.83503" lon="6.72136">
        <ele>1920.6</ele>
        <time>2022-07-18T04:18:20Z</time>
      </trkpt>
      <trkpt lat="44.835" lon="6.72137">
        <ele>1920.6</ele>
        <time>2022-07-18T04:18:21Z</time>
      </trkpt>
      <trkpt lat="44.83498" lon="6.72138">
        <ele>1920.8</ele>
        <time>2022-07-18T04:18:22Z</time>
      </trkpt>
      <trkpt lat="44.83496" lon="6.72141">
        <ele>1920.8</ele>
        <time>2022-07-18T04:18:23Z</time>
      </trkpt>
      <trkpt lat="44.83495" lon="6.72143">
        <ele>1921</ele>
        <time>2022-07-18T04:18:24Z</time>
      </trkpt>
      <trkpt lat="44.83493" lon="6.72146">
        <ele>1921</ele>
        <time>2022-07-18T04:18:25Z</time>
      </trkpt>
      <trkpt lat="44.83492" lon="6.72148">
        <ele>1921</ele>
        <time>2022-07-18T04:18:26Z</time>
      </trkpt>
      <trkpt lat="44.83491" lon="6.72151">
        <ele>1921.4</ele>
        <time>2022-07-18T04:18:27Z</time>
      </trkpt>
      <trkpt lat="44.8349" lon="6.72154">
        <ele>1921.4</ele>
        <time>2022-07-18T04:18:28Z</time>
      </trkpt>
      <trkpt lat="44.8349" lon="6.72158">
        <ele>1921.4</ele>
        <time>2022-07-18T04:18:29Z</time>
      </trkpt>
      <trkpt lat="44.83489" lon="6.72161">
        <ele>1921.8</ele>
        <time>2022-07-18T04:18:30Z</time>
      </trkpt>
      <trkpt lat="44.83487" lon="6.72164">
        <ele>1921.8</ele>
        <time>2022-07-18T04:18:31Z</time>
      </trkpt>
      <trkpt lat="44.83486" lon="6.72167">
        <ele>1922</ele>
        <time>2022-07-18T04:18:32Z</time>
      </trkpt>
      <trkpt lat="44.83485" lon="6.7217">
        <ele>1922</ele>
        <time>2022-07-18T04:18:33Z</time>
      </trkpt>
      <trkpt lat="44.83485" lon="6.72173">
        <ele>1922.2</ele>
        <time>2022-07-18T04:18:34Z</time>
      </trkpt>
      <trkpt lat="44.83484" lon="6.72176">
        <ele>1922.2</ele>
        <time>2022-07-18T04:18:35Z</time>
      </trkpt>
      <trkpt lat="44.83484" lon="6.72179">
        <ele>1922.6</ele>
        <time>2022-07-18T04:18:36Z</time>
      </trkpt>
      <trkpt lat="44.83483" lon="6.72181">
        <ele>1922.6</ele>
        <time>2022-07-18T04:18:37Z</time>
      </trkpt>
      <trkpt lat="44.83482" lon="6.72184">
        <ele>1923</ele>
        <time>2022-07-18T04:18:38Z</time>
      </trkpt>
      <trkpt lat="44.83482" lon="6.72187">
        <ele>1923</ele>
        <time>2022-07-18T04:18:39Z</time>
      </trkpt>
      <trkpt lat="44.83481" lon="6.7219">
        <ele>1923.2</ele>
        <time>2022-07-18T04:18:40Z</time>
      </trkpt>
      <trkpt lat="44.8348" lon="6.72193">
        <ele>1923.2</ele>
        <time>2022-07-18T04:18:41Z</time>
      </trkpt>
      <trkpt lat="44.83479" lon="6.72195">
        <ele>1923.6</ele>
        <time>2022-07-18T04:18:42Z</time>
      </trkpt>
      <trkpt lat="44.83477" lon="6.72198">
        <ele>1923.6</ele>
        <time>2022-07-18T04:18:43Z</time>
      </trkpt>
      <trkpt lat="44.83476" lon="6.722">
        <ele>1923.8</ele>
        <time>2022-07-18T04:18:44Z</time>
      </trkpt>
      <trkpt lat="44.83475" lon="6.72203">
        <ele>1924</ele>
        <time>2022-07-18T04:18:45Z</time>
      </trkpt>
      <trkpt lat="44.83475" lon="6.72206">
        <ele>1924.2</ele>
        <time>2022-07-18T04:18:46Z</time>
      </trkpt>
      <trkpt lat="44.83474" lon="6.72209">
        <ele>1924.2</ele>
        <time>2022-07-18T04:18:47Z</time>
      </trkpt>
      <trkpt lat="44.83473" lon="6.72212">
        <ele>1924.6</ele>
        <time>2022-07-18T04:18:48Z</time>
      </trkpt>
      <trkpt lat="44.83473" lon="6.72214">
        <ele>1924.6</ele>
        <time>2022-07-18T04:18:49Z</time>
      </trkpt>
      <trkpt lat="44.83472" lon="6.72217">
        <ele>1925</ele>
        <time>2022-07-18T04:18:50Z</time>
      </trkpt>
      <trkpt lat="44.83471" lon="6.7222">
        <ele>1925</ele>
        <time>2022-07-18T04:18:51Z</time>
      </trkpt>
      <trkpt lat="44.83471" lon="6.72223">
        <ele>1925.2</ele>
        <time>2022-07-18T04:18:52Z</time>
      </trkpt>
      <trkpt lat="44.8347" lon="6.72225">
        <ele>1925.2</ele>
        <time>2022-07-18T04:18:53Z</time>
      </trkpt>
      <trkpt lat="44.83469" lon="6.72228">
        <ele>1925.8</ele>
        <time>2022-07-18T04:18:54Z</time>
      </trkpt>
      <trkpt lat="44.83468" lon="6.7223">
        <ele>1925.8</ele>
        <time>2022-07-18T04:18:55Z</time>
      </trkpt>
      <trkpt lat="44.83467" lon="6.72233">
        <ele>1926</ele>
        <time>2022-07-18T04:18:56Z</time>
      </trkpt>
      <trkpt lat="44.83467" lon="6.72235">
        <ele>1926</ele>
        <time>2022-07-18T04:18:57Z</time>
      </trkpt>
      <trkpt lat="44.83466" lon="6.72238">
        <ele>1926.4</ele>
        <time>2022-07-18T04:18:58Z</time>
      </trkpt>
      <trkpt lat="44.83465" lon="6.7224">
        <ele>1926.8</ele>
        <time>2022-07-18T04:18:59Z</time>
      </trkpt>
      <trkpt lat="44.83465" lon="6.72243">
        <ele>1926.8</ele>
        <time>2022-07-18T04:19:00Z</time>
      </trkpt>
      <trkpt lat="44.83465" lon="6.72246">
        <ele>1927</ele>
        <time>2022-07-18T04:19:01Z</time>
      </trkpt>
      <trkpt lat="44.83465" lon="6.72248">
        <ele>1927.2</ele>
        <time>2022-07-18T04:19:02Z</time>
      </trkpt>
      <trkpt lat="44.83465" lon="6.72251">
        <ele>1927.4</ele>
        <time>2022-07-18T04:19:03Z</time>
      </trkpt>
      <trkpt lat="44.83464" lon="6.72254">
        <ele>1927.8</ele>
        <time>2022-07-18T04:19:04Z</time>
      </trkpt>
      <trkpt lat="44.83464" lon="6.72257">
        <ele>1928</ele>
        <time>2022-07-18T04:19:05Z</time>
      </trkpt>
      <trkpt lat="44.83464" lon="6.7226">
        <ele>1928.2</ele>
        <time>2022-07-18T04:19:06Z</time>
      </trkpt>
      <trkpt lat="44.83463" lon="6.72263">
        <ele>1928.2</ele>
        <time>2022-07-18T04:19:07Z</time>
      </trkpt>
      <trkpt lat="44.83463" lon="6.72265">
        <ele>1928.4</ele>
        <time>2022-07-18T04:19:08Z</time>
      </trkpt>
      <trkpt lat="44.83462" lon="6.72268">
        <ele>1928.6</ele>
        <time>2022-07-18T04:19:09Z</time>
      </trkpt>
      <trkpt lat="44.83461" lon="6.7227">
        <ele>1928.6</ele>
        <time>2022-07-18T04:19:10Z</time>
      </trkpt>
      <trkpt lat="44.83461" lon="6.72273">
        <ele>1929</ele>
        <time>2022-07-18T04:19:11Z</time>
      </trkpt>
      <trkpt lat="44.8346" lon="6.72276">
        <ele>1929.2</ele>
        <time>2022-07-18T04:19:12Z</time>
      </trkpt>
      <trkpt lat="44.83459" lon="6.72278">
        <ele>1929.2</ele>
        <time>2022-07-18T04:19:13Z</time>
      </trkpt>
      <trkpt lat="44.83459" lon="6.72281">
        <ele>1929.6</ele>
        <time>2022-07-18T04:19:14Z</time>
      </trkpt>
      <trkpt lat="44.83458" lon="6.72284">
        <ele>1929.6</ele>
        <time>2022-07-18T04:19:15Z</time>
      </trkpt>
      <trkpt lat="44.83458" lon="6.72286">
        <ele>1930</ele>
        <time>2022-07-18T04:19:16Z</time>
      </trkpt>
      <trkpt lat="44.83458" lon="6.72289">
        <ele>1930</ele>
        <time>2022-07-18T04:19:17Z</time>
      </trkpt>
      <trkpt lat="44.83457" lon="6.72292">
        <ele>1930.2</ele>
        <time>2022-07-18T04:19:18Z</time>
      </trkpt>
      <trkpt lat="44.83456" lon="6.72294">
        <ele>1930.2</ele>
        <time>2022-07-18T04:19:19Z</time>
      </trkpt>
      <trkpt lat="44.83456" lon="6.72297">
        <ele>1930.6</ele>
        <time>2022-07-18T04:19:20Z</time>
      </trkpt>
      <trkpt lat="44.83455" lon="6.72299">
        <ele>1930.8</ele>
        <time>2022-07-18T04:19:21Z</time>
      </trkpt>
      <trkpt lat="44.83454" lon="6.72301">
        <ele>1930.8</ele>
        <time>2022-07-18T04:19:22Z</time>
      </trkpt>
      <trkpt lat="44.83453" lon="6.72303">
        <ele>1931.2</ele>
        <time>2022-07-18T04:19:23Z</time>
      </trkpt>
      <trkpt lat="44.83451" lon="6.72305">
        <ele>1931.4</ele>
        <time>2022-07-18T04:19:24Z</time>
      </trkpt>
      <trkpt lat="44.8345" lon="6.72308">
        <ele>1931.8</ele>
        <time>2022-07-18T04:19:25Z</time>
      </trkpt>
      <trkpt lat="44.83448" lon="6.7231">
        <ele>1932</ele>
        <time>2022-07-18T04:19:26Z</time>
      </trkpt>
      <trkpt lat="44.83447" lon="6.72312">
        <ele>1932</ele>
        <time>2022-07-18T04:19:27Z</time>
      </trkpt>
      <trkpt lat="44.83445" lon="6.72315">
        <ele>1932.4</ele>
        <time>2022-07-18T04:19:28Z</time>
      </trkpt>
      <trkpt lat="44.83444" lon="6.72317">
        <ele>1932.8</ele>
        <time>2022-07-18T04:19:29Z</time>
      </trkpt>
      <trkpt lat="44.83442" lon="6.72319">
        <ele>1933</ele>
        <time>2022-07-18T04:19:30Z</time>
      </trkpt>
      <trkpt lat="44.8344" lon="6.7232">
        <ele>1933</ele>
        <time>2022-07-18T04:19:31Z</time>
      </trkpt>
      <trkpt lat="44.83439" lon="6.72322">
        <ele>1933.2</ele>
        <time>2022-07-18T04:19:32Z</time>
      </trkpt>
      <trkpt lat="44.83437" lon="6.72325">
        <ele>1933.2</ele>
        <time>2022-07-18T04:19:33Z</time>
      </trkpt>
      <trkpt lat="44.83435" lon="6.72327">
        <ele>1933.4</ele>
        <time>2022-07-18T04:19:34Z</time>
      </trkpt>
      <trkpt lat="44.83433" lon="6.72329">
        <ele>1933.4</ele>
        <time>2022-07-18T04:19:35Z</time>
      </trkpt>
      <trkpt lat="44.83432" lon="6.72331">
        <ele>1933.8</ele>
        <time>2022-07-18T04:19:36Z</time>
      </trkpt>
      <trkpt lat="44.83431" lon="6.72333">
        <ele>1934</ele>
        <time>2022-07-18T04:19:37Z</time>
      </trkpt>
      <trkpt lat="44.83429" lon="6.72335">
        <ele>1934.2</ele>
        <time>2022-07-18T04:19:38Z</time>
      </trkpt>
      <trkpt lat="44.83427" lon="6.72337">
        <ele>1934.6</ele>
        <time>2022-07-18T04:19:39Z</time>
      </trkpt>
      <trkpt lat="44.83426" lon="6.72339">
        <ele>1934.8</ele>
        <time>2022-07-18T04:19:40Z</time>
      </trkpt>
      <trkpt lat="44.83424" lon="6.72341">
        <ele>1935</ele>
        <time>2022-07-18T04:19:41Z</time>
      </trkpt>
      <trkpt lat="44.83423" lon="6.72343">
        <ele>1935.2</ele>
        <time>2022-07-18T04:19:42Z</time>
      </trkpt>
      <trkpt lat="44.83421" lon="6.72344">
        <ele>1935.4</ele>
        <time>2022-07-18T04:19:43Z</time>
      </trkpt>
      <trkpt lat="44.8342" lon="6.72346">
        <ele>1935.4</ele>
        <time>2022-07-18T04:19:44Z</time>
      </trkpt>
      <trkpt lat="44.83419" lon="6.72348">
        <ele>1935.6</ele>
        <time>2022-07-18T04:19:45Z</time>
      </trkpt>
      <trkpt lat="44.83418" lon="6.7235">
        <ele>1935.6</ele>
        <time>2022-07-18T04:19:46Z</time>
      </trkpt>
      <trkpt lat="44.83416" lon="6.72351">
        <ele>1936</ele>
        <time>2022-07-18T04:19:47Z</time>
      </trkpt>
      <trkpt lat="44.83415" lon="6.72352">
        <ele>1936.2</ele>
        <time>2022-07-18T04:19:48Z</time>
      </trkpt>
      <trkpt lat="44.83413" lon="6.72354">
        <ele>1936.4</ele>
        <time>2022-07-18T04:19:49Z</time>
      </trkpt>
      <trkpt lat="44.83411" lon="6.72355">
        <ele>1936.4</ele>
        <time>2022-07-18T04:19:50Z</time>
      </trkpt>
      <trkpt lat="44.8341" lon="6.72356">
        <ele>1936.8</ele>
        <time>2022-07-18T04:19:51Z</time>
      </trkpt>
      <trkpt lat="44.83408" lon="6.72357">
        <ele>1937</ele>
        <time>2022-07-18T04:19:52Z</time>
      </trkpt>
      <trkpt lat="44.83407" lon="6.72358">
        <ele>1937.2</ele>
        <time>2022-07-18T04:19:53Z</time>
      </trkpt>
      <trkpt lat="44.83405" lon="6.72358">
        <ele>1937.6</ele>
        <time>2022-07-18T04:19:54Z</time>
      </trkpt>
      <trkpt lat="44.83404" lon="6.72357">
        <ele>1937.8</ele>
        <time>2022-07-18T04:19:55Z</time>
      </trkpt>
      <trkpt lat="44.83402" lon="6.72357">
        <ele>1938</ele>
        <time>2022-07-18T04:19:56Z</time>
      </trkpt>
      <trkpt lat="44.83401" lon="6.72356">
        <ele>1938</ele>
        <time>2022-07-18T04:19:57Z</time>
      </trkpt>
      <trkpt lat="44.834" lon="6.72354">
        <ele>1938.4</ele>
        <time>2022-07-18T04:19:58Z</time>
      </trkpt>
      <trkpt lat="44.83399" lon="6.72352">
        <ele>1938.6</ele>
        <time>2022-07-18T04:19:59Z</time>
      </trkpt>
      <trkpt lat="44.83398" lon="6.7235">
        <ele>1938.6</ele>
        <time>2022-07-18T04:20:00Z</time>
      </trkpt>
      <trkpt lat="44.83398" lon="6.72347">
        <ele>1938.8</ele>
        <time>2022-07-18T04:20:01Z</time>
      </trkpt>
      <trkpt lat="44.83398" lon="6.72344">
        <ele>1938.8</ele>
        <time>2022-07-18T04:20:02Z</time>
      </trkpt>
      <trkpt lat="44.83399" lon="6.72341">
        <ele>1939.2</ele>
        <time>2022-07-18T04:20:03Z</time>
      </trkpt>
      <trkpt lat="44.834" lon="6.72338">
        <ele>1939.2</ele>
        <time>2022-07-18T04:20:04Z</time>
      </trkpt>
      <trkpt lat="44.834" lon="6.72336">
        <ele>1939.4</ele>
        <time>2022-07-18T04:20:05Z</time>
      </trkpt>
      <trkpt lat="44.83401" lon="6.72333">
        <ele>1939.4</ele>
        <time>2022-07-18T04:20:06Z</time>
      </trkpt>
      <trkpt lat="44.83402" lon="6.72331">
        <ele>1939.6</ele>
        <time>2022-07-18T04:20:07Z</time>
      </trkpt>
      <trkpt lat="44.83404" lon="6.72329">
        <ele>1939.8</ele>
        <time>2022-07-18T04:20:08Z</time>
      </trkpt>
      <trkpt lat="44.83405" lon="6.72327">
        <ele>1940.2</ele>
        <time>2022-07-18T04:20:09Z</time>
      </trkpt>
      <trkpt lat="44.83406" lon="6.72325">
        <ele>1940.2</ele>
        <time>2022-07-18T04:20:10Z</time>
      </trkpt>
      <trkpt lat="44.83407" lon="6.72322">
        <ele>1940.4</ele>
        <time>2022-07-18T04:20:11Z</time>
      </trkpt>
      <trkpt lat="44.83409" lon="6.7232">
        <ele>1940.4</ele>
        <time>2022-07-18T04:20:12Z</time>
      </trkpt>
      <trkpt lat="44.83409" lon="6.72317">
        <ele>1940.6</ele>
        <time>2022-07-18T04:20:13Z</time>
      </trkpt>
      <trkpt lat="44.8341" lon="6.72315">
        <ele>1940.6</ele>
        <time>2022-07-18T04:20:14Z</time>
      </trkpt>
      <trkpt lat="44.83411" lon="6.72312">
        <ele>1941</ele>
        <time>2022-07-18T04:20:15Z</time>
      </trkpt>
      <trkpt lat="44.83412" lon="6.72309">
        <ele>1941.2</ele>
        <time>2022-07-18T04:20:16Z</time>
      </trkpt>
      <trkpt lat="44.83412" lon="6.72307">
        <ele>1941.2</ele>
        <time>2022-07-18T04:20:17Z</time>
      </trkpt>
      <trkpt lat="44.83413" lon="6.72304">
        <ele>1941.6</ele>
        <time>2022-07-18T04:20:18Z</time>
      </trkpt>
      <trkpt lat="44.83414" lon="6.72301">
        <ele>1941.8</ele>
        <time>2022-07-18T04:20:19Z</time>
      </trkpt>
      <trkpt lat="44.83415" lon="6.72299">
        <ele>1941.8</ele>
        <time>2022-07-18T04:20:20Z</time>
      </trkpt>
      <trkpt lat="44.83416" lon="6.72296">
        <ele>1942</ele>
        <time>2022-07-18T04:20:21Z</time>
      </trkpt>
      <trkpt lat="44.83417" lon="6.72294">
        <ele>1942</ele>
        <time>2022-07-18T04:20:22Z</time>
      </trkpt>
      <trkpt lat="44.83418" lon="6.72291">
        <ele>1942.2</ele>
        <time>2022-07-18T04:20:23Z</time>
      </trkpt>
      <trkpt lat="44.83419" lon="6.72288">
        <ele>1942.2</ele>
        <time>2022-07-18T04:20:24Z</time>
      </trkpt>
      <trkpt lat="44.8342" lon="6.72286">
        <ele>1942.6</ele>
        <time>2022-07-18T04:20:25Z</time>
      </trkpt>
      <trkpt lat="44.83421" lon="6.72284">
        <ele>1942.6</ele>
        <time>2022-07-18T04:20:26Z</time>
      </trkpt>
      <trkpt lat="44.83421" lon="6.72281">
        <ele>1942.8</ele>
        <time>2022-07-18T04:20:27Z</time>
      </trkpt>
      <trkpt lat="44.83422" lon="6.72279">
        <ele>1942.8</ele>
        <time>2022-07-18T04:20:28Z</time>
      </trkpt>
      <trkpt lat="44.83423" lon="6.72276">
        <ele>1943.2</ele>
        <time>2022-07-18T04:20:29Z</time>
      </trkpt>
      <trkpt lat="44.83423" lon="6.72273">
        <ele>1943.4</ele>
        <time>2022-07-18T04:20:30Z</time>
      </trkpt>
      <trkpt lat="44.83424" lon="6.72271">
        <ele>1943.8</ele>
        <time>2022-07-18T04:20:31Z</time>
      </trkpt>
      <trkpt lat="44.83425" lon="6.72268">
        <ele>1943.8</ele>
        <time>2022-07-18T04:20:32Z</time>
      </trkpt>
      <trkpt lat="44.83425" lon="6.72266">
        <ele>1944</ele>
        <time>2022-07-18T04:20:33Z</time>
      </trkpt>
      <trkpt lat="44.83426" lon="6.72263">
        <ele>1944</ele>
        <time>2022-07-18T04:20:34Z</time>
      </trkpt>
      <trkpt lat="44.83427" lon="6.7226">
        <ele>1944.4</ele>
        <time>2022-07-18T04:20:35Z</time>
      </trkpt>
      <trkpt lat="44.83428" lon="6.72257">
        <ele>1944.4</ele>
        <time>2022-07-18T04:20:36Z</time>
      </trkpt>
      <trkpt lat="44.83428" lon="6.72254">
        <ele>1944.8</ele>
        <time>2022-07-18T04:20:37Z</time>
      </trkpt>
      <trkpt lat="44.83428" lon="6.72251">
        <ele>1945</ele>
        <time>2022-07-18T04:20:38Z</time>
      </trkpt>
      <trkpt lat="44.83428" lon="6.72248">
        <ele>1945.2</ele>
        <time>2022-07-18T04:20:39Z</time>
      </trkpt>
      <trkpt lat="44.83428" lon="6.72245">
        <ele>1945.2</ele>
        <time>2022-07-18T04:20:40Z</time>
      </trkpt>
      <trkpt lat="44.83428" lon="6.72242">
        <ele>1945.6</ele>
        <time>2022-07-18T04:20:41Z</time>
      </trkpt>
      <trkpt lat="44.83427" lon="6.72239">
        <ele>1945.6</ele>
        <time>2022-07-18T04:20:42Z</time>
      </trkpt>
      <trkpt lat="44.83426" lon="6.72237">
        <ele>1945.8</ele>
        <time>2022-07-18T04:20:43Z</time>
      </trkpt>
      <trkpt lat="44.83424" lon="6.72235">
        <ele>1945.8</ele>
        <time>2022-07-18T04:20:44Z</time>
      </trkpt>
      <trkpt lat="44.83421" lon="6.72233">
        <ele>1945.8</ele>
        <time>2022-07-18T04:20:45Z</time>
      </trkpt>
      <trkpt lat="44.83419" lon="6.72232">
        <ele>1946</ele>
        <time>2022-07-18T04:20:46Z</time>
      </trkpt>
      <trkpt lat="44.83416" lon="6.72232">
        <ele>1946.4</ele>
        <time>2022-07-18T04:20:47Z</time>
      </trkpt>
      <trkpt lat="44.83414" lon="6.72233">
        <ele>1946.4</ele>
        <time>2022-07-18T04:20:48Z</time>
      </trkpt>
      <trkpt lat="44.83412" lon="6.72234">
        <ele>1946.6</ele>
        <time>2022-07-18T04:20:49Z</time>
      </trkpt>
      <trkpt lat="44.8341" lon="6.72236">
        <ele>1946.6</ele>
        <time>2022-07-18T04:20:50Z</time>
      </trkpt>
      <trkpt lat="44.83408" lon="6.72238">
        <ele>1946.6</ele>
        <time>2022-07-18T04:20:51Z</time>
      </trkpt>
      <trkpt lat="44.83407" lon="6.72241">
        <ele>1946.8</ele>
        <time>2022-07-18T04:20:52Z</time>
      </trkpt>
      <trkpt lat="44.83405" lon="6.72244">
        <ele>1946.8</ele>
        <time>2022-07-18T04:20:53Z</time>
      </trkpt>
      <trkpt lat="44.83404" lon="6.72246">
        <ele>1947</ele>
        <time>2022-07-18T04:20:54Z</time>
      </trkpt>
      <trkpt lat="44.83403" lon="6.72249">
        <ele>1947</ele>
        <time>2022-07-18T04:20:55Z</time>
      </trkpt>
      <trkpt lat="44.83402" lon="6.72251">
        <ele>1947.4</ele>
        <time>2022-07-18T04:20:56Z</time>
      </trkpt>
      <trkpt lat="44.83401" lon="6.72253">
        <ele>1947.4</ele>
        <time>2022-07-18T04:20:57Z</time>
      </trkpt>
      <trkpt lat="44.83401" lon="6.72256">
        <ele>1947.6</ele>
        <time>2022-07-18T04:20:58Z</time>
      </trkpt>
      <trkpt lat="44.834" lon="6.72258">
        <ele>1947.8</ele>
        <time>2022-07-18T04:20:59Z</time>
      </trkpt>
      <trkpt lat="44.83399" lon="6.7226">
        <ele>1948.2</ele>
        <time>2022-07-18T04:21:00Z</time>
      </trkpt>
      <trkpt lat="44.83398" lon="6.72262">
        <ele>1948.6</ele>
        <time>2022-07-18T04:21:01Z</time>
      </trkpt>
      <trkpt lat="44.83396" lon="6.72264">
        <ele>1948.6</ele>
        <time>2022-07-18T04:21:02Z</time>
      </trkpt>
      <trkpt lat="44.83394" lon="6.72266">
        <ele>1948.8</ele>
        <time>2022-07-18T04:21:03Z</time>
      </trkpt>
      <trkpt lat="44.83393" lon="6.72267">
        <ele>1948.8</ele>
        <time>2022-07-18T04:21:04Z</time>
      </trkpt>
      <trkpt lat="44.83391" lon="6.72269">
        <ele>1949</ele>
        <time>2022-07-18T04:21:05Z</time>
      </trkpt>
      <trkpt lat="44.83389" lon="6.72271">
        <ele>1949</ele>
        <time>2022-07-18T04:21:06Z</time>
      </trkpt>
      <trkpt lat="44.83387" lon="6.72272">
        <ele>1949</ele>
        <time>2022-07-18T04:21:07Z</time>
      </trkpt>
      <trkpt lat="44.83386" lon="6.72274">
        <ele>1949.4</ele>
        <time>2022-07-18T04:21:08Z</time>
      </trkpt>
      <trkpt lat="44.83384" lon="6.72276">
        <ele>1949.4</ele>
        <time>2022-07-18T04:21:09Z</time>
      </trkpt>
      <trkpt lat="44.83382" lon="6.72277">
        <ele>1949.8</ele>
        <time>2022-07-18T04:21:10Z</time>
      </trkpt>
      <trkpt lat="44.83381" lon="6.72279">
        <ele>1949.8</ele>
        <time>2022-07-18T04:21:11Z</time>
      </trkpt>
      <trkpt lat="44.83379" lon="6.7228">
        <ele>1950</ele>
        <time>2022-07-18T04:21:12Z</time>
      </trkpt>
      <trkpt lat="44.83377" lon="6.72281">
        <ele>1950</ele>
        <time>2022-07-18T04:21:13Z</time>
      </trkpt>
      <trkpt lat="44.83375" lon="6.72282">
        <ele>1950.4</ele>
        <time>2022-07-18T04:21:14Z</time>
      </trkpt>
      <trkpt lat="44.83373" lon="6.72283">
        <ele>1950.4</ele>
        <time>2022-07-18T04:21:15Z</time>
      </trkpt>
      <trkpt lat="44.83371" lon="6.72284">
        <ele>1950.8</ele>
        <time>2022-07-18T04:21:16Z</time>
      </trkpt>
      <trkpt lat="44.8337" lon="6.72286">
        <ele>1950.8</ele>
        <time>2022-07-18T04:21:17Z</time>
      </trkpt>
      <trkpt lat="44.83368" lon="6.72287">
        <ele>1951.2</ele>
        <time>2022-07-18T04:21:18Z</time>
      </trkpt>
      <trkpt lat="44.83367" lon="6.72289">
        <ele>1951.2</ele>
        <time>2022-07-18T04:21:19Z</time>
      </trkpt>
      <trkpt lat="44.83365" lon="6.72291">
        <ele>1951.4</ele>
        <time>2022-07-18T04:21:20Z</time>
      </trkpt>
      <trkpt lat="44.83364" lon="6.72293">
        <ele>1951.6</ele>
        <time>2022-07-18T04:21:21Z</time>
      </trkpt>
      <trkpt lat="44.83362" lon="6.72294">
        <ele>1951.8</ele>
        <time>2022-07-18T04:21:22Z</time>
      </trkpt>
      <trkpt lat="44.8336" lon="6.72296">
        <ele>1952.2</ele>
        <time>2022-07-18T04:21:23Z</time>
      </trkpt>
      <trkpt lat="44.83359" lon="6.72298">
        <ele>1952.4</ele>
        <time>2022-07-18T04:21:24Z</time>
      </trkpt>
      <trkpt lat="44.83357" lon="6.72299">
        <ele>1952.6</ele>
        <time>2022-07-18T04:21:25Z</time>
      </trkpt>
      <trkpt lat="44.83355" lon="6.72301">
        <ele>1952.6</ele>
        <time>2022-07-18T04:21:26Z</time>
      </trkpt>
      <trkpt lat="44.83353" lon="6.72302">
        <ele>1953</ele>
        <time>2022-07-18T04:21:27Z</time>
      </trkpt>
      <trkpt lat="44.83351" lon="6.72302">
        <ele>1953</ele>
        <time>2022-07-18T04:21:28Z</time>
      </trkpt>
      <trkpt lat="44.83349" lon="6.72303">
        <ele>1953.4</ele>
        <time>2022-07-18T04:21:29Z</time>
      </trkpt>
      <trkpt lat="44.83348" lon="6.72304">
        <ele>1953.4</ele>
        <time>2022-07-18T04:21:30Z</time>
      </trkpt>
      <trkpt lat="44.83346" lon="6.72304">
        <ele>1953.6</ele>
        <time>2022-07-18T04:21:31Z</time>
      </trkpt>
      <trkpt lat="44.83344" lon="6.72305">
        <ele>1954</ele>
        <time>2022-07-18T04:21:32Z</time>
      </trkpt>
      <trkpt lat="44.83342" lon="6.72306">
        <ele>1954.2</ele>
        <time>2022-07-18T04:21:33Z</time>
      </trkpt>
      <trkpt lat="44.8334" lon="6.72307">
        <ele>1954.2</ele>
        <time>2022-07-18T04:21:34Z</time>
      </trkpt>
      <trkpt lat="44.83338" lon="6.72308">
        <ele>1954.6</ele>
        <time>2022-07-18T04:21:35Z</time>
      </trkpt>
      <trkpt lat="44.83337" lon="6.7231">
        <ele>1954.6</ele>
        <time>2022-07-18T04:21:36Z</time>
      </trkpt>
      <trkpt lat="44.83335" lon="6.72311">
        <ele>1954.6</ele>
        <time>2022-07-18T04:21:37Z</time>
      </trkpt>
      <trkpt lat="44.83334" lon="6.72312">
        <ele>1954.8</ele>
        <time>2022-07-18T04:21:38Z</time>
      </trkpt>
      <trkpt lat="44.83332" lon="6.72313">
        <ele>1954.8</ele>
        <time>2022-07-18T04:21:39Z</time>
      </trkpt>
      <trkpt lat="44.8333" lon="6.72314">
        <ele>1955.4</ele>
        <time>2022-07-18T04:21:41Z</time>
      </trkpt>
      <trkpt lat="44.83328" lon="6.72315">
        <ele>1955.4</ele>
        <time>2022-07-18T04:21:42Z</time>
      </trkpt>
      <trkpt lat="44.83326" lon="6.72316">
        <ele>1955.8</ele>
        <time>2022-07-18T04:21:43Z</time>
      </trkpt>
      <trkpt lat="44.83325" lon="6.72317">
        <ele>1955.8</ele>
        <time>2022-07-18T04:21:44Z</time>
      </trkpt>
      <trkpt lat="44.83323" lon="6.72318">
        <ele>1956</ele>
        <time>2022-07-18T04:21:45Z</time>
      </trkpt>
      <trkpt lat="44.83321" lon="6.72319">
        <ele>1956</ele>
        <time>2022-07-18T04:21:46Z</time>
      </trkpt>
      <trkpt lat="44.83319" lon="6.72321">
        <ele>1956.2</ele>
        <time>2022-07-18T04:21:47Z</time>
      </trkpt>
      <trkpt lat="44.83318" lon="6.72322">
        <ele>1956.4</ele>
        <time>2022-07-18T04:21:48Z</time>
      </trkpt>
      <trkpt lat="44.83316" lon="6.72324">
        <ele>1956.8</ele>
        <time>2022-07-18T04:21:49Z</time>
      </trkpt>
      <trkpt lat="44.83314" lon="6.72325">
        <ele>1956.8</ele>
        <time>2022-07-18T04:21:50Z</time>
      </trkpt>
      <trkpt lat="44.83313" lon="6.72327">
        <ele>1957</ele>
        <time>2022-07-18T04:21:51Z</time>
      </trkpt>
      <trkpt lat="44.83311" lon="6.72329">
        <ele>1957.4</ele>
        <time>2022-07-18T04:21:52Z</time>
      </trkpt>
      <trkpt lat="44.8331" lon="6.7233">
        <ele>1957.6</ele>
        <time>2022-07-18T04:21:53Z</time>
      </trkpt>
      <trkpt lat="44.83309" lon="6.72333">
        <ele>1957.8</ele>
        <time>2022-07-18T04:21:54Z</time>
      </trkpt>
      <trkpt lat="44.83308" lon="6.72335">
        <ele>1958</ele>
        <time>2022-07-18T04:21:55Z</time>
      </trkpt>
      <trkpt lat="44.83307" lon="6.72338">
        <ele>1958.2</ele>
        <time>2022-07-18T04:21:56Z</time>
      </trkpt>
      <trkpt lat="44.83306" lon="6.7234">
        <ele>1958.2</ele>
        <time>2022-07-18T04:21:57Z</time>
      </trkpt>
      <trkpt lat="44.83305" lon="6.72343">
        <ele>1958.6</ele>
        <time>2022-07-18T04:21:58Z</time>
      </trkpt>
      <trkpt lat="44.83304" lon="6.72345">
        <ele>1958.6</ele>
        <time>2022-07-18T04:21:59Z</time>
      </trkpt>
      <trkpt lat="44.83303" lon="6.72347">
        <ele>1959</ele>
        <time>2022-07-18T04:22:00Z</time>
      </trkpt>
      <trkpt lat="44.83301" lon="6.72349">
        <ele>1959</ele>
        <time>2022-07-18T04:22:01Z</time>
      </trkpt>
      <trkpt lat="44.83299" lon="6.7235">
        <ele>1959.4</ele>
        <time>2022-07-18T04:22:02Z</time>
      </trkpt>
      <trkpt lat="44.83297" lon="6.7235">
        <ele>1959.4</ele>
        <time>2022-07-18T04:22:03Z</time>
      </trkpt>
      <trkpt lat="44.83296" lon="6.7235">
        <ele>1959.6</ele>
        <time>2022-07-18T04:22:04Z</time>
      </trkpt>
      <trkpt lat="44.83295" lon="6.72349">
        <ele>1959.6</ele>
        <time>2022-07-18T04:22:05Z</time>
      </trkpt>
      <trkpt lat="44.83293" lon="6.72348">
        <ele>1960</ele>
        <time>2022-07-18T04:22:06Z</time>
      </trkpt>
      <trkpt lat="44.83293" lon="6.72346">
        <ele>1960</ele>
        <time>2022-07-18T04:22:07Z</time>
      </trkpt>
      <trkpt lat="44.83292" lon="6.72344">
        <ele>1960</ele>
        <time>2022-07-18T04:22:08Z</time>
      </trkpt>
      <trkpt lat="44.83292" lon="6.72341">
        <ele>1960.4</ele>
        <time>2022-07-18T04:22:09Z</time>
      </trkpt>
      <trkpt lat="44.83291" lon="6.72339">
        <ele>1960.4</ele>
        <time>2022-07-18T04:22:10Z</time>
      </trkpt>
      <trkpt lat="44.83291" lon="6.72336">
        <ele>1960.8</ele>
        <time>2022-07-18T04:22:11Z</time>
      </trkpt>
      <trkpt lat="44.83291" lon="6.72333">
        <ele>1960.8</ele>
        <time>2022-07-18T04:22:12Z</time>
      </trkpt>
      <trkpt lat="44.83292" lon="6.7233">
        <ele>1961</ele>
        <time>2022-07-18T04:22:13Z</time>
      </trkpt>
      <trkpt lat="44.83292" lon="6.72328">
        <ele>1961.4</ele>
        <time>2022-07-18T04:22:14Z</time>
      </trkpt>
      <trkpt lat="44.83293" lon="6.72325">
        <ele>1961.4</ele>
        <time>2022-07-18T04:22:15Z</time>
      </trkpt>
      <trkpt lat="44.83293" lon="6.72323">
        <ele>1961.4</ele>
        <time>2022-07-18T04:22:16Z</time>
      </trkpt>
      <trkpt lat="44.83294" lon="6.7232">
        <ele>1961.6</ele>
        <time>2022-07-18T04:22:17Z</time>
      </trkpt>
      <trkpt lat="44.83295" lon="6.72317">
        <ele>1961.6</ele>
        <time>2022-07-18T04:22:18Z</time>
      </trkpt>
      <trkpt lat="44.83296" lon="6.72315">
        <ele>1962</ele>
        <time>2022-07-18T04:22:19Z</time>
      </trkpt>
      <trkpt lat="44.83297" lon="6.72313">
        <ele>1962</ele>
        <time>2022-07-18T04:22:20Z</time>
      </trkpt>
      <trkpt lat="44.83298" lon="6.7231">
        <ele>1962.4</ele>
        <time>2022-07-18T04:22:21Z</time>
      </trkpt>
      <trkpt lat="44.83298" lon="6.72308">
        <ele>1962.6</ele>
        <time>2022-07-18T04:22:22Z</time>
      </trkpt>
      <trkpt lat="44.83299" lon="6.72305">
        <ele>1962.8</ele>
        <time>2022-07-18T04:22:23Z</time>
      </trkpt>
      <trkpt lat="44.83299" lon="6.72303">
        <ele>1963</ele>
        <time>2022-07-18T04:22:24Z</time>
      </trkpt>
      <trkpt lat="44.833" lon="6.723">
        <ele>1963.2</ele>
        <time>2022-07-18T04:22:25Z</time>
      </trkpt>
      <trkpt lat="44.83301" lon="6.72298">
        <ele>1963.6</ele>
        <time>2022-07-18T04:22:26Z</time>
      </trkpt>
      <trkpt lat="44.83302" lon="6.72295">
        <ele>1964</ele>
        <time>2022-07-18T04:22:27Z</time>
      </trkpt>
      <trkpt lat="44.83303" lon="6.72293">
        <ele>1964</ele>
        <time>2022-07-18T04:22:28Z</time>
      </trkpt>
      <trkpt lat="44.83305" lon="6.72292">
        <ele>1964.2</ele>
        <time>2022-07-18T04:22:29Z</time>
      </trkpt>
      <trkpt lat="44.83307" lon="6.7229">
        <ele>1964.2</ele>
        <time>2022-07-18T04:22:30Z</time>
      </trkpt>
      <trkpt lat="44.83309" lon="6.72289">
        <ele>1964.6</ele>
        <time>2022-07-18T04:22:31Z</time>
      </trkpt>
      <trkpt lat="44.8331" lon="6.72287">
        <ele>1965</ele>
        <time>2022-07-18T04:22:32Z</time>
      </trkpt>
      <trkpt lat="44.83311" lon="6.72285">
        <ele>1965.2</ele>
        <time>2022-07-18T04:22:33Z</time>
      </trkpt>
      <trkpt lat="44.83313" lon="6.72283">
        <ele>1965.4</ele>
        <time>2022-07-18T04:22:34Z</time>
      </trkpt>
      <trkpt lat="44.83314" lon="6.72281">
        <ele>1965.4</ele>
        <time>2022-07-18T04:22:35Z</time>
      </trkpt>
      <trkpt lat="44.83315" lon="6.72279">
        <ele>1966</ele>
        <time>2022-07-18T04:22:36Z</time>
      </trkpt>
      <trkpt lat="44.83316" lon="6.72277">
        <ele>1966</ele>
        <time>2022-07-18T04:22:37Z</time>
      </trkpt>
      <trkpt lat="44.83318" lon="6.72275">
        <ele>1966.4</ele>
        <time>2022-07-18T04:22:38Z</time>
      </trkpt>
      <trkpt lat="44.83319" lon="6.72273">
        <ele>1966.6</ele>
        <time>2022-07-18T04:22:39Z</time>
      </trkpt>
      <trkpt lat="44.83321" lon="6.72272">
        <ele>1966.6</ele>
        <time>2022-07-18T04:22:40Z</time>
      </trkpt>
      <trkpt lat="44.83322" lon="6.72271">
        <ele>1967</ele>
        <time>2022-07-18T04:22:41Z</time>
      </trkpt>
      <trkpt lat="44.83323" lon="6.72269">
        <ele>1967</ele>
        <time>2022-07-18T04:22:42Z</time>
      </trkpt>
      <trkpt lat="44.83325" lon="6.72267">
        <ele>1967.2</ele>
        <time>2022-07-18T04:22:43Z</time>
      </trkpt>
      <trkpt lat="44.83326" lon="6.72264">
        <ele>1967.2</ele>
        <time>2022-07-18T04:22:44Z</time>
      </trkpt>
      <trkpt lat="44.83327" lon="6.72262">
        <ele>1967.6</ele>
        <time>2022-07-18T04:22:45Z</time>
      </trkpt>
      <trkpt lat="44.83329" lon="6.7226">
        <ele>1967.8</ele>
        <time>2022-07-18T04:22:46Z</time>
      </trkpt>
      <trkpt lat="44.8333" lon="6.72258">
        <ele>1967.8</ele>
        <time>2022-07-18T04:22:47Z</time>
      </trkpt>
      <trkpt lat="44.83332" lon="6.72256">
        <ele>1967.8</ele>
        <time>2022-07-18T04:22:48Z</time>
      </trkpt>
      <trkpt lat="44.83333" lon="6.72254">
        <ele>1968.2</ele>
        <time>2022-07-18T04:22:49Z</time>
      </trkpt>
      <trkpt lat="44.83335" lon="6.72252">
        <ele>1968.2</ele>
        <time>2022-07-18T04:22:50Z</time>
      </trkpt>
      <trkpt lat="44.83336" lon="6.7225">
        <ele>1968.2</ele>
        <time>2022-07-18T04:22:51Z</time>
      </trkpt>
      <trkpt lat="44.83338" lon="6.72248">
        <ele>1968.4</ele>
        <time>2022-07-18T04:22:52Z</time>
      </trkpt>
      <trkpt lat="44.8334" lon="6.72245">
        <ele>1968.4</ele>
        <time>2022-07-18T04:22:53Z</time>
      </trkpt>
      <trkpt lat="44.83342" lon="6.72243">
        <ele>1968.4</ele>
        <time>2022-07-18T04:22:54Z</time>
      </trkpt>
      <trkpt lat="44.83343" lon="6.72241">
        <ele>1968.8</ele>
        <time>2022-07-18T04:22:55Z</time>
      </trkpt>
      <trkpt lat="44.83345" lon="6.72239">
        <ele>1968.8</ele>
        <time>2022-07-18T04:22:56Z</time>
      </trkpt>
      <trkpt lat="44.83347" lon="6.72238">
        <ele>1969</ele>
        <time>2022-07-18T04:22:57Z</time>
      </trkpt>
      <trkpt lat="44.83348" lon="6.72236">
        <ele>1969</ele>
        <time>2022-07-18T04:22:58Z</time>
      </trkpt>
      <trkpt lat="44.8335" lon="6.72234">
        <ele>1969</ele>
        <time>2022-07-18T04:22:59Z</time>
      </trkpt>
      <trkpt lat="44.83352" lon="6.72233">
        <ele>1969.2</ele>
        <time>2022-07-18T04:23:00Z</time>
      </trkpt>
      <trkpt lat="44.83353" lon="6.72231">
        <ele>1969.2</ele>
        <time>2022-07-18T04:23:01Z</time>
      </trkpt>
      <trkpt lat="44.83355" lon="6.72229">
        <ele>1969.6</ele>
        <time>2022-07-18T04:23:02Z</time>
      </trkpt>
      <trkpt lat="44.83357" lon="6.72228">
        <ele>1969.6</ele>
        <time>2022-07-18T04:23:03Z</time>
      </trkpt>
      <trkpt lat="44.83358" lon="6.72226">
        <ele>1969.8</ele>
        <time>2022-07-18T04:23:04Z</time>
      </trkpt>
      <trkpt lat="44.8336" lon="6.72224">
        <ele>1969.8</ele>
        <time>2022-07-18T04:23:05Z</time>
      </trkpt>
      <trkpt lat="44.83362" lon="6.72221">
        <ele>1970</ele>
        <time>2022-07-18T04:23:06Z</time>
      </trkpt>
      <trkpt lat="44.83364" lon="6.72219">
        <ele>1970</ele>
        <time>2022-07-18T04:23:07Z</time>
      </trkpt>
      <trkpt lat="44.83366" lon="6.72217">
        <ele>1970</ele>
        <time>2022-07-18T04:23:08Z</time>
      </trkpt>
      <trkpt lat="44.83368" lon="6.72215">
        <ele>1970.2</ele>
        <time>2022-07-18T04:23:09Z</time>
      </trkpt>
      <trkpt lat="44.83371" lon="6.72212">
        <ele>1970.2</ele>
        <time>2022-07-18T04:23:10Z</time>
      </trkpt>
      <trkpt lat="44.83373" lon="6.7221">
        <ele>1970.2</ele>
        <time>2022-07-18T04:23:11Z</time>
      </trkpt>
      <trkpt lat="44.83374" lon="6.72206">
        <ele>1970.2</ele>
        <time>2022-07-18T04:23:12Z</time>
      </trkpt>
      <trkpt lat="44.83375" lon="6.72203">
        <ele>1970.2</ele>
        <time>2022-07-18T04:23:13Z</time>
      </trkpt>
      <trkpt lat="44.83375" lon="6.722">
        <ele>1970.2</ele>
        <time>2022-07-18T04:23:14Z</time>
      </trkpt>
      <trkpt lat="44.83374" lon="6.72197">
        <ele>1970.4</ele>
        <time>2022-07-18T04:23:15Z</time>
      </trkpt>
      <trkpt lat="44.83373" lon="6.72194">
        <ele>1970.4</ele>
        <time>2022-07-18T04:23:16Z</time>
      </trkpt>
      <trkpt lat="44.83372" lon="6.72192">
        <ele>1970.4</ele>
        <time>2022-07-18T04:23:17Z</time>
      </trkpt>
      <trkpt lat="44.83371" lon="6.7219">
        <ele>1970.4</ele>
        <time>2022-07-18T04:23:18Z</time>
      </trkpt>
      <trkpt lat="44.83367" lon="6.7219">
        <ele>1970.8</ele>
        <time>2022-07-18T04:23:19Z</time>
      </trkpt>
      <trkpt lat="44.83365" lon="6.72191">
        <ele>1970.8</ele>
        <time>2022-07-18T04:23:20Z</time>
      </trkpt>
      <trkpt lat="44.83364" lon="6.72192">
        <ele>1970.8</ele>
        <time>2022-07-18T04:23:21Z</time>
      </trkpt>
      <trkpt lat="44.83362" lon="6.72194">
        <ele>1970.8</ele>
        <time>2022-07-18T04:23:22Z</time>
      </trkpt>
      <trkpt lat="44.8336" lon="6.72196">
        <ele>1970.8</ele>
        <time>2022-07-18T04:23:23Z</time>
      </trkpt>
      <trkpt lat="44.83358" lon="6.72199">
        <ele>1970.8</ele>
        <time>2022-07-18T04:23:24Z</time>
      </trkpt>
      <trkpt lat="44.83357" lon="6.72201">
        <ele>1970.8</ele>
        <time>2022-07-18T04:23:25Z</time>
      </trkpt>
      <trkpt lat="44.83355" lon="6.72203">
        <ele>1971</ele>
        <time>2022-07-18T04:23:26Z</time>
      </trkpt>
      <trkpt lat="44.83354" lon="6.72205">
        <ele>1971</ele>
        <time>2022-07-18T04:23:27Z</time>
      </trkpt>
      <trkpt lat="44.83353" lon="6.72208">
        <ele>1971.2</ele>
        <time>2022-07-18T04:23:28Z</time>
      </trkpt>
      <trkpt lat="44.83352" lon="6.72211">
        <ele>1971.2</ele>
        <time>2022-07-18T04:23:29Z</time>
      </trkpt>
      <trkpt lat="44.83351" lon="6.72214">
        <ele>1971.2</ele>
        <time>2022-07-18T04:23:30Z</time>
      </trkpt>
      <trkpt lat="44.8335" lon="6.72216">
        <ele>1971.4</ele>
        <time>2022-07-18T04:23:31Z</time>
      </trkpt>
      <trkpt lat="44.83348" lon="6.72218">
        <ele>1971.4</ele>
        <time>2022-07-18T04:23:32Z</time>
      </trkpt>
      <trkpt lat="44.83346" lon="6.7222">
        <ele>1971.8</ele>
        <time>2022-07-18T04:23:33Z</time>
      </trkpt>
      <trkpt lat="44.83344" lon="6.72222">
        <ele>1971.8</ele>
        <time>2022-07-18T04:23:34Z</time>
      </trkpt>
      <trkpt lat="44.83343" lon="6.72223">
        <ele>1972</ele>
        <time>2022-07-18T04:23:35Z</time>
      </trkpt>
      <trkpt lat="44.83341" lon="6.72225">
        <ele>1972</ele>
        <time>2022-07-18T04:23:36Z</time>
      </trkpt>
      <trkpt lat="44.83339" lon="6.72227">
        <ele>1972.4</ele>
        <time>2022-07-18T04:23:37Z</time>
      </trkpt>
      <trkpt lat="44.83337" lon="6.72228">
        <ele>1972.4</ele>
        <time>2022-07-18T04:23:38Z</time>
      </trkpt>
      <trkpt lat="44.83335" lon="6.72229">
        <ele>1972.8</ele>
        <time>2022-07-18T04:23:39Z</time>
      </trkpt>
      <trkpt lat="44.83333" lon="6.7223">
        <ele>1973</ele>
        <time>2022-07-18T04:23:40Z</time>
      </trkpt>
      <trkpt lat="44.83332" lon="6.72231">
        <ele>1973</ele>
        <time>2022-07-18T04:23:41Z</time>
      </trkpt>
      <trkpt lat="44.8333" lon="6.72232">
        <ele>1973.2</ele>
        <time>2022-07-18T04:23:42Z</time>
      </trkpt>
      <trkpt lat="44.83328" lon="6.72233">
        <ele>1973.2</ele>
        <time>2022-07-18T04:23:43Z</time>
      </trkpt>
      <trkpt lat="44.83326" lon="6.72234">
        <ele>1973.2</ele>
        <time>2022-07-18T04:23:44Z</time>
      </trkpt>
      <trkpt lat="44.83324" lon="6.72234">
        <ele>1973.4</ele>
        <time>2022-07-18T04:23:45Z</time>
      </trkpt>
      <trkpt lat="44.83322" lon="6.72235">
        <ele>1973.6</ele>
        <time>2022-07-18T04:23:46Z</time>
      </trkpt>
      <trkpt lat="44.8332" lon="6.72236">
        <ele>1973.8</ele>
        <time>2022-07-18T04:23:47Z</time>
      </trkpt>
      <trkpt lat="44.83318" lon="6.72236">
        <ele>1973.8</ele>
        <time>2022-07-18T04:23:48Z</time>
      </trkpt>
      <trkpt lat="44.83316" lon="6.72237">
        <ele>1974.2</ele>
        <time>2022-07-18T04:23:49Z</time>
      </trkpt>
      <trkpt lat="44.83315" lon="6.72237">
        <ele>1974.4</ele>
        <time>2022-07-18T04:23:50Z</time>
      </trkpt>
      <trkpt lat="44.83313" lon="6.72237">
        <ele>1974.6</ele>
        <time>2022-07-18T04:23:51Z</time>
      </trkpt>
      <trkpt lat="44.83311" lon="6.72238">
        <ele>1974.8</ele>
        <time>2022-07-18T04:23:52Z</time>
      </trkpt>
      <trkpt lat="44.83309" lon="6.72239">
        <ele>1975.2</ele>
        <time>2022-07-18T04:23:53Z</time>
      </trkpt>
      <trkpt lat="44.83308" lon="6.72239">
        <ele>1975.4</ele>
        <time>2022-07-18T04:23:54Z</time>
      </trkpt>
      <trkpt lat="44.83306" lon="6.7224">
        <ele>1975.6</ele>
        <time>2022-07-18T04:23:55Z</time>
      </trkpt>
      <trkpt lat="44.83303" lon="6.7224">
        <ele>1975.8</ele>
        <time>2022-07-18T04:23:56Z</time>
      </trkpt>
      <trkpt lat="44.83302" lon="6.7224">
        <ele>1975.8</ele>
        <time>2022-07-18T04:23:57Z</time>
      </trkpt>
      <trkpt lat="44.833" lon="6.72241">
        <ele>1976.4</ele>
        <time>2022-07-18T04:23:58Z</time>
      </trkpt>
      <trkpt lat="44.83298" lon="6.72241">
        <ele>1976.6</ele>
        <time>2022-07-18T04:23:59Z</time>
      </trkpt>
      <trkpt lat="44.83296" lon="6.72242">
        <ele>1976.8</ele>
        <time>2022-07-18T04:24:00Z</time>
      </trkpt>
      <trkpt lat="44.83294" lon="6.72242">
        <ele>1977.2</ele>
        <time>2022-07-18T04:24:01Z</time>
      </trkpt>
      <trkpt lat="44.83293" lon="6.72244">
        <ele>1977.4</ele>
        <time>2022-07-18T04:24:02Z</time>
      </trkpt>
      <trkpt lat="44.83291" lon="6.72244">
        <ele>1977.6</ele>
        <time>2022-07-18T04:24:03Z</time>
      </trkpt>
      <trkpt lat="44.8329" lon="6.72245">
        <ele>1977.8</ele>
        <time>2022-07-18T04:24:04Z</time>
      </trkpt>
      <trkpt lat="44.83288" lon="6.72246">
        <ele>1978</ele>
        <time>2022-07-18T04:24:05Z</time>
      </trkpt>
      <trkpt lat="44.83286" lon="6.72247">
        <ele>1978.2</ele>
        <time>2022-07-18T04:24:06Z</time>
      </trkpt>
      <trkpt lat="44.83284" lon="6.72248">
        <ele>1978.6</ele>
        <time>2022-07-18T04:24:07Z</time>
      </trkpt>
      <trkpt lat="44.83282" lon="6.72248">
        <ele>1978.8</ele>
        <time>2022-07-18T04:24:08Z</time>
      </trkpt>
      <trkpt lat="44.83281" lon="6.72249">
        <ele>1979</ele>
        <time>2022-07-18T04:24:09Z</time>
      </trkpt>
      <trkpt lat="44.83279" lon="6.7225">
        <ele>1979.2</ele>
        <time>2022-07-18T04:24:10Z</time>
      </trkpt>
      <trkpt lat="44.83276" lon="6.72251">
        <ele>1979.2</ele>
        <time>2022-07-18T04:24:11Z</time>
      </trkpt>
      <trkpt lat="44.83275" lon="6.72252">
        <ele>1979.6</ele>
        <time>2022-07-18T04:24:12Z</time>
      </trkpt>
      <trkpt lat="44.83272" lon="6.72253">
        <ele>1979.8</ele>
        <time>2022-07-18T04:24:13Z</time>
      </trkpt>
      <trkpt lat="44.83271" lon="6.72254">
        <ele>1979.8</ele>
        <time>2022-07-18T04:24:14Z</time>
      </trkpt>
      <trkpt lat="44.83269" lon="6.72255">
        <ele>1980.2</ele>
        <time>2022-07-18T04:24:15Z</time>
      </trkpt>
      <trkpt lat="44.83268" lon="6.72256">
        <ele>1980.6</ele>
        <time>2022-07-18T04:24:16Z</time>
      </trkpt>
      <trkpt lat="44.83266" lon="6.72257">
        <ele>1980.8</ele>
        <time>2022-07-18T04:24:17Z</time>
      </trkpt>
      <trkpt lat="44.83265" lon="6.72258">
        <ele>1980.8</ele>
        <time>2022-07-18T04:24:18Z</time>
      </trkpt>
      <trkpt lat="44.83263" lon="6.72258">
        <ele>1981</ele>
        <time>2022-07-18T04:24:19Z</time>
      </trkpt>
      <trkpt lat="44.83261" lon="6.72259">
        <ele>1981.2</ele>
        <time>2022-07-18T04:24:20Z</time>
      </trkpt>
      <trkpt lat="44.83259" lon="6.7226">
        <ele>1981.4</ele>
        <time>2022-07-18T04:24:21Z</time>
      </trkpt>
      <trkpt lat="44.83257" lon="6.72261">
        <ele>1981.4</ele>
        <time>2022-07-18T04:24:22Z</time>
      </trkpt>
      <trkpt lat="44.83256" lon="6.72262">
        <ele>1981.8</ele>
        <time>2022-07-18T04:24:23Z</time>
      </trkpt>
      <trkpt lat="44.83254" lon="6.72262">
        <ele>1982</ele>
        <time>2022-07-18T04:24:24Z</time>
      </trkpt>
      <trkpt lat="44.83252" lon="6.72264">
        <ele>1982.4</ele>
        <time>2022-07-18T04:24:25Z</time>
      </trkpt>
      <trkpt lat="44.8325" lon="6.72265">
        <ele>1982.6</ele>
        <time>2022-07-18T04:24:26Z</time>
      </trkpt>
      <trkpt lat="44.83248" lon="6.72266">
        <ele>1982.8</ele>
        <time>2022-07-18T04:24:27Z</time>
      </trkpt>
      <trkpt lat="44.83246" lon="6.72266">
        <ele>1982.8</ele>
        <time>2022-07-18T04:24:28Z</time>
      </trkpt>
      <trkpt lat="44.83245" lon="6.72266">
        <ele>1983.2</ele>
        <time>2022-07-18T04:24:29Z</time>
      </trkpt>
      <trkpt lat="44.83243" lon="6.72267">
        <ele>1983.6</ele>
        <time>2022-07-18T04:24:30Z</time>
      </trkpt>
      <trkpt lat="44.83241" lon="6.72268">
        <ele>1983.6</ele>
        <time>2022-07-18T04:24:31Z</time>
      </trkpt>
      <trkpt lat="44.8324" lon="6.72268">
        <ele>1984</ele>
        <time>2022-07-18T04:24:32Z</time>
      </trkpt>
      <trkpt lat="44.83238" lon="6.7227">
        <ele>1984.2</ele>
        <time>2022-07-18T04:24:33Z</time>
      </trkpt>
      <trkpt lat="44.83236" lon="6.72272">
        <ele>1984.4</ele>
        <time>2022-07-18T04:24:34Z</time>
      </trkpt>
      <trkpt lat="44.83235" lon="6.72273">
        <ele>1984.4</ele>
        <time>2022-07-18T04:24:35Z</time>
      </trkpt>
      <trkpt lat="44.83233" lon="6.72274">
        <ele>1984.8</ele>
        <time>2022-07-18T04:24:36Z</time>
      </trkpt>
      <trkpt lat="44.83232" lon="6.72276">
        <ele>1985</ele>
        <time>2022-07-18T04:24:37Z</time>
      </trkpt>
      <trkpt lat="44.8323" lon="6.72276">
        <ele>1985.2</ele>
        <time>2022-07-18T04:24:38Z</time>
      </trkpt>
      <trkpt lat="44.83229" lon="6.72277">
        <ele>1985.4</ele>
        <time>2022-07-18T04:24:39Z</time>
      </trkpt>
      <trkpt lat="44.83227" lon="6.72278">
        <ele>1985.4</ele>
        <time>2022-07-18T04:24:40Z</time>
      </trkpt>
      <trkpt lat="44.83225" lon="6.72278">
        <ele>1985.8</ele>
        <time>2022-07-18T04:24:41Z</time>
      </trkpt>
      <trkpt lat="44.83223" lon="6.72279">
        <ele>1985.8</ele>
        <time>2022-07-18T04:24:42Z</time>
      </trkpt>
      <trkpt lat="44.83222" lon="6.7228">
        <ele>1986.2</ele>
        <time>2022-07-18T04:24:43Z</time>
      </trkpt>
      <trkpt lat="44.83221" lon="6.72281">
        <ele>1986.2</ele>
        <time>2022-07-18T04:24:44Z</time>
      </trkpt>
      <trkpt lat="44.83219" lon="6.72282">
        <ele>1986.6</ele>
        <time>2022-07-18T04:24:45Z</time>
      </trkpt>
      <trkpt lat="44.83217" lon="6.72283">
        <ele>1986.6</ele>
        <time>2022-07-18T04:24:46Z</time>
      </trkpt>
      <trkpt lat="44.83215" lon="6.72284">
        <ele>1987</ele>
        <time>2022-07-18T04:24:47Z</time>
      </trkpt>
      <trkpt lat="44.83214" lon="6.72285">
        <ele>1987</ele>
        <time>2022-07-18T04:24:48Z</time>
      </trkpt>
      <trkpt lat="44.83212" lon="6.72286">
        <ele>1987.4</ele>
        <time>2022-07-18T04:24:49Z</time>
      </trkpt>
      <trkpt lat="44.83211" lon="6.72287">
        <ele>1987.6</ele>
        <time>2022-07-18T04:24:50Z</time>
      </trkpt>
      <trkpt lat="44.8321" lon="6.72288">
        <ele>1987.6</ele>
        <time>2022-07-18T04:24:51Z</time>
      </trkpt>
      <trkpt lat="44.83208" lon="6.72288">
        <ele>1987.8</ele>
        <time>2022-07-18T04:24:52Z</time>
      </trkpt>
      <trkpt lat="44.83207" lon="6.72289">
        <ele>1987.8</ele>
        <time>2022-07-18T04:24:53Z</time>
      </trkpt>
      <trkpt lat="44.83205" lon="6.72291">
        <ele>1988.2</ele>
        <time>2022-07-18T04:24:54Z</time>
      </trkpt>
      <trkpt lat="44.83204" lon="6.72292">
        <ele>1988.4</ele>
        <time>2022-07-18T04:24:55Z</time>
      </trkpt>
      <trkpt lat="44.83202" lon="6.72294">
        <ele>1988.6</ele>
        <time>2022-07-18T04:24:56Z</time>
      </trkpt>
      <trkpt lat="44.83201" lon="6.72295">
        <ele>1988.6</ele>
        <time>2022-07-18T04:24:57Z</time>
      </trkpt>
      <trkpt lat="44.832" lon="6.72297">
        <ele>1989</ele>
        <time>2022-07-18T04:24:58Z</time>
      </trkpt>
      <trkpt lat="44.83199" lon="6.72299">
        <ele>1989</ele>
        <time>2022-07-18T04:24:59Z</time>
      </trkpt>
      <trkpt lat="44.83197" lon="6.72301">
        <ele>1989.2</ele>
        <time>2022-07-18T04:25:00Z</time>
      </trkpt>
      <trkpt lat="44.83197" lon="6.72304">
        <ele>1989.2</ele>
        <time>2022-07-18T04:25:01Z</time>
      </trkpt>
      <trkpt lat="44.83196" lon="6.72306">
        <ele>1989.6</ele>
        <time>2022-07-18T04:25:02Z</time>
      </trkpt>
      <trkpt lat="44.83196" lon="6.72309">
        <ele>1989.6</ele>
        <time>2022-07-18T04:25:03Z</time>
      </trkpt>
      <trkpt lat="44.83197" lon="6.72312">
        <ele>1990</ele>
        <time>2022-07-18T04:25:04Z</time>
      </trkpt>
      <trkpt lat="44.83198" lon="6.72314">
        <ele>1990</ele>
        <time>2022-07-18T04:25:05Z</time>
      </trkpt>
      <trkpt lat="44.83199" lon="6.72317">
        <ele>1990.4</ele>
        <time>2022-07-18T04:25:06Z</time>
      </trkpt>
      <trkpt lat="44.832" lon="6.7232">
        <ele>1990.6</ele>
        <time>2022-07-18T04:25:07Z</time>
      </trkpt>
      <trkpt lat="44.83201" lon="6.72322">
        <ele>1990.6</ele>
        <time>2022-07-18T04:25:08Z</time>
      </trkpt>
      <trkpt lat="44.83202" lon="6.72324">
        <ele>1991</ele>
        <time>2022-07-18T04:25:09Z</time>
      </trkpt>
      <trkpt lat="44.83203" lon="6.72326">
        <ele>1991</ele>
        <time>2022-07-18T04:25:10Z</time>
      </trkpt>
      <trkpt lat="44.83205" lon="6.72328">
        <ele>1991.4</ele>
        <time>2022-07-18T04:25:11Z</time>
      </trkpt>
      <trkpt lat="44.83206" lon="6.7233">
        <ele>1991.4</ele>
        <time>2022-07-18T04:25:12Z</time>
      </trkpt>
      <trkpt lat="44.83207" lon="6.72332">
        <ele>1991.8</ele>
        <time>2022-07-18T04:25:13Z</time>
      </trkpt>
      <trkpt lat="44.83207" lon="6.72334">
        <ele>1992</ele>
        <time>2022-07-18T04:25:14Z</time>
      </trkpt>
      <trkpt lat="44.83209" lon="6.72337">
        <ele>1992</ele>
        <time>2022-07-18T04:25:15Z</time>
      </trkpt>
      <trkpt lat="44.83211" lon="6.7234">
        <ele>1992.4</ele>
        <time>2022-07-18T04:25:16Z</time>
      </trkpt>
      <trkpt lat="44.83212" lon="6.72343">
        <ele>1992.4</ele>
        <time>2022-07-18T04:25:17Z</time>
      </trkpt>
      <trkpt lat="44.83215" lon="6.72346">
        <ele>1992.8</ele>
        <time>2022-07-18T04:25:18Z</time>
      </trkpt>
      <trkpt lat="44.83216" lon="6.72348">
        <ele>1993</ele>
        <time>2022-07-18T04:25:19Z</time>
      </trkpt>
      <trkpt lat="44.83218" lon="6.7235">
        <ele>1993.2</ele>
        <time>2022-07-18T04:25:20Z</time>
      </trkpt>
      <trkpt lat="44.83219" lon="6.72352">
        <ele>1993.4</ele>
        <time>2022-07-18T04:25:21Z</time>
      </trkpt>
      <trkpt lat="44.8322" lon="6.72354">
        <ele>1993.6</ele>
        <time>2022-07-18T04:25:22Z</time>
      </trkpt>
      <trkpt lat="44.83222" lon="6.72356">
        <ele>1993.8</ele>
        <time>2022-07-18T04:25:23Z</time>
      </trkpt>
      <trkpt lat="44.83223" lon="6.72358">
        <ele>1994.2</ele>
        <time>2022-07-18T04:25:24Z</time>
      </trkpt>
      <trkpt lat="44.83224" lon="6.7236">
        <ele>1994.4</ele>
        <time>2022-07-18T04:25:25Z</time>
      </trkpt>
      <trkpt lat="44.83225" lon="6.72362">
        <ele>1994.8</ele>
        <time>2022-07-18T04:25:26Z</time>
      </trkpt>
      <trkpt lat="44.83226" lon="6.72365">
        <ele>1995</ele>
        <time>2022-07-18T04:25:27Z</time>
      </trkpt>
      <trkpt lat="44.83227" lon="6.72367">
        <ele>1995.2</ele>
        <time>2022-07-18T04:25:28Z</time>
      </trkpt>
      <trkpt lat="44.83228" lon="6.72369">
        <ele>1995.6</ele>
        <time>2022-07-18T04:25:29Z</time>
      </trkpt>
      <trkpt lat="44.83229" lon="6.72372">
        <ele>1995.8</ele>
        <time>2022-07-18T04:25:30Z</time>
      </trkpt>
      <trkpt lat="44.83229" lon="6.72375">
        <ele>1996</ele>
        <time>2022-07-18T04:25:31Z</time>
      </trkpt>
      <trkpt lat="44.83229" lon="6.72377">
        <ele>1996</ele>
        <time>2022-07-18T04:25:32Z</time>
      </trkpt>
      <trkpt lat="44.8323" lon="6.7238">
        <ele>1996.4</ele>
        <time>2022-07-18T04:25:33Z</time>
      </trkpt>
      <trkpt lat="44.8323" lon="6.72382">
        <ele>1996.4</ele>
        <time>2022-07-18T04:25:34Z</time>
      </trkpt>
      <trkpt lat="44.8323" lon="6.72385">
        <ele>1996.6</ele>
        <time>2022-07-18T04:25:35Z</time>
      </trkpt>
      <trkpt lat="44.83231" lon="6.72388">
        <ele>1996.8</ele>
        <time>2022-07-18T04:25:36Z</time>
      </trkpt>
      <trkpt lat="44.83231" lon="6.72391">
        <ele>1997</ele>
        <time>2022-07-18T04:25:37Z</time>
      </trkpt>
      <trkpt lat="44.83231" lon="6.72393">
        <ele>1997.2</ele>
        <time>2022-07-18T04:25:38Z</time>
      </trkpt>
      <trkpt lat="44.83231" lon="6.72396">
        <ele>1997.6</ele>
        <time>2022-07-18T04:25:39Z</time>
      </trkpt>
      <trkpt lat="44.83232" lon="6.72399">
        <ele>1997.8</ele>
        <time>2022-07-18T04:25:40Z</time>
      </trkpt>
      <trkpt lat="44.83232" lon="6.72402">
        <ele>1998</ele>
        <time>2022-07-18T04:25:41Z</time>
      </trkpt>
      <trkpt lat="44.83231" lon="6.72405">
        <ele>1998</ele>
        <time>2022-07-18T04:25:42Z</time>
      </trkpt>
      <trkpt lat="44.83231" lon="6.72408">
        <ele>1998.4</ele>
        <time>2022-07-18T04:25:43Z</time>
      </trkpt>
      <trkpt lat="44.8323" lon="6.72411">
        <ele>1998.4</ele>
        <time>2022-07-18T04:25:44Z</time>
      </trkpt>
      <trkpt lat="44.83229" lon="6.72414">
        <ele>1998.6</ele>
        <time>2022-07-18T04:25:45Z</time>
      </trkpt>
      <trkpt lat="44.83228" lon="6.72416">
        <ele>1998.6</ele>
        <time>2022-07-18T04:25:46Z</time>
      </trkpt>
      <trkpt lat="44.83227" lon="6.72418">
        <ele>1999</ele>
        <time>2022-07-18T04:25:47Z</time>
      </trkpt>
      <trkpt lat="44.83226" lon="6.72418">
        <ele>1999</ele>
        <time>2022-07-18T04:25:48Z</time>
      </trkpt>
      <trkpt lat="44.83224" lon="6.72418">
        <ele>1999.2</ele>
        <time>2022-07-18T04:25:49Z</time>
      </trkpt>
      <trkpt lat="44.83222" lon="6.72417">
        <ele>1999.2</ele>
        <time>2022-07-18T04:25:50Z</time>
      </trkpt>
      <trkpt lat="44.8322" lon="6.72416">
        <ele>1999.6</ele>
        <time>2022-07-18T04:25:51Z</time>
      </trkpt>
      <trkpt lat="44.83219" lon="6.72413">
        <ele>1999.6</ele>
        <time>2022-07-18T04:25:52Z</time>
      </trkpt>
      <trkpt lat="44.83218" lon="6.7241">
        <ele>1999.8</ele>
        <time>2022-07-18T04:25:53Z</time>
      </trkpt>
      <trkpt lat="44.83218" lon="6.72407">
        <ele>1999.8</ele>
        <time>2022-07-18T04:25:54Z</time>
      </trkpt>
      <trkpt lat="44.83218" lon="6.72403">
        <ele>1999.8</ele>
        <time>2022-07-18T04:25:55Z</time>
      </trkpt>
      <trkpt lat="44.83217" lon="6.724">
        <ele>2000</ele>
        <time>2022-07-18T04:25:56Z</time>
      </trkpt>
      <trkpt lat="44.83217" lon="6.72396">
        <ele>2000</ele>
        <time>2022-07-18T04:25:57Z</time>
      </trkpt>
      <trkpt lat="44.83218" lon="6.72393">
        <ele>2000</ele>
        <time>2022-07-18T04:25:58Z</time>
      </trkpt>
      <trkpt lat="44.83217" lon="6.7239">
        <ele>2000</ele>
        <time>2022-07-18T04:25:59Z</time>
      </trkpt>
      <trkpt lat="44.83217" lon="6.72386">
        <ele>2000.4</ele>
        <time>2022-07-18T04:26:00Z</time>
      </trkpt>
      <trkpt lat="44.83217" lon="6.72383">
        <ele>2000.4</ele>
        <time>2022-07-18T04:26:01Z</time>
      </trkpt>
      <trkpt lat="44.83216" lon="6.7238">
        <ele>2000.6</ele>
        <time>2022-07-18T04:26:02Z</time>
      </trkpt>
      <trkpt lat="44.83216" lon="6.72377">
        <ele>2000.6</ele>
        <time>2022-07-18T04:26:03Z</time>
      </trkpt>
      <trkpt lat="44.83215" lon="6.72374">
        <ele>2000.6</ele>
        <time>2022-07-18T04:26:04Z</time>
      </trkpt>
      <trkpt lat="44.83214" lon="6.72371">
        <ele>2000.8</ele>
        <time>2022-07-18T04:26:05Z</time>
      </trkpt>
      <trkpt lat="44.83213" lon="6.72369">
        <ele>2000.8</ele>
        <time>2022-07-18T04:26:06Z</time>
      </trkpt>
      <trkpt lat="44.83212" lon="6.72366">
        <ele>2001.2</ele>
        <time>2022-07-18T04:26:07Z</time>
      </trkpt>
      <trkpt lat="44.83211" lon="6.72363">
        <ele>2001.2</ele>
        <time>2022-07-18T04:26:08Z</time>
      </trkpt>
      <trkpt lat="44.83209" lon="6.72361">
        <ele>2001.4</ele>
        <time>2022-07-18T04:26:09Z</time>
      </trkpt>
      <trkpt lat="44.83208" lon="6.72358">
        <ele>2001.4</ele>
        <time>2022-07-18T04:26:10Z</time>
      </trkpt>
      <trkpt lat="44.83206" lon="6.72356">
        <ele>2001.8</ele>
        <time>2022-07-18T04:26:11Z</time>
      </trkpt>
      <trkpt lat="44.83205" lon="6.72354">
        <ele>2001.8</ele>
        <time>2022-07-18T04:26:12Z</time>
      </trkpt>
      <trkpt lat="44.83204" lon="6.72352">
        <ele>2002.2</ele>
        <time>2022-07-18T04:26:13Z</time>
      </trkpt>
      <trkpt lat="44.83203" lon="6.7235">
        <ele>2002.2</ele>
        <time>2022-07-18T04:26:14Z</time>
      </trkpt>
      <trkpt lat="44.83201" lon="6.72348">
        <ele>2002.4</ele>
        <time>2022-07-18T04:26:15Z</time>
      </trkpt>
      <trkpt lat="44.83199" lon="6.72346">
        <ele>2002.4</ele>
        <time>2022-07-18T04:26:16Z</time>
      </trkpt>
      <trkpt lat="44.83198" lon="6.72344">
        <ele>2002.6</ele>
        <time>2022-07-18T04:26:17Z</time>
      </trkpt>
      <trkpt lat="44.83196" lon="6.72343">
        <ele>2003</ele>
        <time>2022-07-18T04:26:18Z</time>
      </trkpt>
      <trkpt lat="44.83193" lon="6.72342">
        <ele>2003</ele>
        <time>2022-07-18T04:26:19Z</time>
      </trkpt>
      <trkpt lat="44.83191" lon="6.72342">
        <ele>2003.2</ele>
        <time>2022-07-18T04:26:20Z</time>
      </trkpt>
      <trkpt lat="44.83188" lon="6.72342">
        <ele>2003.2</ele>
        <time>2022-07-18T04:26:21Z</time>
      </trkpt>
      <trkpt lat="44.83185" lon="6.72342">
        <ele>2003.2</ele>
        <time>2022-07-18T04:26:22Z</time>
      </trkpt>
      <trkpt lat="44.83182" lon="6.72344">
        <ele>2003.4</ele>
        <time>2022-07-18T04:26:23Z</time>
      </trkpt>
      <trkpt lat="44.8318" lon="6.72346">
        <ele>2003.4</ele>
        <time>2022-07-18T04:26:24Z</time>
      </trkpt>
      <trkpt lat="44.83178" lon="6.72348">
        <ele>2003.4</ele>
        <time>2022-07-18T04:26:25Z</time>
      </trkpt>
      <trkpt lat="44.83177" lon="6.72351">
        <ele>2003.6</ele>
        <time>2022-07-18T04:26:26Z</time>
      </trkpt>
      <trkpt lat="44.83177" lon="6.72354">
        <ele>2003.6</ele>
        <time>2022-07-18T04:26:27Z</time>
      </trkpt>
      <trkpt lat="44.83177" lon="6.72357">
        <ele>2003.6</ele>
        <time>2022-07-18T04:26:28Z</time>
      </trkpt>
      <trkpt lat="44.83177" lon="6.7236">
        <ele>2004</ele>
        <time>2022-07-18T04:26:29Z</time>
      </trkpt>
      <trkpt lat="44.83179" lon="6.72362">
        <ele>2004</ele>
        <time>2022-07-18T04:26:30Z</time>
      </trkpt>
      <trkpt lat="44.8318" lon="6.72365">
        <ele>2004</ele>
        <time>2022-07-18T04:26:31Z</time>
      </trkpt>
      <trkpt lat="44.83181" lon="6.72368">
        <ele>2004.2</ele>
        <time>2022-07-18T04:26:32Z</time>
      </trkpt>
      <trkpt lat="44.83183" lon="6.7237">
        <ele>2004.2</ele>
        <time>2022-07-18T04:26:33Z</time>
      </trkpt>
      <trkpt lat="44.83184" lon="6.72373">
        <ele>2004.4</ele>
        <time>2022-07-18T04:26:34Z</time>
      </trkpt>
      <trkpt lat="44.83186" lon="6.72375">
        <ele>2004.4</ele>
        <time>2022-07-18T04:26:35Z</time>
      </trkpt>
      <trkpt lat="44.83187" lon="6.72377">
        <ele>2004.8</ele>
        <time>2022-07-18T04:26:36Z</time>
      </trkpt>
      <trkpt lat="44.83188" lon="6.7238">
        <ele>2004.8</ele>
        <time>2022-07-18T04:26:37Z</time>
      </trkpt>
      <trkpt lat="44.8319" lon="6.72382">
        <ele>2005.2</ele>
        <time>2022-07-18T04:26:38Z</time>
      </trkpt>
      <trkpt lat="44.83191" lon="6.72384">
        <ele>2005.4</ele>
        <time>2022-07-18T04:26:39Z</time>
      </trkpt>
      <trkpt lat="44.83193" lon="6.72386">
        <ele>2005.6</ele>
        <time>2022-07-18T04:26:40Z</time>
      </trkpt>
      <trkpt lat="44.83194" lon="6.72389">
        <ele>2005.8</ele>
        <time>2022-07-18T04:26:41Z</time>
      </trkpt>
      <trkpt lat="44.83194" lon="6.72391">
        <ele>2006</ele>
        <time>2022-07-18T04:26:42Z</time>
      </trkpt>
      <trkpt lat="44.83195" lon="6.72393">
        <ele>2006.2</ele>
        <time>2022-07-18T04:26:43Z</time>
      </trkpt>
      <trkpt lat="44.83196" lon="6.72395">
        <ele>2006.2</ele>
        <time>2022-07-18T04:26:44Z</time>
      </trkpt>
      <trkpt lat="44.83197" lon="6.72398">
        <ele>2006.6</ele>
        <time>2022-07-18T04:26:45Z</time>
      </trkpt>
      <trkpt lat="44.83196" lon="6.724">
        <ele>2006.8</ele>
        <time>2022-07-18T04:26:46Z</time>
      </trkpt>
      <trkpt lat="44.83196" lon="6.72403">
        <ele>2007</ele>
        <time>2022-07-18T04:26:47Z</time>
      </trkpt>
      <trkpt lat="44.83195" lon="6.72405">
        <ele>2007.2</ele>
        <time>2022-07-18T04:26:48Z</time>
      </trkpt>
      <trkpt lat="44.83194" lon="6.72408">
        <ele>2007.4</ele>
        <time>2022-07-18T04:26:49Z</time>
      </trkpt>
      <trkpt lat="44.83193" lon="6.7241">
        <ele>2007.4</ele>
        <time>2022-07-18T04:26:50Z</time>
      </trkpt>
      <trkpt lat="44.83192" lon="6.72412">
        <ele>2007.8</ele>
        <time>2022-07-18T04:26:51Z</time>
      </trkpt>
      <trkpt lat="44.83191" lon="6.72414">
        <ele>2008</ele>
        <time>2022-07-18T04:26:52Z</time>
      </trkpt>
      <trkpt lat="44.83189" lon="6.72417">
        <ele>2008</ele>
        <time>2022-07-18T04:26:53Z</time>
      </trkpt>
      <trkpt lat="44.83188" lon="6.72419">
        <ele>2008.4</ele>
        <time>2022-07-18T04:26:54Z</time>
      </trkpt>
      <trkpt lat="44.83186" lon="6.72421">
        <ele>2008.8</ele>
        <time>2022-07-18T04:26:55Z</time>
      </trkpt>
      <trkpt lat="44.83184" lon="6.72423">
        <ele>2009</ele>
        <time>2022-07-18T04:26:56Z</time>
      </trkpt>
      <trkpt lat="44.83181" lon="6.72425">
        <ele>2009.2</ele>
        <time>2022-07-18T04:26:57Z</time>
      </trkpt>
      <trkpt lat="44.8318" lon="6.72427">
        <ele>2009.4</ele>
        <time>2022-07-18T04:26:58Z</time>
      </trkpt>
      <trkpt lat="44.83178" lon="6.72428">
        <ele>2009.6</ele>
        <time>2022-07-18T04:26:59Z</time>
      </trkpt>
      <trkpt lat="44.83176" lon="6.7243">
        <ele>2009.8</ele>
        <time>2022-07-18T04:27:00Z</time>
      </trkpt>
      <trkpt lat="44.83174" lon="6.72431">
        <ele>2010.2</ele>
        <time>2022-07-18T04:27:01Z</time>
      </trkpt>
      <trkpt lat="44.83172" lon="6.72432">
        <ele>2010.4</ele>
        <time>2022-07-18T04:27:02Z</time>
      </trkpt>
      <trkpt lat="44.8317" lon="6.72432">
        <ele>2010.6</ele>
        <time>2022-07-18T04:27:03Z</time>
      </trkpt>
      <trkpt lat="44.83168" lon="6.72433">
        <ele>2010.8</ele>
        <time>2022-07-18T04:27:04Z</time>
      </trkpt>
      <trkpt lat="44.83166" lon="6.72434">
        <ele>2011</ele>
        <time>2022-07-18T04:27:05Z</time>
      </trkpt>
      <trkpt lat="44.83164" lon="6.72434">
        <ele>2011.4</ele>
        <time>2022-07-18T04:27:06Z</time>
      </trkpt>
      <trkpt lat="44.83162" lon="6.72435">
        <ele>2011.6</ele>
        <time>2022-07-18T04:27:07Z</time>
      </trkpt>
      <trkpt lat="44.8316" lon="6.72435">
        <ele>2011.8</ele>
        <time>2022-07-18T04:27:08Z</time>
      </trkpt>
      <trkpt lat="44.83158" lon="6.72435">
        <ele>2011.8</ele>
        <time>2022-07-18T04:27:09Z</time>
      </trkpt>
      <trkpt lat="44.83156" lon="6.72436">
        <ele>2012.2</ele>
        <time>2022-07-18T04:27:10Z</time>
      </trkpt>
      <trkpt lat="44.83154" lon="6.72436">
        <ele>2012.4</ele>
        <time>2022-07-18T04:27:11Z</time>
      </trkpt>
      <trkpt lat="44.83152" lon="6.72436">
        <ele>2012.6</ele>
        <time>2022-07-18T04:27:12Z</time>
      </trkpt>
      <trkpt lat="44.8315" lon="6.72436">
        <ele>2012.8</ele>
        <time>2022-07-18T04:27:13Z</time>
      </trkpt>
      <trkpt lat="44.83149" lon="6.72436">
        <ele>2012.8</ele>
        <time>2022-07-18T04:27:14Z</time>
      </trkpt>
      <trkpt lat="44.83147" lon="6.72437">
        <ele>2013.2</ele>
        <time>2022-07-18T04:27:15Z</time>
      </trkpt>
      <trkpt lat="44.83145" lon="6.72437">
        <ele>2013.2</ele>
        <time>2022-07-18T04:27:16Z</time>
      </trkpt>
      <trkpt lat="44.83143" lon="6.72437">
        <ele>2013.6</ele>
        <time>2022-07-18T04:27:17Z</time>
      </trkpt>
      <trkpt lat="44.83142" lon="6.72437">
        <ele>2013.8</ele>
        <time>2022-07-18T04:27:18Z</time>
      </trkpt>
      <trkpt lat="44.83139" lon="6.72438">
        <ele>2014</ele>
        <time>2022-07-18T04:27:19Z</time>
      </trkpt>
      <trkpt lat="44.83138" lon="6.72437">
        <ele>2014.4</ele>
        <time>2022-07-18T04:27:20Z</time>
      </trkpt>
      <trkpt lat="44.83136" lon="6.72436">
        <ele>2014.6</ele>
        <time>2022-07-18T04:27:21Z</time>
      </trkpt>
      <trkpt lat="44.83134" lon="6.72435">
        <ele>2014.8</ele>
        <time>2022-07-18T04:27:22Z</time>
      </trkpt>
      <trkpt lat="44.83133" lon="6.72435">
        <ele>2015</ele>
        <time>2022-07-18T04:27:23Z</time>
      </trkpt>
      <trkpt lat="44.83132" lon="6.72434">
        <ele>2015</ele>
        <time>2022-07-18T04:27:24Z</time>
      </trkpt>
      <trkpt lat="44.8313" lon="6.72433">
        <ele>2015.4</ele>
        <time>2022-07-18T04:27:25Z</time>
      </trkpt>
      <trkpt lat="44.83128" lon="6.72433">
        <ele>2015.4</ele>
        <time>2022-07-18T04:27:26Z</time>
      </trkpt>
      <trkpt lat="44.83126" lon="6.72433">
        <ele>2015.8</ele>
        <time>2022-07-18T04:27:27Z</time>
      </trkpt>
      <trkpt lat="44.83125" lon="6.72433">
        <ele>2016</ele>
        <time>2022-07-18T04:27:28Z</time>
      </trkpt>
      <trkpt lat="44.83124" lon="6.72433">
        <ele>2016.4</ele>
        <time>2022-07-18T04:27:29Z</time>
      </trkpt>
      <trkpt lat="44.83122" lon="6.72432">
        <ele>2016.4</ele>
        <time>2022-07-18T04:27:30Z</time>
      </trkpt>
      <trkpt lat="44.83121" lon="6.72431">
        <ele>2016.6</ele>
        <time>2022-07-18T04:27:31Z</time>
      </trkpt>
      <trkpt lat="44.83119" lon="6.7243">
        <ele>2017</ele>
        <time>2022-07-18T04:27:32Z</time>
      </trkpt>
      <trkpt lat="44.83117" lon="6.72429">
        <ele>2017.2</ele>
        <time>2022-07-18T04:27:33Z</time>
      </trkpt>
      <trkpt lat="44.83116" lon="6.72428">
        <ele>2017.4</ele>
        <time>2022-07-18T04:27:34Z</time>
      </trkpt>
      <trkpt lat="44.83115" lon="6.72427">
        <ele>2017.8</ele>
        <time>2022-07-18T04:27:35Z</time>
      </trkpt>
      <trkpt lat="44.83113" lon="6.72425">
        <ele>2017.8</ele>
        <time>2022-07-18T04:27:36Z</time>
      </trkpt>
      <trkpt lat="44.83112" lon="6.72424">
        <ele>2018</ele>
        <time>2022-07-18T04:27:37Z</time>
      </trkpt>
      <trkpt lat="44.8311" lon="6.72423">
        <ele>2018</ele>
        <time>2022-07-18T04:27:38Z</time>
      </trkpt>
      <trkpt lat="44.83108" lon="6.72422">
        <ele>2018.4</ele>
        <time>2022-07-18T04:27:39Z</time>
      </trkpt>
      <trkpt lat="44.83107" lon="6.72421">
        <ele>2018.6</ele>
        <time>2022-07-18T04:27:40Z</time>
      </trkpt>
      <trkpt lat="44.83105" lon="6.72419">
        <ele>2018.8</ele>
        <time>2022-07-18T04:27:41Z</time>
      </trkpt>
      <trkpt lat="44.83104" lon="6.72418">
        <ele>2018.8</ele>
        <time>2022-07-18T04:27:42Z</time>
      </trkpt>
      <trkpt lat="44.83102" lon="6.72417">
        <ele>2019.2</ele>
        <time>2022-07-18T04:27:43Z</time>
      </trkpt>
      <trkpt lat="44.831" lon="6.72416">
        <ele>2019.2</ele>
        <time>2022-07-18T04:27:44Z</time>
      </trkpt>
      <trkpt lat="44.83098" lon="6.72416">
        <ele>2019.4</ele>
        <time>2022-07-18T04:27:45Z</time>
      </trkpt>
      <trkpt lat="44.83096" lon="6.72415">
        <ele>2019.6</ele>
        <time>2022-07-18T04:27:46Z</time>
      </trkpt>
      <trkpt lat="44.83094" lon="6.72415">
        <ele>2019.8</ele>
        <time>2022-07-18T04:27:47Z</time>
      </trkpt>
      <trkpt lat="44.83092" lon="6.72415">
        <ele>2020</ele>
        <time>2022-07-18T04:27:48Z</time>
      </trkpt>
      <trkpt lat="44.8309" lon="6.72415">
        <ele>2020</ele>
        <time>2022-07-18T04:27:49Z</time>
      </trkpt>
      <trkpt lat="44.83088" lon="6.72415">
        <ele>2020.4</ele>
        <time>2022-07-18T04:27:50Z</time>
      </trkpt>
      <trkpt lat="44.83086" lon="6.72415">
        <ele>2020.4</ele>
        <time>2022-07-18T04:27:51Z</time>
      </trkpt>
      <trkpt lat="44.83084" lon="6.72415">
        <ele>2020.6</ele>
        <time>2022-07-18T04:27:52Z</time>
      </trkpt>
      <trkpt lat="44.83082" lon="6.72416">
        <ele>2020.6</ele>
        <time>2022-07-18T04:27:53Z</time>
      </trkpt>
      <trkpt lat="44.8308" lon="6.72416">
        <ele>2021</ele>
        <time>2022-07-18T04:27:54Z</time>
      </trkpt>
      <trkpt lat="44.83078" lon="6.72417">
        <ele>2021.2</ele>
        <time>2022-07-18T04:27:55Z</time>
      </trkpt>
      <trkpt lat="44.83076" lon="6.72417">
        <ele>2021.4</ele>
        <time>2022-07-18T04:27:56Z</time>
      </trkpt>
      <trkpt lat="44.83074" lon="6.72418">
        <ele>2021.4</ele>
        <time>2022-07-18T04:27:57Z</time>
      </trkpt>
      <trkpt lat="44.83071" lon="6.72418">
        <ele>2021.8</ele>
        <time>2022-07-18T04:27:58Z</time>
      </trkpt>
      <trkpt lat="44.8307" lon="6.72419">
        <ele>2022</ele>
        <time>2022-07-18T04:27:59Z</time>
      </trkpt>
      <trkpt lat="44.83068" lon="6.7242">
        <ele>2022.2</ele>
        <time>2022-07-18T04:28:00Z</time>
      </trkpt>
      <trkpt lat="44.83066" lon="6.72422">
        <ele>2022.2</ele>
        <time>2022-07-18T04:28:01Z</time>
      </trkpt>
      <trkpt lat="44.83064" lon="6.72423">
        <ele>2022.6</ele>
        <time>2022-07-18T04:28:02Z</time>
      </trkpt>
      <trkpt lat="44.83062" lon="6.72424">
        <ele>2022.6</ele>
        <time>2022-07-18T04:28:03Z</time>
      </trkpt>
      <trkpt lat="44.83061" lon="6.72425">
        <ele>2023</ele>
        <time>2022-07-18T04:28:04Z</time>
      </trkpt>
      <trkpt lat="44.83059" lon="6.72427">
        <ele>2023</ele>
        <time>2022-07-18T04:28:05Z</time>
      </trkpt>
      <trkpt lat="44.83058" lon="6.72428">
        <ele>2023.4</ele>
        <time>2022-07-18T04:28:06Z</time>
      </trkpt>
      <trkpt lat="44.83056" lon="6.72429">
        <ele>2023.6</ele>
        <time>2022-07-18T04:28:07Z</time>
      </trkpt>
      <trkpt lat="44.83054" lon="6.7243">
        <ele>2023.8</ele>
        <time>2022-07-18T04:28:08Z</time>
      </trkpt>
      <trkpt lat="44.83052" lon="6.72431">
        <ele>2024</ele>
        <time>2022-07-18T04:28:09Z</time>
      </trkpt>
      <trkpt lat="44.83051" lon="6.72433">
        <ele>2024</ele>
        <time>2022-07-18T04:28:10Z</time>
      </trkpt>
      <trkpt lat="44.83049" lon="6.72435">
        <ele>2024.2</ele>
        <time>2022-07-18T04:28:11Z</time>
      </trkpt>
      <trkpt lat="44.83048" lon="6.72437">
        <ele>2024.2</ele>
        <time>2022-07-18T04:28:12Z</time>
      </trkpt>
      <trkpt lat="44.83046" lon="6.72439">
        <ele>2024.6</ele>
        <time>2022-07-18T04:28:13Z</time>
      </trkpt>
      <trkpt lat="44.83045" lon="6.7244">
        <ele>2024.8</ele>
        <time>2022-07-18T04:28:14Z</time>
      </trkpt>
      <trkpt lat="44.83043" lon="6.72442">
        <ele>2025</ele>
        <time>2022-07-18T04:28:15Z</time>
      </trkpt>
      <trkpt lat="44.83041" lon="6.72443">
        <ele>2025.2</ele>
        <time>2022-07-18T04:28:16Z</time>
      </trkpt>
      <trkpt lat="44.8304" lon="6.72445">
        <ele>2025.2</ele>
        <time>2022-07-18T04:28:17Z</time>
      </trkpt>
      <trkpt lat="44.83039" lon="6.72447">
        <ele>2025.6</ele>
        <time>2022-07-18T04:28:18Z</time>
      </trkpt>
      <trkpt lat="44.83037" lon="6.72449">
        <ele>2025.8</ele>
        <time>2022-07-18T04:28:19Z</time>
      </trkpt>
      <trkpt lat="44.83036" lon="6.72451">
        <ele>2026</ele>
        <time>2022-07-18T04:28:20Z</time>
      </trkpt>
      <trkpt lat="44.83034" lon="6.72452">
        <ele>2026</ele>
        <time>2022-07-18T04:28:21Z</time>
      </trkpt>
      <trkpt lat="44.83033" lon="6.72454">
        <ele>2026.4</ele>
        <time>2022-07-18T04:28:22Z</time>
      </trkpt>
      <trkpt lat="44.83031" lon="6.72456">
        <ele>2026.6</ele>
        <time>2022-07-18T04:28:23Z</time>
      </trkpt>
      <trkpt lat="44.8303" lon="6.72457">
        <ele>2026.6</ele>
        <time>2022-07-18T04:28:24Z</time>
      </trkpt>
      <trkpt lat="44.83028" lon="6.72458">
        <ele>2027</ele>
        <time>2022-07-18T04:28:25Z</time>
      </trkpt>
      <trkpt lat="44.83027" lon="6.72458">
        <ele>2027</ele>
        <time>2022-07-18T04:28:26Z</time>
      </trkpt>
      <trkpt lat="44.83025" lon="6.72456">
        <ele>2027.4</ele>
        <time>2022-07-18T04:28:27Z</time>
      </trkpt>
      <trkpt lat="44.83024" lon="6.72454">
        <ele>2027.4</ele>
        <time>2022-07-18T04:28:28Z</time>
      </trkpt>
      <trkpt lat="44.83023" lon="6.72452">
        <ele>2027.6</ele>
        <time>2022-07-18T04:28:29Z</time>
      </trkpt>
      <trkpt lat="44.83023" lon="6.72449">
        <ele>2027.6</ele>
        <time>2022-07-18T04:28:30Z</time>
      </trkpt>
      <trkpt lat="44.83023" lon="6.72446">
        <ele>2027.8</ele>
        <time>2022-07-18T04:28:31Z</time>
      </trkpt>
      <trkpt lat="44.83024" lon="6.72443">
        <ele>2028</ele>
        <time>2022-07-18T04:28:32Z</time>
      </trkpt>
      <trkpt lat="44.83026" lon="6.7244">
        <ele>2028</ele>
        <time>2022-07-18T04:28:33Z</time>
      </trkpt>
      <trkpt lat="44.83027" lon="6.72437">
        <ele>2028.2</ele>
        <time>2022-07-18T04:28:34Z</time>
      </trkpt>
      <trkpt lat="44.83029" lon="6.72435">
        <ele>2028.2</ele>
        <time>2022-07-18T04:28:35Z</time>
      </trkpt>
      <trkpt lat="44.8303" lon="6.72433">
        <ele>2028.6</ele>
        <time>2022-07-18T04:28:36Z</time>
      </trkpt>
      <trkpt lat="44.83032" lon="6.7243">
        <ele>2028.6</ele>
        <time>2022-07-18T04:28:37Z</time>
      </trkpt>
      <trkpt lat="44.83033" lon="6.72428">
        <ele>2028.8</ele>
        <time>2022-07-18T04:28:38Z</time>
      </trkpt>
      <trkpt lat="44.83035" lon="6.72426">
        <ele>2028.8</ele>
        <time>2022-07-18T04:28:39Z</time>
      </trkpt>
      <trkpt lat="44.83036" lon="6.72424">
        <ele>2029</ele>
        <time>2022-07-18T04:28:40Z</time>
      </trkpt>
      <trkpt lat="44.83038" lon="6.72423">
        <ele>2029</ele>
        <time>2022-07-18T04:28:41Z</time>
      </trkpt>
      <trkpt lat="44.83039" lon="6.72421">
        <ele>2029.4</ele>
        <time>2022-07-18T04:28:42Z</time>
      </trkpt>
      <trkpt lat="44.83041" lon="6.72419">
        <ele>2029.4</ele>
        <time>2022-07-18T04:28:43Z</time>
      </trkpt>
      <trkpt lat="44.83042" lon="6.72417">
        <ele>2029.6</ele>
        <time>2022-07-18T04:28:44Z</time>
      </trkpt>
      <trkpt lat="44.83044" lon="6.72415">
        <ele>2029.6</ele>
        <time>2022-07-18T04:28:45Z</time>
      </trkpt>
      <trkpt lat="44.83045" lon="6.72413">
        <ele>2029.8</ele>
        <time>2022-07-18T04:28:46Z</time>
      </trkpt>
      <trkpt lat="44.83047" lon="6.72411">
        <ele>2029.8</ele>
        <time>2022-07-18T04:28:47Z</time>
      </trkpt>
      <trkpt lat="44.83049" lon="6.72409">
        <ele>2030.2</ele>
        <time>2022-07-18T04:28:48Z</time>
      </trkpt>
      <trkpt lat="44.8305" lon="6.72408">
        <ele>2030.2</ele>
        <time>2022-07-18T04:28:49Z</time>
      </trkpt>
      <trkpt lat="44.83051" lon="6.72406">
        <ele>2030.6</ele>
        <time>2022-07-18T04:28:50Z</time>
      </trkpt>
      <trkpt lat="44.83053" lon="6.72404">
        <ele>2030.6</ele>
        <time>2022-07-18T04:28:51Z</time>
      </trkpt>
      <trkpt lat="44.83054" lon="6.72402">
        <ele>2030.8</ele>
        <time>2022-07-18T04:28:52Z</time>
      </trkpt>
      <trkpt lat="44.83055" lon="6.72399">
        <ele>2030.8</ele>
        <time>2022-07-18T04:28:53Z</time>
      </trkpt>
      <trkpt lat="44.83057" lon="6.72397">
        <ele>2031</ele>
        <time>2022-07-18T04:28:54Z</time>
      </trkpt>
      <trkpt lat="44.83058" lon="6.72395">
        <ele>2031.2</ele>
        <time>2022-07-18T04:28:55Z</time>
      </trkpt>
      <trkpt lat="44.8306" lon="6.72393">
        <ele>2031.4</ele>
        <time>2022-07-18T04:28:56Z</time>
      </trkpt>
      <trkpt lat="44.83061" lon="6.7239">
        <ele>2031.4</ele>
        <time>2022-07-18T04:28:57Z</time>
      </trkpt>
      <trkpt lat="44.83063" lon="6.72388">
        <ele>2031.8</ele>
        <time>2022-07-18T04:28:58Z</time>
      </trkpt>
      <trkpt lat="44.83064" lon="6.72385">
        <ele>2031.8</ele>
        <time>2022-07-18T04:28:59Z</time>
      </trkpt>
      <trkpt lat="44.83065" lon="6.72382">
        <ele>2032.2</ele>
        <time>2022-07-18T04:29:00Z</time>
      </trkpt>
      <trkpt lat="44.83066" lon="6.72379">
        <ele>2032.2</ele>
        <time>2022-07-18T04:29:01Z</time>
      </trkpt>
      <trkpt lat="44.83066" lon="6.72376">
        <ele>2032.6</ele>
        <time>2022-07-18T04:29:02Z</time>
      </trkpt>
      <trkpt lat="44.83067" lon="6.72374">
        <ele>2032.6</ele>
        <time>2022-07-18T04:29:03Z</time>
      </trkpt>
      <trkpt lat="44.83067" lon="6.72371">
        <ele>2032.8</ele>
        <time>2022-07-18T04:29:04Z</time>
      </trkpt>
      <trkpt lat="44.83066" lon="6.72368">
        <ele>2032.8</ele>
        <time>2022-07-18T04:29:05Z</time>
      </trkpt>
      <trkpt lat="44.83066" lon="6.72365">
        <ele>2033.2</ele>
        <time>2022-07-18T04:29:06Z</time>
      </trkpt>
      <trkpt lat="44.83066" lon="6.72362">
        <ele>2033.2</ele>
        <time>2022-07-18T04:29:07Z</time>
      </trkpt>
      <trkpt lat="44.83065" lon="6.72359">
        <ele>2033.4</ele>
        <time>2022-07-18T04:29:08Z</time>
      </trkpt>
      <trkpt lat="44.83065" lon="6.72356">
        <ele>2033.4</ele>
        <time>2022-07-18T04:29:09Z</time>
      </trkpt>
      <trkpt lat="44.83064" lon="6.72353">
        <ele>2033.6</ele>
        <time>2022-07-18T04:29:10Z</time>
      </trkpt>
      <trkpt lat="44.83063" lon="6.7235">
        <ele>2033.6</ele>
        <time>2022-07-18T04:29:11Z</time>
      </trkpt>
      <trkpt lat="44.83062" lon="6.72348">
        <ele>2034</ele>
        <time>2022-07-18T04:29:12Z</time>
      </trkpt>
      <trkpt lat="44.8306" lon="6.72345">
        <ele>2034</ele>
        <time>2022-07-18T04:29:13Z</time>
      </trkpt>
      <trkpt lat="44.83059" lon="6.72342">
        <ele>2034.2</ele>
        <time>2022-07-18T04:29:14Z</time>
      </trkpt>
      <trkpt lat="44.83058" lon="6.7234">
        <ele>2034.2</ele>
        <time>2022-07-18T04:29:15Z</time>
      </trkpt>
      <trkpt lat="44.83057" lon="6.72338">
        <ele>2034.6</ele>
        <time>2022-07-18T04:29:16Z</time>
      </trkpt>
      <trkpt lat="44.83055" lon="6.72337">
        <ele>2034.6</ele>
        <time>2022-07-18T04:29:17Z</time>
      </trkpt>
      <trkpt lat="44.83054" lon="6.72335">
        <ele>2035</ele>
        <time>2022-07-18T04:29:18Z</time>
      </trkpt>
      <trkpt lat="44.83052" lon="6.72332">
        <ele>2035</ele>
        <time>2022-07-18T04:29:19Z</time>
      </trkpt>
      <trkpt lat="44.83051" lon="6.7233">
        <ele>2035.4</ele>
        <time>2022-07-18T04:29:20Z</time>
      </trkpt>
      <trkpt lat="44.83049" lon="6.72328">
        <ele>2035.6</ele>
        <time>2022-07-18T04:29:21Z</time>
      </trkpt>
      <trkpt lat="44.83047" lon="6.72327">
        <ele>2035.6</ele>
        <time>2022-07-18T04:29:22Z</time>
      </trkpt>
      <trkpt lat="44.83045" lon="6.72326">
        <ele>2036</ele>
        <time>2022-07-18T04:29:23Z</time>
      </trkpt>
      <trkpt lat="44.83043" lon="6.72325">
        <ele>2036</ele>
        <time>2022-07-18T04:29:24Z</time>
      </trkpt>
      <trkpt lat="44.8304" lon="6.72324">
        <ele>2036.2</ele>
        <time>2022-07-18T04:29:25Z</time>
      </trkpt>
      <trkpt lat="44.83038" lon="6.72323">
        <ele>2036.2</ele>
        <time>2022-07-18T04:29:26Z</time>
      </trkpt>
      <trkpt lat="44.83036" lon="6.72323">
        <ele>2036.6</ele>
        <time>2022-07-18T04:29:27Z</time>
      </trkpt>
      <trkpt lat="44.83034" lon="6.72322">
        <ele>2037</ele>
        <time>2022-07-18T04:29:28Z</time>
      </trkpt>
      <trkpt lat="44.83031" lon="6.72322">
        <ele>2037.2</ele>
        <time>2022-07-18T04:29:29Z</time>
      </trkpt>
      <trkpt lat="44.83029" lon="6.72322">
        <ele>2037.4</ele>
        <time>2022-07-18T04:29:30Z</time>
      </trkpt>
      <trkpt lat="44.83027" lon="6.72322">
        <ele>2037.4</ele>
        <time>2022-07-18T04:29:31Z</time>
      </trkpt>
      <trkpt lat="44.83024" lon="6.72323">
        <ele>2037.8</ele>
        <time>2022-07-18T04:29:32Z</time>
      </trkpt>
      <trkpt lat="44.83022" lon="6.72324">
        <ele>2037.8</ele>
        <time>2022-07-18T04:29:33Z</time>
      </trkpt>
      <trkpt lat="44.8302" lon="6.72326">
        <ele>2038.2</ele>
        <time>2022-07-18T04:29:34Z</time>
      </trkpt>
      <trkpt lat="44.83018" lon="6.72327">
        <ele>2038.2</ele>
        <time>2022-07-18T04:29:35Z</time>
      </trkpt>
      <trkpt lat="44.83016" lon="6.72328">
        <ele>2038.6</ele>
        <time>2022-07-18T04:29:36Z</time>
      </trkpt>
      <trkpt lat="44.83014" lon="6.7233">
        <ele>2038.6</ele>
        <time>2022-07-18T04:29:37Z</time>
      </trkpt>
      <trkpt lat="44.83012" lon="6.72331">
        <ele>2038.8</ele>
        <time>2022-07-18T04:29:38Z</time>
      </trkpt>
      <trkpt lat="44.83009" lon="6.72332">
        <ele>2038.8</ele>
        <time>2022-07-18T04:29:39Z</time>
      </trkpt>
      <trkpt lat="44.83007" lon="6.72334">
        <ele>2039</ele>
        <time>2022-07-18T04:29:40Z</time>
      </trkpt>
      <trkpt lat="44.83005" lon="6.72335">
        <ele>2039</ele>
        <time>2022-07-18T04:29:41Z</time>
      </trkpt>
      <trkpt lat="44.83003" lon="6.72336">
        <ele>2039.4</ele>
        <time>2022-07-18T04:29:42Z</time>
      </trkpt>
      <trkpt lat="44.83001" lon="6.72338">
        <ele>2039.6</ele>
        <time>2022-07-18T04:29:43Z</time>
      </trkpt>
      <trkpt lat="44.82999" lon="6.72339">
        <ele>2039.6</ele>
        <time>2022-07-18T04:29:44Z</time>
      </trkpt>
      <trkpt lat="44.82997" lon="6.72341">
        <ele>2040</ele>
        <time>2022-07-18T04:29:45Z</time>
      </trkpt>
      <trkpt lat="44.82995" lon="6.72342">
        <ele>2040</ele>
        <time>2022-07-18T04:29:46Z</time>
      </trkpt>
      <trkpt lat="44.82993" lon="6.72344">
        <ele>2040.4</ele>
        <time>2022-07-18T04:29:47Z</time>
      </trkpt>
      <trkpt lat="44.82991" lon="6.72345">
        <ele>2040.6</ele>
        <time>2022-07-18T04:29:48Z</time>
      </trkpt>
      <trkpt lat="44.82989" lon="6.72347">
        <ele>2040.6</ele>
        <time>2022-07-18T04:29:49Z</time>
      </trkpt>
      <trkpt lat="44.82987" lon="6.72348">
        <ele>2041</ele>
        <time>2022-07-18T04:29:50Z</time>
      </trkpt>
      <trkpt lat="44.82985" lon="6.7235">
        <ele>2041</ele>
        <time>2022-07-18T04:29:51Z</time>
      </trkpt>
      <trkpt lat="44.82983" lon="6.72351">
        <ele>2041.2</ele>
        <time>2022-07-18T04:29:52Z</time>
      </trkpt>
      <trkpt lat="44.82981" lon="6.72352">
        <ele>2041.4</ele>
        <time>2022-07-18T04:29:53Z</time>
      </trkpt>
      <trkpt lat="44.82979" lon="6.72354">
        <ele>2041.6</ele>
        <time>2022-07-18T04:29:54Z</time>
      </trkpt>
      <trkpt lat="44.82978" lon="6.72355">
        <ele>2042</ele>
        <time>2022-07-18T04:29:55Z</time>
      </trkpt>
      <trkpt lat="44.82976" lon="6.72357">
        <ele>2042.2</ele>
        <time>2022-07-18T04:29:56Z</time>
      </trkpt>
      <trkpt lat="44.82974" lon="6.72358">
        <ele>2042.4</ele>
        <time>2022-07-18T04:29:57Z</time>
      </trkpt>
      <trkpt lat="44.82972" lon="6.7236">
        <ele>2042.4</ele>
        <time>2022-07-18T04:29:58Z</time>
      </trkpt>
      <trkpt lat="44.82971" lon="6.72361">
        <ele>2042.8</ele>
        <time>2022-07-18T04:29:59Z</time>
      </trkpt>
      <trkpt lat="44.82969" lon="6.72362">
        <ele>2043</ele>
        <time>2022-07-18T04:30:00Z</time>
      </trkpt>
      <trkpt lat="44.82967" lon="6.72364">
        <ele>2043</ele>
        <time>2022-07-18T04:30:01Z</time>
      </trkpt>
      <trkpt lat="44.82965" lon="6.72365">
        <ele>2043.4</ele>
        <time>2022-07-18T04:30:02Z</time>
      </trkpt>
      <trkpt lat="44.82964" lon="6.72366">
        <ele>2043.4</ele>
        <time>2022-07-18T04:30:03Z</time>
      </trkpt>
      <trkpt lat="44.82962" lon="6.72367">
        <ele>2043.6</ele>
        <time>2022-07-18T04:30:04Z</time>
      </trkpt>
      <trkpt lat="44.8296" lon="6.72369">
        <ele>2043.6</ele>
        <time>2022-07-18T04:30:05Z</time>
      </trkpt>
      <trkpt lat="44.82958" lon="6.7237">
        <ele>2044</ele>
        <time>2022-07-18T04:30:06Z</time>
      </trkpt>
      <trkpt lat="44.82957" lon="6.72371">
        <ele>2044.2</ele>
        <time>2022-07-18T04:30:07Z</time>
      </trkpt>
      <trkpt lat="44.82955" lon="6.72372">
        <ele>2044.2</ele>
        <time>2022-07-18T04:30:08Z</time>
      </trkpt>
      <trkpt lat="44.82953" lon="6.72374">
        <ele>2044.4</ele>
        <time>2022-07-18T04:30:09Z</time>
      </trkpt>
      <trkpt lat="44.82952" lon="6.72375">
        <ele>2044.8</ele>
        <time>2022-07-18T04:30:11Z</time>
      </trkpt>
      <trkpt lat="44.8295" lon="6.72377">
        <ele>2044.8</ele>
        <time>2022-07-18T04:30:12Z</time>
      </trkpt>
      <trkpt lat="44.82948" lon="6.72378">
        <ele>2045</ele>
        <time>2022-07-18T04:30:13Z</time>
      </trkpt>
      <trkpt lat="44.82946" lon="6.72379">
        <ele>2045</ele>
        <time>2022-07-18T04:30:14Z</time>
      </trkpt>
      <trkpt lat="44.82945" lon="6.7238">
        <ele>2045.4</ele>
        <time>2022-07-18T04:30:15Z</time>
      </trkpt>
      <trkpt lat="44.82943" lon="6.72382">
        <ele>2045.4</ele>
        <time>2022-07-18T04:30:16Z</time>
      </trkpt>
      <trkpt lat="44.82941" lon="6.72383">
        <ele>2045.8</ele>
        <time>2022-07-18T04:30:17Z</time>
      </trkpt>
      <trkpt lat="44.8294" lon="6.72384">
        <ele>2045.8</ele>
        <time>2022-07-18T04:30:18Z</time>
      </trkpt>
      <trkpt lat="44.82938" lon="6.72385">
        <ele>2046</ele>
        <time>2022-07-18T04:30:19Z</time>
      </trkpt>
      <trkpt lat="44.82936" lon="6.72387">
        <ele>2046</ele>
        <time>2022-07-18T04:30:20Z</time>
      </trkpt>
      <trkpt lat="44.82935" lon="6.72388">
        <ele>2046.4</ele>
        <time>2022-07-18T04:30:21Z</time>
      </trkpt>
      <trkpt lat="44.82933" lon="6.72389">
        <ele>2046.4</ele>
        <time>2022-07-18T04:30:22Z</time>
      </trkpt>
      <trkpt lat="44.82931" lon="6.72391">
        <ele>2046.8</ele>
        <time>2022-07-18T04:30:23Z</time>
      </trkpt>
      <trkpt lat="44.8293" lon="6.72392">
        <ele>2046.8</ele>
        <time>2022-07-18T04:30:24Z</time>
      </trkpt>
      <trkpt lat="44.82928" lon="6.72394">
        <ele>2047</ele>
        <time>2022-07-18T04:30:25Z</time>
      </trkpt>
      <trkpt lat="44.82926" lon="6.72395">
        <ele>2047</ele>
        <time>2022-07-18T04:30:26Z</time>
      </trkpt>
      <trkpt lat="44.82925" lon="6.72396">
        <ele>2047.4</ele>
        <time>2022-07-18T04:30:27Z</time>
      </trkpt>
      <trkpt lat="44.82923" lon="6.72398">
        <ele>2047.4</ele>
        <time>2022-07-18T04:30:28Z</time>
      </trkpt>
      <trkpt lat="44.82921" lon="6.72399">
        <ele>2047.8</ele>
        <time>2022-07-18T04:30:29Z</time>
      </trkpt>
      <trkpt lat="44.8292" lon="6.724">
        <ele>2047.8</ele>
        <time>2022-07-18T04:30:30Z</time>
      </trkpt>
      <trkpt lat="44.82918" lon="6.72402">
        <ele>2048</ele>
        <time>2022-07-18T04:30:31Z</time>
      </trkpt>
      <trkpt lat="44.82916" lon="6.72403">
        <ele>2048.2</ele>
        <time>2022-07-18T04:30:32Z</time>
      </trkpt>
      <trkpt lat="44.82915" lon="6.72404">
        <ele>2048.4</ele>
        <time>2022-07-18T04:30:33Z</time>
      </trkpt>
      <trkpt lat="44.82913" lon="6.72406">
        <ele>2048.6</ele>
        <time>2022-07-18T04:30:34Z</time>
      </trkpt>
      <trkpt lat="44.82911" lon="6.72407">
        <ele>2048.6</ele>
        <time>2022-07-18T04:30:35Z</time>
      </trkpt>
      <trkpt lat="44.8291" lon="6.72408">
        <ele>2048.8</ele>
        <time>2022-07-18T04:30:36Z</time>
      </trkpt>
      <trkpt lat="44.82908" lon="6.72409">
        <ele>2048.8</ele>
        <time>2022-07-18T04:30:37Z</time>
      </trkpt>
      <trkpt lat="44.82906" lon="6.72411">
        <ele>2049.2</ele>
        <time>2022-07-18T04:30:38Z</time>
      </trkpt>
      <trkpt lat="44.82904" lon="6.72412">
        <ele>2049.2</ele>
        <time>2022-07-18T04:30:39Z</time>
      </trkpt>
      <trkpt lat="44.82902" lon="6.72413">
        <ele>2049.6</ele>
        <time>2022-07-18T04:30:40Z</time>
      </trkpt>
      <trkpt lat="44.82901" lon="6.72415">
        <ele>2049.6</ele>
        <time>2022-07-18T04:30:41Z</time>
      </trkpt>
      <trkpt lat="44.82899" lon="6.72416">
        <ele>2050</ele>
        <time>2022-07-18T04:30:42Z</time>
      </trkpt>
      <trkpt lat="44.82897" lon="6.72417">
        <ele>2050.2</ele>
        <time>2022-07-18T04:30:43Z</time>
      </trkpt>
      <trkpt lat="44.82895" lon="6.72418">
        <ele>2050.2</ele>
        <time>2022-07-18T04:30:44Z</time>
      </trkpt>
      <trkpt lat="44.82894" lon="6.7242">
        <ele>2050.6</ele>
        <time>2022-07-18T04:30:45Z</time>
      </trkpt>
      <trkpt lat="44.82892" lon="6.72421">
        <ele>2050.6</ele>
        <time>2022-07-18T04:30:46Z</time>
      </trkpt>
      <trkpt lat="44.8289" lon="6.72423">
        <ele>2051</ele>
        <time>2022-07-18T04:30:47Z</time>
      </trkpt>
      <trkpt lat="44.82888" lon="6.72424">
        <ele>2051</ele>
        <time>2022-07-18T04:30:48Z</time>
      </trkpt>
      <trkpt lat="44.82887" lon="6.72426">
        <ele>2051.2</ele>
        <time>2022-07-18T04:30:49Z</time>
      </trkpt>
      <trkpt lat="44.82885" lon="6.72427">
        <ele>2051.2</ele>
        <time>2022-07-18T04:30:50Z</time>
      </trkpt>
      <trkpt lat="44.82884" lon="6.72429">
        <ele>2051.6</ele>
        <time>2022-07-18T04:30:51Z</time>
      </trkpt>
      <trkpt lat="44.82882" lon="6.7243">
        <ele>2051.8</ele>
        <time>2022-07-18T04:30:52Z</time>
      </trkpt>
      <trkpt lat="44.8288" lon="6.72431">
        <ele>2052</ele>
        <time>2022-07-18T04:30:53Z</time>
      </trkpt>
      <trkpt lat="44.82878" lon="6.72432">
        <ele>2052</ele>
        <time>2022-07-18T04:30:54Z</time>
      </trkpt>
      <trkpt lat="44.82877" lon="6.72434">
        <ele>2052.4</ele>
        <time>2022-07-18T04:30:55Z</time>
      </trkpt>
      <trkpt lat="44.82875" lon="6.72435">
        <ele>2052.6</ele>
        <time>2022-07-18T04:30:56Z</time>
      </trkpt>
      <trkpt lat="44.82874" lon="6.72437">
        <ele>2052.8</ele>
        <time>2022-07-18T04:30:57Z</time>
      </trkpt>
      <trkpt lat="44.82872" lon="6.72438">
        <ele>2053</ele>
        <time>2022-07-18T04:30:58Z</time>
      </trkpt>
      <trkpt lat="44.8287" lon="6.7244">
        <ele>2053</ele>
        <time>2022-07-18T04:30:59Z</time>
      </trkpt>
      <trkpt lat="44.82869" lon="6.72441">
        <ele>2053.4</ele>
        <time>2022-07-18T04:31:00Z</time>
      </trkpt>
      <trkpt lat="44.82867" lon="6.72442">
        <ele>2053.4</ele>
        <time>2022-07-18T04:31:01Z</time>
      </trkpt>
      <trkpt lat="44.82865" lon="6.72443">
        <ele>2053.8</ele>
        <time>2022-07-18T04:31:02Z</time>
      </trkpt>
      <trkpt lat="44.82864" lon="6.72444">
        <ele>2053.8</ele>
        <time>2022-07-18T04:31:03Z</time>
      </trkpt>
      <trkpt lat="44.82862" lon="6.72446">
        <ele>2054.2</ele>
        <time>2022-07-18T04:31:04Z</time>
      </trkpt>
      <trkpt lat="44.8286" lon="6.72447">
        <ele>2054.4</ele>
        <time>2022-07-18T04:31:05Z</time>
      </trkpt>
      <trkpt lat="44.82858" lon="6.72448">
        <ele>2054.4</ele>
        <time>2022-07-18T04:31:06Z</time>
      </trkpt>
      <trkpt lat="44.82857" lon="6.72449">
        <ele>2054.8</ele>
        <time>2022-07-18T04:31:07Z</time>
      </trkpt>
      <trkpt lat="44.82855" lon="6.72451">
        <ele>2054.8</ele>
        <time>2022-07-18T04:31:08Z</time>
      </trkpt>
      <trkpt lat="44.82854" lon="6.72452">
        <ele>2055</ele>
        <time>2022-07-18T04:31:09Z</time>
      </trkpt>
      <trkpt lat="44.82852" lon="6.72453">
        <ele>2055</ele>
        <time>2022-07-18T04:31:10Z</time>
      </trkpt>
      <trkpt lat="44.82851" lon="6.72455">
        <ele>2055.2</ele>
        <time>2022-07-18T04:31:11Z</time>
      </trkpt>
      <trkpt lat="44.82849" lon="6.72456">
        <ele>2055.2</ele>
        <time>2022-07-18T04:31:12Z</time>
      </trkpt>
      <trkpt lat="44.82848" lon="6.72458">
        <ele>2055.6</ele>
        <time>2022-07-18T04:31:13Z</time>
      </trkpt>
      <trkpt lat="44.82846" lon="6.72459">
        <ele>2055.6</ele>
        <time>2022-07-18T04:31:14Z</time>
      </trkpt>
      <trkpt lat="44.82845" lon="6.7246">
        <ele>2056</ele>
        <time>2022-07-18T04:31:15Z</time>
      </trkpt>
      <trkpt lat="44.82843" lon="6.72461">
        <ele>2056.2</ele>
        <time>2022-07-18T04:31:16Z</time>
      </trkpt>
      <trkpt lat="44.82841" lon="6.72463">
        <ele>2056.4</ele>
        <time>2022-07-18T04:31:17Z</time>
      </trkpt>
      <trkpt lat="44.82839" lon="6.72464">
        <ele>2056.8</ele>
        <time>2022-07-18T04:31:18Z</time>
      </trkpt>
      <trkpt lat="44.82838" lon="6.72466">
        <ele>2057</ele>
        <time>2022-07-18T04:31:19Z</time>
      </trkpt>
      <trkpt lat="44.82836" lon="6.72467">
        <ele>2057.2</ele>
        <time>2022-07-18T04:31:20Z</time>
      </trkpt>
      <trkpt lat="44.82835" lon="6.72468">
        <ele>2057.2</ele>
        <time>2022-07-18T04:31:21Z</time>
      </trkpt>
      <trkpt lat="44.82833" lon="6.72469">
        <ele>2057.6</ele>
        <time>2022-07-18T04:31:22Z</time>
      </trkpt>
      <trkpt lat="44.82831" lon="6.7247">
        <ele>2057.8</ele>
        <time>2022-07-18T04:31:23Z</time>
      </trkpt>
      <trkpt lat="44.82829" lon="6.72472">
        <ele>2058</ele>
        <time>2022-07-18T04:31:24Z</time>
      </trkpt>
      <trkpt lat="44.82828" lon="6.72473">
        <ele>2058.2</ele>
        <time>2022-07-18T04:31:25Z</time>
      </trkpt>
      <trkpt lat="44.82826" lon="6.72474">
        <ele>2058.2</ele>
        <time>2022-07-18T04:31:26Z</time>
      </trkpt>
      <trkpt lat="44.82824" lon="6.72476">
        <ele>2058.8</ele>
        <time>2022-07-18T04:31:27Z</time>
      </trkpt>
      <trkpt lat="44.82823" lon="6.72477">
        <ele>2058.8</ele>
        <time>2022-07-18T04:31:28Z</time>
      </trkpt>
      <trkpt lat="44.82821" lon="6.72478">
        <ele>2059</ele>
        <time>2022-07-18T04:31:29Z</time>
      </trkpt>
      <trkpt lat="44.8282" lon="6.7248">
        <ele>2059</ele>
        <time>2022-07-18T04:31:30Z</time>
      </trkpt>
      <trkpt lat="44.82818" lon="6.72481">
        <ele>2059.4</ele>
        <time>2022-07-18T04:31:31Z</time>
      </trkpt>
      <trkpt lat="44.82817" lon="6.72482">
        <ele>2059.4</ele>
        <time>2022-07-18T04:31:32Z</time>
      </trkpt>
      <trkpt lat="44.82815" lon="6.72484">
        <ele>2059.8</ele>
        <time>2022-07-18T04:31:33Z</time>
      </trkpt>
      <trkpt lat="44.82813" lon="6.72485">
        <ele>2059.8</ele>
        <time>2022-07-18T04:31:34Z</time>
      </trkpt>
      <trkpt lat="44.82812" lon="6.72486">
        <ele>2060.2</ele>
        <time>2022-07-18T04:31:35Z</time>
      </trkpt>
      <trkpt lat="44.8281" lon="6.72488">
        <ele>2060.2</ele>
        <time>2022-07-18T04:31:36Z</time>
      </trkpt>
      <trkpt lat="44.82809" lon="6.72489">
        <ele>2060.4</ele>
        <time>2022-07-18T04:31:37Z</time>
      </trkpt>
      <trkpt lat="44.82807" lon="6.72491">
        <ele>2060.4</ele>
        <time>2022-07-18T04:31:38Z</time>
      </trkpt>
      <trkpt lat="44.82806" lon="6.72492">
        <ele>2060.8</ele>
        <time>2022-07-18T04:31:39Z</time>
      </trkpt>
      <trkpt lat="44.82804" lon="6.72493">
        <ele>2060.8</ele>
        <time>2022-07-18T04:31:40Z</time>
      </trkpt>
      <trkpt lat="44.82802" lon="6.72494">
        <ele>2061.2</ele>
        <time>2022-07-18T04:31:41Z</time>
      </trkpt>
      <trkpt lat="44.82801" lon="6.72496">
        <ele>2061.2</ele>
        <time>2022-07-18T04:31:42Z</time>
      </trkpt>
      <trkpt lat="44.82799" lon="6.72497">
        <ele>2061.6</ele>
        <time>2022-07-18T04:31:43Z</time>
      </trkpt>
      <trkpt lat="44.82797" lon="6.72498">
        <ele>2061.6</ele>
        <time>2022-07-18T04:31:44Z</time>
      </trkpt>
      <trkpt lat="44.82796" lon="6.72499">
        <ele>2062</ele>
        <time>2022-07-18T04:31:45Z</time>
      </trkpt>
      <trkpt lat="44.82794" lon="6.725">
        <ele>2062</ele>
        <time>2022-07-18T04:31:46Z</time>
      </trkpt>
      <trkpt lat="44.82791" lon="6.72503">
        <ele>2062.2</ele>
        <time>2022-07-18T04:31:47Z</time>
      </trkpt>
      <trkpt lat="44.82789" lon="6.72504">
        <ele>2062.2</ele>
        <time>2022-07-18T04:31:48Z</time>
      </trkpt>
      <trkpt lat="44.82787" lon="6.72505">
        <ele>2062.6</ele>
        <time>2022-07-18T04:31:49Z</time>
      </trkpt>
      <trkpt lat="44.82786" lon="6.72507">
        <ele>2062.8</ele>
        <time>2022-07-18T04:31:50Z</time>
      </trkpt>
      <trkpt lat="44.82784" lon="6.72508">
        <ele>2063</ele>
        <time>2022-07-18T04:31:51Z</time>
      </trkpt>
      <trkpt lat="44.82782" lon="6.72509">
        <ele>2063</ele>
        <time>2022-07-18T04:31:52Z</time>
      </trkpt>
      <trkpt lat="44.82781" lon="6.7251">
        <ele>2063.4</ele>
        <time>2022-07-18T04:31:53Z</time>
      </trkpt>
      <trkpt lat="44.82779" lon="6.72512">
        <ele>2063.4</ele>
        <time>2022-07-18T04:31:54Z</time>
      </trkpt>
      <trkpt lat="44.82777" lon="6.72513">
        <ele>2063.6</ele>
        <time>2022-07-18T04:31:55Z</time>
      </trkpt>
      <trkpt lat="44.82776" lon="6.72514">
        <ele>2063.6</ele>
        <time>2022-07-18T04:31:56Z</time>
      </trkpt>
      <trkpt lat="44.82775" lon="6.72516">
        <ele>2064</ele>
        <time>2022-07-18T04:31:57Z</time>
      </trkpt>
      <trkpt lat="44.82773" lon="6.72517">
        <ele>2064.4</ele>
        <time>2022-07-18T04:31:58Z</time>
      </trkpt>
      <trkpt lat="44.82771" lon="6.72518">
        <ele>2064.4</ele>
        <time>2022-07-18T04:31:59Z</time>
      </trkpt>
      <trkpt lat="44.8277" lon="6.7252">
        <ele>2064.4</ele>
        <time>2022-07-18T04:32:00Z</time>
      </trkpt>
      <trkpt lat="44.82768" lon="6.7252">
        <ele>2064.6</ele>
        <time>2022-07-18T04:32:01Z</time>
      </trkpt>
      <trkpt lat="44.82766" lon="6.72521">
        <ele>2064.6</ele>
        <time>2022-07-18T04:32:02Z</time>
      </trkpt>
      <trkpt lat="44.82765" lon="6.72522">
        <ele>2064.8</ele>
        <time>2022-07-18T04:32:03Z</time>
      </trkpt>
      <trkpt lat="44.82763" lon="6.72523">
        <ele>2064.8</ele>
        <time>2022-07-18T04:32:04Z</time>
      </trkpt>
      <trkpt lat="44.82762" lon="6.72524">
        <ele>2065.2</ele>
        <time>2022-07-18T04:32:05Z</time>
      </trkpt>
      <trkpt lat="44.8276" lon="6.72524">
        <ele>2065.2</ele>
        <time>2022-07-18T04:32:06Z</time>
      </trkpt>
      <trkpt lat="44.82759" lon="6.72525">
        <ele>2065.2</ele>
        <time>2022-07-18T04:32:07Z</time>
      </trkpt>
      <trkpt lat="44.82757" lon="6.72526">
        <ele>2065.6</ele>
        <time>2022-07-18T04:32:08Z</time>
      </trkpt>
      <trkpt lat="44.82755" lon="6.72526">
        <ele>2065.6</ele>
        <time>2022-07-18T04:32:09Z</time>
      </trkpt>
      <trkpt lat="44.82753" lon="6.72527">
        <ele>2066</ele>
        <time>2022-07-18T04:32:10Z</time>
      </trkpt>
      <trkpt lat="44.82752" lon="6.72528">
        <ele>2066.2</ele>
        <time>2022-07-18T04:32:11Z</time>
      </trkpt>
      <trkpt lat="44.8275" lon="6.72528">
        <ele>2066.2</ele>
        <time>2022-07-18T04:32:12Z</time>
      </trkpt>
      <trkpt lat="44.82748" lon="6.72529">
        <ele>2066.6</ele>
        <time>2022-07-18T04:32:13Z</time>
      </trkpt>
      <trkpt lat="44.82746" lon="6.7253">
        <ele>2066.8</ele>
        <time>2022-07-18T04:32:14Z</time>
      </trkpt>
      <trkpt lat="44.82744" lon="6.72531">
        <ele>2066.8</ele>
        <time>2022-07-18T04:32:15Z</time>
      </trkpt>
      <trkpt lat="44.82742" lon="6.72532">
        <ele>2067</ele>
        <time>2022-07-18T04:32:16Z</time>
      </trkpt>
      <trkpt lat="44.82741" lon="6.72533">
        <ele>2067</ele>
        <time>2022-07-18T04:32:17Z</time>
      </trkpt>
      <trkpt lat="44.82739" lon="6.72534">
        <ele>2067.4</ele>
        <time>2022-07-18T04:32:18Z</time>
      </trkpt>
      <trkpt lat="44.82737" lon="6.72535">
        <ele>2067.4</ele>
        <time>2022-07-18T04:32:19Z</time>
      </trkpt>
      <trkpt lat="44.82735" lon="6.72536">
        <ele>2067.6</ele>
        <time>2022-07-18T04:32:20Z</time>
      </trkpt>
      <trkpt lat="44.82733" lon="6.72537">
        <ele>2067.6</ele>
        <time>2022-07-18T04:32:21Z</time>
      </trkpt>
      <trkpt lat="44.82732" lon="6.72539">
        <ele>2067.8</ele>
        <time>2022-07-18T04:32:22Z</time>
      </trkpt>
      <trkpt lat="44.8273" lon="6.7254">
        <ele>2067.8</ele>
        <time>2022-07-18T04:32:23Z</time>
      </trkpt>
      <trkpt lat="44.82728" lon="6.72541">
        <ele>2068.2</ele>
        <time>2022-07-18T04:32:24Z</time>
      </trkpt>
      <trkpt lat="44.82727" lon="6.72543">
        <ele>2068.2</ele>
        <time>2022-07-18T04:32:25Z</time>
      </trkpt>
      <trkpt lat="44.82725" lon="6.72545">
        <ele>2068.4</ele>
        <time>2022-07-18T04:32:26Z</time>
      </trkpt>
      <trkpt lat="44.82724" lon="6.72546">
        <ele>2068.4</ele>
        <time>2022-07-18T04:32:27Z</time>
      </trkpt>
      <trkpt lat="44.82723" lon="6.72548">
        <ele>2068.6</ele>
        <time>2022-07-18T04:32:28Z</time>
      </trkpt>
      <trkpt lat="44.82721" lon="6.7255">
        <ele>2068.6</ele>
        <time>2022-07-18T04:32:29Z</time>
      </trkpt>
      <trkpt lat="44.8272" lon="6.72552">
        <ele>2069</ele>
        <time>2022-07-18T04:32:30Z</time>
      </trkpt>
      <trkpt lat="44.82718" lon="6.72554">
        <ele>2069</ele>
        <time>2022-07-18T04:32:31Z</time>
      </trkpt>
      <trkpt lat="44.82717" lon="6.72556">
        <ele>2069.2</ele>
        <time>2022-07-18T04:32:32Z</time>
      </trkpt>
      <trkpt lat="44.82716" lon="6.72558">
        <ele>2069.2</ele>
        <time>2022-07-18T04:32:33Z</time>
      </trkpt>
      <trkpt lat="44.82715" lon="6.7256">
        <ele>2069.2</ele>
        <time>2022-07-18T04:32:34Z</time>
      </trkpt>
      <trkpt lat="44.82714" lon="6.72562">
        <ele>2069.4</ele>
        <time>2022-07-18T04:32:35Z</time>
      </trkpt>
      <trkpt lat="44.82713" lon="6.72565">
        <ele>2069.4</ele>
        <time>2022-07-18T04:32:36Z</time>
      </trkpt>
      <trkpt lat="44.82712" lon="6.72567">
        <ele>2069.8</ele>
        <time>2022-07-18T04:32:37Z</time>
      </trkpt>
      <trkpt lat="44.82712" lon="6.7257">
        <ele>2069.8</ele>
        <time>2022-07-18T04:32:38Z</time>
      </trkpt>
      <trkpt lat="44.82711" lon="6.72573">
        <ele>2070</ele>
        <time>2022-07-18T04:32:39Z</time>
      </trkpt>
      <trkpt lat="44.82711" lon="6.72576">
        <ele>2070</ele>
        <time>2022-07-18T04:32:40Z</time>
      </trkpt>
      <trkpt lat="44.82711" lon="6.72579">
        <ele>2070</ele>
        <time>2022-07-18T04:32:41Z</time>
      </trkpt>
      <trkpt lat="44.82711" lon="6.72582">
        <ele>2070.4</ele>
        <time>2022-07-18T04:32:42Z</time>
      </trkpt>
      <trkpt lat="44.82711" lon="6.72585">
        <ele>2070.4</ele>
        <time>2022-07-18T04:32:43Z</time>
      </trkpt>
      <trkpt lat="44.82712" lon="6.72588">
        <ele>2070.4</ele>
        <time>2022-07-18T04:32:44Z</time>
      </trkpt>
      <trkpt lat="44.82714" lon="6.72591">
        <ele>2070.6</ele>
        <time>2022-07-18T04:32:45Z</time>
      </trkpt>
      <trkpt lat="44.82715" lon="6.72593">
        <ele>2070.6</ele>
        <time>2022-07-18T04:32:46Z</time>
      </trkpt>
      <trkpt lat="44.82716" lon="6.72596">
        <ele>2070.6</ele>
        <time>2022-07-18T04:32:47Z</time>
      </trkpt>
      <trkpt lat="44.82717" lon="6.72599">
        <ele>2071</ele>
        <time>2022-07-18T04:32:48Z</time>
      </trkpt>
      <trkpt lat="44.82718" lon="6.72602">
        <ele>2071</ele>
        <time>2022-07-18T04:32:49Z</time>
      </trkpt>
      <trkpt lat="44.82719" lon="6.72605">
        <ele>2071.2</ele>
        <time>2022-07-18T04:32:50Z</time>
      </trkpt>
      <trkpt lat="44.8272" lon="6.72607">
        <ele>2071.2</ele>
        <time>2022-07-18T04:32:51Z</time>
      </trkpt>
      <trkpt lat="44.82721" lon="6.7261">
        <ele>2071.2</ele>
        <time>2022-07-18T04:32:52Z</time>
      </trkpt>
      <trkpt lat="44.82723" lon="6.72613">
        <ele>2071.4</ele>
        <time>2022-07-18T04:32:53Z</time>
      </trkpt>
      <trkpt lat="44.82724" lon="6.72615">
        <ele>2071.4</ele>
        <time>2022-07-18T04:32:54Z</time>
      </trkpt>
      <trkpt lat="44.82725" lon="6.72618">
        <ele>2071.4</ele>
        <time>2022-07-18T04:32:55Z</time>
      </trkpt>
      <trkpt lat="44.82727" lon="6.7262">
        <ele>2071.8</ele>
        <time>2022-07-18T04:32:56Z</time>
      </trkpt>
      <trkpt lat="44.82729" lon="6.72621">
        <ele>2071.8</ele>
        <time>2022-07-18T04:32:57Z</time>
      </trkpt>
      <trkpt lat="44.8273" lon="6.72623">
        <ele>2072</ele>
        <time>2022-07-18T04:32:58Z</time>
      </trkpt>
      <trkpt lat="44.82732" lon="6.72624">
        <ele>2072</ele>
        <time>2022-07-18T04:32:59Z</time>
      </trkpt>
      <trkpt lat="44.82734" lon="6.72625">
        <ele>2072.4</ele>
        <time>2022-07-18T04:33:00Z</time>
      </trkpt>
      <trkpt lat="44.82736" lon="6.72626">
        <ele>2072.4</ele>
        <time>2022-07-18T04:33:01Z</time>
      </trkpt>
      <trkpt lat="44.82739" lon="6.72627">
        <ele>2072.6</ele>
        <time>2022-07-18T04:33:02Z</time>
      </trkpt>
      <trkpt lat="44.82741" lon="6.72628">
        <ele>2072.6</ele>
        <time>2022-07-18T04:33:03Z</time>
      </trkpt>
      <trkpt lat="44.82743" lon="6.72628">
        <ele>2072.8</ele>
        <time>2022-07-18T04:33:04Z</time>
      </trkpt>
      <trkpt lat="44.82745" lon="6.72629">
        <ele>2072.8</ele>
        <time>2022-07-18T04:33:05Z</time>
      </trkpt>
      <trkpt lat="44.82747" lon="6.72629">
        <ele>2072.8</ele>
        <time>2022-07-18T04:33:06Z</time>
      </trkpt>
      <trkpt lat="44.82749" lon="6.72629">
        <ele>2073</ele>
        <time>2022-07-18T04:33:07Z</time>
      </trkpt>
      <trkpt lat="44.82752" lon="6.7263">
        <ele>2073</ele>
        <time>2022-07-18T04:33:08Z</time>
      </trkpt>
      <trkpt lat="44.82754" lon="6.72631">
        <ele>2073</ele>
        <time>2022-07-18T04:33:09Z</time>
      </trkpt>
      <trkpt lat="44.82756" lon="6.72631">
        <ele>2073.4</ele>
        <time>2022-07-18T04:33:10Z</time>
      </trkpt>
      <trkpt lat="44.82758" lon="6.72632">
        <ele>2073.4</ele>
        <time>2022-07-18T04:33:11Z</time>
      </trkpt>
      <trkpt lat="44.8276" lon="6.72632">
        <ele>2073.4</ele>
        <time>2022-07-18T04:33:12Z</time>
      </trkpt>
      <trkpt lat="44.82762" lon="6.72633">
        <ele>2073.6</ele>
        <time>2022-07-18T04:33:13Z</time>
      </trkpt>
      <trkpt lat="44.82764" lon="6.72633">
        <ele>2073.6</ele>
        <time>2022-07-18T04:33:14Z</time>
      </trkpt>
      <trkpt lat="44.82766" lon="6.72634">
        <ele>2074</ele>
        <time>2022-07-18T04:33:15Z</time>
      </trkpt>
      <trkpt lat="44.82768" lon="6.72634">
        <ele>2074</ele>
        <time>2022-07-18T04:33:16Z</time>
      </trkpt>
      <trkpt lat="44.8277" lon="6.72635">
        <ele>2074</ele>
        <time>2022-07-18T04:33:17Z</time>
      </trkpt>
      <trkpt lat="44.82772" lon="6.72636">
        <ele>2074.4</ele>
        <time>2022-07-18T04:33:18Z</time>
      </trkpt>
      <trkpt lat="44.82774" lon="6.72636">
        <ele>2074.4</ele>
        <time>2022-07-18T04:33:19Z</time>
      </trkpt>
      <trkpt lat="44.82776" lon="6.72636">
        <ele>2074.8</ele>
        <time>2022-07-18T04:33:20Z</time>
      </trkpt>
      <trkpt lat="44.82778" lon="6.72637">
        <ele>2075</ele>
        <time>2022-07-18T04:33:21Z</time>
      </trkpt>
      <trkpt lat="44.8278" lon="6.72638">
        <ele>2075</ele>
        <time>2022-07-18T04:33:22Z</time>
      </trkpt>
      <trkpt lat="44.82782" lon="6.72639">
        <ele>2075.2</ele>
        <time>2022-07-18T04:33:23Z</time>
      </trkpt>
      <trkpt lat="44.82784" lon="6.72639">
        <ele>2075.2</ele>
        <time>2022-07-18T04:33:24Z</time>
      </trkpt>
      <trkpt lat="44.82785" lon="6.7264">
        <ele>2075.6</ele>
        <time>2022-07-18T04:33:25Z</time>
      </trkpt>
      <trkpt lat="44.82787" lon="6.7264">
        <ele>2075.6</ele>
        <time>2022-07-18T04:33:26Z</time>
      </trkpt>
      <trkpt lat="44.82789" lon="6.72641">
        <ele>2076</ele>
        <time>2022-07-18T04:33:27Z</time>
      </trkpt>
      <trkpt lat="44.82791" lon="6.72641">
        <ele>2076.2</ele>
        <time>2022-07-18T04:33:28Z</time>
      </trkpt>
      <trkpt lat="44.82793" lon="6.72642">
        <ele>2076.4</ele>
        <time>2022-07-18T04:33:29Z</time>
      </trkpt>
      <trkpt lat="44.82795" lon="6.72642">
        <ele>2076.6</ele>
        <time>2022-07-18T04:33:30Z</time>
      </trkpt>
      <trkpt lat="44.82796" lon="6.72643">
        <ele>2076.8</ele>
        <time>2022-07-18T04:33:31Z</time>
      </trkpt>
      <trkpt lat="44.82798" lon="6.72643">
        <ele>2077</ele>
        <time>2022-07-18T04:33:32Z</time>
      </trkpt>
      <trkpt lat="44.828" lon="6.72643">
        <ele>2077.4</ele>
        <time>2022-07-18T04:33:33Z</time>
      </trkpt>
      <trkpt lat="44.82802" lon="6.72643">
        <ele>2077.6</ele>
        <time>2022-07-18T04:33:34Z</time>
      </trkpt>
      <trkpt lat="44.82804" lon="6.72644">
        <ele>2077.8</ele>
        <time>2022-07-18T04:33:35Z</time>
      </trkpt>
      <trkpt lat="44.82806" lon="6.72644">
        <ele>2078</ele>
        <time>2022-07-18T04:33:36Z</time>
      </trkpt>
      <trkpt lat="44.82807" lon="6.72645">
        <ele>2078</ele>
        <time>2022-07-18T04:33:37Z</time>
      </trkpt>
      <trkpt lat="44.82809" lon="6.72645">
        <ele>2078.4</ele>
        <time>2022-07-18T04:33:38Z</time>
      </trkpt>
      <trkpt lat="44.82811" lon="6.72646">
        <ele>2078.4</ele>
        <time>2022-07-18T04:33:39Z</time>
      </trkpt>
      <trkpt lat="44.82813" lon="6.72647">
        <ele>2078.8</ele>
        <time>2022-07-18T04:33:40Z</time>
      </trkpt>
      <trkpt lat="44.82815" lon="6.72647">
        <ele>2078.8</ele>
        <time>2022-07-18T04:33:41Z</time>
      </trkpt>
      <trkpt lat="44.82817" lon="6.72648">
        <ele>2079</ele>
        <time>2022-07-18T04:33:42Z</time>
      </trkpt>
      <trkpt lat="44.82819" lon="6.7265">
        <ele>2079</ele>
        <time>2022-07-18T04:33:43Z</time>
      </trkpt>
      <trkpt lat="44.82821" lon="6.72651">
        <ele>2079.4</ele>
        <time>2022-07-18T04:33:44Z</time>
      </trkpt>
      <trkpt lat="44.82822" lon="6.72653">
        <ele>2079.4</ele>
        <time>2022-07-18T04:33:45Z</time>
      </trkpt>
      <trkpt lat="44.82824" lon="6.72654">
        <ele>2079.8</ele>
        <time>2022-07-18T04:33:46Z</time>
      </trkpt>
      <trkpt lat="44.82825" lon="6.72656">
        <ele>2080</ele>
        <time>2022-07-18T04:33:47Z</time>
      </trkpt>
      <trkpt lat="44.82826" lon="6.72657">
        <ele>2080</ele>
        <time>2022-07-18T04:33:48Z</time>
      </trkpt>
      <trkpt lat="44.82827" lon="6.72659">
        <ele>2080.2</ele>
        <time>2022-07-18T04:33:49Z</time>
      </trkpt>
      <trkpt lat="44.82828" lon="6.72661">
        <ele>2080.2</ele>
        <time>2022-07-18T04:33:50Z</time>
      </trkpt>
      <trkpt lat="44.82829" lon="6.72664">
        <ele>2080.6</ele>
        <time>2022-07-18T04:33:51Z</time>
      </trkpt>
      <trkpt lat="44.8283" lon="6.72666">
        <ele>2080.6</ele>
        <time>2022-07-18T04:33:52Z</time>
      </trkpt>
      <trkpt lat="44.82831" lon="6.72668">
        <ele>2081</ele>
        <time>2022-07-18T04:33:53Z</time>
      </trkpt>
      <trkpt lat="44.82831" lon="6.72671">
        <ele>2081.2</ele>
        <time>2022-07-18T04:33:54Z</time>
      </trkpt>
      <trkpt lat="44.82832" lon="6.72673">
        <ele>2081.2</ele>
        <time>2022-07-18T04:33:55Z</time>
      </trkpt>
      <trkpt lat="44.82833" lon="6.72675">
        <ele>2081.6</ele>
        <time>2022-07-18T04:33:56Z</time>
      </trkpt>
      <trkpt lat="44.82834" lon="6.72677">
        <ele>2081.6</ele>
        <time>2022-07-18T04:33:57Z</time>
      </trkpt>
      <trkpt lat="44.82835" lon="6.72679">
        <ele>2082</ele>
        <time>2022-07-18T04:33:58Z</time>
      </trkpt>
      <trkpt lat="44.82836" lon="6.72682">
        <ele>2082</ele>
        <time>2022-07-18T04:33:59Z</time>
      </trkpt>
      <trkpt lat="44.82837" lon="6.72684">
        <ele>2082.4</ele>
        <time>2022-07-18T04:34:00Z</time>
      </trkpt>
      <trkpt lat="44.82838" lon="6.72686">
        <ele>2082.6</ele>
        <time>2022-07-18T04:34:01Z</time>
      </trkpt>
      <trkpt lat="44.82839" lon="6.72687">
        <ele>2082.6</ele>
        <time>2022-07-18T04:34:02Z</time>
      </trkpt>
      <trkpt lat="44.8284" lon="6.72689">
        <ele>2083</ele>
        <time>2022-07-18T04:34:03Z</time>
      </trkpt>
      <trkpt lat="44.82841" lon="6.72691">
        <ele>2083</ele>
        <time>2022-07-18T04:34:04Z</time>
      </trkpt>
      <trkpt lat="44.82842" lon="6.72693">
        <ele>2083.2</ele>
        <time>2022-07-18T04:34:05Z</time>
      </trkpt>
      <trkpt lat="44.82844" lon="6.72695">
        <ele>2083.2</ele>
        <time>2022-07-18T04:34:06Z</time>
      </trkpt>
      <trkpt lat="44.82845" lon="6.72697">
        <ele>2083.6</ele>
        <time>2022-07-18T04:34:07Z</time>
      </trkpt>
      <trkpt lat="44.82847" lon="6.72699">
        <ele>2083.6</ele>
        <time>2022-07-18T04:34:08Z</time>
      </trkpt>
      <trkpt lat="44.82848" lon="6.72701">
        <ele>2084</ele>
        <time>2022-07-18T04:34:09Z</time>
      </trkpt>
      <trkpt lat="44.8285" lon="6.72702">
        <ele>2084</ele>
        <time>2022-07-18T04:34:10Z</time>
      </trkpt>
      <trkpt lat="44.82851" lon="6.72704">
        <ele>2084.2</ele>
        <time>2022-07-18T04:34:11Z</time>
      </trkpt>
      <trkpt lat="44.82853" lon="6.72706">
        <ele>2084.4</ele>
        <time>2022-07-18T04:34:12Z</time>
      </trkpt>
      <trkpt lat="44.82853" lon="6.72708">
        <ele>2084.4</ele>
        <time>2022-07-18T04:34:13Z</time>
      </trkpt>
      <trkpt lat="44.82855" lon="6.7271">
        <ele>2084.8</ele>
        <time>2022-07-18T04:34:14Z</time>
      </trkpt>
      <trkpt lat="44.82856" lon="6.72712">
        <ele>2084.8</ele>
        <time>2022-07-18T04:34:15Z</time>
      </trkpt>
      <trkpt lat="44.82857" lon="6.72715">
        <ele>2085</ele>
        <time>2022-07-18T04:34:16Z</time>
      </trkpt>
      <trkpt lat="44.82857" lon="6.72717">
        <ele>2085.4</ele>
        <time>2022-07-18T04:34:17Z</time>
      </trkpt>
      <trkpt lat="44.82858" lon="6.7272">
        <ele>2085.4</ele>
        <time>2022-07-18T04:34:18Z</time>
      </trkpt>
      <trkpt lat="44.82859" lon="6.72723">
        <ele>2085.8</ele>
        <time>2022-07-18T04:34:19Z</time>
      </trkpt>
      <trkpt lat="44.82859" lon="6.72725">
        <ele>2085.8</ele>
        <time>2022-07-18T04:34:20Z</time>
      </trkpt>
      <trkpt lat="44.8286" lon="6.72728">
        <ele>2086</ele>
        <time>2022-07-18T04:34:21Z</time>
      </trkpt>
      <trkpt lat="44.8286" lon="6.72731">
        <ele>2086</ele>
        <time>2022-07-18T04:34:22Z</time>
      </trkpt>
      <trkpt lat="44.8286" lon="6.72734">
        <ele>2086.4</ele>
        <time>2022-07-18T04:34:23Z</time>
      </trkpt>
      <trkpt lat="44.8286" lon="6.72736">
        <ele>2086.6</ele>
        <time>2022-07-18T04:34:24Z</time>
      </trkpt>
      <trkpt lat="44.8286" lon="6.72739">
        <ele>2086.8</ele>
        <time>2022-07-18T04:34:25Z</time>
      </trkpt>
      <trkpt lat="44.8286" lon="6.72741">
        <ele>2086.8</ele>
        <time>2022-07-18T04:34:26Z</time>
      </trkpt>
      <trkpt lat="44.8286" lon="6.72744">
        <ele>2087.4</ele>
        <time>2022-07-18T04:34:27Z</time>
      </trkpt>
      <trkpt lat="44.8286" lon="6.72746">
        <ele>2087.6</ele>
        <time>2022-07-18T04:34:28Z</time>
      </trkpt>
      <trkpt lat="44.82859" lon="6.72749">
        <ele>2087.8</ele>
        <time>2022-07-18T04:34:29Z</time>
      </trkpt>
      <trkpt lat="44.82859" lon="6.72751">
        <ele>2087.8</ele>
        <time>2022-07-18T04:34:30Z</time>
      </trkpt>
      <trkpt lat="44.82859" lon="6.72753">
        <ele>2088.2</ele>
        <time>2022-07-18T04:34:31Z</time>
      </trkpt>
      <trkpt lat="44.82858" lon="6.72755">
        <ele>2088.2</ele>
        <time>2022-07-18T04:34:32Z</time>
      </trkpt>
      <trkpt lat="44.82858" lon="6.72758">
        <ele>2088.6</ele>
        <time>2022-07-18T04:34:33Z</time>
      </trkpt>
      <trkpt lat="44.82857" lon="6.7276">
        <ele>2088.8</ele>
        <time>2022-07-18T04:34:34Z</time>
      </trkpt>
      <trkpt lat="44.82857" lon="6.72762">
        <ele>2088.8</ele>
        <time>2022-07-18T04:34:35Z</time>
      </trkpt>
      <trkpt lat="44.82857" lon="6.72764">
        <ele>2089.2</ele>
        <time>2022-07-18T04:34:36Z</time>
      </trkpt>
      <trkpt lat="44.82856" lon="6.72767">
        <ele>2089.2</ele>
        <time>2022-07-18T04:34:37Z</time>
      </trkpt>
      <trkpt lat="44.82856" lon="6.72769">
        <ele>2089.4</ele>
        <time>2022-07-18T04:34:38Z</time>
      </trkpt>
      <trkpt lat="44.82855" lon="6.72771">
        <ele>2089.4</ele>
        <time>2022-07-18T04:34:39Z</time>
      </trkpt>
      <trkpt lat="44.82854" lon="6.72774">
        <ele>2089.8</ele>
        <time>2022-07-18T04:34:40Z</time>
      </trkpt>
      <trkpt lat="44.82852" lon="6.72776">
        <ele>2090</ele>
        <time>2022-07-18T04:34:41Z</time>
      </trkpt>
      <trkpt lat="44.82852" lon="6.72777">
        <ele>2090.4</ele>
        <time>2022-07-18T04:34:42Z</time>
      </trkpt>
      <trkpt lat="44.8285" lon="6.72778">
        <ele>2090.6</ele>
        <time>2022-07-18T04:34:43Z</time>
      </trkpt>
      <trkpt lat="44.82848" lon="6.72778">
        <ele>2090.8</ele>
        <time>2022-07-18T04:34:44Z</time>
      </trkpt>
      <trkpt lat="44.82846" lon="6.72779">
        <ele>2091</ele>
        <time>2022-07-18T04:34:45Z</time>
      </trkpt>
      <trkpt lat="44.82844" lon="6.72778">
        <ele>2091.2</ele>
        <time>2022-07-18T04:34:46Z</time>
      </trkpt>
      <trkpt lat="44.82842" lon="6.72777">
        <ele>2091.4</ele>
        <time>2022-07-18T04:34:47Z</time>
      </trkpt>
      <trkpt lat="44.82841" lon="6.72774">
        <ele>2091.4</ele>
        <time>2022-07-18T04:34:48Z</time>
      </trkpt>
      <trkpt lat="44.8284" lon="6.72772">
        <ele>2091.8</ele>
        <time>2022-07-18T04:34:49Z</time>
      </trkpt>
      <trkpt lat="44.82838" lon="6.7277">
        <ele>2091.8</ele>
        <time>2022-07-18T04:34:50Z</time>
      </trkpt>
      <trkpt lat="44.82837" lon="6.72768">
        <ele>2092.2</ele>
        <time>2022-07-18T04:34:51Z</time>
      </trkpt>
      <trkpt lat="44.82836" lon="6.72766">
        <ele>2092.6</ele>
        <time>2022-07-18T04:34:52Z</time>
      </trkpt>
      <trkpt lat="44.82835" lon="6.72763">
        <ele>2092.8</ele>
        <time>2022-07-18T04:34:53Z</time>
      </trkpt>
      <trkpt lat="44.82834" lon="6.72761">
        <ele>2093</ele>
        <time>2022-07-18T04:34:54Z</time>
      </trkpt>
      <trkpt lat="44.82832" lon="6.72759">
        <ele>2093</ele>
        <time>2022-07-18T04:34:55Z</time>
      </trkpt>
      <trkpt lat="44.82831" lon="6.72758">
        <ele>2093.4</ele>
        <time>2022-07-18T04:34:56Z</time>
      </trkpt>
      <trkpt lat="44.82829" lon="6.72756">
        <ele>2093.6</ele>
        <time>2022-07-18T04:34:57Z</time>
      </trkpt>
      <trkpt lat="44.82828" lon="6.72754">
        <ele>2093.6</ele>
        <time>2022-07-18T04:34:58Z</time>
      </trkpt>
      <trkpt lat="44.82826" lon="6.72753">
        <ele>2093.8</ele>
        <time>2022-07-18T04:34:59Z</time>
      </trkpt>
      <trkpt lat="44.82825" lon="6.72751">
        <ele>2093.8</ele>
        <time>2022-07-18T04:35:00Z</time>
      </trkpt>
      <trkpt lat="44.82823" lon="6.72749">
        <ele>2094.2</ele>
        <time>2022-07-18T04:35:01Z</time>
      </trkpt>
      <trkpt lat="44.82821" lon="6.72748">
        <ele>2094.2</ele>
        <time>2022-07-18T04:35:02Z</time>
      </trkpt>
      <trkpt lat="44.8282" lon="6.72747">
        <ele>2094.4</ele>
        <time>2022-07-18T04:35:03Z</time>
      </trkpt>
      <trkpt lat="44.82818" lon="6.72745">
        <ele>2094.6</ele>
        <time>2022-07-18T04:35:04Z</time>
      </trkpt>
      <trkpt lat="44.82816" lon="6.72744">
        <ele>2094.6</ele>
        <time>2022-07-18T04:35:05Z</time>
      </trkpt>
      <trkpt lat="44.82814" lon="6.72743">
        <ele>2095</ele>
        <time>2022-07-18T04:35:06Z</time>
      </trkpt>
      <trkpt lat="44.82812" lon="6.72742">
        <ele>2095</ele>
        <time>2022-07-18T04:35:07Z</time>
      </trkpt>
      <trkpt lat="44.82811" lon="6.72742">
        <ele>2095</ele>
        <time>2022-07-18T04:35:08Z</time>
      </trkpt>
      <trkpt lat="44.82809" lon="6.72742">
        <ele>2095.2</ele>
        <time>2022-07-18T04:35:09Z</time>
      </trkpt>
      <trkpt lat="44.82807" lon="6.72741">
        <ele>2095.2</ele>
        <time>2022-07-18T04:35:10Z</time>
      </trkpt>
      <trkpt lat="44.82805" lon="6.72741">
        <ele>2095.6</ele>
        <time>2022-07-18T04:35:11Z</time>
      </trkpt>
      <trkpt lat="44.82803" lon="6.72741">
        <ele>2095.6</ele>
        <time>2022-07-18T04:35:12Z</time>
      </trkpt>
      <trkpt lat="44.82801" lon="6.7274">
        <ele>2095.8</ele>
        <time>2022-07-18T04:35:13Z</time>
      </trkpt>
      <trkpt lat="44.82799" lon="6.7274">
        <ele>2096</ele>
        <time>2022-07-18T04:35:14Z</time>
      </trkpt>
      <trkpt lat="44.82798" lon="6.72739">
        <ele>2096</ele>
        <time>2022-07-18T04:35:15Z</time>
      </trkpt>
      <trkpt lat="44.82796" lon="6.72739">
        <ele>2096.4</ele>
        <time>2022-07-18T04:35:16Z</time>
      </trkpt>
      <trkpt lat="44.82794" lon="6.72739">
        <ele>2096.4</ele>
        <time>2022-07-18T04:35:17Z</time>
      </trkpt>
      <trkpt lat="44.82792" lon="6.72739">
        <ele>2096.6</ele>
        <time>2022-07-18T04:35:18Z</time>
      </trkpt>
      <trkpt lat="44.82791" lon="6.72738">
        <ele>2097</ele>
        <time>2022-07-18T04:35:19Z</time>
      </trkpt>
      <trkpt lat="44.82789" lon="6.72738">
        <ele>2097</ele>
        <time>2022-07-18T04:35:20Z</time>
      </trkpt>
      <trkpt lat="44.82787" lon="6.72737">
        <ele>2097.4</ele>
        <time>2022-07-18T04:35:21Z</time>
      </trkpt>
      <trkpt lat="44.82785" lon="6.72737">
        <ele>2097.6</ele>
        <time>2022-07-18T04:35:22Z</time>
      </trkpt>
      <trkpt lat="44.82784" lon="6.72737">
        <ele>2097.6</ele>
        <time>2022-07-18T04:35:23Z</time>
      </trkpt>
      <trkpt lat="44.82782" lon="6.72737">
        <ele>2097.8</ele>
        <time>2022-07-18T04:35:24Z</time>
      </trkpt>
      <trkpt lat="44.82781" lon="6.72736">
        <ele>2097.8</ele>
        <time>2022-07-18T04:35:25Z</time>
      </trkpt>
      <trkpt lat="44.82779" lon="6.72736">
        <ele>2098.2</ele>
        <time>2022-07-18T04:35:26Z</time>
      </trkpt>
      <trkpt lat="44.82778" lon="6.72736">
        <ele>2098.2</ele>
        <time>2022-07-18T04:35:27Z</time>
      </trkpt>
      <trkpt lat="44.82776" lon="6.72735">
        <ele>2098.4</ele>
        <time>2022-07-18T04:35:28Z</time>
      </trkpt>
      <trkpt lat="44.82774" lon="6.72735">
        <ele>2098.6</ele>
        <time>2022-07-18T04:35:29Z</time>
      </trkpt>
      <trkpt lat="44.82773" lon="6.72735">
        <ele>2098.6</ele>
        <time>2022-07-18T04:35:30Z</time>
      </trkpt>
      <trkpt lat="44.82771" lon="6.72734">
        <ele>2098.8</ele>
        <time>2022-07-18T04:35:31Z</time>
      </trkpt>
      <trkpt lat="44.82769" lon="6.72734">
        <ele>2098.8</ele>
        <time>2022-07-18T04:35:32Z</time>
      </trkpt>
      <trkpt lat="44.82767" lon="6.72733">
        <ele>2099.2</ele>
        <time>2022-07-18T04:35:33Z</time>
      </trkpt>
      <trkpt lat="44.82765" lon="6.72733">
        <ele>2099.2</ele>
        <time>2022-07-18T04:35:34Z</time>
      </trkpt>
      <trkpt lat="44.82763" lon="6.72733">
        <ele>2099.6</ele>
        <time>2022-07-18T04:35:35Z</time>
      </trkpt>
      <trkpt lat="44.82761" lon="6.72733">
        <ele>2099.8</ele>
        <time>2022-07-18T04:35:36Z</time>
      </trkpt>
      <trkpt lat="44.82759" lon="6.72733">
        <ele>2100</ele>
        <time>2022-07-18T04:35:37Z</time>
      </trkpt>
      <trkpt lat="44.82757" lon="6.72733">
        <ele>2100.2</ele>
        <time>2022-07-18T04:35:38Z</time>
      </trkpt>
      <trkpt lat="44.82755" lon="6.72733">
        <ele>2100.6</ele>
        <time>2022-07-18T04:35:39Z</time>
      </trkpt>
      <trkpt lat="44.82753" lon="6.72733">
        <ele>2100.6</ele>
        <time>2022-07-18T04:35:40Z</time>
      </trkpt>
      <trkpt lat="44.82751" lon="6.72732">
        <ele>2100.8</ele>
        <time>2022-07-18T04:35:41Z</time>
      </trkpt>
      <trkpt lat="44.82749" lon="6.72732">
        <ele>2100.8</ele>
        <time>2022-07-18T04:35:42Z</time>
      </trkpt>
      <trkpt lat="44.82748" lon="6.72732">
        <ele>2101.2</ele>
        <time>2022-07-18T04:35:43Z</time>
      </trkpt>
      <trkpt lat="44.82746" lon="6.72732">
        <ele>2101.4</ele>
        <time>2022-07-18T04:35:44Z</time>
      </trkpt>
      <trkpt lat="44.82744" lon="6.72733">
        <ele>2101.6</ele>
        <time>2022-07-18T04:35:45Z</time>
      </trkpt>
      <trkpt lat="44.82742" lon="6.72733">
        <ele>2101.8</ele>
        <time>2022-07-18T04:35:46Z</time>
      </trkpt>
      <trkpt lat="44.8274" lon="6.72733">
        <ele>2101.8</ele>
        <time>2022-07-18T04:35:47Z</time>
      </trkpt>
      <trkpt lat="44.82739" lon="6.72732">
        <ele>2102.2</ele>
        <time>2022-07-18T04:35:48Z</time>
      </trkpt>
      <trkpt lat="44.82737" lon="6.72732">
        <ele>2102.2</ele>
        <time>2022-07-18T04:35:49Z</time>
      </trkpt>
      <trkpt lat="44.82735" lon="6.72733">
        <ele>2102.4</ele>
        <time>2022-07-18T04:35:50Z</time>
      </trkpt>
      <trkpt lat="44.82733" lon="6.72733">
        <ele>2102.4</ele>
        <time>2022-07-18T04:35:51Z</time>
      </trkpt>
      <trkpt lat="44.82731" lon="6.72733">
        <ele>2102.8</ele>
        <time>2022-07-18T04:35:52Z</time>
      </trkpt>
      <trkpt lat="44.82729" lon="6.72734">
        <ele>2102.8</ele>
        <time>2022-07-18T04:35:53Z</time>
      </trkpt>
      <trkpt lat="44.82727" lon="6.72734">
        <ele>2103.2</ele>
        <time>2022-07-18T04:35:54Z</time>
      </trkpt>
      <trkpt lat="44.82726" lon="6.72735">
        <ele>2103.4</ele>
        <time>2022-07-18T04:35:55Z</time>
      </trkpt>
      <trkpt lat="44.82724" lon="6.72736">
        <ele>2103.4</ele>
        <time>2022-07-18T04:35:56Z</time>
      </trkpt>
      <trkpt lat="44.82722" lon="6.72736">
        <ele>2103.8</ele>
        <time>2022-07-18T04:35:57Z</time>
      </trkpt>
      <trkpt lat="44.82721" lon="6.72737">
        <ele>2103.8</ele>
        <time>2022-07-18T04:35:58Z</time>
      </trkpt>
      <trkpt lat="44.82719" lon="6.72738">
        <ele>2104</ele>
        <time>2022-07-18T04:35:59Z</time>
      </trkpt>
      <trkpt lat="44.82717" lon="6.72739">
        <ele>2104</ele>
        <time>2022-07-18T04:36:00Z</time>
      </trkpt>
      <trkpt lat="44.82715" lon="6.72739">
        <ele>2104.4</ele>
        <time>2022-07-18T04:36:01Z</time>
      </trkpt>
      <trkpt lat="44.82713" lon="6.7274">
        <ele>2104.4</ele>
        <time>2022-07-18T04:36:02Z</time>
      </trkpt>
      <trkpt lat="44.82711" lon="6.72741">
        <ele>2104.6</ele>
        <time>2022-07-18T04:36:03Z</time>
      </trkpt>
      <trkpt lat="44.82709" lon="6.72742">
        <ele>2104.6</ele>
        <time>2022-07-18T04:36:04Z</time>
      </trkpt>
      <trkpt lat="44.82707" lon="6.72744">
        <ele>2105</ele>
        <time>2022-07-18T04:36:05Z</time>
      </trkpt>
      <trkpt lat="44.82706" lon="6.72745">
        <ele>2105.2</ele>
        <time>2022-07-18T04:36:06Z</time>
      </trkpt>
      <trkpt lat="44.82704" lon="6.72746">
        <ele>2105.2</ele>
        <time>2022-07-18T04:36:07Z</time>
      </trkpt>
      <trkpt lat="44.82702" lon="6.72747">
        <ele>2105.6</ele>
        <time>2022-07-18T04:36:08Z</time>
      </trkpt>
      <trkpt lat="44.827" lon="6.72748">
        <ele>2105.6</ele>
        <time>2022-07-18T04:36:09Z</time>
      </trkpt>
      <trkpt lat="44.82698" lon="6.72749">
        <ele>2105.8</ele>
        <time>2022-07-18T04:36:10Z</time>
      </trkpt>
      <trkpt lat="44.82697" lon="6.72751">
        <ele>2105.8</ele>
        <time>2022-07-18T04:36:11Z</time>
      </trkpt>
      <trkpt lat="44.82695" lon="6.72752">
        <ele>2106.2</ele>
        <time>2022-07-18T04:36:12Z</time>
      </trkpt>
      <trkpt lat="44.82693" lon="6.72754">
        <ele>2106.2</ele>
        <time>2022-07-18T04:36:13Z</time>
      </trkpt>
      <trkpt lat="44.82692" lon="6.72755">
        <ele>2106.4</ele>
        <time>2022-07-18T04:36:14Z</time>
      </trkpt>
      <trkpt lat="44.8269" lon="6.72757">
        <ele>2106.4</ele>
        <time>2022-07-18T04:36:15Z</time>
      </trkpt>
      <trkpt lat="44.82689" lon="6.72758">
        <ele>2106.8</ele>
        <time>2022-07-18T04:36:16Z</time>
      </trkpt>
      <trkpt lat="44.82687" lon="6.72759">
        <ele>2106.8</ele>
        <time>2022-07-18T04:36:17Z</time>
      </trkpt>
      <trkpt lat="44.82686" lon="6.72761">
        <ele>2107</ele>
        <time>2022-07-18T04:36:18Z</time>
      </trkpt>
      <trkpt lat="44.82684" lon="6.72762">
        <ele>2107</ele>
        <time>2022-07-18T04:36:19Z</time>
      </trkpt>
      <trkpt lat="44.82683" lon="6.72763">
        <ele>2107.4</ele>
        <time>2022-07-18T04:36:20Z</time>
      </trkpt>
      <trkpt lat="44.82681" lon="6.72765">
        <ele>2107.6</ele>
        <time>2022-07-18T04:36:21Z</time>
      </trkpt>
      <trkpt lat="44.8268" lon="6.72766">
        <ele>2107.8</ele>
        <time>2022-07-18T04:36:22Z</time>
      </trkpt>
      <trkpt lat="44.82679" lon="6.72767">
        <ele>2108.2</ele>
        <time>2022-07-18T04:36:23Z</time>
      </trkpt>
      <trkpt lat="44.82678" lon="6.72768">
        <ele>2108.2</ele>
        <time>2022-07-18T04:36:24Z</time>
      </trkpt>
      <trkpt lat="44.82677" lon="6.7277">
        <ele>2108.6</ele>
        <time>2022-07-18T04:36:25Z</time>
      </trkpt>
      <trkpt lat="44.82675" lon="6.72772">
        <ele>2108.6</ele>
        <time>2022-07-18T04:36:26Z</time>
      </trkpt>
      <trkpt lat="44.82674" lon="6.72774">
        <ele>2108.8</ele>
        <time>2022-07-18T04:36:27Z</time>
      </trkpt>
      <trkpt lat="44.82672" lon="6.72776">
        <ele>2108.8</ele>
        <time>2022-07-18T04:36:28Z</time>
      </trkpt>
      <trkpt lat="44.8267" lon="6.72778">
        <ele>2109</ele>
        <time>2022-07-18T04:36:29Z</time>
      </trkpt>
      <trkpt lat="44.82668" lon="6.7278">
        <ele>2109</ele>
        <time>2022-07-18T04:36:30Z</time>
      </trkpt>
      <trkpt lat="44.82666" lon="6.72782">
        <ele>2109.4</ele>
        <time>2022-07-18T04:36:31Z</time>
      </trkpt>
      <trkpt lat="44.82664" lon="6.72784">
        <ele>2109.4</ele>
        <time>2022-07-18T04:36:32Z</time>
      </trkpt>
      <trkpt lat="44.82663" lon="6.72785">
        <ele>2109.6</ele>
        <time>2022-07-18T04:36:33Z</time>
      </trkpt>
      <trkpt lat="44.82661" lon="6.72787">
        <ele>2109.6</ele>
        <time>2022-07-18T04:36:34Z</time>
      </trkpt>
      <trkpt lat="44.8266" lon="6.72789">
        <ele>2109.8</ele>
        <time>2022-07-18T04:36:35Z</time>
      </trkpt>
      <trkpt lat="44.82658" lon="6.72791">
        <ele>2109.8</ele>
        <time>2022-07-18T04:36:36Z</time>
      </trkpt>
      <trkpt lat="44.82657" lon="6.72792">
        <ele>2110.2</ele>
        <time>2022-07-18T04:36:37Z</time>
      </trkpt>
      <trkpt lat="44.82655" lon="6.72794">
        <ele>2110.2</ele>
        <time>2022-07-18T04:36:38Z</time>
      </trkpt>
      <trkpt lat="44.82653" lon="6.72796">
        <ele>2110.6</ele>
        <time>2022-07-18T04:36:39Z</time>
      </trkpt>
      <trkpt lat="44.82651" lon="6.72797">
        <ele>2110.6</ele>
        <time>2022-07-18T04:36:40Z</time>
      </trkpt>
      <trkpt lat="44.82648" lon="6.72798">
        <ele>2110.8</ele>
        <time>2022-07-18T04:36:41Z</time>
      </trkpt>
      <trkpt lat="44.82647" lon="6.72799">
        <ele>2110.8</ele>
        <time>2022-07-18T04:36:42Z</time>
      </trkpt>
      <trkpt lat="44.82645" lon="6.72801">
        <ele>2111.2</ele>
        <time>2022-07-18T04:36:43Z</time>
      </trkpt>
      <trkpt lat="44.82643" lon="6.72802">
        <ele>2111.4</ele>
        <time>2022-07-18T04:36:44Z</time>
      </trkpt>
      <trkpt lat="44.82641" lon="6.72803">
        <ele>2111.4</ele>
        <time>2022-07-18T04:36:45Z</time>
      </trkpt>
      <trkpt lat="44.8264" lon="6.72805">
        <ele>2111.8</ele>
        <time>2022-07-18T04:36:46Z</time>
      </trkpt>
      <trkpt lat="44.82638" lon="6.72806">
        <ele>2112</ele>
        <time>2022-07-18T04:36:47Z</time>
      </trkpt>
      <trkpt lat="44.82636" lon="6.72807">
        <ele>2112</ele>
        <time>2022-07-18T04:36:48Z</time>
      </trkpt>
      <trkpt lat="44.82634" lon="6.72809">
        <ele>2112.4</ele>
        <time>2022-07-18T04:36:49Z</time>
      </trkpt>
      <trkpt lat="44.82632" lon="6.7281">
        <ele>2112.4</ele>
        <time>2022-07-18T04:36:50Z</time>
      </trkpt>
      <trkpt lat="44.82631" lon="6.72812">
        <ele>2112.8</ele>
        <time>2022-07-18T04:36:51Z</time>
      </trkpt>
      <trkpt lat="44.82629" lon="6.72814">
        <ele>2112.8</ele>
        <time>2022-07-18T04:36:52Z</time>
      </trkpt>
      <trkpt lat="44.82628" lon="6.72815">
        <ele>2113.2</ele>
        <time>2022-07-18T04:36:53Z</time>
      </trkpt>
      <trkpt lat="44.82627" lon="6.72817">
        <ele>2113.2</ele>
        <time>2022-07-18T04:36:54Z</time>
      </trkpt>
      <trkpt lat="44.82626" lon="6.7282">
        <ele>2113.4</ele>
        <time>2022-07-18T04:36:55Z</time>
      </trkpt>
      <trkpt lat="44.82625" lon="6.72822">
        <ele>2113.4</ele>
        <time>2022-07-18T04:36:56Z</time>
      </trkpt>
      <trkpt lat="44.82624" lon="6.72825">
        <ele>2113.4</ele>
        <time>2022-07-18T04:36:57Z</time>
      </trkpt>
      <trkpt lat="44.82624" lon="6.72827">
        <ele>2113.8</ele>
        <time>2022-07-18T04:36:58Z</time>
      </trkpt>
      <trkpt lat="44.82625" lon="6.7283">
        <ele>2114</ele>
        <time>2022-07-18T04:36:59Z</time>
      </trkpt>
      <trkpt lat="44.82625" lon="6.72832">
        <ele>2114</ele>
        <time>2022-07-18T04:37:00Z</time>
      </trkpt>
      <trkpt lat="44.82627" lon="6.72835">
        <ele>2114.2</ele>
        <time>2022-07-18T04:37:01Z</time>
      </trkpt>
      <trkpt lat="44.82628" lon="6.72837">
        <ele>2114.2</ele>
        <time>2022-07-18T04:37:02Z</time>
      </trkpt>
      <trkpt lat="44.8263" lon="6.72838">
        <ele>2114.2</ele>
        <time>2022-07-18T04:37:03Z</time>
      </trkpt>
      <trkpt lat="44.82632" lon="6.7284">
        <ele>2114.4</ele>
        <time>2022-07-18T04:37:04Z</time>
      </trkpt>
      <trkpt lat="44.82635" lon="6.72841">
        <ele>2114.4</ele>
        <time>2022-07-18T04:37:05Z</time>
      </trkpt>
      <trkpt lat="44.82637" lon="6.7284">
        <ele>2114.6</ele>
        <time>2022-07-18T04:37:06Z</time>
      </trkpt>
      <trkpt lat="44.8264" lon="6.7284">
        <ele>2114.6</ele>
        <time>2022-07-18T04:37:07Z</time>
      </trkpt>
      <trkpt lat="44.82642" lon="6.72839">
        <ele>2114.6</ele>
        <time>2022-07-18T04:37:08Z</time>
      </trkpt>
      <trkpt lat="44.82645" lon="6.72839">
        <ele>2115</ele>
        <time>2022-07-18T04:37:09Z</time>
      </trkpt>
      <trkpt lat="44.82647" lon="6.72838">
        <ele>2115</ele>
        <time>2022-07-18T04:37:10Z</time>
      </trkpt>
      <trkpt lat="44.8265" lon="6.72838">
        <ele>2115</ele>
        <time>2022-07-18T04:37:11Z</time>
      </trkpt>
      <trkpt lat="44.82652" lon="6.72837">
        <ele>2115.2</ele>
        <time>2022-07-18T04:37:12Z</time>
      </trkpt>
      <trkpt lat="44.82655" lon="6.72837">
        <ele>2115.2</ele>
        <time>2022-07-18T04:37:13Z</time>
      </trkpt>
      <trkpt lat="44.82657" lon="6.72837">
        <ele>2115.2</ele>
        <time>2022-07-18T04:37:14Z</time>
      </trkpt>
      <trkpt lat="44.82659" lon="6.72837">
        <ele>2115.2</ele>
        <time>2022-07-18T04:37:15Z</time>
      </trkpt>
      <trkpt lat="44.82662" lon="6.72838">
        <ele>2115.6</ele>
        <time>2022-07-18T04:37:16Z</time>
      </trkpt>
      <trkpt lat="44.82664" lon="6.72838">
        <ele>2115.6</ele>
        <time>2022-07-18T04:37:17Z</time>
      </trkpt>
      <trkpt lat="44.82666" lon="6.72839">
        <ele>2115.8</ele>
        <time>2022-07-18T04:37:18Z</time>
      </trkpt>
      <trkpt lat="44.82669" lon="6.7284">
        <ele>2115.8</ele>
        <time>2022-07-18T04:37:19Z</time>
      </trkpt>
      <trkpt lat="44.82671" lon="6.7284">
        <ele>2115.8</ele>
        <time>2022-07-18T04:37:20Z</time>
      </trkpt>
      <trkpt lat="44.82674" lon="6.72842">
        <ele>2116.2</ele>
        <time>2022-07-18T04:37:21Z</time>
      </trkpt>
      <trkpt lat="44.82676" lon="6.72843">
        <ele>2116.2</ele>
        <time>2022-07-18T04:37:22Z</time>
      </trkpt>
      <trkpt lat="44.82678" lon="6.72845">
        <ele>2116.2</ele>
        <time>2022-07-18T04:37:23Z</time>
      </trkpt>
      <trkpt lat="44.8268" lon="6.72846">
        <ele>2116.4</ele>
        <time>2022-07-18T04:37:24Z</time>
      </trkpt>
      <trkpt lat="44.82681" lon="6.72848">
        <ele>2116.4</ele>
        <time>2022-07-18T04:37:25Z</time>
      </trkpt>
      <trkpt lat="44.82683" lon="6.7285">
        <ele>2116.8</ele>
        <time>2022-07-18T04:37:26Z</time>
      </trkpt>
      <trkpt lat="44.82685" lon="6.72852">
        <ele>2116.8</ele>
        <time>2022-07-18T04:37:27Z</time>
      </trkpt>
      <trkpt lat="44.82687" lon="6.72854">
        <ele>2117</ele>
        <time>2022-07-18T04:37:28Z</time>
      </trkpt>
      <trkpt lat="44.82689" lon="6.72857">
        <ele>2117</ele>
        <time>2022-07-18T04:37:29Z</time>
      </trkpt>
      <trkpt lat="44.8269" lon="6.72859">
        <ele>2117</ele>
        <time>2022-07-18T04:37:30Z</time>
      </trkpt>
      <trkpt lat="44.82691" lon="6.72861">
        <ele>2117.2</ele>
        <time>2022-07-18T04:37:31Z</time>
      </trkpt>
      <trkpt lat="44.82693" lon="6.72863">
        <ele>2117.2</ele>
        <time>2022-07-18T04:37:32Z</time>
      </trkpt>
      <trkpt lat="44.82695" lon="6.72866">
        <ele>2117.2</ele>
        <time>2022-07-18T04:37:33Z</time>
      </trkpt>
      <trkpt lat="44.82697" lon="6.72868">
        <ele>2117.6</ele>
        <time>2022-07-18T04:37:34Z</time>
      </trkpt>
      <trkpt lat="44.82699" lon="6.7287">
        <ele>2117.6</ele>
        <time>2022-07-18T04:37:35Z</time>
      </trkpt>
      <trkpt lat="44.82701" lon="6.72872">
        <ele>2117.6</ele>
        <time>2022-07-18T04:37:36Z</time>
      </trkpt>
      <trkpt lat="44.82702" lon="6.72874">
        <ele>2118</ele>
        <time>2022-07-18T04:37:37Z</time>
      </trkpt>
      <trkpt lat="44.82704" lon="6.72876">
        <ele>2118</ele>
        <time>2022-07-18T04:37:38Z</time>
      </trkpt>
      <trkpt lat="44.82706" lon="6.72878">
        <ele>2118.4</ele>
        <time>2022-07-18T04:37:39Z</time>
      </trkpt>
      <trkpt lat="44.82708" lon="6.7288">
        <ele>2118.4</ele>
        <time>2022-07-18T04:37:40Z</time>
      </trkpt>
      <trkpt lat="44.8271" lon="6.72882">
        <ele>2118.6</ele>
        <time>2022-07-18T04:37:41Z</time>
      </trkpt>
      <trkpt lat="44.82711" lon="6.72884">
        <ele>2118.6</ele>
        <time>2022-07-18T04:37:42Z</time>
      </trkpt>
      <trkpt lat="44.82713" lon="6.72886">
        <ele>2118.8</ele>
        <time>2022-07-18T04:37:43Z</time>
      </trkpt>
      <trkpt lat="44.82715" lon="6.72888">
        <ele>2118.8</ele>
        <time>2022-07-18T04:37:44Z</time>
      </trkpt>
      <trkpt lat="44.82717" lon="6.72891">
        <ele>2119.2</ele>
        <time>2022-07-18T04:37:45Z</time>
      </trkpt>
      <trkpt lat="44.82718" lon="6.72893">
        <ele>2119.2</ele>
        <time>2022-07-18T04:37:46Z</time>
      </trkpt>
      <trkpt lat="44.8272" lon="6.72895">
        <ele>2119.2</ele>
        <time>2022-07-18T04:37:47Z</time>
      </trkpt>
      <trkpt lat="44.82721" lon="6.72898">
        <ele>2119.4</ele>
        <time>2022-07-18T04:37:48Z</time>
      </trkpt>
      <trkpt lat="44.82722" lon="6.729">
        <ele>2119.4</ele>
        <time>2022-07-18T04:37:49Z</time>
      </trkpt>
      <trkpt lat="44.82724" lon="6.72903">
        <ele>2119.8</ele>
        <time>2022-07-18T04:37:50Z</time>
      </trkpt>
      <trkpt lat="44.82725" lon="6.72906">
        <ele>2119.8</ele>
        <time>2022-07-18T04:37:51Z</time>
      </trkpt>
      <trkpt lat="44.82726" lon="6.72909">
        <ele>2120.2</ele>
        <time>2022-07-18T04:37:52Z</time>
      </trkpt>
      <trkpt lat="44.82727" lon="6.72911">
        <ele>2120.2</ele>
        <time>2022-07-18T04:37:53Z</time>
      </trkpt>
      <trkpt lat="44.82728" lon="6.72915">
        <ele>2120.4</ele>
        <time>2022-07-18T04:37:54Z</time>
      </trkpt>
      <trkpt lat="44.82728" lon="6.72918">
        <ele>2120.4</ele>
        <time>2022-07-18T04:37:55Z</time>
      </trkpt>
      <trkpt lat="44.82729" lon="6.72921">
        <ele>2120.8</ele>
        <time>2022-07-18T04:37:56Z</time>
      </trkpt>
      <trkpt lat="44.82729" lon="6.72924">
        <ele>2120.8</ele>
        <time>2022-07-18T04:37:57Z</time>
      </trkpt>
      <trkpt lat="44.82728" lon="6.72927">
        <ele>2121</ele>
        <time>2022-07-18T04:37:58Z</time>
      </trkpt>
      <trkpt lat="44.82728" lon="6.72929">
        <ele>2121</ele>
        <time>2022-07-18T04:37:59Z</time>
      </trkpt>
      <trkpt lat="44.82727" lon="6.72932">
        <ele>2121.4</ele>
        <time>2022-07-18T04:38:00Z</time>
      </trkpt>
      <trkpt lat="44.82726" lon="6.72934">
        <ele>2121.6</ele>
        <time>2022-07-18T04:38:01Z</time>
      </trkpt>
      <trkpt lat="44.82725" lon="6.72936">
        <ele>2121.6</ele>
        <time>2022-07-18T04:38:02Z</time>
      </trkpt>
      <trkpt lat="44.82723" lon="6.72938">
        <ele>2121.8</ele>
        <time>2022-07-18T04:38:03Z</time>
      </trkpt>
      <trkpt lat="44.82721" lon="6.72939">
        <ele>2121.8</ele>
        <time>2022-07-18T04:38:04Z</time>
      </trkpt>
      <trkpt lat="44.8272" lon="6.72941">
        <ele>2122.2</ele>
        <time>2022-07-18T04:38:05Z</time>
      </trkpt>
      <trkpt lat="44.82718" lon="6.72943">
        <ele>2122.4</ele>
        <time>2022-07-18T04:38:06Z</time>
      </trkpt>
      <trkpt lat="44.82716" lon="6.72944">
        <ele>2122.4</ele>
        <time>2022-07-18T04:38:07Z</time>
      </trkpt>
      <trkpt lat="44.82714" lon="6.72946">
        <ele>2122.6</ele>
        <time>2022-07-18T04:38:08Z</time>
      </trkpt>
      <trkpt lat="44.82712" lon="6.72948">
        <ele>2122.6</ele>
        <time>2022-07-18T04:38:09Z</time>
      </trkpt>
      <trkpt lat="44.8271" lon="6.72949">
        <ele>2122.8</ele>
        <time>2022-07-18T04:38:10Z</time>
      </trkpt>
      <trkpt lat="44.82709" lon="6.72951">
        <ele>2122.8</ele>
        <time>2022-07-18T04:38:11Z</time>
      </trkpt>
      <trkpt lat="44.82707" lon="6.72953">
        <ele>2123.2</ele>
        <time>2022-07-18T04:38:12Z</time>
      </trkpt>
      <trkpt lat="44.82706" lon="6.72954">
        <ele>2123.2</ele>
        <time>2022-07-18T04:38:13Z</time>
      </trkpt>
      <trkpt lat="44.82704" lon="6.72956">
        <ele>2123.6</ele>
        <time>2022-07-18T04:38:14Z</time>
      </trkpt>
      <trkpt lat="44.82703" lon="6.72958">
        <ele>2123.8</ele>
        <time>2022-07-18T04:38:15Z</time>
      </trkpt>
      <trkpt lat="44.82701" lon="6.7296">
        <ele>2124.2</ele>
        <time>2022-07-18T04:38:16Z</time>
      </trkpt>
      <trkpt lat="44.82699" lon="6.72961">
        <ele>2124.2</ele>
        <time>2022-07-18T04:38:17Z</time>
      </trkpt>
      <trkpt lat="44.82697" lon="6.72963">
        <ele>2124.4</ele>
        <time>2022-07-18T04:38:18Z</time>
      </trkpt>
      <trkpt lat="44.82695" lon="6.72965">
        <ele>2124.4</ele>
        <time>2022-07-18T04:38:19Z</time>
      </trkpt>
      <trkpt lat="44.82693" lon="6.72967">
        <ele>2124.8</ele>
        <time>2022-07-18T04:38:20Z</time>
      </trkpt>
      <trkpt lat="44.82691" lon="6.72968">
        <ele>2124.8</ele>
        <time>2022-07-18T04:38:21Z</time>
      </trkpt>
      <trkpt lat="44.82689" lon="6.7297">
        <ele>2125.2</ele>
        <time>2022-07-18T04:38:22Z</time>
      </trkpt>
      <trkpt lat="44.82688" lon="6.72972">
        <ele>2125.2</ele>
        <time>2022-07-18T04:38:23Z</time>
      </trkpt>
      <trkpt lat="44.82686" lon="6.72973">
        <ele>2125.6</ele>
        <time>2022-07-18T04:38:24Z</time>
      </trkpt>
      <trkpt lat="44.82684" lon="6.72975">
        <ele>2125.8</ele>
        <time>2022-07-18T04:38:25Z</time>
      </trkpt>
      <trkpt lat="44.82682" lon="6.72976">
        <ele>2125.8</ele>
        <time>2022-07-18T04:38:26Z</time>
      </trkpt>
      <trkpt lat="44.8268" lon="6.72978">
        <ele>2126.2</ele>
        <time>2022-07-18T04:38:27Z</time>
      </trkpt>
      <trkpt lat="44.82678" lon="6.72979">
        <ele>2126.2</ele>
        <time>2022-07-18T04:38:28Z</time>
      </trkpt>
      <trkpt lat="44.82676" lon="6.72981">
        <ele>2126.4</ele>
        <time>2022-07-18T04:38:29Z</time>
      </trkpt>
      <trkpt lat="44.82675" lon="6.72983">
        <ele>2126.4</ele>
        <time>2022-07-18T04:38:30Z</time>
      </trkpt>
      <trkpt lat="44.82673" lon="6.72985">
        <ele>2126.8</ele>
        <time>2022-07-18T04:38:31Z</time>
      </trkpt>
      <trkpt lat="44.82671" lon="6.72986">
        <ele>2126.8</ele>
        <time>2022-07-18T04:38:32Z</time>
      </trkpt>
      <trkpt lat="44.82669" lon="6.72988">
        <ele>2127</ele>
        <time>2022-07-18T04:38:33Z</time>
      </trkpt>
      <trkpt lat="44.82667" lon="6.7299">
        <ele>2127</ele>
        <time>2022-07-18T04:38:34Z</time>
      </trkpt>
      <trkpt lat="44.82666" lon="6.72991">
        <ele>2127.4</ele>
        <time>2022-07-18T04:38:35Z</time>
      </trkpt>
      <trkpt lat="44.82664" lon="6.72993">
        <ele>2127.4</ele>
        <time>2022-07-18T04:38:36Z</time>
      </trkpt>
      <trkpt lat="44.82662" lon="6.72994">
        <ele>2127.6</ele>
        <time>2022-07-18T04:38:37Z</time>
      </trkpt>
      <trkpt lat="44.8266" lon="6.72996">
        <ele>2127.6</ele>
        <time>2022-07-18T04:38:38Z</time>
      </trkpt>
      <trkpt lat="44.82659" lon="6.72998">
        <ele>2128</ele>
        <time>2022-07-18T04:38:39Z</time>
      </trkpt>
      <trkpt lat="44.82657" lon="6.72999">
        <ele>2128</ele>
        <time>2022-07-18T04:38:40Z</time>
      </trkpt>
      <trkpt lat="44.82655" lon="6.73001">
        <ele>2128.2</ele>
        <time>2022-07-18T04:38:41Z</time>
      </trkpt>
      <trkpt lat="44.82654" lon="6.73003">
        <ele>2128.4</ele>
        <time>2022-07-18T04:38:42Z</time>
      </trkpt>
      <trkpt lat="44.82652" lon="6.73004">
        <ele>2128.8</ele>
        <time>2022-07-18T04:38:43Z</time>
      </trkpt>
      <trkpt lat="44.8265" lon="6.73005">
        <ele>2129</ele>
        <time>2022-07-18T04:38:44Z</time>
      </trkpt>
      <trkpt lat="44.82648" lon="6.73007">
        <ele>2129.2</ele>
        <time>2022-07-18T04:38:45Z</time>
      </trkpt>
      <trkpt lat="44.82647" lon="6.73008">
        <ele>2129.4</ele>
        <time>2022-07-18T04:38:46Z</time>
      </trkpt>
      <trkpt lat="44.82645" lon="6.7301">
        <ele>2129.4</ele>
        <time>2022-07-18T04:38:47Z</time>
      </trkpt>
      <trkpt lat="44.82643" lon="6.73012">
        <ele>2129.8</ele>
        <time>2022-07-18T04:38:48Z</time>
      </trkpt>
      <trkpt lat="44.82642" lon="6.73013">
        <ele>2130</ele>
        <time>2022-07-18T04:38:49Z</time>
      </trkpt>
      <trkpt lat="44.8264" lon="6.73015">
        <ele>2130.2</ele>
        <time>2022-07-18T04:38:50Z</time>
      </trkpt>
      <trkpt lat="44.82638" lon="6.73016">
        <ele>2130.6</ele>
        <time>2022-07-18T04:38:52Z</time>
      </trkpt>
      <trkpt lat="44.82637" lon="6.73018">
        <ele>2130.6</ele>
        <time>2022-07-18T04:38:53Z</time>
      </trkpt>
      <trkpt lat="44.82635" lon="6.73019">
        <ele>2131.2</ele>
        <time>2022-07-18T04:38:54Z</time>
      </trkpt>
      <trkpt lat="44.82633" lon="6.73021">
        <ele>2131.2</ele>
        <time>2022-07-18T04:38:55Z</time>
      </trkpt>
      <trkpt lat="44.82631" lon="6.73022">
        <ele>2131.4</ele>
        <time>2022-07-18T04:38:56Z</time>
      </trkpt>
      <trkpt lat="44.8263" lon="6.73024">
        <ele>2131.4</ele>
        <time>2022-07-18T04:38:57Z</time>
      </trkpt>
      <trkpt lat="44.82629" lon="6.73025">
        <ele>2131.8</ele>
        <time>2022-07-18T04:38:58Z</time>
      </trkpt>
      <trkpt lat="44.82627" lon="6.73027">
        <ele>2132</ele>
        <time>2022-07-18T04:38:59Z</time>
      </trkpt>
      <trkpt lat="44.82625" lon="6.73028">
        <ele>2132</ele>
        <time>2022-07-18T04:39:00Z</time>
      </trkpt>
      <trkpt lat="44.82624" lon="6.7303">
        <ele>2132.4</ele>
        <time>2022-07-18T04:39:01Z</time>
      </trkpt>
      <trkpt lat="44.82622" lon="6.73031">
        <ele>2132.6</ele>
        <time>2022-07-18T04:39:02Z</time>
      </trkpt>
      <trkpt lat="44.82621" lon="6.73033">
        <ele>2132.8</ele>
        <time>2022-07-18T04:39:03Z</time>
      </trkpt>
      <trkpt lat="44.82619" lon="6.73035">
        <ele>2132.8</ele>
        <time>2022-07-18T04:39:04Z</time>
      </trkpt>
      <trkpt lat="44.82618" lon="6.73036">
        <ele>2133.2</ele>
        <time>2022-07-18T04:39:05Z</time>
      </trkpt>
      <trkpt lat="44.82616" lon="6.73038">
        <ele>2133.2</ele>
        <time>2022-07-18T04:39:06Z</time>
      </trkpt>
      <trkpt lat="44.82615" lon="6.73039">
        <ele>2133.4</ele>
        <time>2022-07-18T04:39:07Z</time>
      </trkpt>
      <trkpt lat="44.82613" lon="6.73041">
        <ele>2133.8</ele>
        <time>2022-07-18T04:39:08Z</time>
      </trkpt>
      <trkpt lat="44.82612" lon="6.73042">
        <ele>2134</ele>
        <time>2022-07-18T04:39:09Z</time>
      </trkpt>
      <trkpt lat="44.82611" lon="6.73044">
        <ele>2134.2</ele>
        <time>2022-07-18T04:39:10Z</time>
      </trkpt>
      <trkpt lat="44.82609" lon="6.73045">
        <ele>2134.2</ele>
        <time>2022-07-18T04:39:11Z</time>
      </trkpt>
      <trkpt lat="44.82608" lon="6.73047">
        <ele>2134.6</ele>
        <time>2022-07-18T04:39:12Z</time>
      </trkpt>
      <trkpt lat="44.82607" lon="6.73048">
        <ele>2134.6</ele>
        <time>2022-07-18T04:39:13Z</time>
      </trkpt>
      <trkpt lat="44.82605" lon="6.7305">
        <ele>2135</ele>
        <time>2022-07-18T04:39:14Z</time>
      </trkpt>
      <trkpt lat="44.82603" lon="6.73052">
        <ele>2135</ele>
        <time>2022-07-18T04:39:15Z</time>
      </trkpt>
      <trkpt lat="44.82602" lon="6.73053">
        <ele>2135.2</ele>
        <time>2022-07-18T04:39:16Z</time>
      </trkpt>
      <trkpt lat="44.826" lon="6.73055">
        <ele>2135.2</ele>
        <time>2022-07-18T04:39:17Z</time>
      </trkpt>
      <trkpt lat="44.82599" lon="6.73056">
        <ele>2135.6</ele>
        <time>2022-07-18T04:39:18Z</time>
      </trkpt>
      <trkpt lat="44.82597" lon="6.73057">
        <ele>2135.6</ele>
        <time>2022-07-18T04:39:19Z</time>
      </trkpt>
      <trkpt lat="44.82596" lon="6.73059">
        <ele>2136</ele>
        <time>2022-07-18T04:39:20Z</time>
      </trkpt>
      <trkpt lat="44.82594" lon="6.7306">
        <ele>2136</ele>
        <time>2022-07-18T04:39:21Z</time>
      </trkpt>
      <trkpt lat="44.82592" lon="6.73061">
        <ele>2136.4</ele>
        <time>2022-07-18T04:39:22Z</time>
      </trkpt>
      <trkpt lat="44.82591" lon="6.73063">
        <ele>2136.6</ele>
        <time>2022-07-18T04:39:23Z</time>
      </trkpt>
      <trkpt lat="44.8259" lon="6.73064">
        <ele>2136.8</ele>
        <time>2022-07-18T04:39:24Z</time>
      </trkpt>
      <trkpt lat="44.82588" lon="6.73066">
        <ele>2136.8</ele>
        <time>2022-07-18T04:39:25Z</time>
      </trkpt>
      <trkpt lat="44.82586" lon="6.73067">
        <ele>2137.2</ele>
        <time>2022-07-18T04:39:26Z</time>
      </trkpt>
      <trkpt lat="44.82585" lon="6.73068">
        <ele>2137.4</ele>
        <time>2022-07-18T04:39:27Z</time>
      </trkpt>
      <trkpt lat="44.82583" lon="6.7307">
        <ele>2137.6</ele>
        <time>2022-07-18T04:39:28Z</time>
      </trkpt>
      <trkpt lat="44.82582" lon="6.73072">
        <ele>2137.8</ele>
        <time>2022-07-18T04:39:29Z</time>
      </trkpt>
      <trkpt lat="44.8258" lon="6.73074">
        <ele>2137.8</ele>
        <time>2022-07-18T04:39:30Z</time>
      </trkpt>
      <trkpt lat="44.82578" lon="6.73075">
        <ele>2138.2</ele>
        <time>2022-07-18T04:39:31Z</time>
      </trkpt>
      <trkpt lat="44.82577" lon="6.73077">
        <ele>2138.2</ele>
        <time>2022-07-18T04:39:32Z</time>
      </trkpt>
      <trkpt lat="44.82576" lon="6.73079">
        <ele>2138.4</ele>
        <time>2022-07-18T04:39:33Z</time>
      </trkpt>
      <trkpt lat="44.82574" lon="6.7308">
        <ele>2138.6</ele>
        <time>2022-07-18T04:39:34Z</time>
      </trkpt>
      <trkpt lat="44.82572" lon="6.73081">
        <ele>2138.6</ele>
        <time>2022-07-18T04:39:35Z</time>
      </trkpt>
      <trkpt lat="44.8257" lon="6.73083">
        <ele>2139</ele>
        <time>2022-07-18T04:39:36Z</time>
      </trkpt>
      <trkpt lat="44.82568" lon="6.73084">
        <ele>2139.2</ele>
        <time>2022-07-18T04:39:37Z</time>
      </trkpt>
      <trkpt lat="44.82567" lon="6.73086">
        <ele>2139.2</ele>
        <time>2022-07-18T04:39:38Z</time>
      </trkpt>
      <trkpt lat="44.82565" lon="6.73087">
        <ele>2139.6</ele>
        <time>2022-07-18T04:39:39Z</time>
      </trkpt>
      <trkpt lat="44.82563" lon="6.73088">
        <ele>2139.6</ele>
        <time>2022-07-18T04:39:40Z</time>
      </trkpt>
      <trkpt lat="44.82561" lon="6.73089">
        <ele>2140</ele>
        <time>2022-07-18T04:39:41Z</time>
      </trkpt>
      <trkpt lat="44.8256" lon="6.73091">
        <ele>2140</ele>
        <time>2022-07-18T04:39:42Z</time>
      </trkpt>
      <trkpt lat="44.82558" lon="6.73092">
        <ele>2140.4</ele>
        <time>2022-07-18T04:39:43Z</time>
      </trkpt>
      <trkpt lat="44.82557" lon="6.73093">
        <ele>2140.4</ele>
        <time>2022-07-18T04:39:44Z</time>
      </trkpt>
      <trkpt lat="44.82555" lon="6.73094">
        <ele>2140.8</ele>
        <time>2022-07-18T04:39:45Z</time>
      </trkpt>
      <trkpt lat="44.82554" lon="6.73095">
        <ele>2141</ele>
        <time>2022-07-18T04:39:46Z</time>
      </trkpt>
      <trkpt lat="44.82552" lon="6.73096">
        <ele>2141</ele>
        <time>2022-07-18T04:39:47Z</time>
      </trkpt>
      <trkpt lat="44.82551" lon="6.73096">
        <ele>2141.4</ele>
        <time>2022-07-18T04:39:48Z</time>
      </trkpt>
      <trkpt lat="44.82549" lon="6.73097">
        <ele>2141.4</ele>
        <time>2022-07-18T04:39:49Z</time>
      </trkpt>
      <trkpt lat="44.82548" lon="6.73098">
        <ele>2141.8</ele>
        <time>2022-07-18T04:39:50Z</time>
      </trkpt>
      <trkpt lat="44.82546" lon="6.73099">
        <ele>2141.8</ele>
        <time>2022-07-18T04:39:51Z</time>
      </trkpt>
      <trkpt lat="44.82545" lon="6.73101">
        <ele>2142</ele>
        <time>2022-07-18T04:39:52Z</time>
      </trkpt>
      <trkpt lat="44.82544" lon="6.73102">
        <ele>2142</ele>
        <time>2022-07-18T04:39:53Z</time>
      </trkpt>
      <trkpt lat="44.82542" lon="6.73103">
        <ele>2142.4</ele>
        <time>2022-07-18T04:39:54Z</time>
      </trkpt>
      <trkpt lat="44.82541" lon="6.73104">
        <ele>2142.4</ele>
        <time>2022-07-18T04:39:55Z</time>
      </trkpt>
      <trkpt lat="44.82539" lon="6.73105">
        <ele>2142.8</ele>
        <time>2022-07-18T04:39:56Z</time>
      </trkpt>
      <trkpt lat="44.82537" lon="6.73106">
        <ele>2142.8</ele>
        <time>2022-07-18T04:39:57Z</time>
      </trkpt>
      <trkpt lat="44.82535" lon="6.73107">
        <ele>2143</ele>
        <time>2022-07-18T04:39:58Z</time>
      </trkpt>
      <trkpt lat="44.82532" lon="6.73108">
        <ele>2143</ele>
        <time>2022-07-18T04:39:59Z</time>
      </trkpt>
      <trkpt lat="44.82531" lon="6.73109">
        <ele>2143.4</ele>
        <time>2022-07-18T04:40:00Z</time>
      </trkpt>
      <trkpt lat="44.82529" lon="6.7311">
        <ele>2143.4</ele>
        <time>2022-07-18T04:40:01Z</time>
      </trkpt>
      <trkpt lat="44.82528" lon="6.73111">
        <ele>2143.6</ele>
        <time>2022-07-18T04:40:02Z</time>
      </trkpt>
      <trkpt lat="44.82526" lon="6.73111">
        <ele>2143.6</ele>
        <time>2022-07-18T04:40:03Z</time>
      </trkpt>
      <trkpt lat="44.82525" lon="6.73112">
        <ele>2144</ele>
        <time>2022-07-18T04:40:04Z</time>
      </trkpt>
      <trkpt lat="44.82523" lon="6.73113">
        <ele>2144</ele>
        <time>2022-07-18T04:40:05Z</time>
      </trkpt>
      <trkpt lat="44.82522" lon="6.73115">
        <ele>2144.4</ele>
        <time>2022-07-18T04:40:06Z</time>
      </trkpt>
      <trkpt lat="44.8252" lon="6.73116">
        <ele>2144.4</ele>
        <time>2022-07-18T04:40:07Z</time>
      </trkpt>
      <trkpt lat="44.82518" lon="6.73117">
        <ele>2144.6</ele>
        <time>2022-07-18T04:40:08Z</time>
      </trkpt>
      <trkpt lat="44.82516" lon="6.73118">
        <ele>2144.8</ele>
        <time>2022-07-18T04:40:09Z</time>
      </trkpt>
      <trkpt lat="44.82515" lon="6.7312">
        <ele>2144.8</ele>
        <time>2022-07-18T04:40:10Z</time>
      </trkpt>
      <trkpt lat="44.82513" lon="6.73121">
        <ele>2145.2</ele>
        <time>2022-07-18T04:40:11Z</time>
      </trkpt>
      <trkpt lat="44.82511" lon="6.73123">
        <ele>2145.4</ele>
        <time>2022-07-18T04:40:12Z</time>
      </trkpt>
      <trkpt lat="44.82508" lon="6.73127">
        <ele>2145.6</ele>
        <time>2022-07-18T04:40:13Z</time>
      </trkpt>
      <trkpt lat="44.82507" lon="6.73129">
        <ele>2145.8</ele>
        <time>2022-07-18T04:40:14Z</time>
      </trkpt>
      <trkpt lat="44.82506" lon="6.73131">
        <ele>2146</ele>
        <time>2022-07-18T04:40:15Z</time>
      </trkpt>
      <trkpt lat="44.82505" lon="6.73132">
        <ele>2146</ele>
        <time>2022-07-18T04:40:16Z</time>
      </trkpt>
      <trkpt lat="44.82504" lon="6.73134">
        <ele>2146.4</ele>
        <time>2022-07-18T04:40:17Z</time>
      </trkpt>
      <trkpt lat="44.82503" lon="6.73136">
        <ele>2146.6</ele>
        <time>2022-07-18T04:40:18Z</time>
      </trkpt>
      <trkpt lat="44.82502" lon="6.73138">
        <ele>2146.6</ele>
        <time>2022-07-18T04:40:19Z</time>
      </trkpt>
      <trkpt lat="44.82501" lon="6.7314">
        <ele>2147</ele>
        <time>2022-07-18T04:40:20Z</time>
      </trkpt>
      <trkpt lat="44.825" lon="6.73142">
        <ele>2147.2</ele>
        <time>2022-07-18T04:40:21Z</time>
      </trkpt>
      <trkpt lat="44.82498" lon="6.73144">
        <ele>2147.2</ele>
        <time>2022-07-18T04:40:22Z</time>
      </trkpt>
      <trkpt lat="44.82498" lon="6.73147">
        <ele>2147.6</ele>
        <time>2022-07-18T04:40:23Z</time>
      </trkpt>
      <trkpt lat="44.82496" lon="6.73149">
        <ele>2147.6</ele>
        <time>2022-07-18T04:40:24Z</time>
      </trkpt>
      <trkpt lat="44.82495" lon="6.73151">
        <ele>2148</ele>
        <time>2022-07-18T04:40:25Z</time>
      </trkpt>
      <trkpt lat="44.82494" lon="6.73153">
        <ele>2148</ele>
        <time>2022-07-18T04:40:26Z</time>
      </trkpt>
      <trkpt lat="44.82493" lon="6.73155">
        <ele>2148.2</ele>
        <time>2022-07-18T04:40:27Z</time>
      </trkpt>
      <trkpt lat="44.82492" lon="6.73157">
        <ele>2148.4</ele>
        <time>2022-07-18T04:40:28Z</time>
      </trkpt>
      <trkpt lat="44.8249" lon="6.73159">
        <ele>2148.4</ele>
        <time>2022-07-18T04:40:29Z</time>
      </trkpt>
      <trkpt lat="44.82489" lon="6.73161">
        <ele>2148.8</ele>
        <time>2022-07-18T04:40:30Z</time>
      </trkpt>
      <trkpt lat="44.82488" lon="6.73162">
        <ele>2148.8</ele>
        <time>2022-07-18T04:40:31Z</time>
      </trkpt>
      <trkpt lat="44.82487" lon="6.73163">
        <ele>2149</ele>
        <time>2022-07-18T04:40:32Z</time>
      </trkpt>
      <trkpt lat="44.82485" lon="6.73164">
        <ele>2149.2</ele>
        <time>2022-07-18T04:40:33Z</time>
      </trkpt>
      <trkpt lat="44.82484" lon="6.73165">
        <ele>2149.6</ele>
        <time>2022-07-18T04:40:34Z</time>
      </trkpt>
      <trkpt lat="44.82483" lon="6.73166">
        <ele>2149.8</ele>
        <time>2022-07-18T04:40:35Z</time>
      </trkpt>
      <trkpt lat="44.82481" lon="6.73167">
        <ele>2149.8</ele>
        <time>2022-07-18T04:40:36Z</time>
      </trkpt>
      <trkpt lat="44.8248" lon="6.73168">
        <ele>2150</ele>
        <time>2022-07-18T04:40:37Z</time>
      </trkpt>
      <trkpt lat="44.82478" lon="6.73169">
        <ele>2150</ele>
        <time>2022-07-18T04:40:38Z</time>
      </trkpt>
      <trkpt lat="44.82477" lon="6.7317">
        <ele>2150.2</ele>
        <time>2022-07-18T04:40:39Z</time>
      </trkpt>
      <trkpt lat="44.82476" lon="6.73171">
        <ele>2150.2</ele>
        <time>2022-07-18T04:40:40Z</time>
      </trkpt>
      <trkpt lat="44.82474" lon="6.73172">
        <ele>2150.6</ele>
        <time>2022-07-18T04:40:41Z</time>
      </trkpt>
      <trkpt lat="44.82472" lon="6.73173">
        <ele>2150.8</ele>
        <time>2022-07-18T04:40:42Z</time>
      </trkpt>
      <trkpt lat="44.82471" lon="6.73174">
        <ele>2150.8</ele>
        <time>2022-07-18T04:40:43Z</time>
      </trkpt>
      <trkpt lat="44.82469" lon="6.73175">
        <ele>2151.2</ele>
        <time>2022-07-18T04:40:44Z</time>
      </trkpt>
      <trkpt lat="44.82467" lon="6.73177">
        <ele>2151.2</ele>
        <time>2022-07-18T04:40:45Z</time>
      </trkpt>
      <trkpt lat="44.82465" lon="6.73178">
        <ele>2151.4</ele>
        <time>2022-07-18T04:40:46Z</time>
      </trkpt>
      <trkpt lat="44.82463" lon="6.7318">
        <ele>2151.4</ele>
        <time>2022-07-18T04:40:47Z</time>
      </trkpt>
      <trkpt lat="44.82461" lon="6.73182">
        <ele>2151.6</ele>
        <time>2022-07-18T04:40:48Z</time>
      </trkpt>
      <trkpt lat="44.8246" lon="6.73183">
        <ele>2151.6</ele>
        <time>2022-07-18T04:40:49Z</time>
      </trkpt>
      <trkpt lat="44.82458" lon="6.73184">
        <ele>2151.8</ele>
        <time>2022-07-18T04:40:50Z</time>
      </trkpt>
      <trkpt lat="44.82456" lon="6.73186">
        <ele>2151.8</ele>
        <time>2022-07-18T04:40:51Z</time>
      </trkpt>
      <trkpt lat="44.82454" lon="6.73188">
        <ele>2152.2</ele>
        <time>2022-07-18T04:40:52Z</time>
      </trkpt>
      <trkpt lat="44.82452" lon="6.73189">
        <ele>2152.2</ele>
        <time>2022-07-18T04:40:53Z</time>
      </trkpt>
      <trkpt lat="44.8245" lon="6.73191">
        <ele>2152.4</ele>
        <time>2022-07-18T04:40:54Z</time>
      </trkpt>
      <trkpt lat="44.82448" lon="6.73192">
        <ele>2152.4</ele>
        <time>2022-07-18T04:40:55Z</time>
      </trkpt>
      <trkpt lat="44.82446" lon="6.73193">
        <ele>2152.8</ele>
        <time>2022-07-18T04:40:56Z</time>
      </trkpt>
      <trkpt lat="44.82444" lon="6.73194">
        <ele>2152.8</ele>
        <time>2022-07-18T04:40:57Z</time>
      </trkpt>
      <trkpt lat="44.82442" lon="6.73194">
        <ele>2153</ele>
        <time>2022-07-18T04:40:58Z</time>
      </trkpt>
      <trkpt lat="44.8244" lon="6.73195">
        <ele>2153</ele>
        <time>2022-07-18T04:40:59Z</time>
      </trkpt>
      <trkpt lat="44.82438" lon="6.73196">
        <ele>2153.4</ele>
        <time>2022-07-18T04:41:00Z</time>
      </trkpt>
      <trkpt lat="44.82436" lon="6.73196">
        <ele>2153.4</ele>
        <time>2022-07-18T04:41:01Z</time>
      </trkpt>
      <trkpt lat="44.82434" lon="6.73197">
        <ele>2153.6</ele>
        <time>2022-07-18T04:41:02Z</time>
      </trkpt>
      <trkpt lat="44.82432" lon="6.73197">
        <ele>2153.6</ele>
        <time>2022-07-18T04:41:03Z</time>
      </trkpt>
      <trkpt lat="44.8243" lon="6.73198">
        <ele>2154</ele>
        <time>2022-07-18T04:41:04Z</time>
      </trkpt>
      <trkpt lat="44.82429" lon="6.73198">
        <ele>2154</ele>
        <time>2022-07-18T04:41:05Z</time>
      </trkpt>
      <trkpt lat="44.82427" lon="6.73199">
        <ele>2154.2</ele>
        <time>2022-07-18T04:41:06Z</time>
      </trkpt>
      <trkpt lat="44.82425" lon="6.73199">
        <ele>2154.4</ele>
        <time>2022-07-18T04:41:07Z</time>
      </trkpt>
      <trkpt lat="44.82423" lon="6.732">
        <ele>2154.8</ele>
        <time>2022-07-18T04:41:08Z</time>
      </trkpt>
      <trkpt lat="44.82421" lon="6.732">
        <ele>2154.8</ele>
        <time>2022-07-18T04:41:09Z</time>
      </trkpt>
      <trkpt lat="44.82419" lon="6.73201">
        <ele>2155</ele>
        <time>2022-07-18T04:41:10Z</time>
      </trkpt>
      <trkpt lat="44.82417" lon="6.73201">
        <ele>2155</ele>
        <time>2022-07-18T04:41:11Z</time>
      </trkpt>
      <trkpt lat="44.82415" lon="6.73202">
        <ele>2155.4</ele>
        <time>2022-07-18T04:41:12Z</time>
      </trkpt>
      <trkpt lat="44.82413" lon="6.73203">
        <ele>2155.6</ele>
        <time>2022-07-18T04:41:13Z</time>
      </trkpt>
      <trkpt lat="44.82412" lon="6.73204">
        <ele>2155.6</ele>
        <time>2022-07-18T04:41:14Z</time>
      </trkpt>
      <trkpt lat="44.8241" lon="6.73205">
        <ele>2156</ele>
        <time>2022-07-18T04:41:15Z</time>
      </trkpt>
      <trkpt lat="44.82408" lon="6.73205">
        <ele>2156</ele>
        <time>2022-07-18T04:41:16Z</time>
      </trkpt>
      <trkpt lat="44.82407" lon="6.73206">
        <ele>2156.4</ele>
        <time>2022-07-18T04:41:17Z</time>
      </trkpt>
      <trkpt lat="44.82405" lon="6.73207">
        <ele>2156.4</ele>
        <time>2022-07-18T04:41:18Z</time>
      </trkpt>
      <trkpt lat="44.82403" lon="6.73208">
        <ele>2156.6</ele>
        <time>2022-07-18T04:41:19Z</time>
      </trkpt>
      <trkpt lat="44.82402" lon="6.73209">
        <ele>2156.6</ele>
        <time>2022-07-18T04:41:20Z</time>
      </trkpt>
      <trkpt lat="44.824" lon="6.7321">
        <ele>2157</ele>
        <time>2022-07-18T04:41:21Z</time>
      </trkpt>
      <trkpt lat="44.82398" lon="6.73212">
        <ele>2157</ele>
        <time>2022-07-18T04:41:22Z</time>
      </trkpt>
      <trkpt lat="44.82397" lon="6.73213">
        <ele>2157.4</ele>
        <time>2022-07-18T04:41:23Z</time>
      </trkpt>
      <trkpt lat="44.82395" lon="6.73214">
        <ele>2157.4</ele>
        <time>2022-07-18T04:41:24Z</time>
      </trkpt>
      <trkpt lat="44.82393" lon="6.73215">
        <ele>2157.6</ele>
        <time>2022-07-18T04:41:25Z</time>
      </trkpt>
      <trkpt lat="44.82392" lon="6.73217">
        <ele>2157.6</ele>
        <time>2022-07-18T04:41:26Z</time>
      </trkpt>
      <trkpt lat="44.8239" lon="6.73218">
        <ele>2157.6</ele>
        <time>2022-07-18T04:41:27Z</time>
      </trkpt>
      <trkpt lat="44.82389" lon="6.7322">
        <ele>2158</ele>
        <time>2022-07-18T04:41:28Z</time>
      </trkpt>
      <trkpt lat="44.82387" lon="6.73221">
        <ele>2158</ele>
        <time>2022-07-18T04:41:29Z</time>
      </trkpt>
      <trkpt lat="44.82386" lon="6.73223">
        <ele>2158.4</ele>
        <time>2022-07-18T04:41:30Z</time>
      </trkpt>
      <trkpt lat="44.82385" lon="6.73225">
        <ele>2158.4</ele>
        <time>2022-07-18T04:41:31Z</time>
      </trkpt>
      <trkpt lat="44.82383" lon="6.73227">
        <ele>2158.8</ele>
        <time>2022-07-18T04:41:32Z</time>
      </trkpt>
      <trkpt lat="44.82381" lon="6.73229">
        <ele>2158.8</ele>
        <time>2022-07-18T04:41:33Z</time>
      </trkpt>
      <trkpt lat="44.8238" lon="6.7323">
        <ele>2159</ele>
        <time>2022-07-18T04:41:34Z</time>
      </trkpt>
      <trkpt lat="44.82378" lon="6.73232">
        <ele>2159</ele>
        <time>2022-07-18T04:41:35Z</time>
      </trkpt>
      <trkpt lat="44.82376" lon="6.73233">
        <ele>2159.2</ele>
        <time>2022-07-18T04:41:36Z</time>
      </trkpt>
      <trkpt lat="44.82375" lon="6.73235">
        <ele>2159.4</ele>
        <time>2022-07-18T04:41:37Z</time>
      </trkpt>
      <trkpt lat="44.82373" lon="6.73236">
        <ele>2159.4</ele>
        <time>2022-07-18T04:41:38Z</time>
      </trkpt>
      <trkpt lat="44.82371" lon="6.73236">
        <ele>2159.6</ele>
        <time>2022-07-18T04:41:39Z</time>
      </trkpt>
      <trkpt lat="44.82369" lon="6.73236">
        <ele>2159.6</ele>
        <time>2022-07-18T04:41:40Z</time>
      </trkpt>
      <trkpt lat="44.82367" lon="6.73236">
        <ele>2160</ele>
        <time>2022-07-18T04:41:41Z</time>
      </trkpt>
      <trkpt lat="44.82365" lon="6.73235">
        <ele>2160.4</ele>
        <time>2022-07-18T04:41:42Z</time>
      </trkpt>
      <trkpt lat="44.82362" lon="6.73234">
        <ele>2160.4</ele>
        <time>2022-07-18T04:41:43Z</time>
      </trkpt>
      <trkpt lat="44.82361" lon="6.73232">
        <ele>2160.6</ele>
        <time>2022-07-18T04:41:44Z</time>
      </trkpt>
      <trkpt lat="44.82359" lon="6.7323">
        <ele>2161</ele>
        <time>2022-07-18T04:41:45Z</time>
      </trkpt>
      <trkpt lat="44.82358" lon="6.73228">
        <ele>2161</ele>
        <time>2022-07-18T04:41:46Z</time>
      </trkpt>
      <trkpt lat="44.82356" lon="6.73226">
        <ele>2161.2</ele>
        <time>2022-07-18T04:41:47Z</time>
      </trkpt>
      <trkpt lat="44.82355" lon="6.73223">
        <ele>2161.2</ele>
        <time>2022-07-18T04:41:48Z</time>
      </trkpt>
      <trkpt lat="44.82354" lon="6.7322">
        <ele>2161.2</ele>
        <time>2022-07-18T04:41:49Z</time>
      </trkpt>
      <trkpt lat="44.82354" lon="6.73217">
        <ele>2161.4</ele>
        <time>2022-07-18T04:41:50Z</time>
      </trkpt>
      <trkpt lat="44.82353" lon="6.73214">
        <ele>2161.4</ele>
        <time>2022-07-18T04:41:51Z</time>
      </trkpt>
      <trkpt lat="44.82353" lon="6.7321">
        <ele>2161.8</ele>
        <time>2022-07-18T04:41:52Z</time>
      </trkpt>
      <trkpt lat="44.82354" lon="6.73207">
        <ele>2162</ele>
        <time>2022-07-18T04:41:53Z</time>
      </trkpt>
      <trkpt lat="44.82354" lon="6.73204">
        <ele>2162.2</ele>
        <time>2022-07-18T04:41:54Z</time>
      </trkpt>
      <trkpt lat="44.82354" lon="6.73201">
        <ele>2162.4</ele>
        <time>2022-07-18T04:41:55Z</time>
      </trkpt>
      <trkpt lat="44.82354" lon="6.73199">
        <ele>2162.6</ele>
        <time>2022-07-18T04:41:56Z</time>
      </trkpt>
      <trkpt lat="44.82354" lon="6.73196">
        <ele>2162.6</ele>
        <time>2022-07-18T04:41:57Z</time>
      </trkpt>
      <trkpt lat="44.82354" lon="6.73193">
        <ele>2163</ele>
        <time>2022-07-18T04:41:58Z</time>
      </trkpt>
      <trkpt lat="44.82354" lon="6.7319">
        <ele>2163.2</ele>
        <time>2022-07-18T04:41:59Z</time>
      </trkpt>
      <trkpt lat="44.82354" lon="6.73187">
        <ele>2163.2</ele>
        <time>2022-07-18T04:42:00Z</time>
      </trkpt>
      <trkpt lat="44.82354" lon="6.73184">
        <ele>2163.4</ele>
        <time>2022-07-18T04:42:01Z</time>
      </trkpt>
      <trkpt lat="44.82353" lon="6.73181">
        <ele>2163.4</ele>
        <time>2022-07-18T04:42:02Z</time>
      </trkpt>
      <trkpt lat="44.82352" lon="6.73179">
        <ele>2163.8</ele>
        <time>2022-07-18T04:42:03Z</time>
      </trkpt>
      <trkpt lat="44.82352" lon="6.73177">
        <ele>2163.8</ele>
        <time>2022-07-18T04:42:04Z</time>
      </trkpt>
      <trkpt lat="44.8235" lon="6.73175">
        <ele>2164</ele>
        <time>2022-07-18T04:42:05Z</time>
      </trkpt>
      <trkpt lat="44.82349" lon="6.73173">
        <ele>2164</ele>
        <time>2022-07-18T04:42:06Z</time>
      </trkpt>
      <trkpt lat="44.82347" lon="6.73172">
        <ele>2164</ele>
        <time>2022-07-18T04:42:07Z</time>
      </trkpt>
      <trkpt lat="44.82345" lon="6.73171">
        <ele>2164.2</ele>
        <time>2022-07-18T04:42:08Z</time>
      </trkpt>
      <trkpt lat="44.82343" lon="6.73171">
        <ele>2164.2</ele>
        <time>2022-07-18T04:42:09Z</time>
      </trkpt>
      <trkpt lat="44.82341" lon="6.73172">
        <ele>2164.6</ele>
        <time>2022-07-18T04:42:10Z</time>
      </trkpt>
      <trkpt lat="44.82339" lon="6.73174">
        <ele>2164.6</ele>
        <time>2022-07-18T04:42:11Z</time>
      </trkpt>
      <trkpt lat="44.82337" lon="6.73176">
        <ele>2164.8</ele>
        <time>2022-07-18T04:42:12Z</time>
      </trkpt>
      <trkpt lat="44.82335" lon="6.73178">
        <ele>2164.8</ele>
        <time>2022-07-18T04:42:13Z</time>
      </trkpt>
      <trkpt lat="44.82334" lon="6.7318">
        <ele>2165.2</ele>
        <time>2022-07-18T04:42:14Z</time>
      </trkpt>
      <trkpt lat="44.82333" lon="6.73181">
        <ele>2165.2</ele>
        <time>2022-07-18T04:42:15Z</time>
      </trkpt>
      <trkpt lat="44.82331" lon="6.73183">
        <ele>2165.6</ele>
        <time>2022-07-18T04:42:16Z</time>
      </trkpt>
      <trkpt lat="44.8233" lon="6.73185">
        <ele>2165.6</ele>
        <time>2022-07-18T04:42:17Z</time>
      </trkpt>
      <trkpt lat="44.82329" lon="6.73188">
        <ele>2165.8</ele>
        <time>2022-07-18T04:42:18Z</time>
      </trkpt>
      <trkpt lat="44.82327" lon="6.7319">
        <ele>2165.8</ele>
        <time>2022-07-18T04:42:19Z</time>
      </trkpt>
      <trkpt lat="44.82325" lon="6.73191">
        <ele>2166.2</ele>
        <time>2022-07-18T04:42:20Z</time>
      </trkpt>
      <trkpt lat="44.82324" lon="6.73193">
        <ele>2166.4</ele>
        <time>2022-07-18T04:42:21Z</time>
      </trkpt>
      <trkpt lat="44.82322" lon="6.73195">
        <ele>2166.4</ele>
        <time>2022-07-18T04:42:22Z</time>
      </trkpt>
      <trkpt lat="44.8232" lon="6.73197">
        <ele>2166.8</ele>
        <time>2022-07-18T04:42:23Z</time>
      </trkpt>
      <trkpt lat="44.82319" lon="6.73199">
        <ele>2167</ele>
        <time>2022-07-18T04:42:24Z</time>
      </trkpt>
      <trkpt lat="44.82317" lon="6.73201">
        <ele>2167</ele>
        <time>2022-07-18T04:42:25Z</time>
      </trkpt>
      <trkpt lat="44.82316" lon="6.73202">
        <ele>2167</ele>
        <time>2022-07-18T04:42:26Z</time>
      </trkpt>
      <trkpt lat="44.82314" lon="6.73203">
        <ele>2167.4</ele>
        <time>2022-07-18T04:42:27Z</time>
      </trkpt>
      <trkpt lat="44.82311" lon="6.73203">
        <ele>2167.6</ele>
        <time>2022-07-18T04:42:28Z</time>
      </trkpt>
      <trkpt lat="44.82309" lon="6.73204">
        <ele>2167.6</ele>
        <time>2022-07-18T04:42:29Z</time>
      </trkpt>
      <trkpt lat="44.82307" lon="6.73204">
        <ele>2167.8</ele>
        <time>2022-07-18T04:42:30Z</time>
      </trkpt>
      <trkpt lat="44.82305" lon="6.73204">
        <ele>2167.8</ele>
        <time>2022-07-18T04:42:31Z</time>
      </trkpt>
      <trkpt lat="44.82303" lon="6.73203">
        <ele>2168.2</ele>
        <time>2022-07-18T04:42:32Z</time>
      </trkpt>
      <trkpt lat="44.82301" lon="6.73203">
        <ele>2168.2</ele>
        <time>2022-07-18T04:42:33Z</time>
      </trkpt>
      <trkpt lat="44.82299" lon="6.73202">
        <ele>2168.6</ele>
        <time>2022-07-18T04:42:34Z</time>
      </trkpt>
      <trkpt lat="44.82297" lon="6.73202">
        <ele>2169</ele>
        <time>2022-07-18T04:42:35Z</time>
      </trkpt>
      <trkpt lat="44.82295" lon="6.73202">
        <ele>2169</ele>
        <time>2022-07-18T04:42:36Z</time>
      </trkpt>
      <trkpt lat="44.82293" lon="6.73202">
        <ele>2169.2</ele>
        <time>2022-07-18T04:42:37Z</time>
      </trkpt>
      <trkpt lat="44.82291" lon="6.73201">
        <ele>2169.2</ele>
        <time>2022-07-18T04:42:38Z</time>
      </trkpt>
      <trkpt lat="44.82289" lon="6.732">
        <ele>2169.6</ele>
        <time>2022-07-18T04:42:39Z</time>
      </trkpt>
      <trkpt lat="44.82287" lon="6.73199">
        <ele>2169.8</ele>
        <time>2022-07-18T04:42:40Z</time>
      </trkpt>
      <trkpt lat="44.82285" lon="6.73198">
        <ele>2170</ele>
        <time>2022-07-18T04:42:41Z</time>
      </trkpt>
      <trkpt lat="44.82283" lon="6.73196">
        <ele>2170</ele>
        <time>2022-07-18T04:42:42Z</time>
      </trkpt>
      <trkpt lat="44.82281" lon="6.73194">
        <ele>2170.4</ele>
        <time>2022-07-18T04:42:43Z</time>
      </trkpt>
      <trkpt lat="44.82279" lon="6.73192">
        <ele>2170.4</ele>
        <time>2022-07-18T04:42:44Z</time>
      </trkpt>
      <trkpt lat="44.82278" lon="6.7319">
        <ele>2170.4</ele>
        <time>2022-07-18T04:42:45Z</time>
      </trkpt>
      <trkpt lat="44.82277" lon="6.73187">
        <ele>2170.6</ele>
        <time>2022-07-18T04:42:46Z</time>
      </trkpt>
      <trkpt lat="44.82276" lon="6.73185">
        <ele>2170.6</ele>
        <time>2022-07-18T04:42:47Z</time>
      </trkpt>
      <trkpt lat="44.82275" lon="6.73182">
        <ele>2171</ele>
        <time>2022-07-18T04:42:48Z</time>
      </trkpt>
      <trkpt lat="44.82275" lon="6.7318">
        <ele>2171</ele>
        <time>2022-07-18T04:42:49Z</time>
      </trkpt>
      <trkpt lat="44.82273" lon="6.73177">
        <ele>2171.4</ele>
        <time>2022-07-18T04:42:50Z</time>
      </trkpt>
      <trkpt lat="44.82272" lon="6.73175">
        <ele>2171.6</ele>
        <time>2022-07-18T04:42:51Z</time>
      </trkpt>
      <trkpt lat="44.82271" lon="6.73172">
        <ele>2171.8</ele>
        <time>2022-07-18T04:42:52Z</time>
      </trkpt>
      <trkpt lat="44.8227" lon="6.73169">
        <ele>2171.8</ele>
        <time>2022-07-18T04:42:53Z</time>
      </trkpt>
      <trkpt lat="44.8227" lon="6.73166">
        <ele>2172</ele>
        <time>2022-07-18T04:42:54Z</time>
      </trkpt>
      <trkpt lat="44.8227" lon="6.73163">
        <ele>2172.4</ele>
        <time>2022-07-18T04:42:55Z</time>
      </trkpt>
      <trkpt lat="44.8227" lon="6.73161">
        <ele>2172.4</ele>
        <time>2022-07-18T04:42:56Z</time>
      </trkpt>
      <trkpt lat="44.8227" lon="6.73158">
        <ele>2172.6</ele>
        <time>2022-07-18T04:42:57Z</time>
      </trkpt>
      <trkpt lat="44.8227" lon="6.73155">
        <ele>2173</ele>
        <time>2022-07-18T04:42:58Z</time>
      </trkpt>
      <trkpt lat="44.82269" lon="6.73152">
        <ele>2173</ele>
        <time>2022-07-18T04:42:59Z</time>
      </trkpt>
      <trkpt lat="44.82269" lon="6.73149">
        <ele>2173.4</ele>
        <time>2022-07-18T04:43:00Z</time>
      </trkpt>
      <trkpt lat="44.82268" lon="6.73147">
        <ele>2173.4</ele>
        <time>2022-07-18T04:43:01Z</time>
      </trkpt>
      <trkpt lat="44.82268" lon="6.73144">
        <ele>2173.8</ele>
        <time>2022-07-18T04:43:02Z</time>
      </trkpt>
      <trkpt lat="44.82268" lon="6.73141">
        <ele>2173.8</ele>
        <time>2022-07-18T04:43:03Z</time>
      </trkpt>
      <trkpt lat="44.82268" lon="6.73139">
        <ele>2174.2</ele>
        <time>2022-07-18T04:43:04Z</time>
      </trkpt>
      <trkpt lat="44.82267" lon="6.73136">
        <ele>2174.2</ele>
        <time>2022-07-18T04:43:05Z</time>
      </trkpt>
      <trkpt lat="44.82267" lon="6.73133">
        <ele>2174.4</ele>
        <time>2022-07-18T04:43:06Z</time>
      </trkpt>
      <trkpt lat="44.82266" lon="6.73131">
        <ele>2174.6</ele>
        <time>2022-07-18T04:43:07Z</time>
      </trkpt>
      <trkpt lat="44.82266" lon="6.73129">
        <ele>2174.8</ele>
        <time>2022-07-18T04:43:08Z</time>
      </trkpt>
      <trkpt lat="44.82265" lon="6.73126">
        <ele>2175</ele>
        <time>2022-07-18T04:43:09Z</time>
      </trkpt>
      <trkpt lat="44.82264" lon="6.73124">
        <ele>2175.4</ele>
        <time>2022-07-18T04:43:10Z</time>
      </trkpt>
      <trkpt lat="44.82263" lon="6.73122">
        <ele>2175.4</ele>
        <time>2022-07-18T04:43:11Z</time>
      </trkpt>
      <trkpt lat="44.82261" lon="6.7312">
        <ele>2175.6</ele>
        <time>2022-07-18T04:43:12Z</time>
      </trkpt>
      <trkpt lat="44.8226" lon="6.73118">
        <ele>2175.6</ele>
        <time>2022-07-18T04:43:13Z</time>
      </trkpt>
      <trkpt lat="44.82258" lon="6.73117">
        <ele>2175.8</ele>
        <time>2022-07-18T04:43:14Z</time>
      </trkpt>
      <trkpt lat="44.82256" lon="6.73117">
        <ele>2175.8</ele>
        <time>2022-07-18T04:43:15Z</time>
      </trkpt>
      <trkpt lat="44.82254" lon="6.73117">
        <ele>2176</ele>
        <time>2022-07-18T04:43:16Z</time>
      </trkpt>
      <trkpt lat="44.82252" lon="6.73118">
        <ele>2176</ele>
        <time>2022-07-18T04:43:17Z</time>
      </trkpt>
      <trkpt lat="44.8225" lon="6.73119">
        <ele>2176.4</ele>
        <time>2022-07-18T04:43:18Z</time>
      </trkpt>
      <trkpt lat="44.82248" lon="6.73121">
        <ele>2176.4</ele>
        <time>2022-07-18T04:43:19Z</time>
      </trkpt>
      <trkpt lat="44.82247" lon="6.73124">
        <ele>2176.4</ele>
        <time>2022-07-18T04:43:20Z</time>
      </trkpt>
      <trkpt lat="44.82246" lon="6.73127">
        <ele>2176.6</ele>
        <time>2022-07-18T04:43:21Z</time>
      </trkpt>
      <trkpt lat="44.82246" lon="6.7313">
        <ele>2176.6</ele>
        <time>2022-07-18T04:43:22Z</time>
      </trkpt>
      <trkpt lat="44.82245" lon="6.73133">
        <ele>2177</ele>
        <time>2022-07-18T04:43:23Z</time>
      </trkpt>
      <trkpt lat="44.82245" lon="6.73135">
        <ele>2177.2</ele>
        <time>2022-07-18T04:43:24Z</time>
      </trkpt>
      <trkpt lat="44.82244" lon="6.73138">
        <ele>2177.2</ele>
        <time>2022-07-18T04:43:25Z</time>
      </trkpt>
      <trkpt lat="44.82243" lon="6.73141">
        <ele>2177.6</ele>
        <time>2022-07-18T04:43:26Z</time>
      </trkpt>
      <trkpt lat="44.82243" lon="6.73144">
        <ele>2177.8</ele>
        <time>2022-07-18T04:43:27Z</time>
      </trkpt>
      <trkpt lat="44.82242" lon="6.73147">
        <ele>2177.8</ele>
        <time>2022-07-18T04:43:28Z</time>
      </trkpt>
      <trkpt lat="44.82242" lon="6.7315">
        <ele>2178.2</ele>
        <time>2022-07-18T04:43:29Z</time>
      </trkpt>
      <trkpt lat="44.82242" lon="6.73153">
        <ele>2178.2</ele>
        <time>2022-07-18T04:43:30Z</time>
      </trkpt>
      <trkpt lat="44.82241" lon="6.73156">
        <ele>2178.6</ele>
        <time>2022-07-18T04:43:31Z</time>
      </trkpt>
      <trkpt lat="44.82241" lon="6.73159">
        <ele>2178.6</ele>
        <time>2022-07-18T04:43:32Z</time>
      </trkpt>
      <trkpt lat="44.82241" lon="6.73163">
        <ele>2179</ele>
        <time>2022-07-18T04:43:33Z</time>
      </trkpt>
      <trkpt lat="44.8224" lon="6.73165">
        <ele>2179</ele>
        <time>2022-07-18T04:43:34Z</time>
      </trkpt>
      <trkpt lat="44.8224" lon="6.73168">
        <ele>2179.2</ele>
        <time>2022-07-18T04:43:35Z</time>
      </trkpt>
      <trkpt lat="44.82239" lon="6.73171">
        <ele>2179.2</ele>
        <time>2022-07-18T04:43:36Z</time>
      </trkpt>
      <trkpt lat="44.82238" lon="6.73174">
        <ele>2179.4</ele>
        <time>2022-07-18T04:43:37Z</time>
      </trkpt>
      <trkpt lat="44.82238" lon="6.73177">
        <ele>2179.4</ele>
        <time>2022-07-18T04:43:38Z</time>
      </trkpt>
      <trkpt lat="44.82237" lon="6.73179">
        <ele>2179.6</ele>
        <time>2022-07-18T04:43:39Z</time>
      </trkpt>
      <trkpt lat="44.82237" lon="6.73182">
        <ele>2179.6</ele>
        <time>2022-07-18T04:43:40Z</time>
      </trkpt>
      <trkpt lat="44.82235" lon="6.73184">
        <ele>2180</ele>
        <time>2022-07-18T04:43:41Z</time>
      </trkpt>
      <trkpt lat="44.82234" lon="6.73186">
        <ele>2180</ele>
        <time>2022-07-18T04:43:42Z</time>
      </trkpt>
      <trkpt lat="44.82234" lon="6.73189">
        <ele>2180.2</ele>
        <time>2022-07-18T04:43:43Z</time>
      </trkpt>
      <trkpt lat="44.82233" lon="6.73191">
        <ele>2180.2</ele>
        <time>2022-07-18T04:43:44Z</time>
      </trkpt>
      <trkpt lat="44.82232" lon="6.73194">
        <ele>2180.6</ele>
        <time>2022-07-18T04:43:45Z</time>
      </trkpt>
      <trkpt lat="44.82231" lon="6.73196">
        <ele>2180.6</ele>
        <time>2022-07-18T04:43:46Z</time>
      </trkpt>
      <trkpt lat="44.82231" lon="6.73199">
        <ele>2181</ele>
        <time>2022-07-18T04:43:47Z</time>
      </trkpt>
      <trkpt lat="44.8223" lon="6.73201">
        <ele>2181</ele>
        <time>2022-07-18T04:43:48Z</time>
      </trkpt>
      <trkpt lat="44.82229" lon="6.73204">
        <ele>2181.2</ele>
        <time>2022-07-18T04:43:49Z</time>
      </trkpt>
      <trkpt lat="44.82229" lon="6.73206">
        <ele>2181.2</ele>
        <time>2022-07-18T04:43:50Z</time>
      </trkpt>
      <trkpt lat="44.82228" lon="6.73209">
        <ele>2181.6</ele>
        <time>2022-07-18T04:43:51Z</time>
      </trkpt>
      <trkpt lat="44.82228" lon="6.73211">
        <ele>2181.6</ele>
        <time>2022-07-18T04:43:52Z</time>
      </trkpt>
      <trkpt lat="44.82227" lon="6.73214">
        <ele>2182</ele>
        <time>2022-07-18T04:43:53Z</time>
      </trkpt>
      <trkpt lat="44.82226" lon="6.73216">
        <ele>2182</ele>
        <time>2022-07-18T04:43:54Z</time>
      </trkpt>
      <trkpt lat="44.82226" lon="6.73219">
        <ele>2182.4</ele>
        <time>2022-07-18T04:43:55Z</time>
      </trkpt>
      <trkpt lat="44.82226" lon="6.73221">
        <ele>2182.4</ele>
        <time>2022-07-18T04:43:56Z</time>
      </trkpt>
      <trkpt lat="44.82225" lon="6.73224">
        <ele>2182.8</ele>
        <time>2022-07-18T04:43:57Z</time>
      </trkpt>
      <trkpt lat="44.82225" lon="6.73226">
        <ele>2182.8</ele>
        <time>2022-07-18T04:43:58Z</time>
      </trkpt>
      <trkpt lat="44.82225" lon="6.73229">
        <ele>2183</ele>
        <time>2022-07-18T04:43:59Z</time>
      </trkpt>
      <trkpt lat="44.82224" lon="6.73232">
        <ele>2183</ele>
        <time>2022-07-18T04:44:00Z</time>
      </trkpt>
      <trkpt lat="44.82224" lon="6.73234">
        <ele>2183.4</ele>
        <time>2022-07-18T04:44:01Z</time>
      </trkpt>
      <trkpt lat="44.82224" lon="6.73237">
        <ele>2183.4</ele>
        <time>2022-07-18T04:44:02Z</time>
      </trkpt>
      <trkpt lat="44.82225" lon="6.7324">
        <ele>2183.6</ele>
        <time>2022-07-18T04:44:03Z</time>
      </trkpt>
      <trkpt lat="44.82225" lon="6.73243">
        <ele>2183.6</ele>
        <time>2022-07-18T04:44:04Z</time>
      </trkpt>
      <trkpt lat="44.82225" lon="6.73245">
        <ele>2184</ele>
        <time>2022-07-18T04:44:05Z</time>
      </trkpt>
      <trkpt lat="44.82225" lon="6.73248">
        <ele>2184</ele>
        <time>2022-07-18T04:44:06Z</time>
      </trkpt>
      <trkpt lat="44.82225" lon="6.73251">
        <ele>2184.2</ele>
        <time>2022-07-18T04:44:07Z</time>
      </trkpt>
      <trkpt lat="44.82225" lon="6.73254">
        <ele>2184.2</ele>
        <time>2022-07-18T04:44:08Z</time>
      </trkpt>
      <trkpt lat="44.82226" lon="6.73256">
        <ele>2184.6</ele>
        <time>2022-07-18T04:44:09Z</time>
      </trkpt>
      <trkpt lat="44.82226" lon="6.73259">
        <ele>2184.6</ele>
        <time>2022-07-18T04:44:10Z</time>
      </trkpt>
      <trkpt lat="44.82227" lon="6.73262">
        <ele>2185</ele>
        <time>2022-07-18T04:44:11Z</time>
      </trkpt>
      <trkpt lat="44.82228" lon="6.73265">
        <ele>2185</ele>
        <time>2022-07-18T04:44:12Z</time>
      </trkpt>
      <trkpt lat="44.82228" lon="6.73268">
        <ele>2185.2</ele>
        <time>2022-07-18T04:44:13Z</time>
      </trkpt>
      <trkpt lat="44.82229" lon="6.73271">
        <ele>2185.2</ele>
        <time>2022-07-18T04:44:14Z</time>
      </trkpt>
      <trkpt lat="44.8223" lon="6.73274">
        <ele>2185.6</ele>
        <time>2022-07-18T04:44:15Z</time>
      </trkpt>
      <trkpt lat="44.8223" lon="6.73277">
        <ele>2185.6</ele>
        <time>2022-07-18T04:44:16Z</time>
      </trkpt>
      <trkpt lat="44.82231" lon="6.7328">
        <ele>2185.8</ele>
        <time>2022-07-18T04:44:17Z</time>
      </trkpt>
      <trkpt lat="44.82232" lon="6.73283">
        <ele>2185.8</ele>
        <time>2022-07-18T04:44:18Z</time>
      </trkpt>
      <trkpt lat="44.82233" lon="6.73286">
        <ele>2185.8</ele>
        <time>2022-07-18T04:44:19Z</time>
      </trkpt>
      <trkpt lat="44.82233" lon="6.73289">
        <ele>2186.2</ele>
        <time>2022-07-18T04:44:20Z</time>
      </trkpt>
      <trkpt lat="44.82234" lon="6.73292">
        <ele>2186.2</ele>
        <time>2022-07-18T04:44:21Z</time>
      </trkpt>
      <trkpt lat="44.82236" lon="6.73295">
        <ele>2186.2</ele>
        <time>2022-07-18T04:44:22Z</time>
      </trkpt>
      <trkpt lat="44.82237" lon="6.73298">
        <ele>2186.4</ele>
        <time>2022-07-18T04:44:23Z</time>
      </trkpt>
      <trkpt lat="44.82238" lon="6.73301">
        <ele>2186.4</ele>
        <time>2022-07-18T04:44:24Z</time>
      </trkpt>
      <trkpt lat="44.8224" lon="6.73303">
        <ele>2186.8</ele>
        <time>2022-07-18T04:44:25Z</time>
      </trkpt>
      <trkpt lat="44.82242" lon="6.73306">
        <ele>2186.8</ele>
        <time>2022-07-18T04:44:26Z</time>
      </trkpt>
      <trkpt lat="44.82244" lon="6.73308">
        <ele>2186.8</ele>
        <time>2022-07-18T04:44:27Z</time>
      </trkpt>
      <trkpt lat="44.82247" lon="6.7331">
        <ele>2186.8</ele>
        <time>2022-07-18T04:44:28Z</time>
      </trkpt>
      <trkpt lat="44.82249" lon="6.73311">
        <ele>2186.8</ele>
        <time>2022-07-18T04:44:29Z</time>
      </trkpt>
      <trkpt lat="44.82251" lon="6.73312">
        <ele>2187</ele>
        <time>2022-07-18T04:44:30Z</time>
      </trkpt>
      <trkpt lat="44.82254" lon="6.73313">
        <ele>2187</ele>
        <time>2022-07-18T04:44:31Z</time>
      </trkpt>
      <trkpt lat="44.82256" lon="6.73314">
        <ele>2187</ele>
        <time>2022-07-18T04:44:32Z</time>
      </trkpt>
      <trkpt lat="44.82259" lon="6.73315">
        <ele>2187.2</ele>
        <time>2022-07-18T04:44:33Z</time>
      </trkpt>
      <trkpt lat="44.82261" lon="6.73316">
        <ele>2187.2</ele>
        <time>2022-07-18T04:44:34Z</time>
      </trkpt>
      <trkpt lat="44.82263" lon="6.73317">
        <ele>2187.4</ele>
        <time>2022-07-18T04:44:35Z</time>
      </trkpt>
      <trkpt lat="44.82266" lon="6.73317">
        <ele>2187.4</ele>
        <time>2022-07-18T04:44:36Z</time>
      </trkpt>
      <trkpt lat="44.82268" lon="6.73318">
        <ele>2187.6</ele>
        <time>2022-07-18T04:44:37Z</time>
      </trkpt>
      <trkpt lat="44.8227" lon="6.7332">
        <ele>2187.6</ele>
        <time>2022-07-18T04:44:38Z</time>
      </trkpt>
      <trkpt lat="44.82273" lon="6.73321">
        <ele>2187.6</ele>
        <time>2022-07-18T04:44:39Z</time>
      </trkpt>
      <trkpt lat="44.82275" lon="6.73322">
        <ele>2187.8</ele>
        <time>2022-07-18T04:44:40Z</time>
      </trkpt>
      <trkpt lat="44.82277" lon="6.73323">
        <ele>2188.2</ele>
        <time>2022-07-18T04:44:41Z</time>
      </trkpt>
      <trkpt lat="44.82279" lon="6.73324">
        <ele>2188.4</ele>
        <time>2022-07-18T04:44:42Z</time>
      </trkpt>
      <trkpt lat="44.82282" lon="6.73325">
        <ele>2188.4</ele>
        <time>2022-07-18T04:44:43Z</time>
      </trkpt>
      <trkpt lat="44.82284" lon="6.73327">
        <ele>2188.8</ele>
        <time>2022-07-18T04:44:44Z</time>
      </trkpt>
      <trkpt lat="44.82286" lon="6.73328">
        <ele>2189</ele>
        <time>2022-07-18T04:44:45Z</time>
      </trkpt>
      <trkpt lat="44.82288" lon="6.73329">
        <ele>2189</ele>
        <time>2022-07-18T04:44:46Z</time>
      </trkpt>
      <trkpt lat="44.82289" lon="6.73331">
        <ele>2189.2</ele>
        <time>2022-07-18T04:44:47Z</time>
      </trkpt>
      <trkpt lat="44.82291" lon="6.73333">
        <ele>2189.2</ele>
        <time>2022-07-18T04:44:48Z</time>
      </trkpt>
      <trkpt lat="44.82293" lon="6.73335">
        <ele>2189.6</ele>
        <time>2022-07-18T04:44:49Z</time>
      </trkpt>
      <trkpt lat="44.82294" lon="6.73338">
        <ele>2189.8</ele>
        <time>2022-07-18T04:44:50Z</time>
      </trkpt>
      <trkpt lat="44.82294" lon="6.73341">
        <ele>2190</ele>
        <time>2022-07-18T04:44:51Z</time>
      </trkpt>
      <trkpt lat="44.82295" lon="6.73344">
        <ele>2190</ele>
        <time>2022-07-18T04:44:52Z</time>
      </trkpt>
      <trkpt lat="44.82296" lon="6.73346">
        <ele>2190.4</ele>
        <time>2022-07-18T04:44:53Z</time>
      </trkpt>
      <trkpt lat="44.82296" lon="6.73349">
        <ele>2190.4</ele>
        <time>2022-07-18T04:44:54Z</time>
      </trkpt>
      <trkpt lat="44.82296" lon="6.73352">
        <ele>2190.6</ele>
        <time>2022-07-18T04:44:55Z</time>
      </trkpt>
      <trkpt lat="44.82296" lon="6.73354">
        <ele>2190.6</ele>
        <time>2022-07-18T04:44:56Z</time>
      </trkpt>
      <trkpt lat="44.82296" lon="6.73357">
        <ele>2191</ele>
        <time>2022-07-18T04:44:57Z</time>
      </trkpt>
      <trkpt lat="44.82295" lon="6.73359">
        <ele>2191</ele>
        <time>2022-07-18T04:44:58Z</time>
      </trkpt>
      <trkpt lat="44.82295" lon="6.73362">
        <ele>2191.4</ele>
        <time>2022-07-18T04:44:59Z</time>
      </trkpt>
      <trkpt lat="44.82294" lon="6.73365">
        <ele>2191.6</ele>
        <time>2022-07-18T04:45:00Z</time>
      </trkpt>
      <trkpt lat="44.82293" lon="6.73367">
        <ele>2191.6</ele>
        <time>2022-07-18T04:45:01Z</time>
      </trkpt>
      <trkpt lat="44.82291" lon="6.73368">
        <ele>2192</ele>
        <time>2022-07-18T04:45:02Z</time>
      </trkpt>
      <trkpt lat="44.82289" lon="6.73369">
        <ele>2192</ele>
        <time>2022-07-18T04:45:03Z</time>
      </trkpt>
      <trkpt lat="44.82287" lon="6.73371">
        <ele>2192.2</ele>
        <time>2022-07-18T04:45:04Z</time>
      </trkpt>
      <trkpt lat="44.82286" lon="6.73373">
        <ele>2192.2</ele>
        <time>2022-07-18T04:45:05Z</time>
      </trkpt>
      <trkpt lat="44.82284" lon="6.73374">
        <ele>2192.6</ele>
        <time>2022-07-18T04:45:06Z</time>
      </trkpt>
      <trkpt lat="44.82282" lon="6.73375">
        <ele>2192.6</ele>
        <time>2022-07-18T04:45:07Z</time>
      </trkpt>
      <trkpt lat="44.8228" lon="6.73377">
        <ele>2192.8</ele>
        <time>2022-07-18T04:45:08Z</time>
      </trkpt>
      <trkpt lat="44.82279" lon="6.73378">
        <ele>2193.2</ele>
        <time>2022-07-18T04:45:09Z</time>
      </trkpt>
      <trkpt lat="44.82277" lon="6.73379">
        <ele>2193.4</ele>
        <time>2022-07-18T04:45:10Z</time>
      </trkpt>
      <trkpt lat="44.82275" lon="6.73379">
        <ele>2193.4</ele>
        <time>2022-07-18T04:45:11Z</time>
      </trkpt>
      <trkpt lat="44.82273" lon="6.7338">
        <ele>2193.6</ele>
        <time>2022-07-18T04:45:12Z</time>
      </trkpt>
      <trkpt lat="44.82271" lon="6.73381">
        <ele>2193.6</ele>
        <time>2022-07-18T04:45:13Z</time>
      </trkpt>
      <trkpt lat="44.82269" lon="6.73382">
        <ele>2194</ele>
        <time>2022-07-18T04:45:14Z</time>
      </trkpt>
      <trkpt lat="44.82267" lon="6.73383">
        <ele>2194.4</ele>
        <time>2022-07-18T04:45:15Z</time>
      </trkpt>
      <trkpt lat="44.82265" lon="6.73383">
        <ele>2194.4</ele>
        <time>2022-07-18T04:45:16Z</time>
      </trkpt>
      <trkpt lat="44.82263" lon="6.73383">
        <ele>2194.6</ele>
        <time>2022-07-18T04:45:17Z</time>
      </trkpt>
      <trkpt lat="44.82261" lon="6.73383">
        <ele>2194.6</ele>
        <time>2022-07-18T04:45:18Z</time>
      </trkpt>
      <trkpt lat="44.82259" lon="6.73383">
        <ele>2194.6</ele>
        <time>2022-07-18T04:45:19Z</time>
      </trkpt>
      <trkpt lat="44.82256" lon="6.73383">
        <ele>2194.6</ele>
        <time>2022-07-18T04:45:20Z</time>
      </trkpt>
      <trkpt lat="44.82254" lon="6.73383">
        <ele>2195</ele>
        <time>2022-07-18T04:45:21Z</time>
      </trkpt>
      <trkpt lat="44.82252" lon="6.73382">
        <ele>2195.2</ele>
        <time>2022-07-18T04:45:22Z</time>
      </trkpt>
      <trkpt lat="44.8225" lon="6.73383">
        <ele>2195.2</ele>
        <time>2022-07-18T04:45:23Z</time>
      </trkpt>
      <trkpt lat="44.82248" lon="6.73383">
        <ele>2195.4</ele>
        <time>2022-07-18T04:45:24Z</time>
      </trkpt>
      <trkpt lat="44.82246" lon="6.73382">
        <ele>2195.4</ele>
        <time>2022-07-18T04:45:25Z</time>
      </trkpt>
      <trkpt lat="44.82244" lon="6.73381">
        <ele>2195.4</ele>
        <time>2022-07-18T04:45:26Z</time>
      </trkpt>
      <trkpt lat="44.82242" lon="6.7338">
        <ele>2195.8</ele>
        <time>2022-07-18T04:45:27Z</time>
      </trkpt>
      <trkpt lat="44.8224" lon="6.73379">
        <ele>2195.8</ele>
        <time>2022-07-18T04:45:28Z</time>
      </trkpt>
      <trkpt lat="44.82237" lon="6.73379">
        <ele>2196.2</ele>
        <time>2022-07-18T04:45:29Z</time>
      </trkpt>
      <trkpt lat="44.82235" lon="6.73378">
        <ele>2196.2</ele>
        <time>2022-07-18T04:45:30Z</time>
      </trkpt>
      <trkpt lat="44.82233" lon="6.73377">
        <ele>2196.6</ele>
        <time>2022-07-18T04:45:31Z</time>
      </trkpt>
      <trkpt lat="44.82231" lon="6.73376">
        <ele>2196.6</ele>
        <time>2022-07-18T04:45:32Z</time>
      </trkpt>
      <trkpt lat="44.82229" lon="6.73375">
        <ele>2196.8</ele>
        <time>2022-07-18T04:45:33Z</time>
      </trkpt>
      <trkpt lat="44.82227" lon="6.73374">
        <ele>2196.8</ele>
        <time>2022-07-18T04:45:34Z</time>
      </trkpt>
      <trkpt lat="44.82225" lon="6.73373">
        <ele>2197.2</ele>
        <time>2022-07-18T04:45:35Z</time>
      </trkpt>
      <trkpt lat="44.82223" lon="6.73372">
        <ele>2197.2</ele>
        <time>2022-07-18T04:45:36Z</time>
      </trkpt>
      <trkpt lat="44.82222" lon="6.7337">
        <ele>2197.4</ele>
        <time>2022-07-18T04:45:37Z</time>
      </trkpt>
      <trkpt lat="44.8222" lon="6.73368">
        <ele>2197.4</ele>
        <time>2022-07-18T04:45:38Z</time>
      </trkpt>
      <trkpt lat="44.82218" lon="6.73366">
        <ele>2197.6</ele>
        <time>2022-07-18T04:45:39Z</time>
      </trkpt>
      <trkpt lat="44.82217" lon="6.73364">
        <ele>2197.8</ele>
        <time>2022-07-18T04:45:40Z</time>
      </trkpt>
      <trkpt lat="44.82216" lon="6.73361">
        <ele>2198.4</ele>
        <time>2022-07-18T04:45:42Z</time>
      </trkpt>
      <trkpt lat="44.82215" lon="6.73359">
        <ele>2198.4</ele>
        <time>2022-07-18T04:45:43Z</time>
      </trkpt>
      <trkpt lat="44.82214" lon="6.73357">
        <ele>2198.6</ele>
        <time>2022-07-18T04:45:44Z</time>
      </trkpt>
      <trkpt lat="44.82213" lon="6.73354">
        <ele>2198.6</ele>
        <time>2022-07-18T04:45:45Z</time>
      </trkpt>
      <trkpt lat="44.82212" lon="6.73352">
        <ele>2199</ele>
        <time>2022-07-18T04:45:46Z</time>
      </trkpt>
      <trkpt lat="44.82211" lon="6.7335">
        <ele>2199.2</ele>
        <time>2022-07-18T04:45:47Z</time>
      </trkpt>
      <trkpt lat="44.8221" lon="6.73347">
        <ele>2199.2</ele>
        <time>2022-07-18T04:45:48Z</time>
      </trkpt>
      <trkpt lat="44.8221" lon="6.73344">
        <ele>2199.6</ele>
        <time>2022-07-18T04:45:49Z</time>
      </trkpt>
      <trkpt lat="44.82209" lon="6.73341">
        <ele>2199.6</ele>
        <time>2022-07-18T04:45:50Z</time>
      </trkpt>
      <trkpt lat="44.82209" lon="6.73338">
        <ele>2199.8</ele>
        <time>2022-07-18T04:45:51Z</time>
      </trkpt>
      <trkpt lat="44.82208" lon="6.73336">
        <ele>2200</ele>
        <time>2022-07-18T04:45:52Z</time>
      </trkpt>
      <trkpt lat="44.82208" lon="6.73333">
        <ele>2200</ele>
        <time>2022-07-18T04:45:53Z</time>
      </trkpt>
      <trkpt lat="44.82208" lon="6.7333">
        <ele>2200.4</ele>
        <time>2022-07-18T04:45:54Z</time>
      </trkpt>
      <trkpt lat="44.82207" lon="6.73327">
        <ele>2200.6</ele>
        <time>2022-07-18T04:45:55Z</time>
      </trkpt>
      <trkpt lat="44.82207" lon="6.73324">
        <ele>2200.8</ele>
        <time>2022-07-18T04:45:56Z</time>
      </trkpt>
      <trkpt lat="44.82207" lon="6.73322">
        <ele>2200.8</ele>
        <time>2022-07-18T04:45:57Z</time>
      </trkpt>
      <trkpt lat="44.82207" lon="6.73319">
        <ele>2201.4</ele>
        <time>2022-07-18T04:45:58Z</time>
      </trkpt>
      <trkpt lat="44.82208" lon="6.73316">
        <ele>2201.4</ele>
        <time>2022-07-18T04:45:59Z</time>
      </trkpt>
      <trkpt lat="44.82208" lon="6.73313">
        <ele>2201.6</ele>
        <time>2022-07-18T04:46:00Z</time>
      </trkpt>
      <trkpt lat="44.82208" lon="6.73311">
        <ele>2201.6</ele>
        <time>2022-07-18T04:46:01Z</time>
      </trkpt>
      <trkpt lat="44.82208" lon="6.73308">
        <ele>2201.8</ele>
        <time>2022-07-18T04:46:02Z</time>
      </trkpt>
      <trkpt lat="44.82208" lon="6.73305">
        <ele>2201.8</ele>
        <time>2022-07-18T04:46:03Z</time>
      </trkpt>
      <trkpt lat="44.82208" lon="6.73302">
        <ele>2201.8</ele>
        <time>2022-07-18T04:46:04Z</time>
      </trkpt>
      <trkpt lat="44.82207" lon="6.73299">
        <ele>2202.2</ele>
        <time>2022-07-18T04:46:05Z</time>
      </trkpt>
      <trkpt lat="44.82206" lon="6.73297">
        <ele>2202.2</ele>
        <time>2022-07-18T04:46:06Z</time>
      </trkpt>
      <trkpt lat="44.82204" lon="6.73294">
        <ele>2202.2</ele>
        <time>2022-07-18T04:46:07Z</time>
      </trkpt>
      <trkpt lat="44.82202" lon="6.73293">
        <ele>2202.4</ele>
        <time>2022-07-18T04:46:08Z</time>
      </trkpt>
      <trkpt lat="44.822" lon="6.73291">
        <ele>2202.6</ele>
        <time>2022-07-18T04:46:09Z</time>
      </trkpt>
      <trkpt lat="44.82198" lon="6.73291">
        <ele>2202.6</ele>
        <time>2022-07-18T04:46:10Z</time>
      </trkpt>
      <trkpt lat="44.82196" lon="6.73291">
        <ele>2203</ele>
        <time>2022-07-18T04:46:11Z</time>
      </trkpt>
      <trkpt lat="44.82193" lon="6.73291">
        <ele>2203</ele>
        <time>2022-07-18T04:46:12Z</time>
      </trkpt>
      <trkpt lat="44.82191" lon="6.73292">
        <ele>2203.2</ele>
        <time>2022-07-18T04:46:13Z</time>
      </trkpt>
      <trkpt lat="44.82189" lon="6.73294">
        <ele>2203.2</ele>
        <time>2022-07-18T04:46:14Z</time>
      </trkpt>
      <trkpt lat="44.82188" lon="6.73297">
        <ele>2203.4</ele>
        <time>2022-07-18T04:46:15Z</time>
      </trkpt>
      <trkpt lat="44.82186" lon="6.73299">
        <ele>2203.4</ele>
        <time>2022-07-18T04:46:16Z</time>
      </trkpt>
      <trkpt lat="44.82185" lon="6.73302">
        <ele>2203.6</ele>
        <time>2022-07-18T04:46:17Z</time>
      </trkpt>
      <trkpt lat="44.82184" lon="6.73305">
        <ele>2203.6</ele>
        <time>2022-07-18T04:46:18Z</time>
      </trkpt>
      <trkpt lat="44.82184" lon="6.73308">
        <ele>2203.6</ele>
        <time>2022-07-18T04:46:19Z</time>
      </trkpt>
      <trkpt lat="44.82185" lon="6.73311">
        <ele>2204</ele>
        <time>2022-07-18T04:46:20Z</time>
      </trkpt>
      <trkpt lat="44.82185" lon="6.73315">
        <ele>2204</ele>
        <time>2022-07-18T04:46:21Z</time>
      </trkpt>
      <trkpt lat="44.82185" lon="6.73318">
        <ele>2204.2</ele>
        <time>2022-07-18T04:46:22Z</time>
      </trkpt>
      <trkpt lat="44.82186" lon="6.73321">
        <ele>2204.2</ele>
        <time>2022-07-18T04:46:23Z</time>
      </trkpt>
      <trkpt lat="44.82187" lon="6.73324">
        <ele>2204.6</ele>
        <time>2022-07-18T04:46:24Z</time>
      </trkpt>
      <trkpt lat="44.82187" lon="6.73326">
        <ele>2204.6</ele>
        <time>2022-07-18T04:46:25Z</time>
      </trkpt>
      <trkpt lat="44.82188" lon="6.73329">
        <ele>2204.8</ele>
        <time>2022-07-18T04:46:26Z</time>
      </trkpt>
      <trkpt lat="44.82189" lon="6.73332">
        <ele>2204.8</ele>
        <time>2022-07-18T04:46:27Z</time>
      </trkpt>
      <trkpt lat="44.82189" lon="6.73335">
        <ele>2205.2</ele>
        <time>2022-07-18T04:46:28Z</time>
      </trkpt>
      <trkpt lat="44.82189" lon="6.73337">
        <ele>2205.4</ele>
        <time>2022-07-18T04:46:29Z</time>
      </trkpt>
      <trkpt lat="44.8219" lon="6.7334">
        <ele>2205.4</ele>
        <time>2022-07-18T04:46:30Z</time>
      </trkpt>
      <trkpt lat="44.82191" lon="6.73343">
        <ele>2205.8</ele>
        <time>2022-07-18T04:46:31Z</time>
      </trkpt>
      <trkpt lat="44.82191" lon="6.73345">
        <ele>2206</ele>
        <time>2022-07-18T04:46:32Z</time>
      </trkpt>
      <trkpt lat="44.82192" lon="6.73348">
        <ele>2206.2</ele>
        <time>2022-07-18T04:46:33Z</time>
      </trkpt>
      <trkpt lat="44.82192" lon="6.73351">
        <ele>2206.2</ele>
        <time>2022-07-18T04:46:34Z</time>
      </trkpt>
      <trkpt lat="44.82193" lon="6.73354">
        <ele>2206.6</ele>
        <time>2022-07-18T04:46:35Z</time>
      </trkpt>
      <trkpt lat="44.82193" lon="6.73357">
        <ele>2206.6</ele>
        <time>2022-07-18T04:46:36Z</time>
      </trkpt>
      <trkpt lat="44.82193" lon="6.73359">
        <ele>2206.8</ele>
        <time>2022-07-18T04:46:37Z</time>
      </trkpt>
      <trkpt lat="44.82193" lon="6.73362">
        <ele>2207</ele>
        <time>2022-07-18T04:46:38Z</time>
      </trkpt>
      <trkpt lat="44.82193" lon="6.73365">
        <ele>2207.4</ele>
        <time>2022-07-18T04:46:39Z</time>
      </trkpt>
      <trkpt lat="44.82193" lon="6.73368">
        <ele>2207.6</ele>
        <time>2022-07-18T04:46:40Z</time>
      </trkpt>
      <trkpt lat="44.82192" lon="6.7337">
        <ele>2207.6</ele>
        <time>2022-07-18T04:46:41Z</time>
      </trkpt>
      <trkpt lat="44.82192" lon="6.73373">
        <ele>2208</ele>
        <time>2022-07-18T04:46:42Z</time>
      </trkpt>
      <trkpt lat="44.82192" lon="6.73376">
        <ele>2208</ele>
        <time>2022-07-18T04:46:43Z</time>
      </trkpt>
      <trkpt lat="44.82192" lon="6.73379">
        <ele>2208.4</ele>
        <time>2022-07-18T04:46:44Z</time>
      </trkpt>
      <trkpt lat="44.82192" lon="6.73382">
        <ele>2208.4</ele>
        <time>2022-07-18T04:46:45Z</time>
      </trkpt>
      <trkpt lat="44.82192" lon="6.73385">
        <ele>2208.8</ele>
        <time>2022-07-18T04:46:46Z</time>
      </trkpt>
      <trkpt lat="44.82192" lon="6.73387">
        <ele>2208.8</ele>
        <time>2022-07-18T04:46:47Z</time>
      </trkpt>
      <trkpt lat="44.82192" lon="6.7339">
        <ele>2209</ele>
        <time>2022-07-18T04:46:48Z</time>
      </trkpt>
      <trkpt lat="44.82191" lon="6.73393">
        <ele>2209</ele>
        <time>2022-07-18T04:46:49Z</time>
      </trkpt>
      <trkpt lat="44.82191" lon="6.73395">
        <ele>2209.4</ele>
        <time>2022-07-18T04:46:50Z</time>
      </trkpt>
      <trkpt lat="44.8219" lon="6.73398">
        <ele>2209.4</ele>
        <time>2022-07-18T04:46:51Z</time>
      </trkpt>
      <trkpt lat="44.82189" lon="6.73401">
        <ele>2209.6</ele>
        <time>2022-07-18T04:46:52Z</time>
      </trkpt>
      <trkpt lat="44.82189" lon="6.73403">
        <ele>2209.6</ele>
        <time>2022-07-18T04:46:53Z</time>
      </trkpt>
      <trkpt lat="44.82188" lon="6.73406">
        <ele>2209.8</ele>
        <time>2022-07-18T04:46:54Z</time>
      </trkpt>
      <trkpt lat="44.82187" lon="6.73409">
        <ele>2210</ele>
        <time>2022-07-18T04:46:55Z</time>
      </trkpt>
      <trkpt lat="44.82187" lon="6.73412">
        <ele>2210.2</ele>
        <time>2022-07-18T04:46:56Z</time>
      </trkpt>
      <trkpt lat="44.82186" lon="6.73414">
        <ele>2210.4</ele>
        <time>2022-07-18T04:46:57Z</time>
      </trkpt>
      <trkpt lat="44.82186" lon="6.73417">
        <ele>2210.6</ele>
        <time>2022-07-18T04:46:58Z</time>
      </trkpt>
      <trkpt lat="44.82185" lon="6.7342">
        <ele>2211</ele>
        <time>2022-07-18T04:46:59Z</time>
      </trkpt>
      <trkpt lat="44.82185" lon="6.73423">
        <ele>2211</ele>
        <time>2022-07-18T04:47:00Z</time>
      </trkpt>
      <trkpt lat="44.82184" lon="6.73426">
        <ele>2211.4</ele>
        <time>2022-07-18T04:47:01Z</time>
      </trkpt>
      <trkpt lat="44.82184" lon="6.73429">
        <ele>2211.4</ele>
        <time>2022-07-18T04:47:02Z</time>
      </trkpt>
      <trkpt lat="44.82184" lon="6.73431">
        <ele>2211.8</ele>
        <time>2022-07-18T04:47:03Z</time>
      </trkpt>
      <trkpt lat="44.82183" lon="6.73434">
        <ele>2211.8</ele>
        <time>2022-07-18T04:47:04Z</time>
      </trkpt>
      <trkpt lat="44.82183" lon="6.73437">
        <ele>2212</ele>
        <time>2022-07-18T04:47:05Z</time>
      </trkpt>
      <trkpt lat="44.82183" lon="6.7344">
        <ele>2212</ele>
        <time>2022-07-18T04:47:06Z</time>
      </trkpt>
      <trkpt lat="44.82183" lon="6.73443">
        <ele>2212.4</ele>
        <time>2022-07-18T04:47:07Z</time>
      </trkpt>
      <trkpt lat="44.82183" lon="6.73446">
        <ele>2212.4</ele>
        <time>2022-07-18T04:47:08Z</time>
      </trkpt>
      <trkpt lat="44.82183" lon="6.73448">
        <ele>2212.8</ele>
        <time>2022-07-18T04:47:09Z</time>
      </trkpt>
      <trkpt lat="44.82183" lon="6.73451">
        <ele>2213</ele>
        <time>2022-07-18T04:47:10Z</time>
      </trkpt>
      <trkpt lat="44.82183" lon="6.73454">
        <ele>2213</ele>
        <time>2022-07-18T04:47:11Z</time>
      </trkpt>
      <trkpt lat="44.82183" lon="6.73457">
        <ele>2213.2</ele>
        <time>2022-07-18T04:47:12Z</time>
      </trkpt>
      <trkpt lat="44.82183" lon="6.73459">
        <ele>2213.4</ele>
        <time>2022-07-18T04:47:13Z</time>
      </trkpt>
      <trkpt lat="44.82183" lon="6.73462">
        <ele>2213.8</ele>
        <time>2022-07-18T04:47:14Z</time>
      </trkpt>
      <trkpt lat="44.82184" lon="6.73465">
        <ele>2214</ele>
        <time>2022-07-18T04:47:15Z</time>
      </trkpt>
      <trkpt lat="44.82185" lon="6.73467">
        <ele>2214</ele>
        <time>2022-07-18T04:47:16Z</time>
      </trkpt>
      <trkpt lat="44.82185" lon="6.7347">
        <ele>2214.4</ele>
        <time>2022-07-18T04:47:17Z</time>
      </trkpt>
      <trkpt lat="44.82186" lon="6.73472">
        <ele>2214.4</ele>
        <time>2022-07-18T04:47:18Z</time>
      </trkpt>
      <trkpt lat="44.82187" lon="6.73475">
        <ele>2214.6</ele>
        <time>2022-07-18T04:47:19Z</time>
      </trkpt>
      <trkpt lat="44.82189" lon="6.73477">
        <ele>2214.6</ele>
        <time>2022-07-18T04:47:20Z</time>
      </trkpt>
      <trkpt lat="44.8219" lon="6.73479">
        <ele>2215</ele>
        <time>2022-07-18T04:47:21Z</time>
      </trkpt>
      <trkpt lat="44.82191" lon="6.73481">
        <ele>2215</ele>
        <time>2022-07-18T04:47:22Z</time>
      </trkpt>
      <trkpt lat="44.82192" lon="6.73484">
        <ele>2215.4</ele>
        <time>2022-07-18T04:47:23Z</time>
      </trkpt>
      <trkpt lat="44.82195" lon="6.73488">
        <ele>2215.6</ele>
        <time>2022-07-18T04:47:24Z</time>
      </trkpt>
      <trkpt lat="44.82196" lon="6.7349">
        <ele>2215.8</ele>
        <time>2022-07-18T04:47:25Z</time>
      </trkpt>
      <trkpt lat="44.82197" lon="6.73492">
        <ele>2215.8</ele>
        <time>2022-07-18T04:47:26Z</time>
      </trkpt>
      <trkpt lat="44.82198" lon="6.73494">
        <ele>2216.2</ele>
        <time>2022-07-18T04:47:27Z</time>
      </trkpt>
      <trkpt lat="44.82199" lon="6.73496">
        <ele>2216.2</ele>
        <time>2022-07-18T04:47:28Z</time>
      </trkpt>
      <trkpt lat="44.822" lon="6.73499">
        <ele>2216.4</ele>
        <time>2022-07-18T04:47:29Z</time>
      </trkpt>
      <trkpt lat="44.82201" lon="6.73501">
        <ele>2216.6</ele>
        <time>2022-07-18T04:47:30Z</time>
      </trkpt>
      <trkpt lat="44.82202" lon="6.73503">
        <ele>2216.6</ele>
        <time>2022-07-18T04:47:31Z</time>
      </trkpt>
      <trkpt lat="44.82203" lon="6.73505">
        <ele>2216.8</ele>
        <time>2022-07-18T04:47:32Z</time>
      </trkpt>
      <trkpt lat="44.82204" lon="6.73507">
        <ele>2216.8</ele>
        <time>2022-07-18T04:47:33Z</time>
      </trkpt>
      <trkpt lat="44.82206" lon="6.73509">
        <ele>2216.8</ele>
        <time>2022-07-18T04:47:34Z</time>
      </trkpt>
      <trkpt lat="44.82207" lon="6.73512">
        <ele>2217.2</ele>
        <time>2022-07-18T04:47:35Z</time>
      </trkpt>
      <trkpt lat="44.82208" lon="6.73514">
        <ele>2217.2</ele>
        <time>2022-07-18T04:47:36Z</time>
      </trkpt>
      <trkpt lat="44.8221" lon="6.73516">
        <ele>2217.6</ele>
        <time>2022-07-18T04:47:37Z</time>
      </trkpt>
      <trkpt lat="44.82211" lon="6.73518">
        <ele>2217.8</ele>
        <time>2022-07-18T04:47:38Z</time>
      </trkpt>
      <trkpt lat="44.82213" lon="6.73519">
        <ele>2217.8</ele>
        <time>2022-07-18T04:47:39Z</time>
      </trkpt>
      <trkpt lat="44.82214" lon="6.73521">
        <ele>2218</ele>
        <time>2022-07-18T04:47:40Z</time>
      </trkpt>
      <trkpt lat="44.82216" lon="6.73523">
        <ele>2218</ele>
        <time>2022-07-18T04:47:41Z</time>
      </trkpt>
      <trkpt lat="44.82217" lon="6.73525">
        <ele>2218.4</ele>
        <time>2022-07-18T04:47:42Z</time>
      </trkpt>
      <trkpt lat="44.82218" lon="6.73527">
        <ele>2218.4</ele>
        <time>2022-07-18T04:47:43Z</time>
      </trkpt>
      <trkpt lat="44.82219" lon="6.73529">
        <ele>2218.8</ele>
        <time>2022-07-18T04:47:44Z</time>
      </trkpt>
      <trkpt lat="44.82221" lon="6.73531">
        <ele>2218.8</ele>
        <time>2022-07-18T04:47:45Z</time>
      </trkpt>
      <trkpt lat="44.82222" lon="6.73533">
        <ele>2219</ele>
        <time>2022-07-18T04:47:46Z</time>
      </trkpt>
      <trkpt lat="44.82223" lon="6.73535">
        <ele>2219.4</ele>
        <time>2022-07-18T04:47:47Z</time>
      </trkpt>
      <trkpt lat="44.82224" lon="6.73537">
        <ele>2219.6</ele>
        <time>2022-07-18T04:47:48Z</time>
      </trkpt>
      <trkpt lat="44.82225" lon="6.73539">
        <ele>2219.6</ele>
        <time>2022-07-18T04:47:49Z</time>
      </trkpt>
      <trkpt lat="44.82226" lon="6.73541">
        <ele>2219.8</ele>
        <time>2022-07-18T04:47:50Z</time>
      </trkpt>
      <trkpt lat="44.82228" lon="6.73542">
        <ele>2219.8</ele>
        <time>2022-07-18T04:47:51Z</time>
      </trkpt>
      <trkpt lat="44.82229" lon="6.73544">
        <ele>2220.2</ele>
        <time>2022-07-18T04:47:52Z</time>
      </trkpt>
      <trkpt lat="44.8223" lon="6.73546">
        <ele>2220.2</ele>
        <time>2022-07-18T04:47:53Z</time>
      </trkpt>
      <trkpt lat="44.82232" lon="6.73548">
        <ele>2220.4</ele>
        <time>2022-07-18T04:47:54Z</time>
      </trkpt>
      <trkpt lat="44.82233" lon="6.7355">
        <ele>2220.6</ele>
        <time>2022-07-18T04:47:55Z</time>
      </trkpt>
      <trkpt lat="44.82234" lon="6.73552">
        <ele>2221</ele>
        <time>2022-07-18T04:47:56Z</time>
      </trkpt>
      <trkpt lat="44.82235" lon="6.73554">
        <ele>2221.2</ele>
        <time>2022-07-18T04:47:57Z</time>
      </trkpt>
      <trkpt lat="44.82237" lon="6.73556">
        <ele>2221.6</ele>
        <time>2022-07-18T04:47:58Z</time>
      </trkpt>
      <trkpt lat="44.82238" lon="6.73558">
        <ele>2221.6</ele>
        <time>2022-07-18T04:47:59Z</time>
      </trkpt>
      <trkpt lat="44.8224" lon="6.73559">
        <ele>2221.8</ele>
        <time>2022-07-18T04:48:00Z</time>
      </trkpt>
      <trkpt lat="44.82242" lon="6.73561">
        <ele>2221.8</ele>
        <time>2022-07-18T04:48:01Z</time>
      </trkpt>
      <trkpt lat="44.82243" lon="6.73563">
        <ele>2222</ele>
        <time>2022-07-18T04:48:02Z</time>
      </trkpt>
      <trkpt lat="44.82244" lon="6.73565">
        <ele>2222</ele>
        <time>2022-07-18T04:48:03Z</time>
      </trkpt>
      <trkpt lat="44.82246" lon="6.73567">
        <ele>2222.4</ele>
        <time>2022-07-18T04:48:04Z</time>
      </trkpt>
      <trkpt lat="44.82247" lon="6.73569">
        <ele>2222.4</ele>
        <time>2022-07-18T04:48:05Z</time>
      </trkpt>
      <trkpt lat="44.82249" lon="6.73571">
        <ele>2222.6</ele>
        <time>2022-07-18T04:48:06Z</time>
      </trkpt>
      <trkpt lat="44.82251" lon="6.73572">
        <ele>2222.6</ele>
        <time>2022-07-18T04:48:07Z</time>
      </trkpt>
      <trkpt lat="44.82253" lon="6.73573">
        <ele>2223</ele>
        <time>2022-07-18T04:48:08Z</time>
      </trkpt>
      <trkpt lat="44.82255" lon="6.73574">
        <ele>2223</ele>
        <time>2022-07-18T04:48:09Z</time>
      </trkpt>
      <trkpt lat="44.82256" lon="6.73575">
        <ele>2223.2</ele>
        <time>2022-07-18T04:48:11Z</time>
      </trkpt>
      <trkpt lat="44.82258" lon="6.73577">
        <ele>2223.6</ele>
        <time>2022-07-18T04:48:12Z</time>
      </trkpt>
      <trkpt lat="44.8226" lon="6.73579">
        <ele>2223.6</ele>
        <time>2022-07-18T04:48:13Z</time>
      </trkpt>
      <trkpt lat="44.82261" lon="6.73581">
        <ele>2223.8</ele>
        <time>2022-07-18T04:48:14Z</time>
      </trkpt>
      <trkpt lat="44.82262" lon="6.73584">
        <ele>2224.2</ele>
        <time>2022-07-18T04:48:15Z</time>
      </trkpt>
      <trkpt lat="44.82263" lon="6.73586">
        <ele>2224.2</ele>
        <time>2022-07-18T04:48:16Z</time>
      </trkpt>
      <trkpt lat="44.82264" lon="6.73588">
        <ele>2224.4</ele>
        <time>2022-07-18T04:48:17Z</time>
      </trkpt>
      <trkpt lat="44.82265" lon="6.7359">
        <ele>2224.8</ele>
        <time>2022-07-18T04:48:18Z</time>
      </trkpt>
      <trkpt lat="44.82265" lon="6.73593">
        <ele>2224.8</ele>
        <time>2022-07-18T04:48:19Z</time>
      </trkpt>
      <trkpt lat="44.82265" lon="6.73595">
        <ele>2225</ele>
        <time>2022-07-18T04:48:20Z</time>
      </trkpt>
      <trkpt lat="44.82264" lon="6.73598">
        <ele>2225.2</ele>
        <time>2022-07-18T04:48:21Z</time>
      </trkpt>
      <trkpt lat="44.82263" lon="6.73601">
        <ele>2225.4</ele>
        <time>2022-07-18T04:48:22Z</time>
      </trkpt>
      <trkpt lat="44.82262" lon="6.73604">
        <ele>2225.6</ele>
        <time>2022-07-18T04:48:23Z</time>
      </trkpt>
      <trkpt lat="44.8226" lon="6.73606">
        <ele>2225.6</ele>
        <time>2022-07-18T04:48:24Z</time>
      </trkpt>
      <trkpt lat="44.82258" lon="6.73607">
        <ele>2226</ele>
        <time>2022-07-18T04:48:25Z</time>
      </trkpt>
      <trkpt lat="44.82256" lon="6.73609">
        <ele>2226</ele>
        <time>2022-07-18T04:48:26Z</time>
      </trkpt>
      <trkpt lat="44.82253" lon="6.7361">
        <ele>2226</ele>
        <time>2022-07-18T04:48:27Z</time>
      </trkpt>
      <trkpt lat="44.82251" lon="6.7361">
        <ele>2226.2</ele>
        <time>2022-07-18T04:48:28Z</time>
      </trkpt>
      <trkpt lat="44.82249" lon="6.7361">
        <ele>2226.2</ele>
        <time>2022-07-18T04:48:29Z</time>
      </trkpt>
      <trkpt lat="44.82247" lon="6.7361">
        <ele>2226.4</ele>
        <time>2022-07-18T04:48:30Z</time>
      </trkpt>
      <trkpt lat="44.82244" lon="6.7361">
        <ele>2226.4</ele>
        <time>2022-07-18T04:48:31Z</time>
      </trkpt>
      <trkpt lat="44.82242" lon="6.7361">
        <ele>2226.8</ele>
        <time>2022-07-18T04:48:32Z</time>
      </trkpt>
      <trkpt lat="44.8224" lon="6.73609">
        <ele>2226.8</ele>
        <time>2022-07-18T04:48:33Z</time>
      </trkpt>
      <trkpt lat="44.82238" lon="6.73608">
        <ele>2227.2</ele>
        <time>2022-07-18T04:48:34Z</time>
      </trkpt>
      <trkpt lat="44.82235" lon="6.73608">
        <ele>2227.4</ele>
        <time>2022-07-18T04:48:35Z</time>
      </trkpt>
      <trkpt lat="44.82233" lon="6.73608">
        <ele>2227.4</ele>
        <time>2022-07-18T04:48:36Z</time>
      </trkpt>
      <trkpt lat="44.82231" lon="6.73607">
        <ele>2227.8</ele>
        <time>2022-07-18T04:48:37Z</time>
      </trkpt>
      <trkpt lat="44.82229" lon="6.73606">
        <ele>2227.8</ele>
        <time>2022-07-18T04:48:38Z</time>
      </trkpt>
      <trkpt lat="44.82227" lon="6.73606">
        <ele>2228.2</ele>
        <time>2022-07-18T04:48:39Z</time>
      </trkpt>
      <trkpt lat="44.82225" lon="6.73605">
        <ele>2228.4</ele>
        <time>2022-07-18T04:48:40Z</time>
      </trkpt>
      <trkpt lat="44.82223" lon="6.73604">
        <ele>2228.4</ele>
        <time>2022-07-18T04:48:41Z</time>
      </trkpt>
      <trkpt lat="44.82221" lon="6.73603">
        <ele>2228.6</ele>
        <time>2022-07-18T04:48:42Z</time>
      </trkpt>
      <trkpt lat="44.82219" lon="6.73602">
        <ele>2228.6</ele>
        <time>2022-07-18T04:48:43Z</time>
      </trkpt>
      <trkpt lat="44.82216" lon="6.73601">
        <ele>2228.8</ele>
        <time>2022-07-18T04:48:44Z</time>
      </trkpt>
      <trkpt lat="44.82214" lon="6.73601">
        <ele>2229</ele>
        <time>2022-07-18T04:48:45Z</time>
      </trkpt>
      <trkpt lat="44.82212" lon="6.736">
        <ele>2229</ele>
        <time>2022-07-18T04:48:46Z</time>
      </trkpt>
      <trkpt lat="44.82211" lon="6.73599">
        <ele>2229.4</ele>
        <time>2022-07-18T04:48:47Z</time>
      </trkpt>
      <trkpt lat="44.82209" lon="6.73598">
        <ele>2229.4</ele>
        <time>2022-07-18T04:48:48Z</time>
      </trkpt>
      <trkpt lat="44.82206" lon="6.73597">
        <ele>2229.8</ele>
        <time>2022-07-18T04:48:49Z</time>
      </trkpt>
      <trkpt lat="44.82204" lon="6.73596">
        <ele>2230</ele>
        <time>2022-07-18T04:48:50Z</time>
      </trkpt>
      <trkpt lat="44.82202" lon="6.73595">
        <ele>2230.2</ele>
        <time>2022-07-18T04:48:51Z</time>
      </trkpt>
      <trkpt lat="44.822" lon="6.73594">
        <ele>2230.4</ele>
        <time>2022-07-18T04:48:52Z</time>
      </trkpt>
      <trkpt lat="44.82197" lon="6.73593">
        <ele>2230.4</ele>
        <time>2022-07-18T04:48:53Z</time>
      </trkpt>
      <trkpt lat="44.82195" lon="6.73592">
        <ele>2230.8</ele>
        <time>2022-07-18T04:48:54Z</time>
      </trkpt>
      <trkpt lat="44.82193" lon="6.73592">
        <ele>2230.8</ele>
        <time>2022-07-18T04:48:55Z</time>
      </trkpt>
      <trkpt lat="44.82189" lon="6.7359">
        <ele>2231</ele>
        <time>2022-07-18T04:48:56Z</time>
      </trkpt>
      <trkpt lat="44.82187" lon="6.7359">
        <ele>2231.2</ele>
        <time>2022-07-18T04:48:57Z</time>
      </trkpt>
      <trkpt lat="44.82184" lon="6.73589">
        <ele>2231.2</ele>
        <time>2022-07-18T04:48:58Z</time>
      </trkpt>
      <trkpt lat="44.82182" lon="6.73588">
        <ele>2231.2</ele>
        <time>2022-07-18T04:48:59Z</time>
      </trkpt>
      <trkpt lat="44.8218" lon="6.73588">
        <ele>2231.6</ele>
        <time>2022-07-18T04:49:00Z</time>
      </trkpt>
      <trkpt lat="44.82178" lon="6.73587">
        <ele>2231.6</ele>
        <time>2022-07-18T04:49:01Z</time>
      </trkpt>
      <trkpt lat="44.82176" lon="6.73586">
        <ele>2232</ele>
        <time>2022-07-18T04:49:02Z</time>
      </trkpt>
      <trkpt lat="44.82174" lon="6.73584">
        <ele>2232</ele>
        <time>2022-07-18T04:49:03Z</time>
      </trkpt>
      <trkpt lat="44.82171" lon="6.73583">
        <ele>2232.4</ele>
        <time>2022-07-18T04:49:04Z</time>
      </trkpt>
      <trkpt lat="44.82169" lon="6.73583">
        <ele>2232.4</ele>
        <time>2022-07-18T04:49:05Z</time>
      </trkpt>
      <trkpt lat="44.82167" lon="6.73582">
        <ele>2232.6</ele>
        <time>2022-07-18T04:49:06Z</time>
      </trkpt>
      <trkpt lat="44.82165" lon="6.73581">
        <ele>2232.6</ele>
        <time>2022-07-18T04:49:07Z</time>
      </trkpt>
      <trkpt lat="44.82163" lon="6.7358">
        <ele>2233.2</ele>
        <time>2022-07-18T04:49:08Z</time>
      </trkpt>
      <trkpt lat="44.82161" lon="6.73579">
        <ele>2233.2</ele>
        <time>2022-07-18T04:49:09Z</time>
      </trkpt>
      <trkpt lat="44.82159" lon="6.73578">
        <ele>2233.4</ele>
        <time>2022-07-18T04:49:10Z</time>
      </trkpt>
      <trkpt lat="44.82157" lon="6.73577">
        <ele>2233.4</ele>
        <time>2022-07-18T04:49:11Z</time>
      </trkpt>
      <trkpt lat="44.82155" lon="6.73576">
        <ele>2233.8</ele>
        <time>2022-07-18T04:49:12Z</time>
      </trkpt>
      <trkpt lat="44.82153" lon="6.73575">
        <ele>2234</ele>
        <time>2022-07-18T04:49:13Z</time>
      </trkpt>
      <trkpt lat="44.82151" lon="6.73574">
        <ele>2234</ele>
        <time>2022-07-18T04:49:14Z</time>
      </trkpt>
      <trkpt lat="44.8215" lon="6.73573">
        <ele>2234.4</ele>
        <time>2022-07-18T04:49:15Z</time>
      </trkpt>
      <trkpt lat="44.82148" lon="6.73573">
        <ele>2234.4</ele>
        <time>2022-07-18T04:49:16Z</time>
      </trkpt>
      <trkpt lat="44.82146" lon="6.73572">
        <ele>2234.8</ele>
        <time>2022-07-18T04:49:17Z</time>
      </trkpt>
      <trkpt lat="44.82144" lon="6.73571">
        <ele>2235</ele>
        <time>2022-07-18T04:49:18Z</time>
      </trkpt>
      <trkpt lat="44.82141" lon="6.73571">
        <ele>2235</ele>
        <time>2022-07-18T04:49:19Z</time>
      </trkpt>
      <trkpt lat="44.82139" lon="6.7357">
        <ele>2235.4</ele>
        <time>2022-07-18T04:49:20Z</time>
      </trkpt>
      <trkpt lat="44.82137" lon="6.73569">
        <ele>2235.6</ele>
        <time>2022-07-18T04:49:21Z</time>
      </trkpt>
      <trkpt lat="44.82135" lon="6.73568">
        <ele>2235.8</ele>
        <time>2022-07-18T04:49:22Z</time>
      </trkpt>
      <trkpt lat="44.82134" lon="6.73567">
        <ele>2236.2</ele>
        <time>2022-07-18T04:49:23Z</time>
      </trkpt>
      <trkpt lat="44.82132" lon="6.73566">
        <ele>2236.4</ele>
        <time>2022-07-18T04:49:24Z</time>
      </trkpt>
      <trkpt lat="44.8213" lon="6.73565">
        <ele>2236.4</ele>
        <time>2022-07-18T04:49:25Z</time>
      </trkpt>
      <trkpt lat="44.82128" lon="6.73563">
        <ele>2236.8</ele>
        <time>2022-07-18T04:49:26Z</time>
      </trkpt>
      <trkpt lat="44.82127" lon="6.73562">
        <ele>2236.8</ele>
        <time>2022-07-18T04:49:27Z</time>
      </trkpt>
      <trkpt lat="44.82125" lon="6.73561">
        <ele>2237.2</ele>
        <time>2022-07-18T04:49:28Z</time>
      </trkpt>
      <trkpt lat="44.82123" lon="6.7356">
        <ele>2237.2</ele>
        <time>2022-07-18T04:49:29Z</time>
      </trkpt>
      <trkpt lat="44.82121" lon="6.73559">
        <ele>2237.6</ele>
        <time>2022-07-18T04:49:30Z</time>
      </trkpt>
      <trkpt lat="44.82119" lon="6.73558">
        <ele>2237.6</ele>
        <time>2022-07-18T04:49:31Z</time>
      </trkpt>
      <trkpt lat="44.82117" lon="6.73557">
        <ele>2238</ele>
        <time>2022-07-18T04:49:32Z</time>
      </trkpt>
      <trkpt lat="44.82115" lon="6.73556">
        <ele>2238.2</ele>
        <time>2022-07-18T04:49:33Z</time>
      </trkpt>
      <trkpt lat="44.82113" lon="6.73555">
        <ele>2238.4</ele>
        <time>2022-07-18T04:49:34Z</time>
      </trkpt>
      <trkpt lat="44.82111" lon="6.73555">
        <ele>2238.8</ele>
        <time>2022-07-18T04:49:35Z</time>
      </trkpt>
      <trkpt lat="44.82109" lon="6.73554">
        <ele>2239</ele>
        <time>2022-07-18T04:49:36Z</time>
      </trkpt>
      <trkpt lat="44.82108" lon="6.73554">
        <ele>2239</ele>
        <time>2022-07-18T04:49:37Z</time>
      </trkpt>
      <trkpt lat="44.82106" lon="6.73553">
        <ele>2239.4</ele>
        <time>2022-07-18T04:49:38Z</time>
      </trkpt>
      <trkpt lat="44.82104" lon="6.73552">
        <ele>2239.4</ele>
        <time>2022-07-18T04:49:39Z</time>
      </trkpt>
      <trkpt lat="44.82102" lon="6.7355">
        <ele>2239.8</ele>
        <time>2022-07-18T04:49:40Z</time>
      </trkpt>
      <trkpt lat="44.82101" lon="6.73548">
        <ele>2240</ele>
        <time>2022-07-18T04:49:41Z</time>
      </trkpt>
      <trkpt lat="44.821" lon="6.73546">
        <ele>2240.2</ele>
        <time>2022-07-18T04:49:42Z</time>
      </trkpt>
      <trkpt lat="44.82099" lon="6.73543">
        <ele>2240.2</ele>
        <time>2022-07-18T04:49:43Z</time>
      </trkpt>
      <trkpt lat="44.82097" lon="6.73541">
        <ele>2240.4</ele>
        <time>2022-07-18T04:49:44Z</time>
      </trkpt>
      <trkpt lat="44.82096" lon="6.73538">
        <ele>2240.4</ele>
        <time>2022-07-18T04:49:45Z</time>
      </trkpt>
      <trkpt lat="44.82095" lon="6.73535">
        <ele>2240.4</ele>
        <time>2022-07-18T04:49:46Z</time>
      </trkpt>
      <trkpt lat="44.82094" lon="6.73532">
        <ele>2240.8</ele>
        <time>2022-07-18T04:49:47Z</time>
      </trkpt>
      <trkpt lat="44.82093" lon="6.7353">
        <ele>2240.8</ele>
        <time>2022-07-18T04:49:48Z</time>
      </trkpt>
      <trkpt lat="44.82092" lon="6.73527">
        <ele>2241</ele>
        <time>2022-07-18T04:49:49Z</time>
      </trkpt>
      <trkpt lat="44.82092" lon="6.73525">
        <ele>2241.4</ele>
        <time>2022-07-18T04:49:50Z</time>
      </trkpt>
      <trkpt lat="44.82091" lon="6.73522">
        <ele>2241.6</ele>
        <time>2022-07-18T04:49:51Z</time>
      </trkpt>
      <trkpt lat="44.8209" lon="6.73519">
        <ele>2241.8</ele>
        <time>2022-07-18T04:49:52Z</time>
      </trkpt>
      <trkpt lat="44.8209" lon="6.73516">
        <ele>2242.2</ele>
        <time>2022-07-18T04:49:53Z</time>
      </trkpt>
      <trkpt lat="44.8209" lon="6.73514">
        <ele>2242.2</ele>
        <time>2022-07-18T04:49:54Z</time>
      </trkpt>
      <trkpt lat="44.8209" lon="6.73511">
        <ele>2242.4</ele>
        <time>2022-07-18T04:49:55Z</time>
      </trkpt>
      <trkpt lat="44.8209" lon="6.73508">
        <ele>2242.4</ele>
        <time>2022-07-18T04:49:56Z</time>
      </trkpt>
      <trkpt lat="44.8209" lon="6.73505">
        <ele>2242.8</ele>
        <time>2022-07-18T04:49:57Z</time>
      </trkpt>
      <trkpt lat="44.8209" lon="6.73502">
        <ele>2243</ele>
        <time>2022-07-18T04:49:58Z</time>
      </trkpt>
      <trkpt lat="44.8209" lon="6.735">
        <ele>2243</ele>
        <time>2022-07-18T04:49:59Z</time>
      </trkpt>
      <trkpt lat="44.8209" lon="6.73497">
        <ele>2243.2</ele>
        <time>2022-07-18T04:50:00Z</time>
      </trkpt>
      <trkpt lat="44.8209" lon="6.73494">
        <ele>2243.2</ele>
        <time>2022-07-18T04:50:01Z</time>
      </trkpt>
      <trkpt lat="44.82091" lon="6.73491">
        <ele>2243.4</ele>
        <time>2022-07-18T04:50:02Z</time>
      </trkpt>
      <trkpt lat="44.82091" lon="6.73489">
        <ele>2243.6</ele>
        <time>2022-07-18T04:50:03Z</time>
      </trkpt>
      <trkpt lat="44.82092" lon="6.73486">
        <ele>2243.6</ele>
        <time>2022-07-18T04:50:04Z</time>
      </trkpt>
      <trkpt lat="44.82093" lon="6.73484">
        <ele>2244</ele>
        <time>2022-07-18T04:50:05Z</time>
      </trkpt>
      <trkpt lat="44.82093" lon="6.73481">
        <ele>2244</ele>
        <time>2022-07-18T04:50:06Z</time>
      </trkpt>
      <trkpt lat="44.82094" lon="6.73479">
        <ele>2244.6</ele>
        <time>2022-07-18T04:50:07Z</time>
      </trkpt>
      <trkpt lat="44.82095" lon="6.73476">
        <ele>2244.6</ele>
        <time>2022-07-18T04:50:08Z</time>
      </trkpt>
      <trkpt lat="44.82095" lon="6.73474">
        <ele>2244.8</ele>
        <time>2022-07-18T04:50:09Z</time>
      </trkpt>
      <trkpt lat="44.82096" lon="6.73471">
        <ele>2244.8</ele>
        <time>2022-07-18T04:50:10Z</time>
      </trkpt>
      <trkpt lat="44.82097" lon="6.73469">
        <ele>2245</ele>
        <time>2022-07-18T04:50:11Z</time>
      </trkpt>
      <trkpt lat="44.82098" lon="6.73466">
        <ele>2245.2</ele>
        <time>2022-07-18T04:50:12Z</time>
      </trkpt>
      <trkpt lat="44.82099" lon="6.73463">
        <ele>2245.2</ele>
        <time>2022-07-18T04:50:13Z</time>
      </trkpt>
      <trkpt lat="44.82099" lon="6.7346">
        <ele>2245.6</ele>
        <time>2022-07-18T04:50:14Z</time>
      </trkpt>
      <trkpt lat="44.821" lon="6.73458">
        <ele>2245.6</ele>
        <time>2022-07-18T04:50:15Z</time>
      </trkpt>
      <trkpt lat="44.82102" lon="6.73455">
        <ele>2245.8</ele>
        <time>2022-07-18T04:50:16Z</time>
      </trkpt>
      <trkpt lat="44.82103" lon="6.73453">
        <ele>2245.8</ele>
        <time>2022-07-18T04:50:17Z</time>
      </trkpt>
      <trkpt lat="44.82104" lon="6.7345">
        <ele>2245.8</ele>
        <time>2022-07-18T04:50:18Z</time>
      </trkpt>
      <trkpt lat="44.82105" lon="6.73448">
        <ele>2246</ele>
        <time>2022-07-18T04:50:19Z</time>
      </trkpt>
      <trkpt lat="44.82106" lon="6.73445">
        <ele>2246</ele>
        <time>2022-07-18T04:50:20Z</time>
      </trkpt>
      <trkpt lat="44.82107" lon="6.73442">
        <ele>2246.4</ele>
        <time>2022-07-18T04:50:21Z</time>
      </trkpt>
      <trkpt lat="44.82108" lon="6.73439">
        <ele>2246.4</ele>
        <time>2022-07-18T04:50:22Z</time>
      </trkpt>
      <trkpt lat="44.82109" lon="6.73436">
        <ele>2246.8</ele>
        <time>2022-07-18T04:50:23Z</time>
      </trkpt>
      <trkpt lat="44.82109" lon="6.73433">
        <ele>2247.2</ele>
        <time>2022-07-18T04:50:24Z</time>
      </trkpt>
      <trkpt lat="44.82109" lon="6.7343">
        <ele>2247.4</ele>
        <time>2022-07-18T04:50:25Z</time>
      </trkpt>
      <trkpt lat="44.82109" lon="6.73427">
        <ele>2247.4</ele>
        <time>2022-07-18T04:50:26Z</time>
      </trkpt>
      <trkpt lat="44.82108" lon="6.73424">
        <ele>2247.8</ele>
        <time>2022-07-18T04:50:27Z</time>
      </trkpt>
      <trkpt lat="44.82106" lon="6.73421">
        <ele>2247.8</ele>
        <time>2022-07-18T04:50:28Z</time>
      </trkpt>
      <trkpt lat="44.82104" lon="6.73419">
        <ele>2248</ele>
        <time>2022-07-18T04:50:29Z</time>
      </trkpt>
      <trkpt lat="44.82102" lon="6.73418">
        <ele>2248</ele>
        <time>2022-07-18T04:50:30Z</time>
      </trkpt>
      <trkpt lat="44.821" lon="6.73417">
        <ele>2248.2</ele>
        <time>2022-07-18T04:50:31Z</time>
      </trkpt>
      <trkpt lat="44.82098" lon="6.73417">
        <ele>2248.2</ele>
        <time>2022-07-18T04:50:32Z</time>
      </trkpt>
      <trkpt lat="44.82095" lon="6.73417">
        <ele>2248.4</ele>
        <time>2022-07-18T04:50:33Z</time>
      </trkpt>
      <trkpt lat="44.82093" lon="6.73418">
        <ele>2248.4</ele>
        <time>2022-07-18T04:50:34Z</time>
      </trkpt>
      <trkpt lat="44.82092" lon="6.7342">
        <ele>2248.8</ele>
        <time>2022-07-18T04:50:35Z</time>
      </trkpt>
      <trkpt lat="44.8209" lon="6.73422">
        <ele>2248.8</ele>
        <time>2022-07-18T04:50:36Z</time>
      </trkpt>
      <trkpt lat="44.82089" lon="6.73425">
        <ele>2249</ele>
        <time>2022-07-18T04:50:37Z</time>
      </trkpt>
      <trkpt lat="44.82088" lon="6.73428">
        <ele>2249</ele>
        <time>2022-07-18T04:50:38Z</time>
      </trkpt>
      <trkpt lat="44.82087" lon="6.7343">
        <ele>2249</ele>
        <time>2022-07-18T04:50:39Z</time>
      </trkpt>
      <trkpt lat="44.82085" lon="6.73433">
        <ele>2249.2</ele>
        <time>2022-07-18T04:50:40Z</time>
      </trkpt>
      <trkpt lat="44.82085" lon="6.73436">
        <ele>2249.6</ele>
        <time>2022-07-18T04:50:41Z</time>
      </trkpt>
      <trkpt lat="44.82084" lon="6.7344">
        <ele>2249.6</ele>
        <time>2022-07-18T04:50:42Z</time>
      </trkpt>
      <trkpt lat="44.82083" lon="6.73443">
        <ele>2249.8</ele>
        <time>2022-07-18T04:50:43Z</time>
      </trkpt>
      <trkpt lat="44.82082" lon="6.73446">
        <ele>2250</ele>
        <time>2022-07-18T04:50:44Z</time>
      </trkpt>
      <trkpt lat="44.82081" lon="6.73448">
        <ele>2250</ele>
        <time>2022-07-18T04:50:45Z</time>
      </trkpt>
      <trkpt lat="44.8208" lon="6.73451">
        <ele>2250.6</ele>
        <time>2022-07-18T04:50:46Z</time>
      </trkpt>
      <trkpt lat="44.82079" lon="6.73453">
        <ele>2250.6</ele>
        <time>2022-07-18T04:50:47Z</time>
      </trkpt>
      <trkpt lat="44.82078" lon="6.73455">
        <ele>2250.6</ele>
        <time>2022-07-18T04:50:48Z</time>
      </trkpt>
      <trkpt lat="44.82076" lon="6.73457">
        <ele>2250.6</ele>
        <time>2022-07-18T04:50:49Z</time>
      </trkpt>
      <trkpt lat="44.82075" lon="6.7346">
        <ele>2250.8</ele>
        <time>2022-07-18T04:50:50Z</time>
      </trkpt>
      <trkpt lat="44.82074" lon="6.73462">
        <ele>2250.8</ele>
        <time>2022-07-18T04:50:51Z</time>
      </trkpt>
      <trkpt lat="44.82072" lon="6.73464">
        <ele>2251</ele>
        <time>2022-07-18T04:50:52Z</time>
      </trkpt>
      <trkpt lat="44.82071" lon="6.73467">
        <ele>2251</ele>
        <time>2022-07-18T04:50:53Z</time>
      </trkpt>
      <trkpt lat="44.8207" lon="6.73469">
        <ele>2251.4</ele>
        <time>2022-07-18T04:50:54Z</time>
      </trkpt>
      <trkpt lat="44.82069" lon="6.73472">
        <ele>2251.6</ele>
        <time>2022-07-18T04:50:55Z</time>
      </trkpt>
      <trkpt lat="44.82067" lon="6.73475">
        <ele>2251.6</ele>
        <time>2022-07-18T04:50:56Z</time>
      </trkpt>
      <trkpt lat="44.82066" lon="6.73477">
        <ele>2252</ele>
        <time>2022-07-18T04:50:57Z</time>
      </trkpt>
      <trkpt lat="44.82065" lon="6.7348">
        <ele>2252</ele>
        <time>2022-07-18T04:50:58Z</time>
      </trkpt>
      <trkpt lat="44.82064" lon="6.73483">
        <ele>2252.4</ele>
        <time>2022-07-18T04:50:59Z</time>
      </trkpt>
      <trkpt lat="44.82063" lon="6.73485">
        <ele>2252.4</ele>
        <time>2022-07-18T04:51:00Z</time>
      </trkpt>
      <trkpt lat="44.82062" lon="6.73488">
        <ele>2252.6</ele>
        <time>2022-07-18T04:51:01Z</time>
      </trkpt>
      <trkpt lat="44.82061" lon="6.73491">
        <ele>2252.6</ele>
        <time>2022-07-18T04:51:02Z</time>
      </trkpt>
      <trkpt lat="44.82059" lon="6.73493">
        <ele>2253</ele>
        <time>2022-07-18T04:51:03Z</time>
      </trkpt>
      <trkpt lat="44.82058" lon="6.73495">
        <ele>2253.2</ele>
        <time>2022-07-18T04:51:04Z</time>
      </trkpt>
      <trkpt lat="44.82056" lon="6.73497">
        <ele>2253.2</ele>
        <time>2022-07-18T04:51:05Z</time>
      </trkpt>
      <trkpt lat="44.82054" lon="6.73498">
        <ele>2253.6</ele>
        <time>2022-07-18T04:51:06Z</time>
      </trkpt>
      <trkpt lat="44.82053" lon="6.73499">
        <ele>2253.6</ele>
        <time>2022-07-18T04:51:07Z</time>
      </trkpt>
      <trkpt lat="44.82051" lon="6.735">
        <ele>2253.8</ele>
        <time>2022-07-18T04:51:08Z</time>
      </trkpt>
      <trkpt lat="44.82049" lon="6.73502">
        <ele>2254</ele>
        <time>2022-07-18T04:51:09Z</time>
      </trkpt>
      <trkpt lat="44.82047" lon="6.73503">
        <ele>2254.4</ele>
        <time>2022-07-18T04:51:10Z</time>
      </trkpt>
      <trkpt lat="44.82045" lon="6.73504">
        <ele>2254.6</ele>
        <time>2022-07-18T04:51:11Z</time>
      </trkpt>
      <trkpt lat="44.82043" lon="6.73505">
        <ele>2255</ele>
        <time>2022-07-18T04:51:12Z</time>
      </trkpt>
      <trkpt lat="44.82041" lon="6.73505">
        <ele>2255.2</ele>
        <time>2022-07-18T04:51:13Z</time>
      </trkpt>
      <trkpt lat="44.82039" lon="6.73506">
        <ele>2255.4</ele>
        <time>2022-07-18T04:51:14Z</time>
      </trkpt>
      <trkpt lat="44.82037" lon="6.73506">
        <ele>2255.6</ele>
        <time>2022-07-18T04:51:15Z</time>
      </trkpt>
      <trkpt lat="44.82035" lon="6.73506">
        <ele>2255.6</ele>
        <time>2022-07-18T04:51:16Z</time>
      </trkpt>
      <trkpt lat="44.82033" lon="6.73506">
        <ele>2256</ele>
        <time>2022-07-18T04:51:17Z</time>
      </trkpt>
      <trkpt lat="44.82031" lon="6.73506">
        <ele>2256</ele>
        <time>2022-07-18T04:51:18Z</time>
      </trkpt>
      <trkpt lat="44.82029" lon="6.73506">
        <ele>2256.2</ele>
        <time>2022-07-18T04:51:19Z</time>
      </trkpt>
      <trkpt lat="44.82027" lon="6.73505">
        <ele>2256.2</ele>
        <time>2022-07-18T04:51:20Z</time>
      </trkpt>
      <trkpt lat="44.82025" lon="6.73505">
        <ele>2256.6</ele>
        <time>2022-07-18T04:51:21Z</time>
      </trkpt>
      <trkpt lat="44.82023" lon="6.73505">
        <ele>2256.6</ele>
        <time>2022-07-18T04:51:22Z</time>
      </trkpt>
      <trkpt lat="44.82021" lon="6.73504">
        <ele>2257</ele>
        <time>2022-07-18T04:51:23Z</time>
      </trkpt>
      <trkpt lat="44.82019" lon="6.73504">
        <ele>2257.2</ele>
        <time>2022-07-18T04:51:24Z</time>
      </trkpt>
      <trkpt lat="44.82017" lon="6.73503">
        <ele>2257.2</ele>
        <time>2022-07-18T04:51:25Z</time>
      </trkpt>
      <trkpt lat="44.82015" lon="6.73503">
        <ele>2257.4</ele>
        <time>2022-07-18T04:51:26Z</time>
      </trkpt>
      <trkpt lat="44.82013" lon="6.73503">
        <ele>2257.4</ele>
        <time>2022-07-18T04:51:27Z</time>
      </trkpt>
      <trkpt lat="44.82011" lon="6.73502">
        <ele>2257.8</ele>
        <time>2022-07-18T04:51:28Z</time>
      </trkpt>
      <trkpt lat="44.82009" lon="6.73501">
        <ele>2257.8</ele>
        <time>2022-07-18T04:51:29Z</time>
      </trkpt>
      <trkpt lat="44.82007" lon="6.73501">
        <ele>2257.8</ele>
        <time>2022-07-18T04:51:30Z</time>
      </trkpt>
      <trkpt lat="44.82005" lon="6.73501">
        <ele>2258.2</ele>
        <time>2022-07-18T04:51:31Z</time>
      </trkpt>
      <trkpt lat="44.82003" lon="6.735">
        <ele>2258.2</ele>
        <time>2022-07-18T04:51:32Z</time>
      </trkpt>
      <trkpt lat="44.82001" lon="6.735">
        <ele>2258.2</ele>
        <time>2022-07-18T04:51:33Z</time>
      </trkpt>
      <trkpt lat="44.81999" lon="6.73499">
        <ele>2258.4</ele>
        <time>2022-07-18T04:51:34Z</time>
      </trkpt>
      <trkpt lat="44.81996" lon="6.73499">
        <ele>2258.4</ele>
        <time>2022-07-18T04:51:35Z</time>
      </trkpt>
      <trkpt lat="44.81994" lon="6.73499">
        <ele>2258.6</ele>
        <time>2022-07-18T04:51:36Z</time>
      </trkpt>
      <trkpt lat="44.81993" lon="6.73499">
        <ele>2258.6</ele>
        <time>2022-07-18T04:51:37Z</time>
      </trkpt>
      <trkpt lat="44.81991" lon="6.73499">
        <ele>2258.6</ele>
        <time>2022-07-18T04:51:38Z</time>
      </trkpt>
      <trkpt lat="44.81989" lon="6.73499">
        <ele>2258.6</ele>
        <time>2022-07-18T04:51:39Z</time>
      </trkpt>
      <trkpt lat="44.81988" lon="6.73499">
        <ele>2258.6</ele>
        <time>2022-07-18T04:51:40Z</time>
      </trkpt>
      <trkpt lat="44.81986" lon="6.73499">
        <ele>2258.8</ele>
        <time>2022-07-18T04:51:41Z</time>
      </trkpt>
      <trkpt lat="44.81984" lon="6.73499">
        <ele>2258.8</ele>
        <time>2022-07-18T04:51:42Z</time>
      </trkpt>
      <trkpt lat="44.81982" lon="6.735">
        <ele>2258.8</ele>
        <time>2022-07-18T04:51:43Z</time>
      </trkpt>
      <trkpt lat="44.81981" lon="6.735">
        <ele>2258.8</ele>
        <time>2022-07-18T04:51:44Z</time>
      </trkpt>
      <trkpt lat="44.8198" lon="6.735">
        <ele>2258.8</ele>
        <time>2022-07-18T04:51:45Z</time>
      </trkpt>
      <trkpt lat="44.81979" lon="6.735">
        <ele>2258.8</ele>
        <time>2022-07-18T04:51:46Z</time>
      </trkpt>
      <trkpt lat="44.81977" lon="6.73499">
        <ele>2258.8</ele>
        <time>2022-07-18T04:51:47Z</time>
      </trkpt>
      <trkpt lat="44.81976" lon="6.73499">
        <ele>2258.8</ele>
        <time>2022-07-18T04:51:48Z</time>
      </trkpt>
      <trkpt lat="44.81975" lon="6.73499">
        <ele>2258.8</ele>
        <time>2022-07-18T04:51:49Z</time>
      </trkpt>
      <trkpt lat="44.81973" lon="6.735">
        <ele>2258.8</ele>
        <time>2022-07-18T04:51:50Z</time>
      </trkpt>
      <trkpt lat="44.81972" lon="6.735">
        <ele>2258.8</ele>
        <time>2022-07-18T04:51:51Z</time>
      </trkpt>
      <trkpt lat="44.81971" lon="6.735">
        <ele>2258.8</ele>
        <time>2022-07-18T04:51:52Z</time>
      </trkpt>
      <trkpt lat="44.81971" lon="6.735">
        <ele>2258.8</ele>
        <time>2022-07-18T04:51:53Z</time>
      </trkpt>
      <trkpt lat="44.81971" lon="6.735">
        <ele>2258.8</ele>
        <time>2022-07-18T04:51:57Z</time>
      </trkpt>
      <trkpt lat="44.81971" lon="6.735">
        <ele>2258.8</ele>
        <time>2022-07-18T04:52:01Z</time>
      </trkpt>
      <trkpt lat="44.81971" lon="6.735">
        <ele>2259</ele>
        <time>2022-07-18T04:52:34Z</time>
      </trkpt>
      <trkpt lat="44.8197" lon="6.73501">
        <ele>2259</ele>
        <time>2022-07-18T04:52:41Z</time>
      </trkpt>
      <trkpt lat="44.81971" lon="6.73501">
        <ele>2259</ele>
        <time>2022-07-18T04:52:42Z</time>
      </trkpt>
      <trkpt lat="44.81971" lon="6.73501">
        <ele>2259</ele>
        <time>2022-07-18T04:52:43Z</time>
      </trkpt>
      <trkpt lat="44.81971" lon="6.73501">
        <ele>2259</ele>
        <time>2022-07-18T04:52:44Z</time>
      </trkpt>
      <trkpt lat="44.81971" lon="6.73501">
        <ele>2259</ele>
        <time>2022-07-18T04:52:51Z</time>
      </trkpt>
      <trkpt lat="44.81971" lon="6.73501">
        <ele>2258.8</ele>
        <time>2022-07-18T04:58:47Z</time>
      </trkpt>
      <trkpt lat="44.8197" lon="6.735">
        <ele>2258.8</ele>
        <time>2022-07-18T04:58:48Z</time>
      </trkpt>
      <trkpt lat="44.8197" lon="6.735">
        <ele>2258.8</ele>
        <time>2022-07-18T04:58:49Z</time>
      </trkpt>
      <trkpt lat="44.8197" lon="6.735">
        <ele>2258.8</ele>
        <time>2022-07-18T04:58:50Z</time>
      </trkpt>
      <trkpt lat="44.81969" lon="6.735">
        <ele>2258.8</ele>
        <time>2022-07-18T04:58:51Z</time>
      </trkpt>
      <trkpt lat="44.81968" lon="6.73499">
        <ele>2258.8</ele>
        <time>2022-07-18T04:58:55Z</time>
      </trkpt>
      <trkpt lat="44.81967" lon="6.73498">
        <ele>2258.8</ele>
        <time>2022-07-18T04:58:56Z</time>
      </trkpt>
      <trkpt lat="44.81965" lon="6.73497">
        <ele>2258.8</ele>
        <time>2022-07-18T04:58:57Z</time>
      </trkpt>
      <trkpt lat="44.81964" lon="6.73495">
        <ele>2258.8</ele>
        <time>2022-07-18T04:58:58Z</time>
      </trkpt>
      <trkpt lat="44.81962" lon="6.73494">
        <ele>2258.8</ele>
        <time>2022-07-18T04:58:59Z</time>
      </trkpt>
      <trkpt lat="44.8196" lon="6.73494">
        <ele>2258.8</ele>
        <time>2022-07-18T04:59:00Z</time>
      </trkpt>
      <trkpt lat="44.81958" lon="6.73494">
        <ele>2258.8</ele>
        <time>2022-07-18T04:59:01Z</time>
      </trkpt>
      <trkpt lat="44.81956" lon="6.73493">
        <ele>2258.6</ele>
        <time>2022-07-18T04:59:02Z</time>
      </trkpt>
      <trkpt lat="44.81954" lon="6.73492">
        <ele>2258.6</ele>
        <time>2022-07-18T04:59:03Z</time>
      </trkpt>
      <trkpt lat="44.81952" lon="6.73492">
        <ele>2258.6</ele>
        <time>2022-07-18T04:59:04Z</time>
      </trkpt>
      <trkpt lat="44.81952" lon="6.73491">
        <ele>2258.6</ele>
        <time>2022-07-18T04:59:05Z</time>
      </trkpt>
      <trkpt lat="44.81952" lon="6.73491">
        <ele>2258.6</ele>
        <time>2022-07-18T04:59:06Z</time>
      </trkpt>
      <trkpt lat="44.81952" lon="6.73491">
        <ele>2258.6</ele>
        <time>2022-07-18T04:59:11Z</time>
      </trkpt>
      <trkpt lat="44.81952" lon="6.73491">
        <ele>2258.6</ele>
        <time>2022-07-18T04:59:15Z</time>
      </trkpt>
      <trkpt lat="44.8195" lon="6.7349">
        <ele>2258.8</ele>
        <time>2022-07-18T04:59:23Z</time>
      </trkpt>
      <trkpt lat="44.81948" lon="6.7349">
        <ele>2258.8</ele>
        <time>2022-07-18T04:59:24Z</time>
      </trkpt>
      <trkpt lat="44.81945" lon="6.7349">
        <ele>2258.8</ele>
        <time>2022-07-18T04:59:25Z</time>
      </trkpt>
      <trkpt lat="44.81943" lon="6.7349">
        <ele>2258.8</ele>
        <time>2022-07-18T04:59:26Z</time>
      </trkpt>
      <trkpt lat="44.81939" lon="6.73489">
        <ele>2258.6</ele>
        <time>2022-07-18T04:59:27Z</time>
      </trkpt>
      <trkpt lat="44.81936" lon="6.73488">
        <ele>2258.6</ele>
        <time>2022-07-18T04:59:28Z</time>
      </trkpt>
      <trkpt lat="44.81932" lon="6.73487">
        <ele>2258.2</ele>
        <time>2022-07-18T04:59:29Z</time>
      </trkpt>
      <trkpt lat="44.81927" lon="6.73486">
        <ele>2258</ele>
        <time>2022-07-18T04:59:30Z</time>
      </trkpt>
      <trkpt lat="44.81923" lon="6.73486">
        <ele>2257.6</ele>
        <time>2022-07-18T04:59:31Z</time>
      </trkpt>
      <trkpt lat="44.81919" lon="6.73485">
        <ele>2257.4</ele>
        <time>2022-07-18T04:59:32Z</time>
      </trkpt>
      <trkpt lat="44.81914" lon="6.73484">
        <ele>2257.2</ele>
        <time>2022-07-18T04:59:33Z</time>
      </trkpt>
      <trkpt lat="44.81909" lon="6.73482">
        <ele>2256.8</ele>
        <time>2022-07-18T04:59:34Z</time>
      </trkpt>
      <trkpt lat="44.81905" lon="6.7348">
        <ele>2256.6</ele>
        <time>2022-07-18T04:59:35Z</time>
      </trkpt>
      <trkpt lat="44.819" lon="6.73478">
        <ele>2256.2</ele>
        <time>2022-07-18T04:59:36Z</time>
      </trkpt>
      <trkpt lat="44.81896" lon="6.73475">
        <ele>2255.6</ele>
        <time>2022-07-18T04:59:37Z</time>
      </trkpt>
      <trkpt lat="44.81892" lon="6.73471">
        <ele>2255.2</ele>
        <time>2022-07-18T04:59:38Z</time>
      </trkpt>
      <trkpt lat="44.8189" lon="6.73466">
        <ele>2254.8</ele>
        <time>2022-07-18T04:59:39Z</time>
      </trkpt>
      <trkpt lat="44.8189" lon="6.73459">
        <ele>2254.4</ele>
        <time>2022-07-18T04:59:40Z</time>
      </trkpt>
      <trkpt lat="44.81891" lon="6.73452">
        <ele>2254</ele>
        <time>2022-07-18T04:59:41Z</time>
      </trkpt>
      <trkpt lat="44.81895" lon="6.73444">
        <ele>2253.2</ele>
        <time>2022-07-18T04:59:42Z</time>
      </trkpt>
      <trkpt lat="44.81899" lon="6.73436">
        <ele>2252.8</ele>
        <time>2022-07-18T04:59:43Z</time>
      </trkpt>
      <trkpt lat="44.81904" lon="6.73427">
        <ele>2252</ele>
        <time>2022-07-18T04:59:44Z</time>
      </trkpt>
      <trkpt lat="44.81909" lon="6.73419">
        <ele>2251.4</ele>
        <time>2022-07-18T04:59:45Z</time>
      </trkpt>
      <trkpt lat="44.81914" lon="6.73409">
        <ele>2250.6</ele>
        <time>2022-07-18T04:59:46Z</time>
      </trkpt>
      <trkpt lat="44.81918" lon="6.73398">
        <ele>2249.8</ele>
        <time>2022-07-18T04:59:47Z</time>
      </trkpt>
      <trkpt lat="44.81921" lon="6.73385">
        <ele>2249</ele>
        <time>2022-07-18T04:59:48Z</time>
      </trkpt>
      <trkpt lat="44.81923" lon="6.73374">
        <ele>2248.2</ele>
        <time>2022-07-18T04:59:49Z</time>
      </trkpt>
      <trkpt lat="44.81923" lon="6.73361">
        <ele>2247.4</ele>
        <time>2022-07-18T04:59:50Z</time>
      </trkpt>
      <trkpt lat="44.81923" lon="6.73348">
        <ele>2246.6</ele>
        <time>2022-07-18T04:59:51Z</time>
      </trkpt>
      <trkpt lat="44.81924" lon="6.73333">
        <ele>2245.8</ele>
        <time>2022-07-18T04:59:52Z</time>
      </trkpt>
      <trkpt lat="44.81925" lon="6.7332">
        <ele>2245</ele>
        <time>2022-07-18T04:59:53Z</time>
      </trkpt>
      <trkpt lat="44.81928" lon="6.73308">
        <ele>2243.4</ele>
        <time>2022-07-18T04:59:55Z</time>
      </trkpt>
      <trkpt lat="44.81931" lon="6.73296">
        <ele>2242.6</ele>
        <time>2022-07-18T04:59:56Z</time>
      </trkpt>
      <trkpt lat="44.81935" lon="6.73285">
        <ele>2242</ele>
        <time>2022-07-18T04:59:57Z</time>
      </trkpt>
      <trkpt lat="44.8194" lon="6.73275">
        <ele>2241.4</ele>
        <time>2022-07-18T04:59:58Z</time>
      </trkpt>
      <trkpt lat="44.81946" lon="6.73262">
        <ele>2240.8</ele>
        <time>2022-07-18T04:59:59Z</time>
      </trkpt>
      <trkpt lat="44.81948" lon="6.73258">
        <ele>2240.2</ele>
        <time>2022-07-18T05:00:00Z</time>
      </trkpt>
      <trkpt lat="44.81952" lon="6.7325">
        <ele>2239.8</ele>
        <time>2022-07-18T05:00:01Z</time>
      </trkpt>
      <trkpt lat="44.81956" lon="6.73242">
        <ele>2239.4</ele>
        <time>2022-07-18T05:00:02Z</time>
      </trkpt>
      <trkpt lat="44.81958" lon="6.73234">
        <ele>2239</ele>
        <time>2022-07-18T05:00:03Z</time>
      </trkpt>
      <trkpt lat="44.81958" lon="6.73222">
        <ele>2238.6</ele>
        <time>2022-07-18T05:00:04Z</time>
      </trkpt>
      <trkpt lat="44.81957" lon="6.73218">
        <ele>2238.4</ele>
        <time>2022-07-18T05:00:05Z</time>
      </trkpt>
      <trkpt lat="44.81953" lon="6.73213">
        <ele>2238</ele>
        <time>2022-07-18T05:00:06Z</time>
      </trkpt>
      <trkpt lat="44.81949" lon="6.73212">
        <ele>2237.6</ele>
        <time>2022-07-18T05:00:07Z</time>
      </trkpt>
      <trkpt lat="44.81944" lon="6.73216">
        <ele>2237.2</ele>
        <time>2022-07-18T05:00:08Z</time>
      </trkpt>
      <trkpt lat="44.8194" lon="6.73223">
        <ele>2236.6</ele>
        <time>2022-07-18T05:00:09Z</time>
      </trkpt>
      <trkpt lat="44.81936" lon="6.73232">
        <ele>2236.2</ele>
        <time>2022-07-18T05:00:10Z</time>
      </trkpt>
      <trkpt lat="44.81932" lon="6.73241">
        <ele>2235.6</ele>
        <time>2022-07-18T05:00:11Z</time>
      </trkpt>
      <trkpt lat="44.81928" lon="6.73251">
        <ele>2235</ele>
        <time>2022-07-18T05:00:12Z</time>
      </trkpt>
      <trkpt lat="44.81924" lon="6.73262">
        <ele>2234.2</ele>
        <time>2022-07-18T05:00:13Z</time>
      </trkpt>
      <trkpt lat="44.81918" lon="6.73272">
        <ele>2233.6</ele>
        <time>2022-07-18T05:00:14Z</time>
      </trkpt>
      <trkpt lat="44.81912" lon="6.73282">
        <ele>2233</ele>
        <time>2022-07-18T05:00:15Z</time>
      </trkpt>
      <trkpt lat="44.81905" lon="6.73292">
        <ele>2232.2</ele>
        <time>2022-07-18T05:00:16Z</time>
      </trkpt>
      <trkpt lat="44.81898" lon="6.73302">
        <ele>2231.4</ele>
        <time>2022-07-18T05:00:17Z</time>
      </trkpt>
      <trkpt lat="44.81891" lon="6.73313">
        <ele>2230.6</ele>
        <time>2022-07-18T05:00:18Z</time>
      </trkpt>
      <trkpt lat="44.81883" lon="6.73324">
        <ele>2229.8</ele>
        <time>2022-07-18T05:00:19Z</time>
      </trkpt>
      <trkpt lat="44.81876" lon="6.73336">
        <ele>2228.6</ele>
        <time>2022-07-18T05:00:20Z</time>
      </trkpt>
      <trkpt lat="44.81867" lon="6.73346">
        <ele>2227.8</ele>
        <time>2022-07-18T05:00:21Z</time>
      </trkpt>
      <trkpt lat="44.81859" lon="6.73356">
        <ele>2226.8</ele>
        <time>2022-07-18T05:00:22Z</time>
      </trkpt>
      <trkpt lat="44.8185" lon="6.73365">
        <ele>2225.8</ele>
        <time>2022-07-18T05:00:23Z</time>
      </trkpt>
      <trkpt lat="44.81841" lon="6.73373">
        <ele>2224.6</ele>
        <time>2022-07-18T05:00:24Z</time>
      </trkpt>
      <trkpt lat="44.81833" lon="6.73381">
        <ele>2223.8</ele>
        <time>2022-07-18T05:00:25Z</time>
      </trkpt>
      <trkpt lat="44.81824" lon="6.73387">
        <ele>2222.8</ele>
        <time>2022-07-18T05:00:26Z</time>
      </trkpt>
      <trkpt lat="44.81815" lon="6.73394">
        <ele>2221.8</ele>
        <time>2022-07-18T05:00:27Z</time>
      </trkpt>
      <trkpt lat="44.81807" lon="6.734">
        <ele>2221</ele>
        <time>2022-07-18T05:00:28Z</time>
      </trkpt>
      <trkpt lat="44.818" lon="6.73408">
        <ele>2220.2</ele>
        <time>2022-07-18T05:00:29Z</time>
      </trkpt>
      <trkpt lat="44.81794" lon="6.73417">
        <ele>2219.4</ele>
        <time>2022-07-18T05:00:30Z</time>
      </trkpt>
      <trkpt lat="44.81789" lon="6.73426">
        <ele>2218.6</ele>
        <time>2022-07-18T05:00:31Z</time>
      </trkpt>
      <trkpt lat="44.81785" lon="6.73435">
        <ele>2218</ele>
        <time>2022-07-18T05:00:32Z</time>
      </trkpt>
      <trkpt lat="44.81781" lon="6.73442">
        <ele>2217.4</ele>
        <time>2022-07-18T05:00:33Z</time>
      </trkpt>
      <trkpt lat="44.81777" lon="6.73445">
        <ele>2217</ele>
        <time>2022-07-18T05:00:34Z</time>
      </trkpt>
      <trkpt lat="44.81773" lon="6.73445">
        <ele>2216.6</ele>
        <time>2022-07-18T05:00:35Z</time>
      </trkpt>
      <trkpt lat="44.8177" lon="6.73443">
        <ele>2216.2</ele>
        <time>2022-07-18T05:00:36Z</time>
      </trkpt>
      <trkpt lat="44.81768" lon="6.73438">
        <ele>2215.6</ele>
        <time>2022-07-18T05:00:37Z</time>
      </trkpt>
      <trkpt lat="44.81769" lon="6.73432">
        <ele>2215</ele>
        <time>2022-07-18T05:00:38Z</time>
      </trkpt>
      <trkpt lat="44.81771" lon="6.73424">
        <ele>2214.6</ele>
        <time>2022-07-18T05:00:39Z</time>
      </trkpt>
      <trkpt lat="44.81775" lon="6.73417">
        <ele>2214.2</ele>
        <time>2022-07-18T05:00:40Z</time>
      </trkpt>
      <trkpt lat="44.81778" lon="6.73409">
        <ele>2213.6</ele>
        <time>2022-07-18T05:00:41Z</time>
      </trkpt>
      <trkpt lat="44.81783" lon="6.73401">
        <ele>2213.2</ele>
        <time>2022-07-18T05:00:42Z</time>
      </trkpt>
      <trkpt lat="44.81787" lon="6.73392">
        <ele>2212.6</ele>
        <time>2022-07-18T05:00:43Z</time>
      </trkpt>
      <trkpt lat="44.81792" lon="6.73384">
        <ele>2212</ele>
        <time>2022-07-18T05:00:44Z</time>
      </trkpt>
      <trkpt lat="44.81797" lon="6.73375">
        <ele>2211.4</ele>
        <time>2022-07-18T05:00:45Z</time>
      </trkpt>
      <trkpt lat="44.81803" lon="6.73365">
        <ele>2211</ele>
        <time>2022-07-18T05:00:46Z</time>
      </trkpt>
      <trkpt lat="44.81809" lon="6.73355">
        <ele>2210.4</ele>
        <time>2022-07-18T05:00:47Z</time>
      </trkpt>
      <trkpt lat="44.81815" lon="6.73344">
        <ele>2209.6</ele>
        <time>2022-07-18T05:00:48Z</time>
      </trkpt>
      <trkpt lat="44.8182" lon="6.73331">
        <ele>2209</ele>
        <time>2022-07-18T05:00:49Z</time>
      </trkpt>
      <trkpt lat="44.81825" lon="6.73318">
        <ele>2208.4</ele>
        <time>2022-07-18T05:00:50Z</time>
      </trkpt>
      <trkpt lat="44.8183" lon="6.73306">
        <ele>2207.6</ele>
        <time>2022-07-18T05:00:51Z</time>
      </trkpt>
      <trkpt lat="44.81834" lon="6.73296">
        <ele>2207</ele>
        <time>2022-07-18T05:00:52Z</time>
      </trkpt>
      <trkpt lat="44.81837" lon="6.73286">
        <ele>2206.6</ele>
        <time>2022-07-18T05:00:53Z</time>
      </trkpt>
      <trkpt lat="44.81838" lon="6.73276">
        <ele>2206.2</ele>
        <time>2022-07-18T05:00:54Z</time>
      </trkpt>
      <trkpt lat="44.81837" lon="6.73266">
        <ele>2205.8</ele>
        <time>2022-07-18T05:00:55Z</time>
      </trkpt>
      <trkpt lat="44.81834" lon="6.73261">
        <ele>2205.4</ele>
        <time>2022-07-18T05:00:56Z</time>
      </trkpt>
      <trkpt lat="44.81829" lon="6.73263">
        <ele>2205</ele>
        <time>2022-07-18T05:00:57Z</time>
      </trkpt>
      <trkpt lat="44.81823" lon="6.73267">
        <ele>2204.6</ele>
        <time>2022-07-18T05:00:58Z</time>
      </trkpt>
      <trkpt lat="44.81817" lon="6.73274">
        <ele>2204</ele>
        <time>2022-07-18T05:00:59Z</time>
      </trkpt>
      <trkpt lat="44.81811" lon="6.73282">
        <ele>2203.4</ele>
        <time>2022-07-18T05:01:00Z</time>
      </trkpt>
      <trkpt lat="44.81806" lon="6.73292">
        <ele>2202.6</ele>
        <time>2022-07-18T05:01:01Z</time>
      </trkpt>
      <trkpt lat="44.818" lon="6.73303">
        <ele>2201.8</ele>
        <time>2022-07-18T05:01:02Z</time>
      </trkpt>
      <trkpt lat="44.81793" lon="6.73313">
        <ele>2201</ele>
        <time>2022-07-18T05:01:03Z</time>
      </trkpt>
      <trkpt lat="44.81786" lon="6.73324">
        <ele>2200</ele>
        <time>2022-07-18T05:01:04Z</time>
      </trkpt>
      <trkpt lat="44.81778" lon="6.73334">
        <ele>2199</ele>
        <time>2022-07-18T05:01:05Z</time>
      </trkpt>
      <trkpt lat="44.8177" lon="6.73345">
        <ele>2198</ele>
        <time>2022-07-18T05:01:06Z</time>
      </trkpt>
      <trkpt lat="44.8176" lon="6.73356">
        <ele>2196.8</ele>
        <time>2022-07-18T05:01:07Z</time>
      </trkpt>
      <trkpt lat="44.81751" lon="6.73367">
        <ele>2195.8</ele>
        <time>2022-07-18T05:01:08Z</time>
      </trkpt>
      <trkpt lat="44.8174" lon="6.7338">
        <ele>2194.4</ele>
        <time>2022-07-18T05:01:09Z</time>
      </trkpt>
      <trkpt lat="44.8173" lon="6.73393">
        <ele>2193.2</ele>
        <time>2022-07-18T05:01:10Z</time>
      </trkpt>
      <trkpt lat="44.81721" lon="6.73407">
        <ele>2192</ele>
        <time>2022-07-18T05:01:11Z</time>
      </trkpt>
      <trkpt lat="44.81711" lon="6.73419">
        <ele>2190.8</ele>
        <time>2022-07-18T05:01:12Z</time>
      </trkpt>
      <trkpt lat="44.81702" lon="6.73432">
        <ele>2189.6</ele>
        <time>2022-07-18T05:01:13Z</time>
      </trkpt>
      <trkpt lat="44.81694" lon="6.73443">
        <ele>2188.4</ele>
        <time>2022-07-18T05:01:14Z</time>
      </trkpt>
      <trkpt lat="44.81686" lon="6.73452">
        <ele>2187.4</ele>
        <time>2022-07-18T05:01:15Z</time>
      </trkpt>
      <trkpt lat="44.81677" lon="6.73458">
        <ele>2186.4</ele>
        <time>2022-07-18T05:01:16Z</time>
      </trkpt>
      <trkpt lat="44.81666" lon="6.73459">
        <ele>2185.2</ele>
        <time>2022-07-18T05:01:17Z</time>
      </trkpt>
      <trkpt lat="44.81656" lon="6.73456">
        <ele>2184.4</ele>
        <time>2022-07-18T05:01:18Z</time>
      </trkpt>
      <trkpt lat="44.81647" lon="6.73452">
        <ele>2183.6</ele>
        <time>2022-07-18T05:01:19Z</time>
      </trkpt>
      <trkpt lat="44.81639" lon="6.73449">
        <ele>2183</ele>
        <time>2022-07-18T05:01:20Z</time>
      </trkpt>
      <trkpt lat="44.81631" lon="6.73449">
        <ele>2182.2</ele>
        <time>2022-07-18T05:01:21Z</time>
      </trkpt>
      <trkpt lat="44.81623" lon="6.73451">
        <ele>2181.6</ele>
        <time>2022-07-18T05:01:22Z</time>
      </trkpt>
      <trkpt lat="44.81615" lon="6.73456">
        <ele>2181</ele>
        <time>2022-07-18T05:01:23Z</time>
      </trkpt>
      <trkpt lat="44.81608" lon="6.73463">
        <ele>2180</ele>
        <time>2022-07-18T05:01:24Z</time>
      </trkpt>
      <trkpt lat="44.816" lon="6.73471">
        <ele>2179.2</ele>
        <time>2022-07-18T05:01:25Z</time>
      </trkpt>
      <trkpt lat="44.81593" lon="6.7348">
        <ele>2178.4</ele>
        <time>2022-07-18T05:01:26Z</time>
      </trkpt>
      <trkpt lat="44.81584" lon="6.73487">
        <ele>2177.4</ele>
        <time>2022-07-18T05:01:27Z</time>
      </trkpt>
      <trkpt lat="44.81576" lon="6.73493">
        <ele>2176.6</ele>
        <time>2022-07-18T05:01:28Z</time>
      </trkpt>
      <trkpt lat="44.81569" lon="6.73499">
        <ele>2176</ele>
        <time>2022-07-18T05:01:29Z</time>
      </trkpt>
      <trkpt lat="44.81564" lon="6.73503">
        <ele>2175.4</ele>
        <time>2022-07-18T05:01:30Z</time>
      </trkpt>
      <trkpt lat="44.81559" lon="6.73508">
        <ele>2174.8</ele>
        <time>2022-07-18T05:01:31Z</time>
      </trkpt>
      <trkpt lat="44.81557" lon="6.73516">
        <ele>2174.2</ele>
        <time>2022-07-18T05:01:32Z</time>
      </trkpt>
      <trkpt lat="44.81555" lon="6.73524">
        <ele>2173.4</ele>
        <time>2022-07-18T05:01:33Z</time>
      </trkpt>
      <trkpt lat="44.81555" lon="6.73533">
        <ele>2172.6</ele>
        <time>2022-07-18T05:01:34Z</time>
      </trkpt>
      <trkpt lat="44.81555" lon="6.73542">
        <ele>2172</ele>
        <time>2022-07-18T05:01:35Z</time>
      </trkpt>
      <trkpt lat="44.81557" lon="6.73553">
        <ele>2171.2</ele>
        <time>2022-07-18T05:01:36Z</time>
      </trkpt>
      <trkpt lat="44.8156" lon="6.73566">
        <ele>2170.6</ele>
        <time>2022-07-18T05:01:37Z</time>
      </trkpt>
      <trkpt lat="44.81562" lon="6.73577">
        <ele>2169.8</ele>
        <time>2022-07-18T05:01:38Z</time>
      </trkpt>
      <trkpt lat="44.81564" lon="6.73589">
        <ele>2169</ele>
        <time>2022-07-18T05:01:39Z</time>
      </trkpt>
      <trkpt lat="44.81565" lon="6.736">
        <ele>2168.4</ele>
        <time>2022-07-18T05:01:40Z</time>
      </trkpt>
      <trkpt lat="44.81564" lon="6.73611">
        <ele>2167.6</ele>
        <time>2022-07-18T05:01:41Z</time>
      </trkpt>
      <trkpt lat="44.8156" lon="6.7362">
        <ele>2166.8</ele>
        <time>2022-07-18T05:01:42Z</time>
      </trkpt>
      <trkpt lat="44.81554" lon="6.73627">
        <ele>2166.2</ele>
        <time>2022-07-18T05:01:43Z</time>
      </trkpt>
      <trkpt lat="44.81545" lon="6.73631">
        <ele>2165.4</ele>
        <time>2022-07-18T05:01:44Z</time>
      </trkpt>
      <trkpt lat="44.81535" lon="6.73631">
        <ele>2164.6</ele>
        <time>2022-07-18T05:01:45Z</time>
      </trkpt>
      <trkpt lat="44.81524" lon="6.73629">
        <ele>2163.6</ele>
        <time>2022-07-18T05:01:46Z</time>
      </trkpt>
      <trkpt lat="44.81513" lon="6.73627">
        <ele>2162.6</ele>
        <time>2022-07-18T05:01:47Z</time>
      </trkpt>
      <trkpt lat="44.81501" lon="6.73624">
        <ele>2161.6</ele>
        <time>2022-07-18T05:01:48Z</time>
      </trkpt>
      <trkpt lat="44.81489" lon="6.73623">
        <ele>2160.6</ele>
        <time>2022-07-18T05:01:49Z</time>
      </trkpt>
      <trkpt lat="44.81477" lon="6.73625">
        <ele>2159.6</ele>
        <time>2022-07-18T05:01:50Z</time>
      </trkpt>
      <trkpt lat="44.81466" lon="6.73626">
        <ele>2158.6</ele>
        <time>2022-07-18T05:01:51Z</time>
      </trkpt>
      <trkpt lat="44.81455" lon="6.73625">
        <ele>2157.8</ele>
        <time>2022-07-18T05:01:52Z</time>
      </trkpt>
      <trkpt lat="44.81445" lon="6.7362">
        <ele>2156.8</ele>
        <time>2022-07-18T05:01:53Z</time>
      </trkpt>
      <trkpt lat="44.81434" lon="6.73617">
        <ele>2155.8</ele>
        <time>2022-07-18T05:01:54Z</time>
      </trkpt>
      <trkpt lat="44.81424" lon="6.73613">
        <ele>2154.8</ele>
        <time>2022-07-18T05:01:55Z</time>
      </trkpt>
      <trkpt lat="44.81415" lon="6.73611">
        <ele>2153.8</ele>
        <time>2022-07-18T05:01:56Z</time>
      </trkpt>
      <trkpt lat="44.81405" lon="6.7361">
        <ele>2152.8</ele>
        <time>2022-07-18T05:01:57Z</time>
      </trkpt>
      <trkpt lat="44.81395" lon="6.73609">
        <ele>2151.8</ele>
        <time>2022-07-18T05:01:58Z</time>
      </trkpt>
      <trkpt lat="44.81387" lon="6.73605">
        <ele>2150.8</ele>
        <time>2022-07-18T05:01:59Z</time>
      </trkpt>
      <trkpt lat="44.8138" lon="6.73597">
        <ele>2150</ele>
        <time>2022-07-18T05:02:00Z</time>
      </trkpt>
      <trkpt lat="44.81375" lon="6.73586">
        <ele>2149</ele>
        <time>2022-07-18T05:02:01Z</time>
      </trkpt>
      <trkpt lat="44.81371" lon="6.73574">
        <ele>2148.2</ele>
        <time>2022-07-18T05:02:02Z</time>
      </trkpt>
      <trkpt lat="44.81367" lon="6.73559">
        <ele>2147.4</ele>
        <time>2022-07-18T05:02:03Z</time>
      </trkpt>
      <trkpt lat="44.81363" lon="6.73544">
        <ele>2146.4</ele>
        <time>2022-07-18T05:02:04Z</time>
      </trkpt>
      <trkpt lat="44.81359" lon="6.73529">
        <ele>2145.4</ele>
        <time>2022-07-18T05:02:05Z</time>
      </trkpt>
      <trkpt lat="44.81355" lon="6.73514">
        <ele>2144.4</ele>
        <time>2022-07-18T05:02:06Z</time>
      </trkpt>
      <trkpt lat="44.8135" lon="6.735">
        <ele>2143.4</ele>
        <time>2022-07-18T05:02:07Z</time>
      </trkpt>
      <trkpt lat="44.81345" lon="6.73487">
        <ele>2142.4</ele>
        <time>2022-07-18T05:02:08Z</time>
      </trkpt>
      <trkpt lat="44.81341" lon="6.73476">
        <ele>2141.2</ele>
        <time>2022-07-18T05:02:09Z</time>
      </trkpt>
      <trkpt lat="44.81336" lon="6.73466">
        <ele>2140.2</ele>
        <time>2022-07-18T05:02:10Z</time>
      </trkpt>
      <trkpt lat="44.81331" lon="6.73457">
        <ele>2139.2</ele>
        <time>2022-07-18T05:02:11Z</time>
      </trkpt>
      <trkpt lat="44.81326" lon="6.73449">
        <ele>2138.2</ele>
        <time>2022-07-18T05:02:12Z</time>
      </trkpt>
      <trkpt lat="44.81321" lon="6.73443">
        <ele>2137.4</ele>
        <time>2022-07-18T05:02:13Z</time>
      </trkpt>
      <trkpt lat="44.81315" lon="6.73439">
        <ele>2136.6</ele>
        <time>2022-07-18T05:02:14Z</time>
      </trkpt>
      <trkpt lat="44.81308" lon="6.73438">
        <ele>2135.6</ele>
        <time>2022-07-18T05:02:15Z</time>
      </trkpt>
      <trkpt lat="44.813" lon="6.7344">
        <ele>2134.8</ele>
        <time>2022-07-18T05:02:16Z</time>
      </trkpt>
      <trkpt lat="44.81292" lon="6.73444">
        <ele>2134</ele>
        <time>2022-07-18T05:02:17Z</time>
      </trkpt>
      <trkpt lat="44.81284" lon="6.7345">
        <ele>2133</ele>
        <time>2022-07-18T05:02:18Z</time>
      </trkpt>
      <trkpt lat="44.81275" lon="6.73457">
        <ele>2132</ele>
        <time>2022-07-18T05:02:19Z</time>
      </trkpt>
      <trkpt lat="44.81266" lon="6.73465">
        <ele>2131</ele>
        <time>2022-07-18T05:02:20Z</time>
      </trkpt>
      <trkpt lat="44.81256" lon="6.73471">
        <ele>2130.2</ele>
        <time>2022-07-18T05:02:21Z</time>
      </trkpt>
      <trkpt lat="44.81246" lon="6.73475">
        <ele>2129</ele>
        <time>2022-07-18T05:02:22Z</time>
      </trkpt>
      <trkpt lat="44.81236" lon="6.7348">
        <ele>2127</ele>
        <time>2022-07-18T05:02:23Z</time>
      </trkpt>
      <trkpt lat="44.81225" lon="6.73485">
        <ele>2126</ele>
        <time>2022-07-18T05:02:24Z</time>
      </trkpt>
      <trkpt lat="44.81215" lon="6.73489">
        <ele>2125.2</ele>
        <time>2022-07-18T05:02:25Z</time>
      </trkpt>
      <trkpt lat="44.81205" lon="6.73494">
        <ele>2124</ele>
        <time>2022-07-18T05:02:26Z</time>
      </trkpt>
      <trkpt lat="44.81195" lon="6.735">
        <ele>2123.2</ele>
        <time>2022-07-18T05:02:27Z</time>
      </trkpt>
      <trkpt lat="44.81187" lon="6.73507">
        <ele>2122.4</ele>
        <time>2022-07-18T05:02:28Z</time>
      </trkpt>
      <trkpt lat="44.8118" lon="6.73513">
        <ele>2121.6</ele>
        <time>2022-07-18T05:02:29Z</time>
      </trkpt>
      <trkpt lat="44.81173" lon="6.73519">
        <ele>2121</ele>
        <time>2022-07-18T05:02:30Z</time>
      </trkpt>
      <trkpt lat="44.81167" lon="6.73524">
        <ele>2120.2</ele>
        <time>2022-07-18T05:02:31Z</time>
      </trkpt>
      <trkpt lat="44.81161" lon="6.73527">
        <ele>2119.6</ele>
        <time>2022-07-18T05:02:32Z</time>
      </trkpt>
      <trkpt lat="44.81155" lon="6.7353">
        <ele>2119</ele>
        <time>2022-07-18T05:02:33Z</time>
      </trkpt>
      <trkpt lat="44.8115" lon="6.73534">
        <ele>2118.4</ele>
        <time>2022-07-18T05:02:34Z</time>
      </trkpt>
      <trkpt lat="44.81145" lon="6.7354">
        <ele>2117.6</ele>
        <time>2022-07-18T05:02:35Z</time>
      </trkpt>
      <trkpt lat="44.81143" lon="6.73548">
        <ele>2117</ele>
        <time>2022-07-18T05:02:36Z</time>
      </trkpt>
      <trkpt lat="44.81141" lon="6.73558">
        <ele>2116.2</ele>
        <time>2022-07-18T05:02:37Z</time>
      </trkpt>
      <trkpt lat="44.81141" lon="6.73568">
        <ele>2115.4</ele>
        <time>2022-07-18T05:02:38Z</time>
      </trkpt>
      <trkpt lat="44.81141" lon="6.73579">
        <ele>2114.4</ele>
        <time>2022-07-18T05:02:39Z</time>
      </trkpt>
      <trkpt lat="44.81143" lon="6.7359">
        <ele>2113.4</ele>
        <time>2022-07-18T05:02:40Z</time>
      </trkpt>
      <trkpt lat="44.81145" lon="6.73601">
        <ele>2112.4</ele>
        <time>2022-07-18T05:02:41Z</time>
      </trkpt>
      <trkpt lat="44.8115" lon="6.73612">
        <ele>2111.2</ele>
        <time>2022-07-18T05:02:42Z</time>
      </trkpt>
      <trkpt lat="44.81154" lon="6.73622">
        <ele>2110.2</ele>
        <time>2022-07-18T05:02:43Z</time>
      </trkpt>
      <trkpt lat="44.81157" lon="6.73633">
        <ele>2109.4</ele>
        <time>2022-07-18T05:02:44Z</time>
      </trkpt>
      <trkpt lat="44.8116" lon="6.73644">
        <ele>2108.4</ele>
        <time>2022-07-18T05:02:45Z</time>
      </trkpt>
      <trkpt lat="44.81159" lon="6.73655">
        <ele>2107.6</ele>
        <time>2022-07-18T05:02:46Z</time>
      </trkpt>
      <trkpt lat="44.81155" lon="6.73665">
        <ele>2106.8</ele>
        <time>2022-07-18T05:02:47Z</time>
      </trkpt>
      <trkpt lat="44.81149" lon="6.73671">
        <ele>2106.2</ele>
        <time>2022-07-18T05:02:48Z</time>
      </trkpt>
      <trkpt lat="44.81141" lon="6.73676">
        <ele>2105.4</ele>
        <time>2022-07-18T05:02:49Z</time>
      </trkpt>
      <trkpt lat="44.81136" lon="6.7368">
        <ele>2104.8</ele>
        <time>2022-07-18T05:02:50Z</time>
      </trkpt>
      <trkpt lat="44.81131" lon="6.73686">
        <ele>2104</ele>
        <time>2022-07-18T05:02:51Z</time>
      </trkpt>
      <trkpt lat="44.81128" lon="6.73692">
        <ele>2103.4</ele>
        <time>2022-07-18T05:02:52Z</time>
      </trkpt>
      <trkpt lat="44.81125" lon="6.73701">
        <ele>2102.6</ele>
        <time>2022-07-18T05:02:53Z</time>
      </trkpt>
      <trkpt lat="44.81123" lon="6.7371">
        <ele>2101.6</ele>
        <time>2022-07-18T05:02:54Z</time>
      </trkpt>
      <trkpt lat="44.81121" lon="6.73721">
        <ele>2100.8</ele>
        <time>2022-07-18T05:02:55Z</time>
      </trkpt>
      <trkpt lat="44.81118" lon="6.73733">
        <ele>2099.6</ele>
        <time>2022-07-18T05:02:56Z</time>
      </trkpt>
      <trkpt lat="44.81115" lon="6.73745">
        <ele>2098.8</ele>
        <time>2022-07-18T05:02:57Z</time>
      </trkpt>
      <trkpt lat="44.8111" lon="6.73757">
        <ele>2097.8</ele>
        <time>2022-07-18T05:02:58Z</time>
      </trkpt>
      <trkpt lat="44.81104" lon="6.73766">
        <ele>2097</ele>
        <time>2022-07-18T05:02:59Z</time>
      </trkpt>
      <trkpt lat="44.81096" lon="6.73774">
        <ele>2096.4</ele>
        <time>2022-07-18T05:03:00Z</time>
      </trkpt>
      <trkpt lat="44.81087" lon="6.73781">
        <ele>2096</ele>
        <time>2022-07-18T05:03:01Z</time>
      </trkpt>
      <trkpt lat="44.81079" lon="6.73788">
        <ele>2095.4</ele>
        <time>2022-07-18T05:03:02Z</time>
      </trkpt>
      <trkpt lat="44.8107" lon="6.73794">
        <ele>2094.8</ele>
        <time>2022-07-18T05:03:03Z</time>
      </trkpt>
      <trkpt lat="44.81061" lon="6.738">
        <ele>2094.6</ele>
        <time>2022-07-18T05:03:04Z</time>
      </trkpt>
      <trkpt lat="44.81051" lon="6.73806">
        <ele>2094.2</ele>
        <time>2022-07-18T05:03:05Z</time>
      </trkpt>
      <trkpt lat="44.81041" lon="6.7381">
        <ele>2093.8</ele>
        <time>2022-07-18T05:03:06Z</time>
      </trkpt>
      <trkpt lat="44.81032" lon="6.73815">
        <ele>2093.6</ele>
        <time>2022-07-18T05:03:07Z</time>
      </trkpt>
      <trkpt lat="44.81023" lon="6.73819">
        <ele>2093.4</ele>
        <time>2022-07-18T05:03:08Z</time>
      </trkpt>
      <trkpt lat="44.81014" lon="6.73823">
        <ele>2093.2</ele>
        <time>2022-07-18T05:03:09Z</time>
      </trkpt>
      <trkpt lat="44.81004" lon="6.73827">
        <ele>2093.2</ele>
        <time>2022-07-18T05:03:10Z</time>
      </trkpt>
      <trkpt lat="44.80995" lon="6.7383">
        <ele>2093.2</ele>
        <time>2022-07-18T05:03:11Z</time>
      </trkpt>
      <trkpt lat="44.80987" lon="6.73832">
        <ele>2093.2</ele>
        <time>2022-07-18T05:03:12Z</time>
      </trkpt>
      <trkpt lat="44.80979" lon="6.73834">
        <ele>2093.2</ele>
        <time>2022-07-18T05:03:13Z</time>
      </trkpt>
      <trkpt lat="44.80972" lon="6.73834">
        <ele>2093.2</ele>
        <time>2022-07-18T05:03:14Z</time>
      </trkpt>
      <trkpt lat="44.80964" lon="6.73834">
        <ele>2093.6</ele>
        <time>2022-07-18T05:03:15Z</time>
      </trkpt>
      <trkpt lat="44.80958" lon="6.73834">
        <ele>2093.8</ele>
        <time>2022-07-18T05:03:16Z</time>
      </trkpt>
      <trkpt lat="44.80951" lon="6.73832">
        <ele>2094</ele>
        <time>2022-07-18T05:03:17Z</time>
      </trkpt>
      <trkpt lat="44.80945" lon="6.7383">
        <ele>2094.2</ele>
        <time>2022-07-18T05:03:18Z</time>
      </trkpt>
      <trkpt lat="44.8094" lon="6.73828">
        <ele>2094.6</ele>
        <time>2022-07-18T05:03:19Z</time>
      </trkpt>
      <trkpt lat="44.80936" lon="6.73826">
        <ele>2094.8</ele>
        <time>2022-07-18T05:03:20Z</time>
      </trkpt>
      <trkpt lat="44.80931" lon="6.73823">
        <ele>2095</ele>
        <time>2022-07-18T05:03:21Z</time>
      </trkpt>
      <trkpt lat="44.80927" lon="6.73821">
        <ele>2095.4</ele>
        <time>2022-07-18T05:03:22Z</time>
      </trkpt>
      <trkpt lat="44.80924" lon="6.73818">
        <ele>2095.6</ele>
        <time>2022-07-18T05:03:23Z</time>
      </trkpt>
      <trkpt lat="44.8092" lon="6.73815">
        <ele>2096</ele>
        <time>2022-07-18T05:03:24Z</time>
      </trkpt>
      <trkpt lat="44.80917" lon="6.73812">
        <ele>2096.2</ele>
        <time>2022-07-18T05:03:25Z</time>
      </trkpt>
      <trkpt lat="44.80914" lon="6.73809">
        <ele>2096.4</ele>
        <time>2022-07-18T05:03:26Z</time>
      </trkpt>
      <trkpt lat="44.80912" lon="6.73806">
        <ele>2096.8</ele>
        <time>2022-07-18T05:03:27Z</time>
      </trkpt>
      <trkpt lat="44.80909" lon="6.73803">
        <ele>2096.8</ele>
        <time>2022-07-18T05:03:28Z</time>
      </trkpt>
      <trkpt lat="44.80907" lon="6.738">
        <ele>2097.2</ele>
        <time>2022-07-18T05:03:29Z</time>
      </trkpt>
      <trkpt lat="44.80905" lon="6.73796">
        <ele>2097.4</ele>
        <time>2022-07-18T05:03:30Z</time>
      </trkpt>
      <trkpt lat="44.80904" lon="6.73793">
        <ele>2097.6</ele>
        <time>2022-07-18T05:03:31Z</time>
      </trkpt>
      <trkpt lat="44.80902" lon="6.73789">
        <ele>2097.8</ele>
        <time>2022-07-18T05:03:32Z</time>
      </trkpt>
      <trkpt lat="44.80901" lon="6.73786">
        <ele>2098.2</ele>
        <time>2022-07-18T05:03:33Z</time>
      </trkpt>
      <trkpt lat="44.80899" lon="6.73782">
        <ele>2098.4</ele>
        <time>2022-07-18T05:03:34Z</time>
      </trkpt>
      <trkpt lat="44.80897" lon="6.73779">
        <ele>2098.6</ele>
        <time>2022-07-18T05:03:35Z</time>
      </trkpt>
      <trkpt lat="44.80895" lon="6.73776">
        <ele>2099</ele>
        <time>2022-07-18T05:03:36Z</time>
      </trkpt>
      <trkpt lat="44.80894" lon="6.73773">
        <ele>2099.2</ele>
        <time>2022-07-18T05:03:37Z</time>
      </trkpt>
      <trkpt lat="44.80893" lon="6.7377">
        <ele>2099.4</ele>
        <time>2022-07-18T05:03:38Z</time>
      </trkpt>
      <trkpt lat="44.80892" lon="6.73767">
        <ele>2099.4</ele>
        <time>2022-07-18T05:03:39Z</time>
      </trkpt>
      <trkpt lat="44.80891" lon="6.73763">
        <ele>2100</ele>
        <time>2022-07-18T05:03:40Z</time>
      </trkpt>
      <trkpt lat="44.80889" lon="6.7376">
        <ele>2100.2</ele>
        <time>2022-07-18T05:03:41Z</time>
      </trkpt>
      <trkpt lat="44.80888" lon="6.73757">
        <ele>2100.6</ele>
        <time>2022-07-18T05:03:42Z</time>
      </trkpt>
      <trkpt lat="44.80887" lon="6.73754">
        <ele>2100.6</ele>
        <time>2022-07-18T05:03:43Z</time>
      </trkpt>
      <trkpt lat="44.80885" lon="6.73751">
        <ele>2101</ele>
        <time>2022-07-18T05:03:44Z</time>
      </trkpt>
      <trkpt lat="44.80884" lon="6.73748">
        <ele>2101</ele>
        <time>2022-07-18T05:03:45Z</time>
      </trkpt>
      <trkpt lat="44.80883" lon="6.73744">
        <ele>2101.4</ele>
        <time>2022-07-18T05:03:46Z</time>
      </trkpt>
      <trkpt lat="44.80882" lon="6.73741">
        <ele>2101.6</ele>
        <time>2022-07-18T05:03:47Z</time>
      </trkpt>
      <trkpt lat="44.8088" lon="6.73738">
        <ele>2101.8</ele>
        <time>2022-07-18T05:03:48Z</time>
      </trkpt>
      <trkpt lat="44.80878" lon="6.73735">
        <ele>2102</ele>
        <time>2022-07-18T05:03:49Z</time>
      </trkpt>
      <trkpt lat="44.80877" lon="6.73731">
        <ele>2102.2</ele>
        <time>2022-07-18T05:03:50Z</time>
      </trkpt>
      <trkpt lat="44.80875" lon="6.73729">
        <ele>2102.6</ele>
        <time>2022-07-18T05:03:51Z</time>
      </trkpt>
      <trkpt lat="44.80874" lon="6.73726">
        <ele>2102.8</ele>
        <time>2022-07-18T05:03:52Z</time>
      </trkpt>
      <trkpt lat="44.80872" lon="6.73723">
        <ele>2103</ele>
        <time>2022-07-18T05:03:53Z</time>
      </trkpt>
      <trkpt lat="44.80871" lon="6.7372">
        <ele>2103.4</ele>
        <time>2022-07-18T05:03:54Z</time>
      </trkpt>
      <trkpt lat="44.80869" lon="6.73717">
        <ele>2103.6</ele>
        <time>2022-07-18T05:03:55Z</time>
      </trkpt>
      <trkpt lat="44.80868" lon="6.73715">
        <ele>2103.8</ele>
        <time>2022-07-18T05:03:56Z</time>
      </trkpt>
      <trkpt lat="44.80865" lon="6.73713">
        <ele>2104.2</ele>
        <time>2022-07-18T05:03:57Z</time>
      </trkpt>
      <trkpt lat="44.80864" lon="6.73712">
        <ele>2104.2</ele>
        <time>2022-07-18T05:03:58Z</time>
      </trkpt>
      <trkpt lat="44.80861" lon="6.7371">
        <ele>2104.6</ele>
        <time>2022-07-18T05:03:59Z</time>
      </trkpt>
      <trkpt lat="44.80859" lon="6.7371">
        <ele>2104.8</ele>
        <time>2022-07-18T05:04:00Z</time>
      </trkpt>
      <trkpt lat="44.80857" lon="6.73709">
        <ele>2105</ele>
        <time>2022-07-18T05:04:01Z</time>
      </trkpt>
      <trkpt lat="44.80854" lon="6.73709">
        <ele>2105</ele>
        <time>2022-07-18T05:04:02Z</time>
      </trkpt>
      <trkpt lat="44.80852" lon="6.73709">
        <ele>2105.4</ele>
        <time>2022-07-18T05:04:03Z</time>
      </trkpt>
      <trkpt lat="44.8085" lon="6.73708">
        <ele>2105.6</ele>
        <time>2022-07-18T05:04:04Z</time>
      </trkpt>
      <trkpt lat="44.80848" lon="6.73708">
        <ele>2105.6</ele>
        <time>2022-07-18T05:04:05Z</time>
      </trkpt>
      <trkpt lat="44.80846" lon="6.73709">
        <ele>2106</ele>
        <time>2022-07-18T05:04:06Z</time>
      </trkpt>
      <trkpt lat="44.80844" lon="6.73709">
        <ele>2106</ele>
        <time>2022-07-18T05:04:07Z</time>
      </trkpt>
      <trkpt lat="44.80842" lon="6.7371">
        <ele>2106.4</ele>
        <time>2022-07-18T05:04:08Z</time>
      </trkpt>
      <trkpt lat="44.8084" lon="6.7371">
        <ele>2106.6</ele>
        <time>2022-07-18T05:04:09Z</time>
      </trkpt>
      <trkpt lat="44.80838" lon="6.7371">
        <ele>2106.8</ele>
        <time>2022-07-18T05:04:10Z</time>
      </trkpt>
      <trkpt lat="44.80836" lon="6.7371">
        <ele>2107.2</ele>
        <time>2022-07-18T05:04:11Z</time>
      </trkpt>
      <trkpt lat="44.80834" lon="6.73711">
        <ele>2107.4</ele>
        <time>2022-07-18T05:04:12Z</time>
      </trkpt>
      <trkpt lat="44.80832" lon="6.73712">
        <ele>2107.6</ele>
        <time>2022-07-18T05:04:13Z</time>
      </trkpt>
      <trkpt lat="44.8083" lon="6.73712">
        <ele>2108</ele>
        <time>2022-07-18T05:04:14Z</time>
      </trkpt>
      <trkpt lat="44.80828" lon="6.73713">
        <ele>2108.2</ele>
        <time>2022-07-18T05:04:15Z</time>
      </trkpt>
      <trkpt lat="44.80826" lon="6.73713">
        <ele>2108.4</ele>
        <time>2022-07-18T05:04:16Z</time>
      </trkpt>
      <trkpt lat="44.80824" lon="6.73713">
        <ele>2108.6</ele>
        <time>2022-07-18T05:04:17Z</time>
      </trkpt>
      <trkpt lat="44.80822" lon="6.73714">
        <ele>2108.6</ele>
        <time>2022-07-18T05:04:18Z</time>
      </trkpt>
      <trkpt lat="44.8082" lon="6.73714">
        <ele>2109</ele>
        <time>2022-07-18T05:04:19Z</time>
      </trkpt>
      <trkpt lat="44.80818" lon="6.73714">
        <ele>2109.2</ele>
        <time>2022-07-18T05:04:20Z</time>
      </trkpt>
      <trkpt lat="44.80816" lon="6.73714">
        <ele>2109.4</ele>
        <time>2022-07-18T05:04:21Z</time>
      </trkpt>
      <trkpt lat="44.80815" lon="6.73715">
        <ele>2109.6</ele>
        <time>2022-07-18T05:04:22Z</time>
      </trkpt>
      <trkpt lat="44.80813" lon="6.73715">
        <ele>2110</ele>
        <time>2022-07-18T05:04:23Z</time>
      </trkpt>
      <trkpt lat="44.80812" lon="6.73715">
        <ele>2110.2</ele>
        <time>2022-07-18T05:04:24Z</time>
      </trkpt>
      <trkpt lat="44.8081" lon="6.73715">
        <ele>2110.4</ele>
        <time>2022-07-18T05:04:25Z</time>
      </trkpt>
      <trkpt lat="44.80808" lon="6.73715">
        <ele>2110.6</ele>
        <time>2022-07-18T05:04:26Z</time>
      </trkpt>
      <trkpt lat="44.80806" lon="6.73714">
        <ele>2110.6</ele>
        <time>2022-07-18T05:04:27Z</time>
      </trkpt>
      <trkpt lat="44.80804" lon="6.73713">
        <ele>2111</ele>
        <time>2022-07-18T05:04:28Z</time>
      </trkpt>
      <trkpt lat="44.80802" lon="6.73713">
        <ele>2111</ele>
        <time>2022-07-18T05:04:29Z</time>
      </trkpt>
      <trkpt lat="44.808" lon="6.73712">
        <ele>2111.4</ele>
        <time>2022-07-18T05:04:30Z</time>
      </trkpt>
      <trkpt lat="44.80799" lon="6.73711">
        <ele>2111.4</ele>
        <time>2022-07-18T05:04:31Z</time>
      </trkpt>
      <trkpt lat="44.80797" lon="6.7371">
        <ele>2111.8</ele>
        <time>2022-07-18T05:04:32Z</time>
      </trkpt>
      <trkpt lat="44.80795" lon="6.73709">
        <ele>2111.8</ele>
        <time>2022-07-18T05:04:33Z</time>
      </trkpt>
      <trkpt lat="44.80794" lon="6.73707">
        <ele>2112.2</ele>
        <time>2022-07-18T05:04:34Z</time>
      </trkpt>
      <trkpt lat="44.80792" lon="6.73706">
        <ele>2112.2</ele>
        <time>2022-07-18T05:04:35Z</time>
      </trkpt>
      <trkpt lat="44.8079" lon="6.73704">
        <ele>2112.6</ele>
        <time>2022-07-18T05:04:36Z</time>
      </trkpt>
      <trkpt lat="44.80789" lon="6.73702">
        <ele>2112.8</ele>
        <time>2022-07-18T05:04:37Z</time>
      </trkpt>
      <trkpt lat="44.80788" lon="6.737">
        <ele>2112.8</ele>
        <time>2022-07-18T05:04:38Z</time>
      </trkpt>
      <trkpt lat="44.80786" lon="6.73699">
        <ele>2113.4</ele>
        <time>2022-07-18T05:04:39Z</time>
      </trkpt>
      <trkpt lat="44.80785" lon="6.73697">
        <ele>2113.6</ele>
        <time>2022-07-18T05:04:40Z</time>
      </trkpt>
      <trkpt lat="44.80783" lon="6.73695">
        <ele>2113.8</ele>
        <time>2022-07-18T05:04:41Z</time>
      </trkpt>
      <trkpt lat="44.80782" lon="6.73693">
        <ele>2113.8</ele>
        <time>2022-07-18T05:04:42Z</time>
      </trkpt>
      <trkpt lat="44.80781" lon="6.73691">
        <ele>2114</ele>
        <time>2022-07-18T05:04:43Z</time>
      </trkpt>
      <trkpt lat="44.80779" lon="6.73689">
        <ele>2114.4</ele>
        <time>2022-07-18T05:04:44Z</time>
      </trkpt>
      <trkpt lat="44.80778" lon="6.73688">
        <ele>2114.6</ele>
        <time>2022-07-18T05:04:45Z</time>
      </trkpt>
      <trkpt lat="44.80777" lon="6.73685">
        <ele>2114.6</ele>
        <time>2022-07-18T05:04:46Z</time>
      </trkpt>
      <trkpt lat="44.80776" lon="6.73683">
        <ele>2114.8</ele>
        <time>2022-07-18T05:04:47Z</time>
      </trkpt>
      <trkpt lat="44.80775" lon="6.73681">
        <ele>2114.8</ele>
        <time>2022-07-18T05:04:48Z</time>
      </trkpt>
      <trkpt lat="44.80774" lon="6.73679">
        <ele>2115.2</ele>
        <time>2022-07-18T05:04:49Z</time>
      </trkpt>
      <trkpt lat="44.80772" lon="6.73677">
        <ele>2115.2</ele>
        <time>2022-07-18T05:04:50Z</time>
      </trkpt>
      <trkpt lat="44.80771" lon="6.73674">
        <ele>2115.4</ele>
        <time>2022-07-18T05:04:51Z</time>
      </trkpt>
      <trkpt lat="44.8077" lon="6.73672">
        <ele>2115.6</ele>
        <time>2022-07-18T05:04:52Z</time>
      </trkpt>
      <trkpt lat="44.80769" lon="6.73669">
        <ele>2115.6</ele>
        <time>2022-07-18T05:04:53Z</time>
      </trkpt>
      <trkpt lat="44.80768" lon="6.73667">
        <ele>2115.8</ele>
        <time>2022-07-18T05:04:54Z</time>
      </trkpt>
      <trkpt lat="44.80767" lon="6.73665">
        <ele>2115.8</ele>
        <time>2022-07-18T05:04:55Z</time>
      </trkpt>
      <trkpt lat="44.80766" lon="6.73662">
        <ele>2116.2</ele>
        <time>2022-07-18T05:04:56Z</time>
      </trkpt>
      <trkpt lat="44.80765" lon="6.7366">
        <ele>2116.2</ele>
        <time>2022-07-18T05:04:57Z</time>
      </trkpt>
      <trkpt lat="44.80764" lon="6.73657">
        <ele>2116.4</ele>
        <time>2022-07-18T05:04:58Z</time>
      </trkpt>
      <trkpt lat="44.80764" lon="6.73655">
        <ele>2116.4</ele>
        <time>2022-07-18T05:04:59Z</time>
      </trkpt>
      <trkpt lat="44.80763" lon="6.73652">
        <ele>2116.6</ele>
        <time>2022-07-18T05:05:00Z</time>
      </trkpt>
      <trkpt lat="44.80763" lon="6.73649">
        <ele>2116.6</ele>
        <time>2022-07-18T05:05:01Z</time>
      </trkpt>
      <trkpt lat="44.80763" lon="6.73647">
        <ele>2116.8</ele>
        <time>2022-07-18T05:05:02Z</time>
      </trkpt>
      <trkpt lat="44.80763" lon="6.73644">
        <ele>2116.8</ele>
        <time>2022-07-18T05:05:03Z</time>
      </trkpt>
      <trkpt lat="44.80762" lon="6.73641">
        <ele>2117.2</ele>
        <time>2022-07-18T05:05:04Z</time>
      </trkpt>
      <trkpt lat="44.80762" lon="6.73638">
        <ele>2117.2</ele>
        <time>2022-07-18T05:05:05Z</time>
      </trkpt>
      <trkpt lat="44.80762" lon="6.73635">
        <ele>2117.4</ele>
        <time>2022-07-18T05:05:06Z</time>
      </trkpt>
      <trkpt lat="44.80761" lon="6.73632">
        <ele>2117.4</ele>
        <time>2022-07-18T05:05:07Z</time>
      </trkpt>
      <trkpt lat="44.80761" lon="6.73629">
        <ele>2117.6</ele>
        <time>2022-07-18T05:05:08Z</time>
      </trkpt>
      <trkpt lat="44.80761" lon="6.73626">
        <ele>2117.6</ele>
        <time>2022-07-18T05:05:09Z</time>
      </trkpt>
      <trkpt lat="44.80761" lon="6.73623">
        <ele>2118</ele>
        <time>2022-07-18T05:05:10Z</time>
      </trkpt>
      <trkpt lat="44.80761" lon="6.73621">
        <ele>2118</ele>
        <time>2022-07-18T05:05:11Z</time>
      </trkpt>
      <trkpt lat="44.8076" lon="6.73618">
        <ele>2118.4</ele>
        <time>2022-07-18T05:05:12Z</time>
      </trkpt>
      <trkpt lat="44.80759" lon="6.73616">
        <ele>2118.4</ele>
        <time>2022-07-18T05:05:13Z</time>
      </trkpt>
      <trkpt lat="44.80759" lon="6.73614">
        <ele>2118.4</ele>
        <time>2022-07-18T05:05:14Z</time>
      </trkpt>
      <trkpt lat="44.80758" lon="6.73611">
        <ele>2118.6</ele>
        <time>2022-07-18T05:05:15Z</time>
      </trkpt>
      <trkpt lat="44.80757" lon="6.73611">
        <ele>2118.6</ele>
        <time>2022-07-18T05:05:16Z</time>
      </trkpt>
      <trkpt lat="44.80757" lon="6.73611">
        <ele>2118.8</ele>
        <time>2022-07-18T05:05:17Z</time>
      </trkpt>
      <trkpt lat="44.80757" lon="6.7361">
        <ele>2118.8</ele>
        <time>2022-07-18T05:05:18Z</time>
      </trkpt>
      <trkpt lat="44.80757" lon="6.7361">
        <ele>2118.8</ele>
        <time>2022-07-18T05:05:19Z</time>
      </trkpt>
      <trkpt lat="44.80756" lon="6.7361">
        <ele>2118.8</ele>
        <time>2022-07-18T05:05:20Z</time>
      </trkpt>
      <trkpt lat="44.80756" lon="6.73609">
        <ele>2118.8</ele>
        <time>2022-07-18T05:05:21Z</time>
      </trkpt>
      <trkpt lat="44.80756" lon="6.73609">
        <ele>2119</ele>
        <time>2022-07-18T05:05:22Z</time>
      </trkpt>
      <trkpt lat="44.80756" lon="6.73609">
        <ele>2119</ele>
        <time>2022-07-18T05:05:23Z</time>
      </trkpt>
      <trkpt lat="44.80756" lon="6.73608">
        <ele>2119</ele>
        <time>2022-07-18T05:05:24Z</time>
      </trkpt>
      <trkpt lat="44.80755" lon="6.73608">
        <ele>2119</ele>
        <time>2022-07-18T05:05:25Z</time>
      </trkpt>
      <trkpt lat="44.80755" lon="6.73608">
        <ele>2119</ele>
        <time>2022-07-18T05:05:26Z</time>
      </trkpt>
      <trkpt lat="44.80755" lon="6.73607">
        <ele>2119</ele>
        <time>2022-07-18T05:05:27Z</time>
      </trkpt>
      <trkpt lat="44.80755" lon="6.73607">
        <ele>2119</ele>
        <time>2022-07-18T05:05:28Z</time>
      </trkpt>
      <trkpt lat="44.80755" lon="6.73607">
        <ele>2119.2</ele>
        <time>2022-07-18T05:05:36Z</time>
      </trkpt>
      <trkpt lat="44.80754" lon="6.73606">
        <ele>2119.2</ele>
        <time>2022-07-18T05:05:37Z</time>
      </trkpt>
      <trkpt lat="44.80754" lon="6.73606">
        <ele>2119.2</ele>
        <time>2022-07-18T05:05:38Z</time>
      </trkpt>
      <trkpt lat="44.80754" lon="6.73606">
        <ele>2119.2</ele>
        <time>2022-07-18T05:05:39Z</time>
      </trkpt>
      <trkpt lat="44.80754" lon="6.73605">
        <ele>2119.4</ele>
        <time>2022-07-18T05:05:41Z</time>
      </trkpt>
      <trkpt lat="44.80753" lon="6.73605">
        <ele>2119.4</ele>
        <time>2022-07-18T05:05:42Z</time>
      </trkpt>
      <trkpt lat="44.80753" lon="6.73605">
        <ele>2119.2</ele>
        <time>2022-07-18T05:08:19Z</time>
      </trkpt>
      <trkpt lat="44.80753" lon="6.73604">
        <ele>2119.2</ele>
        <time>2022-07-18T05:08:20Z</time>
      </trkpt>
      <trkpt lat="44.80753" lon="6.73604">
        <ele>2119.2</ele>
        <time>2022-07-18T05:08:21Z</time>
      </trkpt>
      <trkpt lat="44.80753" lon="6.73604">
        <ele>2119.4</ele>
        <time>2022-07-18T05:08:22Z</time>
      </trkpt>
      <trkpt lat="44.80752" lon="6.73603">
        <ele>2119.4</ele>
        <time>2022-07-18T05:08:23Z</time>
      </trkpt>
      <trkpt lat="44.80752" lon="6.73603">
        <ele>2119.4</ele>
        <time>2022-07-18T05:08:24Z</time>
      </trkpt>
      <trkpt lat="44.80752" lon="6.73603">
        <ele>2119.4</ele>
        <time>2022-07-18T05:08:26Z</time>
      </trkpt>
      <trkpt lat="44.80752" lon="6.73602">
        <ele>2119.4</ele>
        <time>2022-07-18T05:08:27Z</time>
      </trkpt>
      <trkpt lat="44.80752" lon="6.73602">
        <ele>2119.4</ele>
        <time>2022-07-18T05:08:28Z</time>
      </trkpt>
      <trkpt lat="44.80751" lon="6.73602">
        <ele>2119.4</ele>
        <time>2022-07-18T05:08:29Z</time>
      </trkpt>
      <trkpt lat="44.80751" lon="6.73601">
        <ele>2119.4</ele>
        <time>2022-07-18T05:08:30Z</time>
      </trkpt>
      <trkpt lat="44.80751" lon="6.73601">
        <ele>2119.4</ele>
        <time>2022-07-18T05:08:32Z</time>
      </trkpt>
      <trkpt lat="44.80751" lon="6.73601">
        <ele>2119.4</ele>
        <time>2022-07-18T05:08:33Z</time>
      </trkpt>
      <trkpt lat="44.8075" lon="6.736">
        <ele>2119.4</ele>
        <time>2022-07-18T05:08:34Z</time>
      </trkpt>
      <trkpt lat="44.8075" lon="6.736">
        <ele>2119.2</ele>
        <time>2022-07-18T05:08:35Z</time>
      </trkpt>
      <trkpt lat="44.8075" lon="6.736">
        <ele>2119.2</ele>
        <time>2022-07-18T05:08:36Z</time>
      </trkpt>
      <trkpt lat="44.80748" lon="6.73601">
        <ele>2119</ele>
        <time>2022-07-18T05:08:37Z</time>
      </trkpt>
      <trkpt lat="44.80746" lon="6.73602">
        <ele>2119</ele>
        <time>2022-07-18T05:08:38Z</time>
      </trkpt>
      <trkpt lat="44.80743" lon="6.73603">
        <ele>2119</ele>
        <time>2022-07-18T05:08:39Z</time>
      </trkpt>
      <trkpt lat="44.8074" lon="6.73604">
        <ele>2118.6</ele>
        <time>2022-07-18T05:08:40Z</time>
      </trkpt>
      <trkpt lat="44.80736" lon="6.73604">
        <ele>2118.2</ele>
        <time>2022-07-18T05:08:41Z</time>
      </trkpt>
      <trkpt lat="44.80731" lon="6.73604">
        <ele>2118</ele>
        <time>2022-07-18T05:08:42Z</time>
      </trkpt>
      <trkpt lat="44.80727" lon="6.73604">
        <ele>2117.8</ele>
        <time>2022-07-18T05:08:43Z</time>
      </trkpt>
      <trkpt lat="44.80721" lon="6.73605">
        <ele>2117.4</ele>
        <time>2022-07-18T05:08:44Z</time>
      </trkpt>
      <trkpt lat="44.80715" lon="6.73607">
        <ele>2117</ele>
        <time>2022-07-18T05:08:45Z</time>
      </trkpt>
      <trkpt lat="44.80709" lon="6.73609">
        <ele>2116.6</ele>
        <time>2022-07-18T05:08:46Z</time>
      </trkpt>
      <trkpt lat="44.80701" lon="6.73611">
        <ele>2116.2</ele>
        <time>2022-07-18T05:08:47Z</time>
      </trkpt>
      <trkpt lat="44.80694" lon="6.73614">
        <ele>2115.8</ele>
        <time>2022-07-18T05:08:48Z</time>
      </trkpt>
      <trkpt lat="44.80686" lon="6.73617">
        <ele>2115.2</ele>
        <time>2022-07-18T05:08:49Z</time>
      </trkpt>
      <trkpt lat="44.80677" lon="6.73621">
        <ele>2114.6</ele>
        <time>2022-07-18T05:08:50Z</time>
      </trkpt>
      <trkpt lat="44.80667" lon="6.73624">
        <ele>2114</ele>
        <time>2022-07-18T05:08:51Z</time>
      </trkpt>
      <trkpt lat="44.80656" lon="6.73629">
        <ele>2113.2</ele>
        <time>2022-07-18T05:08:52Z</time>
      </trkpt>
      <trkpt lat="44.80645" lon="6.73633">
        <ele>2112.4</ele>
        <time>2022-07-18T05:08:53Z</time>
      </trkpt>
      <trkpt lat="44.80634" lon="6.73637">
        <ele>2111.6</ele>
        <time>2022-07-18T05:08:54Z</time>
      </trkpt>
      <trkpt lat="44.80623" lon="6.73642">
        <ele>2110.6</ele>
        <time>2022-07-18T05:08:55Z</time>
      </trkpt>
      <trkpt lat="44.80612" lon="6.73646">
        <ele>2109.6</ele>
        <time>2022-07-18T05:08:56Z</time>
      </trkpt>
      <trkpt lat="44.80602" lon="6.73649">
        <ele>2108.6</ele>
        <time>2022-07-18T05:08:57Z</time>
      </trkpt>
      <trkpt lat="44.80591" lon="6.73653">
        <ele>2107.6</ele>
        <time>2022-07-18T05:08:58Z</time>
      </trkpt>
      <trkpt lat="44.8058" lon="6.73657">
        <ele>2106.8</ele>
        <time>2022-07-18T05:08:59Z</time>
      </trkpt>
      <trkpt lat="44.80569" lon="6.7366">
        <ele>2105.8</ele>
        <time>2022-07-18T05:09:00Z</time>
      </trkpt>
      <trkpt lat="44.80559" lon="6.73661">
        <ele>2105</ele>
        <time>2022-07-18T05:09:01Z</time>
      </trkpt>
      <trkpt lat="44.80548" lon="6.73661">
        <ele>2103.8</ele>
        <time>2022-07-18T05:09:02Z</time>
      </trkpt>
      <trkpt lat="44.80537" lon="6.7366">
        <ele>2103</ele>
        <time>2022-07-18T05:09:03Z</time>
      </trkpt>
      <trkpt lat="44.80527" lon="6.73659">
        <ele>2102.2</ele>
        <time>2022-07-18T05:09:04Z</time>
      </trkpt>
      <trkpt lat="44.80516" lon="6.73659">
        <ele>2101.4</ele>
        <time>2022-07-18T05:09:05Z</time>
      </trkpt>
      <trkpt lat="44.80505" lon="6.73659">
        <ele>2100.6</ele>
        <time>2022-07-18T05:09:06Z</time>
      </trkpt>
      <trkpt lat="44.80495" lon="6.73661">
        <ele>2099.6</ele>
        <time>2022-07-18T05:09:07Z</time>
      </trkpt>
      <trkpt lat="44.80484" lon="6.73664">
        <ele>2098.6</ele>
        <time>2022-07-18T05:09:08Z</time>
      </trkpt>
      <trkpt lat="44.80472" lon="6.73669">
        <ele>2097.8</ele>
        <time>2022-07-18T05:09:09Z</time>
      </trkpt>
      <trkpt lat="44.80461" lon="6.73674">
        <ele>2096.6</ele>
        <time>2022-07-18T05:09:10Z</time>
      </trkpt>
      <trkpt lat="44.80449" lon="6.73681">
        <ele>2095.6</ele>
        <time>2022-07-18T05:09:11Z</time>
      </trkpt>
      <trkpt lat="44.80438" lon="6.73688">
        <ele>2094.6</ele>
        <time>2022-07-18T05:09:12Z</time>
      </trkpt>
      <trkpt lat="44.80427" lon="6.73696">
        <ele>2093.6</ele>
        <time>2022-07-18T05:09:13Z</time>
      </trkpt>
      <trkpt lat="44.80416" lon="6.73704">
        <ele>2092.6</ele>
        <time>2022-07-18T05:09:14Z</time>
      </trkpt>
      <trkpt lat="44.80406" lon="6.73711">
        <ele>2091.6</ele>
        <time>2022-07-18T05:09:15Z</time>
      </trkpt>
      <trkpt lat="44.80396" lon="6.73718">
        <ele>2090.6</ele>
        <time>2022-07-18T05:09:16Z</time>
      </trkpt>
      <trkpt lat="44.80387" lon="6.73725">
        <ele>2089.6</ele>
        <time>2022-07-18T05:09:17Z</time>
      </trkpt>
      <trkpt lat="44.80379" lon="6.73732">
        <ele>2088.8</ele>
        <time>2022-07-18T05:09:18Z</time>
      </trkpt>
      <trkpt lat="44.80371" lon="6.73738">
        <ele>2087.8</ele>
        <time>2022-07-18T05:09:19Z</time>
      </trkpt>
      <trkpt lat="44.80364" lon="6.73743">
        <ele>2087.2</ele>
        <time>2022-07-18T05:09:20Z</time>
      </trkpt>
      <trkpt lat="44.80358" lon="6.73747">
        <ele>2086.6</ele>
        <time>2022-07-18T05:09:21Z</time>
      </trkpt>
      <trkpt lat="44.80354" lon="6.73748">
        <ele>2086.2</ele>
        <time>2022-07-18T05:09:22Z</time>
      </trkpt>
      <trkpt lat="44.80351" lon="6.73746">
        <ele>2085.8</ele>
        <time>2022-07-18T05:09:23Z</time>
      </trkpt>
      <trkpt lat="44.8035" lon="6.73742">
        <ele>2085.2</ele>
        <time>2022-07-18T05:09:24Z</time>
      </trkpt>
      <trkpt lat="44.80351" lon="6.73736">
        <ele>2084.6</ele>
        <time>2022-07-18T05:09:25Z</time>
      </trkpt>
      <trkpt lat="44.80356" lon="6.73731">
        <ele>2084.2</ele>
        <time>2022-07-18T05:09:26Z</time>
      </trkpt>
      <trkpt lat="44.80362" lon="6.73726">
        <ele>2083.6</ele>
        <time>2022-07-18T05:09:27Z</time>
      </trkpt>
      <trkpt lat="44.80368" lon="6.73722">
        <ele>2083.2</ele>
        <time>2022-07-18T05:09:28Z</time>
      </trkpt>
      <trkpt lat="44.80375" lon="6.73716">
        <ele>2082.6</ele>
        <time>2022-07-18T05:09:29Z</time>
      </trkpt>
      <trkpt lat="44.80382" lon="6.7371">
        <ele>2082.2</ele>
        <time>2022-07-18T05:09:30Z</time>
      </trkpt>
      <trkpt lat="44.80389" lon="6.73703">
        <ele>2081.4</ele>
        <time>2022-07-18T05:09:31Z</time>
      </trkpt>
      <trkpt lat="44.80396" lon="6.73696">
        <ele>2080.6</ele>
        <time>2022-07-18T05:09:32Z</time>
      </trkpt>
      <trkpt lat="44.80403" lon="6.73686">
        <ele>2079.8</ele>
        <time>2022-07-18T05:09:33Z</time>
      </trkpt>
      <trkpt lat="44.80409" lon="6.73674">
        <ele>2079</ele>
        <time>2022-07-18T05:09:34Z</time>
      </trkpt>
      <trkpt lat="44.80415" lon="6.73663">
        <ele>2078</ele>
        <time>2022-07-18T05:09:35Z</time>
      </trkpt>
      <trkpt lat="44.80422" lon="6.73653">
        <ele>2077.2</ele>
        <time>2022-07-18T05:09:36Z</time>
      </trkpt>
      <trkpt lat="44.80429" lon="6.73645">
        <ele>2076.2</ele>
        <time>2022-07-18T05:09:37Z</time>
      </trkpt>
      <trkpt lat="44.80439" lon="6.73639">
        <ele>2075.4</ele>
        <time>2022-07-18T05:09:38Z</time>
      </trkpt>
      <trkpt lat="44.80448" lon="6.73634">
        <ele>2074.4</ele>
        <time>2022-07-18T05:09:39Z</time>
      </trkpt>
      <trkpt lat="44.80458" lon="6.73627">
        <ele>2073.4</ele>
        <time>2022-07-18T05:09:40Z</time>
      </trkpt>
      <trkpt lat="44.80467" lon="6.73619">
        <ele>2072.4</ele>
        <time>2022-07-18T05:09:41Z</time>
      </trkpt>
      <trkpt lat="44.80477" lon="6.73611">
        <ele>2071.4</ele>
        <time>2022-07-18T05:09:42Z</time>
      </trkpt>
      <trkpt lat="44.80487" lon="6.73602">
        <ele>2070.2</ele>
        <time>2022-07-18T05:09:43Z</time>
      </trkpt>
      <trkpt lat="44.80496" lon="6.73591">
        <ele>2069.2</ele>
        <time>2022-07-18T05:09:44Z</time>
      </trkpt>
      <trkpt lat="44.80506" lon="6.7358">
        <ele>2068</ele>
        <time>2022-07-18T05:09:45Z</time>
      </trkpt>
      <trkpt lat="44.80516" lon="6.7357">
        <ele>2066.8</ele>
        <time>2022-07-18T05:09:46Z</time>
      </trkpt>
      <trkpt lat="44.80525" lon="6.7356">
        <ele>2065.8</ele>
        <time>2022-07-18T05:09:47Z</time>
      </trkpt>
      <trkpt lat="44.80534" lon="6.7355">
        <ele>2064.6</ele>
        <time>2022-07-18T05:09:48Z</time>
      </trkpt>
      <trkpt lat="44.80542" lon="6.73541">
        <ele>2063.4</ele>
        <time>2022-07-18T05:09:49Z</time>
      </trkpt>
      <trkpt lat="44.80549" lon="6.73533">
        <ele>2062.6</ele>
        <time>2022-07-18T05:09:50Z</time>
      </trkpt>
      <trkpt lat="44.80556" lon="6.73526">
        <ele>2061.6</ele>
        <time>2022-07-18T05:09:51Z</time>
      </trkpt>
      <trkpt lat="44.80562" lon="6.73519">
        <ele>2060.8</ele>
        <time>2022-07-18T05:09:52Z</time>
      </trkpt>
      <trkpt lat="44.80566" lon="6.73509">
        <ele>2060</ele>
        <time>2022-07-18T05:09:53Z</time>
      </trkpt>
      <trkpt lat="44.80568" lon="6.735">
        <ele>2059.2</ele>
        <time>2022-07-18T05:09:54Z</time>
      </trkpt>
      <trkpt lat="44.8057" lon="6.7349">
        <ele>2058.4</ele>
        <time>2022-07-18T05:09:55Z</time>
      </trkpt>
      <trkpt lat="44.8057" lon="6.73481">
        <ele>2057.8</ele>
        <time>2022-07-18T05:09:56Z</time>
      </trkpt>
      <trkpt lat="44.80566" lon="6.73471">
        <ele>2056.8</ele>
        <time>2022-07-18T05:09:57Z</time>
      </trkpt>
      <trkpt lat="44.80561" lon="6.73462">
        <ele>2056</ele>
        <time>2022-07-18T05:09:58Z</time>
      </trkpt>
      <trkpt lat="44.80556" lon="6.73454">
        <ele>2055.2</ele>
        <time>2022-07-18T05:09:59Z</time>
      </trkpt>
      <trkpt lat="44.80548" lon="6.73448">
        <ele>2054.4</ele>
        <time>2022-07-18T05:10:00Z</time>
      </trkpt>
      <trkpt lat="44.80538" lon="6.73442">
        <ele>2053.4</ele>
        <time>2022-07-18T05:10:01Z</time>
      </trkpt>
      <trkpt lat="44.80527" lon="6.73436">
        <ele>2052.6</ele>
        <time>2022-07-18T05:10:02Z</time>
      </trkpt>
      <trkpt lat="44.80514" lon="6.73431">
        <ele>2051.6</ele>
        <time>2022-07-18T05:10:03Z</time>
      </trkpt>
      <trkpt lat="44.80501" lon="6.73427">
        <ele>2050.4</ele>
        <time>2022-07-18T05:10:04Z</time>
      </trkpt>
      <trkpt lat="44.80486" lon="6.73426">
        <ele>2049.2</ele>
        <time>2022-07-18T05:10:05Z</time>
      </trkpt>
      <trkpt lat="44.80473" lon="6.73425">
        <ele>2048.2</ele>
        <time>2022-07-18T05:10:06Z</time>
      </trkpt>
      <trkpt lat="44.8046" lon="6.73426">
        <ele>2047</ele>
        <time>2022-07-18T05:10:07Z</time>
      </trkpt>
      <trkpt lat="44.80449" lon="6.73428">
        <ele>2045.8</ele>
        <time>2022-07-18T05:10:08Z</time>
      </trkpt>
      <trkpt lat="44.80438" lon="6.73433">
        <ele>2044.8</ele>
        <time>2022-07-18T05:10:09Z</time>
      </trkpt>
      <trkpt lat="44.80427" lon="6.73436">
        <ele>2043.6</ele>
        <time>2022-07-18T05:10:10Z</time>
      </trkpt>
      <trkpt lat="44.80416" lon="6.73438">
        <ele>2042.6</ele>
        <time>2022-07-18T05:10:11Z</time>
      </trkpt>
      <trkpt lat="44.80406" lon="6.73438">
        <ele>2041.8</ele>
        <time>2022-07-18T05:10:12Z</time>
      </trkpt>
      <trkpt lat="44.80397" lon="6.73435">
        <ele>2040.6</ele>
        <time>2022-07-18T05:10:13Z</time>
      </trkpt>
      <trkpt lat="44.80386" lon="6.73431">
        <ele>2039.6</ele>
        <time>2022-07-18T05:10:14Z</time>
      </trkpt>
      <trkpt lat="44.80375" lon="6.73425">
        <ele>2038.6</ele>
        <time>2022-07-18T05:10:15Z</time>
      </trkpt>
      <trkpt lat="44.80365" lon="6.73419">
        <ele>2037.6</ele>
        <time>2022-07-18T05:10:16Z</time>
      </trkpt>
      <trkpt lat="44.80354" lon="6.73413">
        <ele>2036.4</ele>
        <time>2022-07-18T05:10:17Z</time>
      </trkpt>
      <trkpt lat="44.80343" lon="6.73406">
        <ele>2035.4</ele>
        <time>2022-07-18T05:10:18Z</time>
      </trkpt>
      <trkpt lat="44.80332" lon="6.734">
        <ele>2034.2</ele>
        <time>2022-07-18T05:10:19Z</time>
      </trkpt>
      <trkpt lat="44.80321" lon="6.73393">
        <ele>2033.2</ele>
        <time>2022-07-18T05:10:20Z</time>
      </trkpt>
      <trkpt lat="44.8031" lon="6.73385">
        <ele>2032.2</ele>
        <time>2022-07-18T05:10:21Z</time>
      </trkpt>
      <trkpt lat="44.803" lon="6.73376">
        <ele>2031</ele>
        <time>2022-07-18T05:10:22Z</time>
      </trkpt>
      <trkpt lat="44.8029" lon="6.73368">
        <ele>2030</ele>
        <time>2022-07-18T05:10:23Z</time>
      </trkpt>
      <trkpt lat="44.8028" lon="6.7336">
        <ele>2028.8</ele>
        <time>2022-07-18T05:10:24Z</time>
      </trkpt>
      <trkpt lat="44.8027" lon="6.73354">
        <ele>2027.8</ele>
        <time>2022-07-18T05:10:25Z</time>
      </trkpt>
      <trkpt lat="44.8026" lon="6.73347">
        <ele>2026.8</ele>
        <time>2022-07-18T05:10:26Z</time>
      </trkpt>
      <trkpt lat="44.8025" lon="6.73338">
        <ele>2025.6</ele>
        <time>2022-07-18T05:10:27Z</time>
      </trkpt>
      <trkpt lat="44.8024" lon="6.73327">
        <ele>2024.4</ele>
        <time>2022-07-18T05:10:28Z</time>
      </trkpt>
      <trkpt lat="44.8023" lon="6.73315">
        <ele>2023.2</ele>
        <time>2022-07-18T05:10:29Z</time>
      </trkpt>
      <trkpt lat="44.80221" lon="6.73301">
        <ele>2021.8</ele>
        <time>2022-07-18T05:10:30Z</time>
      </trkpt>
      <trkpt lat="44.80212" lon="6.73287">
        <ele>2020.4</ele>
        <time>2022-07-18T05:10:31Z</time>
      </trkpt>
      <trkpt lat="44.80204" lon="6.73273">
        <ele>2019</ele>
        <time>2022-07-18T05:10:32Z</time>
      </trkpt>
      <trkpt lat="44.80196" lon="6.73258">
        <ele>2018</ele>
        <time>2022-07-18T05:10:33Z</time>
      </trkpt>
      <trkpt lat="44.80188" lon="6.73246">
        <ele>2016.8</ele>
        <time>2022-07-18T05:10:34Z</time>
      </trkpt>
      <trkpt lat="44.80181" lon="6.73234">
        <ele>2015.6</ele>
        <time>2022-07-18T05:10:35Z</time>
      </trkpt>
      <trkpt lat="44.80174" lon="6.73222">
        <ele>2014.4</ele>
        <time>2022-07-18T05:10:36Z</time>
      </trkpt>
      <trkpt lat="44.80166" lon="6.73211">
        <ele>2013.4</ele>
        <time>2022-07-18T05:10:37Z</time>
      </trkpt>
      <trkpt lat="44.80156" lon="6.73202">
        <ele>2012.2</ele>
        <time>2022-07-18T05:10:38Z</time>
      </trkpt>
      <trkpt lat="44.80147" lon="6.73194">
        <ele>2011.2</ele>
        <time>2022-07-18T05:10:39Z</time>
      </trkpt>
      <trkpt lat="44.80139" lon="6.73187">
        <ele>2010</ele>
        <time>2022-07-18T05:10:40Z</time>
      </trkpt>
      <trkpt lat="44.8013" lon="6.73179">
        <ele>2009</ele>
        <time>2022-07-18T05:10:41Z</time>
      </trkpt>
      <trkpt lat="44.80121" lon="6.7317">
        <ele>2007.8</ele>
        <time>2022-07-18T05:10:42Z</time>
      </trkpt>
      <trkpt lat="44.80116" lon="6.73157">
        <ele>2006.8</ele>
        <time>2022-07-18T05:10:43Z</time>
      </trkpt>
      <trkpt lat="44.80111" lon="6.73145">
        <ele>2005.8</ele>
        <time>2022-07-18T05:10:44Z</time>
      </trkpt>
      <trkpt lat="44.80108" lon="6.73134">
        <ele>2004.8</ele>
        <time>2022-07-18T05:10:45Z</time>
      </trkpt>
      <trkpt lat="44.80105" lon="6.73126">
        <ele>2004</ele>
        <time>2022-07-18T05:10:46Z</time>
      </trkpt>
      <trkpt lat="44.80102" lon="6.73118">
        <ele>2003.4</ele>
        <time>2022-07-18T05:10:47Z</time>
      </trkpt>
      <trkpt lat="44.80098" lon="6.73114">
        <ele>2002.8</ele>
        <time>2022-07-18T05:10:48Z</time>
      </trkpt>
      <trkpt lat="44.80094" lon="6.73112">
        <ele>2002.2</ele>
        <time>2022-07-18T05:10:49Z</time>
      </trkpt>
      <trkpt lat="44.80089" lon="6.73113">
        <ele>2001.6</ele>
        <time>2022-07-18T05:10:50Z</time>
      </trkpt>
      <trkpt lat="44.80085" lon="6.73119">
        <ele>2000.8</ele>
        <time>2022-07-18T05:10:51Z</time>
      </trkpt>
      <trkpt lat="44.80082" lon="6.73126">
        <ele>2000.2</ele>
        <time>2022-07-18T05:10:52Z</time>
      </trkpt>
      <trkpt lat="44.80081" lon="6.73134">
        <ele>1999.6</ele>
        <time>2022-07-18T05:10:53Z</time>
      </trkpt>
      <trkpt lat="44.80082" lon="6.73142">
        <ele>1999</ele>
        <time>2022-07-18T05:10:54Z</time>
      </trkpt>
      <trkpt lat="44.80086" lon="6.7315">
        <ele>1998.6</ele>
        <time>2022-07-18T05:10:55Z</time>
      </trkpt>
      <trkpt lat="44.8009" lon="6.73159">
        <ele>1998.2</ele>
        <time>2022-07-18T05:10:56Z</time>
      </trkpt>
      <trkpt lat="44.80095" lon="6.73169">
        <ele>1997.6</ele>
        <time>2022-07-18T05:10:57Z</time>
      </trkpt>
      <trkpt lat="44.80099" lon="6.7318">
        <ele>1997.2</ele>
        <time>2022-07-18T05:10:58Z</time>
      </trkpt>
      <trkpt lat="44.80103" lon="6.73191">
        <ele>1996.4</ele>
        <time>2022-07-18T05:10:59Z</time>
      </trkpt>
      <trkpt lat="44.80106" lon="6.73203">
        <ele>1995.8</ele>
        <time>2022-07-18T05:11:00Z</time>
      </trkpt>
      <trkpt lat="44.8011" lon="6.73217">
        <ele>1995</ele>
        <time>2022-07-18T05:11:01Z</time>
      </trkpt>
      <trkpt lat="44.80116" lon="6.73231">
        <ele>1994.2</ele>
        <time>2022-07-18T05:11:02Z</time>
      </trkpt>
      <trkpt lat="44.80123" lon="6.73246">
        <ele>1993.2</ele>
        <time>2022-07-18T05:11:03Z</time>
      </trkpt>
      <trkpt lat="44.80128" lon="6.73259">
        <ele>1992.4</ele>
        <time>2022-07-18T05:11:04Z</time>
      </trkpt>
      <trkpt lat="44.80135" lon="6.73271">
        <ele>1991.2</ele>
        <time>2022-07-18T05:11:05Z</time>
      </trkpt>
      <trkpt lat="44.80142" lon="6.73284">
        <ele>1990.4</ele>
        <time>2022-07-18T05:11:06Z</time>
      </trkpt>
      <trkpt lat="44.80149" lon="6.73297">
        <ele>1989.4</ele>
        <time>2022-07-18T05:11:07Z</time>
      </trkpt>
      <trkpt lat="44.80154" lon="6.73312">
        <ele>1988.4</ele>
        <time>2022-07-18T05:11:08Z</time>
      </trkpt>
      <trkpt lat="44.8016" lon="6.73327">
        <ele>1987.2</ele>
        <time>2022-07-18T05:11:09Z</time>
      </trkpt>
      <trkpt lat="44.80166" lon="6.73341">
        <ele>1986.2</ele>
        <time>2022-07-18T05:11:10Z</time>
      </trkpt>
      <trkpt lat="44.80173" lon="6.73354">
        <ele>1985</ele>
        <time>2022-07-18T05:11:11Z</time>
      </trkpt>
      <trkpt lat="44.80181" lon="6.73365">
        <ele>1983.8</ele>
        <time>2022-07-18T05:11:12Z</time>
      </trkpt>
      <trkpt lat="44.80189" lon="6.73375">
        <ele>1982.8</ele>
        <time>2022-07-18T05:11:13Z</time>
      </trkpt>
      <trkpt lat="44.80196" lon="6.73385">
        <ele>1981.8</ele>
        <time>2022-07-18T05:11:14Z</time>
      </trkpt>
      <trkpt lat="44.80202" lon="6.73394">
        <ele>1981.2</ele>
        <time>2022-07-18T05:11:15Z</time>
      </trkpt>
      <trkpt lat="44.80206" lon="6.73403">
        <ele>1980.4</ele>
        <time>2022-07-18T05:11:16Z</time>
      </trkpt>
      <trkpt lat="44.80207" lon="6.73412">
        <ele>1980</ele>
        <time>2022-07-18T05:11:17Z</time>
      </trkpt>
      <trkpt lat="44.80206" lon="6.7342">
        <ele>1979.6</ele>
        <time>2022-07-18T05:11:18Z</time>
      </trkpt>
      <trkpt lat="44.80204" lon="6.73425">
        <ele>1979</ele>
        <time>2022-07-18T05:11:19Z</time>
      </trkpt>
      <trkpt lat="44.80195" lon="6.73418">
        <ele>1978.4</ele>
        <time>2022-07-18T05:11:20Z</time>
      </trkpt>
      <trkpt lat="44.8019" lon="6.73412">
        <ele>1978</ele>
        <time>2022-07-18T05:11:21Z</time>
      </trkpt>
      <trkpt lat="44.80185" lon="6.73402">
        <ele>1977.4</ele>
        <time>2022-07-18T05:11:22Z</time>
      </trkpt>
      <trkpt lat="44.8018" lon="6.73393">
        <ele>1976.8</ele>
        <time>2022-07-18T05:11:23Z</time>
      </trkpt>
      <trkpt lat="44.80174" lon="6.73383">
        <ele>1976.2</ele>
        <time>2022-07-18T05:11:24Z</time>
      </trkpt>
      <trkpt lat="44.80168" lon="6.73374">
        <ele>1975.6</ele>
        <time>2022-07-18T05:11:25Z</time>
      </trkpt>
      <trkpt lat="44.8016" lon="6.73365">
        <ele>1975</ele>
        <time>2022-07-18T05:11:26Z</time>
      </trkpt>
      <trkpt lat="44.80152" lon="6.73357">
        <ele>1974.2</ele>
        <time>2022-07-18T05:11:27Z</time>
      </trkpt>
      <trkpt lat="44.80144" lon="6.73348">
        <ele>1973.6</ele>
        <time>2022-07-18T05:11:28Z</time>
      </trkpt>
      <trkpt lat="44.80136" lon="6.73338">
        <ele>1972.6</ele>
        <time>2022-07-18T05:11:29Z</time>
      </trkpt>
      <trkpt lat="44.80127" lon="6.73326">
        <ele>1971.6</ele>
        <time>2022-07-18T05:11:30Z</time>
      </trkpt>
      <trkpt lat="44.80118" lon="6.73314">
        <ele>1970.6</ele>
        <time>2022-07-18T05:11:31Z</time>
      </trkpt>
      <trkpt lat="44.80108" lon="6.73304">
        <ele>1969.4</ele>
        <time>2022-07-18T05:11:32Z</time>
      </trkpt>
      <trkpt lat="44.80098" lon="6.73295">
        <ele>1968.4</ele>
        <time>2022-07-18T05:11:33Z</time>
      </trkpt>
      <trkpt lat="44.80088" lon="6.73285">
        <ele>1967.2</ele>
        <time>2022-07-18T05:11:34Z</time>
      </trkpt>
      <trkpt lat="44.80079" lon="6.73274">
        <ele>1966</ele>
        <time>2022-07-18T05:11:35Z</time>
      </trkpt>
      <trkpt lat="44.80071" lon="6.73262">
        <ele>1964.8</ele>
        <time>2022-07-18T05:11:36Z</time>
      </trkpt>
      <trkpt lat="44.80063" lon="6.73251">
        <ele>1963.6</ele>
        <time>2022-07-18T05:11:37Z</time>
      </trkpt>
      <trkpt lat="44.80053" lon="6.73241">
        <ele>1962.6</ele>
        <time>2022-07-18T05:11:38Z</time>
      </trkpt>
      <trkpt lat="44.80044" lon="6.73234">
        <ele>1961.4</ele>
        <time>2022-07-18T05:11:39Z</time>
      </trkpt>
      <trkpt lat="44.80033" lon="6.73229">
        <ele>1960.4</ele>
        <time>2022-07-18T05:11:40Z</time>
      </trkpt>
      <trkpt lat="44.80022" lon="6.73226">
        <ele>1959.2</ele>
        <time>2022-07-18T05:11:41Z</time>
      </trkpt>
      <trkpt lat="44.80011" lon="6.73226">
        <ele>1958.2</ele>
        <time>2022-07-18T05:11:42Z</time>
      </trkpt>
      <trkpt lat="44.79999" lon="6.73225">
        <ele>1957</ele>
        <time>2022-07-18T05:11:43Z</time>
      </trkpt>
      <trkpt lat="44.79989" lon="6.73225">
        <ele>1955.8</ele>
        <time>2022-07-18T05:11:44Z</time>
      </trkpt>
      <trkpt lat="44.79978" lon="6.73224">
        <ele>1954.8</ele>
        <time>2022-07-18T05:11:45Z</time>
      </trkpt>
      <trkpt lat="44.79969" lon="6.73222">
        <ele>1953.6</ele>
        <time>2022-07-18T05:11:46Z</time>
      </trkpt>
      <trkpt lat="44.79961" lon="6.73218">
        <ele>1952.6</ele>
        <time>2022-07-18T05:11:47Z</time>
      </trkpt>
      <trkpt lat="44.79955" lon="6.73214">
        <ele>1951.6</ele>
        <time>2022-07-18T05:11:48Z</time>
      </trkpt>
      <trkpt lat="44.79949" lon="6.73208">
        <ele>1950.8</ele>
        <time>2022-07-18T05:11:49Z</time>
      </trkpt>
      <trkpt lat="44.79945" lon="6.732">
        <ele>1949.8</ele>
        <time>2022-07-18T05:11:50Z</time>
      </trkpt>
      <trkpt lat="44.79944" lon="6.7319">
        <ele>1949</ele>
        <time>2022-07-18T05:11:51Z</time>
      </trkpt>
      <trkpt lat="44.79944" lon="6.73179">
        <ele>1948</ele>
        <time>2022-07-18T05:11:52Z</time>
      </trkpt>
      <trkpt lat="44.79946" lon="6.73167">
        <ele>1947</ele>
        <time>2022-07-18T05:11:53Z</time>
      </trkpt>
      <trkpt lat="44.79948" lon="6.73153">
        <ele>1946</ele>
        <time>2022-07-18T05:11:54Z</time>
      </trkpt>
      <trkpt lat="44.79949" lon="6.73138">
        <ele>1945.2</ele>
        <time>2022-07-18T05:11:55Z</time>
      </trkpt>
      <trkpt lat="44.79949" lon="6.73123">
        <ele>1944.2</ele>
        <time>2022-07-18T05:11:56Z</time>
      </trkpt>
      <trkpt lat="44.79951" lon="6.73107">
        <ele>1943.2</ele>
        <time>2022-07-18T05:11:57Z</time>
      </trkpt>
      <trkpt lat="44.79952" lon="6.73091">
        <ele>1942.2</ele>
        <time>2022-07-18T05:11:58Z</time>
      </trkpt>
      <trkpt lat="44.79956" lon="6.73077">
        <ele>1941.2</ele>
        <time>2022-07-18T05:11:59Z</time>
      </trkpt>
      <trkpt lat="44.79961" lon="6.73061">
        <ele>1940.2</ele>
        <time>2022-07-18T05:12:00Z</time>
      </trkpt>
      <trkpt lat="44.79966" lon="6.73046">
        <ele>1939</ele>
        <time>2022-07-18T05:12:01Z</time>
      </trkpt>
      <trkpt lat="44.79973" lon="6.73031">
        <ele>1937.6</ele>
        <time>2022-07-18T05:12:02Z</time>
      </trkpt>
      <trkpt lat="44.79981" lon="6.73019">
        <ele>1936.6</ele>
        <time>2022-07-18T05:12:03Z</time>
      </trkpt>
      <trkpt lat="44.79989" lon="6.73008">
        <ele>1935.6</ele>
        <time>2022-07-18T05:12:04Z</time>
      </trkpt>
      <trkpt lat="44.79997" lon="6.72997">
        <ele>1934.4</ele>
        <time>2022-07-18T05:12:05Z</time>
      </trkpt>
      <trkpt lat="44.80004" lon="6.72988">
        <ele>1933.4</ele>
        <time>2022-07-18T05:12:06Z</time>
      </trkpt>
      <trkpt lat="44.80011" lon="6.72979">
        <ele>1932.4</ele>
        <time>2022-07-18T05:12:07Z</time>
      </trkpt>
      <trkpt lat="44.80018" lon="6.72972">
        <ele>1931.6</ele>
        <time>2022-07-18T05:12:08Z</time>
      </trkpt>
      <trkpt lat="44.80023" lon="6.72967">
        <ele>1931</ele>
        <time>2022-07-18T05:12:09Z</time>
      </trkpt>
      <trkpt lat="44.80026" lon="6.72961">
        <ele>1930.4</ele>
        <time>2022-07-18T05:12:10Z</time>
      </trkpt>
      <trkpt lat="44.80028" lon="6.72955">
        <ele>1930</ele>
        <time>2022-07-18T05:12:11Z</time>
      </trkpt>
      <trkpt lat="44.80025" lon="6.72949">
        <ele>1929.4</ele>
        <time>2022-07-18T05:12:12Z</time>
      </trkpt>
      <trkpt lat="44.80021" lon="6.72945">
        <ele>1929</ele>
        <time>2022-07-18T05:12:13Z</time>
      </trkpt>
      <trkpt lat="44.80016" lon="6.72946">
        <ele>1928.4</ele>
        <time>2022-07-18T05:12:14Z</time>
      </trkpt>
      <trkpt lat="44.80011" lon="6.72949">
        <ele>1928</ele>
        <time>2022-07-18T05:12:15Z</time>
      </trkpt>
      <trkpt lat="44.80005" lon="6.72954">
        <ele>1927.4</ele>
        <time>2022-07-18T05:12:16Z</time>
      </trkpt>
      <trkpt lat="44.79999" lon="6.7296">
        <ele>1926.8</ele>
        <time>2022-07-18T05:12:17Z</time>
      </trkpt>
      <trkpt lat="44.79992" lon="6.72967">
        <ele>1926.4</ele>
        <time>2022-07-18T05:12:18Z</time>
      </trkpt>
      <trkpt lat="44.79985" lon="6.72974">
        <ele>1925.6</ele>
        <time>2022-07-18T05:12:19Z</time>
      </trkpt>
      <trkpt lat="44.79978" lon="6.72982">
        <ele>1925</ele>
        <time>2022-07-18T05:12:20Z</time>
      </trkpt>
      <trkpt lat="44.7997" lon="6.72989">
        <ele>1924.2</ele>
        <time>2022-07-18T05:12:21Z</time>
      </trkpt>
      <trkpt lat="44.79962" lon="6.72996">
        <ele>1923.4</ele>
        <time>2022-07-18T05:12:22Z</time>
      </trkpt>
      <trkpt lat="44.79954" lon="6.73005">
        <ele>1922.6</ele>
        <time>2022-07-18T05:12:23Z</time>
      </trkpt>
      <trkpt lat="44.79946" lon="6.73014">
        <ele>1921.8</ele>
        <time>2022-07-18T05:12:24Z</time>
      </trkpt>
      <trkpt lat="44.79938" lon="6.73024">
        <ele>1920.8</ele>
        <time>2022-07-18T05:12:25Z</time>
      </trkpt>
      <trkpt lat="44.79931" lon="6.73038">
        <ele>1920</ele>
        <time>2022-07-18T05:12:26Z</time>
      </trkpt>
      <trkpt lat="44.79922" lon="6.7305">
        <ele>1919</ele>
        <time>2022-07-18T05:12:27Z</time>
      </trkpt>
      <trkpt lat="44.79915" lon="6.73068">
        <ele>1918</ele>
        <time>2022-07-18T05:12:28Z</time>
      </trkpt>
      <trkpt lat="44.79909" lon="6.73085">
        <ele>1916.8</ele>
        <time>2022-07-18T05:12:29Z</time>
      </trkpt>
      <trkpt lat="44.79905" lon="6.731">
        <ele>1915.8</ele>
        <time>2022-07-18T05:12:30Z</time>
      </trkpt>
      <trkpt lat="44.799" lon="6.73113">
        <ele>1914.8</ele>
        <time>2022-07-18T05:12:31Z</time>
      </trkpt>
      <trkpt lat="44.79897" lon="6.73125">
        <ele>1913.8</ele>
        <time>2022-07-18T05:12:32Z</time>
      </trkpt>
      <trkpt lat="44.79891" lon="6.73136">
        <ele>1912.8</ele>
        <time>2022-07-18T05:12:33Z</time>
      </trkpt>
      <trkpt lat="44.79884" lon="6.73145">
        <ele>1911.8</ele>
        <time>2022-07-18T05:12:34Z</time>
      </trkpt>
      <trkpt lat="44.79878" lon="6.73154">
        <ele>1911</ele>
        <time>2022-07-18T05:12:35Z</time>
      </trkpt>
      <trkpt lat="44.79874" lon="6.73169">
        <ele>1910.2</ele>
        <time>2022-07-18T05:12:36Z</time>
      </trkpt>
      <trkpt lat="44.79871" lon="6.73181">
        <ele>1909.4</ele>
        <time>2022-07-18T05:12:37Z</time>
      </trkpt>
      <trkpt lat="44.79868" lon="6.73193">
        <ele>1908.6</ele>
        <time>2022-07-18T05:12:38Z</time>
      </trkpt>
      <trkpt lat="44.79868" lon="6.73206">
        <ele>1907.8</ele>
        <time>2022-07-18T05:12:39Z</time>
      </trkpt>
      <trkpt lat="44.79869" lon="6.73218">
        <ele>1907.2</ele>
        <time>2022-07-18T05:12:40Z</time>
      </trkpt>
      <trkpt lat="44.7987" lon="6.73227">
        <ele>1906.4</ele>
        <time>2022-07-18T05:12:41Z</time>
      </trkpt>
      <trkpt lat="44.7987" lon="6.73236">
        <ele>1905.8</ele>
        <time>2022-07-18T05:12:42Z</time>
      </trkpt>
      <trkpt lat="44.7987" lon="6.73241">
        <ele>1905.2</ele>
        <time>2022-07-18T05:12:43Z</time>
      </trkpt>
      <trkpt lat="44.79868" lon="6.73245">
        <ele>1904.8</ele>
        <time>2022-07-18T05:12:44Z</time>
      </trkpt>
      <trkpt lat="44.79864" lon="6.73244">
        <ele>1904.4</ele>
        <time>2022-07-18T05:12:45Z</time>
      </trkpt>
      <trkpt lat="44.79861" lon="6.73238">
        <ele>1904</ele>
        <time>2022-07-18T05:12:46Z</time>
      </trkpt>
      <trkpt lat="44.79861" lon="6.73229">
        <ele>1903.6</ele>
        <time>2022-07-18T05:12:47Z</time>
      </trkpt>
      <trkpt lat="44.79862" lon="6.73219">
        <ele>1903</ele>
        <time>2022-07-18T05:12:48Z</time>
      </trkpt>
      <trkpt lat="44.79863" lon="6.73208">
        <ele>1902.4</ele>
        <time>2022-07-18T05:12:49Z</time>
      </trkpt>
      <trkpt lat="44.79863" lon="6.73196">
        <ele>1901.6</ele>
        <time>2022-07-18T05:12:50Z</time>
      </trkpt>
      <trkpt lat="44.79862" lon="6.73183">
        <ele>1900.8</ele>
        <time>2022-07-18T05:12:51Z</time>
      </trkpt>
      <trkpt lat="44.79861" lon="6.73169">
        <ele>1900</ele>
        <time>2022-07-18T05:12:52Z</time>
      </trkpt>
      <trkpt lat="44.79861" lon="6.73154">
        <ele>1899</ele>
        <time>2022-07-18T05:12:53Z</time>
      </trkpt>
      <trkpt lat="44.79865" lon="6.7314">
        <ele>1898.2</ele>
        <time>2022-07-18T05:12:54Z</time>
      </trkpt>
      <trkpt lat="44.79871" lon="6.73126">
        <ele>1897.2</ele>
        <time>2022-07-18T05:12:55Z</time>
      </trkpt>
      <trkpt lat="44.79877" lon="6.73111">
        <ele>1896</ele>
        <time>2022-07-18T05:12:56Z</time>
      </trkpt>
      <trkpt lat="44.7988" lon="6.73095">
        <ele>1894.8</ele>
        <time>2022-07-18T05:12:57Z</time>
      </trkpt>
      <trkpt lat="44.7988" lon="6.73077">
        <ele>1893.8</ele>
        <time>2022-07-18T05:12:58Z</time>
      </trkpt>
      <trkpt lat="44.7988" lon="6.7306">
        <ele>1892.6</ele>
        <time>2022-07-18T05:12:59Z</time>
      </trkpt>
      <trkpt lat="44.79881" lon="6.73043">
        <ele>1891.4</ele>
        <time>2022-07-18T05:13:00Z</time>
      </trkpt>
      <trkpt lat="44.79883" lon="6.73027">
        <ele>1890</ele>
        <time>2022-07-18T05:13:01Z</time>
      </trkpt>
      <trkpt lat="44.79889" lon="6.7301">
        <ele>1888.8</ele>
        <time>2022-07-18T05:13:02Z</time>
      </trkpt>
      <trkpt lat="44.79896" lon="6.72993">
        <ele>1887.4</ele>
        <time>2022-07-18T05:13:03Z</time>
      </trkpt>
      <trkpt lat="44.79903" lon="6.72976">
        <ele>1886</ele>
        <time>2022-07-18T05:13:04Z</time>
      </trkpt>
      <trkpt lat="44.79909" lon="6.7296">
        <ele>1884.6</ele>
        <time>2022-07-18T05:13:05Z</time>
      </trkpt>
      <trkpt lat="44.79914" lon="6.72945">
        <ele>1883.4</ele>
        <time>2022-07-18T05:13:06Z</time>
      </trkpt>
      <trkpt lat="44.79916" lon="6.72932">
        <ele>1882.2</ele>
        <time>2022-07-18T05:13:07Z</time>
      </trkpt>
      <trkpt lat="44.79916" lon="6.7292">
        <ele>1881.2</ele>
        <time>2022-07-18T05:13:08Z</time>
      </trkpt>
      <trkpt lat="44.79916" lon="6.72909">
        <ele>1880.2</ele>
        <time>2022-07-18T05:13:09Z</time>
      </trkpt>
      <trkpt lat="44.79916" lon="6.72903">
        <ele>1879.4</ele>
        <time>2022-07-18T05:13:10Z</time>
      </trkpt>
      <trkpt lat="44.79914" lon="6.72896">
        <ele>1878.6</ele>
        <time>2022-07-18T05:13:11Z</time>
      </trkpt>
      <trkpt lat="44.79909" lon="6.72891">
        <ele>1878</ele>
        <time>2022-07-18T05:13:12Z</time>
      </trkpt>
      <trkpt lat="44.79905" lon="6.72889">
        <ele>1877.4</ele>
        <time>2022-07-18T05:13:13Z</time>
      </trkpt>
      <trkpt lat="44.79901" lon="6.72894">
        <ele>1876.8</ele>
        <time>2022-07-18T05:13:14Z</time>
      </trkpt>
      <trkpt lat="44.79899" lon="6.72902">
        <ele>1876.4</ele>
        <time>2022-07-18T05:13:15Z</time>
      </trkpt>
      <trkpt lat="44.79898" lon="6.72911">
        <ele>1876</ele>
        <time>2022-07-18T05:13:16Z</time>
      </trkpt>
      <trkpt lat="44.79899" lon="6.72921">
        <ele>1875.4</ele>
        <time>2022-07-18T05:13:17Z</time>
      </trkpt>
      <trkpt lat="44.79898" lon="6.72932">
        <ele>1874.6</ele>
        <time>2022-07-18T05:13:18Z</time>
      </trkpt>
      <trkpt lat="44.79896" lon="6.72943">
        <ele>1874</ele>
        <time>2022-07-18T05:13:19Z</time>
      </trkpt>
      <trkpt lat="44.79893" lon="6.72953">
        <ele>1873.2</ele>
        <time>2022-07-18T05:13:20Z</time>
      </trkpt>
      <trkpt lat="44.79885" lon="6.72962">
        <ele>1872.4</ele>
        <time>2022-07-18T05:13:21Z</time>
      </trkpt>
      <trkpt lat="44.79878" lon="6.72971">
        <ele>1870.4</ele>
        <time>2022-07-18T05:13:22Z</time>
      </trkpt>
      <trkpt lat="44.7987" lon="6.7298">
        <ele>1869.4</ele>
        <time>2022-07-18T05:13:23Z</time>
      </trkpt>
      <trkpt lat="44.79862" lon="6.7299">
        <ele>1868.2</ele>
        <time>2022-07-18T05:13:24Z</time>
      </trkpt>
      <trkpt lat="44.79855" lon="6.73003">
        <ele>1867</ele>
        <time>2022-07-18T05:13:25Z</time>
      </trkpt>
      <trkpt lat="44.79849" lon="6.73017">
        <ele>1865.8</ele>
        <time>2022-07-18T05:13:26Z</time>
      </trkpt>
      <trkpt lat="44.79844" lon="6.73032">
        <ele>1864.6</ele>
        <time>2022-07-18T05:13:27Z</time>
      </trkpt>
      <trkpt lat="44.79839" lon="6.73047">
        <ele>1863.4</ele>
        <time>2022-07-18T05:13:28Z</time>
      </trkpt>
      <trkpt lat="44.79834" lon="6.7306">
        <ele>1862.2</ele>
        <time>2022-07-18T05:13:29Z</time>
      </trkpt>
      <trkpt lat="44.79828" lon="6.73072">
        <ele>1861.2</ele>
        <time>2022-07-18T05:13:30Z</time>
      </trkpt>
      <trkpt lat="44.79821" lon="6.73082">
        <ele>1860.2</ele>
        <time>2022-07-18T05:13:31Z</time>
      </trkpt>
      <trkpt lat="44.79814" lon="6.73091">
        <ele>1859.2</ele>
        <time>2022-07-18T05:13:32Z</time>
      </trkpt>
      <trkpt lat="44.79808" lon="6.73101">
        <ele>1858.2</ele>
        <time>2022-07-18T05:13:33Z</time>
      </trkpt>
      <trkpt lat="44.79803" lon="6.73111">
        <ele>1857.2</ele>
        <time>2022-07-18T05:13:34Z</time>
      </trkpt>
      <trkpt lat="44.798" lon="6.73123">
        <ele>1856.2</ele>
        <time>2022-07-18T05:13:35Z</time>
      </trkpt>
      <trkpt lat="44.79798" lon="6.73138">
        <ele>1855.2</ele>
        <time>2022-07-18T05:13:36Z</time>
      </trkpt>
      <trkpt lat="44.79798" lon="6.73153">
        <ele>1854.2</ele>
        <time>2022-07-18T05:13:37Z</time>
      </trkpt>
      <trkpt lat="44.79797" lon="6.73168">
        <ele>1853</ele>
        <time>2022-07-18T05:13:38Z</time>
      </trkpt>
      <trkpt lat="44.79794" lon="6.73182">
        <ele>1851.8</ele>
        <time>2022-07-18T05:13:39Z</time>
      </trkpt>
      <trkpt lat="44.79791" lon="6.73196">
        <ele>1850.6</ele>
        <time>2022-07-18T05:13:40Z</time>
      </trkpt>
      <trkpt lat="44.79785" lon="6.73207">
        <ele>1849.4</ele>
        <time>2022-07-18T05:13:41Z</time>
      </trkpt>
      <trkpt lat="44.79777" lon="6.73217">
        <ele>1848.4</ele>
        <time>2022-07-18T05:13:42Z</time>
      </trkpt>
      <trkpt lat="44.79768" lon="6.73224">
        <ele>1847.2</ele>
        <time>2022-07-18T05:13:43Z</time>
      </trkpt>
      <trkpt lat="44.79758" lon="6.73227">
        <ele>1846</ele>
        <time>2022-07-18T05:13:44Z</time>
      </trkpt>
      <trkpt lat="44.79748" lon="6.73228">
        <ele>1845</ele>
        <time>2022-07-18T05:13:45Z</time>
      </trkpt>
      <trkpt lat="44.79739" lon="6.73228">
        <ele>1844.2</ele>
        <time>2022-07-18T05:13:46Z</time>
      </trkpt>
      <trkpt lat="44.7973" lon="6.73228">
        <ele>1843.2</ele>
        <time>2022-07-18T05:13:47Z</time>
      </trkpt>
      <trkpt lat="44.79723" lon="6.73228">
        <ele>1842.6</ele>
        <time>2022-07-18T05:13:48Z</time>
      </trkpt>
      <trkpt lat="44.79716" lon="6.7323">
        <ele>1842</ele>
        <time>2022-07-18T05:13:49Z</time>
      </trkpt>
      <trkpt lat="44.79715" lon="6.73239">
        <ele>1841.6</ele>
        <time>2022-07-18T05:13:50Z</time>
      </trkpt>
      <trkpt lat="44.79714" lon="6.73248">
        <ele>1841</ele>
        <time>2022-07-18T05:13:51Z</time>
      </trkpt>
      <trkpt lat="44.79715" lon="6.73258">
        <ele>1840.6</ele>
        <time>2022-07-18T05:13:52Z</time>
      </trkpt>
      <trkpt lat="44.79719" lon="6.73269">
        <ele>1839.8</ele>
        <time>2022-07-18T05:13:53Z</time>
      </trkpt>
      <trkpt lat="44.79723" lon="6.73279">
        <ele>1839</ele>
        <time>2022-07-18T05:13:54Z</time>
      </trkpt>
      <trkpt lat="44.7973" lon="6.73288">
        <ele>1838.4</ele>
        <time>2022-07-18T05:13:55Z</time>
      </trkpt>
      <trkpt lat="44.79737" lon="6.73297">
        <ele>1837.4</ele>
        <time>2022-07-18T05:13:56Z</time>
      </trkpt>
      <trkpt lat="44.79745" lon="6.73306">
        <ele>1836.6</ele>
        <time>2022-07-18T05:13:57Z</time>
      </trkpt>
      <trkpt lat="44.79754" lon="6.73314">
        <ele>1835.6</ele>
        <time>2022-07-18T05:13:58Z</time>
      </trkpt>
      <trkpt lat="44.79763" lon="6.73322">
        <ele>1834.6</ele>
        <time>2022-07-18T05:13:59Z</time>
      </trkpt>
      <trkpt lat="44.79772" lon="6.7333">
        <ele>1833.6</ele>
        <time>2022-07-18T05:14:00Z</time>
      </trkpt>
      <trkpt lat="44.79782" lon="6.73337">
        <ele>1832.6</ele>
        <time>2022-07-18T05:14:01Z</time>
      </trkpt>
      <trkpt lat="44.79791" lon="6.73345">
        <ele>1831.4</ele>
        <time>2022-07-18T05:14:02Z</time>
      </trkpt>
      <trkpt lat="44.79799" lon="6.73355">
        <ele>1830.4</ele>
        <time>2022-07-18T05:14:03Z</time>
      </trkpt>
      <trkpt lat="44.79807" lon="6.73367">
        <ele>1829.2</ele>
        <time>2022-07-18T05:14:04Z</time>
      </trkpt>
      <trkpt lat="44.79814" lon="6.7338">
        <ele>1827.8</ele>
        <time>2022-07-18T05:14:05Z</time>
      </trkpt>
      <trkpt lat="44.79821" lon="6.73393">
        <ele>1826.6</ele>
        <time>2022-07-18T05:14:06Z</time>
      </trkpt>
      <trkpt lat="44.79828" lon="6.73405">
        <ele>1825.6</ele>
        <time>2022-07-18T05:14:07Z</time>
      </trkpt>
      <trkpt lat="44.79836" lon="6.73416">
        <ele>1824.6</ele>
        <time>2022-07-18T05:14:08Z</time>
      </trkpt>
      <trkpt lat="44.79844" lon="6.73424">
        <ele>1823.6</ele>
        <time>2022-07-18T05:14:09Z</time>
      </trkpt>
      <trkpt lat="44.7985" lon="6.7343">
        <ele>1822.8</ele>
        <time>2022-07-18T05:14:10Z</time>
      </trkpt>
      <trkpt lat="44.79855" lon="6.73436">
        <ele>1822.2</ele>
        <time>2022-07-18T05:14:11Z</time>
      </trkpt>
      <trkpt lat="44.79857" lon="6.73442">
        <ele>1821.8</ele>
        <time>2022-07-18T05:14:12Z</time>
      </trkpt>
      <trkpt lat="44.79857" lon="6.7345">
        <ele>1821.2</ele>
        <time>2022-07-18T05:14:13Z</time>
      </trkpt>
      <trkpt lat="44.79855" lon="6.73455">
        <ele>1820.6</ele>
        <time>2022-07-18T05:14:14Z</time>
      </trkpt>
      <trkpt lat="44.79851" lon="6.73458">
        <ele>1820.2</ele>
        <time>2022-07-18T05:14:15Z</time>
      </trkpt>
      <trkpt lat="44.7984" lon="6.73451">
        <ele>1819.6</ele>
        <time>2022-07-18T05:14:16Z</time>
      </trkpt>
      <trkpt lat="44.79834" lon="6.73443">
        <ele>1819</ele>
        <time>2022-07-18T05:14:17Z</time>
      </trkpt>
      <trkpt lat="44.79827" lon="6.73433">
        <ele>1818.4</ele>
        <time>2022-07-18T05:14:18Z</time>
      </trkpt>
      <trkpt lat="44.79821" lon="6.73424">
        <ele>1817.6</ele>
        <time>2022-07-18T05:14:19Z</time>
      </trkpt>
      <trkpt lat="44.79814" lon="6.73414">
        <ele>1816.8</ele>
        <time>2022-07-18T05:14:20Z</time>
      </trkpt>
      <trkpt lat="44.79807" lon="6.73404">
        <ele>1816</ele>
        <time>2022-07-18T05:14:21Z</time>
      </trkpt>
      <trkpt lat="44.798" lon="6.73395">
        <ele>1815.2</ele>
        <time>2022-07-18T05:14:22Z</time>
      </trkpt>
      <trkpt lat="44.79791" lon="6.73386">
        <ele>1814.4</ele>
        <time>2022-07-18T05:14:23Z</time>
      </trkpt>
      <trkpt lat="44.79782" lon="6.73378">
        <ele>1813.4</ele>
        <time>2022-07-18T05:14:24Z</time>
      </trkpt>
      <trkpt lat="44.79772" lon="6.73371">
        <ele>1812.6</ele>
        <time>2022-07-18T05:14:25Z</time>
      </trkpt>
      <trkpt lat="44.79762" lon="6.73365">
        <ele>1811.6</ele>
        <time>2022-07-18T05:14:26Z</time>
      </trkpt>
      <trkpt lat="44.79751" lon="6.7336">
        <ele>1810.8</ele>
        <time>2022-07-18T05:14:27Z</time>
      </trkpt>
      <trkpt lat="44.7974" lon="6.73355">
        <ele>1810</ele>
        <time>2022-07-18T05:14:28Z</time>
      </trkpt>
      <trkpt lat="44.7973" lon="6.73349">
        <ele>1809</ele>
        <time>2022-07-18T05:14:29Z</time>
      </trkpt>
      <trkpt lat="44.79719" lon="6.73344">
        <ele>1808</ele>
        <time>2022-07-18T05:14:30Z</time>
      </trkpt>
      <trkpt lat="44.79709" lon="6.7334">
        <ele>1807</ele>
        <time>2022-07-18T05:14:31Z</time>
      </trkpt>
      <trkpt lat="44.79699" lon="6.73335">
        <ele>1805.8</ele>
        <time>2022-07-18T05:14:32Z</time>
      </trkpt>
      <trkpt lat="44.7969" lon="6.73327">
        <ele>1804.6</ele>
        <time>2022-07-18T05:14:33Z</time>
      </trkpt>
      <trkpt lat="44.79681" lon="6.73317">
        <ele>1803.4</ele>
        <time>2022-07-18T05:14:34Z</time>
      </trkpt>
      <trkpt lat="44.79671" lon="6.73307">
        <ele>1802.2</ele>
        <time>2022-07-18T05:14:35Z</time>
      </trkpt>
      <trkpt lat="44.79661" lon="6.73297">
        <ele>1801</ele>
        <time>2022-07-18T05:14:36Z</time>
      </trkpt>
      <trkpt lat="44.79651" lon="6.73288">
        <ele>1799.8</ele>
        <time>2022-07-18T05:14:37Z</time>
      </trkpt>
      <trkpt lat="44.79642" lon="6.73278">
        <ele>1798.6</ele>
        <time>2022-07-18T05:14:38Z</time>
      </trkpt>
      <trkpt lat="44.79634" lon="6.73266">
        <ele>1797.2</ele>
        <time>2022-07-18T05:14:39Z</time>
      </trkpt>
      <trkpt lat="44.79626" lon="6.73255">
        <ele>1796</ele>
        <time>2022-07-18T05:14:40Z</time>
      </trkpt>
      <trkpt lat="44.79619" lon="6.73245">
        <ele>1794.8</ele>
        <time>2022-07-18T05:14:41Z</time>
      </trkpt>
      <trkpt lat="44.79613" lon="6.73235">
        <ele>1793.8</ele>
        <time>2022-07-18T05:14:42Z</time>
      </trkpt>
      <trkpt lat="44.79609" lon="6.73226">
        <ele>1792.8</ele>
        <time>2022-07-18T05:14:43Z</time>
      </trkpt>
      <trkpt lat="44.79606" lon="6.73216">
        <ele>1791.8</ele>
        <time>2022-07-18T05:14:44Z</time>
      </trkpt>
      <trkpt lat="44.79607" lon="6.73205">
        <ele>1790.8</ele>
        <time>2022-07-18T05:14:45Z</time>
      </trkpt>
      <trkpt lat="44.79609" lon="6.73192">
        <ele>1789.8</ele>
        <time>2022-07-18T05:14:46Z</time>
      </trkpt>
      <trkpt lat="44.79613" lon="6.7318">
        <ele>1788.6</ele>
        <time>2022-07-18T05:14:47Z</time>
      </trkpt>
      <trkpt lat="44.79618" lon="6.73169">
        <ele>1787.6</ele>
        <time>2022-07-18T05:14:48Z</time>
      </trkpt>
      <trkpt lat="44.79624" lon="6.73159">
        <ele>1786.4</ele>
        <time>2022-07-18T05:14:49Z</time>
      </trkpt>
      <trkpt lat="44.79633" lon="6.73152">
        <ele>1785.4</ele>
        <time>2022-07-18T05:14:50Z</time>
      </trkpt>
      <trkpt lat="44.79641" lon="6.73144">
        <ele>1784.6</ele>
        <time>2022-07-18T05:14:51Z</time>
      </trkpt>
      <trkpt lat="44.79649" lon="6.73137">
        <ele>1783.6</ele>
        <time>2022-07-18T05:14:52Z</time>
      </trkpt>
      <trkpt lat="44.79656" lon="6.73129">
        <ele>1782.6</ele>
        <time>2022-07-18T05:14:53Z</time>
      </trkpt>
      <trkpt lat="44.79661" lon="6.73121">
        <ele>1782</ele>
        <time>2022-07-18T05:14:54Z</time>
      </trkpt>
      <trkpt lat="44.79665" lon="6.73111">
        <ele>1781.2</ele>
        <time>2022-07-18T05:14:55Z</time>
      </trkpt>
      <trkpt lat="44.79666" lon="6.73099">
        <ele>1780.4</ele>
        <time>2022-07-18T05:14:56Z</time>
      </trkpt>
      <trkpt lat="44.79665" lon="6.73088">
        <ele>1779.6</ele>
        <time>2022-07-18T05:14:57Z</time>
      </trkpt>
      <trkpt lat="44.79661" lon="6.73077">
        <ele>1778.4</ele>
        <time>2022-07-18T05:14:58Z</time>
      </trkpt>
      <trkpt lat="44.79655" lon="6.73066">
        <ele>1777.4</ele>
        <time>2022-07-18T05:14:59Z</time>
      </trkpt>
      <trkpt lat="44.79649" lon="6.73055">
        <ele>1776.4</ele>
        <time>2022-07-18T05:15:00Z</time>
      </trkpt>
      <trkpt lat="44.79645" lon="6.73044">
        <ele>1775.2</ele>
        <time>2022-07-18T05:15:01Z</time>
      </trkpt>
      <trkpt lat="44.79646" lon="6.7303">
        <ele>1774.2</ele>
        <time>2022-07-18T05:15:02Z</time>
      </trkpt>
      <trkpt lat="44.79649" lon="6.73016">
        <ele>1773</ele>
        <time>2022-07-18T05:15:03Z</time>
      </trkpt>
      <trkpt lat="44.79653" lon="6.73001">
        <ele>1772</ele>
        <time>2022-07-18T05:15:04Z</time>
      </trkpt>
      <trkpt lat="44.79657" lon="6.72987">
        <ele>1770.8</ele>
        <time>2022-07-18T05:15:05Z</time>
      </trkpt>
      <trkpt lat="44.79662" lon="6.72973">
        <ele>1769.8</ele>
        <time>2022-07-18T05:15:06Z</time>
      </trkpt>
      <trkpt lat="44.79667" lon="6.72961">
        <ele>1768.8</ele>
        <time>2022-07-18T05:15:07Z</time>
      </trkpt>
      <trkpt lat="44.79674" lon="6.7295">
        <ele>1767.6</ele>
        <time>2022-07-18T05:15:08Z</time>
      </trkpt>
      <trkpt lat="44.79681" lon="6.7294">
        <ele>1766.6</ele>
        <time>2022-07-18T05:15:09Z</time>
      </trkpt>
      <trkpt lat="44.79686" lon="6.72928">
        <ele>1765.8</ele>
        <time>2022-07-18T05:15:10Z</time>
      </trkpt>
      <trkpt lat="44.7969" lon="6.72916">
        <ele>1764.8</ele>
        <time>2022-07-18T05:15:11Z</time>
      </trkpt>
      <trkpt lat="44.79692" lon="6.72903">
        <ele>1764</ele>
        <time>2022-07-18T05:15:12Z</time>
      </trkpt>
      <trkpt lat="44.79693" lon="6.72889">
        <ele>1763.2</ele>
        <time>2022-07-18T05:15:13Z</time>
      </trkpt>
      <trkpt lat="44.79693" lon="6.72876">
        <ele>1762.2</ele>
        <time>2022-07-18T05:15:14Z</time>
      </trkpt>
      <trkpt lat="44.79692" lon="6.72863">
        <ele>1761.2</ele>
        <time>2022-07-18T05:15:15Z</time>
      </trkpt>
      <trkpt lat="44.79691" lon="6.72849">
        <ele>1760.4</ele>
        <time>2022-07-18T05:15:16Z</time>
      </trkpt>
      <trkpt lat="44.79689" lon="6.72837">
        <ele>1759.4</ele>
        <time>2022-07-18T05:15:17Z</time>
      </trkpt>
      <trkpt lat="44.79686" lon="6.72826">
        <ele>1758.6</ele>
        <time>2022-07-18T05:15:18Z</time>
      </trkpt>
      <trkpt lat="44.79681" lon="6.72817">
        <ele>1757.8</ele>
        <time>2022-07-18T05:15:19Z</time>
      </trkpt>
      <trkpt lat="44.79675" lon="6.72809">
        <ele>1757</ele>
        <time>2022-07-18T05:15:20Z</time>
      </trkpt>
      <trkpt lat="44.79667" lon="6.72804">
        <ele>1756.4</ele>
        <time>2022-07-18T05:15:21Z</time>
      </trkpt>
      <trkpt lat="44.7966" lon="6.72801">
        <ele>1755.6</ele>
        <time>2022-07-18T05:15:22Z</time>
      </trkpt>
      <trkpt lat="44.79651" lon="6.728">
        <ele>1755</ele>
        <time>2022-07-18T05:15:23Z</time>
      </trkpt>
      <trkpt lat="44.79642" lon="6.72802">
        <ele>1754</ele>
        <time>2022-07-18T05:15:24Z</time>
      </trkpt>
      <trkpt lat="44.79634" lon="6.72808">
        <ele>1753</ele>
        <time>2022-07-18T05:15:25Z</time>
      </trkpt>
      <trkpt lat="44.79626" lon="6.72817">
        <ele>1751.8</ele>
        <time>2022-07-18T05:15:26Z</time>
      </trkpt>
      <trkpt lat="44.79619" lon="6.72829">
        <ele>1750.6</ele>
        <time>2022-07-18T05:15:27Z</time>
      </trkpt>
      <trkpt lat="44.79612" lon="6.72843">
        <ele>1749.2</ele>
        <time>2022-07-18T05:15:28Z</time>
      </trkpt>
      <trkpt lat="44.79606" lon="6.72859">
        <ele>1747.8</ele>
        <time>2022-07-18T05:15:29Z</time>
      </trkpt>
      <trkpt lat="44.79599" lon="6.72875">
        <ele>1746.6</ele>
        <time>2022-07-18T05:15:30Z</time>
      </trkpt>
      <trkpt lat="44.79591" lon="6.72891">
        <ele>1745</ele>
        <time>2022-07-18T05:15:31Z</time>
      </trkpt>
      <trkpt lat="44.79582" lon="6.72907">
        <ele>1743.4</ele>
        <time>2022-07-18T05:15:32Z</time>
      </trkpt>
      <trkpt lat="44.79572" lon="6.72923">
        <ele>1741.8</ele>
        <time>2022-07-18T05:15:33Z</time>
      </trkpt>
      <trkpt lat="44.79561" lon="6.72938">
        <ele>1740.2</ele>
        <time>2022-07-18T05:15:34Z</time>
      </trkpt>
      <trkpt lat="44.7955" lon="6.72953">
        <ele>1738.2</ele>
        <time>2022-07-18T05:15:35Z</time>
      </trkpt>
      <trkpt lat="44.79538" lon="6.72969">
        <ele>1736.6</ele>
        <time>2022-07-18T05:15:36Z</time>
      </trkpt>
      <trkpt lat="44.79527" lon="6.72983">
        <ele>1734.8</ele>
        <time>2022-07-18T05:15:37Z</time>
      </trkpt>
      <trkpt lat="44.79514" lon="6.72996">
        <ele>1733</ele>
        <time>2022-07-18T05:15:38Z</time>
      </trkpt>
      <trkpt lat="44.79502" lon="6.73008">
        <ele>1731.2</ele>
        <time>2022-07-18T05:15:39Z</time>
      </trkpt>
      <trkpt lat="44.7949" lon="6.73019">
        <ele>1729.4</ele>
        <time>2022-07-18T05:15:40Z</time>
      </trkpt>
      <trkpt lat="44.79477" lon="6.73029">
        <ele>1727.4</ele>
        <time>2022-07-18T05:15:41Z</time>
      </trkpt>
      <trkpt lat="44.79464" lon="6.7304">
        <ele>1725.6</ele>
        <time>2022-07-18T05:15:42Z</time>
      </trkpt>
      <trkpt lat="44.79451" lon="6.7305">
        <ele>1723.8</ele>
        <time>2022-07-18T05:15:43Z</time>
      </trkpt>
      <trkpt lat="44.79437" lon="6.7306">
        <ele>1721.8</ele>
        <time>2022-07-18T05:15:44Z</time>
      </trkpt>
      <trkpt lat="44.79423" lon="6.7307">
        <ele>1720</ele>
        <time>2022-07-18T05:15:45Z</time>
      </trkpt>
      <trkpt lat="44.79409" lon="6.7308">
        <ele>1718.2</ele>
        <time>2022-07-18T05:15:46Z</time>
      </trkpt>
      <trkpt lat="44.79396" lon="6.7309">
        <ele>1716.4</ele>
        <time>2022-07-18T05:15:47Z</time>
      </trkpt>
      <trkpt lat="44.79382" lon="6.73099">
        <ele>1714.6</ele>
        <time>2022-07-18T05:15:48Z</time>
      </trkpt>
      <trkpt lat="44.79369" lon="6.73109">
        <ele>1712.8</ele>
        <time>2022-07-18T05:15:49Z</time>
      </trkpt>
      <trkpt lat="44.79355" lon="6.73117">
        <ele>1711</ele>
        <time>2022-07-18T05:15:50Z</time>
      </trkpt>
      <trkpt lat="44.79342" lon="6.73126">
        <ele>1709.2</ele>
        <time>2022-07-18T05:15:51Z</time>
      </trkpt>
      <trkpt lat="44.79328" lon="6.73133">
        <ele>1707.6</ele>
        <time>2022-07-18T05:15:52Z</time>
      </trkpt>
      <trkpt lat="44.79315" lon="6.73141">
        <ele>1706.2</ele>
        <time>2022-07-18T05:15:53Z</time>
      </trkpt>
      <trkpt lat="44.79301" lon="6.73147">
        <ele>1704.6</ele>
        <time>2022-07-18T05:15:54Z</time>
      </trkpt>
      <trkpt lat="44.79288" lon="6.73154">
        <ele>1703.2</ele>
        <time>2022-07-18T05:15:55Z</time>
      </trkpt>
      <trkpt lat="44.79275" lon="6.7316">
        <ele>1701.8</ele>
        <time>2022-07-18T05:15:56Z</time>
      </trkpt>
      <trkpt lat="44.79263" lon="6.73166">
        <ele>1700.4</ele>
        <time>2022-07-18T05:15:57Z</time>
      </trkpt>
      <trkpt lat="44.79251" lon="6.73171">
        <ele>1699</ele>
        <time>2022-07-18T05:15:58Z</time>
      </trkpt>
      <trkpt lat="44.79239" lon="6.73176">
        <ele>1697.8</ele>
        <time>2022-07-18T05:15:59Z</time>
      </trkpt>
      <trkpt lat="44.79227" lon="6.73181">
        <ele>1696.6</ele>
        <time>2022-07-18T05:16:00Z</time>
      </trkpt>
      <trkpt lat="44.79216" lon="6.73185">
        <ele>1695.4</ele>
        <time>2022-07-18T05:16:01Z</time>
      </trkpt>
      <trkpt lat="44.79204" lon="6.7319">
        <ele>1694.4</ele>
        <time>2022-07-18T05:16:02Z</time>
      </trkpt>
      <trkpt lat="44.79193" lon="6.73194">
        <ele>1693.2</ele>
        <time>2022-07-18T05:16:03Z</time>
      </trkpt>
      <trkpt lat="44.79182" lon="6.73199">
        <ele>1692</ele>
        <time>2022-07-18T05:16:04Z</time>
      </trkpt>
      <trkpt lat="44.7917" lon="6.73203">
        <ele>1690.8</ele>
        <time>2022-07-18T05:16:05Z</time>
      </trkpt>
      <trkpt lat="44.79158" lon="6.73207">
        <ele>1689.8</ele>
        <time>2022-07-18T05:16:06Z</time>
      </trkpt>
      <trkpt lat="44.79145" lon="6.7321">
        <ele>1688.6</ele>
        <time>2022-07-18T05:16:07Z</time>
      </trkpt>
      <trkpt lat="44.79132" lon="6.73211">
        <ele>1687.4</ele>
        <time>2022-07-18T05:16:08Z</time>
      </trkpt>
      <trkpt lat="44.7912" lon="6.73213">
        <ele>1686</ele>
        <time>2022-07-18T05:16:09Z</time>
      </trkpt>
      <trkpt lat="44.79107" lon="6.73215">
        <ele>1684.8</ele>
        <time>2022-07-18T05:16:10Z</time>
      </trkpt>
      <trkpt lat="44.79093" lon="6.73216">
        <ele>1683.6</ele>
        <time>2022-07-18T05:16:11Z</time>
      </trkpt>
      <trkpt lat="44.7908" lon="6.73217">
        <ele>1682.4</ele>
        <time>2022-07-18T05:16:12Z</time>
      </trkpt>
      <trkpt lat="44.79067" lon="6.73218">
        <ele>1681.2</ele>
        <time>2022-07-18T05:16:13Z</time>
      </trkpt>
      <trkpt lat="44.79054" lon="6.7322">
        <ele>1680</ele>
        <time>2022-07-18T05:16:14Z</time>
      </trkpt>
      <trkpt lat="44.7904" lon="6.73223">
        <ele>1678.8</ele>
        <time>2022-07-18T05:16:15Z</time>
      </trkpt>
      <trkpt lat="44.79027" lon="6.73227">
        <ele>1677.6</ele>
        <time>2022-07-18T05:16:16Z</time>
      </trkpt>
      <trkpt lat="44.79014" lon="6.73233">
        <ele>1676.4</ele>
        <time>2022-07-18T05:16:17Z</time>
      </trkpt>
      <trkpt lat="44.79001" lon="6.7324">
        <ele>1675.2</ele>
        <time>2022-07-18T05:16:18Z</time>
      </trkpt>
      <trkpt lat="44.78988" lon="6.73249">
        <ele>1674.2</ele>
        <time>2022-07-18T05:16:19Z</time>
      </trkpt>
      <trkpt lat="44.78976" lon="6.73257">
        <ele>1673.2</ele>
        <time>2022-07-18T05:16:20Z</time>
      </trkpt>
      <trkpt lat="44.78964" lon="6.73266">
        <ele>1672.2</ele>
        <time>2022-07-18T05:16:21Z</time>
      </trkpt>
      <trkpt lat="44.78951" lon="6.73274">
        <ele>1671.2</ele>
        <time>2022-07-18T05:16:22Z</time>
      </trkpt>
      <trkpt lat="44.7894" lon="6.73283">
        <ele>1670.2</ele>
        <time>2022-07-18T05:16:23Z</time>
      </trkpt>
      <trkpt lat="44.78927" lon="6.73289">
        <ele>1669.4</ele>
        <time>2022-07-18T05:16:24Z</time>
      </trkpt>
      <trkpt lat="44.78912" lon="6.73295">
        <ele>1668.4</ele>
        <time>2022-07-18T05:16:25Z</time>
      </trkpt>
      <trkpt lat="44.78898" lon="6.73298">
        <ele>1667.6</ele>
        <time>2022-07-18T05:16:26Z</time>
      </trkpt>
      <trkpt lat="44.78884" lon="6.73299">
        <ele>1667</ele>
        <time>2022-07-18T05:16:27Z</time>
      </trkpt>
      <trkpt lat="44.78872" lon="6.73301">
        <ele>1666</ele>
        <time>2022-07-18T05:16:28Z</time>
      </trkpt>
      <trkpt lat="44.78858" lon="6.73303">
        <ele>1665.4</ele>
        <time>2022-07-18T05:16:29Z</time>
      </trkpt>
      <trkpt lat="44.78845" lon="6.73305">
        <ele>1664.6</ele>
        <time>2022-07-18T05:16:30Z</time>
      </trkpt>
      <trkpt lat="44.78833" lon="6.73306">
        <ele>1663.8</ele>
        <time>2022-07-18T05:16:31Z</time>
      </trkpt>
      <trkpt lat="44.7882" lon="6.73307">
        <ele>1663</ele>
        <time>2022-07-18T05:16:32Z</time>
      </trkpt>
      <trkpt lat="44.78807" lon="6.73308">
        <ele>1662.2</ele>
        <time>2022-07-18T05:16:33Z</time>
      </trkpt>
      <trkpt lat="44.78795" lon="6.73308">
        <ele>1661.6</ele>
        <time>2022-07-18T05:16:34Z</time>
      </trkpt>
      <trkpt lat="44.78782" lon="6.7331">
        <ele>1660.8</ele>
        <time>2022-07-18T05:16:35Z</time>
      </trkpt>
      <trkpt lat="44.78768" lon="6.73311">
        <ele>1659.8</ele>
        <time>2022-07-18T05:16:36Z</time>
      </trkpt>
      <trkpt lat="44.78756" lon="6.73311">
        <ele>1659</ele>
        <time>2022-07-18T05:16:37Z</time>
      </trkpt>
      <trkpt lat="44.78743" lon="6.7331">
        <ele>1658.2</ele>
        <time>2022-07-18T05:16:38Z</time>
      </trkpt>
      <trkpt lat="44.7873" lon="6.73309">
        <ele>1657.4</ele>
        <time>2022-07-18T05:16:39Z</time>
      </trkpt>
      <trkpt lat="44.78718" lon="6.73309">
        <ele>1656.4</ele>
        <time>2022-07-18T05:16:40Z</time>
      </trkpt>
      <trkpt lat="44.78705" lon="6.73308">
        <ele>1655.6</ele>
        <time>2022-07-18T05:16:41Z</time>
      </trkpt>
      <trkpt lat="44.78692" lon="6.73308">
        <ele>1654.6</ele>
        <time>2022-07-18T05:16:42Z</time>
      </trkpt>
      <trkpt lat="44.78679" lon="6.73309">
        <ele>1653.4</ele>
        <time>2022-07-18T05:16:43Z</time>
      </trkpt>
      <trkpt lat="44.78667" lon="6.7331">
        <ele>1652.6</ele>
        <time>2022-07-18T05:16:44Z</time>
      </trkpt>
      <trkpt lat="44.78654" lon="6.73312">
        <ele>1651.6</ele>
        <time>2022-07-18T05:16:45Z</time>
      </trkpt>
      <trkpt lat="44.78643" lon="6.73314">
        <ele>1650.6</ele>
        <time>2022-07-18T05:16:46Z</time>
      </trkpt>
      <trkpt lat="44.78631" lon="6.73317">
        <ele>1649.6</ele>
        <time>2022-07-18T05:16:47Z</time>
      </trkpt>
      <trkpt lat="44.78619" lon="6.73321">
        <ele>1648.6</ele>
        <time>2022-07-18T05:16:48Z</time>
      </trkpt>
      <trkpt lat="44.78607" lon="6.73327">
        <ele>1647.6</ele>
        <time>2022-07-18T05:16:49Z</time>
      </trkpt>
      <trkpt lat="44.78595" lon="6.73333">
        <ele>1646.6</ele>
        <time>2022-07-18T05:16:50Z</time>
      </trkpt>
      <trkpt lat="44.78584" lon="6.7334">
        <ele>1646.6</ele>
        <time>2022-07-18T05:16:51Z</time>
      </trkpt>
      <trkpt lat="44.78572" lon="6.73348">
        <ele>1645.6</ele>
        <time>2022-07-18T05:16:52Z</time>
      </trkpt>
      <trkpt lat="44.7856" lon="6.73355">
        <ele>1644.6</ele>
        <time>2022-07-18T05:16:53Z</time>
      </trkpt>
      <trkpt lat="44.78548" lon="6.73361">
        <ele>1643.6</ele>
        <time>2022-07-18T05:16:54Z</time>
      </trkpt>
      <trkpt lat="44.78537" lon="6.73368">
        <ele>1642.6</ele>
        <time>2022-07-18T05:16:55Z</time>
      </trkpt>
      <trkpt lat="44.78524" lon="6.73374">
        <ele>1641.4</ele>
        <time>2022-07-18T05:16:56Z</time>
      </trkpt>
      <trkpt lat="44.78511" lon="6.73381">
        <ele>1640.2</ele>
        <time>2022-07-18T05:16:57Z</time>
      </trkpt>
      <trkpt lat="44.785" lon="6.73388">
        <ele>1639.2</ele>
        <time>2022-07-18T05:16:58Z</time>
      </trkpt>
      <trkpt lat="44.78487" lon="6.73396">
        <ele>1638</ele>
        <time>2022-07-18T05:16:59Z</time>
      </trkpt>
      <trkpt lat="44.78475" lon="6.73403">
        <ele>1636.8</ele>
        <time>2022-07-18T05:17:00Z</time>
      </trkpt>
      <trkpt lat="44.78462" lon="6.7341">
        <ele>1635.6</ele>
        <time>2022-07-18T05:17:01Z</time>
      </trkpt>
      <trkpt lat="44.7845" lon="6.73418">
        <ele>1634.2</ele>
        <time>2022-07-18T05:17:02Z</time>
      </trkpt>
      <trkpt lat="44.78437" lon="6.73425">
        <ele>1633</ele>
        <time>2022-07-18T05:17:03Z</time>
      </trkpt>
      <trkpt lat="44.78425" lon="6.73433">
        <ele>1631.8</ele>
        <time>2022-07-18T05:17:04Z</time>
      </trkpt>
      <trkpt lat="44.78414" lon="6.7344">
        <ele>1630.4</ele>
        <time>2022-07-18T05:17:05Z</time>
      </trkpt>
      <trkpt lat="44.78403" lon="6.73448">
        <ele>1629.2</ele>
        <time>2022-07-18T05:17:06Z</time>
      </trkpt>
      <trkpt lat="44.78391" lon="6.73455">
        <ele>1627.8</ele>
        <time>2022-07-18T05:17:07Z</time>
      </trkpt>
      <trkpt lat="44.78378" lon="6.7346">
        <ele>1626.8</ele>
        <time>2022-07-18T05:17:08Z</time>
      </trkpt>
      <trkpt lat="44.78366" lon="6.73467">
        <ele>1625.4</ele>
        <time>2022-07-18T05:17:09Z</time>
      </trkpt>
      <trkpt lat="44.78351" lon="6.73471">
        <ele>1624.4</ele>
        <time>2022-07-18T05:17:10Z</time>
      </trkpt>
      <trkpt lat="44.78337" lon="6.73474">
        <ele>1623.2</ele>
        <time>2022-07-18T05:17:11Z</time>
      </trkpt>
      <trkpt lat="44.78322" lon="6.73478">
        <ele>1622.2</ele>
        <time>2022-07-18T05:17:12Z</time>
      </trkpt>
      <trkpt lat="44.78309" lon="6.73481">
        <ele>1621.2</ele>
        <time>2022-07-18T05:17:13Z</time>
      </trkpt>
      <trkpt lat="44.78295" lon="6.73485">
        <ele>1620.2</ele>
        <time>2022-07-18T05:17:14Z</time>
      </trkpt>
      <trkpt lat="44.78283" lon="6.73488">
        <ele>1619.6</ele>
        <time>2022-07-18T05:17:15Z</time>
      </trkpt>
      <trkpt lat="44.78271" lon="6.73489">
        <ele>1619</ele>
        <time>2022-07-18T05:17:16Z</time>
      </trkpt>
      <trkpt lat="44.78259" lon="6.7349">
        <ele>1618.6</ele>
        <time>2022-07-18T05:17:17Z</time>
      </trkpt>
      <trkpt lat="44.78246" lon="6.73491">
        <ele>1618</ele>
        <time>2022-07-18T05:17:18Z</time>
      </trkpt>
      <trkpt lat="44.78235" lon="6.73492">
        <ele>1617.6</ele>
        <time>2022-07-18T05:17:19Z</time>
      </trkpt>
      <trkpt lat="44.78224" lon="6.73493">
        <ele>1617.2</ele>
        <time>2022-07-18T05:17:20Z</time>
      </trkpt>
      <trkpt lat="44.78213" lon="6.73493">
        <ele>1616.8</ele>
        <time>2022-07-18T05:17:21Z</time>
      </trkpt>
      <trkpt lat="44.78204" lon="6.73493">
        <ele>1616.2</ele>
        <time>2022-07-18T05:17:23Z</time>
      </trkpt>
      <trkpt lat="44.78194" lon="6.73492">
        <ele>1616</ele>
        <time>2022-07-18T05:17:24Z</time>
      </trkpt>
      <trkpt lat="44.78184" lon="6.73492">
        <ele>1615.8</ele>
        <time>2022-07-18T05:17:25Z</time>
      </trkpt>
      <trkpt lat="44.78175" lon="6.73491">
        <ele>1615.4</ele>
        <time>2022-07-18T05:17:26Z</time>
      </trkpt>
      <trkpt lat="44.78166" lon="6.73491">
        <ele>1615.4</ele>
        <time>2022-07-18T05:17:27Z</time>
      </trkpt>
      <trkpt lat="44.78157" lon="6.7349">
        <ele>1615</ele>
        <time>2022-07-18T05:17:28Z</time>
      </trkpt>
      <trkpt lat="44.78149" lon="6.7349">
        <ele>1614.8</ele>
        <time>2022-07-18T05:17:29Z</time>
      </trkpt>
      <trkpt lat="44.78141" lon="6.73492">
        <ele>1614.4</ele>
        <time>2022-07-18T05:17:30Z</time>
      </trkpt>
      <trkpt lat="44.78133" lon="6.73494">
        <ele>1614</ele>
        <time>2022-07-18T05:17:31Z</time>
      </trkpt>
      <trkpt lat="44.78125" lon="6.73499">
        <ele>1613.6</ele>
        <time>2022-07-18T05:17:32Z</time>
      </trkpt>
      <trkpt lat="44.78117" lon="6.73505">
        <ele>1613.2</ele>
        <time>2022-07-18T05:17:33Z</time>
      </trkpt>
      <trkpt lat="44.7811" lon="6.73512">
        <ele>1612.6</ele>
        <time>2022-07-18T05:17:34Z</time>
      </trkpt>
      <trkpt lat="44.78102" lon="6.7352">
        <ele>1612.2</ele>
        <time>2022-07-18T05:17:35Z</time>
      </trkpt>
      <trkpt lat="44.78094" lon="6.73526">
        <ele>1611.6</ele>
        <time>2022-07-18T05:17:36Z</time>
      </trkpt>
      <trkpt lat="44.78077" lon="6.73537">
        <ele>1611</ele>
        <time>2022-07-18T05:17:37Z</time>
      </trkpt>
      <trkpt lat="44.78068" lon="6.73541">
        <ele>1610.6</ele>
        <time>2022-07-18T05:17:38Z</time>
      </trkpt>
      <trkpt lat="44.78058" lon="6.73543">
        <ele>1610</ele>
        <time>2022-07-18T05:17:39Z</time>
      </trkpt>
      <trkpt lat="44.78049" lon="6.73542">
        <ele>1609.4</ele>
        <time>2022-07-18T05:17:40Z</time>
      </trkpt>
      <trkpt lat="44.78039" lon="6.7354">
        <ele>1608.6</ele>
        <time>2022-07-18T05:17:41Z</time>
      </trkpt>
      <trkpt lat="44.78028" lon="6.73539">
        <ele>1608</ele>
        <time>2022-07-18T05:17:42Z</time>
      </trkpt>
      <trkpt lat="44.78018" lon="6.73536">
        <ele>1607.2</ele>
        <time>2022-07-18T05:17:43Z</time>
      </trkpt>
      <trkpt lat="44.78007" lon="6.73535">
        <ele>1606.4</ele>
        <time>2022-07-18T05:17:44Z</time>
      </trkpt>
      <trkpt lat="44.77998" lon="6.73534">
        <ele>1605.6</ele>
        <time>2022-07-18T05:17:45Z</time>
      </trkpt>
      <trkpt lat="44.77988" lon="6.73531">
        <ele>1604.6</ele>
        <time>2022-07-18T05:17:46Z</time>
      </trkpt>
      <trkpt lat="44.77976" lon="6.7353">
        <ele>1603.6</ele>
        <time>2022-07-18T05:17:47Z</time>
      </trkpt>
      <trkpt lat="44.77965" lon="6.73526">
        <ele>1602.6</ele>
        <time>2022-07-18T05:17:48Z</time>
      </trkpt>
      <trkpt lat="44.77953" lon="6.73524">
        <ele>1601.6</ele>
        <time>2022-07-18T05:17:49Z</time>
      </trkpt>
      <trkpt lat="44.77942" lon="6.73522">
        <ele>1600.4</ele>
        <time>2022-07-18T05:17:50Z</time>
      </trkpt>
      <trkpt lat="44.7793" lon="6.7352">
        <ele>1599.4</ele>
        <time>2022-07-18T05:17:51Z</time>
      </trkpt>
      <trkpt lat="44.77918" lon="6.73517">
        <ele>1598</ele>
        <time>2022-07-18T05:17:52Z</time>
      </trkpt>
      <trkpt lat="44.77905" lon="6.73514">
        <ele>1596.6</ele>
        <time>2022-07-18T05:17:53Z</time>
      </trkpt>
      <trkpt lat="44.77893" lon="6.73511">
        <ele>1595.2</ele>
        <time>2022-07-18T05:17:54Z</time>
      </trkpt>
      <trkpt lat="44.7788" lon="6.73509">
        <ele>1593.8</ele>
        <time>2022-07-18T05:17:55Z</time>
      </trkpt>
      <trkpt lat="44.77867" lon="6.73507">
        <ele>1592.4</ele>
        <time>2022-07-18T05:17:56Z</time>
      </trkpt>
      <trkpt lat="44.77854" lon="6.73505">
        <ele>1591</ele>
        <time>2022-07-18T05:17:57Z</time>
      </trkpt>
      <trkpt lat="44.77841" lon="6.73505">
        <ele>1589.6</ele>
        <time>2022-07-18T05:17:58Z</time>
      </trkpt>
      <trkpt lat="44.77829" lon="6.73506">
        <ele>1588.4</ele>
        <time>2022-07-18T05:17:59Z</time>
      </trkpt>
      <trkpt lat="44.77816" lon="6.73508">
        <ele>1587</ele>
        <time>2022-07-18T05:18:00Z</time>
      </trkpt>
      <trkpt lat="44.77803" lon="6.73512">
        <ele>1585.8</ele>
        <time>2022-07-18T05:18:01Z</time>
      </trkpt>
      <trkpt lat="44.7779" lon="6.73518">
        <ele>1584.4</ele>
        <time>2022-07-18T05:18:02Z</time>
      </trkpt>
      <trkpt lat="44.77777" lon="6.73524">
        <ele>1583</ele>
        <time>2022-07-18T05:18:03Z</time>
      </trkpt>
      <trkpt lat="44.77764" lon="6.73527">
        <ele>1581.6</ele>
        <time>2022-07-18T05:18:04Z</time>
      </trkpt>
      <trkpt lat="44.77751" lon="6.73529">
        <ele>1580.4</ele>
        <time>2022-07-18T05:18:05Z</time>
      </trkpt>
      <trkpt lat="44.77738" lon="6.73529">
        <ele>1579</ele>
        <time>2022-07-18T05:18:06Z</time>
      </trkpt>
      <trkpt lat="44.77724" lon="6.73529">
        <ele>1577.6</ele>
        <time>2022-07-18T05:18:07Z</time>
      </trkpt>
      <trkpt lat="44.77709" lon="6.73528">
        <ele>1576.2</ele>
        <time>2022-07-18T05:18:08Z</time>
      </trkpt>
      <trkpt lat="44.77695" lon="6.73525">
        <ele>1574.8</ele>
        <time>2022-07-18T05:18:09Z</time>
      </trkpt>
      <trkpt lat="44.77681" lon="6.73524">
        <ele>1573.4</ele>
        <time>2022-07-18T05:18:10Z</time>
      </trkpt>
      <trkpt lat="44.77668" lon="6.73522">
        <ele>1572</ele>
        <time>2022-07-18T05:18:11Z</time>
      </trkpt>
      <trkpt lat="44.77655" lon="6.7352">
        <ele>1570.6</ele>
        <time>2022-07-18T05:18:12Z</time>
      </trkpt>
      <trkpt lat="44.77642" lon="6.73517">
        <ele>1569.4</ele>
        <time>2022-07-18T05:18:13Z</time>
      </trkpt>
      <trkpt lat="44.77631" lon="6.73516">
        <ele>1568.2</ele>
        <time>2022-07-18T05:18:14Z</time>
      </trkpt>
      <trkpt lat="44.77619" lon="6.73516">
        <ele>1567</ele>
        <time>2022-07-18T05:18:15Z</time>
      </trkpt>
      <trkpt lat="44.77607" lon="6.73519">
        <ele>1565.8</ele>
        <time>2022-07-18T05:18:16Z</time>
      </trkpt>
      <trkpt lat="44.77594" lon="6.73524">
        <ele>1564.6</ele>
        <time>2022-07-18T05:18:17Z</time>
      </trkpt>
      <trkpt lat="44.77583" lon="6.73531">
        <ele>1563.2</ele>
        <time>2022-07-18T05:18:18Z</time>
      </trkpt>
      <trkpt lat="44.7757" lon="6.7354">
        <ele>1561.8</ele>
        <time>2022-07-18T05:18:19Z</time>
      </trkpt>
      <trkpt lat="44.77557" lon="6.73549">
        <ele>1560.6</ele>
        <time>2022-07-18T05:18:20Z</time>
      </trkpt>
      <trkpt lat="44.77544" lon="6.73556">
        <ele>1559</ele>
        <time>2022-07-18T05:18:21Z</time>
      </trkpt>
      <trkpt lat="44.7753" lon="6.73563">
        <ele>1557.6</ele>
        <time>2022-07-18T05:18:22Z</time>
      </trkpt>
      <trkpt lat="44.77515" lon="6.73571">
        <ele>1556</ele>
        <time>2022-07-18T05:18:23Z</time>
      </trkpt>
      <trkpt lat="44.77501" lon="6.73577">
        <ele>1554.6</ele>
        <time>2022-07-18T05:18:24Z</time>
      </trkpt>
      <trkpt lat="44.77487" lon="6.73582">
        <ele>1553.2</ele>
        <time>2022-07-18T05:18:25Z</time>
      </trkpt>
      <trkpt lat="44.77473" lon="6.73587">
        <ele>1551.6</ele>
        <time>2022-07-18T05:18:26Z</time>
      </trkpt>
      <trkpt lat="44.77458" lon="6.73592">
        <ele>1550.4</ele>
        <time>2022-07-18T05:18:27Z</time>
      </trkpt>
      <trkpt lat="44.77443" lon="6.73597">
        <ele>1549</ele>
        <time>2022-07-18T05:18:28Z</time>
      </trkpt>
      <trkpt lat="44.77428" lon="6.73602">
        <ele>1547.8</ele>
        <time>2022-07-18T05:18:29Z</time>
      </trkpt>
      <trkpt lat="44.77413" lon="6.73607">
        <ele>1546.4</ele>
        <time>2022-07-18T05:18:30Z</time>
      </trkpt>
      <trkpt lat="44.77397" lon="6.73613">
        <ele>1545.2</ele>
        <time>2022-07-18T05:18:31Z</time>
      </trkpt>
      <trkpt lat="44.77382" lon="6.73618">
        <ele>1544</ele>
        <time>2022-07-18T05:18:32Z</time>
      </trkpt>
      <trkpt lat="44.77367" lon="6.73623">
        <ele>1542.8</ele>
        <time>2022-07-18T05:18:33Z</time>
      </trkpt>
      <trkpt lat="44.77353" lon="6.73628">
        <ele>1541.6</ele>
        <time>2022-07-18T05:18:34Z</time>
      </trkpt>
      <trkpt lat="44.77338" lon="6.73633">
        <ele>1540.2</ele>
        <time>2022-07-18T05:18:35Z</time>
      </trkpt>
      <trkpt lat="44.77323" lon="6.73636">
        <ele>1539</ele>
        <time>2022-07-18T05:18:36Z</time>
      </trkpt>
      <trkpt lat="44.77308" lon="6.73638">
        <ele>1537.8</ele>
        <time>2022-07-18T05:18:37Z</time>
      </trkpt>
      <trkpt lat="44.77294" lon="6.73639">
        <ele>1536.6</ele>
        <time>2022-07-18T05:18:38Z</time>
      </trkpt>
      <trkpt lat="44.77278" lon="6.73641">
        <ele>1535.6</ele>
        <time>2022-07-18T05:18:39Z</time>
      </trkpt>
      <trkpt lat="44.77263" lon="6.73642">
        <ele>1534.4</ele>
        <time>2022-07-18T05:18:40Z</time>
      </trkpt>
      <trkpt lat="44.77249" lon="6.73644">
        <ele>1533.2</ele>
        <time>2022-07-18T05:18:41Z</time>
      </trkpt>
      <trkpt lat="44.77234" lon="6.73646">
        <ele>1532.2</ele>
        <time>2022-07-18T05:18:42Z</time>
      </trkpt>
      <trkpt lat="44.7722" lon="6.73647">
        <ele>1531</ele>
        <time>2022-07-18T05:18:43Z</time>
      </trkpt>
      <trkpt lat="44.77206" lon="6.73649">
        <ele>1530</ele>
        <time>2022-07-18T05:18:44Z</time>
      </trkpt>
      <trkpt lat="44.77192" lon="6.7365">
        <ele>1528.8</ele>
        <time>2022-07-18T05:18:45Z</time>
      </trkpt>
      <trkpt lat="44.77178" lon="6.73652">
        <ele>1528</ele>
        <time>2022-07-18T05:18:46Z</time>
      </trkpt>
      <trkpt lat="44.77164" lon="6.73654">
        <ele>1527</ele>
        <time>2022-07-18T05:18:47Z</time>
      </trkpt>
      <trkpt lat="44.77149" lon="6.73657">
        <ele>1526</ele>
        <time>2022-07-18T05:18:48Z</time>
      </trkpt>
      <trkpt lat="44.77135" lon="6.73659">
        <ele>1524.8</ele>
        <time>2022-07-18T05:18:49Z</time>
      </trkpt>
      <trkpt lat="44.77121" lon="6.73661">
        <ele>1523.8</ele>
        <time>2022-07-18T05:18:50Z</time>
      </trkpt>
      <trkpt lat="44.77107" lon="6.73663">
        <ele>1522.8</ele>
        <time>2022-07-18T05:18:51Z</time>
      </trkpt>
      <trkpt lat="44.77093" lon="6.73666">
        <ele>1521.8</ele>
        <time>2022-07-18T05:18:52Z</time>
      </trkpt>
      <trkpt lat="44.7708" lon="6.73669">
        <ele>1520.8</ele>
        <time>2022-07-18T05:18:53Z</time>
      </trkpt>
      <trkpt lat="44.77065" lon="6.73671">
        <ele>1520</ele>
        <time>2022-07-18T05:18:54Z</time>
      </trkpt>
      <trkpt lat="44.77051" lon="6.73673">
        <ele>1518.8</ele>
        <time>2022-07-18T05:18:55Z</time>
      </trkpt>
      <trkpt lat="44.77037" lon="6.73675">
        <ele>1517.8</ele>
        <time>2022-07-18T05:18:56Z</time>
      </trkpt>
      <trkpt lat="44.77023" lon="6.73677">
        <ele>1516.6</ele>
        <time>2022-07-18T05:18:57Z</time>
      </trkpt>
      <trkpt lat="44.77009" lon="6.73679">
        <ele>1515.6</ele>
        <time>2022-07-18T05:18:58Z</time>
      </trkpt>
      <trkpt lat="44.76995" lon="6.7368">
        <ele>1514.6</ele>
        <time>2022-07-18T05:18:59Z</time>
      </trkpt>
      <trkpt lat="44.76981" lon="6.73682">
        <ele>1513.4</ele>
        <time>2022-07-18T05:19:00Z</time>
      </trkpt>
      <trkpt lat="44.76967" lon="6.73685">
        <ele>1512.4</ele>
        <time>2022-07-18T05:19:01Z</time>
      </trkpt>
      <trkpt lat="44.76955" lon="6.73689">
        <ele>1511.6</ele>
        <time>2022-07-18T05:19:02Z</time>
      </trkpt>
      <trkpt lat="44.76942" lon="6.73694">
        <ele>1510.6</ele>
        <time>2022-07-18T05:19:03Z</time>
      </trkpt>
      <trkpt lat="44.7693" lon="6.737">
        <ele>1509.8</ele>
        <time>2022-07-18T05:19:04Z</time>
      </trkpt>
      <trkpt lat="44.76918" lon="6.73708">
        <ele>1508.8</ele>
        <time>2022-07-18T05:19:05Z</time>
      </trkpt>
      <trkpt lat="44.76907" lon="6.73716">
        <ele>1508</ele>
        <time>2022-07-18T05:19:06Z</time>
      </trkpt>
      <trkpt lat="44.76896" lon="6.73726">
        <ele>1507.2</ele>
        <time>2022-07-18T05:19:07Z</time>
      </trkpt>
      <trkpt lat="44.76885" lon="6.73735">
        <ele>1506.2</ele>
        <time>2022-07-18T05:19:08Z</time>
      </trkpt>
      <trkpt lat="44.76874" lon="6.73745">
        <ele>1505.4</ele>
        <time>2022-07-18T05:19:09Z</time>
      </trkpt>
      <trkpt lat="44.76865" lon="6.73754">
        <ele>1504.4</ele>
        <time>2022-07-18T05:19:10Z</time>
      </trkpt>
      <trkpt lat="44.76855" lon="6.73762">
        <ele>1503.6</ele>
        <time>2022-07-18T05:19:11Z</time>
      </trkpt>
      <trkpt lat="44.76846" lon="6.7377">
        <ele>1502.6</ele>
        <time>2022-07-18T05:19:12Z</time>
      </trkpt>
      <trkpt lat="44.76836" lon="6.73777">
        <ele>1501.8</ele>
        <time>2022-07-18T05:19:13Z</time>
      </trkpt>
      <trkpt lat="44.76826" lon="6.73784">
        <ele>1501.2</ele>
        <time>2022-07-18T05:19:14Z</time>
      </trkpt>
      <trkpt lat="44.76816" lon="6.73789">
        <ele>1500.4</ele>
        <time>2022-07-18T05:19:15Z</time>
      </trkpt>
      <trkpt lat="44.76807" lon="6.73794">
        <ele>1499.6</ele>
        <time>2022-07-18T05:19:16Z</time>
      </trkpt>
      <trkpt lat="44.76798" lon="6.73798">
        <ele>1498.8</ele>
        <time>2022-07-18T05:19:17Z</time>
      </trkpt>
      <trkpt lat="44.76789" lon="6.73803">
        <ele>1498.2</ele>
        <time>2022-07-18T05:19:18Z</time>
      </trkpt>
      <trkpt lat="44.7678" lon="6.7381">
        <ele>1497.4</ele>
        <time>2022-07-18T05:19:19Z</time>
      </trkpt>
      <trkpt lat="44.76771" lon="6.73816">
        <ele>1496.6</ele>
        <time>2022-07-18T05:19:20Z</time>
      </trkpt>
      <trkpt lat="44.76762" lon="6.73821">
        <ele>1496</ele>
        <time>2022-07-18T05:19:21Z</time>
      </trkpt>
      <trkpt lat="44.76753" lon="6.73825">
        <ele>1495.4</ele>
        <time>2022-07-18T05:19:22Z</time>
      </trkpt>
      <trkpt lat="44.76744" lon="6.7383">
        <ele>1494.8</ele>
        <time>2022-07-18T05:19:23Z</time>
      </trkpt>
      <trkpt lat="44.76736" lon="6.73836">
        <ele>1494.2</ele>
        <time>2022-07-18T05:19:24Z</time>
      </trkpt>
      <trkpt lat="44.76727" lon="6.73841">
        <ele>1493.6</ele>
        <time>2022-07-18T05:19:25Z</time>
      </trkpt>
      <trkpt lat="44.76719" lon="6.73847">
        <ele>1493</ele>
        <time>2022-07-18T05:19:26Z</time>
      </trkpt>
      <trkpt lat="44.76712" lon="6.73853">
        <ele>1492.4</ele>
        <time>2022-07-18T05:19:27Z</time>
      </trkpt>
      <trkpt lat="44.76704" lon="6.73858">
        <ele>1491.8</ele>
        <time>2022-07-18T05:19:28Z</time>
      </trkpt>
      <trkpt lat="44.76698" lon="6.73863">
        <ele>1491.2</ele>
        <time>2022-07-18T05:19:29Z</time>
      </trkpt>
      <trkpt lat="44.76691" lon="6.73868">
        <ele>1490.6</ele>
        <time>2022-07-18T05:19:30Z</time>
      </trkpt>
      <trkpt lat="44.76686" lon="6.73873">
        <ele>1490</ele>
        <time>2022-07-18T05:19:31Z</time>
      </trkpt>
      <trkpt lat="44.7668" lon="6.73879">
        <ele>1489.6</ele>
        <time>2022-07-18T05:19:32Z</time>
      </trkpt>
      <trkpt lat="44.76674" lon="6.73885">
        <ele>1489.2</ele>
        <time>2022-07-18T05:19:33Z</time>
      </trkpt>
      <trkpt lat="44.76668" lon="6.73892">
        <ele>1488.6</ele>
        <time>2022-07-18T05:19:34Z</time>
      </trkpt>
      <trkpt lat="44.76661" lon="6.739">
        <ele>1488</ele>
        <time>2022-07-18T05:19:35Z</time>
      </trkpt>
      <trkpt lat="44.76656" lon="6.73909">
        <ele>1487.6</ele>
        <time>2022-07-18T05:19:36Z</time>
      </trkpt>
      <trkpt lat="44.76649" lon="6.73917">
        <ele>1487</ele>
        <time>2022-07-18T05:19:37Z</time>
      </trkpt>
      <trkpt lat="44.76643" lon="6.73925">
        <ele>1486.4</ele>
        <time>2022-07-18T05:19:38Z</time>
      </trkpt>
      <trkpt lat="44.76636" lon="6.73933">
        <ele>1485.8</ele>
        <time>2022-07-18T05:19:39Z</time>
      </trkpt>
      <trkpt lat="44.7663" lon="6.7394">
        <ele>1485.2</ele>
        <time>2022-07-18T05:19:40Z</time>
      </trkpt>
      <trkpt lat="44.76623" lon="6.73947">
        <ele>1484.6</ele>
        <time>2022-07-18T05:19:41Z</time>
      </trkpt>
      <trkpt lat="44.76617" lon="6.73953">
        <ele>1484</ele>
        <time>2022-07-18T05:19:42Z</time>
      </trkpt>
      <trkpt lat="44.7661" lon="6.7396">
        <ele>1483.4</ele>
        <time>2022-07-18T05:19:43Z</time>
      </trkpt>
      <trkpt lat="44.76603" lon="6.73966">
        <ele>1482.8</ele>
        <time>2022-07-18T05:19:44Z</time>
      </trkpt>
      <trkpt lat="44.76597" lon="6.73973">
        <ele>1482.2</ele>
        <time>2022-07-18T05:19:45Z</time>
      </trkpt>
      <trkpt lat="44.7659" lon="6.73979">
        <ele>1481.6</ele>
        <time>2022-07-18T05:19:46Z</time>
      </trkpt>
      <trkpt lat="44.76582" lon="6.73985">
        <ele>1481</ele>
        <time>2022-07-18T05:19:47Z</time>
      </trkpt>
      <trkpt lat="44.76574" lon="6.73992">
        <ele>1480.4</ele>
        <time>2022-07-18T05:19:48Z</time>
      </trkpt>
      <trkpt lat="44.76567" lon="6.74001">
        <ele>1479.8</ele>
        <time>2022-07-18T05:19:49Z</time>
      </trkpt>
      <trkpt lat="44.76559" lon="6.74009">
        <ele>1479.2</ele>
        <time>2022-07-18T05:19:50Z</time>
      </trkpt>
      <trkpt lat="44.76551" lon="6.74018">
        <ele>1478.6</ele>
        <time>2022-07-18T05:19:51Z</time>
      </trkpt>
      <trkpt lat="44.76543" lon="6.74027">
        <ele>1478</ele>
        <time>2022-07-18T05:19:52Z</time>
      </trkpt>
      <trkpt lat="44.76534" lon="6.74036">
        <ele>1477.4</ele>
        <time>2022-07-18T05:19:53Z</time>
      </trkpt>
      <trkpt lat="44.76525" lon="6.74046">
        <ele>1476.8</ele>
        <time>2022-07-18T05:19:54Z</time>
      </trkpt>
      <trkpt lat="44.76517" lon="6.74056">
        <ele>1476</ele>
        <time>2022-07-18T05:19:55Z</time>
      </trkpt>
      <trkpt lat="44.76508" lon="6.74066">
        <ele>1475.2</ele>
        <time>2022-07-18T05:19:56Z</time>
      </trkpt>
      <trkpt lat="44.76499" lon="6.74077">
        <ele>1474.6</ele>
        <time>2022-07-18T05:19:57Z</time>
      </trkpt>
      <trkpt lat="44.7649" lon="6.74088">
        <ele>1473.8</ele>
        <time>2022-07-18T05:19:58Z</time>
      </trkpt>
      <trkpt lat="44.7648" lon="6.74098">
        <ele>1473</ele>
        <time>2022-07-18T05:19:59Z</time>
      </trkpt>
      <trkpt lat="44.76471" lon="6.74109">
        <ele>1472</ele>
        <time>2022-07-18T05:20:00Z</time>
      </trkpt>
      <trkpt lat="44.76461" lon="6.7412">
        <ele>1471.2</ele>
        <time>2022-07-18T05:20:01Z</time>
      </trkpt>
      <trkpt lat="44.76451" lon="6.74132">
        <ele>1470.4</ele>
        <time>2022-07-18T05:20:02Z</time>
      </trkpt>
      <trkpt lat="44.76441" lon="6.74143">
        <ele>1469.6</ele>
        <time>2022-07-18T05:20:03Z</time>
      </trkpt>
      <trkpt lat="44.76431" lon="6.74154">
        <ele>1468.8</ele>
        <time>2022-07-18T05:20:04Z</time>
      </trkpt>
      <trkpt lat="44.76421" lon="6.74166">
        <ele>1468</ele>
        <time>2022-07-18T05:20:05Z</time>
      </trkpt>
      <trkpt lat="44.76411" lon="6.74177">
        <ele>1467.4</ele>
        <time>2022-07-18T05:20:06Z</time>
      </trkpt>
      <trkpt lat="44.76401" lon="6.74188">
        <ele>1466.6</ele>
        <time>2022-07-18T05:20:07Z</time>
      </trkpt>
      <trkpt lat="44.76391" lon="6.74198">
        <ele>1466</ele>
        <time>2022-07-18T05:20:08Z</time>
      </trkpt>
      <trkpt lat="44.76381" lon="6.74209">
        <ele>1465.4</ele>
        <time>2022-07-18T05:20:09Z</time>
      </trkpt>
      <trkpt lat="44.76371" lon="6.74219">
        <ele>1464.8</ele>
        <time>2022-07-18T05:20:10Z</time>
      </trkpt>
      <trkpt lat="44.76362" lon="6.7423">
        <ele>1464.4</ele>
        <time>2022-07-18T05:20:11Z</time>
      </trkpt>
      <trkpt lat="44.76353" lon="6.7424">
        <ele>1464.2</ele>
        <time>2022-07-18T05:20:12Z</time>
      </trkpt>
      <trkpt lat="44.76343" lon="6.7425">
        <ele>1463.8</ele>
        <time>2022-07-18T05:20:13Z</time>
      </trkpt>
      <trkpt lat="44.76334" lon="6.74259">
        <ele>1463.8</ele>
        <time>2022-07-18T05:20:14Z</time>
      </trkpt>
      <trkpt lat="44.76326" lon="6.74268">
        <ele>1463.8</ele>
        <time>2022-07-18T05:20:15Z</time>
      </trkpt>
      <trkpt lat="44.76318" lon="6.74276">
        <ele>1463.8</ele>
        <time>2022-07-18T05:20:16Z</time>
      </trkpt>
      <trkpt lat="44.7631" lon="6.74283">
        <ele>1463.8</ele>
        <time>2022-07-18T05:20:17Z</time>
      </trkpt>
      <trkpt lat="44.76302" lon="6.7429">
        <ele>1463.8</ele>
        <time>2022-07-18T05:20:18Z</time>
      </trkpt>
      <trkpt lat="44.76294" lon="6.74295">
        <ele>1464.2</ele>
        <time>2022-07-18T05:20:19Z</time>
      </trkpt>
      <trkpt lat="44.76287" lon="6.743">
        <ele>1464.6</ele>
        <time>2022-07-18T05:20:20Z</time>
      </trkpt>
      <trkpt lat="44.7628" lon="6.74303">
        <ele>1464.8</ele>
        <time>2022-07-18T05:20:21Z</time>
      </trkpt>
      <trkpt lat="44.76273" lon="6.74306">
        <ele>1465</ele>
        <time>2022-07-18T05:20:22Z</time>
      </trkpt>
      <trkpt lat="44.76266" lon="6.74309">
        <ele>1465.4</ele>
        <time>2022-07-18T05:20:23Z</time>
      </trkpt>
      <trkpt lat="44.76259" lon="6.74311">
        <ele>1465.6</ele>
        <time>2022-07-18T05:20:24Z</time>
      </trkpt>
      <trkpt lat="44.76252" lon="6.74313">
        <ele>1465.8</ele>
        <time>2022-07-18T05:20:25Z</time>
      </trkpt>
      <trkpt lat="44.76246" lon="6.74314">
        <ele>1466.2</ele>
        <time>2022-07-18T05:20:26Z</time>
      </trkpt>
      <trkpt lat="44.7624" lon="6.74316">
        <ele>1466.4</ele>
        <time>2022-07-18T05:20:27Z</time>
      </trkpt>
      <trkpt lat="44.76234" lon="6.74317">
        <ele>1466.8</ele>
        <time>2022-07-18T05:20:28Z</time>
      </trkpt>
      <trkpt lat="44.76228" lon="6.74319">
        <ele>1467</ele>
        <time>2022-07-18T05:20:29Z</time>
      </trkpt>
      <trkpt lat="44.76223" lon="6.74321">
        <ele>1467.4</ele>
        <time>2022-07-18T05:20:30Z</time>
      </trkpt>
      <trkpt lat="44.76218" lon="6.74322">
        <ele>1467.6</ele>
        <time>2022-07-18T05:20:31Z</time>
      </trkpt>
      <trkpt lat="44.76213" lon="6.74324">
        <ele>1467.8</ele>
        <time>2022-07-18T05:20:32Z</time>
      </trkpt>
      <trkpt lat="44.76208" lon="6.74327">
        <ele>1467.8</ele>
        <time>2022-07-18T05:20:33Z</time>
      </trkpt>
      <trkpt lat="44.76203" lon="6.74329">
        <ele>1468.2</ele>
        <time>2022-07-18T05:20:34Z</time>
      </trkpt>
      <trkpt lat="44.76198" lon="6.74332">
        <ele>1468.2</ele>
        <time>2022-07-18T05:20:35Z</time>
      </trkpt>
      <trkpt lat="44.76193" lon="6.74334">
        <ele>1468.6</ele>
        <time>2022-07-18T05:20:36Z</time>
      </trkpt>
      <trkpt lat="44.76189" lon="6.74337">
        <ele>1468.6</ele>
        <time>2022-07-18T05:20:37Z</time>
      </trkpt>
      <trkpt lat="44.76184" lon="6.74339">
        <ele>1468.8</ele>
        <time>2022-07-18T05:20:38Z</time>
      </trkpt>
      <trkpt lat="44.7618" lon="6.74343">
        <ele>1468.8</ele>
        <time>2022-07-18T05:20:39Z</time>
      </trkpt>
      <trkpt lat="44.76176" lon="6.74346">
        <ele>1469</ele>
        <time>2022-07-18T05:20:40Z</time>
      </trkpt>
      <trkpt lat="44.76172" lon="6.74349">
        <ele>1469</ele>
        <time>2022-07-18T05:20:41Z</time>
      </trkpt>
      <trkpt lat="44.76169" lon="6.74352">
        <ele>1469.4</ele>
        <time>2022-07-18T05:20:42Z</time>
      </trkpt>
      <trkpt lat="44.76165" lon="6.74355">
        <ele>1469.4</ele>
        <time>2022-07-18T05:20:43Z</time>
      </trkpt>
      <trkpt lat="44.76162" lon="6.7436">
        <ele>1469.4</ele>
        <time>2022-07-18T05:20:44Z</time>
      </trkpt>
      <trkpt lat="44.76158" lon="6.74364">
        <ele>1469.6</ele>
        <time>2022-07-18T05:20:45Z</time>
      </trkpt>
      <trkpt lat="44.76155" lon="6.74368">
        <ele>1469.6</ele>
        <time>2022-07-18T05:20:46Z</time>
      </trkpt>
      <trkpt lat="44.76151" lon="6.74372">
        <ele>1469.6</ele>
        <time>2022-07-18T05:20:47Z</time>
      </trkpt>
      <trkpt lat="44.76148" lon="6.74377">
        <ele>1469.6</ele>
        <time>2022-07-18T05:20:48Z</time>
      </trkpt>
      <trkpt lat="44.76146" lon="6.74382">
        <ele>1469.8</ele>
        <time>2022-07-18T05:20:49Z</time>
      </trkpt>
      <trkpt lat="44.76143" lon="6.74388">
        <ele>1469.8</ele>
        <time>2022-07-18T05:20:50Z</time>
      </trkpt>
      <trkpt lat="44.7614" lon="6.74393">
        <ele>1469.8</ele>
        <time>2022-07-18T05:20:51Z</time>
      </trkpt>
      <trkpt lat="44.76137" lon="6.74399">
        <ele>1469.8</ele>
        <time>2022-07-18T05:20:52Z</time>
      </trkpt>
      <trkpt lat="44.76135" lon="6.74405">
        <ele>1469.8</ele>
        <time>2022-07-18T05:20:53Z</time>
      </trkpt>
      <trkpt lat="44.76133" lon="6.74411">
        <ele>1469.6</ele>
        <time>2022-07-18T05:20:54Z</time>
      </trkpt>
      <trkpt lat="44.7613" lon="6.74417">
        <ele>1469.6</ele>
        <time>2022-07-18T05:20:55Z</time>
      </trkpt>
      <trkpt lat="44.76128" lon="6.74422">
        <ele>1469.6</ele>
        <time>2022-07-18T05:20:56Z</time>
      </trkpt>
      <trkpt lat="44.76126" lon="6.74428">
        <ele>1469.6</ele>
        <time>2022-07-18T05:20:57Z</time>
      </trkpt>
      <trkpt lat="44.76124" lon="6.74434">
        <ele>1469.6</ele>
        <time>2022-07-18T05:20:58Z</time>
      </trkpt>
      <trkpt lat="44.76122" lon="6.7444">
        <ele>1469.6</ele>
        <time>2022-07-18T05:20:59Z</time>
      </trkpt>
      <trkpt lat="44.7612" lon="6.74446">
        <ele>1469.6</ele>
        <time>2022-07-18T05:21:00Z</time>
      </trkpt>
      <trkpt lat="44.76117" lon="6.74451">
        <ele>1469.6</ele>
        <time>2022-07-18T05:21:01Z</time>
      </trkpt>
      <trkpt lat="44.76115" lon="6.74457">
        <ele>1469.6</ele>
        <time>2022-07-18T05:21:02Z</time>
      </trkpt>
      <trkpt lat="44.76112" lon="6.74463">
        <ele>1469.6</ele>
        <time>2022-07-18T05:21:03Z</time>
      </trkpt>
      <trkpt lat="44.7611" lon="6.74469">
        <ele>1469.6</ele>
        <time>2022-07-18T05:21:04Z</time>
      </trkpt>
      <trkpt lat="44.76107" lon="6.74474">
        <ele>1469.6</ele>
        <time>2022-07-18T05:21:05Z</time>
      </trkpt>
      <trkpt lat="44.76104" lon="6.74479">
        <ele>1469.6</ele>
        <time>2022-07-18T05:21:06Z</time>
      </trkpt>
      <trkpt lat="44.76101" lon="6.74484">
        <ele>1469.6</ele>
        <time>2022-07-18T05:21:07Z</time>
      </trkpt>
      <trkpt lat="44.76098" lon="6.74489">
        <ele>1469.8</ele>
        <time>2022-07-18T05:21:08Z</time>
      </trkpt>
      <trkpt lat="44.76095" lon="6.74495">
        <ele>1469.8</ele>
        <time>2022-07-18T05:21:09Z</time>
      </trkpt>
      <trkpt lat="44.76092" lon="6.745">
        <ele>1469.8</ele>
        <time>2022-07-18T05:21:10Z</time>
      </trkpt>
      <trkpt lat="44.76089" lon="6.74506">
        <ele>1470.2</ele>
        <time>2022-07-18T05:21:11Z</time>
      </trkpt>
      <trkpt lat="44.76086" lon="6.74511">
        <ele>1470.2</ele>
        <time>2022-07-18T05:21:12Z</time>
      </trkpt>
      <trkpt lat="44.76083" lon="6.74517">
        <ele>1470.6</ele>
        <time>2022-07-18T05:21:13Z</time>
      </trkpt>
      <trkpt lat="44.7608" lon="6.74522">
        <ele>1470.6</ele>
        <time>2022-07-18T05:21:14Z</time>
      </trkpt>
      <trkpt lat="44.76076" lon="6.74526">
        <ele>1470.8</ele>
        <time>2022-07-18T05:21:15Z</time>
      </trkpt>
      <trkpt lat="44.76072" lon="6.74529">
        <ele>1470.8</ele>
        <time>2022-07-18T05:21:16Z</time>
      </trkpt>
      <trkpt lat="44.76067" lon="6.74532">
        <ele>1470.8</ele>
        <time>2022-07-18T05:21:17Z</time>
      </trkpt>
      <trkpt lat="44.76062" lon="6.74535">
        <ele>1470.8</ele>
        <time>2022-07-18T05:21:18Z</time>
      </trkpt>
      <trkpt lat="44.76056" lon="6.74538">
        <ele>1470.8</ele>
        <time>2022-07-18T05:21:19Z</time>
      </trkpt>
      <trkpt lat="44.7605" lon="6.74541">
        <ele>1470.8</ele>
        <time>2022-07-18T05:21:20Z</time>
      </trkpt>
      <trkpt lat="44.76045" lon="6.74544">
        <ele>1470.8</ele>
        <time>2022-07-18T05:21:21Z</time>
      </trkpt>
      <trkpt lat="44.76039" lon="6.74547">
        <ele>1470.8</ele>
        <time>2022-07-18T05:21:22Z</time>
      </trkpt>
      <trkpt lat="44.76033" lon="6.7455">
        <ele>1470.2</ele>
        <time>2022-07-18T05:21:23Z</time>
      </trkpt>
      <trkpt lat="44.76026" lon="6.74554">
        <ele>1470.2</ele>
        <time>2022-07-18T05:21:24Z</time>
      </trkpt>
      <trkpt lat="44.7602" lon="6.74558">
        <ele>1469.8</ele>
        <time>2022-07-18T05:21:25Z</time>
      </trkpt>
      <trkpt lat="44.76014" lon="6.74562">
        <ele>1469.6</ele>
        <time>2022-07-18T05:21:26Z</time>
      </trkpt>
      <trkpt lat="44.76008" lon="6.74568">
        <ele>1469.4</ele>
        <time>2022-07-18T05:21:27Z</time>
      </trkpt>
      <trkpt lat="44.76002" lon="6.74574">
        <ele>1469</ele>
        <time>2022-07-18T05:21:28Z</time>
      </trkpt>
      <trkpt lat="44.75996" lon="6.74581">
        <ele>1468.8</ele>
        <time>2022-07-18T05:21:29Z</time>
      </trkpt>
      <trkpt lat="44.75989" lon="6.74589">
        <ele>1468.2</ele>
        <time>2022-07-18T05:21:30Z</time>
      </trkpt>
      <trkpt lat="44.75983" lon="6.74597">
        <ele>1467.6</ele>
        <time>2022-07-18T05:21:31Z</time>
      </trkpt>
      <trkpt lat="44.75976" lon="6.74606">
        <ele>1467</ele>
        <time>2022-07-18T05:21:32Z</time>
      </trkpt>
      <trkpt lat="44.75969" lon="6.74615">
        <ele>1466.4</ele>
        <time>2022-07-18T05:21:33Z</time>
      </trkpt>
      <trkpt lat="44.7596" lon="6.74621">
        <ele>1465.8</ele>
        <time>2022-07-18T05:21:34Z</time>
      </trkpt>
      <trkpt lat="44.75951" lon="6.74628">
        <ele>1465.2</ele>
        <time>2022-07-18T05:21:35Z</time>
      </trkpt>
      <trkpt lat="44.75943" lon="6.74635">
        <ele>1464.6</ele>
        <time>2022-07-18T05:21:36Z</time>
      </trkpt>
      <trkpt lat="44.75935" lon="6.74644">
        <ele>1464</ele>
        <time>2022-07-18T05:21:37Z</time>
      </trkpt>
      <trkpt lat="44.75928" lon="6.74655">
        <ele>1463.4</ele>
        <time>2022-07-18T05:21:38Z</time>
      </trkpt>
      <trkpt lat="44.7592" lon="6.74666">
        <ele>1462.6</ele>
        <time>2022-07-18T05:21:39Z</time>
      </trkpt>
      <trkpt lat="44.75912" lon="6.74677">
        <ele>1461.8</ele>
        <time>2022-07-18T05:21:40Z</time>
      </trkpt>
      <trkpt lat="44.75903" lon="6.74687">
        <ele>1461</ele>
        <time>2022-07-18T05:21:41Z</time>
      </trkpt>
      <trkpt lat="44.75894" lon="6.74697">
        <ele>1460</ele>
        <time>2022-07-18T05:21:42Z</time>
      </trkpt>
      <trkpt lat="44.75885" lon="6.74705">
        <ele>1459.2</ele>
        <time>2022-07-18T05:21:43Z</time>
      </trkpt>
      <trkpt lat="44.75876" lon="6.74713">
        <ele>1458.4</ele>
        <time>2022-07-18T05:21:44Z</time>
      </trkpt>
      <trkpt lat="44.75868" lon="6.74722">
        <ele>1457.8</ele>
        <time>2022-07-18T05:21:45Z</time>
      </trkpt>
      <trkpt lat="44.7586" lon="6.74732">
        <ele>1457</ele>
        <time>2022-07-18T05:21:46Z</time>
      </trkpt>
      <trkpt lat="44.75853" lon="6.74744">
        <ele>1456.2</ele>
        <time>2022-07-18T05:21:47Z</time>
      </trkpt>
      <trkpt lat="44.75847" lon="6.74758">
        <ele>1455.4</ele>
        <time>2022-07-18T05:21:48Z</time>
      </trkpt>
      <trkpt lat="44.7584" lon="6.74773">
        <ele>1454.4</ele>
        <time>2022-07-18T05:21:49Z</time>
      </trkpt>
      <trkpt lat="44.75832" lon="6.74787">
        <ele>1453.6</ele>
        <time>2022-07-18T05:21:50Z</time>
      </trkpt>
      <trkpt lat="44.75824" lon="6.748">
        <ele>1452.4</ele>
        <time>2022-07-18T05:21:51Z</time>
      </trkpt>
      <trkpt lat="44.75815" lon="6.74813">
        <ele>1451.2</ele>
        <time>2022-07-18T05:21:52Z</time>
      </trkpt>
      <trkpt lat="44.75806" lon="6.74826">
        <ele>1450</ele>
        <time>2022-07-18T05:21:53Z</time>
      </trkpt>
      <trkpt lat="44.75799" lon="6.74839">
        <ele>1448.8</ele>
        <time>2022-07-18T05:21:54Z</time>
      </trkpt>
      <trkpt lat="44.75792" lon="6.74852">
        <ele>1447.8</ele>
        <time>2022-07-18T05:21:55Z</time>
      </trkpt>
      <trkpt lat="44.75786" lon="6.74866">
        <ele>1446.6</ele>
        <time>2022-07-18T05:21:56Z</time>
      </trkpt>
      <trkpt lat="44.75781" lon="6.74882">
        <ele>1445.4</ele>
        <time>2022-07-18T05:21:57Z</time>
      </trkpt>
      <trkpt lat="44.75778" lon="6.74898">
        <ele>1444</ele>
        <time>2022-07-18T05:21:58Z</time>
      </trkpt>
      <trkpt lat="44.75775" lon="6.74913">
        <ele>1442.8</ele>
        <time>2022-07-18T05:21:59Z</time>
      </trkpt>
      <trkpt lat="44.75771" lon="6.74929">
        <ele>1441.8</ele>
        <time>2022-07-18T05:22:00Z</time>
      </trkpt>
      <trkpt lat="44.75765" lon="6.74943">
        <ele>1441</ele>
        <time>2022-07-18T05:22:01Z</time>
      </trkpt>
      <trkpt lat="44.75759" lon="6.74955">
        <ele>1440.2</ele>
        <time>2022-07-18T05:22:02Z</time>
      </trkpt>
      <trkpt lat="44.75751" lon="6.74967">
        <ele>1439.2</ele>
        <time>2022-07-18T05:22:03Z</time>
      </trkpt>
      <trkpt lat="44.75742" lon="6.74978">
        <ele>1438.2</ele>
        <time>2022-07-18T05:22:04Z</time>
      </trkpt>
      <trkpt lat="44.75732" lon="6.74987">
        <ele>1437.2</ele>
        <time>2022-07-18T05:22:05Z</time>
      </trkpt>
      <trkpt lat="44.75723" lon="6.74994">
        <ele>1436.4</ele>
        <time>2022-07-18T05:22:06Z</time>
      </trkpt>
      <trkpt lat="44.75713" lon="6.75001">
        <ele>1435.6</ele>
        <time>2022-07-18T05:22:07Z</time>
      </trkpt>
      <trkpt lat="44.75704" lon="6.75008">
        <ele>1434.8</ele>
        <time>2022-07-18T05:22:08Z</time>
      </trkpt>
      <trkpt lat="44.75695" lon="6.75015">
        <ele>1434</ele>
        <time>2022-07-18T05:22:09Z</time>
      </trkpt>
      <trkpt lat="44.75686" lon="6.75024">
        <ele>1433.4</ele>
        <time>2022-07-18T05:22:10Z</time>
      </trkpt>
      <trkpt lat="44.75678" lon="6.75032">
        <ele>1432.8</ele>
        <time>2022-07-18T05:22:11Z</time>
      </trkpt>
      <trkpt lat="44.75671" lon="6.75041">
        <ele>1432.4</ele>
        <time>2022-07-18T05:22:12Z</time>
      </trkpt>
      <trkpt lat="44.75665" lon="6.7505">
        <ele>1431.8</ele>
        <time>2022-07-18T05:22:13Z</time>
      </trkpt>
      <trkpt lat="44.75661" lon="6.75061">
        <ele>1431.4</ele>
        <time>2022-07-18T05:22:14Z</time>
      </trkpt>
      <trkpt lat="44.75659" lon="6.75073">
        <ele>1431</ele>
        <time>2022-07-18T05:22:15Z</time>
      </trkpt>
      <trkpt lat="44.75658" lon="6.75085">
        <ele>1430.6</ele>
        <time>2022-07-18T05:22:16Z</time>
      </trkpt>
      <trkpt lat="44.75658" lon="6.75097">
        <ele>1430.4</ele>
        <time>2022-07-18T05:22:17Z</time>
      </trkpt>
      <trkpt lat="44.75657" lon="6.75108">
        <ele>1430.4</ele>
        <time>2022-07-18T05:22:18Z</time>
      </trkpt>
      <trkpt lat="44.75656" lon="6.75119">
        <ele>1430.4</ele>
        <time>2022-07-18T05:22:19Z</time>
      </trkpt>
      <trkpt lat="44.75652" lon="6.75128">
        <ele>1430.4</ele>
        <time>2022-07-18T05:22:20Z</time>
      </trkpt>
      <trkpt lat="44.75647" lon="6.75136">
        <ele>1430.2</ele>
        <time>2022-07-18T05:22:21Z</time>
      </trkpt>
      <trkpt lat="44.75643" lon="6.75145">
        <ele>1430.2</ele>
        <time>2022-07-18T05:22:22Z</time>
      </trkpt>
      <trkpt lat="44.75638" lon="6.75154">
        <ele>1429.8</ele>
        <time>2022-07-18T05:22:23Z</time>
      </trkpt>
      <trkpt lat="44.75634" lon="6.75164">
        <ele>1429.6</ele>
        <time>2022-07-18T05:22:24Z</time>
      </trkpt>
      <trkpt lat="44.7563" lon="6.75174">
        <ele>1429.4</ele>
        <time>2022-07-18T05:22:25Z</time>
      </trkpt>
      <trkpt lat="44.75627" lon="6.75185">
        <ele>1429</ele>
        <time>2022-07-18T05:22:26Z</time>
      </trkpt>
      <trkpt lat="44.75625" lon="6.75198">
        <ele>1428.6</ele>
        <time>2022-07-18T05:22:27Z</time>
      </trkpt>
      <trkpt lat="44.75622" lon="6.7521">
        <ele>1428.2</ele>
        <time>2022-07-18T05:22:28Z</time>
      </trkpt>
      <trkpt lat="44.75618" lon="6.75222">
        <ele>1427.8</ele>
        <time>2022-07-18T05:22:29Z</time>
      </trkpt>
      <trkpt lat="44.75613" lon="6.75234">
        <ele>1427.2</ele>
        <time>2022-07-18T05:22:30Z</time>
      </trkpt>
      <trkpt lat="44.75606" lon="6.75244">
        <ele>1426.8</ele>
        <time>2022-07-18T05:22:31Z</time>
      </trkpt>
      <trkpt lat="44.75598" lon="6.75252">
        <ele>1426.2</ele>
        <time>2022-07-18T05:22:32Z</time>
      </trkpt>
      <trkpt lat="44.7559" lon="6.75258">
        <ele>1425.4</ele>
        <time>2022-07-18T05:22:33Z</time>
      </trkpt>
      <trkpt lat="44.75581" lon="6.75264">
        <ele>1424.8</ele>
        <time>2022-07-18T05:22:34Z</time>
      </trkpt>
      <trkpt lat="44.75572" lon="6.7527">
        <ele>1424</ele>
        <time>2022-07-18T05:22:35Z</time>
      </trkpt>
      <trkpt lat="44.75563" lon="6.75278">
        <ele>1423.2</ele>
        <time>2022-07-18T05:22:36Z</time>
      </trkpt>
      <trkpt lat="44.75554" lon="6.75287">
        <ele>1422.2</ele>
        <time>2022-07-18T05:22:37Z</time>
      </trkpt>
      <trkpt lat="44.75546" lon="6.75297">
        <ele>1421.4</ele>
        <time>2022-07-18T05:22:38Z</time>
      </trkpt>
      <trkpt lat="44.75538" lon="6.75308">
        <ele>1420.2</ele>
        <time>2022-07-18T05:22:39Z</time>
      </trkpt>
      <trkpt lat="44.75531" lon="6.75321">
        <ele>1419.2</ele>
        <time>2022-07-18T05:22:40Z</time>
      </trkpt>
      <trkpt lat="44.75525" lon="6.75334">
        <ele>1418.2</ele>
        <time>2022-07-18T05:22:41Z</time>
      </trkpt>
      <trkpt lat="44.75518" lon="6.75347">
        <ele>1417.2</ele>
        <time>2022-07-18T05:22:42Z</time>
      </trkpt>
      <trkpt lat="44.75512" lon="6.75361">
        <ele>1416</ele>
        <time>2022-07-18T05:22:43Z</time>
      </trkpt>
      <trkpt lat="44.75507" lon="6.75376">
        <ele>1415</ele>
        <time>2022-07-18T05:22:44Z</time>
      </trkpt>
      <trkpt lat="44.75502" lon="6.7539">
        <ele>1414</ele>
        <time>2022-07-18T05:22:45Z</time>
      </trkpt>
      <trkpt lat="44.75496" lon="6.75405">
        <ele>1413</ele>
        <time>2022-07-18T05:22:46Z</time>
      </trkpt>
      <trkpt lat="44.75491" lon="6.75417">
        <ele>1412</ele>
        <time>2022-07-18T05:22:47Z</time>
      </trkpt>
      <trkpt lat="44.75485" lon="6.75429">
        <ele>1411.2</ele>
        <time>2022-07-18T05:22:48Z</time>
      </trkpt>
      <trkpt lat="44.7548" lon="6.75441">
        <ele>1410.2</ele>
        <time>2022-07-18T05:22:49Z</time>
      </trkpt>
      <trkpt lat="44.75476" lon="6.75454">
        <ele>1409.2</ele>
        <time>2022-07-18T05:22:50Z</time>
      </trkpt>
      <trkpt lat="44.75472" lon="6.75467">
        <ele>1408.4</ele>
        <time>2022-07-18T05:22:51Z</time>
      </trkpt>
      <trkpt lat="44.75469" lon="6.75482">
        <ele>1407.6</ele>
        <time>2022-07-18T05:22:52Z</time>
      </trkpt>
      <trkpt lat="44.75468" lon="6.75497">
        <ele>1406.8</ele>
        <time>2022-07-18T05:22:53Z</time>
      </trkpt>
      <trkpt lat="44.75467" lon="6.75513">
        <ele>1405.8</ele>
        <time>2022-07-18T05:22:54Z</time>
      </trkpt>
      <trkpt lat="44.75467" lon="6.75529">
        <ele>1404.8</ele>
        <time>2022-07-18T05:22:55Z</time>
      </trkpt>
      <trkpt lat="44.75467" lon="6.75545">
        <ele>1404</ele>
        <time>2022-07-18T05:22:56Z</time>
      </trkpt>
      <trkpt lat="44.75466" lon="6.75562">
        <ele>1402.8</ele>
        <time>2022-07-18T05:22:57Z</time>
      </trkpt>
      <trkpt lat="44.75462" lon="6.75579">
        <ele>1401.6</ele>
        <time>2022-07-18T05:22:58Z</time>
      </trkpt>
      <trkpt lat="44.75457" lon="6.75595">
        <ele>1400.6</ele>
        <time>2022-07-18T05:22:59Z</time>
      </trkpt>
      <trkpt lat="44.7545" lon="6.75611">
        <ele>1399.4</ele>
        <time>2022-07-18T05:23:00Z</time>
      </trkpt>
      <trkpt lat="44.75443" lon="6.75626">
        <ele>1398.4</ele>
        <time>2022-07-18T05:23:01Z</time>
      </trkpt>
      <trkpt lat="44.75436" lon="6.7564">
        <ele>1397.2</ele>
        <time>2022-07-18T05:23:02Z</time>
      </trkpt>
      <trkpt lat="44.75431" lon="6.75655">
        <ele>1396.2</ele>
        <time>2022-07-18T05:23:03Z</time>
      </trkpt>
      <trkpt lat="44.75425" lon="6.75669">
        <ele>1395.2</ele>
        <time>2022-07-18T05:23:04Z</time>
      </trkpt>
      <trkpt lat="44.7542" lon="6.75683">
        <ele>1394</ele>
        <time>2022-07-18T05:23:05Z</time>
      </trkpt>
      <trkpt lat="44.75416" lon="6.75698">
        <ele>1392.8</ele>
        <time>2022-07-18T05:23:06Z</time>
      </trkpt>
      <trkpt lat="44.75414" lon="6.75713">
        <ele>1391.6</ele>
        <time>2022-07-18T05:23:07Z</time>
      </trkpt>
      <trkpt lat="44.75413" lon="6.75729">
        <ele>1390.4</ele>
        <time>2022-07-18T05:23:08Z</time>
      </trkpt>
      <trkpt lat="44.75412" lon="6.75743">
        <ele>1389.2</ele>
        <time>2022-07-18T05:23:09Z</time>
      </trkpt>
      <trkpt lat="44.75411" lon="6.75756">
        <ele>1388.2</ele>
        <time>2022-07-18T05:23:10Z</time>
      </trkpt>
      <trkpt lat="44.75409" lon="6.75768">
        <ele>1387.2</ele>
        <time>2022-07-18T05:23:11Z</time>
      </trkpt>
      <trkpt lat="44.75404" lon="6.75779">
        <ele>1386.2</ele>
        <time>2022-07-18T05:23:12Z</time>
      </trkpt>
      <trkpt lat="44.75399" lon="6.75788">
        <ele>1385.2</ele>
        <time>2022-07-18T05:23:13Z</time>
      </trkpt>
      <trkpt lat="44.75391" lon="6.75792">
        <ele>1384.4</ele>
        <time>2022-07-18T05:23:14Z</time>
      </trkpt>
      <trkpt lat="44.75383" lon="6.75796">
        <ele>1383.6</ele>
        <time>2022-07-18T05:23:15Z</time>
      </trkpt>
      <trkpt lat="44.75375" lon="6.758">
        <ele>1383</ele>
        <time>2022-07-18T05:23:16Z</time>
      </trkpt>
      <trkpt lat="44.75369" lon="6.75807">
        <ele>1382.2</ele>
        <time>2022-07-18T05:23:17Z</time>
      </trkpt>
      <trkpt lat="44.75364" lon="6.75817">
        <ele>1381.4</ele>
        <time>2022-07-18T05:23:18Z</time>
      </trkpt>
      <trkpt lat="44.7536" lon="6.75829">
        <ele>1380.4</ele>
        <time>2022-07-18T05:23:19Z</time>
      </trkpt>
      <trkpt lat="44.75357" lon="6.75842">
        <ele>1379.6</ele>
        <time>2022-07-18T05:23:20Z</time>
      </trkpt>
      <trkpt lat="44.75354" lon="6.75856">
        <ele>1378.4</ele>
        <time>2022-07-18T05:23:21Z</time>
      </trkpt>
      <trkpt lat="44.75352" lon="6.75872">
        <ele>1377.6</ele>
        <time>2022-07-18T05:23:22Z</time>
      </trkpt>
      <trkpt lat="44.7535" lon="6.75887">
        <ele>1376.6</ele>
        <time>2022-07-18T05:23:23Z</time>
      </trkpt>
      <trkpt lat="44.75347" lon="6.75903">
        <ele>1375.6</ele>
        <time>2022-07-18T05:23:24Z</time>
      </trkpt>
      <trkpt lat="44.75343" lon="6.75919">
        <ele>1374.6</ele>
        <time>2022-07-18T05:23:25Z</time>
      </trkpt>
      <trkpt lat="44.75337" lon="6.75935">
        <ele>1373.6</ele>
        <time>2022-07-18T05:23:26Z</time>
      </trkpt>
      <trkpt lat="44.75331" lon="6.7595">
        <ele>1372.6</ele>
        <time>2022-07-18T05:23:27Z</time>
      </trkpt>
      <trkpt lat="44.75323" lon="6.75964">
        <ele>1371.6</ele>
        <time>2022-07-18T05:23:28Z</time>
      </trkpt>
      <trkpt lat="44.75314" lon="6.75975">
        <ele>1370.8</ele>
        <time>2022-07-18T05:23:29Z</time>
      </trkpt>
      <trkpt lat="44.75306" lon="6.75987">
        <ele>1370</ele>
        <time>2022-07-18T05:23:30Z</time>
      </trkpt>
      <trkpt lat="44.753" lon="6.75999">
        <ele>1369.2</ele>
        <time>2022-07-18T05:23:31Z</time>
      </trkpt>
      <trkpt lat="44.75295" lon="6.76013">
        <ele>1368.4</ele>
        <time>2022-07-18T05:23:32Z</time>
      </trkpt>
      <trkpt lat="44.7529" lon="6.76026">
        <ele>1367.8</ele>
        <time>2022-07-18T05:23:33Z</time>
      </trkpt>
      <trkpt lat="44.75283" lon="6.76039">
        <ele>1367</ele>
        <time>2022-07-18T05:23:34Z</time>
      </trkpt>
      <trkpt lat="44.75275" lon="6.7605">
        <ele>1366.2</ele>
        <time>2022-07-18T05:23:35Z</time>
      </trkpt>
      <trkpt lat="44.75268" lon="6.76061">
        <ele>1365.6</ele>
        <time>2022-07-18T05:23:36Z</time>
      </trkpt>
      <trkpt lat="44.75262" lon="6.76073">
        <ele>1365</ele>
        <time>2022-07-18T05:23:37Z</time>
      </trkpt>
      <trkpt lat="44.75258" lon="6.76087">
        <ele>1364.4</ele>
        <time>2022-07-18T05:23:38Z</time>
      </trkpt>
      <trkpt lat="44.75255" lon="6.76101">
        <ele>1363.8</ele>
        <time>2022-07-18T05:23:39Z</time>
      </trkpt>
      <trkpt lat="44.75252" lon="6.76115">
        <ele>1363.2</ele>
        <time>2022-07-18T05:23:40Z</time>
      </trkpt>
      <trkpt lat="44.7525" lon="6.76129">
        <ele>1362.8</ele>
        <time>2022-07-18T05:23:41Z</time>
      </trkpt>
      <trkpt lat="44.75248" lon="6.76143">
        <ele>1362.4</ele>
        <time>2022-07-18T05:23:42Z</time>
      </trkpt>
      <trkpt lat="44.75245" lon="6.76155">
        <ele>1362.2</ele>
        <time>2022-07-18T05:23:43Z</time>
      </trkpt>
      <trkpt lat="44.7524" lon="6.76166">
        <ele>1361.8</ele>
        <time>2022-07-18T05:23:44Z</time>
      </trkpt>
      <trkpt lat="44.75233" lon="6.76174">
        <ele>1361.6</ele>
        <time>2022-07-18T05:23:45Z</time>
      </trkpt>
      <trkpt lat="44.75225" lon="6.76178">
        <ele>1361.4</ele>
        <time>2022-07-18T05:23:46Z</time>
      </trkpt>
      <trkpt lat="44.75216" lon="6.76182">
        <ele>1361</ele>
        <time>2022-07-18T05:23:47Z</time>
      </trkpt>
      <trkpt lat="44.75207" lon="6.76186">
        <ele>1360.8</ele>
        <time>2022-07-18T05:23:48Z</time>
      </trkpt>
      <trkpt lat="44.75198" lon="6.76192">
        <ele>1360.8</ele>
        <time>2022-07-18T05:23:49Z</time>
      </trkpt>
      <trkpt lat="44.7519" lon="6.76198">
        <ele>1360.4</ele>
        <time>2022-07-18T05:23:50Z</time>
      </trkpt>
      <trkpt lat="44.75183" lon="6.76205">
        <ele>1360.2</ele>
        <time>2022-07-18T05:23:51Z</time>
      </trkpt>
      <trkpt lat="44.75175" lon="6.76212">
        <ele>1360</ele>
        <time>2022-07-18T05:23:52Z</time>
      </trkpt>
      <trkpt lat="44.75168" lon="6.76221">
        <ele>1359.6</ele>
        <time>2022-07-18T05:23:53Z</time>
      </trkpt>
      <trkpt lat="44.75162" lon="6.76231">
        <ele>1359.2</ele>
        <time>2022-07-18T05:23:54Z</time>
      </trkpt>
      <trkpt lat="44.75156" lon="6.76242">
        <ele>1358.8</ele>
        <time>2022-07-18T05:23:55Z</time>
      </trkpt>
      <trkpt lat="44.75152" lon="6.76254">
        <ele>1358</ele>
        <time>2022-07-18T05:23:56Z</time>
      </trkpt>
      <trkpt lat="44.75147" lon="6.76267">
        <ele>1357.4</ele>
        <time>2022-07-18T05:23:57Z</time>
      </trkpt>
      <trkpt lat="44.7514" lon="6.76279">
        <ele>1356.8</ele>
        <time>2022-07-18T05:23:58Z</time>
      </trkpt>
      <trkpt lat="44.75134" lon="6.76289">
        <ele>1356.2</ele>
        <time>2022-07-18T05:23:59Z</time>
      </trkpt>
      <trkpt lat="44.75129" lon="6.76299">
        <ele>1355.4</ele>
        <time>2022-07-18T05:24:00Z</time>
      </trkpt>
      <trkpt lat="44.75124" lon="6.76311">
        <ele>1354.8</ele>
        <time>2022-07-18T05:24:01Z</time>
      </trkpt>
      <trkpt lat="44.75122" lon="6.76325">
        <ele>1354.2</ele>
        <time>2022-07-18T05:24:02Z</time>
      </trkpt>
      <trkpt lat="44.75119" lon="6.76339">
        <ele>1353.6</ele>
        <time>2022-07-18T05:24:03Z</time>
      </trkpt>
      <trkpt lat="44.75116" lon="6.76352">
        <ele>1353</ele>
        <time>2022-07-18T05:24:04Z</time>
      </trkpt>
      <trkpt lat="44.75112" lon="6.76366">
        <ele>1352.4</ele>
        <time>2022-07-18T05:24:05Z</time>
      </trkpt>
      <trkpt lat="44.75108" lon="6.7638">
        <ele>1351.8</ele>
        <time>2022-07-18T05:24:06Z</time>
      </trkpt>
      <trkpt lat="44.75103" lon="6.76393">
        <ele>1351.2</ele>
        <time>2022-07-18T05:24:07Z</time>
      </trkpt>
      <trkpt lat="44.75098" lon="6.76406">
        <ele>1350.8</ele>
        <time>2022-07-18T05:24:08Z</time>
      </trkpt>
      <trkpt lat="44.75092" lon="6.76418">
        <ele>1350.2</ele>
        <time>2022-07-18T05:24:09Z</time>
      </trkpt>
      <trkpt lat="44.75086" lon="6.7643">
        <ele>1349.8</ele>
        <time>2022-07-18T05:24:10Z</time>
      </trkpt>
      <trkpt lat="44.7508" lon="6.76443">
        <ele>1349.4</ele>
        <time>2022-07-18T05:24:11Z</time>
      </trkpt>
      <trkpt lat="44.75075" lon="6.76455">
        <ele>1349.2</ele>
        <time>2022-07-18T05:24:12Z</time>
      </trkpt>
      <trkpt lat="44.75069" lon="6.76467">
        <ele>1348.8</ele>
        <time>2022-07-18T05:24:13Z</time>
      </trkpt>
      <trkpt lat="44.75063" lon="6.76479">
        <ele>1348.2</ele>
        <time>2022-07-18T05:24:14Z</time>
      </trkpt>
      <trkpt lat="44.75057" lon="6.76491">
        <ele>1347.4</ele>
        <time>2022-07-18T05:24:15Z</time>
      </trkpt>
      <trkpt lat="44.7505" lon="6.76502">
        <ele>1347.2</ele>
        <time>2022-07-18T05:24:16Z</time>
      </trkpt>
      <trkpt lat="44.75044" lon="6.76514">
        <ele>1347.2</ele>
        <time>2022-07-18T05:24:17Z</time>
      </trkpt>
      <trkpt lat="44.75038" lon="6.76525">
        <ele>1346.6</ele>
        <time>2022-07-18T05:24:18Z</time>
      </trkpt>
      <trkpt lat="44.75033" lon="6.76537">
        <ele>1346.6</ele>
        <time>2022-07-18T05:24:19Z</time>
      </trkpt>
      <trkpt lat="44.75028" lon="6.76548">
        <ele>1346.4</ele>
        <time>2022-07-18T05:24:20Z</time>
      </trkpt>
      <trkpt lat="44.75023" lon="6.76559">
        <ele>1346.4</ele>
        <time>2022-07-18T05:24:21Z</time>
      </trkpt>
      <trkpt lat="44.7502" lon="6.76571">
        <ele>1346.4</ele>
        <time>2022-07-18T05:24:22Z</time>
      </trkpt>
      <trkpt lat="44.75018" lon="6.76582">
        <ele>1346.2</ele>
        <time>2022-07-18T05:24:23Z</time>
      </trkpt>
      <trkpt lat="44.75016" lon="6.76593">
        <ele>1346.2</ele>
        <time>2022-07-18T05:24:24Z</time>
      </trkpt>
      <trkpt lat="44.75014" lon="6.76604">
        <ele>1346.2</ele>
        <time>2022-07-18T05:24:25Z</time>
      </trkpt>
      <trkpt lat="44.7501" lon="6.76613">
        <ele>1346.2</ele>
        <time>2022-07-18T05:24:26Z</time>
      </trkpt>
      <trkpt lat="44.75004" lon="6.76621">
        <ele>1346.2</ele>
        <time>2022-07-18T05:24:27Z</time>
      </trkpt>
      <trkpt lat="44.74998" lon="6.76626">
        <ele>1346.2</ele>
        <time>2022-07-18T05:24:28Z</time>
      </trkpt>
      <trkpt lat="44.74991" lon="6.7663">
        <ele>1346.2</ele>
        <time>2022-07-18T05:24:29Z</time>
      </trkpt>
      <trkpt lat="44.74984" lon="6.76632">
        <ele>1346.2</ele>
        <time>2022-07-18T05:24:30Z</time>
      </trkpt>
      <trkpt lat="44.74977" lon="6.76634">
        <ele>1346.2</ele>
        <time>2022-07-18T05:24:31Z</time>
      </trkpt>
      <trkpt lat="44.7497" lon="6.76635">
        <ele>1346.2</ele>
        <time>2022-07-18T05:24:32Z</time>
      </trkpt>
      <trkpt lat="44.74962" lon="6.76636">
        <ele>1346.2</ele>
        <time>2022-07-18T05:24:33Z</time>
      </trkpt>
      <trkpt lat="44.74955" lon="6.76637">
        <ele>1345.8</ele>
        <time>2022-07-18T05:24:34Z</time>
      </trkpt>
      <trkpt lat="44.74948" lon="6.76639">
        <ele>1345.8</ele>
        <time>2022-07-18T05:24:35Z</time>
      </trkpt>
      <trkpt lat="44.74941" lon="6.76642">
        <ele>1345.6</ele>
        <time>2022-07-18T05:24:36Z</time>
      </trkpt>
      <trkpt lat="44.74935" lon="6.76646">
        <ele>1345.6</ele>
        <time>2022-07-18T05:24:37Z</time>
      </trkpt>
      <trkpt lat="44.74928" lon="6.76651">
        <ele>1345.2</ele>
        <time>2022-07-18T05:24:38Z</time>
      </trkpt>
      <trkpt lat="44.74921" lon="6.76656">
        <ele>1344.8</ele>
        <time>2022-07-18T05:24:39Z</time>
      </trkpt>
      <trkpt lat="44.74914" lon="6.7666">
        <ele>1344.6</ele>
        <time>2022-07-18T05:24:40Z</time>
      </trkpt>
      <trkpt lat="44.74906" lon="6.76663">
        <ele>1344.4</ele>
        <time>2022-07-18T05:24:41Z</time>
      </trkpt>
      <trkpt lat="44.74898" lon="6.76665">
        <ele>1344</ele>
        <time>2022-07-18T05:24:42Z</time>
      </trkpt>
      <trkpt lat="44.7489" lon="6.76667">
        <ele>1343.6</ele>
        <time>2022-07-18T05:24:43Z</time>
      </trkpt>
      <trkpt lat="44.74882" lon="6.76667">
        <ele>1343.2</ele>
        <time>2022-07-18T05:24:44Z</time>
      </trkpt>
      <trkpt lat="44.74873" lon="6.76665">
        <ele>1342.8</ele>
        <time>2022-07-18T05:24:45Z</time>
      </trkpt>
      <trkpt lat="44.74864" lon="6.76664">
        <ele>1342.6</ele>
        <time>2022-07-18T05:24:46Z</time>
      </trkpt>
      <trkpt lat="44.74855" lon="6.76662">
        <ele>1342</ele>
        <time>2022-07-18T05:24:47Z</time>
      </trkpt>
      <trkpt lat="44.74846" lon="6.76661">
        <ele>1341.6</ele>
        <time>2022-07-18T05:24:48Z</time>
      </trkpt>
      <trkpt lat="44.74838" lon="6.76659">
        <ele>1341.2</ele>
        <time>2022-07-18T05:24:49Z</time>
      </trkpt>
      <trkpt lat="44.74831" lon="6.76659">
        <ele>1340.8</ele>
        <time>2022-07-18T05:24:50Z</time>
      </trkpt>
      <trkpt lat="44.74824" lon="6.76661">
        <ele>1340.6</ele>
        <time>2022-07-18T05:24:51Z</time>
      </trkpt>
      <trkpt lat="44.74818" lon="6.76665">
        <ele>1340</ele>
        <time>2022-07-18T05:24:52Z</time>
      </trkpt>
      <trkpt lat="44.74813" lon="6.76671">
        <ele>1339.4</ele>
        <time>2022-07-18T05:24:53Z</time>
      </trkpt>
      <trkpt lat="44.74809" lon="6.76679">
        <ele>1338.8</ele>
        <time>2022-07-18T05:24:54Z</time>
      </trkpt>
      <trkpt lat="44.74806" lon="6.7669">
        <ele>1338</ele>
        <time>2022-07-18T05:24:55Z</time>
      </trkpt>
      <trkpt lat="44.74803" lon="6.76702">
        <ele>1337</ele>
        <time>2022-07-18T05:24:56Z</time>
      </trkpt>
      <trkpt lat="44.748" lon="6.76715">
        <ele>1336.2</ele>
        <time>2022-07-18T05:24:57Z</time>
      </trkpt>
      <trkpt lat="44.74797" lon="6.7673">
        <ele>1335.2</ele>
        <time>2022-07-18T05:24:58Z</time>
      </trkpt>
      <trkpt lat="44.74794" lon="6.76744">
        <ele>1334.2</ele>
        <time>2022-07-18T05:24:59Z</time>
      </trkpt>
      <trkpt lat="44.7479" lon="6.7676">
        <ele>1333.2</ele>
        <time>2022-07-18T05:25:00Z</time>
      </trkpt>
      <trkpt lat="44.74787" lon="6.76776">
        <ele>1332</ele>
        <time>2022-07-18T05:25:01Z</time>
      </trkpt>
      <trkpt lat="44.74784" lon="6.76793">
        <ele>1330.8</ele>
        <time>2022-07-18T05:25:02Z</time>
      </trkpt>
      <trkpt lat="44.74782" lon="6.76811">
        <ele>1329.8</ele>
        <time>2022-07-18T05:25:03Z</time>
      </trkpt>
      <trkpt lat="44.74781" lon="6.76829">
        <ele>1328.6</ele>
        <time>2022-07-18T05:25:04Z</time>
      </trkpt>
      <trkpt lat="44.74779" lon="6.76846">
        <ele>1327.6</ele>
        <time>2022-07-18T05:25:05Z</time>
      </trkpt>
      <trkpt lat="44.74776" lon="6.76863">
        <ele>1326.8</ele>
        <time>2022-07-18T05:25:06Z</time>
      </trkpt>
      <trkpt lat="44.74773" lon="6.76879">
        <ele>1325.8</ele>
        <time>2022-07-18T05:25:07Z</time>
      </trkpt>
      <trkpt lat="44.74769" lon="6.76894">
        <ele>1325</ele>
        <time>2022-07-18T05:25:08Z</time>
      </trkpt>
      <trkpt lat="44.74764" lon="6.76909">
        <ele>1324.2</ele>
        <time>2022-07-18T05:25:09Z</time>
      </trkpt>
      <trkpt lat="44.74757" lon="6.76921">
        <ele>1323.6</ele>
        <time>2022-07-18T05:25:10Z</time>
      </trkpt>
      <trkpt lat="44.74751" lon="6.76931">
        <ele>1322.8</ele>
        <time>2022-07-18T05:25:11Z</time>
      </trkpt>
      <trkpt lat="44.74744" lon="6.76942">
        <ele>1322.2</ele>
        <time>2022-07-18T05:25:12Z</time>
      </trkpt>
      <trkpt lat="44.74738" lon="6.76952">
        <ele>1321.6</ele>
        <time>2022-07-18T05:25:13Z</time>
      </trkpt>
      <trkpt lat="44.74733" lon="6.76962">
        <ele>1321</ele>
        <time>2022-07-18T05:25:14Z</time>
      </trkpt>
      <trkpt lat="44.74727" lon="6.76972">
        <ele>1320.6</ele>
        <time>2022-07-18T05:25:15Z</time>
      </trkpt>
      <trkpt lat="44.74722" lon="6.76981">
        <ele>1319.8</ele>
        <time>2022-07-18T05:25:16Z</time>
      </trkpt>
      <trkpt lat="44.74716" lon="6.76989">
        <ele>1319.4</ele>
        <time>2022-07-18T05:25:17Z</time>
      </trkpt>
      <trkpt lat="44.74712" lon="6.76997">
        <ele>1318.8</ele>
        <time>2022-07-18T05:25:18Z</time>
      </trkpt>
      <trkpt lat="44.74708" lon="6.77004">
        <ele>1318.4</ele>
        <time>2022-07-18T05:25:19Z</time>
      </trkpt>
      <trkpt lat="44.74705" lon="6.77011">
        <ele>1317.8</ele>
        <time>2022-07-18T05:25:20Z</time>
      </trkpt>
      <trkpt lat="44.74704" lon="6.77019">
        <ele>1317.2</ele>
        <time>2022-07-18T05:25:21Z</time>
      </trkpt>
      <trkpt lat="44.74706" lon="6.77028">
        <ele>1316.6</ele>
        <time>2022-07-18T05:25:22Z</time>
      </trkpt>
      <trkpt lat="44.74712" lon="6.7704">
        <ele>1316</ele>
        <time>2022-07-18T05:25:23Z</time>
      </trkpt>
      <trkpt lat="44.74718" lon="6.77051">
        <ele>1315.2</ele>
        <time>2022-07-18T05:25:24Z</time>
      </trkpt>
      <trkpt lat="44.74726" lon="6.77062">
        <ele>1314.4</ele>
        <time>2022-07-18T05:25:25Z</time>
      </trkpt>
      <trkpt lat="44.74732" lon="6.77075">
        <ele>1313.6</ele>
        <time>2022-07-18T05:25:26Z</time>
      </trkpt>
      <trkpt lat="44.74739" lon="6.77089">
        <ele>1312.8</ele>
        <time>2022-07-18T05:25:27Z</time>
      </trkpt>
      <trkpt lat="44.74745" lon="6.77101">
        <ele>1312</ele>
        <time>2022-07-18T05:25:28Z</time>
      </trkpt>
      <trkpt lat="44.74752" lon="6.77112">
        <ele>1311</ele>
        <time>2022-07-18T05:25:29Z</time>
      </trkpt>
      <trkpt lat="44.7476" lon="6.77121">
        <ele>1310.2</ele>
        <time>2022-07-18T05:25:30Z</time>
      </trkpt>
      <trkpt lat="44.74769" lon="6.7713">
        <ele>1309.6</ele>
        <time>2022-07-18T05:25:31Z</time>
      </trkpt>
      <trkpt lat="44.74778" lon="6.77139">
        <ele>1308.6</ele>
        <time>2022-07-18T05:25:32Z</time>
      </trkpt>
      <trkpt lat="44.74785" lon="6.77149">
        <ele>1307.8</ele>
        <time>2022-07-18T05:25:33Z</time>
      </trkpt>
      <trkpt lat="44.74789" lon="6.77163">
        <ele>1307</ele>
        <time>2022-07-18T05:25:34Z</time>
      </trkpt>
      <trkpt lat="44.74794" lon="6.77177">
        <ele>1306.2</ele>
        <time>2022-07-18T05:25:35Z</time>
      </trkpt>
      <trkpt lat="44.74799" lon="6.77188">
        <ele>1305.4</ele>
        <time>2022-07-18T05:25:36Z</time>
      </trkpt>
      <trkpt lat="44.74805" lon="6.77197">
        <ele>1304.6</ele>
        <time>2022-07-18T05:25:37Z</time>
      </trkpt>
      <trkpt lat="44.7481" lon="6.77204">
        <ele>1303.8</ele>
        <time>2022-07-18T05:25:38Z</time>
      </trkpt>
      <trkpt lat="44.74813" lon="6.77211">
        <ele>1303</ele>
        <time>2022-07-18T05:25:39Z</time>
      </trkpt>
      <trkpt lat="44.74815" lon="6.77219">
        <ele>1302.4</ele>
        <time>2022-07-18T05:25:40Z</time>
      </trkpt>
      <trkpt lat="44.74815" lon="6.77227">
        <ele>1301.6</ele>
        <time>2022-07-18T05:25:41Z</time>
      </trkpt>
      <trkpt lat="44.74814" lon="6.77234">
        <ele>1301</ele>
        <time>2022-07-18T05:25:42Z</time>
      </trkpt>
      <trkpt lat="44.74813" lon="6.7724">
        <ele>1300.4</ele>
        <time>2022-07-18T05:25:43Z</time>
      </trkpt>
      <trkpt lat="44.74812" lon="6.77245">
        <ele>1300</ele>
        <time>2022-07-18T05:25:44Z</time>
      </trkpt>
      <trkpt lat="44.74811" lon="6.7725">
        <ele>1299.6</ele>
        <time>2022-07-18T05:25:45Z</time>
      </trkpt>
      <trkpt lat="44.74811" lon="6.77256">
        <ele>1299.2</ele>
        <time>2022-07-18T05:25:46Z</time>
      </trkpt>
      <trkpt lat="44.74812" lon="6.77262">
        <ele>1299</ele>
        <time>2022-07-18T05:25:47Z</time>
      </trkpt>
      <trkpt lat="44.74814" lon="6.77267">
        <ele>1299</ele>
        <time>2022-07-18T05:25:48Z</time>
      </trkpt>
      <trkpt lat="44.74818" lon="6.77272">
        <ele>1298.8</ele>
        <time>2022-07-18T05:25:49Z</time>
      </trkpt>
      <trkpt lat="44.74822" lon="6.77277">
        <ele>1298.8</ele>
        <time>2022-07-18T05:25:50Z</time>
      </trkpt>
      <trkpt lat="44.74827" lon="6.77281">
        <ele>1298.4</ele>
        <time>2022-07-18T05:25:51Z</time>
      </trkpt>
      <trkpt lat="44.74832" lon="6.77286">
        <ele>1298.2</ele>
        <time>2022-07-18T05:25:52Z</time>
      </trkpt>
      <trkpt lat="44.74837" lon="6.77291">
        <ele>1297.8</ele>
        <time>2022-07-18T05:25:53Z</time>
      </trkpt>
      <trkpt lat="44.74843" lon="6.77297">
        <ele>1297.6</ele>
        <time>2022-07-18T05:25:54Z</time>
      </trkpt>
      <trkpt lat="44.74849" lon="6.77303">
        <ele>1297.2</ele>
        <time>2022-07-18T05:25:55Z</time>
      </trkpt>
      <trkpt lat="44.74855" lon="6.77309">
        <ele>1296.8</ele>
        <time>2022-07-18T05:25:56Z</time>
      </trkpt>
      <trkpt lat="44.74862" lon="6.77315">
        <ele>1296.2</ele>
        <time>2022-07-18T05:25:57Z</time>
      </trkpt>
      <trkpt lat="44.74869" lon="6.77321">
        <ele>1295.6</ele>
        <time>2022-07-18T05:25:58Z</time>
      </trkpt>
      <trkpt lat="44.74876" lon="6.77328">
        <ele>1295.2</ele>
        <time>2022-07-18T05:25:59Z</time>
      </trkpt>
      <trkpt lat="44.74883" lon="6.77335">
        <ele>1294.8</ele>
        <time>2022-07-18T05:26:00Z</time>
      </trkpt>
      <trkpt lat="44.74891" lon="6.77343">
        <ele>1294.4</ele>
        <time>2022-07-18T05:26:01Z</time>
      </trkpt>
      <trkpt lat="44.74899" lon="6.77351">
        <ele>1293.8</ele>
        <time>2022-07-18T05:26:02Z</time>
      </trkpt>
      <trkpt lat="44.74908" lon="6.77359">
        <ele>1293.4</ele>
        <time>2022-07-18T05:26:03Z</time>
      </trkpt>
      <trkpt lat="44.74915" lon="6.77368">
        <ele>1293</ele>
        <time>2022-07-18T05:26:04Z</time>
      </trkpt>
      <trkpt lat="44.7492" lon="6.77378">
        <ele>1292.6</ele>
        <time>2022-07-18T05:26:05Z</time>
      </trkpt>
      <trkpt lat="44.74925" lon="6.77388">
        <ele>1292.6</ele>
        <time>2022-07-18T05:26:06Z</time>
      </trkpt>
      <trkpt lat="44.7493" lon="6.77399">
        <ele>1292.2</ele>
        <time>2022-07-18T05:26:07Z</time>
      </trkpt>
      <trkpt lat="44.74935" lon="6.77409">
        <ele>1291.8</ele>
        <time>2022-07-18T05:26:08Z</time>
      </trkpt>
      <trkpt lat="44.74941" lon="6.77418">
        <ele>1291.6</ele>
        <time>2022-07-18T05:26:09Z</time>
      </trkpt>
      <trkpt lat="44.74947" lon="6.77427">
        <ele>1291.6</ele>
        <time>2022-07-18T05:26:10Z</time>
      </trkpt>
      <trkpt lat="44.74953" lon="6.77435">
        <ele>1291.2</ele>
        <time>2022-07-18T05:26:12Z</time>
      </trkpt>
      <trkpt lat="44.74959" lon="6.77443">
        <ele>1291.2</ele>
        <time>2022-07-18T05:26:13Z</time>
      </trkpt>
      <trkpt lat="44.74965" lon="6.77452">
        <ele>1291.2</ele>
        <time>2022-07-18T05:26:14Z</time>
      </trkpt>
      <trkpt lat="44.74971" lon="6.7746">
        <ele>1291</ele>
        <time>2022-07-18T05:26:15Z</time>
      </trkpt>
      <trkpt lat="44.74976" lon="6.77469">
        <ele>1291</ele>
        <time>2022-07-18T05:26:16Z</time>
      </trkpt>
      <trkpt lat="44.74981" lon="6.77479">
        <ele>1290.8</ele>
        <time>2022-07-18T05:26:17Z</time>
      </trkpt>
      <trkpt lat="44.74986" lon="6.77489">
        <ele>1290.8</ele>
        <time>2022-07-18T05:26:18Z</time>
      </trkpt>
      <trkpt lat="44.74991" lon="6.77499">
        <ele>1290.6</ele>
        <time>2022-07-18T05:26:19Z</time>
      </trkpt>
      <trkpt lat="44.74996" lon="6.77508">
        <ele>1290.6</ele>
        <time>2022-07-18T05:26:20Z</time>
      </trkpt>
      <trkpt lat="44.75002" lon="6.77516">
        <ele>1290.6</ele>
        <time>2022-07-18T05:26:21Z</time>
      </trkpt>
      <trkpt lat="44.75008" lon="6.77525">
        <ele>1290.2</ele>
        <time>2022-07-18T05:26:22Z</time>
      </trkpt>
      <trkpt lat="44.75014" lon="6.77533">
        <ele>1290.2</ele>
        <time>2022-07-18T05:26:23Z</time>
      </trkpt>
      <trkpt lat="44.75021" lon="6.7754">
        <ele>1289.8</ele>
        <time>2022-07-18T05:26:24Z</time>
      </trkpt>
      <trkpt lat="44.75028" lon="6.77548">
        <ele>1289.6</ele>
        <time>2022-07-18T05:26:25Z</time>
      </trkpt>
      <trkpt lat="44.75035" lon="6.77555">
        <ele>1289.4</ele>
        <time>2022-07-18T05:26:26Z</time>
      </trkpt>
      <trkpt lat="44.75049" lon="6.77569">
        <ele>1289.2</ele>
        <time>2022-07-18T05:26:27Z</time>
      </trkpt>
      <trkpt lat="44.75055" lon="6.77576">
        <ele>1289.2</ele>
        <time>2022-07-18T05:26:28Z</time>
      </trkpt>
      <trkpt lat="44.75062" lon="6.77583">
        <ele>1289</ele>
        <time>2022-07-18T05:26:29Z</time>
      </trkpt>
      <trkpt lat="44.75068" lon="6.77591">
        <ele>1289</ele>
        <time>2022-07-18T05:26:30Z</time>
      </trkpt>
      <trkpt lat="44.75074" lon="6.776">
        <ele>1288.6</ele>
        <time>2022-07-18T05:26:31Z</time>
      </trkpt>
      <trkpt lat="44.75078" lon="6.7761">
        <ele>1288.6</ele>
        <time>2022-07-18T05:26:32Z</time>
      </trkpt>
      <trkpt lat="44.75083" lon="6.77619">
        <ele>1288.6</ele>
        <time>2022-07-18T05:26:33Z</time>
      </trkpt>
      <trkpt lat="44.75087" lon="6.77629">
        <ele>1288.6</ele>
        <time>2022-07-18T05:26:34Z</time>
      </trkpt>
      <trkpt lat="44.7509" lon="6.77638">
        <ele>1288.6</ele>
        <time>2022-07-18T05:26:35Z</time>
      </trkpt>
      <trkpt lat="44.75093" lon="6.77648">
        <ele>1288.6</ele>
        <time>2022-07-18T05:26:36Z</time>
      </trkpt>
      <trkpt lat="44.75096" lon="6.77657">
        <ele>1288.6</ele>
        <time>2022-07-18T05:26:37Z</time>
      </trkpt>
      <trkpt lat="44.75099" lon="6.77667">
        <ele>1288.6</ele>
        <time>2022-07-18T05:26:38Z</time>
      </trkpt>
      <trkpt lat="44.75103" lon="6.77675">
        <ele>1288.6</ele>
        <time>2022-07-18T05:26:39Z</time>
      </trkpt>
      <trkpt lat="44.75107" lon="6.77683">
        <ele>1288.6</ele>
        <time>2022-07-18T05:26:40Z</time>
      </trkpt>
      <trkpt lat="44.75112" lon="6.7769">
        <ele>1288.4</ele>
        <time>2022-07-18T05:26:41Z</time>
      </trkpt>
      <trkpt lat="44.75118" lon="6.77696">
        <ele>1288.4</ele>
        <time>2022-07-18T05:26:42Z</time>
      </trkpt>
      <trkpt lat="44.75124" lon="6.777">
        <ele>1288.4</ele>
        <time>2022-07-18T05:26:43Z</time>
      </trkpt>
      <trkpt lat="44.7513" lon="6.77704">
        <ele>1288.4</ele>
        <time>2022-07-18T05:26:44Z</time>
      </trkpt>
      <trkpt lat="44.75136" lon="6.77707">
        <ele>1288.4</ele>
        <time>2022-07-18T05:26:45Z</time>
      </trkpt>
      <trkpt lat="44.75142" lon="6.77712">
        <ele>1288.4</ele>
        <time>2022-07-18T05:26:46Z</time>
      </trkpt>
      <trkpt lat="44.75148" lon="6.77717">
        <ele>1288.4</ele>
        <time>2022-07-18T05:26:47Z</time>
      </trkpt>
      <trkpt lat="44.75154" lon="6.77724">
        <ele>1288.4</ele>
        <time>2022-07-18T05:26:48Z</time>
      </trkpt>
      <trkpt lat="44.75159" lon="6.77731">
        <ele>1288.4</ele>
        <time>2022-07-18T05:26:49Z</time>
      </trkpt>
      <trkpt lat="44.75165" lon="6.77738">
        <ele>1288.4</ele>
        <time>2022-07-18T05:26:50Z</time>
      </trkpt>
      <trkpt lat="44.7517" lon="6.77745">
        <ele>1288.4</ele>
        <time>2022-07-18T05:26:51Z</time>
      </trkpt>
      <trkpt lat="44.75175" lon="6.77752">
        <ele>1288.4</ele>
        <time>2022-07-18T05:26:52Z</time>
      </trkpt>
      <trkpt lat="44.7518" lon="6.77759">
        <ele>1288.4</ele>
        <time>2022-07-18T05:26:53Z</time>
      </trkpt>
      <trkpt lat="44.75185" lon="6.77766">
        <ele>1288.4</ele>
        <time>2022-07-18T05:26:54Z</time>
      </trkpt>
      <trkpt lat="44.7519" lon="6.77772">
        <ele>1288.4</ele>
        <time>2022-07-18T05:26:55Z</time>
      </trkpt>
      <trkpt lat="44.75195" lon="6.77779">
        <ele>1288.4</ele>
        <time>2022-07-18T05:26:56Z</time>
      </trkpt>
      <trkpt lat="44.75199" lon="6.77786">
        <ele>1288.4</ele>
        <time>2022-07-18T05:26:57Z</time>
      </trkpt>
      <trkpt lat="44.75204" lon="6.77792">
        <ele>1288.4</ele>
        <time>2022-07-18T05:26:58Z</time>
      </trkpt>
      <trkpt lat="44.75209" lon="6.77798">
        <ele>1288.4</ele>
        <time>2022-07-18T05:26:59Z</time>
      </trkpt>
      <trkpt lat="44.75213" lon="6.77805">
        <ele>1288.4</ele>
        <time>2022-07-18T05:27:00Z</time>
      </trkpt>
      <trkpt lat="44.75217" lon="6.77812">
        <ele>1288.4</ele>
        <time>2022-07-18T05:27:01Z</time>
      </trkpt>
      <trkpt lat="44.75221" lon="6.7782">
        <ele>1288.4</ele>
        <time>2022-07-18T05:27:02Z</time>
      </trkpt>
      <trkpt lat="44.75225" lon="6.77827">
        <ele>1288.4</ele>
        <time>2022-07-18T05:27:03Z</time>
      </trkpt>
      <trkpt lat="44.75229" lon="6.77835">
        <ele>1288.4</ele>
        <time>2022-07-18T05:27:04Z</time>
      </trkpt>
      <trkpt lat="44.75233" lon="6.77843">
        <ele>1288.4</ele>
        <time>2022-07-18T05:27:05Z</time>
      </trkpt>
      <trkpt lat="44.75237" lon="6.7785">
        <ele>1288.4</ele>
        <time>2022-07-18T05:27:06Z</time>
      </trkpt>
      <trkpt lat="44.7524" lon="6.77858">
        <ele>1288.4</ele>
        <time>2022-07-18T05:27:07Z</time>
      </trkpt>
      <trkpt lat="44.75244" lon="6.77866">
        <ele>1288.4</ele>
        <time>2022-07-18T05:27:08Z</time>
      </trkpt>
      <trkpt lat="44.75249" lon="6.77873">
        <ele>1288.4</ele>
        <time>2022-07-18T05:27:09Z</time>
      </trkpt>
      <trkpt lat="44.75253" lon="6.7788">
        <ele>1288.2</ele>
        <time>2022-07-18T05:27:10Z</time>
      </trkpt>
      <trkpt lat="44.75257" lon="6.77886">
        <ele>1288.2</ele>
        <time>2022-07-18T05:27:11Z</time>
      </trkpt>
      <trkpt lat="44.75262" lon="6.77892">
        <ele>1288.2</ele>
        <time>2022-07-18T05:27:12Z</time>
      </trkpt>
      <trkpt lat="44.75267" lon="6.77898">
        <ele>1288.2</ele>
        <time>2022-07-18T05:27:13Z</time>
      </trkpt>
      <trkpt lat="44.75271" lon="6.77905">
        <ele>1288</ele>
        <time>2022-07-18T05:27:14Z</time>
      </trkpt>
      <trkpt lat="44.75276" lon="6.77911">
        <ele>1288</ele>
        <time>2022-07-18T05:27:15Z</time>
      </trkpt>
      <trkpt lat="44.7528" lon="6.77918">
        <ele>1288</ele>
        <time>2022-07-18T05:27:16Z</time>
      </trkpt>
      <trkpt lat="44.75284" lon="6.77925">
        <ele>1288</ele>
        <time>2022-07-18T05:27:17Z</time>
      </trkpt>
      <trkpt lat="44.75289" lon="6.77932">
        <ele>1288</ele>
        <time>2022-07-18T05:27:18Z</time>
      </trkpt>
      <trkpt lat="44.75292" lon="6.7794">
        <ele>1288</ele>
        <time>2022-07-18T05:27:19Z</time>
      </trkpt>
      <trkpt lat="44.75296" lon="6.77947">
        <ele>1288</ele>
        <time>2022-07-18T05:27:20Z</time>
      </trkpt>
      <trkpt lat="44.75299" lon="6.77955">
        <ele>1288</ele>
        <time>2022-07-18T05:27:21Z</time>
      </trkpt>
      <trkpt lat="44.75303" lon="6.77962">
        <ele>1288</ele>
        <time>2022-07-18T05:27:22Z</time>
      </trkpt>
      <trkpt lat="44.75307" lon="6.77969">
        <ele>1288</ele>
        <time>2022-07-18T05:27:23Z</time>
      </trkpt>
      <trkpt lat="44.75311" lon="6.77975">
        <ele>1288.2</ele>
        <time>2022-07-18T05:27:24Z</time>
      </trkpt>
      <trkpt lat="44.75315" lon="6.77981">
        <ele>1288.2</ele>
        <time>2022-07-18T05:27:25Z</time>
      </trkpt>
      <trkpt lat="44.75319" lon="6.77987">
        <ele>1288.2</ele>
        <time>2022-07-18T05:27:26Z</time>
      </trkpt>
      <trkpt lat="44.75323" lon="6.77993">
        <ele>1288.6</ele>
        <time>2022-07-18T05:27:27Z</time>
      </trkpt>
      <trkpt lat="44.75328" lon="6.77998">
        <ele>1288.6</ele>
        <time>2022-07-18T05:27:28Z</time>
      </trkpt>
      <trkpt lat="44.75333" lon="6.78004">
        <ele>1288.6</ele>
        <time>2022-07-18T05:27:29Z</time>
      </trkpt>
      <trkpt lat="44.75337" lon="6.78009">
        <ele>1288.6</ele>
        <time>2022-07-18T05:27:30Z</time>
      </trkpt>
      <trkpt lat="44.75342" lon="6.78014">
        <ele>1288.6</ele>
        <time>2022-07-18T05:27:31Z</time>
      </trkpt>
      <trkpt lat="44.75347" lon="6.7802">
        <ele>1288.6</ele>
        <time>2022-07-18T05:27:32Z</time>
      </trkpt>
      <trkpt lat="44.75352" lon="6.78025">
        <ele>1288.6</ele>
        <time>2022-07-18T05:27:33Z</time>
      </trkpt>
      <trkpt lat="44.75356" lon="6.78031">
        <ele>1288.6</ele>
        <time>2022-07-18T05:27:34Z</time>
      </trkpt>
      <trkpt lat="44.75361" lon="6.78036">
        <ele>1288.6</ele>
        <time>2022-07-18T05:27:35Z</time>
      </trkpt>
      <trkpt lat="44.75366" lon="6.78041">
        <ele>1288.8</ele>
        <time>2022-07-18T05:27:36Z</time>
      </trkpt>
      <trkpt lat="44.75371" lon="6.78047">
        <ele>1288.8</ele>
        <time>2022-07-18T05:27:37Z</time>
      </trkpt>
      <trkpt lat="44.75375" lon="6.78052">
        <ele>1288.8</ele>
        <time>2022-07-18T05:27:38Z</time>
      </trkpt>
      <trkpt lat="44.7538" lon="6.78058">
        <ele>1288.8</ele>
        <time>2022-07-18T05:27:39Z</time>
      </trkpt>
      <trkpt lat="44.75384" lon="6.78062">
        <ele>1288.8</ele>
        <time>2022-07-18T05:27:40Z</time>
      </trkpt>
      <trkpt lat="44.75389" lon="6.78067">
        <ele>1289.2</ele>
        <time>2022-07-18T05:27:41Z</time>
      </trkpt>
      <trkpt lat="44.75394" lon="6.78072">
        <ele>1289.2</ele>
        <time>2022-07-18T05:27:42Z</time>
      </trkpt>
      <trkpt lat="44.75398" lon="6.78076">
        <ele>1289.2</ele>
        <time>2022-07-18T05:27:43Z</time>
      </trkpt>
      <trkpt lat="44.75403" lon="6.78082">
        <ele>1289.2</ele>
        <time>2022-07-18T05:27:44Z</time>
      </trkpt>
      <trkpt lat="44.75407" lon="6.78087">
        <ele>1289.4</ele>
        <time>2022-07-18T05:27:45Z</time>
      </trkpt>
      <trkpt lat="44.75411" lon="6.78093">
        <ele>1289.4</ele>
        <time>2022-07-18T05:27:46Z</time>
      </trkpt>
      <trkpt lat="44.75415" lon="6.78098">
        <ele>1289.8</ele>
        <time>2022-07-18T05:27:47Z</time>
      </trkpt>
      <trkpt lat="44.75419" lon="6.78104">
        <ele>1289.8</ele>
        <time>2022-07-18T05:27:48Z</time>
      </trkpt>
      <trkpt lat="44.75422" lon="6.7811">
        <ele>1290</ele>
        <time>2022-07-18T05:27:49Z</time>
      </trkpt>
      <trkpt lat="44.75425" lon="6.78116">
        <ele>1290.2</ele>
        <time>2022-07-18T05:27:50Z</time>
      </trkpt>
      <trkpt lat="44.75429" lon="6.78122">
        <ele>1290.2</ele>
        <time>2022-07-18T05:27:51Z</time>
      </trkpt>
      <trkpt lat="44.75432" lon="6.78128">
        <ele>1290.6</ele>
        <time>2022-07-18T05:27:52Z</time>
      </trkpt>
      <trkpt lat="44.75435" lon="6.78134">
        <ele>1290.6</ele>
        <time>2022-07-18T05:27:53Z</time>
      </trkpt>
      <trkpt lat="44.75437" lon="6.7814">
        <ele>1290.8</ele>
        <time>2022-07-18T05:27:54Z</time>
      </trkpt>
      <trkpt lat="44.7544" lon="6.78147">
        <ele>1290.8</ele>
        <time>2022-07-18T05:27:55Z</time>
      </trkpt>
      <trkpt lat="44.75442" lon="6.78153">
        <ele>1291.2</ele>
        <time>2022-07-18T05:27:56Z</time>
      </trkpt>
      <trkpt lat="44.75443" lon="6.78159">
        <ele>1291.4</ele>
        <time>2022-07-18T05:27:57Z</time>
      </trkpt>
      <trkpt lat="44.75445" lon="6.78165">
        <ele>1291.4</ele>
        <time>2022-07-18T05:27:58Z</time>
      </trkpt>
      <trkpt lat="44.75446" lon="6.78171">
        <ele>1291.8</ele>
        <time>2022-07-18T05:27:59Z</time>
      </trkpt>
      <trkpt lat="44.75448" lon="6.78177">
        <ele>1292</ele>
        <time>2022-07-18T05:28:00Z</time>
      </trkpt>
      <trkpt lat="44.7545" lon="6.78182">
        <ele>1292.2</ele>
        <time>2022-07-18T05:28:01Z</time>
      </trkpt>
      <trkpt lat="44.75452" lon="6.78188">
        <ele>1292.2</ele>
        <time>2022-07-18T05:28:02Z</time>
      </trkpt>
      <trkpt lat="44.75454" lon="6.78193">
        <ele>1292.6</ele>
        <time>2022-07-18T05:28:03Z</time>
      </trkpt>
      <trkpt lat="44.75455" lon="6.78198">
        <ele>1293</ele>
        <time>2022-07-18T05:28:04Z</time>
      </trkpt>
      <trkpt lat="44.75457" lon="6.78203">
        <ele>1293.2</ele>
        <time>2022-07-18T05:28:05Z</time>
      </trkpt>
      <trkpt lat="44.75458" lon="6.78208">
        <ele>1293.2</ele>
        <time>2022-07-18T05:28:06Z</time>
      </trkpt>
      <trkpt lat="44.75459" lon="6.78213">
        <ele>1293.6</ele>
        <time>2022-07-18T05:28:07Z</time>
      </trkpt>
      <trkpt lat="44.75461" lon="6.78219">
        <ele>1293.6</ele>
        <time>2022-07-18T05:28:08Z</time>
      </trkpt>
      <trkpt lat="44.75463" lon="6.78224">
        <ele>1294</ele>
        <time>2022-07-18T05:28:09Z</time>
      </trkpt>
      <trkpt lat="44.75465" lon="6.78229">
        <ele>1294.2</ele>
        <time>2022-07-18T05:28:10Z</time>
      </trkpt>
      <trkpt lat="44.75467" lon="6.78235">
        <ele>1294.2</ele>
        <time>2022-07-18T05:28:11Z</time>
      </trkpt>
      <trkpt lat="44.75468" lon="6.78241">
        <ele>1294.6</ele>
        <time>2022-07-18T05:28:12Z</time>
      </trkpt>
      <trkpt lat="44.75469" lon="6.78246">
        <ele>1294.8</ele>
        <time>2022-07-18T05:28:13Z</time>
      </trkpt>
      <trkpt lat="44.75471" lon="6.78252">
        <ele>1294.8</ele>
        <time>2022-07-18T05:28:14Z</time>
      </trkpt>
      <trkpt lat="44.75472" lon="6.78258">
        <ele>1295.2</ele>
        <time>2022-07-18T05:28:15Z</time>
      </trkpt>
      <trkpt lat="44.75473" lon="6.78263">
        <ele>1295.2</ele>
        <time>2022-07-18T05:28:16Z</time>
      </trkpt>
      <trkpt lat="44.75475" lon="6.78268">
        <ele>1295.6</ele>
        <time>2022-07-18T05:28:17Z</time>
      </trkpt>
      <trkpt lat="44.75477" lon="6.78274">
        <ele>1295.6</ele>
        <time>2022-07-18T05:28:18Z</time>
      </trkpt>
      <trkpt lat="44.75478" lon="6.78279">
        <ele>1296</ele>
        <time>2022-07-18T05:28:19Z</time>
      </trkpt>
      <trkpt lat="44.7548" lon="6.78285">
        <ele>1296.2</ele>
        <time>2022-07-18T05:28:20Z</time>
      </trkpt>
      <trkpt lat="44.75482" lon="6.7829">
        <ele>1296.2</ele>
        <time>2022-07-18T05:28:21Z</time>
      </trkpt>
      <trkpt lat="44.75484" lon="6.78295">
        <ele>1296.6</ele>
        <time>2022-07-18T05:28:22Z</time>
      </trkpt>
      <trkpt lat="44.75486" lon="6.78301">
        <ele>1296.6</ele>
        <time>2022-07-18T05:28:23Z</time>
      </trkpt>
      <trkpt lat="44.75488" lon="6.78306">
        <ele>1297</ele>
        <time>2022-07-18T05:28:24Z</time>
      </trkpt>
      <trkpt lat="44.75489" lon="6.78311">
        <ele>1297.2</ele>
        <time>2022-07-18T05:28:25Z</time>
      </trkpt>
      <trkpt lat="44.75491" lon="6.78316">
        <ele>1297.2</ele>
        <time>2022-07-18T05:28:26Z</time>
      </trkpt>
      <trkpt lat="44.75493" lon="6.78321">
        <ele>1297.6</ele>
        <time>2022-07-18T05:28:27Z</time>
      </trkpt>
      <trkpt lat="44.75495" lon="6.78325">
        <ele>1297.8</ele>
        <time>2022-07-18T05:28:28Z</time>
      </trkpt>
      <trkpt lat="44.75497" lon="6.7833">
        <ele>1298</ele>
        <time>2022-07-18T05:28:29Z</time>
      </trkpt>
      <trkpt lat="44.75499" lon="6.78335">
        <ele>1298.4</ele>
        <time>2022-07-18T05:28:30Z</time>
      </trkpt>
      <trkpt lat="44.755" lon="6.78339">
        <ele>1298.6</ele>
        <time>2022-07-18T05:28:31Z</time>
      </trkpt>
      <trkpt lat="44.75502" lon="6.78343">
        <ele>1298.6</ele>
        <time>2022-07-18T05:28:32Z</time>
      </trkpt>
      <trkpt lat="44.75503" lon="6.78348">
        <ele>1298.8</ele>
        <time>2022-07-18T05:28:33Z</time>
      </trkpt>
      <trkpt lat="44.75504" lon="6.78352">
        <ele>1298.8</ele>
        <time>2022-07-18T05:28:34Z</time>
      </trkpt>
      <trkpt lat="44.75506" lon="6.78357">
        <ele>1299.2</ele>
        <time>2022-07-18T05:28:35Z</time>
      </trkpt>
      <trkpt lat="44.75507" lon="6.78362">
        <ele>1299.2</ele>
        <time>2022-07-18T05:28:36Z</time>
      </trkpt>
      <trkpt lat="44.75509" lon="6.78367">
        <ele>1299.6</ele>
        <time>2022-07-18T05:28:37Z</time>
      </trkpt>
      <trkpt lat="44.7551" lon="6.78372">
        <ele>1299.6</ele>
        <time>2022-07-18T05:28:38Z</time>
      </trkpt>
      <trkpt lat="44.75512" lon="6.78376">
        <ele>1300</ele>
        <time>2022-07-18T05:28:39Z</time>
      </trkpt>
      <trkpt lat="44.75513" lon="6.78381">
        <ele>1300.2</ele>
        <time>2022-07-18T05:28:40Z</time>
      </trkpt>
      <trkpt lat="44.75515" lon="6.78386">
        <ele>1300.2</ele>
        <time>2022-07-18T05:28:41Z</time>
      </trkpt>
      <trkpt lat="44.75516" lon="6.78391">
        <ele>1300.4</ele>
        <time>2022-07-18T05:28:42Z</time>
      </trkpt>
      <trkpt lat="44.75518" lon="6.78396">
        <ele>1300.4</ele>
        <time>2022-07-18T05:28:43Z</time>
      </trkpt>
      <trkpt lat="44.75519" lon="6.78401">
        <ele>1300.8</ele>
        <time>2022-07-18T05:28:44Z</time>
      </trkpt>
      <trkpt lat="44.75521" lon="6.78406">
        <ele>1300.8</ele>
        <time>2022-07-18T05:28:45Z</time>
      </trkpt>
      <trkpt lat="44.75522" lon="6.7841">
        <ele>1301.2</ele>
        <time>2022-07-18T05:28:46Z</time>
      </trkpt>
      <trkpt lat="44.75524" lon="6.78415">
        <ele>1301.2</ele>
        <time>2022-07-18T05:28:47Z</time>
      </trkpt>
      <trkpt lat="44.75526" lon="6.7842">
        <ele>1301.4</ele>
        <time>2022-07-18T05:28:48Z</time>
      </trkpt>
      <trkpt lat="44.75527" lon="6.78425">
        <ele>1301.4</ele>
        <time>2022-07-18T05:28:49Z</time>
      </trkpt>
      <trkpt lat="44.75528" lon="6.7843">
        <ele>1301.8</ele>
        <time>2022-07-18T05:28:50Z</time>
      </trkpt>
      <trkpt lat="44.75529" lon="6.78435">
        <ele>1301.8</ele>
        <time>2022-07-18T05:28:51Z</time>
      </trkpt>
      <trkpt lat="44.7553" lon="6.7844">
        <ele>1302.2</ele>
        <time>2022-07-18T05:28:52Z</time>
      </trkpt>
      <trkpt lat="44.75531" lon="6.78445">
        <ele>1302.2</ele>
        <time>2022-07-18T05:28:53Z</time>
      </trkpt>
      <trkpt lat="44.75532" lon="6.7845">
        <ele>1302.6</ele>
        <time>2022-07-18T05:28:54Z</time>
      </trkpt>
      <trkpt lat="44.75533" lon="6.78455">
        <ele>1302.8</ele>
        <time>2022-07-18T05:28:55Z</time>
      </trkpt>
      <trkpt lat="44.75533" lon="6.78459">
        <ele>1302.8</ele>
        <time>2022-07-18T05:28:56Z</time>
      </trkpt>
      <trkpt lat="44.75534" lon="6.78464">
        <ele>1303.2</ele>
        <time>2022-07-18T05:28:57Z</time>
      </trkpt>
      <trkpt lat="44.75536" lon="6.78469">
        <ele>1303.2</ele>
        <time>2022-07-18T05:28:58Z</time>
      </trkpt>
      <trkpt lat="44.75537" lon="6.78473">
        <ele>1303.4</ele>
        <time>2022-07-18T05:28:59Z</time>
      </trkpt>
      <trkpt lat="44.75538" lon="6.78478">
        <ele>1303.4</ele>
        <time>2022-07-18T05:29:00Z</time>
      </trkpt>
      <trkpt lat="44.75539" lon="6.78483">
        <ele>1303.8</ele>
        <time>2022-07-18T05:29:01Z</time>
      </trkpt>
      <trkpt lat="44.7554" lon="6.78488">
        <ele>1303.8</ele>
        <time>2022-07-18T05:29:02Z</time>
      </trkpt>
      <trkpt lat="44.75541" lon="6.78493">
        <ele>1304.2</ele>
        <time>2022-07-18T05:29:03Z</time>
      </trkpt>
      <trkpt lat="44.75542" lon="6.78498">
        <ele>1304.2</ele>
        <time>2022-07-18T05:29:04Z</time>
      </trkpt>
      <trkpt lat="44.75542" lon="6.78503">
        <ele>1304.4</ele>
        <time>2022-07-18T05:29:05Z</time>
      </trkpt>
      <trkpt lat="44.75543" lon="6.78508">
        <ele>1304.4</ele>
        <time>2022-07-18T05:29:06Z</time>
      </trkpt>
      <trkpt lat="44.75544" lon="6.78512">
        <ele>1305</ele>
        <time>2022-07-18T05:29:07Z</time>
      </trkpt>
      <trkpt lat="44.75544" lon="6.78517">
        <ele>1305</ele>
        <time>2022-07-18T05:29:08Z</time>
      </trkpt>
      <trkpt lat="44.75545" lon="6.78522">
        <ele>1305.2</ele>
        <time>2022-07-18T05:29:09Z</time>
      </trkpt>
      <trkpt lat="44.75545" lon="6.78527">
        <ele>1305.2</ele>
        <time>2022-07-18T05:29:10Z</time>
      </trkpt>
      <trkpt lat="44.75546" lon="6.78531">
        <ele>1305.6</ele>
        <time>2022-07-18T05:29:11Z</time>
      </trkpt>
      <trkpt lat="44.75546" lon="6.78536">
        <ele>1305.6</ele>
        <time>2022-07-18T05:29:12Z</time>
      </trkpt>
      <trkpt lat="44.75546" lon="6.78541">
        <ele>1306</ele>
        <time>2022-07-18T05:29:13Z</time>
      </trkpt>
      <trkpt lat="44.75546" lon="6.78546">
        <ele>1306</ele>
        <time>2022-07-18T05:29:14Z</time>
      </trkpt>
      <trkpt lat="44.75546" lon="6.7855">
        <ele>1306.2</ele>
        <time>2022-07-18T05:29:15Z</time>
      </trkpt>
      <trkpt lat="44.75546" lon="6.78555">
        <ele>1306.2</ele>
        <time>2022-07-18T05:29:16Z</time>
      </trkpt>
      <trkpt lat="44.75546" lon="6.78561">
        <ele>1306.4</ele>
        <time>2022-07-18T05:29:17Z</time>
      </trkpt>
      <trkpt lat="44.75545" lon="6.78566">
        <ele>1306.4</ele>
        <time>2022-07-18T05:29:18Z</time>
      </trkpt>
      <trkpt lat="44.75545" lon="6.78571">
        <ele>1306.4</ele>
        <time>2022-07-18T05:29:19Z</time>
      </trkpt>
      <trkpt lat="44.75544" lon="6.78576">
        <ele>1306.6</ele>
        <time>2022-07-18T05:29:20Z</time>
      </trkpt>
      <trkpt lat="44.75543" lon="6.7858">
        <ele>1307</ele>
        <time>2022-07-18T05:29:21Z</time>
      </trkpt>
      <trkpt lat="44.75542" lon="6.78585">
        <ele>1307.2</ele>
        <time>2022-07-18T05:29:22Z</time>
      </trkpt>
      <trkpt lat="44.75541" lon="6.7859">
        <ele>1307.4</ele>
        <time>2022-07-18T05:29:23Z</time>
      </trkpt>
      <trkpt lat="44.7554" lon="6.78595">
        <ele>1307.4</ele>
        <time>2022-07-18T05:29:24Z</time>
      </trkpt>
      <trkpt lat="44.75539" lon="6.786">
        <ele>1307.8</ele>
        <time>2022-07-18T05:29:25Z</time>
      </trkpt>
      <trkpt lat="44.75538" lon="6.78605">
        <ele>1308</ele>
        <time>2022-07-18T05:29:26Z</time>
      </trkpt>
      <trkpt lat="44.75537" lon="6.7861">
        <ele>1308.2</ele>
        <time>2022-07-18T05:29:27Z</time>
      </trkpt>
      <trkpt lat="44.75536" lon="6.78615">
        <ele>1308.2</ele>
        <time>2022-07-18T05:29:28Z</time>
      </trkpt>
      <trkpt lat="44.75535" lon="6.78619">
        <ele>1308.6</ele>
        <time>2022-07-18T05:29:29Z</time>
      </trkpt>
      <trkpt lat="44.75534" lon="6.78624">
        <ele>1308.8</ele>
        <time>2022-07-18T05:29:30Z</time>
      </trkpt>
      <trkpt lat="44.75533" lon="6.78628">
        <ele>1308.8</ele>
        <time>2022-07-18T05:29:31Z</time>
      </trkpt>
      <trkpt lat="44.75532" lon="6.78633">
        <ele>1309.2</ele>
        <time>2022-07-18T05:29:32Z</time>
      </trkpt>
      <trkpt lat="44.75532" lon="6.78637">
        <ele>1309.2</ele>
        <time>2022-07-18T05:29:33Z</time>
      </trkpt>
      <trkpt lat="44.75531" lon="6.78641">
        <ele>1309.4</ele>
        <time>2022-07-18T05:29:34Z</time>
      </trkpt>
      <trkpt lat="44.75531" lon="6.78646">
        <ele>1309.6</ele>
        <time>2022-07-18T05:29:35Z</time>
      </trkpt>
      <trkpt lat="44.75531" lon="6.7865">
        <ele>1309.6</ele>
        <time>2022-07-18T05:29:36Z</time>
      </trkpt>
      <trkpt lat="44.75531" lon="6.78655">
        <ele>1310</ele>
        <time>2022-07-18T05:29:37Z</time>
      </trkpt>
      <trkpt lat="44.75532" lon="6.7866">
        <ele>1310.2</ele>
        <time>2022-07-18T05:29:38Z</time>
      </trkpt>
      <trkpt lat="44.75533" lon="6.78665">
        <ele>1310.2</ele>
        <time>2022-07-18T05:29:39Z</time>
      </trkpt>
      <trkpt lat="44.75535" lon="6.7867">
        <ele>1310.6</ele>
        <time>2022-07-18T05:29:40Z</time>
      </trkpt>
      <trkpt lat="44.75536" lon="6.78675">
        <ele>1310.6</ele>
        <time>2022-07-18T05:29:41Z</time>
      </trkpt>
      <trkpt lat="44.75538" lon="6.7868">
        <ele>1310.6</ele>
        <time>2022-07-18T05:29:42Z</time>
      </trkpt>
      <trkpt lat="44.7554" lon="6.78684">
        <ele>1311</ele>
        <time>2022-07-18T05:29:43Z</time>
      </trkpt>
      <trkpt lat="44.75543" lon="6.78689">
        <ele>1311</ele>
        <time>2022-07-18T05:29:44Z</time>
      </trkpt>
      <trkpt lat="44.75545" lon="6.78694">
        <ele>1311.2</ele>
        <time>2022-07-18T05:29:45Z</time>
      </trkpt>
      <trkpt lat="44.75547" lon="6.78698">
        <ele>1311.2</ele>
        <time>2022-07-18T05:29:46Z</time>
      </trkpt>
      <trkpt lat="44.75548" lon="6.78702">
        <ele>1311.6</ele>
        <time>2022-07-18T05:29:47Z</time>
      </trkpt>
      <trkpt lat="44.7555" lon="6.78706">
        <ele>1311.6</ele>
        <time>2022-07-18T05:29:48Z</time>
      </trkpt>
      <trkpt lat="44.75552" lon="6.7871">
        <ele>1312</ele>
        <time>2022-07-18T05:29:49Z</time>
      </trkpt>
      <trkpt lat="44.75555" lon="6.78713">
        <ele>1312.2</ele>
        <time>2022-07-18T05:29:50Z</time>
      </trkpt>
      <trkpt lat="44.75556" lon="6.78717">
        <ele>1312.2</ele>
        <time>2022-07-18T05:29:51Z</time>
      </trkpt>
      <trkpt lat="44.75558" lon="6.78721">
        <ele>1312.4</ele>
        <time>2022-07-18T05:29:52Z</time>
      </trkpt>
      <trkpt lat="44.7556" lon="6.78725">
        <ele>1312.6</ele>
        <time>2022-07-18T05:29:53Z</time>
      </trkpt>
      <trkpt lat="44.75562" lon="6.78729">
        <ele>1312.6</ele>
        <time>2022-07-18T05:29:54Z</time>
      </trkpt>
      <trkpt lat="44.75564" lon="6.78732">
        <ele>1313</ele>
        <time>2022-07-18T05:29:55Z</time>
      </trkpt>
      <trkpt lat="44.75565" lon="6.78736">
        <ele>1313</ele>
        <time>2022-07-18T05:29:56Z</time>
      </trkpt>
      <trkpt lat="44.75566" lon="6.7874">
        <ele>1313.4</ele>
        <time>2022-07-18T05:29:57Z</time>
      </trkpt>
      <trkpt lat="44.75568" lon="6.78744">
        <ele>1313.8</ele>
        <time>2022-07-18T05:29:58Z</time>
      </trkpt>
      <trkpt lat="44.75569" lon="6.78747">
        <ele>1313.8</ele>
        <time>2022-07-18T05:29:59Z</time>
      </trkpt>
      <trkpt lat="44.75571" lon="6.78751">
        <ele>1314</ele>
        <time>2022-07-18T05:30:00Z</time>
      </trkpt>
      <trkpt lat="44.75573" lon="6.78755">
        <ele>1314.2</ele>
        <time>2022-07-18T05:30:01Z</time>
      </trkpt>
      <trkpt lat="44.75575" lon="6.78758">
        <ele>1314.2</ele>
        <time>2022-07-18T05:30:02Z</time>
      </trkpt>
      <trkpt lat="44.75577" lon="6.78762">
        <ele>1314.6</ele>
        <time>2022-07-18T05:30:03Z</time>
      </trkpt>
      <trkpt lat="44.75579" lon="6.78765">
        <ele>1314.8</ele>
        <time>2022-07-18T05:30:04Z</time>
      </trkpt>
      <trkpt lat="44.75582" lon="6.78767">
        <ele>1315.2</ele>
        <time>2022-07-18T05:30:05Z</time>
      </trkpt>
      <trkpt lat="44.75584" lon="6.78769">
        <ele>1315.4</ele>
        <time>2022-07-18T05:30:06Z</time>
      </trkpt>
      <trkpt lat="44.75587" lon="6.7877">
        <ele>1315.6</ele>
        <time>2022-07-18T05:30:07Z</time>
      </trkpt>
      <trkpt lat="44.7559" lon="6.7877">
        <ele>1315.6</ele>
        <time>2022-07-18T05:30:08Z</time>
      </trkpt>
      <trkpt lat="44.75593" lon="6.7877">
        <ele>1315.8</ele>
        <time>2022-07-18T05:30:09Z</time>
      </trkpt>
      <trkpt lat="44.75596" lon="6.7877">
        <ele>1315.8</ele>
        <time>2022-07-18T05:30:10Z</time>
      </trkpt>
      <trkpt lat="44.75599" lon="6.78769">
        <ele>1316.2</ele>
        <time>2022-07-18T05:30:11Z</time>
      </trkpt>
      <trkpt lat="44.75602" lon="6.78769">
        <ele>1316.2</ele>
        <time>2022-07-18T05:30:12Z</time>
      </trkpt>
      <trkpt lat="44.75604" lon="6.78771">
        <ele>1316.6</ele>
        <time>2022-07-18T05:30:13Z</time>
      </trkpt>
      <trkpt lat="44.75607" lon="6.78774">
        <ele>1316.8</ele>
        <time>2022-07-18T05:30:14Z</time>
      </trkpt>
      <trkpt lat="44.75609" lon="6.78777">
        <ele>1316.8</ele>
        <time>2022-07-18T05:30:15Z</time>
      </trkpt>
      <trkpt lat="44.75611" lon="6.78779">
        <ele>1317.2</ele>
        <time>2022-07-18T05:30:16Z</time>
      </trkpt>
      <trkpt lat="44.75613" lon="6.78782">
        <ele>1317.2</ele>
        <time>2022-07-18T05:30:17Z</time>
      </trkpt>
      <trkpt lat="44.75615" lon="6.78785">
        <ele>1317.4</ele>
        <time>2022-07-18T05:30:18Z</time>
      </trkpt>
      <trkpt lat="44.75617" lon="6.78787">
        <ele>1317.4</ele>
        <time>2022-07-18T05:30:19Z</time>
      </trkpt>
      <trkpt lat="44.75619" lon="6.7879">
        <ele>1317.8</ele>
        <time>2022-07-18T05:30:20Z</time>
      </trkpt>
      <trkpt lat="44.75622" lon="6.78793">
        <ele>1317.8</ele>
        <time>2022-07-18T05:30:21Z</time>
      </trkpt>
      <trkpt lat="44.75624" lon="6.78796">
        <ele>1318.2</ele>
        <time>2022-07-18T05:30:22Z</time>
      </trkpt>
      <trkpt lat="44.75627" lon="6.78798">
        <ele>1318.2</ele>
        <time>2022-07-18T05:30:23Z</time>
      </trkpt>
      <trkpt lat="44.75629" lon="6.788">
        <ele>1318.6</ele>
        <time>2022-07-18T05:30:24Z</time>
      </trkpt>
      <trkpt lat="44.75632" lon="6.78803">
        <ele>1318.6</ele>
        <time>2022-07-18T05:30:25Z</time>
      </trkpt>
      <trkpt lat="44.75634" lon="6.78805">
        <ele>1318.8</ele>
        <time>2022-07-18T05:30:26Z</time>
      </trkpt>
      <trkpt lat="44.75636" lon="6.78806">
        <ele>1318.8</ele>
        <time>2022-07-18T05:30:27Z</time>
      </trkpt>
      <trkpt lat="44.75639" lon="6.78808">
        <ele>1319.2</ele>
        <time>2022-07-18T05:30:28Z</time>
      </trkpt>
      <trkpt lat="44.75642" lon="6.7881">
        <ele>1319.2</ele>
        <time>2022-07-18T05:30:29Z</time>
      </trkpt>
      <trkpt lat="44.75645" lon="6.78811">
        <ele>1319.4</ele>
        <time>2022-07-18T05:30:30Z</time>
      </trkpt>
      <trkpt lat="44.75648" lon="6.78812">
        <ele>1319.6</ele>
        <time>2022-07-18T05:30:31Z</time>
      </trkpt>
      <trkpt lat="44.75651" lon="6.78813">
        <ele>1319.6</ele>
        <time>2022-07-18T05:30:32Z</time>
      </trkpt>
      <trkpt lat="44.75654" lon="6.78814">
        <ele>1320</ele>
        <time>2022-07-18T05:30:33Z</time>
      </trkpt>
      <trkpt lat="44.75658" lon="6.78815">
        <ele>1320</ele>
        <time>2022-07-18T05:30:34Z</time>
      </trkpt>
      <trkpt lat="44.75661" lon="6.78816">
        <ele>1320.2</ele>
        <time>2022-07-18T05:30:35Z</time>
      </trkpt>
      <trkpt lat="44.75664" lon="6.78817">
        <ele>1320.4</ele>
        <time>2022-07-18T05:30:36Z</time>
      </trkpt>
      <trkpt lat="44.75667" lon="6.78818">
        <ele>1320.8</ele>
        <time>2022-07-18T05:30:37Z</time>
      </trkpt>
      <trkpt lat="44.7567" lon="6.78818">
        <ele>1321</ele>
        <time>2022-07-18T05:30:38Z</time>
      </trkpt>
      <trkpt lat="44.75673" lon="6.78819">
        <ele>1321</ele>
        <time>2022-07-18T05:30:39Z</time>
      </trkpt>
      <trkpt lat="44.75676" lon="6.78819">
        <ele>1321.4</ele>
        <time>2022-07-18T05:30:40Z</time>
      </trkpt>
      <trkpt lat="44.75679" lon="6.78819">
        <ele>1321.4</ele>
        <time>2022-07-18T05:30:41Z</time>
      </trkpt>
      <trkpt lat="44.75682" lon="6.78819">
        <ele>1321.6</ele>
        <time>2022-07-18T05:30:42Z</time>
      </trkpt>
      <trkpt lat="44.75685" lon="6.7882">
        <ele>1321.6</ele>
        <time>2022-07-18T05:30:43Z</time>
      </trkpt>
      <trkpt lat="44.75688" lon="6.78819">
        <ele>1322</ele>
        <time>2022-07-18T05:30:44Z</time>
      </trkpt>
      <trkpt lat="44.75691" lon="6.78819">
        <ele>1322</ele>
        <time>2022-07-18T05:30:45Z</time>
      </trkpt>
      <trkpt lat="44.75694" lon="6.7882">
        <ele>1322.2</ele>
        <time>2022-07-18T05:30:46Z</time>
      </trkpt>
      <trkpt lat="44.75697" lon="6.7882">
        <ele>1322.2</ele>
        <time>2022-07-18T05:30:47Z</time>
      </trkpt>
      <trkpt lat="44.75699" lon="6.78822">
        <ele>1322.4</ele>
        <time>2022-07-18T05:30:48Z</time>
      </trkpt>
      <trkpt lat="44.757" lon="6.78824">
        <ele>1322.4</ele>
        <time>2022-07-18T05:30:49Z</time>
      </trkpt>
      <trkpt lat="44.75699" lon="6.7883">
        <ele>1322.8</ele>
        <time>2022-07-18T05:30:50Z</time>
      </trkpt>
      <trkpt lat="44.757" lon="6.78835">
        <ele>1322.8</ele>
        <time>2022-07-18T05:30:51Z</time>
      </trkpt>
      <trkpt lat="44.75701" lon="6.7884">
        <ele>1323.2</ele>
        <time>2022-07-18T05:30:52Z</time>
      </trkpt>
      <trkpt lat="44.75702" lon="6.78844">
        <ele>1323.6</ele>
        <time>2022-07-18T05:30:53Z</time>
      </trkpt>
      <trkpt lat="44.75702" lon="6.78848">
        <ele>1323.6</ele>
        <time>2022-07-18T05:30:54Z</time>
      </trkpt>
      <trkpt lat="44.75702" lon="6.78851">
        <ele>1323.8</ele>
        <time>2022-07-18T05:30:55Z</time>
      </trkpt>
      <trkpt lat="44.757" lon="6.78855">
        <ele>1324</ele>
        <time>2022-07-18T05:30:56Z</time>
      </trkpt>
      <trkpt lat="44.75698" lon="6.78858">
        <ele>1324</ele>
        <time>2022-07-18T05:30:57Z</time>
      </trkpt>
      <trkpt lat="44.75696" lon="6.78861">
        <ele>1324.4</ele>
        <time>2022-07-18T05:30:58Z</time>
      </trkpt>
      <trkpt lat="44.75694" lon="6.78864">
        <ele>1324.6</ele>
        <time>2022-07-18T05:30:59Z</time>
      </trkpt>
      <trkpt lat="44.75692" lon="6.78866">
        <ele>1324.6</ele>
        <time>2022-07-18T05:31:00Z</time>
      </trkpt>
      <trkpt lat="44.75689" lon="6.78868">
        <ele>1325</ele>
        <time>2022-07-18T05:31:01Z</time>
      </trkpt>
      <trkpt lat="44.75687" lon="6.7887">
        <ele>1325.2</ele>
        <time>2022-07-18T05:31:02Z</time>
      </trkpt>
      <trkpt lat="44.75685" lon="6.78872">
        <ele>1325.4</ele>
        <time>2022-07-18T05:31:03Z</time>
      </trkpt>
      <trkpt lat="44.75682" lon="6.78874">
        <ele>1325.6</ele>
        <time>2022-07-18T05:31:04Z</time>
      </trkpt>
      <trkpt lat="44.75679" lon="6.78876">
        <ele>1325.6</ele>
        <time>2022-07-18T05:31:05Z</time>
      </trkpt>
      <trkpt lat="44.75676" lon="6.78877">
        <ele>1326</ele>
        <time>2022-07-18T05:31:06Z</time>
      </trkpt>
      <trkpt lat="44.75674" lon="6.7888">
        <ele>1326</ele>
        <time>2022-07-18T05:31:07Z</time>
      </trkpt>
      <trkpt lat="44.75671" lon="6.78882">
        <ele>1326.2</ele>
        <time>2022-07-18T05:31:08Z</time>
      </trkpt>
      <trkpt lat="44.75668" lon="6.78884">
        <ele>1326.2</ele>
        <time>2022-07-18T05:31:09Z</time>
      </trkpt>
      <trkpt lat="44.75665" lon="6.78885">
        <ele>1326.6</ele>
        <time>2022-07-18T05:31:10Z</time>
      </trkpt>
      <trkpt lat="44.75663" lon="6.78888">
        <ele>1326.6</ele>
        <time>2022-07-18T05:31:11Z</time>
      </trkpt>
      <trkpt lat="44.7566" lon="6.7889">
        <ele>1326.8</ele>
        <time>2022-07-18T05:31:12Z</time>
      </trkpt>
      <trkpt lat="44.75657" lon="6.78892">
        <ele>1326.8</ele>
        <time>2022-07-18T05:31:13Z</time>
      </trkpt>
      <trkpt lat="44.75655" lon="6.78894">
        <ele>1327.2</ele>
        <time>2022-07-18T05:31:14Z</time>
      </trkpt>
      <trkpt lat="44.75653" lon="6.78896">
        <ele>1327.2</ele>
        <time>2022-07-18T05:31:15Z</time>
      </trkpt>
      <trkpt lat="44.7565" lon="6.78899">
        <ele>1327.6</ele>
        <time>2022-07-18T05:31:16Z</time>
      </trkpt>
      <trkpt lat="44.75649" lon="6.78901">
        <ele>1327.6</ele>
        <time>2022-07-18T05:31:17Z</time>
      </trkpt>
      <trkpt lat="44.75647" lon="6.78905">
        <ele>1328</ele>
        <time>2022-07-18T05:31:18Z</time>
      </trkpt>
      <trkpt lat="44.75645" lon="6.78908">
        <ele>1328.2</ele>
        <time>2022-07-18T05:31:19Z</time>
      </trkpt>
      <trkpt lat="44.75644" lon="6.78911">
        <ele>1328.2</ele>
        <time>2022-07-18T05:31:20Z</time>
      </trkpt>
      <trkpt lat="44.75642" lon="6.78915">
        <ele>1328.6</ele>
        <time>2022-07-18T05:31:21Z</time>
      </trkpt>
      <trkpt lat="44.75641" lon="6.78919">
        <ele>1328.8</ele>
        <time>2022-07-18T05:31:22Z</time>
      </trkpt>
      <trkpt lat="44.75641" lon="6.78924">
        <ele>1329</ele>
        <time>2022-07-18T05:31:23Z</time>
      </trkpt>
      <trkpt lat="44.75641" lon="6.78928">
        <ele>1329.2</ele>
        <time>2022-07-18T05:31:24Z</time>
      </trkpt>
      <trkpt lat="44.75641" lon="6.78932">
        <ele>1329.4</ele>
        <time>2022-07-18T05:31:25Z</time>
      </trkpt>
      <trkpt lat="44.75641" lon="6.78936">
        <ele>1329.4</ele>
        <time>2022-07-18T05:31:26Z</time>
      </trkpt>
      <trkpt lat="44.75641" lon="6.7894">
        <ele>1329.8</ele>
        <time>2022-07-18T05:31:27Z</time>
      </trkpt>
      <trkpt lat="44.75642" lon="6.78944">
        <ele>1330</ele>
        <time>2022-07-18T05:31:28Z</time>
      </trkpt>
      <trkpt lat="44.75642" lon="6.78948">
        <ele>1330</ele>
        <time>2022-07-18T05:31:29Z</time>
      </trkpt>
      <trkpt lat="44.75642" lon="6.78952">
        <ele>1330</ele>
        <time>2022-07-18T05:31:30Z</time>
      </trkpt>
      <trkpt lat="44.75643" lon="6.78956">
        <ele>1330.2</ele>
        <time>2022-07-18T05:31:31Z</time>
      </trkpt>
      <trkpt lat="44.75643" lon="6.78961">
        <ele>1330.2</ele>
        <time>2022-07-18T05:31:32Z</time>
      </trkpt>
      <trkpt lat="44.75643" lon="6.78966">
        <ele>1330.2</ele>
        <time>2022-07-18T05:31:33Z</time>
      </trkpt>
      <trkpt lat="44.75644" lon="6.78972">
        <ele>1330.2</ele>
        <time>2022-07-18T05:31:34Z</time>
      </trkpt>
      <trkpt lat="44.75645" lon="6.78978">
        <ele>1330</ele>
        <time>2022-07-18T05:31:35Z</time>
      </trkpt>
      <trkpt lat="44.75646" lon="6.78985">
        <ele>1330</ele>
        <time>2022-07-18T05:31:36Z</time>
      </trkpt>
      <trkpt lat="44.75646" lon="6.78992">
        <ele>1329.6</ele>
        <time>2022-07-18T05:31:37Z</time>
      </trkpt>
      <trkpt lat="44.75647" lon="6.78997">
        <ele>1329.4</ele>
        <time>2022-07-18T05:31:38Z</time>
      </trkpt>
      <trkpt lat="44.75649" lon="6.79002">
        <ele>1329</ele>
        <time>2022-07-18T05:31:39Z</time>
      </trkpt>
      <trkpt lat="44.7565" lon="6.79005">
        <ele>1329</ele>
        <time>2022-07-18T05:31:40Z</time>
      </trkpt>
      <trkpt lat="44.75652" lon="6.79007">
        <ele>1328.6</ele>
        <time>2022-07-18T05:31:41Z</time>
      </trkpt>
      <trkpt lat="44.75653" lon="6.79009">
        <ele>1328.6</ele>
        <time>2022-07-18T05:31:42Z</time>
      </trkpt>
      <trkpt lat="44.75654" lon="6.7901">
        <ele>1328.2</ele>
        <time>2022-07-18T05:31:43Z</time>
      </trkpt>
      <trkpt lat="44.75656" lon="6.79011">
        <ele>1328</ele>
        <time>2022-07-18T05:31:44Z</time>
      </trkpt>
      <trkpt lat="44.75658" lon="6.79012">
        <ele>1328</ele>
        <time>2022-07-18T05:31:45Z</time>
      </trkpt>
      <trkpt lat="44.75659" lon="6.79012">
        <ele>1327.6</ele>
        <time>2022-07-18T05:31:46Z</time>
      </trkpt>
      <trkpt lat="44.75661" lon="6.79013">
        <ele>1327.6</ele>
        <time>2022-07-18T05:31:47Z</time>
      </trkpt>
      <trkpt lat="44.75663" lon="6.79015">
        <ele>1327.4</ele>
        <time>2022-07-18T05:31:48Z</time>
      </trkpt>
      <trkpt lat="44.75665" lon="6.79017">
        <ele>1327.4</ele>
        <time>2022-07-18T05:31:49Z</time>
      </trkpt>
      <trkpt lat="44.75668" lon="6.79018">
        <ele>1327.4</ele>
        <time>2022-07-18T05:31:50Z</time>
      </trkpt>
      <trkpt lat="44.75671" lon="6.79021">
        <ele>1327.4</ele>
        <time>2022-07-18T05:31:51Z</time>
      </trkpt>
      <trkpt lat="44.75674" lon="6.79026">
        <ele>1327.2</ele>
        <time>2022-07-18T05:31:52Z</time>
      </trkpt>
      <trkpt lat="44.75676" lon="6.79031">
        <ele>1327.2</ele>
        <time>2022-07-18T05:31:53Z</time>
      </trkpt>
      <trkpt lat="44.7568" lon="6.79036">
        <ele>1327.2</ele>
        <time>2022-07-18T05:31:54Z</time>
      </trkpt>
      <trkpt lat="44.75683" lon="6.79041">
        <ele>1327.2</ele>
        <time>2022-07-18T05:31:55Z</time>
      </trkpt>
      <trkpt lat="44.75686" lon="6.79047">
        <ele>1327.2</ele>
        <time>2022-07-18T05:31:56Z</time>
      </trkpt>
      <trkpt lat="44.75689" lon="6.79053">
        <ele>1326.8</ele>
        <time>2022-07-18T05:31:57Z</time>
      </trkpt>
      <trkpt lat="44.75691" lon="6.7906">
        <ele>1326.8</ele>
        <time>2022-07-18T05:31:58Z</time>
      </trkpt>
      <trkpt lat="44.75694" lon="6.79066">
        <ele>1326.8</ele>
        <time>2022-07-18T05:31:59Z</time>
      </trkpt>
      <trkpt lat="44.75696" lon="6.79072">
        <ele>1326.8</ele>
        <time>2022-07-18T05:32:00Z</time>
      </trkpt>
      <trkpt lat="44.75699" lon="6.79079">
        <ele>1326.4</ele>
        <time>2022-07-18T05:32:01Z</time>
      </trkpt>
      <trkpt lat="44.75701" lon="6.79087">
        <ele>1326.4</ele>
        <time>2022-07-18T05:32:02Z</time>
      </trkpt>
      <trkpt lat="44.75704" lon="6.79095">
        <ele>1326</ele>
        <time>2022-07-18T05:32:03Z</time>
      </trkpt>
      <trkpt lat="44.75706" lon="6.79104">
        <ele>1326</ele>
        <time>2022-07-18T05:32:04Z</time>
      </trkpt>
      <trkpt lat="44.75709" lon="6.79113">
        <ele>1325.6</ele>
        <time>2022-07-18T05:32:05Z</time>
      </trkpt>
      <trkpt lat="44.75713" lon="6.79121">
        <ele>1325.2</ele>
        <time>2022-07-18T05:32:06Z</time>
      </trkpt>
      <trkpt lat="44.75716" lon="6.79131">
        <ele>1324.6</ele>
        <time>2022-07-18T05:32:07Z</time>
      </trkpt>
      <trkpt lat="44.75719" lon="6.79141">
        <ele>1324.2</ele>
        <time>2022-07-18T05:32:08Z</time>
      </trkpt>
      <trkpt lat="44.75723" lon="6.79151">
        <ele>1323.8</ele>
        <time>2022-07-18T05:32:09Z</time>
      </trkpt>
      <trkpt lat="44.75727" lon="6.79162">
        <ele>1323.4</ele>
        <time>2022-07-18T05:32:10Z</time>
      </trkpt>
      <trkpt lat="44.75732" lon="6.79172">
        <ele>1322.8</ele>
        <time>2022-07-18T05:32:11Z</time>
      </trkpt>
      <trkpt lat="44.75737" lon="6.79182">
        <ele>1322.4</ele>
        <time>2022-07-18T05:32:12Z</time>
      </trkpt>
      <trkpt lat="44.75743" lon="6.79191">
        <ele>1321.8</ele>
        <time>2022-07-18T05:32:13Z</time>
      </trkpt>
      <trkpt lat="44.75749" lon="6.79201">
        <ele>1321.4</ele>
        <time>2022-07-18T05:32:14Z</time>
      </trkpt>
      <trkpt lat="44.75754" lon="6.79211">
        <ele>1321</ele>
        <time>2022-07-18T05:32:15Z</time>
      </trkpt>
      <trkpt lat="44.75759" lon="6.79222">
        <ele>1320.4</ele>
        <time>2022-07-18T05:32:16Z</time>
      </trkpt>
      <trkpt lat="44.75764" lon="6.79233">
        <ele>1319.6</ele>
        <time>2022-07-18T05:32:17Z</time>
      </trkpt>
      <trkpt lat="44.75769" lon="6.79244">
        <ele>1319.2</ele>
        <time>2022-07-18T05:32:18Z</time>
      </trkpt>
      <trkpt lat="44.75773" lon="6.79256">
        <ele>1318.6</ele>
        <time>2022-07-18T05:32:19Z</time>
      </trkpt>
      <trkpt lat="44.75778" lon="6.79268">
        <ele>1318</ele>
        <time>2022-07-18T05:32:20Z</time>
      </trkpt>
      <trkpt lat="44.75782" lon="6.79282">
        <ele>1317.4</ele>
        <time>2022-07-18T05:32:21Z</time>
      </trkpt>
      <trkpt lat="44.75785" lon="6.79296">
        <ele>1316.8</ele>
        <time>2022-07-18T05:32:22Z</time>
      </trkpt>
      <trkpt lat="44.75788" lon="6.79309">
        <ele>1316.2</ele>
        <time>2022-07-18T05:32:23Z</time>
      </trkpt>
      <trkpt lat="44.7579" lon="6.79324">
        <ele>1315.4</ele>
        <time>2022-07-18T05:32:24Z</time>
      </trkpt>
      <trkpt lat="44.75793" lon="6.79339">
        <ele>1314.6</ele>
        <time>2022-07-18T05:32:25Z</time>
      </trkpt>
      <trkpt lat="44.75796" lon="6.79354">
        <ele>1314</ele>
        <time>2022-07-18T05:32:26Z</time>
      </trkpt>
      <trkpt lat="44.75799" lon="6.7937">
        <ele>1313.2</ele>
        <time>2022-07-18T05:32:27Z</time>
      </trkpt>
      <trkpt lat="44.75801" lon="6.79384">
        <ele>1312.4</ele>
        <time>2022-07-18T05:32:28Z</time>
      </trkpt>
      <trkpt lat="44.75803" lon="6.79397">
        <ele>1311.6</ele>
        <time>2022-07-18T05:32:29Z</time>
      </trkpt>
      <trkpt lat="44.75803" lon="6.79409">
        <ele>1311</ele>
        <time>2022-07-18T05:32:30Z</time>
      </trkpt>
      <trkpt lat="44.75801" lon="6.79422">
        <ele>1310.4</ele>
        <time>2022-07-18T05:32:31Z</time>
      </trkpt>
      <trkpt lat="44.75799" lon="6.79435">
        <ele>1309.8</ele>
        <time>2022-07-18T05:32:32Z</time>
      </trkpt>
      <trkpt lat="44.75793" lon="6.79446">
        <ele>1309</ele>
        <time>2022-07-18T05:32:33Z</time>
      </trkpt>
      <trkpt lat="44.7579" lon="6.79457">
        <ele>1308.4</ele>
        <time>2022-07-18T05:32:34Z</time>
      </trkpt>
      <trkpt lat="44.75788" lon="6.79469">
        <ele>1307.8</ele>
        <time>2022-07-18T05:32:35Z</time>
      </trkpt>
      <trkpt lat="44.75787" lon="6.79483">
        <ele>1307.2</ele>
        <time>2022-07-18T05:32:36Z</time>
      </trkpt>
      <trkpt lat="44.75787" lon="6.79496">
        <ele>1306.4</ele>
        <time>2022-07-18T05:32:37Z</time>
      </trkpt>
      <trkpt lat="44.75788" lon="6.79509">
        <ele>1305.8</ele>
        <time>2022-07-18T05:32:38Z</time>
      </trkpt>
      <trkpt lat="44.75791" lon="6.79523">
        <ele>1305</ele>
        <time>2022-07-18T05:32:39Z</time>
      </trkpt>
      <trkpt lat="44.75794" lon="6.79536">
        <ele>1304.4</ele>
        <time>2022-07-18T05:32:40Z</time>
      </trkpt>
      <trkpt lat="44.75797" lon="6.7955">
        <ele>1303.8</ele>
        <time>2022-07-18T05:32:41Z</time>
      </trkpt>
      <trkpt lat="44.75799" lon="6.79564">
        <ele>1303.2</ele>
        <time>2022-07-18T05:32:42Z</time>
      </trkpt>
      <trkpt lat="44.75803" lon="6.79578">
        <ele>1302.6</ele>
        <time>2022-07-18T05:32:43Z</time>
      </trkpt>
      <trkpt lat="44.75807" lon="6.79591">
        <ele>1302</ele>
        <time>2022-07-18T05:32:44Z</time>
      </trkpt>
      <trkpt lat="44.7581" lon="6.79605">
        <ele>1301.2</ele>
        <time>2022-07-18T05:32:45Z</time>
      </trkpt>
      <trkpt lat="44.75814" lon="6.79619">
        <ele>1300.8</ele>
        <time>2022-07-18T05:32:46Z</time>
      </trkpt>
      <trkpt lat="44.75817" lon="6.79633">
        <ele>1300.2</ele>
        <time>2022-07-18T05:32:47Z</time>
      </trkpt>
      <trkpt lat="44.75822" lon="6.79648">
        <ele>1299.6</ele>
        <time>2022-07-18T05:32:48Z</time>
      </trkpt>
      <trkpt lat="44.75825" lon="6.79661">
        <ele>1299</ele>
        <time>2022-07-18T05:32:49Z</time>
      </trkpt>
      <trkpt lat="44.75829" lon="6.79674">
        <ele>1298.6</ele>
        <time>2022-07-18T05:32:50Z</time>
      </trkpt>
      <trkpt lat="44.75832" lon="6.79687">
        <ele>1298</ele>
        <time>2022-07-18T05:32:51Z</time>
      </trkpt>
      <trkpt lat="44.75834" lon="6.797">
        <ele>1297.4</ele>
        <time>2022-07-18T05:32:52Z</time>
      </trkpt>
      <trkpt lat="44.75834" lon="6.79712">
        <ele>1297.2</ele>
        <time>2022-07-18T05:32:53Z</time>
      </trkpt>
      <trkpt lat="44.75832" lon="6.79725">
        <ele>1296.8</ele>
        <time>2022-07-18T05:32:54Z</time>
      </trkpt>
      <trkpt lat="44.7583" lon="6.79738">
        <ele>1296.6</ele>
        <time>2022-07-18T05:32:55Z</time>
      </trkpt>
      <trkpt lat="44.75827" lon="6.7975">
        <ele>1296.4</ele>
        <time>2022-07-18T05:32:56Z</time>
      </trkpt>
      <trkpt lat="44.75824" lon="6.79762">
        <ele>1296.4</ele>
        <time>2022-07-18T05:32:57Z</time>
      </trkpt>
      <trkpt lat="44.75821" lon="6.79774">
        <ele>1296.4</ele>
        <time>2022-07-18T05:32:58Z</time>
      </trkpt>
      <trkpt lat="44.75818" lon="6.79786">
        <ele>1296.4</ele>
        <time>2022-07-18T05:32:59Z</time>
      </trkpt>
      <trkpt lat="44.75816" lon="6.79798">
        <ele>1296.4</ele>
        <time>2022-07-18T05:33:00Z</time>
      </trkpt>
      <trkpt lat="44.75814" lon="6.79809">
        <ele>1296.4</ele>
        <time>2022-07-18T05:33:01Z</time>
      </trkpt>
      <trkpt lat="44.75812" lon="6.7982">
        <ele>1296.4</ele>
        <time>2022-07-18T05:33:02Z</time>
      </trkpt>
      <trkpt lat="44.75809" lon="6.7983">
        <ele>1296.4</ele>
        <time>2022-07-18T05:33:03Z</time>
      </trkpt>
      <trkpt lat="44.75807" lon="6.79841">
        <ele>1296.4</ele>
        <time>2022-07-18T05:33:04Z</time>
      </trkpt>
      <trkpt lat="44.75804" lon="6.79852">
        <ele>1296.4</ele>
        <time>2022-07-18T05:33:05Z</time>
      </trkpt>
      <trkpt lat="44.75802" lon="6.79862">
        <ele>1296.4</ele>
        <time>2022-07-18T05:33:06Z</time>
      </trkpt>
      <trkpt lat="44.75799" lon="6.79873">
        <ele>1296.4</ele>
        <time>2022-07-18T05:33:07Z</time>
      </trkpt>
      <trkpt lat="44.75797" lon="6.79883">
        <ele>1296.6</ele>
        <time>2022-07-18T05:33:08Z</time>
      </trkpt>
      <trkpt lat="44.75795" lon="6.79894">
        <ele>1296.6</ele>
        <time>2022-07-18T05:33:09Z</time>
      </trkpt>
      <trkpt lat="44.75793" lon="6.79904">
        <ele>1296.6</ele>
        <time>2022-07-18T05:33:10Z</time>
      </trkpt>
      <trkpt lat="44.75791" lon="6.79914">
        <ele>1296.8</ele>
        <time>2022-07-18T05:33:11Z</time>
      </trkpt>
      <trkpt lat="44.7579" lon="6.79924">
        <ele>1296.8</ele>
        <time>2022-07-18T05:33:12Z</time>
      </trkpt>
      <trkpt lat="44.75788" lon="6.79934">
        <ele>1296.8</ele>
        <time>2022-07-18T05:33:13Z</time>
      </trkpt>
      <trkpt lat="44.75787" lon="6.79944">
        <ele>1297</ele>
        <time>2022-07-18T05:33:14Z</time>
      </trkpt>
      <trkpt lat="44.75786" lon="6.79954">
        <ele>1297</ele>
        <time>2022-07-18T05:33:15Z</time>
      </trkpt>
      <trkpt lat="44.75786" lon="6.79963">
        <ele>1297.2</ele>
        <time>2022-07-18T05:33:16Z</time>
      </trkpt>
      <trkpt lat="44.75785" lon="6.79973">
        <ele>1297.2</ele>
        <time>2022-07-18T05:33:17Z</time>
      </trkpt>
      <trkpt lat="44.75784" lon="6.79982">
        <ele>1297.6</ele>
        <time>2022-07-18T05:33:18Z</time>
      </trkpt>
      <trkpt lat="44.75784" lon="6.79991">
        <ele>1297.6</ele>
        <time>2022-07-18T05:33:19Z</time>
      </trkpt>
      <trkpt lat="44.75783" lon="6.79999">
        <ele>1297.8</ele>
        <time>2022-07-18T05:33:20Z</time>
      </trkpt>
      <trkpt lat="44.75783" lon="6.80008">
        <ele>1297.8</ele>
        <time>2022-07-18T05:33:21Z</time>
      </trkpt>
      <trkpt lat="44.75782" lon="6.80016">
        <ele>1298</ele>
        <time>2022-07-18T05:33:22Z</time>
      </trkpt>
      <trkpt lat="44.75782" lon="6.80025">
        <ele>1298</ele>
        <time>2022-07-18T05:33:23Z</time>
      </trkpt>
      <trkpt lat="44.75782" lon="6.80033">
        <ele>1298.4</ele>
        <time>2022-07-18T05:33:24Z</time>
      </trkpt>
      <trkpt lat="44.75782" lon="6.80041">
        <ele>1298.4</ele>
        <time>2022-07-18T05:33:25Z</time>
      </trkpt>
      <trkpt lat="44.75782" lon="6.80049">
        <ele>1298.8</ele>
        <time>2022-07-18T05:33:26Z</time>
      </trkpt>
      <trkpt lat="44.75783" lon="6.80057">
        <ele>1298.8</ele>
        <time>2022-07-18T05:33:27Z</time>
      </trkpt>
      <trkpt lat="44.75784" lon="6.80064">
        <ele>1299.2</ele>
        <time>2022-07-18T05:33:28Z</time>
      </trkpt>
      <trkpt lat="44.75784" lon="6.80072">
        <ele>1299.2</ele>
        <time>2022-07-18T05:33:29Z</time>
      </trkpt>
      <trkpt lat="44.75785" lon="6.8008">
        <ele>1299.2</ele>
        <time>2022-07-18T05:33:30Z</time>
      </trkpt>
      <trkpt lat="44.75785" lon="6.80088">
        <ele>1299.2</ele>
        <time>2022-07-18T05:33:31Z</time>
      </trkpt>
      <trkpt lat="44.75786" lon="6.80096">
        <ele>1299.4</ele>
        <time>2022-07-18T05:33:32Z</time>
      </trkpt>
      <trkpt lat="44.75787" lon="6.80103">
        <ele>1299.4</ele>
        <time>2022-07-18T05:33:33Z</time>
      </trkpt>
      <trkpt lat="44.75788" lon="6.80111">
        <ele>1299.6</ele>
        <time>2022-07-18T05:33:34Z</time>
      </trkpt>
      <trkpt lat="44.75789" lon="6.80119">
        <ele>1299.6</ele>
        <time>2022-07-18T05:33:35Z</time>
      </trkpt>
      <trkpt lat="44.7579" lon="6.80127">
        <ele>1299.8</ele>
        <time>2022-07-18T05:33:36Z</time>
      </trkpt>
      <trkpt lat="44.75791" lon="6.80134">
        <ele>1299.8</ele>
        <time>2022-07-18T05:33:37Z</time>
      </trkpt>
      <trkpt lat="44.75793" lon="6.80141">
        <ele>1299.8</ele>
        <time>2022-07-18T05:33:38Z</time>
      </trkpt>
      <trkpt lat="44.75794" lon="6.80149">
        <ele>1299.8</ele>
        <time>2022-07-18T05:33:39Z</time>
      </trkpt>
      <trkpt lat="44.75796" lon="6.80156">
        <ele>1299.8</ele>
        <time>2022-07-18T05:33:40Z</time>
      </trkpt>
      <trkpt lat="44.75797" lon="6.80163">
        <ele>1299.8</ele>
        <time>2022-07-18T05:33:41Z</time>
      </trkpt>
      <trkpt lat="44.75799" lon="6.80171">
        <ele>1300</ele>
        <time>2022-07-18T05:33:42Z</time>
      </trkpt>
      <trkpt lat="44.75801" lon="6.80178">
        <ele>1300</ele>
        <time>2022-07-18T05:33:43Z</time>
      </trkpt>
      <trkpt lat="44.75802" lon="6.80185">
        <ele>1300</ele>
        <time>2022-07-18T05:33:44Z</time>
      </trkpt>
      <trkpt lat="44.75803" lon="6.80192">
        <ele>1300.4</ele>
        <time>2022-07-18T05:33:45Z</time>
      </trkpt>
      <trkpt lat="44.75805" lon="6.802">
        <ele>1300.4</ele>
        <time>2022-07-18T05:33:46Z</time>
      </trkpt>
      <trkpt lat="44.75807" lon="6.80207">
        <ele>1300.6</ele>
        <time>2022-07-18T05:33:47Z</time>
      </trkpt>
      <trkpt lat="44.75808" lon="6.80214">
        <ele>1300.6</ele>
        <time>2022-07-18T05:33:48Z</time>
      </trkpt>
      <trkpt lat="44.7581" lon="6.80221">
        <ele>1300.6</ele>
        <time>2022-07-18T05:33:49Z</time>
      </trkpt>
      <trkpt lat="44.75811" lon="6.80228">
        <ele>1300.6</ele>
        <time>2022-07-18T05:33:50Z</time>
      </trkpt>
      <trkpt lat="44.75813" lon="6.80236">
        <ele>1300.8</ele>
        <time>2022-07-18T05:33:51Z</time>
      </trkpt>
      <trkpt lat="44.75814" lon="6.80243">
        <ele>1300.8</ele>
        <time>2022-07-18T05:33:52Z</time>
      </trkpt>
      <trkpt lat="44.75816" lon="6.8025">
        <ele>1301.2</ele>
        <time>2022-07-18T05:33:53Z</time>
      </trkpt>
      <trkpt lat="44.75817" lon="6.80258">
        <ele>1301.2</ele>
        <time>2022-07-18T05:33:54Z</time>
      </trkpt>
      <trkpt lat="44.75819" lon="6.80265">
        <ele>1301.2</ele>
        <time>2022-07-18T05:33:55Z</time>
      </trkpt>
      <trkpt lat="44.7582" lon="6.80273">
        <ele>1301.2</ele>
        <time>2022-07-18T05:33:56Z</time>
      </trkpt>
      <trkpt lat="44.75822" lon="6.8028">
        <ele>1301.4</ele>
        <time>2022-07-18T05:33:57Z</time>
      </trkpt>
      <trkpt lat="44.75823" lon="6.80287">
        <ele>1301.4</ele>
        <time>2022-07-18T05:33:58Z</time>
      </trkpt>
      <trkpt lat="44.75825" lon="6.80294">
        <ele>1301.6</ele>
        <time>2022-07-18T05:33:59Z</time>
      </trkpt>
      <trkpt lat="44.75826" lon="6.80301">
        <ele>1301.6</ele>
        <time>2022-07-18T05:34:00Z</time>
      </trkpt>
      <trkpt lat="44.75828" lon="6.80309">
        <ele>1301.6</ele>
        <time>2022-07-18T05:34:01Z</time>
      </trkpt>
      <trkpt lat="44.75829" lon="6.80316">
        <ele>1301.6</ele>
        <time>2022-07-18T05:34:02Z</time>
      </trkpt>
      <trkpt lat="44.75831" lon="6.80323">
        <ele>1301.6</ele>
        <time>2022-07-18T05:34:03Z</time>
      </trkpt>
      <trkpt lat="44.75832" lon="6.8033">
        <ele>1301.8</ele>
        <time>2022-07-18T05:34:04Z</time>
      </trkpt>
      <trkpt lat="44.75834" lon="6.80338">
        <ele>1301.8</ele>
        <time>2022-07-18T05:34:05Z</time>
      </trkpt>
      <trkpt lat="44.75835" lon="6.80345">
        <ele>1301.8</ele>
        <time>2022-07-18T05:34:06Z</time>
      </trkpt>
      <trkpt lat="44.75837" lon="6.80352">
        <ele>1302</ele>
        <time>2022-07-18T05:34:07Z</time>
      </trkpt>
      <trkpt lat="44.75838" lon="6.80359">
        <ele>1302</ele>
        <time>2022-07-18T05:34:08Z</time>
      </trkpt>
      <trkpt lat="44.7584" lon="6.80366">
        <ele>1302</ele>
        <time>2022-07-18T05:34:09Z</time>
      </trkpt>
      <trkpt lat="44.75841" lon="6.80373">
        <ele>1302.4</ele>
        <time>2022-07-18T05:34:10Z</time>
      </trkpt>
      <trkpt lat="44.75843" lon="6.8038">
        <ele>1302.4</ele>
        <time>2022-07-18T05:34:11Z</time>
      </trkpt>
      <trkpt lat="44.75844" lon="6.80387">
        <ele>1302.4</ele>
        <time>2022-07-18T05:34:12Z</time>
      </trkpt>
      <trkpt lat="44.75846" lon="6.80394">
        <ele>1302.6</ele>
        <time>2022-07-18T05:34:13Z</time>
      </trkpt>
      <trkpt lat="44.75847" lon="6.80401">
        <ele>1302.6</ele>
        <time>2022-07-18T05:34:14Z</time>
      </trkpt>
      <trkpt lat="44.75849" lon="6.80408">
        <ele>1302.8</ele>
        <time>2022-07-18T05:34:15Z</time>
      </trkpt>
      <trkpt lat="44.75851" lon="6.80415">
        <ele>1302.8</ele>
        <time>2022-07-18T05:34:16Z</time>
      </trkpt>
      <trkpt lat="44.75852" lon="6.80422">
        <ele>1302.8</ele>
        <time>2022-07-18T05:34:17Z</time>
      </trkpt>
      <trkpt lat="44.75854" lon="6.80429">
        <ele>1303</ele>
        <time>2022-07-18T05:34:18Z</time>
      </trkpt>
      <trkpt lat="44.75855" lon="6.80437">
        <ele>1303</ele>
        <time>2022-07-18T05:34:19Z</time>
      </trkpt>
      <trkpt lat="44.75857" lon="6.80444">
        <ele>1303.4</ele>
        <time>2022-07-18T05:34:20Z</time>
      </trkpt>
      <trkpt lat="44.75858" lon="6.80451">
        <ele>1303.4</ele>
        <time>2022-07-18T05:34:21Z</time>
      </trkpt>
      <trkpt lat="44.75859" lon="6.80458">
        <ele>1303.4</ele>
        <time>2022-07-18T05:34:22Z</time>
      </trkpt>
      <trkpt lat="44.75861" lon="6.80465">
        <ele>1303.4</ele>
        <time>2022-07-18T05:34:23Z</time>
      </trkpt>
      <trkpt lat="44.75862" lon="6.80473">
        <ele>1303.6</ele>
        <time>2022-07-18T05:34:24Z</time>
      </trkpt>
      <trkpt lat="44.75863" lon="6.8048">
        <ele>1303.6</ele>
        <time>2022-07-18T05:34:25Z</time>
      </trkpt>
      <trkpt lat="44.75864" lon="6.80487">
        <ele>1303.8</ele>
        <time>2022-07-18T05:34:26Z</time>
      </trkpt>
      <trkpt lat="44.75866" lon="6.80494">
        <ele>1303.8</ele>
        <time>2022-07-18T05:34:27Z</time>
      </trkpt>
      <trkpt lat="44.75867" lon="6.80502">
        <ele>1303.8</ele>
        <time>2022-07-18T05:34:28Z</time>
      </trkpt>
      <trkpt lat="44.75868" lon="6.80509">
        <ele>1303.8</ele>
        <time>2022-07-18T05:34:29Z</time>
      </trkpt>
      <trkpt lat="44.75869" lon="6.80516">
        <ele>1304</ele>
        <time>2022-07-18T05:34:30Z</time>
      </trkpt>
      <trkpt lat="44.7587" lon="6.80524">
        <ele>1304</ele>
        <time>2022-07-18T05:34:31Z</time>
      </trkpt>
      <trkpt lat="44.75872" lon="6.80531">
        <ele>1304.2</ele>
        <time>2022-07-18T05:34:32Z</time>
      </trkpt>
      <trkpt lat="44.75873" lon="6.80538">
        <ele>1304.2</ele>
        <time>2022-07-18T05:34:33Z</time>
      </trkpt>
      <trkpt lat="44.75874" lon="6.80546">
        <ele>1304.2</ele>
        <time>2022-07-18T05:34:34Z</time>
      </trkpt>
      <trkpt lat="44.75875" lon="6.80553">
        <ele>1304.6</ele>
        <time>2022-07-18T05:34:35Z</time>
      </trkpt>
      <trkpt lat="44.75876" lon="6.80561">
        <ele>1304.6</ele>
        <time>2022-07-18T05:34:36Z</time>
      </trkpt>
      <trkpt lat="44.75877" lon="6.80569">
        <ele>1304.6</ele>
        <time>2022-07-18T05:34:37Z</time>
      </trkpt>
      <trkpt lat="44.75878" lon="6.80576">
        <ele>1304.6</ele>
        <time>2022-07-18T05:34:38Z</time>
      </trkpt>
      <trkpt lat="44.75878" lon="6.80584">
        <ele>1304.6</ele>
        <time>2022-07-18T05:34:39Z</time>
      </trkpt>
      <trkpt lat="44.75879" lon="6.80591">
        <ele>1304.8</ele>
        <time>2022-07-18T05:34:40Z</time>
      </trkpt>
      <trkpt lat="44.7588" lon="6.80599">
        <ele>1304.8</ele>
        <time>2022-07-18T05:34:41Z</time>
      </trkpt>
      <trkpt lat="44.75881" lon="6.80606">
        <ele>1304.8</ele>
        <time>2022-07-18T05:34:42Z</time>
      </trkpt>
      <trkpt lat="44.75881" lon="6.80614">
        <ele>1304.8</ele>
        <time>2022-07-18T05:34:43Z</time>
      </trkpt>
      <trkpt lat="44.75882" lon="6.80622">
        <ele>1305.2</ele>
        <time>2022-07-18T05:34:44Z</time>
      </trkpt>
      <trkpt lat="44.75883" lon="6.80629">
        <ele>1305.2</ele>
        <time>2022-07-18T05:34:45Z</time>
      </trkpt>
      <trkpt lat="44.75884" lon="6.80636">
        <ele>1305.2</ele>
        <time>2022-07-18T05:34:46Z</time>
      </trkpt>
      <trkpt lat="44.75885" lon="6.80644">
        <ele>1305.2</ele>
        <time>2022-07-18T05:34:47Z</time>
      </trkpt>
      <trkpt lat="44.75885" lon="6.80652">
        <ele>1305.4</ele>
        <time>2022-07-18T05:34:48Z</time>
      </trkpt>
      <trkpt lat="44.75886" lon="6.80659">
        <ele>1305.4</ele>
        <time>2022-07-18T05:34:49Z</time>
      </trkpt>
      <trkpt lat="44.75886" lon="6.80666">
        <ele>1305.8</ele>
        <time>2022-07-18T05:34:50Z</time>
      </trkpt>
      <trkpt lat="44.75887" lon="6.80674">
        <ele>1305.8</ele>
        <time>2022-07-18T05:34:51Z</time>
      </trkpt>
      <trkpt lat="44.75888" lon="6.80681">
        <ele>1306.2</ele>
        <time>2022-07-18T05:34:52Z</time>
      </trkpt>
      <trkpt lat="44.75888" lon="6.80689">
        <ele>1306.2</ele>
        <time>2022-07-18T05:34:53Z</time>
      </trkpt>
      <trkpt lat="44.75889" lon="6.80696">
        <ele>1306.2</ele>
        <time>2022-07-18T05:34:54Z</time>
      </trkpt>
      <trkpt lat="44.75889" lon="6.80703">
        <ele>1306.2</ele>
        <time>2022-07-18T05:34:55Z</time>
      </trkpt>
      <trkpt lat="44.7589" lon="6.80711">
        <ele>1306.4</ele>
        <time>2022-07-18T05:34:56Z</time>
      </trkpt>
      <trkpt lat="44.75891" lon="6.80718">
        <ele>1306.4</ele>
        <time>2022-07-18T05:34:57Z</time>
      </trkpt>
      <trkpt lat="44.75891" lon="6.80726">
        <ele>1306.4</ele>
        <time>2022-07-18T05:34:58Z</time>
      </trkpt>
      <trkpt lat="44.75892" lon="6.80733">
        <ele>1306.4</ele>
        <time>2022-07-18T05:34:59Z</time>
      </trkpt>
      <trkpt lat="44.75893" lon="6.80743">
        <ele>1306.4</ele>
        <time>2022-07-18T05:35:00Z</time>
      </trkpt>
      <trkpt lat="44.75893" lon="6.8075">
        <ele>1306.6</ele>
        <time>2022-07-18T05:35:01Z</time>
      </trkpt>
      <trkpt lat="44.75893" lon="6.80757">
        <ele>1306.6</ele>
        <time>2022-07-18T05:35:03Z</time>
      </trkpt>
      <trkpt lat="44.75894" lon="6.80765">
        <ele>1306.6</ele>
        <time>2022-07-18T05:35:04Z</time>
      </trkpt>
      <trkpt lat="44.75894" lon="6.80773">
        <ele>1307</ele>
        <time>2022-07-18T05:35:05Z</time>
      </trkpt>
      <trkpt lat="44.75895" lon="6.8078">
        <ele>1307</ele>
        <time>2022-07-18T05:35:06Z</time>
      </trkpt>
      <trkpt lat="44.75896" lon="6.80788">
        <ele>1307.2</ele>
        <time>2022-07-18T05:35:07Z</time>
      </trkpt>
      <trkpt lat="44.75897" lon="6.80795">
        <ele>1307.2</ele>
        <time>2022-07-18T05:35:08Z</time>
      </trkpt>
      <trkpt lat="44.75897" lon="6.80802">
        <ele>1307.2</ele>
        <time>2022-07-18T05:35:09Z</time>
      </trkpt>
      <trkpt lat="44.75898" lon="6.8081">
        <ele>1307.4</ele>
        <time>2022-07-18T05:35:10Z</time>
      </trkpt>
      <trkpt lat="44.75898" lon="6.80817">
        <ele>1307.4</ele>
        <time>2022-07-18T05:35:11Z</time>
      </trkpt>
      <trkpt lat="44.75899" lon="6.80824">
        <ele>1307.6</ele>
        <time>2022-07-18T05:35:12Z</time>
      </trkpt>
      <trkpt lat="44.759" lon="6.80831">
        <ele>1307.6</ele>
        <time>2022-07-18T05:35:13Z</time>
      </trkpt>
      <trkpt lat="44.759" lon="6.80839">
        <ele>1307.6</ele>
        <time>2022-07-18T05:35:14Z</time>
      </trkpt>
      <trkpt lat="44.75901" lon="6.80846">
        <ele>1307.8</ele>
        <time>2022-07-18T05:35:15Z</time>
      </trkpt>
      <trkpt lat="44.75902" lon="6.80853">
        <ele>1307.8</ele>
        <time>2022-07-18T05:35:16Z</time>
      </trkpt>
      <trkpt lat="44.75903" lon="6.8086">
        <ele>1308</ele>
        <time>2022-07-18T05:35:17Z</time>
      </trkpt>
      <trkpt lat="44.75905" lon="6.80874">
        <ele>1308</ele>
        <time>2022-07-18T05:35:18Z</time>
      </trkpt>
      <trkpt lat="44.75906" lon="6.80882">
        <ele>1308</ele>
        <time>2022-07-18T05:35:19Z</time>
      </trkpt>
      <trkpt lat="44.75907" lon="6.80889">
        <ele>1308.4</ele>
        <time>2022-07-18T05:35:20Z</time>
      </trkpt>
      <trkpt lat="44.75908" lon="6.80896">
        <ele>1308.4</ele>
        <time>2022-07-18T05:35:21Z</time>
      </trkpt>
      <trkpt lat="44.75909" lon="6.80903">
        <ele>1308.4</ele>
        <time>2022-07-18T05:35:22Z</time>
      </trkpt>
      <trkpt lat="44.7591" lon="6.80911">
        <ele>1308.4</ele>
        <time>2022-07-18T05:35:23Z</time>
      </trkpt>
      <trkpt lat="44.75911" lon="6.80918">
        <ele>1308.6</ele>
        <time>2022-07-18T05:35:24Z</time>
      </trkpt>
      <trkpt lat="44.75913" lon="6.80925">
        <ele>1308.6</ele>
        <time>2022-07-18T05:35:25Z</time>
      </trkpt>
      <trkpt lat="44.75914" lon="6.80932">
        <ele>1308.6</ele>
        <time>2022-07-18T05:35:26Z</time>
      </trkpt>
      <trkpt lat="44.75915" lon="6.8094">
        <ele>1308.8</ele>
        <time>2022-07-18T05:35:27Z</time>
      </trkpt>
      <trkpt lat="44.75916" lon="6.80947">
        <ele>1308.8</ele>
        <time>2022-07-18T05:35:28Z</time>
      </trkpt>
      <trkpt lat="44.75917" lon="6.80954">
        <ele>1308.8</ele>
        <time>2022-07-18T05:35:29Z</time>
      </trkpt>
      <trkpt lat="44.75918" lon="6.80961">
        <ele>1309.2</ele>
        <time>2022-07-18T05:35:30Z</time>
      </trkpt>
      <trkpt lat="44.75919" lon="6.80969">
        <ele>1309.2</ele>
        <time>2022-07-18T05:35:31Z</time>
      </trkpt>
      <trkpt lat="44.75921" lon="6.80976">
        <ele>1309.2</ele>
        <time>2022-07-18T05:35:32Z</time>
      </trkpt>
      <trkpt lat="44.75922" lon="6.80983">
        <ele>1309.4</ele>
        <time>2022-07-18T05:35:33Z</time>
      </trkpt>
      <trkpt lat="44.75923" lon="6.8099">
        <ele>1309.4</ele>
        <time>2022-07-18T05:35:34Z</time>
      </trkpt>
      <trkpt lat="44.75925" lon="6.80997">
        <ele>1309.8</ele>
        <time>2022-07-18T05:35:35Z</time>
      </trkpt>
      <trkpt lat="44.75926" lon="6.81004">
        <ele>1309.8</ele>
        <time>2022-07-18T05:35:36Z</time>
      </trkpt>
      <trkpt lat="44.75928" lon="6.81011">
        <ele>1309.8</ele>
        <time>2022-07-18T05:35:37Z</time>
      </trkpt>
      <trkpt lat="44.7593" lon="6.81018">
        <ele>1310</ele>
        <time>2022-07-18T05:35:38Z</time>
      </trkpt>
      <trkpt lat="44.75931" lon="6.81025">
        <ele>1310</ele>
        <time>2022-07-18T05:35:39Z</time>
      </trkpt>
      <trkpt lat="44.75933" lon="6.81032">
        <ele>1310.2</ele>
        <time>2022-07-18T05:35:40Z</time>
      </trkpt>
      <trkpt lat="44.75935" lon="6.81039">
        <ele>1310.2</ele>
        <time>2022-07-18T05:35:41Z</time>
      </trkpt>
      <trkpt lat="44.75937" lon="6.81046">
        <ele>1310.2</ele>
        <time>2022-07-18T05:35:42Z</time>
      </trkpt>
      <trkpt lat="44.7594" lon="6.81053">
        <ele>1310.6</ele>
        <time>2022-07-18T05:35:43Z</time>
      </trkpt>
      <trkpt lat="44.75942" lon="6.8106">
        <ele>1310.6</ele>
        <time>2022-07-18T05:35:44Z</time>
      </trkpt>
      <trkpt lat="44.75944" lon="6.81067">
        <ele>1310.6</ele>
        <time>2022-07-18T05:35:45Z</time>
      </trkpt>
      <trkpt lat="44.75947" lon="6.81074">
        <ele>1310.8</ele>
        <time>2022-07-18T05:35:46Z</time>
      </trkpt>
      <trkpt lat="44.75949" lon="6.81081">
        <ele>1310.8</ele>
        <time>2022-07-18T05:35:47Z</time>
      </trkpt>
      <trkpt lat="44.75952" lon="6.81087">
        <ele>1310.8</ele>
        <time>2022-07-18T05:35:48Z</time>
      </trkpt>
      <trkpt lat="44.75954" lon="6.81094">
        <ele>1311</ele>
        <time>2022-07-18T05:35:49Z</time>
      </trkpt>
      <trkpt lat="44.75956" lon="6.81101">
        <ele>1311</ele>
        <time>2022-07-18T05:35:50Z</time>
      </trkpt>
      <trkpt lat="44.75959" lon="6.81108">
        <ele>1311</ele>
        <time>2022-07-18T05:35:51Z</time>
      </trkpt>
      <trkpt lat="44.75962" lon="6.81114">
        <ele>1311</ele>
        <time>2022-07-18T05:35:52Z</time>
      </trkpt>
      <trkpt lat="44.75964" lon="6.81121">
        <ele>1311</ele>
        <time>2022-07-18T05:35:53Z</time>
      </trkpt>
      <trkpt lat="44.75967" lon="6.81127">
        <ele>1311.2</ele>
        <time>2022-07-18T05:35:54Z</time>
      </trkpt>
      <trkpt lat="44.75969" lon="6.81134">
        <ele>1311.2</ele>
        <time>2022-07-18T05:35:55Z</time>
      </trkpt>
      <trkpt lat="44.75971" lon="6.81141">
        <ele>1311.2</ele>
        <time>2022-07-18T05:35:56Z</time>
      </trkpt>
      <trkpt lat="44.75974" lon="6.81148">
        <ele>1311.2</ele>
        <time>2022-07-18T05:35:57Z</time>
      </trkpt>
      <trkpt lat="44.75976" lon="6.81154">
        <ele>1311.2</ele>
        <time>2022-07-18T05:35:58Z</time>
      </trkpt>
      <trkpt lat="44.75979" lon="6.81161">
        <ele>1311.2</ele>
        <time>2022-07-18T05:35:59Z</time>
      </trkpt>
      <trkpt lat="44.75982" lon="6.81167">
        <ele>1311.6</ele>
        <time>2022-07-18T05:36:00Z</time>
      </trkpt>
      <trkpt lat="44.75984" lon="6.81174">
        <ele>1311.6</ele>
        <time>2022-07-18T05:36:01Z</time>
      </trkpt>
      <trkpt lat="44.75987" lon="6.8118">
        <ele>1311.8</ele>
        <time>2022-07-18T05:36:02Z</time>
      </trkpt>
      <trkpt lat="44.75989" lon="6.81187">
        <ele>1311.8</ele>
        <time>2022-07-18T05:36:03Z</time>
      </trkpt>
      <trkpt lat="44.75992" lon="6.81193">
        <ele>1311.8</ele>
        <time>2022-07-18T05:36:04Z</time>
      </trkpt>
      <trkpt lat="44.75995" lon="6.812">
        <ele>1311.8</ele>
        <time>2022-07-18T05:36:05Z</time>
      </trkpt>
      <trkpt lat="44.75997" lon="6.81206">
        <ele>1312</ele>
        <time>2022-07-18T05:36:06Z</time>
      </trkpt>
      <trkpt lat="44.76" lon="6.81212">
        <ele>1312</ele>
        <time>2022-07-18T05:36:07Z</time>
      </trkpt>
      <trkpt lat="44.76003" lon="6.81219">
        <ele>1312</ele>
        <time>2022-07-18T05:36:08Z</time>
      </trkpt>
      <trkpt lat="44.76005" lon="6.81225">
        <ele>1312</ele>
        <time>2022-07-18T05:36:09Z</time>
      </trkpt>
      <trkpt lat="44.76008" lon="6.81232">
        <ele>1312.2</ele>
        <time>2022-07-18T05:36:10Z</time>
      </trkpt>
      <trkpt lat="44.7601" lon="6.81239">
        <ele>1312.2</ele>
        <time>2022-07-18T05:36:11Z</time>
      </trkpt>
      <trkpt lat="44.76013" lon="6.81245">
        <ele>1312.2</ele>
        <time>2022-07-18T05:36:12Z</time>
      </trkpt>
      <trkpt lat="44.76016" lon="6.81252">
        <ele>1312.6</ele>
        <time>2022-07-18T05:36:13Z</time>
      </trkpt>
      <trkpt lat="44.76018" lon="6.81258">
        <ele>1312.6</ele>
        <time>2022-07-18T05:36:14Z</time>
      </trkpt>
      <trkpt lat="44.76021" lon="6.81265">
        <ele>1312.8</ele>
        <time>2022-07-18T05:36:15Z</time>
      </trkpt>
      <trkpt lat="44.76023" lon="6.81271">
        <ele>1312.8</ele>
        <time>2022-07-18T05:36:16Z</time>
      </trkpt>
      <trkpt lat="44.76026" lon="6.81277">
        <ele>1312.8</ele>
        <time>2022-07-18T05:36:17Z</time>
      </trkpt>
      <trkpt lat="44.76028" lon="6.81284">
        <ele>1312.8</ele>
        <time>2022-07-18T05:36:18Z</time>
      </trkpt>
      <trkpt lat="44.76031" lon="6.8129">
        <ele>1312.8</ele>
        <time>2022-07-18T05:36:19Z</time>
      </trkpt>
      <trkpt lat="44.76033" lon="6.81296">
        <ele>1313</ele>
        <time>2022-07-18T05:36:20Z</time>
      </trkpt>
      <trkpt lat="44.76036" lon="6.81303">
        <ele>1313</ele>
        <time>2022-07-18T05:36:21Z</time>
      </trkpt>
      <trkpt lat="44.76038" lon="6.81309">
        <ele>1313</ele>
        <time>2022-07-18T05:36:22Z</time>
      </trkpt>
      <trkpt lat="44.76041" lon="6.81315">
        <ele>1313</ele>
        <time>2022-07-18T05:36:23Z</time>
      </trkpt>
      <trkpt lat="44.76043" lon="6.81322">
        <ele>1313.2</ele>
        <time>2022-07-18T05:36:24Z</time>
      </trkpt>
      <trkpt lat="44.76046" lon="6.81328">
        <ele>1313.2</ele>
        <time>2022-07-18T05:36:25Z</time>
      </trkpt>
      <trkpt lat="44.76049" lon="6.81335">
        <ele>1313.6</ele>
        <time>2022-07-18T05:36:26Z</time>
      </trkpt>
      <trkpt lat="44.76051" lon="6.81341">
        <ele>1313.6</ele>
        <time>2022-07-18T05:36:27Z</time>
      </trkpt>
      <trkpt lat="44.76054" lon="6.81347">
        <ele>1313.8</ele>
        <time>2022-07-18T05:36:28Z</time>
      </trkpt>
      <trkpt lat="44.76057" lon="6.81354">
        <ele>1313.8</ele>
        <time>2022-07-18T05:36:29Z</time>
      </trkpt>
      <trkpt lat="44.7606" lon="6.81361">
        <ele>1313.8</ele>
        <time>2022-07-18T05:36:30Z</time>
      </trkpt>
      <trkpt lat="44.76062" lon="6.81367">
        <ele>1314</ele>
        <time>2022-07-18T05:36:31Z</time>
      </trkpt>
      <trkpt lat="44.76065" lon="6.81374">
        <ele>1314</ele>
        <time>2022-07-18T05:36:32Z</time>
      </trkpt>
      <trkpt lat="44.76068" lon="6.81381">
        <ele>1314</ele>
        <time>2022-07-18T05:36:33Z</time>
      </trkpt>
      <trkpt lat="44.7607" lon="6.81388">
        <ele>1314</ele>
        <time>2022-07-18T05:36:34Z</time>
      </trkpt>
      <trkpt lat="44.76073" lon="6.81394">
        <ele>1314</ele>
        <time>2022-07-18T05:36:35Z</time>
      </trkpt>
      <trkpt lat="44.76076" lon="6.81401">
        <ele>1314.2</ele>
        <time>2022-07-18T05:36:36Z</time>
      </trkpt>
      <trkpt lat="44.76078" lon="6.81408">
        <ele>1314.2</ele>
        <time>2022-07-18T05:36:37Z</time>
      </trkpt>
      <trkpt lat="44.76081" lon="6.81414">
        <ele>1314.2</ele>
        <time>2022-07-18T05:36:38Z</time>
      </trkpt>
      <trkpt lat="44.76083" lon="6.81421">
        <ele>1314.6</ele>
        <time>2022-07-18T05:36:39Z</time>
      </trkpt>
      <trkpt lat="44.76086" lon="6.81428">
        <ele>1314.6</ele>
        <time>2022-07-18T05:36:40Z</time>
      </trkpt>
      <trkpt lat="44.76088" lon="6.81434">
        <ele>1314.6</ele>
        <time>2022-07-18T05:36:41Z</time>
      </trkpt>
      <trkpt lat="44.76091" lon="6.81441">
        <ele>1314.8</ele>
        <time>2022-07-18T05:36:42Z</time>
      </trkpt>
      <trkpt lat="44.76094" lon="6.81447">
        <ele>1314.8</ele>
        <time>2022-07-18T05:36:43Z</time>
      </trkpt>
      <trkpt lat="44.76096" lon="6.81454">
        <ele>1314.8</ele>
        <time>2022-07-18T05:36:44Z</time>
      </trkpt>
      <trkpt lat="44.76099" lon="6.8146">
        <ele>1314.8</ele>
        <time>2022-07-18T05:36:45Z</time>
      </trkpt>
      <trkpt lat="44.76101" lon="6.81467">
        <ele>1315</ele>
        <time>2022-07-18T05:36:46Z</time>
      </trkpt>
      <trkpt lat="44.76104" lon="6.81474">
        <ele>1315</ele>
        <time>2022-07-18T05:36:47Z</time>
      </trkpt>
      <trkpt lat="44.76106" lon="6.8148">
        <ele>1315</ele>
        <time>2022-07-18T05:36:48Z</time>
      </trkpt>
      <trkpt lat="44.76108" lon="6.81487">
        <ele>1315.2</ele>
        <time>2022-07-18T05:36:49Z</time>
      </trkpt>
      <trkpt lat="44.76111" lon="6.81494">
        <ele>1315.2</ele>
        <time>2022-07-18T05:36:50Z</time>
      </trkpt>
      <trkpt lat="44.76114" lon="6.815">
        <ele>1315.2</ele>
        <time>2022-07-18T05:36:51Z</time>
      </trkpt>
      <trkpt lat="44.76117" lon="6.81506">
        <ele>1315.6</ele>
        <time>2022-07-18T05:36:52Z</time>
      </trkpt>
      <trkpt lat="44.7612" lon="6.81513">
        <ele>1315.6</ele>
        <time>2022-07-18T05:36:53Z</time>
      </trkpt>
      <trkpt lat="44.76123" lon="6.81519">
        <ele>1315.8</ele>
        <time>2022-07-18T05:36:54Z</time>
      </trkpt>
      <trkpt lat="44.76126" lon="6.81525">
        <ele>1315.8</ele>
        <time>2022-07-18T05:36:55Z</time>
      </trkpt>
      <trkpt lat="44.76128" lon="6.81532">
        <ele>1315.8</ele>
        <time>2022-07-18T05:36:56Z</time>
      </trkpt>
      <trkpt lat="44.76131" lon="6.81538">
        <ele>1315.8</ele>
        <time>2022-07-18T05:36:57Z</time>
      </trkpt>
      <trkpt lat="44.76134" lon="6.81544">
        <ele>1315.8</ele>
        <time>2022-07-18T05:36:58Z</time>
      </trkpt>
      <trkpt lat="44.76137" lon="6.8155">
        <ele>1316</ele>
        <time>2022-07-18T05:36:59Z</time>
      </trkpt>
      <trkpt lat="44.7614" lon="6.81556">
        <ele>1316</ele>
        <time>2022-07-18T05:37:00Z</time>
      </trkpt>
      <trkpt lat="44.76142" lon="6.81563">
        <ele>1316</ele>
        <time>2022-07-18T05:37:01Z</time>
      </trkpt>
      <trkpt lat="44.76145" lon="6.81569">
        <ele>1316.2</ele>
        <time>2022-07-18T05:37:02Z</time>
      </trkpt>
      <trkpt lat="44.76147" lon="6.81575">
        <ele>1316.2</ele>
        <time>2022-07-18T05:37:03Z</time>
      </trkpt>
      <trkpt lat="44.7615" lon="6.81582">
        <ele>1316.2</ele>
        <time>2022-07-18T05:37:04Z</time>
      </trkpt>
      <trkpt lat="44.76152" lon="6.81588">
        <ele>1316.4</ele>
        <time>2022-07-18T05:37:05Z</time>
      </trkpt>
      <trkpt lat="44.76154" lon="6.81595">
        <ele>1316.4</ele>
        <time>2022-07-18T05:37:06Z</time>
      </trkpt>
      <trkpt lat="44.76157" lon="6.81602">
        <ele>1316.4</ele>
        <time>2022-07-18T05:37:07Z</time>
      </trkpt>
      <trkpt lat="44.76159" lon="6.81608">
        <ele>1316.8</ele>
        <time>2022-07-18T05:37:08Z</time>
      </trkpt>
      <trkpt lat="44.76162" lon="6.81614">
        <ele>1316.8</ele>
        <time>2022-07-18T05:37:09Z</time>
      </trkpt>
      <trkpt lat="44.76164" lon="6.81621">
        <ele>1316.8</ele>
        <time>2022-07-18T05:37:10Z</time>
      </trkpt>
      <trkpt lat="44.76167" lon="6.81627">
        <ele>1317</ele>
        <time>2022-07-18T05:37:11Z</time>
      </trkpt>
      <trkpt lat="44.76169" lon="6.81634">
        <ele>1317</ele>
        <time>2022-07-18T05:37:12Z</time>
      </trkpt>
      <trkpt lat="44.76171" lon="6.8164">
        <ele>1317</ele>
        <time>2022-07-18T05:37:13Z</time>
      </trkpt>
      <trkpt lat="44.76173" lon="6.81647">
        <ele>1317</ele>
        <time>2022-07-18T05:37:14Z</time>
      </trkpt>
      <trkpt lat="44.76176" lon="6.81653">
        <ele>1317</ele>
        <time>2022-07-18T05:37:15Z</time>
      </trkpt>
      <trkpt lat="44.76178" lon="6.8166">
        <ele>1317.2</ele>
        <time>2022-07-18T05:37:16Z</time>
      </trkpt>
      <trkpt lat="44.7618" lon="6.81666">
        <ele>1317.2</ele>
        <time>2022-07-18T05:37:17Z</time>
      </trkpt>
      <trkpt lat="44.76182" lon="6.81673">
        <ele>1317.2</ele>
        <time>2022-07-18T05:37:18Z</time>
      </trkpt>
      <trkpt lat="44.76185" lon="6.81679">
        <ele>1317.6</ele>
        <time>2022-07-18T05:37:19Z</time>
      </trkpt>
      <trkpt lat="44.76187" lon="6.81686">
        <ele>1317.6</ele>
        <time>2022-07-18T05:37:20Z</time>
      </trkpt>
      <trkpt lat="44.7619" lon="6.81692">
        <ele>1317.8</ele>
        <time>2022-07-18T05:37:21Z</time>
      </trkpt>
      <trkpt lat="44.76192" lon="6.81699">
        <ele>1317.8</ele>
        <time>2022-07-18T05:37:22Z</time>
      </trkpt>
      <trkpt lat="44.76194" lon="6.81705">
        <ele>1317.8</ele>
        <time>2022-07-18T05:37:23Z</time>
      </trkpt>
      <trkpt lat="44.76197" lon="6.81712">
        <ele>1317.8</ele>
        <time>2022-07-18T05:37:24Z</time>
      </trkpt>
      <trkpt lat="44.76199" lon="6.81718">
        <ele>1318</ele>
        <time>2022-07-18T05:37:25Z</time>
      </trkpt>
      <trkpt lat="44.76201" lon="6.81725">
        <ele>1318</ele>
        <time>2022-07-18T05:37:26Z</time>
      </trkpt>
      <trkpt lat="44.76204" lon="6.81732">
        <ele>1318.2</ele>
        <time>2022-07-18T05:37:27Z</time>
      </trkpt>
      <trkpt lat="44.76206" lon="6.81738">
        <ele>1318.2</ele>
        <time>2022-07-18T05:37:28Z</time>
      </trkpt>
      <trkpt lat="44.76208" lon="6.81745">
        <ele>1318.2</ele>
        <time>2022-07-18T05:37:29Z</time>
      </trkpt>
      <trkpt lat="44.76211" lon="6.81752">
        <ele>1318.6</ele>
        <time>2022-07-18T05:37:30Z</time>
      </trkpt>
      <trkpt lat="44.76213" lon="6.81759">
        <ele>1318.6</ele>
        <time>2022-07-18T05:37:31Z</time>
      </trkpt>
      <trkpt lat="44.76215" lon="6.81766">
        <ele>1318.6</ele>
        <time>2022-07-18T05:37:32Z</time>
      </trkpt>
      <trkpt lat="44.76216" lon="6.81773">
        <ele>1318.8</ele>
        <time>2022-07-18T05:37:33Z</time>
      </trkpt>
      <trkpt lat="44.76218" lon="6.8178">
        <ele>1318.8</ele>
        <time>2022-07-18T05:37:34Z</time>
      </trkpt>
      <trkpt lat="44.7622" lon="6.81787">
        <ele>1318.8</ele>
        <time>2022-07-18T05:37:35Z</time>
      </trkpt>
      <trkpt lat="44.76222" lon="6.81794">
        <ele>1318.8</ele>
        <time>2022-07-18T05:37:36Z</time>
      </trkpt>
      <trkpt lat="44.76224" lon="6.81801">
        <ele>1318.8</ele>
        <time>2022-07-18T05:37:37Z</time>
      </trkpt>
      <trkpt lat="44.76226" lon="6.81808">
        <ele>1319</ele>
        <time>2022-07-18T05:37:38Z</time>
      </trkpt>
      <trkpt lat="44.76227" lon="6.81816">
        <ele>1319</ele>
        <time>2022-07-18T05:37:39Z</time>
      </trkpt>
      <trkpt lat="44.76229" lon="6.81823">
        <ele>1319</ele>
        <time>2022-07-18T05:37:40Z</time>
      </trkpt>
      <trkpt lat="44.7623" lon="6.8183">
        <ele>1319.2</ele>
        <time>2022-07-18T05:37:41Z</time>
      </trkpt>
      <trkpt lat="44.76232" lon="6.81837">
        <ele>1319.2</ele>
        <time>2022-07-18T05:37:42Z</time>
      </trkpt>
      <trkpt lat="44.76233" lon="6.81845">
        <ele>1319.2</ele>
        <time>2022-07-18T05:37:43Z</time>
      </trkpt>
      <trkpt lat="44.76235" lon="6.81852">
        <ele>1319.6</ele>
        <time>2022-07-18T05:37:44Z</time>
      </trkpt>
      <trkpt lat="44.76237" lon="6.81859">
        <ele>1319.6</ele>
        <time>2022-07-18T05:37:45Z</time>
      </trkpt>
      <trkpt lat="44.76238" lon="6.81866">
        <ele>1319.6</ele>
        <time>2022-07-18T05:37:46Z</time>
      </trkpt>
      <trkpt lat="44.76239" lon="6.81873">
        <ele>1319.6</ele>
        <time>2022-07-18T05:37:47Z</time>
      </trkpt>
      <trkpt lat="44.7624" lon="6.8188">
        <ele>1319.6</ele>
        <time>2022-07-18T05:37:48Z</time>
      </trkpt>
      <trkpt lat="44.76242" lon="6.81887">
        <ele>1319.8</ele>
        <time>2022-07-18T05:37:49Z</time>
      </trkpt>
      <trkpt lat="44.76243" lon="6.81894">
        <ele>1319.8</ele>
        <time>2022-07-18T05:37:50Z</time>
      </trkpt>
      <trkpt lat="44.76244" lon="6.81901">
        <ele>1319.8</ele>
        <time>2022-07-18T05:37:51Z</time>
      </trkpt>
      <trkpt lat="44.76245" lon="6.81909">
        <ele>1320</ele>
        <time>2022-07-18T05:37:52Z</time>
      </trkpt>
      <trkpt lat="44.76246" lon="6.81916">
        <ele>1320</ele>
        <time>2022-07-18T05:37:53Z</time>
      </trkpt>
      <trkpt lat="44.76247" lon="6.81923">
        <ele>1320</ele>
        <time>2022-07-18T05:37:54Z</time>
      </trkpt>
      <trkpt lat="44.76249" lon="6.81931">
        <ele>1320</ele>
        <time>2022-07-18T05:37:55Z</time>
      </trkpt>
      <trkpt lat="44.7625" lon="6.81938">
        <ele>1320.2</ele>
        <time>2022-07-18T05:37:56Z</time>
      </trkpt>
      <trkpt lat="44.76251" lon="6.81945">
        <ele>1320.2</ele>
        <time>2022-07-18T05:37:57Z</time>
      </trkpt>
      <trkpt lat="44.76252" lon="6.81952">
        <ele>1320.2</ele>
        <time>2022-07-18T05:37:58Z</time>
      </trkpt>
      <trkpt lat="44.76253" lon="6.81959">
        <ele>1320.6</ele>
        <time>2022-07-18T05:37:59Z</time>
      </trkpt>
      <trkpt lat="44.76253" lon="6.81966">
        <ele>1320.6</ele>
        <time>2022-07-18T05:38:00Z</time>
      </trkpt>
      <trkpt lat="44.76254" lon="6.81973">
        <ele>1320.8</ele>
        <time>2022-07-18T05:38:01Z</time>
      </trkpt>
      <trkpt lat="44.76255" lon="6.81981">
        <ele>1320.8</ele>
        <time>2022-07-18T05:38:02Z</time>
      </trkpt>
      <trkpt lat="44.76255" lon="6.81987">
        <ele>1321</ele>
        <time>2022-07-18T05:38:03Z</time>
      </trkpt>
      <trkpt lat="44.76256" lon="6.81994">
        <ele>1321</ele>
        <time>2022-07-18T05:38:04Z</time>
      </trkpt>
      <trkpt lat="44.76256" lon="6.82001">
        <ele>1321</ele>
        <time>2022-07-18T05:38:05Z</time>
      </trkpt>
      <trkpt lat="44.76256" lon="6.82008">
        <ele>1321.2</ele>
        <time>2022-07-18T05:38:06Z</time>
      </trkpt>
      <trkpt lat="44.76256" lon="6.82015">
        <ele>1321.2</ele>
        <time>2022-07-18T05:38:07Z</time>
      </trkpt>
      <trkpt lat="44.76256" lon="6.82022">
        <ele>1321.2</ele>
        <time>2022-07-18T05:38:08Z</time>
      </trkpt>
      <trkpt lat="44.76256" lon="6.82029">
        <ele>1321.2</ele>
        <time>2022-07-18T05:38:09Z</time>
      </trkpt>
      <trkpt lat="44.76256" lon="6.82035">
        <ele>1321.2</ele>
        <time>2022-07-18T05:38:10Z</time>
      </trkpt>
      <trkpt lat="44.76255" lon="6.82042">
        <ele>1321.2</ele>
        <time>2022-07-18T05:38:11Z</time>
      </trkpt>
      <trkpt lat="44.76255" lon="6.82049">
        <ele>1321.4</ele>
        <time>2022-07-18T05:38:12Z</time>
      </trkpt>
      <trkpt lat="44.76254" lon="6.82055">
        <ele>1321.4</ele>
        <time>2022-07-18T05:38:13Z</time>
      </trkpt>
      <trkpt lat="44.76254" lon="6.82061">
        <ele>1321.4</ele>
        <time>2022-07-18T05:38:14Z</time>
      </trkpt>
      <trkpt lat="44.76252" lon="6.82067">
        <ele>1321.6</ele>
        <time>2022-07-18T05:38:15Z</time>
      </trkpt>
      <trkpt lat="44.7625" lon="6.82073">
        <ele>1321.6</ele>
        <time>2022-07-18T05:38:16Z</time>
      </trkpt>
      <trkpt lat="44.76247" lon="6.82078">
        <ele>1321.6</ele>
        <time>2022-07-18T05:38:17Z</time>
      </trkpt>
      <trkpt lat="44.76244" lon="6.82083">
        <ele>1321.6</ele>
        <time>2022-07-18T05:38:18Z</time>
      </trkpt>
      <trkpt lat="44.76243" lon="6.82089">
        <ele>1321.8</ele>
        <time>2022-07-18T05:38:19Z</time>
      </trkpt>
      <trkpt lat="44.76242" lon="6.82095">
        <ele>1321.8</ele>
        <time>2022-07-18T05:38:20Z</time>
      </trkpt>
      <trkpt lat="44.76243" lon="6.82101">
        <ele>1322.2</ele>
        <time>2022-07-18T05:38:21Z</time>
      </trkpt>
      <trkpt lat="44.76245" lon="6.82106">
        <ele>1322.2</ele>
        <time>2022-07-18T05:38:22Z</time>
      </trkpt>
      <trkpt lat="44.76248" lon="6.82109">
        <ele>1322.2</ele>
        <time>2022-07-18T05:38:23Z</time>
      </trkpt>
      <trkpt lat="44.76252" lon="6.82111">
        <ele>1322.4</ele>
        <time>2022-07-18T05:38:24Z</time>
      </trkpt>
      <trkpt lat="44.76255" lon="6.82111">
        <ele>1322.4</ele>
        <time>2022-07-18T05:38:25Z</time>
      </trkpt>
      <trkpt lat="44.76259" lon="6.8211">
        <ele>1322.4</ele>
        <time>2022-07-18T05:38:26Z</time>
      </trkpt>
      <trkpt lat="44.76262" lon="6.82108">
        <ele>1322.4</ele>
        <time>2022-07-18T05:38:27Z</time>
      </trkpt>
      <trkpt lat="44.76265" lon="6.82105">
        <ele>1322.4</ele>
        <time>2022-07-18T05:38:28Z</time>
      </trkpt>
      <trkpt lat="44.76268" lon="6.82103">
        <ele>1322.4</ele>
        <time>2022-07-18T05:38:29Z</time>
      </trkpt>
      <trkpt lat="44.76271" lon="6.82101">
        <ele>1322.4</ele>
        <time>2022-07-18T05:38:30Z</time>
      </trkpt>
      <trkpt lat="44.76274" lon="6.821">
        <ele>1322.4</ele>
        <time>2022-07-18T05:38:31Z</time>
      </trkpt>
      <trkpt lat="44.76277" lon="6.821">
        <ele>1322.4</ele>
        <time>2022-07-18T05:38:32Z</time>
      </trkpt>
      <trkpt lat="44.76279" lon="6.821">
        <ele>1322.6</ele>
        <time>2022-07-18T05:38:33Z</time>
      </trkpt>
      <trkpt lat="44.76282" lon="6.821">
        <ele>1322.6</ele>
        <time>2022-07-18T05:38:34Z</time>
      </trkpt>
      <trkpt lat="44.76283" lon="6.82099">
        <ele>1323</ele>
        <time>2022-07-18T05:38:35Z</time>
      </trkpt>
      <trkpt lat="44.76285" lon="6.82098">
        <ele>1323</ele>
        <time>2022-07-18T05:38:36Z</time>
      </trkpt>
      <trkpt lat="44.76287" lon="6.82097">
        <ele>1323.2</ele>
        <time>2022-07-18T05:38:37Z</time>
      </trkpt>
      <trkpt lat="44.76287" lon="6.82098">
        <ele>1323.2</ele>
        <time>2022-07-18T05:38:38Z</time>
      </trkpt>
      <trkpt lat="44.76287" lon="6.82098">
        <ele>1323.2</ele>
        <time>2022-07-18T05:38:39Z</time>
      </trkpt>
      <trkpt lat="44.76287" lon="6.82098">
        <ele>1323.4</ele>
        <time>2022-07-18T05:38:40Z</time>
      </trkpt>
      <trkpt lat="44.76287" lon="6.82098">
        <ele>1323.4</ele>
        <time>2022-07-18T05:38:41Z</time>
      </trkpt>
      <trkpt lat="44.76287" lon="6.82098">
        <ele>1323.4</ele>
        <time>2022-07-18T05:38:42Z</time>
      </trkpt>
      <trkpt lat="44.76287" lon="6.82098">
        <ele>1323.4</ele>
        <time>2022-07-18T05:38:43Z</time>
      </trkpt>
      <trkpt lat="44.76287" lon="6.82098">
        <ele>1323.4</ele>
        <time>2022-07-18T05:38:45Z</time>
      </trkpt>
      <trkpt lat="44.76286" lon="6.82098">
        <ele>1323.4</ele>
        <time>2022-07-18T05:38:47Z</time>
      </trkpt>
      <trkpt lat="44.76286" lon="6.82098">
        <ele>1323.4</ele>
        <time>2022-07-18T05:38:48Z</time>
      </trkpt>
      <trkpt lat="44.76286" lon="6.82098">
        <ele>1323.4</ele>
        <time>2022-07-18T05:38:51Z</time>
      </trkpt>
      <trkpt lat="44.76286" lon="6.82099">
        <ele>1323.4</ele>
        <time>2022-07-18T05:38:52Z</time>
      </trkpt>
      <trkpt lat="44.76286" lon="6.82099">
        <ele>1323.6</ele>
        <time>2022-07-18T05:38:53Z</time>
      </trkpt>
      <trkpt lat="44.76286" lon="6.82099">
        <ele>1323.6</ele>
        <time>2022-07-18T05:38:54Z</time>
      </trkpt>
      <trkpt lat="44.76286" lon="6.82099">
        <ele>1323.6</ele>
        <time>2022-07-18T05:38:55Z</time>
      </trkpt>
      <trkpt lat="44.76286" lon="6.82099">
        <ele>1323.6</ele>
        <time>2022-07-18T05:38:56Z</time>
      </trkpt>
      <trkpt lat="44.76286" lon="6.82099">
        <ele>1323.6</ele>
        <time>2022-07-18T05:38:57Z</time>
      </trkpt>
      <trkpt lat="44.76286" lon="6.82099">
        <ele>1323.6</ele>
        <time>2022-07-18T05:38:58Z</time>
      </trkpt>
      <trkpt lat="44.76286" lon="6.82099">
        <ele>1323.6</ele>
        <time>2022-07-18T05:38:59Z</time>
      </trkpt>
      <trkpt lat="44.76286" lon="6.82099">
        <ele>1323.6</ele>
        <time>2022-07-18T05:39:00Z</time>
      </trkpt>
      <trkpt lat="44.76286" lon="6.82099">
        <ele>1323.6</ele>
        <time>2022-07-18T05:39:01Z</time>
      </trkpt>
      <trkpt lat="44.76286" lon="6.82099">
        <ele>1323.6</ele>
        <time>2022-07-18T05:39:02Z</time>
      </trkpt>
      <trkpt lat="44.76286" lon="6.821">
        <ele>1323.6</ele>
        <time>2022-07-18T05:39:03Z</time>
      </trkpt>
      <trkpt lat="44.76285" lon="6.82101">
        <ele>1323.4</ele>
        <time>2022-07-18T05:39:04Z</time>
      </trkpt>
      <trkpt lat="44.76284" lon="6.82101">
        <ele>1323.4</ele>
        <time>2022-07-18T05:39:05Z</time>
      </trkpt>
      <trkpt lat="44.76283" lon="6.82102">
        <ele>1323.4</ele>
        <time>2022-07-18T05:39:06Z</time>
      </trkpt>
      <trkpt lat="44.76282" lon="6.82104">
        <ele>1323.4</ele>
        <time>2022-07-18T05:39:07Z</time>
      </trkpt>
      <trkpt lat="44.76282" lon="6.82105">
        <ele>1323.4</ele>
        <time>2022-07-18T05:39:08Z</time>
      </trkpt>
      <trkpt lat="44.76281" lon="6.82106">
        <ele>1323.4</ele>
        <time>2022-07-18T05:39:09Z</time>
      </trkpt>
      <trkpt lat="44.7628" lon="6.82107">
        <ele>1323.4</ele>
        <time>2022-07-18T05:39:10Z</time>
      </trkpt>
      <trkpt lat="44.76279" lon="6.82109">
        <ele>1323.4</ele>
        <time>2022-07-18T05:39:11Z</time>
      </trkpt>
      <trkpt lat="44.76278" lon="6.8211">
        <ele>1323.4</ele>
        <time>2022-07-18T05:39:12Z</time>
      </trkpt>
      <trkpt lat="44.76278" lon="6.82112">
        <ele>1323.2</ele>
        <time>2022-07-18T05:39:13Z</time>
      </trkpt>
      <trkpt lat="44.76277" lon="6.82113">
        <ele>1323.2</ele>
        <time>2022-07-18T05:39:14Z</time>
      </trkpt>
      <trkpt lat="44.76276" lon="6.82115">
        <ele>1323.2</ele>
        <time>2022-07-18T05:39:15Z</time>
      </trkpt>
      <trkpt lat="44.76276" lon="6.82116">
        <ele>1323.2</ele>
        <time>2022-07-18T05:39:16Z</time>
      </trkpt>
      <trkpt lat="44.76275" lon="6.82118">
        <ele>1323.2</ele>
        <time>2022-07-18T05:39:17Z</time>
      </trkpt>
      <trkpt lat="44.76275" lon="6.82118">
        <ele>1323.2</ele>
        <time>2022-07-18T05:39:18Z</time>
      </trkpt>
      <trkpt lat="44.76275" lon="6.82119">
        <ele>1323.2</ele>
        <time>2022-07-18T05:39:19Z</time>
      </trkpt>
      <trkpt lat="44.76275" lon="6.82119">
        <ele>1323.2</ele>
        <time>2022-07-18T05:39:23Z</time>
      </trkpt>
      <trkpt lat="44.76275" lon="6.82119">
        <ele>1323.2</ele>
        <time>2022-07-18T05:39:27Z</time>
      </trkpt>
      <trkpt lat="44.76275" lon="6.82119">
        <ele>1323</ele>
        <time>2022-07-18T05:39:50Z</time>
      </trkpt>
      <trkpt lat="44.76275" lon="6.82119">
        <ele>1323</ele>
        <time>2022-07-18T05:39:54Z</time>
      </trkpt>
      <trkpt lat="44.76275" lon="6.82119">
        <ele>1323.2</ele>
        <time>2022-07-18T05:46:05Z</time>
      </trkpt>
      <trkpt lat="44.76275" lon="6.82119">
        <ele>1323.6</ele>
        <time>2022-07-18T05:59:57Z</time>
      </trkpt>
      <trkpt lat="44.76271" lon="6.8212">
        <ele>1323.6</ele>
        <time>2022-07-18T06:00:02Z</time>
      </trkpt>
      <trkpt lat="44.7627" lon="6.82118">
        <ele>1323.6</ele>
        <time>2022-07-18T06:00:03Z</time>
      </trkpt>
      <trkpt lat="44.76269" lon="6.82115">
        <ele>1323.6</ele>
        <time>2022-07-18T06:00:04Z</time>
      </trkpt>
      <trkpt lat="44.76268" lon="6.82112">
        <ele>1323.6</ele>
        <time>2022-07-18T06:00:05Z</time>
      </trkpt>
      <trkpt lat="44.76267" lon="6.82106">
        <ele>1323.4</ele>
        <time>2022-07-18T06:00:06Z</time>
      </trkpt>
      <trkpt lat="44.76267" lon="6.821">
        <ele>1323.4</ele>
        <time>2022-07-18T06:00:07Z</time>
      </trkpt>
      <trkpt lat="44.76266" lon="6.82094">
        <ele>1323</ele>
        <time>2022-07-18T06:00:08Z</time>
      </trkpt>
      <trkpt lat="44.76265" lon="6.82088">
        <ele>1323</ele>
        <time>2022-07-18T06:00:09Z</time>
      </trkpt>
      <trkpt lat="44.76262" lon="6.82083">
        <ele>1323</ele>
        <time>2022-07-18T06:00:10Z</time>
      </trkpt>
      <trkpt lat="44.76259" lon="6.8208">
        <ele>1322.8</ele>
        <time>2022-07-18T06:00:11Z</time>
      </trkpt>
      <trkpt lat="44.76255" lon="6.82079">
        <ele>1322.8</ele>
        <time>2022-07-18T06:00:12Z</time>
      </trkpt>
      <trkpt lat="44.7625" lon="6.82081">
        <ele>1322.8</ele>
        <time>2022-07-18T06:00:13Z</time>
      </trkpt>
      <trkpt lat="44.76246" lon="6.82084">
        <ele>1322.8</ele>
        <time>2022-07-18T06:00:14Z</time>
      </trkpt>
      <trkpt lat="44.76241" lon="6.82087">
        <ele>1322.6</ele>
        <time>2022-07-18T06:00:15Z</time>
      </trkpt>
      <trkpt lat="44.76237" lon="6.82091">
        <ele>1322.6</ele>
        <time>2022-07-18T06:00:16Z</time>
      </trkpt>
      <trkpt lat="44.76232" lon="6.82093">
        <ele>1322.6</ele>
        <time>2022-07-18T06:00:17Z</time>
      </trkpt>
      <trkpt lat="44.76227" lon="6.82094">
        <ele>1322.6</ele>
        <time>2022-07-18T06:00:18Z</time>
      </trkpt>
      <trkpt lat="44.76222" lon="6.82094">
        <ele>1322.6</ele>
        <time>2022-07-18T06:00:19Z</time>
      </trkpt>
      <trkpt lat="44.76217" lon="6.82094">
        <ele>1322.6</ele>
        <time>2022-07-18T06:00:20Z</time>
      </trkpt>
      <trkpt lat="44.76212" lon="6.82095">
        <ele>1322.8</ele>
        <time>2022-07-18T06:00:21Z</time>
      </trkpt>
      <trkpt lat="44.76207" lon="6.82095">
        <ele>1322.8</ele>
        <time>2022-07-18T06:00:22Z</time>
      </trkpt>
      <trkpt lat="44.76202" lon="6.82096">
        <ele>1322.8</ele>
        <time>2022-07-18T06:00:23Z</time>
      </trkpt>
      <trkpt lat="44.76198" lon="6.82096">
        <ele>1323</ele>
        <time>2022-07-18T06:00:24Z</time>
      </trkpt>
      <trkpt lat="44.76194" lon="6.82097">
        <ele>1323</ele>
        <time>2022-07-18T06:00:25Z</time>
      </trkpt>
      <trkpt lat="44.76189" lon="6.82097">
        <ele>1323</ele>
        <time>2022-07-18T06:00:26Z</time>
      </trkpt>
      <trkpt lat="44.76186" lon="6.82098">
        <ele>1323</ele>
        <time>2022-07-18T06:00:27Z</time>
      </trkpt>
      <trkpt lat="44.76183" lon="6.82098">
        <ele>1323.4</ele>
        <time>2022-07-18T06:00:28Z</time>
      </trkpt>
      <trkpt lat="44.7618" lon="6.82097">
        <ele>1323.4</ele>
        <time>2022-07-18T06:00:29Z</time>
      </trkpt>
      <trkpt lat="44.76179" lon="6.82095">
        <ele>1323.4</ele>
        <time>2022-07-18T06:00:30Z</time>
      </trkpt>
      <trkpt lat="44.76177" lon="6.82092">
        <ele>1323.6</ele>
        <time>2022-07-18T06:00:31Z</time>
      </trkpt>
      <trkpt lat="44.76176" lon="6.82089">
        <ele>1323.6</ele>
        <time>2022-07-18T06:00:32Z</time>
      </trkpt>
      <trkpt lat="44.76176" lon="6.82087">
        <ele>1323.6</ele>
        <time>2022-07-18T06:00:33Z</time>
      </trkpt>
      <trkpt lat="44.76175" lon="6.82086">
        <ele>1323.6</ele>
        <time>2022-07-18T06:00:34Z</time>
      </trkpt>
      <trkpt lat="44.76175" lon="6.82086">
        <ele>1323.6</ele>
        <time>2022-07-18T06:00:35Z</time>
      </trkpt>
      <trkpt lat="44.76175" lon="6.82086">
        <ele>1323.6</ele>
        <time>2022-07-18T06:00:36Z</time>
      </trkpt>
      <trkpt lat="44.76175" lon="6.82086">
        <ele>1323.6</ele>
        <time>2022-07-18T06:00:41Z</time>
      </trkpt>
      <trkpt lat="44.76175" lon="6.82086">
        <ele>1323.6</ele>
        <time>2022-07-18T06:00:45Z</time>
      </trkpt>
      <trkpt lat="44.76175" lon="6.82086">
        <ele>1323.6</ele>
        <time>2022-07-18T06:01:11Z</time>
      </trkpt>
      <trkpt lat="44.76175" lon="6.82086">
        <ele>1323.6</ele>
        <time>2022-07-18T06:02:03Z</time>
      </trkpt>
      <trkpt lat="44.76175" lon="6.82086">
        <ele>1323.8</ele>
        <time>2022-07-18T06:03:01Z</time>
      </trkpt>
      <trkpt lat="44.76175" lon="6.82086">
        <ele>1323.8</ele>
        <time>2022-07-18T06:03:05Z</time>
      </trkpt>
      <trkpt lat="44.76175" lon="6.82086">
        <ele>1323.8</ele>
        <time>2022-07-18T06:03:09Z</time>
      </trkpt>
      <trkpt lat="44.76173" lon="6.82088">
        <ele>1323.8</ele>
        <time>2022-07-18T06:03:11Z</time>
      </trkpt>
      <trkpt lat="44.76171" lon="6.8209">
        <ele>1323.8</ele>
        <time>2022-07-18T06:03:12Z</time>
      </trkpt>
      <trkpt lat="44.7617" lon="6.82092">
        <ele>1323.8</ele>
        <time>2022-07-18T06:03:13Z</time>
      </trkpt>
      <trkpt lat="44.76168" lon="6.82094">
        <ele>1323.8</ele>
        <time>2022-07-18T06:03:14Z</time>
      </trkpt>
      <trkpt lat="44.76166" lon="6.82096">
        <ele>1324</ele>
        <time>2022-07-18T06:03:15Z</time>
      </trkpt>
      <trkpt lat="44.76163" lon="6.82097">
        <ele>1324</ele>
        <time>2022-07-18T06:03:16Z</time>
      </trkpt>
      <trkpt lat="44.7616" lon="6.82098">
        <ele>1324</ele>
        <time>2022-07-18T06:03:17Z</time>
      </trkpt>
      <trkpt lat="44.76157" lon="6.82099">
        <ele>1324.2</ele>
        <time>2022-07-18T06:03:18Z</time>
      </trkpt>
      <trkpt lat="44.76153" lon="6.82099">
        <ele>1324.2</ele>
        <time>2022-07-18T06:03:19Z</time>
      </trkpt>
      <trkpt lat="44.7615" lon="6.821">
        <ele>1324.2</ele>
        <time>2022-07-18T06:03:20Z</time>
      </trkpt>
      <trkpt lat="44.76146" lon="6.82101">
        <ele>1324.2</ele>
        <time>2022-07-18T06:03:21Z</time>
      </trkpt>
      <trkpt lat="44.76142" lon="6.82102">
        <ele>1324.2</ele>
        <time>2022-07-18T06:03:22Z</time>
      </trkpt>
      <trkpt lat="44.76138" lon="6.82102">
        <ele>1324.2</ele>
        <time>2022-07-18T06:03:23Z</time>
      </trkpt>
      <trkpt lat="44.76134" lon="6.82102">
        <ele>1324.4</ele>
        <time>2022-07-18T06:03:24Z</time>
      </trkpt>
      <trkpt lat="44.7613" lon="6.82102">
        <ele>1324.4</ele>
        <time>2022-07-18T06:03:25Z</time>
      </trkpt>
      <trkpt lat="44.76126" lon="6.82103">
        <ele>1324.4</ele>
        <time>2022-07-18T06:03:26Z</time>
      </trkpt>
      <trkpt lat="44.76122" lon="6.82103">
        <ele>1324.4</ele>
        <time>2022-07-18T06:03:27Z</time>
      </trkpt>
      <trkpt lat="44.76119" lon="6.82104">
        <ele>1324.4</ele>
        <time>2022-07-18T06:03:28Z</time>
      </trkpt>
      <trkpt lat="44.76116" lon="6.82104">
        <ele>1324.6</ele>
        <time>2022-07-18T06:03:29Z</time>
      </trkpt>
      <trkpt lat="44.76113" lon="6.82106">
        <ele>1324.6</ele>
        <time>2022-07-18T06:03:30Z</time>
      </trkpt>
      <trkpt lat="44.7611" lon="6.82106">
        <ele>1324.6</ele>
        <time>2022-07-18T06:03:31Z</time>
      </trkpt>
      <trkpt lat="44.76106" lon="6.82106">
        <ele>1324.6</ele>
        <time>2022-07-18T06:03:32Z</time>
      </trkpt>
      <trkpt lat="44.76103" lon="6.82107">
        <ele>1325</ele>
        <time>2022-07-18T06:03:33Z</time>
      </trkpt>
      <trkpt lat="44.76099" lon="6.82107">
        <ele>1325</ele>
        <time>2022-07-18T06:03:34Z</time>
      </trkpt>
      <trkpt lat="44.76096" lon="6.82107">
        <ele>1325.2</ele>
        <time>2022-07-18T06:03:35Z</time>
      </trkpt>
      <trkpt lat="44.76092" lon="6.82107">
        <ele>1325.2</ele>
        <time>2022-07-18T06:03:36Z</time>
      </trkpt>
      <trkpt lat="44.76089" lon="6.82107">
        <ele>1325.2</ele>
        <time>2022-07-18T06:03:37Z</time>
      </trkpt>
      <trkpt lat="44.76085" lon="6.82107">
        <ele>1325.4</ele>
        <time>2022-07-18T06:03:38Z</time>
      </trkpt>
      <trkpt lat="44.76082" lon="6.82107">
        <ele>1325.4</ele>
        <time>2022-07-18T06:03:39Z</time>
      </trkpt>
      <trkpt lat="44.76078" lon="6.82107">
        <ele>1325.8</ele>
        <time>2022-07-18T06:03:40Z</time>
      </trkpt>
      <trkpt lat="44.76075" lon="6.82107">
        <ele>1325.8</ele>
        <time>2022-07-18T06:03:41Z</time>
      </trkpt>
      <trkpt lat="44.76072" lon="6.82108">
        <ele>1326</ele>
        <time>2022-07-18T06:03:42Z</time>
      </trkpt>
      <trkpt lat="44.76069" lon="6.82108">
        <ele>1326.2</ele>
        <time>2022-07-18T06:03:43Z</time>
      </trkpt>
      <trkpt lat="44.76066" lon="6.82109">
        <ele>1326.2</ele>
        <time>2022-07-18T06:03:44Z</time>
      </trkpt>
      <trkpt lat="44.76063" lon="6.82109">
        <ele>1326.4</ele>
        <time>2022-07-18T06:03:45Z</time>
      </trkpt>
      <trkpt lat="44.7606" lon="6.8211">
        <ele>1326.4</ele>
        <time>2022-07-18T06:03:46Z</time>
      </trkpt>
      <trkpt lat="44.76058" lon="6.8211">
        <ele>1326.6</ele>
        <time>2022-07-18T06:03:47Z</time>
      </trkpt>
      <trkpt lat="44.76055" lon="6.8211">
        <ele>1326.8</ele>
        <time>2022-07-18T06:03:48Z</time>
      </trkpt>
      <trkpt lat="44.76052" lon="6.8211">
        <ele>1327.2</ele>
        <time>2022-07-18T06:03:49Z</time>
      </trkpt>
      <trkpt lat="44.7605" lon="6.82111">
        <ele>1327.4</ele>
        <time>2022-07-18T06:03:50Z</time>
      </trkpt>
      <trkpt lat="44.76047" lon="6.82111">
        <ele>1327.4</ele>
        <time>2022-07-18T06:03:51Z</time>
      </trkpt>
      <trkpt lat="44.76044" lon="6.82111">
        <ele>1327.6</ele>
        <time>2022-07-18T06:03:52Z</time>
      </trkpt>
      <trkpt lat="44.76042" lon="6.82112">
        <ele>1327.6</ele>
        <time>2022-07-18T06:03:53Z</time>
      </trkpt>
      <trkpt lat="44.76039" lon="6.82111">
        <ele>1328</ele>
        <time>2022-07-18T06:03:54Z</time>
      </trkpt>
      <trkpt lat="44.76036" lon="6.82111">
        <ele>1328</ele>
        <time>2022-07-18T06:03:55Z</time>
      </trkpt>
      <trkpt lat="44.76034" lon="6.82111">
        <ele>1328.2</ele>
        <time>2022-07-18T06:03:56Z</time>
      </trkpt>
      <trkpt lat="44.76031" lon="6.82111">
        <ele>1328.2</ele>
        <time>2022-07-18T06:03:57Z</time>
      </trkpt>
      <trkpt lat="44.76028" lon="6.82112">
        <ele>1328.6</ele>
        <time>2022-07-18T06:03:58Z</time>
      </trkpt>
      <trkpt lat="44.76026" lon="6.82112">
        <ele>1328.6</ele>
        <time>2022-07-18T06:03:59Z</time>
      </trkpt>
      <trkpt lat="44.76023" lon="6.82112">
        <ele>1328.8</ele>
        <time>2022-07-18T06:04:00Z</time>
      </trkpt>
      <trkpt lat="44.7602" lon="6.82112">
        <ele>1328.8</ele>
        <time>2022-07-18T06:04:01Z</time>
      </trkpt>
      <trkpt lat="44.76018" lon="6.82113">
        <ele>1329.2</ele>
        <time>2022-07-18T06:04:02Z</time>
      </trkpt>
      <trkpt lat="44.76015" lon="6.82113">
        <ele>1329.4</ele>
        <time>2022-07-18T06:04:03Z</time>
      </trkpt>
      <trkpt lat="44.76013" lon="6.82113">
        <ele>1329.4</ele>
        <time>2022-07-18T06:04:04Z</time>
      </trkpt>
      <trkpt lat="44.7601" lon="6.82114">
        <ele>1329.8</ele>
        <time>2022-07-18T06:04:05Z</time>
      </trkpt>
      <trkpt lat="44.76008" lon="6.82114">
        <ele>1330</ele>
        <time>2022-07-18T06:04:06Z</time>
      </trkpt>
      <trkpt lat="44.76005" lon="6.82115">
        <ele>1330</ele>
        <time>2022-07-18T06:04:07Z</time>
      </trkpt>
      <trkpt lat="44.76003" lon="6.82115">
        <ele>1330.4</ele>
        <time>2022-07-18T06:04:08Z</time>
      </trkpt>
      <trkpt lat="44.76" lon="6.82115">
        <ele>1330.4</ele>
        <time>2022-07-18T06:04:09Z</time>
      </trkpt>
      <trkpt lat="44.75998" lon="6.82116">
        <ele>1330.8</ele>
        <time>2022-07-18T06:04:10Z</time>
      </trkpt>
      <trkpt lat="44.75995" lon="6.82116">
        <ele>1330.8</ele>
        <time>2022-07-18T06:04:11Z</time>
      </trkpt>
      <trkpt lat="44.75993" lon="6.82117">
        <ele>1331.2</ele>
        <time>2022-07-18T06:04:12Z</time>
      </trkpt>
      <trkpt lat="44.75991" lon="6.82118">
        <ele>1331.2</ele>
        <time>2022-07-18T06:04:13Z</time>
      </trkpt>
      <trkpt lat="44.75989" lon="6.82119">
        <ele>1331.6</ele>
        <time>2022-07-18T06:04:14Z</time>
      </trkpt>
      <trkpt lat="44.75986" lon="6.82121">
        <ele>1331.6</ele>
        <time>2022-07-18T06:04:15Z</time>
      </trkpt>
      <trkpt lat="44.75984" lon="6.82122">
        <ele>1331.8</ele>
        <time>2022-07-18T06:04:16Z</time>
      </trkpt>
      <trkpt lat="44.75982" lon="6.82123">
        <ele>1332</ele>
        <time>2022-07-18T06:04:17Z</time>
      </trkpt>
      <trkpt lat="44.75979" lon="6.82124">
        <ele>1332.2</ele>
        <time>2022-07-18T06:04:18Z</time>
      </trkpt>
      <trkpt lat="44.75977" lon="6.82126">
        <ele>1332.4</ele>
        <time>2022-07-18T06:04:19Z</time>
      </trkpt>
      <trkpt lat="44.75974" lon="6.82128">
        <ele>1332.4</ele>
        <time>2022-07-18T06:04:20Z</time>
      </trkpt>
      <trkpt lat="44.75972" lon="6.8213">
        <ele>1332.8</ele>
        <time>2022-07-18T06:04:21Z</time>
      </trkpt>
      <trkpt lat="44.7597" lon="6.82132">
        <ele>1332.8</ele>
        <time>2022-07-18T06:04:22Z</time>
      </trkpt>
      <trkpt lat="44.75968" lon="6.82134">
        <ele>1333.2</ele>
        <time>2022-07-18T06:04:23Z</time>
      </trkpt>
      <trkpt lat="44.75966" lon="6.82136">
        <ele>1333.2</ele>
        <time>2022-07-18T06:04:24Z</time>
      </trkpt>
      <trkpt lat="44.75964" lon="6.82138">
        <ele>1333.6</ele>
        <time>2022-07-18T06:04:25Z</time>
      </trkpt>
      <trkpt lat="44.75963" lon="6.82142">
        <ele>1333.6</ele>
        <time>2022-07-18T06:04:26Z</time>
      </trkpt>
      <trkpt lat="44.75961" lon="6.82145">
        <ele>1333.8</ele>
        <time>2022-07-18T06:04:27Z</time>
      </trkpt>
      <trkpt lat="44.75961" lon="6.82149">
        <ele>1333.8</ele>
        <time>2022-07-18T06:04:28Z</time>
      </trkpt>
      <trkpt lat="44.7596" lon="6.82153">
        <ele>1334</ele>
        <time>2022-07-18T06:04:29Z</time>
      </trkpt>
      <trkpt lat="44.75959" lon="6.82156">
        <ele>1334</ele>
        <time>2022-07-18T06:04:30Z</time>
      </trkpt>
      <trkpt lat="44.75959" lon="6.82159">
        <ele>1334.2</ele>
        <time>2022-07-18T06:04:31Z</time>
      </trkpt>
      <trkpt lat="44.75958" lon="6.82163">
        <ele>1334.2</ele>
        <time>2022-07-18T06:04:32Z</time>
      </trkpt>
      <trkpt lat="44.75958" lon="6.82167">
        <ele>1334.6</ele>
        <time>2022-07-18T06:04:33Z</time>
      </trkpt>
      <trkpt lat="44.75958" lon="6.8217">
        <ele>1334.6</ele>
        <time>2022-07-18T06:04:34Z</time>
      </trkpt>
      <trkpt lat="44.75958" lon="6.82174">
        <ele>1334.8</ele>
        <time>2022-07-18T06:04:35Z</time>
      </trkpt>
      <trkpt lat="44.75958" lon="6.82178">
        <ele>1334.8</ele>
        <time>2022-07-18T06:04:36Z</time>
      </trkpt>
      <trkpt lat="44.75958" lon="6.82181">
        <ele>1335.2</ele>
        <time>2022-07-18T06:04:37Z</time>
      </trkpt>
      <trkpt lat="44.75958" lon="6.82184">
        <ele>1335.2</ele>
        <time>2022-07-18T06:04:38Z</time>
      </trkpt>
      <trkpt lat="44.75959" lon="6.82188">
        <ele>1335.6</ele>
        <time>2022-07-18T06:04:39Z</time>
      </trkpt>
      <trkpt lat="44.75959" lon="6.82191">
        <ele>1335.8</ele>
        <time>2022-07-18T06:04:40Z</time>
      </trkpt>
      <trkpt lat="44.7596" lon="6.82195">
        <ele>1336</ele>
        <time>2022-07-18T06:04:41Z</time>
      </trkpt>
      <trkpt lat="44.7596" lon="6.82199">
        <ele>1336.2</ele>
        <time>2022-07-18T06:04:42Z</time>
      </trkpt>
      <trkpt lat="44.75961" lon="6.82202">
        <ele>1336.4</ele>
        <time>2022-07-18T06:04:43Z</time>
      </trkpt>
      <trkpt lat="44.75962" lon="6.82206">
        <ele>1336.4</ele>
        <time>2022-07-18T06:04:44Z</time>
      </trkpt>
      <trkpt lat="44.75962" lon="6.82209">
        <ele>1336.8</ele>
        <time>2022-07-18T06:04:45Z</time>
      </trkpt>
      <trkpt lat="44.75963" lon="6.82212">
        <ele>1336.8</ele>
        <time>2022-07-18T06:04:46Z</time>
      </trkpt>
      <trkpt lat="44.75964" lon="6.82216">
        <ele>1337</ele>
        <time>2022-07-18T06:04:47Z</time>
      </trkpt>
      <trkpt lat="44.75965" lon="6.82219">
        <ele>1337</ele>
        <time>2022-07-18T06:04:48Z</time>
      </trkpt>
      <trkpt lat="44.75966" lon="6.82222">
        <ele>1337.4</ele>
        <time>2022-07-18T06:04:49Z</time>
      </trkpt>
      <trkpt lat="44.75966" lon="6.82225">
        <ele>1337.4</ele>
        <time>2022-07-18T06:04:50Z</time>
      </trkpt>
      <trkpt lat="44.75967" lon="6.82229">
        <ele>1337.8</ele>
        <time>2022-07-18T06:04:51Z</time>
      </trkpt>
      <trkpt lat="44.75968" lon="6.82231">
        <ele>1338.2</ele>
        <time>2022-07-18T06:04:52Z</time>
      </trkpt>
      <trkpt lat="44.75969" lon="6.82234">
        <ele>1338.2</ele>
        <time>2022-07-18T06:04:53Z</time>
      </trkpt>
      <trkpt lat="44.7597" lon="6.82237">
        <ele>1338.4</ele>
        <time>2022-07-18T06:04:54Z</time>
      </trkpt>
      <trkpt lat="44.75971" lon="6.8224">
        <ele>1338.4</ele>
        <time>2022-07-18T06:04:55Z</time>
      </trkpt>
      <trkpt lat="44.75972" lon="6.82242">
        <ele>1338.6</ele>
        <time>2022-07-18T06:04:56Z</time>
      </trkpt>
      <trkpt lat="44.75973" lon="6.82245">
        <ele>1338.6</ele>
        <time>2022-07-18T06:04:57Z</time>
      </trkpt>
      <trkpt lat="44.75975" lon="6.82248">
        <ele>1339</ele>
        <time>2022-07-18T06:04:58Z</time>
      </trkpt>
      <trkpt lat="44.75975" lon="6.8225">
        <ele>1339</ele>
        <time>2022-07-18T06:04:59Z</time>
      </trkpt>
      <trkpt lat="44.75976" lon="6.82253">
        <ele>1339.4</ele>
        <time>2022-07-18T06:05:00Z</time>
      </trkpt>
      <trkpt lat="44.75977" lon="6.82256">
        <ele>1339.6</ele>
        <time>2022-07-18T06:05:01Z</time>
      </trkpt>
      <trkpt lat="44.75978" lon="6.82258">
        <ele>1339.6</ele>
        <time>2022-07-18T06:05:02Z</time>
      </trkpt>
      <trkpt lat="44.7598" lon="6.82261">
        <ele>1340</ele>
        <time>2022-07-18T06:05:03Z</time>
      </trkpt>
      <trkpt lat="44.7598" lon="6.82264">
        <ele>1340.2</ele>
        <time>2022-07-18T06:05:04Z</time>
      </trkpt>
      <trkpt lat="44.75981" lon="6.82267">
        <ele>1340.2</ele>
        <time>2022-07-18T06:05:05Z</time>
      </trkpt>
      <trkpt lat="44.75982" lon="6.8227">
        <ele>1340.6</ele>
        <time>2022-07-18T06:05:06Z</time>
      </trkpt>
      <trkpt lat="44.75983" lon="6.82272">
        <ele>1340.8</ele>
        <time>2022-07-18T06:05:07Z</time>
      </trkpt>
      <trkpt lat="44.75984" lon="6.82275">
        <ele>1340.8</ele>
        <time>2022-07-18T06:05:08Z</time>
      </trkpt>
      <trkpt lat="44.75985" lon="6.82278">
        <ele>1341.2</ele>
        <time>2022-07-18T06:05:09Z</time>
      </trkpt>
      <trkpt lat="44.75986" lon="6.82281">
        <ele>1341.4</ele>
        <time>2022-07-18T06:05:10Z</time>
      </trkpt>
      <trkpt lat="44.75987" lon="6.82284">
        <ele>1341.8</ele>
        <time>2022-07-18T06:05:11Z</time>
      </trkpt>
      <trkpt lat="44.75988" lon="6.82287">
        <ele>1342</ele>
        <time>2022-07-18T06:05:12Z</time>
      </trkpt>
      <trkpt lat="44.7599" lon="6.8229">
        <ele>1342</ele>
        <time>2022-07-18T06:05:13Z</time>
      </trkpt>
      <trkpt lat="44.75991" lon="6.82293">
        <ele>1342.2</ele>
        <time>2022-07-18T06:05:14Z</time>
      </trkpt>
      <trkpt lat="44.75993" lon="6.82295">
        <ele>1342.2</ele>
        <time>2022-07-18T06:05:15Z</time>
      </trkpt>
      <trkpt lat="44.75993" lon="6.82298">
        <ele>1342.6</ele>
        <time>2022-07-18T06:05:16Z</time>
      </trkpt>
      <trkpt lat="44.75994" lon="6.82301">
        <ele>1342.8</ele>
        <time>2022-07-18T06:05:17Z</time>
      </trkpt>
      <trkpt lat="44.75995" lon="6.82303">
        <ele>1343</ele>
        <time>2022-07-18T06:05:18Z</time>
      </trkpt>
      <trkpt lat="44.75996" lon="6.82306">
        <ele>1343</ele>
        <time>2022-07-18T06:05:19Z</time>
      </trkpt>
      <trkpt lat="44.75997" lon="6.82308">
        <ele>1343.4</ele>
        <time>2022-07-18T06:05:20Z</time>
      </trkpt>
      <trkpt lat="44.75998" lon="6.82311">
        <ele>1343.4</ele>
        <time>2022-07-18T06:05:21Z</time>
      </trkpt>
      <trkpt lat="44.75999" lon="6.82313">
        <ele>1343.6</ele>
        <time>2022-07-18T06:05:22Z</time>
      </trkpt>
      <trkpt lat="44.76001" lon="6.82315">
        <ele>1344</ele>
        <time>2022-07-18T06:05:23Z</time>
      </trkpt>
      <trkpt lat="44.76002" lon="6.82318">
        <ele>1344.2</ele>
        <time>2022-07-18T06:05:24Z</time>
      </trkpt>
      <trkpt lat="44.76004" lon="6.8232">
        <ele>1344.2</ele>
        <time>2022-07-18T06:05:25Z</time>
      </trkpt>
      <trkpt lat="44.76005" lon="6.82323">
        <ele>1344.6</ele>
        <time>2022-07-18T06:05:26Z</time>
      </trkpt>
      <trkpt lat="44.76006" lon="6.82326">
        <ele>1344.6</ele>
        <time>2022-07-18T06:05:27Z</time>
      </trkpt>
      <trkpt lat="44.76007" lon="6.82328">
        <ele>1345</ele>
        <time>2022-07-18T06:05:28Z</time>
      </trkpt>
      <trkpt lat="44.76008" lon="6.82331">
        <ele>1345</ele>
        <time>2022-07-18T06:05:29Z</time>
      </trkpt>
      <trkpt lat="44.76009" lon="6.82333">
        <ele>1345.2</ele>
        <time>2022-07-18T06:05:30Z</time>
      </trkpt>
      <trkpt lat="44.7601" lon="6.82335">
        <ele>1345.2</ele>
        <time>2022-07-18T06:05:31Z</time>
      </trkpt>
      <trkpt lat="44.76011" lon="6.82338">
        <ele>1345.6</ele>
        <time>2022-07-18T06:05:32Z</time>
      </trkpt>
      <trkpt lat="44.76012" lon="6.8234">
        <ele>1345.6</ele>
        <time>2022-07-18T06:05:33Z</time>
      </trkpt>
      <trkpt lat="44.76014" lon="6.82343">
        <ele>1346</ele>
        <time>2022-07-18T06:05:34Z</time>
      </trkpt>
      <trkpt lat="44.76015" lon="6.82345">
        <ele>1346.2</ele>
        <time>2022-07-18T06:05:35Z</time>
      </trkpt>
      <trkpt lat="44.76017" lon="6.82348">
        <ele>1346.4</ele>
        <time>2022-07-18T06:05:36Z</time>
      </trkpt>
      <trkpt lat="44.76018" lon="6.82351">
        <ele>1346.6</ele>
        <time>2022-07-18T06:05:37Z</time>
      </trkpt>
      <trkpt lat="44.7602" lon="6.82353">
        <ele>1346.6</ele>
        <time>2022-07-18T06:05:38Z</time>
      </trkpt>
      <trkpt lat="44.76021" lon="6.82356">
        <ele>1347</ele>
        <time>2022-07-18T06:05:39Z</time>
      </trkpt>
      <trkpt lat="44.76022" lon="6.82358">
        <ele>1347</ele>
        <time>2022-07-18T06:05:40Z</time>
      </trkpt>
      <trkpt lat="44.76024" lon="6.8236">
        <ele>1347.4</ele>
        <time>2022-07-18T06:05:41Z</time>
      </trkpt>
      <trkpt lat="44.76025" lon="6.82362">
        <ele>1347.6</ele>
        <time>2022-07-18T06:05:42Z</time>
      </trkpt>
      <trkpt lat="44.76026" lon="6.82365">
        <ele>1347.6</ele>
        <time>2022-07-18T06:05:43Z</time>
      </trkpt>
      <trkpt lat="44.76027" lon="6.82367">
        <ele>1347.8</ele>
        <time>2022-07-18T06:05:44Z</time>
      </trkpt>
      <trkpt lat="44.76028" lon="6.82369">
        <ele>1347.8</ele>
        <time>2022-07-18T06:05:45Z</time>
      </trkpt>
      <trkpt lat="44.76029" lon="6.82371">
        <ele>1348.4</ele>
        <time>2022-07-18T06:05:46Z</time>
      </trkpt>
      <trkpt lat="44.7603" lon="6.82374">
        <ele>1348.6</ele>
        <time>2022-07-18T06:05:47Z</time>
      </trkpt>
      <trkpt lat="44.76032" lon="6.82376">
        <ele>1348.8</ele>
        <time>2022-07-18T06:05:48Z</time>
      </trkpt>
      <trkpt lat="44.76033" lon="6.82379">
        <ele>1349</ele>
        <time>2022-07-18T06:05:49Z</time>
      </trkpt>
      <trkpt lat="44.76035" lon="6.82381">
        <ele>1349</ele>
        <time>2022-07-18T06:05:50Z</time>
      </trkpt>
      <trkpt lat="44.76036" lon="6.82384">
        <ele>1349.6</ele>
        <time>2022-07-18T06:05:51Z</time>
      </trkpt>
      <trkpt lat="44.76038" lon="6.82387">
        <ele>1349.8</ele>
        <time>2022-07-18T06:05:52Z</time>
      </trkpt>
      <trkpt lat="44.76039" lon="6.82389">
        <ele>1350</ele>
        <time>2022-07-18T06:05:53Z</time>
      </trkpt>
      <trkpt lat="44.76041" lon="6.82392">
        <ele>1350.2</ele>
        <time>2022-07-18T06:05:54Z</time>
      </trkpt>
      <trkpt lat="44.76042" lon="6.82395">
        <ele>1350.2</ele>
        <time>2022-07-18T06:05:55Z</time>
      </trkpt>
      <trkpt lat="44.76043" lon="6.82397">
        <ele>1350.4</ele>
        <time>2022-07-18T06:05:56Z</time>
      </trkpt>
      <trkpt lat="44.76045" lon="6.824">
        <ele>1350.4</ele>
        <time>2022-07-18T06:05:57Z</time>
      </trkpt>
      <trkpt lat="44.76046" lon="6.82403">
        <ele>1350.8</ele>
        <time>2022-07-18T06:05:58Z</time>
      </trkpt>
      <trkpt lat="44.76047" lon="6.82405">
        <ele>1350.8</ele>
        <time>2022-07-18T06:05:59Z</time>
      </trkpt>
      <trkpt lat="44.76049" lon="6.82407">
        <ele>1351.2</ele>
        <time>2022-07-18T06:06:00Z</time>
      </trkpt>
      <trkpt lat="44.7605" lon="6.8241">
        <ele>1351.2</ele>
        <time>2022-07-18T06:06:01Z</time>
      </trkpt>
      <trkpt lat="44.76051" lon="6.82412">
        <ele>1351.4</ele>
        <time>2022-07-18T06:06:02Z</time>
      </trkpt>
      <trkpt lat="44.76052" lon="6.82414">
        <ele>1351.4</ele>
        <time>2022-07-18T06:06:03Z</time>
      </trkpt>
      <trkpt lat="44.76054" lon="6.82416">
        <ele>1351.8</ele>
        <time>2022-07-18T06:06:04Z</time>
      </trkpt>
      <trkpt lat="44.76055" lon="6.82419">
        <ele>1351.8</ele>
        <time>2022-07-18T06:06:05Z</time>
      </trkpt>
      <trkpt lat="44.76056" lon="6.82422">
        <ele>1352.2</ele>
        <time>2022-07-18T06:06:06Z</time>
      </trkpt>
      <trkpt lat="44.76057" lon="6.82425">
        <ele>1352.4</ele>
        <time>2022-07-18T06:06:07Z</time>
      </trkpt>
      <trkpt lat="44.76058" lon="6.82427">
        <ele>1352.6</ele>
        <time>2022-07-18T06:06:08Z</time>
      </trkpt>
      <trkpt lat="44.76059" lon="6.82429">
        <ele>1352.6</ele>
        <time>2022-07-18T06:06:09Z</time>
      </trkpt>
      <trkpt lat="44.7606" lon="6.82431">
        <ele>1353</ele>
        <time>2022-07-18T06:06:10Z</time>
      </trkpt>
      <trkpt lat="44.76061" lon="6.82434">
        <ele>1353</ele>
        <time>2022-07-18T06:06:11Z</time>
      </trkpt>
      <trkpt lat="44.76062" lon="6.82436">
        <ele>1353.4</ele>
        <time>2022-07-18T06:06:12Z</time>
      </trkpt>
      <trkpt lat="44.76063" lon="6.82438">
        <ele>1353.4</ele>
        <time>2022-07-18T06:06:13Z</time>
      </trkpt>
      <trkpt lat="44.76064" lon="6.82441">
        <ele>1353.6</ele>
        <time>2022-07-18T06:06:14Z</time>
      </trkpt>
      <trkpt lat="44.76066" lon="6.82443">
        <ele>1353.8</ele>
        <time>2022-07-18T06:06:15Z</time>
      </trkpt>
      <trkpt lat="44.76067" lon="6.82446">
        <ele>1353.8</ele>
        <time>2022-07-18T06:06:16Z</time>
      </trkpt>
      <trkpt lat="44.76068" lon="6.82448">
        <ele>1354.2</ele>
        <time>2022-07-18T06:06:17Z</time>
      </trkpt>
      <trkpt lat="44.76068" lon="6.82451">
        <ele>1354.2</ele>
        <time>2022-07-18T06:06:18Z</time>
      </trkpt>
      <trkpt lat="44.76069" lon="6.82453">
        <ele>1354.6</ele>
        <time>2022-07-18T06:06:19Z</time>
      </trkpt>
      <trkpt lat="44.76071" lon="6.82455">
        <ele>1355</ele>
        <time>2022-07-18T06:06:20Z</time>
      </trkpt>
      <trkpt lat="44.76072" lon="6.82456">
        <ele>1355</ele>
        <time>2022-07-18T06:06:21Z</time>
      </trkpt>
      <trkpt lat="44.76073" lon="6.82459">
        <ele>1355.4</ele>
        <time>2022-07-18T06:06:22Z</time>
      </trkpt>
      <trkpt lat="44.76074" lon="6.82461">
        <ele>1355.6</ele>
        <time>2022-07-18T06:06:23Z</time>
      </trkpt>
      <trkpt lat="44.76076" lon="6.82463">
        <ele>1355.8</ele>
        <time>2022-07-18T06:06:24Z</time>
      </trkpt>
      <trkpt lat="44.76077" lon="6.82465">
        <ele>1356</ele>
        <time>2022-07-18T06:06:25Z</time>
      </trkpt>
      <trkpt lat="44.76079" lon="6.82467">
        <ele>1356.2</ele>
        <time>2022-07-18T06:06:26Z</time>
      </trkpt>
      <trkpt lat="44.76081" lon="6.82468">
        <ele>1356.6</ele>
        <time>2022-07-18T06:06:27Z</time>
      </trkpt>
      <trkpt lat="44.76082" lon="6.8247">
        <ele>1356.6</ele>
        <time>2022-07-18T06:06:28Z</time>
      </trkpt>
      <trkpt lat="44.76084" lon="6.82472">
        <ele>1356.8</ele>
        <time>2022-07-18T06:06:29Z</time>
      </trkpt>
      <trkpt lat="44.76086" lon="6.82474">
        <ele>1357</ele>
        <time>2022-07-18T06:06:30Z</time>
      </trkpt>
      <trkpt lat="44.76088" lon="6.82475">
        <ele>1357.4</ele>
        <time>2022-07-18T06:06:31Z</time>
      </trkpt>
      <trkpt lat="44.76089" lon="6.82475">
        <ele>1357.4</ele>
        <time>2022-07-18T06:06:32Z</time>
      </trkpt>
      <trkpt lat="44.76091" lon="6.82476">
        <ele>1357.8</ele>
        <time>2022-07-18T06:06:33Z</time>
      </trkpt>
      <trkpt lat="44.76093" lon="6.82477">
        <ele>1358</ele>
        <time>2022-07-18T06:06:34Z</time>
      </trkpt>
      <trkpt lat="44.76094" lon="6.82477">
        <ele>1358.2</ele>
        <time>2022-07-18T06:06:35Z</time>
      </trkpt>
      <trkpt lat="44.76096" lon="6.82478">
        <ele>1358.4</ele>
        <time>2022-07-18T06:06:36Z</time>
      </trkpt>
      <trkpt lat="44.76097" lon="6.82478">
        <ele>1358.8</ele>
        <time>2022-07-18T06:06:37Z</time>
      </trkpt>
      <trkpt lat="44.76099" lon="6.82478">
        <ele>1358.8</ele>
        <time>2022-07-18T06:06:38Z</time>
      </trkpt>
      <trkpt lat="44.76101" lon="6.82478">
        <ele>1359</ele>
        <time>2022-07-18T06:06:39Z</time>
      </trkpt>
      <trkpt lat="44.76103" lon="6.82478">
        <ele>1359</ele>
        <time>2022-07-18T06:06:40Z</time>
      </trkpt>
      <trkpt lat="44.76105" lon="6.82479">
        <ele>1359.2</ele>
        <time>2022-07-18T06:06:41Z</time>
      </trkpt>
      <trkpt lat="44.76107" lon="6.8248">
        <ele>1359.2</ele>
        <time>2022-07-18T06:06:42Z</time>
      </trkpt>
      <trkpt lat="44.76109" lon="6.82481">
        <ele>1359.6</ele>
        <time>2022-07-18T06:06:43Z</time>
      </trkpt>
      <trkpt lat="44.76111" lon="6.82482">
        <ele>1359.6</ele>
        <time>2022-07-18T06:06:44Z</time>
      </trkpt>
      <trkpt lat="44.76114" lon="6.82482">
        <ele>1359.8</ele>
        <time>2022-07-18T06:06:45Z</time>
      </trkpt>
      <trkpt lat="44.76116" lon="6.82482">
        <ele>1359.8</ele>
        <time>2022-07-18T06:06:46Z</time>
      </trkpt>
      <trkpt lat="44.76118" lon="6.82482">
        <ele>1360.2</ele>
        <time>2022-07-18T06:06:47Z</time>
      </trkpt>
      <trkpt lat="44.76121" lon="6.82481">
        <ele>1360.6</ele>
        <time>2022-07-18T06:06:48Z</time>
      </trkpt>
      <trkpt lat="44.76123" lon="6.82481">
        <ele>1360.6</ele>
        <time>2022-07-18T06:06:49Z</time>
      </trkpt>
      <trkpt lat="44.76125" lon="6.82482">
        <ele>1360.8</ele>
        <time>2022-07-18T06:06:50Z</time>
      </trkpt>
      <trkpt lat="44.76128" lon="6.82482">
        <ele>1361</ele>
        <time>2022-07-18T06:06:51Z</time>
      </trkpt>
      <trkpt lat="44.7613" lon="6.82483">
        <ele>1361</ele>
        <time>2022-07-18T06:06:52Z</time>
      </trkpt>
      <trkpt lat="44.76132" lon="6.82483">
        <ele>1361.4</ele>
        <time>2022-07-18T06:06:53Z</time>
      </trkpt>
      <trkpt lat="44.76135" lon="6.82484">
        <ele>1361.4</ele>
        <time>2022-07-18T06:06:54Z</time>
      </trkpt>
      <trkpt lat="44.76137" lon="6.82485">
        <ele>1361.8</ele>
        <time>2022-07-18T06:06:55Z</time>
      </trkpt>
      <trkpt lat="44.76139" lon="6.82486">
        <ele>1362</ele>
        <time>2022-07-18T06:06:56Z</time>
      </trkpt>
      <trkpt lat="44.76142" lon="6.82487">
        <ele>1362.2</ele>
        <time>2022-07-18T06:06:57Z</time>
      </trkpt>
      <trkpt lat="44.76144" lon="6.82488">
        <ele>1362.4</ele>
        <time>2022-07-18T06:06:58Z</time>
      </trkpt>
      <trkpt lat="44.76147" lon="6.8249">
        <ele>1362.6</ele>
        <time>2022-07-18T06:06:59Z</time>
      </trkpt>
      <trkpt lat="44.76149" lon="6.82491">
        <ele>1363</ele>
        <time>2022-07-18T06:07:00Z</time>
      </trkpt>
      <trkpt lat="44.76152" lon="6.82492">
        <ele>1363.2</ele>
        <time>2022-07-18T06:07:01Z</time>
      </trkpt>
      <trkpt lat="44.76154" lon="6.82493">
        <ele>1363.6</ele>
        <time>2022-07-18T06:07:02Z</time>
      </trkpt>
      <trkpt lat="44.76156" lon="6.82494">
        <ele>1363.8</ele>
        <time>2022-07-18T06:07:03Z</time>
      </trkpt>
      <trkpt lat="44.76158" lon="6.82495">
        <ele>1364</ele>
        <time>2022-07-18T06:07:04Z</time>
      </trkpt>
      <trkpt lat="44.7616" lon="6.82497">
        <ele>1364</ele>
        <time>2022-07-18T06:07:05Z</time>
      </trkpt>
      <trkpt lat="44.76162" lon="6.82498">
        <ele>1364.4</ele>
        <time>2022-07-18T06:07:06Z</time>
      </trkpt>
      <trkpt lat="44.76164" lon="6.82499">
        <ele>1364.8</ele>
        <time>2022-07-18T06:07:07Z</time>
      </trkpt>
      <trkpt lat="44.76166" lon="6.825">
        <ele>1365</ele>
        <time>2022-07-18T06:07:08Z</time>
      </trkpt>
      <trkpt lat="44.76168" lon="6.82501">
        <ele>1365</ele>
        <time>2022-07-18T06:07:09Z</time>
      </trkpt>
      <trkpt lat="44.7617" lon="6.82503">
        <ele>1365.4</ele>
        <time>2022-07-18T06:07:10Z</time>
      </trkpt>
      <trkpt lat="44.76172" lon="6.82505">
        <ele>1365.4</ele>
        <time>2022-07-18T06:07:11Z</time>
      </trkpt>
      <trkpt lat="44.76174" lon="6.82507">
        <ele>1365.8</ele>
        <time>2022-07-18T06:07:12Z</time>
      </trkpt>
      <trkpt lat="44.76176" lon="6.82509">
        <ele>1365.8</ele>
        <time>2022-07-18T06:07:13Z</time>
      </trkpt>
      <trkpt lat="44.76178" lon="6.82511">
        <ele>1366</ele>
        <time>2022-07-18T06:07:14Z</time>
      </trkpt>
      <trkpt lat="44.7618" lon="6.82512">
        <ele>1366</ele>
        <time>2022-07-18T06:07:15Z</time>
      </trkpt>
      <trkpt lat="44.76181" lon="6.82514">
        <ele>1366.4</ele>
        <time>2022-07-18T06:07:16Z</time>
      </trkpt>
      <trkpt lat="44.76183" lon="6.82516">
        <ele>1366.6</ele>
        <time>2022-07-18T06:07:17Z</time>
      </trkpt>
      <trkpt lat="44.76185" lon="6.82518">
        <ele>1366.6</ele>
        <time>2022-07-18T06:07:18Z</time>
      </trkpt>
      <trkpt lat="44.76186" lon="6.82521">
        <ele>1367</ele>
        <time>2022-07-18T06:07:19Z</time>
      </trkpt>
      <trkpt lat="44.76188" lon="6.82523">
        <ele>1367</ele>
        <time>2022-07-18T06:07:20Z</time>
      </trkpt>
      <trkpt lat="44.76189" lon="6.82525">
        <ele>1367.6</ele>
        <time>2022-07-18T06:07:21Z</time>
      </trkpt>
      <trkpt lat="44.76191" lon="6.82527">
        <ele>1367.8</ele>
        <time>2022-07-18T06:07:22Z</time>
      </trkpt>
      <trkpt lat="44.76192" lon="6.82529">
        <ele>1367.8</ele>
        <time>2022-07-18T06:07:23Z</time>
      </trkpt>
      <trkpt lat="44.76194" lon="6.82532">
        <ele>1368.2</ele>
        <time>2022-07-18T06:07:24Z</time>
      </trkpt>
      <trkpt lat="44.76195" lon="6.82534">
        <ele>1368.4</ele>
        <time>2022-07-18T06:07:25Z</time>
      </trkpt>
      <trkpt lat="44.76197" lon="6.82536">
        <ele>1368.6</ele>
        <time>2022-07-18T06:07:26Z</time>
      </trkpt>
      <trkpt lat="44.76199" lon="6.82539">
        <ele>1368.6</ele>
        <time>2022-07-18T06:07:27Z</time>
      </trkpt>
      <trkpt lat="44.762" lon="6.82541">
        <ele>1369</ele>
        <time>2022-07-18T06:07:28Z</time>
      </trkpt>
      <trkpt lat="44.76202" lon="6.82544">
        <ele>1369</ele>
        <time>2022-07-18T06:07:29Z</time>
      </trkpt>
      <trkpt lat="44.76204" lon="6.82546">
        <ele>1369.4</ele>
        <time>2022-07-18T06:07:30Z</time>
      </trkpt>
      <trkpt lat="44.76205" lon="6.82548">
        <ele>1369.6</ele>
        <time>2022-07-18T06:07:31Z</time>
      </trkpt>
      <trkpt lat="44.76207" lon="6.8255">
        <ele>1369.8</ele>
        <time>2022-07-18T06:07:32Z</time>
      </trkpt>
      <trkpt lat="44.76208" lon="6.82552">
        <ele>1369.8</ele>
        <time>2022-07-18T06:07:33Z</time>
      </trkpt>
      <trkpt lat="44.76209" lon="6.82554">
        <ele>1370.2</ele>
        <time>2022-07-18T06:07:34Z</time>
      </trkpt>
      <trkpt lat="44.7621" lon="6.82556">
        <ele>1370.2</ele>
        <time>2022-07-18T06:07:35Z</time>
      </trkpt>
      <trkpt lat="44.76212" lon="6.82558">
        <ele>1370.6</ele>
        <time>2022-07-18T06:07:36Z</time>
      </trkpt>
      <trkpt lat="44.76213" lon="6.8256">
        <ele>1370.6</ele>
        <time>2022-07-18T06:07:37Z</time>
      </trkpt>
      <trkpt lat="44.76215" lon="6.82563">
        <ele>1371</ele>
        <time>2022-07-18T06:07:38Z</time>
      </trkpt>
      <trkpt lat="44.76217" lon="6.82565">
        <ele>1371</ele>
        <time>2022-07-18T06:07:39Z</time>
      </trkpt>
      <trkpt lat="44.76218" lon="6.82568">
        <ele>1371.2</ele>
        <time>2022-07-18T06:07:40Z</time>
      </trkpt>
      <trkpt lat="44.76219" lon="6.8257">
        <ele>1371.6</ele>
        <time>2022-07-18T06:07:41Z</time>
      </trkpt>
      <trkpt lat="44.76221" lon="6.82572">
        <ele>1371.6</ele>
        <time>2022-07-18T06:07:42Z</time>
      </trkpt>
      <trkpt lat="44.76223" lon="6.82574">
        <ele>1372</ele>
        <time>2022-07-18T06:07:43Z</time>
      </trkpt>
      <trkpt lat="44.76224" lon="6.82577">
        <ele>1372.2</ele>
        <time>2022-07-18T06:07:44Z</time>
      </trkpt>
      <trkpt lat="44.76226" lon="6.82579">
        <ele>1372.2</ele>
        <time>2022-07-18T06:07:45Z</time>
      </trkpt>
      <trkpt lat="44.76228" lon="6.82581">
        <ele>1372.6</ele>
        <time>2022-07-18T06:07:46Z</time>
      </trkpt>
      <trkpt lat="44.7623" lon="6.82584">
        <ele>1372.8</ele>
        <time>2022-07-18T06:07:47Z</time>
      </trkpt>
      <trkpt lat="44.76231" lon="6.82586">
        <ele>1373</ele>
        <time>2022-07-18T06:07:48Z</time>
      </trkpt>
      <trkpt lat="44.76233" lon="6.82588">
        <ele>1373</ele>
        <time>2022-07-18T06:07:49Z</time>
      </trkpt>
      <trkpt lat="44.76235" lon="6.82591">
        <ele>1373.4</ele>
        <time>2022-07-18T06:07:50Z</time>
      </trkpt>
      <trkpt lat="44.76236" lon="6.82593">
        <ele>1373.4</ele>
        <time>2022-07-18T06:07:51Z</time>
      </trkpt>
      <trkpt lat="44.76238" lon="6.82596">
        <ele>1373.6</ele>
        <time>2022-07-18T06:07:52Z</time>
      </trkpt>
      <trkpt lat="44.7624" lon="6.82599">
        <ele>1373.6</ele>
        <time>2022-07-18T06:07:53Z</time>
      </trkpt>
      <trkpt lat="44.76242" lon="6.82601">
        <ele>1374</ele>
        <time>2022-07-18T06:07:54Z</time>
      </trkpt>
      <trkpt lat="44.76243" lon="6.82604">
        <ele>1374.2</ele>
        <time>2022-07-18T06:07:55Z</time>
      </trkpt>
      <trkpt lat="44.76245" lon="6.82606">
        <ele>1374.2</ele>
        <time>2022-07-18T06:07:56Z</time>
      </trkpt>
      <trkpt lat="44.76247" lon="6.82609">
        <ele>1374.4</ele>
        <time>2022-07-18T06:07:57Z</time>
      </trkpt>
      <trkpt lat="44.76249" lon="6.82611">
        <ele>1374.4</ele>
        <time>2022-07-18T06:07:58Z</time>
      </trkpt>
      <trkpt lat="44.7625" lon="6.82614">
        <ele>1374.8</ele>
        <time>2022-07-18T06:07:59Z</time>
      </trkpt>
      <trkpt lat="44.76252" lon="6.82617">
        <ele>1374.8</ele>
        <time>2022-07-18T06:08:00Z</time>
      </trkpt>
      <trkpt lat="44.76252" lon="6.8262">
        <ele>1375</ele>
        <time>2022-07-18T06:08:01Z</time>
      </trkpt>
      <trkpt lat="44.76252" lon="6.82624">
        <ele>1375</ele>
        <time>2022-07-18T06:08:02Z</time>
      </trkpt>
      <trkpt lat="44.76251" lon="6.82627">
        <ele>1375.4</ele>
        <time>2022-07-18T06:08:03Z</time>
      </trkpt>
      <trkpt lat="44.76249" lon="6.82629">
        <ele>1375.6</ele>
        <time>2022-07-18T06:08:04Z</time>
      </trkpt>
      <trkpt lat="44.76247" lon="6.82629">
        <ele>1375.6</ele>
        <time>2022-07-18T06:08:05Z</time>
      </trkpt>
      <trkpt lat="44.76244" lon="6.82629">
        <ele>1376</ele>
        <time>2022-07-18T06:08:06Z</time>
      </trkpt>
      <trkpt lat="44.76242" lon="6.82627">
        <ele>1376</ele>
        <time>2022-07-18T06:08:07Z</time>
      </trkpt>
      <trkpt lat="44.76239" lon="6.82625">
        <ele>1376.4</ele>
        <time>2022-07-18T06:08:08Z</time>
      </trkpt>
      <trkpt lat="44.76238" lon="6.82622">
        <ele>1376.4</ele>
        <time>2022-07-18T06:08:09Z</time>
      </trkpt>
      <trkpt lat="44.76236" lon="6.82619">
        <ele>1376.6</ele>
        <time>2022-07-18T06:08:10Z</time>
      </trkpt>
      <trkpt lat="44.76234" lon="6.82616">
        <ele>1376.6</ele>
        <time>2022-07-18T06:08:11Z</time>
      </trkpt>
      <trkpt lat="44.76232" lon="6.82612">
        <ele>1376.8</ele>
        <time>2022-07-18T06:08:12Z</time>
      </trkpt>
      <trkpt lat="44.76231" lon="6.82609">
        <ele>1376.8</ele>
        <time>2022-07-18T06:08:13Z</time>
      </trkpt>
      <trkpt lat="44.76229" lon="6.82605">
        <ele>1377.2</ele>
        <time>2022-07-18T06:08:14Z</time>
      </trkpt>
      <trkpt lat="44.76228" lon="6.82602">
        <ele>1377.2</ele>
        <time>2022-07-18T06:08:15Z</time>
      </trkpt>
      <trkpt lat="44.76226" lon="6.82599">
        <ele>1377.2</ele>
        <time>2022-07-18T06:08:16Z</time>
      </trkpt>
      <trkpt lat="44.76224" lon="6.82596">
        <ele>1377.4</ele>
        <time>2022-07-18T06:08:17Z</time>
      </trkpt>
      <trkpt lat="44.76223" lon="6.82593">
        <ele>1377.4</ele>
        <time>2022-07-18T06:08:18Z</time>
      </trkpt>
      <trkpt lat="44.76221" lon="6.8259">
        <ele>1377.6</ele>
        <time>2022-07-18T06:08:19Z</time>
      </trkpt>
      <trkpt lat="44.76219" lon="6.82587">
        <ele>1377.8</ele>
        <time>2022-07-18T06:08:20Z</time>
      </trkpt>
      <trkpt lat="44.76217" lon="6.82584">
        <ele>1377.8</ele>
        <time>2022-07-18T06:08:21Z</time>
      </trkpt>
      <trkpt lat="44.76215" lon="6.82582">
        <ele>1378.2</ele>
        <time>2022-07-18T06:08:22Z</time>
      </trkpt>
      <trkpt lat="44.76214" lon="6.82579">
        <ele>1378.2</ele>
        <time>2022-07-18T06:08:23Z</time>
      </trkpt>
      <trkpt lat="44.76212" lon="6.82577">
        <ele>1378.4</ele>
        <time>2022-07-18T06:08:24Z</time>
      </trkpt>
      <trkpt lat="44.7621" lon="6.82574">
        <ele>1378.4</ele>
        <time>2022-07-18T06:08:25Z</time>
      </trkpt>
      <trkpt lat="44.76208" lon="6.82572">
        <ele>1378.4</ele>
        <time>2022-07-18T06:08:26Z</time>
      </trkpt>
      <trkpt lat="44.76206" lon="6.8257">
        <ele>1378.8</ele>
        <time>2022-07-18T06:08:27Z</time>
      </trkpt>
      <trkpt lat="44.76204" lon="6.82568">
        <ele>1378.8</ele>
        <time>2022-07-18T06:08:28Z</time>
      </trkpt>
      <trkpt lat="44.76202" lon="6.82566">
        <ele>1379</ele>
        <time>2022-07-18T06:08:29Z</time>
      </trkpt>
      <trkpt lat="44.762" lon="6.82565">
        <ele>1379</ele>
        <time>2022-07-18T06:08:30Z</time>
      </trkpt>
      <trkpt lat="44.76197" lon="6.82563">
        <ele>1379.4</ele>
        <time>2022-07-18T06:08:31Z</time>
      </trkpt>
      <trkpt lat="44.76195" lon="6.82562">
        <ele>1379.6</ele>
        <time>2022-07-18T06:08:32Z</time>
      </trkpt>
      <trkpt lat="44.76193" lon="6.82562">
        <ele>1379.8</ele>
        <time>2022-07-18T06:08:33Z</time>
      </trkpt>
      <trkpt lat="44.76191" lon="6.82561">
        <ele>1379.8</ele>
        <time>2022-07-18T06:08:34Z</time>
      </trkpt>
      <trkpt lat="44.76189" lon="6.8256">
        <ele>1380</ele>
        <time>2022-07-18T06:08:35Z</time>
      </trkpt>
      <trkpt lat="44.76187" lon="6.82559">
        <ele>1380.2</ele>
        <time>2022-07-18T06:08:36Z</time>
      </trkpt>
      <trkpt lat="44.76184" lon="6.82559">
        <ele>1380.2</ele>
        <time>2022-07-18T06:08:37Z</time>
      </trkpt>
      <trkpt lat="44.76182" lon="6.8256">
        <ele>1380.6</ele>
        <time>2022-07-18T06:08:38Z</time>
      </trkpt>
      <trkpt lat="44.76179" lon="6.8256">
        <ele>1380.6</ele>
        <time>2022-07-18T06:08:39Z</time>
      </trkpt>
      <trkpt lat="44.76177" lon="6.8256">
        <ele>1381</ele>
        <time>2022-07-18T06:08:40Z</time>
      </trkpt>
      <trkpt lat="44.76174" lon="6.8256">
        <ele>1381</ele>
        <time>2022-07-18T06:08:41Z</time>
      </trkpt>
      <trkpt lat="44.76172" lon="6.82561">
        <ele>1381.4</ele>
        <time>2022-07-18T06:08:42Z</time>
      </trkpt>
      <trkpt lat="44.7617" lon="6.82562">
        <ele>1381.6</ele>
        <time>2022-07-18T06:08:43Z</time>
      </trkpt>
      <trkpt lat="44.76167" lon="6.82562">
        <ele>1381.6</ele>
        <time>2022-07-18T06:08:44Z</time>
      </trkpt>
      <trkpt lat="44.76165" lon="6.82563">
        <ele>1381.8</ele>
        <time>2022-07-18T06:08:45Z</time>
      </trkpt>
      <trkpt lat="44.76163" lon="6.82563">
        <ele>1381.8</ele>
        <time>2022-07-18T06:08:46Z</time>
      </trkpt>
      <trkpt lat="44.7616" lon="6.82564">
        <ele>1382.2</ele>
        <time>2022-07-18T06:08:47Z</time>
      </trkpt>
      <trkpt lat="44.76158" lon="6.82565">
        <ele>1382.2</ele>
        <time>2022-07-18T06:08:48Z</time>
      </trkpt>
      <trkpt lat="44.76156" lon="6.82565">
        <ele>1382.6</ele>
        <time>2022-07-18T06:08:49Z</time>
      </trkpt>
      <trkpt lat="44.76153" lon="6.82565">
        <ele>1382.6</ele>
        <time>2022-07-18T06:08:50Z</time>
      </trkpt>
      <trkpt lat="44.76151" lon="6.82565">
        <ele>1382.8</ele>
        <time>2022-07-18T06:08:51Z</time>
      </trkpt>
      <trkpt lat="44.76149" lon="6.82565">
        <ele>1383.2</ele>
        <time>2022-07-18T06:08:52Z</time>
      </trkpt>
      <trkpt lat="44.76146" lon="6.82565">
        <ele>1383.2</ele>
        <time>2022-07-18T06:08:53Z</time>
      </trkpt>
      <trkpt lat="44.76144" lon="6.82565">
        <ele>1383.4</ele>
        <time>2022-07-18T06:08:54Z</time>
      </trkpt>
      <trkpt lat="44.76141" lon="6.82564">
        <ele>1383.6</ele>
        <time>2022-07-18T06:08:55Z</time>
      </trkpt>
      <trkpt lat="44.76139" lon="6.82564">
        <ele>1384</ele>
        <time>2022-07-18T06:08:56Z</time>
      </trkpt>
      <trkpt lat="44.76136" lon="6.82563">
        <ele>1384</ele>
        <time>2022-07-18T06:08:57Z</time>
      </trkpt>
      <trkpt lat="44.76134" lon="6.82562">
        <ele>1384.4</ele>
        <time>2022-07-18T06:08:58Z</time>
      </trkpt>
      <trkpt lat="44.76132" lon="6.82562">
        <ele>1384.6</ele>
        <time>2022-07-18T06:08:59Z</time>
      </trkpt>
      <trkpt lat="44.76129" lon="6.82561">
        <ele>1384.8</ele>
        <time>2022-07-18T06:09:00Z</time>
      </trkpt>
      <trkpt lat="44.76127" lon="6.8256">
        <ele>1385</ele>
        <time>2022-07-18T06:09:01Z</time>
      </trkpt>
      <trkpt lat="44.76124" lon="6.82559">
        <ele>1385.4</ele>
        <time>2022-07-18T06:09:02Z</time>
      </trkpt>
      <trkpt lat="44.76122" lon="6.82558">
        <ele>1385.4</ele>
        <time>2022-07-18T06:09:03Z</time>
      </trkpt>
      <trkpt lat="44.76119" lon="6.82557">
        <ele>1385.6</ele>
        <time>2022-07-18T06:09:04Z</time>
      </trkpt>
      <trkpt lat="44.76117" lon="6.82556">
        <ele>1385.8</ele>
        <time>2022-07-18T06:09:05Z</time>
      </trkpt>
      <trkpt lat="44.76114" lon="6.82556">
        <ele>1386.2</ele>
        <time>2022-07-18T06:09:06Z</time>
      </trkpt>
      <trkpt lat="44.76112" lon="6.82555">
        <ele>1386.2</ele>
        <time>2022-07-18T06:09:07Z</time>
      </trkpt>
      <trkpt lat="44.7611" lon="6.82553">
        <ele>1386.6</ele>
        <time>2022-07-18T06:09:08Z</time>
      </trkpt>
      <trkpt lat="44.76107" lon="6.82553">
        <ele>1386.8</ele>
        <time>2022-07-18T06:09:09Z</time>
      </trkpt>
      <trkpt lat="44.76105" lon="6.82552">
        <ele>1387</ele>
        <time>2022-07-18T06:09:10Z</time>
      </trkpt>
      <trkpt lat="44.76103" lon="6.82551">
        <ele>1387</ele>
        <time>2022-07-18T06:09:11Z</time>
      </trkpt>
      <trkpt lat="44.76101" lon="6.82549">
        <ele>1387.4</ele>
        <time>2022-07-18T06:09:12Z</time>
      </trkpt>
      <trkpt lat="44.76098" lon="6.82548">
        <ele>1387.6</ele>
        <time>2022-07-18T06:09:13Z</time>
      </trkpt>
      <trkpt lat="44.76096" lon="6.82547">
        <ele>1387.8</ele>
        <time>2022-07-18T06:09:14Z</time>
      </trkpt>
      <trkpt lat="44.76094" lon="6.82546">
        <ele>1388</ele>
        <time>2022-07-18T06:09:15Z</time>
      </trkpt>
      <trkpt lat="44.76092" lon="6.82545">
        <ele>1388.4</ele>
        <time>2022-07-18T06:09:16Z</time>
      </trkpt>
      <trkpt lat="44.76089" lon="6.82544">
        <ele>1388.6</ele>
        <time>2022-07-18T06:09:17Z</time>
      </trkpt>
      <trkpt lat="44.76087" lon="6.82543">
        <ele>1388.8</ele>
        <time>2022-07-18T06:09:18Z</time>
      </trkpt>
      <trkpt lat="44.76085" lon="6.82542">
        <ele>1389</ele>
        <time>2022-07-18T06:09:19Z</time>
      </trkpt>
      <trkpt lat="44.76083" lon="6.8254">
        <ele>1389</ele>
        <time>2022-07-18T06:09:20Z</time>
      </trkpt>
      <trkpt lat="44.76081" lon="6.82539">
        <ele>1389.2</ele>
        <time>2022-07-18T06:09:21Z</time>
      </trkpt>
      <trkpt lat="44.76078" lon="6.82538">
        <ele>1389.2</ele>
        <time>2022-07-18T06:09:22Z</time>
      </trkpt>
      <trkpt lat="44.76076" lon="6.82537">
        <ele>1389.8</ele>
        <time>2022-07-18T06:09:23Z</time>
      </trkpt>
      <trkpt lat="44.76074" lon="6.82536">
        <ele>1390</ele>
        <time>2022-07-18T06:09:24Z</time>
      </trkpt>
      <trkpt lat="44.76072" lon="6.82535">
        <ele>1390</ele>
        <time>2022-07-18T06:09:25Z</time>
      </trkpt>
      <trkpt lat="44.7607" lon="6.82534">
        <ele>1390.4</ele>
        <time>2022-07-18T06:09:26Z</time>
      </trkpt>
      <trkpt lat="44.76067" lon="6.82533">
        <ele>1390.6</ele>
        <time>2022-07-18T06:09:27Z</time>
      </trkpt>
      <trkpt lat="44.76065" lon="6.82532">
        <ele>1390.6</ele>
        <time>2022-07-18T06:09:28Z</time>
      </trkpt>
      <trkpt lat="44.76063" lon="6.82531">
        <ele>1390.8</ele>
        <time>2022-07-18T06:09:29Z</time>
      </trkpt>
      <trkpt lat="44.7606" lon="6.8253">
        <ele>1390.8</ele>
        <time>2022-07-18T06:09:30Z</time>
      </trkpt>
      <trkpt lat="44.76058" lon="6.82529">
        <ele>1391.4</ele>
        <time>2022-07-18T06:09:31Z</time>
      </trkpt>
      <trkpt lat="44.76056" lon="6.82528">
        <ele>1391.6</ele>
        <time>2022-07-18T06:09:32Z</time>
      </trkpt>
      <trkpt lat="44.76054" lon="6.82527">
        <ele>1391.6</ele>
        <time>2022-07-18T06:09:33Z</time>
      </trkpt>
      <trkpt lat="44.76052" lon="6.82525">
        <ele>1392</ele>
        <time>2022-07-18T06:09:34Z</time>
      </trkpt>
      <trkpt lat="44.7605" lon="6.82524">
        <ele>1392</ele>
        <time>2022-07-18T06:09:35Z</time>
      </trkpt>
      <trkpt lat="44.76048" lon="6.82523">
        <ele>1392.4</ele>
        <time>2022-07-18T06:09:36Z</time>
      </trkpt>
      <trkpt lat="44.76046" lon="6.82522">
        <ele>1392.4</ele>
        <time>2022-07-18T06:09:37Z</time>
      </trkpt>
      <trkpt lat="44.76043" lon="6.8252">
        <ele>1392.8</ele>
        <time>2022-07-18T06:09:38Z</time>
      </trkpt>
      <trkpt lat="44.76041" lon="6.82519">
        <ele>1393</ele>
        <time>2022-07-18T06:09:39Z</time>
      </trkpt>
      <trkpt lat="44.76039" lon="6.82517">
        <ele>1393</ele>
        <time>2022-07-18T06:09:40Z</time>
      </trkpt>
      <trkpt lat="44.76037" lon="6.82516">
        <ele>1393.4</ele>
        <time>2022-07-18T06:09:41Z</time>
      </trkpt>
      <trkpt lat="44.76035" lon="6.82514">
        <ele>1393.4</ele>
        <time>2022-07-18T06:09:42Z</time>
      </trkpt>
      <trkpt lat="44.76033" lon="6.82512">
        <ele>1393.8</ele>
        <time>2022-07-18T06:09:43Z</time>
      </trkpt>
      <trkpt lat="44.76031" lon="6.82511">
        <ele>1393.8</ele>
        <time>2022-07-18T06:09:44Z</time>
      </trkpt>
      <trkpt lat="44.76029" lon="6.82509">
        <ele>1394.2</ele>
        <time>2022-07-18T06:09:45Z</time>
      </trkpt>
      <trkpt lat="44.76027" lon="6.82508">
        <ele>1394.4</ele>
        <time>2022-07-18T06:09:46Z</time>
      </trkpt>
      <trkpt lat="44.76025" lon="6.82506">
        <ele>1394.6</ele>
        <time>2022-07-18T06:09:47Z</time>
      </trkpt>
      <trkpt lat="44.76023" lon="6.82505">
        <ele>1394.6</ele>
        <time>2022-07-18T06:09:48Z</time>
      </trkpt>
      <trkpt lat="44.76021" lon="6.82503">
        <ele>1395</ele>
        <time>2022-07-18T06:09:49Z</time>
      </trkpt>
      <trkpt lat="44.76018" lon="6.82501">
        <ele>1395.2</ele>
        <time>2022-07-18T06:09:50Z</time>
      </trkpt>
      <trkpt lat="44.76016" lon="6.825">
        <ele>1395.4</ele>
        <time>2022-07-18T06:09:51Z</time>
      </trkpt>
      <trkpt lat="44.76013" lon="6.82498">
        <ele>1395.4</ele>
        <time>2022-07-18T06:09:52Z</time>
      </trkpt>
      <trkpt lat="44.76011" lon="6.82496">
        <ele>1395.8</ele>
        <time>2022-07-18T06:09:53Z</time>
      </trkpt>
      <trkpt lat="44.76009" lon="6.82494">
        <ele>1395.8</ele>
        <time>2022-07-18T06:09:54Z</time>
      </trkpt>
      <trkpt lat="44.76007" lon="6.82492">
        <ele>1396.2</ele>
        <time>2022-07-18T06:09:55Z</time>
      </trkpt>
      <trkpt lat="44.76005" lon="6.8249">
        <ele>1396.2</ele>
        <time>2022-07-18T06:09:56Z</time>
      </trkpt>
      <trkpt lat="44.76004" lon="6.82488">
        <ele>1396.6</ele>
        <time>2022-07-18T06:09:57Z</time>
      </trkpt>
      <trkpt lat="44.76002" lon="6.82485">
        <ele>1396.6</ele>
        <time>2022-07-18T06:09:58Z</time>
      </trkpt>
      <trkpt lat="44.76" lon="6.82483">
        <ele>1396.6</ele>
        <time>2022-07-18T06:09:59Z</time>
      </trkpt>
      <trkpt lat="44.75998" lon="6.8248">
        <ele>1397</ele>
        <time>2022-07-18T06:10:00Z</time>
      </trkpt>
      <trkpt lat="44.75996" lon="6.82478">
        <ele>1397</ele>
        <time>2022-07-18T06:10:01Z</time>
      </trkpt>
      <trkpt lat="44.75995" lon="6.82476">
        <ele>1397.2</ele>
        <time>2022-07-18T06:10:02Z</time>
      </trkpt>
      <trkpt lat="44.75993" lon="6.82474">
        <ele>1397.2</ele>
        <time>2022-07-18T06:10:03Z</time>
      </trkpt>
      <trkpt lat="44.75991" lon="6.82471">
        <ele>1397.6</ele>
        <time>2022-07-18T06:10:04Z</time>
      </trkpt>
      <trkpt lat="44.7599" lon="6.82469">
        <ele>1397.8</ele>
        <time>2022-07-18T06:10:05Z</time>
      </trkpt>
      <trkpt lat="44.75988" lon="6.82467">
        <ele>1397.8</ele>
        <time>2022-07-18T06:10:06Z</time>
      </trkpt>
      <trkpt lat="44.75987" lon="6.82464">
        <ele>1398</ele>
        <time>2022-07-18T06:10:07Z</time>
      </trkpt>
      <trkpt lat="44.75986" lon="6.82461">
        <ele>1398</ele>
        <time>2022-07-18T06:10:08Z</time>
      </trkpt>
      <trkpt lat="44.75985" lon="6.82459">
        <ele>1398.4</ele>
        <time>2022-07-18T06:10:09Z</time>
      </trkpt>
      <trkpt lat="44.75983" lon="6.82456">
        <ele>1398.6</ele>
        <time>2022-07-18T06:10:10Z</time>
      </trkpt>
      <trkpt lat="44.75982" lon="6.82453">
        <ele>1398.8</ele>
        <time>2022-07-18T06:10:11Z</time>
      </trkpt>
      <trkpt lat="44.75981" lon="6.8245">
        <ele>1399.2</ele>
        <time>2022-07-18T06:10:12Z</time>
      </trkpt>
      <trkpt lat="44.7598" lon="6.82448">
        <ele>1399.4</ele>
        <time>2022-07-18T06:10:13Z</time>
      </trkpt>
      <trkpt lat="44.75978" lon="6.82445">
        <ele>1399.4</ele>
        <time>2022-07-18T06:10:14Z</time>
      </trkpt>
      <trkpt lat="44.75977" lon="6.82443">
        <ele>1399.6</ele>
        <time>2022-07-18T06:10:15Z</time>
      </trkpt>
      <trkpt lat="44.75975" lon="6.82441">
        <ele>1399.6</ele>
        <time>2022-07-18T06:10:16Z</time>
      </trkpt>
      <trkpt lat="44.75973" lon="6.82438">
        <ele>1399.8</ele>
        <time>2022-07-18T06:10:17Z</time>
      </trkpt>
      <trkpt lat="44.75972" lon="6.82436">
        <ele>1399.8</ele>
        <time>2022-07-18T06:10:18Z</time>
      </trkpt>
      <trkpt lat="44.7597" lon="6.82434">
        <ele>1400.2</ele>
        <time>2022-07-18T06:10:19Z</time>
      </trkpt>
      <trkpt lat="44.75968" lon="6.82431">
        <ele>1400.2</ele>
        <time>2022-07-18T06:10:20Z</time>
      </trkpt>
      <trkpt lat="44.75966" lon="6.82429">
        <ele>1400.4</ele>
        <time>2022-07-18T06:10:21Z</time>
      </trkpt>
      <trkpt lat="44.75964" lon="6.82428">
        <ele>1400.6</ele>
        <time>2022-07-18T06:10:22Z</time>
      </trkpt>
      <trkpt lat="44.75962" lon="6.82426">
        <ele>1400.6</ele>
        <time>2022-07-18T06:10:23Z</time>
      </trkpt>
      <trkpt lat="44.7596" lon="6.82424">
        <ele>1401</ele>
        <time>2022-07-18T06:10:24Z</time>
      </trkpt>
      <trkpt lat="44.75958" lon="6.82423">
        <ele>1401</ele>
        <time>2022-07-18T06:10:25Z</time>
      </trkpt>
      <trkpt lat="44.75956" lon="6.82421">
        <ele>1401.2</ele>
        <time>2022-07-18T06:10:26Z</time>
      </trkpt>
      <trkpt lat="44.75954" lon="6.8242">
        <ele>1401.2</ele>
        <time>2022-07-18T06:10:27Z</time>
      </trkpt>
      <trkpt lat="44.75951" lon="6.82419">
        <ele>1401.4</ele>
        <time>2022-07-18T06:10:28Z</time>
      </trkpt>
      <trkpt lat="44.75949" lon="6.82418">
        <ele>1401.4</ele>
        <time>2022-07-18T06:10:29Z</time>
      </trkpt>
      <trkpt lat="44.75946" lon="6.82418">
        <ele>1401.4</ele>
        <time>2022-07-18T06:10:30Z</time>
      </trkpt>
      <trkpt lat="44.75944" lon="6.82418">
        <ele>1401.8</ele>
        <time>2022-07-18T06:10:31Z</time>
      </trkpt>
      <trkpt lat="44.75941" lon="6.82418">
        <ele>1401.8</ele>
        <time>2022-07-18T06:10:32Z</time>
      </trkpt>
      <trkpt lat="44.75939" lon="6.82418">
        <ele>1401.8</ele>
        <time>2022-07-18T06:10:33Z</time>
      </trkpt>
      <trkpt lat="44.75937" lon="6.82418">
        <ele>1402.2</ele>
        <time>2022-07-18T06:10:34Z</time>
      </trkpt>
      <trkpt lat="44.75934" lon="6.82418">
        <ele>1402.2</ele>
        <time>2022-07-18T06:10:35Z</time>
      </trkpt>
      <trkpt lat="44.75932" lon="6.82418">
        <ele>1402.6</ele>
        <time>2022-07-18T06:10:36Z</time>
      </trkpt>
      <trkpt lat="44.7593" lon="6.82418">
        <ele>1402.6</ele>
        <time>2022-07-18T06:10:37Z</time>
      </trkpt>
      <trkpt lat="44.75927" lon="6.82419">
        <ele>1402.8</ele>
        <time>2022-07-18T06:10:38Z</time>
      </trkpt>
      <trkpt lat="44.75925" lon="6.82419">
        <ele>1402.8</ele>
        <time>2022-07-18T06:10:39Z</time>
      </trkpt>
      <trkpt lat="44.75922" lon="6.8242">
        <ele>1403.2</ele>
        <time>2022-07-18T06:10:40Z</time>
      </trkpt>
      <trkpt lat="44.7592" lon="6.8242">
        <ele>1403.2</ele>
        <time>2022-07-18T06:10:41Z</time>
      </trkpt>
      <trkpt lat="44.75918" lon="6.82421">
        <ele>1403.4</ele>
        <time>2022-07-18T06:10:42Z</time>
      </trkpt>
      <trkpt lat="44.75915" lon="6.82422">
        <ele>1403.4</ele>
        <time>2022-07-18T06:10:43Z</time>
      </trkpt>
      <trkpt lat="44.75913" lon="6.82423">
        <ele>1403.8</ele>
        <time>2022-07-18T06:10:44Z</time>
      </trkpt>
      <trkpt lat="44.75911" lon="6.82423">
        <ele>1404.2</ele>
        <time>2022-07-18T06:10:45Z</time>
      </trkpt>
      <trkpt lat="44.75909" lon="6.82424">
        <ele>1404.4</ele>
        <time>2022-07-18T06:10:46Z</time>
      </trkpt>
      <trkpt lat="44.75906" lon="6.82425">
        <ele>1404.4</ele>
        <time>2022-07-18T06:10:47Z</time>
      </trkpt>
      <trkpt lat="44.75904" lon="6.82426">
        <ele>1404.8</ele>
        <time>2022-07-18T06:10:48Z</time>
      </trkpt>
      <trkpt lat="44.75902" lon="6.82427">
        <ele>1404.8</ele>
        <time>2022-07-18T06:10:49Z</time>
      </trkpt>
      <trkpt lat="44.759" lon="6.82428">
        <ele>1405</ele>
        <time>2022-07-18T06:10:50Z</time>
      </trkpt>
      <trkpt lat="44.75898" lon="6.82429">
        <ele>1405</ele>
        <time>2022-07-18T06:10:51Z</time>
      </trkpt>
      <trkpt lat="44.75896" lon="6.8243">
        <ele>1405.4</ele>
        <time>2022-07-18T06:10:52Z</time>
      </trkpt>
      <trkpt lat="44.75894" lon="6.82431">
        <ele>1405.4</ele>
        <time>2022-07-18T06:10:53Z</time>
      </trkpt>
      <trkpt lat="44.75892" lon="6.82432">
        <ele>1405.8</ele>
        <time>2022-07-18T06:10:54Z</time>
      </trkpt>
      <trkpt lat="44.7589" lon="6.82433">
        <ele>1405.8</ele>
        <time>2022-07-18T06:10:55Z</time>
      </trkpt>
      <trkpt lat="44.75887" lon="6.82434">
        <ele>1406.2</ele>
        <time>2022-07-18T06:10:56Z</time>
      </trkpt>
      <trkpt lat="44.75885" lon="6.82435">
        <ele>1406.4</ele>
        <time>2022-07-18T06:10:57Z</time>
      </trkpt>
      <trkpt lat="44.75883" lon="6.82436">
        <ele>1406.4</ele>
        <time>2022-07-18T06:10:58Z</time>
      </trkpt>
      <trkpt lat="44.75881" lon="6.82437">
        <ele>1406.8</ele>
        <time>2022-07-18T06:10:59Z</time>
      </trkpt>
      <trkpt lat="44.75879" lon="6.82437">
        <ele>1406.8</ele>
        <time>2022-07-18T06:11:00Z</time>
      </trkpt>
      <trkpt lat="44.75877" lon="6.82438">
        <ele>1407</ele>
        <time>2022-07-18T06:11:01Z</time>
      </trkpt>
      <trkpt lat="44.75875" lon="6.82439">
        <ele>1407</ele>
        <time>2022-07-18T06:11:02Z</time>
      </trkpt>
      <trkpt lat="44.75873" lon="6.8244">
        <ele>1407.2</ele>
        <time>2022-07-18T06:11:03Z</time>
      </trkpt>
      <trkpt lat="44.7587" lon="6.82441">
        <ele>1407.4</ele>
        <time>2022-07-18T06:11:04Z</time>
      </trkpt>
      <trkpt lat="44.75868" lon="6.82442">
        <ele>1407.8</ele>
        <time>2022-07-18T06:11:05Z</time>
      </trkpt>
      <trkpt lat="44.75866" lon="6.82442">
        <ele>1407.8</ele>
        <time>2022-07-18T06:11:06Z</time>
      </trkpt>
      <trkpt lat="44.75864" lon="6.82443">
        <ele>1408</ele>
        <time>2022-07-18T06:11:07Z</time>
      </trkpt>
      <trkpt lat="44.75862" lon="6.82444">
        <ele>1408</ele>
        <time>2022-07-18T06:11:08Z</time>
      </trkpt>
      <trkpt lat="44.7586" lon="6.82445">
        <ele>1408.4</ele>
        <time>2022-07-18T06:11:09Z</time>
      </trkpt>
      <trkpt lat="44.75857" lon="6.82446">
        <ele>1408.4</ele>
        <time>2022-07-18T06:11:10Z</time>
      </trkpt>
      <trkpt lat="44.75855" lon="6.82447">
        <ele>1408.8</ele>
        <time>2022-07-18T06:11:11Z</time>
      </trkpt>
      <trkpt lat="44.75853" lon="6.82448">
        <ele>1409</ele>
        <time>2022-07-18T06:11:12Z</time>
      </trkpt>
      <trkpt lat="44.75851" lon="6.82449">
        <ele>1409</ele>
        <time>2022-07-18T06:11:13Z</time>
      </trkpt>
      <trkpt lat="44.75848" lon="6.8245">
        <ele>1409.4</ele>
        <time>2022-07-18T06:11:14Z</time>
      </trkpt>
      <trkpt lat="44.75846" lon="6.8245">
        <ele>1409.4</ele>
        <time>2022-07-18T06:11:15Z</time>
      </trkpt>
      <trkpt lat="44.75844" lon="6.82451">
        <ele>1409.6</ele>
        <time>2022-07-18T06:11:16Z</time>
      </trkpt>
      <trkpt lat="44.75841" lon="6.82452">
        <ele>1409.8</ele>
        <time>2022-07-18T06:11:17Z</time>
      </trkpt>
      <trkpt lat="44.75839" lon="6.82453">
        <ele>1409.8</ele>
        <time>2022-07-18T06:11:18Z</time>
      </trkpt>
      <trkpt lat="44.75837" lon="6.82454">
        <ele>1410.2</ele>
        <time>2022-07-18T06:11:19Z</time>
      </trkpt>
      <trkpt lat="44.75834" lon="6.82455">
        <ele>1410.4</ele>
        <time>2022-07-18T06:11:20Z</time>
      </trkpt>
      <trkpt lat="44.75832" lon="6.82456">
        <ele>1410.8</ele>
        <time>2022-07-18T06:11:21Z</time>
      </trkpt>
      <trkpt lat="44.7583" lon="6.82456">
        <ele>1410.8</ele>
        <time>2022-07-18T06:11:22Z</time>
      </trkpt>
      <trkpt lat="44.75827" lon="6.82457">
        <ele>1411.2</ele>
        <time>2022-07-18T06:11:23Z</time>
      </trkpt>
      <trkpt lat="44.75825" lon="6.82458">
        <ele>1411.2</ele>
        <time>2022-07-18T06:11:24Z</time>
      </trkpt>
      <trkpt lat="44.75823" lon="6.82459">
        <ele>1411.6</ele>
        <time>2022-07-18T06:11:25Z</time>
      </trkpt>
      <trkpt lat="44.75821" lon="6.8246">
        <ele>1411.8</ele>
        <time>2022-07-18T06:11:26Z</time>
      </trkpt>
      <trkpt lat="44.75818" lon="6.82461">
        <ele>1411.8</ele>
        <time>2022-07-18T06:11:27Z</time>
      </trkpt>
      <trkpt lat="44.75816" lon="6.82461">
        <ele>1412.2</ele>
        <time>2022-07-18T06:11:28Z</time>
      </trkpt>
      <trkpt lat="44.75814" lon="6.82462">
        <ele>1412.4</ele>
        <time>2022-07-18T06:11:29Z</time>
      </trkpt>
      <trkpt lat="44.75811" lon="6.82462">
        <ele>1412.8</ele>
        <time>2022-07-18T06:11:30Z</time>
      </trkpt>
      <trkpt lat="44.75809" lon="6.82463">
        <ele>1413</ele>
        <time>2022-07-18T06:11:31Z</time>
      </trkpt>
      <trkpt lat="44.75807" lon="6.82464">
        <ele>1413.2</ele>
        <time>2022-07-18T06:11:32Z</time>
      </trkpt>
      <trkpt lat="44.75805" lon="6.82464">
        <ele>1413.2</ele>
        <time>2022-07-18T06:11:33Z</time>
      </trkpt>
      <trkpt lat="44.75802" lon="6.82465">
        <ele>1413.6</ele>
        <time>2022-07-18T06:11:34Z</time>
      </trkpt>
      <trkpt lat="44.758" lon="6.82465">
        <ele>1413.8</ele>
        <time>2022-07-18T06:11:35Z</time>
      </trkpt>
      <trkpt lat="44.75798" lon="6.82466">
        <ele>1414.2</ele>
        <time>2022-07-18T06:11:36Z</time>
      </trkpt>
      <trkpt lat="44.75795" lon="6.82466">
        <ele>1414.4</ele>
        <time>2022-07-18T06:11:37Z</time>
      </trkpt>
      <trkpt lat="44.75793" lon="6.82466">
        <ele>1414.4</ele>
        <time>2022-07-18T06:11:38Z</time>
      </trkpt>
      <trkpt lat="44.75791" lon="6.82466">
        <ele>1414.8</ele>
        <time>2022-07-18T06:11:39Z</time>
      </trkpt>
      <trkpt lat="44.75788" lon="6.82467">
        <ele>1415</ele>
        <time>2022-07-18T06:11:40Z</time>
      </trkpt>
      <trkpt lat="44.75786" lon="6.82467">
        <ele>1415.2</ele>
        <time>2022-07-18T06:11:41Z</time>
      </trkpt>
      <trkpt lat="44.75784" lon="6.82467">
        <ele>1415.2</ele>
        <time>2022-07-18T06:11:42Z</time>
      </trkpt>
      <trkpt lat="44.75782" lon="6.82467">
        <ele>1415.6</ele>
        <time>2022-07-18T06:11:43Z</time>
      </trkpt>
      <trkpt lat="44.75779" lon="6.82468">
        <ele>1415.6</ele>
        <time>2022-07-18T06:11:44Z</time>
      </trkpt>
      <trkpt lat="44.75777" lon="6.82468">
        <ele>1416</ele>
        <time>2022-07-18T06:11:45Z</time>
      </trkpt>
      <trkpt lat="44.75775" lon="6.82468">
        <ele>1416.2</ele>
        <time>2022-07-18T06:11:46Z</time>
      </trkpt>
      <trkpt lat="44.75773" lon="6.82469">
        <ele>1416.2</ele>
        <time>2022-07-18T06:11:47Z</time>
      </trkpt>
      <trkpt lat="44.7577" lon="6.82469">
        <ele>1416.6</ele>
        <time>2022-07-18T06:11:48Z</time>
      </trkpt>
      <trkpt lat="44.75768" lon="6.82469">
        <ele>1416.6</ele>
        <time>2022-07-18T06:11:49Z</time>
      </trkpt>
      <trkpt lat="44.75766" lon="6.82469">
        <ele>1417</ele>
        <time>2022-07-18T06:11:50Z</time>
      </trkpt>
      <trkpt lat="44.75763" lon="6.82469">
        <ele>1417</ele>
        <time>2022-07-18T06:11:51Z</time>
      </trkpt>
      <trkpt lat="44.75761" lon="6.82469">
        <ele>1417.4</ele>
        <time>2022-07-18T06:11:52Z</time>
      </trkpt>
      <trkpt lat="44.75758" lon="6.82469">
        <ele>1417.6</ele>
        <time>2022-07-18T06:11:53Z</time>
      </trkpt>
      <trkpt lat="44.75756" lon="6.82469">
        <ele>1417.6</ele>
        <time>2022-07-18T06:11:54Z</time>
      </trkpt>
      <trkpt lat="44.75753" lon="6.8247">
        <ele>1418</ele>
        <time>2022-07-18T06:11:55Z</time>
      </trkpt>
      <trkpt lat="44.75751" lon="6.8247">
        <ele>1418.2</ele>
        <time>2022-07-18T06:11:56Z</time>
      </trkpt>
      <trkpt lat="44.75749" lon="6.8247">
        <ele>1418.4</ele>
        <time>2022-07-18T06:11:57Z</time>
      </trkpt>
      <trkpt lat="44.75747" lon="6.8247">
        <ele>1418.6</ele>
        <time>2022-07-18T06:11:58Z</time>
      </trkpt>
      <trkpt lat="44.75745" lon="6.82471">
        <ele>1418.6</ele>
        <time>2022-07-18T06:11:59Z</time>
      </trkpt>
      <trkpt lat="44.75743" lon="6.82471">
        <ele>1419</ele>
        <time>2022-07-18T06:12:00Z</time>
      </trkpt>
      <trkpt lat="44.75741" lon="6.82471">
        <ele>1419.2</ele>
        <time>2022-07-18T06:12:01Z</time>
      </trkpt>
      <trkpt lat="44.75739" lon="6.8247">
        <ele>1419.2</ele>
        <time>2022-07-18T06:12:02Z</time>
      </trkpt>
      <trkpt lat="44.75737" lon="6.8247">
        <ele>1419.6</ele>
        <time>2022-07-18T06:12:03Z</time>
      </trkpt>
      <trkpt lat="44.75735" lon="6.8247">
        <ele>1420</ele>
        <time>2022-07-18T06:12:04Z</time>
      </trkpt>
      <trkpt lat="44.75733" lon="6.8247">
        <ele>1420</ele>
        <time>2022-07-18T06:12:05Z</time>
      </trkpt>
      <trkpt lat="44.75731" lon="6.8247">
        <ele>1420.2</ele>
        <time>2022-07-18T06:12:06Z</time>
      </trkpt>
      <trkpt lat="44.75729" lon="6.8247">
        <ele>1420.2</ele>
        <time>2022-07-18T06:12:07Z</time>
      </trkpt>
      <trkpt lat="44.75726" lon="6.82469">
        <ele>1420.4</ele>
        <time>2022-07-18T06:12:08Z</time>
      </trkpt>
      <trkpt lat="44.75724" lon="6.82469">
        <ele>1420.6</ele>
        <time>2022-07-18T06:12:09Z</time>
      </trkpt>
      <trkpt lat="44.75721" lon="6.82468">
        <ele>1420.6</ele>
        <time>2022-07-18T06:12:10Z</time>
      </trkpt>
      <trkpt lat="44.75719" lon="6.82468">
        <ele>1421</ele>
        <time>2022-07-18T06:12:11Z</time>
      </trkpt>
      <trkpt lat="44.75716" lon="6.82468">
        <ele>1421</ele>
        <time>2022-07-18T06:12:12Z</time>
      </trkpt>
      <trkpt lat="44.75714" lon="6.82468">
        <ele>1421.4</ele>
        <time>2022-07-18T06:12:13Z</time>
      </trkpt>
      <trkpt lat="44.75711" lon="6.82468">
        <ele>1421.4</ele>
        <time>2022-07-18T06:12:14Z</time>
      </trkpt>
      <trkpt lat="44.75709" lon="6.82468">
        <ele>1421.6</ele>
        <time>2022-07-18T06:12:15Z</time>
      </trkpt>
      <trkpt lat="44.75707" lon="6.82468">
        <ele>1421.6</ele>
        <time>2022-07-18T06:12:16Z</time>
      </trkpt>
      <trkpt lat="44.75704" lon="6.82467">
        <ele>1421.8</ele>
        <time>2022-07-18T06:12:17Z</time>
      </trkpt>
      <trkpt lat="44.75702" lon="6.82466">
        <ele>1421.8</ele>
        <time>2022-07-18T06:12:18Z</time>
      </trkpt>
      <trkpt lat="44.75699" lon="6.82465">
        <ele>1422.2</ele>
        <time>2022-07-18T06:12:19Z</time>
      </trkpt>
      <trkpt lat="44.75697" lon="6.82464">
        <ele>1422.4</ele>
        <time>2022-07-18T06:12:20Z</time>
      </trkpt>
      <trkpt lat="44.75695" lon="6.82463">
        <ele>1422.8</ele>
        <time>2022-07-18T06:12:21Z</time>
      </trkpt>
      <trkpt lat="44.75693" lon="6.82462">
        <ele>1423</ele>
        <time>2022-07-18T06:12:22Z</time>
      </trkpt>
      <trkpt lat="44.7569" lon="6.82461">
        <ele>1423</ele>
        <time>2022-07-18T06:12:23Z</time>
      </trkpt>
      <trkpt lat="44.75688" lon="6.82459">
        <ele>1423.4</ele>
        <time>2022-07-18T06:12:24Z</time>
      </trkpt>
      <trkpt lat="44.75685" lon="6.82458">
        <ele>1423.6</ele>
        <time>2022-07-18T06:12:25Z</time>
      </trkpt>
      <trkpt lat="44.75683" lon="6.82457">
        <ele>1423.8</ele>
        <time>2022-07-18T06:12:26Z</time>
      </trkpt>
      <trkpt lat="44.75681" lon="6.82456">
        <ele>1424.2</ele>
        <time>2022-07-18T06:12:27Z</time>
      </trkpt>
      <trkpt lat="44.75679" lon="6.82454">
        <ele>1424.2</ele>
        <time>2022-07-18T06:12:28Z</time>
      </trkpt>
      <trkpt lat="44.75677" lon="6.82453">
        <ele>1424.6</ele>
        <time>2022-07-18T06:12:29Z</time>
      </trkpt>
      <trkpt lat="44.75674" lon="6.82451">
        <ele>1424.8</ele>
        <time>2022-07-18T06:12:30Z</time>
      </trkpt>
      <trkpt lat="44.75672" lon="6.8245">
        <ele>1425</ele>
        <time>2022-07-18T06:12:31Z</time>
      </trkpt>
      <trkpt lat="44.7567" lon="6.82449">
        <ele>1425</ele>
        <time>2022-07-18T06:12:32Z</time>
      </trkpt>
      <trkpt lat="44.75668" lon="6.82448">
        <ele>1425.4</ele>
        <time>2022-07-18T06:12:33Z</time>
      </trkpt>
      <trkpt lat="44.75666" lon="6.82446">
        <ele>1425.6</ele>
        <time>2022-07-18T06:12:34Z</time>
      </trkpt>
      <trkpt lat="44.75663" lon="6.82445">
        <ele>1425.8</ele>
        <time>2022-07-18T06:12:35Z</time>
      </trkpt>
      <trkpt lat="44.75661" lon="6.82444">
        <ele>1426</ele>
        <time>2022-07-18T06:12:36Z</time>
      </trkpt>
      <trkpt lat="44.75659" lon="6.82442">
        <ele>1426.4</ele>
        <time>2022-07-18T06:12:37Z</time>
      </trkpt>
      <trkpt lat="44.75656" lon="6.82441">
        <ele>1426.4</ele>
        <time>2022-07-18T06:12:38Z</time>
      </trkpt>
      <trkpt lat="44.75654" lon="6.82439">
        <ele>1426.8</ele>
        <time>2022-07-18T06:12:39Z</time>
      </trkpt>
      <trkpt lat="44.75652" lon="6.82438">
        <ele>1426.8</ele>
        <time>2022-07-18T06:12:40Z</time>
      </trkpt>
      <trkpt lat="44.7565" lon="6.82437">
        <ele>1427</ele>
        <time>2022-07-18T06:12:41Z</time>
      </trkpt>
      <trkpt lat="44.75647" lon="6.82435">
        <ele>1427</ele>
        <time>2022-07-18T06:12:42Z</time>
      </trkpt>
      <trkpt lat="44.75645" lon="6.82435">
        <ele>1427.2</ele>
        <time>2022-07-18T06:12:43Z</time>
      </trkpt>
      <trkpt lat="44.75644" lon="6.82434">
        <ele>1427.4</ele>
        <time>2022-07-18T06:12:44Z</time>
      </trkpt>
      <trkpt lat="44.75642" lon="6.82433">
        <ele>1427.4</ele>
        <time>2022-07-18T06:12:45Z</time>
      </trkpt>
      <trkpt lat="44.7564" lon="6.82432">
        <ele>1427.8</ele>
        <time>2022-07-18T06:12:46Z</time>
      </trkpt>
      <trkpt lat="44.75638" lon="6.82431">
        <ele>1427.8</ele>
        <time>2022-07-18T06:12:47Z</time>
      </trkpt>
      <trkpt lat="44.75636" lon="6.8243">
        <ele>1428</ele>
        <time>2022-07-18T06:12:48Z</time>
      </trkpt>
      <trkpt lat="44.75633" lon="6.82429">
        <ele>1428.2</ele>
        <time>2022-07-18T06:12:49Z</time>
      </trkpt>
      <trkpt lat="44.75631" lon="6.82427">
        <ele>1428.2</ele>
        <time>2022-07-18T06:12:50Z</time>
      </trkpt>
      <trkpt lat="44.75629" lon="6.82427">
        <ele>1428.6</ele>
        <time>2022-07-18T06:12:51Z</time>
      </trkpt>
      <trkpt lat="44.75627" lon="6.82426">
        <ele>1428.8</ele>
        <time>2022-07-18T06:12:52Z</time>
      </trkpt>
      <trkpt lat="44.75625" lon="6.82425">
        <ele>1429.2</ele>
        <time>2022-07-18T06:12:53Z</time>
      </trkpt>
      <trkpt lat="44.75622" lon="6.82425">
        <ele>1429.2</ele>
        <time>2022-07-18T06:12:54Z</time>
      </trkpt>
      <trkpt lat="44.7562" lon="6.82425">
        <ele>1429.6</ele>
        <time>2022-07-18T06:12:55Z</time>
      </trkpt>
      <trkpt lat="44.75617" lon="6.82424">
        <ele>1429.6</ele>
        <time>2022-07-18T06:12:56Z</time>
      </trkpt>
      <trkpt lat="44.75615" lon="6.82424">
        <ele>1429.8</ele>
        <time>2022-07-18T06:12:57Z</time>
      </trkpt>
      <trkpt lat="44.75613" lon="6.82423">
        <ele>1429.8</ele>
        <time>2022-07-18T06:12:58Z</time>
      </trkpt>
      <trkpt lat="44.75611" lon="6.82423">
        <ele>1430.2</ele>
        <time>2022-07-18T06:12:59Z</time>
      </trkpt>
      <trkpt lat="44.75608" lon="6.82422">
        <ele>1430.4</ele>
        <time>2022-07-18T06:13:00Z</time>
      </trkpt>
      <trkpt lat="44.75606" lon="6.82422">
        <ele>1430.4</ele>
        <time>2022-07-18T06:13:01Z</time>
      </trkpt>
      <trkpt lat="44.75604" lon="6.82422">
        <ele>1430.8</ele>
        <time>2022-07-18T06:13:02Z</time>
      </trkpt>
      <trkpt lat="44.75601" lon="6.82422">
        <ele>1430.8</ele>
        <time>2022-07-18T06:13:03Z</time>
      </trkpt>
      <trkpt lat="44.75599" lon="6.82422">
        <ele>1431.2</ele>
        <time>2022-07-18T06:13:04Z</time>
      </trkpt>
      <trkpt lat="44.75597" lon="6.82422">
        <ele>1431.2</ele>
        <time>2022-07-18T06:13:05Z</time>
      </trkpt>
      <trkpt lat="44.75594" lon="6.82422">
        <ele>1431.6</ele>
        <time>2022-07-18T06:13:06Z</time>
      </trkpt>
      <trkpt lat="44.75592" lon="6.82422">
        <ele>1431.8</ele>
        <time>2022-07-18T06:13:07Z</time>
      </trkpt>
      <trkpt lat="44.7559" lon="6.82423">
        <ele>1432</ele>
        <time>2022-07-18T06:13:08Z</time>
      </trkpt>
      <trkpt lat="44.75588" lon="6.82423">
        <ele>1432</ele>
        <time>2022-07-18T06:13:09Z</time>
      </trkpt>
      <trkpt lat="44.75585" lon="6.82424">
        <ele>1432.2</ele>
        <time>2022-07-18T06:13:10Z</time>
      </trkpt>
      <trkpt lat="44.75583" lon="6.82424">
        <ele>1432.2</ele>
        <time>2022-07-18T06:13:11Z</time>
      </trkpt>
      <trkpt lat="44.75581" lon="6.82425">
        <ele>1432.6</ele>
        <time>2022-07-18T06:13:12Z</time>
      </trkpt>
      <trkpt lat="44.75578" lon="6.82425">
        <ele>1432.8</ele>
        <time>2022-07-18T06:13:13Z</time>
      </trkpt>
      <trkpt lat="44.75576" lon="6.82425">
        <ele>1433</ele>
        <time>2022-07-18T06:13:14Z</time>
      </trkpt>
      <trkpt lat="44.75574" lon="6.82426">
        <ele>1433</ele>
        <time>2022-07-18T06:13:15Z</time>
      </trkpt>
      <trkpt lat="44.75571" lon="6.82426">
        <ele>1433.4</ele>
        <time>2022-07-18T06:13:16Z</time>
      </trkpt>
      <trkpt lat="44.75569" lon="6.82426">
        <ele>1433.4</ele>
        <time>2022-07-18T06:13:17Z</time>
      </trkpt>
      <trkpt lat="44.75566" lon="6.82426">
        <ele>1433.8</ele>
        <time>2022-07-18T06:13:18Z</time>
      </trkpt>
      <trkpt lat="44.75564" lon="6.82426">
        <ele>1433.8</ele>
        <time>2022-07-18T06:13:19Z</time>
      </trkpt>
      <trkpt lat="44.75561" lon="6.82426">
        <ele>1434</ele>
        <time>2022-07-18T06:13:20Z</time>
      </trkpt>
      <trkpt lat="44.75559" lon="6.82425">
        <ele>1434</ele>
        <time>2022-07-18T06:13:21Z</time>
      </trkpt>
      <trkpt lat="44.75557" lon="6.82425">
        <ele>1434.4</ele>
        <time>2022-07-18T06:13:22Z</time>
      </trkpt>
      <trkpt lat="44.75554" lon="6.82424">
        <ele>1434.4</ele>
        <time>2022-07-18T06:13:23Z</time>
      </trkpt>
      <trkpt lat="44.75552" lon="6.82423">
        <ele>1434.8</ele>
        <time>2022-07-18T06:13:24Z</time>
      </trkpt>
      <trkpt lat="44.7555" lon="6.82422">
        <ele>1434.8</ele>
        <time>2022-07-18T06:13:25Z</time>
      </trkpt>
      <trkpt lat="44.75548" lon="6.82421">
        <ele>1435</ele>
        <time>2022-07-18T06:13:26Z</time>
      </trkpt>
      <trkpt lat="44.75545" lon="6.8242">
        <ele>1435</ele>
        <time>2022-07-18T06:13:27Z</time>
      </trkpt>
      <trkpt lat="44.75543" lon="6.82419">
        <ele>1435.6</ele>
        <time>2022-07-18T06:13:28Z</time>
      </trkpt>
      <trkpt lat="44.75541" lon="6.82417">
        <ele>1435.6</ele>
        <time>2022-07-18T06:13:29Z</time>
      </trkpt>
      <trkpt lat="44.75539" lon="6.82415">
        <ele>1435.8</ele>
        <time>2022-07-18T06:13:30Z</time>
      </trkpt>
      <trkpt lat="44.75537" lon="6.82414">
        <ele>1435.8</ele>
        <time>2022-07-18T06:13:31Z</time>
      </trkpt>
      <trkpt lat="44.75535" lon="6.82413">
        <ele>1436.2</ele>
        <time>2022-07-18T06:13:32Z</time>
      </trkpt>
      <trkpt lat="44.75533" lon="6.82412">
        <ele>1436.2</ele>
        <time>2022-07-18T06:13:33Z</time>
      </trkpt>
      <trkpt lat="44.75531" lon="6.8241">
        <ele>1436.6</ele>
        <time>2022-07-18T06:13:34Z</time>
      </trkpt>
      <trkpt lat="44.75529" lon="6.82409">
        <ele>1436.6</ele>
        <time>2022-07-18T06:13:35Z</time>
      </trkpt>
      <trkpt lat="44.75527" lon="6.82407">
        <ele>1437</ele>
        <time>2022-07-18T06:13:36Z</time>
      </trkpt>
      <trkpt lat="44.75525" lon="6.82405">
        <ele>1437.2</ele>
        <time>2022-07-18T06:13:37Z</time>
      </trkpt>
      <trkpt lat="44.75523" lon="6.82403">
        <ele>1437.2</ele>
        <time>2022-07-18T06:13:38Z</time>
      </trkpt>
      <trkpt lat="44.75521" lon="6.82402">
        <ele>1437.4</ele>
        <time>2022-07-18T06:13:39Z</time>
      </trkpt>
      <trkpt lat="44.75519" lon="6.824">
        <ele>1437.8</ele>
        <time>2022-07-18T06:13:40Z</time>
      </trkpt>
      <trkpt lat="44.75517" lon="6.82399">
        <ele>1438</ele>
        <time>2022-07-18T06:13:41Z</time>
      </trkpt>
      <trkpt lat="44.75515" lon="6.82397">
        <ele>1438.2</ele>
        <time>2022-07-18T06:13:42Z</time>
      </trkpt>
      <trkpt lat="44.75513" lon="6.82396">
        <ele>1438.4</ele>
        <time>2022-07-18T06:13:43Z</time>
      </trkpt>
      <trkpt lat="44.75511" lon="6.82394">
        <ele>1438.6</ele>
        <time>2022-07-18T06:13:44Z</time>
      </trkpt>
      <trkpt lat="44.75509" lon="6.82393">
        <ele>1438.8</ele>
        <time>2022-07-18T06:13:45Z</time>
      </trkpt>
      <trkpt lat="44.75506" lon="6.82391">
        <ele>1438.8</ele>
        <time>2022-07-18T06:13:46Z</time>
      </trkpt>
      <trkpt lat="44.75504" lon="6.8239">
        <ele>1439.2</ele>
        <time>2022-07-18T06:13:47Z</time>
      </trkpt>
      <trkpt lat="44.75502" lon="6.82389">
        <ele>1439.4</ele>
        <time>2022-07-18T06:13:48Z</time>
      </trkpt>
      <trkpt lat="44.755" lon="6.82387">
        <ele>1439.4</ele>
        <time>2022-07-18T06:13:49Z</time>
      </trkpt>
      <trkpt lat="44.75497" lon="6.82386">
        <ele>1440</ele>
        <time>2022-07-18T06:13:50Z</time>
      </trkpt>
      <trkpt lat="44.75495" lon="6.82385">
        <ele>1440</ele>
        <time>2022-07-18T06:13:51Z</time>
      </trkpt>
      <trkpt lat="44.75493" lon="6.82385">
        <ele>1440.2</ele>
        <time>2022-07-18T06:13:52Z</time>
      </trkpt>
      <trkpt lat="44.7549" lon="6.82384">
        <ele>1440.2</ele>
        <time>2022-07-18T06:13:53Z</time>
      </trkpt>
      <trkpt lat="44.75488" lon="6.82383">
        <ele>1440.6</ele>
        <time>2022-07-18T06:13:54Z</time>
      </trkpt>
      <trkpt lat="44.75485" lon="6.82383">
        <ele>1440.6</ele>
        <time>2022-07-18T06:13:55Z</time>
      </trkpt>
      <trkpt lat="44.75483" lon="6.82382">
        <ele>1440.8</ele>
        <time>2022-07-18T06:13:56Z</time>
      </trkpt>
      <trkpt lat="44.7548" lon="6.82381">
        <ele>1441</ele>
        <time>2022-07-18T06:13:57Z</time>
      </trkpt>
      <trkpt lat="44.75478" lon="6.82381">
        <ele>1441</ele>
        <time>2022-07-18T06:13:58Z</time>
      </trkpt>
      <trkpt lat="44.75476" lon="6.82381">
        <ele>1441.4</ele>
        <time>2022-07-18T06:13:59Z</time>
      </trkpt>
      <trkpt lat="44.75473" lon="6.82381">
        <ele>1441.4</ele>
        <time>2022-07-18T06:14:00Z</time>
      </trkpt>
      <trkpt lat="44.75471" lon="6.82381">
        <ele>1441.6</ele>
        <time>2022-07-18T06:14:01Z</time>
      </trkpt>
      <trkpt lat="44.75468" lon="6.82381">
        <ele>1441.8</ele>
        <time>2022-07-18T06:14:02Z</time>
      </trkpt>
      <trkpt lat="44.75466" lon="6.82382">
        <ele>1442.2</ele>
        <time>2022-07-18T06:14:03Z</time>
      </trkpt>
      <trkpt lat="44.75464" lon="6.82382">
        <ele>1442.2</ele>
        <time>2022-07-18T06:14:04Z</time>
      </trkpt>
      <trkpt lat="44.75461" lon="6.82383">
        <ele>1442.4</ele>
        <time>2022-07-18T06:14:05Z</time>
      </trkpt>
      <trkpt lat="44.75459" lon="6.82383">
        <ele>1442.4</ele>
        <time>2022-07-18T06:14:06Z</time>
      </trkpt>
      <trkpt lat="44.75457" lon="6.82384">
        <ele>1442.6</ele>
        <time>2022-07-18T06:14:07Z</time>
      </trkpt>
      <trkpt lat="44.75454" lon="6.82385">
        <ele>1442.6</ele>
        <time>2022-07-18T06:14:08Z</time>
      </trkpt>
      <trkpt lat="44.75452" lon="6.82386">
        <ele>1443</ele>
        <time>2022-07-18T06:14:09Z</time>
      </trkpt>
      <trkpt lat="44.7545" lon="6.82387">
        <ele>1443.2</ele>
        <time>2022-07-18T06:14:10Z</time>
      </trkpt>
      <trkpt lat="44.75448" lon="6.82388">
        <ele>1443.2</ele>
        <time>2022-07-18T06:14:11Z</time>
      </trkpt>
      <trkpt lat="44.75446" lon="6.82389">
        <ele>1443.6</ele>
        <time>2022-07-18T06:14:12Z</time>
      </trkpt>
      <trkpt lat="44.75444" lon="6.8239">
        <ele>1443.6</ele>
        <time>2022-07-18T06:14:13Z</time>
      </trkpt>
      <trkpt lat="44.75442" lon="6.82391">
        <ele>1444</ele>
        <time>2022-07-18T06:14:14Z</time>
      </trkpt>
      <trkpt lat="44.7544" lon="6.82392">
        <ele>1444</ele>
        <time>2022-07-18T06:14:15Z</time>
      </trkpt>
      <trkpt lat="44.75438" lon="6.82394">
        <ele>1444.4</ele>
        <time>2022-07-18T06:14:16Z</time>
      </trkpt>
      <trkpt lat="44.75436" lon="6.82395">
        <ele>1444.4</ele>
        <time>2022-07-18T06:14:17Z</time>
      </trkpt>
      <trkpt lat="44.75434" lon="6.82396">
        <ele>1444.6</ele>
        <time>2022-07-18T06:14:18Z</time>
      </trkpt>
      <trkpt lat="44.75431" lon="6.82398">
        <ele>1444.6</ele>
        <time>2022-07-18T06:14:19Z</time>
      </trkpt>
      <trkpt lat="44.7543" lon="6.824">
        <ele>1445</ele>
        <time>2022-07-18T06:14:20Z</time>
      </trkpt>
      <trkpt lat="44.75427" lon="6.82402">
        <ele>1445.2</ele>
        <time>2022-07-18T06:14:21Z</time>
      </trkpt>
      <trkpt lat="44.75425" lon="6.82404">
        <ele>1445.4</ele>
        <time>2022-07-18T06:14:22Z</time>
      </trkpt>
      <trkpt lat="44.75423" lon="6.82407">
        <ele>1445.8</ele>
        <time>2022-07-18T06:14:23Z</time>
      </trkpt>
      <trkpt lat="44.75421" lon="6.82409">
        <ele>1445.8</ele>
        <time>2022-07-18T06:14:24Z</time>
      </trkpt>
      <trkpt lat="44.75419" lon="6.82412">
        <ele>1446.2</ele>
        <time>2022-07-18T06:14:25Z</time>
      </trkpt>
      <trkpt lat="44.75418" lon="6.82414">
        <ele>1446.2</ele>
        <time>2022-07-18T06:14:26Z</time>
      </trkpt>
      <trkpt lat="44.75416" lon="6.82417">
        <ele>1446.4</ele>
        <time>2022-07-18T06:14:27Z</time>
      </trkpt>
      <trkpt lat="44.75414" lon="6.8242">
        <ele>1446.4</ele>
        <time>2022-07-18T06:14:28Z</time>
      </trkpt>
      <trkpt lat="44.75412" lon="6.82424">
        <ele>1446.6</ele>
        <time>2022-07-18T06:14:29Z</time>
      </trkpt>
      <trkpt lat="44.7541" lon="6.82427">
        <ele>1446.6</ele>
        <time>2022-07-18T06:14:30Z</time>
      </trkpt>
      <trkpt lat="44.75408" lon="6.8243">
        <ele>1446.8</ele>
        <time>2022-07-18T06:14:31Z</time>
      </trkpt>
      <trkpt lat="44.75406" lon="6.82434">
        <ele>1446.8</ele>
        <time>2022-07-18T06:14:32Z</time>
      </trkpt>
      <trkpt lat="44.75404" lon="6.82437">
        <ele>1446.8</ele>
        <time>2022-07-18T06:14:33Z</time>
      </trkpt>
      <trkpt lat="44.75402" lon="6.8244">
        <ele>1447.2</ele>
        <time>2022-07-18T06:14:34Z</time>
      </trkpt>
      <trkpt lat="44.75401" lon="6.82443">
        <ele>1447.2</ele>
        <time>2022-07-18T06:14:35Z</time>
      </trkpt>
      <trkpt lat="44.75399" lon="6.82446">
        <ele>1447.4</ele>
        <time>2022-07-18T06:14:36Z</time>
      </trkpt>
      <trkpt lat="44.75397" lon="6.82449">
        <ele>1447.4</ele>
        <time>2022-07-18T06:14:37Z</time>
      </trkpt>
      <trkpt lat="44.75395" lon="6.82452">
        <ele>1447.4</ele>
        <time>2022-07-18T06:14:38Z</time>
      </trkpt>
      <trkpt lat="44.75394" lon="6.82456">
        <ele>1447.6</ele>
        <time>2022-07-18T06:14:39Z</time>
      </trkpt>
      <trkpt lat="44.75392" lon="6.82459">
        <ele>1447.6</ele>
        <time>2022-07-18T06:14:40Z</time>
      </trkpt>
      <trkpt lat="44.7539" lon="6.82463">
        <ele>1447.6</ele>
        <time>2022-07-18T06:14:41Z</time>
      </trkpt>
      <trkpt lat="44.75388" lon="6.82466">
        <ele>1447.8</ele>
        <time>2022-07-18T06:14:42Z</time>
      </trkpt>
      <trkpt lat="44.75386" lon="6.8247">
        <ele>1447.8</ele>
        <time>2022-07-18T06:14:43Z</time>
      </trkpt>
      <trkpt lat="44.75383" lon="6.82474">
        <ele>1447.8</ele>
        <time>2022-07-18T06:14:44Z</time>
      </trkpt>
      <trkpt lat="44.75381" lon="6.82478">
        <ele>1448</ele>
        <time>2022-07-18T06:14:45Z</time>
      </trkpt>
      <trkpt lat="44.75379" lon="6.82481">
        <ele>1448</ele>
        <time>2022-07-18T06:14:46Z</time>
      </trkpt>
      <trkpt lat="44.75377" lon="6.82485">
        <ele>1448.2</ele>
        <time>2022-07-18T06:14:47Z</time>
      </trkpt>
      <trkpt lat="44.75375" lon="6.82489">
        <ele>1448.2</ele>
        <time>2022-07-18T06:14:48Z</time>
      </trkpt>
      <trkpt lat="44.75373" lon="6.82493">
        <ele>1448.2</ele>
        <time>2022-07-18T06:14:49Z</time>
      </trkpt>
      <trkpt lat="44.75371" lon="6.82497">
        <ele>1448.2</ele>
        <time>2022-07-18T06:14:50Z</time>
      </trkpt>
      <trkpt lat="44.75369" lon="6.825">
        <ele>1448.2</ele>
        <time>2022-07-18T06:14:51Z</time>
      </trkpt>
      <trkpt lat="44.75367" lon="6.82504">
        <ele>1448.6</ele>
        <time>2022-07-18T06:14:52Z</time>
      </trkpt>
      <trkpt lat="44.75365" lon="6.82508">
        <ele>1448.6</ele>
        <time>2022-07-18T06:14:53Z</time>
      </trkpt>
      <trkpt lat="44.75363" lon="6.82511">
        <ele>1448.6</ele>
        <time>2022-07-18T06:14:54Z</time>
      </trkpt>
      <trkpt lat="44.7536" lon="6.82515">
        <ele>1448.8</ele>
        <time>2022-07-18T06:14:55Z</time>
      </trkpt>
      <trkpt lat="44.75358" lon="6.82519">
        <ele>1448.8</ele>
        <time>2022-07-18T06:14:56Z</time>
      </trkpt>
      <trkpt lat="44.75356" lon="6.82523">
        <ele>1448.8</ele>
        <time>2022-07-18T06:14:57Z</time>
      </trkpt>
      <trkpt lat="44.75354" lon="6.82526">
        <ele>1448.8</ele>
        <time>2022-07-18T06:14:58Z</time>
      </trkpt>
      <trkpt lat="44.75352" lon="6.8253">
        <ele>1448.8</ele>
        <time>2022-07-18T06:14:59Z</time>
      </trkpt>
      <trkpt lat="44.7535" lon="6.82534">
        <ele>1449</ele>
        <time>2022-07-18T06:15:00Z</time>
      </trkpt>
      <trkpt lat="44.75348" lon="6.82537">
        <ele>1449</ele>
        <time>2022-07-18T06:15:01Z</time>
      </trkpt>
      <trkpt lat="44.75346" lon="6.82541">
        <ele>1449</ele>
        <time>2022-07-18T06:15:02Z</time>
      </trkpt>
      <trkpt lat="44.75344" lon="6.82545">
        <ele>1449</ele>
        <time>2022-07-18T06:15:03Z</time>
      </trkpt>
      <trkpt lat="44.75342" lon="6.82548">
        <ele>1449.2</ele>
        <time>2022-07-18T06:15:04Z</time>
      </trkpt>
      <trkpt lat="44.7534" lon="6.82552">
        <ele>1449.2</ele>
        <time>2022-07-18T06:15:05Z</time>
      </trkpt>
      <trkpt lat="44.75338" lon="6.82555">
        <ele>1449.2</ele>
        <time>2022-07-18T06:15:06Z</time>
      </trkpt>
      <trkpt lat="44.75336" lon="6.82559">
        <ele>1449.2</ele>
        <time>2022-07-18T06:15:07Z</time>
      </trkpt>
      <trkpt lat="44.75334" lon="6.82562">
        <ele>1449.6</ele>
        <time>2022-07-18T06:15:08Z</time>
      </trkpt>
      <trkpt lat="44.75332" lon="6.82566">
        <ele>1449.6</ele>
        <time>2022-07-18T06:15:09Z</time>
      </trkpt>
      <trkpt lat="44.7533" lon="6.8257">
        <ele>1449.6</ele>
        <time>2022-07-18T06:15:10Z</time>
      </trkpt>
      <trkpt lat="44.75328" lon="6.82573">
        <ele>1449.8</ele>
        <time>2022-07-18T06:15:11Z</time>
      </trkpt>
      <trkpt lat="44.75326" lon="6.82576">
        <ele>1449.8</ele>
        <time>2022-07-18T06:15:12Z</time>
      </trkpt>
      <trkpt lat="44.75324" lon="6.8258">
        <ele>1449.8</ele>
        <time>2022-07-18T06:15:13Z</time>
      </trkpt>
      <trkpt lat="44.75322" lon="6.82583">
        <ele>1450.2</ele>
        <time>2022-07-18T06:15:14Z</time>
      </trkpt>
      <trkpt lat="44.7532" lon="6.82587">
        <ele>1450.2</ele>
        <time>2022-07-18T06:15:15Z</time>
      </trkpt>
      <trkpt lat="44.75318" lon="6.8259">
        <ele>1450.2</ele>
        <time>2022-07-18T06:15:16Z</time>
      </trkpt>
      <trkpt lat="44.75316" lon="6.82593">
        <ele>1450.4</ele>
        <time>2022-07-18T06:15:17Z</time>
      </trkpt>
      <trkpt lat="44.75314" lon="6.82596">
        <ele>1450.4</ele>
        <time>2022-07-18T06:15:18Z</time>
      </trkpt>
      <trkpt lat="44.75312" lon="6.82599">
        <ele>1450.8</ele>
        <time>2022-07-18T06:15:19Z</time>
      </trkpt>
      <trkpt lat="44.75311" lon="6.82603">
        <ele>1450.8</ele>
        <time>2022-07-18T06:15:20Z</time>
      </trkpt>
      <trkpt lat="44.75309" lon="6.82606">
        <ele>1451</ele>
        <time>2022-07-18T06:15:21Z</time>
      </trkpt>
      <trkpt lat="44.75307" lon="6.8261">
        <ele>1451</ele>
        <time>2022-07-18T06:15:22Z</time>
      </trkpt>
      <trkpt lat="44.75305" lon="6.82613">
        <ele>1451.4</ele>
        <time>2022-07-18T06:15:23Z</time>
      </trkpt>
      <trkpt lat="44.75303" lon="6.82616">
        <ele>1451.4</ele>
        <time>2022-07-18T06:15:24Z</time>
      </trkpt>
      <trkpt lat="44.75301" lon="6.82619">
        <ele>1451.8</ele>
        <time>2022-07-18T06:15:25Z</time>
      </trkpt>
      <trkpt lat="44.75299" lon="6.82622">
        <ele>1451.8</ele>
        <time>2022-07-18T06:15:26Z</time>
      </trkpt>
      <trkpt lat="44.75297" lon="6.82626">
        <ele>1452</ele>
        <time>2022-07-18T06:15:27Z</time>
      </trkpt>
      <trkpt lat="44.75296" lon="6.82629">
        <ele>1452</ele>
        <time>2022-07-18T06:15:28Z</time>
      </trkpt>
      <trkpt lat="44.75295" lon="6.82633">
        <ele>1452.2</ele>
        <time>2022-07-18T06:15:29Z</time>
      </trkpt>
      <trkpt lat="44.75293" lon="6.82636">
        <ele>1452.2</ele>
        <time>2022-07-18T06:15:30Z</time>
      </trkpt>
      <trkpt lat="44.75292" lon="6.8264">
        <ele>1452.6</ele>
        <time>2022-07-18T06:15:31Z</time>
      </trkpt>
      <trkpt lat="44.75291" lon="6.82644">
        <ele>1452.6</ele>
        <time>2022-07-18T06:15:32Z</time>
      </trkpt>
      <trkpt lat="44.7529" lon="6.82648">
        <ele>1452.8</ele>
        <time>2022-07-18T06:15:33Z</time>
      </trkpt>
      <trkpt lat="44.7529" lon="6.82652">
        <ele>1452.8</ele>
        <time>2022-07-18T06:15:34Z</time>
      </trkpt>
      <trkpt lat="44.75289" lon="6.82656">
        <ele>1453</ele>
        <time>2022-07-18T06:15:35Z</time>
      </trkpt>
      <trkpt lat="44.75289" lon="6.8266">
        <ele>1453</ele>
        <time>2022-07-18T06:15:36Z</time>
      </trkpt>
      <trkpt lat="44.75289" lon="6.82664">
        <ele>1453.4</ele>
        <time>2022-07-18T06:15:37Z</time>
      </trkpt>
      <trkpt lat="44.75289" lon="6.82668">
        <ele>1453.4</ele>
        <time>2022-07-18T06:15:38Z</time>
      </trkpt>
      <trkpt lat="44.75289" lon="6.82673">
        <ele>1453.6</ele>
        <time>2022-07-18T06:15:39Z</time>
      </trkpt>
      <trkpt lat="44.75289" lon="6.82677">
        <ele>1453.6</ele>
        <time>2022-07-18T06:15:40Z</time>
      </trkpt>
      <trkpt lat="44.75289" lon="6.82681">
        <ele>1454</ele>
        <time>2022-07-18T06:15:41Z</time>
      </trkpt>
      <trkpt lat="44.75289" lon="6.82685">
        <ele>1454</ele>
        <time>2022-07-18T06:15:42Z</time>
      </trkpt>
      <trkpt lat="44.75288" lon="6.8269">
        <ele>1454</ele>
        <time>2022-07-18T06:15:43Z</time>
      </trkpt>
      <trkpt lat="44.75288" lon="6.82695">
        <ele>1454.2</ele>
        <time>2022-07-18T06:15:44Z</time>
      </trkpt>
      <trkpt lat="44.75288" lon="6.82699">
        <ele>1454.2</ele>
        <time>2022-07-18T06:15:45Z</time>
      </trkpt>
      <trkpt lat="44.75288" lon="6.82703">
        <ele>1454.4</ele>
        <time>2022-07-18T06:15:46Z</time>
      </trkpt>
      <trkpt lat="44.75288" lon="6.82707">
        <ele>1454.4</ele>
        <time>2022-07-18T06:15:47Z</time>
      </trkpt>
      <trkpt lat="44.75288" lon="6.82711">
        <ele>1454.8</ele>
        <time>2022-07-18T06:15:48Z</time>
      </trkpt>
      <trkpt lat="44.75289" lon="6.82715">
        <ele>1454.8</ele>
        <time>2022-07-18T06:15:49Z</time>
      </trkpt>
      <trkpt lat="44.75289" lon="6.8272">
        <ele>1455</ele>
        <time>2022-07-18T06:15:50Z</time>
      </trkpt>
      <trkpt lat="44.75289" lon="6.82724">
        <ele>1455</ele>
        <time>2022-07-18T06:15:51Z</time>
      </trkpt>
      <trkpt lat="44.75289" lon="6.82728">
        <ele>1455.4</ele>
        <time>2022-07-18T06:15:53Z</time>
      </trkpt>
      <trkpt lat="44.75289" lon="6.82732">
        <ele>1455.6</ele>
        <time>2022-07-18T06:15:54Z</time>
      </trkpt>
      <trkpt lat="44.75289" lon="6.82737">
        <ele>1455.6</ele>
        <time>2022-07-18T06:15:55Z</time>
      </trkpt>
      <trkpt lat="44.75289" lon="6.82741">
        <ele>1455.8</ele>
        <time>2022-07-18T06:15:56Z</time>
      </trkpt>
      <trkpt lat="44.75289" lon="6.82745">
        <ele>1455.8</ele>
        <time>2022-07-18T06:15:57Z</time>
      </trkpt>
      <trkpt lat="44.75289" lon="6.8275">
        <ele>1456.2</ele>
        <time>2022-07-18T06:15:58Z</time>
      </trkpt>
      <trkpt lat="44.75288" lon="6.82758">
        <ele>1456.2</ele>
        <time>2022-07-18T06:15:59Z</time>
      </trkpt>
      <trkpt lat="44.75288" lon="6.82762">
        <ele>1456.6</ele>
        <time>2022-07-18T06:16:00Z</time>
      </trkpt>
      <trkpt lat="44.75288" lon="6.82766">
        <ele>1456.6</ele>
        <time>2022-07-18T06:16:01Z</time>
      </trkpt>
      <trkpt lat="44.75288" lon="6.8277">
        <ele>1456.8</ele>
        <time>2022-07-18T06:16:02Z</time>
      </trkpt>
      <trkpt lat="44.75287" lon="6.82774">
        <ele>1456.8</ele>
        <time>2022-07-18T06:16:03Z</time>
      </trkpt>
      <trkpt lat="44.75286" lon="6.82778">
        <ele>1457</ele>
        <time>2022-07-18T06:16:04Z</time>
      </trkpt>
      <trkpt lat="44.75286" lon="6.82782">
        <ele>1457</ele>
        <time>2022-07-18T06:16:05Z</time>
      </trkpt>
      <trkpt lat="44.75285" lon="6.82787">
        <ele>1457.4</ele>
        <time>2022-07-18T06:16:06Z</time>
      </trkpt>
      <trkpt lat="44.75284" lon="6.82791">
        <ele>1457.6</ele>
        <time>2022-07-18T06:16:07Z</time>
      </trkpt>
      <trkpt lat="44.75284" lon="6.82795">
        <ele>1457.6</ele>
        <time>2022-07-18T06:16:08Z</time>
      </trkpt>
      <trkpt lat="44.75283" lon="6.82799">
        <ele>1457.8</ele>
        <time>2022-07-18T06:16:09Z</time>
      </trkpt>
      <trkpt lat="44.75282" lon="6.82804">
        <ele>1458</ele>
        <time>2022-07-18T06:16:10Z</time>
      </trkpt>
      <trkpt lat="44.75281" lon="6.82808">
        <ele>1458</ele>
        <time>2022-07-18T06:16:11Z</time>
      </trkpt>
      <trkpt lat="44.7528" lon="6.82812">
        <ele>1458.4</ele>
        <time>2022-07-18T06:16:12Z</time>
      </trkpt>
      <trkpt lat="44.75279" lon="6.82817">
        <ele>1458.4</ele>
        <time>2022-07-18T06:16:13Z</time>
      </trkpt>
      <trkpt lat="44.75278" lon="6.82821">
        <ele>1458.4</ele>
        <time>2022-07-18T06:16:14Z</time>
      </trkpt>
      <trkpt lat="44.75277" lon="6.82825">
        <ele>1458.6</ele>
        <time>2022-07-18T06:16:15Z</time>
      </trkpt>
      <trkpt lat="44.75276" lon="6.82829">
        <ele>1458.6</ele>
        <time>2022-07-18T06:16:16Z</time>
      </trkpt>
      <trkpt lat="44.75275" lon="6.82833">
        <ele>1458.6</ele>
        <time>2022-07-18T06:16:17Z</time>
      </trkpt>
      <trkpt lat="44.75273" lon="6.82837">
        <ele>1458.6</ele>
        <time>2022-07-18T06:16:18Z</time>
      </trkpt>
      <trkpt lat="44.75272" lon="6.82841">
        <ele>1459</ele>
        <time>2022-07-18T06:16:19Z</time>
      </trkpt>
      <trkpt lat="44.7527" lon="6.82845">
        <ele>1459</ele>
        <time>2022-07-18T06:16:20Z</time>
      </trkpt>
      <trkpt lat="44.75268" lon="6.82848">
        <ele>1459.2</ele>
        <time>2022-07-18T06:16:21Z</time>
      </trkpt>
      <trkpt lat="44.75267" lon="6.82852">
        <ele>1459.4</ele>
        <time>2022-07-18T06:16:22Z</time>
      </trkpt>
      <trkpt lat="44.75265" lon="6.82856">
        <ele>1459.4</ele>
        <time>2022-07-18T06:16:23Z</time>
      </trkpt>
      <trkpt lat="44.75263" lon="6.8286">
        <ele>1459.8</ele>
        <time>2022-07-18T06:16:24Z</time>
      </trkpt>
      <trkpt lat="44.75261" lon="6.82863">
        <ele>1459.8</ele>
        <time>2022-07-18T06:16:25Z</time>
      </trkpt>
      <trkpt lat="44.7526" lon="6.82867">
        <ele>1460.2</ele>
        <time>2022-07-18T06:16:26Z</time>
      </trkpt>
      <trkpt lat="44.75258" lon="6.8287">
        <ele>1460.2</ele>
        <time>2022-07-18T06:16:27Z</time>
      </trkpt>
      <trkpt lat="44.75257" lon="6.82873">
        <ele>1460.4</ele>
        <time>2022-07-18T06:16:28Z</time>
      </trkpt>
      <trkpt lat="44.75255" lon="6.82876">
        <ele>1460.4</ele>
        <time>2022-07-18T06:16:29Z</time>
      </trkpt>
      <trkpt lat="44.75252" lon="6.82879">
        <ele>1460.6</ele>
        <time>2022-07-18T06:16:30Z</time>
      </trkpt>
      <trkpt lat="44.7525" lon="6.82881">
        <ele>1460.6</ele>
        <time>2022-07-18T06:16:31Z</time>
      </trkpt>
      <trkpt lat="44.75248" lon="6.82884">
        <ele>1460.6</ele>
        <time>2022-07-18T06:16:32Z</time>
      </trkpt>
      <trkpt lat="44.75245" lon="6.82886">
        <ele>1461</ele>
        <time>2022-07-18T06:16:33Z</time>
      </trkpt>
      <trkpt lat="44.75243" lon="6.82889">
        <ele>1461</ele>
        <time>2022-07-18T06:16:34Z</time>
      </trkpt>
      <trkpt lat="44.75241" lon="6.82891">
        <ele>1461.2</ele>
        <time>2022-07-18T06:16:35Z</time>
      </trkpt>
      <trkpt lat="44.75239" lon="6.82894">
        <ele>1461.2</ele>
        <time>2022-07-18T06:16:36Z</time>
      </trkpt>
      <trkpt lat="44.75237" lon="6.82896">
        <ele>1461.4</ele>
        <time>2022-07-18T06:16:37Z</time>
      </trkpt>
      <trkpt lat="44.75234" lon="6.82898">
        <ele>1461.4</ele>
        <time>2022-07-18T06:16:38Z</time>
      </trkpt>
      <trkpt lat="44.75232" lon="6.829">
        <ele>1461.8</ele>
        <time>2022-07-18T06:16:39Z</time>
      </trkpt>
      <trkpt lat="44.7523" lon="6.82902">
        <ele>1461.8</ele>
        <time>2022-07-18T06:16:40Z</time>
      </trkpt>
      <trkpt lat="44.75227" lon="6.82904">
        <ele>1462.2</ele>
        <time>2022-07-18T06:16:41Z</time>
      </trkpt>
      <trkpt lat="44.75225" lon="6.82906">
        <ele>1462.4</ele>
        <time>2022-07-18T06:16:42Z</time>
      </trkpt>
      <trkpt lat="44.75222" lon="6.82908">
        <ele>1462.4</ele>
        <time>2022-07-18T06:16:43Z</time>
      </trkpt>
      <trkpt lat="44.7522" lon="6.8291">
        <ele>1462.8</ele>
        <time>2022-07-18T06:16:44Z</time>
      </trkpt>
      <trkpt lat="44.75218" lon="6.82912">
        <ele>1462.8</ele>
        <time>2022-07-18T06:16:45Z</time>
      </trkpt>
      <trkpt lat="44.75215" lon="6.82914">
        <ele>1463.2</ele>
        <time>2022-07-18T06:16:46Z</time>
      </trkpt>
      <trkpt lat="44.75212" lon="6.82916">
        <ele>1463.2</ele>
        <time>2022-07-18T06:16:47Z</time>
      </trkpt>
      <trkpt lat="44.7521" lon="6.82918">
        <ele>1463.6</ele>
        <time>2022-07-18T06:16:48Z</time>
      </trkpt>
      <trkpt lat="44.75208" lon="6.8292">
        <ele>1463.8</ele>
        <time>2022-07-18T06:16:49Z</time>
      </trkpt>
      <trkpt lat="44.75206" lon="6.82922">
        <ele>1463.8</ele>
        <time>2022-07-18T06:16:50Z</time>
      </trkpt>
      <trkpt lat="44.75204" lon="6.82924">
        <ele>1464.4</ele>
        <time>2022-07-18T06:16:51Z</time>
      </trkpt>
      <trkpt lat="44.75202" lon="6.82926">
        <ele>1464.6</ele>
        <time>2022-07-18T06:16:52Z</time>
      </trkpt>
      <trkpt lat="44.752" lon="6.82927">
        <ele>1464.8</ele>
        <time>2022-07-18T06:16:53Z</time>
      </trkpt>
      <trkpt lat="44.75198" lon="6.82929">
        <ele>1464.8</ele>
        <time>2022-07-18T06:16:54Z</time>
      </trkpt>
      <trkpt lat="44.75196" lon="6.82931">
        <ele>1465.2</ele>
        <time>2022-07-18T06:16:55Z</time>
      </trkpt>
      <trkpt lat="44.75194" lon="6.82933">
        <ele>1465.2</ele>
        <time>2022-07-18T06:16:56Z</time>
      </trkpt>
      <trkpt lat="44.75192" lon="6.82935">
        <ele>1465.4</ele>
        <time>2022-07-18T06:16:57Z</time>
      </trkpt>
      <trkpt lat="44.7519" lon="6.82937">
        <ele>1465.8</ele>
        <time>2022-07-18T06:16:58Z</time>
      </trkpt>
      <trkpt lat="44.75188" lon="6.82939">
        <ele>1465.8</ele>
        <time>2022-07-18T06:16:59Z</time>
      </trkpt>
      <trkpt lat="44.75186" lon="6.82941">
        <ele>1466.2</ele>
        <time>2022-07-18T06:17:00Z</time>
      </trkpt>
      <trkpt lat="44.75184" lon="6.82944">
        <ele>1466.2</ele>
        <time>2022-07-18T06:17:01Z</time>
      </trkpt>
      <trkpt lat="44.75182" lon="6.82946">
        <ele>1466.6</ele>
        <time>2022-07-18T06:17:02Z</time>
      </trkpt>
      <trkpt lat="44.75181" lon="6.82949">
        <ele>1466.6</ele>
        <time>2022-07-18T06:17:03Z</time>
      </trkpt>
      <trkpt lat="44.75179" lon="6.82951">
        <ele>1467</ele>
        <time>2022-07-18T06:17:04Z</time>
      </trkpt>
      <trkpt lat="44.75177" lon="6.82953">
        <ele>1467</ele>
        <time>2022-07-18T06:17:05Z</time>
      </trkpt>
      <trkpt lat="44.75176" lon="6.82955">
        <ele>1467.2</ele>
        <time>2022-07-18T06:17:06Z</time>
      </trkpt>
      <trkpt lat="44.75174" lon="6.82957">
        <ele>1467.2</ele>
        <time>2022-07-18T06:17:07Z</time>
      </trkpt>
      <trkpt lat="44.75173" lon="6.8296">
        <ele>1467.4</ele>
        <time>2022-07-18T06:17:08Z</time>
      </trkpt>
      <trkpt lat="44.75171" lon="6.82963">
        <ele>1467.4</ele>
        <time>2022-07-18T06:17:09Z</time>
      </trkpt>
      <trkpt lat="44.7517" lon="6.82965">
        <ele>1467.8</ele>
        <time>2022-07-18T06:17:10Z</time>
      </trkpt>
      <trkpt lat="44.75168" lon="6.82968">
        <ele>1467.8</ele>
        <time>2022-07-18T06:17:11Z</time>
      </trkpt>
      <trkpt lat="44.75166" lon="6.82971">
        <ele>1468.2</ele>
        <time>2022-07-18T06:17:12Z</time>
      </trkpt>
      <trkpt lat="44.75165" lon="6.82973">
        <ele>1468.4</ele>
        <time>2022-07-18T06:17:13Z</time>
      </trkpt>
      <trkpt lat="44.75163" lon="6.82976">
        <ele>1468.6</ele>
        <time>2022-07-18T06:17:14Z</time>
      </trkpt>
      <trkpt lat="44.75162" lon="6.82979">
        <ele>1468.8</ele>
        <time>2022-07-18T06:17:15Z</time>
      </trkpt>
      <trkpt lat="44.7516" lon="6.82982">
        <ele>1468.8</ele>
        <time>2022-07-18T06:17:16Z</time>
      </trkpt>
      <trkpt lat="44.75159" lon="6.82985">
        <ele>1469</ele>
        <time>2022-07-18T06:17:17Z</time>
      </trkpt>
      <trkpt lat="44.75157" lon="6.82988">
        <ele>1469.4</ele>
        <time>2022-07-18T06:17:18Z</time>
      </trkpt>
      <trkpt lat="44.75156" lon="6.82991">
        <ele>1469.6</ele>
        <time>2022-07-18T06:17:19Z</time>
      </trkpt>
      <trkpt lat="44.75155" lon="6.82993">
        <ele>1469.8</ele>
        <time>2022-07-18T06:17:20Z</time>
      </trkpt>
      <trkpt lat="44.75153" lon="6.82996">
        <ele>1469.8</ele>
        <time>2022-07-18T06:17:21Z</time>
      </trkpt>
      <trkpt lat="44.75152" lon="6.82999">
        <ele>1470.2</ele>
        <time>2022-07-18T06:17:22Z</time>
      </trkpt>
      <trkpt lat="44.7515" lon="6.83001">
        <ele>1470.6</ele>
        <time>2022-07-18T06:17:23Z</time>
      </trkpt>
      <trkpt lat="44.75149" lon="6.83004">
        <ele>1470.6</ele>
        <time>2022-07-18T06:17:24Z</time>
      </trkpt>
      <trkpt lat="44.75147" lon="6.83007">
        <ele>1470.8</ele>
        <time>2022-07-18T06:17:25Z</time>
      </trkpt>
      <trkpt lat="44.75146" lon="6.8301">
        <ele>1471</ele>
        <time>2022-07-18T06:17:26Z</time>
      </trkpt>
      <trkpt lat="44.75144" lon="6.83013">
        <ele>1471</ele>
        <time>2022-07-18T06:17:27Z</time>
      </trkpt>
      <trkpt lat="44.75143" lon="6.83016">
        <ele>1471.4</ele>
        <time>2022-07-18T06:17:28Z</time>
      </trkpt>
      <trkpt lat="44.75142" lon="6.83018">
        <ele>1471.6</ele>
        <time>2022-07-18T06:17:29Z</time>
      </trkpt>
      <trkpt lat="44.7514" lon="6.83021">
        <ele>1471.6</ele>
        <time>2022-07-18T06:17:30Z</time>
      </trkpt>
      <trkpt lat="44.75139" lon="6.83024">
        <ele>1472</ele>
        <time>2022-07-18T06:17:31Z</time>
      </trkpt>
      <trkpt lat="44.75137" lon="6.83026">
        <ele>1472</ele>
        <time>2022-07-18T06:17:32Z</time>
      </trkpt>
      <trkpt lat="44.75136" lon="6.83029">
        <ele>1472.4</ele>
        <time>2022-07-18T06:17:33Z</time>
      </trkpt>
      <trkpt lat="44.75134" lon="6.83031">
        <ele>1472.6</ele>
        <time>2022-07-18T06:17:34Z</time>
      </trkpt>
      <trkpt lat="44.75133" lon="6.83034">
        <ele>1472.6</ele>
        <time>2022-07-18T06:17:35Z</time>
      </trkpt>
      <trkpt lat="44.75132" lon="6.83036">
        <ele>1473.2</ele>
        <time>2022-07-18T06:17:36Z</time>
      </trkpt>
      <trkpt lat="44.7513" lon="6.83039">
        <ele>1473.2</ele>
        <time>2022-07-18T06:17:37Z</time>
      </trkpt>
      <trkpt lat="44.75128" lon="6.83042">
        <ele>1473.6</ele>
        <time>2022-07-18T06:17:38Z</time>
      </trkpt>
      <trkpt lat="44.75127" lon="6.83045">
        <ele>1473.6</ele>
        <time>2022-07-18T06:17:39Z</time>
      </trkpt>
      <trkpt lat="44.75125" lon="6.83048">
        <ele>1473.8</ele>
        <time>2022-07-18T06:17:40Z</time>
      </trkpt>
      <trkpt lat="44.75124" lon="6.8305">
        <ele>1474.2</ele>
        <time>2022-07-18T06:17:41Z</time>
      </trkpt>
      <trkpt lat="44.75123" lon="6.83053">
        <ele>1474.2</ele>
        <time>2022-07-18T06:17:42Z</time>
      </trkpt>
      <trkpt lat="44.75121" lon="6.83055">
        <ele>1474.6</ele>
        <time>2022-07-18T06:17:43Z</time>
      </trkpt>
      <trkpt lat="44.7512" lon="6.83057">
        <ele>1474.6</ele>
        <time>2022-07-18T06:17:44Z</time>
      </trkpt>
      <trkpt lat="44.75119" lon="6.83059">
        <ele>1474.8</ele>
        <time>2022-07-18T06:17:45Z</time>
      </trkpt>
      <trkpt lat="44.75117" lon="6.83063">
        <ele>1475</ele>
        <time>2022-07-18T06:17:46Z</time>
      </trkpt>
      <trkpt lat="44.75116" lon="6.83067">
        <ele>1475</ele>
        <time>2022-07-18T06:17:47Z</time>
      </trkpt>
      <trkpt lat="44.75114" lon="6.8307">
        <ele>1475.4</ele>
        <time>2022-07-18T06:17:48Z</time>
      </trkpt>
      <trkpt lat="44.75113" lon="6.83072">
        <ele>1475.8</ele>
        <time>2022-07-18T06:17:49Z</time>
      </trkpt>
      <trkpt lat="44.75112" lon="6.83075">
        <ele>1475.8</ele>
        <time>2022-07-18T06:17:50Z</time>
      </trkpt>
      <trkpt lat="44.75111" lon="6.83078">
        <ele>1476.2</ele>
        <time>2022-07-18T06:17:51Z</time>
      </trkpt>
      <trkpt lat="44.7511" lon="6.8308">
        <ele>1476.2</ele>
        <time>2022-07-18T06:17:52Z</time>
      </trkpt>
      <trkpt lat="44.75109" lon="6.83082">
        <ele>1476.4</ele>
        <time>2022-07-18T06:17:53Z</time>
      </trkpt>
      <trkpt lat="44.75108" lon="6.83085">
        <ele>1476.6</ele>
        <time>2022-07-18T06:17:54Z</time>
      </trkpt>
      <trkpt lat="44.75106" lon="6.83088">
        <ele>1476.6</ele>
        <time>2022-07-18T06:17:55Z</time>
      </trkpt>
      <trkpt lat="44.75105" lon="6.83091">
        <ele>1477</ele>
        <time>2022-07-18T06:17:56Z</time>
      </trkpt>
      <trkpt lat="44.75105" lon="6.83094">
        <ele>1477.2</ele>
        <time>2022-07-18T06:17:57Z</time>
      </trkpt>
      <trkpt lat="44.75104" lon="6.83097">
        <ele>1477.2</ele>
        <time>2022-07-18T06:17:58Z</time>
      </trkpt>
      <trkpt lat="44.75102" lon="6.831">
        <ele>1477.6</ele>
        <time>2022-07-18T06:17:59Z</time>
      </trkpt>
      <trkpt lat="44.75101" lon="6.83103">
        <ele>1477.6</ele>
        <time>2022-07-18T06:18:00Z</time>
      </trkpt>
      <trkpt lat="44.751" lon="6.83106">
        <ele>1478</ele>
        <time>2022-07-18T06:18:01Z</time>
      </trkpt>
      <trkpt lat="44.75099" lon="6.83109">
        <ele>1478.2</ele>
        <time>2022-07-18T06:18:02Z</time>
      </trkpt>
      <trkpt lat="44.75098" lon="6.83112">
        <ele>1478.4</ele>
        <time>2022-07-18T06:18:03Z</time>
      </trkpt>
      <trkpt lat="44.75097" lon="6.83115">
        <ele>1478.6</ele>
        <time>2022-07-18T06:18:04Z</time>
      </trkpt>
      <trkpt lat="44.75096" lon="6.83118">
        <ele>1479</ele>
        <time>2022-07-18T06:18:05Z</time>
      </trkpt>
      <trkpt lat="44.75095" lon="6.83121">
        <ele>1479.2</ele>
        <time>2022-07-18T06:18:06Z</time>
      </trkpt>
      <trkpt lat="44.75095" lon="6.83124">
        <ele>1479.4</ele>
        <time>2022-07-18T06:18:07Z</time>
      </trkpt>
      <trkpt lat="44.75094" lon="6.83127">
        <ele>1479.8</ele>
        <time>2022-07-18T06:18:08Z</time>
      </trkpt>
      <trkpt lat="44.75093" lon="6.8313">
        <ele>1480</ele>
        <time>2022-07-18T06:18:09Z</time>
      </trkpt>
      <trkpt lat="44.75093" lon="6.83133">
        <ele>1480.2</ele>
        <time>2022-07-18T06:18:10Z</time>
      </trkpt>
      <trkpt lat="44.75092" lon="6.83137">
        <ele>1480.2</ele>
        <time>2022-07-18T06:18:11Z</time>
      </trkpt>
      <trkpt lat="44.75091" lon="6.8314">
        <ele>1480.6</ele>
        <time>2022-07-18T06:18:12Z</time>
      </trkpt>
      <trkpt lat="44.7509" lon="6.83143">
        <ele>1480.6</ele>
        <time>2022-07-18T06:18:13Z</time>
      </trkpt>
      <trkpt lat="44.7509" lon="6.83146">
        <ele>1481</ele>
        <time>2022-07-18T06:18:14Z</time>
      </trkpt>
      <trkpt lat="44.7509" lon="6.83149">
        <ele>1481</ele>
        <time>2022-07-18T06:18:15Z</time>
      </trkpt>
      <trkpt lat="44.75089" lon="6.83153">
        <ele>1481.4</ele>
        <time>2022-07-18T06:18:16Z</time>
      </trkpt>
      <trkpt lat="44.75088" lon="6.83156">
        <ele>1481.4</ele>
        <time>2022-07-18T06:18:17Z</time>
      </trkpt>
      <trkpt lat="44.75088" lon="6.83159">
        <ele>1481.8</ele>
        <time>2022-07-18T06:18:18Z</time>
      </trkpt>
      <trkpt lat="44.75088" lon="6.83162">
        <ele>1481.8</ele>
        <time>2022-07-18T06:18:19Z</time>
      </trkpt>
      <trkpt lat="44.75087" lon="6.83166">
        <ele>1482</ele>
        <time>2022-07-18T06:18:20Z</time>
      </trkpt>
      <trkpt lat="44.75087" lon="6.83169">
        <ele>1482</ele>
        <time>2022-07-18T06:18:21Z</time>
      </trkpt>
      <trkpt lat="44.75087" lon="6.83172">
        <ele>1482.4</ele>
        <time>2022-07-18T06:18:22Z</time>
      </trkpt>
      <trkpt lat="44.75087" lon="6.83175">
        <ele>1482.6</ele>
        <time>2022-07-18T06:18:23Z</time>
      </trkpt>
      <trkpt lat="44.75086" lon="6.83178">
        <ele>1482.6</ele>
        <time>2022-07-18T06:18:24Z</time>
      </trkpt>
      <trkpt lat="44.75086" lon="6.83181">
        <ele>1482.8</ele>
        <time>2022-07-18T06:18:25Z</time>
      </trkpt>
      <trkpt lat="44.75086" lon="6.83184">
        <ele>1482.8</ele>
        <time>2022-07-18T06:18:26Z</time>
      </trkpt>
      <trkpt lat="44.75087" lon="6.83187">
        <ele>1483.2</ele>
        <time>2022-07-18T06:18:27Z</time>
      </trkpt>
      <trkpt lat="44.75087" lon="6.8319">
        <ele>1483.2</ele>
        <time>2022-07-18T06:18:28Z</time>
      </trkpt>
      <trkpt lat="44.75087" lon="6.83194">
        <ele>1483.6</ele>
        <time>2022-07-18T06:18:29Z</time>
      </trkpt>
      <trkpt lat="44.75087" lon="6.83197">
        <ele>1483.8</ele>
        <time>2022-07-18T06:18:30Z</time>
      </trkpt>
      <trkpt lat="44.75087" lon="6.832">
        <ele>1483.8</ele>
        <time>2022-07-18T06:18:31Z</time>
      </trkpt>
      <trkpt lat="44.75087" lon="6.83204">
        <ele>1484</ele>
        <time>2022-07-18T06:18:32Z</time>
      </trkpt>
      <trkpt lat="44.75087" lon="6.83207">
        <ele>1484</ele>
        <time>2022-07-18T06:18:33Z</time>
      </trkpt>
      <trkpt lat="44.75087" lon="6.8321">
        <ele>1484.4</ele>
        <time>2022-07-18T06:18:34Z</time>
      </trkpt>
      <trkpt lat="44.75087" lon="6.83214">
        <ele>1484.6</ele>
        <time>2022-07-18T06:18:35Z</time>
      </trkpt>
      <trkpt lat="44.75087" lon="6.83217">
        <ele>1484.8</ele>
        <time>2022-07-18T06:18:36Z</time>
      </trkpt>
      <trkpt lat="44.75087" lon="6.83221">
        <ele>1484.8</ele>
        <time>2022-07-18T06:18:37Z</time>
      </trkpt>
      <trkpt lat="44.75087" lon="6.83224">
        <ele>1485.4</ele>
        <time>2022-07-18T06:18:38Z</time>
      </trkpt>
      <trkpt lat="44.75087" lon="6.83227">
        <ele>1485.6</ele>
        <time>2022-07-18T06:18:39Z</time>
      </trkpt>
      <trkpt lat="44.75087" lon="6.83231">
        <ele>1485.8</ele>
        <time>2022-07-18T06:18:40Z</time>
      </trkpt>
      <trkpt lat="44.75088" lon="6.83234">
        <ele>1486.2</ele>
        <time>2022-07-18T06:18:41Z</time>
      </trkpt>
      <trkpt lat="44.75088" lon="6.83238">
        <ele>1486.4</ele>
        <time>2022-07-18T06:18:42Z</time>
      </trkpt>
      <trkpt lat="44.75088" lon="6.83241">
        <ele>1486.6</ele>
        <time>2022-07-18T06:18:43Z</time>
      </trkpt>
      <trkpt lat="44.75088" lon="6.83245">
        <ele>1486.6</ele>
        <time>2022-07-18T06:18:44Z</time>
      </trkpt>
      <trkpt lat="44.75088" lon="6.83248">
        <ele>1487</ele>
        <time>2022-07-18T06:18:45Z</time>
      </trkpt>
      <trkpt lat="44.75088" lon="6.83252">
        <ele>1487.2</ele>
        <time>2022-07-18T06:18:46Z</time>
      </trkpt>
      <trkpt lat="44.75087" lon="6.83255">
        <ele>1487.6</ele>
        <time>2022-07-18T06:18:47Z</time>
      </trkpt>
      <trkpt lat="44.75087" lon="6.83259">
        <ele>1487.8</ele>
        <time>2022-07-18T06:18:48Z</time>
      </trkpt>
      <trkpt lat="44.75087" lon="6.83262">
        <ele>1488</ele>
        <time>2022-07-18T06:18:49Z</time>
      </trkpt>
      <trkpt lat="44.75086" lon="6.83265">
        <ele>1488.2</ele>
        <time>2022-07-18T06:18:50Z</time>
      </trkpt>
      <trkpt lat="44.75085" lon="6.83268">
        <ele>1488.2</ele>
        <time>2022-07-18T06:18:51Z</time>
      </trkpt>
      <trkpt lat="44.75083" lon="6.83271">
        <ele>1488.6</ele>
        <time>2022-07-18T06:18:52Z</time>
      </trkpt>
      <trkpt lat="44.75081" lon="6.83273">
        <ele>1488.8</ele>
        <time>2022-07-18T06:18:53Z</time>
      </trkpt>
      <trkpt lat="44.75079" lon="6.83274">
        <ele>1489</ele>
        <time>2022-07-18T06:18:54Z</time>
      </trkpt>
      <trkpt lat="44.75077" lon="6.83276">
        <ele>1489</ele>
        <time>2022-07-18T06:18:55Z</time>
      </trkpt>
      <trkpt lat="44.75075" lon="6.83278">
        <ele>1489.4</ele>
        <time>2022-07-18T06:18:56Z</time>
      </trkpt>
      <trkpt lat="44.75073" lon="6.83279">
        <ele>1489.6</ele>
        <time>2022-07-18T06:18:57Z</time>
      </trkpt>
      <trkpt lat="44.7507" lon="6.8328">
        <ele>1489.6</ele>
        <time>2022-07-18T06:18:58Z</time>
      </trkpt>
      <trkpt lat="44.75068" lon="6.83281">
        <ele>1490</ele>
        <time>2022-07-18T06:18:59Z</time>
      </trkpt>
      <trkpt lat="44.75065" lon="6.8328">
        <ele>1490.2</ele>
        <time>2022-07-18T06:19:00Z</time>
      </trkpt>
      <trkpt lat="44.75063" lon="6.8328">
        <ele>1490.2</ele>
        <time>2022-07-18T06:19:01Z</time>
      </trkpt>
      <trkpt lat="44.75061" lon="6.83279">
        <ele>1490.4</ele>
        <time>2022-07-18T06:19:02Z</time>
      </trkpt>
      <trkpt lat="44.75058" lon="6.83278">
        <ele>1490.6</ele>
        <time>2022-07-18T06:19:03Z</time>
      </trkpt>
      <trkpt lat="44.75056" lon="6.83277">
        <ele>1490.6</ele>
        <time>2022-07-18T06:19:04Z</time>
      </trkpt>
      <trkpt lat="44.75054" lon="6.83277">
        <ele>1491</ele>
        <time>2022-07-18T06:19:05Z</time>
      </trkpt>
      <trkpt lat="44.75051" lon="6.83276">
        <ele>1491.2</ele>
        <time>2022-07-18T06:19:06Z</time>
      </trkpt>
      <trkpt lat="44.75049" lon="6.83275">
        <ele>1491.2</ele>
        <time>2022-07-18T06:19:07Z</time>
      </trkpt>
      <trkpt lat="44.75046" lon="6.83274">
        <ele>1491.6</ele>
        <time>2022-07-18T06:19:08Z</time>
      </trkpt>
      <trkpt lat="44.75044" lon="6.83272">
        <ele>1492</ele>
        <time>2022-07-18T06:19:09Z</time>
      </trkpt>
      <trkpt lat="44.75042" lon="6.83271">
        <ele>1492.2</ele>
        <time>2022-07-18T06:19:10Z</time>
      </trkpt>
      <trkpt lat="44.7504" lon="6.8327">
        <ele>1492.2</ele>
        <time>2022-07-18T06:19:11Z</time>
      </trkpt>
      <trkpt lat="44.75037" lon="6.83269">
        <ele>1492.4</ele>
        <time>2022-07-18T06:19:12Z</time>
      </trkpt>
      <trkpt lat="44.75035" lon="6.83268">
        <ele>1492.4</ele>
        <time>2022-07-18T06:19:13Z</time>
      </trkpt>
      <trkpt lat="44.75033" lon="6.83267">
        <ele>1492.8</ele>
        <time>2022-07-18T06:19:14Z</time>
      </trkpt>
      <trkpt lat="44.75031" lon="6.83266">
        <ele>1493</ele>
        <time>2022-07-18T06:19:15Z</time>
      </trkpt>
      <trkpt lat="44.75029" lon="6.83265">
        <ele>1493.4</ele>
        <time>2022-07-18T06:19:16Z</time>
      </trkpt>
      <trkpt lat="44.75026" lon="6.83264">
        <ele>1493.6</ele>
        <time>2022-07-18T06:19:17Z</time>
      </trkpt>
      <trkpt lat="44.75024" lon="6.83263">
        <ele>1493.6</ele>
        <time>2022-07-18T06:19:18Z</time>
      </trkpt>
      <trkpt lat="44.75022" lon="6.83262">
        <ele>1494</ele>
        <time>2022-07-18T06:19:19Z</time>
      </trkpt>
      <trkpt lat="44.75019" lon="6.83261">
        <ele>1494</ele>
        <time>2022-07-18T06:19:20Z</time>
      </trkpt>
      <trkpt lat="44.75016" lon="6.8326">
        <ele>1494.4</ele>
        <time>2022-07-18T06:19:21Z</time>
      </trkpt>
      <trkpt lat="44.75014" lon="6.8326">
        <ele>1494.4</ele>
        <time>2022-07-18T06:19:22Z</time>
      </trkpt>
      <trkpt lat="44.75012" lon="6.83259">
        <ele>1494.8</ele>
        <time>2022-07-18T06:19:23Z</time>
      </trkpt>
      <trkpt lat="44.7501" lon="6.83258">
        <ele>1495</ele>
        <time>2022-07-18T06:19:24Z</time>
      </trkpt>
      <trkpt lat="44.75007" lon="6.83257">
        <ele>1495.2</ele>
        <time>2022-07-18T06:19:25Z</time>
      </trkpt>
      <trkpt lat="44.75005" lon="6.83256">
        <ele>1495.2</ele>
        <time>2022-07-18T06:19:26Z</time>
      </trkpt>
      <trkpt lat="44.75003" lon="6.83254">
        <ele>1495.4</ele>
        <time>2022-07-18T06:19:27Z</time>
      </trkpt>
      <trkpt lat="44.75" lon="6.83253">
        <ele>1495.4</ele>
        <time>2022-07-18T06:19:28Z</time>
      </trkpt>
      <trkpt lat="44.74998" lon="6.83253">
        <ele>1495.8</ele>
        <time>2022-07-18T06:19:29Z</time>
      </trkpt>
      <trkpt lat="44.74996" lon="6.83252">
        <ele>1496</ele>
        <time>2022-07-18T06:19:30Z</time>
      </trkpt>
      <trkpt lat="44.74994" lon="6.83251">
        <ele>1496</ele>
        <time>2022-07-18T06:19:31Z</time>
      </trkpt>
      <trkpt lat="44.74992" lon="6.8325">
        <ele>1496.4</ele>
        <time>2022-07-18T06:19:32Z</time>
      </trkpt>
      <trkpt lat="44.7499" lon="6.83249">
        <ele>1496.6</ele>
        <time>2022-07-18T06:19:33Z</time>
      </trkpt>
      <trkpt lat="44.74988" lon="6.83249">
        <ele>1496.6</ele>
        <time>2022-07-18T06:19:34Z</time>
      </trkpt>
      <trkpt lat="44.74986" lon="6.83248">
        <ele>1497</ele>
        <time>2022-07-18T06:19:35Z</time>
      </trkpt>
      <trkpt lat="44.74984" lon="6.83248">
        <ele>1497.2</ele>
        <time>2022-07-18T06:19:36Z</time>
      </trkpt>
      <trkpt lat="44.74981" lon="6.83247">
        <ele>1497.4</ele>
        <time>2022-07-18T06:19:37Z</time>
      </trkpt>
      <trkpt lat="44.74979" lon="6.83247">
        <ele>1497.6</ele>
        <time>2022-07-18T06:19:38Z</time>
      </trkpt>
      <trkpt lat="44.74977" lon="6.83247">
        <ele>1497.8</ele>
        <time>2022-07-18T06:19:39Z</time>
      </trkpt>
      <trkpt lat="44.74974" lon="6.83247">
        <ele>1497.8</ele>
        <time>2022-07-18T06:19:40Z</time>
      </trkpt>
      <trkpt lat="44.74972" lon="6.83247">
        <ele>1498.2</ele>
        <time>2022-07-18T06:19:41Z</time>
      </trkpt>
      <trkpt lat="44.74969" lon="6.83246">
        <ele>1498.2</ele>
        <time>2022-07-18T06:19:42Z</time>
      </trkpt>
      <trkpt lat="44.74967" lon="6.83246">
        <ele>1498.4</ele>
        <time>2022-07-18T06:19:43Z</time>
      </trkpt>
      <trkpt lat="44.74964" lon="6.83246">
        <ele>1498.6</ele>
        <time>2022-07-18T06:19:44Z</time>
      </trkpt>
      <trkpt lat="44.74962" lon="6.83246">
        <ele>1498.6</ele>
        <time>2022-07-18T06:19:45Z</time>
      </trkpt>
      <trkpt lat="44.7496" lon="6.83246">
        <ele>1499</ele>
        <time>2022-07-18T06:19:46Z</time>
      </trkpt>
      <trkpt lat="44.74957" lon="6.83246">
        <ele>1499.2</ele>
        <time>2022-07-18T06:19:47Z</time>
      </trkpt>
      <trkpt lat="44.74955" lon="6.83246">
        <ele>1499.4</ele>
        <time>2022-07-18T06:19:48Z</time>
      </trkpt>
      <trkpt lat="44.74953" lon="6.83246">
        <ele>1499.8</ele>
        <time>2022-07-18T06:19:49Z</time>
      </trkpt>
      <trkpt lat="44.7495" lon="6.83247">
        <ele>1499.8</ele>
        <time>2022-07-18T06:19:50Z</time>
      </trkpt>
      <trkpt lat="44.74948" lon="6.83247">
        <ele>1500</ele>
        <time>2022-07-18T06:19:51Z</time>
      </trkpt>
      <trkpt lat="44.74946" lon="6.83248">
        <ele>1500</ele>
        <time>2022-07-18T06:19:52Z</time>
      </trkpt>
      <trkpt lat="44.74944" lon="6.83248">
        <ele>1500.4</ele>
        <time>2022-07-18T06:19:53Z</time>
      </trkpt>
      <trkpt lat="44.74942" lon="6.83249">
        <ele>1500.4</ele>
        <time>2022-07-18T06:19:54Z</time>
      </trkpt>
      <trkpt lat="44.74939" lon="6.8325">
        <ele>1500.8</ele>
        <time>2022-07-18T06:19:55Z</time>
      </trkpt>
      <trkpt lat="44.74937" lon="6.8325">
        <ele>1501.2</ele>
        <time>2022-07-18T06:19:56Z</time>
      </trkpt>
      <trkpt lat="44.74935" lon="6.83251">
        <ele>1501.2</ele>
        <time>2022-07-18T06:19:57Z</time>
      </trkpt>
      <trkpt lat="44.74932" lon="6.83252">
        <ele>1501.6</ele>
        <time>2022-07-18T06:19:58Z</time>
      </trkpt>
      <trkpt lat="44.7493" lon="6.83253">
        <ele>1501.8</ele>
        <time>2022-07-18T06:19:59Z</time>
      </trkpt>
      <trkpt lat="44.74928" lon="6.83253">
        <ele>1502</ele>
        <time>2022-07-18T06:20:00Z</time>
      </trkpt>
      <trkpt lat="44.74925" lon="6.83254">
        <ele>1502</ele>
        <time>2022-07-18T06:20:01Z</time>
      </trkpt>
      <trkpt lat="44.74923" lon="6.83255">
        <ele>1502.4</ele>
        <time>2022-07-18T06:20:02Z</time>
      </trkpt>
      <trkpt lat="44.74921" lon="6.83255">
        <ele>1502.4</ele>
        <time>2022-07-18T06:20:03Z</time>
      </trkpt>
      <trkpt lat="44.74919" lon="6.83255">
        <ele>1502.8</ele>
        <time>2022-07-18T06:20:04Z</time>
      </trkpt>
      <trkpt lat="44.74917" lon="6.83255">
        <ele>1502.8</ele>
        <time>2022-07-18T06:20:05Z</time>
      </trkpt>
      <trkpt lat="44.74915" lon="6.83255">
        <ele>1503.2</ele>
        <time>2022-07-18T06:20:06Z</time>
      </trkpt>
      <trkpt lat="44.74913" lon="6.83254">
        <ele>1503.4</ele>
        <time>2022-07-18T06:20:07Z</time>
      </trkpt>
      <trkpt lat="44.7491" lon="6.83254">
        <ele>1503.6</ele>
        <time>2022-07-18T06:20:08Z</time>
      </trkpt>
      <trkpt lat="44.74908" lon="6.83253">
        <ele>1503.6</ele>
        <time>2022-07-18T06:20:09Z</time>
      </trkpt>
      <trkpt lat="44.74906" lon="6.83253">
        <ele>1504</ele>
        <time>2022-07-18T06:20:10Z</time>
      </trkpt>
      <trkpt lat="44.74904" lon="6.83252">
        <ele>1504.2</ele>
        <time>2022-07-18T06:20:11Z</time>
      </trkpt>
      <trkpt lat="44.74902" lon="6.8325">
        <ele>1504.4</ele>
        <time>2022-07-18T06:20:12Z</time>
      </trkpt>
      <trkpt lat="44.749" lon="6.83249">
        <ele>1504.8</ele>
        <time>2022-07-18T06:20:13Z</time>
      </trkpt>
      <trkpt lat="44.74898" lon="6.83246">
        <ele>1505</ele>
        <time>2022-07-18T06:20:14Z</time>
      </trkpt>
      <trkpt lat="44.74896" lon="6.83244">
        <ele>1505.2</ele>
        <time>2022-07-18T06:20:15Z</time>
      </trkpt>
      <trkpt lat="44.74895" lon="6.83242">
        <ele>1505.2</ele>
        <time>2022-07-18T06:20:16Z</time>
      </trkpt>
      <trkpt lat="44.74894" lon="6.8324">
        <ele>1505.6</ele>
        <time>2022-07-18T06:20:17Z</time>
      </trkpt>
      <trkpt lat="44.74894" lon="6.83237">
        <ele>1505.6</ele>
        <time>2022-07-18T06:20:18Z</time>
      </trkpt>
      <trkpt lat="44.74893" lon="6.83235">
        <ele>1506</ele>
        <time>2022-07-18T06:20:19Z</time>
      </trkpt>
      <trkpt lat="44.74893" lon="6.83232">
        <ele>1506.2</ele>
        <time>2022-07-18T06:20:20Z</time>
      </trkpt>
      <trkpt lat="44.74892" lon="6.83229">
        <ele>1506.2</ele>
        <time>2022-07-18T06:20:21Z</time>
      </trkpt>
      <trkpt lat="44.74893" lon="6.83226">
        <ele>1506.6</ele>
        <time>2022-07-18T06:20:22Z</time>
      </trkpt>
      <trkpt lat="44.74893" lon="6.83223">
        <ele>1506.8</ele>
        <time>2022-07-18T06:20:23Z</time>
      </trkpt>
      <trkpt lat="44.74894" lon="6.8322">
        <ele>1507.2</ele>
        <time>2022-07-18T06:20:24Z</time>
      </trkpt>
      <trkpt lat="44.74895" lon="6.83217">
        <ele>1507.4</ele>
        <time>2022-07-18T06:20:25Z</time>
      </trkpt>
      <trkpt lat="44.74895" lon="6.83215">
        <ele>1507.8</ele>
        <time>2022-07-18T06:20:26Z</time>
      </trkpt>
      <trkpt lat="44.74896" lon="6.83212">
        <ele>1508</ele>
        <time>2022-07-18T06:20:27Z</time>
      </trkpt>
      <trkpt lat="44.74897" lon="6.8321">
        <ele>1508.2</ele>
        <time>2022-07-18T06:20:28Z</time>
      </trkpt>
      <trkpt lat="44.74898" lon="6.83207">
        <ele>1508.4</ele>
        <time>2022-07-18T06:20:29Z</time>
      </trkpt>
      <trkpt lat="44.749" lon="6.83205">
        <ele>1508.4</ele>
        <time>2022-07-18T06:20:30Z</time>
      </trkpt>
      <trkpt lat="44.74901" lon="6.83203">
        <ele>1508.8</ele>
        <time>2022-07-18T06:20:31Z</time>
      </trkpt>
      <trkpt lat="44.74903" lon="6.83201">
        <ele>1509.2</ele>
        <time>2022-07-18T06:20:32Z</time>
      </trkpt>
      <trkpt lat="44.74904" lon="6.83199">
        <ele>1509.4</ele>
        <time>2022-07-18T06:20:33Z</time>
      </trkpt>
      <trkpt lat="44.74906" lon="6.83198">
        <ele>1509.4</ele>
        <time>2022-07-18T06:20:34Z</time>
      </trkpt>
      <trkpt lat="44.74907" lon="6.83196">
        <ele>1509.8</ele>
        <time>2022-07-18T06:20:35Z</time>
      </trkpt>
      <trkpt lat="44.74909" lon="6.83194">
        <ele>1509.8</ele>
        <time>2022-07-18T06:20:36Z</time>
      </trkpt>
      <trkpt lat="44.7491" lon="6.83192">
        <ele>1510.2</ele>
        <time>2022-07-18T06:20:37Z</time>
      </trkpt>
      <trkpt lat="44.74911" lon="6.8319">
        <ele>1510.2</ele>
        <time>2022-07-18T06:20:38Z</time>
      </trkpt>
      <trkpt lat="44.74913" lon="6.83188">
        <ele>1510.6</ele>
        <time>2022-07-18T06:20:39Z</time>
      </trkpt>
      <trkpt lat="44.74914" lon="6.83186">
        <ele>1510.6</ele>
        <time>2022-07-18T06:20:40Z</time>
      </trkpt>
      <trkpt lat="44.74915" lon="6.83183">
        <ele>1510.6</ele>
        <time>2022-07-18T06:20:41Z</time>
      </trkpt>
      <trkpt lat="44.74916" lon="6.83181">
        <ele>1510.8</ele>
        <time>2022-07-18T06:20:42Z</time>
      </trkpt>
      <trkpt lat="44.74917" lon="6.83178">
        <ele>1510.8</ele>
        <time>2022-07-18T06:20:43Z</time>
      </trkpt>
      <trkpt lat="44.74918" lon="6.83176">
        <ele>1511.2</ele>
        <time>2022-07-18T06:20:44Z</time>
      </trkpt>
      <trkpt lat="44.74919" lon="6.83173">
        <ele>1511.6</ele>
        <time>2022-07-18T06:20:45Z</time>
      </trkpt>
      <trkpt lat="44.74919" lon="6.83171">
        <ele>1511.6</ele>
        <time>2022-07-18T06:20:46Z</time>
      </trkpt>
      <trkpt lat="44.7492" lon="6.83168">
        <ele>1511.8</ele>
        <time>2022-07-18T06:20:47Z</time>
      </trkpt>
      <trkpt lat="44.74921" lon="6.83166">
        <ele>1511.8</ele>
        <time>2022-07-18T06:20:48Z</time>
      </trkpt>
      <trkpt lat="44.74921" lon="6.83164">
        <ele>1512.2</ele>
        <time>2022-07-18T06:20:49Z</time>
      </trkpt>
      <trkpt lat="44.74921" lon="6.83161">
        <ele>1512.4</ele>
        <time>2022-07-18T06:20:50Z</time>
      </trkpt>
      <trkpt lat="44.74921" lon="6.83158">
        <ele>1512.4</ele>
        <time>2022-07-18T06:20:51Z</time>
      </trkpt>
      <trkpt lat="44.74921" lon="6.83155">
        <ele>1512.8</ele>
        <time>2022-07-18T06:20:52Z</time>
      </trkpt>
      <trkpt lat="44.7492" lon="6.83152">
        <ele>1513</ele>
        <time>2022-07-18T06:20:53Z</time>
      </trkpt>
      <trkpt lat="44.7492" lon="6.83149">
        <ele>1513.2</ele>
        <time>2022-07-18T06:20:54Z</time>
      </trkpt>
      <trkpt lat="44.74919" lon="6.83147">
        <ele>1513.2</ele>
        <time>2022-07-18T06:20:55Z</time>
      </trkpt>
      <trkpt lat="44.74919" lon="6.83144">
        <ele>1513.6</ele>
        <time>2022-07-18T06:20:56Z</time>
      </trkpt>
      <trkpt lat="44.74918" lon="6.83142">
        <ele>1513.8</ele>
        <time>2022-07-18T06:20:57Z</time>
      </trkpt>
      <trkpt lat="44.74917" lon="6.83139">
        <ele>1514</ele>
        <time>2022-07-18T06:20:58Z</time>
      </trkpt>
      <trkpt lat="44.74916" lon="6.83137">
        <ele>1514.2</ele>
        <time>2022-07-18T06:20:59Z</time>
      </trkpt>
      <trkpt lat="44.74914" lon="6.83134">
        <ele>1514.4</ele>
        <time>2022-07-18T06:21:00Z</time>
      </trkpt>
      <trkpt lat="44.74913" lon="6.83132">
        <ele>1514.6</ele>
        <time>2022-07-18T06:21:01Z</time>
      </trkpt>
      <trkpt lat="44.74911" lon="6.8313">
        <ele>1515</ele>
        <time>2022-07-18T06:21:02Z</time>
      </trkpt>
      <trkpt lat="44.7491" lon="6.83127">
        <ele>1515</ele>
        <time>2022-07-18T06:21:03Z</time>
      </trkpt>
      <trkpt lat="44.74908" lon="6.83125">
        <ele>1515.2</ele>
        <time>2022-07-18T06:21:04Z</time>
      </trkpt>
      <trkpt lat="44.74906" lon="6.83124">
        <ele>1515.2</ele>
        <time>2022-07-18T06:21:05Z</time>
      </trkpt>
      <trkpt lat="44.74905" lon="6.83122">
        <ele>1515.6</ele>
        <time>2022-07-18T06:21:06Z</time>
      </trkpt>
      <trkpt lat="44.74903" lon="6.8312">
        <ele>1515.6</ele>
        <time>2022-07-18T06:21:07Z</time>
      </trkpt>
      <trkpt lat="44.74901" lon="6.83118">
        <ele>1516</ele>
        <time>2022-07-18T06:21:08Z</time>
      </trkpt>
      <trkpt lat="44.74899" lon="6.83117">
        <ele>1516</ele>
        <time>2022-07-18T06:21:09Z</time>
      </trkpt>
      <trkpt lat="44.74897" lon="6.83115">
        <ele>1516.4</ele>
        <time>2022-07-18T06:21:10Z</time>
      </trkpt>
      <trkpt lat="44.74896" lon="6.83113">
        <ele>1516.4</ele>
        <time>2022-07-18T06:21:11Z</time>
      </trkpt>
      <trkpt lat="44.74894" lon="6.83112">
        <ele>1516.6</ele>
        <time>2022-07-18T06:21:12Z</time>
      </trkpt>
      <trkpt lat="44.74892" lon="6.8311">
        <ele>1517</ele>
        <time>2022-07-18T06:21:13Z</time>
      </trkpt>
      <trkpt lat="44.7489" lon="6.83108">
        <ele>1517.2</ele>
        <time>2022-07-18T06:21:14Z</time>
      </trkpt>
      <trkpt lat="44.74888" lon="6.83106">
        <ele>1517.2</ele>
        <time>2022-07-18T06:21:15Z</time>
      </trkpt>
      <trkpt lat="44.74886" lon="6.83104">
        <ele>1517.4</ele>
        <time>2022-07-18T06:21:16Z</time>
      </trkpt>
      <trkpt lat="44.74885" lon="6.83102">
        <ele>1517.4</ele>
        <time>2022-07-18T06:21:17Z</time>
      </trkpt>
      <trkpt lat="44.74883" lon="6.831">
        <ele>1517.8</ele>
        <time>2022-07-18T06:21:18Z</time>
      </trkpt>
      <trkpt lat="44.74881" lon="6.83099">
        <ele>1517.8</ele>
        <time>2022-07-18T06:21:19Z</time>
      </trkpt>
      <trkpt lat="44.74879" lon="6.83097">
        <ele>1518.2</ele>
        <time>2022-07-18T06:21:20Z</time>
      </trkpt>
      <trkpt lat="44.74878" lon="6.83095">
        <ele>1518.2</ele>
        <time>2022-07-18T06:21:21Z</time>
      </trkpt>
      <trkpt lat="44.74876" lon="6.83093">
        <ele>1518.4</ele>
        <time>2022-07-18T06:21:22Z</time>
      </trkpt>
      <trkpt lat="44.74874" lon="6.83091">
        <ele>1518.8</ele>
        <time>2022-07-18T06:21:23Z</time>
      </trkpt>
      <trkpt lat="44.74873" lon="6.8309">
        <ele>1518.8</ele>
        <time>2022-07-18T06:21:24Z</time>
      </trkpt>
      <trkpt lat="44.74871" lon="6.83088">
        <ele>1519</ele>
        <time>2022-07-18T06:21:25Z</time>
      </trkpt>
      <trkpt lat="44.7487" lon="6.83085">
        <ele>1519</ele>
        <time>2022-07-18T06:21:26Z</time>
      </trkpt>
      <trkpt lat="44.74869" lon="6.83083">
        <ele>1519.4</ele>
        <time>2022-07-18T06:21:27Z</time>
      </trkpt>
      <trkpt lat="44.74867" lon="6.83081">
        <ele>1519.4</ele>
        <time>2022-07-18T06:21:28Z</time>
      </trkpt>
      <trkpt lat="44.74866" lon="6.83079">
        <ele>1519.8</ele>
        <time>2022-07-18T06:21:29Z</time>
      </trkpt>
      <trkpt lat="44.74865" lon="6.83077">
        <ele>1520</ele>
        <time>2022-07-18T06:21:30Z</time>
      </trkpt>
      <trkpt lat="44.74864" lon="6.83074">
        <ele>1520</ele>
        <time>2022-07-18T06:21:31Z</time>
      </trkpt>
      <trkpt lat="44.74863" lon="6.83072">
        <ele>1520.4</ele>
        <time>2022-07-18T06:21:32Z</time>
      </trkpt>
      <trkpt lat="44.74862" lon="6.83069">
        <ele>1520.4</ele>
        <time>2022-07-18T06:21:33Z</time>
      </trkpt>
      <trkpt lat="44.74862" lon="6.83067">
        <ele>1520.8</ele>
        <time>2022-07-18T06:21:34Z</time>
      </trkpt>
      <trkpt lat="44.74862" lon="6.83064">
        <ele>1520.8</ele>
        <time>2022-07-18T06:21:35Z</time>
      </trkpt>
      <trkpt lat="44.74861" lon="6.83062">
        <ele>1521.2</ele>
        <time>2022-07-18T06:21:36Z</time>
      </trkpt>
      <trkpt lat="44.74861" lon="6.83059">
        <ele>1521.2</ele>
        <time>2022-07-18T06:21:37Z</time>
      </trkpt>
      <trkpt lat="44.74861" lon="6.83056">
        <ele>1521.4</ele>
        <time>2022-07-18T06:21:38Z</time>
      </trkpt>
      <trkpt lat="44.7486" lon="6.83054">
        <ele>1521.4</ele>
        <time>2022-07-18T06:21:39Z</time>
      </trkpt>
      <trkpt lat="44.7486" lon="6.83051">
        <ele>1521.8</ele>
        <time>2022-07-18T06:21:40Z</time>
      </trkpt>
      <trkpt lat="44.74859" lon="6.83048">
        <ele>1521.8</ele>
        <time>2022-07-18T06:21:41Z</time>
      </trkpt>
      <trkpt lat="44.74859" lon="6.83044">
        <ele>1522.2</ele>
        <time>2022-07-18T06:21:42Z</time>
      </trkpt>
      <trkpt lat="44.74859" lon="6.83041">
        <ele>1522.2</ele>
        <time>2022-07-18T06:21:43Z</time>
      </trkpt>
      <trkpt lat="44.7486" lon="6.83038">
        <ele>1522.6</ele>
        <time>2022-07-18T06:21:44Z</time>
      </trkpt>
      <trkpt lat="44.7486" lon="6.83035">
        <ele>1522.8</ele>
        <time>2022-07-18T06:21:45Z</time>
      </trkpt>
      <trkpt lat="44.7486" lon="6.83032">
        <ele>1522.8</ele>
        <time>2022-07-18T06:21:46Z</time>
      </trkpt>
      <trkpt lat="44.7486" lon="6.83029">
        <ele>1523.2</ele>
        <time>2022-07-18T06:21:47Z</time>
      </trkpt>
      <trkpt lat="44.7486" lon="6.83026">
        <ele>1523.4</ele>
        <time>2022-07-18T06:21:48Z</time>
      </trkpt>
      <trkpt lat="44.7486" lon="6.83023">
        <ele>1523.8</ele>
        <time>2022-07-18T06:21:49Z</time>
      </trkpt>
      <trkpt lat="44.7486" lon="6.8302">
        <ele>1524</ele>
        <time>2022-07-18T06:21:50Z</time>
      </trkpt>
      <trkpt lat="44.74859" lon="6.83018">
        <ele>1524.4</ele>
        <time>2022-07-18T06:21:51Z</time>
      </trkpt>
      <trkpt lat="44.74859" lon="6.83015">
        <ele>1524.6</ele>
        <time>2022-07-18T06:21:52Z</time>
      </trkpt>
      <trkpt lat="44.74858" lon="6.83013">
        <ele>1525</ele>
        <time>2022-07-18T06:21:53Z</time>
      </trkpt>
      <trkpt lat="44.74857" lon="6.8301">
        <ele>1525.2</ele>
        <time>2022-07-18T06:21:54Z</time>
      </trkpt>
      <trkpt lat="44.74856" lon="6.83008">
        <ele>1525.4</ele>
        <time>2022-07-18T06:21:55Z</time>
      </trkpt>
      <trkpt lat="44.74855" lon="6.83006">
        <ele>1525.4</ele>
        <time>2022-07-18T06:21:56Z</time>
      </trkpt>
      <trkpt lat="44.74854" lon="6.83003">
        <ele>1525.8</ele>
        <time>2022-07-18T06:21:57Z</time>
      </trkpt>
      <trkpt lat="44.74853" lon="6.83001">
        <ele>1525.8</ele>
        <time>2022-07-18T06:21:58Z</time>
      </trkpt>
      <trkpt lat="44.74851" lon="6.83">
        <ele>1526.2</ele>
        <time>2022-07-18T06:21:59Z</time>
      </trkpt>
      <trkpt lat="44.74849" lon="6.82999">
        <ele>1526.2</ele>
        <time>2022-07-18T06:22:00Z</time>
      </trkpt>
      <trkpt lat="44.74848" lon="6.82998">
        <ele>1526.4</ele>
        <time>2022-07-18T06:22:01Z</time>
      </trkpt>
      <trkpt lat="44.74846" lon="6.82997">
        <ele>1526.6</ele>
        <time>2022-07-18T06:22:02Z</time>
      </trkpt>
      <trkpt lat="44.74844" lon="6.82997">
        <ele>1526.6</ele>
        <time>2022-07-18T06:22:03Z</time>
      </trkpt>
      <trkpt lat="44.74842" lon="6.82997">
        <ele>1527</ele>
        <time>2022-07-18T06:22:04Z</time>
      </trkpt>
      <trkpt lat="44.7484" lon="6.82998">
        <ele>1527</ele>
        <time>2022-07-18T06:22:05Z</time>
      </trkpt>
      <trkpt lat="44.74838" lon="6.82998">
        <ele>1527.2</ele>
        <time>2022-07-18T06:22:06Z</time>
      </trkpt>
      <trkpt lat="44.74836" lon="6.82999">
        <ele>1527.2</ele>
        <time>2022-07-18T06:22:07Z</time>
      </trkpt>
      <trkpt lat="44.74834" lon="6.83">
        <ele>1527.6</ele>
        <time>2022-07-18T06:22:08Z</time>
      </trkpt>
      <trkpt lat="44.74832" lon="6.83001">
        <ele>1527.6</ele>
        <time>2022-07-18T06:22:09Z</time>
      </trkpt>
      <trkpt lat="44.7483" lon="6.83002">
        <ele>1527.6</ele>
        <time>2022-07-18T06:22:10Z</time>
      </trkpt>
      <trkpt lat="44.74828" lon="6.83002">
        <ele>1528</ele>
        <time>2022-07-18T06:22:11Z</time>
      </trkpt>
      <trkpt lat="44.74826" lon="6.83003">
        <ele>1528</ele>
        <time>2022-07-18T06:22:12Z</time>
      </trkpt>
      <trkpt lat="44.74824" lon="6.83004">
        <ele>1528.4</ele>
        <time>2022-07-18T06:22:13Z</time>
      </trkpt>
      <trkpt lat="44.74822" lon="6.83005">
        <ele>1528.6</ele>
        <time>2022-07-18T06:22:14Z</time>
      </trkpt>
      <trkpt lat="44.7482" lon="6.83006">
        <ele>1528.8</ele>
        <time>2022-07-18T06:22:15Z</time>
      </trkpt>
      <trkpt lat="44.74818" lon="6.83007">
        <ele>1529</ele>
        <time>2022-07-18T06:22:16Z</time>
      </trkpt>
      <trkpt lat="44.74816" lon="6.83008">
        <ele>1529</ele>
        <time>2022-07-18T06:22:17Z</time>
      </trkpt>
      <trkpt lat="44.74814" lon="6.83009">
        <ele>1529.4</ele>
        <time>2022-07-18T06:22:18Z</time>
      </trkpt>
      <trkpt lat="44.74812" lon="6.8301">
        <ele>1529.4</ele>
        <time>2022-07-18T06:22:19Z</time>
      </trkpt>
      <trkpt lat="44.7481" lon="6.83011">
        <ele>1529.8</ele>
        <time>2022-07-18T06:22:20Z</time>
      </trkpt>
      <trkpt lat="44.74808" lon="6.83013">
        <ele>1530</ele>
        <time>2022-07-18T06:22:21Z</time>
      </trkpt>
      <trkpt lat="44.74806" lon="6.83014">
        <ele>1530.2</ele>
        <time>2022-07-18T06:22:22Z</time>
      </trkpt>
      <trkpt lat="44.74804" lon="6.83015">
        <ele>1530.2</ele>
        <time>2022-07-18T06:22:23Z</time>
      </trkpt>
      <trkpt lat="44.74802" lon="6.83016">
        <ele>1530.6</ele>
        <time>2022-07-18T06:22:24Z</time>
      </trkpt>
      <trkpt lat="44.748" lon="6.83017">
        <ele>1531</ele>
        <time>2022-07-18T06:22:25Z</time>
      </trkpt>
      <trkpt lat="44.74799" lon="6.83019">
        <ele>1531.2</ele>
        <time>2022-07-18T06:22:26Z</time>
      </trkpt>
      <trkpt lat="44.74797" lon="6.8302">
        <ele>1531.4</ele>
        <time>2022-07-18T06:22:27Z</time>
      </trkpt>
      <trkpt lat="44.74795" lon="6.83022">
        <ele>1531.6</ele>
        <time>2022-07-18T06:22:28Z</time>
      </trkpt>
      <trkpt lat="44.74794" lon="6.83024">
        <ele>1531.8</ele>
        <time>2022-07-18T06:22:29Z</time>
      </trkpt>
      <trkpt lat="44.74792" lon="6.83026">
        <ele>1531.8</ele>
        <time>2022-07-18T06:22:30Z</time>
      </trkpt>
      <trkpt lat="44.74791" lon="6.83028">
        <ele>1532.2</ele>
        <time>2022-07-18T06:22:31Z</time>
      </trkpt>
      <trkpt lat="44.74789" lon="6.8303">
        <ele>1532.4</ele>
        <time>2022-07-18T06:22:32Z</time>
      </trkpt>
      <trkpt lat="44.74788" lon="6.83032">
        <ele>1532.6</ele>
        <time>2022-07-18T06:22:33Z</time>
      </trkpt>
      <trkpt lat="44.74787" lon="6.83035">
        <ele>1532.6</ele>
        <time>2022-07-18T06:22:34Z</time>
      </trkpt>
      <trkpt lat="44.74786" lon="6.83037">
        <ele>1533</ele>
        <time>2022-07-18T06:22:35Z</time>
      </trkpt>
      <trkpt lat="44.74785" lon="6.8304">
        <ele>1533.2</ele>
        <time>2022-07-18T06:22:36Z</time>
      </trkpt>
      <trkpt lat="44.74784" lon="6.83043">
        <ele>1533.2</ele>
        <time>2022-07-18T06:22:37Z</time>
      </trkpt>
      <trkpt lat="44.74783" lon="6.83045">
        <ele>1533.4</ele>
        <time>2022-07-18T06:22:38Z</time>
      </trkpt>
      <trkpt lat="44.74782" lon="6.83048">
        <ele>1533.4</ele>
        <time>2022-07-18T06:22:39Z</time>
      </trkpt>
      <trkpt lat="44.74781" lon="6.83051">
        <ele>1533.8</ele>
        <time>2022-07-18T06:22:40Z</time>
      </trkpt>
      <trkpt lat="44.7478" lon="6.83054">
        <ele>1534</ele>
        <time>2022-07-18T06:22:41Z</time>
      </trkpt>
      <trkpt lat="44.74779" lon="6.83057">
        <ele>1534</ele>
        <time>2022-07-18T06:22:42Z</time>
      </trkpt>
      <trkpt lat="44.74778" lon="6.8306">
        <ele>1534.4</ele>
        <time>2022-07-18T06:22:43Z</time>
      </trkpt>
      <trkpt lat="44.74777" lon="6.83063">
        <ele>1534.4</ele>
        <time>2022-07-18T06:22:44Z</time>
      </trkpt>
      <trkpt lat="44.74776" lon="6.83065">
        <ele>1534.6</ele>
        <time>2022-07-18T06:22:45Z</time>
      </trkpt>
      <trkpt lat="44.74775" lon="6.83067">
        <ele>1534.6</ele>
        <time>2022-07-18T06:22:46Z</time>
      </trkpt>
      <trkpt lat="44.74773" lon="6.8307">
        <ele>1534.8</ele>
        <time>2022-07-18T06:22:47Z</time>
      </trkpt>
      <trkpt lat="44.74772" lon="6.83072">
        <ele>1535.2</ele>
        <time>2022-07-18T06:22:48Z</time>
      </trkpt>
      <trkpt lat="44.74771" lon="6.83074">
        <ele>1535.4</ele>
        <time>2022-07-18T06:22:49Z</time>
      </trkpt>
      <trkpt lat="44.74769" lon="6.83076">
        <ele>1535.6</ele>
        <time>2022-07-18T06:22:50Z</time>
      </trkpt>
      <trkpt lat="44.74767" lon="6.83078">
        <ele>1535.8</ele>
        <time>2022-07-18T06:22:51Z</time>
      </trkpt>
      <trkpt lat="44.74766" lon="6.8308">
        <ele>1535.8</ele>
        <time>2022-07-18T06:22:52Z</time>
      </trkpt>
      <trkpt lat="44.74764" lon="6.83081">
        <ele>1536.2</ele>
        <time>2022-07-18T06:22:53Z</time>
      </trkpt>
      <trkpt lat="44.74762" lon="6.83083">
        <ele>1536.2</ele>
        <time>2022-07-18T06:22:54Z</time>
      </trkpt>
      <trkpt lat="44.7476" lon="6.83085">
        <ele>1536.6</ele>
        <time>2022-07-18T06:22:55Z</time>
      </trkpt>
      <trkpt lat="44.74758" lon="6.83087">
        <ele>1536.6</ele>
        <time>2022-07-18T06:22:56Z</time>
      </trkpt>
      <trkpt lat="44.74756" lon="6.83089">
        <ele>1537</ele>
        <time>2022-07-18T06:22:57Z</time>
      </trkpt>
      <trkpt lat="44.74754" lon="6.8309">
        <ele>1537</ele>
        <time>2022-07-18T06:22:58Z</time>
      </trkpt>
      <trkpt lat="44.74752" lon="6.83091">
        <ele>1537.2</ele>
        <time>2022-07-18T06:22:59Z</time>
      </trkpt>
      <trkpt lat="44.7475" lon="6.83092">
        <ele>1537.4</ele>
        <time>2022-07-18T06:23:00Z</time>
      </trkpt>
      <trkpt lat="44.74748" lon="6.83093">
        <ele>1537.4</ele>
        <time>2022-07-18T06:23:01Z</time>
      </trkpt>
      <trkpt lat="44.74746" lon="6.83094">
        <ele>1537.8</ele>
        <time>2022-07-18T06:23:02Z</time>
      </trkpt>
      <trkpt lat="44.74744" lon="6.83095">
        <ele>1537.8</ele>
        <time>2022-07-18T06:23:03Z</time>
      </trkpt>
      <trkpt lat="44.74742" lon="6.83097">
        <ele>1538.2</ele>
        <time>2022-07-18T06:23:04Z</time>
      </trkpt>
      <trkpt lat="44.74739" lon="6.83098">
        <ele>1538.4</ele>
        <time>2022-07-18T06:23:05Z</time>
      </trkpt>
      <trkpt lat="44.74737" lon="6.83099">
        <ele>1538.4</ele>
        <time>2022-07-18T06:23:06Z</time>
      </trkpt>
      <trkpt lat="44.74735" lon="6.831">
        <ele>1538.8</ele>
        <time>2022-07-18T06:23:07Z</time>
      </trkpt>
      <trkpt lat="44.74733" lon="6.83102">
        <ele>1539</ele>
        <time>2022-07-18T06:23:08Z</time>
      </trkpt>
      <trkpt lat="44.74731" lon="6.83102">
        <ele>1539</ele>
        <time>2022-07-18T06:23:09Z</time>
      </trkpt>
      <trkpt lat="44.74729" lon="6.83103">
        <ele>1539.4</ele>
        <time>2022-07-18T06:23:10Z</time>
      </trkpt>
      <trkpt lat="44.74727" lon="6.83104">
        <ele>1539.6</ele>
        <time>2022-07-18T06:23:11Z</time>
      </trkpt>
      <trkpt lat="44.74725" lon="6.83105">
        <ele>1539.6</ele>
        <time>2022-07-18T06:23:12Z</time>
      </trkpt>
      <trkpt lat="44.74722" lon="6.83106">
        <ele>1540</ele>
        <time>2022-07-18T06:23:13Z</time>
      </trkpt>
      <trkpt lat="44.7472" lon="6.83107">
        <ele>1540</ele>
        <time>2022-07-18T06:23:14Z</time>
      </trkpt>
      <trkpt lat="44.74718" lon="6.83108">
        <ele>1540.4</ele>
        <time>2022-07-18T06:23:15Z</time>
      </trkpt>
      <trkpt lat="44.74716" lon="6.83109">
        <ele>1540.4</ele>
        <time>2022-07-18T06:23:16Z</time>
      </trkpt>
      <trkpt lat="44.74714" lon="6.8311">
        <ele>1540.6</ele>
        <time>2022-07-18T06:23:17Z</time>
      </trkpt>
      <trkpt lat="44.74711" lon="6.83112">
        <ele>1540.6</ele>
        <time>2022-07-18T06:23:18Z</time>
      </trkpt>
      <trkpt lat="44.74709" lon="6.83112">
        <ele>1541</ele>
        <time>2022-07-18T06:23:19Z</time>
      </trkpt>
      <trkpt lat="44.74707" lon="6.83113">
        <ele>1541</ele>
        <time>2022-07-18T06:23:20Z</time>
      </trkpt>
      <trkpt lat="44.74705" lon="6.83114">
        <ele>1541.4</ele>
        <time>2022-07-18T06:23:21Z</time>
      </trkpt>
      <trkpt lat="44.74703" lon="6.83115">
        <ele>1541.4</ele>
        <time>2022-07-18T06:23:22Z</time>
      </trkpt>
      <trkpt lat="44.747" lon="6.83115">
        <ele>1541.8</ele>
        <time>2022-07-18T06:23:23Z</time>
      </trkpt>
      <trkpt lat="44.74698" lon="6.83116">
        <ele>1541.8</ele>
        <time>2022-07-18T06:23:24Z</time>
      </trkpt>
      <trkpt lat="44.74696" lon="6.83116">
        <ele>1542.2</ele>
        <time>2022-07-18T06:23:25Z</time>
      </trkpt>
      <trkpt lat="44.74694" lon="6.83116">
        <ele>1542.2</ele>
        <time>2022-07-18T06:23:26Z</time>
      </trkpt>
      <trkpt lat="44.74691" lon="6.83117">
        <ele>1542.6</ele>
        <time>2022-07-18T06:23:27Z</time>
      </trkpt>
      <trkpt lat="44.74689" lon="6.83117">
        <ele>1542.6</ele>
        <time>2022-07-18T06:23:28Z</time>
      </trkpt>
      <trkpt lat="44.74687" lon="6.83117">
        <ele>1542.8</ele>
        <time>2022-07-18T06:23:29Z</time>
      </trkpt>
      <trkpt lat="44.74684" lon="6.83118">
        <ele>1542.8</ele>
        <time>2022-07-18T06:23:30Z</time>
      </trkpt>
      <trkpt lat="44.74682" lon="6.83118">
        <ele>1543.2</ele>
        <time>2022-07-18T06:23:31Z</time>
      </trkpt>
      <trkpt lat="44.7468" lon="6.83118">
        <ele>1543.2</ele>
        <time>2022-07-18T06:23:32Z</time>
      </trkpt>
      <trkpt lat="44.74678" lon="6.83118">
        <ele>1543.6</ele>
        <time>2022-07-18T06:23:33Z</time>
      </trkpt>
      <trkpt lat="44.74675" lon="6.83118">
        <ele>1543.6</ele>
        <time>2022-07-18T06:23:34Z</time>
      </trkpt>
      <trkpt lat="44.74673" lon="6.83118">
        <ele>1544</ele>
        <time>2022-07-18T06:23:35Z</time>
      </trkpt>
      <trkpt lat="44.74671" lon="6.83118">
        <ele>1544</ele>
        <time>2022-07-18T06:23:36Z</time>
      </trkpt>
      <trkpt lat="44.74668" lon="6.83118">
        <ele>1544.4</ele>
        <time>2022-07-18T06:23:37Z</time>
      </trkpt>
      <trkpt lat="44.74666" lon="6.83118">
        <ele>1544.6</ele>
        <time>2022-07-18T06:23:38Z</time>
      </trkpt>
      <trkpt lat="44.74664" lon="6.83117">
        <ele>1544.6</ele>
        <time>2022-07-18T06:23:39Z</time>
      </trkpt>
      <trkpt lat="44.74661" lon="6.83118">
        <ele>1545</ele>
        <time>2022-07-18T06:23:40Z</time>
      </trkpt>
      <trkpt lat="44.74659" lon="6.83117">
        <ele>1545</ele>
        <time>2022-07-18T06:23:41Z</time>
      </trkpt>
      <trkpt lat="44.74657" lon="6.83117">
        <ele>1545.4</ele>
        <time>2022-07-18T06:23:42Z</time>
      </trkpt>
      <trkpt lat="44.74655" lon="6.83116">
        <ele>1545.6</ele>
        <time>2022-07-18T06:23:43Z</time>
      </trkpt>
      <trkpt lat="44.74653" lon="6.83116">
        <ele>1545.6</ele>
        <time>2022-07-18T06:23:44Z</time>
      </trkpt>
      <trkpt lat="44.74651" lon="6.83116">
        <ele>1546</ele>
        <time>2022-07-18T06:23:45Z</time>
      </trkpt>
      <trkpt lat="44.74649" lon="6.83116">
        <ele>1546.2</ele>
        <time>2022-07-18T06:23:46Z</time>
      </trkpt>
      <trkpt lat="44.74646" lon="6.83116">
        <ele>1546.4</ele>
        <time>2022-07-18T06:23:47Z</time>
      </trkpt>
      <trkpt lat="44.74644" lon="6.83116">
        <ele>1546.4</ele>
        <time>2022-07-18T06:23:48Z</time>
      </trkpt>
      <trkpt lat="44.74642" lon="6.83116">
        <ele>1546.8</ele>
        <time>2022-07-18T06:23:49Z</time>
      </trkpt>
      <trkpt lat="44.74639" lon="6.83116">
        <ele>1546.8</ele>
        <time>2022-07-18T06:23:50Z</time>
      </trkpt>
      <trkpt lat="44.74637" lon="6.83116">
        <ele>1547</ele>
        <time>2022-07-18T06:23:51Z</time>
      </trkpt>
      <trkpt lat="44.74635" lon="6.83116">
        <ele>1547.2</ele>
        <time>2022-07-18T06:23:52Z</time>
      </trkpt>
      <trkpt lat="44.74632" lon="6.83117">
        <ele>1547.2</ele>
        <time>2022-07-18T06:23:53Z</time>
      </trkpt>
      <trkpt lat="44.7463" lon="6.83117">
        <ele>1547.8</ele>
        <time>2022-07-18T06:23:54Z</time>
      </trkpt>
      <trkpt lat="44.74627" lon="6.83118">
        <ele>1547.8</ele>
        <time>2022-07-18T06:23:55Z</time>
      </trkpt>
      <trkpt lat="44.74625" lon="6.83118">
        <ele>1548.2</ele>
        <time>2022-07-18T06:23:56Z</time>
      </trkpt>
      <trkpt lat="44.74623" lon="6.83119">
        <ele>1548.4</ele>
        <time>2022-07-18T06:23:57Z</time>
      </trkpt>
      <trkpt lat="44.74621" lon="6.83119">
        <ele>1548.4</ele>
        <time>2022-07-18T06:23:58Z</time>
      </trkpt>
      <trkpt lat="44.74619" lon="6.83119">
        <ele>1548.6</ele>
        <time>2022-07-18T06:23:59Z</time>
      </trkpt>
      <trkpt lat="44.74617" lon="6.83119">
        <ele>1548.6</ele>
        <time>2022-07-18T06:24:00Z</time>
      </trkpt>
      <trkpt lat="44.74615" lon="6.8312">
        <ele>1549</ele>
        <time>2022-07-18T06:24:01Z</time>
      </trkpt>
      <trkpt lat="44.74612" lon="6.8312">
        <ele>1549</ele>
        <time>2022-07-18T06:24:02Z</time>
      </trkpt>
      <trkpt lat="44.7461" lon="6.83121">
        <ele>1549.4</ele>
        <time>2022-07-18T06:24:03Z</time>
      </trkpt>
      <trkpt lat="44.74608" lon="6.83121">
        <ele>1549.4</ele>
        <time>2022-07-18T06:24:04Z</time>
      </trkpt>
      <trkpt lat="44.74605" lon="6.83122">
        <ele>1549.6</ele>
        <time>2022-07-18T06:24:05Z</time>
      </trkpt>
      <trkpt lat="44.74603" lon="6.83123">
        <ele>1549.8</ele>
        <time>2022-07-18T06:24:06Z</time>
      </trkpt>
      <trkpt lat="44.746" lon="6.83124">
        <ele>1549.8</ele>
        <time>2022-07-18T06:24:07Z</time>
      </trkpt>
      <trkpt lat="44.74598" lon="6.83124">
        <ele>1550.2</ele>
        <time>2022-07-18T06:24:08Z</time>
      </trkpt>
      <trkpt lat="44.74596" lon="6.83125">
        <ele>1550.4</ele>
        <time>2022-07-18T06:24:09Z</time>
      </trkpt>
      <trkpt lat="44.74593" lon="6.83126">
        <ele>1550.4</ele>
        <time>2022-07-18T06:24:10Z</time>
      </trkpt>
      <trkpt lat="44.74591" lon="6.83126">
        <ele>1550.8</ele>
        <time>2022-07-18T06:24:11Z</time>
      </trkpt>
      <trkpt lat="44.74589" lon="6.83127">
        <ele>1551</ele>
        <time>2022-07-18T06:24:12Z</time>
      </trkpt>
      <trkpt lat="44.74587" lon="6.83128">
        <ele>1551</ele>
        <time>2022-07-18T06:24:13Z</time>
      </trkpt>
      <trkpt lat="44.74585" lon="6.83128">
        <ele>1551.4</ele>
        <time>2022-07-18T06:24:14Z</time>
      </trkpt>
      <trkpt lat="44.74583" lon="6.83129">
        <ele>1551.6</ele>
        <time>2022-07-18T06:24:15Z</time>
      </trkpt>
      <trkpt lat="44.74581" lon="6.8313">
        <ele>1551.8</ele>
        <time>2022-07-18T06:24:16Z</time>
      </trkpt>
      <trkpt lat="44.74578" lon="6.83131">
        <ele>1551.8</ele>
        <time>2022-07-18T06:24:17Z</time>
      </trkpt>
      <trkpt lat="44.74576" lon="6.83132">
        <ele>1552.2</ele>
        <time>2022-07-18T06:24:18Z</time>
      </trkpt>
      <trkpt lat="44.74574" lon="6.83133">
        <ele>1552.2</ele>
        <time>2022-07-18T06:24:19Z</time>
      </trkpt>
      <trkpt lat="44.74572" lon="6.83133">
        <ele>1552.6</ele>
        <time>2022-07-18T06:24:20Z</time>
      </trkpt>
      <trkpt lat="44.74569" lon="6.83134">
        <ele>1552.6</ele>
        <time>2022-07-18T06:24:21Z</time>
      </trkpt>
      <trkpt lat="44.74567" lon="6.83135">
        <ele>1553</ele>
        <time>2022-07-18T06:24:22Z</time>
      </trkpt>
      <trkpt lat="44.74565" lon="6.83135">
        <ele>1553.2</ele>
        <time>2022-07-18T06:24:23Z</time>
      </trkpt>
      <trkpt lat="44.74563" lon="6.83136">
        <ele>1553.4</ele>
        <time>2022-07-18T06:24:24Z</time>
      </trkpt>
      <trkpt lat="44.7456" lon="6.83137">
        <ele>1553.4</ele>
        <time>2022-07-18T06:24:25Z</time>
      </trkpt>
      <trkpt lat="44.74558" lon="6.83137">
        <ele>1553.8</ele>
        <time>2022-07-18T06:24:26Z</time>
      </trkpt>
      <trkpt lat="44.74556" lon="6.83138">
        <ele>1553.8</ele>
        <time>2022-07-18T06:24:27Z</time>
      </trkpt>
      <trkpt lat="44.74554" lon="6.83137">
        <ele>1554.2</ele>
        <time>2022-07-18T06:24:28Z</time>
      </trkpt>
      <trkpt lat="44.74551" lon="6.83137">
        <ele>1554.4</ele>
        <time>2022-07-18T06:24:29Z</time>
      </trkpt>
      <trkpt lat="44.74549" lon="6.83138">
        <ele>1554.4</ele>
        <time>2022-07-18T06:24:30Z</time>
      </trkpt>
      <trkpt lat="44.74547" lon="6.83137">
        <ele>1554.6</ele>
        <time>2022-07-18T06:24:31Z</time>
      </trkpt>
      <trkpt lat="44.74544" lon="6.83137">
        <ele>1554.6</ele>
        <time>2022-07-18T06:24:32Z</time>
      </trkpt>
      <trkpt lat="44.74542" lon="6.83136">
        <ele>1555</ele>
        <time>2022-07-18T06:24:34Z</time>
      </trkpt>
      <trkpt lat="44.74539" lon="6.83135">
        <ele>1555.2</ele>
        <time>2022-07-18T06:24:35Z</time>
      </trkpt>
      <trkpt lat="44.74537" lon="6.83134">
        <ele>1555.4</ele>
        <time>2022-07-18T06:24:36Z</time>
      </trkpt>
      <trkpt lat="44.74535" lon="6.83132">
        <ele>1555.4</ele>
        <time>2022-07-18T06:24:37Z</time>
      </trkpt>
      <trkpt lat="44.7453" lon="6.83128">
        <ele>1555.8</ele>
        <time>2022-07-18T06:24:38Z</time>
      </trkpt>
      <trkpt lat="44.74528" lon="6.83126">
        <ele>1556</ele>
        <time>2022-07-18T06:24:39Z</time>
      </trkpt>
      <trkpt lat="44.74526" lon="6.83124">
        <ele>1556.2</ele>
        <time>2022-07-18T06:24:40Z</time>
      </trkpt>
      <trkpt lat="44.74524" lon="6.83122">
        <ele>1556.6</ele>
        <time>2022-07-18T06:24:41Z</time>
      </trkpt>
      <trkpt lat="44.74522" lon="6.8312">
        <ele>1556.8</ele>
        <time>2022-07-18T06:24:42Z</time>
      </trkpt>
      <trkpt lat="44.7452" lon="6.83119">
        <ele>1557</ele>
        <time>2022-07-18T06:24:43Z</time>
      </trkpt>
      <trkpt lat="44.74517" lon="6.83117">
        <ele>1557.2</ele>
        <time>2022-07-18T06:24:44Z</time>
      </trkpt>
      <trkpt lat="44.74515" lon="6.83116">
        <ele>1557.6</ele>
        <time>2022-07-18T06:24:45Z</time>
      </trkpt>
      <trkpt lat="44.74513" lon="6.83114">
        <ele>1557.6</ele>
        <time>2022-07-18T06:24:46Z</time>
      </trkpt>
      <trkpt lat="44.74511" lon="6.83112">
        <ele>1557.8</ele>
        <time>2022-07-18T06:24:47Z</time>
      </trkpt>
      <trkpt lat="44.74508" lon="6.83111">
        <ele>1557.8</ele>
        <time>2022-07-18T06:24:48Z</time>
      </trkpt>
      <trkpt lat="44.74506" lon="6.83109">
        <ele>1558</ele>
        <time>2022-07-18T06:24:49Z</time>
      </trkpt>
      <trkpt lat="44.74504" lon="6.83107">
        <ele>1558</ele>
        <time>2022-07-18T06:24:50Z</time>
      </trkpt>
      <trkpt lat="44.74502" lon="6.83105">
        <ele>1558.4</ele>
        <time>2022-07-18T06:24:51Z</time>
      </trkpt>
      <trkpt lat="44.745" lon="6.83104">
        <ele>1558.6</ele>
        <time>2022-07-18T06:24:52Z</time>
      </trkpt>
      <trkpt lat="44.74497" lon="6.83103">
        <ele>1558.6</ele>
        <time>2022-07-18T06:24:53Z</time>
      </trkpt>
      <trkpt lat="44.74495" lon="6.83101">
        <ele>1559</ele>
        <time>2022-07-18T06:24:54Z</time>
      </trkpt>
      <trkpt lat="44.74493" lon="6.83099">
        <ele>1559.2</ele>
        <time>2022-07-18T06:24:55Z</time>
      </trkpt>
      <trkpt lat="44.74491" lon="6.83097">
        <ele>1559.2</ele>
        <time>2022-07-18T06:24:56Z</time>
      </trkpt>
      <trkpt lat="44.74489" lon="6.83096">
        <ele>1559.4</ele>
        <time>2022-07-18T06:24:57Z</time>
      </trkpt>
      <trkpt lat="44.74487" lon="6.83094">
        <ele>1559.8</ele>
        <time>2022-07-18T06:24:58Z</time>
      </trkpt>
      <trkpt lat="44.74485" lon="6.83093">
        <ele>1559.8</ele>
        <time>2022-07-18T06:24:59Z</time>
      </trkpt>
      <trkpt lat="44.74483" lon="6.83091">
        <ele>1560.2</ele>
        <time>2022-07-18T06:25:00Z</time>
      </trkpt>
      <trkpt lat="44.74481" lon="6.8309">
        <ele>1560.4</ele>
        <time>2022-07-18T06:25:01Z</time>
      </trkpt>
      <trkpt lat="44.74479" lon="6.83088">
        <ele>1560.8</ele>
        <time>2022-07-18T06:25:02Z</time>
      </trkpt>
      <trkpt lat="44.74477" lon="6.83086">
        <ele>1561</ele>
        <time>2022-07-18T06:25:03Z</time>
      </trkpt>
      <trkpt lat="44.74475" lon="6.83084">
        <ele>1561.2</ele>
        <time>2022-07-18T06:25:04Z</time>
      </trkpt>
      <trkpt lat="44.74473" lon="6.83083">
        <ele>1561.2</ele>
        <time>2022-07-18T06:25:05Z</time>
      </trkpt>
      <trkpt lat="44.74471" lon="6.83082">
        <ele>1561.6</ele>
        <time>2022-07-18T06:25:06Z</time>
      </trkpt>
      <trkpt lat="44.74468" lon="6.83081">
        <ele>1561.6</ele>
        <time>2022-07-18T06:25:07Z</time>
      </trkpt>
      <trkpt lat="44.74466" lon="6.83079">
        <ele>1562</ele>
        <time>2022-07-18T06:25:08Z</time>
      </trkpt>
      <trkpt lat="44.74464" lon="6.83078">
        <ele>1562</ele>
        <time>2022-07-18T06:25:09Z</time>
      </trkpt>
      <trkpt lat="44.74462" lon="6.83076">
        <ele>1562.2</ele>
        <time>2022-07-18T06:25:10Z</time>
      </trkpt>
      <trkpt lat="44.7446" lon="6.83075">
        <ele>1562.2</ele>
        <time>2022-07-18T06:25:11Z</time>
      </trkpt>
      <trkpt lat="44.74458" lon="6.83074">
        <ele>1562.6</ele>
        <time>2022-07-18T06:25:12Z</time>
      </trkpt>
      <trkpt lat="44.74456" lon="6.83072">
        <ele>1562.8</ele>
        <time>2022-07-18T06:25:13Z</time>
      </trkpt>
      <trkpt lat="44.74454" lon="6.83071">
        <ele>1563</ele>
        <time>2022-07-18T06:25:14Z</time>
      </trkpt>
      <trkpt lat="44.74452" lon="6.83069">
        <ele>1563</ele>
        <time>2022-07-18T06:25:15Z</time>
      </trkpt>
      <trkpt lat="44.74449" lon="6.83068">
        <ele>1563.4</ele>
        <time>2022-07-18T06:25:16Z</time>
      </trkpt>
      <trkpt lat="44.74447" lon="6.83067">
        <ele>1563.4</ele>
        <time>2022-07-18T06:25:17Z</time>
      </trkpt>
      <trkpt lat="44.74444" lon="6.83066">
        <ele>1563.8</ele>
        <time>2022-07-18T06:25:18Z</time>
      </trkpt>
      <trkpt lat="44.74442" lon="6.83065">
        <ele>1564</ele>
        <time>2022-07-18T06:25:19Z</time>
      </trkpt>
      <trkpt lat="44.74439" lon="6.83063">
        <ele>1564</ele>
        <time>2022-07-18T06:25:20Z</time>
      </trkpt>
      <trkpt lat="44.74437" lon="6.83062">
        <ele>1564.4</ele>
        <time>2022-07-18T06:25:21Z</time>
      </trkpt>
      <trkpt lat="44.74435" lon="6.83061">
        <ele>1564.4</ele>
        <time>2022-07-18T06:25:22Z</time>
      </trkpt>
      <trkpt lat="44.74432" lon="6.8306">
        <ele>1564.6</ele>
        <time>2022-07-18T06:25:23Z</time>
      </trkpt>
      <trkpt lat="44.7443" lon="6.83059">
        <ele>1565</ele>
        <time>2022-07-18T06:25:24Z</time>
      </trkpt>
      <trkpt lat="44.74428" lon="6.83057">
        <ele>1565</ele>
        <time>2022-07-18T06:25:25Z</time>
      </trkpt>
      <trkpt lat="44.74425" lon="6.83056">
        <ele>1565.2</ele>
        <time>2022-07-18T06:25:26Z</time>
      </trkpt>
      <trkpt lat="44.74423" lon="6.83055">
        <ele>1565.2</ele>
        <time>2022-07-18T06:25:27Z</time>
      </trkpt>
      <trkpt lat="44.74421" lon="6.83053">
        <ele>1565.6</ele>
        <time>2022-07-18T06:25:28Z</time>
      </trkpt>
      <trkpt lat="44.74419" lon="6.83052">
        <ele>1565.8</ele>
        <time>2022-07-18T06:25:29Z</time>
      </trkpt>
      <trkpt lat="44.74417" lon="6.83051">
        <ele>1566</ele>
        <time>2022-07-18T06:25:30Z</time>
      </trkpt>
      <trkpt lat="44.74415" lon="6.8305">
        <ele>1566</ele>
        <time>2022-07-18T06:25:31Z</time>
      </trkpt>
      <trkpt lat="44.74413" lon="6.83048">
        <ele>1566.4</ele>
        <time>2022-07-18T06:25:32Z</time>
      </trkpt>
      <trkpt lat="44.74411" lon="6.83046">
        <ele>1566.8</ele>
        <time>2022-07-18T06:25:33Z</time>
      </trkpt>
      <trkpt lat="44.74409" lon="6.83045">
        <ele>1567</ele>
        <time>2022-07-18T06:25:34Z</time>
      </trkpt>
      <trkpt lat="44.74407" lon="6.83044">
        <ele>1567.2</ele>
        <time>2022-07-18T06:25:35Z</time>
      </trkpt>
      <trkpt lat="44.74405" lon="6.83042">
        <ele>1567.4</ele>
        <time>2022-07-18T06:25:36Z</time>
      </trkpt>
      <trkpt lat="44.74403" lon="6.83041">
        <ele>1567.6</ele>
        <time>2022-07-18T06:25:37Z</time>
      </trkpt>
      <trkpt lat="44.74401" lon="6.8304">
        <ele>1567.6</ele>
        <time>2022-07-18T06:25:38Z</time>
      </trkpt>
      <trkpt lat="44.74398" lon="6.83039">
        <ele>1568</ele>
        <time>2022-07-18T06:25:39Z</time>
      </trkpt>
      <trkpt lat="44.74396" lon="6.83038">
        <ele>1568</ele>
        <time>2022-07-18T06:25:40Z</time>
      </trkpt>
      <trkpt lat="44.74394" lon="6.83037">
        <ele>1568.4</ele>
        <time>2022-07-18T06:25:41Z</time>
      </trkpt>
      <trkpt lat="44.74391" lon="6.83037">
        <ele>1568.4</ele>
        <time>2022-07-18T06:25:42Z</time>
      </trkpt>
      <trkpt lat="44.74389" lon="6.83036">
        <ele>1568.8</ele>
        <time>2022-07-18T06:25:43Z</time>
      </trkpt>
      <trkpt lat="44.74386" lon="6.83035">
        <ele>1569.2</ele>
        <time>2022-07-18T06:25:44Z</time>
      </trkpt>
      <trkpt lat="44.74384" lon="6.83035">
        <ele>1569.2</ele>
        <time>2022-07-18T06:25:45Z</time>
      </trkpt>
      <trkpt lat="44.74382" lon="6.83034">
        <ele>1569.6</ele>
        <time>2022-07-18T06:25:46Z</time>
      </trkpt>
      <trkpt lat="44.7438" lon="6.83033">
        <ele>1569.8</ele>
        <time>2022-07-18T06:25:47Z</time>
      </trkpt>
      <trkpt lat="44.74378" lon="6.83032">
        <ele>1570</ele>
        <time>2022-07-18T06:25:48Z</time>
      </trkpt>
      <trkpt lat="44.74375" lon="6.83032">
        <ele>1570</ele>
        <time>2022-07-18T06:25:49Z</time>
      </trkpt>
      <trkpt lat="44.74373" lon="6.83032">
        <ele>1570.2</ele>
        <time>2022-07-18T06:25:50Z</time>
      </trkpt>
      <trkpt lat="44.74371" lon="6.83031">
        <ele>1570.2</ele>
        <time>2022-07-18T06:25:51Z</time>
      </trkpt>
      <trkpt lat="44.74369" lon="6.8303">
        <ele>1570.4</ele>
        <time>2022-07-18T06:25:52Z</time>
      </trkpt>
      <trkpt lat="44.74367" lon="6.8303">
        <ele>1570.4</ele>
        <time>2022-07-18T06:25:53Z</time>
      </trkpt>
      <trkpt lat="44.74365" lon="6.83029">
        <ele>1570.8</ele>
        <time>2022-07-18T06:25:54Z</time>
      </trkpt>
      <trkpt lat="44.74363" lon="6.83029">
        <ele>1571</ele>
        <time>2022-07-18T06:25:55Z</time>
      </trkpt>
      <trkpt lat="44.74361" lon="6.83029">
        <ele>1571.4</ele>
        <time>2022-07-18T06:25:56Z</time>
      </trkpt>
      <trkpt lat="44.74359" lon="6.83028">
        <ele>1571.6</ele>
        <time>2022-07-18T06:25:57Z</time>
      </trkpt>
      <trkpt lat="44.74357" lon="6.83028">
        <ele>1571.8</ele>
        <time>2022-07-18T06:25:58Z</time>
      </trkpt>
      <trkpt lat="44.74355" lon="6.83027">
        <ele>1571.8</ele>
        <time>2022-07-18T06:25:59Z</time>
      </trkpt>
      <trkpt lat="44.74353" lon="6.83027">
        <ele>1572.2</ele>
        <time>2022-07-18T06:26:00Z</time>
      </trkpt>
      <trkpt lat="44.7435" lon="6.83027">
        <ele>1572.2</ele>
        <time>2022-07-18T06:26:01Z</time>
      </trkpt>
      <trkpt lat="44.74348" lon="6.83028">
        <ele>1572.6</ele>
        <time>2022-07-18T06:26:02Z</time>
      </trkpt>
      <trkpt lat="44.74346" lon="6.83027">
        <ele>1572.6</ele>
        <time>2022-07-18T06:26:03Z</time>
      </trkpt>
      <trkpt lat="44.74344" lon="6.83027">
        <ele>1572.8</ele>
        <time>2022-07-18T06:26:04Z</time>
      </trkpt>
      <trkpt lat="44.74341" lon="6.83027">
        <ele>1573</ele>
        <time>2022-07-18T06:26:05Z</time>
      </trkpt>
      <trkpt lat="44.74339" lon="6.83027">
        <ele>1573.4</ele>
        <time>2022-07-18T06:26:06Z</time>
      </trkpt>
      <trkpt lat="44.74337" lon="6.83026">
        <ele>1573.6</ele>
        <time>2022-07-18T06:26:07Z</time>
      </trkpt>
      <trkpt lat="44.74335" lon="6.83026">
        <ele>1573.6</ele>
        <time>2022-07-18T06:26:08Z</time>
      </trkpt>
      <trkpt lat="44.74332" lon="6.83026">
        <ele>1573.8</ele>
        <time>2022-07-18T06:26:09Z</time>
      </trkpt>
      <trkpt lat="44.7433" lon="6.83027">
        <ele>1573.8</ele>
        <time>2022-07-18T06:26:10Z</time>
      </trkpt>
      <trkpt lat="44.74328" lon="6.83027">
        <ele>1574.2</ele>
        <time>2022-07-18T06:26:11Z</time>
      </trkpt>
      <trkpt lat="44.74326" lon="6.83027">
        <ele>1574.2</ele>
        <time>2022-07-18T06:26:12Z</time>
      </trkpt>
      <trkpt lat="44.74324" lon="6.83028">
        <ele>1574.6</ele>
        <time>2022-07-18T06:26:13Z</time>
      </trkpt>
      <trkpt lat="44.74322" lon="6.83028">
        <ele>1574.6</ele>
        <time>2022-07-18T06:26:14Z</time>
      </trkpt>
      <trkpt lat="44.74319" lon="6.83029">
        <ele>1575</ele>
        <time>2022-07-18T06:26:15Z</time>
      </trkpt>
      <trkpt lat="44.74317" lon="6.83029">
        <ele>1575</ele>
        <time>2022-07-18T06:26:16Z</time>
      </trkpt>
      <trkpt lat="44.74315" lon="6.8303">
        <ele>1575.2</ele>
        <time>2022-07-18T06:26:17Z</time>
      </trkpt>
      <trkpt lat="44.74313" lon="6.83031">
        <ele>1575.2</ele>
        <time>2022-07-18T06:26:18Z</time>
      </trkpt>
      <trkpt lat="44.74311" lon="6.83031">
        <ele>1575.6</ele>
        <time>2022-07-18T06:26:19Z</time>
      </trkpt>
      <trkpt lat="44.74309" lon="6.83032">
        <ele>1575.8</ele>
        <time>2022-07-18T06:26:20Z</time>
      </trkpt>
      <trkpt lat="44.74307" lon="6.83033">
        <ele>1575.8</ele>
        <time>2022-07-18T06:26:21Z</time>
      </trkpt>
      <trkpt lat="44.74305" lon="6.83034">
        <ele>1576.2</ele>
        <time>2022-07-18T06:26:22Z</time>
      </trkpt>
      <trkpt lat="44.74303" lon="6.83035">
        <ele>1576.4</ele>
        <time>2022-07-18T06:26:23Z</time>
      </trkpt>
      <trkpt lat="44.74301" lon="6.83036">
        <ele>1576.6</ele>
        <time>2022-07-18T06:26:24Z</time>
      </trkpt>
      <trkpt lat="44.74299" lon="6.83036">
        <ele>1576.8</ele>
        <time>2022-07-18T06:26:25Z</time>
      </trkpt>
      <trkpt lat="44.74297" lon="6.83037">
        <ele>1577</ele>
        <time>2022-07-18T06:26:26Z</time>
      </trkpt>
      <trkpt lat="44.74295" lon="6.83038">
        <ele>1577</ele>
        <time>2022-07-18T06:26:27Z</time>
      </trkpt>
      <trkpt lat="44.74293" lon="6.83039">
        <ele>1577.4</ele>
        <time>2022-07-18T06:26:28Z</time>
      </trkpt>
      <trkpt lat="44.74291" lon="6.8304">
        <ele>1577.4</ele>
        <time>2022-07-18T06:26:29Z</time>
      </trkpt>
      <trkpt lat="44.74289" lon="6.83042">
        <ele>1577.8</ele>
        <time>2022-07-18T06:26:30Z</time>
      </trkpt>
      <trkpt lat="44.74287" lon="6.83043">
        <ele>1577.8</ele>
        <time>2022-07-18T06:26:31Z</time>
      </trkpt>
      <trkpt lat="44.74284" lon="6.83044">
        <ele>1578</ele>
        <time>2022-07-18T06:26:32Z</time>
      </trkpt>
      <trkpt lat="44.74282" lon="6.83045">
        <ele>1578</ele>
        <time>2022-07-18T06:26:33Z</time>
      </trkpt>
      <trkpt lat="44.7428" lon="6.83046">
        <ele>1578.4</ele>
        <time>2022-07-18T06:26:34Z</time>
      </trkpt>
      <trkpt lat="44.74278" lon="6.83047">
        <ele>1578.4</ele>
        <time>2022-07-18T06:26:35Z</time>
      </trkpt>
      <trkpt lat="44.74276" lon="6.83048">
        <ele>1578.6</ele>
        <time>2022-07-18T06:26:36Z</time>
      </trkpt>
      <trkpt lat="44.74274" lon="6.83049">
        <ele>1578.6</ele>
        <time>2022-07-18T06:26:37Z</time>
      </trkpt>
      <trkpt lat="44.74271" lon="6.8305">
        <ele>1578.8</ele>
        <time>2022-07-18T06:26:38Z</time>
      </trkpt>
      <trkpt lat="44.74269" lon="6.83051">
        <ele>1578.8</ele>
        <time>2022-07-18T06:26:39Z</time>
      </trkpt>
      <trkpt lat="44.74267" lon="6.83051">
        <ele>1579.2</ele>
        <time>2022-07-18T06:26:40Z</time>
      </trkpt>
      <trkpt lat="44.74265" lon="6.83053">
        <ele>1579.2</ele>
        <time>2022-07-18T06:26:41Z</time>
      </trkpt>
      <trkpt lat="44.74263" lon="6.83054">
        <ele>1579.4</ele>
        <time>2022-07-18T06:26:42Z</time>
      </trkpt>
      <trkpt lat="44.7426" lon="6.83055">
        <ele>1579.4</ele>
        <time>2022-07-18T06:26:43Z</time>
      </trkpt>
      <trkpt lat="44.74258" lon="6.83057">
        <ele>1579.8</ele>
        <time>2022-07-18T06:26:44Z</time>
      </trkpt>
      <trkpt lat="44.74256" lon="6.83057">
        <ele>1579.8</ele>
        <time>2022-07-18T06:26:45Z</time>
      </trkpt>
      <trkpt lat="44.74254" lon="6.83058">
        <ele>1580</ele>
        <time>2022-07-18T06:26:46Z</time>
      </trkpt>
      <trkpt lat="44.74252" lon="6.83059">
        <ele>1580</ele>
        <time>2022-07-18T06:26:47Z</time>
      </trkpt>
      <trkpt lat="44.7425" lon="6.8306">
        <ele>1580.4</ele>
        <time>2022-07-18T06:26:48Z</time>
      </trkpt>
      <trkpt lat="44.74248" lon="6.83061">
        <ele>1580.6</ele>
        <time>2022-07-18T06:26:49Z</time>
      </trkpt>
      <trkpt lat="44.74245" lon="6.83062">
        <ele>1580.6</ele>
        <time>2022-07-18T06:26:50Z</time>
      </trkpt>
      <trkpt lat="44.74243" lon="6.83063">
        <ele>1581</ele>
        <time>2022-07-18T06:26:51Z</time>
      </trkpt>
      <trkpt lat="44.7424" lon="6.83064">
        <ele>1581</ele>
        <time>2022-07-18T06:26:52Z</time>
      </trkpt>
      <trkpt lat="44.74238" lon="6.83064">
        <ele>1581.4</ele>
        <time>2022-07-18T06:26:53Z</time>
      </trkpt>
      <trkpt lat="44.74236" lon="6.83064">
        <ele>1581.8</ele>
        <time>2022-07-18T06:26:54Z</time>
      </trkpt>
      <trkpt lat="44.74234" lon="6.83065">
        <ele>1581.8</ele>
        <time>2022-07-18T06:26:55Z</time>
      </trkpt>
      <trkpt lat="44.74232" lon="6.83065">
        <ele>1582</ele>
        <time>2022-07-18T06:26:56Z</time>
      </trkpt>
      <trkpt lat="44.7423" lon="6.83066">
        <ele>1582.2</ele>
        <time>2022-07-18T06:26:57Z</time>
      </trkpt>
      <trkpt lat="44.74228" lon="6.83066">
        <ele>1582.2</ele>
        <time>2022-07-18T06:26:58Z</time>
      </trkpt>
      <trkpt lat="44.74225" lon="6.83067">
        <ele>1582.4</ele>
        <time>2022-07-18T06:26:59Z</time>
      </trkpt>
      <trkpt lat="44.74223" lon="6.83067">
        <ele>1582.4</ele>
        <time>2022-07-18T06:27:00Z</time>
      </trkpt>
      <trkpt lat="44.7422" lon="6.83068">
        <ele>1582.8</ele>
        <time>2022-07-18T06:27:01Z</time>
      </trkpt>
      <trkpt lat="44.74217" lon="6.83068">
        <ele>1582.8</ele>
        <time>2022-07-18T06:27:02Z</time>
      </trkpt>
      <trkpt lat="44.74215" lon="6.83069">
        <ele>1583.2</ele>
        <time>2022-07-18T06:27:03Z</time>
      </trkpt>
      <trkpt lat="44.74212" lon="6.8307">
        <ele>1583.4</ele>
        <time>2022-07-18T06:27:04Z</time>
      </trkpt>
      <trkpt lat="44.74209" lon="6.83071">
        <ele>1583.6</ele>
        <time>2022-07-18T06:27:05Z</time>
      </trkpt>
      <trkpt lat="44.74207" lon="6.83072">
        <ele>1583.6</ele>
        <time>2022-07-18T06:27:06Z</time>
      </trkpt>
      <trkpt lat="44.74204" lon="6.83072">
        <ele>1583.8</ele>
        <time>2022-07-18T06:27:07Z</time>
      </trkpt>
      <trkpt lat="44.74202" lon="6.83073">
        <ele>1583.8</ele>
        <time>2022-07-18T06:27:08Z</time>
      </trkpt>
      <trkpt lat="44.74199" lon="6.83073">
        <ele>1584.2</ele>
        <time>2022-07-18T06:27:09Z</time>
      </trkpt>
      <trkpt lat="44.74197" lon="6.83074">
        <ele>1584.2</ele>
        <time>2022-07-18T06:27:10Z</time>
      </trkpt>
      <trkpt lat="44.74194" lon="6.83074">
        <ele>1584.6</ele>
        <time>2022-07-18T06:27:11Z</time>
      </trkpt>
      <trkpt lat="44.74192" lon="6.83075">
        <ele>1584.6</ele>
        <time>2022-07-18T06:27:12Z</time>
      </trkpt>
      <trkpt lat="44.74189" lon="6.83076">
        <ele>1585</ele>
        <time>2022-07-18T06:27:13Z</time>
      </trkpt>
      <trkpt lat="44.74186" lon="6.83076">
        <ele>1585.2</ele>
        <time>2022-07-18T06:27:14Z</time>
      </trkpt>
      <trkpt lat="44.74184" lon="6.83076">
        <ele>1585.2</ele>
        <time>2022-07-18T06:27:15Z</time>
      </trkpt>
      <trkpt lat="44.74181" lon="6.83077">
        <ele>1585.4</ele>
        <time>2022-07-18T06:27:16Z</time>
      </trkpt>
      <trkpt lat="44.74179" lon="6.83077">
        <ele>1585.8</ele>
        <time>2022-07-18T06:27:17Z</time>
      </trkpt>
      <trkpt lat="44.74176" lon="6.83078">
        <ele>1585.8</ele>
        <time>2022-07-18T06:27:18Z</time>
      </trkpt>
      <trkpt lat="44.74174" lon="6.83078">
        <ele>1586</ele>
        <time>2022-07-18T06:27:19Z</time>
      </trkpt>
      <trkpt lat="44.74171" lon="6.83079">
        <ele>1586</ele>
        <time>2022-07-18T06:27:20Z</time>
      </trkpt>
      <trkpt lat="44.74169" lon="6.8308">
        <ele>1586.4</ele>
        <time>2022-07-18T06:27:21Z</time>
      </trkpt>
      <trkpt lat="44.74166" lon="6.8308">
        <ele>1586.4</ele>
        <time>2022-07-18T06:27:22Z</time>
      </trkpt>
      <trkpt lat="44.74164" lon="6.83081">
        <ele>1586.6</ele>
        <time>2022-07-18T06:27:23Z</time>
      </trkpt>
      <trkpt lat="44.74161" lon="6.83081">
        <ele>1586.6</ele>
        <time>2022-07-18T06:27:24Z</time>
      </trkpt>
      <trkpt lat="44.74159" lon="6.83082">
        <ele>1586.8</ele>
        <time>2022-07-18T06:27:25Z</time>
      </trkpt>
      <trkpt lat="44.74156" lon="6.83082">
        <ele>1586.8</ele>
        <time>2022-07-18T06:27:26Z</time>
      </trkpt>
      <trkpt lat="44.74154" lon="6.83083">
        <ele>1587.2</ele>
        <time>2022-07-18T06:27:27Z</time>
      </trkpt>
      <trkpt lat="44.74151" lon="6.83084">
        <ele>1587.2</ele>
        <time>2022-07-18T06:27:28Z</time>
      </trkpt>
      <trkpt lat="44.74149" lon="6.83084">
        <ele>1587.4</ele>
        <time>2022-07-18T06:27:29Z</time>
      </trkpt>
      <trkpt lat="44.74146" lon="6.83085">
        <ele>1587.4</ele>
        <time>2022-07-18T06:27:30Z</time>
      </trkpt>
      <trkpt lat="44.74144" lon="6.83085">
        <ele>1587.8</ele>
        <time>2022-07-18T06:27:31Z</time>
      </trkpt>
      <trkpt lat="44.74142" lon="6.83086">
        <ele>1588</ele>
        <time>2022-07-18T06:27:32Z</time>
      </trkpt>
      <trkpt lat="44.74139" lon="6.83086">
        <ele>1588.2</ele>
        <time>2022-07-18T06:27:33Z</time>
      </trkpt>
      <trkpt lat="44.74137" lon="6.83086">
        <ele>1588.2</ele>
        <time>2022-07-18T06:27:34Z</time>
      </trkpt>
      <trkpt lat="44.74134" lon="6.83087">
        <ele>1588.4</ele>
        <time>2022-07-18T06:27:35Z</time>
      </trkpt>
      <trkpt lat="44.74132" lon="6.83087">
        <ele>1588.4</ele>
        <time>2022-07-18T06:27:36Z</time>
      </trkpt>
      <trkpt lat="44.7413" lon="6.83088">
        <ele>1588.6</ele>
        <time>2022-07-18T06:27:37Z</time>
      </trkpt>
      <trkpt lat="44.74127" lon="6.83088">
        <ele>1589</ele>
        <time>2022-07-18T06:27:38Z</time>
      </trkpt>
      <trkpt lat="44.74125" lon="6.83088">
        <ele>1589</ele>
        <time>2022-07-18T06:27:39Z</time>
      </trkpt>
      <trkpt lat="44.74122" lon="6.83088">
        <ele>1589.2</ele>
        <time>2022-07-18T06:27:40Z</time>
      </trkpt>
      <trkpt lat="44.7412" lon="6.83088">
        <ele>1589.2</ele>
        <time>2022-07-18T06:27:41Z</time>
      </trkpt>
      <trkpt lat="44.74117" lon="6.83089">
        <ele>1589.2</ele>
        <time>2022-07-18T06:27:42Z</time>
      </trkpt>
      <trkpt lat="44.74115" lon="6.83089">
        <ele>1589.6</ele>
        <time>2022-07-18T06:27:43Z</time>
      </trkpt>
      <trkpt lat="44.74112" lon="6.83089">
        <ele>1589.6</ele>
        <time>2022-07-18T06:27:44Z</time>
      </trkpt>
      <trkpt lat="44.7411" lon="6.83089">
        <ele>1590</ele>
        <time>2022-07-18T06:27:45Z</time>
      </trkpt>
      <trkpt lat="44.74107" lon="6.83089">
        <ele>1590</ele>
        <time>2022-07-18T06:27:46Z</time>
      </trkpt>
      <trkpt lat="44.74105" lon="6.83089">
        <ele>1590.4</ele>
        <time>2022-07-18T06:27:47Z</time>
      </trkpt>
      <trkpt lat="44.74103" lon="6.83089">
        <ele>1590.4</ele>
        <time>2022-07-18T06:27:48Z</time>
      </trkpt>
      <trkpt lat="44.741" lon="6.83089">
        <ele>1590.8</ele>
        <time>2022-07-18T06:27:49Z</time>
      </trkpt>
      <trkpt lat="44.74098" lon="6.83089">
        <ele>1590.8</ele>
        <time>2022-07-18T06:27:50Z</time>
      </trkpt>
      <trkpt lat="44.74095" lon="6.83089">
        <ele>1591</ele>
        <time>2022-07-18T06:27:51Z</time>
      </trkpt>
      <trkpt lat="44.74093" lon="6.83089">
        <ele>1591</ele>
        <time>2022-07-18T06:27:52Z</time>
      </trkpt>
      <trkpt lat="44.74091" lon="6.83089">
        <ele>1591.4</ele>
        <time>2022-07-18T06:27:53Z</time>
      </trkpt>
      <trkpt lat="44.74089" lon="6.83088">
        <ele>1591.4</ele>
        <time>2022-07-18T06:27:54Z</time>
      </trkpt>
      <trkpt lat="44.74086" lon="6.83088">
        <ele>1591.6</ele>
        <time>2022-07-18T06:27:55Z</time>
      </trkpt>
      <trkpt lat="44.74084" lon="6.83088">
        <ele>1591.6</ele>
        <time>2022-07-18T06:27:56Z</time>
      </trkpt>
      <trkpt lat="44.74082" lon="6.83088">
        <ele>1592</ele>
        <time>2022-07-18T06:27:57Z</time>
      </trkpt>
      <trkpt lat="44.7408" lon="6.83088">
        <ele>1592</ele>
        <time>2022-07-18T06:27:58Z</time>
      </trkpt>
      <trkpt lat="44.74077" lon="6.83088">
        <ele>1592.4</ele>
        <time>2022-07-18T06:27:59Z</time>
      </trkpt>
      <trkpt lat="44.74075" lon="6.83088">
        <ele>1592.4</ele>
        <time>2022-07-18T06:28:00Z</time>
      </trkpt>
      <trkpt lat="44.74073" lon="6.83088">
        <ele>1592.6</ele>
        <time>2022-07-18T06:28:01Z</time>
      </trkpt>
      <trkpt lat="44.74071" lon="6.83088">
        <ele>1593</ele>
        <time>2022-07-18T06:28:02Z</time>
      </trkpt>
      <trkpt lat="44.74068" lon="6.83089">
        <ele>1593.2</ele>
        <time>2022-07-18T06:28:03Z</time>
      </trkpt>
      <trkpt lat="44.74066" lon="6.83089">
        <ele>1593.2</ele>
        <time>2022-07-18T06:28:04Z</time>
      </trkpt>
      <trkpt lat="44.74064" lon="6.8309">
        <ele>1593.6</ele>
        <time>2022-07-18T06:28:05Z</time>
      </trkpt>
      <trkpt lat="44.74061" lon="6.83091">
        <ele>1593.8</ele>
        <time>2022-07-18T06:28:06Z</time>
      </trkpt>
      <trkpt lat="44.74059" lon="6.83092">
        <ele>1594.2</ele>
        <time>2022-07-18T06:28:07Z</time>
      </trkpt>
      <trkpt lat="44.74057" lon="6.83093">
        <ele>1594.4</ele>
        <time>2022-07-18T06:28:08Z</time>
      </trkpt>
      <trkpt lat="44.74055" lon="6.83094">
        <ele>1594.6</ele>
        <time>2022-07-18T06:28:09Z</time>
      </trkpt>
      <trkpt lat="44.74052" lon="6.83095">
        <ele>1594.8</ele>
        <time>2022-07-18T06:28:10Z</time>
      </trkpt>
      <trkpt lat="44.7405" lon="6.83096">
        <ele>1594.8</ele>
        <time>2022-07-18T06:28:11Z</time>
      </trkpt>
      <trkpt lat="44.74049" lon="6.83097">
        <ele>1595.2</ele>
        <time>2022-07-18T06:28:12Z</time>
      </trkpt>
      <trkpt lat="44.74047" lon="6.83098">
        <ele>1595.2</ele>
        <time>2022-07-18T06:28:13Z</time>
      </trkpt>
      <trkpt lat="44.74045" lon="6.831">
        <ele>1595.6</ele>
        <time>2022-07-18T06:28:14Z</time>
      </trkpt>
      <trkpt lat="44.74043" lon="6.83101">
        <ele>1595.8</ele>
        <time>2022-07-18T06:28:15Z</time>
      </trkpt>
      <trkpt lat="44.74041" lon="6.83103">
        <ele>1595.8</ele>
        <time>2022-07-18T06:28:16Z</time>
      </trkpt>
      <trkpt lat="44.74039" lon="6.83105">
        <ele>1596.2</ele>
        <time>2022-07-18T06:28:17Z</time>
      </trkpt>
      <trkpt lat="44.74037" lon="6.83107">
        <ele>1596.2</ele>
        <time>2022-07-18T06:28:18Z</time>
      </trkpt>
      <trkpt lat="44.74035" lon="6.83109">
        <ele>1596.4</ele>
        <time>2022-07-18T06:28:19Z</time>
      </trkpt>
      <trkpt lat="44.74033" lon="6.83111">
        <ele>1596.6</ele>
        <time>2022-07-18T06:28:20Z</time>
      </trkpt>
      <trkpt lat="44.74031" lon="6.83114">
        <ele>1596.6</ele>
        <time>2022-07-18T06:28:21Z</time>
      </trkpt>
      <trkpt lat="44.7403" lon="6.83116">
        <ele>1596.8</ele>
        <time>2022-07-18T06:28:22Z</time>
      </trkpt>
      <trkpt lat="44.74028" lon="6.83118">
        <ele>1597</ele>
        <time>2022-07-18T06:28:23Z</time>
      </trkpt>
      <trkpt lat="44.74026" lon="6.83121">
        <ele>1597.4</ele>
        <time>2022-07-18T06:28:24Z</time>
      </trkpt>
      <trkpt lat="44.74025" lon="6.83123">
        <ele>1597.4</ele>
        <time>2022-07-18T06:28:25Z</time>
      </trkpt>
      <trkpt lat="44.74023" lon="6.83125">
        <ele>1597.6</ele>
        <time>2022-07-18T06:28:26Z</time>
      </trkpt>
      <trkpt lat="44.74021" lon="6.83128">
        <ele>1597.6</ele>
        <time>2022-07-18T06:28:27Z</time>
      </trkpt>
      <trkpt lat="44.7402" lon="6.8313">
        <ele>1598</ele>
        <time>2022-07-18T06:28:28Z</time>
      </trkpt>
      <trkpt lat="44.74018" lon="6.83132">
        <ele>1598.2</ele>
        <time>2022-07-18T06:28:29Z</time>
      </trkpt>
      <trkpt lat="44.74017" lon="6.83134">
        <ele>1598.2</ele>
        <time>2022-07-18T06:28:30Z</time>
      </trkpt>
      <trkpt lat="44.74015" lon="6.83136">
        <ele>1598.4</ele>
        <time>2022-07-18T06:28:31Z</time>
      </trkpt>
      <trkpt lat="44.74014" lon="6.83139">
        <ele>1598.8</ele>
        <time>2022-07-18T06:28:32Z</time>
      </trkpt>
      <trkpt lat="44.74012" lon="6.83141">
        <ele>1598.8</ele>
        <time>2022-07-18T06:28:33Z</time>
      </trkpt>
      <trkpt lat="44.74011" lon="6.83143">
        <ele>1599</ele>
        <time>2022-07-18T06:28:34Z</time>
      </trkpt>
      <trkpt lat="44.74009" lon="6.83145">
        <ele>1599</ele>
        <time>2022-07-18T06:28:35Z</time>
      </trkpt>
      <trkpt lat="44.74008" lon="6.83147">
        <ele>1599.4</ele>
        <time>2022-07-18T06:28:36Z</time>
      </trkpt>
      <trkpt lat="44.74006" lon="6.83149">
        <ele>1599.4</ele>
        <time>2022-07-18T06:28:37Z</time>
      </trkpt>
      <trkpt lat="44.74005" lon="6.8315">
        <ele>1599.8</ele>
        <time>2022-07-18T06:28:38Z</time>
      </trkpt>
      <trkpt lat="44.74003" lon="6.83152">
        <ele>1599.8</ele>
        <time>2022-07-18T06:28:39Z</time>
      </trkpt>
      <trkpt lat="44.74002" lon="6.83154">
        <ele>1600.2</ele>
        <time>2022-07-18T06:28:40Z</time>
      </trkpt>
      <trkpt lat="44.74" lon="6.83156">
        <ele>1600.2</ele>
        <time>2022-07-18T06:28:41Z</time>
      </trkpt>
      <trkpt lat="44.73999" lon="6.83158">
        <ele>1600.4</ele>
        <time>2022-07-18T06:28:42Z</time>
      </trkpt>
      <trkpt lat="44.73998" lon="6.83159">
        <ele>1600.4</ele>
        <time>2022-07-18T06:28:43Z</time>
      </trkpt>
      <trkpt lat="44.73996" lon="6.83161">
        <ele>1600.8</ele>
        <time>2022-07-18T06:28:44Z</time>
      </trkpt>
      <trkpt lat="44.73995" lon="6.83162">
        <ele>1600.8</ele>
        <time>2022-07-18T06:28:45Z</time>
      </trkpt>
      <trkpt lat="44.73993" lon="6.83164">
        <ele>1601</ele>
        <time>2022-07-18T06:28:46Z</time>
      </trkpt>
      <trkpt lat="44.73991" lon="6.83165">
        <ele>1601</ele>
        <time>2022-07-18T06:28:47Z</time>
      </trkpt>
      <trkpt lat="44.7399" lon="6.83167">
        <ele>1601.4</ele>
        <time>2022-07-18T06:28:48Z</time>
      </trkpt>
      <trkpt lat="44.73989" lon="6.83168">
        <ele>1601.4</ele>
        <time>2022-07-18T06:28:49Z</time>
      </trkpt>
      <trkpt lat="44.73987" lon="6.8317">
        <ele>1601.8</ele>
        <time>2022-07-18T06:28:50Z</time>
      </trkpt>
      <trkpt lat="44.73986" lon="6.83171">
        <ele>1602</ele>
        <time>2022-07-18T06:28:51Z</time>
      </trkpt>
      <trkpt lat="44.73984" lon="6.83173">
        <ele>1602</ele>
        <time>2022-07-18T06:28:52Z</time>
      </trkpt>
      <trkpt lat="44.73983" lon="6.83174">
        <ele>1602.4</ele>
        <time>2022-07-18T06:28:53Z</time>
      </trkpt>
      <trkpt lat="44.73981" lon="6.83176">
        <ele>1602.6</ele>
        <time>2022-07-18T06:28:54Z</time>
      </trkpt>
      <trkpt lat="44.73979" lon="6.83178">
        <ele>1602.6</ele>
        <time>2022-07-18T06:28:55Z</time>
      </trkpt>
      <trkpt lat="44.73978" lon="6.83179">
        <ele>1603</ele>
        <time>2022-07-18T06:28:56Z</time>
      </trkpt>
      <trkpt lat="44.73976" lon="6.8318">
        <ele>1603</ele>
        <time>2022-07-18T06:28:57Z</time>
      </trkpt>
      <trkpt lat="44.73975" lon="6.83181">
        <ele>1603.4</ele>
        <time>2022-07-18T06:28:58Z</time>
      </trkpt>
      <trkpt lat="44.73973" lon="6.83182">
        <ele>1603.4</ele>
        <time>2022-07-18T06:28:59Z</time>
      </trkpt>
      <trkpt lat="44.73971" lon="6.83184">
        <ele>1603.8</ele>
        <time>2022-07-18T06:29:00Z</time>
      </trkpt>
      <trkpt lat="44.7397" lon="6.83185">
        <ele>1604</ele>
        <time>2022-07-18T06:29:01Z</time>
      </trkpt>
      <trkpt lat="44.73968" lon="6.83187">
        <ele>1604</ele>
        <time>2022-07-18T06:29:02Z</time>
      </trkpt>
      <trkpt lat="44.73966" lon="6.83189">
        <ele>1604.4</ele>
        <time>2022-07-18T06:29:03Z</time>
      </trkpt>
      <trkpt lat="44.73965" lon="6.8319">
        <ele>1604.6</ele>
        <time>2022-07-18T06:29:04Z</time>
      </trkpt>
      <trkpt lat="44.73963" lon="6.83192">
        <ele>1604.6</ele>
        <time>2022-07-18T06:29:05Z</time>
      </trkpt>
      <trkpt lat="44.73961" lon="6.83193">
        <ele>1605</ele>
        <time>2022-07-18T06:29:06Z</time>
      </trkpt>
      <trkpt lat="44.73959" lon="6.83194">
        <ele>1605</ele>
        <time>2022-07-18T06:29:07Z</time>
      </trkpt>
      <trkpt lat="44.73957" lon="6.83195">
        <ele>1605.4</ele>
        <time>2022-07-18T06:29:08Z</time>
      </trkpt>
      <trkpt lat="44.73956" lon="6.83196">
        <ele>1605.4</ele>
        <time>2022-07-18T06:29:09Z</time>
      </trkpt>
      <trkpt lat="44.73954" lon="6.83197">
        <ele>1605.6</ele>
        <time>2022-07-18T06:29:10Z</time>
      </trkpt>
      <trkpt lat="44.73953" lon="6.83198">
        <ele>1605.6</ele>
        <time>2022-07-18T06:29:11Z</time>
      </trkpt>
      <trkpt lat="44.73951" lon="6.832">
        <ele>1606</ele>
        <time>2022-07-18T06:29:12Z</time>
      </trkpt>
      <trkpt lat="44.73949" lon="6.83201">
        <ele>1606</ele>
        <time>2022-07-18T06:29:13Z</time>
      </trkpt>
      <trkpt lat="44.73947" lon="6.83202">
        <ele>1606.2</ele>
        <time>2022-07-18T06:29:14Z</time>
      </trkpt>
      <trkpt lat="44.73945" lon="6.83203">
        <ele>1606.4</ele>
        <time>2022-07-18T06:29:15Z</time>
      </trkpt>
      <trkpt lat="44.73943" lon="6.83204">
        <ele>1606.6</ele>
        <time>2022-07-18T06:29:16Z</time>
      </trkpt>
      <trkpt lat="44.73942" lon="6.83205">
        <ele>1606.8</ele>
        <time>2022-07-18T06:29:17Z</time>
      </trkpt>
      <trkpt lat="44.7394" lon="6.83206">
        <ele>1606.8</ele>
        <time>2022-07-18T06:29:18Z</time>
      </trkpt>
      <trkpt lat="44.73938" lon="6.83206">
        <ele>1607.2</ele>
        <time>2022-07-18T06:29:19Z</time>
      </trkpt>
      <trkpt lat="44.73936" lon="6.83207">
        <ele>1607.2</ele>
        <time>2022-07-18T06:29:20Z</time>
      </trkpt>
      <trkpt lat="44.73934" lon="6.83207">
        <ele>1607.6</ele>
        <time>2022-07-18T06:29:21Z</time>
      </trkpt>
      <trkpt lat="44.73932" lon="6.83208">
        <ele>1607.6</ele>
        <time>2022-07-18T06:29:22Z</time>
      </trkpt>
      <trkpt lat="44.7393" lon="6.83208">
        <ele>1608</ele>
        <time>2022-07-18T06:29:23Z</time>
      </trkpt>
      <trkpt lat="44.73927" lon="6.83208">
        <ele>1608</ele>
        <time>2022-07-18T06:29:24Z</time>
      </trkpt>
      <trkpt lat="44.73925" lon="6.83208">
        <ele>1608.4</ele>
        <time>2022-07-18T06:29:25Z</time>
      </trkpt>
      <trkpt lat="44.73923" lon="6.83208">
        <ele>1608.4</ele>
        <time>2022-07-18T06:29:26Z</time>
      </trkpt>
      <trkpt lat="44.73921" lon="6.83208">
        <ele>1608.8</ele>
        <time>2022-07-18T06:29:27Z</time>
      </trkpt>
      <trkpt lat="44.73919" lon="6.83208">
        <ele>1609</ele>
        <time>2022-07-18T06:29:28Z</time>
      </trkpt>
      <trkpt lat="44.73917" lon="6.83208">
        <ele>1609.2</ele>
        <time>2022-07-18T06:29:29Z</time>
      </trkpt>
      <trkpt lat="44.73915" lon="6.83208">
        <ele>1609.4</ele>
        <time>2022-07-18T06:29:30Z</time>
      </trkpt>
      <trkpt lat="44.73913" lon="6.83208">
        <ele>1609.4</ele>
        <time>2022-07-18T06:29:31Z</time>
      </trkpt>
      <trkpt lat="44.73911" lon="6.83208">
        <ele>1609.6</ele>
        <time>2022-07-18T06:29:32Z</time>
      </trkpt>
      <trkpt lat="44.73909" lon="6.83209">
        <ele>1609.6</ele>
        <time>2022-07-18T06:29:33Z</time>
      </trkpt>
      <trkpt lat="44.73907" lon="6.83209">
        <ele>1610</ele>
        <time>2022-07-18T06:29:34Z</time>
      </trkpt>
      <trkpt lat="44.73905" lon="6.83209">
        <ele>1610.2</ele>
        <time>2022-07-18T06:29:35Z</time>
      </trkpt>
      <trkpt lat="44.73903" lon="6.83209">
        <ele>1610.2</ele>
        <time>2022-07-18T06:29:36Z</time>
      </trkpt>
      <trkpt lat="44.73901" lon="6.83209">
        <ele>1610.8</ele>
        <time>2022-07-18T06:29:37Z</time>
      </trkpt>
      <trkpt lat="44.73899" lon="6.83209">
        <ele>1611</ele>
        <time>2022-07-18T06:29:38Z</time>
      </trkpt>
      <trkpt lat="44.73897" lon="6.83209">
        <ele>1611.2</ele>
        <time>2022-07-18T06:29:39Z</time>
      </trkpt>
      <trkpt lat="44.73895" lon="6.83209">
        <ele>1611.6</ele>
        <time>2022-07-18T06:29:40Z</time>
      </trkpt>
      <trkpt lat="44.73893" lon="6.83209">
        <ele>1611.8</ele>
        <time>2022-07-18T06:29:41Z</time>
      </trkpt>
      <trkpt lat="44.73891" lon="6.83209">
        <ele>1612</ele>
        <time>2022-07-18T06:29:42Z</time>
      </trkpt>
      <trkpt lat="44.73889" lon="6.8321">
        <ele>1612</ele>
        <time>2022-07-18T06:29:43Z</time>
      </trkpt>
      <trkpt lat="44.73887" lon="6.8321">
        <ele>1612.4</ele>
        <time>2022-07-18T06:29:44Z</time>
      </trkpt>
      <trkpt lat="44.73885" lon="6.8321">
        <ele>1612.6</ele>
        <time>2022-07-18T06:29:45Z</time>
      </trkpt>
      <trkpt lat="44.73883" lon="6.83211">
        <ele>1612.8</ele>
        <time>2022-07-18T06:29:46Z</time>
      </trkpt>
      <trkpt lat="44.73881" lon="6.83211">
        <ele>1613</ele>
        <time>2022-07-18T06:29:47Z</time>
      </trkpt>
      <trkpt lat="44.73879" lon="6.83212">
        <ele>1613</ele>
        <time>2022-07-18T06:29:48Z</time>
      </trkpt>
      <trkpt lat="44.73877" lon="6.83213">
        <ele>1613.4</ele>
        <time>2022-07-18T06:29:49Z</time>
      </trkpt>
      <trkpt lat="44.73875" lon="6.83214">
        <ele>1613.4</ele>
        <time>2022-07-18T06:29:50Z</time>
      </trkpt>
      <trkpt lat="44.73873" lon="6.83214">
        <ele>1613.6</ele>
        <time>2022-07-18T06:29:51Z</time>
      </trkpt>
      <trkpt lat="44.73871" lon="6.83216">
        <ele>1613.6</ele>
        <time>2022-07-18T06:29:52Z</time>
      </trkpt>
      <trkpt lat="44.73869" lon="6.83217">
        <ele>1614</ele>
        <time>2022-07-18T06:29:53Z</time>
      </trkpt>
      <trkpt lat="44.73868" lon="6.83219">
        <ele>1614</ele>
        <time>2022-07-18T06:29:54Z</time>
      </trkpt>
      <trkpt lat="44.73866" lon="6.8322">
        <ele>1614.2</ele>
        <time>2022-07-18T06:29:55Z</time>
      </trkpt>
      <trkpt lat="44.73864" lon="6.83222">
        <ele>1614.4</ele>
        <time>2022-07-18T06:29:56Z</time>
      </trkpt>
      <trkpt lat="44.73863" lon="6.83224">
        <ele>1614.8</ele>
        <time>2022-07-18T06:29:57Z</time>
      </trkpt>
      <trkpt lat="44.73861" lon="6.83226">
        <ele>1615</ele>
        <time>2022-07-18T06:29:58Z</time>
      </trkpt>
      <trkpt lat="44.7386" lon="6.83228">
        <ele>1615.2</ele>
        <time>2022-07-18T06:29:59Z</time>
      </trkpt>
      <trkpt lat="44.73858" lon="6.8323">
        <ele>1615.2</ele>
        <time>2022-07-18T06:30:00Z</time>
      </trkpt>
      <trkpt lat="44.73856" lon="6.83232">
        <ele>1615.6</ele>
        <time>2022-07-18T06:30:01Z</time>
      </trkpt>
      <trkpt lat="44.73855" lon="6.83234">
        <ele>1615.6</ele>
        <time>2022-07-18T06:30:02Z</time>
      </trkpt>
      <trkpt lat="44.73853" lon="6.83236">
        <ele>1615.8</ele>
        <time>2022-07-18T06:30:03Z</time>
      </trkpt>
      <trkpt lat="44.73851" lon="6.83238">
        <ele>1615.8</ele>
        <time>2022-07-18T06:30:04Z</time>
      </trkpt>
      <trkpt lat="44.7385" lon="6.8324">
        <ele>1616.2</ele>
        <time>2022-07-18T06:30:05Z</time>
      </trkpt>
      <trkpt lat="44.73848" lon="6.83242">
        <ele>1616.4</ele>
        <time>2022-07-18T06:30:06Z</time>
      </trkpt>
      <trkpt lat="44.73847" lon="6.83245">
        <ele>1616.8</ele>
        <time>2022-07-18T06:30:07Z</time>
      </trkpt>
      <trkpt lat="44.73845" lon="6.83247">
        <ele>1617</ele>
        <time>2022-07-18T06:30:08Z</time>
      </trkpt>
      <trkpt lat="44.73844" lon="6.8325">
        <ele>1617</ele>
        <time>2022-07-18T06:30:09Z</time>
      </trkpt>
      <trkpt lat="44.73843" lon="6.83253">
        <ele>1617.2</ele>
        <time>2022-07-18T06:30:10Z</time>
      </trkpt>
      <trkpt lat="44.73841" lon="6.83255">
        <ele>1617.2</ele>
        <time>2022-07-18T06:30:11Z</time>
      </trkpt>
      <trkpt lat="44.7384" lon="6.83258">
        <ele>1617.6</ele>
        <time>2022-07-18T06:30:12Z</time>
      </trkpt>
      <trkpt lat="44.73839" lon="6.83261">
        <ele>1617.6</ele>
        <time>2022-07-18T06:30:13Z</time>
      </trkpt>
      <trkpt lat="44.73837" lon="6.83263">
        <ele>1618</ele>
        <time>2022-07-18T06:30:14Z</time>
      </trkpt>
      <trkpt lat="44.73836" lon="6.83266">
        <ele>1618</ele>
        <time>2022-07-18T06:30:15Z</time>
      </trkpt>
      <trkpt lat="44.73835" lon="6.83268">
        <ele>1618.4</ele>
        <time>2022-07-18T06:30:16Z</time>
      </trkpt>
      <trkpt lat="44.73833" lon="6.8327">
        <ele>1618.6</ele>
        <time>2022-07-18T06:30:17Z</time>
      </trkpt>
      <trkpt lat="44.73832" lon="6.83273">
        <ele>1618.6</ele>
        <time>2022-07-18T06:30:18Z</time>
      </trkpt>
      <trkpt lat="44.73831" lon="6.83275">
        <ele>1619</ele>
        <time>2022-07-18T06:30:19Z</time>
      </trkpt>
      <trkpt lat="44.73829" lon="6.83277">
        <ele>1619</ele>
        <time>2022-07-18T06:30:20Z</time>
      </trkpt>
      <trkpt lat="44.73828" lon="6.83279">
        <ele>1619.2</ele>
        <time>2022-07-18T06:30:21Z</time>
      </trkpt>
      <trkpt lat="44.73827" lon="6.83282">
        <ele>1619.2</ele>
        <time>2022-07-18T06:30:22Z</time>
      </trkpt>
      <trkpt lat="44.73826" lon="6.83284">
        <ele>1619.4</ele>
        <time>2022-07-18T06:30:23Z</time>
      </trkpt>
      <trkpt lat="44.73825" lon="6.83287">
        <ele>1619.4</ele>
        <time>2022-07-18T06:30:24Z</time>
      </trkpt>
      <trkpt lat="44.73824" lon="6.83289">
        <ele>1619.8</ele>
        <time>2022-07-18T06:30:25Z</time>
      </trkpt>
      <trkpt lat="44.73823" lon="6.83291">
        <ele>1619.8</ele>
        <time>2022-07-18T06:30:26Z</time>
      </trkpt>
      <trkpt lat="44.73822" lon="6.83293">
        <ele>1620.2</ele>
        <time>2022-07-18T06:30:27Z</time>
      </trkpt>
      <trkpt lat="44.7382" lon="6.83295">
        <ele>1620.4</ele>
        <time>2022-07-18T06:30:28Z</time>
      </trkpt>
      <trkpt lat="44.73819" lon="6.83297">
        <ele>1620.4</ele>
        <time>2022-07-18T06:30:29Z</time>
      </trkpt>
      <trkpt lat="44.73818" lon="6.83299">
        <ele>1620.8</ele>
        <time>2022-07-18T06:30:30Z</time>
      </trkpt>
      <trkpt lat="44.73816" lon="6.83301">
        <ele>1620.8</ele>
        <time>2022-07-18T06:30:31Z</time>
      </trkpt>
      <trkpt lat="44.73815" lon="6.83303">
        <ele>1621</ele>
        <time>2022-07-18T06:30:32Z</time>
      </trkpt>
      <trkpt lat="44.73814" lon="6.83305">
        <ele>1621</ele>
        <time>2022-07-18T06:30:33Z</time>
      </trkpt>
      <trkpt lat="44.73812" lon="6.83307">
        <ele>1621.2</ele>
        <time>2022-07-18T06:30:34Z</time>
      </trkpt>
      <trkpt lat="44.73811" lon="6.83309">
        <ele>1621.2</ele>
        <time>2022-07-18T06:30:35Z</time>
      </trkpt>
      <trkpt lat="44.73809" lon="6.8331">
        <ele>1621.6</ele>
        <time>2022-07-18T06:30:36Z</time>
      </trkpt>
      <trkpt lat="44.73808" lon="6.83312">
        <ele>1621.6</ele>
        <time>2022-07-18T06:30:37Z</time>
      </trkpt>
      <trkpt lat="44.73806" lon="6.83314">
        <ele>1621.8</ele>
        <time>2022-07-18T06:30:38Z</time>
      </trkpt>
      <trkpt lat="44.73804" lon="6.83316">
        <ele>1621.8</ele>
        <time>2022-07-18T06:30:39Z</time>
      </trkpt>
      <trkpt lat="44.73803" lon="6.83317">
        <ele>1622.2</ele>
        <time>2022-07-18T06:30:40Z</time>
      </trkpt>
      <trkpt lat="44.73801" lon="6.83319">
        <ele>1622.2</ele>
        <time>2022-07-18T06:30:41Z</time>
      </trkpt>
      <trkpt lat="44.738" lon="6.83321">
        <ele>1622.4</ele>
        <time>2022-07-18T06:30:42Z</time>
      </trkpt>
      <trkpt lat="44.73798" lon="6.83322">
        <ele>1622.4</ele>
        <time>2022-07-18T06:30:43Z</time>
      </trkpt>
      <trkpt lat="44.73796" lon="6.83324">
        <ele>1622.8</ele>
        <time>2022-07-18T06:30:44Z</time>
      </trkpt>
      <trkpt lat="44.73794" lon="6.83325">
        <ele>1622.8</ele>
        <time>2022-07-18T06:30:45Z</time>
      </trkpt>
      <trkpt lat="44.73793" lon="6.83327">
        <ele>1623.2</ele>
        <time>2022-07-18T06:30:46Z</time>
      </trkpt>
      <trkpt lat="44.73791" lon="6.83328">
        <ele>1623.2</ele>
        <time>2022-07-18T06:30:47Z</time>
      </trkpt>
      <trkpt lat="44.73789" lon="6.8333">
        <ele>1623.6</ele>
        <time>2022-07-18T06:30:48Z</time>
      </trkpt>
      <trkpt lat="44.73787" lon="6.83331">
        <ele>1623.6</ele>
        <time>2022-07-18T06:30:49Z</time>
      </trkpt>
      <trkpt lat="44.73785" lon="6.83333">
        <ele>1623.8</ele>
        <time>2022-07-18T06:30:50Z</time>
      </trkpt>
      <trkpt lat="44.73783" lon="6.83334">
        <ele>1623.8</ele>
        <time>2022-07-18T06:30:51Z</time>
      </trkpt>
      <trkpt lat="44.73781" lon="6.83335">
        <ele>1624</ele>
        <time>2022-07-18T06:30:52Z</time>
      </trkpt>
      <trkpt lat="44.73779" lon="6.83336">
        <ele>1624</ele>
        <time>2022-07-18T06:30:53Z</time>
      </trkpt>
      <trkpt lat="44.73777" lon="6.83337">
        <ele>1624.4</ele>
        <time>2022-07-18T06:30:54Z</time>
      </trkpt>
      <trkpt lat="44.73775" lon="6.83339">
        <ele>1624.4</ele>
        <time>2022-07-18T06:30:55Z</time>
      </trkpt>
      <trkpt lat="44.73773" lon="6.8334">
        <ele>1624.6</ele>
        <time>2022-07-18T06:30:56Z</time>
      </trkpt>
      <trkpt lat="44.7377" lon="6.83341">
        <ele>1624.6</ele>
        <time>2022-07-18T06:30:57Z</time>
      </trkpt>
      <trkpt lat="44.73768" lon="6.83342">
        <ele>1624.6</ele>
        <time>2022-07-18T06:30:58Z</time>
      </trkpt>
      <trkpt lat="44.73766" lon="6.83343">
        <ele>1624.8</ele>
        <time>2022-07-18T06:30:59Z</time>
      </trkpt>
      <trkpt lat="44.73763" lon="6.83345">
        <ele>1624.8</ele>
        <time>2022-07-18T06:31:00Z</time>
      </trkpt>
      <trkpt lat="44.73761" lon="6.83346">
        <ele>1624.8</ele>
        <time>2022-07-18T06:31:01Z</time>
      </trkpt>
      <trkpt lat="44.73758" lon="6.83347">
        <ele>1625</ele>
        <time>2022-07-18T06:31:02Z</time>
      </trkpt>
      <trkpt lat="44.73755" lon="6.83349">
        <ele>1625</ele>
        <time>2022-07-18T06:31:03Z</time>
      </trkpt>
      <trkpt lat="44.73753" lon="6.8335">
        <ele>1625.2</ele>
        <time>2022-07-18T06:31:04Z</time>
      </trkpt>
      <trkpt lat="44.7375" lon="6.83351">
        <ele>1625.2</ele>
        <time>2022-07-18T06:31:05Z</time>
      </trkpt>
      <trkpt lat="44.73748" lon="6.83352">
        <ele>1625.2</ele>
        <time>2022-07-18T06:31:06Z</time>
      </trkpt>
      <trkpt lat="44.73745" lon="6.83354">
        <ele>1625.6</ele>
        <time>2022-07-18T06:31:07Z</time>
      </trkpt>
      <trkpt lat="44.73743" lon="6.83356">
        <ele>1625.8</ele>
        <time>2022-07-18T06:31:08Z</time>
      </trkpt>
      <trkpt lat="44.7374" lon="6.83357">
        <ele>1625.8</ele>
        <time>2022-07-18T06:31:09Z</time>
      </trkpt>
      <trkpt lat="44.73737" lon="6.83359">
        <ele>1626</ele>
        <time>2022-07-18T06:31:10Z</time>
      </trkpt>
      <trkpt lat="44.73735" lon="6.8336">
        <ele>1626</ele>
        <time>2022-07-18T06:31:11Z</time>
      </trkpt>
      <trkpt lat="44.73732" lon="6.83362">
        <ele>1626.4</ele>
        <time>2022-07-18T06:31:12Z</time>
      </trkpt>
      <trkpt lat="44.73729" lon="6.83364">
        <ele>1626.4</ele>
        <time>2022-07-18T06:31:13Z</time>
      </trkpt>
      <trkpt lat="44.73726" lon="6.83366">
        <ele>1626.6</ele>
        <time>2022-07-18T06:31:14Z</time>
      </trkpt>
      <trkpt lat="44.73723" lon="6.83368">
        <ele>1626.6</ele>
        <time>2022-07-18T06:31:15Z</time>
      </trkpt>
      <trkpt lat="44.7372" lon="6.8337">
        <ele>1627</ele>
        <time>2022-07-18T06:31:16Z</time>
      </trkpt>
      <trkpt lat="44.73717" lon="6.83371">
        <ele>1627</ele>
        <time>2022-07-18T06:31:17Z</time>
      </trkpt>
      <trkpt lat="44.73714" lon="6.83373">
        <ele>1627.2</ele>
        <time>2022-07-18T06:31:18Z</time>
      </trkpt>
      <trkpt lat="44.73711" lon="6.83374">
        <ele>1627.2</ele>
        <time>2022-07-18T06:31:19Z</time>
      </trkpt>
      <trkpt lat="44.73709" lon="6.83376">
        <ele>1627.6</ele>
        <time>2022-07-18T06:31:20Z</time>
      </trkpt>
      <trkpt lat="44.73706" lon="6.83378">
        <ele>1627.6</ele>
        <time>2022-07-18T06:31:21Z</time>
      </trkpt>
      <trkpt lat="44.73703" lon="6.83379">
        <ele>1628</ele>
        <time>2022-07-18T06:31:22Z</time>
      </trkpt>
      <trkpt lat="44.737" lon="6.83381">
        <ele>1628</ele>
        <time>2022-07-18T06:31:23Z</time>
      </trkpt>
      <trkpt lat="44.73697" lon="6.83383">
        <ele>1628.2</ele>
        <time>2022-07-18T06:31:24Z</time>
      </trkpt>
      <trkpt lat="44.73694" lon="6.83384">
        <ele>1628.2</ele>
        <time>2022-07-18T06:31:25Z</time>
      </trkpt>
      <trkpt lat="44.73691" lon="6.83386">
        <ele>1628.2</ele>
        <time>2022-07-18T06:31:26Z</time>
      </trkpt>
      <trkpt lat="44.73689" lon="6.83388">
        <ele>1628.2</ele>
        <time>2022-07-18T06:31:27Z</time>
      </trkpt>
      <trkpt lat="44.73686" lon="6.8339">
        <ele>1628.6</ele>
        <time>2022-07-18T06:31:28Z</time>
      </trkpt>
      <trkpt lat="44.73683" lon="6.83393">
        <ele>1628.6</ele>
        <time>2022-07-18T06:31:29Z</time>
      </trkpt>
      <trkpt lat="44.7368" lon="6.83395">
        <ele>1628.8</ele>
        <time>2022-07-18T06:31:30Z</time>
      </trkpt>
      <trkpt lat="44.73677" lon="6.83398">
        <ele>1628.8</ele>
        <time>2022-07-18T06:31:31Z</time>
      </trkpt>
      <trkpt lat="44.73674" lon="6.834">
        <ele>1629</ele>
        <time>2022-07-18T06:31:32Z</time>
      </trkpt>
      <trkpt lat="44.73671" lon="6.83402">
        <ele>1629</ele>
        <time>2022-07-18T06:31:33Z</time>
      </trkpt>
      <trkpt lat="44.73668" lon="6.83404">
        <ele>1629.2</ele>
        <time>2022-07-18T06:31:34Z</time>
      </trkpt>
      <trkpt lat="44.73665" lon="6.83406">
        <ele>1629.2</ele>
        <time>2022-07-18T06:31:35Z</time>
      </trkpt>
      <trkpt lat="44.73662" lon="6.83409">
        <ele>1629.6</ele>
        <time>2022-07-18T06:31:36Z</time>
      </trkpt>
      <trkpt lat="44.73659" lon="6.83411">
        <ele>1629.6</ele>
        <time>2022-07-18T06:31:37Z</time>
      </trkpt>
      <trkpt lat="44.73656" lon="6.83413">
        <ele>1629.8</ele>
        <time>2022-07-18T06:31:38Z</time>
      </trkpt>
      <trkpt lat="44.73653" lon="6.83415">
        <ele>1629.8</ele>
        <time>2022-07-18T06:31:39Z</time>
      </trkpt>
      <trkpt lat="44.73651" lon="6.83417">
        <ele>1630.2</ele>
        <time>2022-07-18T06:31:40Z</time>
      </trkpt>
      <trkpt lat="44.73648" lon="6.83419">
        <ele>1630.2</ele>
        <time>2022-07-18T06:31:41Z</time>
      </trkpt>
      <trkpt lat="44.73645" lon="6.83421">
        <ele>1630.2</ele>
        <time>2022-07-18T06:31:42Z</time>
      </trkpt>
      <trkpt lat="44.73642" lon="6.83424">
        <ele>1630.4</ele>
        <time>2022-07-18T06:31:43Z</time>
      </trkpt>
      <trkpt lat="44.73639" lon="6.83426">
        <ele>1630.4</ele>
        <time>2022-07-18T06:31:44Z</time>
      </trkpt>
      <trkpt lat="44.73636" lon="6.83429">
        <ele>1630.4</ele>
        <time>2022-07-18T06:31:45Z</time>
      </trkpt>
      <trkpt lat="44.73633" lon="6.83431">
        <ele>1630.6</ele>
        <time>2022-07-18T06:31:46Z</time>
      </trkpt>
      <trkpt lat="44.73631" lon="6.83433">
        <ele>1630.6</ele>
        <time>2022-07-18T06:31:47Z</time>
      </trkpt>
      <trkpt lat="44.73628" lon="6.83435">
        <ele>1630.8</ele>
        <time>2022-07-18T06:31:48Z</time>
      </trkpt>
      <trkpt lat="44.73625" lon="6.83437">
        <ele>1630.8</ele>
        <time>2022-07-18T06:31:49Z</time>
      </trkpt>
      <trkpt lat="44.73623" lon="6.83439">
        <ele>1631</ele>
        <time>2022-07-18T06:31:50Z</time>
      </trkpt>
      <trkpt lat="44.7362" lon="6.83442">
        <ele>1631</ele>
        <time>2022-07-18T06:31:51Z</time>
      </trkpt>
      <trkpt lat="44.73617" lon="6.83444">
        <ele>1631.4</ele>
        <time>2022-07-18T06:31:52Z</time>
      </trkpt>
      <trkpt lat="44.73614" lon="6.83446">
        <ele>1631.4</ele>
        <time>2022-07-18T06:31:53Z</time>
      </trkpt>
      <trkpt lat="44.73611" lon="6.83447">
        <ele>1631.4</ele>
        <time>2022-07-18T06:31:54Z</time>
      </trkpt>
      <trkpt lat="44.73608" lon="6.83449">
        <ele>1631.6</ele>
        <time>2022-07-18T06:31:55Z</time>
      </trkpt>
      <trkpt lat="44.73605" lon="6.83451">
        <ele>1631.6</ele>
        <time>2022-07-18T06:31:56Z</time>
      </trkpt>
      <trkpt lat="44.73603" lon="6.83452">
        <ele>1632</ele>
        <time>2022-07-18T06:31:57Z</time>
      </trkpt>
      <trkpt lat="44.736" lon="6.83455">
        <ele>1632</ele>
        <time>2022-07-18T06:31:58Z</time>
      </trkpt>
      <trkpt lat="44.73597" lon="6.83457">
        <ele>1632.2</ele>
        <time>2022-07-18T06:31:59Z</time>
      </trkpt>
      <trkpt lat="44.73595" lon="6.83459">
        <ele>1632.2</ele>
        <time>2022-07-18T06:32:00Z</time>
      </trkpt>
      <trkpt lat="44.73592" lon="6.83462">
        <ele>1632.6</ele>
        <time>2022-07-18T06:32:01Z</time>
      </trkpt>
      <trkpt lat="44.73589" lon="6.83464">
        <ele>1632.6</ele>
        <time>2022-07-18T06:32:02Z</time>
      </trkpt>
      <trkpt lat="44.73586" lon="6.83466">
        <ele>1632.8</ele>
        <time>2022-07-18T06:32:03Z</time>
      </trkpt>
      <trkpt lat="44.73584" lon="6.83468">
        <ele>1632.8</ele>
        <time>2022-07-18T06:32:04Z</time>
      </trkpt>
      <trkpt lat="44.73581" lon="6.83471">
        <ele>1633.2</ele>
        <time>2022-07-18T06:32:05Z</time>
      </trkpt>
      <trkpt lat="44.73578" lon="6.83473">
        <ele>1633.4</ele>
        <time>2022-07-18T06:32:06Z</time>
      </trkpt>
      <trkpt lat="44.73576" lon="6.83475">
        <ele>1633.6</ele>
        <time>2022-07-18T06:32:07Z</time>
      </trkpt>
      <trkpt lat="44.73573" lon="6.83477">
        <ele>1633.6</ele>
        <time>2022-07-18T06:32:08Z</time>
      </trkpt>
      <trkpt lat="44.7357" lon="6.83479">
        <ele>1634</ele>
        <time>2022-07-18T06:32:09Z</time>
      </trkpt>
      <trkpt lat="44.73568" lon="6.83481">
        <ele>1634</ele>
        <time>2022-07-18T06:32:10Z</time>
      </trkpt>
      <trkpt lat="44.73565" lon="6.83483">
        <ele>1634.2</ele>
        <time>2022-07-18T06:32:11Z</time>
      </trkpt>
      <trkpt lat="44.73562" lon="6.83485">
        <ele>1634.2</ele>
        <time>2022-07-18T06:32:12Z</time>
      </trkpt>
      <trkpt lat="44.73559" lon="6.83487">
        <ele>1634.6</ele>
        <time>2022-07-18T06:32:13Z</time>
      </trkpt>
      <trkpt lat="44.73557" lon="6.83489">
        <ele>1634.6</ele>
        <time>2022-07-18T06:32:14Z</time>
      </trkpt>
      <trkpt lat="44.73554" lon="6.83491">
        <ele>1634.8</ele>
        <time>2022-07-18T06:32:15Z</time>
      </trkpt>
      <trkpt lat="44.73552" lon="6.83494">
        <ele>1635</ele>
        <time>2022-07-18T06:32:16Z</time>
      </trkpt>
      <trkpt lat="44.7355" lon="6.83496">
        <ele>1635.2</ele>
        <time>2022-07-18T06:32:17Z</time>
      </trkpt>
      <trkpt lat="44.73547" lon="6.83498">
        <ele>1635.6</ele>
        <time>2022-07-18T06:32:18Z</time>
      </trkpt>
      <trkpt lat="44.73545" lon="6.835">
        <ele>1635.8</ele>
        <time>2022-07-18T06:32:19Z</time>
      </trkpt>
      <trkpt lat="44.73542" lon="6.83501">
        <ele>1636</ele>
        <time>2022-07-18T06:32:20Z</time>
      </trkpt>
      <trkpt lat="44.73539" lon="6.83503">
        <ele>1636</ele>
        <time>2022-07-18T06:32:21Z</time>
      </trkpt>
      <trkpt lat="44.73537" lon="6.83505">
        <ele>1636.4</ele>
        <time>2022-07-18T06:32:22Z</time>
      </trkpt>
      <trkpt lat="44.73534" lon="6.83507">
        <ele>1636.6</ele>
        <time>2022-07-18T06:32:23Z</time>
      </trkpt>
      <trkpt lat="44.73532" lon="6.83509">
        <ele>1636.6</ele>
        <time>2022-07-18T06:32:24Z</time>
      </trkpt>
      <trkpt lat="44.73529" lon="6.8351">
        <ele>1637</ele>
        <time>2022-07-18T06:32:25Z</time>
      </trkpt>
      <trkpt lat="44.73527" lon="6.83512">
        <ele>1637.4</ele>
        <time>2022-07-18T06:32:26Z</time>
      </trkpt>
      <trkpt lat="44.73525" lon="6.83514">
        <ele>1637.4</ele>
        <time>2022-07-18T06:32:27Z</time>
      </trkpt>
      <trkpt lat="44.73522" lon="6.83516">
        <ele>1637.6</ele>
        <time>2022-07-18T06:32:28Z</time>
      </trkpt>
      <trkpt lat="44.7352" lon="6.83517">
        <ele>1637.6</ele>
        <time>2022-07-18T06:32:29Z</time>
      </trkpt>
      <trkpt lat="44.73517" lon="6.83519">
        <ele>1638</ele>
        <time>2022-07-18T06:32:30Z</time>
      </trkpt>
      <trkpt lat="44.73515" lon="6.83521">
        <ele>1638</ele>
        <time>2022-07-18T06:32:31Z</time>
      </trkpt>
      <trkpt lat="44.73512" lon="6.83522">
        <ele>1638.4</ele>
        <time>2022-07-18T06:32:32Z</time>
      </trkpt>
      <trkpt lat="44.7351" lon="6.83524">
        <ele>1638.6</ele>
        <time>2022-07-18T06:32:33Z</time>
      </trkpt>
      <trkpt lat="44.73507" lon="6.83526">
        <ele>1638.8</ele>
        <time>2022-07-18T06:32:34Z</time>
      </trkpt>
      <trkpt lat="44.73505" lon="6.83528">
        <ele>1638.8</ele>
        <time>2022-07-18T06:32:35Z</time>
      </trkpt>
      <trkpt lat="44.73502" lon="6.83529">
        <ele>1639.2</ele>
        <time>2022-07-18T06:32:36Z</time>
      </trkpt>
      <trkpt lat="44.735" lon="6.83531">
        <ele>1639.4</ele>
        <time>2022-07-18T06:32:37Z</time>
      </trkpt>
      <trkpt lat="44.73497" lon="6.83532">
        <ele>1639.6</ele>
        <time>2022-07-18T06:32:38Z</time>
      </trkpt>
      <trkpt lat="44.73494" lon="6.83534">
        <ele>1639.6</ele>
        <time>2022-07-18T06:32:39Z</time>
      </trkpt>
      <trkpt lat="44.73492" lon="6.83536">
        <ele>1640.2</ele>
        <time>2022-07-18T06:32:40Z</time>
      </trkpt>
      <trkpt lat="44.73489" lon="6.83538">
        <ele>1640.4</ele>
        <time>2022-07-18T06:32:41Z</time>
      </trkpt>
      <trkpt lat="44.73487" lon="6.83539">
        <ele>1640.6</ele>
        <time>2022-07-18T06:32:42Z</time>
      </trkpt>
      <trkpt lat="44.73484" lon="6.83541">
        <ele>1640.8</ele>
        <time>2022-07-18T06:32:43Z</time>
      </trkpt>
      <trkpt lat="44.73482" lon="6.83543">
        <ele>1641</ele>
        <time>2022-07-18T06:32:44Z</time>
      </trkpt>
      <trkpt lat="44.7348" lon="6.83544">
        <ele>1641.4</ele>
        <time>2022-07-18T06:32:45Z</time>
      </trkpt>
      <trkpt lat="44.73478" lon="6.83546">
        <ele>1641.6</ele>
        <time>2022-07-18T06:32:46Z</time>
      </trkpt>
      <trkpt lat="44.73476" lon="6.83548">
        <ele>1641.8</ele>
        <time>2022-07-18T06:32:47Z</time>
      </trkpt>
      <trkpt lat="44.73473" lon="6.8355">
        <ele>1642</ele>
        <time>2022-07-18T06:32:48Z</time>
      </trkpt>
      <trkpt lat="44.73471" lon="6.83552">
        <ele>1642.2</ele>
        <time>2022-07-18T06:32:49Z</time>
      </trkpt>
      <trkpt lat="44.73469" lon="6.83554">
        <ele>1642.4</ele>
        <time>2022-07-18T06:32:50Z</time>
      </trkpt>
      <trkpt lat="44.73467" lon="6.83555">
        <ele>1642.4</ele>
        <time>2022-07-18T06:32:51Z</time>
      </trkpt>
      <trkpt lat="44.73464" lon="6.83557">
        <ele>1642.8</ele>
        <time>2022-07-18T06:32:52Z</time>
      </trkpt>
      <trkpt lat="44.73462" lon="6.83559">
        <ele>1642.8</ele>
        <time>2022-07-18T06:32:53Z</time>
      </trkpt>
      <trkpt lat="44.7346" lon="6.83561">
        <ele>1643.2</ele>
        <time>2022-07-18T06:32:54Z</time>
      </trkpt>
      <trkpt lat="44.73458" lon="6.83563">
        <ele>1643.4</ele>
        <time>2022-07-18T06:32:55Z</time>
      </trkpt>
      <trkpt lat="44.73455" lon="6.83564">
        <ele>1643.4</ele>
        <time>2022-07-18T06:32:56Z</time>
      </trkpt>
      <trkpt lat="44.73453" lon="6.83567">
        <ele>1643.8</ele>
        <time>2022-07-18T06:32:57Z</time>
      </trkpt>
      <trkpt lat="44.73451" lon="6.83569">
        <ele>1644</ele>
        <time>2022-07-18T06:32:58Z</time>
      </trkpt>
      <trkpt lat="44.73448" lon="6.83571">
        <ele>1644</ele>
        <time>2022-07-18T06:32:59Z</time>
      </trkpt>
      <trkpt lat="44.73446" lon="6.83573">
        <ele>1644.2</ele>
        <time>2022-07-18T06:33:00Z</time>
      </trkpt>
      <trkpt lat="44.73444" lon="6.83576">
        <ele>1644.2</ele>
        <time>2022-07-18T06:33:01Z</time>
      </trkpt>
      <trkpt lat="44.73442" lon="6.83578">
        <ele>1644.6</ele>
        <time>2022-07-18T06:33:02Z</time>
      </trkpt>
      <trkpt lat="44.73439" lon="6.8358">
        <ele>1644.6</ele>
        <time>2022-07-18T06:33:03Z</time>
      </trkpt>
      <trkpt lat="44.73437" lon="6.83582">
        <ele>1644.8</ele>
        <time>2022-07-18T06:33:04Z</time>
      </trkpt>
      <trkpt lat="44.73435" lon="6.83584">
        <ele>1645</ele>
        <time>2022-07-18T06:33:05Z</time>
      </trkpt>
      <trkpt lat="44.73433" lon="6.83586">
        <ele>1645.2</ele>
        <time>2022-07-18T06:33:07Z</time>
      </trkpt>
      <trkpt lat="44.73431" lon="6.83588">
        <ele>1645.6</ele>
        <time>2022-07-18T06:33:08Z</time>
      </trkpt>
      <trkpt lat="44.73429" lon="6.83591">
        <ele>1645.6</ele>
        <time>2022-07-18T06:33:09Z</time>
      </trkpt>
      <trkpt lat="44.73426" lon="6.83593">
        <ele>1646</ele>
        <time>2022-07-18T06:33:10Z</time>
      </trkpt>
      <trkpt lat="44.73424" lon="6.83596">
        <ele>1646</ele>
        <time>2022-07-18T06:33:11Z</time>
      </trkpt>
      <trkpt lat="44.73422" lon="6.83599">
        <ele>1646</ele>
        <time>2022-07-18T06:33:12Z</time>
      </trkpt>
      <trkpt lat="44.73419" lon="6.83601">
        <ele>1646.2</ele>
        <time>2022-07-18T06:33:13Z</time>
      </trkpt>
      <trkpt lat="44.73417" lon="6.83604">
        <ele>1646.2</ele>
        <time>2022-07-18T06:33:14Z</time>
      </trkpt>
      <trkpt lat="44.73414" lon="6.83607">
        <ele>1646.6</ele>
        <time>2022-07-18T06:33:15Z</time>
      </trkpt>
      <trkpt lat="44.73412" lon="6.83609">
        <ele>1646.6</ele>
        <time>2022-07-18T06:33:16Z</time>
      </trkpt>
      <trkpt lat="44.7341" lon="6.83612">
        <ele>1646.8</ele>
        <time>2022-07-18T06:33:17Z</time>
      </trkpt>
      <trkpt lat="44.73407" lon="6.83615">
        <ele>1646.8</ele>
        <time>2022-07-18T06:33:18Z</time>
      </trkpt>
      <trkpt lat="44.73403" lon="6.83621">
        <ele>1647</ele>
        <time>2022-07-18T06:33:19Z</time>
      </trkpt>
      <trkpt lat="44.73401" lon="6.83624">
        <ele>1647</ele>
        <time>2022-07-18T06:33:20Z</time>
      </trkpt>
      <trkpt lat="44.73399" lon="6.83627">
        <ele>1647</ele>
        <time>2022-07-18T06:33:21Z</time>
      </trkpt>
      <trkpt lat="44.73397" lon="6.8363">
        <ele>1647.4</ele>
        <time>2022-07-18T06:33:22Z</time>
      </trkpt>
      <trkpt lat="44.73394" lon="6.83633">
        <ele>1647.4</ele>
        <time>2022-07-18T06:33:23Z</time>
      </trkpt>
      <trkpt lat="44.73392" lon="6.83637">
        <ele>1647.8</ele>
        <time>2022-07-18T06:33:24Z</time>
      </trkpt>
      <trkpt lat="44.7339" lon="6.8364">
        <ele>1647.8</ele>
        <time>2022-07-18T06:33:25Z</time>
      </trkpt>
      <trkpt lat="44.73388" lon="6.83643">
        <ele>1648</ele>
        <time>2022-07-18T06:33:26Z</time>
      </trkpt>
      <trkpt lat="44.73386" lon="6.83647">
        <ele>1648</ele>
        <time>2022-07-18T06:33:27Z</time>
      </trkpt>
      <trkpt lat="44.73384" lon="6.83651">
        <ele>1648.2</ele>
        <time>2022-07-18T06:33:28Z</time>
      </trkpt>
      <trkpt lat="44.73382" lon="6.83654">
        <ele>1648.2</ele>
        <time>2022-07-18T06:33:29Z</time>
      </trkpt>
      <trkpt lat="44.73381" lon="6.83657">
        <ele>1648.4</ele>
        <time>2022-07-18T06:33:30Z</time>
      </trkpt>
      <trkpt lat="44.73379" lon="6.83661">
        <ele>1648.4</ele>
        <time>2022-07-18T06:33:31Z</time>
      </trkpt>
      <trkpt lat="44.73378" lon="6.83665">
        <ele>1648.8</ele>
        <time>2022-07-18T06:33:32Z</time>
      </trkpt>
      <trkpt lat="44.73376" lon="6.83669">
        <ele>1648.8</ele>
        <time>2022-07-18T06:33:33Z</time>
      </trkpt>
      <trkpt lat="44.73374" lon="6.83672">
        <ele>1648.8</ele>
        <time>2022-07-18T06:33:34Z</time>
      </trkpt>
      <trkpt lat="44.73373" lon="6.83676">
        <ele>1649.2</ele>
        <time>2022-07-18T06:33:35Z</time>
      </trkpt>
      <trkpt lat="44.73371" lon="6.8368">
        <ele>1649.2</ele>
        <time>2022-07-18T06:33:36Z</time>
      </trkpt>
      <trkpt lat="44.7337" lon="6.83683">
        <ele>1649.2</ele>
        <time>2022-07-18T06:33:37Z</time>
      </trkpt>
      <trkpt lat="44.73368" lon="6.83687">
        <ele>1649.4</ele>
        <time>2022-07-18T06:33:38Z</time>
      </trkpt>
      <trkpt lat="44.73366" lon="6.83691">
        <ele>1649.4</ele>
        <time>2022-07-18T06:33:39Z</time>
      </trkpt>
      <trkpt lat="44.73365" lon="6.83695">
        <ele>1649.6</ele>
        <time>2022-07-18T06:33:40Z</time>
      </trkpt>
      <trkpt lat="44.73364" lon="6.83698">
        <ele>1649.6</ele>
        <time>2022-07-18T06:33:41Z</time>
      </trkpt>
      <trkpt lat="44.73362" lon="6.83702">
        <ele>1649.6</ele>
        <time>2022-07-18T06:33:42Z</time>
      </trkpt>
      <trkpt lat="44.73361" lon="6.83706">
        <ele>1650</ele>
        <time>2022-07-18T06:33:43Z</time>
      </trkpt>
      <trkpt lat="44.7336" lon="6.8371">
        <ele>1650</ele>
        <time>2022-07-18T06:33:44Z</time>
      </trkpt>
      <trkpt lat="44.73359" lon="6.83714">
        <ele>1650</ele>
        <time>2022-07-18T06:33:45Z</time>
      </trkpt>
      <trkpt lat="44.73358" lon="6.83717">
        <ele>1650.2</ele>
        <time>2022-07-18T06:33:46Z</time>
      </trkpt>
      <trkpt lat="44.73357" lon="6.83721">
        <ele>1650.2</ele>
        <time>2022-07-18T06:33:47Z</time>
      </trkpt>
      <trkpt lat="44.73356" lon="6.83725">
        <ele>1650.2</ele>
        <time>2022-07-18T06:33:48Z</time>
      </trkpt>
      <trkpt lat="44.73355" lon="6.83728">
        <ele>1650.4</ele>
        <time>2022-07-18T06:33:49Z</time>
      </trkpt>
      <trkpt lat="44.73354" lon="6.83732">
        <ele>1650.4</ele>
        <time>2022-07-18T06:33:50Z</time>
      </trkpt>
      <trkpt lat="44.73353" lon="6.83736">
        <ele>1650.4</ele>
        <time>2022-07-18T06:33:51Z</time>
      </trkpt>
      <trkpt lat="44.73352" lon="6.83739">
        <ele>1650.8</ele>
        <time>2022-07-18T06:33:52Z</time>
      </trkpt>
      <trkpt lat="44.7335" lon="6.83743">
        <ele>1650.8</ele>
        <time>2022-07-18T06:33:53Z</time>
      </trkpt>
      <trkpt lat="44.73349" lon="6.83746">
        <ele>1651</ele>
        <time>2022-07-18T06:33:54Z</time>
      </trkpt>
      <trkpt lat="44.73348" lon="6.8375">
        <ele>1651</ele>
        <time>2022-07-18T06:33:55Z</time>
      </trkpt>
      <trkpt lat="44.73347" lon="6.83753">
        <ele>1651.2</ele>
        <time>2022-07-18T06:33:56Z</time>
      </trkpt>
      <trkpt lat="44.73346" lon="6.83757">
        <ele>1651.2</ele>
        <time>2022-07-18T06:33:57Z</time>
      </trkpt>
      <trkpt lat="44.73345" lon="6.8376">
        <ele>1651.2</ele>
        <time>2022-07-18T06:33:58Z</time>
      </trkpt>
      <trkpt lat="44.73344" lon="6.83764">
        <ele>1651.2</ele>
        <time>2022-07-18T06:33:59Z</time>
      </trkpt>
      <trkpt lat="44.73342" lon="6.83767">
        <ele>1651.6</ele>
        <time>2022-07-18T06:34:00Z</time>
      </trkpt>
      <trkpt lat="44.73341" lon="6.83771">
        <ele>1651.6</ele>
        <time>2022-07-18T06:34:01Z</time>
      </trkpt>
      <trkpt lat="44.7334" lon="6.83774">
        <ele>1652</ele>
        <time>2022-07-18T06:34:02Z</time>
      </trkpt>
      <trkpt lat="44.73339" lon="6.83778">
        <ele>1652</ele>
        <time>2022-07-18T06:34:03Z</time>
      </trkpt>
      <trkpt lat="44.73337" lon="6.83781">
        <ele>1652.4</ele>
        <time>2022-07-18T06:34:04Z</time>
      </trkpt>
      <trkpt lat="44.73336" lon="6.83784">
        <ele>1652.4</ele>
        <time>2022-07-18T06:34:05Z</time>
      </trkpt>
      <trkpt lat="44.73335" lon="6.83788">
        <ele>1652.6</ele>
        <time>2022-07-18T06:34:06Z</time>
      </trkpt>
      <trkpt lat="44.73334" lon="6.83791">
        <ele>1652.8</ele>
        <time>2022-07-18T06:34:07Z</time>
      </trkpt>
      <trkpt lat="44.73332" lon="6.83794">
        <ele>1652.8</ele>
        <time>2022-07-18T06:34:08Z</time>
      </trkpt>
      <trkpt lat="44.73331" lon="6.83797">
        <ele>1653.2</ele>
        <time>2022-07-18T06:34:09Z</time>
      </trkpt>
      <trkpt lat="44.73329" lon="6.83801">
        <ele>1653.2</ele>
        <time>2022-07-18T06:34:10Z</time>
      </trkpt>
      <trkpt lat="44.73327" lon="6.83804">
        <ele>1653.4</ele>
        <time>2022-07-18T06:34:11Z</time>
      </trkpt>
      <trkpt lat="44.73326" lon="6.83807">
        <ele>1653.4</ele>
        <time>2022-07-18T06:34:12Z</time>
      </trkpt>
      <trkpt lat="44.73324" lon="6.8381">
        <ele>1653.4</ele>
        <time>2022-07-18T06:34:13Z</time>
      </trkpt>
      <trkpt lat="44.73322" lon="6.83814">
        <ele>1653.8</ele>
        <time>2022-07-18T06:34:14Z</time>
      </trkpt>
      <trkpt lat="44.7332" lon="6.83817">
        <ele>1653.8</ele>
        <time>2022-07-18T06:34:15Z</time>
      </trkpt>
      <trkpt lat="44.73319" lon="6.8382">
        <ele>1654.2</ele>
        <time>2022-07-18T06:34:16Z</time>
      </trkpt>
      <trkpt lat="44.73317" lon="6.83823">
        <ele>1654.2</ele>
        <time>2022-07-18T06:34:17Z</time>
      </trkpt>
      <trkpt lat="44.73315" lon="6.83825">
        <ele>1654.2</ele>
        <time>2022-07-18T06:34:18Z</time>
      </trkpt>
      <trkpt lat="44.73313" lon="6.83828">
        <ele>1654.4</ele>
        <time>2022-07-18T06:34:19Z</time>
      </trkpt>
      <trkpt lat="44.73311" lon="6.83831">
        <ele>1654.4</ele>
        <time>2022-07-18T06:34:20Z</time>
      </trkpt>
      <trkpt lat="44.7331" lon="6.83834">
        <ele>1654.6</ele>
        <time>2022-07-18T06:34:21Z</time>
      </trkpt>
      <trkpt lat="44.73308" lon="6.83837">
        <ele>1654.6</ele>
        <time>2022-07-18T06:34:22Z</time>
      </trkpt>
      <trkpt lat="44.73306" lon="6.8384">
        <ele>1655</ele>
        <time>2022-07-18T06:34:23Z</time>
      </trkpt>
      <trkpt lat="44.73303" lon="6.83842">
        <ele>1655</ele>
        <time>2022-07-18T06:34:24Z</time>
      </trkpt>
      <trkpt lat="44.73301" lon="6.83845">
        <ele>1655.4</ele>
        <time>2022-07-18T06:34:25Z</time>
      </trkpt>
      <trkpt lat="44.73299" lon="6.83848">
        <ele>1655.4</ele>
        <time>2022-07-18T06:34:26Z</time>
      </trkpt>
      <trkpt lat="44.73297" lon="6.8385">
        <ele>1655.6</ele>
        <time>2022-07-18T06:34:27Z</time>
      </trkpt>
      <trkpt lat="44.73295" lon="6.83853">
        <ele>1655.6</ele>
        <time>2022-07-18T06:34:28Z</time>
      </trkpt>
      <trkpt lat="44.73293" lon="6.83855">
        <ele>1656</ele>
        <time>2022-07-18T06:34:29Z</time>
      </trkpt>
      <trkpt lat="44.73291" lon="6.83858">
        <ele>1656</ele>
        <time>2022-07-18T06:34:30Z</time>
      </trkpt>
      <trkpt lat="44.73289" lon="6.83861">
        <ele>1656.2</ele>
        <time>2022-07-18T06:34:31Z</time>
      </trkpt>
      <trkpt lat="44.73286" lon="6.83863">
        <ele>1656.2</ele>
        <time>2022-07-18T06:34:32Z</time>
      </trkpt>
      <trkpt lat="44.73284" lon="6.83866">
        <ele>1656.4</ele>
        <time>2022-07-18T06:34:33Z</time>
      </trkpt>
      <trkpt lat="44.73282" lon="6.83868">
        <ele>1656.4</ele>
        <time>2022-07-18T06:34:34Z</time>
      </trkpt>
      <trkpt lat="44.7328" lon="6.83871">
        <ele>1656.8</ele>
        <time>2022-07-18T06:34:35Z</time>
      </trkpt>
      <trkpt lat="44.73278" lon="6.83873">
        <ele>1656.8</ele>
        <time>2022-07-18T06:34:36Z</time>
      </trkpt>
      <trkpt lat="44.73275" lon="6.83876">
        <ele>1656.8</ele>
        <time>2022-07-18T06:34:37Z</time>
      </trkpt>
      <trkpt lat="44.73273" lon="6.83878">
        <ele>1657</ele>
        <time>2022-07-18T06:34:38Z</time>
      </trkpt>
      <trkpt lat="44.73271" lon="6.83881">
        <ele>1657</ele>
        <time>2022-07-18T06:34:39Z</time>
      </trkpt>
      <trkpt lat="44.73269" lon="6.83883">
        <ele>1657.2</ele>
        <time>2022-07-18T06:34:40Z</time>
      </trkpt>
      <trkpt lat="44.73267" lon="6.83885">
        <ele>1657.2</ele>
        <time>2022-07-18T06:34:41Z</time>
      </trkpt>
      <trkpt lat="44.73265" lon="6.83888">
        <ele>1657.4</ele>
        <time>2022-07-18T06:34:42Z</time>
      </trkpt>
      <trkpt lat="44.73263" lon="6.8389">
        <ele>1657.4</ele>
        <time>2022-07-18T06:34:43Z</time>
      </trkpt>
      <trkpt lat="44.73261" lon="6.83892">
        <ele>1657.6</ele>
        <time>2022-07-18T06:34:44Z</time>
      </trkpt>
      <trkpt lat="44.73259" lon="6.83894">
        <ele>1657.6</ele>
        <time>2022-07-18T06:34:45Z</time>
      </trkpt>
      <trkpt lat="44.73257" lon="6.83896">
        <ele>1658</ele>
        <time>2022-07-18T06:34:46Z</time>
      </trkpt>
      <trkpt lat="44.73255" lon="6.83899">
        <ele>1658</ele>
        <time>2022-07-18T06:34:47Z</time>
      </trkpt>
      <trkpt lat="44.73252" lon="6.83901">
        <ele>1658</ele>
        <time>2022-07-18T06:34:48Z</time>
      </trkpt>
      <trkpt lat="44.7325" lon="6.83903">
        <ele>1658.2</ele>
        <time>2022-07-18T06:34:49Z</time>
      </trkpt>
      <trkpt lat="44.73248" lon="6.83905">
        <ele>1658.2</ele>
        <time>2022-07-18T06:34:50Z</time>
      </trkpt>
      <trkpt lat="44.73245" lon="6.83907">
        <ele>1658.4</ele>
        <time>2022-07-18T06:34:51Z</time>
      </trkpt>
      <trkpt lat="44.73243" lon="6.83909">
        <ele>1658.4</ele>
        <time>2022-07-18T06:34:52Z</time>
      </trkpt>
      <trkpt lat="44.73241" lon="6.83911">
        <ele>1658.8</ele>
        <time>2022-07-18T06:34:53Z</time>
      </trkpt>
      <trkpt lat="44.73238" lon="6.83913">
        <ele>1659</ele>
        <time>2022-07-18T06:34:54Z</time>
      </trkpt>
      <trkpt lat="44.73236" lon="6.83915">
        <ele>1659</ele>
        <time>2022-07-18T06:34:55Z</time>
      </trkpt>
      <trkpt lat="44.73234" lon="6.83917">
        <ele>1659.4</ele>
        <time>2022-07-18T06:34:56Z</time>
      </trkpt>
      <trkpt lat="44.73232" lon="6.83919">
        <ele>1659.4</ele>
        <time>2022-07-18T06:34:57Z</time>
      </trkpt>
      <trkpt lat="44.7323" lon="6.83921">
        <ele>1659.6</ele>
        <time>2022-07-18T06:34:58Z</time>
      </trkpt>
      <trkpt lat="44.73228" lon="6.83923">
        <ele>1659.6</ele>
        <time>2022-07-18T06:34:59Z</time>
      </trkpt>
      <trkpt lat="44.73225" lon="6.83926">
        <ele>1660</ele>
        <time>2022-07-18T06:35:00Z</time>
      </trkpt>
      <trkpt lat="44.73223" lon="6.83928">
        <ele>1660</ele>
        <time>2022-07-18T06:35:01Z</time>
      </trkpt>
      <trkpt lat="44.73221" lon="6.8393">
        <ele>1660.4</ele>
        <time>2022-07-18T06:35:02Z</time>
      </trkpt>
      <trkpt lat="44.73219" lon="6.83932">
        <ele>1660.6</ele>
        <time>2022-07-18T06:35:03Z</time>
      </trkpt>
      <trkpt lat="44.73216" lon="6.83934">
        <ele>1660.6</ele>
        <time>2022-07-18T06:35:04Z</time>
      </trkpt>
      <trkpt lat="44.73214" lon="6.83935">
        <ele>1660.8</ele>
        <time>2022-07-18T06:35:05Z</time>
      </trkpt>
      <trkpt lat="44.73212" lon="6.83937">
        <ele>1660.8</ele>
        <time>2022-07-18T06:35:06Z</time>
      </trkpt>
      <trkpt lat="44.7321" lon="6.83939">
        <ele>1661.2</ele>
        <time>2022-07-18T06:35:07Z</time>
      </trkpt>
      <trkpt lat="44.73208" lon="6.83941">
        <ele>1661.2</ele>
        <time>2022-07-18T06:35:08Z</time>
      </trkpt>
      <trkpt lat="44.73206" lon="6.83942">
        <ele>1661.4</ele>
        <time>2022-07-18T06:35:09Z</time>
      </trkpt>
      <trkpt lat="44.73204" lon="6.83944">
        <ele>1661.4</ele>
        <time>2022-07-18T06:35:10Z</time>
      </trkpt>
      <trkpt lat="44.73202" lon="6.83946">
        <ele>1661.8</ele>
        <time>2022-07-18T06:35:11Z</time>
      </trkpt>
      <trkpt lat="44.732" lon="6.83948">
        <ele>1662</ele>
        <time>2022-07-18T06:35:12Z</time>
      </trkpt>
      <trkpt lat="44.73198" lon="6.8395">
        <ele>1662.2</ele>
        <time>2022-07-18T06:35:13Z</time>
      </trkpt>
      <trkpt lat="44.73196" lon="6.83952">
        <ele>1662.4</ele>
        <time>2022-07-18T06:35:14Z</time>
      </trkpt>
      <trkpt lat="44.73194" lon="6.83954">
        <ele>1662.4</ele>
        <time>2022-07-18T06:35:15Z</time>
      </trkpt>
      <trkpt lat="44.73192" lon="6.83956">
        <ele>1662.8</ele>
        <time>2022-07-18T06:35:16Z</time>
      </trkpt>
      <trkpt lat="44.7319" lon="6.83958">
        <ele>1663</ele>
        <time>2022-07-18T06:35:17Z</time>
      </trkpt>
      <trkpt lat="44.73188" lon="6.8396">
        <ele>1663.2</ele>
        <time>2022-07-18T06:35:18Z</time>
      </trkpt>
      <trkpt lat="44.73186" lon="6.83962">
        <ele>1663.2</ele>
        <time>2022-07-18T06:35:19Z</time>
      </trkpt>
      <trkpt lat="44.73184" lon="6.83963">
        <ele>1663.4</ele>
        <time>2022-07-18T06:35:20Z</time>
      </trkpt>
      <trkpt lat="44.73181" lon="6.83965">
        <ele>1663.4</ele>
        <time>2022-07-18T06:35:21Z</time>
      </trkpt>
      <trkpt lat="44.73179" lon="6.83967">
        <ele>1663.6</ele>
        <time>2022-07-18T06:35:22Z</time>
      </trkpt>
      <trkpt lat="44.73176" lon="6.83969">
        <ele>1663.6</ele>
        <time>2022-07-18T06:35:23Z</time>
      </trkpt>
      <trkpt lat="44.73174" lon="6.83971">
        <ele>1664</ele>
        <time>2022-07-18T06:35:24Z</time>
      </trkpt>
      <trkpt lat="44.73172" lon="6.83973">
        <ele>1664</ele>
        <time>2022-07-18T06:35:25Z</time>
      </trkpt>
      <trkpt lat="44.73169" lon="6.83975">
        <ele>1664.2</ele>
        <time>2022-07-18T06:35:26Z</time>
      </trkpt>
      <trkpt lat="44.73167" lon="6.83977">
        <ele>1664.2</ele>
        <time>2022-07-18T06:35:27Z</time>
      </trkpt>
      <trkpt lat="44.73164" lon="6.83978">
        <ele>1664.2</ele>
        <time>2022-07-18T06:35:28Z</time>
      </trkpt>
      <trkpt lat="44.73162" lon="6.8398">
        <ele>1664.4</ele>
        <time>2022-07-18T06:35:29Z</time>
      </trkpt>
      <trkpt lat="44.7316" lon="6.83982">
        <ele>1664.4</ele>
        <time>2022-07-18T06:35:30Z</time>
      </trkpt>
      <trkpt lat="44.73157" lon="6.83984">
        <ele>1664.8</ele>
        <time>2022-07-18T06:35:31Z</time>
      </trkpt>
      <trkpt lat="44.73155" lon="6.83986">
        <ele>1664.8</ele>
        <time>2022-07-18T06:35:32Z</time>
      </trkpt>
      <trkpt lat="44.73153" lon="6.83988">
        <ele>1665</ele>
        <time>2022-07-18T06:35:33Z</time>
      </trkpt>
      <trkpt lat="44.73151" lon="6.83989">
        <ele>1665</ele>
        <time>2022-07-18T06:35:34Z</time>
      </trkpt>
      <trkpt lat="44.73149" lon="6.83991">
        <ele>1665.4</ele>
        <time>2022-07-18T06:35:35Z</time>
      </trkpt>
      <trkpt lat="44.73146" lon="6.83992">
        <ele>1665.4</ele>
        <time>2022-07-18T06:35:36Z</time>
      </trkpt>
      <trkpt lat="44.73144" lon="6.83994">
        <ele>1665.4</ele>
        <time>2022-07-18T06:35:37Z</time>
      </trkpt>
      <trkpt lat="44.73143" lon="6.83995">
        <ele>1665.6</ele>
        <time>2022-07-18T06:35:38Z</time>
      </trkpt>
      <trkpt lat="44.73141" lon="6.83997">
        <ele>1665.6</ele>
        <time>2022-07-18T06:35:39Z</time>
      </trkpt>
      <trkpt lat="44.73139" lon="6.83999">
        <ele>1665.8</ele>
        <time>2022-07-18T06:35:40Z</time>
      </trkpt>
      <trkpt lat="44.73137" lon="6.84001">
        <ele>1665.8</ele>
        <time>2022-07-18T06:35:41Z</time>
      </trkpt>
      <trkpt lat="44.73135" lon="6.84003">
        <ele>1665.8</ele>
        <time>2022-07-18T06:35:42Z</time>
      </trkpt>
      <trkpt lat="44.73133" lon="6.84005">
        <ele>1665.8</ele>
        <time>2022-07-18T06:35:43Z</time>
      </trkpt>
      <trkpt lat="44.7313" lon="6.84008">
        <ele>1666</ele>
        <time>2022-07-18T06:35:44Z</time>
      </trkpt>
      <trkpt lat="44.73128" lon="6.84011">
        <ele>1666</ele>
        <time>2022-07-18T06:35:45Z</time>
      </trkpt>
      <trkpt lat="44.73125" lon="6.84014">
        <ele>1666.2</ele>
        <time>2022-07-18T06:35:46Z</time>
      </trkpt>
      <trkpt lat="44.73123" lon="6.84017">
        <ele>1666.2</ele>
        <time>2022-07-18T06:35:47Z</time>
      </trkpt>
      <trkpt lat="44.73121" lon="6.84021">
        <ele>1666.6</ele>
        <time>2022-07-18T06:35:48Z</time>
      </trkpt>
      <trkpt lat="44.7312" lon="6.84026">
        <ele>1666.6</ele>
        <time>2022-07-18T06:35:49Z</time>
      </trkpt>
      <trkpt lat="44.7312" lon="6.8403">
        <ele>1666.8</ele>
        <time>2022-07-18T06:35:50Z</time>
      </trkpt>
      <trkpt lat="44.73119" lon="6.84034">
        <ele>1666.8</ele>
        <time>2022-07-18T06:35:51Z</time>
      </trkpt>
      <trkpt lat="44.73119" lon="6.84038">
        <ele>1666.8</ele>
        <time>2022-07-18T06:35:52Z</time>
      </trkpt>
      <trkpt lat="44.73119" lon="6.84041">
        <ele>1667.2</ele>
        <time>2022-07-18T06:35:53Z</time>
      </trkpt>
      <trkpt lat="44.73118" lon="6.84045">
        <ele>1667.4</ele>
        <time>2022-07-18T06:35:54Z</time>
      </trkpt>
      <trkpt lat="44.73118" lon="6.84048">
        <ele>1667.6</ele>
        <time>2022-07-18T06:35:55Z</time>
      </trkpt>
      <trkpt lat="44.73117" lon="6.84051">
        <ele>1667.8</ele>
        <time>2022-07-18T06:35:56Z</time>
      </trkpt>
      <trkpt lat="44.73117" lon="6.84054">
        <ele>1668.2</ele>
        <time>2022-07-18T06:35:57Z</time>
      </trkpt>
      <trkpt lat="44.73117" lon="6.84057">
        <ele>1668.2</ele>
        <time>2022-07-18T06:35:58Z</time>
      </trkpt>
      <trkpt lat="44.73116" lon="6.8406">
        <ele>1668.6</ele>
        <time>2022-07-18T06:35:59Z</time>
      </trkpt>
      <trkpt lat="44.73116" lon="6.84063">
        <ele>1668.8</ele>
        <time>2022-07-18T06:36:00Z</time>
      </trkpt>
      <trkpt lat="44.73115" lon="6.84065">
        <ele>1668.8</ele>
        <time>2022-07-18T06:36:01Z</time>
      </trkpt>
      <trkpt lat="44.73114" lon="6.84068">
        <ele>1669.2</ele>
        <time>2022-07-18T06:36:02Z</time>
      </trkpt>
      <trkpt lat="44.73113" lon="6.84071">
        <ele>1669.2</ele>
        <time>2022-07-18T06:36:03Z</time>
      </trkpt>
      <trkpt lat="44.73112" lon="6.84073">
        <ele>1669.6</ele>
        <time>2022-07-18T06:36:04Z</time>
      </trkpt>
      <trkpt lat="44.73111" lon="6.84076">
        <ele>1669.6</ele>
        <time>2022-07-18T06:36:05Z</time>
      </trkpt>
      <trkpt lat="44.73111" lon="6.84078">
        <ele>1670</ele>
        <time>2022-07-18T06:36:06Z</time>
      </trkpt>
      <trkpt lat="44.7311" lon="6.84081">
        <ele>1670.2</ele>
        <time>2022-07-18T06:36:07Z</time>
      </trkpt>
      <trkpt lat="44.7311" lon="6.84083">
        <ele>1670.6</ele>
        <time>2022-07-18T06:36:08Z</time>
      </trkpt>
      <trkpt lat="44.73109" lon="6.84086">
        <ele>1670.8</ele>
        <time>2022-07-18T06:36:09Z</time>
      </trkpt>
      <trkpt lat="44.73108" lon="6.84088">
        <ele>1671</ele>
        <time>2022-07-18T06:36:10Z</time>
      </trkpt>
      <trkpt lat="44.73108" lon="6.84091">
        <ele>1671.4</ele>
        <time>2022-07-18T06:36:11Z</time>
      </trkpt>
      <trkpt lat="44.73107" lon="6.84093">
        <ele>1671.6</ele>
        <time>2022-07-18T06:36:12Z</time>
      </trkpt>
      <trkpt lat="44.73106" lon="6.84096">
        <ele>1672</ele>
        <time>2022-07-18T06:36:13Z</time>
      </trkpt>
      <trkpt lat="44.73106" lon="6.84098">
        <ele>1672.2</ele>
        <time>2022-07-18T06:36:14Z</time>
      </trkpt>
      <trkpt lat="44.73105" lon="6.841">
        <ele>1672.2</ele>
        <time>2022-07-18T06:36:15Z</time>
      </trkpt>
      <trkpt lat="44.73104" lon="6.84103">
        <ele>1672.6</ele>
        <time>2022-07-18T06:36:16Z</time>
      </trkpt>
      <trkpt lat="44.73104" lon="6.84105">
        <ele>1672.6</ele>
        <time>2022-07-18T06:36:17Z</time>
      </trkpt>
      <trkpt lat="44.73103" lon="6.84108">
        <ele>1673</ele>
        <time>2022-07-18T06:36:18Z</time>
      </trkpt>
      <trkpt lat="44.73103" lon="6.84111">
        <ele>1673.4</ele>
        <time>2022-07-18T06:36:19Z</time>
      </trkpt>
      <trkpt lat="44.73102" lon="6.84113">
        <ele>1673.6</ele>
        <time>2022-07-18T06:36:20Z</time>
      </trkpt>
      <trkpt lat="44.73101" lon="6.84116">
        <ele>1674</ele>
        <time>2022-07-18T06:36:21Z</time>
      </trkpt>
      <trkpt lat="44.73101" lon="6.84118">
        <ele>1674.2</ele>
        <time>2022-07-18T06:36:22Z</time>
      </trkpt>
      <trkpt lat="44.73101" lon="6.84121">
        <ele>1674.4</ele>
        <time>2022-07-18T06:36:23Z</time>
      </trkpt>
      <trkpt lat="44.731" lon="6.84123">
        <ele>1674.8</ele>
        <time>2022-07-18T06:36:24Z</time>
      </trkpt>
      <trkpt lat="44.731" lon="6.84126">
        <ele>1675</ele>
        <time>2022-07-18T06:36:25Z</time>
      </trkpt>
      <trkpt lat="44.731" lon="6.84129">
        <ele>1675.2</ele>
        <time>2022-07-18T06:36:26Z</time>
      </trkpt>
      <trkpt lat="44.73099" lon="6.84132">
        <ele>1675.6</ele>
        <time>2022-07-18T06:36:27Z</time>
      </trkpt>
      <trkpt lat="44.73099" lon="6.84135">
        <ele>1675.8</ele>
        <time>2022-07-18T06:36:28Z</time>
      </trkpt>
      <trkpt lat="44.73099" lon="6.84137">
        <ele>1676.2</ele>
        <time>2022-07-18T06:36:29Z</time>
      </trkpt>
      <trkpt lat="44.73098" lon="6.8414">
        <ele>1676.4</ele>
        <time>2022-07-18T06:36:30Z</time>
      </trkpt>
      <trkpt lat="44.73098" lon="6.84142">
        <ele>1676.8</ele>
        <time>2022-07-18T06:36:31Z</time>
      </trkpt>
      <trkpt lat="44.73098" lon="6.84145">
        <ele>1677</ele>
        <time>2022-07-18T06:36:32Z</time>
      </trkpt>
      <trkpt lat="44.73098" lon="6.84147">
        <ele>1677.2</ele>
        <time>2022-07-18T06:36:33Z</time>
      </trkpt>
      <trkpt lat="44.73098" lon="6.8415">
        <ele>1677.4</ele>
        <time>2022-07-18T06:36:34Z</time>
      </trkpt>
      <trkpt lat="44.73098" lon="6.84152">
        <ele>1677.8</ele>
        <time>2022-07-18T06:36:35Z</time>
      </trkpt>
      <trkpt lat="44.73098" lon="6.84155">
        <ele>1678</ele>
        <time>2022-07-18T06:36:36Z</time>
      </trkpt>
      <trkpt lat="44.73098" lon="6.84158">
        <ele>1678.2</ele>
        <time>2022-07-18T06:36:37Z</time>
      </trkpt>
      <trkpt lat="44.73098" lon="6.84161">
        <ele>1678.6</ele>
        <time>2022-07-18T06:36:38Z</time>
      </trkpt>
      <trkpt lat="44.73098" lon="6.84163">
        <ele>1678.8</ele>
        <time>2022-07-18T06:36:39Z</time>
      </trkpt>
      <trkpt lat="44.73098" lon="6.84165">
        <ele>1679</ele>
        <time>2022-07-18T06:36:40Z</time>
      </trkpt>
      <trkpt lat="44.73098" lon="6.84168">
        <ele>1679.4</ele>
        <time>2022-07-18T06:36:41Z</time>
      </trkpt>
      <trkpt lat="44.73098" lon="6.8417">
        <ele>1679.6</ele>
        <time>2022-07-18T06:36:42Z</time>
      </trkpt>
      <trkpt lat="44.73099" lon="6.84173">
        <ele>1679.8</ele>
        <time>2022-07-18T06:36:43Z</time>
      </trkpt>
      <trkpt lat="44.73099" lon="6.84176">
        <ele>1680</ele>
        <time>2022-07-18T06:36:44Z</time>
      </trkpt>
      <trkpt lat="44.73099" lon="6.84178">
        <ele>1680.2</ele>
        <time>2022-07-18T06:36:45Z</time>
      </trkpt>
      <trkpt lat="44.731" lon="6.84181">
        <ele>1680.4</ele>
        <time>2022-07-18T06:36:46Z</time>
      </trkpt>
      <trkpt lat="44.731" lon="6.84184">
        <ele>1680.4</ele>
        <time>2022-07-18T06:36:47Z</time>
      </trkpt>
      <trkpt lat="44.73101" lon="6.84187">
        <ele>1681</ele>
        <time>2022-07-18T06:36:48Z</time>
      </trkpt>
      <trkpt lat="44.73101" lon="6.84189">
        <ele>1681.2</ele>
        <time>2022-07-18T06:36:49Z</time>
      </trkpt>
      <trkpt lat="44.73101" lon="6.84192">
        <ele>1681.4</ele>
        <time>2022-07-18T06:36:50Z</time>
      </trkpt>
      <trkpt lat="44.73101" lon="6.84195">
        <ele>1681.4</ele>
        <time>2022-07-18T06:36:51Z</time>
      </trkpt>
      <trkpt lat="44.73102" lon="6.84198">
        <ele>1681.6</ele>
        <time>2022-07-18T06:36:52Z</time>
      </trkpt>
      <trkpt lat="44.73102" lon="6.84201">
        <ele>1681.6</ele>
        <time>2022-07-18T06:36:53Z</time>
      </trkpt>
      <trkpt lat="44.73101" lon="6.84203">
        <ele>1681.8</ele>
        <time>2022-07-18T06:36:54Z</time>
      </trkpt>
      <trkpt lat="44.731" lon="6.84206">
        <ele>1681.8</ele>
        <time>2022-07-18T06:36:55Z</time>
      </trkpt>
      <trkpt lat="44.731" lon="6.84209">
        <ele>1682</ele>
        <time>2022-07-18T06:36:56Z</time>
      </trkpt>
      <trkpt lat="44.73099" lon="6.84211">
        <ele>1682</ele>
        <time>2022-07-18T06:36:57Z</time>
      </trkpt>
      <trkpt lat="44.73099" lon="6.84214">
        <ele>1682</ele>
        <time>2022-07-18T06:36:58Z</time>
      </trkpt>
      <trkpt lat="44.73098" lon="6.84217">
        <ele>1682</ele>
        <time>2022-07-18T06:36:59Z</time>
      </trkpt>
      <trkpt lat="44.73097" lon="6.84221">
        <ele>1682.4</ele>
        <time>2022-07-18T06:37:00Z</time>
      </trkpt>
      <trkpt lat="44.73096" lon="6.84225">
        <ele>1682.4</ele>
        <time>2022-07-18T06:37:01Z</time>
      </trkpt>
      <trkpt lat="44.73095" lon="6.84229">
        <ele>1682.4</ele>
        <time>2022-07-18T06:37:02Z</time>
      </trkpt>
      <trkpt lat="44.73094" lon="6.84233">
        <ele>1682.4</ele>
        <time>2022-07-18T06:37:03Z</time>
      </trkpt>
      <trkpt lat="44.73092" lon="6.84236">
        <ele>1682.4</ele>
        <time>2022-07-18T06:37:04Z</time>
      </trkpt>
      <trkpt lat="44.73091" lon="6.8424">
        <ele>1682.4</ele>
        <time>2022-07-18T06:37:05Z</time>
      </trkpt>
      <trkpt lat="44.73089" lon="6.84244">
        <ele>1682.4</ele>
        <time>2022-07-18T06:37:06Z</time>
      </trkpt>
      <trkpt lat="44.73087" lon="6.84248">
        <ele>1682.4</ele>
        <time>2022-07-18T06:37:07Z</time>
      </trkpt>
      <trkpt lat="44.73086" lon="6.84253">
        <ele>1682.4</ele>
        <time>2022-07-18T06:37:08Z</time>
      </trkpt>
      <trkpt lat="44.73084" lon="6.84257">
        <ele>1682</ele>
        <time>2022-07-18T06:37:09Z</time>
      </trkpt>
      <trkpt lat="44.73083" lon="6.84263">
        <ele>1682</ele>
        <time>2022-07-18T06:37:10Z</time>
      </trkpt>
      <trkpt lat="44.73081" lon="6.84269">
        <ele>1681.8</ele>
        <time>2022-07-18T06:37:11Z</time>
      </trkpt>
      <trkpt lat="44.73079" lon="6.84274">
        <ele>1681.8</ele>
        <time>2022-07-18T06:37:12Z</time>
      </trkpt>
      <trkpt lat="44.73077" lon="6.84277">
        <ele>1681.8</ele>
        <time>2022-07-18T06:37:13Z</time>
      </trkpt>
      <trkpt lat="44.73076" lon="6.8428">
        <ele>1682.2</ele>
        <time>2022-07-18T06:37:14Z</time>
      </trkpt>
      <trkpt lat="44.73075" lon="6.84282">
        <ele>1682.4</ele>
        <time>2022-07-18T06:37:15Z</time>
      </trkpt>
      <trkpt lat="44.73074" lon="6.84285">
        <ele>1682.8</ele>
        <time>2022-07-18T06:37:16Z</time>
      </trkpt>
      <trkpt lat="44.73074" lon="6.84288">
        <ele>1683.2</ele>
        <time>2022-07-18T06:37:17Z</time>
      </trkpt>
      <trkpt lat="44.73074" lon="6.84291">
        <ele>1683.4</ele>
        <time>2022-07-18T06:37:18Z</time>
      </trkpt>
      <trkpt lat="44.73073" lon="6.84294">
        <ele>1683.8</ele>
        <time>2022-07-18T06:37:19Z</time>
      </trkpt>
      <trkpt lat="44.73073" lon="6.84297">
        <ele>1684</ele>
        <time>2022-07-18T06:37:20Z</time>
      </trkpt>
      <trkpt lat="44.73074" lon="6.843">
        <ele>1684.4</ele>
        <time>2022-07-18T06:37:21Z</time>
      </trkpt>
      <trkpt lat="44.73074" lon="6.84302">
        <ele>1684.6</ele>
        <time>2022-07-18T06:37:22Z</time>
      </trkpt>
      <trkpt lat="44.73073" lon="6.84305">
        <ele>1685</ele>
        <time>2022-07-18T06:37:23Z</time>
      </trkpt>
      <trkpt lat="44.73073" lon="6.84308">
        <ele>1685.2</ele>
        <time>2022-07-18T06:37:24Z</time>
      </trkpt>
      <trkpt lat="44.73072" lon="6.84311">
        <ele>1685.6</ele>
        <time>2022-07-18T06:37:25Z</time>
      </trkpt>
      <trkpt lat="44.7307" lon="6.84314">
        <ele>1685.8</ele>
        <time>2022-07-18T06:37:26Z</time>
      </trkpt>
      <trkpt lat="44.73068" lon="6.84317">
        <ele>1686</ele>
        <time>2022-07-18T06:37:27Z</time>
      </trkpt>
      <trkpt lat="44.73067" lon="6.8432">
        <ele>1686.2</ele>
        <time>2022-07-18T06:37:28Z</time>
      </trkpt>
      <trkpt lat="44.73066" lon="6.84323">
        <ele>1686.4</ele>
        <time>2022-07-18T06:37:29Z</time>
      </trkpt>
      <trkpt lat="44.73065" lon="6.84326">
        <ele>1686.8</ele>
        <time>2022-07-18T06:37:30Z</time>
      </trkpt>
      <trkpt lat="44.73064" lon="6.84329">
        <ele>1687</ele>
        <time>2022-07-18T06:37:31Z</time>
      </trkpt>
      <trkpt lat="44.73062" lon="6.84332">
        <ele>1687</ele>
        <time>2022-07-18T06:37:32Z</time>
      </trkpt>
      <trkpt lat="44.73061" lon="6.84335">
        <ele>1687.2</ele>
        <time>2022-07-18T06:37:33Z</time>
      </trkpt>
      <trkpt lat="44.7306" lon="6.84338">
        <ele>1687.2</ele>
        <time>2022-07-18T06:37:34Z</time>
      </trkpt>
      <trkpt lat="44.73058" lon="6.84341">
        <ele>1687.4</ele>
        <time>2022-07-18T06:37:35Z</time>
      </trkpt>
      <trkpt lat="44.73057" lon="6.84344">
        <ele>1687.4</ele>
        <time>2022-07-18T06:37:36Z</time>
      </trkpt>
      <trkpt lat="44.73056" lon="6.84348">
        <ele>1687.8</ele>
        <time>2022-07-18T06:37:37Z</time>
      </trkpt>
      <trkpt lat="44.73055" lon="6.8435">
        <ele>1687.8</ele>
        <time>2022-07-18T06:37:38Z</time>
      </trkpt>
      <trkpt lat="44.73054" lon="6.84353">
        <ele>1688.2</ele>
        <time>2022-07-18T06:37:39Z</time>
      </trkpt>
      <trkpt lat="44.73053" lon="6.84356">
        <ele>1688.2</ele>
        <time>2022-07-18T06:37:40Z</time>
      </trkpt>
      <trkpt lat="44.73052" lon="6.84359">
        <ele>1688.6</ele>
        <time>2022-07-18T06:37:41Z</time>
      </trkpt>
      <trkpt lat="44.7305" lon="6.84361">
        <ele>1688.8</ele>
        <time>2022-07-18T06:37:42Z</time>
      </trkpt>
      <trkpt lat="44.73049" lon="6.84364">
        <ele>1689.2</ele>
        <time>2022-07-18T06:37:43Z</time>
      </trkpt>
      <trkpt lat="44.73048" lon="6.84367">
        <ele>1689.4</ele>
        <time>2022-07-18T06:37:44Z</time>
      </trkpt>
      <trkpt lat="44.73047" lon="6.8437">
        <ele>1689.6</ele>
        <time>2022-07-18T06:37:45Z</time>
      </trkpt>
      <trkpt lat="44.73046" lon="6.84373">
        <ele>1689.6</ele>
        <time>2022-07-18T06:37:46Z</time>
      </trkpt>
      <trkpt lat="44.73045" lon="6.84376">
        <ele>1690</ele>
        <time>2022-07-18T06:37:47Z</time>
      </trkpt>
      <trkpt lat="44.73044" lon="6.84379">
        <ele>1690</ele>
        <time>2022-07-18T06:37:48Z</time>
      </trkpt>
      <trkpt lat="44.73043" lon="6.84382">
        <ele>1690.4</ele>
        <time>2022-07-18T06:37:49Z</time>
      </trkpt>
      <trkpt lat="44.73042" lon="6.84385">
        <ele>1690.4</ele>
        <time>2022-07-18T06:37:50Z</time>
      </trkpt>
      <trkpt lat="44.73041" lon="6.84388">
        <ele>1690.8</ele>
        <time>2022-07-18T06:37:51Z</time>
      </trkpt>
      <trkpt lat="44.73039" lon="6.84391">
        <ele>1690.8</ele>
        <time>2022-07-18T06:37:52Z</time>
      </trkpt>
      <trkpt lat="44.73038" lon="6.84394">
        <ele>1691.2</ele>
        <time>2022-07-18T06:37:53Z</time>
      </trkpt>
      <trkpt lat="44.73036" lon="6.84397">
        <ele>1691.2</ele>
        <time>2022-07-18T06:37:54Z</time>
      </trkpt>
      <trkpt lat="44.73034" lon="6.844">
        <ele>1691.4</ele>
        <time>2022-07-18T06:37:55Z</time>
      </trkpt>
      <trkpt lat="44.73033" lon="6.84403">
        <ele>1691.4</ele>
        <time>2022-07-18T06:37:56Z</time>
      </trkpt>
      <trkpt lat="44.73031" lon="6.84405">
        <ele>1691.8</ele>
        <time>2022-07-18T06:37:57Z</time>
      </trkpt>
      <trkpt lat="44.7303" lon="6.84407">
        <ele>1692</ele>
        <time>2022-07-18T06:37:58Z</time>
      </trkpt>
      <trkpt lat="44.73028" lon="6.8441">
        <ele>1692</ele>
        <time>2022-07-18T06:37:59Z</time>
      </trkpt>
      <trkpt lat="44.73026" lon="6.84411">
        <ele>1692.4</ele>
        <time>2022-07-18T06:38:00Z</time>
      </trkpt>
      <trkpt lat="44.73024" lon="6.84413">
        <ele>1692.4</ele>
        <time>2022-07-18T06:38:01Z</time>
      </trkpt>
      <trkpt lat="44.73023" lon="6.84415">
        <ele>1692.8</ele>
        <time>2022-07-18T06:38:02Z</time>
      </trkpt>
      <trkpt lat="44.73021" lon="6.84416">
        <ele>1692.8</ele>
        <time>2022-07-18T06:38:03Z</time>
      </trkpt>
      <trkpt lat="44.73018" lon="6.84418">
        <ele>1693</ele>
        <time>2022-07-18T06:38:04Z</time>
      </trkpt>
      <trkpt lat="44.73016" lon="6.84419">
        <ele>1693.2</ele>
        <time>2022-07-18T06:38:05Z</time>
      </trkpt>
      <trkpt lat="44.73014" lon="6.84421">
        <ele>1693.4</ele>
        <time>2022-07-18T06:38:06Z</time>
      </trkpt>
      <trkpt lat="44.73012" lon="6.84422">
        <ele>1693.6</ele>
        <time>2022-07-18T06:38:07Z</time>
      </trkpt>
      <trkpt lat="44.7301" lon="6.84424">
        <ele>1694</ele>
        <time>2022-07-18T06:38:08Z</time>
      </trkpt>
      <trkpt lat="44.73008" lon="6.84425">
        <ele>1694.2</ele>
        <time>2022-07-18T06:38:09Z</time>
      </trkpt>
      <trkpt lat="44.73007" lon="6.84427">
        <ele>1694.4</ele>
        <time>2022-07-18T06:38:10Z</time>
      </trkpt>
      <trkpt lat="44.73005" lon="6.84428">
        <ele>1694.6</ele>
        <time>2022-07-18T06:38:11Z</time>
      </trkpt>
      <trkpt lat="44.73003" lon="6.8443">
        <ele>1694.8</ele>
        <time>2022-07-18T06:38:12Z</time>
      </trkpt>
      <trkpt lat="44.73001" lon="6.84431">
        <ele>1694.8</ele>
        <time>2022-07-18T06:38:13Z</time>
      </trkpt>
      <trkpt lat="44.72999" lon="6.84433">
        <ele>1695.2</ele>
        <time>2022-07-18T06:38:14Z</time>
      </trkpt>
      <trkpt lat="44.72997" lon="6.84435">
        <ele>1695.2</ele>
        <time>2022-07-18T06:38:15Z</time>
      </trkpt>
      <trkpt lat="44.72995" lon="6.84436">
        <ele>1695.6</ele>
        <time>2022-07-18T06:38:16Z</time>
      </trkpt>
      <trkpt lat="44.72993" lon="6.84438">
        <ele>1695.8</ele>
        <time>2022-07-18T06:38:17Z</time>
      </trkpt>
      <trkpt lat="44.72992" lon="6.8444">
        <ele>1696</ele>
        <time>2022-07-18T06:38:18Z</time>
      </trkpt>
      <trkpt lat="44.7299" lon="6.84442">
        <ele>1696</ele>
        <time>2022-07-18T06:38:19Z</time>
      </trkpt>
      <trkpt lat="44.72989" lon="6.84444">
        <ele>1696.4</ele>
        <time>2022-07-18T06:38:20Z</time>
      </trkpt>
      <trkpt lat="44.72987" lon="6.84447">
        <ele>1696.4</ele>
        <time>2022-07-18T06:38:21Z</time>
      </trkpt>
      <trkpt lat="44.72985" lon="6.84449">
        <ele>1696.8</ele>
        <time>2022-07-18T06:38:22Z</time>
      </trkpt>
      <trkpt lat="44.72984" lon="6.84452">
        <ele>1696.8</ele>
        <time>2022-07-18T06:38:23Z</time>
      </trkpt>
      <trkpt lat="44.72983" lon="6.84455">
        <ele>1697.2</ele>
        <time>2022-07-18T06:38:24Z</time>
      </trkpt>
      <trkpt lat="44.72982" lon="6.84458">
        <ele>1697.2</ele>
        <time>2022-07-18T06:38:25Z</time>
      </trkpt>
      <trkpt lat="44.7298" lon="6.84461">
        <ele>1697.4</ele>
        <time>2022-07-18T06:38:26Z</time>
      </trkpt>
      <trkpt lat="44.72979" lon="6.84464">
        <ele>1697.4</ele>
        <time>2022-07-18T06:38:27Z</time>
      </trkpt>
      <trkpt lat="44.72978" lon="6.84467">
        <ele>1697.6</ele>
        <time>2022-07-18T06:38:28Z</time>
      </trkpt>
      <trkpt lat="44.72976" lon="6.8447">
        <ele>1697.6</ele>
        <time>2022-07-18T06:38:29Z</time>
      </trkpt>
      <trkpt lat="44.72975" lon="6.84473">
        <ele>1698</ele>
        <time>2022-07-18T06:38:30Z</time>
      </trkpt>
      <trkpt lat="44.72974" lon="6.84476">
        <ele>1698</ele>
        <time>2022-07-18T06:38:31Z</time>
      </trkpt>
      <trkpt lat="44.72973" lon="6.84479">
        <ele>1698.2</ele>
        <time>2022-07-18T06:38:32Z</time>
      </trkpt>
      <trkpt lat="44.72972" lon="6.84482">
        <ele>1698.4</ele>
        <time>2022-07-18T06:38:33Z</time>
      </trkpt>
      <trkpt lat="44.72971" lon="6.84486">
        <ele>1698.4</ele>
        <time>2022-07-18T06:38:34Z</time>
      </trkpt>
      <trkpt lat="44.72969" lon="6.84489">
        <ele>1698.8</ele>
        <time>2022-07-18T06:38:35Z</time>
      </trkpt>
      <trkpt lat="44.72968" lon="6.84492">
        <ele>1698.8</ele>
        <time>2022-07-18T06:38:36Z</time>
      </trkpt>
      <trkpt lat="44.72967" lon="6.84495">
        <ele>1699.2</ele>
        <time>2022-07-18T06:38:37Z</time>
      </trkpt>
      <trkpt lat="44.72966" lon="6.84498">
        <ele>1699.2</ele>
        <time>2022-07-18T06:38:38Z</time>
      </trkpt>
      <trkpt lat="44.72965" lon="6.84501">
        <ele>1699.4</ele>
        <time>2022-07-18T06:38:39Z</time>
      </trkpt>
      <trkpt lat="44.72964" lon="6.84504">
        <ele>1699.4</ele>
        <time>2022-07-18T06:38:40Z</time>
      </trkpt>
      <trkpt lat="44.72962" lon="6.84507">
        <ele>1699.6</ele>
        <time>2022-07-18T06:38:41Z</time>
      </trkpt>
      <trkpt lat="44.72961" lon="6.8451">
        <ele>1699.6</ele>
        <time>2022-07-18T06:38:42Z</time>
      </trkpt>
      <trkpt lat="44.7296" lon="6.84513">
        <ele>1699.6</ele>
        <time>2022-07-18T06:38:43Z</time>
      </trkpt>
      <trkpt lat="44.72958" lon="6.84515">
        <ele>1700</ele>
        <time>2022-07-18T06:38:44Z</time>
      </trkpt>
      <trkpt lat="44.72956" lon="6.84517">
        <ele>1700</ele>
        <time>2022-07-18T06:38:45Z</time>
      </trkpt>
      <trkpt lat="44.72954" lon="6.8452">
        <ele>1700.2</ele>
        <time>2022-07-18T06:38:46Z</time>
      </trkpt>
      <trkpt lat="44.72953" lon="6.84522">
        <ele>1700.2</ele>
        <time>2022-07-18T06:38:47Z</time>
      </trkpt>
      <trkpt lat="44.72951" lon="6.84524">
        <ele>1700.6</ele>
        <time>2022-07-18T06:38:48Z</time>
      </trkpt>
      <trkpt lat="44.72949" lon="6.84527">
        <ele>1700.6</ele>
        <time>2022-07-18T06:38:49Z</time>
      </trkpt>
      <trkpt lat="44.72947" lon="6.84529">
        <ele>1701.2</ele>
        <time>2022-07-18T06:38:50Z</time>
      </trkpt>
      <trkpt lat="44.72946" lon="6.84531">
        <ele>1701.2</ele>
        <time>2022-07-18T06:38:51Z</time>
      </trkpt>
      <trkpt lat="44.72944" lon="6.84534">
        <ele>1701.6</ele>
        <time>2022-07-18T06:38:52Z</time>
      </trkpt>
      <trkpt lat="44.72942" lon="6.84536">
        <ele>1701.6</ele>
        <time>2022-07-18T06:38:53Z</time>
      </trkpt>
      <trkpt lat="44.7294" lon="6.84538">
        <ele>1702</ele>
        <time>2022-07-18T06:38:54Z</time>
      </trkpt>
      <trkpt lat="44.72937" lon="6.8454">
        <ele>1702</ele>
        <time>2022-07-18T06:38:55Z</time>
      </trkpt>
      <trkpt lat="44.72935" lon="6.84542">
        <ele>1702.4</ele>
        <time>2022-07-18T06:38:56Z</time>
      </trkpt>
      <trkpt lat="44.72933" lon="6.84544">
        <ele>1702.4</ele>
        <time>2022-07-18T06:38:57Z</time>
      </trkpt>
      <trkpt lat="44.72931" lon="6.84546">
        <ele>1702.6</ele>
        <time>2022-07-18T06:38:58Z</time>
      </trkpt>
      <trkpt lat="44.72929" lon="6.84549">
        <ele>1702.6</ele>
        <time>2022-07-18T06:38:59Z</time>
      </trkpt>
      <trkpt lat="44.72927" lon="6.84551">
        <ele>1702.8</ele>
        <time>2022-07-18T06:39:00Z</time>
      </trkpt>
      <trkpt lat="44.72925" lon="6.84553">
        <ele>1702.8</ele>
        <time>2022-07-18T06:39:01Z</time>
      </trkpt>
      <trkpt lat="44.72922" lon="6.84555">
        <ele>1703</ele>
        <time>2022-07-18T06:39:02Z</time>
      </trkpt>
      <trkpt lat="44.7292" lon="6.84557">
        <ele>1703</ele>
        <time>2022-07-18T06:39:03Z</time>
      </trkpt>
      <trkpt lat="44.72919" lon="6.84559">
        <ele>1703.4</ele>
        <time>2022-07-18T06:39:04Z</time>
      </trkpt>
      <trkpt lat="44.72917" lon="6.84562">
        <ele>1703.4</ele>
        <time>2022-07-18T06:39:05Z</time>
      </trkpt>
      <trkpt lat="44.72915" lon="6.84564">
        <ele>1703.8</ele>
        <time>2022-07-18T06:39:06Z</time>
      </trkpt>
      <trkpt lat="44.72913" lon="6.84566">
        <ele>1703.8</ele>
        <time>2022-07-18T06:39:07Z</time>
      </trkpt>
      <trkpt lat="44.72911" lon="6.84568">
        <ele>1704.2</ele>
        <time>2022-07-18T06:39:08Z</time>
      </trkpt>
      <trkpt lat="44.72909" lon="6.8457">
        <ele>1704.2</ele>
        <time>2022-07-18T06:39:09Z</time>
      </trkpt>
      <trkpt lat="44.72907" lon="6.84573">
        <ele>1704.4</ele>
        <time>2022-07-18T06:39:10Z</time>
      </trkpt>
      <trkpt lat="44.72906" lon="6.84575">
        <ele>1704.4</ele>
        <time>2022-07-18T06:39:11Z</time>
      </trkpt>
      <trkpt lat="44.72904" lon="6.84578">
        <ele>1704.6</ele>
        <time>2022-07-18T06:39:12Z</time>
      </trkpt>
      <trkpt lat="44.72903" lon="6.84581">
        <ele>1704.6</ele>
        <time>2022-07-18T06:39:13Z</time>
      </trkpt>
      <trkpt lat="44.72901" lon="6.84584">
        <ele>1704.8</ele>
        <time>2022-07-18T06:39:14Z</time>
      </trkpt>
      <trkpt lat="44.729" lon="6.84587">
        <ele>1704.8</ele>
        <time>2022-07-18T06:39:15Z</time>
      </trkpt>
      <trkpt lat="44.72899" lon="6.8459">
        <ele>1705</ele>
        <time>2022-07-18T06:39:16Z</time>
      </trkpt>
      <trkpt lat="44.72897" lon="6.84593">
        <ele>1705.4</ele>
        <time>2022-07-18T06:39:17Z</time>
      </trkpt>
      <trkpt lat="44.72896" lon="6.84595">
        <ele>1705.6</ele>
        <time>2022-07-18T06:39:18Z</time>
      </trkpt>
      <trkpt lat="44.72895" lon="6.84598">
        <ele>1705.6</ele>
        <time>2022-07-18T06:39:19Z</time>
      </trkpt>
      <trkpt lat="44.72894" lon="6.84602">
        <ele>1705.8</ele>
        <time>2022-07-18T06:39:20Z</time>
      </trkpt>
      <trkpt lat="44.72893" lon="6.84605">
        <ele>1705.8</ele>
        <time>2022-07-18T06:39:21Z</time>
      </trkpt>
      <trkpt lat="44.72891" lon="6.84608">
        <ele>1706.2</ele>
        <time>2022-07-18T06:39:22Z</time>
      </trkpt>
      <trkpt lat="44.7289" lon="6.84611">
        <ele>1706.4</ele>
        <time>2022-07-18T06:39:23Z</time>
      </trkpt>
      <trkpt lat="44.72889" lon="6.84614">
        <ele>1706.4</ele>
        <time>2022-07-18T06:39:24Z</time>
      </trkpt>
      <trkpt lat="44.72888" lon="6.84617">
        <ele>1706.8</ele>
        <time>2022-07-18T06:39:25Z</time>
      </trkpt>
      <trkpt lat="44.72887" lon="6.8462">
        <ele>1706.8</ele>
        <time>2022-07-18T06:39:26Z</time>
      </trkpt>
      <trkpt lat="44.72886" lon="6.84623">
        <ele>1707</ele>
        <time>2022-07-18T06:39:27Z</time>
      </trkpt>
      <trkpt lat="44.72885" lon="6.84626">
        <ele>1707</ele>
        <time>2022-07-18T06:39:28Z</time>
      </trkpt>
      <trkpt lat="44.72883" lon="6.84629">
        <ele>1707.4</ele>
        <time>2022-07-18T06:39:29Z</time>
      </trkpt>
      <trkpt lat="44.72882" lon="6.84632">
        <ele>1707.4</ele>
        <time>2022-07-18T06:39:30Z</time>
      </trkpt>
      <trkpt lat="44.72881" lon="6.84634">
        <ele>1707.6</ele>
        <time>2022-07-18T06:39:31Z</time>
      </trkpt>
      <trkpt lat="44.7288" lon="6.84637">
        <ele>1707.6</ele>
        <time>2022-07-18T06:39:32Z</time>
      </trkpt>
      <trkpt lat="44.72878" lon="6.8464">
        <ele>1708</ele>
        <time>2022-07-18T06:39:33Z</time>
      </trkpt>
      <trkpt lat="44.72877" lon="6.84642">
        <ele>1708</ele>
        <time>2022-07-18T06:39:34Z</time>
      </trkpt>
      <trkpt lat="44.72875" lon="6.84645">
        <ele>1708.2</ele>
        <time>2022-07-18T06:39:35Z</time>
      </trkpt>
      <trkpt lat="44.72874" lon="6.84647">
        <ele>1708.4</ele>
        <time>2022-07-18T06:39:36Z</time>
      </trkpt>
      <trkpt lat="44.72872" lon="6.8465">
        <ele>1708.4</ele>
        <time>2022-07-18T06:39:37Z</time>
      </trkpt>
      <trkpt lat="44.72871" lon="6.84652">
        <ele>1708.8</ele>
        <time>2022-07-18T06:39:38Z</time>
      </trkpt>
      <trkpt lat="44.72869" lon="6.84655">
        <ele>1708.8</ele>
        <time>2022-07-18T06:39:39Z</time>
      </trkpt>
      <trkpt lat="44.72868" lon="6.84657">
        <ele>1708.8</ele>
        <time>2022-07-18T06:39:40Z</time>
      </trkpt>
      <trkpt lat="44.72866" lon="6.8466">
        <ele>1709</ele>
        <time>2022-07-18T06:39:41Z</time>
      </trkpt>
      <trkpt lat="44.72865" lon="6.84662">
        <ele>1709</ele>
        <time>2022-07-18T06:39:42Z</time>
      </trkpt>
      <trkpt lat="44.72863" lon="6.84665">
        <ele>1709.4</ele>
        <time>2022-07-18T06:39:43Z</time>
      </trkpt>
      <trkpt lat="44.72862" lon="6.84668">
        <ele>1709.4</ele>
        <time>2022-07-18T06:39:44Z</time>
      </trkpt>
      <trkpt lat="44.72861" lon="6.84671">
        <ele>1709.6</ele>
        <time>2022-07-18T06:39:45Z</time>
      </trkpt>
      <trkpt lat="44.72861" lon="6.84674">
        <ele>1709.6</ele>
        <time>2022-07-18T06:39:46Z</time>
      </trkpt>
      <trkpt lat="44.72861" lon="6.84677">
        <ele>1710.2</ele>
        <time>2022-07-18T06:39:47Z</time>
      </trkpt>
      <trkpt lat="44.72862" lon="6.84679">
        <ele>1710.4</ele>
        <time>2022-07-18T06:39:48Z</time>
      </trkpt>
      <trkpt lat="44.72863" lon="6.84682">
        <ele>1710.4</ele>
        <time>2022-07-18T06:39:49Z</time>
      </trkpt>
      <trkpt lat="44.72865" lon="6.84685">
        <ele>1710.6</ele>
        <time>2022-07-18T06:39:50Z</time>
      </trkpt>
      <trkpt lat="44.72866" lon="6.84686">
        <ele>1710.6</ele>
        <time>2022-07-18T06:39:51Z</time>
      </trkpt>
      <trkpt lat="44.72869" lon="6.84687">
        <ele>1711</ele>
        <time>2022-07-18T06:39:52Z</time>
      </trkpt>
      <trkpt lat="44.7287" lon="6.84687">
        <ele>1711</ele>
        <time>2022-07-18T06:39:53Z</time>
      </trkpt>
      <trkpt lat="44.72872" lon="6.84687">
        <ele>1711.2</ele>
        <time>2022-07-18T06:39:54Z</time>
      </trkpt>
      <trkpt lat="44.72875" lon="6.84685">
        <ele>1711.2</ele>
        <time>2022-07-18T06:39:55Z</time>
      </trkpt>
      <trkpt lat="44.72877" lon="6.84683">
        <ele>1711.4</ele>
        <time>2022-07-18T06:39:56Z</time>
      </trkpt>
      <trkpt lat="44.72879" lon="6.84681">
        <ele>1711.4</ele>
        <time>2022-07-18T06:39:57Z</time>
      </trkpt>
      <trkpt lat="44.72881" lon="6.84678">
        <ele>1711.4</ele>
        <time>2022-07-18T06:39:58Z</time>
      </trkpt>
      <trkpt lat="44.72883" lon="6.84676">
        <ele>1711.4</ele>
        <time>2022-07-18T06:39:59Z</time>
      </trkpt>
      <trkpt lat="44.72885" lon="6.84673">
        <ele>1711.8</ele>
        <time>2022-07-18T06:40:00Z</time>
      </trkpt>
      <trkpt lat="44.72887" lon="6.84671">
        <ele>1712</ele>
        <time>2022-07-18T06:40:01Z</time>
      </trkpt>
      <trkpt lat="44.72889" lon="6.84669">
        <ele>1712</ele>
        <time>2022-07-18T06:40:02Z</time>
      </trkpt>
      <trkpt lat="44.72891" lon="6.84667">
        <ele>1712.4</ele>
        <time>2022-07-18T06:40:03Z</time>
      </trkpt>
      <trkpt lat="44.72894" lon="6.84665">
        <ele>1712.4</ele>
        <time>2022-07-18T06:40:04Z</time>
      </trkpt>
      <trkpt lat="44.72896" lon="6.84663">
        <ele>1712.6</ele>
        <time>2022-07-18T06:40:05Z</time>
      </trkpt>
      <trkpt lat="44.72897" lon="6.84661">
        <ele>1712.6</ele>
        <time>2022-07-18T06:40:06Z</time>
      </trkpt>
      <trkpt lat="44.72899" lon="6.84659">
        <ele>1713</ele>
        <time>2022-07-18T06:40:07Z</time>
      </trkpt>
      <trkpt lat="44.72901" lon="6.84657">
        <ele>1713.4</ele>
        <time>2022-07-18T06:40:08Z</time>
      </trkpt>
      <trkpt lat="44.72904" lon="6.84656">
        <ele>1713.4</ele>
        <time>2022-07-18T06:40:09Z</time>
      </trkpt>
      <trkpt lat="44.72906" lon="6.84654">
        <ele>1713.8</ele>
        <time>2022-07-18T06:40:10Z</time>
      </trkpt>
      <trkpt lat="44.72908" lon="6.84653">
        <ele>1714</ele>
        <time>2022-07-18T06:40:11Z</time>
      </trkpt>
      <trkpt lat="44.7291" lon="6.84651">
        <ele>1714</ele>
        <time>2022-07-18T06:40:12Z</time>
      </trkpt>
      <trkpt lat="44.72912" lon="6.84649">
        <ele>1714.4</ele>
        <time>2022-07-18T06:40:13Z</time>
      </trkpt>
      <trkpt lat="44.72914" lon="6.84647">
        <ele>1714.4</ele>
        <time>2022-07-18T06:40:14Z</time>
      </trkpt>
      <trkpt lat="44.72916" lon="6.84645">
        <ele>1714.8</ele>
        <time>2022-07-18T06:40:15Z</time>
      </trkpt>
      <trkpt lat="44.72918" lon="6.84644">
        <ele>1715</ele>
        <time>2022-07-18T06:40:16Z</time>
      </trkpt>
      <trkpt lat="44.72921" lon="6.84643">
        <ele>1715.2</ele>
        <time>2022-07-18T06:40:17Z</time>
      </trkpt>
      <trkpt lat="44.72923" lon="6.84641">
        <ele>1715.4</ele>
        <time>2022-07-18T06:40:18Z</time>
      </trkpt>
      <trkpt lat="44.72925" lon="6.8464">
        <ele>1715.4</ele>
        <time>2022-07-18T06:40:19Z</time>
      </trkpt>
      <trkpt lat="44.72927" lon="6.84639">
        <ele>1715.8</ele>
        <time>2022-07-18T06:40:20Z</time>
      </trkpt>
      <trkpt lat="44.72929" lon="6.84638">
        <ele>1716</ele>
        <time>2022-07-18T06:40:21Z</time>
      </trkpt>
      <trkpt lat="44.72931" lon="6.84636">
        <ele>1716</ele>
        <time>2022-07-18T06:40:22Z</time>
      </trkpt>
      <trkpt lat="44.72934" lon="6.84635">
        <ele>1716.4</ele>
        <time>2022-07-18T06:40:23Z</time>
      </trkpt>
      <trkpt lat="44.72936" lon="6.84634">
        <ele>1716.4</ele>
        <time>2022-07-18T06:40:24Z</time>
      </trkpt>
      <trkpt lat="44.72938" lon="6.84632">
        <ele>1716.6</ele>
        <time>2022-07-18T06:40:25Z</time>
      </trkpt>
      <trkpt lat="44.72941" lon="6.84631">
        <ele>1716.6</ele>
        <time>2022-07-18T06:40:26Z</time>
      </trkpt>
      <trkpt lat="44.72943" lon="6.84629">
        <ele>1717</ele>
        <time>2022-07-18T06:40:27Z</time>
      </trkpt>
      <trkpt lat="44.72946" lon="6.84628">
        <ele>1717</ele>
        <time>2022-07-18T06:40:28Z</time>
      </trkpt>
      <trkpt lat="44.72948" lon="6.84626">
        <ele>1717.2</ele>
        <time>2022-07-18T06:40:29Z</time>
      </trkpt>
      <trkpt lat="44.7295" lon="6.84625">
        <ele>1717.4</ele>
        <time>2022-07-18T06:40:30Z</time>
      </trkpt>
      <trkpt lat="44.72952" lon="6.84624">
        <ele>1717.6</ele>
        <time>2022-07-18T06:40:31Z</time>
      </trkpt>
      <trkpt lat="44.72954" lon="6.84623">
        <ele>1718</ele>
        <time>2022-07-18T06:40:32Z</time>
      </trkpt>
      <trkpt lat="44.72956" lon="6.84621">
        <ele>1718</ele>
        <time>2022-07-18T06:40:33Z</time>
      </trkpt>
      <trkpt lat="44.72958" lon="6.84619">
        <ele>1718.2</ele>
        <time>2022-07-18T06:40:34Z</time>
      </trkpt>
      <trkpt lat="44.7296" lon="6.84618">
        <ele>1718.2</ele>
        <time>2022-07-18T06:40:35Z</time>
      </trkpt>
      <trkpt lat="44.72962" lon="6.84616">
        <ele>1718.6</ele>
        <time>2022-07-18T06:40:36Z</time>
      </trkpt>
      <trkpt lat="44.72965" lon="6.84615">
        <ele>1718.6</ele>
        <time>2022-07-18T06:40:37Z</time>
      </trkpt>
      <trkpt lat="44.72967" lon="6.84613">
        <ele>1718.8</ele>
        <time>2022-07-18T06:40:38Z</time>
      </trkpt>
      <trkpt lat="44.72969" lon="6.84612">
        <ele>1718.8</ele>
        <time>2022-07-18T06:40:39Z</time>
      </trkpt>
      <trkpt lat="44.72971" lon="6.8461">
        <ele>1719.2</ele>
        <time>2022-07-18T06:40:40Z</time>
      </trkpt>
      <trkpt lat="44.72973" lon="6.84609">
        <ele>1719.2</ele>
        <time>2022-07-18T06:40:41Z</time>
      </trkpt>
      <trkpt lat="44.72975" lon="6.84608">
        <ele>1719.6</ele>
        <time>2022-07-18T06:40:42Z</time>
      </trkpt>
      <trkpt lat="44.72978" lon="6.84608">
        <ele>1719.8</ele>
        <time>2022-07-18T06:40:43Z</time>
      </trkpt>
      <trkpt lat="44.72979" lon="6.8461">
        <ele>1719.8</ele>
        <time>2022-07-18T06:40:44Z</time>
      </trkpt>
      <trkpt lat="44.7298" lon="6.84613">
        <ele>1720.4</ele>
        <time>2022-07-18T06:40:45Z</time>
      </trkpt>
      <trkpt lat="44.7298" lon="6.84616">
        <ele>1720.6</ele>
        <time>2022-07-18T06:40:46Z</time>
      </trkpt>
      <trkpt lat="44.72979" lon="6.84619">
        <ele>1720.8</ele>
        <time>2022-07-18T06:40:47Z</time>
      </trkpt>
      <trkpt lat="44.72978" lon="6.84622">
        <ele>1721</ele>
        <time>2022-07-18T06:40:48Z</time>
      </trkpt>
      <trkpt lat="44.72976" lon="6.84624">
        <ele>1721.2</ele>
        <time>2022-07-18T06:40:49Z</time>
      </trkpt>
      <trkpt lat="44.72975" lon="6.84627">
        <ele>1721.4</ele>
        <time>2022-07-18T06:40:50Z</time>
      </trkpt>
      <trkpt lat="44.72973" lon="6.8463">
        <ele>1721.8</ele>
        <time>2022-07-18T06:40:51Z</time>
      </trkpt>
      <trkpt lat="44.72971" lon="6.84632">
        <ele>1721.8</ele>
        <time>2022-07-18T06:40:52Z</time>
      </trkpt>
      <trkpt lat="44.7297" lon="6.84635">
        <ele>1722</ele>
        <time>2022-07-18T06:40:53Z</time>
      </trkpt>
      <trkpt lat="44.72968" lon="6.84638">
        <ele>1722</ele>
        <time>2022-07-18T06:40:54Z</time>
      </trkpt>
      <trkpt lat="44.72967" lon="6.84641">
        <ele>1722.4</ele>
        <time>2022-07-18T06:40:55Z</time>
      </trkpt>
      <trkpt lat="44.72965" lon="6.84644">
        <ele>1722.6</ele>
        <time>2022-07-18T06:40:56Z</time>
      </trkpt>
      <trkpt lat="44.72964" lon="6.84646">
        <ele>1722.6</ele>
        <time>2022-07-18T06:40:57Z</time>
      </trkpt>
      <trkpt lat="44.72962" lon="6.84649">
        <ele>1723</ele>
        <time>2022-07-18T06:40:58Z</time>
      </trkpt>
      <trkpt lat="44.72961" lon="6.84651">
        <ele>1723</ele>
        <time>2022-07-18T06:40:59Z</time>
      </trkpt>
      <trkpt lat="44.72959" lon="6.84654">
        <ele>1723.4</ele>
        <time>2022-07-18T06:41:00Z</time>
      </trkpt>
      <trkpt lat="44.72958" lon="6.84657">
        <ele>1723.4</ele>
        <time>2022-07-18T06:41:01Z</time>
      </trkpt>
      <trkpt lat="44.72956" lon="6.84659">
        <ele>1723.8</ele>
        <time>2022-07-18T06:41:02Z</time>
      </trkpt>
      <trkpt lat="44.72955" lon="6.84662">
        <ele>1723.8</ele>
        <time>2022-07-18T06:41:03Z</time>
      </trkpt>
      <trkpt lat="44.72953" lon="6.84665">
        <ele>1724</ele>
        <time>2022-07-18T06:41:04Z</time>
      </trkpt>
      <trkpt lat="44.72951" lon="6.84667">
        <ele>1724</ele>
        <time>2022-07-18T06:41:05Z</time>
      </trkpt>
      <trkpt lat="44.7295" lon="6.8467">
        <ele>1724.4</ele>
        <time>2022-07-18T06:41:06Z</time>
      </trkpt>
      <trkpt lat="44.72948" lon="6.84673">
        <ele>1724.4</ele>
        <time>2022-07-18T06:41:07Z</time>
      </trkpt>
      <trkpt lat="44.72946" lon="6.84675">
        <ele>1724.8</ele>
        <time>2022-07-18T06:41:08Z</time>
      </trkpt>
      <trkpt lat="44.72945" lon="6.84678">
        <ele>1725</ele>
        <time>2022-07-18T06:41:09Z</time>
      </trkpt>
      <trkpt lat="44.72943" lon="6.84681">
        <ele>1725</ele>
        <time>2022-07-18T06:41:10Z</time>
      </trkpt>
      <trkpt lat="44.72941" lon="6.84683">
        <ele>1725.2</ele>
        <time>2022-07-18T06:41:11Z</time>
      </trkpt>
      <trkpt lat="44.7294" lon="6.84686">
        <ele>1725.2</ele>
        <time>2022-07-18T06:41:12Z</time>
      </trkpt>
      <trkpt lat="44.72938" lon="6.84689">
        <ele>1725.6</ele>
        <time>2022-07-18T06:41:13Z</time>
      </trkpt>
      <trkpt lat="44.72937" lon="6.84692">
        <ele>1725.8</ele>
        <time>2022-07-18T06:41:14Z</time>
      </trkpt>
      <trkpt lat="44.72935" lon="6.84694">
        <ele>1726.2</ele>
        <time>2022-07-18T06:41:15Z</time>
      </trkpt>
      <trkpt lat="44.72934" lon="6.84697">
        <ele>1726.4</ele>
        <time>2022-07-18T06:41:16Z</time>
      </trkpt>
      <trkpt lat="44.72932" lon="6.84699">
        <ele>1726.4</ele>
        <time>2022-07-18T06:41:17Z</time>
      </trkpt>
      <trkpt lat="44.7293" lon="6.84702">
        <ele>1726.6</ele>
        <time>2022-07-18T06:41:18Z</time>
      </trkpt>
      <trkpt lat="44.72929" lon="6.84704">
        <ele>1726.8</ele>
        <time>2022-07-18T06:41:19Z</time>
      </trkpt>
      <trkpt lat="44.72927" lon="6.84707">
        <ele>1726.8</ele>
        <time>2022-07-18T06:41:20Z</time>
      </trkpt>
      <trkpt lat="44.72926" lon="6.84709">
        <ele>1727.2</ele>
        <time>2022-07-18T06:41:21Z</time>
      </trkpt>
      <trkpt lat="44.72924" lon="6.84712">
        <ele>1727.2</ele>
        <time>2022-07-18T06:41:22Z</time>
      </trkpt>
      <trkpt lat="44.72923" lon="6.84714">
        <ele>1727.6</ele>
        <time>2022-07-18T06:41:23Z</time>
      </trkpt>
      <trkpt lat="44.72921" lon="6.84717">
        <ele>1727.8</ele>
        <time>2022-07-18T06:41:24Z</time>
      </trkpt>
      <trkpt lat="44.7292" lon="6.84719">
        <ele>1727.8</ele>
        <time>2022-07-18T06:41:25Z</time>
      </trkpt>
      <trkpt lat="44.72918" lon="6.84722">
        <ele>1728.2</ele>
        <time>2022-07-18T06:41:26Z</time>
      </trkpt>
      <trkpt lat="44.72917" lon="6.84724">
        <ele>1728.4</ele>
        <time>2022-07-18T06:41:27Z</time>
      </trkpt>
      <trkpt lat="44.72916" lon="6.84726">
        <ele>1728.4</ele>
        <time>2022-07-18T06:41:28Z</time>
      </trkpt>
      <trkpt lat="44.72914" lon="6.84729">
        <ele>1728.8</ele>
        <time>2022-07-18T06:41:29Z</time>
      </trkpt>
      <trkpt lat="44.72913" lon="6.84731">
        <ele>1728.8</ele>
        <time>2022-07-18T06:41:30Z</time>
      </trkpt>
      <trkpt lat="44.72912" lon="6.84734">
        <ele>1729.2</ele>
        <time>2022-07-18T06:41:31Z</time>
      </trkpt>
      <trkpt lat="44.7291" lon="6.84736">
        <ele>1729.4</ele>
        <time>2022-07-18T06:41:32Z</time>
      </trkpt>
      <trkpt lat="44.72909" lon="6.84738">
        <ele>1729.4</ele>
        <time>2022-07-18T06:41:33Z</time>
      </trkpt>
      <trkpt lat="44.72907" lon="6.8474">
        <ele>1729.6</ele>
        <time>2022-07-18T06:41:34Z</time>
      </trkpt>
      <trkpt lat="44.72906" lon="6.84742">
        <ele>1729.6</ele>
        <time>2022-07-18T06:41:35Z</time>
      </trkpt>
      <trkpt lat="44.72905" lon="6.84745">
        <ele>1730</ele>
        <time>2022-07-18T06:41:36Z</time>
      </trkpt>
      <trkpt lat="44.72903" lon="6.84747">
        <ele>1730.2</ele>
        <time>2022-07-18T06:41:37Z</time>
      </trkpt>
      <trkpt lat="44.72902" lon="6.84749">
        <ele>1730.2</ele>
        <time>2022-07-18T06:41:38Z</time>
      </trkpt>
      <trkpt lat="44.729" lon="6.84751">
        <ele>1730.4</ele>
        <time>2022-07-18T06:41:39Z</time>
      </trkpt>
      <trkpt lat="44.72899" lon="6.84753">
        <ele>1730.4</ele>
        <time>2022-07-18T06:41:40Z</time>
      </trkpt>
      <trkpt lat="44.72897" lon="6.84755">
        <ele>1730.8</ele>
        <time>2022-07-18T06:41:41Z</time>
      </trkpt>
      <trkpt lat="44.72896" lon="6.84757">
        <ele>1730.8</ele>
        <time>2022-07-18T06:41:42Z</time>
      </trkpt>
      <trkpt lat="44.72894" lon="6.84759">
        <ele>1731</ele>
        <time>2022-07-18T06:41:43Z</time>
      </trkpt>
      <trkpt lat="44.72893" lon="6.84762">
        <ele>1731</ele>
        <time>2022-07-18T06:41:44Z</time>
      </trkpt>
      <trkpt lat="44.72891" lon="6.84764">
        <ele>1731.4</ele>
        <time>2022-07-18T06:41:46Z</time>
      </trkpt>
      <trkpt lat="44.7289" lon="6.84766">
        <ele>1731.8</ele>
        <time>2022-07-18T06:41:47Z</time>
      </trkpt>
      <trkpt lat="44.72888" lon="6.84768">
        <ele>1731.8</ele>
        <time>2022-07-18T06:41:48Z</time>
      </trkpt>
      <trkpt lat="44.72887" lon="6.8477">
        <ele>1732</ele>
        <time>2022-07-18T06:41:49Z</time>
      </trkpt>
      <trkpt lat="44.72885" lon="6.84772">
        <ele>1732</ele>
        <time>2022-07-18T06:41:50Z</time>
      </trkpt>
      <trkpt lat="44.72884" lon="6.84773">
        <ele>1732.4</ele>
        <time>2022-07-18T06:41:51Z</time>
      </trkpt>
      <trkpt lat="44.72882" lon="6.84775">
        <ele>1732.4</ele>
        <time>2022-07-18T06:41:52Z</time>
      </trkpt>
      <trkpt lat="44.72881" lon="6.84777">
        <ele>1732.6</ele>
        <time>2022-07-18T06:41:53Z</time>
      </trkpt>
      <trkpt lat="44.7288" lon="6.84779">
        <ele>1732.8</ele>
        <time>2022-07-18T06:41:54Z</time>
      </trkpt>
      <trkpt lat="44.72878" lon="6.84781">
        <ele>1732.8</ele>
        <time>2022-07-18T06:41:55Z</time>
      </trkpt>
      <trkpt lat="44.72877" lon="6.84783">
        <ele>1733.2</ele>
        <time>2022-07-18T06:41:56Z</time>
      </trkpt>
      <trkpt lat="44.72875" lon="6.84785">
        <ele>1733.4</ele>
        <time>2022-07-18T06:41:57Z</time>
      </trkpt>
      <trkpt lat="44.72873" lon="6.84787">
        <ele>1733.8</ele>
        <time>2022-07-18T06:41:58Z</time>
      </trkpt>
      <trkpt lat="44.72872" lon="6.84789">
        <ele>1733.8</ele>
        <time>2022-07-18T06:41:59Z</time>
      </trkpt>
      <trkpt lat="44.72868" lon="6.84793">
        <ele>1734</ele>
        <time>2022-07-18T06:42:00Z</time>
      </trkpt>
      <trkpt lat="44.72867" lon="6.84795">
        <ele>1734.2</ele>
        <time>2022-07-18T06:42:01Z</time>
      </trkpt>
      <trkpt lat="44.72866" lon="6.84797">
        <ele>1734.2</ele>
        <time>2022-07-18T06:42:02Z</time>
      </trkpt>
      <trkpt lat="44.72864" lon="6.84799">
        <ele>1734.6</ele>
        <time>2022-07-18T06:42:03Z</time>
      </trkpt>
      <trkpt lat="44.72863" lon="6.84802">
        <ele>1734.6</ele>
        <time>2022-07-18T06:42:04Z</time>
      </trkpt>
      <trkpt lat="44.72861" lon="6.84804">
        <ele>1734.8</ele>
        <time>2022-07-18T06:42:05Z</time>
      </trkpt>
      <trkpt lat="44.72859" lon="6.84806">
        <ele>1734.8</ele>
        <time>2022-07-18T06:42:06Z</time>
      </trkpt>
      <trkpt lat="44.72858" lon="6.84808">
        <ele>1735.2</ele>
        <time>2022-07-18T06:42:07Z</time>
      </trkpt>
      <trkpt lat="44.72857" lon="6.84811">
        <ele>1735.4</ele>
        <time>2022-07-18T06:42:08Z</time>
      </trkpt>
      <trkpt lat="44.72855" lon="6.84813">
        <ele>1735.4</ele>
        <time>2022-07-18T06:42:09Z</time>
      </trkpt>
      <trkpt lat="44.72854" lon="6.84815">
        <ele>1735.6</ele>
        <time>2022-07-18T06:42:10Z</time>
      </trkpt>
      <trkpt lat="44.72852" lon="6.84818">
        <ele>1735.6</ele>
        <time>2022-07-18T06:42:11Z</time>
      </trkpt>
      <trkpt lat="44.72851" lon="6.8482">
        <ele>1735.6</ele>
        <time>2022-07-18T06:42:12Z</time>
      </trkpt>
      <trkpt lat="44.72849" lon="6.84823">
        <ele>1736</ele>
        <time>2022-07-18T06:42:13Z</time>
      </trkpt>
      <trkpt lat="44.72848" lon="6.84825">
        <ele>1736</ele>
        <time>2022-07-18T06:42:14Z</time>
      </trkpt>
      <trkpt lat="44.72846" lon="6.84827">
        <ele>1736.2</ele>
        <time>2022-07-18T06:42:15Z</time>
      </trkpt>
      <trkpt lat="44.72845" lon="6.84829">
        <ele>1736.4</ele>
        <time>2022-07-18T06:42:16Z</time>
      </trkpt>
      <trkpt lat="44.72843" lon="6.84832">
        <ele>1736.6</ele>
        <time>2022-07-18T06:42:17Z</time>
      </trkpt>
      <trkpt lat="44.72842" lon="6.84834">
        <ele>1737</ele>
        <time>2022-07-18T06:42:18Z</time>
      </trkpt>
      <trkpt lat="44.7284" lon="6.84836">
        <ele>1737</ele>
        <time>2022-07-18T06:42:19Z</time>
      </trkpt>
      <trkpt lat="44.72839" lon="6.84838">
        <ele>1737.4</ele>
        <time>2022-07-18T06:42:20Z</time>
      </trkpt>
      <trkpt lat="44.72837" lon="6.84841">
        <ele>1737.4</ele>
        <time>2022-07-18T06:42:21Z</time>
      </trkpt>
      <trkpt lat="44.72836" lon="6.84843">
        <ele>1737.6</ele>
        <time>2022-07-18T06:42:22Z</time>
      </trkpt>
      <trkpt lat="44.72834" lon="6.84845">
        <ele>1737.6</ele>
        <time>2022-07-18T06:42:23Z</time>
      </trkpt>
      <trkpt lat="44.72833" lon="6.84847">
        <ele>1738</ele>
        <time>2022-07-18T06:42:24Z</time>
      </trkpt>
      <trkpt lat="44.72831" lon="6.8485">
        <ele>1738</ele>
        <time>2022-07-18T06:42:25Z</time>
      </trkpt>
      <trkpt lat="44.7283" lon="6.84852">
        <ele>1738.2</ele>
        <time>2022-07-18T06:42:26Z</time>
      </trkpt>
      <trkpt lat="44.72828" lon="6.84854">
        <ele>1738.4</ele>
        <time>2022-07-18T06:42:27Z</time>
      </trkpt>
      <trkpt lat="44.72827" lon="6.84856">
        <ele>1738.4</ele>
        <time>2022-07-18T06:42:28Z</time>
      </trkpt>
      <trkpt lat="44.72825" lon="6.84859">
        <ele>1738.8</ele>
        <time>2022-07-18T06:42:29Z</time>
      </trkpt>
      <trkpt lat="44.72824" lon="6.84861">
        <ele>1738.8</ele>
        <time>2022-07-18T06:42:30Z</time>
      </trkpt>
      <trkpt lat="44.72822" lon="6.84863">
        <ele>1739.2</ele>
        <time>2022-07-18T06:42:31Z</time>
      </trkpt>
      <trkpt lat="44.72821" lon="6.84865">
        <ele>1739.2</ele>
        <time>2022-07-18T06:42:32Z</time>
      </trkpt>
      <trkpt lat="44.7282" lon="6.84867">
        <ele>1739.4</ele>
        <time>2022-07-18T06:42:33Z</time>
      </trkpt>
      <trkpt lat="44.72818" lon="6.84869">
        <ele>1739.8</ele>
        <time>2022-07-18T06:42:34Z</time>
      </trkpt>
      <trkpt lat="44.72816" lon="6.84872">
        <ele>1739.8</ele>
        <time>2022-07-18T06:42:35Z</time>
      </trkpt>
      <trkpt lat="44.72815" lon="6.84874">
        <ele>1740</ele>
        <time>2022-07-18T06:42:36Z</time>
      </trkpt>
      <trkpt lat="44.72813" lon="6.84876">
        <ele>1740.2</ele>
        <time>2022-07-18T06:42:37Z</time>
      </trkpt>
      <trkpt lat="44.72811" lon="6.84878">
        <ele>1740.2</ele>
        <time>2022-07-18T06:42:38Z</time>
      </trkpt>
      <trkpt lat="44.72809" lon="6.8488">
        <ele>1740.6</ele>
        <time>2022-07-18T06:42:39Z</time>
      </trkpt>
      <trkpt lat="44.72808" lon="6.84882">
        <ele>1740.8</ele>
        <time>2022-07-18T06:42:40Z</time>
      </trkpt>
      <trkpt lat="44.72806" lon="6.84885">
        <ele>1740.8</ele>
        <time>2022-07-18T06:42:41Z</time>
      </trkpt>
      <trkpt lat="44.72804" lon="6.84887">
        <ele>1741.2</ele>
        <time>2022-07-18T06:42:42Z</time>
      </trkpt>
      <trkpt lat="44.72802" lon="6.84889">
        <ele>1741.2</ele>
        <time>2022-07-18T06:42:43Z</time>
      </trkpt>
      <trkpt lat="44.72801" lon="6.84891">
        <ele>1741.4</ele>
        <time>2022-07-18T06:42:44Z</time>
      </trkpt>
      <trkpt lat="44.72799" lon="6.84893">
        <ele>1741.4</ele>
        <time>2022-07-18T06:42:45Z</time>
      </trkpt>
      <trkpt lat="44.72797" lon="6.84895">
        <ele>1741.8</ele>
        <time>2022-07-18T06:42:46Z</time>
      </trkpt>
      <trkpt lat="44.72795" lon="6.84898">
        <ele>1742</ele>
        <time>2022-07-18T06:42:47Z</time>
      </trkpt>
      <trkpt lat="44.72794" lon="6.849">
        <ele>1742.4</ele>
        <time>2022-07-18T06:42:48Z</time>
      </trkpt>
      <trkpt lat="44.72792" lon="6.84902">
        <ele>1742.4</ele>
        <time>2022-07-18T06:42:49Z</time>
      </trkpt>
      <trkpt lat="44.7279" lon="6.84904">
        <ele>1742.8</ele>
        <time>2022-07-18T06:42:50Z</time>
      </trkpt>
      <trkpt lat="44.72789" lon="6.84907">
        <ele>1742.8</ele>
        <time>2022-07-18T06:42:51Z</time>
      </trkpt>
      <trkpt lat="44.72787" lon="6.84909">
        <ele>1743</ele>
        <time>2022-07-18T06:42:52Z</time>
      </trkpt>
      <trkpt lat="44.72785" lon="6.8491">
        <ele>1743</ele>
        <time>2022-07-18T06:42:53Z</time>
      </trkpt>
      <trkpt lat="44.72784" lon="6.84912">
        <ele>1743.4</ele>
        <time>2022-07-18T06:42:54Z</time>
      </trkpt>
      <trkpt lat="44.72782" lon="6.84914">
        <ele>1743.6</ele>
        <time>2022-07-18T06:42:55Z</time>
      </trkpt>
      <trkpt lat="44.72781" lon="6.84917">
        <ele>1743.6</ele>
        <time>2022-07-18T06:42:56Z</time>
      </trkpt>
      <trkpt lat="44.72779" lon="6.84919">
        <ele>1744</ele>
        <time>2022-07-18T06:42:57Z</time>
      </trkpt>
      <trkpt lat="44.72778" lon="6.84921">
        <ele>1744</ele>
        <time>2022-07-18T06:42:58Z</time>
      </trkpt>
      <trkpt lat="44.72776" lon="6.84923">
        <ele>1744.4</ele>
        <time>2022-07-18T06:42:59Z</time>
      </trkpt>
      <trkpt lat="44.72774" lon="6.84925">
        <ele>1744.4</ele>
        <time>2022-07-18T06:43:00Z</time>
      </trkpt>
      <trkpt lat="44.72773" lon="6.84927">
        <ele>1744.6</ele>
        <time>2022-07-18T06:43:01Z</time>
      </trkpt>
      <trkpt lat="44.72771" lon="6.84929">
        <ele>1744.6</ele>
        <time>2022-07-18T06:43:02Z</time>
      </trkpt>
      <trkpt lat="44.7277" lon="6.84932">
        <ele>1745</ele>
        <time>2022-07-18T06:43:03Z</time>
      </trkpt>
      <trkpt lat="44.72768" lon="6.84935">
        <ele>1745</ele>
        <time>2022-07-18T06:43:04Z</time>
      </trkpt>
      <trkpt lat="44.72767" lon="6.84938">
        <ele>1745.4</ele>
        <time>2022-07-18T06:43:05Z</time>
      </trkpt>
      <trkpt lat="44.72765" lon="6.8494">
        <ele>1745.4</ele>
        <time>2022-07-18T06:43:06Z</time>
      </trkpt>
      <trkpt lat="44.72764" lon="6.84943">
        <ele>1745.8</ele>
        <time>2022-07-18T06:43:07Z</time>
      </trkpt>
      <trkpt lat="44.72762" lon="6.84945">
        <ele>1745.8</ele>
        <time>2022-07-18T06:43:08Z</time>
      </trkpt>
      <trkpt lat="44.72761" lon="6.84947">
        <ele>1746</ele>
        <time>2022-07-18T06:43:09Z</time>
      </trkpt>
      <trkpt lat="44.72759" lon="6.84949">
        <ele>1746</ele>
        <time>2022-07-18T06:43:10Z</time>
      </trkpt>
      <trkpt lat="44.72757" lon="6.84951">
        <ele>1746.4</ele>
        <time>2022-07-18T06:43:11Z</time>
      </trkpt>
      <trkpt lat="44.72755" lon="6.84953">
        <ele>1746.4</ele>
        <time>2022-07-18T06:43:12Z</time>
      </trkpt>
      <trkpt lat="44.72754" lon="6.84956">
        <ele>1746.8</ele>
        <time>2022-07-18T06:43:13Z</time>
      </trkpt>
      <trkpt lat="44.72752" lon="6.84958">
        <ele>1747</ele>
        <time>2022-07-18T06:43:14Z</time>
      </trkpt>
      <trkpt lat="44.7275" lon="6.8496">
        <ele>1747.2</ele>
        <time>2022-07-18T06:43:15Z</time>
      </trkpt>
      <trkpt lat="44.72749" lon="6.84962">
        <ele>1747.2</ele>
        <time>2022-07-18T06:43:16Z</time>
      </trkpt>
      <trkpt lat="44.72747" lon="6.84965">
        <ele>1747.6</ele>
        <time>2022-07-18T06:43:17Z</time>
      </trkpt>
      <trkpt lat="44.72745" lon="6.84967">
        <ele>1747.8</ele>
        <time>2022-07-18T06:43:18Z</time>
      </trkpt>
      <trkpt lat="44.72744" lon="6.84969">
        <ele>1748</ele>
        <time>2022-07-18T06:43:19Z</time>
      </trkpt>
      <trkpt lat="44.72742" lon="6.84972">
        <ele>1748</ele>
        <time>2022-07-18T06:43:20Z</time>
      </trkpt>
      <trkpt lat="44.7274" lon="6.84974">
        <ele>1748.4</ele>
        <time>2022-07-18T06:43:21Z</time>
      </trkpt>
      <trkpt lat="44.72738" lon="6.84976">
        <ele>1748.4</ele>
        <time>2022-07-18T06:43:22Z</time>
      </trkpt>
      <trkpt lat="44.72737" lon="6.84978">
        <ele>1748.8</ele>
        <time>2022-07-18T06:43:23Z</time>
      </trkpt>
      <trkpt lat="44.72735" lon="6.8498">
        <ele>1748.8</ele>
        <time>2022-07-18T06:43:24Z</time>
      </trkpt>
      <trkpt lat="44.72733" lon="6.84983">
        <ele>1749</ele>
        <time>2022-07-18T06:43:25Z</time>
      </trkpt>
      <trkpt lat="44.72731" lon="6.84985">
        <ele>1749</ele>
        <time>2022-07-18T06:43:26Z</time>
      </trkpt>
      <trkpt lat="44.7273" lon="6.84987">
        <ele>1749.4</ele>
        <time>2022-07-18T06:43:27Z</time>
      </trkpt>
      <trkpt lat="44.72728" lon="6.8499">
        <ele>1749.6</ele>
        <time>2022-07-18T06:43:28Z</time>
      </trkpt>
      <trkpt lat="44.72726" lon="6.84992">
        <ele>1749.6</ele>
        <time>2022-07-18T06:43:29Z</time>
      </trkpt>
      <trkpt lat="44.72725" lon="6.84994">
        <ele>1749.8</ele>
        <time>2022-07-18T06:43:30Z</time>
      </trkpt>
      <trkpt lat="44.72723" lon="6.84997">
        <ele>1749.8</ele>
        <time>2022-07-18T06:43:31Z</time>
      </trkpt>
      <trkpt lat="44.72721" lon="6.84999">
        <ele>1750.2</ele>
        <time>2022-07-18T06:43:32Z</time>
      </trkpt>
      <trkpt lat="44.72719" lon="6.85002">
        <ele>1750.2</ele>
        <time>2022-07-18T06:43:33Z</time>
      </trkpt>
      <trkpt lat="44.72717" lon="6.85004">
        <ele>1750.6</ele>
        <time>2022-07-18T06:43:34Z</time>
      </trkpt>
      <trkpt lat="44.72716" lon="6.85006">
        <ele>1750.6</ele>
        <time>2022-07-18T06:43:35Z</time>
      </trkpt>
      <trkpt lat="44.72714" lon="6.85008">
        <ele>1751</ele>
        <time>2022-07-18T06:43:36Z</time>
      </trkpt>
      <trkpt lat="44.72712" lon="6.8501">
        <ele>1751</ele>
        <time>2022-07-18T06:43:37Z</time>
      </trkpt>
      <trkpt lat="44.72711" lon="6.85012">
        <ele>1751.2</ele>
        <time>2022-07-18T06:43:38Z</time>
      </trkpt>
      <trkpt lat="44.72709" lon="6.85014">
        <ele>1751.2</ele>
        <time>2022-07-18T06:43:39Z</time>
      </trkpt>
      <trkpt lat="44.72707" lon="6.85017">
        <ele>1751.4</ele>
        <time>2022-07-18T06:43:40Z</time>
      </trkpt>
      <trkpt lat="44.72705" lon="6.85019">
        <ele>1751.4</ele>
        <time>2022-07-18T06:43:41Z</time>
      </trkpt>
      <trkpt lat="44.72704" lon="6.85021">
        <ele>1751.8</ele>
        <time>2022-07-18T06:43:42Z</time>
      </trkpt>
      <trkpt lat="44.72702" lon="6.85024">
        <ele>1751.8</ele>
        <time>2022-07-18T06:43:43Z</time>
      </trkpt>
      <trkpt lat="44.727" lon="6.85026">
        <ele>1752.2</ele>
        <time>2022-07-18T06:43:44Z</time>
      </trkpt>
      <trkpt lat="44.72699" lon="6.85028">
        <ele>1752.2</ele>
        <time>2022-07-18T06:43:45Z</time>
      </trkpt>
      <trkpt lat="44.72697" lon="6.8503">
        <ele>1752.6</ele>
        <time>2022-07-18T06:43:46Z</time>
      </trkpt>
      <trkpt lat="44.72696" lon="6.85033">
        <ele>1752.8</ele>
        <time>2022-07-18T06:43:47Z</time>
      </trkpt>
      <trkpt lat="44.72694" lon="6.85035">
        <ele>1752.8</ele>
        <time>2022-07-18T06:43:48Z</time>
      </trkpt>
      <trkpt lat="44.72693" lon="6.85038">
        <ele>1753.2</ele>
        <time>2022-07-18T06:43:49Z</time>
      </trkpt>
      <trkpt lat="44.72692" lon="6.8504">
        <ele>1753.4</ele>
        <time>2022-07-18T06:43:50Z</time>
      </trkpt>
      <trkpt lat="44.7269" lon="6.85043">
        <ele>1753.6</ele>
        <time>2022-07-18T06:43:51Z</time>
      </trkpt>
      <trkpt lat="44.72689" lon="6.85045">
        <ele>1753.6</ele>
        <time>2022-07-18T06:43:52Z</time>
      </trkpt>
      <trkpt lat="44.72687" lon="6.85047">
        <ele>1754</ele>
        <time>2022-07-18T06:43:53Z</time>
      </trkpt>
      <trkpt lat="44.72686" lon="6.8505">
        <ele>1754</ele>
        <time>2022-07-18T06:43:54Z</time>
      </trkpt>
      <trkpt lat="44.72684" lon="6.85052">
        <ele>1754.4</ele>
        <time>2022-07-18T06:43:55Z</time>
      </trkpt>
      <trkpt lat="44.72683" lon="6.85055">
        <ele>1754.4</ele>
        <time>2022-07-18T06:43:56Z</time>
      </trkpt>
      <trkpt lat="44.72681" lon="6.85057">
        <ele>1754.8</ele>
        <time>2022-07-18T06:43:57Z</time>
      </trkpt>
      <trkpt lat="44.7268" lon="6.8506">
        <ele>1755</ele>
        <time>2022-07-18T06:43:58Z</time>
      </trkpt>
      <trkpt lat="44.72679" lon="6.85062">
        <ele>1755.2</ele>
        <time>2022-07-18T06:43:59Z</time>
      </trkpt>
      <trkpt lat="44.72678" lon="6.85065">
        <ele>1755.4</ele>
        <time>2022-07-18T06:44:00Z</time>
      </trkpt>
      <trkpt lat="44.72677" lon="6.85067">
        <ele>1755.6</ele>
        <time>2022-07-18T06:44:01Z</time>
      </trkpt>
      <trkpt lat="44.72675" lon="6.8507">
        <ele>1755.6</ele>
        <time>2022-07-18T06:44:02Z</time>
      </trkpt>
      <trkpt lat="44.72675" lon="6.85073">
        <ele>1756</ele>
        <time>2022-07-18T06:44:03Z</time>
      </trkpt>
      <trkpt lat="44.72674" lon="6.85075">
        <ele>1756</ele>
        <time>2022-07-18T06:44:04Z</time>
      </trkpt>
      <trkpt lat="44.72673" lon="6.85078">
        <ele>1756.4</ele>
        <time>2022-07-18T06:44:05Z</time>
      </trkpt>
      <trkpt lat="44.72672" lon="6.85081">
        <ele>1756.6</ele>
        <time>2022-07-18T06:44:06Z</time>
      </trkpt>
      <trkpt lat="44.72671" lon="6.85084">
        <ele>1756.6</ele>
        <time>2022-07-18T06:44:07Z</time>
      </trkpt>
      <trkpt lat="44.7267" lon="6.85087">
        <ele>1756.8</ele>
        <time>2022-07-18T06:44:08Z</time>
      </trkpt>
      <trkpt lat="44.72669" lon="6.85089">
        <ele>1756.8</ele>
        <time>2022-07-18T06:44:09Z</time>
      </trkpt>
      <trkpt lat="44.72668" lon="6.85092">
        <ele>1757.2</ele>
        <time>2022-07-18T06:44:10Z</time>
      </trkpt>
      <trkpt lat="44.72667" lon="6.85095">
        <ele>1757.4</ele>
        <time>2022-07-18T06:44:11Z</time>
      </trkpt>
      <trkpt lat="44.72666" lon="6.85098">
        <ele>1757.6</ele>
        <time>2022-07-18T06:44:12Z</time>
      </trkpt>
      <trkpt lat="44.72665" lon="6.85101">
        <ele>1757.6</ele>
        <time>2022-07-18T06:44:13Z</time>
      </trkpt>
      <trkpt lat="44.72664" lon="6.85104">
        <ele>1758</ele>
        <time>2022-07-18T06:44:14Z</time>
      </trkpt>
      <trkpt lat="44.72663" lon="6.85107">
        <ele>1758</ele>
        <time>2022-07-18T06:44:15Z</time>
      </trkpt>
      <trkpt lat="44.72662" lon="6.8511">
        <ele>1758.2</ele>
        <time>2022-07-18T06:44:16Z</time>
      </trkpt>
      <trkpt lat="44.72661" lon="6.85113">
        <ele>1758.2</ele>
        <time>2022-07-18T06:44:17Z</time>
      </trkpt>
      <trkpt lat="44.7266" lon="6.85115">
        <ele>1758.6</ele>
        <time>2022-07-18T06:44:18Z</time>
      </trkpt>
      <trkpt lat="44.72658" lon="6.85118">
        <ele>1758.8</ele>
        <time>2022-07-18T06:44:19Z</time>
      </trkpt>
      <trkpt lat="44.72657" lon="6.85121">
        <ele>1759.2</ele>
        <time>2022-07-18T06:44:20Z</time>
      </trkpt>
      <trkpt lat="44.72656" lon="6.85124">
        <ele>1759.2</ele>
        <time>2022-07-18T06:44:21Z</time>
      </trkpt>
      <trkpt lat="44.72655" lon="6.85126">
        <ele>1759.6</ele>
        <time>2022-07-18T06:44:22Z</time>
      </trkpt>
      <trkpt lat="44.72654" lon="6.85129">
        <ele>1759.6</ele>
        <time>2022-07-18T06:44:23Z</time>
      </trkpt>
      <trkpt lat="44.72652" lon="6.85132">
        <ele>1759.8</ele>
        <time>2022-07-18T06:44:24Z</time>
      </trkpt>
      <trkpt lat="44.72651" lon="6.85134">
        <ele>1759.8</ele>
        <time>2022-07-18T06:44:25Z</time>
      </trkpt>
      <trkpt lat="44.72649" lon="6.85137">
        <ele>1760.2</ele>
        <time>2022-07-18T06:44:26Z</time>
      </trkpt>
      <trkpt lat="44.72648" lon="6.85139">
        <ele>1760.2</ele>
        <time>2022-07-18T06:44:27Z</time>
      </trkpt>
      <trkpt lat="44.72647" lon="6.85142">
        <ele>1760.6</ele>
        <time>2022-07-18T06:44:28Z</time>
      </trkpt>
      <trkpt lat="44.72645" lon="6.85144">
        <ele>1760.6</ele>
        <time>2022-07-18T06:44:29Z</time>
      </trkpt>
      <trkpt lat="44.72644" lon="6.85147">
        <ele>1761</ele>
        <time>2022-07-18T06:44:30Z</time>
      </trkpt>
      <trkpt lat="44.72642" lon="6.85149">
        <ele>1761</ele>
        <time>2022-07-18T06:44:31Z</time>
      </trkpt>
      <trkpt lat="44.72641" lon="6.85151">
        <ele>1761.4</ele>
        <time>2022-07-18T06:44:32Z</time>
      </trkpt>
      <trkpt lat="44.72639" lon="6.85153">
        <ele>1761.4</ele>
        <time>2022-07-18T06:44:33Z</time>
      </trkpt>
      <trkpt lat="44.72638" lon="6.85156">
        <ele>1761.6</ele>
        <time>2022-07-18T06:44:34Z</time>
      </trkpt>
      <trkpt lat="44.72636" lon="6.85158">
        <ele>1761.6</ele>
        <time>2022-07-18T06:44:35Z</time>
      </trkpt>
      <trkpt lat="44.72635" lon="6.85161">
        <ele>1762</ele>
        <time>2022-07-18T06:44:36Z</time>
      </trkpt>
      <trkpt lat="44.72633" lon="6.85163">
        <ele>1762.2</ele>
        <time>2022-07-18T06:44:37Z</time>
      </trkpt>
      <trkpt lat="44.72632" lon="6.85165">
        <ele>1762.2</ele>
        <time>2022-07-18T06:44:38Z</time>
      </trkpt>
      <trkpt lat="44.7263" lon="6.85167">
        <ele>1762.6</ele>
        <time>2022-07-18T06:44:39Z</time>
      </trkpt>
      <trkpt lat="44.72629" lon="6.8517">
        <ele>1762.6</ele>
        <time>2022-07-18T06:44:40Z</time>
      </trkpt>
      <trkpt lat="44.72627" lon="6.85172">
        <ele>1762.8</ele>
        <time>2022-07-18T06:44:41Z</time>
      </trkpt>
      <trkpt lat="44.72626" lon="6.85174">
        <ele>1762.8</ele>
        <time>2022-07-18T06:44:42Z</time>
      </trkpt>
      <trkpt lat="44.72624" lon="6.85176">
        <ele>1763.2</ele>
        <time>2022-07-18T06:44:43Z</time>
      </trkpt>
      <trkpt lat="44.72622" lon="6.85178">
        <ele>1763.4</ele>
        <time>2022-07-18T06:44:44Z</time>
      </trkpt>
      <trkpt lat="44.72621" lon="6.8518">
        <ele>1763.4</ele>
        <time>2022-07-18T06:44:45Z</time>
      </trkpt>
      <trkpt lat="44.7262" lon="6.85182">
        <ele>1763.6</ele>
        <time>2022-07-18T06:44:46Z</time>
      </trkpt>
      <trkpt lat="44.72618" lon="6.85185">
        <ele>1763.6</ele>
        <time>2022-07-18T06:44:47Z</time>
      </trkpt>
      <trkpt lat="44.72617" lon="6.85187">
        <ele>1764</ele>
        <time>2022-07-18T06:44:48Z</time>
      </trkpt>
      <trkpt lat="44.72615" lon="6.85189">
        <ele>1764</ele>
        <time>2022-07-18T06:44:49Z</time>
      </trkpt>
      <trkpt lat="44.72614" lon="6.85191">
        <ele>1764.2</ele>
        <time>2022-07-18T06:44:50Z</time>
      </trkpt>
      <trkpt lat="44.72612" lon="6.85193">
        <ele>1764.6</ele>
        <time>2022-07-18T06:44:51Z</time>
      </trkpt>
      <trkpt lat="44.72611" lon="6.85195">
        <ele>1764.8</ele>
        <time>2022-07-18T06:44:52Z</time>
      </trkpt>
      <trkpt lat="44.72609" lon="6.85197">
        <ele>1764.8</ele>
        <time>2022-07-18T06:44:53Z</time>
      </trkpt>
      <trkpt lat="44.72608" lon="6.85199">
        <ele>1765</ele>
        <time>2022-07-18T06:44:54Z</time>
      </trkpt>
      <trkpt lat="44.72606" lon="6.85201">
        <ele>1765</ele>
        <time>2022-07-18T06:44:55Z</time>
      </trkpt>
      <trkpt lat="44.72605" lon="6.85203">
        <ele>1765.4</ele>
        <time>2022-07-18T06:44:56Z</time>
      </trkpt>
      <trkpt lat="44.72603" lon="6.85205">
        <ele>1765.6</ele>
        <time>2022-07-18T06:44:57Z</time>
      </trkpt>
      <trkpt lat="44.72602" lon="6.85206">
        <ele>1765.8</ele>
        <time>2022-07-18T06:44:58Z</time>
      </trkpt>
      <trkpt lat="44.726" lon="6.85208">
        <ele>1765.8</ele>
        <time>2022-07-18T06:44:59Z</time>
      </trkpt>
      <trkpt lat="44.72599" lon="6.8521">
        <ele>1766.2</ele>
        <time>2022-07-18T06:45:00Z</time>
      </trkpt>
      <trkpt lat="44.72598" lon="6.85212">
        <ele>1766.4</ele>
        <time>2022-07-18T06:45:01Z</time>
      </trkpt>
      <trkpt lat="44.72596" lon="6.85214">
        <ele>1766.4</ele>
        <time>2022-07-18T06:45:02Z</time>
      </trkpt>
      <trkpt lat="44.72595" lon="6.85217">
        <ele>1766.8</ele>
        <time>2022-07-18T06:45:03Z</time>
      </trkpt>
      <trkpt lat="44.72594" lon="6.85219">
        <ele>1767</ele>
        <time>2022-07-18T06:45:04Z</time>
      </trkpt>
      <trkpt lat="44.72593" lon="6.85221">
        <ele>1767</ele>
        <time>2022-07-18T06:45:05Z</time>
      </trkpt>
      <trkpt lat="44.72591" lon="6.85223">
        <ele>1767.4</ele>
        <time>2022-07-18T06:45:06Z</time>
      </trkpt>
      <trkpt lat="44.7259" lon="6.85225">
        <ele>1767.4</ele>
        <time>2022-07-18T06:45:07Z</time>
      </trkpt>
      <trkpt lat="44.72588" lon="6.85227">
        <ele>1767.8</ele>
        <time>2022-07-18T06:45:08Z</time>
      </trkpt>
      <trkpt lat="44.72587" lon="6.85229">
        <ele>1767.8</ele>
        <time>2022-07-18T06:45:09Z</time>
      </trkpt>
      <trkpt lat="44.72585" lon="6.85232">
        <ele>1768.2</ele>
        <time>2022-07-18T06:45:10Z</time>
      </trkpt>
      <trkpt lat="44.72584" lon="6.85234">
        <ele>1768.4</ele>
        <time>2022-07-18T06:45:11Z</time>
      </trkpt>
      <trkpt lat="44.72583" lon="6.85236">
        <ele>1768.6</ele>
        <time>2022-07-18T06:45:12Z</time>
      </trkpt>
      <trkpt lat="44.72581" lon="6.85239">
        <ele>1768.6</ele>
        <time>2022-07-18T06:45:13Z</time>
      </trkpt>
      <trkpt lat="44.7258" lon="6.85241">
        <ele>1769</ele>
        <time>2022-07-18T06:45:14Z</time>
      </trkpt>
      <trkpt lat="44.72579" lon="6.85244">
        <ele>1769</ele>
        <time>2022-07-18T06:45:15Z</time>
      </trkpt>
      <trkpt lat="44.72577" lon="6.85246">
        <ele>1769.4</ele>
        <time>2022-07-18T06:45:16Z</time>
      </trkpt>
      <trkpt lat="44.72576" lon="6.85249">
        <ele>1769.6</ele>
        <time>2022-07-18T06:45:17Z</time>
      </trkpt>
      <trkpt lat="44.72575" lon="6.85251">
        <ele>1769.6</ele>
        <time>2022-07-18T06:45:18Z</time>
      </trkpt>
      <trkpt lat="44.72573" lon="6.85253">
        <ele>1769.8</ele>
        <time>2022-07-18T06:45:19Z</time>
      </trkpt>
      <trkpt lat="44.72572" lon="6.85255">
        <ele>1769.8</ele>
        <time>2022-07-18T06:45:20Z</time>
      </trkpt>
      <trkpt lat="44.7257" lon="6.85258">
        <ele>1770.2</ele>
        <time>2022-07-18T06:45:21Z</time>
      </trkpt>
      <trkpt lat="44.72569" lon="6.8526">
        <ele>1770.2</ele>
        <time>2022-07-18T06:45:22Z</time>
      </trkpt>
      <trkpt lat="44.72567" lon="6.85263">
        <ele>1770.4</ele>
        <time>2022-07-18T06:45:23Z</time>
      </trkpt>
      <trkpt lat="44.72566" lon="6.85265">
        <ele>1770.6</ele>
        <time>2022-07-18T06:45:24Z</time>
      </trkpt>
      <trkpt lat="44.72564" lon="6.85268">
        <ele>1770.6</ele>
        <time>2022-07-18T06:45:25Z</time>
      </trkpt>
      <trkpt lat="44.72563" lon="6.8527">
        <ele>1771</ele>
        <time>2022-07-18T06:45:26Z</time>
      </trkpt>
      <trkpt lat="44.72561" lon="6.85272">
        <ele>1771.4</ele>
        <time>2022-07-18T06:45:27Z</time>
      </trkpt>
      <trkpt lat="44.7256" lon="6.85275">
        <ele>1771.6</ele>
        <time>2022-07-18T06:45:28Z</time>
      </trkpt>
      <trkpt lat="44.72559" lon="6.85278">
        <ele>1771.6</ele>
        <time>2022-07-18T06:45:29Z</time>
      </trkpt>
      <trkpt lat="44.72557" lon="6.85281">
        <ele>1771.8</ele>
        <time>2022-07-18T06:45:30Z</time>
      </trkpt>
      <trkpt lat="44.72556" lon="6.85283">
        <ele>1771.8</ele>
        <time>2022-07-18T06:45:31Z</time>
      </trkpt>
      <trkpt lat="44.72554" lon="6.85286">
        <ele>1772.2</ele>
        <time>2022-07-18T06:45:32Z</time>
      </trkpt>
      <trkpt lat="44.72553" lon="6.85288">
        <ele>1772.2</ele>
        <time>2022-07-18T06:45:33Z</time>
      </trkpt>
      <trkpt lat="44.72551" lon="6.8529">
        <ele>1772.4</ele>
        <time>2022-07-18T06:45:34Z</time>
      </trkpt>
      <trkpt lat="44.7255" lon="6.85293">
        <ele>1772.4</ele>
        <time>2022-07-18T06:45:35Z</time>
      </trkpt>
      <trkpt lat="44.72549" lon="6.85295">
        <ele>1772.8</ele>
        <time>2022-07-18T06:45:36Z</time>
      </trkpt>
      <trkpt lat="44.72547" lon="6.85298">
        <ele>1772.8</ele>
        <time>2022-07-18T06:45:37Z</time>
      </trkpt>
      <trkpt lat="44.72546" lon="6.853">
        <ele>1773.2</ele>
        <time>2022-07-18T06:45:38Z</time>
      </trkpt>
      <trkpt lat="44.72544" lon="6.85302">
        <ele>1773.4</ele>
        <time>2022-07-18T06:45:39Z</time>
      </trkpt>
      <trkpt lat="44.72543" lon="6.85304">
        <ele>1773.6</ele>
        <time>2022-07-18T06:45:40Z</time>
      </trkpt>
      <trkpt lat="44.72541" lon="6.85306">
        <ele>1773.6</ele>
        <time>2022-07-18T06:45:41Z</time>
      </trkpt>
      <trkpt lat="44.7254" lon="6.85308">
        <ele>1774</ele>
        <time>2022-07-18T06:45:42Z</time>
      </trkpt>
      <trkpt lat="44.72539" lon="6.8531">
        <ele>1774</ele>
        <time>2022-07-18T06:45:43Z</time>
      </trkpt>
      <trkpt lat="44.72537" lon="6.85312">
        <ele>1774.4</ele>
        <time>2022-07-18T06:45:44Z</time>
      </trkpt>
      <trkpt lat="44.72536" lon="6.85314">
        <ele>1774.4</ele>
        <time>2022-07-18T06:45:45Z</time>
      </trkpt>
      <trkpt lat="44.72535" lon="6.85316">
        <ele>1774.6</ele>
        <time>2022-07-18T06:45:46Z</time>
      </trkpt>
      <trkpt lat="44.72533" lon="6.85318">
        <ele>1774.6</ele>
        <time>2022-07-18T06:45:47Z</time>
      </trkpt>
      <trkpt lat="44.72532" lon="6.8532">
        <ele>1775</ele>
        <time>2022-07-18T06:45:48Z</time>
      </trkpt>
      <trkpt lat="44.72531" lon="6.85322">
        <ele>1775</ele>
        <time>2022-07-18T06:45:49Z</time>
      </trkpt>
      <trkpt lat="44.72529" lon="6.85324">
        <ele>1775.4</ele>
        <time>2022-07-18T06:45:50Z</time>
      </trkpt>
      <trkpt lat="44.72528" lon="6.85326">
        <ele>1775.4</ele>
        <time>2022-07-18T06:45:51Z</time>
      </trkpt>
      <trkpt lat="44.72527" lon="6.85328">
        <ele>1775.6</ele>
        <time>2022-07-18T06:45:52Z</time>
      </trkpt>
      <trkpt lat="44.72525" lon="6.8533">
        <ele>1776</ele>
        <time>2022-07-18T06:45:53Z</time>
      </trkpt>
      <trkpt lat="44.72524" lon="6.85332">
        <ele>1776</ele>
        <time>2022-07-18T06:45:54Z</time>
      </trkpt>
      <trkpt lat="44.72523" lon="6.85334">
        <ele>1776.4</ele>
        <time>2022-07-18T06:45:55Z</time>
      </trkpt>
      <trkpt lat="44.72522" lon="6.85336">
        <ele>1776.4</ele>
        <time>2022-07-18T06:45:56Z</time>
      </trkpt>
      <trkpt lat="44.72521" lon="6.85338">
        <ele>1776.6</ele>
        <time>2022-07-18T06:45:57Z</time>
      </trkpt>
      <trkpt lat="44.7252" lon="6.8534">
        <ele>1776.8</ele>
        <time>2022-07-18T06:45:58Z</time>
      </trkpt>
      <trkpt lat="44.72519" lon="6.85343">
        <ele>1776.8</ele>
        <time>2022-07-18T06:45:59Z</time>
      </trkpt>
      <trkpt lat="44.72518" lon="6.85345">
        <ele>1777.4</ele>
        <time>2022-07-18T06:46:00Z</time>
      </trkpt>
      <trkpt lat="44.72517" lon="6.85347">
        <ele>1777.4</ele>
        <time>2022-07-18T06:46:01Z</time>
      </trkpt>
      <trkpt lat="44.72515" lon="6.8535">
        <ele>1777.8</ele>
        <time>2022-07-18T06:46:02Z</time>
      </trkpt>
      <trkpt lat="44.72515" lon="6.85352">
        <ele>1778</ele>
        <time>2022-07-18T06:46:03Z</time>
      </trkpt>
      <trkpt lat="44.72514" lon="6.85354">
        <ele>1778.2</ele>
        <time>2022-07-18T06:46:04Z</time>
      </trkpt>
      <trkpt lat="44.72512" lon="6.85356">
        <ele>1778.2</ele>
        <time>2022-07-18T06:46:05Z</time>
      </trkpt>
      <trkpt lat="44.72511" lon="6.85358">
        <ele>1778.6</ele>
        <time>2022-07-18T06:46:06Z</time>
      </trkpt>
      <trkpt lat="44.7251" lon="6.8536">
        <ele>1778.6</ele>
        <time>2022-07-18T06:46:07Z</time>
      </trkpt>
      <trkpt lat="44.72509" lon="6.85362">
        <ele>1778.8</ele>
        <time>2022-07-18T06:46:08Z</time>
      </trkpt>
      <trkpt lat="44.72508" lon="6.85363">
        <ele>1778.8</ele>
        <time>2022-07-18T06:46:09Z</time>
      </trkpt>
      <trkpt lat="44.72506" lon="6.85365">
        <ele>1779.2</ele>
        <time>2022-07-18T06:46:10Z</time>
      </trkpt>
      <trkpt lat="44.72505" lon="6.85367">
        <ele>1779.4</ele>
        <time>2022-07-18T06:46:11Z</time>
      </trkpt>
      <trkpt lat="44.72504" lon="6.85368">
        <ele>1779.4</ele>
        <time>2022-07-18T06:46:12Z</time>
      </trkpt>
      <trkpt lat="44.72502" lon="6.8537">
        <ele>1779.6</ele>
        <time>2022-07-18T06:46:13Z</time>
      </trkpt>
      <trkpt lat="44.72501" lon="6.85372">
        <ele>1780</ele>
        <time>2022-07-18T06:46:14Z</time>
      </trkpt>
      <trkpt lat="44.725" lon="6.85374">
        <ele>1780.2</ele>
        <time>2022-07-18T06:46:15Z</time>
      </trkpt>
      <trkpt lat="44.72499" lon="6.85376">
        <ele>1780.2</ele>
        <time>2022-07-18T06:46:16Z</time>
      </trkpt>
      <trkpt lat="44.72497" lon="6.85379">
        <ele>1780.4</ele>
        <time>2022-07-18T06:46:17Z</time>
      </trkpt>
      <trkpt lat="44.72496" lon="6.85381">
        <ele>1780.4</ele>
        <time>2022-07-18T06:46:18Z</time>
      </trkpt>
      <trkpt lat="44.72495" lon="6.85383">
        <ele>1780.8</ele>
        <time>2022-07-18T06:46:19Z</time>
      </trkpt>
      <trkpt lat="44.72493" lon="6.85385">
        <ele>1780.8</ele>
        <time>2022-07-18T06:46:20Z</time>
      </trkpt>
      <trkpt lat="44.72492" lon="6.85387">
        <ele>1781.2</ele>
        <time>2022-07-18T06:46:21Z</time>
      </trkpt>
      <trkpt lat="44.7249" lon="6.85389">
        <ele>1781.2</ele>
        <time>2022-07-18T06:46:22Z</time>
      </trkpt>
      <trkpt lat="44.72489" lon="6.85391">
        <ele>1781.4</ele>
        <time>2022-07-18T06:46:23Z</time>
      </trkpt>
      <trkpt lat="44.72487" lon="6.85393">
        <ele>1781.6</ele>
        <time>2022-07-18T06:46:24Z</time>
      </trkpt>
      <trkpt lat="44.72486" lon="6.85396">
        <ele>1781.6</ele>
        <time>2022-07-18T06:46:25Z</time>
      </trkpt>
      <trkpt lat="44.72485" lon="6.85398">
        <ele>1782</ele>
        <time>2022-07-18T06:46:26Z</time>
      </trkpt>
      <trkpt lat="44.72484" lon="6.854">
        <ele>1782</ele>
        <time>2022-07-18T06:46:27Z</time>
      </trkpt>
      <trkpt lat="44.72483" lon="6.85403">
        <ele>1782.2</ele>
        <time>2022-07-18T06:46:28Z</time>
      </trkpt>
      <trkpt lat="44.72482" lon="6.85405">
        <ele>1782.2</ele>
        <time>2022-07-18T06:46:29Z</time>
      </trkpt>
      <trkpt lat="44.72481" lon="6.85407">
        <ele>1782.6</ele>
        <time>2022-07-18T06:46:30Z</time>
      </trkpt>
      <trkpt lat="44.7248" lon="6.85409">
        <ele>1782.6</ele>
        <time>2022-07-18T06:46:31Z</time>
      </trkpt>
      <trkpt lat="44.72479" lon="6.85412">
        <ele>1782.8</ele>
        <time>2022-07-18T06:46:32Z</time>
      </trkpt>
      <trkpt lat="44.72477" lon="6.85415">
        <ele>1782.8</ele>
        <time>2022-07-18T06:46:33Z</time>
      </trkpt>
      <trkpt lat="44.72476" lon="6.85417">
        <ele>1783.2</ele>
        <time>2022-07-18T06:46:34Z</time>
      </trkpt>
      <trkpt lat="44.72475" lon="6.85419">
        <ele>1783.4</ele>
        <time>2022-07-18T06:46:35Z</time>
      </trkpt>
      <trkpt lat="44.72474" lon="6.85422">
        <ele>1783.6</ele>
        <time>2022-07-18T06:46:36Z</time>
      </trkpt>
      <trkpt lat="44.72472" lon="6.85424">
        <ele>1783.8</ele>
        <time>2022-07-18T06:46:37Z</time>
      </trkpt>
      <trkpt lat="44.72471" lon="6.85427">
        <ele>1783.8</ele>
        <time>2022-07-18T06:46:38Z</time>
      </trkpt>
      <trkpt lat="44.7247" lon="6.85429">
        <ele>1784.2</ele>
        <time>2022-07-18T06:46:39Z</time>
      </trkpt>
      <trkpt lat="44.72468" lon="6.85431">
        <ele>1784.4</ele>
        <time>2022-07-18T06:46:40Z</time>
      </trkpt>
      <trkpt lat="44.72467" lon="6.85433">
        <ele>1784.4</ele>
        <time>2022-07-18T06:46:41Z</time>
      </trkpt>
      <trkpt lat="44.72466" lon="6.85436">
        <ele>1784.6</ele>
        <time>2022-07-18T06:46:42Z</time>
      </trkpt>
      <trkpt lat="44.72465" lon="6.85438">
        <ele>1785</ele>
        <time>2022-07-18T06:46:43Z</time>
      </trkpt>
      <trkpt lat="44.72464" lon="6.85441">
        <ele>1785</ele>
        <time>2022-07-18T06:46:44Z</time>
      </trkpt>
      <trkpt lat="44.72462" lon="6.85443">
        <ele>1785.2</ele>
        <time>2022-07-18T06:46:45Z</time>
      </trkpt>
      <trkpt lat="44.72461" lon="6.85445">
        <ele>1785.2</ele>
        <time>2022-07-18T06:46:46Z</time>
      </trkpt>
      <trkpt lat="44.72459" lon="6.85447">
        <ele>1785.6</ele>
        <time>2022-07-18T06:46:47Z</time>
      </trkpt>
      <trkpt lat="44.72457" lon="6.85449">
        <ele>1785.6</ele>
        <time>2022-07-18T06:46:48Z</time>
      </trkpt>
      <trkpt lat="44.72456" lon="6.85452">
        <ele>1786.2</ele>
        <time>2022-07-18T06:46:49Z</time>
      </trkpt>
      <trkpt lat="44.72454" lon="6.85454">
        <ele>1786.2</ele>
        <time>2022-07-18T06:46:50Z</time>
      </trkpt>
      <trkpt lat="44.72452" lon="6.85456">
        <ele>1786.4</ele>
        <time>2022-07-18T06:46:51Z</time>
      </trkpt>
      <trkpt lat="44.72451" lon="6.85458">
        <ele>1786.6</ele>
        <time>2022-07-18T06:46:52Z</time>
      </trkpt>
      <trkpt lat="44.72449" lon="6.8546">
        <ele>1786.8</ele>
        <time>2022-07-18T06:46:53Z</time>
      </trkpt>
      <trkpt lat="44.72448" lon="6.85462">
        <ele>1786.8</ele>
        <time>2022-07-18T06:46:54Z</time>
      </trkpt>
      <trkpt lat="44.72446" lon="6.85464">
        <ele>1787.2</ele>
        <time>2022-07-18T06:46:55Z</time>
      </trkpt>
      <trkpt lat="44.72445" lon="6.85466">
        <ele>1787.4</ele>
        <time>2022-07-18T06:46:56Z</time>
      </trkpt>
      <trkpt lat="44.72444" lon="6.85469">
        <ele>1787.4</ele>
        <time>2022-07-18T06:46:57Z</time>
      </trkpt>
      <trkpt lat="44.72442" lon="6.85471">
        <ele>1788</ele>
        <time>2022-07-18T06:46:58Z</time>
      </trkpt>
      <trkpt lat="44.72441" lon="6.85474">
        <ele>1788</ele>
        <time>2022-07-18T06:46:59Z</time>
      </trkpt>
      <trkpt lat="44.72439" lon="6.85476">
        <ele>1788.2</ele>
        <time>2022-07-18T06:47:00Z</time>
      </trkpt>
      <trkpt lat="44.72438" lon="6.85479">
        <ele>1788.2</ele>
        <time>2022-07-18T06:47:01Z</time>
      </trkpt>
      <trkpt lat="44.72437" lon="6.85481">
        <ele>1788.6</ele>
        <time>2022-07-18T06:47:02Z</time>
      </trkpt>
      <trkpt lat="44.72435" lon="6.85484">
        <ele>1788.6</ele>
        <time>2022-07-18T06:47:03Z</time>
      </trkpt>
      <trkpt lat="44.72434" lon="6.85486">
        <ele>1788.8</ele>
        <time>2022-07-18T06:47:04Z</time>
      </trkpt>
      <trkpt lat="44.72432" lon="6.85489">
        <ele>1788.8</ele>
        <time>2022-07-18T06:47:05Z</time>
      </trkpt>
      <trkpt lat="44.7243" lon="6.85491">
        <ele>1789.2</ele>
        <time>2022-07-18T06:47:06Z</time>
      </trkpt>
      <trkpt lat="44.72429" lon="6.85493">
        <ele>1789.2</ele>
        <time>2022-07-18T06:47:07Z</time>
      </trkpt>
      <trkpt lat="44.72427" lon="6.85496">
        <ele>1789.6</ele>
        <time>2022-07-18T06:47:08Z</time>
      </trkpt>
      <trkpt lat="44.72426" lon="6.85498">
        <ele>1789.8</ele>
        <time>2022-07-18T06:47:09Z</time>
      </trkpt>
      <trkpt lat="44.72425" lon="6.855">
        <ele>1790</ele>
        <time>2022-07-18T06:47:10Z</time>
      </trkpt>
      <trkpt lat="44.72423" lon="6.85502">
        <ele>1790.2</ele>
        <time>2022-07-18T06:47:11Z</time>
      </trkpt>
      <trkpt lat="44.72422" lon="6.85505">
        <ele>1790.4</ele>
        <time>2022-07-18T06:47:12Z</time>
      </trkpt>
      <trkpt lat="44.7242" lon="6.85507">
        <ele>1790.4</ele>
        <time>2022-07-18T06:47:13Z</time>
      </trkpt>
      <trkpt lat="44.72419" lon="6.85509">
        <ele>1790.8</ele>
        <time>2022-07-18T06:47:14Z</time>
      </trkpt>
      <trkpt lat="44.72417" lon="6.85511">
        <ele>1791</ele>
        <time>2022-07-18T06:47:15Z</time>
      </trkpt>
      <trkpt lat="44.72416" lon="6.85513">
        <ele>1791</ele>
        <time>2022-07-18T06:47:16Z</time>
      </trkpt>
      <trkpt lat="44.72414" lon="6.85515">
        <ele>1791.4</ele>
        <time>2022-07-18T06:47:17Z</time>
      </trkpt>
      <trkpt lat="44.72413" lon="6.85518">
        <ele>1791.4</ele>
        <time>2022-07-18T06:47:18Z</time>
      </trkpt>
      <trkpt lat="44.72411" lon="6.8552">
        <ele>1791.8</ele>
        <time>2022-07-18T06:47:19Z</time>
      </trkpt>
      <trkpt lat="44.7241" lon="6.85522">
        <ele>1791.8</ele>
        <time>2022-07-18T06:47:20Z</time>
      </trkpt>
      <trkpt lat="44.72408" lon="6.85525">
        <ele>1792</ele>
        <time>2022-07-18T06:47:21Z</time>
      </trkpt>
      <trkpt lat="44.72407" lon="6.85527">
        <ele>1792</ele>
        <time>2022-07-18T06:47:22Z</time>
      </trkpt>
      <trkpt lat="44.72406" lon="6.85529">
        <ele>1792.4</ele>
        <time>2022-07-18T06:47:23Z</time>
      </trkpt>
      <trkpt lat="44.72405" lon="6.85532">
        <ele>1792.4</ele>
        <time>2022-07-18T06:47:24Z</time>
      </trkpt>
      <trkpt lat="44.72404" lon="6.85534">
        <ele>1792.8</ele>
        <time>2022-07-18T06:47:25Z</time>
      </trkpt>
      <trkpt lat="44.72402" lon="6.85537">
        <ele>1793</ele>
        <time>2022-07-18T06:47:26Z</time>
      </trkpt>
      <trkpt lat="44.72401" lon="6.85539">
        <ele>1793</ele>
        <time>2022-07-18T06:47:27Z</time>
      </trkpt>
      <trkpt lat="44.724" lon="6.85541">
        <ele>1793.4</ele>
        <time>2022-07-18T06:47:28Z</time>
      </trkpt>
      <trkpt lat="44.72399" lon="6.85544">
        <ele>1793.4</ele>
        <time>2022-07-18T06:47:29Z</time>
      </trkpt>
      <trkpt lat="44.72398" lon="6.85546">
        <ele>1793.8</ele>
        <time>2022-07-18T06:47:30Z</time>
      </trkpt>
      <trkpt lat="44.72397" lon="6.85549">
        <ele>1793.8</ele>
        <time>2022-07-18T06:47:31Z</time>
      </trkpt>
      <trkpt lat="44.72396" lon="6.85551">
        <ele>1794</ele>
        <time>2022-07-18T06:47:32Z</time>
      </trkpt>
      <trkpt lat="44.72396" lon="6.85554">
        <ele>1794.4</ele>
        <time>2022-07-18T06:47:33Z</time>
      </trkpt>
      <trkpt lat="44.72395" lon="6.85557">
        <ele>1794.6</ele>
        <time>2022-07-18T06:47:34Z</time>
      </trkpt>
      <trkpt lat="44.72393" lon="6.85559">
        <ele>1794.8</ele>
        <time>2022-07-18T06:47:35Z</time>
      </trkpt>
      <trkpt lat="44.72392" lon="6.85562">
        <ele>1794.8</ele>
        <time>2022-07-18T06:47:36Z</time>
      </trkpt>
      <trkpt lat="44.72391" lon="6.85564">
        <ele>1795.2</ele>
        <time>2022-07-18T06:47:37Z</time>
      </trkpt>
      <trkpt lat="44.7239" lon="6.85566">
        <ele>1795.2</ele>
        <time>2022-07-18T06:47:38Z</time>
      </trkpt>
      <trkpt lat="44.72389" lon="6.85568">
        <ele>1795.4</ele>
        <time>2022-07-18T06:47:39Z</time>
      </trkpt>
      <trkpt lat="44.72388" lon="6.85571">
        <ele>1795.4</ele>
        <time>2022-07-18T06:47:40Z</time>
      </trkpt>
      <trkpt lat="44.72387" lon="6.85573">
        <ele>1795.8</ele>
        <time>2022-07-18T06:47:41Z</time>
      </trkpt>
      <trkpt lat="44.72386" lon="6.85575">
        <ele>1795.8</ele>
        <time>2022-07-18T06:47:42Z</time>
      </trkpt>
      <trkpt lat="44.72385" lon="6.85577">
        <ele>1796.2</ele>
        <time>2022-07-18T06:47:43Z</time>
      </trkpt>
      <trkpt lat="44.72384" lon="6.8558">
        <ele>1796.2</ele>
        <time>2022-07-18T06:47:44Z</time>
      </trkpt>
      <trkpt lat="44.72383" lon="6.85582">
        <ele>1796.4</ele>
        <time>2022-07-18T06:47:45Z</time>
      </trkpt>
      <trkpt lat="44.72382" lon="6.85584">
        <ele>1796.4</ele>
        <time>2022-07-18T06:47:46Z</time>
      </trkpt>
      <trkpt lat="44.72381" lon="6.85586">
        <ele>1796.8</ele>
        <time>2022-07-18T06:47:47Z</time>
      </trkpt>
      <trkpt lat="44.7238" lon="6.85588">
        <ele>1796.8</ele>
        <time>2022-07-18T06:47:48Z</time>
      </trkpt>
      <trkpt lat="44.72379" lon="6.85591">
        <ele>1797.2</ele>
        <time>2022-07-18T06:47:49Z</time>
      </trkpt>
      <trkpt lat="44.72378" lon="6.85593">
        <ele>1797.2</ele>
        <time>2022-07-18T06:47:50Z</time>
      </trkpt>
      <trkpt lat="44.72377" lon="6.85596">
        <ele>1797.4</ele>
        <time>2022-07-18T06:47:51Z</time>
      </trkpt>
      <trkpt lat="44.72376" lon="6.85598">
        <ele>1797.4</ele>
        <time>2022-07-18T06:47:52Z</time>
      </trkpt>
      <trkpt lat="44.72376" lon="6.85601">
        <ele>1797.8</ele>
        <time>2022-07-18T06:47:53Z</time>
      </trkpt>
      <trkpt lat="44.72375" lon="6.85603">
        <ele>1797.8</ele>
        <time>2022-07-18T06:47:54Z</time>
      </trkpt>
      <trkpt lat="44.72374" lon="6.85606">
        <ele>1798</ele>
        <time>2022-07-18T06:47:55Z</time>
      </trkpt>
      <trkpt lat="44.72373" lon="6.85608">
        <ele>1798</ele>
        <time>2022-07-18T06:47:56Z</time>
      </trkpt>
      <trkpt lat="44.72373" lon="6.85611">
        <ele>1798</ele>
        <time>2022-07-18T06:47:57Z</time>
      </trkpt>
      <trkpt lat="44.72372" lon="6.85613">
        <ele>1798.4</ele>
        <time>2022-07-18T06:47:58Z</time>
      </trkpt>
      <trkpt lat="44.72371" lon="6.85616">
        <ele>1798.4</ele>
        <time>2022-07-18T06:47:59Z</time>
      </trkpt>
      <trkpt lat="44.7237" lon="6.85618">
        <ele>1798.6</ele>
        <time>2022-07-18T06:48:00Z</time>
      </trkpt>
      <trkpt lat="44.72369" lon="6.8562">
        <ele>1798.6</ele>
        <time>2022-07-18T06:48:01Z</time>
      </trkpt>
      <trkpt lat="44.72368" lon="6.85623">
        <ele>1799</ele>
        <time>2022-07-18T06:48:02Z</time>
      </trkpt>
      <trkpt lat="44.72367" lon="6.85626">
        <ele>1799</ele>
        <time>2022-07-18T06:48:03Z</time>
      </trkpt>
      <trkpt lat="44.72366" lon="6.85628">
        <ele>1799.4</ele>
        <time>2022-07-18T06:48:04Z</time>
      </trkpt>
      <trkpt lat="44.72366" lon="6.85631">
        <ele>1799.4</ele>
        <time>2022-07-18T06:48:05Z</time>
      </trkpt>
      <trkpt lat="44.72365" lon="6.85633">
        <ele>1799.6</ele>
        <time>2022-07-18T06:48:06Z</time>
      </trkpt>
      <trkpt lat="44.72365" lon="6.85636">
        <ele>1799.6</ele>
        <time>2022-07-18T06:48:07Z</time>
      </trkpt>
      <trkpt lat="44.72364" lon="6.85638">
        <ele>1800</ele>
        <time>2022-07-18T06:48:08Z</time>
      </trkpt>
      <trkpt lat="44.72364" lon="6.85641">
        <ele>1800</ele>
        <time>2022-07-18T06:48:09Z</time>
      </trkpt>
      <trkpt lat="44.72363" lon="6.85643">
        <ele>1800.2</ele>
        <time>2022-07-18T06:48:10Z</time>
      </trkpt>
      <trkpt lat="44.72363" lon="6.85646">
        <ele>1800.2</ele>
        <time>2022-07-18T06:48:11Z</time>
      </trkpt>
      <trkpt lat="44.72362" lon="6.85649">
        <ele>1800.4</ele>
        <time>2022-07-18T06:48:12Z</time>
      </trkpt>
      <trkpt lat="44.72362" lon="6.85652">
        <ele>1800.4</ele>
        <time>2022-07-18T06:48:13Z</time>
      </trkpt>
      <trkpt lat="44.72362" lon="6.85655">
        <ele>1800.8</ele>
        <time>2022-07-18T06:48:14Z</time>
      </trkpt>
      <trkpt lat="44.72362" lon="6.85658">
        <ele>1800.8</ele>
        <time>2022-07-18T06:48:15Z</time>
      </trkpt>
      <trkpt lat="44.72362" lon="6.85661">
        <ele>1801</ele>
        <time>2022-07-18T06:48:16Z</time>
      </trkpt>
      <trkpt lat="44.72362" lon="6.85663">
        <ele>1801.2</ele>
        <time>2022-07-18T06:48:17Z</time>
      </trkpt>
      <trkpt lat="44.72362" lon="6.85666">
        <ele>1801.2</ele>
        <time>2022-07-18T06:48:18Z</time>
      </trkpt>
      <trkpt lat="44.72362" lon="6.85669">
        <ele>1801.6</ele>
        <time>2022-07-18T06:48:19Z</time>
      </trkpt>
      <trkpt lat="44.72363" lon="6.85671">
        <ele>1801.6</ele>
        <time>2022-07-18T06:48:20Z</time>
      </trkpt>
      <trkpt lat="44.72364" lon="6.85674">
        <ele>1802</ele>
        <time>2022-07-18T06:48:21Z</time>
      </trkpt>
      <trkpt lat="44.72364" lon="6.85677">
        <ele>1802</ele>
        <time>2022-07-18T06:48:22Z</time>
      </trkpt>
      <trkpt lat="44.72365" lon="6.8568">
        <ele>1802.4</ele>
        <time>2022-07-18T06:48:23Z</time>
      </trkpt>
      <trkpt lat="44.72367" lon="6.85683">
        <ele>1802.6</ele>
        <time>2022-07-18T06:48:24Z</time>
      </trkpt>
      <trkpt lat="44.72368" lon="6.85685">
        <ele>1802.8</ele>
        <time>2022-07-18T06:48:25Z</time>
      </trkpt>
      <trkpt lat="44.72369" lon="6.85688">
        <ele>1802.8</ele>
        <time>2022-07-18T06:48:26Z</time>
      </trkpt>
      <trkpt lat="44.7237" lon="6.8569">
        <ele>1803</ele>
        <time>2022-07-18T06:48:27Z</time>
      </trkpt>
      <trkpt lat="44.72372" lon="6.85693">
        <ele>1803</ele>
        <time>2022-07-18T06:48:28Z</time>
      </trkpt>
      <trkpt lat="44.72373" lon="6.85695">
        <ele>1803.4</ele>
        <time>2022-07-18T06:48:29Z</time>
      </trkpt>
      <trkpt lat="44.72374" lon="6.85698">
        <ele>1803.4</ele>
        <time>2022-07-18T06:48:30Z</time>
      </trkpt>
      <trkpt lat="44.72375" lon="6.85701">
        <ele>1803.8</ele>
        <time>2022-07-18T06:48:31Z</time>
      </trkpt>
      <trkpt lat="44.72376" lon="6.85703">
        <ele>1803.8</ele>
        <time>2022-07-18T06:48:32Z</time>
      </trkpt>
      <trkpt lat="44.72377" lon="6.85706">
        <ele>1804.2</ele>
        <time>2022-07-18T06:48:33Z</time>
      </trkpt>
      <trkpt lat="44.72378" lon="6.85708">
        <ele>1804.2</ele>
        <time>2022-07-18T06:48:34Z</time>
      </trkpt>
      <trkpt lat="44.72379" lon="6.85711">
        <ele>1804.6</ele>
        <time>2022-07-18T06:48:35Z</time>
      </trkpt>
      <trkpt lat="44.7238" lon="6.85713">
        <ele>1804.6</ele>
        <time>2022-07-18T06:48:36Z</time>
      </trkpt>
      <trkpt lat="44.7238" lon="6.85716">
        <ele>1805</ele>
        <time>2022-07-18T06:48:37Z</time>
      </trkpt>
      <trkpt lat="44.72381" lon="6.85719">
        <ele>1805</ele>
        <time>2022-07-18T06:48:38Z</time>
      </trkpt>
      <trkpt lat="44.72382" lon="6.85721">
        <ele>1805.4</ele>
        <time>2022-07-18T06:48:39Z</time>
      </trkpt>
      <trkpt lat="44.72383" lon="6.85724">
        <ele>1805.4</ele>
        <time>2022-07-18T06:48:40Z</time>
      </trkpt>
      <trkpt lat="44.72384" lon="6.85727">
        <ele>1805.6</ele>
        <time>2022-07-18T06:48:41Z</time>
      </trkpt>
      <trkpt lat="44.72385" lon="6.85729">
        <ele>1805.8</ele>
        <time>2022-07-18T06:48:42Z</time>
      </trkpt>
      <trkpt lat="44.72386" lon="6.85731">
        <ele>1806</ele>
        <time>2022-07-18T06:48:43Z</time>
      </trkpt>
      <trkpt lat="44.72386" lon="6.85734">
        <ele>1806</ele>
        <time>2022-07-18T06:48:44Z</time>
      </trkpt>
      <trkpt lat="44.72387" lon="6.85737">
        <ele>1806.6</ele>
        <time>2022-07-18T06:48:45Z</time>
      </trkpt>
      <trkpt lat="44.72388" lon="6.8574">
        <ele>1806.8</ele>
        <time>2022-07-18T06:48:46Z</time>
      </trkpt>
      <trkpt lat="44.72389" lon="6.85742">
        <ele>1806.8</ele>
        <time>2022-07-18T06:48:47Z</time>
      </trkpt>
      <trkpt lat="44.72389" lon="6.85745">
        <ele>1807</ele>
        <time>2022-07-18T06:48:48Z</time>
      </trkpt>
      <trkpt lat="44.7239" lon="6.85748">
        <ele>1807.4</ele>
        <time>2022-07-18T06:48:49Z</time>
      </trkpt>
      <trkpt lat="44.7239" lon="6.85751">
        <ele>1807.4</ele>
        <time>2022-07-18T06:48:50Z</time>
      </trkpt>
      <trkpt lat="44.72391" lon="6.85754">
        <ele>1807.8</ele>
        <time>2022-07-18T06:48:51Z</time>
      </trkpt>
      <trkpt lat="44.72391" lon="6.85757">
        <ele>1807.8</ele>
        <time>2022-07-18T06:48:52Z</time>
      </trkpt>
      <trkpt lat="44.72392" lon="6.8576">
        <ele>1808</ele>
        <time>2022-07-18T06:48:53Z</time>
      </trkpt>
      <trkpt lat="44.72392" lon="6.85762">
        <ele>1808.4</ele>
        <time>2022-07-18T06:48:54Z</time>
      </trkpt>
      <trkpt lat="44.72393" lon="6.85765">
        <ele>1808.4</ele>
        <time>2022-07-18T06:48:55Z</time>
      </trkpt>
      <trkpt lat="44.72393" lon="6.85768">
        <ele>1808.8</ele>
        <time>2022-07-18T06:48:56Z</time>
      </trkpt>
      <trkpt lat="44.72394" lon="6.85771">
        <ele>1808.8</ele>
        <time>2022-07-18T06:48:57Z</time>
      </trkpt>
      <trkpt lat="44.72395" lon="6.85773">
        <ele>1809.2</ele>
        <time>2022-07-18T06:48:58Z</time>
      </trkpt>
      <trkpt lat="44.72395" lon="6.85776">
        <ele>1809.2</ele>
        <time>2022-07-18T06:48:59Z</time>
      </trkpt>
      <trkpt lat="44.72396" lon="6.85779">
        <ele>1809.4</ele>
        <time>2022-07-18T06:49:00Z</time>
      </trkpt>
      <trkpt lat="44.72396" lon="6.85782">
        <ele>1809.4</ele>
        <time>2022-07-18T06:49:01Z</time>
      </trkpt>
      <trkpt lat="44.72397" lon="6.85784">
        <ele>1809.8</ele>
        <time>2022-07-18T06:49:02Z</time>
      </trkpt>
      <trkpt lat="44.72398" lon="6.85787">
        <ele>1809.8</ele>
        <time>2022-07-18T06:49:03Z</time>
      </trkpt>
      <trkpt lat="44.72399" lon="6.8579">
        <ele>1810.2</ele>
        <time>2022-07-18T06:49:04Z</time>
      </trkpt>
      <trkpt lat="44.724" lon="6.85793">
        <ele>1810.2</ele>
        <time>2022-07-18T06:49:05Z</time>
      </trkpt>
      <trkpt lat="44.724" lon="6.85796">
        <ele>1810.6</ele>
        <time>2022-07-18T06:49:06Z</time>
      </trkpt>
      <trkpt lat="44.72401" lon="6.85798">
        <ele>1810.6</ele>
        <time>2022-07-18T06:49:07Z</time>
      </trkpt>
      <trkpt lat="44.72402" lon="6.85801">
        <ele>1810.8</ele>
        <time>2022-07-18T06:49:08Z</time>
      </trkpt>
      <trkpt lat="44.72403" lon="6.85804">
        <ele>1810.8</ele>
        <time>2022-07-18T06:49:09Z</time>
      </trkpt>
      <trkpt lat="44.72404" lon="6.85806">
        <ele>1811.2</ele>
        <time>2022-07-18T06:49:10Z</time>
      </trkpt>
      <trkpt lat="44.72405" lon="6.85809">
        <ele>1811.2</ele>
        <time>2022-07-18T06:49:11Z</time>
      </trkpt>
      <trkpt lat="44.72406" lon="6.85812">
        <ele>1811.6</ele>
        <time>2022-07-18T06:49:12Z</time>
      </trkpt>
      <trkpt lat="44.72407" lon="6.85814">
        <ele>1811.6</ele>
        <time>2022-07-18T06:49:13Z</time>
      </trkpt>
      <trkpt lat="44.72408" lon="6.85817">
        <ele>1811.8</ele>
        <time>2022-07-18T06:49:14Z</time>
      </trkpt>
      <trkpt lat="44.72409" lon="6.8582">
        <ele>1811.8</ele>
        <time>2022-07-18T06:49:15Z</time>
      </trkpt>
      <trkpt lat="44.7241" lon="6.85822">
        <ele>1812.2</ele>
        <time>2022-07-18T06:49:16Z</time>
      </trkpt>
      <trkpt lat="44.72411" lon="6.85825">
        <ele>1812.2</ele>
        <time>2022-07-18T06:49:17Z</time>
      </trkpt>
      <trkpt lat="44.72412" lon="6.85827">
        <ele>1812.6</ele>
        <time>2022-07-18T06:49:18Z</time>
      </trkpt>
      <trkpt lat="44.72413" lon="6.8583">
        <ele>1812.6</ele>
        <time>2022-07-18T06:49:19Z</time>
      </trkpt>
      <trkpt lat="44.72414" lon="6.85832">
        <ele>1812.6</ele>
        <time>2022-07-18T06:49:20Z</time>
      </trkpt>
      <trkpt lat="44.72415" lon="6.85835">
        <ele>1812.8</ele>
        <time>2022-07-18T06:49:21Z</time>
      </trkpt>
      <trkpt lat="44.72417" lon="6.85838">
        <ele>1812.8</ele>
        <time>2022-07-18T06:49:22Z</time>
      </trkpt>
      <trkpt lat="44.72418" lon="6.85841">
        <ele>1813</ele>
        <time>2022-07-18T06:49:23Z</time>
      </trkpt>
      <trkpt lat="44.72418" lon="6.85844">
        <ele>1813</ele>
        <time>2022-07-18T06:49:24Z</time>
      </trkpt>
      <trkpt lat="44.72419" lon="6.85847">
        <ele>1813.4</ele>
        <time>2022-07-18T06:49:25Z</time>
      </trkpt>
      <trkpt lat="44.7242" lon="6.8585">
        <ele>1813.4</ele>
        <time>2022-07-18T06:49:26Z</time>
      </trkpt>
      <trkpt lat="44.72421" lon="6.85853">
        <ele>1813.6</ele>
        <time>2022-07-18T06:49:27Z</time>
      </trkpt>
      <trkpt lat="44.72422" lon="6.85855">
        <ele>1813.6</ele>
        <time>2022-07-18T06:49:28Z</time>
      </trkpt>
      <trkpt lat="44.72424" lon="6.85858">
        <ele>1814</ele>
        <time>2022-07-18T06:49:29Z</time>
      </trkpt>
      <trkpt lat="44.72425" lon="6.85861">
        <ele>1814</ele>
        <time>2022-07-18T06:49:30Z</time>
      </trkpt>
      <trkpt lat="44.72426" lon="6.85864">
        <ele>1814.2</ele>
        <time>2022-07-18T06:49:31Z</time>
      </trkpt>
      <trkpt lat="44.72427" lon="6.85867">
        <ele>1814.2</ele>
        <time>2022-07-18T06:49:32Z</time>
      </trkpt>
      <trkpt lat="44.72428" lon="6.85869">
        <ele>1814.6</ele>
        <time>2022-07-18T06:49:33Z</time>
      </trkpt>
      <trkpt lat="44.72428" lon="6.85872">
        <ele>1814.6</ele>
        <time>2022-07-18T06:49:34Z</time>
      </trkpt>
      <trkpt lat="44.72429" lon="6.85875">
        <ele>1814.8</ele>
        <time>2022-07-18T06:49:35Z</time>
      </trkpt>
      <trkpt lat="44.7243" lon="6.85878">
        <ele>1814.8</ele>
        <time>2022-07-18T06:49:36Z</time>
      </trkpt>
      <trkpt lat="44.72431" lon="6.8588">
        <ele>1815.2</ele>
        <time>2022-07-18T06:49:37Z</time>
      </trkpt>
      <trkpt lat="44.72432" lon="6.85883">
        <ele>1815.2</ele>
        <time>2022-07-18T06:49:38Z</time>
      </trkpt>
      <trkpt lat="44.72433" lon="6.85886">
        <ele>1815.4</ele>
        <time>2022-07-18T06:49:39Z</time>
      </trkpt>
      <trkpt lat="44.72434" lon="6.85889">
        <ele>1815.8</ele>
        <time>2022-07-18T06:49:40Z</time>
      </trkpt>
      <trkpt lat="44.72435" lon="6.85892">
        <ele>1815.8</ele>
        <time>2022-07-18T06:49:41Z</time>
      </trkpt>
      <trkpt lat="44.72436" lon="6.85895">
        <ele>1816</ele>
        <time>2022-07-18T06:49:42Z</time>
      </trkpt>
      <trkpt lat="44.72437" lon="6.85898">
        <ele>1816</ele>
        <time>2022-07-18T06:49:43Z</time>
      </trkpt>
      <trkpt lat="44.72437" lon="6.85901">
        <ele>1816.4</ele>
        <time>2022-07-18T06:49:44Z</time>
      </trkpt>
      <trkpt lat="44.72438" lon="6.85903">
        <ele>1816.6</ele>
        <time>2022-07-18T06:49:45Z</time>
      </trkpt>
      <trkpt lat="44.72439" lon="6.85906">
        <ele>1816.6</ele>
        <time>2022-07-18T06:49:46Z</time>
      </trkpt>
      <trkpt lat="44.72439" lon="6.85909">
        <ele>1817</ele>
        <time>2022-07-18T06:49:47Z</time>
      </trkpt>
      <trkpt lat="44.7244" lon="6.85912">
        <ele>1817</ele>
        <time>2022-07-18T06:49:48Z</time>
      </trkpt>
      <trkpt lat="44.72441" lon="6.85915">
        <ele>1817.4</ele>
        <time>2022-07-18T06:49:49Z</time>
      </trkpt>
      <trkpt lat="44.72441" lon="6.85918">
        <ele>1817.4</ele>
        <time>2022-07-18T06:49:50Z</time>
      </trkpt>
      <trkpt lat="44.72442" lon="6.85921">
        <ele>1817.8</ele>
        <time>2022-07-18T06:49:51Z</time>
      </trkpt>
      <trkpt lat="44.72443" lon="6.85923">
        <ele>1817.8</ele>
        <time>2022-07-18T06:49:52Z</time>
      </trkpt>
      <trkpt lat="44.72444" lon="6.85926">
        <ele>1818.2</ele>
        <time>2022-07-18T06:49:53Z</time>
      </trkpt>
      <trkpt lat="44.72444" lon="6.85928">
        <ele>1818.2</ele>
        <time>2022-07-18T06:49:54Z</time>
      </trkpt>
      <trkpt lat="44.72445" lon="6.85931">
        <ele>1818.4</ele>
        <time>2022-07-18T06:49:55Z</time>
      </trkpt>
      <trkpt lat="44.72445" lon="6.85934">
        <ele>1818.4</ele>
        <time>2022-07-18T06:49:56Z</time>
      </trkpt>
      <trkpt lat="44.72445" lon="6.85937">
        <ele>1818.8</ele>
        <time>2022-07-18T06:49:57Z</time>
      </trkpt>
      <trkpt lat="44.72445" lon="6.8594">
        <ele>1819</ele>
        <time>2022-07-18T06:49:58Z</time>
      </trkpt>
      <trkpt lat="44.72446" lon="6.85943">
        <ele>1819</ele>
        <time>2022-07-18T06:49:59Z</time>
      </trkpt>
      <trkpt lat="44.72446" lon="6.85946">
        <ele>1819.4</ele>
        <time>2022-07-18T06:50:00Z</time>
      </trkpt>
      <trkpt lat="44.72447" lon="6.85949">
        <ele>1819.4</ele>
        <time>2022-07-18T06:50:01Z</time>
      </trkpt>
      <trkpt lat="44.72447" lon="6.85952">
        <ele>1819.8</ele>
        <time>2022-07-18T06:50:02Z</time>
      </trkpt>
      <trkpt lat="44.72447" lon="6.85955">
        <ele>1820</ele>
        <time>2022-07-18T06:50:03Z</time>
      </trkpt>
      <trkpt lat="44.72448" lon="6.85958">
        <ele>1820.2</ele>
        <time>2022-07-18T06:50:04Z</time>
      </trkpt>
      <trkpt lat="44.72448" lon="6.85961">
        <ele>1820.2</ele>
        <time>2022-07-18T06:50:05Z</time>
      </trkpt>
      <trkpt lat="44.72448" lon="6.85963">
        <ele>1820.6</ele>
        <time>2022-07-18T06:50:06Z</time>
      </trkpt>
      <trkpt lat="44.72447" lon="6.85966">
        <ele>1820.6</ele>
        <time>2022-07-18T06:50:07Z</time>
      </trkpt>
      <trkpt lat="44.72448" lon="6.85969">
        <ele>1821</ele>
        <time>2022-07-18T06:50:08Z</time>
      </trkpt>
      <trkpt lat="44.72448" lon="6.85972">
        <ele>1821.2</ele>
        <time>2022-07-18T06:50:09Z</time>
      </trkpt>
      <trkpt lat="44.72448" lon="6.85975">
        <ele>1821.4</ele>
        <time>2022-07-18T06:50:10Z</time>
      </trkpt>
      <trkpt lat="44.72448" lon="6.85978">
        <ele>1821.4</ele>
        <time>2022-07-18T06:50:11Z</time>
      </trkpt>
      <trkpt lat="44.72448" lon="6.8598">
        <ele>1821.6</ele>
        <time>2022-07-18T06:50:12Z</time>
      </trkpt>
      <trkpt lat="44.72449" lon="6.85983">
        <ele>1822</ele>
        <time>2022-07-18T06:50:14Z</time>
      </trkpt>
      <trkpt lat="44.7245" lon="6.85986">
        <ele>1822</ele>
        <time>2022-07-18T06:50:15Z</time>
      </trkpt>
      <trkpt lat="44.72451" lon="6.85988">
        <ele>1822.4</ele>
        <time>2022-07-18T06:50:16Z</time>
      </trkpt>
      <trkpt lat="44.72451" lon="6.85991">
        <ele>1822.4</ele>
        <time>2022-07-18T06:50:17Z</time>
      </trkpt>
      <trkpt lat="44.72452" lon="6.85994">
        <ele>1822.6</ele>
        <time>2022-07-18T06:50:18Z</time>
      </trkpt>
      <trkpt lat="44.72454" lon="6.85999">
        <ele>1822.8</ele>
        <time>2022-07-18T06:50:19Z</time>
      </trkpt>
      <trkpt lat="44.72455" lon="6.86002">
        <ele>1822.8</ele>
        <time>2022-07-18T06:50:20Z</time>
      </trkpt>
      <trkpt lat="44.72456" lon="6.86005">
        <ele>1823.2</ele>
        <time>2022-07-18T06:50:21Z</time>
      </trkpt>
      <trkpt lat="44.72456" lon="6.86007">
        <ele>1823.2</ele>
        <time>2022-07-18T06:50:22Z</time>
      </trkpt>
      <trkpt lat="44.72457" lon="6.8601">
        <ele>1823.6</ele>
        <time>2022-07-18T06:50:23Z</time>
      </trkpt>
      <trkpt lat="44.72458" lon="6.86013">
        <ele>1823.6</ele>
        <time>2022-07-18T06:50:24Z</time>
      </trkpt>
      <trkpt lat="44.72459" lon="6.86015">
        <ele>1823.8</ele>
        <time>2022-07-18T06:50:25Z</time>
      </trkpt>
      <trkpt lat="44.72459" lon="6.86018">
        <ele>1824</ele>
        <time>2022-07-18T06:50:26Z</time>
      </trkpt>
      <trkpt lat="44.7246" lon="6.8602">
        <ele>1824.2</ele>
        <time>2022-07-18T06:50:27Z</time>
      </trkpt>
      <trkpt lat="44.72461" lon="6.86023">
        <ele>1824.2</ele>
        <time>2022-07-18T06:50:28Z</time>
      </trkpt>
      <trkpt lat="44.72462" lon="6.86025">
        <ele>1824.6</ele>
        <time>2022-07-18T06:50:29Z</time>
      </trkpt>
      <trkpt lat="44.72463" lon="6.86028">
        <ele>1824.6</ele>
        <time>2022-07-18T06:50:30Z</time>
      </trkpt>
      <trkpt lat="44.72464" lon="6.8603">
        <ele>1825</ele>
        <time>2022-07-18T06:50:31Z</time>
      </trkpt>
      <trkpt lat="44.72464" lon="6.86032">
        <ele>1825</ele>
        <time>2022-07-18T06:50:32Z</time>
      </trkpt>
      <trkpt lat="44.72465" lon="6.86035">
        <ele>1825.4</ele>
        <time>2022-07-18T06:50:33Z</time>
      </trkpt>
      <trkpt lat="44.72466" lon="6.86037">
        <ele>1825.6</ele>
        <time>2022-07-18T06:50:34Z</time>
      </trkpt>
      <trkpt lat="44.72467" lon="6.8604">
        <ele>1825.6</ele>
        <time>2022-07-18T06:50:35Z</time>
      </trkpt>
      <trkpt lat="44.72468" lon="6.86043">
        <ele>1826</ele>
        <time>2022-07-18T06:50:36Z</time>
      </trkpt>
      <trkpt lat="44.72468" lon="6.86046">
        <ele>1826.2</ele>
        <time>2022-07-18T06:50:37Z</time>
      </trkpt>
      <trkpt lat="44.72468" lon="6.86049">
        <ele>1826.2</ele>
        <time>2022-07-18T06:50:38Z</time>
      </trkpt>
      <trkpt lat="44.72469" lon="6.86051">
        <ele>1826.4</ele>
        <time>2022-07-18T06:50:39Z</time>
      </trkpt>
      <trkpt lat="44.72469" lon="6.86054">
        <ele>1826.6</ele>
        <time>2022-07-18T06:50:40Z</time>
      </trkpt>
      <trkpt lat="44.7247" lon="6.86056">
        <ele>1826.8</ele>
        <time>2022-07-18T06:50:41Z</time>
      </trkpt>
      <trkpt lat="44.72471" lon="6.86059">
        <ele>1827</ele>
        <time>2022-07-18T06:50:42Z</time>
      </trkpt>
      <trkpt lat="44.72471" lon="6.86062">
        <ele>1827</ele>
        <time>2022-07-18T06:50:43Z</time>
      </trkpt>
      <trkpt lat="44.72471" lon="6.86064">
        <ele>1827.2</ele>
        <time>2022-07-18T06:50:44Z</time>
      </trkpt>
      <trkpt lat="44.72472" lon="6.86067">
        <ele>1827.2</ele>
        <time>2022-07-18T06:50:45Z</time>
      </trkpt>
      <trkpt lat="44.72472" lon="6.8607">
        <ele>1827.6</ele>
        <time>2022-07-18T06:50:46Z</time>
      </trkpt>
      <trkpt lat="44.72472" lon="6.86072">
        <ele>1827.6</ele>
        <time>2022-07-18T06:50:47Z</time>
      </trkpt>
      <trkpt lat="44.72472" lon="6.86075">
        <ele>1828</ele>
        <time>2022-07-18T06:50:48Z</time>
      </trkpt>
      <trkpt lat="44.72473" lon="6.86078">
        <ele>1828</ele>
        <time>2022-07-18T06:50:49Z</time>
      </trkpt>
      <trkpt lat="44.72473" lon="6.8608">
        <ele>1828.2</ele>
        <time>2022-07-18T06:50:50Z</time>
      </trkpt>
      <trkpt lat="44.72473" lon="6.86083">
        <ele>1828.2</ele>
        <time>2022-07-18T06:50:51Z</time>
      </trkpt>
      <trkpt lat="44.72474" lon="6.86086">
        <ele>1828.6</ele>
        <time>2022-07-18T06:50:52Z</time>
      </trkpt>
      <trkpt lat="44.72475" lon="6.86089">
        <ele>1828.6</ele>
        <time>2022-07-18T06:50:53Z</time>
      </trkpt>
      <trkpt lat="44.72475" lon="6.86091">
        <ele>1828.8</ele>
        <time>2022-07-18T06:50:54Z</time>
      </trkpt>
      <trkpt lat="44.72476" lon="6.86094">
        <ele>1828.8</ele>
        <time>2022-07-18T06:50:55Z</time>
      </trkpt>
      <trkpt lat="44.72477" lon="6.86096">
        <ele>1829</ele>
        <time>2022-07-18T06:50:56Z</time>
      </trkpt>
      <trkpt lat="44.72477" lon="6.86099">
        <ele>1829</ele>
        <time>2022-07-18T06:50:57Z</time>
      </trkpt>
      <trkpt lat="44.72478" lon="6.86101">
        <ele>1829.4</ele>
        <time>2022-07-18T06:50:58Z</time>
      </trkpt>
      <trkpt lat="44.72478" lon="6.86103">
        <ele>1829.4</ele>
        <time>2022-07-18T06:50:59Z</time>
      </trkpt>
      <trkpt lat="44.72479" lon="6.86106">
        <ele>1829.6</ele>
        <time>2022-07-18T06:51:00Z</time>
      </trkpt>
      <trkpt lat="44.72479" lon="6.86109">
        <ele>1829.6</ele>
        <time>2022-07-18T06:51:01Z</time>
      </trkpt>
      <trkpt lat="44.7248" lon="6.86111">
        <ele>1829.8</ele>
        <time>2022-07-18T06:51:02Z</time>
      </trkpt>
      <trkpt lat="44.72481" lon="6.86114">
        <ele>1829.8</ele>
        <time>2022-07-18T06:51:03Z</time>
      </trkpt>
      <trkpt lat="44.72481" lon="6.86117">
        <ele>1830.2</ele>
        <time>2022-07-18T06:51:04Z</time>
      </trkpt>
      <trkpt lat="44.72482" lon="6.86119">
        <ele>1830.2</ele>
        <time>2022-07-18T06:51:05Z</time>
      </trkpt>
      <trkpt lat="44.72483" lon="6.86122">
        <ele>1830.6</ele>
        <time>2022-07-18T06:51:06Z</time>
      </trkpt>
      <trkpt lat="44.72483" lon="6.86124">
        <ele>1830.6</ele>
        <time>2022-07-18T06:51:07Z</time>
      </trkpt>
      <trkpt lat="44.72484" lon="6.86127">
        <ele>1831</ele>
        <time>2022-07-18T06:51:08Z</time>
      </trkpt>
      <trkpt lat="44.72484" lon="6.86129">
        <ele>1831.2</ele>
        <time>2022-07-18T06:51:09Z</time>
      </trkpt>
      <trkpt lat="44.72485" lon="6.86131">
        <ele>1831.2</ele>
        <time>2022-07-18T06:51:10Z</time>
      </trkpt>
      <trkpt lat="44.72485" lon="6.86134">
        <ele>1831.6</ele>
        <time>2022-07-18T06:51:11Z</time>
      </trkpt>
      <trkpt lat="44.72486" lon="6.86136">
        <ele>1831.6</ele>
        <time>2022-07-18T06:51:12Z</time>
      </trkpt>
      <trkpt lat="44.72486" lon="6.86139">
        <ele>1832</ele>
        <time>2022-07-18T06:51:13Z</time>
      </trkpt>
      <trkpt lat="44.72486" lon="6.86141">
        <ele>1832</ele>
        <time>2022-07-18T06:51:14Z</time>
      </trkpt>
      <trkpt lat="44.72486" lon="6.86144">
        <ele>1832.2</ele>
        <time>2022-07-18T06:51:15Z</time>
      </trkpt>
      <trkpt lat="44.72486" lon="6.86146">
        <ele>1832.2</ele>
        <time>2022-07-18T06:51:16Z</time>
      </trkpt>
      <trkpt lat="44.72487" lon="6.86149">
        <ele>1832.6</ele>
        <time>2022-07-18T06:51:17Z</time>
      </trkpt>
      <trkpt lat="44.72487" lon="6.86151">
        <ele>1832.6</ele>
        <time>2022-07-18T06:51:18Z</time>
      </trkpt>
      <trkpt lat="44.72487" lon="6.86154">
        <ele>1832.8</ele>
        <time>2022-07-18T06:51:19Z</time>
      </trkpt>
      <trkpt lat="44.72488" lon="6.86157">
        <ele>1832.8</ele>
        <time>2022-07-18T06:51:20Z</time>
      </trkpt>
      <trkpt lat="44.72488" lon="6.86159">
        <ele>1832.8</ele>
        <time>2022-07-18T06:51:21Z</time>
      </trkpt>
      <trkpt lat="44.72489" lon="6.86162">
        <ele>1833.4</ele>
        <time>2022-07-18T06:51:22Z</time>
      </trkpt>
      <trkpt lat="44.72489" lon="6.86165">
        <ele>1833.4</ele>
        <time>2022-07-18T06:51:23Z</time>
      </trkpt>
      <trkpt lat="44.72489" lon="6.86168">
        <ele>1833.8</ele>
        <time>2022-07-18T06:51:24Z</time>
      </trkpt>
      <trkpt lat="44.7249" lon="6.86171">
        <ele>1833.8</ele>
        <time>2022-07-18T06:51:25Z</time>
      </trkpt>
      <trkpt lat="44.7249" lon="6.86174">
        <ele>1834</ele>
        <time>2022-07-18T06:51:26Z</time>
      </trkpt>
      <trkpt lat="44.7249" lon="6.86177">
        <ele>1834.2</ele>
        <time>2022-07-18T06:51:27Z</time>
      </trkpt>
      <trkpt lat="44.7249" lon="6.8618">
        <ele>1834.2</ele>
        <time>2022-07-18T06:51:28Z</time>
      </trkpt>
      <trkpt lat="44.7249" lon="6.86183">
        <ele>1834.6</ele>
        <time>2022-07-18T06:51:29Z</time>
      </trkpt>
      <trkpt lat="44.7249" lon="6.86185">
        <ele>1834.6</ele>
        <time>2022-07-18T06:51:30Z</time>
      </trkpt>
      <trkpt lat="44.72489" lon="6.86188">
        <ele>1835</ele>
        <time>2022-07-18T06:51:31Z</time>
      </trkpt>
      <trkpt lat="44.72489" lon="6.86191">
        <ele>1835</ele>
        <time>2022-07-18T06:51:32Z</time>
      </trkpt>
      <trkpt lat="44.72489" lon="6.86194">
        <ele>1835.2</ele>
        <time>2022-07-18T06:51:33Z</time>
      </trkpt>
      <trkpt lat="44.72489" lon="6.86197">
        <ele>1835.2</ele>
        <time>2022-07-18T06:51:34Z</time>
      </trkpt>
      <trkpt lat="44.72489" lon="6.86199">
        <ele>1835.4</ele>
        <time>2022-07-18T06:51:35Z</time>
      </trkpt>
      <trkpt lat="44.7249" lon="6.86202">
        <ele>1835.4</ele>
        <time>2022-07-18T06:51:36Z</time>
      </trkpt>
      <trkpt lat="44.7249" lon="6.86206">
        <ele>1835.8</ele>
        <time>2022-07-18T06:51:37Z</time>
      </trkpt>
      <trkpt lat="44.7249" lon="6.86208">
        <ele>1835.8</ele>
        <time>2022-07-18T06:51:38Z</time>
      </trkpt>
      <trkpt lat="44.7249" lon="6.86211">
        <ele>1836.2</ele>
        <time>2022-07-18T06:51:39Z</time>
      </trkpt>
      <trkpt lat="44.72491" lon="6.86215">
        <ele>1836.2</ele>
        <time>2022-07-18T06:51:40Z</time>
      </trkpt>
      <trkpt lat="44.72491" lon="6.86218">
        <ele>1836.2</ele>
        <time>2022-07-18T06:51:41Z</time>
      </trkpt>
      <trkpt lat="44.72492" lon="6.86221">
        <ele>1836.4</ele>
        <time>2022-07-18T06:51:42Z</time>
      </trkpt>
      <trkpt lat="44.72492" lon="6.86224">
        <ele>1836.4</ele>
        <time>2022-07-18T06:51:43Z</time>
      </trkpt>
      <trkpt lat="44.72493" lon="6.86227">
        <ele>1836.6</ele>
        <time>2022-07-18T06:51:44Z</time>
      </trkpt>
      <trkpt lat="44.72493" lon="6.86231">
        <ele>1836.6</ele>
        <time>2022-07-18T06:51:45Z</time>
      </trkpt>
      <trkpt lat="44.72494" lon="6.86234">
        <ele>1837</ele>
        <time>2022-07-18T06:51:46Z</time>
      </trkpt>
      <trkpt lat="44.72495" lon="6.86237">
        <ele>1837</ele>
        <time>2022-07-18T06:51:47Z</time>
      </trkpt>
      <trkpt lat="44.72495" lon="6.86241">
        <ele>1837</ele>
        <time>2022-07-18T06:51:48Z</time>
      </trkpt>
      <trkpt lat="44.72495" lon="6.86244">
        <ele>1837</ele>
        <time>2022-07-18T06:51:49Z</time>
      </trkpt>
      <trkpt lat="44.72496" lon="6.86247">
        <ele>1837</ele>
        <time>2022-07-18T06:51:50Z</time>
      </trkpt>
      <trkpt lat="44.72497" lon="6.86251">
        <ele>1837</ele>
        <time>2022-07-18T06:51:51Z</time>
      </trkpt>
      <trkpt lat="44.72497" lon="6.86255">
        <ele>1837</ele>
        <time>2022-07-18T06:51:52Z</time>
      </trkpt>
      <trkpt lat="44.72498" lon="6.86259">
        <ele>1837</ele>
        <time>2022-07-18T06:51:53Z</time>
      </trkpt>
      <trkpt lat="44.72498" lon="6.86263">
        <ele>1837</ele>
        <time>2022-07-18T06:51:54Z</time>
      </trkpt>
      <trkpt lat="44.72499" lon="6.86267">
        <ele>1837</ele>
        <time>2022-07-18T06:51:55Z</time>
      </trkpt>
      <trkpt lat="44.725" lon="6.86271">
        <ele>1837</ele>
        <time>2022-07-18T06:51:56Z</time>
      </trkpt>
      <trkpt lat="44.72501" lon="6.86276">
        <ele>1836.6</ele>
        <time>2022-07-18T06:51:57Z</time>
      </trkpt>
      <trkpt lat="44.72501" lon="6.86281">
        <ele>1836.4</ele>
        <time>2022-07-18T06:51:58Z</time>
      </trkpt>
      <trkpt lat="44.72501" lon="6.86288">
        <ele>1836.2</ele>
        <time>2022-07-18T06:51:59Z</time>
      </trkpt>
      <trkpt lat="44.725" lon="6.86295">
        <ele>1835.8</ele>
        <time>2022-07-18T06:52:00Z</time>
      </trkpt>
      <trkpt lat="44.72499" lon="6.86302">
        <ele>1835.6</ele>
        <time>2022-07-18T06:52:01Z</time>
      </trkpt>
      <trkpt lat="44.72498" lon="6.86309">
        <ele>1835.4</ele>
        <time>2022-07-18T06:52:02Z</time>
      </trkpt>
      <trkpt lat="44.72497" lon="6.86316">
        <ele>1835</ele>
        <time>2022-07-18T06:52:03Z</time>
      </trkpt>
      <trkpt lat="44.72497" lon="6.86324">
        <ele>1834.8</ele>
        <time>2022-07-18T06:52:04Z</time>
      </trkpt>
      <trkpt lat="44.72497" lon="6.86332">
        <ele>1834.4</ele>
        <time>2022-07-18T06:52:05Z</time>
      </trkpt>
      <trkpt lat="44.72497" lon="6.8634">
        <ele>1834.2</ele>
        <time>2022-07-18T06:52:06Z</time>
      </trkpt>
      <trkpt lat="44.72497" lon="6.86348">
        <ele>1834.2</ele>
        <time>2022-07-18T06:52:07Z</time>
      </trkpt>
      <trkpt lat="44.72497" lon="6.86357">
        <ele>1833.8</ele>
        <time>2022-07-18T06:52:08Z</time>
      </trkpt>
      <trkpt lat="44.72497" lon="6.86365">
        <ele>1833.8</ele>
        <time>2022-07-18T06:52:09Z</time>
      </trkpt>
      <trkpt lat="44.72497" lon="6.86373">
        <ele>1833.8</ele>
        <time>2022-07-18T06:52:10Z</time>
      </trkpt>
      <trkpt lat="44.72496" lon="6.8638">
        <ele>1833.8</ele>
        <time>2022-07-18T06:52:11Z</time>
      </trkpt>
      <trkpt lat="44.72495" lon="6.86387">
        <ele>1833.8</ele>
        <time>2022-07-18T06:52:12Z</time>
      </trkpt>
      <trkpt lat="44.72494" lon="6.86393">
        <ele>1833.8</ele>
        <time>2022-07-18T06:52:13Z</time>
      </trkpt>
      <trkpt lat="44.72494" lon="6.86399">
        <ele>1834.2</ele>
        <time>2022-07-18T06:52:14Z</time>
      </trkpt>
      <trkpt lat="44.72493" lon="6.86405">
        <ele>1834.2</ele>
        <time>2022-07-18T06:52:15Z</time>
      </trkpt>
      <trkpt lat="44.72493" lon="6.8641">
        <ele>1834.2</ele>
        <time>2022-07-18T06:52:16Z</time>
      </trkpt>
      <trkpt lat="44.72492" lon="6.86415">
        <ele>1834.2</ele>
        <time>2022-07-18T06:52:17Z</time>
      </trkpt>
      <trkpt lat="44.72492" lon="6.86421">
        <ele>1834.4</ele>
        <time>2022-07-18T06:52:18Z</time>
      </trkpt>
      <trkpt lat="44.72492" lon="6.86426">
        <ele>1834.4</ele>
        <time>2022-07-18T06:52:19Z</time>
      </trkpt>
      <trkpt lat="44.72492" lon="6.86431">
        <ele>1834.4</ele>
        <time>2022-07-18T06:52:20Z</time>
      </trkpt>
      <trkpt lat="44.72492" lon="6.86437">
        <ele>1834.4</ele>
        <time>2022-07-18T06:52:21Z</time>
      </trkpt>
      <trkpt lat="44.72492" lon="6.86444">
        <ele>1834.6</ele>
        <time>2022-07-18T06:52:22Z</time>
      </trkpt>
      <trkpt lat="44.72492" lon="6.8645">
        <ele>1834.6</ele>
        <time>2022-07-18T06:52:23Z</time>
      </trkpt>
      <trkpt lat="44.72492" lon="6.86457">
        <ele>1834.6</ele>
        <time>2022-07-18T06:52:24Z</time>
      </trkpt>
      <trkpt lat="44.72492" lon="6.86463">
        <ele>1834.6</ele>
        <time>2022-07-18T06:52:25Z</time>
      </trkpt>
      <trkpt lat="44.7249" lon="6.8647">
        <ele>1834.6</ele>
        <time>2022-07-18T06:52:26Z</time>
      </trkpt>
      <trkpt lat="44.72489" lon="6.86476">
        <ele>1834.6</ele>
        <time>2022-07-18T06:52:27Z</time>
      </trkpt>
      <trkpt lat="44.72487" lon="6.86482">
        <ele>1834.6</ele>
        <time>2022-07-18T06:52:28Z</time>
      </trkpt>
      <trkpt lat="44.72486" lon="6.86488">
        <ele>1834.6</ele>
        <time>2022-07-18T06:52:29Z</time>
      </trkpt>
      <trkpt lat="44.72485" lon="6.86495">
        <ele>1834.2</ele>
        <time>2022-07-18T06:52:30Z</time>
      </trkpt>
      <trkpt lat="44.72484" lon="6.86502">
        <ele>1834.2</ele>
        <time>2022-07-18T06:52:31Z</time>
      </trkpt>
      <trkpt lat="44.72483" lon="6.86508">
        <ele>1834</ele>
        <time>2022-07-18T06:52:32Z</time>
      </trkpt>
      <trkpt lat="44.72481" lon="6.86515">
        <ele>1834</ele>
        <time>2022-07-18T06:52:33Z</time>
      </trkpt>
      <trkpt lat="44.7248" lon="6.86522">
        <ele>1834</ele>
        <time>2022-07-18T06:52:34Z</time>
      </trkpt>
      <trkpt lat="44.7248" lon="6.86531">
        <ele>1833.8</ele>
        <time>2022-07-18T06:52:35Z</time>
      </trkpt>
      <trkpt lat="44.7248" lon="6.86538">
        <ele>1833.8</ele>
        <time>2022-07-18T06:52:36Z</time>
      </trkpt>
      <trkpt lat="44.7248" lon="6.86544">
        <ele>1833.8</ele>
        <time>2022-07-18T06:52:37Z</time>
      </trkpt>
      <trkpt lat="44.72481" lon="6.86551">
        <ele>1833.8</ele>
        <time>2022-07-18T06:52:38Z</time>
      </trkpt>
      <trkpt lat="44.72482" lon="6.86556">
        <ele>1833.8</ele>
        <time>2022-07-18T06:52:39Z</time>
      </trkpt>
      <trkpt lat="44.72483" lon="6.86562">
        <ele>1834</ele>
        <time>2022-07-18T06:52:40Z</time>
      </trkpt>
      <trkpt lat="44.72484" lon="6.86567">
        <ele>1834</ele>
        <time>2022-07-18T06:52:41Z</time>
      </trkpt>
      <trkpt lat="44.72486" lon="6.86572">
        <ele>1834.4</ele>
        <time>2022-07-18T06:52:42Z</time>
      </trkpt>
      <trkpt lat="44.72487" lon="6.86576">
        <ele>1834.4</ele>
        <time>2022-07-18T06:52:43Z</time>
      </trkpt>
      <trkpt lat="44.72488" lon="6.86581">
        <ele>1834.6</ele>
        <time>2022-07-18T06:52:44Z</time>
      </trkpt>
      <trkpt lat="44.72489" lon="6.86585">
        <ele>1834.6</ele>
        <time>2022-07-18T06:52:45Z</time>
      </trkpt>
      <trkpt lat="44.72491" lon="6.86589">
        <ele>1835</ele>
        <time>2022-07-18T06:52:46Z</time>
      </trkpt>
      <trkpt lat="44.72492" lon="6.86593">
        <ele>1835</ele>
        <time>2022-07-18T06:52:47Z</time>
      </trkpt>
      <trkpt lat="44.72493" lon="6.86597">
        <ele>1835.4</ele>
        <time>2022-07-18T06:52:48Z</time>
      </trkpt>
      <trkpt lat="44.72495" lon="6.86602">
        <ele>1835.4</ele>
        <time>2022-07-18T06:52:49Z</time>
      </trkpt>
      <trkpt lat="44.72496" lon="6.86606">
        <ele>1835.6</ele>
        <time>2022-07-18T06:52:50Z</time>
      </trkpt>
      <trkpt lat="44.72497" lon="6.8661">
        <ele>1835.6</ele>
        <time>2022-07-18T06:52:51Z</time>
      </trkpt>
      <trkpt lat="44.72499" lon="6.86614">
        <ele>1836</ele>
        <time>2022-07-18T06:52:52Z</time>
      </trkpt>
      <trkpt lat="44.725" lon="6.86619">
        <ele>1836.2</ele>
        <time>2022-07-18T06:52:53Z</time>
      </trkpt>
      <trkpt lat="44.72501" lon="6.86623">
        <ele>1836.4</ele>
        <time>2022-07-18T06:52:54Z</time>
      </trkpt>
      <trkpt lat="44.72502" lon="6.86627">
        <ele>1836.4</ele>
        <time>2022-07-18T06:52:55Z</time>
      </trkpt>
      <trkpt lat="44.72503" lon="6.86631">
        <ele>1836.6</ele>
        <time>2022-07-18T06:52:56Z</time>
      </trkpt>
      <trkpt lat="44.72505" lon="6.86635">
        <ele>1836.6</ele>
        <time>2022-07-18T06:52:57Z</time>
      </trkpt>
      <trkpt lat="44.72505" lon="6.86639">
        <ele>1837</ele>
        <time>2022-07-18T06:52:58Z</time>
      </trkpt>
      <trkpt lat="44.72507" lon="6.86643">
        <ele>1837</ele>
        <time>2022-07-18T06:52:59Z</time>
      </trkpt>
      <trkpt lat="44.72508" lon="6.86648">
        <ele>1837.4</ele>
        <time>2022-07-18T06:53:00Z</time>
      </trkpt>
      <trkpt lat="44.72509" lon="6.86652">
        <ele>1837.4</ele>
        <time>2022-07-18T06:53:01Z</time>
      </trkpt>
      <trkpt lat="44.7251" lon="6.86656">
        <ele>1837.6</ele>
        <time>2022-07-18T06:53:02Z</time>
      </trkpt>
      <trkpt lat="44.72511" lon="6.8666">
        <ele>1837.6</ele>
        <time>2022-07-18T06:53:03Z</time>
      </trkpt>
      <trkpt lat="44.72511" lon="6.86664">
        <ele>1838</ele>
        <time>2022-07-18T06:53:04Z</time>
      </trkpt>
      <trkpt lat="44.72512" lon="6.86668">
        <ele>1838</ele>
        <time>2022-07-18T06:53:05Z</time>
      </trkpt>
      <trkpt lat="44.72512" lon="6.86672">
        <ele>1838.2</ele>
        <time>2022-07-18T06:53:06Z</time>
      </trkpt>
      <trkpt lat="44.72513" lon="6.86676">
        <ele>1838.2</ele>
        <time>2022-07-18T06:53:07Z</time>
      </trkpt>
      <trkpt lat="44.72514" lon="6.8668">
        <ele>1838.4</ele>
        <time>2022-07-18T06:53:08Z</time>
      </trkpt>
      <trkpt lat="44.72515" lon="6.86684">
        <ele>1838.6</ele>
        <time>2022-07-18T06:53:09Z</time>
      </trkpt>
      <trkpt lat="44.72515" lon="6.86689">
        <ele>1839</ele>
        <time>2022-07-18T06:53:10Z</time>
      </trkpt>
      <trkpt lat="44.72516" lon="6.86693">
        <ele>1839</ele>
        <time>2022-07-18T06:53:11Z</time>
      </trkpt>
      <trkpt lat="44.72516" lon="6.86697">
        <ele>1839.2</ele>
        <time>2022-07-18T06:53:12Z</time>
      </trkpt>
      <trkpt lat="44.72517" lon="6.86701">
        <ele>1839.2</ele>
        <time>2022-07-18T06:53:13Z</time>
      </trkpt>
      <trkpt lat="44.72517" lon="6.86705">
        <ele>1839.6</ele>
        <time>2022-07-18T06:53:14Z</time>
      </trkpt>
      <trkpt lat="44.72518" lon="6.8671">
        <ele>1839.6</ele>
        <time>2022-07-18T06:53:15Z</time>
      </trkpt>
      <trkpt lat="44.72518" lon="6.86714">
        <ele>1839.8</ele>
        <time>2022-07-18T06:53:16Z</time>
      </trkpt>
      <trkpt lat="44.72518" lon="6.86718">
        <ele>1839.8</ele>
        <time>2022-07-18T06:53:17Z</time>
      </trkpt>
      <trkpt lat="44.72519" lon="6.86723">
        <ele>1840.2</ele>
        <time>2022-07-18T06:53:18Z</time>
      </trkpt>
      <trkpt lat="44.72519" lon="6.86727">
        <ele>1840.2</ele>
        <time>2022-07-18T06:53:19Z</time>
      </trkpt>
      <trkpt lat="44.7252" lon="6.86731">
        <ele>1840.4</ele>
        <time>2022-07-18T06:53:20Z</time>
      </trkpt>
      <trkpt lat="44.7252" lon="6.86736">
        <ele>1840.4</ele>
        <time>2022-07-18T06:53:21Z</time>
      </trkpt>
      <trkpt lat="44.72521" lon="6.8674">
        <ele>1840.6</ele>
        <time>2022-07-18T06:53:22Z</time>
      </trkpt>
      <trkpt lat="44.72521" lon="6.86745">
        <ele>1840.8</ele>
        <time>2022-07-18T06:53:23Z</time>
      </trkpt>
      <trkpt lat="44.72522" lon="6.86749">
        <ele>1840.8</ele>
        <time>2022-07-18T06:53:24Z</time>
      </trkpt>
      <trkpt lat="44.72522" lon="6.86754">
        <ele>1841.2</ele>
        <time>2022-07-18T06:53:25Z</time>
      </trkpt>
      <trkpt lat="44.72523" lon="6.86758">
        <ele>1841.4</ele>
        <time>2022-07-18T06:53:26Z</time>
      </trkpt>
      <trkpt lat="44.72524" lon="6.86763">
        <ele>1841.4</ele>
        <time>2022-07-18T06:53:27Z</time>
      </trkpt>
      <trkpt lat="44.72524" lon="6.86767">
        <ele>1841.6</ele>
        <time>2022-07-18T06:53:28Z</time>
      </trkpt>
      <trkpt lat="44.72525" lon="6.86771">
        <ele>1842</ele>
        <time>2022-07-18T06:53:29Z</time>
      </trkpt>
      <trkpt lat="44.72525" lon="6.86776">
        <ele>1842</ele>
        <time>2022-07-18T06:53:30Z</time>
      </trkpt>
      <trkpt lat="44.72525" lon="6.8678">
        <ele>1842.2</ele>
        <time>2022-07-18T06:53:31Z</time>
      </trkpt>
      <trkpt lat="44.72526" lon="6.86784">
        <ele>1842.2</ele>
        <time>2022-07-18T06:53:32Z</time>
      </trkpt>
      <trkpt lat="44.72526" lon="6.86788">
        <ele>1842.6</ele>
        <time>2022-07-18T06:53:33Z</time>
      </trkpt>
      <trkpt lat="44.72526" lon="6.86792">
        <ele>1842.6</ele>
        <time>2022-07-18T06:53:34Z</time>
      </trkpt>
      <trkpt lat="44.72527" lon="6.86797">
        <ele>1842.8</ele>
        <time>2022-07-18T06:53:35Z</time>
      </trkpt>
      <trkpt lat="44.72527" lon="6.86801">
        <ele>1842.8</ele>
        <time>2022-07-18T06:53:36Z</time>
      </trkpt>
      <trkpt lat="44.72528" lon="6.86805">
        <ele>1843.2</ele>
        <time>2022-07-18T06:53:37Z</time>
      </trkpt>
      <trkpt lat="44.72528" lon="6.86809">
        <ele>1843.6</ele>
        <time>2022-07-18T06:53:39Z</time>
      </trkpt>
      <trkpt lat="44.72528" lon="6.86814">
        <ele>1843.6</ele>
        <time>2022-07-18T06:53:40Z</time>
      </trkpt>
      <trkpt lat="44.72528" lon="6.86818">
        <ele>1844</ele>
        <time>2022-07-18T06:53:41Z</time>
      </trkpt>
      <trkpt lat="44.72528" lon="6.86822">
        <ele>1844</ele>
        <time>2022-07-18T06:53:42Z</time>
      </trkpt>
      <trkpt lat="44.72529" lon="6.86826">
        <ele>1844.2</ele>
        <time>2022-07-18T06:53:43Z</time>
      </trkpt>
      <trkpt lat="44.72529" lon="6.86831">
        <ele>1844.2</ele>
        <time>2022-07-18T06:53:44Z</time>
      </trkpt>
      <trkpt lat="44.72529" lon="6.86835">
        <ele>1844.6</ele>
        <time>2022-07-18T06:53:45Z</time>
      </trkpt>
      <trkpt lat="44.7253" lon="6.86839">
        <ele>1844.6</ele>
        <time>2022-07-18T06:53:46Z</time>
      </trkpt>
      <trkpt lat="44.7253" lon="6.86848">
        <ele>1845</ele>
        <time>2022-07-18T06:53:47Z</time>
      </trkpt>
      <trkpt lat="44.72531" lon="6.86852">
        <ele>1845.2</ele>
        <time>2022-07-18T06:53:48Z</time>
      </trkpt>
      <trkpt lat="44.72531" lon="6.86857">
        <ele>1845.4</ele>
        <time>2022-07-18T06:53:49Z</time>
      </trkpt>
      <trkpt lat="44.72532" lon="6.86861">
        <ele>1845.4</ele>
        <time>2022-07-18T06:53:50Z</time>
      </trkpt>
      <trkpt lat="44.72532" lon="6.86865">
        <ele>1845.8</ele>
        <time>2022-07-18T06:53:51Z</time>
      </trkpt>
      <trkpt lat="44.72533" lon="6.8687">
        <ele>1845.8</ele>
        <time>2022-07-18T06:53:52Z</time>
      </trkpt>
      <trkpt lat="44.72533" lon="6.86874">
        <ele>1845.8</ele>
        <time>2022-07-18T06:53:53Z</time>
      </trkpt>
      <trkpt lat="44.72534" lon="6.86879">
        <ele>1846</ele>
        <time>2022-07-18T06:53:54Z</time>
      </trkpt>
      <trkpt lat="44.72534" lon="6.86883">
        <ele>1846</ele>
        <time>2022-07-18T06:53:55Z</time>
      </trkpt>
      <trkpt lat="44.72535" lon="6.86887">
        <ele>1846.4</ele>
        <time>2022-07-18T06:53:56Z</time>
      </trkpt>
      <trkpt lat="44.72535" lon="6.86892">
        <ele>1846.6</ele>
        <time>2022-07-18T06:53:57Z</time>
      </trkpt>
      <trkpt lat="44.72536" lon="6.86896">
        <ele>1846.6</ele>
        <time>2022-07-18T06:53:58Z</time>
      </trkpt>
      <trkpt lat="44.72536" lon="6.869">
        <ele>1846.8</ele>
        <time>2022-07-18T06:53:59Z</time>
      </trkpt>
      <trkpt lat="44.72537" lon="6.86904">
        <ele>1846.8</ele>
        <time>2022-07-18T06:54:00Z</time>
      </trkpt>
      <trkpt lat="44.72538" lon="6.86909">
        <ele>1847.2</ele>
        <time>2022-07-18T06:54:01Z</time>
      </trkpt>
      <trkpt lat="44.72538" lon="6.86913">
        <ele>1847.2</ele>
        <time>2022-07-18T06:54:02Z</time>
      </trkpt>
      <trkpt lat="44.72539" lon="6.86917">
        <ele>1847.4</ele>
        <time>2022-07-18T06:54:03Z</time>
      </trkpt>
      <trkpt lat="44.7254" lon="6.86921">
        <ele>1847.6</ele>
        <time>2022-07-18T06:54:04Z</time>
      </trkpt>
      <trkpt lat="44.72541" lon="6.86925">
        <ele>1847.6</ele>
        <time>2022-07-18T06:54:05Z</time>
      </trkpt>
      <trkpt lat="44.72542" lon="6.86929">
        <ele>1848</ele>
        <time>2022-07-18T06:54:06Z</time>
      </trkpt>
      <trkpt lat="44.72543" lon="6.86933">
        <ele>1848</ele>
        <time>2022-07-18T06:54:07Z</time>
      </trkpt>
      <trkpt lat="44.72544" lon="6.86938">
        <ele>1848.2</ele>
        <time>2022-07-18T06:54:08Z</time>
      </trkpt>
      <trkpt lat="44.72545" lon="6.86942">
        <ele>1848.2</ele>
        <time>2022-07-18T06:54:09Z</time>
      </trkpt>
      <trkpt lat="44.72546" lon="6.86946">
        <ele>1848.6</ele>
        <time>2022-07-18T06:54:10Z</time>
      </trkpt>
      <trkpt lat="44.72547" lon="6.8695">
        <ele>1848.6</ele>
        <time>2022-07-18T06:54:11Z</time>
      </trkpt>
      <trkpt lat="44.72548" lon="6.86954">
        <ele>1848.8</ele>
        <time>2022-07-18T06:54:12Z</time>
      </trkpt>
      <trkpt lat="44.72549" lon="6.86959">
        <ele>1848.8</ele>
        <time>2022-07-18T06:54:13Z</time>
      </trkpt>
      <trkpt lat="44.7255" lon="6.86963">
        <ele>1849.2</ele>
        <time>2022-07-18T06:54:14Z</time>
      </trkpt>
      <trkpt lat="44.72551" lon="6.86967">
        <ele>1849.2</ele>
        <time>2022-07-18T06:54:15Z</time>
      </trkpt>
      <trkpt lat="44.72552" lon="6.86971">
        <ele>1849.4</ele>
        <time>2022-07-18T06:54:16Z</time>
      </trkpt>
      <trkpt lat="44.72553" lon="6.86975">
        <ele>1849.4</ele>
        <time>2022-07-18T06:54:17Z</time>
      </trkpt>
      <trkpt lat="44.72554" lon="6.86979">
        <ele>1849.6</ele>
        <time>2022-07-18T06:54:18Z</time>
      </trkpt>
      <trkpt lat="44.72555" lon="6.86983">
        <ele>1849.6</ele>
        <time>2022-07-18T06:54:19Z</time>
      </trkpt>
      <trkpt lat="44.72556" lon="6.86987">
        <ele>1849.8</ele>
        <time>2022-07-18T06:54:20Z</time>
      </trkpt>
      <trkpt lat="44.72557" lon="6.86991">
        <ele>1849.8</ele>
        <time>2022-07-18T06:54:21Z</time>
      </trkpt>
      <trkpt lat="44.72557" lon="6.86995">
        <ele>1850</ele>
        <time>2022-07-18T06:54:22Z</time>
      </trkpt>
      <trkpt lat="44.72558" lon="6.86999">
        <ele>1850</ele>
        <time>2022-07-18T06:54:23Z</time>
      </trkpt>
      <trkpt lat="44.72559" lon="6.87003">
        <ele>1850.2</ele>
        <time>2022-07-18T06:54:24Z</time>
      </trkpt>
      <trkpt lat="44.7256" lon="6.87008">
        <ele>1850.2</ele>
        <time>2022-07-18T06:54:25Z</time>
      </trkpt>
      <trkpt lat="44.72561" lon="6.87012">
        <ele>1850.6</ele>
        <time>2022-07-18T06:54:26Z</time>
      </trkpt>
      <trkpt lat="44.72561" lon="6.87016">
        <ele>1850.6</ele>
        <time>2022-07-18T06:54:27Z</time>
      </trkpt>
      <trkpt lat="44.72562" lon="6.8702">
        <ele>1850.8</ele>
        <time>2022-07-18T06:54:28Z</time>
      </trkpt>
      <trkpt lat="44.72562" lon="6.87024">
        <ele>1850.8</ele>
        <time>2022-07-18T06:54:29Z</time>
      </trkpt>
      <trkpt lat="44.72563" lon="6.87028">
        <ele>1851.2</ele>
        <time>2022-07-18T06:54:30Z</time>
      </trkpt>
      <trkpt lat="44.72563" lon="6.87033">
        <ele>1851.2</ele>
        <time>2022-07-18T06:54:31Z</time>
      </trkpt>
      <trkpt lat="44.72563" lon="6.87037">
        <ele>1851.4</ele>
        <time>2022-07-18T06:54:32Z</time>
      </trkpt>
      <trkpt lat="44.72563" lon="6.87041">
        <ele>1851.6</ele>
        <time>2022-07-18T06:54:33Z</time>
      </trkpt>
      <trkpt lat="44.72564" lon="6.87045">
        <ele>1851.6</ele>
        <time>2022-07-18T06:54:34Z</time>
      </trkpt>
      <trkpt lat="44.72564" lon="6.87049">
        <ele>1852</ele>
        <time>2022-07-18T06:54:35Z</time>
      </trkpt>
      <trkpt lat="44.72564" lon="6.87054">
        <ele>1852.2</ele>
        <time>2022-07-18T06:54:36Z</time>
      </trkpt>
      <trkpt lat="44.72563" lon="6.87058">
        <ele>1852.2</ele>
        <time>2022-07-18T06:54:37Z</time>
      </trkpt>
      <trkpt lat="44.72563" lon="6.87062">
        <ele>1852.4</ele>
        <time>2022-07-18T06:54:38Z</time>
      </trkpt>
      <trkpt lat="44.72562" lon="6.87067">
        <ele>1852.4</ele>
        <time>2022-07-18T06:54:39Z</time>
      </trkpt>
      <trkpt lat="44.72562" lon="6.87071">
        <ele>1852.4</ele>
        <time>2022-07-18T06:54:40Z</time>
      </trkpt>
      <trkpt lat="44.72561" lon="6.87075">
        <ele>1852.8</ele>
        <time>2022-07-18T06:54:41Z</time>
      </trkpt>
      <trkpt lat="44.72561" lon="6.87079">
        <ele>1852.8</ele>
        <time>2022-07-18T06:54:42Z</time>
      </trkpt>
      <trkpt lat="44.72561" lon="6.87084">
        <ele>1853</ele>
        <time>2022-07-18T06:54:43Z</time>
      </trkpt>
      <trkpt lat="44.7256" lon="6.87088">
        <ele>1853</ele>
        <time>2022-07-18T06:54:44Z</time>
      </trkpt>
      <trkpt lat="44.7256" lon="6.87092">
        <ele>1853.4</ele>
        <time>2022-07-18T06:54:45Z</time>
      </trkpt>
      <trkpt lat="44.72559" lon="6.87096">
        <ele>1853.4</ele>
        <time>2022-07-18T06:54:46Z</time>
      </trkpt>
      <trkpt lat="44.72559" lon="6.871">
        <ele>1853.6</ele>
        <time>2022-07-18T06:54:47Z</time>
      </trkpt>
      <trkpt lat="44.72558" lon="6.87104">
        <ele>1853.6</ele>
        <time>2022-07-18T06:54:48Z</time>
      </trkpt>
      <trkpt lat="44.72558" lon="6.87109">
        <ele>1853.8</ele>
        <time>2022-07-18T06:54:49Z</time>
      </trkpt>
      <trkpt lat="44.72557" lon="6.87113">
        <ele>1853.8</ele>
        <time>2022-07-18T06:54:50Z</time>
      </trkpt>
      <trkpt lat="44.72557" lon="6.87117">
        <ele>1854.2</ele>
        <time>2022-07-18T06:54:51Z</time>
      </trkpt>
      <trkpt lat="44.72556" lon="6.87121">
        <ele>1854.2</ele>
        <time>2022-07-18T06:54:52Z</time>
      </trkpt>
      <trkpt lat="44.72556" lon="6.87125">
        <ele>1854.4</ele>
        <time>2022-07-18T06:54:53Z</time>
      </trkpt>
      <trkpt lat="44.72556" lon="6.87129">
        <ele>1854.4</ele>
        <time>2022-07-18T06:54:54Z</time>
      </trkpt>
      <trkpt lat="44.72555" lon="6.87133">
        <ele>1854.8</ele>
        <time>2022-07-18T06:54:55Z</time>
      </trkpt>
      <trkpt lat="44.72555" lon="6.87138">
        <ele>1854.8</ele>
        <time>2022-07-18T06:54:56Z</time>
      </trkpt>
      <trkpt lat="44.72555" lon="6.87142">
        <ele>1855</ele>
        <time>2022-07-18T06:54:57Z</time>
      </trkpt>
      <trkpt lat="44.72554" lon="6.87146">
        <ele>1855</ele>
        <time>2022-07-18T06:54:58Z</time>
      </trkpt>
      <trkpt lat="44.72554" lon="6.8715">
        <ele>1855.4</ele>
        <time>2022-07-18T06:54:59Z</time>
      </trkpt>
      <trkpt lat="44.72553" lon="6.87154">
        <ele>1855.4</ele>
        <time>2022-07-18T06:55:00Z</time>
      </trkpt>
      <trkpt lat="44.72552" lon="6.87158">
        <ele>1855.8</ele>
        <time>2022-07-18T06:55:01Z</time>
      </trkpt>
      <trkpt lat="44.72552" lon="6.87162">
        <ele>1855.8</ele>
        <time>2022-07-18T06:55:02Z</time>
      </trkpt>
      <trkpt lat="44.72552" lon="6.87166">
        <ele>1856.2</ele>
        <time>2022-07-18T06:55:03Z</time>
      </trkpt>
      <trkpt lat="44.72551" lon="6.8717">
        <ele>1856.4</ele>
        <time>2022-07-18T06:55:04Z</time>
      </trkpt>
      <trkpt lat="44.7255" lon="6.87174">
        <ele>1856.4</ele>
        <time>2022-07-18T06:55:05Z</time>
      </trkpt>
      <trkpt lat="44.7255" lon="6.87178">
        <ele>1856.8</ele>
        <time>2022-07-18T06:55:06Z</time>
      </trkpt>
      <trkpt lat="44.72549" lon="6.87181">
        <ele>1856.8</ele>
        <time>2022-07-18T06:55:07Z</time>
      </trkpt>
      <trkpt lat="44.72548" lon="6.87185">
        <ele>1857</ele>
        <time>2022-07-18T06:55:08Z</time>
      </trkpt>
      <trkpt lat="44.72547" lon="6.87189">
        <ele>1857.2</ele>
        <time>2022-07-18T06:55:09Z</time>
      </trkpt>
      <trkpt lat="44.72547" lon="6.87192">
        <ele>1857.2</ele>
        <time>2022-07-18T06:55:10Z</time>
      </trkpt>
      <trkpt lat="44.72546" lon="6.87196">
        <ele>1857.6</ele>
        <time>2022-07-18T06:55:11Z</time>
      </trkpt>
      <trkpt lat="44.72545" lon="6.87199">
        <ele>1857.6</ele>
        <time>2022-07-18T06:55:12Z</time>
      </trkpt>
      <trkpt lat="44.72544" lon="6.87203">
        <ele>1857.8</ele>
        <time>2022-07-18T06:55:13Z</time>
      </trkpt>
      <trkpt lat="44.72543" lon="6.87207">
        <ele>1857.8</ele>
        <time>2022-07-18T06:55:14Z</time>
      </trkpt>
      <trkpt lat="44.72542" lon="6.87211">
        <ele>1858</ele>
        <time>2022-07-18T06:55:15Z</time>
      </trkpt>
      <trkpt lat="44.7254" lon="6.87214">
        <ele>1858</ele>
        <time>2022-07-18T06:55:16Z</time>
      </trkpt>
      <trkpt lat="44.72539" lon="6.87218">
        <ele>1858.4</ele>
        <time>2022-07-18T06:55:17Z</time>
      </trkpt>
      <trkpt lat="44.72538" lon="6.87222">
        <ele>1858.4</ele>
        <time>2022-07-18T06:55:18Z</time>
      </trkpt>
      <trkpt lat="44.72537" lon="6.87226">
        <ele>1858.6</ele>
        <time>2022-07-18T06:55:19Z</time>
      </trkpt>
      <trkpt lat="44.72536" lon="6.8723">
        <ele>1858.6</ele>
        <time>2022-07-18T06:55:20Z</time>
      </trkpt>
      <trkpt lat="44.72534" lon="6.87233">
        <ele>1859</ele>
        <time>2022-07-18T06:55:21Z</time>
      </trkpt>
      <trkpt lat="44.72533" lon="6.87237">
        <ele>1859</ele>
        <time>2022-07-18T06:55:22Z</time>
      </trkpt>
      <trkpt lat="44.72532" lon="6.87241">
        <ele>1859.2</ele>
        <time>2022-07-18T06:55:23Z</time>
      </trkpt>
      <trkpt lat="44.7253" lon="6.87244">
        <ele>1859.2</ele>
        <time>2022-07-18T06:55:24Z</time>
      </trkpt>
      <trkpt lat="44.72529" lon="6.87248">
        <ele>1859.6</ele>
        <time>2022-07-18T06:55:25Z</time>
      </trkpt>
      <trkpt lat="44.72527" lon="6.87251">
        <ele>1859.6</ele>
        <time>2022-07-18T06:55:26Z</time>
      </trkpt>
      <trkpt lat="44.72526" lon="6.87255">
        <ele>1859.8</ele>
        <time>2022-07-18T06:55:27Z</time>
      </trkpt>
      <trkpt lat="44.72524" lon="6.87258">
        <ele>1859.8</ele>
        <time>2022-07-18T06:55:28Z</time>
      </trkpt>
      <trkpt lat="44.72523" lon="6.87262">
        <ele>1860.2</ele>
        <time>2022-07-18T06:55:29Z</time>
      </trkpt>
      <trkpt lat="44.72522" lon="6.87265">
        <ele>1860.4</ele>
        <time>2022-07-18T06:55:30Z</time>
      </trkpt>
      <trkpt lat="44.72521" lon="6.87269">
        <ele>1860.4</ele>
        <time>2022-07-18T06:55:31Z</time>
      </trkpt>
      <trkpt lat="44.7252" lon="6.87273">
        <ele>1860.8</ele>
        <time>2022-07-18T06:55:32Z</time>
      </trkpt>
      <trkpt lat="44.72519" lon="6.87277">
        <ele>1860.8</ele>
        <time>2022-07-18T06:55:33Z</time>
      </trkpt>
      <trkpt lat="44.72518" lon="6.8728">
        <ele>1861</ele>
        <time>2022-07-18T06:55:34Z</time>
      </trkpt>
      <trkpt lat="44.72517" lon="6.87284">
        <ele>1861</ele>
        <time>2022-07-18T06:55:35Z</time>
      </trkpt>
      <trkpt lat="44.72516" lon="6.87287">
        <ele>1861.4</ele>
        <time>2022-07-18T06:55:36Z</time>
      </trkpt>
      <trkpt lat="44.72515" lon="6.87291">
        <ele>1861.4</ele>
        <time>2022-07-18T06:55:37Z</time>
      </trkpt>
      <trkpt lat="44.72515" lon="6.87295">
        <ele>1861.6</ele>
        <time>2022-07-18T06:55:38Z</time>
      </trkpt>
      <trkpt lat="44.72514" lon="6.87298">
        <ele>1861.8</ele>
        <time>2022-07-18T06:55:39Z</time>
      </trkpt>
      <trkpt lat="44.72514" lon="6.87302">
        <ele>1861.8</ele>
        <time>2022-07-18T06:55:40Z</time>
      </trkpt>
      <trkpt lat="44.72514" lon="6.87306">
        <ele>1861.8</ele>
        <time>2022-07-18T06:55:41Z</time>
      </trkpt>
      <trkpt lat="44.72513" lon="6.8731">
        <ele>1862</ele>
        <time>2022-07-18T06:55:42Z</time>
      </trkpt>
      <trkpt lat="44.72513" lon="6.87314">
        <ele>1862</ele>
        <time>2022-07-18T06:55:43Z</time>
      </trkpt>
      <trkpt lat="44.72514" lon="6.87318">
        <ele>1862.4</ele>
        <time>2022-07-18T06:55:44Z</time>
      </trkpt>
      <trkpt lat="44.72514" lon="6.87322">
        <ele>1862.4</ele>
        <time>2022-07-18T06:55:45Z</time>
      </trkpt>
      <trkpt lat="44.72514" lon="6.87325">
        <ele>1862.6</ele>
        <time>2022-07-18T06:55:46Z</time>
      </trkpt>
      <trkpt lat="44.72514" lon="6.87329">
        <ele>1862.6</ele>
        <time>2022-07-18T06:55:47Z</time>
      </trkpt>
      <trkpt lat="44.72514" lon="6.87333">
        <ele>1863</ele>
        <time>2022-07-18T06:55:48Z</time>
      </trkpt>
      <trkpt lat="44.72514" lon="6.87337">
        <ele>1863</ele>
        <time>2022-07-18T06:55:49Z</time>
      </trkpt>
      <trkpt lat="44.72514" lon="6.87341">
        <ele>1863.2</ele>
        <time>2022-07-18T06:55:50Z</time>
      </trkpt>
      <trkpt lat="44.72515" lon="6.87345">
        <ele>1863.2</ele>
        <time>2022-07-18T06:55:51Z</time>
      </trkpt>
      <trkpt lat="44.72514" lon="6.87349">
        <ele>1863.6</ele>
        <time>2022-07-18T06:55:52Z</time>
      </trkpt>
      <trkpt lat="44.72514" lon="6.87353">
        <ele>1863.6</ele>
        <time>2022-07-18T06:55:53Z</time>
      </trkpt>
      <trkpt lat="44.72514" lon="6.87357">
        <ele>1863.6</ele>
        <time>2022-07-18T06:55:54Z</time>
      </trkpt>
      <trkpt lat="44.72514" lon="6.87361">
        <ele>1863.8</ele>
        <time>2022-07-18T06:55:55Z</time>
      </trkpt>
      <trkpt lat="44.72514" lon="6.87365">
        <ele>1863.8</ele>
        <time>2022-07-18T06:55:56Z</time>
      </trkpt>
      <trkpt lat="44.72514" lon="6.87368">
        <ele>1864.2</ele>
        <time>2022-07-18T06:55:57Z</time>
      </trkpt>
      <trkpt lat="44.72513" lon="6.87372">
        <ele>1864.2</ele>
        <time>2022-07-18T06:55:58Z</time>
      </trkpt>
      <trkpt lat="44.72512" lon="6.87376">
        <ele>1864.4</ele>
        <time>2022-07-18T06:55:59Z</time>
      </trkpt>
      <trkpt lat="44.72511" lon="6.8738">
        <ele>1864.4</ele>
        <time>2022-07-18T06:56:00Z</time>
      </trkpt>
      <trkpt lat="44.7251" lon="6.87384">
        <ele>1864.8</ele>
        <time>2022-07-18T06:56:01Z</time>
      </trkpt>
      <trkpt lat="44.72509" lon="6.87387">
        <ele>1864.8</ele>
        <time>2022-07-18T06:56:02Z</time>
      </trkpt>
      <trkpt lat="44.72508" lon="6.87391">
        <ele>1865</ele>
        <time>2022-07-18T06:56:03Z</time>
      </trkpt>
      <trkpt lat="44.72507" lon="6.87395">
        <ele>1865</ele>
        <time>2022-07-18T06:56:04Z</time>
      </trkpt>
      <trkpt lat="44.72505" lon="6.87398">
        <ele>1865.4</ele>
        <time>2022-07-18T06:56:05Z</time>
      </trkpt>
      <trkpt lat="44.72503" lon="6.87401">
        <ele>1865.4</ele>
        <time>2022-07-18T06:56:06Z</time>
      </trkpt>
      <trkpt lat="44.72502" lon="6.87405">
        <ele>1865.8</ele>
        <time>2022-07-18T06:56:07Z</time>
      </trkpt>
      <trkpt lat="44.725" lon="6.87407">
        <ele>1865.8</ele>
        <time>2022-07-18T06:56:08Z</time>
      </trkpt>
      <trkpt lat="44.72497" lon="6.8741">
        <ele>1866</ele>
        <time>2022-07-18T06:56:09Z</time>
      </trkpt>
      <trkpt lat="44.72495" lon="6.87413">
        <ele>1866</ele>
        <time>2022-07-18T06:56:10Z</time>
      </trkpt>
      <trkpt lat="44.72493" lon="6.87416">
        <ele>1866.4</ele>
        <time>2022-07-18T06:56:11Z</time>
      </trkpt>
      <trkpt lat="44.72491" lon="6.8742">
        <ele>1866.4</ele>
        <time>2022-07-18T06:56:12Z</time>
      </trkpt>
      <trkpt lat="44.72489" lon="6.87423">
        <ele>1866.6</ele>
        <time>2022-07-18T06:56:13Z</time>
      </trkpt>
      <trkpt lat="44.72487" lon="6.87426">
        <ele>1866.8</ele>
        <time>2022-07-18T06:56:14Z</time>
      </trkpt>
      <trkpt lat="44.72485" lon="6.87429">
        <ele>1866.8</ele>
        <time>2022-07-18T06:56:15Z</time>
      </trkpt>
      <trkpt lat="44.72483" lon="6.87432">
        <ele>1867.2</ele>
        <time>2022-07-18T06:56:16Z</time>
      </trkpt>
      <trkpt lat="44.72481" lon="6.87435">
        <ele>1867.2</ele>
        <time>2022-07-18T06:56:17Z</time>
      </trkpt>
      <trkpt lat="44.72479" lon="6.87439">
        <ele>1867.4</ele>
        <time>2022-07-18T06:56:18Z</time>
      </trkpt>
      <trkpt lat="44.72477" lon="6.87442">
        <ele>1867.4</ele>
        <time>2022-07-18T06:56:19Z</time>
      </trkpt>
      <trkpt lat="44.72475" lon="6.87445">
        <ele>1867.8</ele>
        <time>2022-07-18T06:56:20Z</time>
      </trkpt>
      <trkpt lat="44.72473" lon="6.87449">
        <ele>1867.8</ele>
        <time>2022-07-18T06:56:21Z</time>
      </trkpt>
      <trkpt lat="44.72471" lon="6.87452">
        <ele>1868.2</ele>
        <time>2022-07-18T06:56:22Z</time>
      </trkpt>
      <trkpt lat="44.72469" lon="6.87455">
        <ele>1868.2</ele>
        <time>2022-07-18T06:56:23Z</time>
      </trkpt>
      <trkpt lat="44.72468" lon="6.87458">
        <ele>1868.4</ele>
        <time>2022-07-18T06:56:24Z</time>
      </trkpt>
      <trkpt lat="44.72466" lon="6.87461">
        <ele>1868.6</ele>
        <time>2022-07-18T06:56:25Z</time>
      </trkpt>
      <trkpt lat="44.72464" lon="6.87464">
        <ele>1868.6</ele>
        <time>2022-07-18T06:56:26Z</time>
      </trkpt>
      <trkpt lat="44.72463" lon="6.87468">
        <ele>1869</ele>
        <time>2022-07-18T06:56:27Z</time>
      </trkpt>
      <trkpt lat="44.72461" lon="6.87471">
        <ele>1869.2</ele>
        <time>2022-07-18T06:56:28Z</time>
      </trkpt>
      <trkpt lat="44.7246" lon="6.87474">
        <ele>1869.2</ele>
        <time>2022-07-18T06:56:29Z</time>
      </trkpt>
      <trkpt lat="44.72459" lon="6.87478">
        <ele>1869.2</ele>
        <time>2022-07-18T06:56:30Z</time>
      </trkpt>
      <trkpt lat="44.72458" lon="6.87482">
        <ele>1869.4</ele>
        <time>2022-07-18T06:56:31Z</time>
      </trkpt>
      <trkpt lat="44.72457" lon="6.87486">
        <ele>1869.4</ele>
        <time>2022-07-18T06:56:32Z</time>
      </trkpt>
      <trkpt lat="44.72456" lon="6.87489">
        <ele>1869.8</ele>
        <time>2022-07-18T06:56:33Z</time>
      </trkpt>
      <trkpt lat="44.72455" lon="6.87493">
        <ele>1869.8</ele>
        <time>2022-07-18T06:56:34Z</time>
      </trkpt>
      <trkpt lat="44.72454" lon="6.87497">
        <ele>1870</ele>
        <time>2022-07-18T06:56:35Z</time>
      </trkpt>
      <trkpt lat="44.72453" lon="6.87501">
        <ele>1870</ele>
        <time>2022-07-18T06:56:36Z</time>
      </trkpt>
      <trkpt lat="44.72452" lon="6.87505">
        <ele>1870.2</ele>
        <time>2022-07-18T06:56:37Z</time>
      </trkpt>
      <trkpt lat="44.72451" lon="6.87509">
        <ele>1870.2</ele>
        <time>2022-07-18T06:56:38Z</time>
      </trkpt>
      <trkpt lat="44.7245" lon="6.87512">
        <ele>1870.6</ele>
        <time>2022-07-18T06:56:39Z</time>
      </trkpt>
      <trkpt lat="44.7245" lon="6.87516">
        <ele>1870.6</ele>
        <time>2022-07-18T06:56:40Z</time>
      </trkpt>
      <trkpt lat="44.72449" lon="6.8752">
        <ele>1870.8</ele>
        <time>2022-07-18T06:56:41Z</time>
      </trkpt>
      <trkpt lat="44.72449" lon="6.87524">
        <ele>1870.8</ele>
        <time>2022-07-18T06:56:42Z</time>
      </trkpt>
      <trkpt lat="44.72449" lon="6.87528">
        <ele>1871.2</ele>
        <time>2022-07-18T06:56:43Z</time>
      </trkpt>
      <trkpt lat="44.72448" lon="6.87532">
        <ele>1871.2</ele>
        <time>2022-07-18T06:56:44Z</time>
      </trkpt>
      <trkpt lat="44.72447" lon="6.87536">
        <ele>1871.4</ele>
        <time>2022-07-18T06:56:45Z</time>
      </trkpt>
      <trkpt lat="44.72447" lon="6.87539">
        <ele>1871.4</ele>
        <time>2022-07-18T06:56:46Z</time>
      </trkpt>
      <trkpt lat="44.72446" lon="6.87544">
        <ele>1871.8</ele>
        <time>2022-07-18T06:56:47Z</time>
      </trkpt>
      <trkpt lat="44.72446" lon="6.87548">
        <ele>1871.8</ele>
        <time>2022-07-18T06:56:48Z</time>
      </trkpt>
      <trkpt lat="44.72446" lon="6.87552">
        <ele>1872.2</ele>
        <time>2022-07-18T06:56:49Z</time>
      </trkpt>
      <trkpt lat="44.72446" lon="6.87556">
        <ele>1872.2</ele>
        <time>2022-07-18T06:56:50Z</time>
      </trkpt>
      <trkpt lat="44.72445" lon="6.8756">
        <ele>1872.4</ele>
        <time>2022-07-18T06:56:51Z</time>
      </trkpt>
      <trkpt lat="44.72445" lon="6.87564">
        <ele>1872.4</ele>
        <time>2022-07-18T06:56:52Z</time>
      </trkpt>
      <trkpt lat="44.72446" lon="6.87569">
        <ele>1872.8</ele>
        <time>2022-07-18T06:56:53Z</time>
      </trkpt>
      <trkpt lat="44.72446" lon="6.87573">
        <ele>1872.8</ele>
        <time>2022-07-18T06:56:54Z</time>
      </trkpt>
      <trkpt lat="44.72447" lon="6.87577">
        <ele>1872.8</ele>
        <time>2022-07-18T06:56:55Z</time>
      </trkpt>
      <trkpt lat="44.72447" lon="6.87581">
        <ele>1873</ele>
        <time>2022-07-18T06:56:56Z</time>
      </trkpt>
      <trkpt lat="44.72447" lon="6.87585">
        <ele>1873</ele>
        <time>2022-07-18T06:56:57Z</time>
      </trkpt>
      <trkpt lat="44.72448" lon="6.87589">
        <ele>1873.2</ele>
        <time>2022-07-18T06:56:58Z</time>
      </trkpt>
      <trkpt lat="44.72448" lon="6.87593">
        <ele>1873.2</ele>
        <time>2022-07-18T06:56:59Z</time>
      </trkpt>
      <trkpt lat="44.72448" lon="6.87597">
        <ele>1873.6</ele>
        <time>2022-07-18T06:57:00Z</time>
      </trkpt>
      <trkpt lat="44.72448" lon="6.87601">
        <ele>1873.6</ele>
        <time>2022-07-18T06:57:01Z</time>
      </trkpt>
      <trkpt lat="44.72449" lon="6.87605">
        <ele>1873.8</ele>
        <time>2022-07-18T06:57:02Z</time>
      </trkpt>
      <trkpt lat="44.72449" lon="6.87609">
        <ele>1874.2</ele>
        <time>2022-07-18T06:57:03Z</time>
      </trkpt>
      <trkpt lat="44.72449" lon="6.87613">
        <ele>1874.2</ele>
        <time>2022-07-18T06:57:04Z</time>
      </trkpt>
      <trkpt lat="44.72449" lon="6.87617">
        <ele>1874.4</ele>
        <time>2022-07-18T06:57:05Z</time>
      </trkpt>
      <trkpt lat="44.72449" lon="6.87621">
        <ele>1874.4</ele>
        <time>2022-07-18T06:57:06Z</time>
      </trkpt>
      <trkpt lat="44.72449" lon="6.87625">
        <ele>1874.8</ele>
        <time>2022-07-18T06:57:07Z</time>
      </trkpt>
      <trkpt lat="44.72449" lon="6.87629">
        <ele>1875</ele>
        <time>2022-07-18T06:57:08Z</time>
      </trkpt>
      <trkpt lat="44.72448" lon="6.87633">
        <ele>1875.2</ele>
        <time>2022-07-18T06:57:09Z</time>
      </trkpt>
      <trkpt lat="44.72448" lon="6.87637">
        <ele>1875.4</ele>
        <time>2022-07-18T06:57:10Z</time>
      </trkpt>
      <trkpt lat="44.72447" lon="6.87641">
        <ele>1875.4</ele>
        <time>2022-07-18T06:57:11Z</time>
      </trkpt>
      <trkpt lat="44.72447" lon="6.87645">
        <ele>1875.8</ele>
        <time>2022-07-18T06:57:12Z</time>
      </trkpt>
      <trkpt lat="44.72446" lon="6.87649">
        <ele>1876.2</ele>
        <time>2022-07-18T06:57:13Z</time>
      </trkpt>
      <trkpt lat="44.72445" lon="6.87653">
        <ele>1876.4</ele>
        <time>2022-07-18T06:57:14Z</time>
      </trkpt>
      <trkpt lat="44.72445" lon="6.87657">
        <ele>1876.6</ele>
        <time>2022-07-18T06:57:15Z</time>
      </trkpt>
      <trkpt lat="44.72444" lon="6.8766">
        <ele>1876.8</ele>
        <time>2022-07-18T06:57:16Z</time>
      </trkpt>
      <trkpt lat="44.72443" lon="6.87664">
        <ele>1876.8</ele>
        <time>2022-07-18T06:57:17Z</time>
      </trkpt>
      <trkpt lat="44.72442" lon="6.87668">
        <ele>1877.2</ele>
        <time>2022-07-18T06:57:18Z</time>
      </trkpt>
      <trkpt lat="44.72441" lon="6.87672">
        <ele>1877.4</ele>
        <time>2022-07-18T06:57:19Z</time>
      </trkpt>
      <trkpt lat="44.7244" lon="6.87675">
        <ele>1877.4</ele>
        <time>2022-07-18T06:57:20Z</time>
      </trkpt>
      <trkpt lat="44.72439" lon="6.87679">
        <ele>1877.8</ele>
        <time>2022-07-18T06:57:21Z</time>
      </trkpt>
      <trkpt lat="44.72438" lon="6.87683">
        <ele>1877.8</ele>
        <time>2022-07-18T06:57:22Z</time>
      </trkpt>
      <trkpt lat="44.72436" lon="6.87687">
        <ele>1878.2</ele>
        <time>2022-07-18T06:57:23Z</time>
      </trkpt>
      <trkpt lat="44.72435" lon="6.8769">
        <ele>1878.2</ele>
        <time>2022-07-18T06:57:24Z</time>
      </trkpt>
      <trkpt lat="44.72434" lon="6.87694">
        <ele>1878.4</ele>
        <time>2022-07-18T06:57:25Z</time>
      </trkpt>
      <trkpt lat="44.72433" lon="6.87698">
        <ele>1878.4</ele>
        <time>2022-07-18T06:57:26Z</time>
      </trkpt>
      <trkpt lat="44.72432" lon="6.87702">
        <ele>1878.8</ele>
        <time>2022-07-18T06:57:27Z</time>
      </trkpt>
      <trkpt lat="44.72431" lon="6.87705">
        <ele>1878.8</ele>
        <time>2022-07-18T06:57:28Z</time>
      </trkpt>
      <trkpt lat="44.72431" lon="6.87709">
        <ele>1879.2</ele>
        <time>2022-07-18T06:57:29Z</time>
      </trkpt>
      <trkpt lat="44.7243" lon="6.87713">
        <ele>1879.2</ele>
        <time>2022-07-18T06:57:30Z</time>
      </trkpt>
      <trkpt lat="44.7243" lon="6.87717">
        <ele>1879.4</ele>
        <time>2022-07-18T06:57:31Z</time>
      </trkpt>
      <trkpt lat="44.7243" lon="6.87721">
        <ele>1879.4</ele>
        <time>2022-07-18T06:57:32Z</time>
      </trkpt>
      <trkpt lat="44.72431" lon="6.87725">
        <ele>1879.4</ele>
        <time>2022-07-18T06:57:33Z</time>
      </trkpt>
      <trkpt lat="44.72431" lon="6.87729">
        <ele>1879.8</ele>
        <time>2022-07-18T06:57:34Z</time>
      </trkpt>
      <trkpt lat="44.72431" lon="6.87733">
        <ele>1879.8</ele>
        <time>2022-07-18T06:57:35Z</time>
      </trkpt>
      <trkpt lat="44.72431" lon="6.87736">
        <ele>1880.2</ele>
        <time>2022-07-18T06:57:36Z</time>
      </trkpt>
      <trkpt lat="44.72432" lon="6.8774">
        <ele>1880.2</ele>
        <time>2022-07-18T06:57:37Z</time>
      </trkpt>
      <trkpt lat="44.72432" lon="6.87744">
        <ele>1880.2</ele>
        <time>2022-07-18T06:57:38Z</time>
      </trkpt>
      <trkpt lat="44.72433" lon="6.87748">
        <ele>1880.6</ele>
        <time>2022-07-18T06:57:39Z</time>
      </trkpt>
      <trkpt lat="44.72433" lon="6.87752">
        <ele>1880.6</ele>
        <time>2022-07-18T06:57:40Z</time>
      </trkpt>
      <trkpt lat="44.72434" lon="6.87756">
        <ele>1880.6</ele>
        <time>2022-07-18T06:57:41Z</time>
      </trkpt>
      <trkpt lat="44.72434" lon="6.8776">
        <ele>1880.8</ele>
        <time>2022-07-18T06:57:42Z</time>
      </trkpt>
      <trkpt lat="44.72435" lon="6.87764">
        <ele>1880.8</ele>
        <time>2022-07-18T06:57:43Z</time>
      </trkpt>
      <trkpt lat="44.72436" lon="6.87768">
        <ele>1881</ele>
        <time>2022-07-18T06:57:44Z</time>
      </trkpt>
      <trkpt lat="44.72437" lon="6.87772">
        <ele>1881.2</ele>
        <time>2022-07-18T06:57:45Z</time>
      </trkpt>
      <trkpt lat="44.72438" lon="6.87776">
        <ele>1881.4</ele>
        <time>2022-07-18T06:57:46Z</time>
      </trkpt>
      <trkpt lat="44.72439" lon="6.8778">
        <ele>1881.4</ele>
        <time>2022-07-18T06:57:47Z</time>
      </trkpt>
      <trkpt lat="44.72439" lon="6.87785">
        <ele>1881.8</ele>
        <time>2022-07-18T06:57:48Z</time>
      </trkpt>
      <trkpt lat="44.7244" lon="6.87789">
        <ele>1882</ele>
        <time>2022-07-18T06:57:49Z</time>
      </trkpt>
      <trkpt lat="44.72441" lon="6.87793">
        <ele>1882</ele>
        <time>2022-07-18T06:57:50Z</time>
      </trkpt>
      <trkpt lat="44.72442" lon="6.87796">
        <ele>1882.2</ele>
        <time>2022-07-18T06:57:51Z</time>
      </trkpt>
      <trkpt lat="44.72443" lon="6.878">
        <ele>1882.2</ele>
        <time>2022-07-18T06:57:52Z</time>
      </trkpt>
      <trkpt lat="44.72444" lon="6.87804">
        <ele>1882.6</ele>
        <time>2022-07-18T06:57:53Z</time>
      </trkpt>
      <trkpt lat="44.72445" lon="6.87808">
        <ele>1882.6</ele>
        <time>2022-07-18T06:57:54Z</time>
      </trkpt>
      <trkpt lat="44.72445" lon="6.87812">
        <ele>1883</ele>
        <time>2022-07-18T06:57:55Z</time>
      </trkpt>
      <trkpt lat="44.72446" lon="6.87816">
        <ele>1883</ele>
        <time>2022-07-18T06:57:56Z</time>
      </trkpt>
      <trkpt lat="44.72447" lon="6.8782">
        <ele>1883.2</ele>
        <time>2022-07-18T06:57:57Z</time>
      </trkpt>
      <trkpt lat="44.72448" lon="6.87823">
        <ele>1883.4</ele>
        <time>2022-07-18T06:57:58Z</time>
      </trkpt>
      <trkpt lat="44.72448" lon="6.87827">
        <ele>1883.4</ele>
        <time>2022-07-18T06:57:59Z</time>
      </trkpt>
      <trkpt lat="44.72449" lon="6.87831">
        <ele>1883.6</ele>
        <time>2022-07-18T06:58:00Z</time>
      </trkpt>
      <trkpt lat="44.7245" lon="6.87835">
        <ele>1883.8</ele>
        <time>2022-07-18T06:58:01Z</time>
      </trkpt>
      <trkpt lat="44.7245" lon="6.87839">
        <ele>1883.8</ele>
        <time>2022-07-18T06:58:02Z</time>
      </trkpt>
      <trkpt lat="44.72451" lon="6.87843">
        <ele>1884.2</ele>
        <time>2022-07-18T06:58:03Z</time>
      </trkpt>
      <trkpt lat="44.72451" lon="6.87847">
        <ele>1884.2</ele>
        <time>2022-07-18T06:58:04Z</time>
      </trkpt>
      <trkpt lat="44.72452" lon="6.87851">
        <ele>1884.4</ele>
        <time>2022-07-18T06:58:05Z</time>
      </trkpt>
      <trkpt lat="44.72452" lon="6.87855">
        <ele>1884.4</ele>
        <time>2022-07-18T06:58:06Z</time>
      </trkpt>
      <trkpt lat="44.72453" lon="6.87859">
        <ele>1884.6</ele>
        <time>2022-07-18T06:58:07Z</time>
      </trkpt>
      <trkpt lat="44.72453" lon="6.87863">
        <ele>1884.6</ele>
        <time>2022-07-18T06:58:08Z</time>
      </trkpt>
      <trkpt lat="44.72453" lon="6.87866">
        <ele>1884.8</ele>
        <time>2022-07-18T06:58:09Z</time>
      </trkpt>
      <trkpt lat="44.72454" lon="6.8787">
        <ele>1884.8</ele>
        <time>2022-07-18T06:58:10Z</time>
      </trkpt>
      <trkpt lat="44.72454" lon="6.87874">
        <ele>1885.4</ele>
        <time>2022-07-18T06:58:11Z</time>
      </trkpt>
      <trkpt lat="44.72454" lon="6.87878">
        <ele>1885.6</ele>
        <time>2022-07-18T06:58:12Z</time>
      </trkpt>
      <trkpt lat="44.72455" lon="6.87882">
        <ele>1885.6</ele>
        <time>2022-07-18T06:58:13Z</time>
      </trkpt>
      <trkpt lat="44.72456" lon="6.87886">
        <ele>1885.8</ele>
        <time>2022-07-18T06:58:14Z</time>
      </trkpt>
      <trkpt lat="44.72456" lon="6.8789">
        <ele>1885.8</ele>
        <time>2022-07-18T06:58:15Z</time>
      </trkpt>
      <trkpt lat="44.72456" lon="6.87893">
        <ele>1886.2</ele>
        <time>2022-07-18T06:58:16Z</time>
      </trkpt>
      <trkpt lat="44.72457" lon="6.87897">
        <ele>1886.2</ele>
        <time>2022-07-18T06:58:17Z</time>
      </trkpt>
      <trkpt lat="44.72457" lon="6.87901">
        <ele>1886.4</ele>
        <time>2022-07-18T06:58:18Z</time>
      </trkpt>
      <trkpt lat="44.72457" lon="6.87904">
        <ele>1886.4</ele>
        <time>2022-07-18T06:58:19Z</time>
      </trkpt>
      <trkpt lat="44.72457" lon="6.87908">
        <ele>1886.8</ele>
        <time>2022-07-18T06:58:20Z</time>
      </trkpt>
      <trkpt lat="44.72458" lon="6.87912">
        <ele>1886.8</ele>
        <time>2022-07-18T06:58:21Z</time>
      </trkpt>
      <trkpt lat="44.72458" lon="6.87916">
        <ele>1887</ele>
        <time>2022-07-18T06:58:22Z</time>
      </trkpt>
      <trkpt lat="44.72458" lon="6.8792">
        <ele>1887</ele>
        <time>2022-07-18T06:58:23Z</time>
      </trkpt>
      <trkpt lat="44.72458" lon="6.87924">
        <ele>1887.4</ele>
        <time>2022-07-18T06:58:24Z</time>
      </trkpt>
      <trkpt lat="44.72458" lon="6.87928">
        <ele>1887.4</ele>
        <time>2022-07-18T06:58:25Z</time>
      </trkpt>
      <trkpt lat="44.72458" lon="6.87932">
        <ele>1887.8</ele>
        <time>2022-07-18T06:58:26Z</time>
      </trkpt>
      <trkpt lat="44.72458" lon="6.87936">
        <ele>1887.8</ele>
        <time>2022-07-18T06:58:27Z</time>
      </trkpt>
      <trkpt lat="44.72458" lon="6.8794">
        <ele>1888</ele>
        <time>2022-07-18T06:58:28Z</time>
      </trkpt>
      <trkpt lat="44.72457" lon="6.87944">
        <ele>1888</ele>
        <time>2022-07-18T06:58:29Z</time>
      </trkpt>
      <trkpt lat="44.72457" lon="6.87948">
        <ele>1888.4</ele>
        <time>2022-07-18T06:58:30Z</time>
      </trkpt>
      <trkpt lat="44.72457" lon="6.87952">
        <ele>1888.6</ele>
        <time>2022-07-18T06:58:31Z</time>
      </trkpt>
      <trkpt lat="44.72456" lon="6.87956">
        <ele>1888.6</ele>
        <time>2022-07-18T06:58:32Z</time>
      </trkpt>
      <trkpt lat="44.72456" lon="6.8796">
        <ele>1888.8</ele>
        <time>2022-07-18T06:58:33Z</time>
      </trkpt>
      <trkpt lat="44.72455" lon="6.87964">
        <ele>1888.8</ele>
        <time>2022-07-18T06:58:34Z</time>
      </trkpt>
      <trkpt lat="44.72455" lon="6.87968">
        <ele>1889.2</ele>
        <time>2022-07-18T06:58:35Z</time>
      </trkpt>
      <trkpt lat="44.72454" lon="6.87972">
        <ele>1889.2</ele>
        <time>2022-07-18T06:58:36Z</time>
      </trkpt>
      <trkpt lat="44.72454" lon="6.87976">
        <ele>1889.4</ele>
        <time>2022-07-18T06:58:37Z</time>
      </trkpt>
      <trkpt lat="44.72453" lon="6.8798">
        <ele>1889.4</ele>
        <time>2022-07-18T06:58:38Z</time>
      </trkpt>
      <trkpt lat="44.72453" lon="6.87985">
        <ele>1889.8</ele>
        <time>2022-07-18T06:58:39Z</time>
      </trkpt>
      <trkpt lat="44.72452" lon="6.87988">
        <ele>1889.8</ele>
        <time>2022-07-18T06:58:40Z</time>
      </trkpt>
      <trkpt lat="44.72451" lon="6.87992">
        <ele>1890</ele>
        <time>2022-07-18T06:58:41Z</time>
      </trkpt>
      <trkpt lat="44.72451" lon="6.87996">
        <ele>1890</ele>
        <time>2022-07-18T06:58:42Z</time>
      </trkpt>
      <trkpt lat="44.7245" lon="6.88">
        <ele>1890.2</ele>
        <time>2022-07-18T06:58:43Z</time>
      </trkpt>
      <trkpt lat="44.72449" lon="6.88005">
        <ele>1890.2</ele>
        <time>2022-07-18T06:58:44Z</time>
      </trkpt>
      <trkpt lat="44.72448" lon="6.88009">
        <ele>1890.4</ele>
        <time>2022-07-18T06:58:45Z</time>
      </trkpt>
      <trkpt lat="44.72448" lon="6.88013">
        <ele>1890.4</ele>
        <time>2022-07-18T06:58:46Z</time>
      </trkpt>
      <trkpt lat="44.72447" lon="6.88017">
        <ele>1890.6</ele>
        <time>2022-07-18T06:58:47Z</time>
      </trkpt>
      <trkpt lat="44.72446" lon="6.88021">
        <ele>1890.6</ele>
        <time>2022-07-18T06:58:48Z</time>
      </trkpt>
      <trkpt lat="44.72446" lon="6.88025">
        <ele>1891</ele>
        <time>2022-07-18T06:58:49Z</time>
      </trkpt>
      <trkpt lat="44.72445" lon="6.88029">
        <ele>1891</ele>
        <time>2022-07-18T06:58:50Z</time>
      </trkpt>
      <trkpt lat="44.72444" lon="6.88033">
        <ele>1891.2</ele>
        <time>2022-07-18T06:58:51Z</time>
      </trkpt>
      <trkpt lat="44.72444" lon="6.88037">
        <ele>1891.4</ele>
        <time>2022-07-18T06:58:52Z</time>
      </trkpt>
      <trkpt lat="44.72443" lon="6.88041">
        <ele>1891.4</ele>
        <time>2022-07-18T06:58:53Z</time>
      </trkpt>
      <trkpt lat="44.72443" lon="6.88045">
        <ele>1891.8</ele>
        <time>2022-07-18T06:58:54Z</time>
      </trkpt>
      <trkpt lat="44.72442" lon="6.88048">
        <ele>1891.8</ele>
        <time>2022-07-18T06:58:55Z</time>
      </trkpt>
      <trkpt lat="44.72441" lon="6.88052">
        <ele>1892</ele>
        <time>2022-07-18T06:58:56Z</time>
      </trkpt>
      <trkpt lat="44.72441" lon="6.88056">
        <ele>1892</ele>
        <time>2022-07-18T06:58:57Z</time>
      </trkpt>
      <trkpt lat="44.7244" lon="6.8806">
        <ele>1892.2</ele>
        <time>2022-07-18T06:58:58Z</time>
      </trkpt>
      <trkpt lat="44.7244" lon="6.88064">
        <ele>1892.2</ele>
        <time>2022-07-18T06:58:59Z</time>
      </trkpt>
      <trkpt lat="44.72439" lon="6.88068">
        <ele>1892.6</ele>
        <time>2022-07-18T06:59:00Z</time>
      </trkpt>
      <trkpt lat="44.72438" lon="6.88071">
        <ele>1892.6</ele>
        <time>2022-07-18T06:59:01Z</time>
      </trkpt>
      <trkpt lat="44.72438" lon="6.88075">
        <ele>1892.8</ele>
        <time>2022-07-18T06:59:02Z</time>
      </trkpt>
      <trkpt lat="44.72437" lon="6.88079">
        <ele>1892.8</ele>
        <time>2022-07-18T06:59:03Z</time>
      </trkpt>
      <trkpt lat="44.72437" lon="6.88083">
        <ele>1893</ele>
        <time>2022-07-18T06:59:04Z</time>
      </trkpt>
      <trkpt lat="44.72436" lon="6.88087">
        <ele>1893</ele>
        <time>2022-07-18T06:59:05Z</time>
      </trkpt>
      <trkpt lat="44.72435" lon="6.88091">
        <ele>1893.4</ele>
        <time>2022-07-18T06:59:06Z</time>
      </trkpt>
      <trkpt lat="44.72434" lon="6.88095">
        <ele>1893.4</ele>
        <time>2022-07-18T06:59:07Z</time>
      </trkpt>
      <trkpt lat="44.72433" lon="6.88099">
        <ele>1893.6</ele>
        <time>2022-07-18T06:59:08Z</time>
      </trkpt>
      <trkpt lat="44.72432" lon="6.88103">
        <ele>1893.6</ele>
        <time>2022-07-18T06:59:09Z</time>
      </trkpt>
      <trkpt lat="44.72431" lon="6.88107">
        <ele>1893.8</ele>
        <time>2022-07-18T06:59:10Z</time>
      </trkpt>
      <trkpt lat="44.7243" lon="6.88111">
        <ele>1893.8</ele>
        <time>2022-07-18T06:59:11Z</time>
      </trkpt>
      <trkpt lat="44.72429" lon="6.88115">
        <ele>1894.2</ele>
        <time>2022-07-18T06:59:12Z</time>
      </trkpt>
      <trkpt lat="44.72428" lon="6.8812">
        <ele>1894.2</ele>
        <time>2022-07-18T06:59:13Z</time>
      </trkpt>
      <trkpt lat="44.72427" lon="6.88124">
        <ele>1894.6</ele>
        <time>2022-07-18T06:59:14Z</time>
      </trkpt>
      <trkpt lat="44.72425" lon="6.88127">
        <ele>1894.6</ele>
        <time>2022-07-18T06:59:15Z</time>
      </trkpt>
      <trkpt lat="44.72424" lon="6.88131">
        <ele>1894.8</ele>
        <time>2022-07-18T06:59:16Z</time>
      </trkpt>
      <trkpt lat="44.72422" lon="6.88135">
        <ele>1894.8</ele>
        <time>2022-07-18T06:59:17Z</time>
      </trkpt>
      <trkpt lat="44.72421" lon="6.88138">
        <ele>1895</ele>
        <time>2022-07-18T06:59:18Z</time>
      </trkpt>
      <trkpt lat="44.72419" lon="6.88141">
        <ele>1895</ele>
        <time>2022-07-18T06:59:19Z</time>
      </trkpt>
      <trkpt lat="44.72418" lon="6.88145">
        <ele>1895.2</ele>
        <time>2022-07-18T06:59:20Z</time>
      </trkpt>
      <trkpt lat="44.72416" lon="6.88148">
        <ele>1895.2</ele>
        <time>2022-07-18T06:59:21Z</time>
      </trkpt>
      <trkpt lat="44.72415" lon="6.88151">
        <ele>1895.6</ele>
        <time>2022-07-18T06:59:22Z</time>
      </trkpt>
      <trkpt lat="44.72413" lon="6.88155">
        <ele>1895.6</ele>
        <time>2022-07-18T06:59:23Z</time>
      </trkpt>
      <trkpt lat="44.72411" lon="6.88158">
        <ele>1896</ele>
        <time>2022-07-18T06:59:24Z</time>
      </trkpt>
      <trkpt lat="44.72409" lon="6.88161">
        <ele>1896</ele>
        <time>2022-07-18T06:59:25Z</time>
      </trkpt>
      <trkpt lat="44.72408" lon="6.88164">
        <ele>1896.2</ele>
        <time>2022-07-18T06:59:26Z</time>
      </trkpt>
      <trkpt lat="44.72406" lon="6.88168">
        <ele>1896.2</ele>
        <time>2022-07-18T06:59:27Z</time>
      </trkpt>
      <trkpt lat="44.72404" lon="6.88171">
        <ele>1896.6</ele>
        <time>2022-07-18T06:59:28Z</time>
      </trkpt>
      <trkpt lat="44.72402" lon="6.88174">
        <ele>1896.6</ele>
        <time>2022-07-18T06:59:29Z</time>
      </trkpt>
      <trkpt lat="44.724" lon="6.88177">
        <ele>1896.8</ele>
        <time>2022-07-18T06:59:30Z</time>
      </trkpt>
      <trkpt lat="44.72398" lon="6.88181">
        <ele>1896.8</ele>
        <time>2022-07-18T06:59:31Z</time>
      </trkpt>
      <trkpt lat="44.72396" lon="6.88184">
        <ele>1897</ele>
        <time>2022-07-18T06:59:32Z</time>
      </trkpt>
      <trkpt lat="44.72394" lon="6.88187">
        <ele>1897</ele>
        <time>2022-07-18T06:59:33Z</time>
      </trkpt>
      <trkpt lat="44.72392" lon="6.8819">
        <ele>1897.4</ele>
        <time>2022-07-18T06:59:34Z</time>
      </trkpt>
      <trkpt lat="44.7239" lon="6.88193">
        <ele>1897.4</ele>
        <time>2022-07-18T06:59:35Z</time>
      </trkpt>
      <trkpt lat="44.72388" lon="6.88196">
        <ele>1897.6</ele>
        <time>2022-07-18T06:59:36Z</time>
      </trkpt>
      <trkpt lat="44.72386" lon="6.88199">
        <ele>1897.6</ele>
        <time>2022-07-18T06:59:37Z</time>
      </trkpt>
      <trkpt lat="44.72384" lon="6.88202">
        <ele>1897.8</ele>
        <time>2022-07-18T06:59:38Z</time>
      </trkpt>
      <trkpt lat="44.72382" lon="6.88206">
        <ele>1897.8</ele>
        <time>2022-07-18T06:59:39Z</time>
      </trkpt>
      <trkpt lat="44.72381" lon="6.88209">
        <ele>1898.2</ele>
        <time>2022-07-18T06:59:40Z</time>
      </trkpt>
      <trkpt lat="44.72379" lon="6.88212">
        <ele>1898.2</ele>
        <time>2022-07-18T06:59:41Z</time>
      </trkpt>
      <trkpt lat="44.72377" lon="6.88215">
        <ele>1898.4</ele>
        <time>2022-07-18T06:59:42Z</time>
      </trkpt>
      <trkpt lat="44.72375" lon="6.88218">
        <ele>1898.4</ele>
        <time>2022-07-18T06:59:43Z</time>
      </trkpt>
      <trkpt lat="44.72374" lon="6.88222">
        <ele>1898.8</ele>
        <time>2022-07-18T06:59:44Z</time>
      </trkpt>
      <trkpt lat="44.72372" lon="6.88225">
        <ele>1899.2</ele>
        <time>2022-07-18T06:59:45Z</time>
      </trkpt>
      <trkpt lat="44.7237" lon="6.88228">
        <ele>1899.2</ele>
        <time>2022-07-18T06:59:46Z</time>
      </trkpt>
      <trkpt lat="44.72369" lon="6.88232">
        <ele>1899.4</ele>
        <time>2022-07-18T06:59:47Z</time>
      </trkpt>
      <trkpt lat="44.72367" lon="6.88235">
        <ele>1899.4</ele>
        <time>2022-07-18T06:59:48Z</time>
      </trkpt>
      <trkpt lat="44.72366" lon="6.88239">
        <ele>1899.6</ele>
        <time>2022-07-18T06:59:49Z</time>
      </trkpt>
      <trkpt lat="44.72364" lon="6.88243">
        <ele>1899.6</ele>
        <time>2022-07-18T06:59:50Z</time>
      </trkpt>
      <trkpt lat="44.72363" lon="6.88246">
        <ele>1899.8</ele>
        <time>2022-07-18T06:59:51Z</time>
      </trkpt>
      <trkpt lat="44.72362" lon="6.8825">
        <ele>1899.8</ele>
        <time>2022-07-18T06:59:52Z</time>
      </trkpt>
      <trkpt lat="44.72361" lon="6.88254">
        <ele>1899.8</ele>
        <time>2022-07-18T06:59:53Z</time>
      </trkpt>
      <trkpt lat="44.72359" lon="6.88257">
        <ele>1900</ele>
        <time>2022-07-18T06:59:54Z</time>
      </trkpt>
      <trkpt lat="44.72358" lon="6.88261">
        <ele>1900</ele>
        <time>2022-07-18T06:59:55Z</time>
      </trkpt>
      <trkpt lat="44.72357" lon="6.88264">
        <ele>1900.4</ele>
        <time>2022-07-18T06:59:56Z</time>
      </trkpt>
      <trkpt lat="44.72356" lon="6.88268">
        <ele>1900.4</ele>
        <time>2022-07-18T06:59:57Z</time>
      </trkpt>
      <trkpt lat="44.72355" lon="6.88271">
        <ele>1900.8</ele>
        <time>2022-07-18T06:59:58Z</time>
      </trkpt>
      <trkpt lat="44.72354" lon="6.88275">
        <ele>1900.8</ele>
        <time>2022-07-18T06:59:59Z</time>
      </trkpt>
      <trkpt lat="44.72354" lon="6.88279">
        <ele>1901.2</ele>
        <time>2022-07-18T07:00:00Z</time>
      </trkpt>
      <trkpt lat="44.72352" lon="6.88282">
        <ele>1901.2</ele>
        <time>2022-07-18T07:00:01Z</time>
      </trkpt>
      <trkpt lat="44.72351" lon="6.88286">
        <ele>1901.4</ele>
        <time>2022-07-18T07:00:02Z</time>
      </trkpt>
      <trkpt lat="44.7235" lon="6.88289">
        <ele>1901.4</ele>
        <time>2022-07-18T07:00:03Z</time>
      </trkpt>
      <trkpt lat="44.72349" lon="6.88293">
        <ele>1901.6</ele>
        <time>2022-07-18T07:00:04Z</time>
      </trkpt>
      <trkpt lat="44.72349" lon="6.88297">
        <ele>1901.6</ele>
        <time>2022-07-18T07:00:05Z</time>
      </trkpt>
      <trkpt lat="44.72347" lon="6.88301">
        <ele>1902</ele>
        <time>2022-07-18T07:00:06Z</time>
      </trkpt>
      <trkpt lat="44.72346" lon="6.88305">
        <ele>1902</ele>
        <time>2022-07-18T07:00:07Z</time>
      </trkpt>
      <trkpt lat="44.72345" lon="6.88309">
        <ele>1902.2</ele>
        <time>2022-07-18T07:00:08Z</time>
      </trkpt>
      <trkpt lat="44.72345" lon="6.88313">
        <ele>1902.2</ele>
        <time>2022-07-18T07:00:09Z</time>
      </trkpt>
      <trkpt lat="44.72344" lon="6.88317">
        <ele>1902.4</ele>
        <time>2022-07-18T07:00:10Z</time>
      </trkpt>
      <trkpt lat="44.72342" lon="6.88321">
        <ele>1902.4</ele>
        <time>2022-07-18T07:00:11Z</time>
      </trkpt>
      <trkpt lat="44.72341" lon="6.88324">
        <ele>1902.6</ele>
        <time>2022-07-18T07:00:12Z</time>
      </trkpt>
      <trkpt lat="44.72341" lon="6.88328">
        <ele>1902.6</ele>
        <time>2022-07-18T07:00:13Z</time>
      </trkpt>
      <trkpt lat="44.7234" lon="6.88331">
        <ele>1903</ele>
        <time>2022-07-18T07:00:14Z</time>
      </trkpt>
      <trkpt lat="44.72339" lon="6.88335">
        <ele>1903</ele>
        <time>2022-07-18T07:00:15Z</time>
      </trkpt>
      <trkpt lat="44.72338" lon="6.88339">
        <ele>1903.2</ele>
        <time>2022-07-18T07:00:16Z</time>
      </trkpt>
      <trkpt lat="44.72337" lon="6.88343">
        <ele>1903.2</ele>
        <time>2022-07-18T07:00:17Z</time>
      </trkpt>
      <trkpt lat="44.72336" lon="6.88347">
        <ele>1903.4</ele>
        <time>2022-07-18T07:00:18Z</time>
      </trkpt>
      <trkpt lat="44.72335" lon="6.8835">
        <ele>1903.6</ele>
        <time>2022-07-18T07:00:19Z</time>
      </trkpt>
      <trkpt lat="44.72335" lon="6.88354">
        <ele>1903.6</ele>
        <time>2022-07-18T07:00:20Z</time>
      </trkpt>
      <trkpt lat="44.72334" lon="6.88358">
        <ele>1904</ele>
        <time>2022-07-18T07:00:21Z</time>
      </trkpt>
      <trkpt lat="44.72333" lon="6.88362">
        <ele>1904</ele>
        <time>2022-07-18T07:00:22Z</time>
      </trkpt>
      <trkpt lat="44.72332" lon="6.88366">
        <ele>1904.2</ele>
        <time>2022-07-18T07:00:23Z</time>
      </trkpt>
      <trkpt lat="44.72332" lon="6.8837">
        <ele>1904.2</ele>
        <time>2022-07-18T07:00:24Z</time>
      </trkpt>
      <trkpt lat="44.72331" lon="6.88374">
        <ele>1904.6</ele>
        <time>2022-07-18T07:00:26Z</time>
      </trkpt>
      <trkpt lat="44.72331" lon="6.88377">
        <ele>1904.8</ele>
        <time>2022-07-18T07:00:27Z</time>
      </trkpt>
      <trkpt lat="44.7233" lon="6.88381">
        <ele>1904.8</ele>
        <time>2022-07-18T07:00:28Z</time>
      </trkpt>
      <trkpt lat="44.7233" lon="6.88385">
        <ele>1905.2</ele>
        <time>2022-07-18T07:00:29Z</time>
      </trkpt>
      <trkpt lat="44.72329" lon="6.88389">
        <ele>1905.2</ele>
        <time>2022-07-18T07:00:30Z</time>
      </trkpt>
      <trkpt lat="44.72329" lon="6.88392">
        <ele>1905.4</ele>
        <time>2022-07-18T07:00:31Z</time>
      </trkpt>
      <trkpt lat="44.72329" lon="6.88396">
        <ele>1905.4</ele>
        <time>2022-07-18T07:00:32Z</time>
      </trkpt>
      <trkpt lat="44.72328" lon="6.884">
        <ele>1905.8</ele>
        <time>2022-07-18T07:00:33Z</time>
      </trkpt>
      <trkpt lat="44.72328" lon="6.88404">
        <ele>1905.8</ele>
        <time>2022-07-18T07:00:34Z</time>
      </trkpt>
      <trkpt lat="44.72327" lon="6.88409">
        <ele>1906</ele>
        <time>2022-07-18T07:00:35Z</time>
      </trkpt>
      <trkpt lat="44.72327" lon="6.88413">
        <ele>1906</ele>
        <time>2022-07-18T07:00:36Z</time>
      </trkpt>
      <trkpt lat="44.72327" lon="6.88417">
        <ele>1906.2</ele>
        <time>2022-07-18T07:00:37Z</time>
      </trkpt>
      <trkpt lat="44.72326" lon="6.88425">
        <ele>1906.2</ele>
        <time>2022-07-18T07:00:38Z</time>
      </trkpt>
      <trkpt lat="44.72326" lon="6.88429">
        <ele>1906.4</ele>
        <time>2022-07-18T07:00:39Z</time>
      </trkpt>
      <trkpt lat="44.72325" lon="6.88434">
        <ele>1906.4</ele>
        <time>2022-07-18T07:00:40Z</time>
      </trkpt>
      <trkpt lat="44.72325" lon="6.88438">
        <ele>1906.8</ele>
        <time>2022-07-18T07:00:41Z</time>
      </trkpt>
      <trkpt lat="44.72324" lon="6.88442">
        <ele>1906.8</ele>
        <time>2022-07-18T07:00:42Z</time>
      </trkpt>
      <trkpt lat="44.72324" lon="6.88447">
        <ele>1907</ele>
        <time>2022-07-18T07:00:43Z</time>
      </trkpt>
      <trkpt lat="44.72324" lon="6.88451">
        <ele>1907</ele>
        <time>2022-07-18T07:00:44Z</time>
      </trkpt>
      <trkpt lat="44.72324" lon="6.88455">
        <ele>1907.4</ele>
        <time>2022-07-18T07:00:45Z</time>
      </trkpt>
      <trkpt lat="44.72324" lon="6.88459">
        <ele>1907.4</ele>
        <time>2022-07-18T07:00:46Z</time>
      </trkpt>
      <trkpt lat="44.72324" lon="6.88463">
        <ele>1907.8</ele>
        <time>2022-07-18T07:00:47Z</time>
      </trkpt>
      <trkpt lat="44.72324" lon="6.88467">
        <ele>1907.8</ele>
        <time>2022-07-18T07:00:48Z</time>
      </trkpt>
      <trkpt lat="44.72323" lon="6.88471">
        <ele>1908.2</ele>
        <time>2022-07-18T07:00:49Z</time>
      </trkpt>
      <trkpt lat="44.72323" lon="6.88475">
        <ele>1908.4</ele>
        <time>2022-07-18T07:00:50Z</time>
      </trkpt>
      <trkpt lat="44.72323" lon="6.88479">
        <ele>1908.4</ele>
        <time>2022-07-18T07:00:51Z</time>
      </trkpt>
      <trkpt lat="44.72323" lon="6.88483">
        <ele>1908.6</ele>
        <time>2022-07-18T07:00:52Z</time>
      </trkpt>
      <trkpt lat="44.72322" lon="6.88487">
        <ele>1908.6</ele>
        <time>2022-07-18T07:00:53Z</time>
      </trkpt>
      <trkpt lat="44.72322" lon="6.88491">
        <ele>1909</ele>
        <time>2022-07-18T07:00:54Z</time>
      </trkpt>
      <trkpt lat="44.72322" lon="6.88496">
        <ele>1909.2</ele>
        <time>2022-07-18T07:00:55Z</time>
      </trkpt>
      <trkpt lat="44.72321" lon="6.885">
        <ele>1909.2</ele>
        <time>2022-07-18T07:00:56Z</time>
      </trkpt>
      <trkpt lat="44.7232" lon="6.88505">
        <ele>1909.6</ele>
        <time>2022-07-18T07:00:57Z</time>
      </trkpt>
      <trkpt lat="44.7232" lon="6.88509">
        <ele>1909.6</ele>
        <time>2022-07-18T07:00:58Z</time>
      </trkpt>
      <trkpt lat="44.72319" lon="6.88513">
        <ele>1909.8</ele>
        <time>2022-07-18T07:00:59Z</time>
      </trkpt>
      <trkpt lat="44.72318" lon="6.88517">
        <ele>1909.8</ele>
        <time>2022-07-18T07:01:00Z</time>
      </trkpt>
      <trkpt lat="44.72317" lon="6.8852">
        <ele>1910.2</ele>
        <time>2022-07-18T07:01:01Z</time>
      </trkpt>
      <trkpt lat="44.72316" lon="6.88524">
        <ele>1910.2</ele>
        <time>2022-07-18T07:01:02Z</time>
      </trkpt>
      <trkpt lat="44.72314" lon="6.88527">
        <ele>1910.4</ele>
        <time>2022-07-18T07:01:03Z</time>
      </trkpt>
      <trkpt lat="44.72312" lon="6.8853">
        <ele>1910.4</ele>
        <time>2022-07-18T07:01:04Z</time>
      </trkpt>
      <trkpt lat="44.7231" lon="6.88533">
        <ele>1910.6</ele>
        <time>2022-07-18T07:01:05Z</time>
      </trkpt>
      <trkpt lat="44.72309" lon="6.88536">
        <ele>1910.6</ele>
        <time>2022-07-18T07:01:06Z</time>
      </trkpt>
      <trkpt lat="44.72307" lon="6.88539">
        <ele>1911</ele>
        <time>2022-07-18T07:01:07Z</time>
      </trkpt>
      <trkpt lat="44.72305" lon="6.88542">
        <ele>1911</ele>
        <time>2022-07-18T07:01:08Z</time>
      </trkpt>
      <trkpt lat="44.72303" lon="6.88545">
        <ele>1911.4</ele>
        <time>2022-07-18T07:01:09Z</time>
      </trkpt>
      <trkpt lat="44.72302" lon="6.88548">
        <ele>1911.4</ele>
        <time>2022-07-18T07:01:10Z</time>
      </trkpt>
      <trkpt lat="44.723" lon="6.8855">
        <ele>1911.8</ele>
        <time>2022-07-18T07:01:11Z</time>
      </trkpt>
      <trkpt lat="44.72298" lon="6.88553">
        <ele>1912</ele>
        <time>2022-07-18T07:01:12Z</time>
      </trkpt>
      <trkpt lat="44.72296" lon="6.88556">
        <ele>1912</ele>
        <time>2022-07-18T07:01:13Z</time>
      </trkpt>
      <trkpt lat="44.72295" lon="6.88558">
        <ele>1912.4</ele>
        <time>2022-07-18T07:01:14Z</time>
      </trkpt>
      <trkpt lat="44.72293" lon="6.88561">
        <ele>1912.4</ele>
        <time>2022-07-18T07:01:15Z</time>
      </trkpt>
      <trkpt lat="44.72292" lon="6.88564">
        <ele>1912.6</ele>
        <time>2022-07-18T07:01:16Z</time>
      </trkpt>
      <trkpt lat="44.7229" lon="6.88567">
        <ele>1912.6</ele>
        <time>2022-07-18T07:01:17Z</time>
      </trkpt>
      <trkpt lat="44.72288" lon="6.88569">
        <ele>1913</ele>
        <time>2022-07-18T07:01:18Z</time>
      </trkpt>
      <trkpt lat="44.72286" lon="6.88571">
        <ele>1913</ele>
        <time>2022-07-18T07:01:19Z</time>
      </trkpt>
      <trkpt lat="44.72285" lon="6.88572">
        <ele>1913.2</ele>
        <time>2022-07-18T07:01:20Z</time>
      </trkpt>
      <trkpt lat="44.72283" lon="6.88573">
        <ele>1913.2</ele>
        <time>2022-07-18T07:01:21Z</time>
      </trkpt>
      <trkpt lat="44.72283" lon="6.88573">
        <ele>1913.4</ele>
        <time>2022-07-18T07:01:22Z</time>
      </trkpt>
      <trkpt lat="44.72283" lon="6.88574">
        <ele>1913.4</ele>
        <time>2022-07-18T07:01:23Z</time>
      </trkpt>
      <trkpt lat="44.72283" lon="6.88574">
        <ele>1913.4</ele>
        <time>2022-07-18T07:01:24Z</time>
      </trkpt>
      <trkpt lat="44.72283" lon="6.88574">
        <ele>1913.4</ele>
        <time>2022-07-18T07:01:25Z</time>
      </trkpt>
      <trkpt lat="44.72282" lon="6.88574">
        <ele>1913.8</ele>
        <time>2022-07-18T07:01:28Z</time>
      </trkpt>
      <trkpt lat="44.72282" lon="6.88574">
        <ele>1913.8</ele>
        <time>2022-07-18T07:01:29Z</time>
      </trkpt>
      <trkpt lat="44.72282" lon="6.88574">
        <ele>1913.8</ele>
        <time>2022-07-18T07:01:31Z</time>
      </trkpt>
      <trkpt lat="44.72282" lon="6.88574">
        <ele>1913.8</ele>
        <time>2022-07-18T07:01:32Z</time>
      </trkpt>
      <trkpt lat="44.72282" lon="6.88574">
        <ele>1913.8</ele>
        <time>2022-07-18T07:01:33Z</time>
      </trkpt>
      <trkpt lat="44.72281" lon="6.88574">
        <ele>1913.8</ele>
        <time>2022-07-18T07:01:34Z</time>
      </trkpt>
      <trkpt lat="44.72281" lon="6.88574">
        <ele>1914</ele>
        <time>2022-07-18T07:01:43Z</time>
      </trkpt>
      <trkpt lat="44.72281" lon="6.88574">
        <ele>1914</ele>
        <time>2022-07-18T07:01:44Z</time>
      </trkpt>
      <trkpt lat="44.72281" lon="6.88574">
        <ele>1914</ele>
        <time>2022-07-18T07:02:08Z</time>
      </trkpt>
      <trkpt lat="44.72281" lon="6.88574">
        <ele>1914</ele>
        <time>2022-07-18T07:02:09Z</time>
      </trkpt>
      <trkpt lat="44.72281" lon="6.88574">
        <ele>1914</ele>
        <time>2022-07-18T07:02:10Z</time>
      </trkpt>
      <trkpt lat="44.7228" lon="6.88574">
        <ele>1914</ele>
        <time>2022-07-18T07:02:11Z</time>
      </trkpt>
      <trkpt lat="44.7228" lon="6.88574">
        <ele>1913.8</ele>
        <time>2022-07-18T07:02:12Z</time>
      </trkpt>
      <trkpt lat="44.7228" lon="6.88574">
        <ele>1913.8</ele>
        <time>2022-07-18T07:02:13Z</time>
      </trkpt>
      <trkpt lat="44.7228" lon="6.88575">
        <ele>1913.8</ele>
        <time>2022-07-18T07:02:14Z</time>
      </trkpt>
      <trkpt lat="44.7228" lon="6.88575">
        <ele>1913.8</ele>
        <time>2022-07-18T07:02:15Z</time>
      </trkpt>
      <trkpt lat="44.72279" lon="6.88575">
        <ele>1913.8</ele>
        <time>2022-07-18T07:02:16Z</time>
      </trkpt>
      <trkpt lat="44.72279" lon="6.88575">
        <ele>1913.8</ele>
        <time>2022-07-18T07:02:17Z</time>
      </trkpt>
      <trkpt lat="44.72278" lon="6.88577">
        <ele>1914</ele>
        <time>2022-07-18T07:02:18Z</time>
      </trkpt>
      <trkpt lat="44.72276" lon="6.88579">
        <ele>1914</ele>
        <time>2022-07-18T07:02:19Z</time>
      </trkpt>
      <trkpt lat="44.72274" lon="6.88582">
        <ele>1914</ele>
        <time>2022-07-18T07:02:20Z</time>
      </trkpt>
      <trkpt lat="44.72273" lon="6.88584">
        <ele>1914.2</ele>
        <time>2022-07-18T07:02:21Z</time>
      </trkpt>
      <trkpt lat="44.72271" lon="6.88587">
        <ele>1914.2</ele>
        <time>2022-07-18T07:02:22Z</time>
      </trkpt>
      <trkpt lat="44.72269" lon="6.8859">
        <ele>1914.2</ele>
        <time>2022-07-18T07:02:23Z</time>
      </trkpt>
      <trkpt lat="44.72267" lon="6.88593">
        <ele>1914.4</ele>
        <time>2022-07-18T07:02:24Z</time>
      </trkpt>
      <trkpt lat="44.72266" lon="6.88597">
        <ele>1914.4</ele>
        <time>2022-07-18T07:02:25Z</time>
      </trkpt>
      <trkpt lat="44.72264" lon="6.88601">
        <ele>1914.8</ele>
        <time>2022-07-18T07:02:26Z</time>
      </trkpt>
      <trkpt lat="44.72263" lon="6.88604">
        <ele>1914.8</ele>
        <time>2022-07-18T07:02:27Z</time>
      </trkpt>
      <trkpt lat="44.72262" lon="6.88608">
        <ele>1915.2</ele>
        <time>2022-07-18T07:02:28Z</time>
      </trkpt>
      <trkpt lat="44.72261" lon="6.88611">
        <ele>1915.2</ele>
        <time>2022-07-18T07:02:29Z</time>
      </trkpt>
      <trkpt lat="44.7226" lon="6.88614">
        <ele>1915.6</ele>
        <time>2022-07-18T07:02:30Z</time>
      </trkpt>
      <trkpt lat="44.72259" lon="6.88617">
        <ele>1915.6</ele>
        <time>2022-07-18T07:02:31Z</time>
      </trkpt>
      <trkpt lat="44.72257" lon="6.8862">
        <ele>1915.8</ele>
        <time>2022-07-18T07:02:32Z</time>
      </trkpt>
      <trkpt lat="44.72256" lon="6.88623">
        <ele>1915.8</ele>
        <time>2022-07-18T07:02:33Z</time>
      </trkpt>
      <trkpt lat="44.72255" lon="6.88625">
        <ele>1916</ele>
        <time>2022-07-18T07:02:34Z</time>
      </trkpt>
      <trkpt lat="44.72254" lon="6.88629">
        <ele>1916</ele>
        <time>2022-07-18T07:02:35Z</time>
      </trkpt>
      <trkpt lat="44.72254" lon="6.88632">
        <ele>1916.4</ele>
        <time>2022-07-18T07:02:36Z</time>
      </trkpt>
      <trkpt lat="44.72253" lon="6.88635">
        <ele>1916.4</ele>
        <time>2022-07-18T07:02:37Z</time>
      </trkpt>
      <trkpt lat="44.72253" lon="6.88638">
        <ele>1916.6</ele>
        <time>2022-07-18T07:02:38Z</time>
      </trkpt>
      <trkpt lat="44.72252" lon="6.88641">
        <ele>1916.6</ele>
        <time>2022-07-18T07:02:39Z</time>
      </trkpt>
      <trkpt lat="44.72252" lon="6.88644">
        <ele>1916.6</ele>
        <time>2022-07-18T07:02:40Z</time>
      </trkpt>
      <trkpt lat="44.72251" lon="6.88647">
        <ele>1916.8</ele>
        <time>2022-07-18T07:02:41Z</time>
      </trkpt>
      <trkpt lat="44.7225" lon="6.8865">
        <ele>1916.8</ele>
        <time>2022-07-18T07:02:42Z</time>
      </trkpt>
      <trkpt lat="44.72249" lon="6.88653">
        <ele>1916.8</ele>
        <time>2022-07-18T07:02:43Z</time>
      </trkpt>
      <trkpt lat="44.72247" lon="6.88657">
        <ele>1917</ele>
        <time>2022-07-18T07:02:44Z</time>
      </trkpt>
      <trkpt lat="44.72246" lon="6.88661">
        <ele>1917</ele>
        <time>2022-07-18T07:02:45Z</time>
      </trkpt>
      <trkpt lat="44.72246" lon="6.88668">
        <ele>1917</ele>
        <time>2022-07-18T07:02:46Z</time>
      </trkpt>
      <trkpt lat="44.72245" lon="6.88672">
        <ele>1917</ele>
        <time>2022-07-18T07:02:47Z</time>
      </trkpt>
      <trkpt lat="44.72244" lon="6.88677">
        <ele>1917</ele>
        <time>2022-07-18T07:02:48Z</time>
      </trkpt>
      <trkpt lat="44.72243" lon="6.88682">
        <ele>1917.2</ele>
        <time>2022-07-18T07:02:49Z</time>
      </trkpt>
      <trkpt lat="44.72241" lon="6.88686">
        <ele>1917.2</ele>
        <time>2022-07-18T07:02:50Z</time>
      </trkpt>
      <trkpt lat="44.7224" lon="6.8869">
        <ele>1917.2</ele>
        <time>2022-07-18T07:02:51Z</time>
      </trkpt>
      <trkpt lat="44.72239" lon="6.88695">
        <ele>1917.2</ele>
        <time>2022-07-18T07:02:52Z</time>
      </trkpt>
      <trkpt lat="44.72238" lon="6.88699">
        <ele>1917.2</ele>
        <time>2022-07-18T07:02:53Z</time>
      </trkpt>
      <trkpt lat="44.72236" lon="6.88704">
        <ele>1917.2</ele>
        <time>2022-07-18T07:02:54Z</time>
      </trkpt>
      <trkpt lat="44.72235" lon="6.88708">
        <ele>1917.2</ele>
        <time>2022-07-18T07:02:55Z</time>
      </trkpt>
      <trkpt lat="44.72234" lon="6.88714">
        <ele>1917.2</ele>
        <time>2022-07-18T07:02:56Z</time>
      </trkpt>
      <trkpt lat="44.72232" lon="6.8872">
        <ele>1917</ele>
        <time>2022-07-18T07:02:57Z</time>
      </trkpt>
      <trkpt lat="44.7223" lon="6.88727">
        <ele>1917</ele>
        <time>2022-07-18T07:02:58Z</time>
      </trkpt>
      <trkpt lat="44.72227" lon="6.88734">
        <ele>1916.6</ele>
        <time>2022-07-18T07:02:59Z</time>
      </trkpt>
      <trkpt lat="44.72225" lon="6.88742">
        <ele>1916.6</ele>
        <time>2022-07-18T07:03:00Z</time>
      </trkpt>
      <trkpt lat="44.72223" lon="6.88749">
        <ele>1916.2</ele>
        <time>2022-07-18T07:03:01Z</time>
      </trkpt>
      <trkpt lat="44.72221" lon="6.88757">
        <ele>1916</ele>
        <time>2022-07-18T07:03:02Z</time>
      </trkpt>
      <trkpt lat="44.72218" lon="6.88764">
        <ele>1915.8</ele>
        <time>2022-07-18T07:03:03Z</time>
      </trkpt>
      <trkpt lat="44.72216" lon="6.88773">
        <ele>1915.6</ele>
        <time>2022-07-18T07:03:04Z</time>
      </trkpt>
      <trkpt lat="44.72213" lon="6.88781">
        <ele>1915.2</ele>
        <time>2022-07-18T07:03:05Z</time>
      </trkpt>
      <trkpt lat="44.7221" lon="6.8879">
        <ele>1915</ele>
        <time>2022-07-18T07:03:06Z</time>
      </trkpt>
      <trkpt lat="44.72207" lon="6.88799">
        <ele>1915</ele>
        <time>2022-07-18T07:03:07Z</time>
      </trkpt>
      <trkpt lat="44.72204" lon="6.88808">
        <ele>1915</ele>
        <time>2022-07-18T07:03:08Z</time>
      </trkpt>
      <trkpt lat="44.72201" lon="6.88817">
        <ele>1914.8</ele>
        <time>2022-07-18T07:03:09Z</time>
      </trkpt>
      <trkpt lat="44.72198" lon="6.88825">
        <ele>1914.8</ele>
        <time>2022-07-18T07:03:10Z</time>
      </trkpt>
      <trkpt lat="44.72194" lon="6.88833">
        <ele>1914.8</ele>
        <time>2022-07-18T07:03:11Z</time>
      </trkpt>
      <trkpt lat="44.72191" lon="6.8884">
        <ele>1914.8</ele>
        <time>2022-07-18T07:03:12Z</time>
      </trkpt>
      <trkpt lat="44.72187" lon="6.88846">
        <ele>1914.8</ele>
        <time>2022-07-18T07:03:13Z</time>
      </trkpt>
      <trkpt lat="44.72184" lon="6.88852">
        <ele>1914.8</ele>
        <time>2022-07-18T07:03:14Z</time>
      </trkpt>
      <trkpt lat="44.72182" lon="6.88858">
        <ele>1914.8</ele>
        <time>2022-07-18T07:03:15Z</time>
      </trkpt>
      <trkpt lat="44.72181" lon="6.88863">
        <ele>1914.8</ele>
        <time>2022-07-18T07:03:16Z</time>
      </trkpt>
      <trkpt lat="44.7218" lon="6.88868">
        <ele>1915</ele>
        <time>2022-07-18T07:03:17Z</time>
      </trkpt>
      <trkpt lat="44.72178" lon="6.88873">
        <ele>1915</ele>
        <time>2022-07-18T07:03:18Z</time>
      </trkpt>
      <trkpt lat="44.72176" lon="6.88876">
        <ele>1915</ele>
        <time>2022-07-18T07:03:19Z</time>
      </trkpt>
      <trkpt lat="44.72173" lon="6.88879">
        <ele>1915.4</ele>
        <time>2022-07-18T07:03:20Z</time>
      </trkpt>
      <trkpt lat="44.72171" lon="6.88882">
        <ele>1915.4</ele>
        <time>2022-07-18T07:03:21Z</time>
      </trkpt>
      <trkpt lat="44.72169" lon="6.88884">
        <ele>1915.8</ele>
        <time>2022-07-18T07:03:22Z</time>
      </trkpt>
      <trkpt lat="44.72168" lon="6.88887">
        <ele>1916</ele>
        <time>2022-07-18T07:03:23Z</time>
      </trkpt>
      <trkpt lat="44.72166" lon="6.88889">
        <ele>1916.2</ele>
        <time>2022-07-18T07:03:24Z</time>
      </trkpt>
      <trkpt lat="44.72164" lon="6.88891">
        <ele>1916.6</ele>
        <time>2022-07-18T07:03:25Z</time>
      </trkpt>
      <trkpt lat="44.72163" lon="6.88893">
        <ele>1916.8</ele>
        <time>2022-07-18T07:03:26Z</time>
      </trkpt>
      <trkpt lat="44.72161" lon="6.88894">
        <ele>1917.2</ele>
        <time>2022-07-18T07:03:27Z</time>
      </trkpt>
      <trkpt lat="44.7216" lon="6.88896">
        <ele>1917.4</ele>
        <time>2022-07-18T07:03:28Z</time>
      </trkpt>
      <trkpt lat="44.72159" lon="6.88899">
        <ele>1917.8</ele>
        <time>2022-07-18T07:03:29Z</time>
      </trkpt>
      <trkpt lat="44.72158" lon="6.88901">
        <ele>1918</ele>
        <time>2022-07-18T07:03:30Z</time>
      </trkpt>
      <trkpt lat="44.72157" lon="6.88903">
        <ele>1918.2</ele>
        <time>2022-07-18T07:03:31Z</time>
      </trkpt>
      <trkpt lat="44.72156" lon="6.88905">
        <ele>1918.6</ele>
        <time>2022-07-18T07:03:32Z</time>
      </trkpt>
      <trkpt lat="44.72154" lon="6.88906">
        <ele>1918.8</ele>
        <time>2022-07-18T07:03:33Z</time>
      </trkpt>
      <trkpt lat="44.72153" lon="6.88908">
        <ele>1919.2</ele>
        <time>2022-07-18T07:03:34Z</time>
      </trkpt>
      <trkpt lat="44.72151" lon="6.8891">
        <ele>1919.6</ele>
        <time>2022-07-18T07:03:35Z</time>
      </trkpt>
      <trkpt lat="44.7215" lon="6.88912">
        <ele>1919.8</ele>
        <time>2022-07-18T07:03:36Z</time>
      </trkpt>
      <trkpt lat="44.72147" lon="6.88914">
        <ele>1920</ele>
        <time>2022-07-18T07:03:37Z</time>
      </trkpt>
      <trkpt lat="44.72145" lon="6.88916">
        <ele>1920.4</ele>
        <time>2022-07-18T07:03:38Z</time>
      </trkpt>
      <trkpt lat="44.72143" lon="6.88918">
        <ele>1920.8</ele>
        <time>2022-07-18T07:03:39Z</time>
      </trkpt>
      <trkpt lat="44.72142" lon="6.88921">
        <ele>1921</ele>
        <time>2022-07-18T07:03:40Z</time>
      </trkpt>
      <trkpt lat="44.7214" lon="6.88924">
        <ele>1921.4</ele>
        <time>2022-07-18T07:03:41Z</time>
      </trkpt>
      <trkpt lat="44.72137" lon="6.88926">
        <ele>1921.6</ele>
        <time>2022-07-18T07:03:42Z</time>
      </trkpt>
      <trkpt lat="44.72135" lon="6.88928">
        <ele>1922</ele>
        <time>2022-07-18T07:03:43Z</time>
      </trkpt>
      <trkpt lat="44.72134" lon="6.88931">
        <ele>1922.2</ele>
        <time>2022-07-18T07:03:44Z</time>
      </trkpt>
      <trkpt lat="44.72133" lon="6.88934">
        <ele>1922.4</ele>
        <time>2022-07-18T07:03:45Z</time>
      </trkpt>
      <trkpt lat="44.72131" lon="6.88937">
        <ele>1922.8</ele>
        <time>2022-07-18T07:03:46Z</time>
      </trkpt>
      <trkpt lat="44.7213" lon="6.88941">
        <ele>1923</ele>
        <time>2022-07-18T07:03:47Z</time>
      </trkpt>
      <trkpt lat="44.72129" lon="6.88945">
        <ele>1923.2</ele>
        <time>2022-07-18T07:03:48Z</time>
      </trkpt>
      <trkpt lat="44.72128" lon="6.88949">
        <ele>1923.6</ele>
        <time>2022-07-18T07:03:49Z</time>
      </trkpt>
      <trkpt lat="44.72127" lon="6.88953">
        <ele>1923.6</ele>
        <time>2022-07-18T07:03:50Z</time>
      </trkpt>
      <trkpt lat="44.72126" lon="6.88957">
        <ele>1923.6</ele>
        <time>2022-07-18T07:03:51Z</time>
      </trkpt>
      <trkpt lat="44.72126" lon="6.88963">
        <ele>1923.8</ele>
        <time>2022-07-18T07:03:52Z</time>
      </trkpt>
      <trkpt lat="44.72126" lon="6.88968">
        <ele>1923.8</ele>
        <time>2022-07-18T07:03:53Z</time>
      </trkpt>
      <trkpt lat="44.72126" lon="6.88974">
        <ele>1923.8</ele>
        <time>2022-07-18T07:03:54Z</time>
      </trkpt>
      <trkpt lat="44.72126" lon="6.88979">
        <ele>1923.8</ele>
        <time>2022-07-18T07:03:55Z</time>
      </trkpt>
      <trkpt lat="44.72126" lon="6.88984">
        <ele>1923.8</ele>
        <time>2022-07-18T07:03:56Z</time>
      </trkpt>
      <trkpt lat="44.72126" lon="6.88989">
        <ele>1924</ele>
        <time>2022-07-18T07:03:57Z</time>
      </trkpt>
      <trkpt lat="44.72126" lon="6.88993">
        <ele>1924</ele>
        <time>2022-07-18T07:03:58Z</time>
      </trkpt>
      <trkpt lat="44.72126" lon="6.88998">
        <ele>1924</ele>
        <time>2022-07-18T07:03:59Z</time>
      </trkpt>
      <trkpt lat="44.72126" lon="6.89002">
        <ele>1924.2</ele>
        <time>2022-07-18T07:04:00Z</time>
      </trkpt>
      <trkpt lat="44.72126" lon="6.89006">
        <ele>1924.2</ele>
        <time>2022-07-18T07:04:01Z</time>
      </trkpt>
      <trkpt lat="44.72127" lon="6.8901">
        <ele>1924.6</ele>
        <time>2022-07-18T07:04:02Z</time>
      </trkpt>
      <trkpt lat="44.72127" lon="6.89014">
        <ele>1924.6</ele>
        <time>2022-07-18T07:04:03Z</time>
      </trkpt>
      <trkpt lat="44.72127" lon="6.89018">
        <ele>1925</ele>
        <time>2022-07-18T07:04:04Z</time>
      </trkpt>
      <trkpt lat="44.72126" lon="6.89021">
        <ele>1925</ele>
        <time>2022-07-18T07:04:05Z</time>
      </trkpt>
      <trkpt lat="44.72126" lon="6.89025">
        <ele>1925.4</ele>
        <time>2022-07-18T07:04:06Z</time>
      </trkpt>
      <trkpt lat="44.72127" lon="6.89028">
        <ele>1925.4</ele>
        <time>2022-07-18T07:04:07Z</time>
      </trkpt>
      <trkpt lat="44.72127" lon="6.89031">
        <ele>1925.8</ele>
        <time>2022-07-18T07:04:08Z</time>
      </trkpt>
      <trkpt lat="44.72127" lon="6.89035">
        <ele>1926</ele>
        <time>2022-07-18T07:04:09Z</time>
      </trkpt>
      <trkpt lat="44.72126" lon="6.89038">
        <ele>1926.2</ele>
        <time>2022-07-18T07:04:10Z</time>
      </trkpt>
      <trkpt lat="44.72126" lon="6.89042">
        <ele>1926.4</ele>
        <time>2022-07-18T07:04:11Z</time>
      </trkpt>
      <trkpt lat="44.72125" lon="6.89046">
        <ele>1926.8</ele>
        <time>2022-07-18T07:04:12Z</time>
      </trkpt>
      <trkpt lat="44.72125" lon="6.89049">
        <ele>1927</ele>
        <time>2022-07-18T07:04:13Z</time>
      </trkpt>
      <trkpt lat="44.72125" lon="6.89052">
        <ele>1927.2</ele>
        <time>2022-07-18T07:04:14Z</time>
      </trkpt>
      <trkpt lat="44.72125" lon="6.89055">
        <ele>1927.4</ele>
        <time>2022-07-18T07:04:15Z</time>
      </trkpt>
      <trkpt lat="44.72125" lon="6.89058">
        <ele>1927.8</ele>
        <time>2022-07-18T07:04:16Z</time>
      </trkpt>
      <trkpt lat="44.72124" lon="6.89062">
        <ele>1928.2</ele>
        <time>2022-07-18T07:04:17Z</time>
      </trkpt>
      <trkpt lat="44.72124" lon="6.89065">
        <ele>1928.4</ele>
        <time>2022-07-18T07:04:18Z</time>
      </trkpt>
      <trkpt lat="44.72123" lon="6.89068">
        <ele>1928.8</ele>
        <time>2022-07-18T07:04:19Z</time>
      </trkpt>
      <trkpt lat="44.72122" lon="6.89072">
        <ele>1929</ele>
        <time>2022-07-18T07:04:20Z</time>
      </trkpt>
      <trkpt lat="44.72122" lon="6.89075">
        <ele>1929.4</ele>
        <time>2022-07-18T07:04:21Z</time>
      </trkpt>
      <trkpt lat="44.72121" lon="6.89078">
        <ele>1929.6</ele>
        <time>2022-07-18T07:04:22Z</time>
      </trkpt>
      <trkpt lat="44.72121" lon="6.89082">
        <ele>1929.8</ele>
        <time>2022-07-18T07:04:23Z</time>
      </trkpt>
      <trkpt lat="44.7212" lon="6.89085">
        <ele>1930</ele>
        <time>2022-07-18T07:04:24Z</time>
      </trkpt>
      <trkpt lat="44.7212" lon="6.89089">
        <ele>1930</ele>
        <time>2022-07-18T07:04:25Z</time>
      </trkpt>
      <trkpt lat="44.72119" lon="6.89092">
        <ele>1930.4</ele>
        <time>2022-07-18T07:04:26Z</time>
      </trkpt>
      <trkpt lat="44.72118" lon="6.89096">
        <ele>1930.4</ele>
        <time>2022-07-18T07:04:27Z</time>
      </trkpt>
      <trkpt lat="44.72117" lon="6.89099">
        <ele>1930.8</ele>
        <time>2022-07-18T07:04:28Z</time>
      </trkpt>
      <trkpt lat="44.72116" lon="6.89103">
        <ele>1930.8</ele>
        <time>2022-07-18T07:04:29Z</time>
      </trkpt>
      <trkpt lat="44.72115" lon="6.89106">
        <ele>1930.8</ele>
        <time>2022-07-18T07:04:30Z</time>
      </trkpt>
      <trkpt lat="44.72114" lon="6.8911">
        <ele>1931</ele>
        <time>2022-07-18T07:04:31Z</time>
      </trkpt>
      <trkpt lat="44.72114" lon="6.89114">
        <ele>1931</ele>
        <time>2022-07-18T07:04:32Z</time>
      </trkpt>
      <trkpt lat="44.72113" lon="6.89118">
        <ele>1931</ele>
        <time>2022-07-18T07:04:33Z</time>
      </trkpt>
      <trkpt lat="44.72112" lon="6.89122">
        <ele>1931.4</ele>
        <time>2022-07-18T07:04:34Z</time>
      </trkpt>
      <trkpt lat="44.72111" lon="6.89127">
        <ele>1931.4</ele>
        <time>2022-07-18T07:04:35Z</time>
      </trkpt>
      <trkpt lat="44.7211" lon="6.89131">
        <ele>1931.6</ele>
        <time>2022-07-18T07:04:36Z</time>
      </trkpt>
      <trkpt lat="44.72109" lon="6.89136">
        <ele>1931.6</ele>
        <time>2022-07-18T07:04:37Z</time>
      </trkpt>
      <trkpt lat="44.72108" lon="6.8914">
        <ele>1931.8</ele>
        <time>2022-07-18T07:04:38Z</time>
      </trkpt>
      <trkpt lat="44.72107" lon="6.89145">
        <ele>1931.8</ele>
        <time>2022-07-18T07:04:39Z</time>
      </trkpt>
      <trkpt lat="44.72106" lon="6.8915">
        <ele>1931.8</ele>
        <time>2022-07-18T07:04:40Z</time>
      </trkpt>
      <trkpt lat="44.72106" lon="6.89154">
        <ele>1932.2</ele>
        <time>2022-07-18T07:04:41Z</time>
      </trkpt>
      <trkpt lat="44.72105" lon="6.89159">
        <ele>1932.2</ele>
        <time>2022-07-18T07:04:42Z</time>
      </trkpt>
      <trkpt lat="44.72104" lon="6.89164">
        <ele>1932.2</ele>
        <time>2022-07-18T07:04:43Z</time>
      </trkpt>
      <trkpt lat="44.72104" lon="6.89169">
        <ele>1932.4</ele>
        <time>2022-07-18T07:04:44Z</time>
      </trkpt>
      <trkpt lat="44.72103" lon="6.89174">
        <ele>1932.4</ele>
        <time>2022-07-18T07:04:45Z</time>
      </trkpt>
      <trkpt lat="44.72103" lon="6.8918">
        <ele>1932.4</ele>
        <time>2022-07-18T07:04:46Z</time>
      </trkpt>
      <trkpt lat="44.72102" lon="6.89185">
        <ele>1932.4</ele>
        <time>2022-07-18T07:04:47Z</time>
      </trkpt>
      <trkpt lat="44.72102" lon="6.8919">
        <ele>1932.4</ele>
        <time>2022-07-18T07:04:48Z</time>
      </trkpt>
      <trkpt lat="44.72101" lon="6.89195">
        <ele>1932.4</ele>
        <time>2022-07-18T07:04:49Z</time>
      </trkpt>
      <trkpt lat="44.721" lon="6.89201">
        <ele>1932.6</ele>
        <time>2022-07-18T07:04:50Z</time>
      </trkpt>
      <trkpt lat="44.721" lon="6.89206">
        <ele>1932.6</ele>
        <time>2022-07-18T07:04:51Z</time>
      </trkpt>
      <trkpt lat="44.72099" lon="6.89211">
        <ele>1932.6</ele>
        <time>2022-07-18T07:04:52Z</time>
      </trkpt>
      <trkpt lat="44.72098" lon="6.89215">
        <ele>1932.6</ele>
        <time>2022-07-18T07:04:53Z</time>
      </trkpt>
      <trkpt lat="44.72097" lon="6.8922">
        <ele>1933</ele>
        <time>2022-07-18T07:04:54Z</time>
      </trkpt>
      <trkpt lat="44.72096" lon="6.89224">
        <ele>1933</ele>
        <time>2022-07-18T07:04:55Z</time>
      </trkpt>
      <trkpt lat="44.72096" lon="6.89229">
        <ele>1933.2</ele>
        <time>2022-07-18T07:04:56Z</time>
      </trkpt>
      <trkpt lat="44.72095" lon="6.89233">
        <ele>1933.2</ele>
        <time>2022-07-18T07:04:57Z</time>
      </trkpt>
      <trkpt lat="44.72093" lon="6.89237">
        <ele>1933.6</ele>
        <time>2022-07-18T07:04:58Z</time>
      </trkpt>
      <trkpt lat="44.72092" lon="6.89241">
        <ele>1933.6</ele>
        <time>2022-07-18T07:04:59Z</time>
      </trkpt>
      <trkpt lat="44.72091" lon="6.89245">
        <ele>1933.8</ele>
        <time>2022-07-18T07:05:00Z</time>
      </trkpt>
      <trkpt lat="44.7209" lon="6.89248">
        <ele>1933.8</ele>
        <time>2022-07-18T07:05:01Z</time>
      </trkpt>
      <trkpt lat="44.72089" lon="6.89252">
        <ele>1934.2</ele>
        <time>2022-07-18T07:05:02Z</time>
      </trkpt>
      <trkpt lat="44.72087" lon="6.89256">
        <ele>1934.2</ele>
        <time>2022-07-18T07:05:03Z</time>
      </trkpt>
      <trkpt lat="44.72086" lon="6.8926">
        <ele>1934.6</ele>
        <time>2022-07-18T07:05:04Z</time>
      </trkpt>
      <trkpt lat="44.72085" lon="6.89263">
        <ele>1934.6</ele>
        <time>2022-07-18T07:05:05Z</time>
      </trkpt>
      <trkpt lat="44.72083" lon="6.89267">
        <ele>1934.8</ele>
        <time>2022-07-18T07:05:06Z</time>
      </trkpt>
      <trkpt lat="44.72082" lon="6.8927">
        <ele>1934.8</ele>
        <time>2022-07-18T07:05:07Z</time>
      </trkpt>
      <trkpt lat="44.7208" lon="6.89274">
        <ele>1935.2</ele>
        <time>2022-07-18T07:05:08Z</time>
      </trkpt>
      <trkpt lat="44.72078" lon="6.89277">
        <ele>1935.2</ele>
        <time>2022-07-18T07:05:09Z</time>
      </trkpt>
      <trkpt lat="44.72077" lon="6.89281">
        <ele>1935.4</ele>
        <time>2022-07-18T07:05:10Z</time>
      </trkpt>
      <trkpt lat="44.72076" lon="6.89285">
        <ele>1935.4</ele>
        <time>2022-07-18T07:05:11Z</time>
      </trkpt>
      <trkpt lat="44.72074" lon="6.89289">
        <ele>1935.6</ele>
        <time>2022-07-18T07:05:12Z</time>
      </trkpt>
      <trkpt lat="44.72073" lon="6.89293">
        <ele>1935.6</ele>
        <time>2022-07-18T07:05:13Z</time>
      </trkpt>
      <trkpt lat="44.72071" lon="6.89297">
        <ele>1935.6</ele>
        <time>2022-07-18T07:05:14Z</time>
      </trkpt>
      <trkpt lat="44.7207" lon="6.89302">
        <ele>1935.6</ele>
        <time>2022-07-18T07:05:15Z</time>
      </trkpt>
      <trkpt lat="44.72069" lon="6.89307">
        <ele>1935.6</ele>
        <time>2022-07-18T07:05:16Z</time>
      </trkpt>
      <trkpt lat="44.72067" lon="6.89312">
        <ele>1935.6</ele>
        <time>2022-07-18T07:05:17Z</time>
      </trkpt>
      <trkpt lat="44.72066" lon="6.89316">
        <ele>1935.6</ele>
        <time>2022-07-18T07:05:18Z</time>
      </trkpt>
      <trkpt lat="44.72065" lon="6.89321">
        <ele>1935.8</ele>
        <time>2022-07-18T07:05:19Z</time>
      </trkpt>
      <trkpt lat="44.72063" lon="6.89327">
        <ele>1935.8</ele>
        <time>2022-07-18T07:05:20Z</time>
      </trkpt>
      <trkpt lat="44.72062" lon="6.89332">
        <ele>1935.8</ele>
        <time>2022-07-18T07:05:21Z</time>
      </trkpt>
      <trkpt lat="44.72061" lon="6.89338">
        <ele>1935.8</ele>
        <time>2022-07-18T07:05:22Z</time>
      </trkpt>
      <trkpt lat="44.7206" lon="6.89345">
        <ele>1935.8</ele>
        <time>2022-07-18T07:05:23Z</time>
      </trkpt>
      <trkpt lat="44.72059" lon="6.89352">
        <ele>1935.8</ele>
        <time>2022-07-18T07:05:24Z</time>
      </trkpt>
      <trkpt lat="44.72059" lon="6.89359">
        <ele>1935.8</ele>
        <time>2022-07-18T07:05:25Z</time>
      </trkpt>
      <trkpt lat="44.72058" lon="6.89366">
        <ele>1935.8</ele>
        <time>2022-07-18T07:05:26Z</time>
      </trkpt>
      <trkpt lat="44.72056" lon="6.89374">
        <ele>1935.8</ele>
        <time>2022-07-18T07:05:27Z</time>
      </trkpt>
      <trkpt lat="44.72055" lon="6.89382">
        <ele>1935.8</ele>
        <time>2022-07-18T07:05:28Z</time>
      </trkpt>
      <trkpt lat="44.72053" lon="6.8939">
        <ele>1935.8</ele>
        <time>2022-07-18T07:05:29Z</time>
      </trkpt>
      <trkpt lat="44.72051" lon="6.89398">
        <ele>1935.6</ele>
        <time>2022-07-18T07:05:30Z</time>
      </trkpt>
      <trkpt lat="44.72049" lon="6.89406">
        <ele>1935.6</ele>
        <time>2022-07-18T07:05:31Z</time>
      </trkpt>
      <trkpt lat="44.72046" lon="6.89414">
        <ele>1935.4</ele>
        <time>2022-07-18T07:05:32Z</time>
      </trkpt>
      <trkpt lat="44.72044" lon="6.89422">
        <ele>1935.4</ele>
        <time>2022-07-18T07:05:33Z</time>
      </trkpt>
      <trkpt lat="44.72042" lon="6.8943">
        <ele>1935.4</ele>
        <time>2022-07-18T07:05:34Z</time>
      </trkpt>
      <trkpt lat="44.72039" lon="6.89438">
        <ele>1935.4</ele>
        <time>2022-07-18T07:05:35Z</time>
      </trkpt>
      <trkpt lat="44.72036" lon="6.89446">
        <ele>1935.4</ele>
        <time>2022-07-18T07:05:36Z</time>
      </trkpt>
      <trkpt lat="44.72032" lon="6.89453">
        <ele>1935.4</ele>
        <time>2022-07-18T07:05:37Z</time>
      </trkpt>
      <trkpt lat="44.72029" lon="6.8946">
        <ele>1935.4</ele>
        <time>2022-07-18T07:05:38Z</time>
      </trkpt>
      <trkpt lat="44.72026" lon="6.89467">
        <ele>1935.4</ele>
        <time>2022-07-18T07:05:39Z</time>
      </trkpt>
      <trkpt lat="44.72023" lon="6.89473">
        <ele>1935.8</ele>
        <time>2022-07-18T07:05:40Z</time>
      </trkpt>
      <trkpt lat="44.7202" lon="6.89479">
        <ele>1936</ele>
        <time>2022-07-18T07:05:41Z</time>
      </trkpt>
      <trkpt lat="44.72017" lon="6.89485">
        <ele>1936</ele>
        <time>2022-07-18T07:05:42Z</time>
      </trkpt>
      <trkpt lat="44.72015" lon="6.89491">
        <ele>1936.2</ele>
        <time>2022-07-18T07:05:43Z</time>
      </trkpt>
      <trkpt lat="44.72014" lon="6.89498">
        <ele>1936.2</ele>
        <time>2022-07-18T07:05:44Z</time>
      </trkpt>
      <trkpt lat="44.72012" lon="6.89504">
        <ele>1936.2</ele>
        <time>2022-07-18T07:05:45Z</time>
      </trkpt>
      <trkpt lat="44.72011" lon="6.89511">
        <ele>1936.6</ele>
        <time>2022-07-18T07:05:46Z</time>
      </trkpt>
      <trkpt lat="44.7201" lon="6.89519">
        <ele>1936.6</ele>
        <time>2022-07-18T07:05:47Z</time>
      </trkpt>
      <trkpt lat="44.7201" lon="6.89526">
        <ele>1936.6</ele>
        <time>2022-07-18T07:05:48Z</time>
      </trkpt>
      <trkpt lat="44.7201" lon="6.89534">
        <ele>1936.6</ele>
        <time>2022-07-18T07:05:49Z</time>
      </trkpt>
      <trkpt lat="44.7201" lon="6.89542">
        <ele>1936.6</ele>
        <time>2022-07-18T07:05:50Z</time>
      </trkpt>
      <trkpt lat="44.72011" lon="6.89551">
        <ele>1936.2</ele>
        <time>2022-07-18T07:05:51Z</time>
      </trkpt>
      <trkpt lat="44.72012" lon="6.89561">
        <ele>1935.8</ele>
        <time>2022-07-18T07:05:52Z</time>
      </trkpt>
      <trkpt lat="44.72014" lon="6.89572">
        <ele>1935.4</ele>
        <time>2022-07-18T07:05:53Z</time>
      </trkpt>
      <trkpt lat="44.72016" lon="6.89583">
        <ele>1935</ele>
        <time>2022-07-18T07:05:54Z</time>
      </trkpt>
      <trkpt lat="44.72018" lon="6.89595">
        <ele>1934.6</ele>
        <time>2022-07-18T07:05:55Z</time>
      </trkpt>
      <trkpt lat="44.7202" lon="6.89608">
        <ele>1934</ele>
        <time>2022-07-18T07:05:56Z</time>
      </trkpt>
      <trkpt lat="44.72023" lon="6.89622">
        <ele>1933.4</ele>
        <time>2022-07-18T07:05:57Z</time>
      </trkpt>
      <trkpt lat="44.72024" lon="6.89636">
        <ele>1933</ele>
        <time>2022-07-18T07:05:58Z</time>
      </trkpt>
      <trkpt lat="44.72024" lon="6.8965">
        <ele>1932.6</ele>
        <time>2022-07-18T07:05:59Z</time>
      </trkpt>
      <trkpt lat="44.72022" lon="6.89663">
        <ele>1932.2</ele>
        <time>2022-07-18T07:06:00Z</time>
      </trkpt>
      <trkpt lat="44.72021" lon="6.89676">
        <ele>1931.6</ele>
        <time>2022-07-18T07:06:01Z</time>
      </trkpt>
      <trkpt lat="44.7202" lon="6.8969">
        <ele>1931.2</ele>
        <time>2022-07-18T07:06:02Z</time>
      </trkpt>
      <trkpt lat="44.72018" lon="6.89704">
        <ele>1930.8</ele>
        <time>2022-07-18T07:06:03Z</time>
      </trkpt>
      <trkpt lat="44.72018" lon="6.89718">
        <ele>1930.6</ele>
        <time>2022-07-18T07:06:04Z</time>
      </trkpt>
      <trkpt lat="44.72017" lon="6.89731">
        <ele>1930.2</ele>
        <time>2022-07-18T07:06:05Z</time>
      </trkpt>
      <trkpt lat="44.72017" lon="6.89745">
        <ele>1930</ele>
        <time>2022-07-18T07:06:06Z</time>
      </trkpt>
      <trkpt lat="44.72017" lon="6.89758">
        <ele>1929.8</ele>
        <time>2022-07-18T07:06:07Z</time>
      </trkpt>
      <trkpt lat="44.72016" lon="6.89771">
        <ele>1929.8</ele>
        <time>2022-07-18T07:06:08Z</time>
      </trkpt>
      <trkpt lat="44.72016" lon="6.89782">
        <ele>1929.6</ele>
        <time>2022-07-18T07:06:09Z</time>
      </trkpt>
      <trkpt lat="44.72015" lon="6.89795">
        <ele>1929.6</ele>
        <time>2022-07-18T07:06:10Z</time>
      </trkpt>
      <trkpt lat="44.72014" lon="6.89807">
        <ele>1929.6</ele>
        <time>2022-07-18T07:06:11Z</time>
      </trkpt>
      <trkpt lat="44.72012" lon="6.89819">
        <ele>1929.6</ele>
        <time>2022-07-18T07:06:12Z</time>
      </trkpt>
      <trkpt lat="44.72011" lon="6.8983">
        <ele>1929.6</ele>
        <time>2022-07-18T07:06:13Z</time>
      </trkpt>
      <trkpt lat="44.72009" lon="6.89842">
        <ele>1929.6</ele>
        <time>2022-07-18T07:06:14Z</time>
      </trkpt>
      <trkpt lat="44.72007" lon="6.89852">
        <ele>1929.8</ele>
        <time>2022-07-18T07:06:15Z</time>
      </trkpt>
      <trkpt lat="44.72006" lon="6.89862">
        <ele>1930</ele>
        <time>2022-07-18T07:06:16Z</time>
      </trkpt>
      <trkpt lat="44.72004" lon="6.89872">
        <ele>1930.2</ele>
        <time>2022-07-18T07:06:17Z</time>
      </trkpt>
      <trkpt lat="44.72003" lon="6.89882">
        <ele>1930.6</ele>
        <time>2022-07-18T07:06:18Z</time>
      </trkpt>
      <trkpt lat="44.72002" lon="6.89891">
        <ele>1931</ele>
        <time>2022-07-18T07:06:19Z</time>
      </trkpt>
      <trkpt lat="44.72001" lon="6.89899">
        <ele>1931.2</ele>
        <time>2022-07-18T07:06:20Z</time>
      </trkpt>
      <trkpt lat="44.72" lon="6.89907">
        <ele>1931.4</ele>
        <time>2022-07-18T07:06:21Z</time>
      </trkpt>
      <trkpt lat="44.71999" lon="6.89914">
        <ele>1931.8</ele>
        <time>2022-07-18T07:06:22Z</time>
      </trkpt>
      <trkpt lat="44.71998" lon="6.89921">
        <ele>1932</ele>
        <time>2022-07-18T07:06:23Z</time>
      </trkpt>
      <trkpt lat="44.71996" lon="6.89928">
        <ele>1932.2</ele>
        <time>2022-07-18T07:06:24Z</time>
      </trkpt>
      <trkpt lat="44.71995" lon="6.89934">
        <ele>1932.6</ele>
        <time>2022-07-18T07:06:25Z</time>
      </trkpt>
      <trkpt lat="44.71993" lon="6.8994">
        <ele>1932.8</ele>
        <time>2022-07-18T07:06:26Z</time>
      </trkpt>
      <trkpt lat="44.71991" lon="6.89946">
        <ele>1933.2</ele>
        <time>2022-07-18T07:06:27Z</time>
      </trkpt>
      <trkpt lat="44.7199" lon="6.89951">
        <ele>1933.2</ele>
        <time>2022-07-18T07:06:28Z</time>
      </trkpt>
      <trkpt lat="44.71988" lon="6.89956">
        <ele>1933.6</ele>
        <time>2022-07-18T07:06:29Z</time>
      </trkpt>
      <trkpt lat="44.71986" lon="6.89961">
        <ele>1933.8</ele>
        <time>2022-07-18T07:06:30Z</time>
      </trkpt>
      <trkpt lat="44.71984" lon="6.89966">
        <ele>1934.2</ele>
        <time>2022-07-18T07:06:31Z</time>
      </trkpt>
      <trkpt lat="44.71983" lon="6.89971">
        <ele>1934.4</ele>
        <time>2022-07-18T07:06:32Z</time>
      </trkpt>
      <trkpt lat="44.71981" lon="6.89976">
        <ele>1934.4</ele>
        <time>2022-07-18T07:06:33Z</time>
      </trkpt>
      <trkpt lat="44.71979" lon="6.89981">
        <ele>1934.8</ele>
        <time>2022-07-18T07:06:34Z</time>
      </trkpt>
      <trkpt lat="44.71978" lon="6.89986">
        <ele>1935</ele>
        <time>2022-07-18T07:06:35Z</time>
      </trkpt>
      <trkpt lat="44.71976" lon="6.89991">
        <ele>1935.2</ele>
        <time>2022-07-18T07:06:36Z</time>
      </trkpt>
      <trkpt lat="44.71975" lon="6.89996">
        <ele>1935.2</ele>
        <time>2022-07-18T07:06:37Z</time>
      </trkpt>
      <trkpt lat="44.71974" lon="6.90001">
        <ele>1935.6</ele>
        <time>2022-07-18T07:06:38Z</time>
      </trkpt>
      <trkpt lat="44.71973" lon="6.90006">
        <ele>1935.8</ele>
        <time>2022-07-18T07:06:39Z</time>
      </trkpt>
      <trkpt lat="44.71971" lon="6.90011">
        <ele>1936</ele>
        <time>2022-07-18T07:06:40Z</time>
      </trkpt>
      <trkpt lat="44.7197" lon="6.90016">
        <ele>1936</ele>
        <time>2022-07-18T07:06:41Z</time>
      </trkpt>
      <trkpt lat="44.71969" lon="6.90021">
        <ele>1936.4</ele>
        <time>2022-07-18T07:06:42Z</time>
      </trkpt>
      <trkpt lat="44.71968" lon="6.90026">
        <ele>1936.6</ele>
        <time>2022-07-18T07:06:43Z</time>
      </trkpt>
      <trkpt lat="44.71967" lon="6.90031">
        <ele>1936.8</ele>
        <time>2022-07-18T07:06:44Z</time>
      </trkpt>
      <trkpt lat="44.71966" lon="6.90036">
        <ele>1937</ele>
        <time>2022-07-18T07:06:45Z</time>
      </trkpt>
      <trkpt lat="44.71966" lon="6.90041">
        <ele>1937.2</ele>
        <time>2022-07-18T07:06:46Z</time>
      </trkpt>
      <trkpt lat="44.71965" lon="6.90045">
        <ele>1937.6</ele>
        <time>2022-07-18T07:06:47Z</time>
      </trkpt>
      <trkpt lat="44.71965" lon="6.9005">
        <ele>1937.8</ele>
        <time>2022-07-18T07:06:48Z</time>
      </trkpt>
      <trkpt lat="44.71965" lon="6.90054">
        <ele>1938</ele>
        <time>2022-07-18T07:06:49Z</time>
      </trkpt>
      <trkpt lat="44.71964" lon="6.90059">
        <ele>1938.2</ele>
        <time>2022-07-18T07:06:50Z</time>
      </trkpt>
      <trkpt lat="44.71964" lon="6.90064">
        <ele>1938.4</ele>
        <time>2022-07-18T07:06:51Z</time>
      </trkpt>
      <trkpt lat="44.71964" lon="6.90068">
        <ele>1938.6</ele>
        <time>2022-07-18T07:06:52Z</time>
      </trkpt>
      <trkpt lat="44.71963" lon="6.90073">
        <ele>1938.8</ele>
        <time>2022-07-18T07:06:53Z</time>
      </trkpt>
      <trkpt lat="44.71963" lon="6.90078">
        <ele>1939.2</ele>
        <time>2022-07-18T07:06:54Z</time>
      </trkpt>
      <trkpt lat="44.71963" lon="6.90082">
        <ele>1939.4</ele>
        <time>2022-07-18T07:06:55Z</time>
      </trkpt>
      <trkpt lat="44.71962" lon="6.90087">
        <ele>1939.4</ele>
        <time>2022-07-18T07:06:56Z</time>
      </trkpt>
      <trkpt lat="44.71962" lon="6.90092">
        <ele>1939.8</ele>
        <time>2022-07-18T07:06:57Z</time>
      </trkpt>
      <trkpt lat="44.71961" lon="6.90097">
        <ele>1939.8</ele>
        <time>2022-07-18T07:06:58Z</time>
      </trkpt>
      <trkpt lat="44.71961" lon="6.90102">
        <ele>1940.2</ele>
        <time>2022-07-18T07:06:59Z</time>
      </trkpt>
      <trkpt lat="44.71961" lon="6.90107">
        <ele>1940.2</ele>
        <time>2022-07-18T07:07:00Z</time>
      </trkpt>
      <trkpt lat="44.71961" lon="6.90111">
        <ele>1940.6</ele>
        <time>2022-07-18T07:07:01Z</time>
      </trkpt>
      <trkpt lat="44.71961" lon="6.90116">
        <ele>1940.6</ele>
        <time>2022-07-18T07:07:02Z</time>
      </trkpt>
      <trkpt lat="44.7196" lon="6.90121">
        <ele>1940.8</ele>
        <time>2022-07-18T07:07:03Z</time>
      </trkpt>
      <trkpt lat="44.7196" lon="6.90126">
        <ele>1940.8</ele>
        <time>2022-07-18T07:07:04Z</time>
      </trkpt>
      <trkpt lat="44.71959" lon="6.90131">
        <ele>1941</ele>
        <time>2022-07-18T07:07:05Z</time>
      </trkpt>
      <trkpt lat="44.71958" lon="6.90136">
        <ele>1941.2</ele>
        <time>2022-07-18T07:07:06Z</time>
      </trkpt>
      <trkpt lat="44.71957" lon="6.90141">
        <ele>1941.2</ele>
        <time>2022-07-18T07:07:07Z</time>
      </trkpt>
      <trkpt lat="44.71956" lon="6.90146">
        <ele>1941.6</ele>
        <time>2022-07-18T07:07:08Z</time>
      </trkpt>
      <trkpt lat="44.71955" lon="6.90151">
        <ele>1941.6</ele>
        <time>2022-07-18T07:07:09Z</time>
      </trkpt>
      <trkpt lat="44.71954" lon="6.90156">
        <ele>1941.8</ele>
        <time>2022-07-18T07:07:10Z</time>
      </trkpt>
      <trkpt lat="44.71953" lon="6.90161">
        <ele>1941.8</ele>
        <time>2022-07-18T07:07:11Z</time>
      </trkpt>
      <trkpt lat="44.71952" lon="6.90166">
        <ele>1942</ele>
        <time>2022-07-18T07:07:12Z</time>
      </trkpt>
      <trkpt lat="44.71951" lon="6.90171">
        <ele>1942</ele>
        <time>2022-07-18T07:07:13Z</time>
      </trkpt>
      <trkpt lat="44.7195" lon="6.90176">
        <ele>1942</ele>
        <time>2022-07-18T07:07:14Z</time>
      </trkpt>
      <trkpt lat="44.71949" lon="6.90181">
        <ele>1942.2</ele>
        <time>2022-07-18T07:07:15Z</time>
      </trkpt>
      <trkpt lat="44.71948" lon="6.90186">
        <ele>1942.2</ele>
        <time>2022-07-18T07:07:16Z</time>
      </trkpt>
      <trkpt lat="44.71947" lon="6.90191">
        <ele>1942.6</ele>
        <time>2022-07-18T07:07:17Z</time>
      </trkpt>
      <trkpt lat="44.71946" lon="6.90196">
        <ele>1942.6</ele>
        <time>2022-07-18T07:07:18Z</time>
      </trkpt>
      <trkpt lat="44.71945" lon="6.90201">
        <ele>1942.6</ele>
        <time>2022-07-18T07:07:19Z</time>
      </trkpt>
      <trkpt lat="44.71943" lon="6.90207">
        <ele>1942.8</ele>
        <time>2022-07-18T07:07:20Z</time>
      </trkpt>
      <trkpt lat="44.71942" lon="6.90212">
        <ele>1942.8</ele>
        <time>2022-07-18T07:07:21Z</time>
      </trkpt>
      <trkpt lat="44.7194" lon="6.90217">
        <ele>1942.8</ele>
        <time>2022-07-18T07:07:22Z</time>
      </trkpt>
      <trkpt lat="44.71939" lon="6.90223">
        <ele>1943</ele>
        <time>2022-07-18T07:07:23Z</time>
      </trkpt>
      <trkpt lat="44.71938" lon="6.90229">
        <ele>1943</ele>
        <time>2022-07-18T07:07:24Z</time>
      </trkpt>
      <trkpt lat="44.71936" lon="6.90235">
        <ele>1943</ele>
        <time>2022-07-18T07:07:25Z</time>
      </trkpt>
      <trkpt lat="44.71935" lon="6.90241">
        <ele>1943</ele>
        <time>2022-07-18T07:07:26Z</time>
      </trkpt>
      <trkpt lat="44.71934" lon="6.90247">
        <ele>1943</ele>
        <time>2022-07-18T07:07:27Z</time>
      </trkpt>
      <trkpt lat="44.71934" lon="6.90253">
        <ele>1943</ele>
        <time>2022-07-18T07:07:28Z</time>
      </trkpt>
      <trkpt lat="44.71934" lon="6.9026">
        <ele>1943</ele>
        <time>2022-07-18T07:07:29Z</time>
      </trkpt>
      <trkpt lat="44.71934" lon="6.90267">
        <ele>1943</ele>
        <time>2022-07-18T07:07:30Z</time>
      </trkpt>
      <trkpt lat="44.71935" lon="6.90274">
        <ele>1943</ele>
        <time>2022-07-18T07:07:31Z</time>
      </trkpt>
      <trkpt lat="44.71936" lon="6.90282">
        <ele>1943</ele>
        <time>2022-07-18T07:07:32Z</time>
      </trkpt>
      <trkpt lat="44.71936" lon="6.9029">
        <ele>1942.6</ele>
        <time>2022-07-18T07:07:33Z</time>
      </trkpt>
      <trkpt lat="44.71937" lon="6.90299">
        <ele>1942.6</ele>
        <time>2022-07-18T07:07:34Z</time>
      </trkpt>
      <trkpt lat="44.71937" lon="6.90308">
        <ele>1942.4</ele>
        <time>2022-07-18T07:07:35Z</time>
      </trkpt>
      <trkpt lat="44.71938" lon="6.90317">
        <ele>1942.2</ele>
        <time>2022-07-18T07:07:36Z</time>
      </trkpt>
      <trkpt lat="44.71938" lon="6.90326">
        <ele>1942</ele>
        <time>2022-07-18T07:07:37Z</time>
      </trkpt>
      <trkpt lat="44.71937" lon="6.90336">
        <ele>1941.6</ele>
        <time>2022-07-18T07:07:38Z</time>
      </trkpt>
      <trkpt lat="44.71936" lon="6.90346">
        <ele>1941.4</ele>
        <time>2022-07-18T07:07:39Z</time>
      </trkpt>
      <trkpt lat="44.71934" lon="6.90355">
        <ele>1941.4</ele>
        <time>2022-07-18T07:07:40Z</time>
      </trkpt>
      <trkpt lat="44.71932" lon="6.90365">
        <ele>1941.2</ele>
        <time>2022-07-18T07:07:41Z</time>
      </trkpt>
      <trkpt lat="44.7193" lon="6.90374">
        <ele>1941.2</ele>
        <time>2022-07-18T07:07:42Z</time>
      </trkpt>
      <trkpt lat="44.71927" lon="6.90382">
        <ele>1941.2</ele>
        <time>2022-07-18T07:07:43Z</time>
      </trkpt>
      <trkpt lat="44.71925" lon="6.9039">
        <ele>1941.2</ele>
        <time>2022-07-18T07:07:44Z</time>
      </trkpt>
      <trkpt lat="44.71923" lon="6.90398">
        <ele>1941.2</ele>
        <time>2022-07-18T07:07:45Z</time>
      </trkpt>
      <trkpt lat="44.71921" lon="6.90405">
        <ele>1941.2</ele>
        <time>2022-07-18T07:07:46Z</time>
      </trkpt>
      <trkpt lat="44.71919" lon="6.90412">
        <ele>1941.2</ele>
        <time>2022-07-18T07:07:47Z</time>
      </trkpt>
      <trkpt lat="44.71916" lon="6.90418">
        <ele>1941.2</ele>
        <time>2022-07-18T07:07:48Z</time>
      </trkpt>
      <trkpt lat="44.71914" lon="6.90424">
        <ele>1941.2</ele>
        <time>2022-07-18T07:07:49Z</time>
      </trkpt>
      <trkpt lat="44.71912" lon="6.9043">
        <ele>1941.6</ele>
        <time>2022-07-18T07:07:50Z</time>
      </trkpt>
      <trkpt lat="44.7191" lon="6.90436">
        <ele>1941.8</ele>
        <time>2022-07-18T07:07:51Z</time>
      </trkpt>
      <trkpt lat="44.71908" lon="6.90442">
        <ele>1942</ele>
        <time>2022-07-18T07:07:52Z</time>
      </trkpt>
      <trkpt lat="44.71906" lon="6.90447">
        <ele>1942</ele>
        <time>2022-07-18T07:07:53Z</time>
      </trkpt>
      <trkpt lat="44.71903" lon="6.90452">
        <ele>1942.2</ele>
        <time>2022-07-18T07:07:54Z</time>
      </trkpt>
      <trkpt lat="44.71901" lon="6.90458">
        <ele>1942.2</ele>
        <time>2022-07-18T07:07:55Z</time>
      </trkpt>
      <trkpt lat="44.71899" lon="6.90462">
        <ele>1942.4</ele>
        <time>2022-07-18T07:07:56Z</time>
      </trkpt>
      <trkpt lat="44.71897" lon="6.90467">
        <ele>1942.6</ele>
        <time>2022-07-18T07:07:57Z</time>
      </trkpt>
      <trkpt lat="44.71895" lon="6.90473">
        <ele>1942.6</ele>
        <time>2022-07-18T07:07:58Z</time>
      </trkpt>
      <trkpt lat="44.71893" lon="6.90478">
        <ele>1943</ele>
        <time>2022-07-18T07:07:59Z</time>
      </trkpt>
      <trkpt lat="44.71891" lon="6.90482">
        <ele>1943</ele>
        <time>2022-07-18T07:08:00Z</time>
      </trkpt>
      <trkpt lat="44.71889" lon="6.90487">
        <ele>1943.2</ele>
        <time>2022-07-18T07:08:01Z</time>
      </trkpt>
      <trkpt lat="44.71886" lon="6.90492">
        <ele>1943.2</ele>
        <time>2022-07-18T07:08:02Z</time>
      </trkpt>
      <trkpt lat="44.71884" lon="6.90496">
        <ele>1943.6</ele>
        <time>2022-07-18T07:08:03Z</time>
      </trkpt>
      <trkpt lat="44.71883" lon="6.90501">
        <ele>1943.6</ele>
        <time>2022-07-18T07:08:04Z</time>
      </trkpt>
      <trkpt lat="44.71881" lon="6.90505">
        <ele>1943.8</ele>
        <time>2022-07-18T07:08:05Z</time>
      </trkpt>
      <trkpt lat="44.71879" lon="6.9051">
        <ele>1943.8</ele>
        <time>2022-07-18T07:08:06Z</time>
      </trkpt>
      <trkpt lat="44.71877" lon="6.90515">
        <ele>1944.2</ele>
        <time>2022-07-18T07:08:07Z</time>
      </trkpt>
      <trkpt lat="44.71875" lon="6.90519">
        <ele>1944.2</ele>
        <time>2022-07-18T07:08:08Z</time>
      </trkpt>
      <trkpt lat="44.71873" lon="6.90524">
        <ele>1944.4</ele>
        <time>2022-07-18T07:08:09Z</time>
      </trkpt>
      <trkpt lat="44.71871" lon="6.90528">
        <ele>1944.4</ele>
        <time>2022-07-18T07:08:10Z</time>
      </trkpt>
      <trkpt lat="44.71869" lon="6.90532">
        <ele>1944.8</ele>
        <time>2022-07-18T07:08:11Z</time>
      </trkpt>
      <trkpt lat="44.71867" lon="6.90536">
        <ele>1944.8</ele>
        <time>2022-07-18T07:08:12Z</time>
      </trkpt>
      <trkpt lat="44.71865" lon="6.90541">
        <ele>1945.2</ele>
        <time>2022-07-18T07:08:13Z</time>
      </trkpt>
      <trkpt lat="44.71863" lon="6.90545">
        <ele>1945.2</ele>
        <time>2022-07-18T07:08:14Z</time>
      </trkpt>
      <trkpt lat="44.71861" lon="6.90549">
        <ele>1945.4</ele>
        <time>2022-07-18T07:08:15Z</time>
      </trkpt>
      <trkpt lat="44.71859" lon="6.90554">
        <ele>1945.4</ele>
        <time>2022-07-18T07:08:16Z</time>
      </trkpt>
      <trkpt lat="44.71857" lon="6.90558">
        <ele>1945.6</ele>
        <time>2022-07-18T07:08:17Z</time>
      </trkpt>
      <trkpt lat="44.71855" lon="6.90562">
        <ele>1945.6</ele>
        <time>2022-07-18T07:08:18Z</time>
      </trkpt>
      <trkpt lat="44.71853" lon="6.90566">
        <ele>1946</ele>
        <time>2022-07-18T07:08:19Z</time>
      </trkpt>
      <trkpt lat="44.71851" lon="6.90571">
        <ele>1946.2</ele>
        <time>2022-07-18T07:08:20Z</time>
      </trkpt>
      <trkpt lat="44.71849" lon="6.90575">
        <ele>1946.4</ele>
        <time>2022-07-18T07:08:21Z</time>
      </trkpt>
      <trkpt lat="44.71848" lon="6.9058">
        <ele>1946.6</ele>
        <time>2022-07-18T07:08:22Z</time>
      </trkpt>
      <trkpt lat="44.71846" lon="6.90584">
        <ele>1946.8</ele>
        <time>2022-07-18T07:08:23Z</time>
      </trkpt>
      <trkpt lat="44.71844" lon="6.90588">
        <ele>1947.2</ele>
        <time>2022-07-18T07:08:24Z</time>
      </trkpt>
      <trkpt lat="44.71842" lon="6.90593">
        <ele>1947.4</ele>
        <time>2022-07-18T07:08:25Z</time>
      </trkpt>
      <trkpt lat="44.71841" lon="6.90597">
        <ele>1947.4</ele>
        <time>2022-07-18T07:08:26Z</time>
      </trkpt>
      <trkpt lat="44.71839" lon="6.90601">
        <ele>1947.6</ele>
        <time>2022-07-18T07:08:27Z</time>
      </trkpt>
      <trkpt lat="44.71838" lon="6.90606">
        <ele>1947.6</ele>
        <time>2022-07-18T07:08:28Z</time>
      </trkpt>
      <trkpt lat="44.71836" lon="6.9061">
        <ele>1947.8</ele>
        <time>2022-07-18T07:08:29Z</time>
      </trkpt>
      <trkpt lat="44.71834" lon="6.90614">
        <ele>1947.8</ele>
        <time>2022-07-18T07:08:30Z</time>
      </trkpt>
      <trkpt lat="44.71833" lon="6.90618">
        <ele>1948.2</ele>
        <time>2022-07-18T07:08:31Z</time>
      </trkpt>
      <trkpt lat="44.71831" lon="6.90623">
        <ele>1948.2</ele>
        <time>2022-07-18T07:08:32Z</time>
      </trkpt>
      <trkpt lat="44.71829" lon="6.90627">
        <ele>1948.6</ele>
        <time>2022-07-18T07:08:33Z</time>
      </trkpt>
      <trkpt lat="44.71828" lon="6.90631">
        <ele>1948.6</ele>
        <time>2022-07-18T07:08:34Z</time>
      </trkpt>
      <trkpt lat="44.71826" lon="6.90635">
        <ele>1948.8</ele>
        <time>2022-07-18T07:08:35Z</time>
      </trkpt>
      <trkpt lat="44.71824" lon="6.9064">
        <ele>1948.8</ele>
        <time>2022-07-18T07:08:36Z</time>
      </trkpt>
      <trkpt lat="44.71823" lon="6.90644">
        <ele>1949.2</ele>
        <time>2022-07-18T07:08:37Z</time>
      </trkpt>
      <trkpt lat="44.71822" lon="6.90648">
        <ele>1949.2</ele>
        <time>2022-07-18T07:08:38Z</time>
      </trkpt>
      <trkpt lat="44.7182" lon="6.90653">
        <ele>1949.4</ele>
        <time>2022-07-18T07:08:39Z</time>
      </trkpt>
      <trkpt lat="44.71819" lon="6.90657">
        <ele>1949.4</ele>
        <time>2022-07-18T07:08:40Z</time>
      </trkpt>
      <trkpt lat="44.71818" lon="6.90662">
        <ele>1949.8</ele>
        <time>2022-07-18T07:08:41Z</time>
      </trkpt>
      <trkpt lat="44.71817" lon="6.90666">
        <ele>1949.8</ele>
        <time>2022-07-18T07:08:42Z</time>
      </trkpt>
      <trkpt lat="44.71816" lon="6.90671">
        <ele>1950</ele>
        <time>2022-07-18T07:08:43Z</time>
      </trkpt>
      <trkpt lat="44.71815" lon="6.90675">
        <ele>1950</ele>
        <time>2022-07-18T07:08:44Z</time>
      </trkpt>
      <trkpt lat="44.71814" lon="6.90679">
        <ele>1950.4</ele>
        <time>2022-07-18T07:08:45Z</time>
      </trkpt>
      <trkpt lat="44.71814" lon="6.90684">
        <ele>1950.4</ele>
        <time>2022-07-18T07:08:46Z</time>
      </trkpt>
      <trkpt lat="44.71813" lon="6.90688">
        <ele>1950.6</ele>
        <time>2022-07-18T07:08:47Z</time>
      </trkpt>
      <trkpt lat="44.71812" lon="6.90693">
        <ele>1950.6</ele>
        <time>2022-07-18T07:08:48Z</time>
      </trkpt>
      <trkpt lat="44.71811" lon="6.90697">
        <ele>1951</ele>
        <time>2022-07-18T07:08:49Z</time>
      </trkpt>
      <trkpt lat="44.71811" lon="6.90701">
        <ele>1951</ele>
        <time>2022-07-18T07:08:50Z</time>
      </trkpt>
      <trkpt lat="44.7181" lon="6.90706">
        <ele>1951.2</ele>
        <time>2022-07-18T07:08:51Z</time>
      </trkpt>
      <trkpt lat="44.71809" lon="6.9071">
        <ele>1951.2</ele>
        <time>2022-07-18T07:08:52Z</time>
      </trkpt>
      <trkpt lat="44.71809" lon="6.90715">
        <ele>1951.6</ele>
        <time>2022-07-18T07:08:53Z</time>
      </trkpt>
      <trkpt lat="44.71808" lon="6.90719">
        <ele>1951.6</ele>
        <time>2022-07-18T07:08:54Z</time>
      </trkpt>
      <trkpt lat="44.71808" lon="6.90724">
        <ele>1952</ele>
        <time>2022-07-18T07:08:55Z</time>
      </trkpt>
      <trkpt lat="44.71807" lon="6.90728">
        <ele>1952.2</ele>
        <time>2022-07-18T07:08:56Z</time>
      </trkpt>
      <trkpt lat="44.71807" lon="6.90732">
        <ele>1952.4</ele>
        <time>2022-07-18T07:08:57Z</time>
      </trkpt>
      <trkpt lat="44.71806" lon="6.90737">
        <ele>1952.6</ele>
        <time>2022-07-18T07:08:58Z</time>
      </trkpt>
      <trkpt lat="44.71805" lon="6.90741">
        <ele>1952.6</ele>
        <time>2022-07-18T07:08:59Z</time>
      </trkpt>
      <trkpt lat="44.71805" lon="6.90745">
        <ele>1953</ele>
        <time>2022-07-18T07:09:00Z</time>
      </trkpt>
      <trkpt lat="44.71804" lon="6.90749">
        <ele>1953.2</ele>
        <time>2022-07-18T07:09:01Z</time>
      </trkpt>
      <trkpt lat="44.71804" lon="6.90754">
        <ele>1953.2</ele>
        <time>2022-07-18T07:09:02Z</time>
      </trkpt>
      <trkpt lat="44.71804" lon="6.90758">
        <ele>1953.6</ele>
        <time>2022-07-18T07:09:03Z</time>
      </trkpt>
      <trkpt lat="44.71803" lon="6.90762">
        <ele>1953.6</ele>
        <time>2022-07-18T07:09:04Z</time>
      </trkpt>
      <trkpt lat="44.71803" lon="6.90767">
        <ele>1953.8</ele>
        <time>2022-07-18T07:09:05Z</time>
      </trkpt>
      <trkpt lat="44.71802" lon="6.90771">
        <ele>1953.8</ele>
        <time>2022-07-18T07:09:06Z</time>
      </trkpt>
      <trkpt lat="44.71802" lon="6.90775">
        <ele>1954.2</ele>
        <time>2022-07-18T07:09:07Z</time>
      </trkpt>
      <trkpt lat="44.71802" lon="6.90779">
        <ele>1954.2</ele>
        <time>2022-07-18T07:09:08Z</time>
      </trkpt>
      <trkpt lat="44.71801" lon="6.90784">
        <ele>1954.6</ele>
        <time>2022-07-18T07:09:09Z</time>
      </trkpt>
      <trkpt lat="44.71801" lon="6.90788">
        <ele>1954.6</ele>
        <time>2022-07-18T07:09:10Z</time>
      </trkpt>
      <trkpt lat="44.71801" lon="6.90792">
        <ele>1955</ele>
        <time>2022-07-18T07:09:11Z</time>
      </trkpt>
      <trkpt lat="44.718" lon="6.90796">
        <ele>1955</ele>
        <time>2022-07-18T07:09:12Z</time>
      </trkpt>
      <trkpt lat="44.718" lon="6.908">
        <ele>1955.4</ele>
        <time>2022-07-18T07:09:13Z</time>
      </trkpt>
      <trkpt lat="44.71799" lon="6.90804">
        <ele>1955.6</ele>
        <time>2022-07-18T07:09:14Z</time>
      </trkpt>
      <trkpt lat="44.71799" lon="6.90808">
        <ele>1955.6</ele>
        <time>2022-07-18T07:09:15Z</time>
      </trkpt>
      <trkpt lat="44.71798" lon="6.90812">
        <ele>1956</ele>
        <time>2022-07-18T07:09:16Z</time>
      </trkpt>
      <trkpt lat="44.71798" lon="6.90816">
        <ele>1956</ele>
        <time>2022-07-18T07:09:17Z</time>
      </trkpt>
      <trkpt lat="44.71797" lon="6.9082">
        <ele>1956.4</ele>
        <time>2022-07-18T07:09:18Z</time>
      </trkpt>
      <trkpt lat="44.71797" lon="6.90824">
        <ele>1956.4</ele>
        <time>2022-07-18T07:09:19Z</time>
      </trkpt>
      <trkpt lat="44.71796" lon="6.90828">
        <ele>1956.6</ele>
        <time>2022-07-18T07:09:20Z</time>
      </trkpt>
      <trkpt lat="44.71796" lon="6.90832">
        <ele>1956.6</ele>
        <time>2022-07-18T07:09:21Z</time>
      </trkpt>
      <trkpt lat="44.71795" lon="6.90836">
        <ele>1956.8</ele>
        <time>2022-07-18T07:09:22Z</time>
      </trkpt>
      <trkpt lat="44.71795" lon="6.9084">
        <ele>1956.8</ele>
        <time>2022-07-18T07:09:23Z</time>
      </trkpt>
      <trkpt lat="44.71794" lon="6.90844">
        <ele>1957.2</ele>
        <time>2022-07-18T07:09:24Z</time>
      </trkpt>
      <trkpt lat="44.71793" lon="6.90849">
        <ele>1957.2</ele>
        <time>2022-07-18T07:09:25Z</time>
      </trkpt>
      <trkpt lat="44.71793" lon="6.90853">
        <ele>1957.6</ele>
        <time>2022-07-18T07:09:26Z</time>
      </trkpt>
      <trkpt lat="44.71792" lon="6.90857">
        <ele>1957.6</ele>
        <time>2022-07-18T07:09:27Z</time>
      </trkpt>
      <trkpt lat="44.71791" lon="6.90861">
        <ele>1958</ele>
        <time>2022-07-18T07:09:28Z</time>
      </trkpt>
      <trkpt lat="44.7179" lon="6.90865">
        <ele>1958</ele>
        <time>2022-07-18T07:09:29Z</time>
      </trkpt>
      <trkpt lat="44.71789" lon="6.9087">
        <ele>1958.2</ele>
        <time>2022-07-18T07:09:30Z</time>
      </trkpt>
      <trkpt lat="44.71788" lon="6.90874">
        <ele>1958.2</ele>
        <time>2022-07-18T07:09:31Z</time>
      </trkpt>
      <trkpt lat="44.71787" lon="6.90879">
        <ele>1958.6</ele>
        <time>2022-07-18T07:09:32Z</time>
      </trkpt>
      <trkpt lat="44.71786" lon="6.90883">
        <ele>1958.8</ele>
        <time>2022-07-18T07:09:33Z</time>
      </trkpt>
      <trkpt lat="44.71785" lon="6.90887">
        <ele>1958.8</ele>
        <time>2022-07-18T07:09:34Z</time>
      </trkpt>
      <trkpt lat="44.71784" lon="6.90891">
        <ele>1958.8</ele>
        <time>2022-07-18T07:09:35Z</time>
      </trkpt>
      <trkpt lat="44.71783" lon="6.90895">
        <ele>1959</ele>
        <time>2022-07-18T07:09:36Z</time>
      </trkpt>
      <trkpt lat="44.71782" lon="6.90899">
        <ele>1959</ele>
        <time>2022-07-18T07:09:37Z</time>
      </trkpt>
      <trkpt lat="44.71781" lon="6.90904">
        <ele>1959.4</ele>
        <time>2022-07-18T07:09:38Z</time>
      </trkpt>
      <trkpt lat="44.7178" lon="6.90908">
        <ele>1959.4</ele>
        <time>2022-07-18T07:09:39Z</time>
      </trkpt>
      <trkpt lat="44.71779" lon="6.90912">
        <ele>1959.6</ele>
        <time>2022-07-18T07:09:40Z</time>
      </trkpt>
      <trkpt lat="44.71778" lon="6.90916">
        <ele>1959.6</ele>
        <time>2022-07-18T07:09:41Z</time>
      </trkpt>
      <trkpt lat="44.71777" lon="6.9092">
        <ele>1959.6</ele>
        <time>2022-07-18T07:09:42Z</time>
      </trkpt>
      <trkpt lat="44.71776" lon="6.90924">
        <ele>1960</ele>
        <time>2022-07-18T07:09:43Z</time>
      </trkpt>
      <trkpt lat="44.71774" lon="6.90929">
        <ele>1960</ele>
        <time>2022-07-18T07:09:44Z</time>
      </trkpt>
      <trkpt lat="44.71773" lon="6.90933">
        <ele>1960.2</ele>
        <time>2022-07-18T07:09:45Z</time>
      </trkpt>
      <trkpt lat="44.71772" lon="6.90937">
        <ele>1960.2</ele>
        <time>2022-07-18T07:09:46Z</time>
      </trkpt>
      <trkpt lat="44.71771" lon="6.90941">
        <ele>1960.4</ele>
        <time>2022-07-18T07:09:47Z</time>
      </trkpt>
      <trkpt lat="44.71769" lon="6.90944">
        <ele>1960.4</ele>
        <time>2022-07-18T07:09:48Z</time>
      </trkpt>
      <trkpt lat="44.71768" lon="6.90948">
        <ele>1960.6</ele>
        <time>2022-07-18T07:09:49Z</time>
      </trkpt>
      <trkpt lat="44.71767" lon="6.90952">
        <ele>1960.6</ele>
        <time>2022-07-18T07:09:50Z</time>
      </trkpt>
      <trkpt lat="44.71766" lon="6.90956">
        <ele>1961</ele>
        <time>2022-07-18T07:09:51Z</time>
      </trkpt>
      <trkpt lat="44.71765" lon="6.90961">
        <ele>1961</ele>
        <time>2022-07-18T07:09:52Z</time>
      </trkpt>
      <trkpt lat="44.71765" lon="6.90965">
        <ele>1961.2</ele>
        <time>2022-07-18T07:09:53Z</time>
      </trkpt>
      <trkpt lat="44.71764" lon="6.9097">
        <ele>1961.2</ele>
        <time>2022-07-18T07:09:54Z</time>
      </trkpt>
      <trkpt lat="44.71764" lon="6.90974">
        <ele>1961.4</ele>
        <time>2022-07-18T07:09:55Z</time>
      </trkpt>
      <trkpt lat="44.71763" lon="6.90979">
        <ele>1961.4</ele>
        <time>2022-07-18T07:09:56Z</time>
      </trkpt>
      <trkpt lat="44.71762" lon="6.90983">
        <ele>1961.4</ele>
        <time>2022-07-18T07:09:57Z</time>
      </trkpt>
      <trkpt lat="44.71762" lon="6.90988">
        <ele>1961.8</ele>
        <time>2022-07-18T07:09:58Z</time>
      </trkpt>
      <trkpt lat="44.71761" lon="6.90992">
        <ele>1961.8</ele>
        <time>2022-07-18T07:09:59Z</time>
      </trkpt>
      <trkpt lat="44.71761" lon="6.90997">
        <ele>1962</ele>
        <time>2022-07-18T07:10:00Z</time>
      </trkpt>
      <trkpt lat="44.71761" lon="6.91001">
        <ele>1962</ele>
        <time>2022-07-18T07:10:01Z</time>
      </trkpt>
      <trkpt lat="44.7176" lon="6.91006">
        <ele>1962.4</ele>
        <time>2022-07-18T07:10:02Z</time>
      </trkpt>
      <trkpt lat="44.7176" lon="6.9101">
        <ele>1962.4</ele>
        <time>2022-07-18T07:10:03Z</time>
      </trkpt>
      <trkpt lat="44.71759" lon="6.91015">
        <ele>1962.8</ele>
        <time>2022-07-18T07:10:04Z</time>
      </trkpt>
      <trkpt lat="44.71758" lon="6.91019">
        <ele>1962.8</ele>
        <time>2022-07-18T07:10:05Z</time>
      </trkpt>
      <trkpt lat="44.71757" lon="6.91023">
        <ele>1963</ele>
        <time>2022-07-18T07:10:06Z</time>
      </trkpt>
      <trkpt lat="44.71756" lon="6.91027">
        <ele>1963</ele>
        <time>2022-07-18T07:10:07Z</time>
      </trkpt>
      <trkpt lat="44.71754" lon="6.91031">
        <ele>1963.4</ele>
        <time>2022-07-18T07:10:08Z</time>
      </trkpt>
      <trkpt lat="44.71753" lon="6.91035">
        <ele>1963.4</ele>
        <time>2022-07-18T07:10:09Z</time>
      </trkpt>
      <trkpt lat="44.71751" lon="6.91039">
        <ele>1963.6</ele>
        <time>2022-07-18T07:10:10Z</time>
      </trkpt>
      <trkpt lat="44.71749" lon="6.91042">
        <ele>1963.6</ele>
        <time>2022-07-18T07:10:11Z</time>
      </trkpt>
      <trkpt lat="44.71747" lon="6.91046">
        <ele>1964</ele>
        <time>2022-07-18T07:10:12Z</time>
      </trkpt>
      <trkpt lat="44.71745" lon="6.91049">
        <ele>1964</ele>
        <time>2022-07-18T07:10:13Z</time>
      </trkpt>
      <trkpt lat="44.71743" lon="6.91052">
        <ele>1964.2</ele>
        <time>2022-07-18T07:10:14Z</time>
      </trkpt>
      <trkpt lat="44.71741" lon="6.91055">
        <ele>1964.2</ele>
        <time>2022-07-18T07:10:15Z</time>
      </trkpt>
      <trkpt lat="44.71739" lon="6.91058">
        <ele>1964.6</ele>
        <time>2022-07-18T07:10:16Z</time>
      </trkpt>
      <trkpt lat="44.71737" lon="6.91062">
        <ele>1964.6</ele>
        <time>2022-07-18T07:10:17Z</time>
      </trkpt>
      <trkpt lat="44.71735" lon="6.91065">
        <ele>1964.8</ele>
        <time>2022-07-18T07:10:18Z</time>
      </trkpt>
      <trkpt lat="44.71733" lon="6.91068">
        <ele>1964.8</ele>
        <time>2022-07-18T07:10:19Z</time>
      </trkpt>
      <trkpt lat="44.7173" lon="6.91071">
        <ele>1965.2</ele>
        <time>2022-07-18T07:10:20Z</time>
      </trkpt>
      <trkpt lat="44.71728" lon="6.91074">
        <ele>1965.6</ele>
        <time>2022-07-18T07:10:21Z</time>
      </trkpt>
      <trkpt lat="44.71726" lon="6.91077">
        <ele>1965.8</ele>
        <time>2022-07-18T07:10:22Z</time>
      </trkpt>
      <trkpt lat="44.71724" lon="6.9108">
        <ele>1965.8</ele>
        <time>2022-07-18T07:10:23Z</time>
      </trkpt>
      <trkpt lat="44.71722" lon="6.91084">
        <ele>1966.2</ele>
        <time>2022-07-18T07:10:24Z</time>
      </trkpt>
      <trkpt lat="44.7172" lon="6.91087">
        <ele>1966.2</ele>
        <time>2022-07-18T07:10:25Z</time>
      </trkpt>
      <trkpt lat="44.71718" lon="6.9109">
        <ele>1966.4</ele>
        <time>2022-07-18T07:10:26Z</time>
      </trkpt>
      <trkpt lat="44.71716" lon="6.91094">
        <ele>1966.4</ele>
        <time>2022-07-18T07:10:27Z</time>
      </trkpt>
      <trkpt lat="44.71714" lon="6.91097">
        <ele>1966.8</ele>
        <time>2022-07-18T07:10:28Z</time>
      </trkpt>
      <trkpt lat="44.71712" lon="6.911">
        <ele>1966.8</ele>
        <time>2022-07-18T07:10:29Z</time>
      </trkpt>
      <trkpt lat="44.7171" lon="6.91104">
        <ele>1967</ele>
        <time>2022-07-18T07:10:30Z</time>
      </trkpt>
      <trkpt lat="44.71708" lon="6.91107">
        <ele>1967</ele>
        <time>2022-07-18T07:10:31Z</time>
      </trkpt>
      <trkpt lat="44.71706" lon="6.91111">
        <ele>1967.4</ele>
        <time>2022-07-18T07:10:32Z</time>
      </trkpt>
      <trkpt lat="44.71704" lon="6.91114">
        <ele>1967.4</ele>
        <time>2022-07-18T07:10:33Z</time>
      </trkpt>
      <trkpt lat="44.71702" lon="6.91116">
        <ele>1967.6</ele>
        <time>2022-07-18T07:10:34Z</time>
      </trkpt>
      <trkpt lat="44.717" lon="6.9112">
        <ele>1967.6</ele>
        <time>2022-07-18T07:10:35Z</time>
      </trkpt>
      <trkpt lat="44.71698" lon="6.91123">
        <ele>1968</ele>
        <time>2022-07-18T07:10:36Z</time>
      </trkpt>
      <trkpt lat="44.71696" lon="6.91126">
        <ele>1968</ele>
        <time>2022-07-18T07:10:37Z</time>
      </trkpt>
      <trkpt lat="44.71694" lon="6.9113">
        <ele>1968.2</ele>
        <time>2022-07-18T07:10:38Z</time>
      </trkpt>
      <trkpt lat="44.71692" lon="6.91133">
        <ele>1968.2</ele>
        <time>2022-07-18T07:10:39Z</time>
      </trkpt>
      <trkpt lat="44.7169" lon="6.91137">
        <ele>1968.6</ele>
        <time>2022-07-18T07:10:40Z</time>
      </trkpt>
      <trkpt lat="44.71688" lon="6.91141">
        <ele>1968.6</ele>
        <time>2022-07-18T07:10:41Z</time>
      </trkpt>
      <trkpt lat="44.71686" lon="6.91144">
        <ele>1968.8</ele>
        <time>2022-07-18T07:10:42Z</time>
      </trkpt>
      <trkpt lat="44.71684" lon="6.91148">
        <ele>1968.8</ele>
        <time>2022-07-18T07:10:43Z</time>
      </trkpt>
      <trkpt lat="44.71682" lon="6.91152">
        <ele>1969.2</ele>
        <time>2022-07-18T07:10:44Z</time>
      </trkpt>
      <trkpt lat="44.7168" lon="6.91155">
        <ele>1969.2</ele>
        <time>2022-07-18T07:10:45Z</time>
      </trkpt>
      <trkpt lat="44.71678" lon="6.91159">
        <ele>1969.4</ele>
        <time>2022-07-18T07:10:46Z</time>
      </trkpt>
      <trkpt lat="44.71677" lon="6.91164">
        <ele>1969.4</ele>
        <time>2022-07-18T07:10:47Z</time>
      </trkpt>
      <trkpt lat="44.71676" lon="6.91168">
        <ele>1969.8</ele>
        <time>2022-07-18T07:10:48Z</time>
      </trkpt>
      <trkpt lat="44.71674" lon="6.91173">
        <ele>1969.8</ele>
        <time>2022-07-18T07:10:49Z</time>
      </trkpt>
      <trkpt lat="44.71673" lon="6.91176">
        <ele>1970</ele>
        <time>2022-07-18T07:10:51Z</time>
      </trkpt>
      <trkpt lat="44.71671" lon="6.9118">
        <ele>1970.4</ele>
        <time>2022-07-18T07:10:52Z</time>
      </trkpt>
      <trkpt lat="44.71669" lon="6.91183">
        <ele>1970.4</ele>
        <time>2022-07-18T07:10:53Z</time>
      </trkpt>
      <trkpt lat="44.71668" lon="6.91187">
        <ele>1970.6</ele>
        <time>2022-07-18T07:10:54Z</time>
      </trkpt>
      <trkpt lat="44.71667" lon="6.91191">
        <ele>1970.6</ele>
        <time>2022-07-18T07:10:55Z</time>
      </trkpt>
      <trkpt lat="44.71666" lon="6.91195">
        <ele>1970.8</ele>
        <time>2022-07-18T07:10:56Z</time>
      </trkpt>
      <trkpt lat="44.71664" lon="6.91199">
        <ele>1970.8</ele>
        <time>2022-07-18T07:10:57Z</time>
      </trkpt>
      <trkpt lat="44.71663" lon="6.91203">
        <ele>1970.8</ele>
        <time>2022-07-18T07:10:58Z</time>
      </trkpt>
      <trkpt lat="44.71662" lon="6.91207">
        <ele>1971.2</ele>
        <time>2022-07-18T07:10:59Z</time>
      </trkpt>
      <trkpt lat="44.71661" lon="6.9121">
        <ele>1971.2</ele>
        <time>2022-07-18T07:11:00Z</time>
      </trkpt>
      <trkpt lat="44.7166" lon="6.91214">
        <ele>1971.4</ele>
        <time>2022-07-18T07:11:01Z</time>
      </trkpt>
      <trkpt lat="44.71659" lon="6.91218">
        <ele>1971.4</ele>
        <time>2022-07-18T07:11:02Z</time>
      </trkpt>
      <trkpt lat="44.71658" lon="6.91222">
        <ele>1971.8</ele>
        <time>2022-07-18T07:11:03Z</time>
      </trkpt>
      <trkpt lat="44.71656" lon="6.9123">
        <ele>1972</ele>
        <time>2022-07-18T07:11:04Z</time>
      </trkpt>
      <trkpt lat="44.71655" lon="6.91234">
        <ele>1972.2</ele>
        <time>2022-07-18T07:11:05Z</time>
      </trkpt>
      <trkpt lat="44.71654" lon="6.91238">
        <ele>1972.4</ele>
        <time>2022-07-18T07:11:06Z</time>
      </trkpt>
      <trkpt lat="44.71653" lon="6.91243">
        <ele>1972.4</ele>
        <time>2022-07-18T07:11:07Z</time>
      </trkpt>
      <trkpt lat="44.71653" lon="6.91247">
        <ele>1972.8</ele>
        <time>2022-07-18T07:11:08Z</time>
      </trkpt>
      <trkpt lat="44.71651" lon="6.91251">
        <ele>1972.8</ele>
        <time>2022-07-18T07:11:09Z</time>
      </trkpt>
      <trkpt lat="44.7165" lon="6.91255">
        <ele>1973</ele>
        <time>2022-07-18T07:11:10Z</time>
      </trkpt>
      <trkpt lat="44.71649" lon="6.91259">
        <ele>1973</ele>
        <time>2022-07-18T07:11:11Z</time>
      </trkpt>
      <trkpt lat="44.71648" lon="6.91263">
        <ele>1973.2</ele>
        <time>2022-07-18T07:11:12Z</time>
      </trkpt>
      <trkpt lat="44.71647" lon="6.91268">
        <ele>1973.2</ele>
        <time>2022-07-18T07:11:13Z</time>
      </trkpt>
      <trkpt lat="44.71647" lon="6.91272">
        <ele>1973.4</ele>
        <time>2022-07-18T07:11:14Z</time>
      </trkpt>
      <trkpt lat="44.71646" lon="6.91276">
        <ele>1973.4</ele>
        <time>2022-07-18T07:11:15Z</time>
      </trkpt>
      <trkpt lat="44.71644" lon="6.91281">
        <ele>1973.8</ele>
        <time>2022-07-18T07:11:16Z</time>
      </trkpt>
      <trkpt lat="44.71643" lon="6.91285">
        <ele>1973.8</ele>
        <time>2022-07-18T07:11:17Z</time>
      </trkpt>
      <trkpt lat="44.71642" lon="6.91288">
        <ele>1974.2</ele>
        <time>2022-07-18T07:11:18Z</time>
      </trkpt>
      <trkpt lat="44.7164" lon="6.91292">
        <ele>1974.2</ele>
        <time>2022-07-18T07:11:19Z</time>
      </trkpt>
      <trkpt lat="44.71639" lon="6.91296">
        <ele>1974.4</ele>
        <time>2022-07-18T07:11:20Z</time>
      </trkpt>
      <trkpt lat="44.71637" lon="6.913">
        <ele>1974.4</ele>
        <time>2022-07-18T07:11:21Z</time>
      </trkpt>
      <trkpt lat="44.71636" lon="6.91304">
        <ele>1974.8</ele>
        <time>2022-07-18T07:11:22Z</time>
      </trkpt>
      <trkpt lat="44.71634" lon="6.91308">
        <ele>1974.8</ele>
        <time>2022-07-18T07:11:23Z</time>
      </trkpt>
      <trkpt lat="44.71633" lon="6.91312">
        <ele>1975</ele>
        <time>2022-07-18T07:11:24Z</time>
      </trkpt>
      <trkpt lat="44.71632" lon="6.91316">
        <ele>1975</ele>
        <time>2022-07-18T07:11:25Z</time>
      </trkpt>
      <trkpt lat="44.71631" lon="6.9132">
        <ele>1975.2</ele>
        <time>2022-07-18T07:11:26Z</time>
      </trkpt>
      <trkpt lat="44.71629" lon="6.91323">
        <ele>1975.2</ele>
        <time>2022-07-18T07:11:27Z</time>
      </trkpt>
      <trkpt lat="44.71628" lon="6.91327">
        <ele>1975.6</ele>
        <time>2022-07-18T07:11:28Z</time>
      </trkpt>
      <trkpt lat="44.71627" lon="6.9133">
        <ele>1975.6</ele>
        <time>2022-07-18T07:11:29Z</time>
      </trkpt>
      <trkpt lat="44.71625" lon="6.91333">
        <ele>1976</ele>
        <time>2022-07-18T07:11:30Z</time>
      </trkpt>
      <trkpt lat="44.71624" lon="6.91336">
        <ele>1976</ele>
        <time>2022-07-18T07:11:31Z</time>
      </trkpt>
      <trkpt lat="44.71623" lon="6.9134">
        <ele>1976.2</ele>
        <time>2022-07-18T07:11:32Z</time>
      </trkpt>
      <trkpt lat="44.71622" lon="6.91343">
        <ele>1976.2</ele>
        <time>2022-07-18T07:11:33Z</time>
      </trkpt>
      <trkpt lat="44.71621" lon="6.91346">
        <ele>1976.4</ele>
        <time>2022-07-18T07:11:34Z</time>
      </trkpt>
      <trkpt lat="44.71619" lon="6.9135">
        <ele>1976.6</ele>
        <time>2022-07-18T07:11:35Z</time>
      </trkpt>
      <trkpt lat="44.71618" lon="6.91353">
        <ele>1976.6</ele>
        <time>2022-07-18T07:11:36Z</time>
      </trkpt>
      <trkpt lat="44.71617" lon="6.91356">
        <ele>1977</ele>
        <time>2022-07-18T07:11:37Z</time>
      </trkpt>
      <trkpt lat="44.71617" lon="6.91359">
        <ele>1977.2</ele>
        <time>2022-07-18T07:11:38Z</time>
      </trkpt>
      <trkpt lat="44.71616" lon="6.91363">
        <ele>1977.4</ele>
        <time>2022-07-18T07:11:39Z</time>
      </trkpt>
      <trkpt lat="44.71615" lon="6.91366">
        <ele>1977.4</ele>
        <time>2022-07-18T07:11:40Z</time>
      </trkpt>
      <trkpt lat="44.71614" lon="6.91369">
        <ele>1977.8</ele>
        <time>2022-07-18T07:11:41Z</time>
      </trkpt>
      <trkpt lat="44.71613" lon="6.91372">
        <ele>1978</ele>
        <time>2022-07-18T07:11:42Z</time>
      </trkpt>
      <trkpt lat="44.71611" lon="6.91375">
        <ele>1978</ele>
        <time>2022-07-18T07:11:43Z</time>
      </trkpt>
      <trkpt lat="44.7161" lon="6.91378">
        <ele>1978.4</ele>
        <time>2022-07-18T07:11:44Z</time>
      </trkpt>
      <trkpt lat="44.71608" lon="6.91381">
        <ele>1978.4</ele>
        <time>2022-07-18T07:11:45Z</time>
      </trkpt>
      <trkpt lat="44.71607" lon="6.91383">
        <ele>1978.6</ele>
        <time>2022-07-18T07:11:46Z</time>
      </trkpt>
      <trkpt lat="44.71605" lon="6.91386">
        <ele>1978.6</ele>
        <time>2022-07-18T07:11:47Z</time>
      </trkpt>
      <trkpt lat="44.71604" lon="6.91389">
        <ele>1979</ele>
        <time>2022-07-18T07:11:48Z</time>
      </trkpt>
      <trkpt lat="44.71602" lon="6.91391">
        <ele>1979</ele>
        <time>2022-07-18T07:11:49Z</time>
      </trkpt>
      <trkpt lat="44.716" lon="6.91393">
        <ele>1979.2</ele>
        <time>2022-07-18T07:11:50Z</time>
      </trkpt>
      <trkpt lat="44.71598" lon="6.91395">
        <ele>1979.2</ele>
        <time>2022-07-18T07:11:51Z</time>
      </trkpt>
      <trkpt lat="44.71597" lon="6.91397">
        <ele>1979.6</ele>
        <time>2022-07-18T07:11:52Z</time>
      </trkpt>
      <trkpt lat="44.71595" lon="6.91399">
        <ele>1979.8</ele>
        <time>2022-07-18T07:11:53Z</time>
      </trkpt>
      <trkpt lat="44.71594" lon="6.91402">
        <ele>1980</ele>
        <time>2022-07-18T07:11:54Z</time>
      </trkpt>
      <trkpt lat="44.71592" lon="6.91404">
        <ele>1980.4</ele>
        <time>2022-07-18T07:11:55Z</time>
      </trkpt>
      <trkpt lat="44.71591" lon="6.91406">
        <ele>1980.4</ele>
        <time>2022-07-18T07:11:56Z</time>
      </trkpt>
      <trkpt lat="44.71589" lon="6.91407">
        <ele>1980.6</ele>
        <time>2022-07-18T07:11:57Z</time>
      </trkpt>
      <trkpt lat="44.71587" lon="6.91409">
        <ele>1981</ele>
        <time>2022-07-18T07:11:58Z</time>
      </trkpt>
      <trkpt lat="44.71585" lon="6.9141">
        <ele>1981.2</ele>
        <time>2022-07-18T07:11:59Z</time>
      </trkpt>
      <trkpt lat="44.71583" lon="6.91412">
        <ele>1981.4</ele>
        <time>2022-07-18T07:12:00Z</time>
      </trkpt>
      <trkpt lat="44.71581" lon="6.91413">
        <ele>1981.4</ele>
        <time>2022-07-18T07:12:01Z</time>
      </trkpt>
      <trkpt lat="44.71579" lon="6.91414">
        <ele>1981.8</ele>
        <time>2022-07-18T07:12:02Z</time>
      </trkpt>
      <trkpt lat="44.71577" lon="6.91416">
        <ele>1982</ele>
        <time>2022-07-18T07:12:03Z</time>
      </trkpt>
      <trkpt lat="44.71576" lon="6.91417">
        <ele>1982.2</ele>
        <time>2022-07-18T07:12:04Z</time>
      </trkpt>
      <trkpt lat="44.71574" lon="6.91419">
        <ele>1982.2</ele>
        <time>2022-07-18T07:12:05Z</time>
      </trkpt>
      <trkpt lat="44.71572" lon="6.91421">
        <ele>1982.6</ele>
        <time>2022-07-18T07:12:06Z</time>
      </trkpt>
      <trkpt lat="44.71571" lon="6.91423">
        <ele>1982.8</ele>
        <time>2022-07-18T07:12:07Z</time>
      </trkpt>
      <trkpt lat="44.71569" lon="6.91424">
        <ele>1982.8</ele>
        <time>2022-07-18T07:12:08Z</time>
      </trkpt>
      <trkpt lat="44.71567" lon="6.91426">
        <ele>1983.2</ele>
        <time>2022-07-18T07:12:09Z</time>
      </trkpt>
      <trkpt lat="44.71565" lon="6.91428">
        <ele>1983.2</ele>
        <time>2022-07-18T07:12:10Z</time>
      </trkpt>
      <trkpt lat="44.71564" lon="6.9143">
        <ele>1983.6</ele>
        <time>2022-07-18T07:12:11Z</time>
      </trkpt>
      <trkpt lat="44.71562" lon="6.91432">
        <ele>1983.6</ele>
        <time>2022-07-18T07:12:12Z</time>
      </trkpt>
      <trkpt lat="44.71561" lon="6.91434">
        <ele>1984</ele>
        <time>2022-07-18T07:12:13Z</time>
      </trkpt>
      <trkpt lat="44.71559" lon="6.91437">
        <ele>1984</ele>
        <time>2022-07-18T07:12:14Z</time>
      </trkpt>
      <trkpt lat="44.71557" lon="6.91439">
        <ele>1984.6</ele>
        <time>2022-07-18T07:12:15Z</time>
      </trkpt>
      <trkpt lat="44.71555" lon="6.91441">
        <ele>1984.8</ele>
        <time>2022-07-18T07:12:16Z</time>
      </trkpt>
      <trkpt lat="44.71553" lon="6.91443">
        <ele>1985</ele>
        <time>2022-07-18T07:12:17Z</time>
      </trkpt>
      <trkpt lat="44.71552" lon="6.91446">
        <ele>1985.4</ele>
        <time>2022-07-18T07:12:18Z</time>
      </trkpt>
      <trkpt lat="44.7155" lon="6.91449">
        <ele>1985.6</ele>
        <time>2022-07-18T07:12:19Z</time>
      </trkpt>
      <trkpt lat="44.71549" lon="6.91451">
        <ele>1985.8</ele>
        <time>2022-07-18T07:12:20Z</time>
      </trkpt>
      <trkpt lat="44.71548" lon="6.91454">
        <ele>1986</ele>
        <time>2022-07-18T07:12:21Z</time>
      </trkpt>
      <trkpt lat="44.71546" lon="6.91457">
        <ele>1986</ele>
        <time>2022-07-18T07:12:22Z</time>
      </trkpt>
      <trkpt lat="44.71545" lon="6.9146">
        <ele>1986.4</ele>
        <time>2022-07-18T07:12:23Z</time>
      </trkpt>
      <trkpt lat="44.71544" lon="6.91463">
        <ele>1986.8</ele>
        <time>2022-07-18T07:12:24Z</time>
      </trkpt>
      <trkpt lat="44.71542" lon="6.91465">
        <ele>1987</ele>
        <time>2022-07-18T07:12:25Z</time>
      </trkpt>
      <trkpt lat="44.71541" lon="6.91468">
        <ele>1987.2</ele>
        <time>2022-07-18T07:12:26Z</time>
      </trkpt>
      <trkpt lat="44.71539" lon="6.9147">
        <ele>1987.2</ele>
        <time>2022-07-18T07:12:27Z</time>
      </trkpt>
      <trkpt lat="44.71538" lon="6.91473">
        <ele>1987.6</ele>
        <time>2022-07-18T07:12:28Z</time>
      </trkpt>
      <trkpt lat="44.71537" lon="6.91475">
        <ele>1987.6</ele>
        <time>2022-07-18T07:12:29Z</time>
      </trkpt>
      <trkpt lat="44.71535" lon="6.91478">
        <ele>1987.8</ele>
        <time>2022-07-18T07:12:30Z</time>
      </trkpt>
      <trkpt lat="44.71534" lon="6.91481">
        <ele>1987.8</ele>
        <time>2022-07-18T07:12:31Z</time>
      </trkpt>
      <trkpt lat="44.71532" lon="6.91483">
        <ele>1988.2</ele>
        <time>2022-07-18T07:12:32Z</time>
      </trkpt>
      <trkpt lat="44.71531" lon="6.91486">
        <ele>1988.2</ele>
        <time>2022-07-18T07:12:33Z</time>
      </trkpt>
      <trkpt lat="44.7153" lon="6.91489">
        <ele>1988.6</ele>
        <time>2022-07-18T07:12:34Z</time>
      </trkpt>
      <trkpt lat="44.71528" lon="6.91491">
        <ele>1988.8</ele>
        <time>2022-07-18T07:12:35Z</time>
      </trkpt>
      <trkpt lat="44.71527" lon="6.91493">
        <ele>1988.8</ele>
        <time>2022-07-18T07:12:36Z</time>
      </trkpt>
      <trkpt lat="44.71526" lon="6.91496">
        <ele>1989.2</ele>
        <time>2022-07-18T07:12:37Z</time>
      </trkpt>
      <trkpt lat="44.71525" lon="6.91499">
        <ele>1989.2</ele>
        <time>2022-07-18T07:12:38Z</time>
      </trkpt>
      <trkpt lat="44.71523" lon="6.91502">
        <ele>1989.6</ele>
        <time>2022-07-18T07:12:39Z</time>
      </trkpt>
      <trkpt lat="44.71522" lon="6.91504">
        <ele>1989.6</ele>
        <time>2022-07-18T07:12:40Z</time>
      </trkpt>
      <trkpt lat="44.7152" lon="6.91507">
        <ele>1989.8</ele>
        <time>2022-07-18T07:12:41Z</time>
      </trkpt>
      <trkpt lat="44.71519" lon="6.9151">
        <ele>1989.8</ele>
        <time>2022-07-18T07:12:42Z</time>
      </trkpt>
      <trkpt lat="44.71518" lon="6.91513">
        <ele>1990</ele>
        <time>2022-07-18T07:12:43Z</time>
      </trkpt>
      <trkpt lat="44.71516" lon="6.91516">
        <ele>1990</ele>
        <time>2022-07-18T07:12:44Z</time>
      </trkpt>
      <trkpt lat="44.71515" lon="6.91519">
        <ele>1990.4</ele>
        <time>2022-07-18T07:12:45Z</time>
      </trkpt>
      <trkpt lat="44.71514" lon="6.91522">
        <ele>1990.4</ele>
        <time>2022-07-18T07:12:46Z</time>
      </trkpt>
      <trkpt lat="44.71512" lon="6.91525">
        <ele>1990.6</ele>
        <time>2022-07-18T07:12:47Z</time>
      </trkpt>
      <trkpt lat="44.71511" lon="6.91528">
        <ele>1990.6</ele>
        <time>2022-07-18T07:12:48Z</time>
      </trkpt>
      <trkpt lat="44.71509" lon="6.91531">
        <ele>1990.6</ele>
        <time>2022-07-18T07:12:49Z</time>
      </trkpt>
      <trkpt lat="44.71508" lon="6.91534">
        <ele>1990.8</ele>
        <time>2022-07-18T07:12:50Z</time>
      </trkpt>
      <trkpt lat="44.71507" lon="6.91537">
        <ele>1990.8</ele>
        <time>2022-07-18T07:12:51Z</time>
      </trkpt>
      <trkpt lat="44.71506" lon="6.91541">
        <ele>1991.2</ele>
        <time>2022-07-18T07:12:52Z</time>
      </trkpt>
      <trkpt lat="44.71505" lon="6.91544">
        <ele>1991.2</ele>
        <time>2022-07-18T07:12:53Z</time>
      </trkpt>
      <trkpt lat="44.71504" lon="6.91548">
        <ele>1991.4</ele>
        <time>2022-07-18T07:12:54Z</time>
      </trkpt>
      <trkpt lat="44.71504" lon="6.91552">
        <ele>1991.4</ele>
        <time>2022-07-18T07:12:55Z</time>
      </trkpt>
      <trkpt lat="44.71503" lon="6.91556">
        <ele>1991.4</ele>
        <time>2022-07-18T07:12:56Z</time>
      </trkpt>
      <trkpt lat="44.71503" lon="6.91561">
        <ele>1991.4</ele>
        <time>2022-07-18T07:12:57Z</time>
      </trkpt>
      <trkpt lat="44.71502" lon="6.91565">
        <ele>1991.6</ele>
        <time>2022-07-18T07:12:58Z</time>
      </trkpt>
      <trkpt lat="44.71502" lon="6.9157">
        <ele>1991.6</ele>
        <time>2022-07-18T07:12:59Z</time>
      </trkpt>
      <trkpt lat="44.71501" lon="6.91574">
        <ele>1991.6</ele>
        <time>2022-07-18T07:13:00Z</time>
      </trkpt>
      <trkpt lat="44.715" lon="6.91579">
        <ele>1992</ele>
        <time>2022-07-18T07:13:01Z</time>
      </trkpt>
      <trkpt lat="44.71499" lon="6.91584">
        <ele>1992</ele>
        <time>2022-07-18T07:13:02Z</time>
      </trkpt>
      <trkpt lat="44.71498" lon="6.91589">
        <ele>1992</ele>
        <time>2022-07-18T07:13:03Z</time>
      </trkpt>
      <trkpt lat="44.71497" lon="6.91595">
        <ele>1992</ele>
        <time>2022-07-18T07:13:04Z</time>
      </trkpt>
      <trkpt lat="44.71495" lon="6.916">
        <ele>1992</ele>
        <time>2022-07-18T07:13:05Z</time>
      </trkpt>
      <trkpt lat="44.71494" lon="6.91606">
        <ele>1992</ele>
        <time>2022-07-18T07:13:06Z</time>
      </trkpt>
      <trkpt lat="44.71492" lon="6.91612">
        <ele>1992</ele>
        <time>2022-07-18T07:13:07Z</time>
      </trkpt>
      <trkpt lat="44.7149" lon="6.91617">
        <ele>1992</ele>
        <time>2022-07-18T07:13:08Z</time>
      </trkpt>
      <trkpt lat="44.71488" lon="6.91623">
        <ele>1992</ele>
        <time>2022-07-18T07:13:09Z</time>
      </trkpt>
      <trkpt lat="44.71486" lon="6.91628">
        <ele>1992</ele>
        <time>2022-07-18T07:13:10Z</time>
      </trkpt>
      <trkpt lat="44.71484" lon="6.91633">
        <ele>1992</ele>
        <time>2022-07-18T07:13:11Z</time>
      </trkpt>
      <trkpt lat="44.71482" lon="6.91639">
        <ele>1992</ele>
        <time>2022-07-18T07:13:12Z</time>
      </trkpt>
      <trkpt lat="44.7148" lon="6.91644">
        <ele>1992</ele>
        <time>2022-07-18T07:13:13Z</time>
      </trkpt>
      <trkpt lat="44.71478" lon="6.91649">
        <ele>1992</ele>
        <time>2022-07-18T07:13:14Z</time>
      </trkpt>
      <trkpt lat="44.71475" lon="6.91654">
        <ele>1992</ele>
        <time>2022-07-18T07:13:15Z</time>
      </trkpt>
      <trkpt lat="44.71472" lon="6.91658">
        <ele>1992</ele>
        <time>2022-07-18T07:13:16Z</time>
      </trkpt>
      <trkpt lat="44.71468" lon="6.91663">
        <ele>1992</ele>
        <time>2022-07-18T07:13:17Z</time>
      </trkpt>
      <trkpt lat="44.71465" lon="6.91667">
        <ele>1992</ele>
        <time>2022-07-18T07:13:18Z</time>
      </trkpt>
      <trkpt lat="44.71461" lon="6.9167">
        <ele>1992</ele>
        <time>2022-07-18T07:13:19Z</time>
      </trkpt>
      <trkpt lat="44.71457" lon="6.91674">
        <ele>1992.2</ele>
        <time>2022-07-18T07:13:20Z</time>
      </trkpt>
      <trkpt lat="44.71454" lon="6.91678">
        <ele>1992.2</ele>
        <time>2022-07-18T07:13:21Z</time>
      </trkpt>
      <trkpt lat="44.7145" lon="6.91681">
        <ele>1992.2</ele>
        <time>2022-07-18T07:13:22Z</time>
      </trkpt>
      <trkpt lat="44.71447" lon="6.91684">
        <ele>1992.4</ele>
        <time>2022-07-18T07:13:23Z</time>
      </trkpt>
      <trkpt lat="44.71443" lon="6.91687">
        <ele>1992.4</ele>
        <time>2022-07-18T07:13:24Z</time>
      </trkpt>
      <trkpt lat="44.7144" lon="6.91691">
        <ele>1992.4</ele>
        <time>2022-07-18T07:13:25Z</time>
      </trkpt>
      <trkpt lat="44.71436" lon="6.91695">
        <ele>1992.4</ele>
        <time>2022-07-18T07:13:26Z</time>
      </trkpt>
      <trkpt lat="44.71433" lon="6.91699">
        <ele>1992.4</ele>
        <time>2022-07-18T07:13:27Z</time>
      </trkpt>
      <trkpt lat="44.71429" lon="6.91703">
        <ele>1992.4</ele>
        <time>2022-07-18T07:13:28Z</time>
      </trkpt>
      <trkpt lat="44.71426" lon="6.91707">
        <ele>1992.6</ele>
        <time>2022-07-18T07:13:29Z</time>
      </trkpt>
      <trkpt lat="44.71423" lon="6.9171">
        <ele>1992.6</ele>
        <time>2022-07-18T07:13:30Z</time>
      </trkpt>
      <trkpt lat="44.7142" lon="6.91714">
        <ele>1993</ele>
        <time>2022-07-18T07:13:31Z</time>
      </trkpt>
      <trkpt lat="44.71417" lon="6.91718">
        <ele>1993</ele>
        <time>2022-07-18T07:13:32Z</time>
      </trkpt>
      <trkpt lat="44.71414" lon="6.91722">
        <ele>1993.2</ele>
        <time>2022-07-18T07:13:33Z</time>
      </trkpt>
      <trkpt lat="44.71411" lon="6.91726">
        <ele>1993.2</ele>
        <time>2022-07-18T07:13:34Z</time>
      </trkpt>
      <trkpt lat="44.71408" lon="6.9173">
        <ele>1993.2</ele>
        <time>2022-07-18T07:13:35Z</time>
      </trkpt>
      <trkpt lat="44.71405" lon="6.91734">
        <ele>1993.2</ele>
        <time>2022-07-18T07:13:36Z</time>
      </trkpt>
      <trkpt lat="44.71402" lon="6.91737">
        <ele>1993.4</ele>
        <time>2022-07-18T07:13:37Z</time>
      </trkpt>
      <trkpt lat="44.71399" lon="6.91741">
        <ele>1993.4</ele>
        <time>2022-07-18T07:13:38Z</time>
      </trkpt>
      <trkpt lat="44.71397" lon="6.91745">
        <ele>1993.4</ele>
        <time>2022-07-18T07:13:39Z</time>
      </trkpt>
      <trkpt lat="44.71394" lon="6.91749">
        <ele>1993.8</ele>
        <time>2022-07-18T07:13:40Z</time>
      </trkpt>
      <trkpt lat="44.71391" lon="6.91752">
        <ele>1993.8</ele>
        <time>2022-07-18T07:13:41Z</time>
      </trkpt>
      <trkpt lat="44.71388" lon="6.91756">
        <ele>1994</ele>
        <time>2022-07-18T07:13:42Z</time>
      </trkpt>
      <trkpt lat="44.71385" lon="6.9176">
        <ele>1994</ele>
        <time>2022-07-18T07:13:43Z</time>
      </trkpt>
      <trkpt lat="44.71382" lon="6.91763">
        <ele>1994.2</ele>
        <time>2022-07-18T07:13:44Z</time>
      </trkpt>
      <trkpt lat="44.7138" lon="6.91767">
        <ele>1994.2</ele>
        <time>2022-07-18T07:13:45Z</time>
      </trkpt>
      <trkpt lat="44.71377" lon="6.91772">
        <ele>1994.2</ele>
        <time>2022-07-18T07:13:46Z</time>
      </trkpt>
      <trkpt lat="44.71374" lon="6.91776">
        <ele>1994.2</ele>
        <time>2022-07-18T07:13:47Z</time>
      </trkpt>
      <trkpt lat="44.71372" lon="6.9178">
        <ele>1994.4</ele>
        <time>2022-07-18T07:13:48Z</time>
      </trkpt>
      <trkpt lat="44.71369" lon="6.91783">
        <ele>1994.4</ele>
        <time>2022-07-18T07:13:49Z</time>
      </trkpt>
      <trkpt lat="44.71366" lon="6.91787">
        <ele>1994.4</ele>
        <time>2022-07-18T07:13:50Z</time>
      </trkpt>
      <trkpt lat="44.71364" lon="6.91791">
        <ele>1994.8</ele>
        <time>2022-07-18T07:13:51Z</time>
      </trkpt>
      <trkpt lat="44.71361" lon="6.91795">
        <ele>1994.8</ele>
        <time>2022-07-18T07:13:52Z</time>
      </trkpt>
      <trkpt lat="44.71358" lon="6.91799">
        <ele>1994.8</ele>
        <time>2022-07-18T07:13:53Z</time>
      </trkpt>
      <trkpt lat="44.71355" lon="6.91803">
        <ele>1994.8</ele>
        <time>2022-07-18T07:13:54Z</time>
      </trkpt>
      <trkpt lat="44.71352" lon="6.91807">
        <ele>1994.8</ele>
        <time>2022-07-18T07:13:55Z</time>
      </trkpt>
      <trkpt lat="44.71349" lon="6.9181">
        <ele>1995</ele>
        <time>2022-07-18T07:13:56Z</time>
      </trkpt>
      <trkpt lat="44.71346" lon="6.91814">
        <ele>1995</ele>
        <time>2022-07-18T07:13:57Z</time>
      </trkpt>
      <trkpt lat="44.71343" lon="6.91818">
        <ele>1995</ele>
        <time>2022-07-18T07:13:58Z</time>
      </trkpt>
      <trkpt lat="44.7134" lon="6.91821">
        <ele>1995.4</ele>
        <time>2022-07-18T07:13:59Z</time>
      </trkpt>
      <trkpt lat="44.71338" lon="6.91825">
        <ele>1995.4</ele>
        <time>2022-07-18T07:14:00Z</time>
      </trkpt>
      <trkpt lat="44.71335" lon="6.91828">
        <ele>1995.6</ele>
        <time>2022-07-18T07:14:01Z</time>
      </trkpt>
      <trkpt lat="44.71332" lon="6.91832">
        <ele>1995.6</ele>
        <time>2022-07-18T07:14:02Z</time>
      </trkpt>
      <trkpt lat="44.71329" lon="6.91835">
        <ele>1995.6</ele>
        <time>2022-07-18T07:14:03Z</time>
      </trkpt>
      <trkpt lat="44.71326" lon="6.91838">
        <ele>1996</ele>
        <time>2022-07-18T07:14:04Z</time>
      </trkpt>
      <trkpt lat="44.71322" lon="6.91842">
        <ele>1996</ele>
        <time>2022-07-18T07:14:05Z</time>
      </trkpt>
      <trkpt lat="44.71319" lon="6.91845">
        <ele>1996.2</ele>
        <time>2022-07-18T07:14:06Z</time>
      </trkpt>
      <trkpt lat="44.71316" lon="6.91848">
        <ele>1996.2</ele>
        <time>2022-07-18T07:14:07Z</time>
      </trkpt>
      <trkpt lat="44.71313" lon="6.91851">
        <ele>1996.4</ele>
        <time>2022-07-18T07:14:08Z</time>
      </trkpt>
      <trkpt lat="44.7131" lon="6.91854">
        <ele>1996.4</ele>
        <time>2022-07-18T07:14:09Z</time>
      </trkpt>
      <trkpt lat="44.71307" lon="6.91856">
        <ele>1996.4</ele>
        <time>2022-07-18T07:14:10Z</time>
      </trkpt>
      <trkpt lat="44.71304" lon="6.91859">
        <ele>1996.8</ele>
        <time>2022-07-18T07:14:11Z</time>
      </trkpt>
      <trkpt lat="44.71301" lon="6.91862">
        <ele>1996.8</ele>
        <time>2022-07-18T07:14:12Z</time>
      </trkpt>
      <trkpt lat="44.71298" lon="6.91864">
        <ele>1997</ele>
        <time>2022-07-18T07:14:13Z</time>
      </trkpt>
      <trkpt lat="44.71295" lon="6.91867">
        <ele>1997</ele>
        <time>2022-07-18T07:14:14Z</time>
      </trkpt>
      <trkpt lat="44.71293" lon="6.91869">
        <ele>1997.4</ele>
        <time>2022-07-18T07:14:15Z</time>
      </trkpt>
      <trkpt lat="44.7129" lon="6.91871">
        <ele>1997.4</ele>
        <time>2022-07-18T07:14:16Z</time>
      </trkpt>
      <trkpt lat="44.71288" lon="6.91874">
        <ele>1997.8</ele>
        <time>2022-07-18T07:14:17Z</time>
      </trkpt>
      <trkpt lat="44.71286" lon="6.91876">
        <ele>1997.8</ele>
        <time>2022-07-18T07:14:18Z</time>
      </trkpt>
      <trkpt lat="44.71283" lon="6.91878">
        <ele>1998.2</ele>
        <time>2022-07-18T07:14:19Z</time>
      </trkpt>
      <trkpt lat="44.71281" lon="6.9188">
        <ele>1998.2</ele>
        <time>2022-07-18T07:14:20Z</time>
      </trkpt>
      <trkpt lat="44.71279" lon="6.91882">
        <ele>1998.4</ele>
        <time>2022-07-18T07:14:21Z</time>
      </trkpt>
      <trkpt lat="44.71277" lon="6.91885">
        <ele>1998.4</ele>
        <time>2022-07-18T07:14:22Z</time>
      </trkpt>
      <trkpt lat="44.71275" lon="6.91887">
        <ele>1998.8</ele>
        <time>2022-07-18T07:14:23Z</time>
      </trkpt>
      <trkpt lat="44.71273" lon="6.91889">
        <ele>1999</ele>
        <time>2022-07-18T07:14:24Z</time>
      </trkpt>
      <trkpt lat="44.71271" lon="6.91892">
        <ele>1999.2</ele>
        <time>2022-07-18T07:14:25Z</time>
      </trkpt>
      <trkpt lat="44.7127" lon="6.91894">
        <ele>1999.6</ele>
        <time>2022-07-18T07:14:26Z</time>
      </trkpt>
      <trkpt lat="44.71268" lon="6.91896">
        <ele>1999.6</ele>
        <time>2022-07-18T07:14:27Z</time>
      </trkpt>
      <trkpt lat="44.71266" lon="6.91899">
        <ele>1999.8</ele>
        <time>2022-07-18T07:14:28Z</time>
      </trkpt>
      <trkpt lat="44.71264" lon="6.91901">
        <ele>1999.8</ele>
        <time>2022-07-18T07:14:29Z</time>
      </trkpt>
      <trkpt lat="44.71262" lon="6.91903">
        <ele>1999.8</ele>
        <time>2022-07-18T07:14:30Z</time>
      </trkpt>
      <trkpt lat="44.7126" lon="6.91906">
        <ele>2000.2</ele>
        <time>2022-07-18T07:14:31Z</time>
      </trkpt>
      <trkpt lat="44.71258" lon="6.91908">
        <ele>2000.2</ele>
        <time>2022-07-18T07:14:32Z</time>
      </trkpt>
      <trkpt lat="44.71256" lon="6.91911">
        <ele>2000.4</ele>
        <time>2022-07-18T07:14:33Z</time>
      </trkpt>
      <trkpt lat="44.71255" lon="6.91913">
        <ele>2000.4</ele>
        <time>2022-07-18T07:14:34Z</time>
      </trkpt>
      <trkpt lat="44.71253" lon="6.91916">
        <ele>2000.8</ele>
        <time>2022-07-18T07:14:35Z</time>
      </trkpt>
      <trkpt lat="44.71251" lon="6.91919">
        <ele>2000.8</ele>
        <time>2022-07-18T07:14:36Z</time>
      </trkpt>
      <trkpt lat="44.7125" lon="6.91922">
        <ele>2001</ele>
        <time>2022-07-18T07:14:37Z</time>
      </trkpt>
      <trkpt lat="44.71248" lon="6.91924">
        <ele>2001</ele>
        <time>2022-07-18T07:14:38Z</time>
      </trkpt>
      <trkpt lat="44.71247" lon="6.91927">
        <ele>2001.4</ele>
        <time>2022-07-18T07:14:39Z</time>
      </trkpt>
      <trkpt lat="44.71245" lon="6.9193">
        <ele>2001.6</ele>
        <time>2022-07-18T07:14:40Z</time>
      </trkpt>
      <trkpt lat="44.71244" lon="6.91932">
        <ele>2001.6</ele>
        <time>2022-07-18T07:14:41Z</time>
      </trkpt>
      <trkpt lat="44.71243" lon="6.91935">
        <ele>2002</ele>
        <time>2022-07-18T07:14:42Z</time>
      </trkpt>
      <trkpt lat="44.71241" lon="6.91938">
        <ele>2002</ele>
        <time>2022-07-18T07:14:43Z</time>
      </trkpt>
      <trkpt lat="44.7124" lon="6.91941">
        <ele>2002.4</ele>
        <time>2022-07-18T07:14:44Z</time>
      </trkpt>
      <trkpt lat="44.71239" lon="6.91944">
        <ele>2002.4</ele>
        <time>2022-07-18T07:14:45Z</time>
      </trkpt>
      <trkpt lat="44.71238" lon="6.91947">
        <ele>2002.6</ele>
        <time>2022-07-18T07:14:46Z</time>
      </trkpt>
      <trkpt lat="44.71237" lon="6.9195">
        <ele>2002.6</ele>
        <time>2022-07-18T07:14:47Z</time>
      </trkpt>
      <trkpt lat="44.71236" lon="6.91953">
        <ele>2003</ele>
        <time>2022-07-18T07:14:48Z</time>
      </trkpt>
      <trkpt lat="44.71235" lon="6.91957">
        <ele>2003</ele>
        <time>2022-07-18T07:14:49Z</time>
      </trkpt>
      <trkpt lat="44.71234" lon="6.9196">
        <ele>2003.2</ele>
        <time>2022-07-18T07:14:50Z</time>
      </trkpt>
      <trkpt lat="44.71233" lon="6.91963">
        <ele>2003.2</ele>
        <time>2022-07-18T07:14:51Z</time>
      </trkpt>
      <trkpt lat="44.71232" lon="6.91967">
        <ele>2003.2</ele>
        <time>2022-07-18T07:14:52Z</time>
      </trkpt>
      <trkpt lat="44.71231" lon="6.91971">
        <ele>2003.6</ele>
        <time>2022-07-18T07:14:53Z</time>
      </trkpt>
      <trkpt lat="44.7123" lon="6.91974">
        <ele>2003.6</ele>
        <time>2022-07-18T07:14:54Z</time>
      </trkpt>
      <trkpt lat="44.71229" lon="6.91978">
        <ele>2003.6</ele>
        <time>2022-07-18T07:14:55Z</time>
      </trkpt>
      <trkpt lat="44.71228" lon="6.91982">
        <ele>2003.8</ele>
        <time>2022-07-18T07:14:56Z</time>
      </trkpt>
      <trkpt lat="44.71227" lon="6.91985">
        <ele>2003.8</ele>
        <time>2022-07-18T07:14:57Z</time>
      </trkpt>
      <trkpt lat="44.71226" lon="6.91989">
        <ele>2003.8</ele>
        <time>2022-07-18T07:14:58Z</time>
      </trkpt>
      <trkpt lat="44.71225" lon="6.91992">
        <ele>2004.2</ele>
        <time>2022-07-18T07:14:59Z</time>
      </trkpt>
      <trkpt lat="44.71224" lon="6.91996">
        <ele>2004.2</ele>
        <time>2022-07-18T07:15:00Z</time>
      </trkpt>
      <trkpt lat="44.71223" lon="6.92">
        <ele>2004.4</ele>
        <time>2022-07-18T07:15:01Z</time>
      </trkpt>
      <trkpt lat="44.71221" lon="6.92004">
        <ele>2004.4</ele>
        <time>2022-07-18T07:15:02Z</time>
      </trkpt>
      <trkpt lat="44.71219" lon="6.92007">
        <ele>2004.6</ele>
        <time>2022-07-18T07:15:03Z</time>
      </trkpt>
      <trkpt lat="44.71218" lon="6.92011">
        <ele>2004.6</ele>
        <time>2022-07-18T07:15:04Z</time>
      </trkpt>
      <trkpt lat="44.71216" lon="6.92014">
        <ele>2004.8</ele>
        <time>2022-07-18T07:15:05Z</time>
      </trkpt>
      <trkpt lat="44.71214" lon="6.92017">
        <ele>2004.8</ele>
        <time>2022-07-18T07:15:06Z</time>
      </trkpt>
      <trkpt lat="44.71213" lon="6.92021">
        <ele>2004.8</ele>
        <time>2022-07-18T07:15:07Z</time>
      </trkpt>
      <trkpt lat="44.71211" lon="6.92024">
        <ele>2005</ele>
        <time>2022-07-18T07:15:08Z</time>
      </trkpt>
      <trkpt lat="44.71209" lon="6.92027">
        <ele>2005</ele>
        <time>2022-07-18T07:15:09Z</time>
      </trkpt>
      <trkpt lat="44.71207" lon="6.92031">
        <ele>2005</ele>
        <time>2022-07-18T07:15:10Z</time>
      </trkpt>
      <trkpt lat="44.71206" lon="6.92034">
        <ele>2005.4</ele>
        <time>2022-07-18T07:15:11Z</time>
      </trkpt>
      <trkpt lat="44.71204" lon="6.92037">
        <ele>2005.4</ele>
        <time>2022-07-18T07:15:12Z</time>
      </trkpt>
      <trkpt lat="44.71202" lon="6.9204">
        <ele>2005.6</ele>
        <time>2022-07-18T07:15:13Z</time>
      </trkpt>
      <trkpt lat="44.71201" lon="6.92043">
        <ele>2005.6</ele>
        <time>2022-07-18T07:15:14Z</time>
      </trkpt>
      <trkpt lat="44.71199" lon="6.92046">
        <ele>2005.8</ele>
        <time>2022-07-18T07:15:15Z</time>
      </trkpt>
      <trkpt lat="44.71197" lon="6.92048">
        <ele>2005.8</ele>
        <time>2022-07-18T07:15:16Z</time>
      </trkpt>
      <trkpt lat="44.71195" lon="6.92051">
        <ele>2006.2</ele>
        <time>2022-07-18T07:15:17Z</time>
      </trkpt>
      <trkpt lat="44.71194" lon="6.92054">
        <ele>2006.2</ele>
        <time>2022-07-18T07:15:18Z</time>
      </trkpt>
      <trkpt lat="44.71192" lon="6.92056">
        <ele>2006.6</ele>
        <time>2022-07-18T07:15:19Z</time>
      </trkpt>
      <trkpt lat="44.7119" lon="6.92059">
        <ele>2006.6</ele>
        <time>2022-07-18T07:15:20Z</time>
      </trkpt>
      <trkpt lat="44.71189" lon="6.92062">
        <ele>2006.8</ele>
        <time>2022-07-18T07:15:21Z</time>
      </trkpt>
      <trkpt lat="44.71187" lon="6.92065">
        <ele>2006.8</ele>
        <time>2022-07-18T07:15:22Z</time>
      </trkpt>
      <trkpt lat="44.71185" lon="6.92068">
        <ele>2007.2</ele>
        <time>2022-07-18T07:15:23Z</time>
      </trkpt>
      <trkpt lat="44.71184" lon="6.9207">
        <ele>2007.2</ele>
        <time>2022-07-18T07:15:24Z</time>
      </trkpt>
      <trkpt lat="44.71182" lon="6.92073">
        <ele>2007.4</ele>
        <time>2022-07-18T07:15:25Z</time>
      </trkpt>
      <trkpt lat="44.7118" lon="6.92075">
        <ele>2007.4</ele>
        <time>2022-07-18T07:15:26Z</time>
      </trkpt>
      <trkpt lat="44.71178" lon="6.92078">
        <ele>2007.8</ele>
        <time>2022-07-18T07:15:27Z</time>
      </trkpt>
      <trkpt lat="44.71177" lon="6.9208">
        <ele>2007.8</ele>
        <time>2022-07-18T07:15:28Z</time>
      </trkpt>
      <trkpt lat="44.71175" lon="6.92083">
        <ele>2008.2</ele>
        <time>2022-07-18T07:15:29Z</time>
      </trkpt>
      <trkpt lat="44.71173" lon="6.92086">
        <ele>2008.2</ele>
        <time>2022-07-18T07:15:30Z</time>
      </trkpt>
      <trkpt lat="44.71171" lon="6.92088">
        <ele>2008.4</ele>
        <time>2022-07-18T07:15:31Z</time>
      </trkpt>
      <trkpt lat="44.71169" lon="6.92091">
        <ele>2008.4</ele>
        <time>2022-07-18T07:15:32Z</time>
      </trkpt>
      <trkpt lat="44.71168" lon="6.92093">
        <ele>2008.8</ele>
        <time>2022-07-18T07:15:33Z</time>
      </trkpt>
      <trkpt lat="44.71166" lon="6.92096">
        <ele>2008.8</ele>
        <time>2022-07-18T07:15:34Z</time>
      </trkpt>
      <trkpt lat="44.71164" lon="6.92099">
        <ele>2009.2</ele>
        <time>2022-07-18T07:15:35Z</time>
      </trkpt>
      <trkpt lat="44.71163" lon="6.92101">
        <ele>2009.2</ele>
        <time>2022-07-18T07:15:36Z</time>
      </trkpt>
      <trkpt lat="44.71161" lon="6.92104">
        <ele>2009.4</ele>
        <time>2022-07-18T07:15:37Z</time>
      </trkpt>
      <trkpt lat="44.71159" lon="6.92107">
        <ele>2009.4</ele>
        <time>2022-07-18T07:15:38Z</time>
      </trkpt>
      <trkpt lat="44.71157" lon="6.92109">
        <ele>2009.6</ele>
        <time>2022-07-18T07:15:39Z</time>
      </trkpt>
      <trkpt lat="44.71155" lon="6.92112">
        <ele>2009.6</ele>
        <time>2022-07-18T07:15:40Z</time>
      </trkpt>
      <trkpt lat="44.71154" lon="6.92114">
        <ele>2009.6</ele>
        <time>2022-07-18T07:15:41Z</time>
      </trkpt>
      <trkpt lat="44.71152" lon="6.92117">
        <ele>2010</ele>
        <time>2022-07-18T07:15:42Z</time>
      </trkpt>
      <trkpt lat="44.7115" lon="6.92119">
        <ele>2010</ele>
        <time>2022-07-18T07:15:43Z</time>
      </trkpt>
      <trkpt lat="44.71148" lon="6.92121">
        <ele>2010.2</ele>
        <time>2022-07-18T07:15:44Z</time>
      </trkpt>
      <trkpt lat="44.71146" lon="6.92123">
        <ele>2010.2</ele>
        <time>2022-07-18T07:15:45Z</time>
      </trkpt>
      <trkpt lat="44.71144" lon="6.92126">
        <ele>2010.6</ele>
        <time>2022-07-18T07:15:46Z</time>
      </trkpt>
      <trkpt lat="44.71142" lon="6.92128">
        <ele>2010.6</ele>
        <time>2022-07-18T07:15:47Z</time>
      </trkpt>
      <trkpt lat="44.7114" lon="6.9213">
        <ele>2010.8</ele>
        <time>2022-07-18T07:15:48Z</time>
      </trkpt>
      <trkpt lat="44.71138" lon="6.92132">
        <ele>2010.8</ele>
        <time>2022-07-18T07:15:49Z</time>
      </trkpt>
      <trkpt lat="44.71137" lon="6.92135">
        <ele>2011</ele>
        <time>2022-07-18T07:15:50Z</time>
      </trkpt>
      <trkpt lat="44.71135" lon="6.92137">
        <ele>2011</ele>
        <time>2022-07-18T07:15:51Z</time>
      </trkpt>
      <trkpt lat="44.71133" lon="6.92139">
        <ele>2011.4</ele>
        <time>2022-07-18T07:15:52Z</time>
      </trkpt>
      <trkpt lat="44.71131" lon="6.92141">
        <ele>2011.4</ele>
        <time>2022-07-18T07:15:53Z</time>
      </trkpt>
      <trkpt lat="44.71129" lon="6.92144">
        <ele>2011.8</ele>
        <time>2022-07-18T07:15:54Z</time>
      </trkpt>
      <trkpt lat="44.71127" lon="6.92146">
        <ele>2011.8</ele>
        <time>2022-07-18T07:15:55Z</time>
      </trkpt>
      <trkpt lat="44.71125" lon="6.92148">
        <ele>2012</ele>
        <time>2022-07-18T07:15:56Z</time>
      </trkpt>
      <trkpt lat="44.71123" lon="6.9215">
        <ele>2012</ele>
        <time>2022-07-18T07:15:57Z</time>
      </trkpt>
      <trkpt lat="44.7112" lon="6.92151">
        <ele>2012.2</ele>
        <time>2022-07-18T07:15:58Z</time>
      </trkpt>
      <trkpt lat="44.71119" lon="6.92154">
        <ele>2012.2</ele>
        <time>2022-07-18T07:15:59Z</time>
      </trkpt>
      <trkpt lat="44.71117" lon="6.92156">
        <ele>2012.6</ele>
        <time>2022-07-18T07:16:00Z</time>
      </trkpt>
      <trkpt lat="44.71115" lon="6.92158">
        <ele>2012.6</ele>
        <time>2022-07-18T07:16:01Z</time>
      </trkpt>
      <trkpt lat="44.71113" lon="6.9216">
        <ele>2013</ele>
        <time>2022-07-18T07:16:02Z</time>
      </trkpt>
      <trkpt lat="44.71111" lon="6.92161">
        <ele>2013.2</ele>
        <time>2022-07-18T07:16:03Z</time>
      </trkpt>
      <trkpt lat="44.71109" lon="6.92163">
        <ele>2013.2</ele>
        <time>2022-07-18T07:16:04Z</time>
      </trkpt>
      <trkpt lat="44.71108" lon="6.92165">
        <ele>2013.6</ele>
        <time>2022-07-18T07:16:05Z</time>
      </trkpt>
      <trkpt lat="44.71106" lon="6.92167">
        <ele>2013.8</ele>
        <time>2022-07-18T07:16:06Z</time>
      </trkpt>
      <trkpt lat="44.71105" lon="6.92169">
        <ele>2014</ele>
        <time>2022-07-18T07:16:07Z</time>
      </trkpt>
      <trkpt lat="44.71103" lon="6.92171">
        <ele>2014</ele>
        <time>2022-07-18T07:16:08Z</time>
      </trkpt>
      <trkpt lat="44.71101" lon="6.92173">
        <ele>2014.4</ele>
        <time>2022-07-18T07:16:09Z</time>
      </trkpt>
      <trkpt lat="44.711" lon="6.92175">
        <ele>2014.4</ele>
        <time>2022-07-18T07:16:10Z</time>
      </trkpt>
      <trkpt lat="44.71098" lon="6.92177">
        <ele>2014.8</ele>
        <time>2022-07-18T07:16:11Z</time>
      </trkpt>
      <trkpt lat="44.71097" lon="6.92179">
        <ele>2014.8</ele>
        <time>2022-07-18T07:16:12Z</time>
      </trkpt>
      <trkpt lat="44.71095" lon="6.92181">
        <ele>2015</ele>
        <time>2022-07-18T07:16:13Z</time>
      </trkpt>
      <trkpt lat="44.71094" lon="6.92183">
        <ele>2015.2</ele>
        <time>2022-07-18T07:16:14Z</time>
      </trkpt>
      <trkpt lat="44.71092" lon="6.92186">
        <ele>2015.4</ele>
        <time>2022-07-18T07:16:15Z</time>
      </trkpt>
      <trkpt lat="44.71091" lon="6.92188">
        <ele>2015.6</ele>
        <time>2022-07-18T07:16:16Z</time>
      </trkpt>
      <trkpt lat="44.71089" lon="6.9219">
        <ele>2015.6</ele>
        <time>2022-07-18T07:16:17Z</time>
      </trkpt>
      <trkpt lat="44.71087" lon="6.92192">
        <ele>2016</ele>
        <time>2022-07-18T07:16:18Z</time>
      </trkpt>
      <trkpt lat="44.71085" lon="6.92194">
        <ele>2016</ele>
        <time>2022-07-18T07:16:19Z</time>
      </trkpt>
      <trkpt lat="44.71084" lon="6.92196">
        <ele>2016.4</ele>
        <time>2022-07-18T07:16:20Z</time>
      </trkpt>
      <trkpt lat="44.71082" lon="6.92198">
        <ele>2016.6</ele>
        <time>2022-07-18T07:16:21Z</time>
      </trkpt>
      <trkpt lat="44.71081" lon="6.922">
        <ele>2016.6</ele>
        <time>2022-07-18T07:16:22Z</time>
      </trkpt>
      <trkpt lat="44.71079" lon="6.92202">
        <ele>2017</ele>
        <time>2022-07-18T07:16:23Z</time>
      </trkpt>
      <trkpt lat="44.71078" lon="6.92205">
        <ele>2017</ele>
        <time>2022-07-18T07:16:24Z</time>
      </trkpt>
      <trkpt lat="44.71076" lon="6.92207">
        <ele>2017.2</ele>
        <time>2022-07-18T07:16:25Z</time>
      </trkpt>
      <trkpt lat="44.71075" lon="6.92209">
        <ele>2017.2</ele>
        <time>2022-07-18T07:16:26Z</time>
      </trkpt>
      <trkpt lat="44.71073" lon="6.92211">
        <ele>2017.6</ele>
        <time>2022-07-18T07:16:27Z</time>
      </trkpt>
      <trkpt lat="44.71072" lon="6.92213">
        <ele>2018</ele>
        <time>2022-07-18T07:16:28Z</time>
      </trkpt>
      <trkpt lat="44.7107" lon="6.92215">
        <ele>2018</ele>
        <time>2022-07-18T07:16:29Z</time>
      </trkpt>
      <trkpt lat="44.71069" lon="6.92218">
        <ele>2018.4</ele>
        <time>2022-07-18T07:16:30Z</time>
      </trkpt>
      <trkpt lat="44.71067" lon="6.9222">
        <ele>2018.6</ele>
        <time>2022-07-18T07:16:31Z</time>
      </trkpt>
      <trkpt lat="44.71066" lon="6.92222">
        <ele>2018.6</ele>
        <time>2022-07-18T07:16:32Z</time>
      </trkpt>
      <trkpt lat="44.71064" lon="6.92225">
        <ele>2019</ele>
        <time>2022-07-18T07:16:33Z</time>
      </trkpt>
      <trkpt lat="44.71063" lon="6.92227">
        <ele>2019.2</ele>
        <time>2022-07-18T07:16:34Z</time>
      </trkpt>
      <trkpt lat="44.71061" lon="6.92229">
        <ele>2019.4</ele>
        <time>2022-07-18T07:16:35Z</time>
      </trkpt>
      <trkpt lat="44.7106" lon="6.92232">
        <ele>2019.6</ele>
        <time>2022-07-18T07:16:36Z</time>
      </trkpt>
      <trkpt lat="44.71058" lon="6.92234">
        <ele>2020</ele>
        <time>2022-07-18T07:16:37Z</time>
      </trkpt>
      <trkpt lat="44.71057" lon="6.92236">
        <ele>2020</ele>
        <time>2022-07-18T07:16:38Z</time>
      </trkpt>
      <trkpt lat="44.71055" lon="6.92238">
        <ele>2020.2</ele>
        <time>2022-07-18T07:16:39Z</time>
      </trkpt>
      <trkpt lat="44.71054" lon="6.92241">
        <ele>2020.2</ele>
        <time>2022-07-18T07:16:40Z</time>
      </trkpt>
      <trkpt lat="44.71053" lon="6.92243">
        <ele>2020.6</ele>
        <time>2022-07-18T07:16:41Z</time>
      </trkpt>
      <trkpt lat="44.71051" lon="6.92245">
        <ele>2020.6</ele>
        <time>2022-07-18T07:16:42Z</time>
      </trkpt>
      <trkpt lat="44.71049" lon="6.92247">
        <ele>2021</ele>
        <time>2022-07-18T07:16:43Z</time>
      </trkpt>
      <trkpt lat="44.71048" lon="6.9225">
        <ele>2021</ele>
        <time>2022-07-18T07:16:44Z</time>
      </trkpt>
      <trkpt lat="44.71046" lon="6.92252">
        <ele>2021.4</ele>
        <time>2022-07-18T07:16:45Z</time>
      </trkpt>
      <trkpt lat="44.71045" lon="6.92254">
        <ele>2021.6</ele>
        <time>2022-07-18T07:16:46Z</time>
      </trkpt>
      <trkpt lat="44.71043" lon="6.92256">
        <ele>2021.8</ele>
        <time>2022-07-18T07:16:47Z</time>
      </trkpt>
      <trkpt lat="44.71041" lon="6.92258">
        <ele>2022.2</ele>
        <time>2022-07-18T07:16:48Z</time>
      </trkpt>
      <trkpt lat="44.71039" lon="6.9226">
        <ele>2022.4</ele>
        <time>2022-07-18T07:16:49Z</time>
      </trkpt>
      <trkpt lat="44.71037" lon="6.92261">
        <ele>2022.6</ele>
        <time>2022-07-18T07:16:50Z</time>
      </trkpt>
      <trkpt lat="44.71035" lon="6.92263">
        <ele>2022.6</ele>
        <time>2022-07-18T07:16:51Z</time>
      </trkpt>
      <trkpt lat="44.71034" lon="6.92264">
        <ele>2023</ele>
        <time>2022-07-18T07:16:52Z</time>
      </trkpt>
      <trkpt lat="44.71032" lon="6.92265">
        <ele>2023.2</ele>
        <time>2022-07-18T07:16:53Z</time>
      </trkpt>
      <trkpt lat="44.7103" lon="6.92267">
        <ele>2023.6</ele>
        <time>2022-07-18T07:16:54Z</time>
      </trkpt>
      <trkpt lat="44.71028" lon="6.92268">
        <ele>2023.8</ele>
        <time>2022-07-18T07:16:55Z</time>
      </trkpt>
      <trkpt lat="44.71026" lon="6.92268">
        <ele>2024</ele>
        <time>2022-07-18T07:16:56Z</time>
      </trkpt>
      <trkpt lat="44.71025" lon="6.92269">
        <ele>2024.2</ele>
        <time>2022-07-18T07:16:57Z</time>
      </trkpt>
      <trkpt lat="44.71023" lon="6.92269">
        <ele>2024.6</ele>
        <time>2022-07-18T07:16:58Z</time>
      </trkpt>
      <trkpt lat="44.71021" lon="6.9227">
        <ele>2024.8</ele>
        <time>2022-07-18T07:16:59Z</time>
      </trkpt>
      <trkpt lat="44.71019" lon="6.92271">
        <ele>2024.8</ele>
        <time>2022-07-18T07:17:00Z</time>
      </trkpt>
      <trkpt lat="44.71017" lon="6.92272">
        <ele>2025.2</ele>
        <time>2022-07-18T07:17:01Z</time>
      </trkpt>
      <trkpt lat="44.71015" lon="6.92273">
        <ele>2025.4</ele>
        <time>2022-07-18T07:17:02Z</time>
      </trkpt>
      <trkpt lat="44.71013" lon="6.92274">
        <ele>2025.6</ele>
        <time>2022-07-18T07:17:03Z</time>
      </trkpt>
      <trkpt lat="44.71011" lon="6.92274">
        <ele>2025.6</ele>
        <time>2022-07-18T07:17:04Z</time>
      </trkpt>
      <trkpt lat="44.71009" lon="6.92275">
        <ele>2026</ele>
        <time>2022-07-18T07:17:05Z</time>
      </trkpt>
      <trkpt lat="44.71008" lon="6.92276">
        <ele>2026.4</ele>
        <time>2022-07-18T07:17:06Z</time>
      </trkpt>
      <trkpt lat="44.71006" lon="6.92277">
        <ele>2026.6</ele>
        <time>2022-07-18T07:17:07Z</time>
      </trkpt>
      <trkpt lat="44.71004" lon="6.92278">
        <ele>2026.8</ele>
        <time>2022-07-18T07:17:08Z</time>
      </trkpt>
      <trkpt lat="44.71002" lon="6.92279">
        <ele>2027.2</ele>
        <time>2022-07-18T07:17:09Z</time>
      </trkpt>
      <trkpt lat="44.71" lon="6.9228">
        <ele>2027.4</ele>
        <time>2022-07-18T07:17:10Z</time>
      </trkpt>
      <trkpt lat="44.70998" lon="6.9228">
        <ele>2027.6</ele>
        <time>2022-07-18T07:17:11Z</time>
      </trkpt>
      <trkpt lat="44.70996" lon="6.92281">
        <ele>2027.8</ele>
        <time>2022-07-18T07:17:12Z</time>
      </trkpt>
      <trkpt lat="44.70994" lon="6.92281">
        <ele>2028.2</ele>
        <time>2022-07-18T07:17:13Z</time>
      </trkpt>
      <trkpt lat="44.70992" lon="6.92282">
        <ele>2028.4</ele>
        <time>2022-07-18T07:17:14Z</time>
      </trkpt>
      <trkpt lat="44.7099" lon="6.92283">
        <ele>2028.8</ele>
        <time>2022-07-18T07:17:15Z</time>
      </trkpt>
      <trkpt lat="44.70988" lon="6.92284">
        <ele>2028.8</ele>
        <time>2022-07-18T07:17:16Z</time>
      </trkpt>
      <trkpt lat="44.70986" lon="6.92284">
        <ele>2029.2</ele>
        <time>2022-07-18T07:17:17Z</time>
      </trkpt>
      <trkpt lat="44.70984" lon="6.92285">
        <ele>2029.4</ele>
        <time>2022-07-18T07:17:18Z</time>
      </trkpt>
      <trkpt lat="44.70982" lon="6.92285">
        <ele>2029.8</ele>
        <time>2022-07-18T07:17:19Z</time>
      </trkpt>
      <trkpt lat="44.7098" lon="6.92286">
        <ele>2030</ele>
        <time>2022-07-18T07:17:20Z</time>
      </trkpt>
      <trkpt lat="44.70977" lon="6.92286">
        <ele>2030.2</ele>
        <time>2022-07-18T07:17:21Z</time>
      </trkpt>
      <trkpt lat="44.70975" lon="6.92286">
        <ele>2030.2</ele>
        <time>2022-07-18T07:17:22Z</time>
      </trkpt>
      <trkpt lat="44.70973" lon="6.92287">
        <ele>2030.6</ele>
        <time>2022-07-18T07:17:23Z</time>
      </trkpt>
      <trkpt lat="44.70971" lon="6.92287">
        <ele>2030.8</ele>
        <time>2022-07-18T07:17:24Z</time>
      </trkpt>
      <trkpt lat="44.70969" lon="6.92288">
        <ele>2031.2</ele>
        <time>2022-07-18T07:17:25Z</time>
      </trkpt>
      <trkpt lat="44.70967" lon="6.92288">
        <ele>2031.2</ele>
        <time>2022-07-18T07:17:26Z</time>
      </trkpt>
      <trkpt lat="44.70965" lon="6.92289">
        <ele>2031.6</ele>
        <time>2022-07-18T07:17:27Z</time>
      </trkpt>
      <trkpt lat="44.70963" lon="6.92289">
        <ele>2031.8</ele>
        <time>2022-07-18T07:17:28Z</time>
      </trkpt>
      <trkpt lat="44.70961" lon="6.92289">
        <ele>2032</ele>
        <time>2022-07-18T07:17:29Z</time>
      </trkpt>
      <trkpt lat="44.70959" lon="6.92289">
        <ele>2032.2</ele>
        <time>2022-07-18T07:17:30Z</time>
      </trkpt>
      <trkpt lat="44.70957" lon="6.92289">
        <ele>2032.4</ele>
        <time>2022-07-18T07:17:31Z</time>
      </trkpt>
      <trkpt lat="44.70956" lon="6.9229">
        <ele>2032.6</ele>
        <time>2022-07-18T07:17:32Z</time>
      </trkpt>
      <trkpt lat="44.70954" lon="6.92291">
        <ele>2032.6</ele>
        <time>2022-07-18T07:17:33Z</time>
      </trkpt>
      <trkpt lat="44.70952" lon="6.92292">
        <ele>2033</ele>
        <time>2022-07-18T07:17:34Z</time>
      </trkpt>
      <trkpt lat="44.7095" lon="6.92292">
        <ele>2033</ele>
        <time>2022-07-18T07:17:35Z</time>
      </trkpt>
      <trkpt lat="44.70948" lon="6.92292">
        <ele>2033.4</ele>
        <time>2022-07-18T07:17:36Z</time>
      </trkpt>
      <trkpt lat="44.70946" lon="6.92293">
        <ele>2033.6</ele>
        <time>2022-07-18T07:17:37Z</time>
      </trkpt>
      <trkpt lat="44.70944" lon="6.92293">
        <ele>2033.8</ele>
        <time>2022-07-18T07:17:38Z</time>
      </trkpt>
      <trkpt lat="44.70942" lon="6.92294">
        <ele>2033.8</ele>
        <time>2022-07-18T07:17:39Z</time>
      </trkpt>
      <trkpt lat="44.70941" lon="6.92294">
        <ele>2034.2</ele>
        <time>2022-07-18T07:17:40Z</time>
      </trkpt>
      <trkpt lat="44.70939" lon="6.92295">
        <ele>2034.2</ele>
        <time>2022-07-18T07:17:41Z</time>
      </trkpt>
      <trkpt lat="44.70937" lon="6.92296">
        <ele>2034.6</ele>
        <time>2022-07-18T07:17:42Z</time>
      </trkpt>
      <trkpt lat="44.70936" lon="6.92297">
        <ele>2034.6</ele>
        <time>2022-07-18T07:17:43Z</time>
      </trkpt>
      <trkpt lat="44.70934" lon="6.92297">
        <ele>2035</ele>
        <time>2022-07-18T07:17:44Z</time>
      </trkpt>
      <trkpt lat="44.70932" lon="6.92298">
        <ele>2035.2</ele>
        <time>2022-07-18T07:17:45Z</time>
      </trkpt>
      <trkpt lat="44.7093" lon="6.92299">
        <ele>2035.4</ele>
        <time>2022-07-18T07:17:46Z</time>
      </trkpt>
      <trkpt lat="44.70929" lon="6.92299">
        <ele>2035.4</ele>
        <time>2022-07-18T07:17:47Z</time>
      </trkpt>
      <trkpt lat="44.70927" lon="6.923">
        <ele>2035.8</ele>
        <time>2022-07-18T07:17:48Z</time>
      </trkpt>
      <trkpt lat="44.70925" lon="6.92301">
        <ele>2036</ele>
        <time>2022-07-18T07:17:49Z</time>
      </trkpt>
      <trkpt lat="44.70924" lon="6.92301">
        <ele>2036.2</ele>
        <time>2022-07-18T07:17:50Z</time>
      </trkpt>
      <trkpt lat="44.70922" lon="6.92302">
        <ele>2036.6</ele>
        <time>2022-07-18T07:17:51Z</time>
      </trkpt>
      <trkpt lat="44.7092" lon="6.92303">
        <ele>2036.8</ele>
        <time>2022-07-18T07:17:52Z</time>
      </trkpt>
      <trkpt lat="44.70918" lon="6.92304">
        <ele>2036.8</ele>
        <time>2022-07-18T07:17:53Z</time>
      </trkpt>
      <trkpt lat="44.70916" lon="6.92305">
        <ele>2037.2</ele>
        <time>2022-07-18T07:17:54Z</time>
      </trkpt>
      <trkpt lat="44.70914" lon="6.92306">
        <ele>2037.2</ele>
        <time>2022-07-18T07:17:55Z</time>
      </trkpt>
      <trkpt lat="44.70913" lon="6.92307">
        <ele>2037.6</ele>
        <time>2022-07-18T07:17:56Z</time>
      </trkpt>
      <trkpt lat="44.70911" lon="6.92309">
        <ele>2037.8</ele>
        <time>2022-07-18T07:17:57Z</time>
      </trkpt>
      <trkpt lat="44.7091" lon="6.9231">
        <ele>2037.8</ele>
        <time>2022-07-18T07:17:58Z</time>
      </trkpt>
      <trkpt lat="44.70908" lon="6.92312">
        <ele>2038.2</ele>
        <time>2022-07-18T07:17:59Z</time>
      </trkpt>
      <trkpt lat="44.70907" lon="6.92314">
        <ele>2038.2</ele>
        <time>2022-07-18T07:18:00Z</time>
      </trkpt>
      <trkpt lat="44.70906" lon="6.92315">
        <ele>2038.6</ele>
        <time>2022-07-18T07:18:01Z</time>
      </trkpt>
      <trkpt lat="44.70904" lon="6.92317">
        <ele>2038.8</ele>
        <time>2022-07-18T07:18:02Z</time>
      </trkpt>
      <trkpt lat="44.70903" lon="6.92318">
        <ele>2039.2</ele>
        <time>2022-07-18T07:18:03Z</time>
      </trkpt>
      <trkpt lat="44.70901" lon="6.9232">
        <ele>2039.4</ele>
        <time>2022-07-18T07:18:04Z</time>
      </trkpt>
      <trkpt lat="44.709" lon="6.92322">
        <ele>2039.6</ele>
        <time>2022-07-18T07:18:05Z</time>
      </trkpt>
      <trkpt lat="44.70899" lon="6.92323">
        <ele>2040</ele>
        <time>2022-07-18T07:18:06Z</time>
      </trkpt>
      <trkpt lat="44.70897" lon="6.92325">
        <ele>2040.2</ele>
        <time>2022-07-18T07:18:07Z</time>
      </trkpt>
      <trkpt lat="44.70896" lon="6.92327">
        <ele>2040.4</ele>
        <time>2022-07-18T07:18:08Z</time>
      </trkpt>
      <trkpt lat="44.70894" lon="6.92329">
        <ele>2040.6</ele>
        <time>2022-07-18T07:18:09Z</time>
      </trkpt>
      <trkpt lat="44.70892" lon="6.9233">
        <ele>2040.8</ele>
        <time>2022-07-18T07:18:10Z</time>
      </trkpt>
      <trkpt lat="44.70891" lon="6.92332">
        <ele>2040.8</ele>
        <time>2022-07-18T07:18:11Z</time>
      </trkpt>
      <trkpt lat="44.7089" lon="6.92333">
        <ele>2041.2</ele>
        <time>2022-07-18T07:18:12Z</time>
      </trkpt>
      <trkpt lat="44.70888" lon="6.92335">
        <ele>2041.6</ele>
        <time>2022-07-18T07:18:13Z</time>
      </trkpt>
      <trkpt lat="44.70887" lon="6.92337">
        <ele>2041.8</ele>
        <time>2022-07-18T07:18:14Z</time>
      </trkpt>
      <trkpt lat="44.70886" lon="6.92339">
        <ele>2042</ele>
        <time>2022-07-18T07:18:15Z</time>
      </trkpt>
      <trkpt lat="44.70885" lon="6.92341">
        <ele>2042.4</ele>
        <time>2022-07-18T07:18:16Z</time>
      </trkpt>
      <trkpt lat="44.70884" lon="6.92342">
        <ele>2042.6</ele>
        <time>2022-07-18T07:18:17Z</time>
      </trkpt>
      <trkpt lat="44.70882" lon="6.92344">
        <ele>2042.8</ele>
        <time>2022-07-18T07:18:18Z</time>
      </trkpt>
      <trkpt lat="44.70881" lon="6.92346">
        <ele>2043.2</ele>
        <time>2022-07-18T07:18:19Z</time>
      </trkpt>
      <trkpt lat="44.7088" lon="6.92349">
        <ele>2043.4</ele>
        <time>2022-07-18T07:18:20Z</time>
      </trkpt>
      <trkpt lat="44.70879" lon="6.92351">
        <ele>2043.6</ele>
        <time>2022-07-18T07:18:21Z</time>
      </trkpt>
      <trkpt lat="44.70878" lon="6.92353">
        <ele>2044</ele>
        <time>2022-07-18T07:18:22Z</time>
      </trkpt>
      <trkpt lat="44.70877" lon="6.92354">
        <ele>2044.2</ele>
        <time>2022-07-18T07:18:23Z</time>
      </trkpt>
      <trkpt lat="44.70875" lon="6.92356">
        <ele>2044.4</ele>
        <time>2022-07-18T07:18:24Z</time>
      </trkpt>
      <trkpt lat="44.70874" lon="6.92358">
        <ele>2044.8</ele>
        <time>2022-07-18T07:18:25Z</time>
      </trkpt>
      <trkpt lat="44.70872" lon="6.9236">
        <ele>2045</ele>
        <time>2022-07-18T07:18:26Z</time>
      </trkpt>
      <trkpt lat="44.70871" lon="6.92363">
        <ele>2045.2</ele>
        <time>2022-07-18T07:18:27Z</time>
      </trkpt>
      <trkpt lat="44.7087" lon="6.92366">
        <ele>2045.4</ele>
        <time>2022-07-18T07:18:28Z</time>
      </trkpt>
      <trkpt lat="44.70869" lon="6.92368">
        <ele>2045.6</ele>
        <time>2022-07-18T07:18:29Z</time>
      </trkpt>
      <trkpt lat="44.70869" lon="6.9237">
        <ele>2045.6</ele>
        <time>2022-07-18T07:18:30Z</time>
      </trkpt>
      <trkpt lat="44.70868" lon="6.92373">
        <ele>2046</ele>
        <time>2022-07-18T07:18:31Z</time>
      </trkpt>
      <trkpt lat="44.70868" lon="6.92375">
        <ele>2046.2</ele>
        <time>2022-07-18T07:18:32Z</time>
      </trkpt>
      <trkpt lat="44.70867" lon="6.92377">
        <ele>2046.6</ele>
        <time>2022-07-18T07:18:33Z</time>
      </trkpt>
      <trkpt lat="44.70866" lon="6.9238">
        <ele>2046.6</ele>
        <time>2022-07-18T07:18:34Z</time>
      </trkpt>
      <trkpt lat="44.70865" lon="6.92382">
        <ele>2047</ele>
        <time>2022-07-18T07:18:35Z</time>
      </trkpt>
      <trkpt lat="44.70864" lon="6.92384">
        <ele>2047</ele>
        <time>2022-07-18T07:18:36Z</time>
      </trkpt>
      <trkpt lat="44.70863" lon="6.92386">
        <ele>2047.2</ele>
        <time>2022-07-18T07:18:37Z</time>
      </trkpt>
      <trkpt lat="44.70862" lon="6.92388">
        <ele>2047.6</ele>
        <time>2022-07-18T07:18:38Z</time>
      </trkpt>
      <trkpt lat="44.7086" lon="6.9239">
        <ele>2047.8</ele>
        <time>2022-07-18T07:18:39Z</time>
      </trkpt>
      <trkpt lat="44.70859" lon="6.92391">
        <ele>2047.8</ele>
        <time>2022-07-18T07:18:40Z</time>
      </trkpt>
      <trkpt lat="44.70857" lon="6.92393">
        <ele>2048.2</ele>
        <time>2022-07-18T07:18:41Z</time>
      </trkpt>
      <trkpt lat="44.70856" lon="6.92395">
        <ele>2048.4</ele>
        <time>2022-07-18T07:18:42Z</time>
      </trkpt>
      <trkpt lat="44.70855" lon="6.92397">
        <ele>2048.6</ele>
        <time>2022-07-18T07:18:43Z</time>
      </trkpt>
      <trkpt lat="44.70854" lon="6.92399">
        <ele>2048.6</ele>
        <time>2022-07-18T07:18:44Z</time>
      </trkpt>
      <trkpt lat="44.70853" lon="6.92402">
        <ele>2049</ele>
        <time>2022-07-18T07:18:45Z</time>
      </trkpt>
      <trkpt lat="44.70852" lon="6.92404">
        <ele>2049.2</ele>
        <time>2022-07-18T07:18:46Z</time>
      </trkpt>
      <trkpt lat="44.70851" lon="6.92406">
        <ele>2049.4</ele>
        <time>2022-07-18T07:18:47Z</time>
      </trkpt>
      <trkpt lat="44.7085" lon="6.92408">
        <ele>2049.4</ele>
        <time>2022-07-18T07:18:48Z</time>
      </trkpt>
      <trkpt lat="44.70849" lon="6.9241">
        <ele>2049.6</ele>
        <time>2022-07-18T07:18:49Z</time>
      </trkpt>
      <trkpt lat="44.70848" lon="6.92412">
        <ele>2050</ele>
        <time>2022-07-18T07:18:50Z</time>
      </trkpt>
      <trkpt lat="44.70847" lon="6.92414">
        <ele>2050</ele>
        <time>2022-07-18T07:18:51Z</time>
      </trkpt>
      <trkpt lat="44.70845" lon="6.92415">
        <ele>2050.2</ele>
        <time>2022-07-18T07:18:52Z</time>
      </trkpt>
      <trkpt lat="44.70844" lon="6.92417">
        <ele>2050.2</ele>
        <time>2022-07-18T07:18:53Z</time>
      </trkpt>
      <trkpt lat="44.70843" lon="6.92419">
        <ele>2050.8</ele>
        <time>2022-07-18T07:18:54Z</time>
      </trkpt>
      <trkpt lat="44.70841" lon="6.9242">
        <ele>2051</ele>
        <time>2022-07-18T07:18:55Z</time>
      </trkpt>
      <trkpt lat="44.7084" lon="6.92421">
        <ele>2051</ele>
        <time>2022-07-18T07:18:56Z</time>
      </trkpt>
      <trkpt lat="44.70839" lon="6.92423">
        <ele>2051.4</ele>
        <time>2022-07-18T07:18:57Z</time>
      </trkpt>
      <trkpt lat="44.70838" lon="6.92425">
        <ele>2051.6</ele>
        <time>2022-07-18T07:18:58Z</time>
      </trkpt>
      <trkpt lat="44.70836" lon="6.92427">
        <ele>2051.6</ele>
        <time>2022-07-18T07:18:59Z</time>
      </trkpt>
      <trkpt lat="44.70835" lon="6.92429">
        <ele>2052</ele>
        <time>2022-07-18T07:19:00Z</time>
      </trkpt>
      <trkpt lat="44.70834" lon="6.9243">
        <ele>2052</ele>
        <time>2022-07-18T07:19:01Z</time>
      </trkpt>
      <trkpt lat="44.70832" lon="6.92432">
        <ele>2052.2</ele>
        <time>2022-07-18T07:19:02Z</time>
      </trkpt>
      <trkpt lat="44.70831" lon="6.92433">
        <ele>2052.2</ele>
        <time>2022-07-18T07:19:03Z</time>
      </trkpt>
      <trkpt lat="44.70829" lon="6.92434">
        <ele>2052.6</ele>
        <time>2022-07-18T07:19:04Z</time>
      </trkpt>
      <trkpt lat="44.70828" lon="6.92436">
        <ele>2052.6</ele>
        <time>2022-07-18T07:19:05Z</time>
      </trkpt>
      <trkpt lat="44.70827" lon="6.92438">
        <ele>2053</ele>
        <time>2022-07-18T07:19:06Z</time>
      </trkpt>
      <trkpt lat="44.70826" lon="6.9244">
        <ele>2053.2</ele>
        <time>2022-07-18T07:19:07Z</time>
      </trkpt>
      <trkpt lat="44.70825" lon="6.92442">
        <ele>2053.2</ele>
        <time>2022-07-18T07:19:08Z</time>
      </trkpt>
      <trkpt lat="44.70823" lon="6.92444">
        <ele>2053.2</ele>
        <time>2022-07-18T07:19:09Z</time>
      </trkpt>
      <trkpt lat="44.70822" lon="6.92447">
        <ele>2053.2</ele>
        <time>2022-07-18T07:19:10Z</time>
      </trkpt>
      <trkpt lat="44.7082" lon="6.9245">
        <ele>2053.4</ele>
        <time>2022-07-18T07:19:11Z</time>
      </trkpt>
      <trkpt lat="44.70819" lon="6.92453">
        <ele>2053.4</ele>
        <time>2022-07-18T07:19:12Z</time>
      </trkpt>
      <trkpt lat="44.70818" lon="6.92456">
        <ele>2053.4</ele>
        <time>2022-07-18T07:19:13Z</time>
      </trkpt>
      <trkpt lat="44.70816" lon="6.92459">
        <ele>2053.4</ele>
        <time>2022-07-18T07:19:14Z</time>
      </trkpt>
      <trkpt lat="44.70815" lon="6.92462">
        <ele>2053.4</ele>
        <time>2022-07-18T07:19:15Z</time>
      </trkpt>
      <trkpt lat="44.70814" lon="6.92465">
        <ele>2053.8</ele>
        <time>2022-07-18T07:19:16Z</time>
      </trkpt>
      <trkpt lat="44.70812" lon="6.92467">
        <ele>2053.8</ele>
        <time>2022-07-18T07:19:17Z</time>
      </trkpt>
      <trkpt lat="44.70811" lon="6.9247">
        <ele>2054</ele>
        <time>2022-07-18T07:19:18Z</time>
      </trkpt>
      <trkpt lat="44.7081" lon="6.92473">
        <ele>2054</ele>
        <time>2022-07-18T07:19:19Z</time>
      </trkpt>
      <trkpt lat="44.70808" lon="6.92476">
        <ele>2054.4</ele>
        <time>2022-07-18T07:19:20Z</time>
      </trkpt>
      <trkpt lat="44.70807" lon="6.92478">
        <ele>2054.4</ele>
        <time>2022-07-18T07:19:21Z</time>
      </trkpt>
      <trkpt lat="44.70806" lon="6.92481">
        <ele>2054.6</ele>
        <time>2022-07-18T07:19:22Z</time>
      </trkpt>
      <trkpt lat="44.70804" lon="6.92484">
        <ele>2054.6</ele>
        <time>2022-07-18T07:19:23Z</time>
      </trkpt>
      <trkpt lat="44.70803" lon="6.92487">
        <ele>2054.8</ele>
        <time>2022-07-18T07:19:24Z</time>
      </trkpt>
      <trkpt lat="44.70802" lon="6.9249">
        <ele>2054.8</ele>
        <time>2022-07-18T07:19:25Z</time>
      </trkpt>
      <trkpt lat="44.708" lon="6.92492">
        <ele>2055</ele>
        <time>2022-07-18T07:19:26Z</time>
      </trkpt>
      <trkpt lat="44.70799" lon="6.92495">
        <ele>2055</ele>
        <time>2022-07-18T07:19:27Z</time>
      </trkpt>
      <trkpt lat="44.70798" lon="6.92497">
        <ele>2055.4</ele>
        <time>2022-07-18T07:19:28Z</time>
      </trkpt>
      <trkpt lat="44.70796" lon="6.925">
        <ele>2055.4</ele>
        <time>2022-07-18T07:19:29Z</time>
      </trkpt>
      <trkpt lat="44.70795" lon="6.92502">
        <ele>2055.8</ele>
        <time>2022-07-18T07:19:30Z</time>
      </trkpt>
      <trkpt lat="44.70794" lon="6.92505">
        <ele>2056</ele>
        <time>2022-07-18T07:19:31Z</time>
      </trkpt>
      <trkpt lat="44.70793" lon="6.92507">
        <ele>2056.2</ele>
        <time>2022-07-18T07:19:32Z</time>
      </trkpt>
      <trkpt lat="44.70791" lon="6.9251">
        <ele>2056.4</ele>
        <time>2022-07-18T07:19:33Z</time>
      </trkpt>
      <trkpt lat="44.7079" lon="6.92512">
        <ele>2056.6</ele>
        <time>2022-07-18T07:19:34Z</time>
      </trkpt>
      <trkpt lat="44.70788" lon="6.92515">
        <ele>2057</ele>
        <time>2022-07-18T07:19:35Z</time>
      </trkpt>
      <trkpt lat="44.70787" lon="6.92517">
        <ele>2057.2</ele>
        <time>2022-07-18T07:19:36Z</time>
      </trkpt>
      <trkpt lat="44.70786" lon="6.92519">
        <ele>2057.6</ele>
        <time>2022-07-18T07:19:37Z</time>
      </trkpt>
      <trkpt lat="44.70785" lon="6.92522">
        <ele>2057.8</ele>
        <time>2022-07-18T07:19:38Z</time>
      </trkpt>
      <trkpt lat="44.70784" lon="6.92524">
        <ele>2058</ele>
        <time>2022-07-18T07:19:39Z</time>
      </trkpt>
      <trkpt lat="44.70783" lon="6.92527">
        <ele>2058.4</ele>
        <time>2022-07-18T07:19:40Z</time>
      </trkpt>
      <trkpt lat="44.70782" lon="6.92529">
        <ele>2058.6</ele>
        <time>2022-07-18T07:19:41Z</time>
      </trkpt>
      <trkpt lat="44.70781" lon="6.92532">
        <ele>2058.6</ele>
        <time>2022-07-18T07:19:42Z</time>
      </trkpt>
      <trkpt lat="44.7078" lon="6.92534">
        <ele>2059</ele>
        <time>2022-07-18T07:19:43Z</time>
      </trkpt>
      <trkpt lat="44.70779" lon="6.92536">
        <ele>2059.2</ele>
        <time>2022-07-18T07:19:44Z</time>
      </trkpt>
      <trkpt lat="44.70777" lon="6.92539">
        <ele>2059.4</ele>
        <time>2022-07-18T07:19:45Z</time>
      </trkpt>
      <trkpt lat="44.70776" lon="6.92541">
        <ele>2059.4</ele>
        <time>2022-07-18T07:19:46Z</time>
      </trkpt>
      <trkpt lat="44.70775" lon="6.92544">
        <ele>2059.8</ele>
        <time>2022-07-18T07:19:47Z</time>
      </trkpt>
      <trkpt lat="44.70774" lon="6.92547">
        <ele>2060</ele>
        <time>2022-07-18T07:19:48Z</time>
      </trkpt>
      <trkpt lat="44.70773" lon="6.9255">
        <ele>2060.2</ele>
        <time>2022-07-18T07:19:49Z</time>
      </trkpt>
      <trkpt lat="44.70772" lon="6.92552">
        <ele>2060.2</ele>
        <time>2022-07-18T07:19:50Z</time>
      </trkpt>
      <trkpt lat="44.70771" lon="6.92555">
        <ele>2060.4</ele>
        <time>2022-07-18T07:19:51Z</time>
      </trkpt>
      <trkpt lat="44.70769" lon="6.92558">
        <ele>2060.4</ele>
        <time>2022-07-18T07:19:52Z</time>
      </trkpt>
      <trkpt lat="44.70768" lon="6.9256">
        <ele>2060.8</ele>
        <time>2022-07-18T07:19:53Z</time>
      </trkpt>
      <trkpt lat="44.70767" lon="6.92563">
        <ele>2060.8</ele>
        <time>2022-07-18T07:19:54Z</time>
      </trkpt>
      <trkpt lat="44.70766" lon="6.92565">
        <ele>2061.2</ele>
        <time>2022-07-18T07:19:55Z</time>
      </trkpt>
      <trkpt lat="44.70764" lon="6.92568">
        <ele>2061.4</ele>
        <time>2022-07-18T07:19:57Z</time>
      </trkpt>
      <trkpt lat="44.70763" lon="6.9257">
        <ele>2061.4</ele>
        <time>2022-07-18T07:19:58Z</time>
      </trkpt>
      <trkpt lat="44.70762" lon="6.92573">
        <ele>2061.6</ele>
        <time>2022-07-18T07:19:59Z</time>
      </trkpt>
      <trkpt lat="44.70761" lon="6.92575">
        <ele>2061.8</ele>
        <time>2022-07-18T07:20:00Z</time>
      </trkpt>
      <trkpt lat="44.70759" lon="6.92578">
        <ele>2061.8</ele>
        <time>2022-07-18T07:20:01Z</time>
      </trkpt>
      <trkpt lat="44.70758" lon="6.92581">
        <ele>2062.4</ele>
        <time>2022-07-18T07:20:02Z</time>
      </trkpt>
      <trkpt lat="44.70756" lon="6.92586">
        <ele>2062.6</ele>
        <time>2022-07-18T07:20:03Z</time>
      </trkpt>
      <trkpt lat="44.70755" lon="6.92589">
        <ele>2062.8</ele>
        <time>2022-07-18T07:20:04Z</time>
      </trkpt>
      <trkpt lat="44.70754" lon="6.92591">
        <ele>2063</ele>
        <time>2022-07-18T07:20:05Z</time>
      </trkpt>
      <trkpt lat="44.70753" lon="6.92594">
        <ele>2063.4</ele>
        <time>2022-07-18T07:20:06Z</time>
      </trkpt>
      <trkpt lat="44.70752" lon="6.92596">
        <ele>2063.6</ele>
        <time>2022-07-18T07:20:07Z</time>
      </trkpt>
      <trkpt lat="44.7075" lon="6.92598">
        <ele>2063.8</ele>
        <time>2022-07-18T07:20:08Z</time>
      </trkpt>
      <trkpt lat="44.70749" lon="6.92601">
        <ele>2064</ele>
        <time>2022-07-18T07:20:09Z</time>
      </trkpt>
      <trkpt lat="44.70748" lon="6.92603">
        <ele>2064.2</ele>
        <time>2022-07-18T07:20:10Z</time>
      </trkpt>
      <trkpt lat="44.70747" lon="6.92605">
        <ele>2064.2</ele>
        <time>2022-07-18T07:20:11Z</time>
      </trkpt>
      <trkpt lat="44.70746" lon="6.92608">
        <ele>2064.6</ele>
        <time>2022-07-18T07:20:12Z</time>
      </trkpt>
      <trkpt lat="44.70745" lon="6.92611">
        <ele>2064.8</ele>
        <time>2022-07-18T07:20:13Z</time>
      </trkpt>
      <trkpt lat="44.70744" lon="6.92613">
        <ele>2064.8</ele>
        <time>2022-07-18T07:20:14Z</time>
      </trkpt>
      <trkpt lat="44.70743" lon="6.92616">
        <ele>2065.2</ele>
        <time>2022-07-18T07:20:15Z</time>
      </trkpt>
      <trkpt lat="44.70742" lon="6.92618">
        <ele>2065.2</ele>
        <time>2022-07-18T07:20:16Z</time>
      </trkpt>
      <trkpt lat="44.70741" lon="6.92621">
        <ele>2065.6</ele>
        <time>2022-07-18T07:20:17Z</time>
      </trkpt>
      <trkpt lat="44.7074" lon="6.92624">
        <ele>2065.6</ele>
        <time>2022-07-18T07:20:18Z</time>
      </trkpt>
      <trkpt lat="44.70739" lon="6.92626">
        <ele>2066</ele>
        <time>2022-07-18T07:20:19Z</time>
      </trkpt>
      <trkpt lat="44.70738" lon="6.92629">
        <ele>2066</ele>
        <time>2022-07-18T07:20:20Z</time>
      </trkpt>
      <trkpt lat="44.70737" lon="6.92632">
        <ele>2066.2</ele>
        <time>2022-07-18T07:20:21Z</time>
      </trkpt>
      <trkpt lat="44.70736" lon="6.92635">
        <ele>2066.2</ele>
        <time>2022-07-18T07:20:22Z</time>
      </trkpt>
      <trkpt lat="44.70735" lon="6.92637">
        <ele>2066.6</ele>
        <time>2022-07-18T07:20:23Z</time>
      </trkpt>
      <trkpt lat="44.70734" lon="6.9264">
        <ele>2066.6</ele>
        <time>2022-07-18T07:20:24Z</time>
      </trkpt>
      <trkpt lat="44.70733" lon="6.92643">
        <ele>2067</ele>
        <time>2022-07-18T07:20:25Z</time>
      </trkpt>
      <trkpt lat="44.70731" lon="6.92646">
        <ele>2067.2</ele>
        <time>2022-07-18T07:20:26Z</time>
      </trkpt>
      <trkpt lat="44.7073" lon="6.92649">
        <ele>2067.2</ele>
        <time>2022-07-18T07:20:27Z</time>
      </trkpt>
      <trkpt lat="44.70729" lon="6.92652">
        <ele>2067.6</ele>
        <time>2022-07-18T07:20:28Z</time>
      </trkpt>
      <trkpt lat="44.70728" lon="6.92655">
        <ele>2067.6</ele>
        <time>2022-07-18T07:20:29Z</time>
      </trkpt>
      <trkpt lat="44.70727" lon="6.92658">
        <ele>2067.8</ele>
        <time>2022-07-18T07:20:30Z</time>
      </trkpt>
      <trkpt lat="44.70726" lon="6.92661">
        <ele>2067.8</ele>
        <time>2022-07-18T07:20:31Z</time>
      </trkpt>
      <trkpt lat="44.70725" lon="6.92664">
        <ele>2068.2</ele>
        <time>2022-07-18T07:20:32Z</time>
      </trkpt>
      <trkpt lat="44.70724" lon="6.92667">
        <ele>2068.2</ele>
        <time>2022-07-18T07:20:33Z</time>
      </trkpt>
      <trkpt lat="44.70723" lon="6.9267">
        <ele>2068.4</ele>
        <time>2022-07-18T07:20:34Z</time>
      </trkpt>
      <trkpt lat="44.70722" lon="6.92673">
        <ele>2068.4</ele>
        <time>2022-07-18T07:20:35Z</time>
      </trkpt>
      <trkpt lat="44.70721" lon="6.92676">
        <ele>2068.8</ele>
        <time>2022-07-18T07:20:36Z</time>
      </trkpt>
      <trkpt lat="44.7072" lon="6.92679">
        <ele>2069</ele>
        <time>2022-07-18T07:20:37Z</time>
      </trkpt>
      <trkpt lat="44.70719" lon="6.92682">
        <ele>2069</ele>
        <time>2022-07-18T07:20:38Z</time>
      </trkpt>
      <trkpt lat="44.70718" lon="6.92685">
        <ele>2069.2</ele>
        <time>2022-07-18T07:20:39Z</time>
      </trkpt>
      <trkpt lat="44.70717" lon="6.92688">
        <ele>2069.2</ele>
        <time>2022-07-18T07:20:40Z</time>
      </trkpt>
      <trkpt lat="44.70717" lon="6.92691">
        <ele>2069.6</ele>
        <time>2022-07-18T07:20:41Z</time>
      </trkpt>
      <trkpt lat="44.70716" lon="6.92697">
        <ele>2069.8</ele>
        <time>2022-07-18T07:20:42Z</time>
      </trkpt>
      <trkpt lat="44.70715" lon="6.927">
        <ele>2070</ele>
        <time>2022-07-18T07:20:43Z</time>
      </trkpt>
      <trkpt lat="44.70714" lon="6.92703">
        <ele>2070</ele>
        <time>2022-07-18T07:20:44Z</time>
      </trkpt>
      <trkpt lat="44.70714" lon="6.92706">
        <ele>2070.4</ele>
        <time>2022-07-18T07:20:45Z</time>
      </trkpt>
      <trkpt lat="44.70714" lon="6.92709">
        <ele>2070.4</ele>
        <time>2022-07-18T07:20:46Z</time>
      </trkpt>
      <trkpt lat="44.70713" lon="6.92712">
        <ele>2070.6</ele>
        <time>2022-07-18T07:20:47Z</time>
      </trkpt>
      <trkpt lat="44.70713" lon="6.92715">
        <ele>2070.6</ele>
        <time>2022-07-18T07:20:48Z</time>
      </trkpt>
      <trkpt lat="44.70713" lon="6.92718">
        <ele>2071</ele>
        <time>2022-07-18T07:20:49Z</time>
      </trkpt>
      <trkpt lat="44.70713" lon="6.92721">
        <ele>2071</ele>
        <time>2022-07-18T07:20:50Z</time>
      </trkpt>
      <trkpt lat="44.70713" lon="6.92724">
        <ele>2071.2</ele>
        <time>2022-07-18T07:20:51Z</time>
      </trkpt>
      <trkpt lat="44.70712" lon="6.92727">
        <ele>2071.2</ele>
        <time>2022-07-18T07:20:52Z</time>
      </trkpt>
      <trkpt lat="44.70712" lon="6.9273">
        <ele>2071.6</ele>
        <time>2022-07-18T07:20:53Z</time>
      </trkpt>
      <trkpt lat="44.70711" lon="6.92733">
        <ele>2071.6</ele>
        <time>2022-07-18T07:20:54Z</time>
      </trkpt>
      <trkpt lat="44.7071" lon="6.92736">
        <ele>2071.8</ele>
        <time>2022-07-18T07:20:55Z</time>
      </trkpt>
      <trkpt lat="44.7071" lon="6.92739">
        <ele>2071.8</ele>
        <time>2022-07-18T07:20:56Z</time>
      </trkpt>
      <trkpt lat="44.70709" lon="6.92741">
        <ele>2072.2</ele>
        <time>2022-07-18T07:20:57Z</time>
      </trkpt>
      <trkpt lat="44.70708" lon="6.92744">
        <ele>2072.2</ele>
        <time>2022-07-18T07:20:58Z</time>
      </trkpt>
      <trkpt lat="44.70708" lon="6.92747">
        <ele>2072.4</ele>
        <time>2022-07-18T07:20:59Z</time>
      </trkpt>
      <trkpt lat="44.70707" lon="6.9275">
        <ele>2072.4</ele>
        <time>2022-07-18T07:21:00Z</time>
      </trkpt>
      <trkpt lat="44.70706" lon="6.92753">
        <ele>2072.8</ele>
        <time>2022-07-18T07:21:01Z</time>
      </trkpt>
      <trkpt lat="44.70705" lon="6.92756">
        <ele>2072.8</ele>
        <time>2022-07-18T07:21:02Z</time>
      </trkpt>
      <trkpt lat="44.70705" lon="6.92759">
        <ele>2073</ele>
        <time>2022-07-18T07:21:03Z</time>
      </trkpt>
      <trkpt lat="44.70704" lon="6.92763">
        <ele>2073</ele>
        <time>2022-07-18T07:21:04Z</time>
      </trkpt>
      <trkpt lat="44.70703" lon="6.92766">
        <ele>2073</ele>
        <time>2022-07-18T07:21:05Z</time>
      </trkpt>
      <trkpt lat="44.70702" lon="6.92769">
        <ele>2073.2</ele>
        <time>2022-07-18T07:21:06Z</time>
      </trkpt>
      <trkpt lat="44.70701" lon="6.92773">
        <ele>2073.2</ele>
        <time>2022-07-18T07:21:07Z</time>
      </trkpt>
      <trkpt lat="44.707" lon="6.92776">
        <ele>2073.4</ele>
        <time>2022-07-18T07:21:08Z</time>
      </trkpt>
      <trkpt lat="44.70699" lon="6.9278">
        <ele>2073.4</ele>
        <time>2022-07-18T07:21:09Z</time>
      </trkpt>
      <trkpt lat="44.70698" lon="6.92783">
        <ele>2073.6</ele>
        <time>2022-07-18T07:21:10Z</time>
      </trkpt>
      <trkpt lat="44.70697" lon="6.92787">
        <ele>2073.6</ele>
        <time>2022-07-18T07:21:11Z</time>
      </trkpt>
      <trkpt lat="44.70695" lon="6.92791">
        <ele>2073.6</ele>
        <time>2022-07-18T07:21:12Z</time>
      </trkpt>
      <trkpt lat="44.70694" lon="6.92795">
        <ele>2073.8</ele>
        <time>2022-07-18T07:21:13Z</time>
      </trkpt>
      <trkpt lat="44.70693" lon="6.92799">
        <ele>2073.8</ele>
        <time>2022-07-18T07:21:14Z</time>
      </trkpt>
      <trkpt lat="44.70692" lon="6.92803">
        <ele>2074.2</ele>
        <time>2022-07-18T07:21:15Z</time>
      </trkpt>
      <trkpt lat="44.70691" lon="6.92806">
        <ele>2074.2</ele>
        <time>2022-07-18T07:21:16Z</time>
      </trkpt>
      <trkpt lat="44.7069" lon="6.92811">
        <ele>2074.2</ele>
        <time>2022-07-18T07:21:17Z</time>
      </trkpt>
      <trkpt lat="44.70689" lon="6.92815">
        <ele>2074.4</ele>
        <time>2022-07-18T07:21:18Z</time>
      </trkpt>
      <trkpt lat="44.70688" lon="6.92819">
        <ele>2074.4</ele>
        <time>2022-07-18T07:21:19Z</time>
      </trkpt>
      <trkpt lat="44.70687" lon="6.92822">
        <ele>2074.6</ele>
        <time>2022-07-18T07:21:20Z</time>
      </trkpt>
      <trkpt lat="44.70686" lon="6.92826">
        <ele>2074.6</ele>
        <time>2022-07-18T07:21:21Z</time>
      </trkpt>
      <trkpt lat="44.70686" lon="6.9283">
        <ele>2074.8</ele>
        <time>2022-07-18T07:21:22Z</time>
      </trkpt>
      <trkpt lat="44.70685" lon="6.92834">
        <ele>2074.8</ele>
        <time>2022-07-18T07:21:23Z</time>
      </trkpt>
      <trkpt lat="44.70684" lon="6.92837">
        <ele>2075.2</ele>
        <time>2022-07-18T07:21:24Z</time>
      </trkpt>
      <trkpt lat="44.70683" lon="6.92841">
        <ele>2075.2</ele>
        <time>2022-07-18T07:21:25Z</time>
      </trkpt>
      <trkpt lat="44.70682" lon="6.92845">
        <ele>2075.4</ele>
        <time>2022-07-18T07:21:26Z</time>
      </trkpt>
      <trkpt lat="44.70681" lon="6.92849">
        <ele>2075.4</ele>
        <time>2022-07-18T07:21:27Z</time>
      </trkpt>
      <trkpt lat="44.7068" lon="6.92853">
        <ele>2075.4</ele>
        <time>2022-07-18T07:21:28Z</time>
      </trkpt>
      <trkpt lat="44.70679" lon="6.92858">
        <ele>2075.4</ele>
        <time>2022-07-18T07:21:29Z</time>
      </trkpt>
      <trkpt lat="44.70678" lon="6.92863">
        <ele>2075.8</ele>
        <time>2022-07-18T07:21:30Z</time>
      </trkpt>
      <trkpt lat="44.70677" lon="6.92867">
        <ele>2075.8</ele>
        <time>2022-07-18T07:21:31Z</time>
      </trkpt>
      <trkpt lat="44.70675" lon="6.92873">
        <ele>2075.8</ele>
        <time>2022-07-18T07:21:32Z</time>
      </trkpt>
      <trkpt lat="44.70673" lon="6.92879">
        <ele>2075.8</ele>
        <time>2022-07-18T07:21:33Z</time>
      </trkpt>
      <trkpt lat="44.70672" lon="6.92885">
        <ele>2075.8</ele>
        <time>2022-07-18T07:21:34Z</time>
      </trkpt>
      <trkpt lat="44.7067" lon="6.92892">
        <ele>2075.4</ele>
        <time>2022-07-18T07:21:35Z</time>
      </trkpt>
      <trkpt lat="44.70667" lon="6.92898">
        <ele>2075.4</ele>
        <time>2022-07-18T07:21:36Z</time>
      </trkpt>
      <trkpt lat="44.70665" lon="6.92904">
        <ele>2075.4</ele>
        <time>2022-07-18T07:21:37Z</time>
      </trkpt>
      <trkpt lat="44.70661" lon="6.92908">
        <ele>2075.4</ele>
        <time>2022-07-18T07:21:38Z</time>
      </trkpt>
      <trkpt lat="44.70658" lon="6.92912">
        <ele>2075.4</ele>
        <time>2022-07-18T07:21:39Z</time>
      </trkpt>
      <trkpt lat="44.70654" lon="6.92916">
        <ele>2075.4</ele>
        <time>2022-07-18T07:21:40Z</time>
      </trkpt>
      <trkpt lat="44.70651" lon="6.92919">
        <ele>2075.4</ele>
        <time>2022-07-18T07:21:41Z</time>
      </trkpt>
      <trkpt lat="44.70647" lon="6.92922">
        <ele>2075.8</ele>
        <time>2022-07-18T07:21:42Z</time>
      </trkpt>
      <trkpt lat="44.70644" lon="6.92925">
        <ele>2075.8</ele>
        <time>2022-07-18T07:21:43Z</time>
      </trkpt>
      <trkpt lat="44.70641" lon="6.92928">
        <ele>2076.2</ele>
        <time>2022-07-18T07:21:44Z</time>
      </trkpt>
      <trkpt lat="44.70638" lon="6.92931">
        <ele>2076.2</ele>
        <time>2022-07-18T07:21:45Z</time>
      </trkpt>
      <trkpt lat="44.70635" lon="6.92934">
        <ele>2076.4</ele>
        <time>2022-07-18T07:21:46Z</time>
      </trkpt>
      <trkpt lat="44.70633" lon="6.92937">
        <ele>2076.8</ele>
        <time>2022-07-18T07:21:47Z</time>
      </trkpt>
      <trkpt lat="44.7063" lon="6.92941">
        <ele>2077</ele>
        <time>2022-07-18T07:21:48Z</time>
      </trkpt>
      <trkpt lat="44.70627" lon="6.92945">
        <ele>2077</ele>
        <time>2022-07-18T07:21:50Z</time>
      </trkpt>
      <trkpt lat="44.70625" lon="6.92949">
        <ele>2077</ele>
        <time>2022-07-18T07:21:51Z</time>
      </trkpt>
      <trkpt lat="44.70622" lon="6.92953">
        <ele>2077.2</ele>
        <time>2022-07-18T07:21:52Z</time>
      </trkpt>
      <trkpt lat="44.7062" lon="6.92957">
        <ele>2077.2</ele>
        <time>2022-07-18T07:21:53Z</time>
      </trkpt>
      <trkpt lat="44.70617" lon="6.92961">
        <ele>2077.2</ele>
        <time>2022-07-18T07:21:54Z</time>
      </trkpt>
      <trkpt lat="44.70615" lon="6.92965">
        <ele>2077.2</ele>
        <time>2022-07-18T07:21:55Z</time>
      </trkpt>
      <trkpt lat="44.70613" lon="6.92969">
        <ele>2077.6</ele>
        <time>2022-07-18T07:21:56Z</time>
      </trkpt>
      <trkpt lat="44.7061" lon="6.92972">
        <ele>2077.6</ele>
        <time>2022-07-18T07:21:57Z</time>
      </trkpt>
      <trkpt lat="44.70608" lon="6.92975">
        <ele>2077.8</ele>
        <time>2022-07-18T07:21:58Z</time>
      </trkpt>
      <trkpt lat="44.70606" lon="6.92978">
        <ele>2077.8</ele>
        <time>2022-07-18T07:21:59Z</time>
      </trkpt>
      <trkpt lat="44.70603" lon="6.92982">
        <ele>2078.2</ele>
        <time>2022-07-18T07:22:00Z</time>
      </trkpt>
      <trkpt lat="44.70601" lon="6.92985">
        <ele>2078.2</ele>
        <time>2022-07-18T07:22:01Z</time>
      </trkpt>
      <trkpt lat="44.70599" lon="6.92988">
        <ele>2078.6</ele>
        <time>2022-07-18T07:22:02Z</time>
      </trkpt>
      <trkpt lat="44.70597" lon="6.92991">
        <ele>2078.6</ele>
        <time>2022-07-18T07:22:03Z</time>
      </trkpt>
      <trkpt lat="44.70595" lon="6.92994">
        <ele>2079</ele>
        <time>2022-07-18T07:22:04Z</time>
      </trkpt>
      <trkpt lat="44.70592" lon="6.92998">
        <ele>2079</ele>
        <time>2022-07-18T07:22:05Z</time>
      </trkpt>
      <trkpt lat="44.7059" lon="6.93001">
        <ele>2079.2</ele>
        <time>2022-07-18T07:22:06Z</time>
      </trkpt>
      <trkpt lat="44.70588" lon="6.93004">
        <ele>2079.2</ele>
        <time>2022-07-18T07:22:07Z</time>
      </trkpt>
      <trkpt lat="44.70587" lon="6.93008">
        <ele>2079.4</ele>
        <time>2022-07-18T07:22:08Z</time>
      </trkpt>
      <trkpt lat="44.70585" lon="6.93011">
        <ele>2079.4</ele>
        <time>2022-07-18T07:22:09Z</time>
      </trkpt>
      <trkpt lat="44.70583" lon="6.93015">
        <ele>2079.6</ele>
        <time>2022-07-18T07:22:10Z</time>
      </trkpt>
      <trkpt lat="44.70581" lon="6.93018">
        <ele>2079.6</ele>
        <time>2022-07-18T07:22:11Z</time>
      </trkpt>
      <trkpt lat="44.70579" lon="6.93022">
        <ele>2080</ele>
        <time>2022-07-18T07:22:12Z</time>
      </trkpt>
      <trkpt lat="44.70578" lon="6.93026">
        <ele>2080</ele>
        <time>2022-07-18T07:22:13Z</time>
      </trkpt>
      <trkpt lat="44.70576" lon="6.9303">
        <ele>2080.2</ele>
        <time>2022-07-18T07:22:14Z</time>
      </trkpt>
      <trkpt lat="44.70574" lon="6.93034">
        <ele>2080.2</ele>
        <time>2022-07-18T07:22:15Z</time>
      </trkpt>
      <trkpt lat="44.70573" lon="6.93038">
        <ele>2080.6</ele>
        <time>2022-07-18T07:22:16Z</time>
      </trkpt>
      <trkpt lat="44.70571" lon="6.93042">
        <ele>2080.6</ele>
        <time>2022-07-18T07:22:17Z</time>
      </trkpt>
      <trkpt lat="44.70569" lon="6.93046">
        <ele>2080.8</ele>
        <time>2022-07-18T07:22:18Z</time>
      </trkpt>
      <trkpt lat="44.70568" lon="6.9305">
        <ele>2080.8</ele>
        <time>2022-07-18T07:22:19Z</time>
      </trkpt>
      <trkpt lat="44.70566" lon="6.93055">
        <ele>2080.8</ele>
        <time>2022-07-18T07:22:20Z</time>
      </trkpt>
      <trkpt lat="44.70565" lon="6.9306">
        <ele>2081.2</ele>
        <time>2022-07-18T07:22:21Z</time>
      </trkpt>
      <trkpt lat="44.70563" lon="6.93064">
        <ele>2081.2</ele>
        <time>2022-07-18T07:22:22Z</time>
      </trkpt>
      <trkpt lat="44.70562" lon="6.93069">
        <ele>2081.2</ele>
        <time>2022-07-18T07:22:23Z</time>
      </trkpt>
      <trkpt lat="44.7056" lon="6.93074">
        <ele>2081.2</ele>
        <time>2022-07-18T07:22:24Z</time>
      </trkpt>
      <trkpt lat="44.70559" lon="6.93079">
        <ele>2081.4</ele>
        <time>2022-07-18T07:22:25Z</time>
      </trkpt>
      <trkpt lat="44.70557" lon="6.93083">
        <ele>2081.4</ele>
        <time>2022-07-18T07:22:26Z</time>
      </trkpt>
      <trkpt lat="44.70556" lon="6.93088">
        <ele>2081.8</ele>
        <time>2022-07-18T07:22:27Z</time>
      </trkpt>
      <trkpt lat="44.70555" lon="6.93092">
        <ele>2081.8</ele>
        <time>2022-07-18T07:22:28Z</time>
      </trkpt>
      <trkpt lat="44.70554" lon="6.93097">
        <ele>2082</ele>
        <time>2022-07-18T07:22:29Z</time>
      </trkpt>
      <trkpt lat="44.70552" lon="6.93101">
        <ele>2082</ele>
        <time>2022-07-18T07:22:30Z</time>
      </trkpt>
      <trkpt lat="44.7055" lon="6.93105">
        <ele>2082.2</ele>
        <time>2022-07-18T07:22:31Z</time>
      </trkpt>
      <trkpt lat="44.70549" lon="6.9311">
        <ele>2082.4</ele>
        <time>2022-07-18T07:22:32Z</time>
      </trkpt>
      <trkpt lat="44.70547" lon="6.93114">
        <ele>2082.4</ele>
        <time>2022-07-18T07:22:33Z</time>
      </trkpt>
      <trkpt lat="44.70546" lon="6.93118">
        <ele>2082.8</ele>
        <time>2022-07-18T07:22:34Z</time>
      </trkpt>
      <trkpt lat="44.70545" lon="6.93122">
        <ele>2082.8</ele>
        <time>2022-07-18T07:22:35Z</time>
      </trkpt>
      <trkpt lat="44.70544" lon="6.93127">
        <ele>2083.2</ele>
        <time>2022-07-18T07:22:36Z</time>
      </trkpt>
      <trkpt lat="44.70543" lon="6.93131">
        <ele>2083.2</ele>
        <time>2022-07-18T07:22:37Z</time>
      </trkpt>
      <trkpt lat="44.70541" lon="6.93135">
        <ele>2083.6</ele>
        <time>2022-07-18T07:22:38Z</time>
      </trkpt>
      <trkpt lat="44.7054" lon="6.93139">
        <ele>2083.6</ele>
        <time>2022-07-18T07:22:39Z</time>
      </trkpt>
      <trkpt lat="44.70539" lon="6.93143">
        <ele>2084</ele>
        <time>2022-07-18T07:22:40Z</time>
      </trkpt>
      <trkpt lat="44.70539" lon="6.93147">
        <ele>2084.2</ele>
        <time>2022-07-18T07:22:41Z</time>
      </trkpt>
      <trkpt lat="44.70538" lon="6.93151">
        <ele>2084.2</ele>
        <time>2022-07-18T07:22:42Z</time>
      </trkpt>
      <trkpt lat="44.70537" lon="6.93155">
        <ele>2084.6</ele>
        <time>2022-07-18T07:22:43Z</time>
      </trkpt>
      <trkpt lat="44.70536" lon="6.93159">
        <ele>2084.6</ele>
        <time>2022-07-18T07:22:44Z</time>
      </trkpt>
      <trkpt lat="44.70535" lon="6.93162">
        <ele>2085</ele>
        <time>2022-07-18T07:22:45Z</time>
      </trkpt>
      <trkpt lat="44.70534" lon="6.93166">
        <ele>2085.2</ele>
        <time>2022-07-18T07:22:46Z</time>
      </trkpt>
      <trkpt lat="44.70533" lon="6.93169">
        <ele>2085.4</ele>
        <time>2022-07-18T07:22:47Z</time>
      </trkpt>
      <trkpt lat="44.70532" lon="6.93173">
        <ele>2085.6</ele>
        <time>2022-07-18T07:22:48Z</time>
      </trkpt>
      <trkpt lat="44.7053" lon="6.93176">
        <ele>2085.8</ele>
        <time>2022-07-18T07:22:49Z</time>
      </trkpt>
      <trkpt lat="44.70528" lon="6.93179">
        <ele>2086.2</ele>
        <time>2022-07-18T07:22:50Z</time>
      </trkpt>
      <trkpt lat="44.70526" lon="6.93181">
        <ele>2086.4</ele>
        <time>2022-07-18T07:22:51Z</time>
      </trkpt>
      <trkpt lat="44.70523" lon="6.93183">
        <ele>2086.6</ele>
        <time>2022-07-18T07:22:52Z</time>
      </trkpt>
      <trkpt lat="44.70521" lon="6.93186">
        <ele>2086.8</ele>
        <time>2022-07-18T07:22:53Z</time>
      </trkpt>
      <trkpt lat="44.70519" lon="6.93188">
        <ele>2087</ele>
        <time>2022-07-18T07:22:54Z</time>
      </trkpt>
      <trkpt lat="44.70517" lon="6.93189">
        <ele>2087</ele>
        <time>2022-07-18T07:22:55Z</time>
      </trkpt>
      <trkpt lat="44.70515" lon="6.93191">
        <ele>2087.6</ele>
        <time>2022-07-18T07:22:56Z</time>
      </trkpt>
      <trkpt lat="44.70512" lon="6.93192">
        <ele>2087.6</ele>
        <time>2022-07-18T07:22:57Z</time>
      </trkpt>
      <trkpt lat="44.7051" lon="6.93193">
        <ele>2088</ele>
        <time>2022-07-18T07:22:58Z</time>
      </trkpt>
      <trkpt lat="44.70508" lon="6.93195">
        <ele>2088</ele>
        <time>2022-07-18T07:22:59Z</time>
      </trkpt>
      <trkpt lat="44.70506" lon="6.93196">
        <ele>2088.4</ele>
        <time>2022-07-18T07:23:00Z</time>
      </trkpt>
      <trkpt lat="44.70504" lon="6.93197">
        <ele>2088.6</ele>
        <time>2022-07-18T07:23:01Z</time>
      </trkpt>
      <trkpt lat="44.70502" lon="6.93199">
        <ele>2089</ele>
        <time>2022-07-18T07:23:02Z</time>
      </trkpt>
      <trkpt lat="44.705" lon="6.932">
        <ele>2089.2</ele>
        <time>2022-07-18T07:23:03Z</time>
      </trkpt>
      <trkpt lat="44.70498" lon="6.93202">
        <ele>2089.2</ele>
        <time>2022-07-18T07:23:04Z</time>
      </trkpt>
      <trkpt lat="44.70496" lon="6.93203">
        <ele>2089.4</ele>
        <time>2022-07-18T07:23:05Z</time>
      </trkpt>
      <trkpt lat="44.70494" lon="6.93204">
        <ele>2089.4</ele>
        <time>2022-07-18T07:23:06Z</time>
      </trkpt>
      <trkpt lat="44.70492" lon="6.93206">
        <ele>2089.8</ele>
        <time>2022-07-18T07:23:07Z</time>
      </trkpt>
      <trkpt lat="44.7049" lon="6.93207">
        <ele>2090</ele>
        <time>2022-07-18T07:23:08Z</time>
      </trkpt>
      <trkpt lat="44.70488" lon="6.93209">
        <ele>2090</ele>
        <time>2022-07-18T07:23:09Z</time>
      </trkpt>
      <trkpt lat="44.70487" lon="6.93211">
        <ele>2090.2</ele>
        <time>2022-07-18T07:23:10Z</time>
      </trkpt>
      <trkpt lat="44.70485" lon="6.93214">
        <ele>2090.2</ele>
        <time>2022-07-18T07:23:11Z</time>
      </trkpt>
      <trkpt lat="44.70483" lon="6.93216">
        <ele>2090.6</ele>
        <time>2022-07-18T07:23:12Z</time>
      </trkpt>
      <trkpt lat="44.70481" lon="6.93219">
        <ele>2090.6</ele>
        <time>2022-07-18T07:23:13Z</time>
      </trkpt>
      <trkpt lat="44.7048" lon="6.93222">
        <ele>2090.8</ele>
        <time>2022-07-18T07:23:14Z</time>
      </trkpt>
      <trkpt lat="44.70478" lon="6.93225">
        <ele>2090.8</ele>
        <time>2022-07-18T07:23:15Z</time>
      </trkpt>
      <trkpt lat="44.70477" lon="6.93227">
        <ele>2091.2</ele>
        <time>2022-07-18T07:23:16Z</time>
      </trkpt>
      <trkpt lat="44.70476" lon="6.9323">
        <ele>2091.2</ele>
        <time>2022-07-18T07:23:17Z</time>
      </trkpt>
      <trkpt lat="44.70474" lon="6.93233">
        <ele>2091.4</ele>
        <time>2022-07-18T07:23:18Z</time>
      </trkpt>
      <trkpt lat="44.70473" lon="6.93236">
        <ele>2091.4</ele>
        <time>2022-07-18T07:23:19Z</time>
      </trkpt>
      <trkpt lat="44.70472" lon="6.93238">
        <ele>2091.8</ele>
        <time>2022-07-18T07:23:20Z</time>
      </trkpt>
      <trkpt lat="44.70471" lon="6.93241">
        <ele>2091.8</ele>
        <time>2022-07-18T07:23:21Z</time>
      </trkpt>
      <trkpt lat="44.70471" lon="6.93244">
        <ele>2092</ele>
        <time>2022-07-18T07:23:22Z</time>
      </trkpt>
      <trkpt lat="44.7047" lon="6.93247">
        <ele>2092</ele>
        <time>2022-07-18T07:23:23Z</time>
      </trkpt>
      <trkpt lat="44.70469" lon="6.9325">
        <ele>2092.4</ele>
        <time>2022-07-18T07:23:24Z</time>
      </trkpt>
      <trkpt lat="44.70468" lon="6.93253">
        <ele>2092.4</ele>
        <time>2022-07-18T07:23:25Z</time>
      </trkpt>
      <trkpt lat="44.70467" lon="6.93256">
        <ele>2092.6</ele>
        <time>2022-07-18T07:23:26Z</time>
      </trkpt>
      <trkpt lat="44.70466" lon="6.93259">
        <ele>2092.6</ele>
        <time>2022-07-18T07:23:27Z</time>
      </trkpt>
      <trkpt lat="44.70465" lon="6.93262">
        <ele>2093</ele>
        <time>2022-07-18T07:23:28Z</time>
      </trkpt>
      <trkpt lat="44.70463" lon="6.93265">
        <ele>2093</ele>
        <time>2022-07-18T07:23:29Z</time>
      </trkpt>
      <trkpt lat="44.70462" lon="6.93268">
        <ele>2093.2</ele>
        <time>2022-07-18T07:23:30Z</time>
      </trkpt>
      <trkpt lat="44.70461" lon="6.93271">
        <ele>2093.2</ele>
        <time>2022-07-18T07:23:31Z</time>
      </trkpt>
      <trkpt lat="44.7046" lon="6.93274">
        <ele>2093.6</ele>
        <time>2022-07-18T07:23:32Z</time>
      </trkpt>
      <trkpt lat="44.70458" lon="6.93277">
        <ele>2093.8</ele>
        <time>2022-07-18T07:23:33Z</time>
      </trkpt>
      <trkpt lat="44.70457" lon="6.9328">
        <ele>2093.8</ele>
        <time>2022-07-18T07:23:34Z</time>
      </trkpt>
      <trkpt lat="44.70455" lon="6.93283">
        <ele>2094.2</ele>
        <time>2022-07-18T07:23:35Z</time>
      </trkpt>
      <trkpt lat="44.70454" lon="6.93286">
        <ele>2094.2</ele>
        <time>2022-07-18T07:23:36Z</time>
      </trkpt>
      <trkpt lat="44.70453" lon="6.93289">
        <ele>2094.6</ele>
        <time>2022-07-18T07:23:37Z</time>
      </trkpt>
      <trkpt lat="44.70451" lon="6.93291">
        <ele>2094.6</ele>
        <time>2022-07-18T07:23:38Z</time>
      </trkpt>
      <trkpt lat="44.7045" lon="6.93294">
        <ele>2095</ele>
        <time>2022-07-18T07:23:39Z</time>
      </trkpt>
      <trkpt lat="44.70449" lon="6.93296">
        <ele>2095.2</ele>
        <time>2022-07-18T07:23:40Z</time>
      </trkpt>
      <trkpt lat="44.70447" lon="6.93298">
        <ele>2095.2</ele>
        <time>2022-07-18T07:23:41Z</time>
      </trkpt>
      <trkpt lat="44.70446" lon="6.933">
        <ele>2095.6</ele>
        <time>2022-07-18T07:23:42Z</time>
      </trkpt>
      <trkpt lat="44.70444" lon="6.93302">
        <ele>2095.8</ele>
        <time>2022-07-18T07:23:43Z</time>
      </trkpt>
      <trkpt lat="44.70442" lon="6.93304">
        <ele>2095.8</ele>
        <time>2022-07-18T07:23:44Z</time>
      </trkpt>
      <trkpt lat="44.70441" lon="6.93306">
        <ele>2096.2</ele>
        <time>2022-07-18T07:23:45Z</time>
      </trkpt>
      <trkpt lat="44.70439" lon="6.93308">
        <ele>2096.2</ele>
        <time>2022-07-18T07:23:46Z</time>
      </trkpt>
      <trkpt lat="44.70438" lon="6.93311">
        <ele>2096.4</ele>
        <time>2022-07-18T07:23:47Z</time>
      </trkpt>
      <trkpt lat="44.70436" lon="6.93313">
        <ele>2096.4</ele>
        <time>2022-07-18T07:23:48Z</time>
      </trkpt>
      <trkpt lat="44.70435" lon="6.93316">
        <ele>2096.8</ele>
        <time>2022-07-18T07:23:49Z</time>
      </trkpt>
      <trkpt lat="44.70433" lon="6.93319">
        <ele>2096.8</ele>
        <time>2022-07-18T07:23:50Z</time>
      </trkpt>
      <trkpt lat="44.70432" lon="6.93321">
        <ele>2097.2</ele>
        <time>2022-07-18T07:23:51Z</time>
      </trkpt>
      <trkpt lat="44.7043" lon="6.93324">
        <ele>2097.4</ele>
        <time>2022-07-18T07:23:52Z</time>
      </trkpt>
      <trkpt lat="44.70429" lon="6.93327">
        <ele>2097.6</ele>
        <time>2022-07-18T07:23:53Z</time>
      </trkpt>
      <trkpt lat="44.70428" lon="6.93329">
        <ele>2097.6</ele>
        <time>2022-07-18T07:23:54Z</time>
      </trkpt>
      <trkpt lat="44.70426" lon="6.93332">
        <ele>2097.8</ele>
        <time>2022-07-18T07:23:55Z</time>
      </trkpt>
      <trkpt lat="44.70425" lon="6.93335">
        <ele>2097.8</ele>
        <time>2022-07-18T07:23:56Z</time>
      </trkpt>
      <trkpt lat="44.70424" lon="6.93338">
        <ele>2098.2</ele>
        <time>2022-07-18T07:23:57Z</time>
      </trkpt>
      <trkpt lat="44.70423" lon="6.93341">
        <ele>2098.2</ele>
        <time>2022-07-18T07:23:58Z</time>
      </trkpt>
      <trkpt lat="44.70422" lon="6.93344">
        <ele>2098.6</ele>
        <time>2022-07-18T07:23:59Z</time>
      </trkpt>
      <trkpt lat="44.70421" lon="6.93348">
        <ele>2098.6</ele>
        <time>2022-07-18T07:24:00Z</time>
      </trkpt>
      <trkpt lat="44.7042" lon="6.93351">
        <ele>2098.8</ele>
        <time>2022-07-18T07:24:01Z</time>
      </trkpt>
      <trkpt lat="44.7042" lon="6.93354">
        <ele>2098.8</ele>
        <time>2022-07-18T07:24:02Z</time>
      </trkpt>
      <trkpt lat="44.70419" lon="6.93358">
        <ele>2099</ele>
        <time>2022-07-18T07:24:03Z</time>
      </trkpt>
      <trkpt lat="44.70418" lon="6.93361">
        <ele>2099</ele>
        <time>2022-07-18T07:24:04Z</time>
      </trkpt>
      <trkpt lat="44.70418" lon="6.93364">
        <ele>2099.4</ele>
        <time>2022-07-18T07:24:05Z</time>
      </trkpt>
      <trkpt lat="44.70417" lon="6.93367">
        <ele>2099.4</ele>
        <time>2022-07-18T07:24:06Z</time>
      </trkpt>
      <trkpt lat="44.70416" lon="6.93371">
        <ele>2099.6</ele>
        <time>2022-07-18T07:24:07Z</time>
      </trkpt>
      <trkpt lat="44.70415" lon="6.93374">
        <ele>2099.6</ele>
        <time>2022-07-18T07:24:08Z</time>
      </trkpt>
      <trkpt lat="44.70414" lon="6.93377">
        <ele>2100</ele>
        <time>2022-07-18T07:24:09Z</time>
      </trkpt>
      <trkpt lat="44.70414" lon="6.9338">
        <ele>2100.2</ele>
        <time>2022-07-18T07:24:10Z</time>
      </trkpt>
      <trkpt lat="44.70413" lon="6.93383">
        <ele>2100.4</ele>
        <time>2022-07-18T07:24:11Z</time>
      </trkpt>
      <trkpt lat="44.70412" lon="6.93386">
        <ele>2100.6</ele>
        <time>2022-07-18T07:24:12Z</time>
      </trkpt>
      <trkpt lat="44.70411" lon="6.93389">
        <ele>2100.6</ele>
        <time>2022-07-18T07:24:13Z</time>
      </trkpt>
      <trkpt lat="44.7041" lon="6.93391">
        <ele>2101</ele>
        <time>2022-07-18T07:24:14Z</time>
      </trkpt>
      <trkpt lat="44.70409" lon="6.93394">
        <ele>2101</ele>
        <time>2022-07-18T07:24:15Z</time>
      </trkpt>
      <trkpt lat="44.70408" lon="6.93396">
        <ele>2101</ele>
        <time>2022-07-18T07:24:16Z</time>
      </trkpt>
      <trkpt lat="44.70406" lon="6.93398">
        <ele>2101.4</ele>
        <time>2022-07-18T07:24:17Z</time>
      </trkpt>
      <trkpt lat="44.70405" lon="6.93401">
        <ele>2101.4</ele>
        <time>2022-07-18T07:24:18Z</time>
      </trkpt>
      <trkpt lat="44.70405" lon="6.93403">
        <ele>2101.6</ele>
        <time>2022-07-18T07:24:19Z</time>
      </trkpt>
      <trkpt lat="44.70404" lon="6.93405">
        <ele>2101.6</ele>
        <time>2022-07-18T07:24:20Z</time>
      </trkpt>
      <trkpt lat="44.70403" lon="6.93407">
        <ele>2102</ele>
        <time>2022-07-18T07:24:21Z</time>
      </trkpt>
      <trkpt lat="44.70403" lon="6.9341">
        <ele>2102.4</ele>
        <time>2022-07-18T07:24:22Z</time>
      </trkpt>
      <trkpt lat="44.70402" lon="6.93412">
        <ele>2102.6</ele>
        <time>2022-07-18T07:24:23Z</time>
      </trkpt>
      <trkpt lat="44.70401" lon="6.93414">
        <ele>2102.8</ele>
        <time>2022-07-18T07:24:24Z</time>
      </trkpt>
      <trkpt lat="44.704" lon="6.93417">
        <ele>2103</ele>
        <time>2022-07-18T07:24:25Z</time>
      </trkpt>
      <trkpt lat="44.70399" lon="6.93419">
        <ele>2103</ele>
        <time>2022-07-18T07:24:26Z</time>
      </trkpt>
      <trkpt lat="44.70398" lon="6.93421">
        <ele>2103.4</ele>
        <time>2022-07-18T07:24:27Z</time>
      </trkpt>
      <trkpt lat="44.70397" lon="6.93423">
        <ele>2103.6</ele>
        <time>2022-07-18T07:24:28Z</time>
      </trkpt>
      <trkpt lat="44.70396" lon="6.93426">
        <ele>2103.6</ele>
        <time>2022-07-18T07:24:29Z</time>
      </trkpt>
      <trkpt lat="44.70394" lon="6.93429">
        <ele>2104</ele>
        <time>2022-07-18T07:24:30Z</time>
      </trkpt>
      <trkpt lat="44.70393" lon="6.93431">
        <ele>2104.4</ele>
        <time>2022-07-18T07:24:31Z</time>
      </trkpt>
      <trkpt lat="44.70392" lon="6.93434">
        <ele>2104.6</ele>
        <time>2022-07-18T07:24:32Z</time>
      </trkpt>
      <trkpt lat="44.70391" lon="6.93437">
        <ele>2104.6</ele>
        <time>2022-07-18T07:24:33Z</time>
      </trkpt>
      <trkpt lat="44.7039" lon="6.93441">
        <ele>2105</ele>
        <time>2022-07-18T07:24:34Z</time>
      </trkpt>
      <trkpt lat="44.70388" lon="6.93444">
        <ele>2105.2</ele>
        <time>2022-07-18T07:24:35Z</time>
      </trkpt>
      <trkpt lat="44.70387" lon="6.93446">
        <ele>2105.4</ele>
        <time>2022-07-18T07:24:36Z</time>
      </trkpt>
      <trkpt lat="44.70385" lon="6.93449">
        <ele>2105.6</ele>
        <time>2022-07-18T07:24:37Z</time>
      </trkpt>
      <trkpt lat="44.70383" lon="6.93451">
        <ele>2105.6</ele>
        <time>2022-07-18T07:24:38Z</time>
      </trkpt>
      <trkpt lat="44.70381" lon="6.93454">
        <ele>2106</ele>
        <time>2022-07-18T07:24:39Z</time>
      </trkpt>
      <trkpt lat="44.7038" lon="6.93456">
        <ele>2106</ele>
        <time>2022-07-18T07:24:40Z</time>
      </trkpt>
      <trkpt lat="44.70378" lon="6.93458">
        <ele>2106.4</ele>
        <time>2022-07-18T07:24:41Z</time>
      </trkpt>
      <trkpt lat="44.70376" lon="6.93461">
        <ele>2106.4</ele>
        <time>2022-07-18T07:24:42Z</time>
      </trkpt>
      <trkpt lat="44.70375" lon="6.93463">
        <ele>2106.6</ele>
        <time>2022-07-18T07:24:43Z</time>
      </trkpt>
      <trkpt lat="44.70373" lon="6.93466">
        <ele>2107</ele>
        <time>2022-07-18T07:24:44Z</time>
      </trkpt>
      <trkpt lat="44.70372" lon="6.93469">
        <ele>2107</ele>
        <time>2022-07-18T07:24:45Z</time>
      </trkpt>
      <trkpt lat="44.70371" lon="6.93471">
        <ele>2107.2</ele>
        <time>2022-07-18T07:24:46Z</time>
      </trkpt>
      <trkpt lat="44.70369" lon="6.93474">
        <ele>2107.2</ele>
        <time>2022-07-18T07:24:47Z</time>
      </trkpt>
      <trkpt lat="44.70367" lon="6.93476">
        <ele>2107.6</ele>
        <time>2022-07-18T07:24:48Z</time>
      </trkpt>
      <trkpt lat="44.70366" lon="6.93479">
        <ele>2108</ele>
        <time>2022-07-18T07:24:49Z</time>
      </trkpt>
      <trkpt lat="44.70364" lon="6.93481">
        <ele>2108.2</ele>
        <time>2022-07-18T07:24:50Z</time>
      </trkpt>
      <trkpt lat="44.70363" lon="6.93484">
        <ele>2108.2</ele>
        <time>2022-07-18T07:24:51Z</time>
      </trkpt>
      <trkpt lat="44.70361" lon="6.93486">
        <ele>2108.6</ele>
        <time>2022-07-18T07:24:52Z</time>
      </trkpt>
      <trkpt lat="44.7036" lon="6.93488">
        <ele>2108.8</ele>
        <time>2022-07-18T07:24:53Z</time>
      </trkpt>
      <trkpt lat="44.70359" lon="6.93491">
        <ele>2109</ele>
        <time>2022-07-18T07:24:54Z</time>
      </trkpt>
      <trkpt lat="44.70357" lon="6.93493">
        <ele>2109</ele>
        <time>2022-07-18T07:24:55Z</time>
      </trkpt>
      <trkpt lat="44.70356" lon="6.93496">
        <ele>2109.4</ele>
        <time>2022-07-18T07:24:56Z</time>
      </trkpt>
      <trkpt lat="44.70355" lon="6.93498">
        <ele>2109.6</ele>
        <time>2022-07-18T07:24:57Z</time>
      </trkpt>
      <trkpt lat="44.70354" lon="6.93501">
        <ele>2109.6</ele>
        <time>2022-07-18T07:24:58Z</time>
      </trkpt>
      <trkpt lat="44.70352" lon="6.93504">
        <ele>2110</ele>
        <time>2022-07-18T07:24:59Z</time>
      </trkpt>
      <trkpt lat="44.70351" lon="6.93507">
        <ele>2110</ele>
        <time>2022-07-18T07:25:00Z</time>
      </trkpt>
      <trkpt lat="44.7035" lon="6.93511">
        <ele>2110.2</ele>
        <time>2022-07-18T07:25:01Z</time>
      </trkpt>
      <trkpt lat="44.7035" lon="6.93514">
        <ele>2110.4</ele>
        <time>2022-07-18T07:25:02Z</time>
      </trkpt>
      <trkpt lat="44.70349" lon="6.93517">
        <ele>2110.8</ele>
        <time>2022-07-18T07:25:04Z</time>
      </trkpt>
      <trkpt lat="44.70348" lon="6.93521">
        <ele>2110.8</ele>
        <time>2022-07-18T07:25:05Z</time>
      </trkpt>
      <trkpt lat="44.70348" lon="6.93524">
        <ele>2111</ele>
        <time>2022-07-18T07:25:06Z</time>
      </trkpt>
      <trkpt lat="44.70347" lon="6.93527">
        <ele>2111</ele>
        <time>2022-07-18T07:25:07Z</time>
      </trkpt>
      <trkpt lat="44.70346" lon="6.9353">
        <ele>2111</ele>
        <time>2022-07-18T07:25:08Z</time>
      </trkpt>
      <trkpt lat="44.70345" lon="6.93533">
        <ele>2111.2</ele>
        <time>2022-07-18T07:25:09Z</time>
      </trkpt>
      <trkpt lat="44.70345" lon="6.93537">
        <ele>2111.4</ele>
        <time>2022-07-18T07:25:10Z</time>
      </trkpt>
      <trkpt lat="44.70344" lon="6.9354">
        <ele>2111.8</ele>
        <time>2022-07-18T07:25:11Z</time>
      </trkpt>
      <trkpt lat="44.70343" lon="6.93543">
        <ele>2111.8</ele>
        <time>2022-07-18T07:25:12Z</time>
      </trkpt>
      <trkpt lat="44.70342" lon="6.93546">
        <ele>2112</ele>
        <time>2022-07-18T07:25:13Z</time>
      </trkpt>
      <trkpt lat="44.70341" lon="6.9355">
        <ele>2112</ele>
        <time>2022-07-18T07:25:14Z</time>
      </trkpt>
      <trkpt lat="44.7034" lon="6.93553">
        <ele>2112.2</ele>
        <time>2022-07-18T07:25:15Z</time>
      </trkpt>
      <trkpt lat="44.7034" lon="6.93557">
        <ele>2112.2</ele>
        <time>2022-07-18T07:25:16Z</time>
      </trkpt>
      <trkpt lat="44.70339" lon="6.9356">
        <ele>2112.6</ele>
        <time>2022-07-18T07:25:17Z</time>
      </trkpt>
      <trkpt lat="44.70338" lon="6.93563">
        <ele>2112.6</ele>
        <time>2022-07-18T07:25:18Z</time>
      </trkpt>
      <trkpt lat="44.70338" lon="6.93566">
        <ele>2112.8</ele>
        <time>2022-07-18T07:25:19Z</time>
      </trkpt>
      <trkpt lat="44.70337" lon="6.93569">
        <ele>2112.8</ele>
        <time>2022-07-18T07:25:20Z</time>
      </trkpt>
      <trkpt lat="44.70336" lon="6.93572">
        <ele>2113.2</ele>
        <time>2022-07-18T07:25:21Z</time>
      </trkpt>
      <trkpt lat="44.70335" lon="6.93575">
        <ele>2113.4</ele>
        <time>2022-07-18T07:25:22Z</time>
      </trkpt>
      <trkpt lat="44.70334" lon="6.93578">
        <ele>2113.4</ele>
        <time>2022-07-18T07:25:23Z</time>
      </trkpt>
      <trkpt lat="44.70332" lon="6.93581">
        <ele>2113.8</ele>
        <time>2022-07-18T07:25:24Z</time>
      </trkpt>
      <trkpt lat="44.70332" lon="6.93584">
        <ele>2114</ele>
        <time>2022-07-18T07:25:25Z</time>
      </trkpt>
      <trkpt lat="44.70331" lon="6.93586">
        <ele>2114</ele>
        <time>2022-07-18T07:25:26Z</time>
      </trkpt>
      <trkpt lat="44.70329" lon="6.93589">
        <ele>2114.4</ele>
        <time>2022-07-18T07:25:27Z</time>
      </trkpt>
      <trkpt lat="44.70328" lon="6.93592">
        <ele>2114.4</ele>
        <time>2022-07-18T07:25:28Z</time>
      </trkpt>
      <trkpt lat="44.70328" lon="6.93595">
        <ele>2114.6</ele>
        <time>2022-07-18T07:25:29Z</time>
      </trkpt>
      <trkpt lat="44.70327" lon="6.93598">
        <ele>2114.8</ele>
        <time>2022-07-18T07:25:30Z</time>
      </trkpt>
      <trkpt lat="44.70325" lon="6.93601">
        <ele>2115</ele>
        <time>2022-07-18T07:25:31Z</time>
      </trkpt>
      <trkpt lat="44.70324" lon="6.93604">
        <ele>2115.4</ele>
        <time>2022-07-18T07:25:32Z</time>
      </trkpt>
      <trkpt lat="44.70324" lon="6.93607">
        <ele>2115.6</ele>
        <time>2022-07-18T07:25:33Z</time>
      </trkpt>
      <trkpt lat="44.70323" lon="6.9361">
        <ele>2115.6</ele>
        <time>2022-07-18T07:25:34Z</time>
      </trkpt>
      <trkpt lat="44.70322" lon="6.93613">
        <ele>2116</ele>
        <time>2022-07-18T07:25:35Z</time>
      </trkpt>
      <trkpt lat="44.70321" lon="6.93616">
        <ele>2116.2</ele>
        <time>2022-07-18T07:25:36Z</time>
      </trkpt>
      <trkpt lat="44.7032" lon="6.93619">
        <ele>2116.2</ele>
        <time>2022-07-18T07:25:37Z</time>
      </trkpt>
      <trkpt lat="44.70319" lon="6.93622">
        <ele>2116.6</ele>
        <time>2022-07-18T07:25:38Z</time>
      </trkpt>
      <trkpt lat="44.70318" lon="6.93625">
        <ele>2116.6</ele>
        <time>2022-07-18T07:25:39Z</time>
      </trkpt>
      <trkpt lat="44.70317" lon="6.93628">
        <ele>2116.8</ele>
        <time>2022-07-18T07:25:40Z</time>
      </trkpt>
      <trkpt lat="44.70316" lon="6.93631">
        <ele>2116.8</ele>
        <time>2022-07-18T07:25:41Z</time>
      </trkpt>
      <trkpt lat="44.70315" lon="6.93634">
        <ele>2117.2</ele>
        <time>2022-07-18T07:25:42Z</time>
      </trkpt>
      <trkpt lat="44.70314" lon="6.93637">
        <ele>2117.4</ele>
        <time>2022-07-18T07:25:43Z</time>
      </trkpt>
      <trkpt lat="44.70313" lon="6.9364">
        <ele>2117.4</ele>
        <time>2022-07-18T07:25:44Z</time>
      </trkpt>
      <trkpt lat="44.70312" lon="6.93643">
        <ele>2117.8</ele>
        <time>2022-07-18T07:25:45Z</time>
      </trkpt>
      <trkpt lat="44.70311" lon="6.93646">
        <ele>2117.8</ele>
        <time>2022-07-18T07:25:46Z</time>
      </trkpt>
      <trkpt lat="44.7031" lon="6.93649">
        <ele>2118</ele>
        <time>2022-07-18T07:25:47Z</time>
      </trkpt>
      <trkpt lat="44.70308" lon="6.93651">
        <ele>2118.2</ele>
        <time>2022-07-18T07:25:48Z</time>
      </trkpt>
      <trkpt lat="44.70307" lon="6.93654">
        <ele>2118.2</ele>
        <time>2022-07-18T07:25:49Z</time>
      </trkpt>
      <trkpt lat="44.70306" lon="6.93656">
        <ele>2118.6</ele>
        <time>2022-07-18T07:25:50Z</time>
      </trkpt>
      <trkpt lat="44.70305" lon="6.93659">
        <ele>2118.8</ele>
        <time>2022-07-18T07:25:51Z</time>
      </trkpt>
      <trkpt lat="44.70303" lon="6.93661">
        <ele>2118.8</ele>
        <time>2022-07-18T07:25:52Z</time>
      </trkpt>
      <trkpt lat="44.70302" lon="6.93664">
        <ele>2119.2</ele>
        <time>2022-07-18T07:25:53Z</time>
      </trkpt>
      <trkpt lat="44.70301" lon="6.93666">
        <ele>2119.2</ele>
        <time>2022-07-18T07:25:54Z</time>
      </trkpt>
      <trkpt lat="44.70299" lon="6.93669">
        <ele>2119.6</ele>
        <time>2022-07-18T07:25:55Z</time>
      </trkpt>
      <trkpt lat="44.70298" lon="6.93671">
        <ele>2119.8</ele>
        <time>2022-07-18T07:25:56Z</time>
      </trkpt>
      <trkpt lat="44.70297" lon="6.93673">
        <ele>2120</ele>
        <time>2022-07-18T07:25:57Z</time>
      </trkpt>
      <trkpt lat="44.70295" lon="6.93676">
        <ele>2120.2</ele>
        <time>2022-07-18T07:25:58Z</time>
      </trkpt>
      <trkpt lat="44.70293" lon="6.93678">
        <ele>2120.4</ele>
        <time>2022-07-18T07:25:59Z</time>
      </trkpt>
      <trkpt lat="44.70292" lon="6.9368">
        <ele>2120.8</ele>
        <time>2022-07-18T07:26:00Z</time>
      </trkpt>
      <trkpt lat="44.70289" lon="6.93682">
        <ele>2120.8</ele>
        <time>2022-07-18T07:26:01Z</time>
      </trkpt>
      <trkpt lat="44.70288" lon="6.93684">
        <ele>2121</ele>
        <time>2022-07-18T07:26:02Z</time>
      </trkpt>
      <trkpt lat="44.70286" lon="6.93686">
        <ele>2121</ele>
        <time>2022-07-18T07:26:03Z</time>
      </trkpt>
      <trkpt lat="44.70285" lon="6.93689">
        <ele>2121.4</ele>
        <time>2022-07-18T07:26:04Z</time>
      </trkpt>
      <trkpt lat="44.70283" lon="6.93691">
        <ele>2121.6</ele>
        <time>2022-07-18T07:26:05Z</time>
      </trkpt>
      <trkpt lat="44.70282" lon="6.93693">
        <ele>2121.6</ele>
        <time>2022-07-18T07:26:06Z</time>
      </trkpt>
      <trkpt lat="44.7028" lon="6.93695">
        <ele>2122</ele>
        <time>2022-07-18T07:26:07Z</time>
      </trkpt>
      <trkpt lat="44.70279" lon="6.93697">
        <ele>2122</ele>
        <time>2022-07-18T07:26:08Z</time>
      </trkpt>
      <trkpt lat="44.70277" lon="6.93699">
        <ele>2122.4</ele>
        <time>2022-07-18T07:26:09Z</time>
      </trkpt>
      <trkpt lat="44.70276" lon="6.93701">
        <ele>2122.4</ele>
        <time>2022-07-18T07:26:10Z</time>
      </trkpt>
      <trkpt lat="44.70274" lon="6.93704">
        <ele>2122.8</ele>
        <time>2022-07-18T07:26:11Z</time>
      </trkpt>
      <trkpt lat="44.70273" lon="6.93706">
        <ele>2122.8</ele>
        <time>2022-07-18T07:26:12Z</time>
      </trkpt>
      <trkpt lat="44.70271" lon="6.93708">
        <ele>2123</ele>
        <time>2022-07-18T07:26:13Z</time>
      </trkpt>
      <trkpt lat="44.7027" lon="6.9371">
        <ele>2123</ele>
        <time>2022-07-18T07:26:14Z</time>
      </trkpt>
      <trkpt lat="44.70268" lon="6.93712">
        <ele>2123.4</ele>
        <time>2022-07-18T07:26:15Z</time>
      </trkpt>
      <trkpt lat="44.70266" lon="6.93715">
        <ele>2123.4</ele>
        <time>2022-07-18T07:26:16Z</time>
      </trkpt>
      <trkpt lat="44.70265" lon="6.93717">
        <ele>2123.6</ele>
        <time>2022-07-18T07:26:17Z</time>
      </trkpt>
      <trkpt lat="44.70263" lon="6.93719">
        <ele>2123.8</ele>
        <time>2022-07-18T07:26:18Z</time>
      </trkpt>
      <trkpt lat="44.70262" lon="6.93722">
        <ele>2123.8</ele>
        <time>2022-07-18T07:26:19Z</time>
      </trkpt>
      <trkpt lat="44.7026" lon="6.93724">
        <ele>2124.2</ele>
        <time>2022-07-18T07:26:20Z</time>
      </trkpt>
      <trkpt lat="44.70259" lon="6.93726">
        <ele>2124.2</ele>
        <time>2022-07-18T07:26:21Z</time>
      </trkpt>
      <trkpt lat="44.70257" lon="6.93728">
        <ele>2124.4</ele>
        <time>2022-07-18T07:26:22Z</time>
      </trkpt>
      <trkpt lat="44.70255" lon="6.93731">
        <ele>2124.4</ele>
        <time>2022-07-18T07:26:23Z</time>
      </trkpt>
      <trkpt lat="44.70254" lon="6.93733">
        <ele>2124.8</ele>
        <time>2022-07-18T07:26:24Z</time>
      </trkpt>
      <trkpt lat="44.70252" lon="6.93735">
        <ele>2124.8</ele>
        <time>2022-07-18T07:26:25Z</time>
      </trkpt>
      <trkpt lat="44.70251" lon="6.93738">
        <ele>2125.2</ele>
        <time>2022-07-18T07:26:26Z</time>
      </trkpt>
      <trkpt lat="44.70249" lon="6.9374">
        <ele>2125.4</ele>
        <time>2022-07-18T07:26:27Z</time>
      </trkpt>
      <trkpt lat="44.70247" lon="6.93742">
        <ele>2125.4</ele>
        <time>2022-07-18T07:26:28Z</time>
      </trkpt>
      <trkpt lat="44.70245" lon="6.93744">
        <ele>2125.6</ele>
        <time>2022-07-18T07:26:29Z</time>
      </trkpt>
      <trkpt lat="44.70243" lon="6.93746">
        <ele>2125.6</ele>
        <time>2022-07-18T07:26:30Z</time>
      </trkpt>
      <trkpt lat="44.70242" lon="6.93747">
        <ele>2125.8</ele>
        <time>2022-07-18T07:26:31Z</time>
      </trkpt>
      <trkpt lat="44.7024" lon="6.93749">
        <ele>2125.8</ele>
        <time>2022-07-18T07:26:32Z</time>
      </trkpt>
      <trkpt lat="44.70238" lon="6.93752">
        <ele>2126.2</ele>
        <time>2022-07-18T07:26:33Z</time>
      </trkpt>
      <trkpt lat="44.70236" lon="6.93754">
        <ele>2126.4</ele>
        <time>2022-07-18T07:26:34Z</time>
      </trkpt>
      <trkpt lat="44.70235" lon="6.93756">
        <ele>2126.4</ele>
        <time>2022-07-18T07:26:35Z</time>
      </trkpt>
      <trkpt lat="44.70233" lon="6.93758">
        <ele>2126.8</ele>
        <time>2022-07-18T07:26:36Z</time>
      </trkpt>
      <trkpt lat="44.70231" lon="6.9376">
        <ele>2126.8</ele>
        <time>2022-07-18T07:26:37Z</time>
      </trkpt>
      <trkpt lat="44.70229" lon="6.93762">
        <ele>2127</ele>
        <time>2022-07-18T07:26:38Z</time>
      </trkpt>
      <trkpt lat="44.70228" lon="6.93765">
        <ele>2127</ele>
        <time>2022-07-18T07:26:39Z</time>
      </trkpt>
      <trkpt lat="44.70226" lon="6.93767">
        <ele>2127.4</ele>
        <time>2022-07-18T07:26:40Z</time>
      </trkpt>
      <trkpt lat="44.70224" lon="6.93769">
        <ele>2127.4</ele>
        <time>2022-07-18T07:26:41Z</time>
      </trkpt>
      <trkpt lat="44.70222" lon="6.93771">
        <ele>2127.8</ele>
        <time>2022-07-18T07:26:42Z</time>
      </trkpt>
      <trkpt lat="44.7022" lon="6.93774">
        <ele>2127.8</ele>
        <time>2022-07-18T07:26:43Z</time>
      </trkpt>
      <trkpt lat="44.70219" lon="6.93776">
        <ele>2128</ele>
        <time>2022-07-18T07:26:44Z</time>
      </trkpt>
      <trkpt lat="44.70217" lon="6.93778">
        <ele>2128</ele>
        <time>2022-07-18T07:26:45Z</time>
      </trkpt>
      <trkpt lat="44.70216" lon="6.93781">
        <ele>2128.4</ele>
        <time>2022-07-18T07:26:46Z</time>
      </trkpt>
      <trkpt lat="44.70214" lon="6.93783">
        <ele>2128.4</ele>
        <time>2022-07-18T07:26:47Z</time>
      </trkpt>
      <trkpt lat="44.70212" lon="6.93786">
        <ele>2128.6</ele>
        <time>2022-07-18T07:26:48Z</time>
      </trkpt>
      <trkpt lat="44.70211" lon="6.93788">
        <ele>2128.6</ele>
        <time>2022-07-18T07:26:49Z</time>
      </trkpt>
      <trkpt lat="44.70209" lon="6.9379">
        <ele>2129</ele>
        <time>2022-07-18T07:26:50Z</time>
      </trkpt>
      <trkpt lat="44.70207" lon="6.93792">
        <ele>2129.2</ele>
        <time>2022-07-18T07:26:51Z</time>
      </trkpt>
      <trkpt lat="44.70205" lon="6.93794">
        <ele>2129.4</ele>
        <time>2022-07-18T07:26:52Z</time>
      </trkpt>
      <trkpt lat="44.70203" lon="6.93796">
        <ele>2129.6</ele>
        <time>2022-07-18T07:26:53Z</time>
      </trkpt>
      <trkpt lat="44.70202" lon="6.93798">
        <ele>2130</ele>
        <time>2022-07-18T07:26:54Z</time>
      </trkpt>
      <trkpt lat="44.702" lon="6.938">
        <ele>2130</ele>
        <time>2022-07-18T07:26:55Z</time>
      </trkpt>
      <trkpt lat="44.70198" lon="6.93803">
        <ele>2130.2</ele>
        <time>2022-07-18T07:26:56Z</time>
      </trkpt>
      <trkpt lat="44.70196" lon="6.93805">
        <ele>2130.6</ele>
        <time>2022-07-18T07:26:57Z</time>
      </trkpt>
      <trkpt lat="44.70195" lon="6.93807">
        <ele>2130.6</ele>
        <time>2022-07-18T07:26:58Z</time>
      </trkpt>
      <trkpt lat="44.70193" lon="6.9381">
        <ele>2130.8</ele>
        <time>2022-07-18T07:26:59Z</time>
      </trkpt>
      <trkpt lat="44.70191" lon="6.93812">
        <ele>2131</ele>
        <time>2022-07-18T07:27:00Z</time>
      </trkpt>
      <trkpt lat="44.7019" lon="6.93814">
        <ele>2131.2</ele>
        <time>2022-07-18T07:27:01Z</time>
      </trkpt>
      <trkpt lat="44.70188" lon="6.93816">
        <ele>2131.2</ele>
        <time>2022-07-18T07:27:02Z</time>
      </trkpt>
      <trkpt lat="44.70186" lon="6.93819">
        <ele>2131.6</ele>
        <time>2022-07-18T07:27:03Z</time>
      </trkpt>
      <trkpt lat="44.70185" lon="6.93821">
        <ele>2131.6</ele>
        <time>2022-07-18T07:27:04Z</time>
      </trkpt>
      <trkpt lat="44.70183" lon="6.93823">
        <ele>2131.8</ele>
        <time>2022-07-18T07:27:05Z</time>
      </trkpt>
      <trkpt lat="44.70181" lon="6.93825">
        <ele>2132</ele>
        <time>2022-07-18T07:27:06Z</time>
      </trkpt>
      <trkpt lat="44.7018" lon="6.93827">
        <ele>2132</ele>
        <time>2022-07-18T07:27:07Z</time>
      </trkpt>
      <trkpt lat="44.70178" lon="6.93829">
        <ele>2132.4</ele>
        <time>2022-07-18T07:27:08Z</time>
      </trkpt>
      <trkpt lat="44.70176" lon="6.93831">
        <ele>2132.4</ele>
        <time>2022-07-18T07:27:09Z</time>
      </trkpt>
      <trkpt lat="44.70175" lon="6.93833">
        <ele>2132.8</ele>
        <time>2022-07-18T07:27:10Z</time>
      </trkpt>
      <trkpt lat="44.70174" lon="6.93836">
        <ele>2133</ele>
        <time>2022-07-18T07:27:11Z</time>
      </trkpt>
      <trkpt lat="44.70172" lon="6.93838">
        <ele>2133.2</ele>
        <time>2022-07-18T07:27:12Z</time>
      </trkpt>
      <trkpt lat="44.70171" lon="6.93841">
        <ele>2133.4</ele>
        <time>2022-07-18T07:27:13Z</time>
      </trkpt>
      <trkpt lat="44.7017" lon="6.93844">
        <ele>2133.6</ele>
        <time>2022-07-18T07:27:14Z</time>
      </trkpt>
      <trkpt lat="44.70169" lon="6.93846">
        <ele>2134</ele>
        <time>2022-07-18T07:27:15Z</time>
      </trkpt>
      <trkpt lat="44.70167" lon="6.93848">
        <ele>2134</ele>
        <time>2022-07-18T07:27:16Z</time>
      </trkpt>
      <trkpt lat="44.70166" lon="6.93851">
        <ele>2134.2</ele>
        <time>2022-07-18T07:27:17Z</time>
      </trkpt>
      <trkpt lat="44.70165" lon="6.93853">
        <ele>2134.2</ele>
        <time>2022-07-18T07:27:18Z</time>
      </trkpt>
      <trkpt lat="44.70164" lon="6.93856">
        <ele>2134.6</ele>
        <time>2022-07-18T07:27:19Z</time>
      </trkpt>
      <trkpt lat="44.70163" lon="6.93859">
        <ele>2134.8</ele>
        <time>2022-07-18T07:27:20Z</time>
      </trkpt>
      <trkpt lat="44.70162" lon="6.93861">
        <ele>2134.8</ele>
        <time>2022-07-18T07:27:21Z</time>
      </trkpt>
      <trkpt lat="44.70161" lon="6.93864">
        <ele>2135.2</ele>
        <time>2022-07-18T07:27:22Z</time>
      </trkpt>
      <trkpt lat="44.7016" lon="6.93866">
        <ele>2135.2</ele>
        <time>2022-07-18T07:27:23Z</time>
      </trkpt>
      <trkpt lat="44.70158" lon="6.93869">
        <ele>2135.6</ele>
        <time>2022-07-18T07:27:24Z</time>
      </trkpt>
      <trkpt lat="44.70157" lon="6.93872">
        <ele>2135.6</ele>
        <time>2022-07-18T07:27:25Z</time>
      </trkpt>
      <trkpt lat="44.70156" lon="6.93874">
        <ele>2136</ele>
        <time>2022-07-18T07:27:26Z</time>
      </trkpt>
      <trkpt lat="44.70155" lon="6.93877">
        <ele>2136</ele>
        <time>2022-07-18T07:27:27Z</time>
      </trkpt>
      <trkpt lat="44.70153" lon="6.93879">
        <ele>2136.2</ele>
        <time>2022-07-18T07:27:28Z</time>
      </trkpt>
      <trkpt lat="44.70152" lon="6.93882">
        <ele>2136.2</ele>
        <time>2022-07-18T07:27:29Z</time>
      </trkpt>
      <trkpt lat="44.70151" lon="6.93885">
        <ele>2136.6</ele>
        <time>2022-07-18T07:27:30Z</time>
      </trkpt>
      <trkpt lat="44.70149" lon="6.93888">
        <ele>2136.6</ele>
        <time>2022-07-18T07:27:31Z</time>
      </trkpt>
      <trkpt lat="44.70147" lon="6.9389">
        <ele>2136.8</ele>
        <time>2022-07-18T07:27:32Z</time>
      </trkpt>
      <trkpt lat="44.70146" lon="6.93893">
        <ele>2136.8</ele>
        <time>2022-07-18T07:27:33Z</time>
      </trkpt>
      <trkpt lat="44.70143" lon="6.93896">
        <ele>2137.2</ele>
        <time>2022-07-18T07:27:34Z</time>
      </trkpt>
      <trkpt lat="44.70141" lon="6.93898">
        <ele>2137.2</ele>
        <time>2022-07-18T07:27:35Z</time>
      </trkpt>
      <trkpt lat="44.70139" lon="6.939">
        <ele>2137.4</ele>
        <time>2022-07-18T07:27:36Z</time>
      </trkpt>
      <trkpt lat="44.70137" lon="6.93902">
        <ele>2137.4</ele>
        <time>2022-07-18T07:27:37Z</time>
      </trkpt>
      <trkpt lat="44.70135" lon="6.93904">
        <ele>2137.6</ele>
        <time>2022-07-18T07:27:38Z</time>
      </trkpt>
      <trkpt lat="44.70133" lon="6.93906">
        <ele>2137.6</ele>
        <time>2022-07-18T07:27:39Z</time>
      </trkpt>
      <trkpt lat="44.70131" lon="6.93908">
        <ele>2138</ele>
        <time>2022-07-18T07:27:40Z</time>
      </trkpt>
      <trkpt lat="44.70129" lon="6.9391">
        <ele>2138.2</ele>
        <time>2022-07-18T07:27:41Z</time>
      </trkpt>
      <trkpt lat="44.70128" lon="6.93911">
        <ele>2138.4</ele>
        <time>2022-07-18T07:27:42Z</time>
      </trkpt>
      <trkpt lat="44.70126" lon="6.93913">
        <ele>2138.8</ele>
        <time>2022-07-18T07:27:43Z</time>
      </trkpt>
      <trkpt lat="44.70123" lon="6.93914">
        <ele>2138.8</ele>
        <time>2022-07-18T07:27:44Z</time>
      </trkpt>
      <trkpt lat="44.70121" lon="6.93916">
        <ele>2139</ele>
        <time>2022-07-18T07:27:45Z</time>
      </trkpt>
      <trkpt lat="44.70119" lon="6.93918">
        <ele>2139.2</ele>
        <time>2022-07-18T07:27:46Z</time>
      </trkpt>
      <trkpt lat="44.70117" lon="6.93919">
        <ele>2139.6</ele>
        <time>2022-07-18T07:27:47Z</time>
      </trkpt>
      <trkpt lat="44.70116" lon="6.93921">
        <ele>2139.6</ele>
        <time>2022-07-18T07:27:48Z</time>
      </trkpt>
      <trkpt lat="44.70114" lon="6.93923">
        <ele>2139.8</ele>
        <time>2022-07-18T07:27:49Z</time>
      </trkpt>
      <trkpt lat="44.70112" lon="6.93924">
        <ele>2140.2</ele>
        <time>2022-07-18T07:27:50Z</time>
      </trkpt>
      <trkpt lat="44.70111" lon="6.93926">
        <ele>2140.4</ele>
        <time>2022-07-18T07:27:51Z</time>
      </trkpt>
      <trkpt lat="44.7011" lon="6.93928">
        <ele>2140.4</ele>
        <time>2022-07-18T07:27:52Z</time>
      </trkpt>
      <trkpt lat="44.70108" lon="6.9393">
        <ele>2140.6</ele>
        <time>2022-07-18T07:27:53Z</time>
      </trkpt>
      <trkpt lat="44.70107" lon="6.93932">
        <ele>2141</ele>
        <time>2022-07-18T07:27:54Z</time>
      </trkpt>
      <trkpt lat="44.70106" lon="6.93934">
        <ele>2141.2</ele>
        <time>2022-07-18T07:27:55Z</time>
      </trkpt>
      <trkpt lat="44.70104" lon="6.93935">
        <ele>2141.4</ele>
        <time>2022-07-18T07:27:56Z</time>
      </trkpt>
      <trkpt lat="44.70102" lon="6.93936">
        <ele>2141.6</ele>
        <time>2022-07-18T07:27:57Z</time>
      </trkpt>
      <trkpt lat="44.701" lon="6.93938">
        <ele>2141.6</ele>
        <time>2022-07-18T07:27:58Z</time>
      </trkpt>
      <trkpt lat="44.70099" lon="6.9394">
        <ele>2142.2</ele>
        <time>2022-07-18T07:27:59Z</time>
      </trkpt>
      <trkpt lat="44.70097" lon="6.93942">
        <ele>2142.4</ele>
        <time>2022-07-18T07:28:00Z</time>
      </trkpt>
      <trkpt lat="44.70096" lon="6.93945">
        <ele>2142.6</ele>
        <time>2022-07-18T07:28:01Z</time>
      </trkpt>
      <trkpt lat="44.70095" lon="6.93947">
        <ele>2143</ele>
        <time>2022-07-18T07:28:02Z</time>
      </trkpt>
      <trkpt lat="44.70093" lon="6.93949">
        <ele>2143.2</ele>
        <time>2022-07-18T07:28:03Z</time>
      </trkpt>
      <trkpt lat="44.70092" lon="6.93951">
        <ele>2143.4</ele>
        <time>2022-07-18T07:28:04Z</time>
      </trkpt>
      <trkpt lat="44.70091" lon="6.93953">
        <ele>2143.6</ele>
        <time>2022-07-18T07:28:05Z</time>
      </trkpt>
      <trkpt lat="44.70089" lon="6.93954">
        <ele>2143.8</ele>
        <time>2022-07-18T07:28:06Z</time>
      </trkpt>
      <trkpt lat="44.70088" lon="6.93956">
        <ele>2143.8</ele>
        <time>2022-07-18T07:28:07Z</time>
      </trkpt>
      <trkpt lat="44.70088" lon="6.93959">
        <ele>2144.4</ele>
        <time>2022-07-18T07:28:08Z</time>
      </trkpt>
      <trkpt lat="44.70087" lon="6.93961">
        <ele>2144.4</ele>
        <time>2022-07-18T07:28:09Z</time>
      </trkpt>
      <trkpt lat="44.70085" lon="6.93964">
        <ele>2144.8</ele>
        <time>2022-07-18T07:28:10Z</time>
      </trkpt>
      <trkpt lat="44.70084" lon="6.93966">
        <ele>2145</ele>
        <time>2022-07-18T07:28:11Z</time>
      </trkpt>
      <trkpt lat="44.70083" lon="6.93968">
        <ele>2145</ele>
        <time>2022-07-18T07:28:12Z</time>
      </trkpt>
      <trkpt lat="44.70082" lon="6.93971">
        <ele>2145.4</ele>
        <time>2022-07-18T07:28:13Z</time>
      </trkpt>
      <trkpt lat="44.7008" lon="6.93973">
        <ele>2145.4</ele>
        <time>2022-07-18T07:28:14Z</time>
      </trkpt>
      <trkpt lat="44.70079" lon="6.93976">
        <ele>2145.6</ele>
        <time>2022-07-18T07:28:15Z</time>
      </trkpt>
      <trkpt lat="44.70078" lon="6.93978">
        <ele>2146</ele>
        <time>2022-07-18T07:28:16Z</time>
      </trkpt>
      <trkpt lat="44.70078" lon="6.93981">
        <ele>2146.2</ele>
        <time>2022-07-18T07:28:17Z</time>
      </trkpt>
      <trkpt lat="44.70076" lon="6.93983">
        <ele>2146.4</ele>
        <time>2022-07-18T07:28:18Z</time>
      </trkpt>
      <trkpt lat="44.70075" lon="6.93986">
        <ele>2146.6</ele>
        <time>2022-07-18T07:28:19Z</time>
      </trkpt>
      <trkpt lat="44.70075" lon="6.93988">
        <ele>2146.6</ele>
        <time>2022-07-18T07:28:20Z</time>
      </trkpt>
      <trkpt lat="44.70073" lon="6.93991">
        <ele>2146.8</ele>
        <time>2022-07-18T07:28:21Z</time>
      </trkpt>
      <trkpt lat="44.70072" lon="6.93993">
        <ele>2147</ele>
        <time>2022-07-18T07:28:22Z</time>
      </trkpt>
      <trkpt lat="44.70071" lon="6.93996">
        <ele>2147.2</ele>
        <time>2022-07-18T07:28:23Z</time>
      </trkpt>
      <trkpt lat="44.7007" lon="6.93998">
        <ele>2147.2</ele>
        <time>2022-07-18T07:28:24Z</time>
      </trkpt>
      <trkpt lat="44.70069" lon="6.94">
        <ele>2147.6</ele>
        <time>2022-07-18T07:28:25Z</time>
      </trkpt>
      <trkpt lat="44.70068" lon="6.94003">
        <ele>2147.8</ele>
        <time>2022-07-18T07:28:26Z</time>
      </trkpt>
      <trkpt lat="44.70067" lon="6.94005">
        <ele>2148</ele>
        <time>2022-07-18T07:28:27Z</time>
      </trkpt>
      <trkpt lat="44.70066" lon="6.94008">
        <ele>2148</ele>
        <time>2022-07-18T07:28:28Z</time>
      </trkpt>
      <trkpt lat="44.70065" lon="6.9401">
        <ele>2148.4</ele>
        <time>2022-07-18T07:28:29Z</time>
      </trkpt>
      <trkpt lat="44.70064" lon="6.94012">
        <ele>2148.8</ele>
        <time>2022-07-18T07:28:30Z</time>
      </trkpt>
      <trkpt lat="44.70063" lon="6.94014">
        <ele>2148.8</ele>
        <time>2022-07-18T07:28:31Z</time>
      </trkpt>
      <trkpt lat="44.70062" lon="6.94016">
        <ele>2149</ele>
        <time>2022-07-18T07:28:32Z</time>
      </trkpt>
      <trkpt lat="44.70061" lon="6.94019">
        <ele>2149.4</ele>
        <time>2022-07-18T07:28:33Z</time>
      </trkpt>
      <trkpt lat="44.7006" lon="6.94021">
        <ele>2149.4</ele>
        <time>2022-07-18T07:28:34Z</time>
      </trkpt>
      <trkpt lat="44.70059" lon="6.94024">
        <ele>2149.6</ele>
        <time>2022-07-18T07:28:35Z</time>
      </trkpt>
      <trkpt lat="44.70058" lon="6.94026">
        <ele>2149.8</ele>
        <time>2022-07-18T07:28:36Z</time>
      </trkpt>
      <trkpt lat="44.70057" lon="6.94029">
        <ele>2150.2</ele>
        <time>2022-07-18T07:28:37Z</time>
      </trkpt>
      <trkpt lat="44.70056" lon="6.94033">
        <ele>2150.4</ele>
        <time>2022-07-18T07:28:38Z</time>
      </trkpt>
      <trkpt lat="44.70055" lon="6.94036">
        <ele>2150.4</ele>
        <time>2022-07-18T07:28:39Z</time>
      </trkpt>
      <trkpt lat="44.70054" lon="6.94039">
        <ele>2150.8</ele>
        <time>2022-07-18T07:28:40Z</time>
      </trkpt>
      <trkpt lat="44.70053" lon="6.94041">
        <ele>2150.8</ele>
        <time>2022-07-18T07:28:41Z</time>
      </trkpt>
      <trkpt lat="44.70053" lon="6.94044">
        <ele>2151.2</ele>
        <time>2022-07-18T07:28:42Z</time>
      </trkpt>
      <trkpt lat="44.70052" lon="6.94046">
        <ele>2151.4</ele>
        <time>2022-07-18T07:28:43Z</time>
      </trkpt>
      <trkpt lat="44.70051" lon="6.94048">
        <ele>2151.4</ele>
        <time>2022-07-18T07:28:44Z</time>
      </trkpt>
      <trkpt lat="44.7005" lon="6.9405">
        <ele>2151.8</ele>
        <time>2022-07-18T07:28:45Z</time>
      </trkpt>
      <trkpt lat="44.70049" lon="6.94053">
        <ele>2152.2</ele>
        <time>2022-07-18T07:28:46Z</time>
      </trkpt>
      <trkpt lat="44.70048" lon="6.94055">
        <ele>2152.2</ele>
        <time>2022-07-18T07:28:47Z</time>
      </trkpt>
      <trkpt lat="44.70047" lon="6.94057">
        <ele>2152.4</ele>
        <time>2022-07-18T07:28:48Z</time>
      </trkpt>
      <trkpt lat="44.70046" lon="6.94059">
        <ele>2152.4</ele>
        <time>2022-07-18T07:28:49Z</time>
      </trkpt>
      <trkpt lat="44.70045" lon="6.94061">
        <ele>2153</ele>
        <time>2022-07-18T07:28:50Z</time>
      </trkpt>
      <trkpt lat="44.70044" lon="6.94063">
        <ele>2153</ele>
        <time>2022-07-18T07:28:51Z</time>
      </trkpt>
      <trkpt lat="44.70044" lon="6.94066">
        <ele>2153.4</ele>
        <time>2022-07-18T07:28:52Z</time>
      </trkpt>
      <trkpt lat="44.70043" lon="6.94068">
        <ele>2153.6</ele>
        <time>2022-07-18T07:28:53Z</time>
      </trkpt>
      <trkpt lat="44.70042" lon="6.9407">
        <ele>2153.6</ele>
        <time>2022-07-18T07:28:54Z</time>
      </trkpt>
      <trkpt lat="44.70041" lon="6.94073">
        <ele>2154</ele>
        <time>2022-07-18T07:28:55Z</time>
      </trkpt>
      <trkpt lat="44.7004" lon="6.94075">
        <ele>2154.2</ele>
        <time>2022-07-18T07:28:56Z</time>
      </trkpt>
      <trkpt lat="44.70039" lon="6.94077">
        <ele>2154.4</ele>
        <time>2022-07-18T07:28:57Z</time>
      </trkpt>
      <trkpt lat="44.70038" lon="6.94079">
        <ele>2154.4</ele>
        <time>2022-07-18T07:28:58Z</time>
      </trkpt>
      <trkpt lat="44.70037" lon="6.94082">
        <ele>2154.8</ele>
        <time>2022-07-18T07:28:59Z</time>
      </trkpt>
      <trkpt lat="44.70036" lon="6.94084">
        <ele>2154.8</ele>
        <time>2022-07-18T07:29:00Z</time>
      </trkpt>
      <trkpt lat="44.70035" lon="6.94087">
        <ele>2155.2</ele>
        <time>2022-07-18T07:29:01Z</time>
      </trkpt>
      <trkpt lat="44.70034" lon="6.94089">
        <ele>2155.4</ele>
        <time>2022-07-18T07:29:02Z</time>
      </trkpt>
      <trkpt lat="44.70033" lon="6.94092">
        <ele>2155.6</ele>
        <time>2022-07-18T07:29:03Z</time>
      </trkpt>
      <trkpt lat="44.70032" lon="6.94094">
        <ele>2155.6</ele>
        <time>2022-07-18T07:29:04Z</time>
      </trkpt>
      <trkpt lat="44.70031" lon="6.94097">
        <ele>2156</ele>
        <time>2022-07-18T07:29:05Z</time>
      </trkpt>
      <trkpt lat="44.7003" lon="6.94099">
        <ele>2156</ele>
        <time>2022-07-18T07:29:06Z</time>
      </trkpt>
      <trkpt lat="44.70029" lon="6.94102">
        <ele>2156.4</ele>
        <time>2022-07-18T07:29:07Z</time>
      </trkpt>
      <trkpt lat="44.70028" lon="6.94105">
        <ele>2156.6</ele>
        <time>2022-07-18T07:29:08Z</time>
      </trkpt>
      <trkpt lat="44.70027" lon="6.94108">
        <ele>2156.6</ele>
        <time>2022-07-18T07:29:09Z</time>
      </trkpt>
      <trkpt lat="44.70026" lon="6.9411">
        <ele>2156.8</ele>
        <time>2022-07-18T07:29:10Z</time>
      </trkpt>
      <trkpt lat="44.70026" lon="6.94113">
        <ele>2156.8</ele>
        <time>2022-07-18T07:29:11Z</time>
      </trkpt>
      <trkpt lat="44.70025" lon="6.94116">
        <ele>2156.8</ele>
        <time>2022-07-18T07:29:12Z</time>
      </trkpt>
      <trkpt lat="44.70024" lon="6.94119">
        <ele>2157.2</ele>
        <time>2022-07-18T07:29:13Z</time>
      </trkpt>
      <trkpt lat="44.70023" lon="6.94122">
        <ele>2157.2</ele>
        <time>2022-07-18T07:29:14Z</time>
      </trkpt>
      <trkpt lat="44.70021" lon="6.94125">
        <ele>2157.4</ele>
        <time>2022-07-18T07:29:15Z</time>
      </trkpt>
      <trkpt lat="44.7002" lon="6.94128">
        <ele>2157.6</ele>
        <time>2022-07-18T07:29:16Z</time>
      </trkpt>
      <trkpt lat="44.70019" lon="6.94131">
        <ele>2157.6</ele>
        <time>2022-07-18T07:29:17Z</time>
      </trkpt>
      <trkpt lat="44.70018" lon="6.94134">
        <ele>2157.6</ele>
        <time>2022-07-18T07:29:18Z</time>
      </trkpt>
      <trkpt lat="44.70017" lon="6.94137">
        <ele>2157.8</ele>
        <time>2022-07-18T07:29:19Z</time>
      </trkpt>
      <trkpt lat="44.70015" lon="6.9414">
        <ele>2157.8</ele>
        <time>2022-07-18T07:29:20Z</time>
      </trkpt>
      <trkpt lat="44.70014" lon="6.94143">
        <ele>2158</ele>
        <time>2022-07-18T07:29:21Z</time>
      </trkpt>
      <trkpt lat="44.70013" lon="6.94146">
        <ele>2158</ele>
        <time>2022-07-18T07:29:22Z</time>
      </trkpt>
      <trkpt lat="44.70011" lon="6.94149">
        <ele>2158</ele>
        <time>2022-07-18T07:29:23Z</time>
      </trkpt>
      <trkpt lat="44.7001" lon="6.94152">
        <ele>2158</ele>
        <time>2022-07-18T07:29:24Z</time>
      </trkpt>
      <trkpt lat="44.70008" lon="6.94155">
        <ele>2158</ele>
        <time>2022-07-18T07:29:25Z</time>
      </trkpt>
      <trkpt lat="44.70006" lon="6.94159">
        <ele>2158.2</ele>
        <time>2022-07-18T07:29:26Z</time>
      </trkpt>
      <trkpt lat="44.70005" lon="6.94163">
        <ele>2158.2</ele>
        <time>2022-07-18T07:29:27Z</time>
      </trkpt>
      <trkpt lat="44.70003" lon="6.94167">
        <ele>2158.2</ele>
        <time>2022-07-18T07:29:28Z</time>
      </trkpt>
      <trkpt lat="44.70002" lon="6.94172">
        <ele>2158.2</ele>
        <time>2022-07-18T07:29:29Z</time>
      </trkpt>
      <trkpt lat="44.7" lon="6.94177">
        <ele>2158.2</ele>
        <time>2022-07-18T07:29:30Z</time>
      </trkpt>
      <trkpt lat="44.69999" lon="6.94183">
        <ele>2158.2</ele>
        <time>2022-07-18T07:29:31Z</time>
      </trkpt>
      <trkpt lat="44.69997" lon="6.94188">
        <ele>2158.2</ele>
        <time>2022-07-18T07:29:32Z</time>
      </trkpt>
      <trkpt lat="44.69996" lon="6.94194">
        <ele>2158.2</ele>
        <time>2022-07-18T07:29:33Z</time>
      </trkpt>
      <trkpt lat="44.69995" lon="6.942">
        <ele>2158</ele>
        <time>2022-07-18T07:29:34Z</time>
      </trkpt>
      <trkpt lat="44.69994" lon="6.94206">
        <ele>2158</ele>
        <time>2022-07-18T07:29:35Z</time>
      </trkpt>
      <trkpt lat="44.69993" lon="6.94213">
        <ele>2158</ele>
        <time>2022-07-18T07:29:36Z</time>
      </trkpt>
      <trkpt lat="44.69992" lon="6.94219">
        <ele>2158</ele>
        <time>2022-07-18T07:29:37Z</time>
      </trkpt>
      <trkpt lat="44.69992" lon="6.94226">
        <ele>2158</ele>
        <time>2022-07-18T07:29:38Z</time>
      </trkpt>
      <trkpt lat="44.69991" lon="6.94232">
        <ele>2157.8</ele>
        <time>2022-07-18T07:29:39Z</time>
      </trkpt>
      <trkpt lat="44.6999" lon="6.94239">
        <ele>2157.8</ele>
        <time>2022-07-18T07:29:40Z</time>
      </trkpt>
      <trkpt lat="44.6999" lon="6.94245">
        <ele>2157.8</ele>
        <time>2022-07-18T07:29:41Z</time>
      </trkpt>
      <trkpt lat="44.69989" lon="6.94251">
        <ele>2157.8</ele>
        <time>2022-07-18T07:29:42Z</time>
      </trkpt>
      <trkpt lat="44.69989" lon="6.94257">
        <ele>2157.8</ele>
        <time>2022-07-18T07:29:43Z</time>
      </trkpt>
      <trkpt lat="44.69988" lon="6.94263">
        <ele>2157.8</ele>
        <time>2022-07-18T07:29:44Z</time>
      </trkpt>
      <trkpt lat="44.69987" lon="6.94268">
        <ele>2157.8</ele>
        <time>2022-07-18T07:29:45Z</time>
      </trkpt>
      <trkpt lat="44.69986" lon="6.94274">
        <ele>2157.8</ele>
        <time>2022-07-18T07:29:46Z</time>
      </trkpt>
      <trkpt lat="44.69986" lon="6.94279">
        <ele>2157.8</ele>
        <time>2022-07-18T07:29:47Z</time>
      </trkpt>
      <trkpt lat="44.69984" lon="6.94284">
        <ele>2158</ele>
        <time>2022-07-18T07:29:48Z</time>
      </trkpt>
      <trkpt lat="44.69983" lon="6.94288">
        <ele>2158</ele>
        <time>2022-07-18T07:29:49Z</time>
      </trkpt>
      <trkpt lat="44.69982" lon="6.94293">
        <ele>2158.4</ele>
        <time>2022-07-18T07:29:50Z</time>
      </trkpt>
      <trkpt lat="44.69981" lon="6.94297">
        <ele>2158.4</ele>
        <time>2022-07-18T07:29:51Z</time>
      </trkpt>
      <trkpt lat="44.69981" lon="6.94301">
        <ele>2158.6</ele>
        <time>2022-07-18T07:29:52Z</time>
      </trkpt>
      <trkpt lat="44.6998" lon="6.94305">
        <ele>2158.6</ele>
        <time>2022-07-18T07:29:53Z</time>
      </trkpt>
      <trkpt lat="44.69979" lon="6.94309">
        <ele>2159</ele>
        <time>2022-07-18T07:29:54Z</time>
      </trkpt>
      <trkpt lat="44.69978" lon="6.94313">
        <ele>2159</ele>
        <time>2022-07-18T07:29:55Z</time>
      </trkpt>
      <trkpt lat="44.69977" lon="6.94317">
        <ele>2159.4</ele>
        <time>2022-07-18T07:29:56Z</time>
      </trkpt>
      <trkpt lat="44.69976" lon="6.94321">
        <ele>2159.6</ele>
        <time>2022-07-18T07:29:57Z</time>
      </trkpt>
      <trkpt lat="44.69976" lon="6.94324">
        <ele>2160</ele>
        <time>2022-07-18T07:29:58Z</time>
      </trkpt>
      <trkpt lat="44.69975" lon="6.94328">
        <ele>2160</ele>
        <time>2022-07-18T07:29:59Z</time>
      </trkpt>
      <trkpt lat="44.69974" lon="6.94331">
        <ele>2160.2</ele>
        <time>2022-07-18T07:30:00Z</time>
      </trkpt>
      <trkpt lat="44.69973" lon="6.94335">
        <ele>2160.2</ele>
        <time>2022-07-18T07:30:01Z</time>
      </trkpt>
      <trkpt lat="44.69972" lon="6.94338">
        <ele>2160.6</ele>
        <time>2022-07-18T07:30:02Z</time>
      </trkpt>
      <trkpt lat="44.6997" lon="6.94341">
        <ele>2160.8</ele>
        <time>2022-07-18T07:30:03Z</time>
      </trkpt>
      <trkpt lat="44.69969" lon="6.94344">
        <ele>2161.2</ele>
        <time>2022-07-18T07:30:04Z</time>
      </trkpt>
      <trkpt lat="44.69968" lon="6.94347">
        <ele>2161.4</ele>
        <time>2022-07-18T07:30:05Z</time>
      </trkpt>
      <trkpt lat="44.69967" lon="6.94349">
        <ele>2161.4</ele>
        <time>2022-07-18T07:30:06Z</time>
      </trkpt>
      <trkpt lat="44.69965" lon="6.94352">
        <ele>2161.8</ele>
        <time>2022-07-18T07:30:07Z</time>
      </trkpt>
      <trkpt lat="44.69964" lon="6.94354">
        <ele>2162</ele>
        <time>2022-07-18T07:30:08Z</time>
      </trkpt>
      <trkpt lat="44.69963" lon="6.94357">
        <ele>2162.4</ele>
        <time>2022-07-18T07:30:09Z</time>
      </trkpt>
      <trkpt lat="44.69962" lon="6.9436">
        <ele>2162.6</ele>
        <time>2022-07-18T07:30:10Z</time>
      </trkpt>
      <trkpt lat="44.6996" lon="6.94362">
        <ele>2163</ele>
        <time>2022-07-18T07:30:11Z</time>
      </trkpt>
      <trkpt lat="44.69959" lon="6.94365">
        <ele>2163.2</ele>
        <time>2022-07-18T07:30:12Z</time>
      </trkpt>
      <trkpt lat="44.69958" lon="6.94368">
        <ele>2163.4</ele>
        <time>2022-07-18T07:30:13Z</time>
      </trkpt>
      <trkpt lat="44.69957" lon="6.94371">
        <ele>2163.8</ele>
        <time>2022-07-18T07:30:14Z</time>
      </trkpt>
      <trkpt lat="44.69956" lon="6.94374">
        <ele>2164</ele>
        <time>2022-07-18T07:30:15Z</time>
      </trkpt>
      <trkpt lat="44.69955" lon="6.94377">
        <ele>2164.2</ele>
        <time>2022-07-18T07:30:16Z</time>
      </trkpt>
      <trkpt lat="44.69953" lon="6.94379">
        <ele>2164.4</ele>
        <time>2022-07-18T07:30:17Z</time>
      </trkpt>
      <trkpt lat="44.69952" lon="6.94382">
        <ele>2164.4</ele>
        <time>2022-07-18T07:30:18Z</time>
      </trkpt>
      <trkpt lat="44.69951" lon="6.94385">
        <ele>2164.8</ele>
        <time>2022-07-18T07:30:19Z</time>
      </trkpt>
      <trkpt lat="44.6995" lon="6.94388">
        <ele>2164.8</ele>
        <time>2022-07-18T07:30:20Z</time>
      </trkpt>
      <trkpt lat="44.69949" lon="6.94391">
        <ele>2165.4</ele>
        <time>2022-07-18T07:30:21Z</time>
      </trkpt>
      <trkpt lat="44.69948" lon="6.94394">
        <ele>2165.6</ele>
        <time>2022-07-18T07:30:22Z</time>
      </trkpt>
      <trkpt lat="44.69948" lon="6.94397">
        <ele>2165.6</ele>
        <time>2022-07-18T07:30:23Z</time>
      </trkpt>
      <trkpt lat="44.69947" lon="6.944">
        <ele>2166</ele>
        <time>2022-07-18T07:30:24Z</time>
      </trkpt>
      <trkpt lat="44.69946" lon="6.94403">
        <ele>2166.2</ele>
        <time>2022-07-18T07:30:25Z</time>
      </trkpt>
      <trkpt lat="44.69946" lon="6.94406">
        <ele>2166.4</ele>
        <time>2022-07-18T07:30:26Z</time>
      </trkpt>
      <trkpt lat="44.69946" lon="6.94409">
        <ele>2166.8</ele>
        <time>2022-07-18T07:30:27Z</time>
      </trkpt>
      <trkpt lat="44.69946" lon="6.94412">
        <ele>2166.8</ele>
        <time>2022-07-18T07:30:28Z</time>
      </trkpt>
      <trkpt lat="44.69946" lon="6.94415">
        <ele>2167</ele>
        <time>2022-07-18T07:30:29Z</time>
      </trkpt>
      <trkpt lat="44.69946" lon="6.94418">
        <ele>2167.4</ele>
        <time>2022-07-18T07:30:30Z</time>
      </trkpt>
      <trkpt lat="44.69945" lon="6.94421">
        <ele>2167.4</ele>
        <time>2022-07-18T07:30:31Z</time>
      </trkpt>
      <trkpt lat="44.69945" lon="6.94424">
        <ele>2167.6</ele>
        <time>2022-07-18T07:30:32Z</time>
      </trkpt>
      <trkpt lat="44.69944" lon="6.94427">
        <ele>2168</ele>
        <time>2022-07-18T07:30:33Z</time>
      </trkpt>
      <trkpt lat="44.69944" lon="6.9443">
        <ele>2168.2</ele>
        <time>2022-07-18T07:30:34Z</time>
      </trkpt>
      <trkpt lat="44.69944" lon="6.94433">
        <ele>2168.4</ele>
        <time>2022-07-18T07:30:35Z</time>
      </trkpt>
      <trkpt lat="44.69944" lon="6.94436">
        <ele>2168.4</ele>
        <time>2022-07-18T07:30:36Z</time>
      </trkpt>
      <trkpt lat="44.69944" lon="6.94439">
        <ele>2168.6</ele>
        <time>2022-07-18T07:30:37Z</time>
      </trkpt>
      <trkpt lat="44.69943" lon="6.94442">
        <ele>2169</ele>
        <time>2022-07-18T07:30:38Z</time>
      </trkpt>
      <trkpt lat="44.69943" lon="6.94444">
        <ele>2169.2</ele>
        <time>2022-07-18T07:30:39Z</time>
      </trkpt>
      <trkpt lat="44.69943" lon="6.94447">
        <ele>2169.4</ele>
        <time>2022-07-18T07:30:40Z</time>
      </trkpt>
      <trkpt lat="44.69943" lon="6.9445">
        <ele>2169.6</ele>
        <time>2022-07-18T07:30:41Z</time>
      </trkpt>
      <trkpt lat="44.69943" lon="6.94453">
        <ele>2169.8</ele>
        <time>2022-07-18T07:30:42Z</time>
      </trkpt>
      <trkpt lat="44.69942" lon="6.94455">
        <ele>2169.8</ele>
        <time>2022-07-18T07:30:43Z</time>
      </trkpt>
      <trkpt lat="44.69942" lon="6.94458">
        <ele>2170.2</ele>
        <time>2022-07-18T07:30:44Z</time>
      </trkpt>
      <trkpt lat="44.69941" lon="6.94461">
        <ele>2170.4</ele>
        <time>2022-07-18T07:30:45Z</time>
      </trkpt>
      <trkpt lat="44.6994" lon="6.94463">
        <ele>2170.4</ele>
        <time>2022-07-18T07:30:46Z</time>
      </trkpt>
      <trkpt lat="44.69939" lon="6.94466">
        <ele>2170.8</ele>
        <time>2022-07-18T07:30:47Z</time>
      </trkpt>
      <trkpt lat="44.69939" lon="6.94469">
        <ele>2170.8</ele>
        <time>2022-07-18T07:30:48Z</time>
      </trkpt>
      <trkpt lat="44.69938" lon="6.94472">
        <ele>2171.2</ele>
        <time>2022-07-18T07:30:49Z</time>
      </trkpt>
      <trkpt lat="44.69937" lon="6.94474">
        <ele>2171.2</ele>
        <time>2022-07-18T07:30:50Z</time>
      </trkpt>
      <trkpt lat="44.69937" lon="6.94477">
        <ele>2171.6</ele>
        <time>2022-07-18T07:30:51Z</time>
      </trkpt>
      <trkpt lat="44.69936" lon="6.9448">
        <ele>2171.8</ele>
        <time>2022-07-18T07:30:52Z</time>
      </trkpt>
      <trkpt lat="44.69936" lon="6.94483">
        <ele>2172</ele>
        <time>2022-07-18T07:30:53Z</time>
      </trkpt>
      <trkpt lat="44.69935" lon="6.94486">
        <ele>2172</ele>
        <time>2022-07-18T07:30:54Z</time>
      </trkpt>
      <trkpt lat="44.69934" lon="6.94489">
        <ele>2172.4</ele>
        <time>2022-07-18T07:30:55Z</time>
      </trkpt>
      <trkpt lat="44.69934" lon="6.94492">
        <ele>2172.4</ele>
        <time>2022-07-18T07:30:56Z</time>
      </trkpt>
      <trkpt lat="44.69933" lon="6.94495">
        <ele>2172.6</ele>
        <time>2022-07-18T07:30:57Z</time>
      </trkpt>
      <trkpt lat="44.69932" lon="6.94498">
        <ele>2172.6</ele>
        <time>2022-07-18T07:30:58Z</time>
      </trkpt>
      <trkpt lat="44.69932" lon="6.94501">
        <ele>2173</ele>
        <time>2022-07-18T07:30:59Z</time>
      </trkpt>
      <trkpt lat="44.69931" lon="6.94504">
        <ele>2173.2</ele>
        <time>2022-07-18T07:31:00Z</time>
      </trkpt>
      <trkpt lat="44.6993" lon="6.94507">
        <ele>2173.2</ele>
        <time>2022-07-18T07:31:01Z</time>
      </trkpt>
      <trkpt lat="44.6993" lon="6.9451">
        <ele>2173.6</ele>
        <time>2022-07-18T07:31:02Z</time>
      </trkpt>
      <trkpt lat="44.6993" lon="6.94513">
        <ele>2173.6</ele>
        <time>2022-07-18T07:31:03Z</time>
      </trkpt>
      <trkpt lat="44.69929" lon="6.94515">
        <ele>2174</ele>
        <time>2022-07-18T07:31:04Z</time>
      </trkpt>
      <trkpt lat="44.69929" lon="6.94518">
        <ele>2174</ele>
        <time>2022-07-18T07:31:05Z</time>
      </trkpt>
      <trkpt lat="44.69929" lon="6.94521">
        <ele>2174.4</ele>
        <time>2022-07-18T07:31:06Z</time>
      </trkpt>
      <trkpt lat="44.69928" lon="6.94524">
        <ele>2174.4</ele>
        <time>2022-07-18T07:31:07Z</time>
      </trkpt>
      <trkpt lat="44.69928" lon="6.94527">
        <ele>2174.8</ele>
        <time>2022-07-18T07:31:08Z</time>
      </trkpt>
      <trkpt lat="44.69928" lon="6.94531">
        <ele>2175</ele>
        <time>2022-07-18T07:31:09Z</time>
      </trkpt>
      <trkpt lat="44.69928" lon="6.94534">
        <ele>2175.2</ele>
        <time>2022-07-18T07:31:10Z</time>
      </trkpt>
      <trkpt lat="44.69929" lon="6.94537">
        <ele>2175.2</ele>
        <time>2022-07-18T07:31:11Z</time>
      </trkpt>
      <trkpt lat="44.69929" lon="6.9454">
        <ele>2175.6</ele>
        <time>2022-07-18T07:31:12Z</time>
      </trkpt>
      <trkpt lat="44.69929" lon="6.94543">
        <ele>2175.6</ele>
        <time>2022-07-18T07:31:13Z</time>
      </trkpt>
      <trkpt lat="44.69929" lon="6.94547">
        <ele>2175.8</ele>
        <time>2022-07-18T07:31:14Z</time>
      </trkpt>
      <trkpt lat="44.69929" lon="6.9455">
        <ele>2175.8</ele>
        <time>2022-07-18T07:31:15Z</time>
      </trkpt>
      <trkpt lat="44.69929" lon="6.94553">
        <ele>2176</ele>
        <time>2022-07-18T07:31:16Z</time>
      </trkpt>
      <trkpt lat="44.69929" lon="6.94556">
        <ele>2176</ele>
        <time>2022-07-18T07:31:17Z</time>
      </trkpt>
      <trkpt lat="44.69929" lon="6.94559">
        <ele>2176.4</ele>
        <time>2022-07-18T07:31:18Z</time>
      </trkpt>
      <trkpt lat="44.69929" lon="6.94562">
        <ele>2176.4</ele>
        <time>2022-07-18T07:31:19Z</time>
      </trkpt>
      <trkpt lat="44.69929" lon="6.94565">
        <ele>2176.8</ele>
        <time>2022-07-18T07:31:20Z</time>
      </trkpt>
      <trkpt lat="44.69929" lon="6.94568">
        <ele>2176.8</ele>
        <time>2022-07-18T07:31:21Z</time>
      </trkpt>
      <trkpt lat="44.69928" lon="6.94571">
        <ele>2177</ele>
        <time>2022-07-18T07:31:22Z</time>
      </trkpt>
      <trkpt lat="44.69928" lon="6.94574">
        <ele>2177</ele>
        <time>2022-07-18T07:31:23Z</time>
      </trkpt>
      <trkpt lat="44.69926" lon="6.94577">
        <ele>2177.2</ele>
        <time>2022-07-18T07:31:24Z</time>
      </trkpt>
      <trkpt lat="44.69924" lon="6.94578">
        <ele>2177.2</ele>
        <time>2022-07-18T07:31:25Z</time>
      </trkpt>
      <trkpt lat="44.69921" lon="6.9458">
        <ele>2177.4</ele>
        <time>2022-07-18T07:31:26Z</time>
      </trkpt>
      <trkpt lat="44.69919" lon="6.94581">
        <ele>2177.4</ele>
        <time>2022-07-18T07:31:27Z</time>
      </trkpt>
      <trkpt lat="44.69917" lon="6.94582">
        <ele>2177.8</ele>
        <time>2022-07-18T07:31:28Z</time>
      </trkpt>
      <trkpt lat="44.69914" lon="6.94583">
        <ele>2178</ele>
        <time>2022-07-18T07:31:29Z</time>
      </trkpt>
      <trkpt lat="44.69912" lon="6.94584">
        <ele>2178</ele>
        <time>2022-07-18T07:31:30Z</time>
      </trkpt>
      <trkpt lat="44.6991" lon="6.94584">
        <ele>2178.2</ele>
        <time>2022-07-18T07:31:31Z</time>
      </trkpt>
      <trkpt lat="44.69908" lon="6.94585">
        <ele>2178.2</ele>
        <time>2022-07-18T07:31:32Z</time>
      </trkpt>
      <trkpt lat="44.69906" lon="6.94586">
        <ele>2178.4</ele>
        <time>2022-07-18T07:31:33Z</time>
      </trkpt>
      <trkpt lat="44.69904" lon="6.94587">
        <ele>2178.4</ele>
        <time>2022-07-18T07:31:34Z</time>
      </trkpt>
      <trkpt lat="44.69902" lon="6.94588">
        <ele>2178.8</ele>
        <time>2022-07-18T07:31:35Z</time>
      </trkpt>
      <trkpt lat="44.699" lon="6.94589">
        <ele>2179</ele>
        <time>2022-07-18T07:31:36Z</time>
      </trkpt>
      <trkpt lat="44.69898" lon="6.9459">
        <ele>2179.2</ele>
        <time>2022-07-18T07:31:37Z</time>
      </trkpt>
      <trkpt lat="44.69895" lon="6.94591">
        <ele>2179.2</ele>
        <time>2022-07-18T07:31:38Z</time>
      </trkpt>
      <trkpt lat="44.69893" lon="6.94592">
        <ele>2179.6</ele>
        <time>2022-07-18T07:31:39Z</time>
      </trkpt>
      <trkpt lat="44.69891" lon="6.94593">
        <ele>2179.8</ele>
        <time>2022-07-18T07:31:40Z</time>
      </trkpt>
      <trkpt lat="44.69889" lon="6.94594">
        <ele>2179.8</ele>
        <time>2022-07-18T07:31:41Z</time>
      </trkpt>
      <trkpt lat="44.69887" lon="6.94595">
        <ele>2180.2</ele>
        <time>2022-07-18T07:31:42Z</time>
      </trkpt>
      <trkpt lat="44.69885" lon="6.94596">
        <ele>2180.4</ele>
        <time>2022-07-18T07:31:43Z</time>
      </trkpt>
      <trkpt lat="44.69883" lon="6.94596">
        <ele>2180.6</ele>
        <time>2022-07-18T07:31:44Z</time>
      </trkpt>
      <trkpt lat="44.69881" lon="6.94597">
        <ele>2181</ele>
        <time>2022-07-18T07:31:45Z</time>
      </trkpt>
      <trkpt lat="44.69879" lon="6.94598">
        <ele>2181.2</ele>
        <time>2022-07-18T07:31:46Z</time>
      </trkpt>
      <trkpt lat="44.69877" lon="6.94599">
        <ele>2181.4</ele>
        <time>2022-07-18T07:31:47Z</time>
      </trkpt>
      <trkpt lat="44.69876" lon="6.946">
        <ele>2181.6</ele>
        <time>2022-07-18T07:31:48Z</time>
      </trkpt>
      <trkpt lat="44.69874" lon="6.94601">
        <ele>2181.8</ele>
        <time>2022-07-18T07:31:49Z</time>
      </trkpt>
      <trkpt lat="44.69872" lon="6.94602">
        <ele>2182</ele>
        <time>2022-07-18T07:31:50Z</time>
      </trkpt>
      <trkpt lat="44.6987" lon="6.94603">
        <ele>2182.2</ele>
        <time>2022-07-18T07:31:51Z</time>
      </trkpt>
      <trkpt lat="44.69868" lon="6.94604">
        <ele>2182.6</ele>
        <time>2022-07-18T07:31:52Z</time>
      </trkpt>
      <trkpt lat="44.69866" lon="6.94605">
        <ele>2182.8</ele>
        <time>2022-07-18T07:31:53Z</time>
      </trkpt>
      <trkpt lat="44.69864" lon="6.94606">
        <ele>2183</ele>
        <time>2022-07-18T07:31:54Z</time>
      </trkpt>
      <trkpt lat="44.69862" lon="6.94607">
        <ele>2183.2</ele>
        <time>2022-07-18T07:31:55Z</time>
      </trkpt>
      <trkpt lat="44.6986" lon="6.94608">
        <ele>2183.6</ele>
        <time>2022-07-18T07:31:56Z</time>
      </trkpt>
      <trkpt lat="44.69859" lon="6.94609">
        <ele>2183.8</ele>
        <time>2022-07-18T07:31:57Z</time>
      </trkpt>
      <trkpt lat="44.69857" lon="6.94611">
        <ele>2184</ele>
        <time>2022-07-18T07:31:58Z</time>
      </trkpt>
      <trkpt lat="44.69856" lon="6.94612">
        <ele>2184.2</ele>
        <time>2022-07-18T07:31:59Z</time>
      </trkpt>
      <trkpt lat="44.69854" lon="6.94614">
        <ele>2184.2</ele>
        <time>2022-07-18T07:32:00Z</time>
      </trkpt>
      <trkpt lat="44.69853" lon="6.94615">
        <ele>2184.6</ele>
        <time>2022-07-18T07:32:01Z</time>
      </trkpt>
      <trkpt lat="44.69851" lon="6.94617">
        <ele>2185</ele>
        <time>2022-07-18T07:32:02Z</time>
      </trkpt>
      <trkpt lat="44.6985" lon="6.94618">
        <ele>2185.2</ele>
        <time>2022-07-18T07:32:03Z</time>
      </trkpt>
      <trkpt lat="44.69849" lon="6.9462">
        <ele>2185.2</ele>
        <time>2022-07-18T07:32:04Z</time>
      </trkpt>
      <trkpt lat="44.69847" lon="6.94621">
        <ele>2185.6</ele>
        <time>2022-07-18T07:32:05Z</time>
      </trkpt>
      <trkpt lat="44.69846" lon="6.94623">
        <ele>2185.8</ele>
        <time>2022-07-18T07:32:06Z</time>
      </trkpt>
      <trkpt lat="44.69844" lon="6.94624">
        <ele>2185.8</ele>
        <time>2022-07-18T07:32:07Z</time>
      </trkpt>
      <trkpt lat="44.69843" lon="6.94626">
        <ele>2186.2</ele>
        <time>2022-07-18T07:32:08Z</time>
      </trkpt>
      <trkpt lat="44.69842" lon="6.94628">
        <ele>2186.2</ele>
        <time>2022-07-18T07:32:09Z</time>
      </trkpt>
      <trkpt lat="44.6984" lon="6.9463">
        <ele>2186.6</ele>
        <time>2022-07-18T07:32:10Z</time>
      </trkpt>
      <trkpt lat="44.69839" lon="6.94632">
        <ele>2186.6</ele>
        <time>2022-07-18T07:32:11Z</time>
      </trkpt>
      <trkpt lat="44.69838" lon="6.94634">
        <ele>2187</ele>
        <time>2022-07-18T07:32:12Z</time>
      </trkpt>
      <trkpt lat="44.69837" lon="6.94636">
        <ele>2187</ele>
        <time>2022-07-18T07:32:13Z</time>
      </trkpt>
      <trkpt lat="44.69835" lon="6.94639">
        <ele>2187.2</ele>
        <time>2022-07-18T07:32:14Z</time>
      </trkpt>
      <trkpt lat="44.69834" lon="6.94641">
        <ele>2187.4</ele>
        <time>2022-07-18T07:32:15Z</time>
      </trkpt>
      <trkpt lat="44.69832" lon="6.94643">
        <ele>2187.4</ele>
        <time>2022-07-18T07:32:16Z</time>
      </trkpt>
      <trkpt lat="44.69831" lon="6.94645">
        <ele>2187.8</ele>
        <time>2022-07-18T07:32:17Z</time>
      </trkpt>
      <trkpt lat="44.6983" lon="6.94648">
        <ele>2187.8</ele>
        <time>2022-07-18T07:32:18Z</time>
      </trkpt>
      <trkpt lat="44.69828" lon="6.9465">
        <ele>2188</ele>
        <time>2022-07-18T07:32:19Z</time>
      </trkpt>
      <trkpt lat="44.69827" lon="6.94652">
        <ele>2188.2</ele>
        <time>2022-07-18T07:32:20Z</time>
      </trkpt>
      <trkpt lat="44.69826" lon="6.94655">
        <ele>2188.2</ele>
        <time>2022-07-18T07:32:21Z</time>
      </trkpt>
      <trkpt lat="44.69825" lon="6.94657">
        <ele>2188.6</ele>
        <time>2022-07-18T07:32:22Z</time>
      </trkpt>
      <trkpt lat="44.69823" lon="6.94659">
        <ele>2188.8</ele>
        <time>2022-07-18T07:32:23Z</time>
      </trkpt>
      <trkpt lat="44.69822" lon="6.94662">
        <ele>2188.8</ele>
        <time>2022-07-18T07:32:24Z</time>
      </trkpt>
      <trkpt lat="44.69821" lon="6.94664">
        <ele>2189.2</ele>
        <time>2022-07-18T07:32:25Z</time>
      </trkpt>
      <trkpt lat="44.6982" lon="6.94667">
        <ele>2189.2</ele>
        <time>2022-07-18T07:32:26Z</time>
      </trkpt>
      <trkpt lat="44.69819" lon="6.94669">
        <ele>2189.6</ele>
        <time>2022-07-18T07:32:27Z</time>
      </trkpt>
      <trkpt lat="44.69818" lon="6.94672">
        <ele>2189.6</ele>
        <time>2022-07-18T07:32:28Z</time>
      </trkpt>
      <trkpt lat="44.69817" lon="6.94675">
        <ele>2189.8</ele>
        <time>2022-07-18T07:32:29Z</time>
      </trkpt>
      <trkpt lat="44.69815" lon="6.94678">
        <ele>2189.8</ele>
        <time>2022-07-18T07:32:30Z</time>
      </trkpt>
      <trkpt lat="44.69814" lon="6.94681">
        <ele>2190.2</ele>
        <time>2022-07-18T07:32:31Z</time>
      </trkpt>
      <trkpt lat="44.69813" lon="6.94683">
        <ele>2190.2</ele>
        <time>2022-07-18T07:32:32Z</time>
      </trkpt>
      <trkpt lat="44.69812" lon="6.94686">
        <ele>2190.4</ele>
        <time>2022-07-18T07:32:33Z</time>
      </trkpt>
      <trkpt lat="44.69811" lon="6.94689">
        <ele>2190.4</ele>
        <time>2022-07-18T07:32:34Z</time>
      </trkpt>
      <trkpt lat="44.6981" lon="6.94691">
        <ele>2190.6</ele>
        <time>2022-07-18T07:32:35Z</time>
      </trkpt>
      <trkpt lat="44.69808" lon="6.94694">
        <ele>2190.6</ele>
        <time>2022-07-18T07:32:36Z</time>
      </trkpt>
      <trkpt lat="44.69807" lon="6.94697">
        <ele>2191</ele>
        <time>2022-07-18T07:32:37Z</time>
      </trkpt>
      <trkpt lat="44.69806" lon="6.94699">
        <ele>2191</ele>
        <time>2022-07-18T07:32:38Z</time>
      </trkpt>
      <trkpt lat="44.69804" lon="6.94702">
        <ele>2191.4</ele>
        <time>2022-07-18T07:32:40Z</time>
      </trkpt>
      <trkpt lat="44.69803" lon="6.94705">
        <ele>2191.6</ele>
        <time>2022-07-18T07:32:41Z</time>
      </trkpt>
      <trkpt lat="44.69801" lon="6.94707">
        <ele>2191.8</ele>
        <time>2022-07-18T07:32:42Z</time>
      </trkpt>
      <trkpt lat="44.698" lon="6.9471">
        <ele>2192</ele>
        <time>2022-07-18T07:32:43Z</time>
      </trkpt>
      <trkpt lat="44.69799" lon="6.94713">
        <ele>2192</ele>
        <time>2022-07-18T07:32:44Z</time>
      </trkpt>
      <trkpt lat="44.69798" lon="6.94715">
        <ele>2192.2</ele>
        <time>2022-07-18T07:32:45Z</time>
      </trkpt>
      <trkpt lat="44.69796" lon="6.94718">
        <ele>2192.2</ele>
        <time>2022-07-18T07:32:46Z</time>
      </trkpt>
      <trkpt lat="44.69795" lon="6.9472">
        <ele>2192.6</ele>
        <time>2022-07-18T07:32:47Z</time>
      </trkpt>
      <trkpt lat="44.69794" lon="6.94723">
        <ele>2192.6</ele>
        <time>2022-07-18T07:32:48Z</time>
      </trkpt>
      <trkpt lat="44.69793" lon="6.94725">
        <ele>2192.8</ele>
        <time>2022-07-18T07:32:49Z</time>
      </trkpt>
      <trkpt lat="44.69791" lon="6.94728">
        <ele>2192.8</ele>
        <time>2022-07-18T07:32:50Z</time>
      </trkpt>
      <trkpt lat="44.6979" lon="6.9473">
        <ele>2193.2</ele>
        <time>2022-07-18T07:32:51Z</time>
      </trkpt>
      <trkpt lat="44.69789" lon="6.94733">
        <ele>2193.2</ele>
        <time>2022-07-18T07:32:52Z</time>
      </trkpt>
      <trkpt lat="44.69788" lon="6.94735">
        <ele>2193.6</ele>
        <time>2022-07-18T07:32:53Z</time>
      </trkpt>
      <trkpt lat="44.69787" lon="6.94738">
        <ele>2193.8</ele>
        <time>2022-07-18T07:32:54Z</time>
      </trkpt>
      <trkpt lat="44.69785" lon="6.94741">
        <ele>2193.8</ele>
        <time>2022-07-18T07:32:55Z</time>
      </trkpt>
      <trkpt lat="44.69784" lon="6.94743">
        <ele>2194</ele>
        <time>2022-07-18T07:32:56Z</time>
      </trkpt>
      <trkpt lat="44.69783" lon="6.94746">
        <ele>2194.4</ele>
        <time>2022-07-18T07:32:57Z</time>
      </trkpt>
      <trkpt lat="44.69781" lon="6.94748">
        <ele>2194.6</ele>
        <time>2022-07-18T07:32:58Z</time>
      </trkpt>
      <trkpt lat="44.6978" lon="6.9475">
        <ele>2194.8</ele>
        <time>2022-07-18T07:32:59Z</time>
      </trkpt>
      <trkpt lat="44.69779" lon="6.94753">
        <ele>2195.2</ele>
        <time>2022-07-18T07:33:00Z</time>
      </trkpt>
      <trkpt lat="44.69777" lon="6.94755">
        <ele>2195.2</ele>
        <time>2022-07-18T07:33:01Z</time>
      </trkpt>
      <trkpt lat="44.69776" lon="6.94757">
        <ele>2195.6</ele>
        <time>2022-07-18T07:33:02Z</time>
      </trkpt>
      <trkpt lat="44.69774" lon="6.9476">
        <ele>2195.8</ele>
        <time>2022-07-18T07:33:03Z</time>
      </trkpt>
      <trkpt lat="44.69773" lon="6.94762">
        <ele>2196.2</ele>
        <time>2022-07-18T07:33:04Z</time>
      </trkpt>
      <trkpt lat="44.69772" lon="6.94764">
        <ele>2196.4</ele>
        <time>2022-07-18T07:33:05Z</time>
      </trkpt>
      <trkpt lat="44.6977" lon="6.94766">
        <ele>2196.6</ele>
        <time>2022-07-18T07:33:06Z</time>
      </trkpt>
      <trkpt lat="44.69769" lon="6.94768">
        <ele>2196.8</ele>
        <time>2022-07-18T07:33:07Z</time>
      </trkpt>
      <trkpt lat="44.69767" lon="6.94769">
        <ele>2197</ele>
        <time>2022-07-18T07:33:08Z</time>
      </trkpt>
      <trkpt lat="44.69766" lon="6.94771">
        <ele>2197.4</ele>
        <time>2022-07-18T07:33:09Z</time>
      </trkpt>
      <trkpt lat="44.69764" lon="6.94772">
        <ele>2197.6</ele>
        <time>2022-07-18T07:33:10Z</time>
      </trkpt>
      <trkpt lat="44.69762" lon="6.94774">
        <ele>2197.8</ele>
        <time>2022-07-18T07:33:11Z</time>
      </trkpt>
      <trkpt lat="44.69761" lon="6.94775">
        <ele>2198.2</ele>
        <time>2022-07-18T07:33:12Z</time>
      </trkpt>
      <trkpt lat="44.69758" lon="6.94775">
        <ele>2198.4</ele>
        <time>2022-07-18T07:33:13Z</time>
      </trkpt>
      <trkpt lat="44.69757" lon="6.94776">
        <ele>2198.6</ele>
        <time>2022-07-18T07:33:14Z</time>
      </trkpt>
      <trkpt lat="44.69755" lon="6.94777">
        <ele>2199</ele>
        <time>2022-07-18T07:33:15Z</time>
      </trkpt>
      <trkpt lat="44.69753" lon="6.94778">
        <ele>2199.2</ele>
        <time>2022-07-18T07:33:16Z</time>
      </trkpt>
      <trkpt lat="44.69751" lon="6.94778">
        <ele>2199.2</ele>
        <time>2022-07-18T07:33:17Z</time>
      </trkpt>
      <trkpt lat="44.69749" lon="6.94778">
        <ele>2199.6</ele>
        <time>2022-07-18T07:33:18Z</time>
      </trkpt>
      <trkpt lat="44.69747" lon="6.94778">
        <ele>2199.8</ele>
        <time>2022-07-18T07:33:19Z</time>
      </trkpt>
      <trkpt lat="44.69745" lon="6.94778">
        <ele>2200</ele>
        <time>2022-07-18T07:33:20Z</time>
      </trkpt>
      <trkpt lat="44.69743" lon="6.94777">
        <ele>2200.4</ele>
        <time>2022-07-18T07:33:21Z</time>
      </trkpt>
      <trkpt lat="44.69742" lon="6.94777">
        <ele>2200.4</ele>
        <time>2022-07-18T07:33:22Z</time>
      </trkpt>
      <trkpt lat="44.6974" lon="6.94777">
        <ele>2200.8</ele>
        <time>2022-07-18T07:33:23Z</time>
      </trkpt>
      <trkpt lat="44.69738" lon="6.94776">
        <ele>2200.8</ele>
        <time>2022-07-18T07:33:24Z</time>
      </trkpt>
      <trkpt lat="44.69736" lon="6.94775">
        <ele>2201.2</ele>
        <time>2022-07-18T07:33:25Z</time>
      </trkpt>
      <trkpt lat="44.69734" lon="6.94775">
        <ele>2201.4</ele>
        <time>2022-07-18T07:33:26Z</time>
      </trkpt>
      <trkpt lat="44.69732" lon="6.94774">
        <ele>2201.6</ele>
        <time>2022-07-18T07:33:27Z</time>
      </trkpt>
      <trkpt lat="44.6973" lon="6.94773">
        <ele>2201.8</ele>
        <time>2022-07-18T07:33:28Z</time>
      </trkpt>
      <trkpt lat="44.69728" lon="6.94773">
        <ele>2202.2</ele>
        <time>2022-07-18T07:33:29Z</time>
      </trkpt>
      <trkpt lat="44.69726" lon="6.94772">
        <ele>2202.2</ele>
        <time>2022-07-18T07:33:30Z</time>
      </trkpt>
      <trkpt lat="44.69724" lon="6.94771">
        <ele>2202.4</ele>
        <time>2022-07-18T07:33:31Z</time>
      </trkpt>
      <trkpt lat="44.69722" lon="6.9477">
        <ele>2202.8</ele>
        <time>2022-07-18T07:33:32Z</time>
      </trkpt>
      <trkpt lat="44.6972" lon="6.94769">
        <ele>2203</ele>
        <time>2022-07-18T07:33:33Z</time>
      </trkpt>
      <trkpt lat="44.69718" lon="6.94769">
        <ele>2203</ele>
        <time>2022-07-18T07:33:34Z</time>
      </trkpt>
      <trkpt lat="44.69716" lon="6.94768">
        <ele>2203.2</ele>
        <time>2022-07-18T07:33:35Z</time>
      </trkpt>
      <trkpt lat="44.69714" lon="6.94767">
        <ele>2203.2</ele>
        <time>2022-07-18T07:33:36Z</time>
      </trkpt>
      <trkpt lat="44.69712" lon="6.94766">
        <ele>2203.6</ele>
        <time>2022-07-18T07:33:37Z</time>
      </trkpt>
      <trkpt lat="44.6971" lon="6.94765">
        <ele>2203.6</ele>
        <time>2022-07-18T07:33:38Z</time>
      </trkpt>
      <trkpt lat="44.69708" lon="6.94765">
        <ele>2204</ele>
        <time>2022-07-18T07:33:39Z</time>
      </trkpt>
      <trkpt lat="44.69706" lon="6.94766">
        <ele>2204</ele>
        <time>2022-07-18T07:33:40Z</time>
      </trkpt>
      <trkpt lat="44.69704" lon="6.94766">
        <ele>2204.2</ele>
        <time>2022-07-18T07:33:41Z</time>
      </trkpt>
      <trkpt lat="44.69701" lon="6.94766">
        <ele>2204.2</ele>
        <time>2022-07-18T07:33:42Z</time>
      </trkpt>
      <trkpt lat="44.69699" lon="6.94767">
        <ele>2204.6</ele>
        <time>2022-07-18T07:33:43Z</time>
      </trkpt>
      <trkpt lat="44.69697" lon="6.94769">
        <ele>2204.6</ele>
        <time>2022-07-18T07:33:44Z</time>
      </trkpt>
      <trkpt lat="44.69695" lon="6.94771">
        <ele>2204.8</ele>
        <time>2022-07-18T07:33:45Z</time>
      </trkpt>
      <trkpt lat="44.69694" lon="6.94774">
        <ele>2204.8</ele>
        <time>2022-07-18T07:33:46Z</time>
      </trkpt>
      <trkpt lat="44.69692" lon="6.94776">
        <ele>2205.2</ele>
        <time>2022-07-18T07:33:47Z</time>
      </trkpt>
      <trkpt lat="44.6969" lon="6.94778">
        <ele>2205.2</ele>
        <time>2022-07-18T07:33:48Z</time>
      </trkpt>
      <trkpt lat="44.69688" lon="6.9478">
        <ele>2205.6</ele>
        <time>2022-07-18T07:33:49Z</time>
      </trkpt>
      <trkpt lat="44.69687" lon="6.94782">
        <ele>2205.8</ele>
        <time>2022-07-18T07:33:50Z</time>
      </trkpt>
      <trkpt lat="44.69685" lon="6.94785">
        <ele>2206</ele>
        <time>2022-07-18T07:33:51Z</time>
      </trkpt>
      <trkpt lat="44.69684" lon="6.94787">
        <ele>2206.2</ele>
        <time>2022-07-18T07:33:52Z</time>
      </trkpt>
      <trkpt lat="44.69683" lon="6.94789">
        <ele>2206.4</ele>
        <time>2022-07-18T07:33:53Z</time>
      </trkpt>
      <trkpt lat="44.69682" lon="6.94791">
        <ele>2206.4</ele>
        <time>2022-07-18T07:33:54Z</time>
      </trkpt>
      <trkpt lat="44.6968" lon="6.94794">
        <ele>2206.8</ele>
        <time>2022-07-18T07:33:55Z</time>
      </trkpt>
      <trkpt lat="44.69679" lon="6.94796">
        <ele>2207</ele>
        <time>2022-07-18T07:33:56Z</time>
      </trkpt>
      <trkpt lat="44.69678" lon="6.94798">
        <ele>2207.4</ele>
        <time>2022-07-18T07:33:57Z</time>
      </trkpt>
      <trkpt lat="44.69677" lon="6.94801">
        <ele>2207.4</ele>
        <time>2022-07-18T07:33:58Z</time>
      </trkpt>
      <trkpt lat="44.69676" lon="6.94803">
        <ele>2207.8</ele>
        <time>2022-07-18T07:33:59Z</time>
      </trkpt>
      <trkpt lat="44.69675" lon="6.94806">
        <ele>2207.8</ele>
        <time>2022-07-18T07:34:00Z</time>
      </trkpt>
      <trkpt lat="44.69674" lon="6.94808">
        <ele>2208</ele>
        <time>2022-07-18T07:34:01Z</time>
      </trkpt>
      <trkpt lat="44.69673" lon="6.9481">
        <ele>2208</ele>
        <time>2022-07-18T07:34:02Z</time>
      </trkpt>
      <trkpt lat="44.69672" lon="6.94813">
        <ele>2208.4</ele>
        <time>2022-07-18T07:34:03Z</time>
      </trkpt>
      <trkpt lat="44.69671" lon="6.94815">
        <ele>2208.4</ele>
        <time>2022-07-18T07:34:04Z</time>
      </trkpt>
      <trkpt lat="44.6967" lon="6.94818">
        <ele>2208.6</ele>
        <time>2022-07-18T07:34:05Z</time>
      </trkpt>
      <trkpt lat="44.69669" lon="6.9482">
        <ele>2209</ele>
        <time>2022-07-18T07:34:06Z</time>
      </trkpt>
      <trkpt lat="44.69668" lon="6.94823">
        <ele>2209.2</ele>
        <time>2022-07-18T07:34:07Z</time>
      </trkpt>
      <trkpt lat="44.69667" lon="6.94825">
        <ele>2209.2</ele>
        <time>2022-07-18T07:34:08Z</time>
      </trkpt>
      <trkpt lat="44.69666" lon="6.94827">
        <ele>2209.4</ele>
        <time>2022-07-18T07:34:09Z</time>
      </trkpt>
      <trkpt lat="44.69665" lon="6.9483">
        <ele>2209.6</ele>
        <time>2022-07-18T07:34:10Z</time>
      </trkpt>
      <trkpt lat="44.69664" lon="6.94832">
        <ele>2209.6</ele>
        <time>2022-07-18T07:34:11Z</time>
      </trkpt>
      <trkpt lat="44.69663" lon="6.94834">
        <ele>2210</ele>
        <time>2022-07-18T07:34:12Z</time>
      </trkpt>
      <trkpt lat="44.69662" lon="6.94837">
        <ele>2210</ele>
        <time>2022-07-18T07:34:13Z</time>
      </trkpt>
      <trkpt lat="44.6966" lon="6.94839">
        <ele>2210.4</ele>
        <time>2022-07-18T07:34:14Z</time>
      </trkpt>
      <trkpt lat="44.69659" lon="6.94842">
        <ele>2210.6</ele>
        <time>2022-07-18T07:34:15Z</time>
      </trkpt>
      <trkpt lat="44.69658" lon="6.94844">
        <ele>2210.8</ele>
        <time>2022-07-18T07:34:16Z</time>
      </trkpt>
      <trkpt lat="44.69657" lon="6.94847">
        <ele>2211.2</ele>
        <time>2022-07-18T07:34:17Z</time>
      </trkpt>
      <trkpt lat="44.69656" lon="6.94849">
        <ele>2211.2</ele>
        <time>2022-07-18T07:34:18Z</time>
      </trkpt>
      <trkpt lat="44.69655" lon="6.94851">
        <ele>2211.4</ele>
        <time>2022-07-18T07:34:19Z</time>
      </trkpt>
      <trkpt lat="44.69653" lon="6.94854">
        <ele>2211.8</ele>
        <time>2022-07-18T07:34:20Z</time>
      </trkpt>
      <trkpt lat="44.69652" lon="6.94856">
        <ele>2211.8</ele>
        <time>2022-07-18T07:34:21Z</time>
      </trkpt>
      <trkpt lat="44.69651" lon="6.94858">
        <ele>2212</ele>
        <time>2022-07-18T07:34:22Z</time>
      </trkpt>
      <trkpt lat="44.6965" lon="6.94861">
        <ele>2212</ele>
        <time>2022-07-18T07:34:23Z</time>
      </trkpt>
      <trkpt lat="44.69649" lon="6.94863">
        <ele>2212.4</ele>
        <time>2022-07-18T07:34:24Z</time>
      </trkpt>
      <trkpt lat="44.69648" lon="6.94866">
        <ele>2212.6</ele>
        <time>2022-07-18T07:34:25Z</time>
      </trkpt>
      <trkpt lat="44.69647" lon="6.94868">
        <ele>2213</ele>
        <time>2022-07-18T07:34:26Z</time>
      </trkpt>
      <trkpt lat="44.69646" lon="6.9487">
        <ele>2213</ele>
        <time>2022-07-18T07:34:27Z</time>
      </trkpt>
      <trkpt lat="44.69645" lon="6.94872">
        <ele>2213.4</ele>
        <time>2022-07-18T07:34:28Z</time>
      </trkpt>
      <trkpt lat="44.69644" lon="6.94875">
        <ele>2213.6</ele>
        <time>2022-07-18T07:34:29Z</time>
      </trkpt>
      <trkpt lat="44.69643" lon="6.94877">
        <ele>2213.8</ele>
        <time>2022-07-18T07:34:30Z</time>
      </trkpt>
      <trkpt lat="44.69642" lon="6.94879">
        <ele>2213.8</ele>
        <time>2022-07-18T07:34:31Z</time>
      </trkpt>
      <trkpt lat="44.69641" lon="6.94881">
        <ele>2214.2</ele>
        <time>2022-07-18T07:34:32Z</time>
      </trkpt>
      <trkpt lat="44.6964" lon="6.94883">
        <ele>2214.4</ele>
        <time>2022-07-18T07:34:33Z</time>
      </trkpt>
      <trkpt lat="44.69639" lon="6.94885">
        <ele>2214.6</ele>
        <time>2022-07-18T07:34:34Z</time>
      </trkpt>
      <trkpt lat="44.69637" lon="6.94887">
        <ele>2215</ele>
        <time>2022-07-18T07:34:35Z</time>
      </trkpt>
      <trkpt lat="44.69636" lon="6.94889">
        <ele>2215.2</ele>
        <time>2022-07-18T07:34:36Z</time>
      </trkpt>
      <trkpt lat="44.69635" lon="6.94891">
        <ele>2215.2</ele>
        <time>2022-07-18T07:34:37Z</time>
      </trkpt>
      <trkpt lat="44.69634" lon="6.94893">
        <ele>2215.6</ele>
        <time>2022-07-18T07:34:38Z</time>
      </trkpt>
      <trkpt lat="44.69633" lon="6.94894">
        <ele>2215.6</ele>
        <time>2022-07-18T07:34:39Z</time>
      </trkpt>
      <trkpt lat="44.69631" lon="6.94896">
        <ele>2216</ele>
        <time>2022-07-18T07:34:40Z</time>
      </trkpt>
      <trkpt lat="44.6963" lon="6.94898">
        <ele>2216.2</ele>
        <time>2022-07-18T07:34:41Z</time>
      </trkpt>
      <trkpt lat="44.69628" lon="6.94899">
        <ele>2216.2</ele>
        <time>2022-07-18T07:34:42Z</time>
      </trkpt>
      <trkpt lat="44.69627" lon="6.94901">
        <ele>2216.6</ele>
        <time>2022-07-18T07:34:43Z</time>
      </trkpt>
      <trkpt lat="44.69625" lon="6.94902">
        <ele>2216.8</ele>
        <time>2022-07-18T07:34:44Z</time>
      </trkpt>
      <trkpt lat="44.69624" lon="6.94903">
        <ele>2217.2</ele>
        <time>2022-07-18T07:34:45Z</time>
      </trkpt>
      <trkpt lat="44.69622" lon="6.94904">
        <ele>2217.4</ele>
        <time>2022-07-18T07:34:46Z</time>
      </trkpt>
      <trkpt lat="44.6962" lon="6.94906">
        <ele>2217.4</ele>
        <time>2022-07-18T07:34:47Z</time>
      </trkpt>
      <trkpt lat="44.69619" lon="6.94907">
        <ele>2217.8</ele>
        <time>2022-07-18T07:34:48Z</time>
      </trkpt>
      <trkpt lat="44.69618" lon="6.94908">
        <ele>2218.2</ele>
        <time>2022-07-18T07:34:49Z</time>
      </trkpt>
      <trkpt lat="44.69616" lon="6.9491">
        <ele>2218.4</ele>
        <time>2022-07-18T07:34:50Z</time>
      </trkpt>
      <trkpt lat="44.69615" lon="6.94911">
        <ele>2218.4</ele>
        <time>2022-07-18T07:34:51Z</time>
      </trkpt>
      <trkpt lat="44.69614" lon="6.94913">
        <ele>2218.8</ele>
        <time>2022-07-18T07:34:52Z</time>
      </trkpt>
      <trkpt lat="44.69612" lon="6.94914">
        <ele>2219</ele>
        <time>2022-07-18T07:34:53Z</time>
      </trkpt>
      <trkpt lat="44.69611" lon="6.94916">
        <ele>2219.2</ele>
        <time>2022-07-18T07:34:54Z</time>
      </trkpt>
      <trkpt lat="44.69609" lon="6.94918">
        <ele>2219.6</ele>
        <time>2022-07-18T07:34:55Z</time>
      </trkpt>
      <trkpt lat="44.69608" lon="6.9492">
        <ele>2219.6</ele>
        <time>2022-07-18T07:34:56Z</time>
      </trkpt>
      <trkpt lat="44.69607" lon="6.94922">
        <ele>2220</ele>
        <time>2022-07-18T07:34:57Z</time>
      </trkpt>
      <trkpt lat="44.69606" lon="6.94924">
        <ele>2220.2</ele>
        <time>2022-07-18T07:34:58Z</time>
      </trkpt>
      <trkpt lat="44.69604" lon="6.94927">
        <ele>2220.2</ele>
        <time>2022-07-18T07:34:59Z</time>
      </trkpt>
      <trkpt lat="44.69603" lon="6.94929">
        <ele>2220.6</ele>
        <time>2022-07-18T07:35:00Z</time>
      </trkpt>
      <trkpt lat="44.69603" lon="6.94932">
        <ele>2220.8</ele>
        <time>2022-07-18T07:35:01Z</time>
      </trkpt>
      <trkpt lat="44.69602" lon="6.94934">
        <ele>2220.8</ele>
        <time>2022-07-18T07:35:02Z</time>
      </trkpt>
      <trkpt lat="44.69602" lon="6.94936">
        <ele>2221.2</ele>
        <time>2022-07-18T07:35:03Z</time>
      </trkpt>
      <trkpt lat="44.69601" lon="6.94939">
        <ele>2221.2</ele>
        <time>2022-07-18T07:35:04Z</time>
      </trkpt>
      <trkpt lat="44.696" lon="6.94941">
        <ele>2221.4</ele>
        <time>2022-07-18T07:35:05Z</time>
      </trkpt>
      <trkpt lat="44.696" lon="6.94944">
        <ele>2221.4</ele>
        <time>2022-07-18T07:35:06Z</time>
      </trkpt>
      <trkpt lat="44.696" lon="6.94946">
        <ele>2221.4</ele>
        <time>2022-07-18T07:35:07Z</time>
      </trkpt>
      <trkpt lat="44.696" lon="6.94949">
        <ele>2221.8</ele>
        <time>2022-07-18T07:35:08Z</time>
      </trkpt>
      <trkpt lat="44.696" lon="6.94952">
        <ele>2221.8</ele>
        <time>2022-07-18T07:35:09Z</time>
      </trkpt>
      <trkpt lat="44.696" lon="6.94955">
        <ele>2222</ele>
        <time>2022-07-18T07:35:10Z</time>
      </trkpt>
      <trkpt lat="44.69599" lon="6.94958">
        <ele>2222</ele>
        <time>2022-07-18T07:35:11Z</time>
      </trkpt>
      <trkpt lat="44.69599" lon="6.94961">
        <ele>2222.2</ele>
        <time>2022-07-18T07:35:12Z</time>
      </trkpt>
      <trkpt lat="44.69599" lon="6.94963">
        <ele>2222.2</ele>
        <time>2022-07-18T07:35:13Z</time>
      </trkpt>
      <trkpt lat="44.69599" lon="6.94966">
        <ele>2222.4</ele>
        <time>2022-07-18T07:35:14Z</time>
      </trkpt>
      <trkpt lat="44.69599" lon="6.94969">
        <ele>2222.4</ele>
        <time>2022-07-18T07:35:15Z</time>
      </trkpt>
      <trkpt lat="44.69599" lon="6.94972">
        <ele>2222.8</ele>
        <time>2022-07-18T07:35:16Z</time>
      </trkpt>
      <trkpt lat="44.69599" lon="6.94975">
        <ele>2222.8</ele>
        <time>2022-07-18T07:35:17Z</time>
      </trkpt>
      <trkpt lat="44.69599" lon="6.94978">
        <ele>2223</ele>
        <time>2022-07-18T07:35:18Z</time>
      </trkpt>
      <trkpt lat="44.69599" lon="6.94981">
        <ele>2223</ele>
        <time>2022-07-18T07:35:19Z</time>
      </trkpt>
      <trkpt lat="44.69599" lon="6.94984">
        <ele>2223.2</ele>
        <time>2022-07-18T07:35:20Z</time>
      </trkpt>
      <trkpt lat="44.69599" lon="6.94986">
        <ele>2223.2</ele>
        <time>2022-07-18T07:35:21Z</time>
      </trkpt>
      <trkpt lat="44.69598" lon="6.94989">
        <ele>2223.6</ele>
        <time>2022-07-18T07:35:22Z</time>
      </trkpt>
      <trkpt lat="44.69598" lon="6.94991">
        <ele>2223.6</ele>
        <time>2022-07-18T07:35:23Z</time>
      </trkpt>
      <trkpt lat="44.69597" lon="6.94994">
        <ele>2223.8</ele>
        <time>2022-07-18T07:35:24Z</time>
      </trkpt>
      <trkpt lat="44.69597" lon="6.94997">
        <ele>2223.8</ele>
        <time>2022-07-18T07:35:25Z</time>
      </trkpt>
      <trkpt lat="44.69596" lon="6.95">
        <ele>2224</ele>
        <time>2022-07-18T07:35:26Z</time>
      </trkpt>
      <trkpt lat="44.69596" lon="6.95002">
        <ele>2224</ele>
        <time>2022-07-18T07:35:27Z</time>
      </trkpt>
      <trkpt lat="44.69596" lon="6.95005">
        <ele>2224.4</ele>
        <time>2022-07-18T07:35:28Z</time>
      </trkpt>
      <trkpt lat="44.69595" lon="6.95008">
        <ele>2224.4</ele>
        <time>2022-07-18T07:35:29Z</time>
      </trkpt>
      <trkpt lat="44.69595" lon="6.95011">
        <ele>2224.6</ele>
        <time>2022-07-18T07:35:30Z</time>
      </trkpt>
      <trkpt lat="44.69594" lon="6.95013">
        <ele>2224.6</ele>
        <time>2022-07-18T07:35:31Z</time>
      </trkpt>
      <trkpt lat="44.69593" lon="6.95016">
        <ele>2225</ele>
        <time>2022-07-18T07:35:32Z</time>
      </trkpt>
      <trkpt lat="44.69593" lon="6.95019">
        <ele>2225.2</ele>
        <time>2022-07-18T07:35:33Z</time>
      </trkpt>
      <trkpt lat="44.69592" lon="6.95021">
        <ele>2225.2</ele>
        <time>2022-07-18T07:35:34Z</time>
      </trkpt>
      <trkpt lat="44.69592" lon="6.95024">
        <ele>2225.6</ele>
        <time>2022-07-18T07:35:35Z</time>
      </trkpt>
      <trkpt lat="44.69591" lon="6.95027">
        <ele>2225.6</ele>
        <time>2022-07-18T07:35:36Z</time>
      </trkpt>
      <trkpt lat="44.69591" lon="6.95029">
        <ele>2225.8</ele>
        <time>2022-07-18T07:35:37Z</time>
      </trkpt>
      <trkpt lat="44.6959" lon="6.95032">
        <ele>2225.8</ele>
        <time>2022-07-18T07:35:38Z</time>
      </trkpt>
      <trkpt lat="44.6959" lon="6.95034">
        <ele>2226.2</ele>
        <time>2022-07-18T07:35:39Z</time>
      </trkpt>
      <trkpt lat="44.69589" lon="6.95037">
        <ele>2226.2</ele>
        <time>2022-07-18T07:35:40Z</time>
      </trkpt>
      <trkpt lat="44.69589" lon="6.95039">
        <ele>2226.6</ele>
        <time>2022-07-18T07:35:41Z</time>
      </trkpt>
      <trkpt lat="44.69589" lon="6.95042">
        <ele>2226.6</ele>
        <time>2022-07-18T07:35:42Z</time>
      </trkpt>
      <trkpt lat="44.69588" lon="6.95044">
        <ele>2226.8</ele>
        <time>2022-07-18T07:35:43Z</time>
      </trkpt>
      <trkpt lat="44.69588" lon="6.95047">
        <ele>2226.8</ele>
        <time>2022-07-18T07:35:44Z</time>
      </trkpt>
      <trkpt lat="44.69588" lon="6.9505">
        <ele>2227.2</ele>
        <time>2022-07-18T07:35:45Z</time>
      </trkpt>
      <trkpt lat="44.69588" lon="6.95052">
        <ele>2227.2</ele>
        <time>2022-07-18T07:35:46Z</time>
      </trkpt>
      <trkpt lat="44.69587" lon="6.95055">
        <ele>2227.4</ele>
        <time>2022-07-18T07:35:47Z</time>
      </trkpt>
      <trkpt lat="44.69587" lon="6.95058">
        <ele>2227.4</ele>
        <time>2022-07-18T07:35:48Z</time>
      </trkpt>
      <trkpt lat="44.69587" lon="6.9506">
        <ele>2227.8</ele>
        <time>2022-07-18T07:35:49Z</time>
      </trkpt>
      <trkpt lat="44.69587" lon="6.95063">
        <ele>2227.8</ele>
        <time>2022-07-18T07:35:50Z</time>
      </trkpt>
      <trkpt lat="44.69587" lon="6.95066">
        <ele>2228.2</ele>
        <time>2022-07-18T07:35:51Z</time>
      </trkpt>
      <trkpt lat="44.69587" lon="6.95068">
        <ele>2228.4</ele>
        <time>2022-07-18T07:35:52Z</time>
      </trkpt>
      <trkpt lat="44.69587" lon="6.95071">
        <ele>2228.4</ele>
        <time>2022-07-18T07:35:53Z</time>
      </trkpt>
      <trkpt lat="44.69587" lon="6.95073">
        <ele>2228.8</ele>
        <time>2022-07-18T07:35:54Z</time>
      </trkpt>
      <trkpt lat="44.69587" lon="6.95076">
        <ele>2229</ele>
        <time>2022-07-18T07:35:55Z</time>
      </trkpt>
      <trkpt lat="44.69587" lon="6.95078">
        <ele>2229.2</ele>
        <time>2022-07-18T07:35:56Z</time>
      </trkpt>
      <trkpt lat="44.69587" lon="6.95081">
        <ele>2229.2</ele>
        <time>2022-07-18T07:35:57Z</time>
      </trkpt>
      <trkpt lat="44.69587" lon="6.95083">
        <ele>2229.6</ele>
        <time>2022-07-18T07:35:58Z</time>
      </trkpt>
      <trkpt lat="44.69587" lon="6.95086">
        <ele>2229.6</ele>
        <time>2022-07-18T07:35:59Z</time>
      </trkpt>
      <trkpt lat="44.69587" lon="6.95088">
        <ele>2230</ele>
        <time>2022-07-18T07:36:00Z</time>
      </trkpt>
      <trkpt lat="44.69587" lon="6.95091">
        <ele>2230.2</ele>
        <time>2022-07-18T07:36:01Z</time>
      </trkpt>
      <trkpt lat="44.69587" lon="6.95093">
        <ele>2230.4</ele>
        <time>2022-07-18T07:36:02Z</time>
      </trkpt>
      <trkpt lat="44.69588" lon="6.95096">
        <ele>2230.6</ele>
        <time>2022-07-18T07:36:03Z</time>
      </trkpt>
      <trkpt lat="44.69588" lon="6.95098">
        <ele>2230.6</ele>
        <time>2022-07-18T07:36:04Z</time>
      </trkpt>
      <trkpt lat="44.69588" lon="6.95101">
        <ele>2231</ele>
        <time>2022-07-18T07:36:05Z</time>
      </trkpt>
      <trkpt lat="44.69588" lon="6.95103">
        <ele>2231.2</ele>
        <time>2022-07-18T07:36:06Z</time>
      </trkpt>
      <trkpt lat="44.69588" lon="6.95106">
        <ele>2231.4</ele>
        <time>2022-07-18T07:36:07Z</time>
      </trkpt>
      <trkpt lat="44.69588" lon="6.95108">
        <ele>2231.4</ele>
        <time>2022-07-18T07:36:08Z</time>
      </trkpt>
      <trkpt lat="44.69588" lon="6.95111">
        <ele>2231.8</ele>
        <time>2022-07-18T07:36:09Z</time>
      </trkpt>
      <trkpt lat="44.69589" lon="6.95114">
        <ele>2232.2</ele>
        <time>2022-07-18T07:36:10Z</time>
      </trkpt>
      <trkpt lat="44.69589" lon="6.95116">
        <ele>2232.4</ele>
        <time>2022-07-18T07:36:11Z</time>
      </trkpt>
      <trkpt lat="44.69589" lon="6.95118">
        <ele>2232.6</ele>
        <time>2022-07-18T07:36:12Z</time>
      </trkpt>
      <trkpt lat="44.69589" lon="6.95121">
        <ele>2232.8</ele>
        <time>2022-07-18T07:36:13Z</time>
      </trkpt>
      <trkpt lat="44.69589" lon="6.95123">
        <ele>2232.8</ele>
        <time>2022-07-18T07:36:14Z</time>
      </trkpt>
      <trkpt lat="44.6959" lon="6.95125">
        <ele>2233.4</ele>
        <time>2022-07-18T07:36:15Z</time>
      </trkpt>
      <trkpt lat="44.6959" lon="6.95128">
        <ele>2233.6</ele>
        <time>2022-07-18T07:36:16Z</time>
      </trkpt>
      <trkpt lat="44.6959" lon="6.9513">
        <ele>2233.8</ele>
        <time>2022-07-18T07:36:17Z</time>
      </trkpt>
      <trkpt lat="44.6959" lon="6.95132">
        <ele>2234</ele>
        <time>2022-07-18T07:36:18Z</time>
      </trkpt>
      <trkpt lat="44.6959" lon="6.95134">
        <ele>2234</ele>
        <time>2022-07-18T07:36:19Z</time>
      </trkpt>
      <trkpt lat="44.6959" lon="6.95136">
        <ele>2234.4</ele>
        <time>2022-07-18T07:36:20Z</time>
      </trkpt>
      <trkpt lat="44.6959" lon="6.95139">
        <ele>2234.8</ele>
        <time>2022-07-18T07:36:21Z</time>
      </trkpt>
      <trkpt lat="44.6959" lon="6.95141">
        <ele>2235</ele>
        <time>2022-07-18T07:36:22Z</time>
      </trkpt>
      <trkpt lat="44.6959" lon="6.95144">
        <ele>2235.2</ele>
        <time>2022-07-18T07:36:23Z</time>
      </trkpt>
      <trkpt lat="44.6959" lon="6.95146">
        <ele>2235.4</ele>
        <time>2022-07-18T07:36:24Z</time>
      </trkpt>
      <trkpt lat="44.6959" lon="6.95149">
        <ele>2235.6</ele>
        <time>2022-07-18T07:36:25Z</time>
      </trkpt>
      <trkpt lat="44.6959" lon="6.95151">
        <ele>2235.8</ele>
        <time>2022-07-18T07:36:26Z</time>
      </trkpt>
      <trkpt lat="44.69591" lon="6.95154">
        <ele>2235.8</ele>
        <time>2022-07-18T07:36:27Z</time>
      </trkpt>
      <trkpt lat="44.69591" lon="6.95157">
        <ele>2236.4</ele>
        <time>2022-07-18T07:36:28Z</time>
      </trkpt>
      <trkpt lat="44.69591" lon="6.9516">
        <ele>2236.6</ele>
        <time>2022-07-18T07:36:29Z</time>
      </trkpt>
      <trkpt lat="44.69591" lon="6.95163">
        <ele>2236.8</ele>
        <time>2022-07-18T07:36:30Z</time>
      </trkpt>
      <trkpt lat="44.69592" lon="6.95165">
        <ele>2236.8</ele>
        <time>2022-07-18T07:36:31Z</time>
      </trkpt>
      <trkpt lat="44.69591" lon="6.95167">
        <ele>2237.2</ele>
        <time>2022-07-18T07:36:32Z</time>
      </trkpt>
      <trkpt lat="44.69591" lon="6.9517">
        <ele>2237.4</ele>
        <time>2022-07-18T07:36:33Z</time>
      </trkpt>
      <trkpt lat="44.69591" lon="6.95172">
        <ele>2237.6</ele>
        <time>2022-07-18T07:36:34Z</time>
      </trkpt>
      <trkpt lat="44.69592" lon="6.95174">
        <ele>2237.8</ele>
        <time>2022-07-18T07:36:35Z</time>
      </trkpt>
      <trkpt lat="44.69592" lon="6.95176">
        <ele>2237.8</ele>
        <time>2022-07-18T07:36:36Z</time>
      </trkpt>
      <trkpt lat="44.69593" lon="6.95178">
        <ele>2238.2</ele>
        <time>2022-07-18T07:36:37Z</time>
      </trkpt>
      <trkpt lat="44.69595" lon="6.9518">
        <ele>2238.2</ele>
        <time>2022-07-18T07:36:38Z</time>
      </trkpt>
      <trkpt lat="44.69596" lon="6.9518">
        <ele>2238.6</ele>
        <time>2022-07-18T07:36:39Z</time>
      </trkpt>
      <trkpt lat="44.69598" lon="6.95181">
        <ele>2238.6</ele>
        <time>2022-07-18T07:36:40Z</time>
      </trkpt>
      <trkpt lat="44.696" lon="6.95182">
        <ele>2238.8</ele>
        <time>2022-07-18T07:36:41Z</time>
      </trkpt>
      <trkpt lat="44.69602" lon="6.95182">
        <ele>2238.8</ele>
        <time>2022-07-18T07:36:42Z</time>
      </trkpt>
      <trkpt lat="44.69604" lon="6.95183">
        <ele>2239</ele>
        <time>2022-07-18T07:36:43Z</time>
      </trkpt>
      <trkpt lat="44.69606" lon="6.95183">
        <ele>2239</ele>
        <time>2022-07-18T07:36:44Z</time>
      </trkpt>
      <trkpt lat="44.69607" lon="6.95183">
        <ele>2239.4</ele>
        <time>2022-07-18T07:36:45Z</time>
      </trkpt>
      <trkpt lat="44.69609" lon="6.95183">
        <ele>2239.8</ele>
        <time>2022-07-18T07:36:46Z</time>
      </trkpt>
      <trkpt lat="44.69611" lon="6.95183">
        <ele>2240</ele>
        <time>2022-07-18T07:36:47Z</time>
      </trkpt>
      <trkpt lat="44.69613" lon="6.95182">
        <ele>2240</ele>
        <time>2022-07-18T07:36:48Z</time>
      </trkpt>
      <trkpt lat="44.69615" lon="6.95182">
        <ele>2240</ele>
        <time>2022-07-18T07:36:49Z</time>
      </trkpt>
      <trkpt lat="44.69617" lon="6.95181">
        <ele>2240.2</ele>
        <time>2022-07-18T07:36:50Z</time>
      </trkpt>
      <trkpt lat="44.69619" lon="6.95181">
        <ele>2240.2</ele>
        <time>2022-07-18T07:36:51Z</time>
      </trkpt>
      <trkpt lat="44.69621" lon="6.95179">
        <ele>2240.4</ele>
        <time>2022-07-18T07:36:52Z</time>
      </trkpt>
      <trkpt lat="44.69623" lon="6.95178">
        <ele>2240.4</ele>
        <time>2022-07-18T07:36:53Z</time>
      </trkpt>
      <trkpt lat="44.69625" lon="6.95176">
        <ele>2240.4</ele>
        <time>2022-07-18T07:36:54Z</time>
      </trkpt>
      <trkpt lat="44.69627" lon="6.95175">
        <ele>2240.8</ele>
        <time>2022-07-18T07:36:55Z</time>
      </trkpt>
      <trkpt lat="44.69629" lon="6.95173">
        <ele>2240.8</ele>
        <time>2022-07-18T07:36:56Z</time>
      </trkpt>
      <trkpt lat="44.69631" lon="6.95172">
        <ele>2241</ele>
        <time>2022-07-18T07:36:57Z</time>
      </trkpt>
      <trkpt lat="44.69633" lon="6.9517">
        <ele>2241</ele>
        <time>2022-07-18T07:36:58Z</time>
      </trkpt>
      <trkpt lat="44.69635" lon="6.95169">
        <ele>2241.4</ele>
        <time>2022-07-18T07:36:59Z</time>
      </trkpt>
      <trkpt lat="44.69636" lon="6.95168">
        <ele>2241.4</ele>
        <time>2022-07-18T07:37:00Z</time>
      </trkpt>
      <trkpt lat="44.69638" lon="6.95166">
        <ele>2241.6</ele>
        <time>2022-07-18T07:37:01Z</time>
      </trkpt>
      <trkpt lat="44.69639" lon="6.95164">
        <ele>2241.6</ele>
        <time>2022-07-18T07:37:02Z</time>
      </trkpt>
      <trkpt lat="44.69641" lon="6.95162">
        <ele>2241.8</ele>
        <time>2022-07-18T07:37:03Z</time>
      </trkpt>
      <trkpt lat="44.69642" lon="6.9516">
        <ele>2242</ele>
        <time>2022-07-18T07:37:04Z</time>
      </trkpt>
      <trkpt lat="44.69643" lon="6.95158">
        <ele>2242</ele>
        <time>2022-07-18T07:37:05Z</time>
      </trkpt>
      <trkpt lat="44.69644" lon="6.95155">
        <ele>2242.4</ele>
        <time>2022-07-18T07:37:06Z</time>
      </trkpt>
      <trkpt lat="44.69646" lon="6.95154">
        <ele>2242.4</ele>
        <time>2022-07-18T07:37:07Z</time>
      </trkpt>
      <trkpt lat="44.69647" lon="6.95152">
        <ele>2242.6</ele>
        <time>2022-07-18T07:37:08Z</time>
      </trkpt>
      <trkpt lat="44.69648" lon="6.9515">
        <ele>2242.6</ele>
        <time>2022-07-18T07:37:09Z</time>
      </trkpt>
      <trkpt lat="44.69649" lon="6.95147">
        <ele>2243.2</ele>
        <time>2022-07-18T07:37:10Z</time>
      </trkpt>
      <trkpt lat="44.6965" lon="6.95145">
        <ele>2243.4</ele>
        <time>2022-07-18T07:37:11Z</time>
      </trkpt>
      <trkpt lat="44.69651" lon="6.95143">
        <ele>2243.4</ele>
        <time>2022-07-18T07:37:12Z</time>
      </trkpt>
      <trkpt lat="44.69652" lon="6.9514">
        <ele>2243.6</ele>
        <time>2022-07-18T07:37:13Z</time>
      </trkpt>
      <trkpt lat="44.69653" lon="6.95138">
        <ele>2243.6</ele>
        <time>2022-07-18T07:37:14Z</time>
      </trkpt>
      <trkpt lat="44.69654" lon="6.95136">
        <ele>2244</ele>
        <time>2022-07-18T07:37:15Z</time>
      </trkpt>
      <trkpt lat="44.69655" lon="6.95134">
        <ele>2244.2</ele>
        <time>2022-07-18T07:37:16Z</time>
      </trkpt>
      <trkpt lat="44.69656" lon="6.95132">
        <ele>2244.2</ele>
        <time>2022-07-18T07:37:17Z</time>
      </trkpt>
      <trkpt lat="44.69657" lon="6.95129">
        <ele>2244.6</ele>
        <time>2022-07-18T07:37:18Z</time>
      </trkpt>
      <trkpt lat="44.69658" lon="6.95127">
        <ele>2244.8</ele>
        <time>2022-07-18T07:37:19Z</time>
      </trkpt>
      <trkpt lat="44.69659" lon="6.95124">
        <ele>2244.8</ele>
        <time>2022-07-18T07:37:20Z</time>
      </trkpt>
      <trkpt lat="44.69659" lon="6.95122">
        <ele>2245.2</ele>
        <time>2022-07-18T07:37:21Z</time>
      </trkpt>
      <trkpt lat="44.6966" lon="6.9512">
        <ele>2245.2</ele>
        <time>2022-07-18T07:37:22Z</time>
      </trkpt>
      <trkpt lat="44.69661" lon="6.95118">
        <ele>2245.4</ele>
        <time>2022-07-18T07:37:23Z</time>
      </trkpt>
      <trkpt lat="44.69663" lon="6.95113">
        <ele>2245.4</ele>
        <time>2022-07-18T07:37:24Z</time>
      </trkpt>
      <trkpt lat="44.69664" lon="6.95111">
        <ele>2245.8</ele>
        <time>2022-07-18T07:37:25Z</time>
      </trkpt>
      <trkpt lat="44.69665" lon="6.95109">
        <ele>2245.8</ele>
        <time>2022-07-18T07:37:26Z</time>
      </trkpt>
      <trkpt lat="44.69666" lon="6.95106">
        <ele>2246.2</ele>
        <time>2022-07-18T07:37:27Z</time>
      </trkpt>
      <trkpt lat="44.69667" lon="6.95104">
        <ele>2246.6</ele>
        <time>2022-07-18T07:37:28Z</time>
      </trkpt>
      <trkpt lat="44.69668" lon="6.95102">
        <ele>2246.6</ele>
        <time>2022-07-18T07:37:29Z</time>
      </trkpt>
      <trkpt lat="44.69669" lon="6.951">
        <ele>2247</ele>
        <time>2022-07-18T07:37:30Z</time>
      </trkpt>
      <trkpt lat="44.6967" lon="6.95098">
        <ele>2247</ele>
        <time>2022-07-18T07:37:31Z</time>
      </trkpt>
      <trkpt lat="44.69671" lon="6.95096">
        <ele>2247.4</ele>
        <time>2022-07-18T07:37:32Z</time>
      </trkpt>
      <trkpt lat="44.69672" lon="6.95094">
        <ele>2247.6</ele>
        <time>2022-07-18T07:37:33Z</time>
      </trkpt>
      <trkpt lat="44.69673" lon="6.95092">
        <ele>2247.6</ele>
        <time>2022-07-18T07:37:34Z</time>
      </trkpt>
      <trkpt lat="44.69673" lon="6.9509">
        <ele>2247.8</ele>
        <time>2022-07-18T07:37:35Z</time>
      </trkpt>
      <trkpt lat="44.69674" lon="6.95088">
        <ele>2248</ele>
        <time>2022-07-18T07:37:36Z</time>
      </trkpt>
      <trkpt lat="44.69676" lon="6.95086">
        <ele>2248.4</ele>
        <time>2022-07-18T07:37:37Z</time>
      </trkpt>
      <trkpt lat="44.69677" lon="6.95084">
        <ele>2248.6</ele>
        <time>2022-07-18T07:37:38Z</time>
      </trkpt>
      <trkpt lat="44.69678" lon="6.95082">
        <ele>2248.8</ele>
        <time>2022-07-18T07:37:39Z</time>
      </trkpt>
      <trkpt lat="44.69679" lon="6.9508">
        <ele>2248.8</ele>
        <time>2022-07-18T07:37:40Z</time>
      </trkpt>
      <trkpt lat="44.6968" lon="6.95078">
        <ele>2249</ele>
        <time>2022-07-18T07:37:41Z</time>
      </trkpt>
      <trkpt lat="44.69681" lon="6.95076">
        <ele>2249.4</ele>
        <time>2022-07-18T07:37:42Z</time>
      </trkpt>
      <trkpt lat="44.69682" lon="6.95074">
        <ele>2249.4</ele>
        <time>2022-07-18T07:37:43Z</time>
      </trkpt>
      <trkpt lat="44.69683" lon="6.95072">
        <ele>2249.6</ele>
        <time>2022-07-18T07:37:44Z</time>
      </trkpt>
      <trkpt lat="44.69684" lon="6.9507">
        <ele>2249.8</ele>
        <time>2022-07-18T07:37:45Z</time>
      </trkpt>
      <trkpt lat="44.69685" lon="6.95068">
        <ele>2249.8</ele>
        <time>2022-07-18T07:37:46Z</time>
      </trkpt>
      <trkpt lat="44.69686" lon="6.95066">
        <ele>2250.2</ele>
        <time>2022-07-18T07:37:47Z</time>
      </trkpt>
      <trkpt lat="44.69687" lon="6.95064">
        <ele>2250.6</ele>
        <time>2022-07-18T07:37:48Z</time>
      </trkpt>
      <trkpt lat="44.69688" lon="6.95062">
        <ele>2250.8</ele>
        <time>2022-07-18T07:37:49Z</time>
      </trkpt>
      <trkpt lat="44.69689" lon="6.95061">
        <ele>2251</ele>
        <time>2022-07-18T07:37:50Z</time>
      </trkpt>
      <trkpt lat="44.6969" lon="6.95059">
        <ele>2251.2</ele>
        <time>2022-07-18T07:37:51Z</time>
      </trkpt>
      <trkpt lat="44.69692" lon="6.95057">
        <ele>2251.4</ele>
        <time>2022-07-18T07:37:52Z</time>
      </trkpt>
      <trkpt lat="44.69693" lon="6.95055">
        <ele>2251.4</ele>
        <time>2022-07-18T07:37:53Z</time>
      </trkpt>
      <trkpt lat="44.69694" lon="6.95053">
        <ele>2251.8</ele>
        <time>2022-07-18T07:37:54Z</time>
      </trkpt>
      <trkpt lat="44.69695" lon="6.95052">
        <ele>2252</ele>
        <time>2022-07-18T07:37:55Z</time>
      </trkpt>
      <trkpt lat="44.69696" lon="6.9505">
        <ele>2252</ele>
        <time>2022-07-18T07:37:56Z</time>
      </trkpt>
      <trkpt lat="44.69697" lon="6.95048">
        <ele>2252.4</ele>
        <time>2022-07-18T07:37:57Z</time>
      </trkpt>
      <trkpt lat="44.69698" lon="6.95046">
        <ele>2252.6</ele>
        <time>2022-07-18T07:37:58Z</time>
      </trkpt>
      <trkpt lat="44.697" lon="6.95044">
        <ele>2252.6</ele>
        <time>2022-07-18T07:37:59Z</time>
      </trkpt>
      <trkpt lat="44.69701" lon="6.95043">
        <ele>2253</ele>
        <time>2022-07-18T07:38:00Z</time>
      </trkpt>
      <trkpt lat="44.69702" lon="6.95041">
        <ele>2253.2</ele>
        <time>2022-07-18T07:38:01Z</time>
      </trkpt>
      <trkpt lat="44.69703" lon="6.9504">
        <ele>2253.4</ele>
        <time>2022-07-18T07:38:02Z</time>
      </trkpt>
      <trkpt lat="44.69704" lon="6.95038">
        <ele>2253.4</ele>
        <time>2022-07-18T07:38:03Z</time>
      </trkpt>
      <trkpt lat="44.69705" lon="6.95036">
        <ele>2253.8</ele>
        <time>2022-07-18T07:38:04Z</time>
      </trkpt>
      <trkpt lat="44.69706" lon="6.95034">
        <ele>2254</ele>
        <time>2022-07-18T07:38:05Z</time>
      </trkpt>
      <trkpt lat="44.69708" lon="6.95032">
        <ele>2254.2</ele>
        <time>2022-07-18T07:38:06Z</time>
      </trkpt>
      <trkpt lat="44.69709" lon="6.95031">
        <ele>2254.4</ele>
        <time>2022-07-18T07:38:07Z</time>
      </trkpt>
      <trkpt lat="44.6971" lon="6.95029">
        <ele>2254.4</ele>
        <time>2022-07-18T07:38:08Z</time>
      </trkpt>
      <trkpt lat="44.69711" lon="6.95028">
        <ele>2254.8</ele>
        <time>2022-07-18T07:38:09Z</time>
      </trkpt>
      <trkpt lat="44.69713" lon="6.95027">
        <ele>2255</ele>
        <time>2022-07-18T07:38:10Z</time>
      </trkpt>
      <trkpt lat="44.69714" lon="6.95026">
        <ele>2255</ele>
        <time>2022-07-18T07:38:11Z</time>
      </trkpt>
      <trkpt lat="44.69715" lon="6.95024">
        <ele>2255.4</ele>
        <time>2022-07-18T07:38:12Z</time>
      </trkpt>
      <trkpt lat="44.69716" lon="6.95023">
        <ele>2255.4</ele>
        <time>2022-07-18T07:38:13Z</time>
      </trkpt>
      <trkpt lat="44.69717" lon="6.95021">
        <ele>2255.8</ele>
        <time>2022-07-18T07:38:14Z</time>
      </trkpt>
      <trkpt lat="44.69718" lon="6.95019">
        <ele>2256</ele>
        <time>2022-07-18T07:38:15Z</time>
      </trkpt>
      <trkpt lat="44.69719" lon="6.95017">
        <ele>2256</ele>
        <time>2022-07-18T07:38:16Z</time>
      </trkpt>
      <trkpt lat="44.6972" lon="6.95015">
        <ele>2256.4</ele>
        <time>2022-07-18T07:38:17Z</time>
      </trkpt>
      <trkpt lat="44.69721" lon="6.95014">
        <ele>2256.4</ele>
        <time>2022-07-18T07:38:18Z</time>
      </trkpt>
      <trkpt lat="44.69722" lon="6.95013">
        <ele>2256.6</ele>
        <time>2022-07-18T07:38:19Z</time>
      </trkpt>
      <trkpt lat="44.69724" lon="6.95012">
        <ele>2256.6</ele>
        <time>2022-07-18T07:38:20Z</time>
      </trkpt>
      <trkpt lat="44.69725" lon="6.95011">
        <ele>2257</ele>
        <time>2022-07-18T07:38:21Z</time>
      </trkpt>
      <trkpt lat="44.69727" lon="6.95007">
        <ele>2257.2</ele>
        <time>2022-07-18T07:38:22Z</time>
      </trkpt>
      <trkpt lat="44.69728" lon="6.95005">
        <ele>2257.4</ele>
        <time>2022-07-18T07:38:23Z</time>
      </trkpt>
      <trkpt lat="44.69729" lon="6.95004">
        <ele>2257.4</ele>
        <time>2022-07-18T07:38:24Z</time>
      </trkpt>
      <trkpt lat="44.69731" lon="6.95002">
        <ele>2257.8</ele>
        <time>2022-07-18T07:38:25Z</time>
      </trkpt>
      <trkpt lat="44.69732" lon="6.95001">
        <ele>2258</ele>
        <time>2022-07-18T07:38:26Z</time>
      </trkpt>
      <trkpt lat="44.69733" lon="6.94999">
        <ele>2258.2</ele>
        <time>2022-07-18T07:38:27Z</time>
      </trkpt>
      <trkpt lat="44.69734" lon="6.94998">
        <ele>2258.4</ele>
        <time>2022-07-18T07:38:28Z</time>
      </trkpt>
      <trkpt lat="44.69735" lon="6.94996">
        <ele>2258.4</ele>
        <time>2022-07-18T07:38:29Z</time>
      </trkpt>
      <trkpt lat="44.69737" lon="6.94995">
        <ele>2258.8</ele>
        <time>2022-07-18T07:38:30Z</time>
      </trkpt>
      <trkpt lat="44.69738" lon="6.94994">
        <ele>2259</ele>
        <time>2022-07-18T07:38:31Z</time>
      </trkpt>
      <trkpt lat="44.69739" lon="6.94992">
        <ele>2259</ele>
        <time>2022-07-18T07:38:32Z</time>
      </trkpt>
      <trkpt lat="44.6974" lon="6.94991">
        <ele>2259.4</ele>
        <time>2022-07-18T07:38:33Z</time>
      </trkpt>
      <trkpt lat="44.69741" lon="6.9499">
        <ele>2259.4</ele>
        <time>2022-07-18T07:38:34Z</time>
      </trkpt>
      <trkpt lat="44.69743" lon="6.94988">
        <ele>2259.8</ele>
        <time>2022-07-18T07:38:35Z</time>
      </trkpt>
      <trkpt lat="44.69744" lon="6.94987">
        <ele>2260</ele>
        <time>2022-07-18T07:38:36Z</time>
      </trkpt>
      <trkpt lat="44.69745" lon="6.94985">
        <ele>2260</ele>
        <time>2022-07-18T07:38:37Z</time>
      </trkpt>
      <trkpt lat="44.69746" lon="6.94983">
        <ele>2260.4</ele>
        <time>2022-07-18T07:38:38Z</time>
      </trkpt>
      <trkpt lat="44.69747" lon="6.94982">
        <ele>2260.4</ele>
        <time>2022-07-18T07:38:39Z</time>
      </trkpt>
      <trkpt lat="44.69748" lon="6.9498">
        <ele>2260.8</ele>
        <time>2022-07-18T07:38:40Z</time>
      </trkpt>
      <trkpt lat="44.69749" lon="6.94979">
        <ele>2260.8</ele>
        <time>2022-07-18T07:38:41Z</time>
      </trkpt>
      <trkpt lat="44.6975" lon="6.94977">
        <ele>2261</ele>
        <time>2022-07-18T07:38:42Z</time>
      </trkpt>
      <trkpt lat="44.69752" lon="6.94976">
        <ele>2261.2</ele>
        <time>2022-07-18T07:38:43Z</time>
      </trkpt>
      <trkpt lat="44.69753" lon="6.94974">
        <ele>2261.2</ele>
        <time>2022-07-18T07:38:44Z</time>
      </trkpt>
      <trkpt lat="44.69754" lon="6.94973">
        <ele>2261.6</ele>
        <time>2022-07-18T07:38:45Z</time>
      </trkpt>
      <trkpt lat="44.69755" lon="6.94972">
        <ele>2261.8</ele>
        <time>2022-07-18T07:38:46Z</time>
      </trkpt>
      <trkpt lat="44.69757" lon="6.94971">
        <ele>2262</ele>
        <time>2022-07-18T07:38:47Z</time>
      </trkpt>
      <trkpt lat="44.69758" lon="6.94969">
        <ele>2262</ele>
        <time>2022-07-18T07:38:48Z</time>
      </trkpt>
      <trkpt lat="44.69759" lon="6.94968">
        <ele>2262.4</ele>
        <time>2022-07-18T07:38:49Z</time>
      </trkpt>
      <trkpt lat="44.6976" lon="6.94966">
        <ele>2262.4</ele>
        <time>2022-07-18T07:38:50Z</time>
      </trkpt>
      <trkpt lat="44.69761" lon="6.94965">
        <ele>2262.6</ele>
        <time>2022-07-18T07:38:51Z</time>
      </trkpt>
      <trkpt lat="44.69762" lon="6.94963">
        <ele>2263</ele>
        <time>2022-07-18T07:38:53Z</time>
      </trkpt>
      <trkpt lat="44.69763" lon="6.94962">
        <ele>2263</ele>
        <time>2022-07-18T07:38:54Z</time>
      </trkpt>
      <trkpt lat="44.69764" lon="6.9496">
        <ele>2263.4</ele>
        <time>2022-07-18T07:38:55Z</time>
      </trkpt>
      <trkpt lat="44.69766" lon="6.94959">
        <ele>2263.4</ele>
        <time>2022-07-18T07:38:56Z</time>
      </trkpt>
      <trkpt lat="44.69767" lon="6.94958">
        <ele>2263.8</ele>
        <time>2022-07-18T07:38:57Z</time>
      </trkpt>
      <trkpt lat="44.69769" lon="6.94957">
        <ele>2263.8</ele>
        <time>2022-07-18T07:38:58Z</time>
      </trkpt>
      <trkpt lat="44.6977" lon="6.94956">
        <ele>2263.8</ele>
        <time>2022-07-18T07:38:59Z</time>
      </trkpt>
      <trkpt lat="44.69772" lon="6.94954">
        <ele>2264.2</ele>
        <time>2022-07-18T07:39:00Z</time>
      </trkpt>
      <trkpt lat="44.69773" lon="6.94953">
        <ele>2264.4</ele>
        <time>2022-07-18T07:39:01Z</time>
      </trkpt>
      <trkpt lat="44.69775" lon="6.94952">
        <ele>2264.4</ele>
        <time>2022-07-18T07:39:02Z</time>
      </trkpt>
      <trkpt lat="44.69776" lon="6.94951">
        <ele>2264.6</ele>
        <time>2022-07-18T07:39:03Z</time>
      </trkpt>
      <trkpt lat="44.69778" lon="6.9495">
        <ele>2264.8</ele>
        <time>2022-07-18T07:39:04Z</time>
      </trkpt>
      <trkpt lat="44.69779" lon="6.94948">
        <ele>2264.8</ele>
        <time>2022-07-18T07:39:05Z</time>
      </trkpt>
      <trkpt lat="44.69781" lon="6.94947">
        <ele>2265.2</ele>
        <time>2022-07-18T07:39:06Z</time>
      </trkpt>
      <trkpt lat="44.69782" lon="6.94946">
        <ele>2265.4</ele>
        <time>2022-07-18T07:39:07Z</time>
      </trkpt>
      <trkpt lat="44.69784" lon="6.94945">
        <ele>2265.4</ele>
        <time>2022-07-18T07:39:08Z</time>
      </trkpt>
      <trkpt lat="44.69786" lon="6.94944">
        <ele>2265.6</ele>
        <time>2022-07-18T07:39:09Z</time>
      </trkpt>
      <trkpt lat="44.69787" lon="6.94943">
        <ele>2265.6</ele>
        <time>2022-07-18T07:39:10Z</time>
      </trkpt>
      <trkpt lat="44.69789" lon="6.94942">
        <ele>2266</ele>
        <time>2022-07-18T07:39:11Z</time>
      </trkpt>
      <trkpt lat="44.69791" lon="6.94941">
        <ele>2266</ele>
        <time>2022-07-18T07:39:12Z</time>
      </trkpt>
      <trkpt lat="44.69792" lon="6.9494">
        <ele>2266.4</ele>
        <time>2022-07-18T07:39:13Z</time>
      </trkpt>
      <trkpt lat="44.69794" lon="6.94939">
        <ele>2266.4</ele>
        <time>2022-07-18T07:39:14Z</time>
      </trkpt>
      <trkpt lat="44.69796" lon="6.94938">
        <ele>2266.8</ele>
        <time>2022-07-18T07:39:15Z</time>
      </trkpt>
      <trkpt lat="44.69797" lon="6.94937">
        <ele>2267</ele>
        <time>2022-07-18T07:39:16Z</time>
      </trkpt>
      <trkpt lat="44.69799" lon="6.94936">
        <ele>2267</ele>
        <time>2022-07-18T07:39:17Z</time>
      </trkpt>
      <trkpt lat="44.69801" lon="6.94935">
        <ele>2267.2</ele>
        <time>2022-07-18T07:39:18Z</time>
      </trkpt>
      <trkpt lat="44.69802" lon="6.94934">
        <ele>2267.2</ele>
        <time>2022-07-18T07:39:19Z</time>
      </trkpt>
      <trkpt lat="44.69804" lon="6.94933">
        <ele>2267.6</ele>
        <time>2022-07-18T07:39:20Z</time>
      </trkpt>
      <trkpt lat="44.69805" lon="6.94932">
        <ele>2267.6</ele>
        <time>2022-07-18T07:39:21Z</time>
      </trkpt>
      <trkpt lat="44.69807" lon="6.94931">
        <ele>2268</ele>
        <time>2022-07-18T07:39:22Z</time>
      </trkpt>
      <trkpt lat="44.69809" lon="6.9493">
        <ele>2268</ele>
        <time>2022-07-18T07:39:23Z</time>
      </trkpt>
      <trkpt lat="44.6981" lon="6.94929">
        <ele>2268.2</ele>
        <time>2022-07-18T07:39:24Z</time>
      </trkpt>
      <trkpt lat="44.69812" lon="6.94928">
        <ele>2268.2</ele>
        <time>2022-07-18T07:39:25Z</time>
      </trkpt>
      <trkpt lat="44.69813" lon="6.94927">
        <ele>2268.6</ele>
        <time>2022-07-18T07:39:26Z</time>
      </trkpt>
      <trkpt lat="44.69815" lon="6.94926">
        <ele>2268.8</ele>
        <time>2022-07-18T07:39:27Z</time>
      </trkpt>
      <trkpt lat="44.69816" lon="6.94924">
        <ele>2268.8</ele>
        <time>2022-07-18T07:39:28Z</time>
      </trkpt>
      <trkpt lat="44.69818" lon="6.94923">
        <ele>2269.2</ele>
        <time>2022-07-18T07:39:29Z</time>
      </trkpt>
      <trkpt lat="44.6982" lon="6.94923">
        <ele>2269.2</ele>
        <time>2022-07-18T07:39:30Z</time>
      </trkpt>
      <trkpt lat="44.69821" lon="6.94922">
        <ele>2269.4</ele>
        <time>2022-07-18T07:39:31Z</time>
      </trkpt>
      <trkpt lat="44.69823" lon="6.94921">
        <ele>2269.4</ele>
        <time>2022-07-18T07:39:32Z</time>
      </trkpt>
      <trkpt lat="44.69824" lon="6.94921">
        <ele>2269.8</ele>
        <time>2022-07-18T07:39:33Z</time>
      </trkpt>
      <trkpt lat="44.69826" lon="6.9492">
        <ele>2269.8</ele>
        <time>2022-07-18T07:39:34Z</time>
      </trkpt>
      <trkpt lat="44.69827" lon="6.94919">
        <ele>2270.2</ele>
        <time>2022-07-18T07:39:35Z</time>
      </trkpt>
      <trkpt lat="44.69829" lon="6.94918">
        <ele>2270.2</ele>
        <time>2022-07-18T07:39:36Z</time>
      </trkpt>
      <trkpt lat="44.6983" lon="6.94917">
        <ele>2270.4</ele>
        <time>2022-07-18T07:39:37Z</time>
      </trkpt>
      <trkpt lat="44.69832" lon="6.94915">
        <ele>2270.4</ele>
        <time>2022-07-18T07:39:38Z</time>
      </trkpt>
      <trkpt lat="44.69833" lon="6.94915">
        <ele>2270.8</ele>
        <time>2022-07-18T07:39:39Z</time>
      </trkpt>
      <trkpt lat="44.69835" lon="6.94914">
        <ele>2270.8</ele>
        <time>2022-07-18T07:39:40Z</time>
      </trkpt>
      <trkpt lat="44.69837" lon="6.94914">
        <ele>2271.2</ele>
        <time>2022-07-18T07:39:41Z</time>
      </trkpt>
      <trkpt lat="44.69839" lon="6.94915">
        <ele>2271.4</ele>
        <time>2022-07-18T07:39:42Z</time>
      </trkpt>
      <trkpt lat="44.6984" lon="6.94916">
        <ele>2271.4</ele>
        <time>2022-07-18T07:39:43Z</time>
      </trkpt>
      <trkpt lat="44.69841" lon="6.94918">
        <ele>2271.8</ele>
        <time>2022-07-18T07:39:44Z</time>
      </trkpt>
      <trkpt lat="44.69842" lon="6.94921">
        <ele>2271.8</ele>
        <time>2022-07-18T07:39:45Z</time>
      </trkpt>
      <trkpt lat="44.69842" lon="6.94923">
        <ele>2272</ele>
        <time>2022-07-18T07:39:46Z</time>
      </trkpt>
      <trkpt lat="44.69843" lon="6.94926">
        <ele>2272</ele>
        <time>2022-07-18T07:39:47Z</time>
      </trkpt>
      <trkpt lat="44.69842" lon="6.94928">
        <ele>2272</ele>
        <time>2022-07-18T07:39:48Z</time>
      </trkpt>
      <trkpt lat="44.69842" lon="6.9493">
        <ele>2272.4</ele>
        <time>2022-07-18T07:39:49Z</time>
      </trkpt>
      <trkpt lat="44.6984" lon="6.94932">
        <ele>2272.4</ele>
        <time>2022-07-18T07:39:50Z</time>
      </trkpt>
      <trkpt lat="44.69838" lon="6.94933">
        <ele>2272.6</ele>
        <time>2022-07-18T07:39:51Z</time>
      </trkpt>
      <trkpt lat="44.69837" lon="6.94935">
        <ele>2272.6</ele>
        <time>2022-07-18T07:39:52Z</time>
      </trkpt>
      <trkpt lat="44.69835" lon="6.94936">
        <ele>2273</ele>
        <time>2022-07-18T07:39:53Z</time>
      </trkpt>
      <trkpt lat="44.69834" lon="6.94938">
        <ele>2273</ele>
        <time>2022-07-18T07:39:54Z</time>
      </trkpt>
      <trkpt lat="44.69832" lon="6.94939">
        <ele>2273.2</ele>
        <time>2022-07-18T07:39:55Z</time>
      </trkpt>
      <trkpt lat="44.6983" lon="6.9494">
        <ele>2273.4</ele>
        <time>2022-07-18T07:39:56Z</time>
      </trkpt>
      <trkpt lat="44.69828" lon="6.94941">
        <ele>2273.4</ele>
        <time>2022-07-18T07:39:57Z</time>
      </trkpt>
      <trkpt lat="44.69827" lon="6.94942">
        <ele>2273.8</ele>
        <time>2022-07-18T07:39:58Z</time>
      </trkpt>
      <trkpt lat="44.69824" lon="6.94944">
        <ele>2273.8</ele>
        <time>2022-07-18T07:39:59Z</time>
      </trkpt>
      <trkpt lat="44.69824" lon="6.94944">
        <ele>2274.2</ele>
        <time>2022-07-18T07:40:00Z</time>
      </trkpt>
      <trkpt lat="44.69822" lon="6.94946">
        <ele>2274.2</ele>
        <time>2022-07-18T07:40:01Z</time>
      </trkpt>
      <trkpt lat="44.6982" lon="6.94947">
        <ele>2274.6</ele>
        <time>2022-07-18T07:40:02Z</time>
      </trkpt>
      <trkpt lat="44.69819" lon="6.94948">
        <ele>2274.8</ele>
        <time>2022-07-18T07:40:03Z</time>
      </trkpt>
      <trkpt lat="44.69817" lon="6.94949">
        <ele>2274.8</ele>
        <time>2022-07-18T07:40:04Z</time>
      </trkpt>
      <trkpt lat="44.69815" lon="6.94951">
        <ele>2275</ele>
        <time>2022-07-18T07:40:05Z</time>
      </trkpt>
      <trkpt lat="44.69814" lon="6.94952">
        <ele>2275</ele>
        <time>2022-07-18T07:40:06Z</time>
      </trkpt>
      <trkpt lat="44.69812" lon="6.94953">
        <ele>2275.4</ele>
        <time>2022-07-18T07:40:07Z</time>
      </trkpt>
      <trkpt lat="44.69811" lon="6.94955">
        <ele>2275.4</ele>
        <time>2022-07-18T07:40:08Z</time>
      </trkpt>
      <trkpt lat="44.69809" lon="6.94956">
        <ele>2275.8</ele>
        <time>2022-07-18T07:40:09Z</time>
      </trkpt>
      <trkpt lat="44.69808" lon="6.94958">
        <ele>2275.8</ele>
        <time>2022-07-18T07:40:10Z</time>
      </trkpt>
      <trkpt lat="44.69806" lon="6.9496">
        <ele>2276</ele>
        <time>2022-07-18T07:40:11Z</time>
      </trkpt>
      <trkpt lat="44.69805" lon="6.94961">
        <ele>2276</ele>
        <time>2022-07-18T07:40:12Z</time>
      </trkpt>
      <trkpt lat="44.69804" lon="6.94963">
        <ele>2276.4</ele>
        <time>2022-07-18T07:40:13Z</time>
      </trkpt>
      <trkpt lat="44.69802" lon="6.94965">
        <ele>2276.6</ele>
        <time>2022-07-18T07:40:14Z</time>
      </trkpt>
      <trkpt lat="44.69801" lon="6.94967">
        <ele>2276.6</ele>
        <time>2022-07-18T07:40:15Z</time>
      </trkpt>
      <trkpt lat="44.69799" lon="6.94969">
        <ele>2276.8</ele>
        <time>2022-07-18T07:40:16Z</time>
      </trkpt>
      <trkpt lat="44.69798" lon="6.94971">
        <ele>2276.8</ele>
        <time>2022-07-18T07:40:17Z</time>
      </trkpt>
      <trkpt lat="44.69796" lon="6.94973">
        <ele>2277</ele>
        <time>2022-07-18T07:40:18Z</time>
      </trkpt>
      <trkpt lat="44.69795" lon="6.94975">
        <ele>2277</ele>
        <time>2022-07-18T07:40:19Z</time>
      </trkpt>
      <trkpt lat="44.69793" lon="6.94977">
        <ele>2277.4</ele>
        <time>2022-07-18T07:40:20Z</time>
      </trkpt>
      <trkpt lat="44.69792" lon="6.94979">
        <ele>2277.6</ele>
        <time>2022-07-18T07:40:21Z</time>
      </trkpt>
      <trkpt lat="44.69791" lon="6.94981">
        <ele>2277.6</ele>
        <time>2022-07-18T07:40:22Z</time>
      </trkpt>
      <trkpt lat="44.69789" lon="6.94983">
        <ele>2277.8</ele>
        <time>2022-07-18T07:40:23Z</time>
      </trkpt>
      <trkpt lat="44.69788" lon="6.94985">
        <ele>2277.8</ele>
        <time>2022-07-18T07:40:24Z</time>
      </trkpt>
      <trkpt lat="44.69786" lon="6.94987">
        <ele>2278.2</ele>
        <time>2022-07-18T07:40:25Z</time>
      </trkpt>
      <trkpt lat="44.69785" lon="6.94989">
        <ele>2278.2</ele>
        <time>2022-07-18T07:40:26Z</time>
      </trkpt>
      <trkpt lat="44.69783" lon="6.94991">
        <ele>2278.4</ele>
        <time>2022-07-18T07:40:27Z</time>
      </trkpt>
      <trkpt lat="44.69782" lon="6.94993">
        <ele>2278.4</ele>
        <time>2022-07-18T07:40:28Z</time>
      </trkpt>
      <trkpt lat="44.69781" lon="6.94995">
        <ele>2278.8</ele>
        <time>2022-07-18T07:40:29Z</time>
      </trkpt>
      <trkpt lat="44.6978" lon="6.94997">
        <ele>2278.8</ele>
        <time>2022-07-18T07:40:30Z</time>
      </trkpt>
      <trkpt lat="44.69779" lon="6.94999">
        <ele>2279.2</ele>
        <time>2022-07-18T07:40:31Z</time>
      </trkpt>
      <trkpt lat="44.69778" lon="6.95001">
        <ele>2279.2</ele>
        <time>2022-07-18T07:40:32Z</time>
      </trkpt>
      <trkpt lat="44.69776" lon="6.95003">
        <ele>2279.4</ele>
        <time>2022-07-18T07:40:33Z</time>
      </trkpt>
      <trkpt lat="44.69775" lon="6.95005">
        <ele>2279.4</ele>
        <time>2022-07-18T07:40:34Z</time>
      </trkpt>
      <trkpt lat="44.69774" lon="6.95008">
        <ele>2279.8</ele>
        <time>2022-07-18T07:40:35Z</time>
      </trkpt>
      <trkpt lat="44.69772" lon="6.9501">
        <ele>2280</ele>
        <time>2022-07-18T07:40:36Z</time>
      </trkpt>
      <trkpt lat="44.69771" lon="6.95012">
        <ele>2280</ele>
        <time>2022-07-18T07:40:37Z</time>
      </trkpt>
      <trkpt lat="44.6977" lon="6.95015">
        <ele>2280.4</ele>
        <time>2022-07-18T07:40:38Z</time>
      </trkpt>
      <trkpt lat="44.69768" lon="6.95017">
        <ele>2280.6</ele>
        <time>2022-07-18T07:40:39Z</time>
      </trkpt>
      <trkpt lat="44.69767" lon="6.95019">
        <ele>2281</ele>
        <time>2022-07-18T07:40:40Z</time>
      </trkpt>
      <trkpt lat="44.69766" lon="6.95022">
        <ele>2281</ele>
        <time>2022-07-18T07:40:41Z</time>
      </trkpt>
      <trkpt lat="44.69765" lon="6.95024">
        <ele>2281.4</ele>
        <time>2022-07-18T07:40:42Z</time>
      </trkpt>
      <trkpt lat="44.69764" lon="6.95026">
        <ele>2281.4</ele>
        <time>2022-07-18T07:40:43Z</time>
      </trkpt>
      <trkpt lat="44.69763" lon="6.95029">
        <ele>2281.8</ele>
        <time>2022-07-18T07:40:44Z</time>
      </trkpt>
      <trkpt lat="44.69762" lon="6.95031">
        <ele>2282</ele>
        <time>2022-07-18T07:40:45Z</time>
      </trkpt>
      <trkpt lat="44.69761" lon="6.95034">
        <ele>2282.2</ele>
        <time>2022-07-18T07:40:46Z</time>
      </trkpt>
      <trkpt lat="44.6976" lon="6.95036">
        <ele>2282.4</ele>
        <time>2022-07-18T07:40:47Z</time>
      </trkpt>
      <trkpt lat="44.69759" lon="6.95038">
        <ele>2282.6</ele>
        <time>2022-07-18T07:40:48Z</time>
      </trkpt>
      <trkpt lat="44.69758" lon="6.95041">
        <ele>2282.6</ele>
        <time>2022-07-18T07:40:49Z</time>
      </trkpt>
      <trkpt lat="44.69757" lon="6.95043">
        <ele>2283</ele>
        <time>2022-07-18T07:40:50Z</time>
      </trkpt>
      <trkpt lat="44.69756" lon="6.95046">
        <ele>2283</ele>
        <time>2022-07-18T07:40:51Z</time>
      </trkpt>
      <trkpt lat="44.69756" lon="6.95048">
        <ele>2283.4</ele>
        <time>2022-07-18T07:40:52Z</time>
      </trkpt>
      <trkpt lat="44.69755" lon="6.95051">
        <ele>2283.4</ele>
        <time>2022-07-18T07:40:53Z</time>
      </trkpt>
      <trkpt lat="44.69754" lon="6.95054">
        <ele>2283.6</ele>
        <time>2022-07-18T07:40:54Z</time>
      </trkpt>
      <trkpt lat="44.69754" lon="6.95057">
        <ele>2283.6</ele>
        <time>2022-07-18T07:40:55Z</time>
      </trkpt>
      <trkpt lat="44.69753" lon="6.9506">
        <ele>2283.8</ele>
        <time>2022-07-18T07:40:56Z</time>
      </trkpt>
      <trkpt lat="44.69752" lon="6.95063">
        <ele>2283.8</ele>
        <time>2022-07-18T07:40:57Z</time>
      </trkpt>
      <trkpt lat="44.69751" lon="6.95066">
        <ele>2284.2</ele>
        <time>2022-07-18T07:40:58Z</time>
      </trkpt>
      <trkpt lat="44.6975" lon="6.95069">
        <ele>2284.2</ele>
        <time>2022-07-18T07:40:59Z</time>
      </trkpt>
      <trkpt lat="44.69749" lon="6.95072">
        <ele>2284.4</ele>
        <time>2022-07-18T07:41:00Z</time>
      </trkpt>
      <trkpt lat="44.69748" lon="6.95075">
        <ele>2284.6</ele>
        <time>2022-07-18T07:41:01Z</time>
      </trkpt>
      <trkpt lat="44.69748" lon="6.95078">
        <ele>2284.8</ele>
        <time>2022-07-18T07:41:02Z</time>
      </trkpt>
      <trkpt lat="44.69747" lon="6.95081">
        <ele>2284.8</ele>
        <time>2022-07-18T07:41:03Z</time>
      </trkpt>
      <trkpt lat="44.69746" lon="6.95084">
        <ele>2285.2</ele>
        <time>2022-07-18T07:41:04Z</time>
      </trkpt>
      <trkpt lat="44.69746" lon="6.95087">
        <ele>2285.2</ele>
        <time>2022-07-18T07:41:05Z</time>
      </trkpt>
      <trkpt lat="44.69746" lon="6.9509">
        <ele>2285.6</ele>
        <time>2022-07-18T07:41:06Z</time>
      </trkpt>
      <trkpt lat="44.69745" lon="6.95093">
        <ele>2285.6</ele>
        <time>2022-07-18T07:41:07Z</time>
      </trkpt>
      <trkpt lat="44.69744" lon="6.95096">
        <ele>2286</ele>
        <time>2022-07-18T07:41:08Z</time>
      </trkpt>
      <trkpt lat="44.69744" lon="6.95099">
        <ele>2286.2</ele>
        <time>2022-07-18T07:41:09Z</time>
      </trkpt>
      <trkpt lat="44.69743" lon="6.95102">
        <ele>2286.2</ele>
        <time>2022-07-18T07:41:10Z</time>
      </trkpt>
      <trkpt lat="44.69742" lon="6.95104">
        <ele>2286.6</ele>
        <time>2022-07-18T07:41:11Z</time>
      </trkpt>
      <trkpt lat="44.69741" lon="6.95107">
        <ele>2286.6</ele>
        <time>2022-07-18T07:41:12Z</time>
      </trkpt>
      <trkpt lat="44.69741" lon="6.9511">
        <ele>2287</ele>
        <time>2022-07-18T07:41:13Z</time>
      </trkpt>
      <trkpt lat="44.6974" lon="6.95113">
        <ele>2287</ele>
        <time>2022-07-18T07:41:14Z</time>
      </trkpt>
      <trkpt lat="44.69739" lon="6.95116">
        <ele>2287.2</ele>
        <time>2022-07-18T07:41:15Z</time>
      </trkpt>
      <trkpt lat="44.69739" lon="6.95119">
        <ele>2287.2</ele>
        <time>2022-07-18T07:41:16Z</time>
      </trkpt>
      <trkpt lat="44.69738" lon="6.95121">
        <ele>2287.2</ele>
        <time>2022-07-18T07:41:17Z</time>
      </trkpt>
      <trkpt lat="44.69736" lon="6.95124">
        <ele>2287.4</ele>
        <time>2022-07-18T07:41:18Z</time>
      </trkpt>
      <trkpt lat="44.69735" lon="6.95126">
        <ele>2287.4</ele>
        <time>2022-07-18T07:41:19Z</time>
      </trkpt>
      <trkpt lat="44.69734" lon="6.95129">
        <ele>2287.8</ele>
        <time>2022-07-18T07:41:20Z</time>
      </trkpt>
      <trkpt lat="44.69733" lon="6.95132">
        <ele>2288</ele>
        <time>2022-07-18T07:41:21Z</time>
      </trkpt>
      <trkpt lat="44.69732" lon="6.95135">
        <ele>2288.2</ele>
        <time>2022-07-18T07:41:22Z</time>
      </trkpt>
      <trkpt lat="44.69732" lon="6.95138">
        <ele>2288.2</ele>
        <time>2022-07-18T07:41:23Z</time>
      </trkpt>
      <trkpt lat="44.69731" lon="6.95141">
        <ele>2288.6</ele>
        <time>2022-07-18T07:41:24Z</time>
      </trkpt>
      <trkpt lat="44.6973" lon="6.95144">
        <ele>2288.6</ele>
        <time>2022-07-18T07:41:25Z</time>
      </trkpt>
      <trkpt lat="44.69729" lon="6.95147">
        <ele>2289</ele>
        <time>2022-07-18T07:41:26Z</time>
      </trkpt>
      <trkpt lat="44.69729" lon="6.9515">
        <ele>2289</ele>
        <time>2022-07-18T07:41:27Z</time>
      </trkpt>
      <trkpt lat="44.69728" lon="6.95153">
        <ele>2289.2</ele>
        <time>2022-07-18T07:41:28Z</time>
      </trkpt>
      <trkpt lat="44.69728" lon="6.95156">
        <ele>2289.2</ele>
        <time>2022-07-18T07:41:29Z</time>
      </trkpt>
      <trkpt lat="44.69727" lon="6.95159">
        <ele>2289.6</ele>
        <time>2022-07-18T07:41:30Z</time>
      </trkpt>
      <trkpt lat="44.69727" lon="6.95162">
        <ele>2289.8</ele>
        <time>2022-07-18T07:41:31Z</time>
      </trkpt>
      <trkpt lat="44.69727" lon="6.95164">
        <ele>2290.2</ele>
        <time>2022-07-18T07:41:32Z</time>
      </trkpt>
      <trkpt lat="44.69726" lon="6.95167">
        <ele>2290.2</ele>
        <time>2022-07-18T07:41:33Z</time>
      </trkpt>
      <trkpt lat="44.69726" lon="6.9517">
        <ele>2290.6</ele>
        <time>2022-07-18T07:41:34Z</time>
      </trkpt>
      <trkpt lat="44.69725" lon="6.95173">
        <ele>2290.6</ele>
        <time>2022-07-18T07:41:35Z</time>
      </trkpt>
      <trkpt lat="44.69725" lon="6.95176">
        <ele>2291</ele>
        <time>2022-07-18T07:41:36Z</time>
      </trkpt>
      <trkpt lat="44.69725" lon="6.95179">
        <ele>2291</ele>
        <time>2022-07-18T07:41:37Z</time>
      </trkpt>
      <trkpt lat="44.69725" lon="6.95182">
        <ele>2291.2</ele>
        <time>2022-07-18T07:41:38Z</time>
      </trkpt>
      <trkpt lat="44.69724" lon="6.95185">
        <ele>2291.2</ele>
        <time>2022-07-18T07:41:39Z</time>
      </trkpt>
      <trkpt lat="44.69724" lon="6.95187">
        <ele>2291.6</ele>
        <time>2022-07-18T07:41:40Z</time>
      </trkpt>
      <trkpt lat="44.69723" lon="6.9519">
        <ele>2291.6</ele>
        <time>2022-07-18T07:41:41Z</time>
      </trkpt>
      <trkpt lat="44.69722" lon="6.95193">
        <ele>2292</ele>
        <time>2022-07-18T07:41:42Z</time>
      </trkpt>
      <trkpt lat="44.69722" lon="6.95196">
        <ele>2292.2</ele>
        <time>2022-07-18T07:41:43Z</time>
      </trkpt>
      <trkpt lat="44.69721" lon="6.95199">
        <ele>2292.4</ele>
        <time>2022-07-18T07:41:44Z</time>
      </trkpt>
      <trkpt lat="44.69721" lon="6.95202">
        <ele>2292.4</ele>
        <time>2022-07-18T07:41:45Z</time>
      </trkpt>
      <trkpt lat="44.6972" lon="6.95205">
        <ele>2292.6</ele>
        <time>2022-07-18T07:41:46Z</time>
      </trkpt>
      <trkpt lat="44.6972" lon="6.95207">
        <ele>2292.8</ele>
        <time>2022-07-18T07:41:47Z</time>
      </trkpt>
      <trkpt lat="44.6972" lon="6.9521">
        <ele>2292.8</ele>
        <time>2022-07-18T07:41:48Z</time>
      </trkpt>
      <trkpt lat="44.6972" lon="6.95213">
        <ele>2293.2</ele>
        <time>2022-07-18T07:41:49Z</time>
      </trkpt>
      <trkpt lat="44.69719" lon="6.95216">
        <ele>2293.2</ele>
        <time>2022-07-18T07:41:50Z</time>
      </trkpt>
      <trkpt lat="44.69718" lon="6.95218">
        <ele>2293.6</ele>
        <time>2022-07-18T07:41:51Z</time>
      </trkpt>
      <trkpt lat="44.69718" lon="6.95221">
        <ele>2293.8</ele>
        <time>2022-07-18T07:41:52Z</time>
      </trkpt>
      <trkpt lat="44.69717" lon="6.95224">
        <ele>2293.8</ele>
        <time>2022-07-18T07:41:53Z</time>
      </trkpt>
      <trkpt lat="44.69717" lon="6.95227">
        <ele>2294.2</ele>
        <time>2022-07-18T07:41:54Z</time>
      </trkpt>
      <trkpt lat="44.69717" lon="6.95229">
        <ele>2294.2</ele>
        <time>2022-07-18T07:41:55Z</time>
      </trkpt>
      <trkpt lat="44.69716" lon="6.95232">
        <ele>2294.6</ele>
        <time>2022-07-18T07:41:56Z</time>
      </trkpt>
      <trkpt lat="44.69715" lon="6.95235">
        <ele>2294.6</ele>
        <time>2022-07-18T07:41:57Z</time>
      </trkpt>
      <trkpt lat="44.69715" lon="6.95238">
        <ele>2295</ele>
        <time>2022-07-18T07:41:58Z</time>
      </trkpt>
      <trkpt lat="44.69713" lon="6.95242">
        <ele>2295.2</ele>
        <time>2022-07-18T07:41:59Z</time>
      </trkpt>
      <trkpt lat="44.69713" lon="6.95244">
        <ele>2295.6</ele>
        <time>2022-07-18T07:42:00Z</time>
      </trkpt>
      <trkpt lat="44.69712" lon="6.95247">
        <ele>2295.8</ele>
        <time>2022-07-18T07:42:01Z</time>
      </trkpt>
      <trkpt lat="44.69712" lon="6.9525">
        <ele>2296</ele>
        <time>2022-07-18T07:42:02Z</time>
      </trkpt>
      <trkpt lat="44.69711" lon="6.95253">
        <ele>2296.2</ele>
        <time>2022-07-18T07:42:03Z</time>
      </trkpt>
      <trkpt lat="44.6971" lon="6.95256">
        <ele>2296.2</ele>
        <time>2022-07-18T07:42:04Z</time>
      </trkpt>
      <trkpt lat="44.69709" lon="6.95258">
        <ele>2296.4</ele>
        <time>2022-07-18T07:42:05Z</time>
      </trkpt>
      <trkpt lat="44.69709" lon="6.95261">
        <ele>2296.8</ele>
        <time>2022-07-18T07:42:06Z</time>
      </trkpt>
      <trkpt lat="44.69708" lon="6.95264">
        <ele>2297</ele>
        <time>2022-07-18T07:42:07Z</time>
      </trkpt>
      <trkpt lat="44.69707" lon="6.95267">
        <ele>2297.2</ele>
        <time>2022-07-18T07:42:08Z</time>
      </trkpt>
      <trkpt lat="44.69707" lon="6.95269">
        <ele>2297.2</ele>
        <time>2022-07-18T07:42:09Z</time>
      </trkpt>
      <trkpt lat="44.69706" lon="6.95272">
        <ele>2297.6</ele>
        <time>2022-07-18T07:42:10Z</time>
      </trkpt>
      <trkpt lat="44.69706" lon="6.95275">
        <ele>2297.6</ele>
        <time>2022-07-18T07:42:11Z</time>
      </trkpt>
      <trkpt lat="44.69705" lon="6.95277">
        <ele>2298</ele>
        <time>2022-07-18T07:42:12Z</time>
      </trkpt>
      <trkpt lat="44.69705" lon="6.9528">
        <ele>2298</ele>
        <time>2022-07-18T07:42:13Z</time>
      </trkpt>
      <trkpt lat="44.69704" lon="6.95282">
        <ele>2298.2</ele>
        <time>2022-07-18T07:42:14Z</time>
      </trkpt>
      <trkpt lat="44.69704" lon="6.95284">
        <ele>2298.6</ele>
        <time>2022-07-18T07:42:15Z</time>
      </trkpt>
      <trkpt lat="44.69703" lon="6.95287">
        <ele>2298.6</ele>
        <time>2022-07-18T07:42:16Z</time>
      </trkpt>
      <trkpt lat="44.69703" lon="6.95289">
        <ele>2298.8</ele>
        <time>2022-07-18T07:42:17Z</time>
      </trkpt>
      <trkpt lat="44.69702" lon="6.95292">
        <ele>2298.8</ele>
        <time>2022-07-18T07:42:18Z</time>
      </trkpt>
      <trkpt lat="44.69702" lon="6.95294">
        <ele>2299.2</ele>
        <time>2022-07-18T07:42:19Z</time>
      </trkpt>
      <trkpt lat="44.69701" lon="6.95297">
        <ele>2299.4</ele>
        <time>2022-07-18T07:42:20Z</time>
      </trkpt>
      <trkpt lat="44.69701" lon="6.95299">
        <ele>2299.4</ele>
        <time>2022-07-18T07:42:21Z</time>
      </trkpt>
      <trkpt lat="44.697" lon="6.95301">
        <ele>2299.6</ele>
        <time>2022-07-18T07:42:22Z</time>
      </trkpt>
      <trkpt lat="44.69699" lon="6.95304">
        <ele>2299.6</ele>
        <time>2022-07-18T07:42:23Z</time>
      </trkpt>
      <trkpt lat="44.69699" lon="6.95306">
        <ele>2300</ele>
        <time>2022-07-18T07:42:24Z</time>
      </trkpt>
      <trkpt lat="44.69698" lon="6.95308">
        <ele>2300</ele>
        <time>2022-07-18T07:42:25Z</time>
      </trkpt>
      <trkpt lat="44.69698" lon="6.95311">
        <ele>2300.2</ele>
        <time>2022-07-18T07:42:26Z</time>
      </trkpt>
      <trkpt lat="44.69697" lon="6.95313">
        <ele>2300.2</ele>
        <time>2022-07-18T07:42:27Z</time>
      </trkpt>
      <trkpt lat="44.69696" lon="6.95315">
        <ele>2300.6</ele>
        <time>2022-07-18T07:42:28Z</time>
      </trkpt>
      <trkpt lat="44.69696" lon="6.95318">
        <ele>2300.6</ele>
        <time>2022-07-18T07:42:29Z</time>
      </trkpt>
      <trkpt lat="44.69695" lon="6.9532">
        <ele>2301</ele>
        <time>2022-07-18T07:42:30Z</time>
      </trkpt>
      <trkpt lat="44.69694" lon="6.95323">
        <ele>2301</ele>
        <time>2022-07-18T07:42:31Z</time>
      </trkpt>
      <trkpt lat="44.69694" lon="6.95325">
        <ele>2301.2</ele>
        <time>2022-07-18T07:42:32Z</time>
      </trkpt>
      <trkpt lat="44.69693" lon="6.95328">
        <ele>2301.2</ele>
        <time>2022-07-18T07:42:33Z</time>
      </trkpt>
      <trkpt lat="44.69693" lon="6.9533">
        <ele>2301.6</ele>
        <time>2022-07-18T07:42:34Z</time>
      </trkpt>
      <trkpt lat="44.69692" lon="6.95333">
        <ele>2301.6</ele>
        <time>2022-07-18T07:42:35Z</time>
      </trkpt>
      <trkpt lat="44.69691" lon="6.95335">
        <ele>2301.8</ele>
        <time>2022-07-18T07:42:36Z</time>
      </trkpt>
      <trkpt lat="44.69691" lon="6.95337">
        <ele>2301.8</ele>
        <time>2022-07-18T07:42:37Z</time>
      </trkpt>
      <trkpt lat="44.6969" lon="6.9534">
        <ele>2302.2</ele>
        <time>2022-07-18T07:42:38Z</time>
      </trkpt>
      <trkpt lat="44.69689" lon="6.95342">
        <ele>2302.2</ele>
        <time>2022-07-18T07:42:39Z</time>
      </trkpt>
      <trkpt lat="44.69689" lon="6.95344">
        <ele>2302.4</ele>
        <time>2022-07-18T07:42:40Z</time>
      </trkpt>
      <trkpt lat="44.69689" lon="6.95347">
        <ele>2302.4</ele>
        <time>2022-07-18T07:42:41Z</time>
      </trkpt>
      <trkpt lat="44.69688" lon="6.95349">
        <ele>2302.8</ele>
        <time>2022-07-18T07:42:42Z</time>
      </trkpt>
      <trkpt lat="44.69688" lon="6.95352">
        <ele>2302.8</ele>
        <time>2022-07-18T07:42:43Z</time>
      </trkpt>
      <trkpt lat="44.69688" lon="6.95354">
        <ele>2303.2</ele>
        <time>2022-07-18T07:42:44Z</time>
      </trkpt>
      <trkpt lat="44.69687" lon="6.95356">
        <ele>2303.2</ele>
        <time>2022-07-18T07:42:45Z</time>
      </trkpt>
      <trkpt lat="44.69686" lon="6.95359">
        <ele>2303.4</ele>
        <time>2022-07-18T07:42:46Z</time>
      </trkpt>
      <trkpt lat="44.69685" lon="6.95361">
        <ele>2303.4</ele>
        <time>2022-07-18T07:42:47Z</time>
      </trkpt>
      <trkpt lat="44.69685" lon="6.95363">
        <ele>2303.8</ele>
        <time>2022-07-18T07:42:48Z</time>
      </trkpt>
      <trkpt lat="44.69684" lon="6.95366">
        <ele>2303.8</ele>
        <time>2022-07-18T07:42:49Z</time>
      </trkpt>
      <trkpt lat="44.69683" lon="6.95368">
        <ele>2304</ele>
        <time>2022-07-18T07:42:50Z</time>
      </trkpt>
      <trkpt lat="44.69682" lon="6.95371">
        <ele>2304.2</ele>
        <time>2022-07-18T07:42:51Z</time>
      </trkpt>
      <trkpt lat="44.69682" lon="6.95373">
        <ele>2304.2</ele>
        <time>2022-07-18T07:42:52Z</time>
      </trkpt>
      <trkpt lat="44.69681" lon="6.95376">
        <ele>2304.6</ele>
        <time>2022-07-18T07:42:53Z</time>
      </trkpt>
      <trkpt lat="44.69681" lon="6.95378">
        <ele>2304.8</ele>
        <time>2022-07-18T07:42:54Z</time>
      </trkpt>
      <trkpt lat="44.6968" lon="6.95381">
        <ele>2304.8</ele>
        <time>2022-07-18T07:42:55Z</time>
      </trkpt>
      <trkpt lat="44.6968" lon="6.95384">
        <ele>2305.2</ele>
        <time>2022-07-18T07:42:56Z</time>
      </trkpt>
      <trkpt lat="44.6968" lon="6.95387">
        <ele>2305.4</ele>
        <time>2022-07-18T07:42:57Z</time>
      </trkpt>
      <trkpt lat="44.69679" lon="6.95389">
        <ele>2305.4</ele>
        <time>2022-07-18T07:42:58Z</time>
      </trkpt>
      <trkpt lat="44.69679" lon="6.95392">
        <ele>2305.6</ele>
        <time>2022-07-18T07:42:59Z</time>
      </trkpt>
      <trkpt lat="44.69679" lon="6.95394">
        <ele>2306</ele>
        <time>2022-07-18T07:43:00Z</time>
      </trkpt>
      <trkpt lat="44.69678" lon="6.95397">
        <ele>2306</ele>
        <time>2022-07-18T07:43:01Z</time>
      </trkpt>
      <trkpt lat="44.69678" lon="6.95399">
        <ele>2306.2</ele>
        <time>2022-07-18T07:43:02Z</time>
      </trkpt>
      <trkpt lat="44.69677" lon="6.95402">
        <ele>2306.2</ele>
        <time>2022-07-18T07:43:03Z</time>
      </trkpt>
      <trkpt lat="44.69676" lon="6.95404">
        <ele>2306.6</ele>
        <time>2022-07-18T07:43:04Z</time>
      </trkpt>
      <trkpt lat="44.69675" lon="6.95406">
        <ele>2306.6</ele>
        <time>2022-07-18T07:43:05Z</time>
      </trkpt>
      <trkpt lat="44.69674" lon="6.95409">
        <ele>2306.8</ele>
        <time>2022-07-18T07:43:06Z</time>
      </trkpt>
      <trkpt lat="44.69673" lon="6.95411">
        <ele>2306.8</ele>
        <time>2022-07-18T07:43:07Z</time>
      </trkpt>
      <trkpt lat="44.69673" lon="6.95414">
        <ele>2307.2</ele>
        <time>2022-07-18T07:43:08Z</time>
      </trkpt>
      <trkpt lat="44.69672" lon="6.95416">
        <ele>2307.2</ele>
        <time>2022-07-18T07:43:09Z</time>
      </trkpt>
      <trkpt lat="44.69671" lon="6.95418">
        <ele>2307.6</ele>
        <time>2022-07-18T07:43:10Z</time>
      </trkpt>
      <trkpt lat="44.6967" lon="6.9542">
        <ele>2307.6</ele>
        <time>2022-07-18T07:43:11Z</time>
      </trkpt>
      <trkpt lat="44.69669" lon="6.95423">
        <ele>2308</ele>
        <time>2022-07-18T07:43:12Z</time>
      </trkpt>
      <trkpt lat="44.69668" lon="6.95425">
        <ele>2308</ele>
        <time>2022-07-18T07:43:13Z</time>
      </trkpt>
      <trkpt lat="44.69667" lon="6.95427">
        <ele>2308.2</ele>
        <time>2022-07-18T07:43:14Z</time>
      </trkpt>
      <trkpt lat="44.69666" lon="6.95429">
        <ele>2308.2</ele>
        <time>2022-07-18T07:43:15Z</time>
      </trkpt>
      <trkpt lat="44.69665" lon="6.95432">
        <ele>2308.6</ele>
        <time>2022-07-18T07:43:16Z</time>
      </trkpt>
      <trkpt lat="44.69664" lon="6.95433">
        <ele>2308.8</ele>
        <time>2022-07-18T07:43:17Z</time>
      </trkpt>
      <trkpt lat="44.69663" lon="6.95436">
        <ele>2308.8</ele>
        <time>2022-07-18T07:43:18Z</time>
      </trkpt>
      <trkpt lat="44.69663" lon="6.95438">
        <ele>2309.2</ele>
        <time>2022-07-18T07:43:19Z</time>
      </trkpt>
      <trkpt lat="44.69662" lon="6.9544">
        <ele>2309.2</ele>
        <time>2022-07-18T07:43:20Z</time>
      </trkpt>
      <trkpt lat="44.69661" lon="6.95442">
        <ele>2309.4</ele>
        <time>2022-07-18T07:43:21Z</time>
      </trkpt>
      <trkpt lat="44.6966" lon="6.95444">
        <ele>2309.4</ele>
        <time>2022-07-18T07:43:22Z</time>
      </trkpt>
      <trkpt lat="44.69659" lon="6.95446">
        <ele>2309.8</ele>
        <time>2022-07-18T07:43:23Z</time>
      </trkpt>
      <trkpt lat="44.69658" lon="6.95448">
        <ele>2310</ele>
        <time>2022-07-18T07:43:24Z</time>
      </trkpt>
      <trkpt lat="44.69657" lon="6.9545">
        <ele>2310</ele>
        <time>2022-07-18T07:43:25Z</time>
      </trkpt>
      <trkpt lat="44.69656" lon="6.95452">
        <ele>2310.2</ele>
        <time>2022-07-18T07:43:26Z</time>
      </trkpt>
      <trkpt lat="44.69655" lon="6.95454">
        <ele>2310.2</ele>
        <time>2022-07-18T07:43:27Z</time>
      </trkpt>
      <trkpt lat="44.69655" lon="6.95457">
        <ele>2310.4</ele>
        <time>2022-07-18T07:43:28Z</time>
      </trkpt>
      <trkpt lat="44.69655" lon="6.95459">
        <ele>2310.4</ele>
        <time>2022-07-18T07:43:29Z</time>
      </trkpt>
      <trkpt lat="44.69654" lon="6.95462">
        <ele>2310.8</ele>
        <time>2022-07-18T07:43:30Z</time>
      </trkpt>
      <trkpt lat="44.69654" lon="6.95464">
        <ele>2310.8</ele>
        <time>2022-07-18T07:43:31Z</time>
      </trkpt>
      <trkpt lat="44.69653" lon="6.95467">
        <ele>2311</ele>
        <time>2022-07-18T07:43:32Z</time>
      </trkpt>
      <trkpt lat="44.69653" lon="6.95469">
        <ele>2311</ele>
        <time>2022-07-18T07:43:33Z</time>
      </trkpt>
      <trkpt lat="44.69653" lon="6.95472">
        <ele>2311.2</ele>
        <time>2022-07-18T07:43:34Z</time>
      </trkpt>
      <trkpt lat="44.69652" lon="6.95474">
        <ele>2311.2</ele>
        <time>2022-07-18T07:43:35Z</time>
      </trkpt>
      <trkpt lat="44.69652" lon="6.95477">
        <ele>2311.6</ele>
        <time>2022-07-18T07:43:36Z</time>
      </trkpt>
      <trkpt lat="44.69651" lon="6.95479">
        <ele>2311.6</ele>
        <time>2022-07-18T07:43:37Z</time>
      </trkpt>
      <trkpt lat="44.69651" lon="6.95482">
        <ele>2312</ele>
        <time>2022-07-18T07:43:38Z</time>
      </trkpt>
      <trkpt lat="44.6965" lon="6.95485">
        <ele>2312</ele>
        <time>2022-07-18T07:43:39Z</time>
      </trkpt>
      <trkpt lat="44.6965" lon="6.95487">
        <ele>2312.2</ele>
        <time>2022-07-18T07:43:40Z</time>
      </trkpt>
      <trkpt lat="44.6965" lon="6.9549">
        <ele>2312.2</ele>
        <time>2022-07-18T07:43:41Z</time>
      </trkpt>
      <trkpt lat="44.6965" lon="6.95493">
        <ele>2312.2</ele>
        <time>2022-07-18T07:43:42Z</time>
      </trkpt>
      <trkpt lat="44.6965" lon="6.95496">
        <ele>2312.6</ele>
        <time>2022-07-18T07:43:43Z</time>
      </trkpt>
      <trkpt lat="44.69649" lon="6.95499">
        <ele>2312.6</ele>
        <time>2022-07-18T07:43:44Z</time>
      </trkpt>
      <trkpt lat="44.69649" lon="6.95501">
        <ele>2312.6</ele>
        <time>2022-07-18T07:43:45Z</time>
      </trkpt>
      <trkpt lat="44.69648" lon="6.95504">
        <ele>2312.8</ele>
        <time>2022-07-18T07:43:46Z</time>
      </trkpt>
      <trkpt lat="44.69648" lon="6.95507">
        <ele>2312.8</ele>
        <time>2022-07-18T07:43:47Z</time>
      </trkpt>
      <trkpt lat="44.69647" lon="6.95509">
        <ele>2313.2</ele>
        <time>2022-07-18T07:43:48Z</time>
      </trkpt>
      <trkpt lat="44.69646" lon="6.95512">
        <ele>2313.2</ele>
        <time>2022-07-18T07:43:49Z</time>
      </trkpt>
      <trkpt lat="44.69646" lon="6.95515">
        <ele>2313.4</ele>
        <time>2022-07-18T07:43:50Z</time>
      </trkpt>
      <trkpt lat="44.69646" lon="6.95517">
        <ele>2313.4</ele>
        <time>2022-07-18T07:43:51Z</time>
      </trkpt>
      <trkpt lat="44.69645" lon="6.9552">
        <ele>2313.8</ele>
        <time>2022-07-18T07:43:52Z</time>
      </trkpt>
      <trkpt lat="44.69645" lon="6.95523">
        <ele>2313.8</ele>
        <time>2022-07-18T07:43:53Z</time>
      </trkpt>
      <trkpt lat="44.69645" lon="6.95525">
        <ele>2314</ele>
        <time>2022-07-18T07:43:54Z</time>
      </trkpt>
      <trkpt lat="44.69644" lon="6.95528">
        <ele>2314</ele>
        <time>2022-07-18T07:43:55Z</time>
      </trkpt>
      <trkpt lat="44.69643" lon="6.95531">
        <ele>2314</ele>
        <time>2022-07-18T07:43:56Z</time>
      </trkpt>
      <trkpt lat="44.69642" lon="6.95533">
        <ele>2314.4</ele>
        <time>2022-07-18T07:43:57Z</time>
      </trkpt>
      <trkpt lat="44.69641" lon="6.95536">
        <ele>2314.4</ele>
        <time>2022-07-18T07:43:58Z</time>
      </trkpt>
      <trkpt lat="44.6964" lon="6.95538">
        <ele>2314.6</ele>
        <time>2022-07-18T07:43:59Z</time>
      </trkpt>
      <trkpt lat="44.69638" lon="6.95541">
        <ele>2314.6</ele>
        <time>2022-07-18T07:44:00Z</time>
      </trkpt>
      <trkpt lat="44.69637" lon="6.95543">
        <ele>2314.8</ele>
        <time>2022-07-18T07:44:01Z</time>
      </trkpt>
      <trkpt lat="44.69636" lon="6.95545">
        <ele>2314.8</ele>
        <time>2022-07-18T07:44:02Z</time>
      </trkpt>
      <trkpt lat="44.69635" lon="6.95548">
        <ele>2315</ele>
        <time>2022-07-18T07:44:03Z</time>
      </trkpt>
      <trkpt lat="44.69634" lon="6.9555">
        <ele>2315</ele>
        <time>2022-07-18T07:44:04Z</time>
      </trkpt>
      <trkpt lat="44.69632" lon="6.95553">
        <ele>2315.4</ele>
        <time>2022-07-18T07:44:05Z</time>
      </trkpt>
      <trkpt lat="44.69631" lon="6.95555">
        <ele>2315.4</ele>
        <time>2022-07-18T07:44:06Z</time>
      </trkpt>
      <trkpt lat="44.69629" lon="6.95557">
        <ele>2315.6</ele>
        <time>2022-07-18T07:44:07Z</time>
      </trkpt>
      <trkpt lat="44.69628" lon="6.9556">
        <ele>2315.6</ele>
        <time>2022-07-18T07:44:08Z</time>
      </trkpt>
      <trkpt lat="44.69627" lon="6.95561">
        <ele>2316</ele>
        <time>2022-07-18T07:44:09Z</time>
      </trkpt>
      <trkpt lat="44.69625" lon="6.95564">
        <ele>2316</ele>
        <time>2022-07-18T07:44:10Z</time>
      </trkpt>
      <trkpt lat="44.69624" lon="6.95566">
        <ele>2316.2</ele>
        <time>2022-07-18T07:44:11Z</time>
      </trkpt>
      <trkpt lat="44.69623" lon="6.95568">
        <ele>2316.2</ele>
        <time>2022-07-18T07:44:12Z</time>
      </trkpt>
      <trkpt lat="44.69621" lon="6.95569">
        <ele>2316.6</ele>
        <time>2022-07-18T07:44:13Z</time>
      </trkpt>
      <trkpt lat="44.6962" lon="6.95571">
        <ele>2316.6</ele>
        <time>2022-07-18T07:44:14Z</time>
      </trkpt>
      <trkpt lat="44.69618" lon="6.95573">
        <ele>2316.8</ele>
        <time>2022-07-18T07:44:15Z</time>
      </trkpt>
      <trkpt lat="44.69617" lon="6.95575">
        <ele>2316.8</ele>
        <time>2022-07-18T07:44:16Z</time>
      </trkpt>
      <trkpt lat="44.69615" lon="6.95577">
        <ele>2317.2</ele>
        <time>2022-07-18T07:44:17Z</time>
      </trkpt>
      <trkpt lat="44.69614" lon="6.95579">
        <ele>2317.2</ele>
        <time>2022-07-18T07:44:18Z</time>
      </trkpt>
      <trkpt lat="44.69612" lon="6.95581">
        <ele>2317.4</ele>
        <time>2022-07-18T07:44:19Z</time>
      </trkpt>
      <trkpt lat="44.69611" lon="6.95583">
        <ele>2317.4</ele>
        <time>2022-07-18T07:44:20Z</time>
      </trkpt>
      <trkpt lat="44.6961" lon="6.95584">
        <ele>2317.8</ele>
        <time>2022-07-18T07:44:21Z</time>
      </trkpt>
      <trkpt lat="44.69608" lon="6.95587">
        <ele>2318</ele>
        <time>2022-07-18T07:44:22Z</time>
      </trkpt>
      <trkpt lat="44.69607" lon="6.95588">
        <ele>2318</ele>
        <time>2022-07-18T07:44:23Z</time>
      </trkpt>
      <trkpt lat="44.69606" lon="6.95591">
        <ele>2318.2</ele>
        <time>2022-07-18T07:44:24Z</time>
      </trkpt>
      <trkpt lat="44.69605" lon="6.95593">
        <ele>2318.2</ele>
        <time>2022-07-18T07:44:25Z</time>
      </trkpt>
      <trkpt lat="44.69604" lon="6.95595">
        <ele>2318.6</ele>
        <time>2022-07-18T07:44:26Z</time>
      </trkpt>
      <trkpt lat="44.69603" lon="6.95597">
        <ele>2318.6</ele>
        <time>2022-07-18T07:44:27Z</time>
      </trkpt>
      <trkpt lat="44.69602" lon="6.956">
        <ele>2319</ele>
        <time>2022-07-18T07:44:28Z</time>
      </trkpt>
      <trkpt lat="44.69601" lon="6.95602">
        <ele>2319</ele>
        <time>2022-07-18T07:44:29Z</time>
      </trkpt>
      <trkpt lat="44.69599" lon="6.95605">
        <ele>2319.2</ele>
        <time>2022-07-18T07:44:30Z</time>
      </trkpt>
      <trkpt lat="44.69598" lon="6.95607">
        <ele>2319.2</ele>
        <time>2022-07-18T07:44:31Z</time>
      </trkpt>
      <trkpt lat="44.69597" lon="6.95609">
        <ele>2319.6</ele>
        <time>2022-07-18T07:44:32Z</time>
      </trkpt>
      <trkpt lat="44.69596" lon="6.95611">
        <ele>2319.6</ele>
        <time>2022-07-18T07:44:33Z</time>
      </trkpt>
      <trkpt lat="44.69595" lon="6.95613">
        <ele>2319.8</ele>
        <time>2022-07-18T07:44:34Z</time>
      </trkpt>
      <trkpt lat="44.69593" lon="6.95616">
        <ele>2320.2</ele>
        <time>2022-07-18T07:44:35Z</time>
      </trkpt>
      <trkpt lat="44.69592" lon="6.95618">
        <ele>2320.4</ele>
        <time>2022-07-18T07:44:36Z</time>
      </trkpt>
      <trkpt lat="44.69591" lon="6.9562">
        <ele>2320.4</ele>
        <time>2022-07-18T07:44:37Z</time>
      </trkpt>
      <trkpt lat="44.6959" lon="6.95623">
        <ele>2320.6</ele>
        <time>2022-07-18T07:44:38Z</time>
      </trkpt>
      <trkpt lat="44.69589" lon="6.95625">
        <ele>2320.6</ele>
        <time>2022-07-18T07:44:39Z</time>
      </trkpt>
      <trkpt lat="44.69588" lon="6.95628">
        <ele>2321</ele>
        <time>2022-07-18T07:44:40Z</time>
      </trkpt>
      <trkpt lat="44.69587" lon="6.9563">
        <ele>2321.2</ele>
        <time>2022-07-18T07:44:41Z</time>
      </trkpt>
      <trkpt lat="44.69587" lon="6.95633">
        <ele>2321.2</ele>
        <time>2022-07-18T07:44:42Z</time>
      </trkpt>
      <trkpt lat="44.69586" lon="6.95636">
        <ele>2321.4</ele>
        <time>2022-07-18T07:44:43Z</time>
      </trkpt>
      <trkpt lat="44.69585" lon="6.95638">
        <ele>2321.4</ele>
        <time>2022-07-18T07:44:44Z</time>
      </trkpt>
      <trkpt lat="44.69584" lon="6.95641">
        <ele>2321.8</ele>
        <time>2022-07-18T07:44:45Z</time>
      </trkpt>
      <trkpt lat="44.69583" lon="6.95644">
        <ele>2322</ele>
        <time>2022-07-18T07:44:46Z</time>
      </trkpt>
      <trkpt lat="44.69582" lon="6.95646">
        <ele>2322</ele>
        <time>2022-07-18T07:44:47Z</time>
      </trkpt>
      <trkpt lat="44.69581" lon="6.95649">
        <ele>2322.2</ele>
        <time>2022-07-18T07:44:48Z</time>
      </trkpt>
      <trkpt lat="44.6958" lon="6.95652">
        <ele>2322.2</ele>
        <time>2022-07-18T07:44:49Z</time>
      </trkpt>
      <trkpt lat="44.69579" lon="6.95654">
        <ele>2322.4</ele>
        <time>2022-07-18T07:44:50Z</time>
      </trkpt>
      <trkpt lat="44.69578" lon="6.95657">
        <ele>2322.4</ele>
        <time>2022-07-18T07:44:51Z</time>
      </trkpt>
      <trkpt lat="44.69576" lon="6.95659">
        <ele>2322.8</ele>
        <time>2022-07-18T07:44:52Z</time>
      </trkpt>
      <trkpt lat="44.69575" lon="6.95661">
        <ele>2322.8</ele>
        <time>2022-07-18T07:44:53Z</time>
      </trkpt>
      <trkpt lat="44.69573" lon="6.95663">
        <ele>2323</ele>
        <time>2022-07-18T07:44:54Z</time>
      </trkpt>
      <trkpt lat="44.69571" lon="6.95666">
        <ele>2323</ele>
        <time>2022-07-18T07:44:55Z</time>
      </trkpt>
      <trkpt lat="44.6957" lon="6.95668">
        <ele>2323.4</ele>
        <time>2022-07-18T07:44:56Z</time>
      </trkpt>
      <trkpt lat="44.69568" lon="6.9567">
        <ele>2323.4</ele>
        <time>2022-07-18T07:44:57Z</time>
      </trkpt>
      <trkpt lat="44.69567" lon="6.95672">
        <ele>2323.6</ele>
        <time>2022-07-18T07:44:58Z</time>
      </trkpt>
      <trkpt lat="44.69565" lon="6.95673">
        <ele>2323.8</ele>
        <time>2022-07-18T07:44:59Z</time>
      </trkpt>
      <trkpt lat="44.69564" lon="6.95675">
        <ele>2324</ele>
        <time>2022-07-18T07:45:00Z</time>
      </trkpt>
      <trkpt lat="44.69562" lon="6.95677">
        <ele>2324.4</ele>
        <time>2022-07-18T07:45:01Z</time>
      </trkpt>
      <trkpt lat="44.69561" lon="6.95679">
        <ele>2324.6</ele>
        <time>2022-07-18T07:45:02Z</time>
      </trkpt>
      <trkpt lat="44.69559" lon="6.95681">
        <ele>2324.6</ele>
        <time>2022-07-18T07:45:03Z</time>
      </trkpt>
      <trkpt lat="44.69557" lon="6.95682">
        <ele>2324.8</ele>
        <time>2022-07-18T07:45:04Z</time>
      </trkpt>
      <trkpt lat="44.69556" lon="6.95684">
        <ele>2325</ele>
        <time>2022-07-18T07:45:05Z</time>
      </trkpt>
      <trkpt lat="44.69554" lon="6.95686">
        <ele>2325</ele>
        <time>2022-07-18T07:45:06Z</time>
      </trkpt>
      <trkpt lat="44.69553" lon="6.95687">
        <ele>2325.4</ele>
        <time>2022-07-18T07:45:07Z</time>
      </trkpt>
      <trkpt lat="44.69551" lon="6.95689">
        <ele>2325.4</ele>
        <time>2022-07-18T07:45:08Z</time>
      </trkpt>
      <trkpt lat="44.6955" lon="6.95691">
        <ele>2325.6</ele>
        <time>2022-07-18T07:45:09Z</time>
      </trkpt>
      <trkpt lat="44.69548" lon="6.95692">
        <ele>2325.6</ele>
        <time>2022-07-18T07:45:10Z</time>
      </trkpt>
      <trkpt lat="44.69547" lon="6.95694">
        <ele>2326</ele>
        <time>2022-07-18T07:45:11Z</time>
      </trkpt>
      <trkpt lat="44.69545" lon="6.95695">
        <ele>2326.2</ele>
        <time>2022-07-18T07:45:12Z</time>
      </trkpt>
      <trkpt lat="44.69544" lon="6.95697">
        <ele>2326.2</ele>
        <time>2022-07-18T07:45:13Z</time>
      </trkpt>
      <trkpt lat="44.69542" lon="6.95698">
        <ele>2326.6</ele>
        <time>2022-07-18T07:45:14Z</time>
      </trkpt>
      <trkpt lat="44.69541" lon="6.957">
        <ele>2327</ele>
        <time>2022-07-18T07:45:15Z</time>
      </trkpt>
      <trkpt lat="44.6954" lon="6.95701">
        <ele>2327</ele>
        <time>2022-07-18T07:45:16Z</time>
      </trkpt>
      <trkpt lat="44.69538" lon="6.95703">
        <ele>2327.4</ele>
        <time>2022-07-18T07:45:17Z</time>
      </trkpt>
      <trkpt lat="44.69537" lon="6.95705">
        <ele>2327.4</ele>
        <time>2022-07-18T07:45:18Z</time>
      </trkpt>
      <trkpt lat="44.69536" lon="6.95706">
        <ele>2327.8</ele>
        <time>2022-07-18T07:45:19Z</time>
      </trkpt>
      <trkpt lat="44.69535" lon="6.95708">
        <ele>2327.8</ele>
        <time>2022-07-18T07:45:20Z</time>
      </trkpt>
      <trkpt lat="44.69533" lon="6.9571">
        <ele>2328.2</ele>
        <time>2022-07-18T07:45:21Z</time>
      </trkpt>
      <trkpt lat="44.69532" lon="6.95711">
        <ele>2328.4</ele>
        <time>2022-07-18T07:45:22Z</time>
      </trkpt>
      <trkpt lat="44.6953" lon="6.95713">
        <ele>2328.6</ele>
        <time>2022-07-18T07:45:23Z</time>
      </trkpt>
      <trkpt lat="44.69529" lon="6.95714">
        <ele>2328.8</ele>
        <time>2022-07-18T07:45:24Z</time>
      </trkpt>
      <trkpt lat="44.69527" lon="6.95716">
        <ele>2328.8</ele>
        <time>2022-07-18T07:45:25Z</time>
      </trkpt>
      <trkpt lat="44.69526" lon="6.95717">
        <ele>2329.2</ele>
        <time>2022-07-18T07:45:26Z</time>
      </trkpt>
      <trkpt lat="44.69524" lon="6.95719">
        <ele>2329.4</ele>
        <time>2022-07-18T07:45:27Z</time>
      </trkpt>
      <trkpt lat="44.69523" lon="6.9572">
        <ele>2329.4</ele>
        <time>2022-07-18T07:45:28Z</time>
      </trkpt>
      <trkpt lat="44.69522" lon="6.95722">
        <ele>2329.8</ele>
        <time>2022-07-18T07:45:29Z</time>
      </trkpt>
      <trkpt lat="44.6952" lon="6.95723">
        <ele>2330</ele>
        <time>2022-07-18T07:45:30Z</time>
      </trkpt>
      <trkpt lat="44.69519" lon="6.95725">
        <ele>2330.4</ele>
        <time>2022-07-18T07:45:31Z</time>
      </trkpt>
      <trkpt lat="44.69517" lon="6.95726">
        <ele>2330.4</ele>
        <time>2022-07-18T07:45:32Z</time>
      </trkpt>
      <trkpt lat="44.69516" lon="6.95728">
        <ele>2330.6</ele>
        <time>2022-07-18T07:45:33Z</time>
      </trkpt>
      <trkpt lat="44.69514" lon="6.95729">
        <ele>2330.8</ele>
        <time>2022-07-18T07:45:34Z</time>
      </trkpt>
      <trkpt lat="44.69513" lon="6.95731">
        <ele>2330.8</ele>
        <time>2022-07-18T07:45:35Z</time>
      </trkpt>
      <trkpt lat="44.69512" lon="6.95733">
        <ele>2331.4</ele>
        <time>2022-07-18T07:45:36Z</time>
      </trkpt>
      <trkpt lat="44.69511" lon="6.95735">
        <ele>2331.6</ele>
        <time>2022-07-18T07:45:37Z</time>
      </trkpt>
      <trkpt lat="44.69509" lon="6.95736">
        <ele>2331.8</ele>
        <time>2022-07-18T07:45:38Z</time>
      </trkpt>
      <trkpt lat="44.69508" lon="6.95737">
        <ele>2331.8</ele>
        <time>2022-07-18T07:45:39Z</time>
      </trkpt>
      <trkpt lat="44.69507" lon="6.95739">
        <ele>2332.2</ele>
        <time>2022-07-18T07:45:40Z</time>
      </trkpt>
      <trkpt lat="44.69505" lon="6.95742">
        <ele>2332.4</ele>
        <time>2022-07-18T07:45:41Z</time>
      </trkpt>
      <trkpt lat="44.69504" lon="6.95744">
        <ele>2332.4</ele>
        <time>2022-07-18T07:45:42Z</time>
      </trkpt>
      <trkpt lat="44.69502" lon="6.95746">
        <ele>2332.6</ele>
        <time>2022-07-18T07:45:43Z</time>
      </trkpt>
      <trkpt lat="44.69501" lon="6.95748">
        <ele>2332.6</ele>
        <time>2022-07-18T07:45:44Z</time>
      </trkpt>
      <trkpt lat="44.695" lon="6.9575">
        <ele>2333</ele>
        <time>2022-07-18T07:45:45Z</time>
      </trkpt>
      <trkpt lat="44.69498" lon="6.95752">
        <ele>2333.2</ele>
        <time>2022-07-18T07:45:46Z</time>
      </trkpt>
      <trkpt lat="44.69497" lon="6.95754">
        <ele>2333.2</ele>
        <time>2022-07-18T07:45:47Z</time>
      </trkpt>
      <trkpt lat="44.69496" lon="6.95756">
        <ele>2333.6</ele>
        <time>2022-07-18T07:45:48Z</time>
      </trkpt>
      <trkpt lat="44.69494" lon="6.95758">
        <ele>2333.6</ele>
        <time>2022-07-18T07:45:49Z</time>
      </trkpt>
      <trkpt lat="44.69493" lon="6.9576">
        <ele>2334</ele>
        <time>2022-07-18T07:45:50Z</time>
      </trkpt>
      <trkpt lat="44.69492" lon="6.95762">
        <ele>2334</ele>
        <time>2022-07-18T07:45:51Z</time>
      </trkpt>
      <trkpt lat="44.69491" lon="6.95764">
        <ele>2334.4</ele>
        <time>2022-07-18T07:45:52Z</time>
      </trkpt>
      <trkpt lat="44.6949" lon="6.95766">
        <ele>2334.4</ele>
        <time>2022-07-18T07:45:53Z</time>
      </trkpt>
      <trkpt lat="44.69489" lon="6.95769">
        <ele>2334.6</ele>
        <time>2022-07-18T07:45:54Z</time>
      </trkpt>
      <trkpt lat="44.69488" lon="6.95771">
        <ele>2334.6</ele>
        <time>2022-07-18T07:45:55Z</time>
      </trkpt>
      <trkpt lat="44.69487" lon="6.95773">
        <ele>2335</ele>
        <time>2022-07-18T07:45:56Z</time>
      </trkpt>
      <trkpt lat="44.69485" lon="6.95776">
        <ele>2335</ele>
        <time>2022-07-18T07:45:57Z</time>
      </trkpt>
      <trkpt lat="44.69484" lon="6.95778">
        <ele>2335.2</ele>
        <time>2022-07-18T07:45:58Z</time>
      </trkpt>
      <trkpt lat="44.69483" lon="6.9578">
        <ele>2335.2</ele>
        <time>2022-07-18T07:45:59Z</time>
      </trkpt>
      <trkpt lat="44.69482" lon="6.95783">
        <ele>2335.6</ele>
        <time>2022-07-18T07:46:00Z</time>
      </trkpt>
      <trkpt lat="44.69481" lon="6.95785">
        <ele>2335.6</ele>
        <time>2022-07-18T07:46:01Z</time>
      </trkpt>
      <trkpt lat="44.6948" lon="6.95788">
        <ele>2336</ele>
        <time>2022-07-18T07:46:02Z</time>
      </trkpt>
      <trkpt lat="44.69479" lon="6.9579">
        <ele>2336</ele>
        <time>2022-07-18T07:46:03Z</time>
      </trkpt>
      <trkpt lat="44.69478" lon="6.95792">
        <ele>2336.4</ele>
        <time>2022-07-18T07:46:04Z</time>
      </trkpt>
      <trkpt lat="44.69477" lon="6.95795">
        <ele>2336.4</ele>
        <time>2022-07-18T07:46:05Z</time>
      </trkpt>
      <trkpt lat="44.69476" lon="6.95797">
        <ele>2336.6</ele>
        <time>2022-07-18T07:46:06Z</time>
      </trkpt>
      <trkpt lat="44.69475" lon="6.958">
        <ele>2336.6</ele>
        <time>2022-07-18T07:46:07Z</time>
      </trkpt>
      <trkpt lat="44.69474" lon="6.95802">
        <ele>2336.8</ele>
        <time>2022-07-18T07:46:08Z</time>
      </trkpt>
      <trkpt lat="44.69473" lon="6.95805">
        <ele>2336.8</ele>
        <time>2022-07-18T07:46:09Z</time>
      </trkpt>
      <trkpt lat="44.69472" lon="6.95807">
        <ele>2336.8</ele>
        <time>2022-07-18T07:46:10Z</time>
      </trkpt>
      <trkpt lat="44.69471" lon="6.9581">
        <ele>2337.2</ele>
        <time>2022-07-18T07:46:11Z</time>
      </trkpt>
      <trkpt lat="44.6947" lon="6.95813">
        <ele>2337.2</ele>
        <time>2022-07-18T07:46:12Z</time>
      </trkpt>
      <trkpt lat="44.69469" lon="6.95816">
        <ele>2337.4</ele>
        <time>2022-07-18T07:46:13Z</time>
      </trkpt>
      <trkpt lat="44.69468" lon="6.95819">
        <ele>2337.4</ele>
        <time>2022-07-18T07:46:14Z</time>
      </trkpt>
      <trkpt lat="44.69467" lon="6.95822">
        <ele>2337.4</ele>
        <time>2022-07-18T07:46:15Z</time>
      </trkpt>
      <trkpt lat="44.69466" lon="6.95824">
        <ele>2337.8</ele>
        <time>2022-07-18T07:46:16Z</time>
      </trkpt>
      <trkpt lat="44.69465" lon="6.95827">
        <ele>2337.8</ele>
        <time>2022-07-18T07:46:17Z</time>
      </trkpt>
      <trkpt lat="44.69464" lon="6.9583">
        <ele>2337.8</ele>
        <time>2022-07-18T07:46:18Z</time>
      </trkpt>
      <trkpt lat="44.69464" lon="6.95833">
        <ele>2338</ele>
        <time>2022-07-18T07:46:19Z</time>
      </trkpt>
      <trkpt lat="44.69463" lon="6.95836">
        <ele>2338</ele>
        <time>2022-07-18T07:46:20Z</time>
      </trkpt>
      <trkpt lat="44.69463" lon="6.95839">
        <ele>2338</ele>
        <time>2022-07-18T07:46:21Z</time>
      </trkpt>
      <trkpt lat="44.69462" lon="6.95842">
        <ele>2338.2</ele>
        <time>2022-07-18T07:46:22Z</time>
      </trkpt>
      <trkpt lat="44.69461" lon="6.95845">
        <ele>2338.2</ele>
        <time>2022-07-18T07:46:23Z</time>
      </trkpt>
      <trkpt lat="44.69461" lon="6.95848">
        <ele>2338.6</ele>
        <time>2022-07-18T07:46:24Z</time>
      </trkpt>
      <trkpt lat="44.6946" lon="6.95852">
        <ele>2338.6</ele>
        <time>2022-07-18T07:46:25Z</time>
      </trkpt>
      <trkpt lat="44.69459" lon="6.95854">
        <ele>2338.6</ele>
        <time>2022-07-18T07:46:26Z</time>
      </trkpt>
      <trkpt lat="44.69459" lon="6.95857">
        <ele>2338.8</ele>
        <time>2022-07-18T07:46:27Z</time>
      </trkpt>
      <trkpt lat="44.69458" lon="6.9586">
        <ele>2338.8</ele>
        <time>2022-07-18T07:46:28Z</time>
      </trkpt>
      <trkpt lat="44.69457" lon="6.95862">
        <ele>2339</ele>
        <time>2022-07-18T07:46:29Z</time>
      </trkpt>
      <trkpt lat="44.69457" lon="6.95865">
        <ele>2339</ele>
        <time>2022-07-18T07:46:30Z</time>
      </trkpt>
      <trkpt lat="44.69456" lon="6.95868">
        <ele>2339.4</ele>
        <time>2022-07-18T07:46:31Z</time>
      </trkpt>
      <trkpt lat="44.69455" lon="6.95871">
        <ele>2339.4</ele>
        <time>2022-07-18T07:46:32Z</time>
      </trkpt>
      <trkpt lat="44.69455" lon="6.95874">
        <ele>2339.6</ele>
        <time>2022-07-18T07:46:33Z</time>
      </trkpt>
      <trkpt lat="44.69454" lon="6.95876">
        <ele>2339.6</ele>
        <time>2022-07-18T07:46:34Z</time>
      </trkpt>
      <trkpt lat="44.69454" lon="6.95879">
        <ele>2340</ele>
        <time>2022-07-18T07:46:35Z</time>
      </trkpt>
      <trkpt lat="44.69453" lon="6.95882">
        <ele>2340</ele>
        <time>2022-07-18T07:46:36Z</time>
      </trkpt>
      <trkpt lat="44.69452" lon="6.95885">
        <ele>2340.2</ele>
        <time>2022-07-18T07:46:37Z</time>
      </trkpt>
      <trkpt lat="44.69451" lon="6.95888">
        <ele>2340.6</ele>
        <time>2022-07-18T07:46:38Z</time>
      </trkpt>
      <trkpt lat="44.69451" lon="6.95891">
        <ele>2340.6</ele>
        <time>2022-07-18T07:46:39Z</time>
      </trkpt>
      <trkpt lat="44.6945" lon="6.95893">
        <ele>2340.8</ele>
        <time>2022-07-18T07:46:40Z</time>
      </trkpt>
      <trkpt lat="44.69449" lon="6.95896">
        <ele>2340.8</ele>
        <time>2022-07-18T07:46:41Z</time>
      </trkpt>
      <trkpt lat="44.69449" lon="6.95899">
        <ele>2341.2</ele>
        <time>2022-07-18T07:46:42Z</time>
      </trkpt>
      <trkpt lat="44.69448" lon="6.95901">
        <ele>2341.2</ele>
        <time>2022-07-18T07:46:43Z</time>
      </trkpt>
      <trkpt lat="44.69447" lon="6.95904">
        <ele>2341.2</ele>
        <time>2022-07-18T07:46:44Z</time>
      </trkpt>
      <trkpt lat="44.69447" lon="6.95906">
        <ele>2341.6</ele>
        <time>2022-07-18T07:46:45Z</time>
      </trkpt>
      <trkpt lat="44.69446" lon="6.95909">
        <ele>2341.6</ele>
        <time>2022-07-18T07:46:46Z</time>
      </trkpt>
      <trkpt lat="44.69445" lon="6.95911">
        <ele>2341.8</ele>
        <time>2022-07-18T07:46:47Z</time>
      </trkpt>
      <trkpt lat="44.69445" lon="6.95914">
        <ele>2341.8</ele>
        <time>2022-07-18T07:46:48Z</time>
      </trkpt>
      <trkpt lat="44.69444" lon="6.95916">
        <ele>2342.2</ele>
        <time>2022-07-18T07:46:49Z</time>
      </trkpt>
      <trkpt lat="44.69444" lon="6.95919">
        <ele>2342.2</ele>
        <time>2022-07-18T07:46:50Z</time>
      </trkpt>
      <trkpt lat="44.69444" lon="6.95921">
        <ele>2342.4</ele>
        <time>2022-07-18T07:46:51Z</time>
      </trkpt>
      <trkpt lat="44.69444" lon="6.95924">
        <ele>2342.4</ele>
        <time>2022-07-18T07:46:52Z</time>
      </trkpt>
      <trkpt lat="44.69444" lon="6.95926">
        <ele>2342.8</ele>
        <time>2022-07-18T07:46:53Z</time>
      </trkpt>
      <trkpt lat="44.69444" lon="6.95929">
        <ele>2342.8</ele>
        <time>2022-07-18T07:46:54Z</time>
      </trkpt>
      <trkpt lat="44.69444" lon="6.95931">
        <ele>2343.2</ele>
        <time>2022-07-18T07:46:55Z</time>
      </trkpt>
      <trkpt lat="44.69444" lon="6.95934">
        <ele>2343.2</ele>
        <time>2022-07-18T07:46:56Z</time>
      </trkpt>
      <trkpt lat="44.69444" lon="6.95936">
        <ele>2343.4</ele>
        <time>2022-07-18T07:46:57Z</time>
      </trkpt>
      <trkpt lat="44.69443" lon="6.95939">
        <ele>2343.4</ele>
        <time>2022-07-18T07:46:58Z</time>
      </trkpt>
      <trkpt lat="44.69443" lon="6.95941">
        <ele>2343.8</ele>
        <time>2022-07-18T07:47:00Z</time>
      </trkpt>
      <trkpt lat="44.69443" lon="6.95944">
        <ele>2343.8</ele>
        <time>2022-07-18T07:47:01Z</time>
      </trkpt>
      <trkpt lat="44.69443" lon="6.95946">
        <ele>2344.2</ele>
        <time>2022-07-18T07:47:02Z</time>
      </trkpt>
      <trkpt lat="44.69442" lon="6.95949">
        <ele>2344.2</ele>
        <time>2022-07-18T07:47:03Z</time>
      </trkpt>
      <trkpt lat="44.69442" lon="6.95951">
        <ele>2344.4</ele>
        <time>2022-07-18T07:47:04Z</time>
      </trkpt>
      <trkpt lat="44.69443" lon="6.95954">
        <ele>2344.4</ele>
        <time>2022-07-18T07:47:05Z</time>
      </trkpt>
      <trkpt lat="44.69443" lon="6.95957">
        <ele>2344.8</ele>
        <time>2022-07-18T07:47:06Z</time>
      </trkpt>
      <trkpt lat="44.69442" lon="6.9596">
        <ele>2344.8</ele>
        <time>2022-07-18T07:47:07Z</time>
      </trkpt>
      <trkpt lat="44.69442" lon="6.95962">
        <ele>2345</ele>
        <time>2022-07-18T07:47:08Z</time>
      </trkpt>
      <trkpt lat="44.69442" lon="6.95965">
        <ele>2345</ele>
        <time>2022-07-18T07:47:09Z</time>
      </trkpt>
      <trkpt lat="44.69442" lon="6.95967">
        <ele>2345.4</ele>
        <time>2022-07-18T07:47:10Z</time>
      </trkpt>
      <trkpt lat="44.69442" lon="6.9597">
        <ele>2345.8</ele>
        <time>2022-07-18T07:47:11Z</time>
      </trkpt>
      <trkpt lat="44.69442" lon="6.95972">
        <ele>2345.8</ele>
        <time>2022-07-18T07:47:12Z</time>
      </trkpt>
      <trkpt lat="44.69442" lon="6.95975">
        <ele>2346</ele>
        <time>2022-07-18T07:47:13Z</time>
      </trkpt>
      <trkpt lat="44.69442" lon="6.95977">
        <ele>2346</ele>
        <time>2022-07-18T07:47:14Z</time>
      </trkpt>
      <trkpt lat="44.69442" lon="6.9598">
        <ele>2346.2</ele>
        <time>2022-07-18T07:47:15Z</time>
      </trkpt>
      <trkpt lat="44.69442" lon="6.95983">
        <ele>2346.2</ele>
        <time>2022-07-18T07:47:16Z</time>
      </trkpt>
      <trkpt lat="44.69441" lon="6.95986">
        <ele>2346.6</ele>
        <time>2022-07-18T07:47:17Z</time>
      </trkpt>
      <trkpt lat="44.6944" lon="6.95989">
        <ele>2346.6</ele>
        <time>2022-07-18T07:47:18Z</time>
      </trkpt>
      <trkpt lat="44.69439" lon="6.95992">
        <ele>2346.8</ele>
        <time>2022-07-18T07:47:19Z</time>
      </trkpt>
      <trkpt lat="44.69439" lon="6.95994">
        <ele>2346.8</ele>
        <time>2022-07-18T07:47:20Z</time>
      </trkpt>
      <trkpt lat="44.69438" lon="6.95997">
        <ele>2347</ele>
        <time>2022-07-18T07:47:21Z</time>
      </trkpt>
      <trkpt lat="44.69438" lon="6.96">
        <ele>2347</ele>
        <time>2022-07-18T07:47:22Z</time>
      </trkpt>
      <trkpt lat="44.69437" lon="6.96003">
        <ele>2347.4</ele>
        <time>2022-07-18T07:47:23Z</time>
      </trkpt>
      <trkpt lat="44.69436" lon="6.96005">
        <ele>2347.4</ele>
        <time>2022-07-18T07:47:24Z</time>
      </trkpt>
      <trkpt lat="44.69435" lon="6.96008">
        <ele>2347.6</ele>
        <time>2022-07-18T07:47:25Z</time>
      </trkpt>
      <trkpt lat="44.69435" lon="6.9601">
        <ele>2347.6</ele>
        <time>2022-07-18T07:47:26Z</time>
      </trkpt>
      <trkpt lat="44.69434" lon="6.96013">
        <ele>2347.8</ele>
        <time>2022-07-18T07:47:27Z</time>
      </trkpt>
      <trkpt lat="44.69433" lon="6.96015">
        <ele>2347.8</ele>
        <time>2022-07-18T07:47:28Z</time>
      </trkpt>
      <trkpt lat="44.69433" lon="6.96018">
        <ele>2348.2</ele>
        <time>2022-07-18T07:47:29Z</time>
      </trkpt>
      <trkpt lat="44.69432" lon="6.9602">
        <ele>2348.2</ele>
        <time>2022-07-18T07:47:30Z</time>
      </trkpt>
      <trkpt lat="44.69431" lon="6.96023">
        <ele>2348.6</ele>
        <time>2022-07-18T07:47:31Z</time>
      </trkpt>
      <trkpt lat="44.6943" lon="6.96025">
        <ele>2348.8</ele>
        <time>2022-07-18T07:47:32Z</time>
      </trkpt>
      <trkpt lat="44.69429" lon="6.96027">
        <ele>2348.8</ele>
        <time>2022-07-18T07:47:33Z</time>
      </trkpt>
      <trkpt lat="44.69428" lon="6.9603">
        <ele>2349</ele>
        <time>2022-07-18T07:47:34Z</time>
      </trkpt>
      <trkpt lat="44.69427" lon="6.96032">
        <ele>2349.2</ele>
        <time>2022-07-18T07:47:35Z</time>
      </trkpt>
      <trkpt lat="44.69427" lon="6.96034">
        <ele>2349.2</ele>
        <time>2022-07-18T07:47:36Z</time>
      </trkpt>
      <trkpt lat="44.69425" lon="6.96036">
        <ele>2349.6</ele>
        <time>2022-07-18T07:47:37Z</time>
      </trkpt>
      <trkpt lat="44.69425" lon="6.96038">
        <ele>2349.8</ele>
        <time>2022-07-18T07:47:38Z</time>
      </trkpt>
      <trkpt lat="44.69424" lon="6.9604">
        <ele>2350</ele>
        <time>2022-07-18T07:47:39Z</time>
      </trkpt>
      <trkpt lat="44.69423" lon="6.96042">
        <ele>2350.4</ele>
        <time>2022-07-18T07:47:40Z</time>
      </trkpt>
      <trkpt lat="44.69422" lon="6.96044">
        <ele>2350.4</ele>
        <time>2022-07-18T07:47:41Z</time>
      </trkpt>
      <trkpt lat="44.6942" lon="6.96046">
        <ele>2350.6</ele>
        <time>2022-07-18T07:47:42Z</time>
      </trkpt>
      <trkpt lat="44.69419" lon="6.96048">
        <ele>2351</ele>
        <time>2022-07-18T07:47:43Z</time>
      </trkpt>
      <trkpt lat="44.69418" lon="6.9605">
        <ele>2351</ele>
        <time>2022-07-18T07:47:44Z</time>
      </trkpt>
      <trkpt lat="44.69417" lon="6.96052">
        <ele>2351.4</ele>
        <time>2022-07-18T07:47:45Z</time>
      </trkpt>
      <trkpt lat="44.69416" lon="6.96053">
        <ele>2351.4</ele>
        <time>2022-07-18T07:47:46Z</time>
      </trkpt>
      <trkpt lat="44.69415" lon="6.96055">
        <ele>2351.6</ele>
        <time>2022-07-18T07:47:47Z</time>
      </trkpt>
      <trkpt lat="44.69414" lon="6.96057">
        <ele>2351.8</ele>
        <time>2022-07-18T07:47:48Z</time>
      </trkpt>
      <trkpt lat="44.69412" lon="6.96058">
        <ele>2352.2</ele>
        <time>2022-07-18T07:47:49Z</time>
      </trkpt>
      <trkpt lat="44.69411" lon="6.9606">
        <ele>2352.4</ele>
        <time>2022-07-18T07:47:50Z</time>
      </trkpt>
      <trkpt lat="44.6941" lon="6.96062">
        <ele>2352.4</ele>
        <time>2022-07-18T07:47:51Z</time>
      </trkpt>
      <trkpt lat="44.69409" lon="6.96064">
        <ele>2352.8</ele>
        <time>2022-07-18T07:47:52Z</time>
      </trkpt>
      <trkpt lat="44.69408" lon="6.96066">
        <ele>2353</ele>
        <time>2022-07-18T07:47:53Z</time>
      </trkpt>
      <trkpt lat="44.69406" lon="6.96068">
        <ele>2353.4</ele>
        <time>2022-07-18T07:47:54Z</time>
      </trkpt>
      <trkpt lat="44.69405" lon="6.96069">
        <ele>2353.6</ele>
        <time>2022-07-18T07:47:55Z</time>
      </trkpt>
      <trkpt lat="44.69404" lon="6.96072">
        <ele>2353.6</ele>
        <time>2022-07-18T07:47:56Z</time>
      </trkpt>
      <trkpt lat="44.69403" lon="6.96074">
        <ele>2354</ele>
        <time>2022-07-18T07:47:57Z</time>
      </trkpt>
      <trkpt lat="44.69402" lon="6.96076">
        <ele>2354.2</ele>
        <time>2022-07-18T07:47:58Z</time>
      </trkpt>
      <trkpt lat="44.694" lon="6.96078">
        <ele>2354.4</ele>
        <time>2022-07-18T07:47:59Z</time>
      </trkpt>
      <trkpt lat="44.69399" lon="6.9608">
        <ele>2354.6</ele>
        <time>2022-07-18T07:48:00Z</time>
      </trkpt>
      <trkpt lat="44.69398" lon="6.96081">
        <ele>2355</ele>
        <time>2022-07-18T07:48:01Z</time>
      </trkpt>
      <trkpt lat="44.69397" lon="6.96083">
        <ele>2355</ele>
        <time>2022-07-18T07:48:02Z</time>
      </trkpt>
      <trkpt lat="44.69396" lon="6.96085">
        <ele>2355.4</ele>
        <time>2022-07-18T07:48:03Z</time>
      </trkpt>
      <trkpt lat="44.69395" lon="6.96086">
        <ele>2355.6</ele>
        <time>2022-07-18T07:48:04Z</time>
      </trkpt>
      <trkpt lat="44.69393" lon="6.96088">
        <ele>2355.8</ele>
        <time>2022-07-18T07:48:05Z</time>
      </trkpt>
      <trkpt lat="44.69392" lon="6.96089">
        <ele>2356</ele>
        <time>2022-07-18T07:48:06Z</time>
      </trkpt>
      <trkpt lat="44.69391" lon="6.96091">
        <ele>2356.2</ele>
        <time>2022-07-18T07:48:07Z</time>
      </trkpt>
      <trkpt lat="44.6939" lon="6.96092">
        <ele>2356.6</ele>
        <time>2022-07-18T07:48:08Z</time>
      </trkpt>
      <trkpt lat="44.69389" lon="6.96094">
        <ele>2356.8</ele>
        <time>2022-07-18T07:48:09Z</time>
      </trkpt>
      <trkpt lat="44.69388" lon="6.96096">
        <ele>2357</ele>
        <time>2022-07-18T07:48:10Z</time>
      </trkpt>
      <trkpt lat="44.69387" lon="6.96098">
        <ele>2357</ele>
        <time>2022-07-18T07:48:11Z</time>
      </trkpt>
      <trkpt lat="44.69386" lon="6.961">
        <ele>2357.4</ele>
        <time>2022-07-18T07:48:12Z</time>
      </trkpt>
      <trkpt lat="44.69384" lon="6.96102">
        <ele>2357.4</ele>
        <time>2022-07-18T07:48:13Z</time>
      </trkpt>
      <trkpt lat="44.69383" lon="6.96104">
        <ele>2357.8</ele>
        <time>2022-07-18T07:48:14Z</time>
      </trkpt>
      <trkpt lat="44.69382" lon="6.96106">
        <ele>2358.2</ele>
        <time>2022-07-18T07:48:15Z</time>
      </trkpt>
      <trkpt lat="44.69381" lon="6.96108">
        <ele>2358.4</ele>
        <time>2022-07-18T07:48:16Z</time>
      </trkpt>
      <trkpt lat="44.6938" lon="6.9611">
        <ele>2358.6</ele>
        <time>2022-07-18T07:48:17Z</time>
      </trkpt>
      <trkpt lat="44.69378" lon="6.96111">
        <ele>2359</ele>
        <time>2022-07-18T07:48:18Z</time>
      </trkpt>
      <trkpt lat="44.69377" lon="6.96113">
        <ele>2359.2</ele>
        <time>2022-07-18T07:48:19Z</time>
      </trkpt>
      <trkpt lat="44.69375" lon="6.96115">
        <ele>2359.2</ele>
        <time>2022-07-18T07:48:20Z</time>
      </trkpt>
      <trkpt lat="44.69374" lon="6.96116">
        <ele>2359.6</ele>
        <time>2022-07-18T07:48:21Z</time>
      </trkpt>
      <trkpt lat="44.69373" lon="6.96118">
        <ele>2359.8</ele>
        <time>2022-07-18T07:48:22Z</time>
      </trkpt>
      <trkpt lat="44.69371" lon="6.9612">
        <ele>2360</ele>
        <time>2022-07-18T07:48:23Z</time>
      </trkpt>
      <trkpt lat="44.6937" lon="6.96122">
        <ele>2360.2</ele>
        <time>2022-07-18T07:48:24Z</time>
      </trkpt>
      <trkpt lat="44.69369" lon="6.96123">
        <ele>2360.2</ele>
        <time>2022-07-18T07:48:25Z</time>
      </trkpt>
      <trkpt lat="44.69367" lon="6.96125">
        <ele>2360.6</ele>
        <time>2022-07-18T07:48:26Z</time>
      </trkpt>
      <trkpt lat="44.69366" lon="6.96127">
        <ele>2360.6</ele>
        <time>2022-07-18T07:48:27Z</time>
      </trkpt>
      <trkpt lat="44.69365" lon="6.96128">
        <ele>2361</ele>
        <time>2022-07-18T07:48:28Z</time>
      </trkpt>
      <trkpt lat="44.69363" lon="6.96131">
        <ele>2361</ele>
        <time>2022-07-18T07:48:29Z</time>
      </trkpt>
      <trkpt lat="44.69362" lon="6.96133">
        <ele>2361.2</ele>
        <time>2022-07-18T07:48:30Z</time>
      </trkpt>
      <trkpt lat="44.69361" lon="6.96135">
        <ele>2361.6</ele>
        <time>2022-07-18T07:48:31Z</time>
      </trkpt>
      <trkpt lat="44.6936" lon="6.96137">
        <ele>2361.6</ele>
        <time>2022-07-18T07:48:32Z</time>
      </trkpt>
      <trkpt lat="44.69358" lon="6.96139">
        <ele>2361.8</ele>
        <time>2022-07-18T07:48:33Z</time>
      </trkpt>
      <trkpt lat="44.69357" lon="6.96141">
        <ele>2361.8</ele>
        <time>2022-07-18T07:48:34Z</time>
      </trkpt>
      <trkpt lat="44.69356" lon="6.96143">
        <ele>2362.2</ele>
        <time>2022-07-18T07:48:35Z</time>
      </trkpt>
      <trkpt lat="44.69355" lon="6.96145">
        <ele>2362.2</ele>
        <time>2022-07-18T07:48:36Z</time>
      </trkpt>
      <trkpt lat="44.69354" lon="6.96147">
        <ele>2362.4</ele>
        <time>2022-07-18T07:48:37Z</time>
      </trkpt>
      <trkpt lat="44.69352" lon="6.96149">
        <ele>2362.8</ele>
        <time>2022-07-18T07:48:38Z</time>
      </trkpt>
      <trkpt lat="44.69351" lon="6.9615">
        <ele>2363</ele>
        <time>2022-07-18T07:48:39Z</time>
      </trkpt>
      <trkpt lat="44.69349" lon="6.96152">
        <ele>2363</ele>
        <time>2022-07-18T07:48:40Z</time>
      </trkpt>
      <trkpt lat="44.69348" lon="6.96155">
        <ele>2363.2</ele>
        <time>2022-07-18T07:48:41Z</time>
      </trkpt>
      <trkpt lat="44.69347" lon="6.96157">
        <ele>2363.2</ele>
        <time>2022-07-18T07:48:42Z</time>
      </trkpt>
      <trkpt lat="44.69346" lon="6.96159">
        <ele>2363.6</ele>
        <time>2022-07-18T07:48:43Z</time>
      </trkpt>
      <trkpt lat="44.69345" lon="6.96161">
        <ele>2363.6</ele>
        <time>2022-07-18T07:48:44Z</time>
      </trkpt>
      <trkpt lat="44.69344" lon="6.96163">
        <ele>2363.8</ele>
        <time>2022-07-18T07:48:45Z</time>
      </trkpt>
      <trkpt lat="44.69343" lon="6.96165">
        <ele>2364</ele>
        <time>2022-07-18T07:48:46Z</time>
      </trkpt>
      <trkpt lat="44.69342" lon="6.96166">
        <ele>2364.2</ele>
        <time>2022-07-18T07:48:47Z</time>
      </trkpt>
      <trkpt lat="44.69341" lon="6.96168">
        <ele>2364.2</ele>
        <time>2022-07-18T07:48:48Z</time>
      </trkpt>
      <trkpt lat="44.6934" lon="6.9617">
        <ele>2364.6</ele>
        <time>2022-07-18T07:48:49Z</time>
      </trkpt>
      <trkpt lat="44.69338" lon="6.96171">
        <ele>2364.8</ele>
        <time>2022-07-18T07:48:50Z</time>
      </trkpt>
      <trkpt lat="44.69337" lon="6.96173">
        <ele>2365</ele>
        <time>2022-07-18T07:48:51Z</time>
      </trkpt>
      <trkpt lat="44.69336" lon="6.96175">
        <ele>2365</ele>
        <time>2022-07-18T07:48:52Z</time>
      </trkpt>
      <trkpt lat="44.69335" lon="6.96177">
        <ele>2365.4</ele>
        <time>2022-07-18T07:48:53Z</time>
      </trkpt>
      <trkpt lat="44.69334" lon="6.96179">
        <ele>2365.4</ele>
        <time>2022-07-18T07:48:54Z</time>
      </trkpt>
      <trkpt lat="44.69333" lon="6.96181">
        <ele>2365.8</ele>
        <time>2022-07-18T07:48:55Z</time>
      </trkpt>
      <trkpt lat="44.69332" lon="6.96182">
        <ele>2366</ele>
        <time>2022-07-18T07:48:56Z</time>
      </trkpt>
      <trkpt lat="44.6933" lon="6.96184">
        <ele>2366</ele>
        <time>2022-07-18T07:48:57Z</time>
      </trkpt>
      <trkpt lat="44.69329" lon="6.96186">
        <ele>2366.4</ele>
        <time>2022-07-18T07:48:58Z</time>
      </trkpt>
      <trkpt lat="44.69328" lon="6.96187">
        <ele>2366.4</ele>
        <time>2022-07-18T07:48:59Z</time>
      </trkpt>
      <trkpt lat="44.69327" lon="6.96189">
        <ele>2366.6</ele>
        <time>2022-07-18T07:49:00Z</time>
      </trkpt>
      <trkpt lat="44.69326" lon="6.96191">
        <ele>2366.6</ele>
        <time>2022-07-18T07:49:01Z</time>
      </trkpt>
      <trkpt lat="44.69324" lon="6.96193">
        <ele>2367</ele>
        <time>2022-07-18T07:49:02Z</time>
      </trkpt>
      <trkpt lat="44.69323" lon="6.96194">
        <ele>2367</ele>
        <time>2022-07-18T07:49:03Z</time>
      </trkpt>
      <trkpt lat="44.69322" lon="6.96196">
        <ele>2367.2</ele>
        <time>2022-07-18T07:49:04Z</time>
      </trkpt>
      <trkpt lat="44.69321" lon="6.96198">
        <ele>2367.2</ele>
        <time>2022-07-18T07:49:05Z</time>
      </trkpt>
      <trkpt lat="44.6932" lon="6.962">
        <ele>2367.6</ele>
        <time>2022-07-18T07:49:06Z</time>
      </trkpt>
      <trkpt lat="44.69319" lon="6.96202">
        <ele>2367.6</ele>
        <time>2022-07-18T07:49:07Z</time>
      </trkpt>
      <trkpt lat="44.69318" lon="6.96203">
        <ele>2368</ele>
        <time>2022-07-18T07:49:08Z</time>
      </trkpt>
      <trkpt lat="44.69317" lon="6.96205">
        <ele>2368</ele>
        <time>2022-07-18T07:49:09Z</time>
      </trkpt>
      <trkpt lat="44.69316" lon="6.96207">
        <ele>2368.4</ele>
        <time>2022-07-18T07:49:10Z</time>
      </trkpt>
      <trkpt lat="44.69315" lon="6.96209">
        <ele>2368.6</ele>
        <time>2022-07-18T07:49:11Z</time>
      </trkpt>
      <trkpt lat="44.69314" lon="6.96211">
        <ele>2368.6</ele>
        <time>2022-07-18T07:49:12Z</time>
      </trkpt>
      <trkpt lat="44.69313" lon="6.96212">
        <ele>2369</ele>
        <time>2022-07-18T07:49:13Z</time>
      </trkpt>
      <trkpt lat="44.69312" lon="6.96214">
        <ele>2369</ele>
        <time>2022-07-18T07:49:14Z</time>
      </trkpt>
      <trkpt lat="44.69311" lon="6.96216">
        <ele>2369.4</ele>
        <time>2022-07-18T07:49:15Z</time>
      </trkpt>
      <trkpt lat="44.6931" lon="6.96218">
        <ele>2369.6</ele>
        <time>2022-07-18T07:49:16Z</time>
      </trkpt>
      <trkpt lat="44.69309" lon="6.96219">
        <ele>2369.8</ele>
        <time>2022-07-18T07:49:17Z</time>
      </trkpt>
      <trkpt lat="44.69308" lon="6.96221">
        <ele>2370</ele>
        <time>2022-07-18T07:49:18Z</time>
      </trkpt>
      <trkpt lat="44.69307" lon="6.96223">
        <ele>2370.2</ele>
        <time>2022-07-18T07:49:19Z</time>
      </trkpt>
      <trkpt lat="44.69306" lon="6.96225">
        <ele>2370.4</ele>
        <time>2022-07-18T07:49:20Z</time>
      </trkpt>
      <trkpt lat="44.69305" lon="6.96227">
        <ele>2370.6</ele>
        <time>2022-07-18T07:49:21Z</time>
      </trkpt>
      <trkpt lat="44.69304" lon="6.96229">
        <ele>2371</ele>
        <time>2022-07-18T07:49:22Z</time>
      </trkpt>
      <trkpt lat="44.69303" lon="6.96231">
        <ele>2371.4</ele>
        <time>2022-07-18T07:49:23Z</time>
      </trkpt>
      <trkpt lat="44.69302" lon="6.96233">
        <ele>2371.4</ele>
        <time>2022-07-18T07:49:24Z</time>
      </trkpt>
      <trkpt lat="44.69301" lon="6.96235">
        <ele>2371.4</ele>
        <time>2022-07-18T07:49:25Z</time>
      </trkpt>
      <trkpt lat="44.69301" lon="6.96237">
        <ele>2371.6</ele>
        <time>2022-07-18T07:49:26Z</time>
      </trkpt>
      <trkpt lat="44.693" lon="6.96239">
        <ele>2371.6</ele>
        <time>2022-07-18T07:49:27Z</time>
      </trkpt>
      <trkpt lat="44.69299" lon="6.96241">
        <ele>2372</ele>
        <time>2022-07-18T07:49:28Z</time>
      </trkpt>
      <trkpt lat="44.69298" lon="6.96243">
        <ele>2372</ele>
        <time>2022-07-18T07:49:29Z</time>
      </trkpt>
      <trkpt lat="44.69297" lon="6.96244">
        <ele>2372.2</ele>
        <time>2022-07-18T07:49:30Z</time>
      </trkpt>
      <trkpt lat="44.69297" lon="6.96246">
        <ele>2372.2</ele>
        <time>2022-07-18T07:49:31Z</time>
      </trkpt>
      <trkpt lat="44.69296" lon="6.96248">
        <ele>2372.6</ele>
        <time>2022-07-18T07:49:32Z</time>
      </trkpt>
      <trkpt lat="44.69295" lon="6.9625">
        <ele>2372.6</ele>
        <time>2022-07-18T07:49:33Z</time>
      </trkpt>
      <trkpt lat="44.69294" lon="6.96252">
        <ele>2373</ele>
        <time>2022-07-18T07:49:34Z</time>
      </trkpt>
      <trkpt lat="44.69293" lon="6.96254">
        <ele>2373</ele>
        <time>2022-07-18T07:49:35Z</time>
      </trkpt>
      <trkpt lat="44.69292" lon="6.96256">
        <ele>2373.4</ele>
        <time>2022-07-18T07:49:36Z</time>
      </trkpt>
      <trkpt lat="44.69291" lon="6.96258">
        <ele>2373.4</ele>
        <time>2022-07-18T07:49:37Z</time>
      </trkpt>
      <trkpt lat="44.69291" lon="6.9626">
        <ele>2373.8</ele>
        <time>2022-07-18T07:49:38Z</time>
      </trkpt>
      <trkpt lat="44.6929" lon="6.96262">
        <ele>2374</ele>
        <time>2022-07-18T07:49:39Z</time>
      </trkpt>
      <trkpt lat="44.69289" lon="6.96264">
        <ele>2374</ele>
        <time>2022-07-18T07:49:40Z</time>
      </trkpt>
      <trkpt lat="44.69288" lon="6.96266">
        <ele>2374.4</ele>
        <time>2022-07-18T07:49:41Z</time>
      </trkpt>
      <trkpt lat="44.69287" lon="6.96268">
        <ele>2374.6</ele>
        <time>2022-07-18T07:49:42Z</time>
      </trkpt>
      <trkpt lat="44.69287" lon="6.96271">
        <ele>2375</ele>
        <time>2022-07-18T07:49:43Z</time>
      </trkpt>
      <trkpt lat="44.69286" lon="6.96273">
        <ele>2375</ele>
        <time>2022-07-18T07:49:44Z</time>
      </trkpt>
      <trkpt lat="44.69285" lon="6.96275">
        <ele>2375.4</ele>
        <time>2022-07-18T07:49:45Z</time>
      </trkpt>
      <trkpt lat="44.69284" lon="6.96277">
        <ele>2375.4</ele>
        <time>2022-07-18T07:49:46Z</time>
      </trkpt>
      <trkpt lat="44.69283" lon="6.96279">
        <ele>2375.6</ele>
        <time>2022-07-18T07:49:47Z</time>
      </trkpt>
      <trkpt lat="44.69283" lon="6.96281">
        <ele>2375.6</ele>
        <time>2022-07-18T07:49:48Z</time>
      </trkpt>
      <trkpt lat="44.69282" lon="6.96283">
        <ele>2376</ele>
        <time>2022-07-18T07:49:49Z</time>
      </trkpt>
      <trkpt lat="44.69281" lon="6.96285">
        <ele>2376</ele>
        <time>2022-07-18T07:49:50Z</time>
      </trkpt>
      <trkpt lat="44.6928" lon="6.96287">
        <ele>2376.6</ele>
        <time>2022-07-18T07:49:51Z</time>
      </trkpt>
      <trkpt lat="44.6928" lon="6.96289">
        <ele>2376.6</ele>
        <time>2022-07-18T07:49:52Z</time>
      </trkpt>
      <trkpt lat="44.69279" lon="6.96291">
        <ele>2376.8</ele>
        <time>2022-07-18T07:49:53Z</time>
      </trkpt>
      <trkpt lat="44.69278" lon="6.96293">
        <ele>2376.8</ele>
        <time>2022-07-18T07:49:54Z</time>
      </trkpt>
      <trkpt lat="44.69277" lon="6.96295">
        <ele>2377.2</ele>
        <time>2022-07-18T07:49:55Z</time>
      </trkpt>
      <trkpt lat="44.69276" lon="6.96296">
        <ele>2377.2</ele>
        <time>2022-07-18T07:49:56Z</time>
      </trkpt>
      <trkpt lat="44.69275" lon="6.96298">
        <ele>2377.6</ele>
        <time>2022-07-18T07:49:57Z</time>
      </trkpt>
      <trkpt lat="44.69274" lon="6.96299">
        <ele>2377.6</ele>
        <time>2022-07-18T07:49:58Z</time>
      </trkpt>
      <trkpt lat="44.69274" lon="6.96301">
        <ele>2378</ele>
        <time>2022-07-18T07:49:59Z</time>
      </trkpt>
      <trkpt lat="44.69273" lon="6.96303">
        <ele>2378</ele>
        <time>2022-07-18T07:50:00Z</time>
      </trkpt>
      <trkpt lat="44.69272" lon="6.96305">
        <ele>2378.2</ele>
        <time>2022-07-18T07:50:01Z</time>
      </trkpt>
      <trkpt lat="44.69272" lon="6.96307">
        <ele>2378.2</ele>
        <time>2022-07-18T07:50:02Z</time>
      </trkpt>
      <trkpt lat="44.69271" lon="6.96309">
        <ele>2378.6</ele>
        <time>2022-07-18T07:50:03Z</time>
      </trkpt>
      <trkpt lat="44.6927" lon="6.96311">
        <ele>2378.6</ele>
        <time>2022-07-18T07:50:04Z</time>
      </trkpt>
      <trkpt lat="44.6927" lon="6.96313">
        <ele>2379</ele>
        <time>2022-07-18T07:50:05Z</time>
      </trkpt>
      <trkpt lat="44.69269" lon="6.96315">
        <ele>2379</ele>
        <time>2022-07-18T07:50:06Z</time>
      </trkpt>
      <trkpt lat="44.69268" lon="6.96317">
        <ele>2379.4</ele>
        <time>2022-07-18T07:50:07Z</time>
      </trkpt>
      <trkpt lat="44.69267" lon="6.96318">
        <ele>2379.6</ele>
        <time>2022-07-18T07:50:08Z</time>
      </trkpt>
      <trkpt lat="44.69266" lon="6.9632">
        <ele>2379.6</ele>
        <time>2022-07-18T07:50:09Z</time>
      </trkpt>
      <trkpt lat="44.69266" lon="6.96322">
        <ele>2380</ele>
        <time>2022-07-18T07:50:10Z</time>
      </trkpt>
      <trkpt lat="44.69265" lon="6.96324">
        <ele>2380.2</ele>
        <time>2022-07-18T07:50:11Z</time>
      </trkpt>
      <trkpt lat="44.69264" lon="6.96326">
        <ele>2380.2</ele>
        <time>2022-07-18T07:50:12Z</time>
      </trkpt>
      <trkpt lat="44.69264" lon="6.96327">
        <ele>2380.6</ele>
        <time>2022-07-18T07:50:13Z</time>
      </trkpt>
      <trkpt lat="44.69263" lon="6.96329">
        <ele>2380.8</ele>
        <time>2022-07-18T07:50:14Z</time>
      </trkpt>
      <trkpt lat="44.69262" lon="6.96331">
        <ele>2381</ele>
        <time>2022-07-18T07:50:15Z</time>
      </trkpt>
      <trkpt lat="44.69262" lon="6.96333">
        <ele>2381</ele>
        <time>2022-07-18T07:50:16Z</time>
      </trkpt>
      <trkpt lat="44.69261" lon="6.96335">
        <ele>2381.4</ele>
        <time>2022-07-18T07:50:17Z</time>
      </trkpt>
      <trkpt lat="44.6926" lon="6.96337">
        <ele>2381.6</ele>
        <time>2022-07-18T07:50:18Z</time>
      </trkpt>
      <trkpt lat="44.69259" lon="6.96339">
        <ele>2381.6</ele>
        <time>2022-07-18T07:50:19Z</time>
      </trkpt>
      <trkpt lat="44.69259" lon="6.96341">
        <ele>2381.8</ele>
        <time>2022-07-18T07:50:20Z</time>
      </trkpt>
      <trkpt lat="44.69258" lon="6.96342">
        <ele>2381.8</ele>
        <time>2022-07-18T07:50:21Z</time>
      </trkpt>
      <trkpt lat="44.69257" lon="6.96344">
        <ele>2382.2</ele>
        <time>2022-07-18T07:50:22Z</time>
      </trkpt>
      <trkpt lat="44.69256" lon="6.96346">
        <ele>2382.2</ele>
        <time>2022-07-18T07:50:23Z</time>
      </trkpt>
      <trkpt lat="44.69255" lon="6.96348">
        <ele>2382.6</ele>
        <time>2022-07-18T07:50:24Z</time>
      </trkpt>
      <trkpt lat="44.69254" lon="6.9635">
        <ele>2382.6</ele>
        <time>2022-07-18T07:50:25Z</time>
      </trkpt>
      <trkpt lat="44.69254" lon="6.96352">
        <ele>2382.8</ele>
        <time>2022-07-18T07:50:26Z</time>
      </trkpt>
      <trkpt lat="44.69253" lon="6.96354">
        <ele>2383</ele>
        <time>2022-07-18T07:50:27Z</time>
      </trkpt>
      <trkpt lat="44.69252" lon="6.96356">
        <ele>2383.4</ele>
        <time>2022-07-18T07:50:28Z</time>
      </trkpt>
      <trkpt lat="44.69252" lon="6.96357">
        <ele>2383.6</ele>
        <time>2022-07-18T07:50:29Z</time>
      </trkpt>
      <trkpt lat="44.69251" lon="6.96359">
        <ele>2383.8</ele>
        <time>2022-07-18T07:50:30Z</time>
      </trkpt>
      <trkpt lat="44.6925" lon="6.96361">
        <ele>2383.8</ele>
        <time>2022-07-18T07:50:31Z</time>
      </trkpt>
      <trkpt lat="44.6925" lon="6.96363">
        <ele>2384.2</ele>
        <time>2022-07-18T07:50:32Z</time>
      </trkpt>
      <trkpt lat="44.69249" lon="6.96365">
        <ele>2384.2</ele>
        <time>2022-07-18T07:50:33Z</time>
      </trkpt>
      <trkpt lat="44.69249" lon="6.96367">
        <ele>2384.6</ele>
        <time>2022-07-18T07:50:34Z</time>
      </trkpt>
      <trkpt lat="44.69248" lon="6.96369">
        <ele>2384.8</ele>
        <time>2022-07-18T07:50:35Z</time>
      </trkpt>
      <trkpt lat="44.69247" lon="6.96371">
        <ele>2385.2</ele>
        <time>2022-07-18T07:50:36Z</time>
      </trkpt>
      <trkpt lat="44.69246" lon="6.96373">
        <ele>2385.4</ele>
        <time>2022-07-18T07:50:37Z</time>
      </trkpt>
      <trkpt lat="44.69246" lon="6.96375">
        <ele>2385.6</ele>
        <time>2022-07-18T07:50:38Z</time>
      </trkpt>
      <trkpt lat="44.69245" lon="6.96377">
        <ele>2385.6</ele>
        <time>2022-07-18T07:50:39Z</time>
      </trkpt>
      <trkpt lat="44.69244" lon="6.96379">
        <ele>2386</ele>
        <time>2022-07-18T07:50:40Z</time>
      </trkpt>
      <trkpt lat="44.69243" lon="6.96381">
        <ele>2386</ele>
        <time>2022-07-18T07:50:41Z</time>
      </trkpt>
      <trkpt lat="44.69243" lon="6.96383">
        <ele>2386.4</ele>
        <time>2022-07-18T07:50:42Z</time>
      </trkpt>
      <trkpt lat="44.69242" lon="6.96385">
        <ele>2386.4</ele>
        <time>2022-07-18T07:50:43Z</time>
      </trkpt>
      <trkpt lat="44.69241" lon="6.96387">
        <ele>2386.8</ele>
        <time>2022-07-18T07:50:44Z</time>
      </trkpt>
      <trkpt lat="44.6924" lon="6.96389">
        <ele>2386.8</ele>
        <time>2022-07-18T07:50:45Z</time>
      </trkpt>
      <trkpt lat="44.69239" lon="6.9639">
        <ele>2387.2</ele>
        <time>2022-07-18T07:50:46Z</time>
      </trkpt>
      <trkpt lat="44.69239" lon="6.96392">
        <ele>2387.4</ele>
        <time>2022-07-18T07:50:47Z</time>
      </trkpt>
      <trkpt lat="44.69238" lon="6.96394">
        <ele>2387.4</ele>
        <time>2022-07-18T07:50:48Z</time>
      </trkpt>
      <trkpt lat="44.69237" lon="6.96397">
        <ele>2387.8</ele>
        <time>2022-07-18T07:50:49Z</time>
      </trkpt>
      <trkpt lat="44.69237" lon="6.96399">
        <ele>2387.8</ele>
        <time>2022-07-18T07:50:50Z</time>
      </trkpt>
      <trkpt lat="44.69236" lon="6.96401">
        <ele>2388.2</ele>
        <time>2022-07-18T07:50:51Z</time>
      </trkpt>
      <trkpt lat="44.69235" lon="6.96402">
        <ele>2388.6</ele>
        <time>2022-07-18T07:50:52Z</time>
      </trkpt>
      <trkpt lat="44.69234" lon="6.96404">
        <ele>2388.8</ele>
        <time>2022-07-18T07:50:53Z</time>
      </trkpt>
      <trkpt lat="44.69234" lon="6.96406">
        <ele>2388.8</ele>
        <time>2022-07-18T07:50:54Z</time>
      </trkpt>
      <trkpt lat="44.69233" lon="6.96409">
        <ele>2389</ele>
        <time>2022-07-18T07:50:55Z</time>
      </trkpt>
      <trkpt lat="44.69232" lon="6.96411">
        <ele>2389</ele>
        <time>2022-07-18T07:50:56Z</time>
      </trkpt>
      <trkpt lat="44.69231" lon="6.96413">
        <ele>2389.6</ele>
        <time>2022-07-18T07:50:57Z</time>
      </trkpt>
      <trkpt lat="44.69231" lon="6.96415">
        <ele>2389.6</ele>
        <time>2022-07-18T07:50:58Z</time>
      </trkpt>
      <trkpt lat="44.6923" lon="6.96417">
        <ele>2389.8</ele>
        <time>2022-07-18T07:50:59Z</time>
      </trkpt>
      <trkpt lat="44.69229" lon="6.9642">
        <ele>2389.8</ele>
        <time>2022-07-18T07:51:00Z</time>
      </trkpt>
      <trkpt lat="44.69228" lon="6.96422">
        <ele>2390.2</ele>
        <time>2022-07-18T07:51:01Z</time>
      </trkpt>
      <trkpt lat="44.69228" lon="6.96424">
        <ele>2390.2</ele>
        <time>2022-07-18T07:51:02Z</time>
      </trkpt>
      <trkpt lat="44.69227" lon="6.96426">
        <ele>2390.6</ele>
        <time>2022-07-18T07:51:03Z</time>
      </trkpt>
      <trkpt lat="44.69226" lon="6.96428">
        <ele>2390.6</ele>
        <time>2022-07-18T07:51:04Z</time>
      </trkpt>
      <trkpt lat="44.69226" lon="6.9643">
        <ele>2391</ele>
        <time>2022-07-18T07:51:05Z</time>
      </trkpt>
      <trkpt lat="44.69225" lon="6.96432">
        <ele>2391</ele>
        <time>2022-07-18T07:51:06Z</time>
      </trkpt>
      <trkpt lat="44.69225" lon="6.96434">
        <ele>2391.4</ele>
        <time>2022-07-18T07:51:07Z</time>
      </trkpt>
      <trkpt lat="44.69224" lon="6.96436">
        <ele>2391.6</ele>
        <time>2022-07-18T07:51:08Z</time>
      </trkpt>
      <trkpt lat="44.69224" lon="6.96438">
        <ele>2391.6</ele>
        <time>2022-07-18T07:51:09Z</time>
      </trkpt>
      <trkpt lat="44.69223" lon="6.96441">
        <ele>2391.8</ele>
        <time>2022-07-18T07:51:10Z</time>
      </trkpt>
      <trkpt lat="44.69223" lon="6.96443">
        <ele>2391.8</ele>
        <time>2022-07-18T07:51:11Z</time>
      </trkpt>
      <trkpt lat="44.69223" lon="6.96445">
        <ele>2392.2</ele>
        <time>2022-07-18T07:51:12Z</time>
      </trkpt>
      <trkpt lat="44.69222" lon="6.96447">
        <ele>2392.6</ele>
        <time>2022-07-18T07:51:13Z</time>
      </trkpt>
      <trkpt lat="44.69221" lon="6.96449">
        <ele>2392.8</ele>
        <time>2022-07-18T07:51:14Z</time>
      </trkpt>
      <trkpt lat="44.69221" lon="6.96451">
        <ele>2393</ele>
        <time>2022-07-18T07:51:15Z</time>
      </trkpt>
      <trkpt lat="44.6922" lon="6.96453">
        <ele>2393</ele>
        <time>2022-07-18T07:51:16Z</time>
      </trkpt>
      <trkpt lat="44.6922" lon="6.96455">
        <ele>2393.4</ele>
        <time>2022-07-18T07:51:17Z</time>
      </trkpt>
      <trkpt lat="44.69219" lon="6.96458">
        <ele>2393.6</ele>
        <time>2022-07-18T07:51:18Z</time>
      </trkpt>
      <trkpt lat="44.69219" lon="6.9646">
        <ele>2393.6</ele>
        <time>2022-07-18T07:51:19Z</time>
      </trkpt>
      <trkpt lat="44.69218" lon="6.96462">
        <ele>2394</ele>
        <time>2022-07-18T07:51:20Z</time>
      </trkpt>
      <trkpt lat="44.69218" lon="6.96464">
        <ele>2394</ele>
        <time>2022-07-18T07:51:21Z</time>
      </trkpt>
      <trkpt lat="44.69217" lon="6.96466">
        <ele>2394.4</ele>
        <time>2022-07-18T07:51:22Z</time>
      </trkpt>
      <trkpt lat="44.69217" lon="6.96468">
        <ele>2394.4</ele>
        <time>2022-07-18T07:51:23Z</time>
      </trkpt>
      <trkpt lat="44.69216" lon="6.96471">
        <ele>2394.8</ele>
        <time>2022-07-18T07:51:24Z</time>
      </trkpt>
      <trkpt lat="44.69216" lon="6.96473">
        <ele>2394.8</ele>
        <time>2022-07-18T07:51:25Z</time>
      </trkpt>
      <trkpt lat="44.69216" lon="6.96475">
        <ele>2395</ele>
        <time>2022-07-18T07:51:26Z</time>
      </trkpt>
      <trkpt lat="44.69215" lon="6.96478">
        <ele>2395</ele>
        <time>2022-07-18T07:51:27Z</time>
      </trkpt>
      <trkpt lat="44.69215" lon="6.9648">
        <ele>2395.4</ele>
        <time>2022-07-18T07:51:28Z</time>
      </trkpt>
      <trkpt lat="44.69215" lon="6.96482">
        <ele>2395.4</ele>
        <time>2022-07-18T07:51:29Z</time>
      </trkpt>
      <trkpt lat="44.69214" lon="6.96484">
        <ele>2395.6</ele>
        <time>2022-07-18T07:51:30Z</time>
      </trkpt>
      <trkpt lat="44.69214" lon="6.96487">
        <ele>2395.6</ele>
        <time>2022-07-18T07:51:31Z</time>
      </trkpt>
      <trkpt lat="44.69214" lon="6.96489">
        <ele>2396</ele>
        <time>2022-07-18T07:51:32Z</time>
      </trkpt>
      <trkpt lat="44.69213" lon="6.96491">
        <ele>2396.2</ele>
        <time>2022-07-18T07:51:33Z</time>
      </trkpt>
      <trkpt lat="44.69212" lon="6.96493">
        <ele>2396.4</ele>
        <time>2022-07-18T07:51:34Z</time>
      </trkpt>
      <trkpt lat="44.69212" lon="6.96495">
        <ele>2396.4</ele>
        <time>2022-07-18T07:51:35Z</time>
      </trkpt>
      <trkpt lat="44.69211" lon="6.96498">
        <ele>2396.8</ele>
        <time>2022-07-18T07:51:36Z</time>
      </trkpt>
      <trkpt lat="44.6921" lon="6.965">
        <ele>2396.8</ele>
        <time>2022-07-18T07:51:37Z</time>
      </trkpt>
      <trkpt lat="44.69209" lon="6.96502">
        <ele>2397</ele>
        <time>2022-07-18T07:51:38Z</time>
      </trkpt>
      <trkpt lat="44.69209" lon="6.96504">
        <ele>2397.2</ele>
        <time>2022-07-18T07:51:39Z</time>
      </trkpt>
      <trkpt lat="44.69209" lon="6.96506">
        <ele>2397.2</ele>
        <time>2022-07-18T07:51:40Z</time>
      </trkpt>
      <trkpt lat="44.69208" lon="6.96508">
        <ele>2397.6</ele>
        <time>2022-07-18T07:51:41Z</time>
      </trkpt>
      <trkpt lat="44.69208" lon="6.9651">
        <ele>2398</ele>
        <time>2022-07-18T07:51:42Z</time>
      </trkpt>
      <trkpt lat="44.69207" lon="6.96512">
        <ele>2398.2</ele>
        <time>2022-07-18T07:51:43Z</time>
      </trkpt>
      <trkpt lat="44.69207" lon="6.96514">
        <ele>2398.4</ele>
        <time>2022-07-18T07:51:44Z</time>
      </trkpt>
      <trkpt lat="44.69207" lon="6.96516">
        <ele>2398.6</ele>
        <time>2022-07-18T07:51:45Z</time>
      </trkpt>
      <trkpt lat="44.69206" lon="6.96519">
        <ele>2398.8</ele>
        <time>2022-07-18T07:51:46Z</time>
      </trkpt>
      <trkpt lat="44.69205" lon="6.96521">
        <ele>2399</ele>
        <time>2022-07-18T07:51:47Z</time>
      </trkpt>
      <trkpt lat="44.69205" lon="6.96523">
        <ele>2399.2</ele>
        <time>2022-07-18T07:51:48Z</time>
      </trkpt>
      <trkpt lat="44.69204" lon="6.96525">
        <ele>2399.2</ele>
        <time>2022-07-18T07:51:49Z</time>
      </trkpt>
      <trkpt lat="44.69203" lon="6.96527">
        <ele>2399.6</ele>
        <time>2022-07-18T07:51:50Z</time>
      </trkpt>
      <trkpt lat="44.69203" lon="6.96529">
        <ele>2399.6</ele>
        <time>2022-07-18T07:51:51Z</time>
      </trkpt>
      <trkpt lat="44.69203" lon="6.96531">
        <ele>2399.8</ele>
        <time>2022-07-18T07:51:52Z</time>
      </trkpt>
      <trkpt lat="44.69202" lon="6.96533">
        <ele>2399.8</ele>
        <time>2022-07-18T07:51:53Z</time>
      </trkpt>
      <trkpt lat="44.69202" lon="6.96535">
        <ele>2400.2</ele>
        <time>2022-07-18T07:51:54Z</time>
      </trkpt>
      <trkpt lat="44.69201" lon="6.96538">
        <ele>2400.4</ele>
        <time>2022-07-18T07:51:55Z</time>
      </trkpt>
      <trkpt lat="44.69201" lon="6.9654">
        <ele>2400.6</ele>
        <time>2022-07-18T07:51:56Z</time>
      </trkpt>
      <trkpt lat="44.692" lon="6.96542">
        <ele>2400.6</ele>
        <time>2022-07-18T07:51:57Z</time>
      </trkpt>
      <trkpt lat="44.69199" lon="6.96543">
        <ele>2401</ele>
        <time>2022-07-18T07:51:58Z</time>
      </trkpt>
      <trkpt lat="44.69199" lon="6.96545">
        <ele>2401</ele>
        <time>2022-07-18T07:51:59Z</time>
      </trkpt>
      <trkpt lat="44.69198" lon="6.96547">
        <ele>2401.4</ele>
        <time>2022-07-18T07:52:00Z</time>
      </trkpt>
      <trkpt lat="44.69198" lon="6.96549">
        <ele>2401.4</ele>
        <time>2022-07-18T07:52:01Z</time>
      </trkpt>
      <trkpt lat="44.69197" lon="6.96551">
        <ele>2401.8</ele>
        <time>2022-07-18T07:52:02Z</time>
      </trkpt>
      <trkpt lat="44.69197" lon="6.96553">
        <ele>2401.8</ele>
        <time>2022-07-18T07:52:03Z</time>
      </trkpt>
      <trkpt lat="44.69196" lon="6.96555">
        <ele>2402</ele>
        <time>2022-07-18T07:52:04Z</time>
      </trkpt>
      <trkpt lat="44.69196" lon="6.96557">
        <ele>2402.4</ele>
        <time>2022-07-18T07:52:05Z</time>
      </trkpt>
      <trkpt lat="44.69195" lon="6.9656">
        <ele>2402.4</ele>
        <time>2022-07-18T07:52:06Z</time>
      </trkpt>
      <trkpt lat="44.69195" lon="6.96562">
        <ele>2402.8</ele>
        <time>2022-07-18T07:52:07Z</time>
      </trkpt>
      <trkpt lat="44.69194" lon="6.96563">
        <ele>2403</ele>
        <time>2022-07-18T07:52:08Z</time>
      </trkpt>
      <trkpt lat="44.69193" lon="6.96565">
        <ele>2403</ele>
        <time>2022-07-18T07:52:09Z</time>
      </trkpt>
      <trkpt lat="44.69192" lon="6.96567">
        <ele>2403.2</ele>
        <time>2022-07-18T07:52:10Z</time>
      </trkpt>
      <trkpt lat="44.69191" lon="6.96569">
        <ele>2403.2</ele>
        <time>2022-07-18T07:52:11Z</time>
      </trkpt>
      <trkpt lat="44.69191" lon="6.96571">
        <ele>2403.8</ele>
        <time>2022-07-18T07:52:13Z</time>
      </trkpt>
      <trkpt lat="44.6919" lon="6.96574">
        <ele>2403.8</ele>
        <time>2022-07-18T07:52:14Z</time>
      </trkpt>
      <trkpt lat="44.69189" lon="6.96576">
        <ele>2404.2</ele>
        <time>2022-07-18T07:52:15Z</time>
      </trkpt>
      <trkpt lat="44.69188" lon="6.96578">
        <ele>2404.4</ele>
        <time>2022-07-18T07:52:16Z</time>
      </trkpt>
      <trkpt lat="44.69188" lon="6.9658">
        <ele>2404.4</ele>
        <time>2022-07-18T07:52:17Z</time>
      </trkpt>
      <trkpt lat="44.69187" lon="6.96582">
        <ele>2404.8</ele>
        <time>2022-07-18T07:52:18Z</time>
      </trkpt>
      <trkpt lat="44.69186" lon="6.96584">
        <ele>2404.8</ele>
        <time>2022-07-18T07:52:19Z</time>
      </trkpt>
      <trkpt lat="44.69185" lon="6.96586">
        <ele>2405.2</ele>
        <time>2022-07-18T07:52:20Z</time>
      </trkpt>
      <trkpt lat="44.69184" lon="6.96587">
        <ele>2405.4</ele>
        <time>2022-07-18T07:52:21Z</time>
      </trkpt>
      <trkpt lat="44.69183" lon="6.96589">
        <ele>2405.6</ele>
        <time>2022-07-18T07:52:22Z</time>
      </trkpt>
      <trkpt lat="44.69183" lon="6.96591">
        <ele>2405.8</ele>
        <time>2022-07-18T07:52:23Z</time>
      </trkpt>
      <trkpt lat="44.69182" lon="6.96593">
        <ele>2405.8</ele>
        <time>2022-07-18T07:52:24Z</time>
      </trkpt>
      <trkpt lat="44.69182" lon="6.96595">
        <ele>2406.2</ele>
        <time>2022-07-18T07:52:25Z</time>
      </trkpt>
      <trkpt lat="44.69182" lon="6.96597">
        <ele>2406.2</ele>
        <time>2022-07-18T07:52:26Z</time>
      </trkpt>
      <trkpt lat="44.69183" lon="6.96598">
        <ele>2406.4</ele>
        <time>2022-07-18T07:52:27Z</time>
      </trkpt>
      <trkpt lat="44.69184" lon="6.966">
        <ele>2406.4</ele>
        <time>2022-07-18T07:52:28Z</time>
      </trkpt>
      <trkpt lat="44.69185" lon="6.96602">
        <ele>2406.4</ele>
        <time>2022-07-18T07:52:29Z</time>
      </trkpt>
      <trkpt lat="44.69187" lon="6.96603">
        <ele>2406.6</ele>
        <time>2022-07-18T07:52:30Z</time>
      </trkpt>
      <trkpt lat="44.69189" lon="6.96604">
        <ele>2406.6</ele>
        <time>2022-07-18T07:52:31Z</time>
      </trkpt>
      <trkpt lat="44.69191" lon="6.96603">
        <ele>2406.6</ele>
        <time>2022-07-18T07:52:32Z</time>
      </trkpt>
      <trkpt lat="44.69193" lon="6.96602">
        <ele>2406.8</ele>
        <time>2022-07-18T07:52:33Z</time>
      </trkpt>
      <trkpt lat="44.69195" lon="6.96601">
        <ele>2406.8</ele>
        <time>2022-07-18T07:52:34Z</time>
      </trkpt>
      <trkpt lat="44.69196" lon="6.96599">
        <ele>2406.8</ele>
        <time>2022-07-18T07:52:35Z</time>
      </trkpt>
      <trkpt lat="44.69198" lon="6.96597">
        <ele>2407.2</ele>
        <time>2022-07-18T07:52:36Z</time>
      </trkpt>
      <trkpt lat="44.692" lon="6.96594">
        <ele>2407.2</ele>
        <time>2022-07-18T07:52:37Z</time>
      </trkpt>
      <trkpt lat="44.69202" lon="6.96592">
        <ele>2407.2</ele>
        <time>2022-07-18T07:52:38Z</time>
      </trkpt>
      <trkpt lat="44.69203" lon="6.9659">
        <ele>2407.4</ele>
        <time>2022-07-18T07:52:39Z</time>
      </trkpt>
      <trkpt lat="44.69205" lon="6.96587">
        <ele>2407.4</ele>
        <time>2022-07-18T07:52:40Z</time>
      </trkpt>
      <trkpt lat="44.69207" lon="6.96585">
        <ele>2407.6</ele>
        <time>2022-07-18T07:52:41Z</time>
      </trkpt>
      <trkpt lat="44.69208" lon="6.96583">
        <ele>2407.6</ele>
        <time>2022-07-18T07:52:42Z</time>
      </trkpt>
      <trkpt lat="44.6921" lon="6.9658">
        <ele>2407.6</ele>
        <time>2022-07-18T07:52:43Z</time>
      </trkpt>
      <trkpt lat="44.69212" lon="6.96578">
        <ele>2407.6</ele>
        <time>2022-07-18T07:52:44Z</time>
      </trkpt>
      <trkpt lat="44.69214" lon="6.96575">
        <ele>2407.8</ele>
        <time>2022-07-18T07:52:45Z</time>
      </trkpt>
      <trkpt lat="44.69216" lon="6.96573">
        <ele>2407.8</ele>
        <time>2022-07-18T07:52:46Z</time>
      </trkpt>
      <trkpt lat="44.69218" lon="6.9657">
        <ele>2408.2</ele>
        <time>2022-07-18T07:52:47Z</time>
      </trkpt>
      <trkpt lat="44.6922" lon="6.96567">
        <ele>2408.2</ele>
        <time>2022-07-18T07:52:48Z</time>
      </trkpt>
      <trkpt lat="44.69221" lon="6.96564">
        <ele>2408.2</ele>
        <time>2022-07-18T07:52:49Z</time>
      </trkpt>
      <trkpt lat="44.69223" lon="6.9656">
        <ele>2408.2</ele>
        <time>2022-07-18T07:52:50Z</time>
      </trkpt>
      <trkpt lat="44.69225" lon="6.96557">
        <ele>2408.4</ele>
        <time>2022-07-18T07:52:51Z</time>
      </trkpt>
      <trkpt lat="44.69226" lon="6.96554">
        <ele>2408.4</ele>
        <time>2022-07-18T07:52:52Z</time>
      </trkpt>
      <trkpt lat="44.69228" lon="6.9655">
        <ele>2408.6</ele>
        <time>2022-07-18T07:52:53Z</time>
      </trkpt>
      <trkpt lat="44.69229" lon="6.96547">
        <ele>2408.6</ele>
        <time>2022-07-18T07:52:54Z</time>
      </trkpt>
      <trkpt lat="44.69231" lon="6.96544">
        <ele>2409</ele>
        <time>2022-07-18T07:52:55Z</time>
      </trkpt>
      <trkpt lat="44.69233" lon="6.96541">
        <ele>2409</ele>
        <time>2022-07-18T07:52:56Z</time>
      </trkpt>
      <trkpt lat="44.69235" lon="6.96538">
        <ele>2409.2</ele>
        <time>2022-07-18T07:52:57Z</time>
      </trkpt>
      <trkpt lat="44.69237" lon="6.96535">
        <ele>2409.2</ele>
        <time>2022-07-18T07:52:58Z</time>
      </trkpt>
      <trkpt lat="44.69238" lon="6.96532">
        <ele>2409.4</ele>
        <time>2022-07-18T07:52:59Z</time>
      </trkpt>
      <trkpt lat="44.6924" lon="6.9653">
        <ele>2409.4</ele>
        <time>2022-07-18T07:53:00Z</time>
      </trkpt>
      <trkpt lat="44.69242" lon="6.96527">
        <ele>2409.6</ele>
        <time>2022-07-18T07:53:01Z</time>
      </trkpt>
      <trkpt lat="44.69244" lon="6.96524">
        <ele>2409.6</ele>
        <time>2022-07-18T07:53:02Z</time>
      </trkpt>
      <trkpt lat="44.69245" lon="6.96521">
        <ele>2409.8</ele>
        <time>2022-07-18T07:53:03Z</time>
      </trkpt>
      <trkpt lat="44.69247" lon="6.96518">
        <ele>2409.8</ele>
        <time>2022-07-18T07:53:04Z</time>
      </trkpt>
      <trkpt lat="44.69248" lon="6.96515">
        <ele>2410</ele>
        <time>2022-07-18T07:53:05Z</time>
      </trkpt>
      <trkpt lat="44.6925" lon="6.96512">
        <ele>2410</ele>
        <time>2022-07-18T07:53:06Z</time>
      </trkpt>
      <trkpt lat="44.69251" lon="6.9651">
        <ele>2410.2</ele>
        <time>2022-07-18T07:53:07Z</time>
      </trkpt>
      <trkpt lat="44.69253" lon="6.96507">
        <ele>2410.2</ele>
        <time>2022-07-18T07:53:08Z</time>
      </trkpt>
      <trkpt lat="44.69255" lon="6.96505">
        <ele>2410.4</ele>
        <time>2022-07-18T07:53:09Z</time>
      </trkpt>
      <trkpt lat="44.69257" lon="6.96502">
        <ele>2410.4</ele>
        <time>2022-07-18T07:53:10Z</time>
      </trkpt>
      <trkpt lat="44.69259" lon="6.965">
        <ele>2410.6</ele>
        <time>2022-07-18T07:53:11Z</time>
      </trkpt>
      <trkpt lat="44.6926" lon="6.96497">
        <ele>2410.6</ele>
        <time>2022-07-18T07:53:12Z</time>
      </trkpt>
      <trkpt lat="44.69262" lon="6.96494">
        <ele>2411</ele>
        <time>2022-07-18T07:53:13Z</time>
      </trkpt>
      <trkpt lat="44.69263" lon="6.96492">
        <ele>2411</ele>
        <time>2022-07-18T07:53:14Z</time>
      </trkpt>
      <trkpt lat="44.69265" lon="6.96489">
        <ele>2411</ele>
        <time>2022-07-18T07:53:15Z</time>
      </trkpt>
      <trkpt lat="44.69266" lon="6.96486">
        <ele>2411.4</ele>
        <time>2022-07-18T07:53:16Z</time>
      </trkpt>
      <trkpt lat="44.69268" lon="6.96483">
        <ele>2411.4</ele>
        <time>2022-07-18T07:53:17Z</time>
      </trkpt>
      <trkpt lat="44.69269" lon="6.96481">
        <ele>2411.6</ele>
        <time>2022-07-18T07:53:18Z</time>
      </trkpt>
      <trkpt lat="44.6927" lon="6.96477">
        <ele>2411.6</ele>
        <time>2022-07-18T07:53:19Z</time>
      </trkpt>
      <trkpt lat="44.69271" lon="6.96474">
        <ele>2411.6</ele>
        <time>2022-07-18T07:53:20Z</time>
      </trkpt>
      <trkpt lat="44.69272" lon="6.96472">
        <ele>2411.8</ele>
        <time>2022-07-18T07:53:21Z</time>
      </trkpt>
      <trkpt lat="44.69274" lon="6.96469">
        <ele>2411.8</ele>
        <time>2022-07-18T07:53:22Z</time>
      </trkpt>
      <trkpt lat="44.69275" lon="6.96466">
        <ele>2411.8</ele>
        <time>2022-07-18T07:53:23Z</time>
      </trkpt>
      <trkpt lat="44.69277" lon="6.96463">
        <ele>2412.2</ele>
        <time>2022-07-18T07:53:24Z</time>
      </trkpt>
      <trkpt lat="44.69279" lon="6.9646">
        <ele>2412.2</ele>
        <time>2022-07-18T07:53:25Z</time>
      </trkpt>
      <trkpt lat="44.6928" lon="6.96458">
        <ele>2412.4</ele>
        <time>2022-07-18T07:53:26Z</time>
      </trkpt>
      <trkpt lat="44.69282" lon="6.96456">
        <ele>2412.4</ele>
        <time>2022-07-18T07:53:27Z</time>
      </trkpt>
      <trkpt lat="44.69283" lon="6.96454">
        <ele>2412.6</ele>
        <time>2022-07-18T07:53:28Z</time>
      </trkpt>
      <trkpt lat="44.69286" lon="6.96452">
        <ele>2412.6</ele>
        <time>2022-07-18T07:53:29Z</time>
      </trkpt>
      <trkpt lat="44.69288" lon="6.96452">
        <ele>2412.8</ele>
        <time>2022-07-18T07:53:30Z</time>
      </trkpt>
      <trkpt lat="44.69291" lon="6.96454">
        <ele>2412.8</ele>
        <time>2022-07-18T07:53:31Z</time>
      </trkpt>
      <trkpt lat="44.69293" lon="6.96456">
        <ele>2413</ele>
        <time>2022-07-18T07:53:32Z</time>
      </trkpt>
      <trkpt lat="44.69293" lon="6.96459">
        <ele>2413</ele>
        <time>2022-07-18T07:53:33Z</time>
      </trkpt>
      <trkpt lat="44.69292" lon="6.96463">
        <ele>2413.4</ele>
        <time>2022-07-18T07:53:34Z</time>
      </trkpt>
      <trkpt lat="44.69291" lon="6.96465">
        <ele>2413.6</ele>
        <time>2022-07-18T07:53:35Z</time>
      </trkpt>
      <trkpt lat="44.69289" lon="6.96468">
        <ele>2413.6</ele>
        <time>2022-07-18T07:53:36Z</time>
      </trkpt>
      <trkpt lat="44.69287" lon="6.96471">
        <ele>2414</ele>
        <time>2022-07-18T07:53:37Z</time>
      </trkpt>
      <trkpt lat="44.69286" lon="6.96473">
        <ele>2414</ele>
        <time>2022-07-18T07:53:38Z</time>
      </trkpt>
      <trkpt lat="44.69285" lon="6.96476">
        <ele>2414.4</ele>
        <time>2022-07-18T07:53:39Z</time>
      </trkpt>
      <trkpt lat="44.69284" lon="6.96478">
        <ele>2414.6</ele>
        <time>2022-07-18T07:53:40Z</time>
      </trkpt>
      <trkpt lat="44.69284" lon="6.9648">
        <ele>2414.8</ele>
        <time>2022-07-18T07:53:41Z</time>
      </trkpt>
      <trkpt lat="44.69283" lon="6.96482">
        <ele>2414.8</ele>
        <time>2022-07-18T07:53:42Z</time>
      </trkpt>
      <trkpt lat="44.69282" lon="6.96484">
        <ele>2415.2</ele>
        <time>2022-07-18T07:53:43Z</time>
      </trkpt>
      <trkpt lat="44.69281" lon="6.96487">
        <ele>2415.2</ele>
        <time>2022-07-18T07:53:44Z</time>
      </trkpt>
      <trkpt lat="44.6928" lon="6.96489">
        <ele>2415.6</ele>
        <time>2022-07-18T07:53:45Z</time>
      </trkpt>
      <trkpt lat="44.69279" lon="6.96491">
        <ele>2415.8</ele>
        <time>2022-07-18T07:53:46Z</time>
      </trkpt>
      <trkpt lat="44.69279" lon="6.96493">
        <ele>2416</ele>
        <time>2022-07-18T07:53:47Z</time>
      </trkpt>
      <trkpt lat="44.69278" lon="6.96495">
        <ele>2416</ele>
        <time>2022-07-18T07:53:48Z</time>
      </trkpt>
      <trkpt lat="44.69278" lon="6.96497">
        <ele>2416.4</ele>
        <time>2022-07-18T07:53:49Z</time>
      </trkpt>
      <trkpt lat="44.69277" lon="6.96499">
        <ele>2416.4</ele>
        <time>2022-07-18T07:53:50Z</time>
      </trkpt>
      <trkpt lat="44.69276" lon="6.96501">
        <ele>2416.8</ele>
        <time>2022-07-18T07:53:51Z</time>
      </trkpt>
      <trkpt lat="44.69275" lon="6.96503">
        <ele>2417</ele>
        <time>2022-07-18T07:53:52Z</time>
      </trkpt>
      <trkpt lat="44.69274" lon="6.96505">
        <ele>2417</ele>
        <time>2022-07-18T07:53:53Z</time>
      </trkpt>
      <trkpt lat="44.69274" lon="6.96507">
        <ele>2417.4</ele>
        <time>2022-07-18T07:53:54Z</time>
      </trkpt>
      <trkpt lat="44.69273" lon="6.9651">
        <ele>2417.4</ele>
        <time>2022-07-18T07:53:55Z</time>
      </trkpt>
      <trkpt lat="44.69272" lon="6.96511">
        <ele>2417.8</ele>
        <time>2022-07-18T07:53:56Z</time>
      </trkpt>
      <trkpt lat="44.69272" lon="6.96513">
        <ele>2417.8</ele>
        <time>2022-07-18T07:53:57Z</time>
      </trkpt>
      <trkpt lat="44.69271" lon="6.96516">
        <ele>2418.2</ele>
        <time>2022-07-18T07:53:58Z</time>
      </trkpt>
      <trkpt lat="44.6927" lon="6.96518">
        <ele>2418.2</ele>
        <time>2022-07-18T07:53:59Z</time>
      </trkpt>
      <trkpt lat="44.6927" lon="6.9652">
        <ele>2418.6</ele>
        <time>2022-07-18T07:54:00Z</time>
      </trkpt>
      <trkpt lat="44.69268" lon="6.96525">
        <ele>2418.8</ele>
        <time>2022-07-18T07:54:01Z</time>
      </trkpt>
      <trkpt lat="44.69268" lon="6.96527">
        <ele>2419</ele>
        <time>2022-07-18T07:54:02Z</time>
      </trkpt>
      <trkpt lat="44.69267" lon="6.96529">
        <ele>2419.2</ele>
        <time>2022-07-18T07:54:03Z</time>
      </trkpt>
      <trkpt lat="44.69266" lon="6.96532">
        <ele>2419.2</ele>
        <time>2022-07-18T07:54:04Z</time>
      </trkpt>
      <trkpt lat="44.69266" lon="6.96534">
        <ele>2419.6</ele>
        <time>2022-07-18T07:54:05Z</time>
      </trkpt>
      <trkpt lat="44.69265" lon="6.96536">
        <ele>2419.6</ele>
        <time>2022-07-18T07:54:06Z</time>
      </trkpt>
      <trkpt lat="44.69264" lon="6.96538">
        <ele>2420</ele>
        <time>2022-07-18T07:54:07Z</time>
      </trkpt>
      <trkpt lat="44.69264" lon="6.96541">
        <ele>2420</ele>
        <time>2022-07-18T07:54:08Z</time>
      </trkpt>
      <trkpt lat="44.69263" lon="6.96543">
        <ele>2420.2</ele>
        <time>2022-07-18T07:54:09Z</time>
      </trkpt>
      <trkpt lat="44.69263" lon="6.96545">
        <ele>2420.4</ele>
        <time>2022-07-18T07:54:10Z</time>
      </trkpt>
      <trkpt lat="44.69263" lon="6.96547">
        <ele>2420.4</ele>
        <time>2022-07-18T07:54:11Z</time>
      </trkpt>
      <trkpt lat="44.69262" lon="6.9655">
        <ele>2420.8</ele>
        <time>2022-07-18T07:54:12Z</time>
      </trkpt>
      <trkpt lat="44.69262" lon="6.96552">
        <ele>2420.8</ele>
        <time>2022-07-18T07:54:13Z</time>
      </trkpt>
      <trkpt lat="44.69261" lon="6.96554">
        <ele>2421</ele>
        <time>2022-07-18T07:54:14Z</time>
      </trkpt>
      <trkpt lat="44.6926" lon="6.96557">
        <ele>2421</ele>
        <time>2022-07-18T07:54:15Z</time>
      </trkpt>
      <trkpt lat="44.6926" lon="6.96559">
        <ele>2421.4</ele>
        <time>2022-07-18T07:54:16Z</time>
      </trkpt>
      <trkpt lat="44.69259" lon="6.96561">
        <ele>2421.4</ele>
        <time>2022-07-18T07:54:17Z</time>
      </trkpt>
      <trkpt lat="44.69259" lon="6.96563">
        <ele>2421.6</ele>
        <time>2022-07-18T07:54:18Z</time>
      </trkpt>
      <trkpt lat="44.69258" lon="6.96566">
        <ele>2421.6</ele>
        <time>2022-07-18T07:54:19Z</time>
      </trkpt>
      <trkpt lat="44.69257" lon="6.96568">
        <ele>2422</ele>
        <time>2022-07-18T07:54:20Z</time>
      </trkpt>
      <trkpt lat="44.69256" lon="6.9657">
        <ele>2422</ele>
        <time>2022-07-18T07:54:21Z</time>
      </trkpt>
      <trkpt lat="44.69256" lon="6.96573">
        <ele>2422.6</ele>
        <time>2022-07-18T07:54:22Z</time>
      </trkpt>
      <trkpt lat="44.69255" lon="6.96575">
        <ele>2422.8</ele>
        <time>2022-07-18T07:54:23Z</time>
      </trkpt>
      <trkpt lat="44.69255" lon="6.96577">
        <ele>2423</ele>
        <time>2022-07-18T07:54:24Z</time>
      </trkpt>
      <trkpt lat="44.69254" lon="6.9658">
        <ele>2423</ele>
        <time>2022-07-18T07:54:25Z</time>
      </trkpt>
      <trkpt lat="44.69254" lon="6.96582">
        <ele>2423.2</ele>
        <time>2022-07-18T07:54:26Z</time>
      </trkpt>
      <trkpt lat="44.69253" lon="6.96584">
        <ele>2423.2</ele>
        <time>2022-07-18T07:54:27Z</time>
      </trkpt>
      <trkpt lat="44.69253" lon="6.96587">
        <ele>2423.6</ele>
        <time>2022-07-18T07:54:28Z</time>
      </trkpt>
      <trkpt lat="44.69252" lon="6.96589">
        <ele>2423.6</ele>
        <time>2022-07-18T07:54:29Z</time>
      </trkpt>
      <trkpt lat="44.69252" lon="6.96591">
        <ele>2424</ele>
        <time>2022-07-18T07:54:30Z</time>
      </trkpt>
      <trkpt lat="44.69252" lon="6.96593">
        <ele>2424</ele>
        <time>2022-07-18T07:54:31Z</time>
      </trkpt>
      <trkpt lat="44.69252" lon="6.96596">
        <ele>2424.4</ele>
        <time>2022-07-18T07:54:32Z</time>
      </trkpt>
      <trkpt lat="44.69251" lon="6.96598">
        <ele>2424.4</ele>
        <time>2022-07-18T07:54:33Z</time>
      </trkpt>
      <trkpt lat="44.69251" lon="6.966">
        <ele>2424.6</ele>
        <time>2022-07-18T07:54:34Z</time>
      </trkpt>
      <trkpt lat="44.69251" lon="6.96603">
        <ele>2424.6</ele>
        <time>2022-07-18T07:54:35Z</time>
      </trkpt>
      <trkpt lat="44.6925" lon="6.96605">
        <ele>2424.8</ele>
        <time>2022-07-18T07:54:36Z</time>
      </trkpt>
      <trkpt lat="44.6925" lon="6.96607">
        <ele>2424.8</ele>
        <time>2022-07-18T07:54:37Z</time>
      </trkpt>
      <trkpt lat="44.6925" lon="6.9661">
        <ele>2425</ele>
        <time>2022-07-18T07:54:38Z</time>
      </trkpt>
      <trkpt lat="44.6925" lon="6.96612">
        <ele>2425</ele>
        <time>2022-07-18T07:54:39Z</time>
      </trkpt>
      <trkpt lat="44.69249" lon="6.96614">
        <ele>2425.4</ele>
        <time>2022-07-18T07:54:40Z</time>
      </trkpt>
      <trkpt lat="44.69249" lon="6.96617">
        <ele>2425.4</ele>
        <time>2022-07-18T07:54:41Z</time>
      </trkpt>
      <trkpt lat="44.69249" lon="6.96619">
        <ele>2425.4</ele>
        <time>2022-07-18T07:54:42Z</time>
      </trkpt>
      <trkpt lat="44.69249" lon="6.96622">
        <ele>2425.6</ele>
        <time>2022-07-18T07:54:43Z</time>
      </trkpt>
      <trkpt lat="44.69249" lon="6.96624">
        <ele>2425.6</ele>
        <time>2022-07-18T07:54:44Z</time>
      </trkpt>
      <trkpt lat="44.69249" lon="6.96627">
        <ele>2425.8</ele>
        <time>2022-07-18T07:54:45Z</time>
      </trkpt>
      <trkpt lat="44.69248" lon="6.96629">
        <ele>2425.8</ele>
        <time>2022-07-18T07:54:46Z</time>
      </trkpt>
      <trkpt lat="44.69248" lon="6.96631">
        <ele>2426.2</ele>
        <time>2022-07-18T07:54:47Z</time>
      </trkpt>
      <trkpt lat="44.69247" lon="6.96633">
        <ele>2426.2</ele>
        <time>2022-07-18T07:54:48Z</time>
      </trkpt>
      <trkpt lat="44.69247" lon="6.96635">
        <ele>2426.4</ele>
        <time>2022-07-18T07:54:49Z</time>
      </trkpt>
      <trkpt lat="44.69247" lon="6.96638">
        <ele>2426.4</ele>
        <time>2022-07-18T07:54:50Z</time>
      </trkpt>
      <trkpt lat="44.69246" lon="6.9664">
        <ele>2426.4</ele>
        <time>2022-07-18T07:54:51Z</time>
      </trkpt>
      <trkpt lat="44.69246" lon="6.96642">
        <ele>2426.6</ele>
        <time>2022-07-18T07:54:52Z</time>
      </trkpt>
      <trkpt lat="44.69246" lon="6.96645">
        <ele>2426.6</ele>
        <time>2022-07-18T07:54:53Z</time>
      </trkpt>
      <trkpt lat="44.69246" lon="6.96647">
        <ele>2427</ele>
        <time>2022-07-18T07:54:54Z</time>
      </trkpt>
      <trkpt lat="44.69246" lon="6.9665">
        <ele>2427</ele>
        <time>2022-07-18T07:54:55Z</time>
      </trkpt>
      <trkpt lat="44.69245" lon="6.96652">
        <ele>2427.4</ele>
        <time>2022-07-18T07:54:56Z</time>
      </trkpt>
      <trkpt lat="44.69245" lon="6.96654">
        <ele>2427.4</ele>
        <time>2022-07-18T07:54:57Z</time>
      </trkpt>
      <trkpt lat="44.69244" lon="6.96657">
        <ele>2427.6</ele>
        <time>2022-07-18T07:54:58Z</time>
      </trkpt>
      <trkpt lat="44.69244" lon="6.96659">
        <ele>2427.6</ele>
        <time>2022-07-18T07:54:59Z</time>
      </trkpt>
      <trkpt lat="44.69244" lon="6.96661">
        <ele>2428</ele>
        <time>2022-07-18T07:55:00Z</time>
      </trkpt>
      <trkpt lat="44.69243" lon="6.96664">
        <ele>2428</ele>
        <time>2022-07-18T07:55:01Z</time>
      </trkpt>
      <trkpt lat="44.69243" lon="6.96666">
        <ele>2428.2</ele>
        <time>2022-07-18T07:55:02Z</time>
      </trkpt>
      <trkpt lat="44.69243" lon="6.96668">
        <ele>2428.2</ele>
        <time>2022-07-18T07:55:03Z</time>
      </trkpt>
      <trkpt lat="44.69242" lon="6.96671">
        <ele>2428.4</ele>
        <time>2022-07-18T07:55:04Z</time>
      </trkpt>
      <trkpt lat="44.69242" lon="6.96673">
        <ele>2428.4</ele>
        <time>2022-07-18T07:55:05Z</time>
      </trkpt>
      <trkpt lat="44.69242" lon="6.96675">
        <ele>2428.8</ele>
        <time>2022-07-18T07:55:06Z</time>
      </trkpt>
      <trkpt lat="44.69241" lon="6.96678">
        <ele>2428.8</ele>
        <time>2022-07-18T07:55:07Z</time>
      </trkpt>
      <trkpt lat="44.69241" lon="6.96681">
        <ele>2429</ele>
        <time>2022-07-18T07:55:08Z</time>
      </trkpt>
      <trkpt lat="44.69241" lon="6.96683">
        <ele>2429</ele>
        <time>2022-07-18T07:55:09Z</time>
      </trkpt>
      <trkpt lat="44.69241" lon="6.96686">
        <ele>2429.2</ele>
        <time>2022-07-18T07:55:10Z</time>
      </trkpt>
      <trkpt lat="44.69241" lon="6.96688">
        <ele>2429.2</ele>
        <time>2022-07-18T07:55:11Z</time>
      </trkpt>
      <trkpt lat="44.69241" lon="6.9669">
        <ele>2429.6</ele>
        <time>2022-07-18T07:55:12Z</time>
      </trkpt>
      <trkpt lat="44.6924" lon="6.96693">
        <ele>2429.6</ele>
        <time>2022-07-18T07:55:13Z</time>
      </trkpt>
      <trkpt lat="44.6924" lon="6.96695">
        <ele>2429.8</ele>
        <time>2022-07-18T07:55:14Z</time>
      </trkpt>
      <trkpt lat="44.6924" lon="6.96698">
        <ele>2429.8</ele>
        <time>2022-07-18T07:55:15Z</time>
      </trkpt>
      <trkpt lat="44.6924" lon="6.967">
        <ele>2430.2</ele>
        <time>2022-07-18T07:55:16Z</time>
      </trkpt>
      <trkpt lat="44.6924" lon="6.96703">
        <ele>2430.2</ele>
        <time>2022-07-18T07:55:17Z</time>
      </trkpt>
      <trkpt lat="44.6924" lon="6.96706">
        <ele>2430.4</ele>
        <time>2022-07-18T07:55:18Z</time>
      </trkpt>
      <trkpt lat="44.69241" lon="6.96708">
        <ele>2430.4</ele>
        <time>2022-07-18T07:55:19Z</time>
      </trkpt>
      <trkpt lat="44.6924" lon="6.96711">
        <ele>2430.8</ele>
        <time>2022-07-18T07:55:20Z</time>
      </trkpt>
      <trkpt lat="44.6924" lon="6.96714">
        <ele>2430.8</ele>
        <time>2022-07-18T07:55:21Z</time>
      </trkpt>
      <trkpt lat="44.6924" lon="6.96717">
        <ele>2431</ele>
        <time>2022-07-18T07:55:22Z</time>
      </trkpt>
      <trkpt lat="44.6924" lon="6.96719">
        <ele>2431</ele>
        <time>2022-07-18T07:55:23Z</time>
      </trkpt>
      <trkpt lat="44.6924" lon="6.96722">
        <ele>2431.4</ele>
        <time>2022-07-18T07:55:24Z</time>
      </trkpt>
      <trkpt lat="44.6924" lon="6.96724">
        <ele>2431.4</ele>
        <time>2022-07-18T07:55:25Z</time>
      </trkpt>
      <trkpt lat="44.6924" lon="6.96727">
        <ele>2431.6</ele>
        <time>2022-07-18T07:55:26Z</time>
      </trkpt>
      <trkpt lat="44.69239" lon="6.96729">
        <ele>2431.6</ele>
        <time>2022-07-18T07:55:27Z</time>
      </trkpt>
      <trkpt lat="44.69238" lon="6.96732">
        <ele>2431.8</ele>
        <time>2022-07-18T07:55:28Z</time>
      </trkpt>
      <trkpt lat="44.69238" lon="6.96734">
        <ele>2431.8</ele>
        <time>2022-07-18T07:55:29Z</time>
      </trkpt>
      <trkpt lat="44.69237" lon="6.96736">
        <ele>2432.2</ele>
        <time>2022-07-18T07:55:30Z</time>
      </trkpt>
      <trkpt lat="44.69236" lon="6.96738">
        <ele>2432.4</ele>
        <time>2022-07-18T07:55:31Z</time>
      </trkpt>
      <trkpt lat="44.69235" lon="6.9674">
        <ele>2432.4</ele>
        <time>2022-07-18T07:55:32Z</time>
      </trkpt>
      <trkpt lat="44.69235" lon="6.96743">
        <ele>2432.8</ele>
        <time>2022-07-18T07:55:33Z</time>
      </trkpt>
      <trkpt lat="44.69234" lon="6.96745">
        <ele>2433</ele>
        <time>2022-07-18T07:55:34Z</time>
      </trkpt>
      <trkpt lat="44.69233" lon="6.96747">
        <ele>2433.2</ele>
        <time>2022-07-18T07:55:35Z</time>
      </trkpt>
      <trkpt lat="44.69232" lon="6.96748">
        <ele>2433.6</ele>
        <time>2022-07-18T07:55:36Z</time>
      </trkpt>
      <trkpt lat="44.69231" lon="6.9675">
        <ele>2433.6</ele>
        <time>2022-07-18T07:55:37Z</time>
      </trkpt>
      <trkpt lat="44.6923" lon="6.96752">
        <ele>2433.8</ele>
        <time>2022-07-18T07:55:38Z</time>
      </trkpt>
      <trkpt lat="44.69229" lon="6.96754">
        <ele>2434</ele>
        <time>2022-07-18T07:55:39Z</time>
      </trkpt>
      <trkpt lat="44.69228" lon="6.96756">
        <ele>2434.4</ele>
        <time>2022-07-18T07:55:40Z</time>
      </trkpt>
      <trkpt lat="44.69227" lon="6.96758">
        <ele>2434.4</ele>
        <time>2022-07-18T07:55:41Z</time>
      </trkpt>
      <trkpt lat="44.69227" lon="6.9676">
        <ele>2434.6</ele>
        <time>2022-07-18T07:55:42Z</time>
      </trkpt>
      <trkpt lat="44.69226" lon="6.96762">
        <ele>2434.8</ele>
        <time>2022-07-18T07:55:43Z</time>
      </trkpt>
      <trkpt lat="44.69226" lon="6.96764">
        <ele>2434.8</ele>
        <time>2022-07-18T07:55:44Z</time>
      </trkpt>
      <trkpt lat="44.69225" lon="6.96766">
        <ele>2435.2</ele>
        <time>2022-07-18T07:55:45Z</time>
      </trkpt>
      <trkpt lat="44.69225" lon="6.96768">
        <ele>2435.2</ele>
        <time>2022-07-18T07:55:46Z</time>
      </trkpt>
      <trkpt lat="44.69225" lon="6.9677">
        <ele>2435.4</ele>
        <time>2022-07-18T07:55:47Z</time>
      </trkpt>
      <trkpt lat="44.69224" lon="6.96772">
        <ele>2435.4</ele>
        <time>2022-07-18T07:55:48Z</time>
      </trkpt>
      <trkpt lat="44.69224" lon="6.96774">
        <ele>2435.8</ele>
        <time>2022-07-18T07:55:49Z</time>
      </trkpt>
      <trkpt lat="44.69224" lon="6.96776">
        <ele>2435.8</ele>
        <time>2022-07-18T07:55:50Z</time>
      </trkpt>
      <trkpt lat="44.69224" lon="6.96779">
        <ele>2436</ele>
        <time>2022-07-18T07:55:51Z</time>
      </trkpt>
      <trkpt lat="44.69224" lon="6.96781">
        <ele>2436</ele>
        <time>2022-07-18T07:55:52Z</time>
      </trkpt>
      <trkpt lat="44.69224" lon="6.96783">
        <ele>2436.4</ele>
        <time>2022-07-18T07:55:53Z</time>
      </trkpt>
      <trkpt lat="44.69224" lon="6.96785">
        <ele>2436.4</ele>
        <time>2022-07-18T07:55:54Z</time>
      </trkpt>
      <trkpt lat="44.69224" lon="6.96787">
        <ele>2436.6</ele>
        <time>2022-07-18T07:55:55Z</time>
      </trkpt>
      <trkpt lat="44.69224" lon="6.9679">
        <ele>2436.6</ele>
        <time>2022-07-18T07:55:56Z</time>
      </trkpt>
      <trkpt lat="44.69224" lon="6.96792">
        <ele>2437</ele>
        <time>2022-07-18T07:55:57Z</time>
      </trkpt>
      <trkpt lat="44.69224" lon="6.96794">
        <ele>2437</ele>
        <time>2022-07-18T07:55:58Z</time>
      </trkpt>
      <trkpt lat="44.69224" lon="6.96797">
        <ele>2437.2</ele>
        <time>2022-07-18T07:55:59Z</time>
      </trkpt>
      <trkpt lat="44.69224" lon="6.96799">
        <ele>2437.2</ele>
        <time>2022-07-18T07:56:00Z</time>
      </trkpt>
      <trkpt lat="44.69225" lon="6.96801">
        <ele>2437.6</ele>
        <time>2022-07-18T07:56:01Z</time>
      </trkpt>
      <trkpt lat="44.69225" lon="6.96803">
        <ele>2437.6</ele>
        <time>2022-07-18T07:56:02Z</time>
      </trkpt>
      <trkpt lat="44.69226" lon="6.96806">
        <ele>2437.8</ele>
        <time>2022-07-18T07:56:03Z</time>
      </trkpt>
      <trkpt lat="44.69226" lon="6.96808">
        <ele>2437.8</ele>
        <time>2022-07-18T07:56:04Z</time>
      </trkpt>
      <trkpt lat="44.69226" lon="6.96811">
        <ele>2438.2</ele>
        <time>2022-07-18T07:56:05Z</time>
      </trkpt>
      <trkpt lat="44.69227" lon="6.96813">
        <ele>2438.2</ele>
        <time>2022-07-18T07:56:06Z</time>
      </trkpt>
      <trkpt lat="44.69227" lon="6.96815">
        <ele>2438.6</ele>
        <time>2022-07-18T07:56:07Z</time>
      </trkpt>
      <trkpt lat="44.69228" lon="6.96818">
        <ele>2438.6</ele>
        <time>2022-07-18T07:56:08Z</time>
      </trkpt>
      <trkpt lat="44.69228" lon="6.9682">
        <ele>2438.8</ele>
        <time>2022-07-18T07:56:09Z</time>
      </trkpt>
      <trkpt lat="44.69228" lon="6.96822">
        <ele>2438.8</ele>
        <time>2022-07-18T07:56:10Z</time>
      </trkpt>
      <trkpt lat="44.69229" lon="6.96825">
        <ele>2439</ele>
        <time>2022-07-18T07:56:11Z</time>
      </trkpt>
      <trkpt lat="44.69229" lon="6.96827">
        <ele>2439</ele>
        <time>2022-07-18T07:56:12Z</time>
      </trkpt>
      <trkpt lat="44.6923" lon="6.96829">
        <ele>2439.2</ele>
        <time>2022-07-18T07:56:13Z</time>
      </trkpt>
      <trkpt lat="44.6923" lon="6.96832">
        <ele>2439.2</ele>
        <time>2022-07-18T07:56:14Z</time>
      </trkpt>
      <trkpt lat="44.69231" lon="6.96834">
        <ele>2439.2</ele>
        <time>2022-07-18T07:56:15Z</time>
      </trkpt>
      <trkpt lat="44.69231" lon="6.96836">
        <ele>2439.6</ele>
        <time>2022-07-18T07:56:16Z</time>
      </trkpt>
      <trkpt lat="44.69232" lon="6.96838">
        <ele>2439.6</ele>
        <time>2022-07-18T07:56:17Z</time>
      </trkpt>
      <trkpt lat="44.69232" lon="6.96841">
        <ele>2439.6</ele>
        <time>2022-07-18T07:56:18Z</time>
      </trkpt>
      <trkpt lat="44.69233" lon="6.96843">
        <ele>2439.8</ele>
        <time>2022-07-18T07:56:19Z</time>
      </trkpt>
      <trkpt lat="44.69233" lon="6.96845">
        <ele>2439.8</ele>
        <time>2022-07-18T07:56:20Z</time>
      </trkpt>
      <trkpt lat="44.69234" lon="6.96848">
        <ele>2440.2</ele>
        <time>2022-07-18T07:56:21Z</time>
      </trkpt>
      <trkpt lat="44.69234" lon="6.9685">
        <ele>2440.2</ele>
        <time>2022-07-18T07:56:22Z</time>
      </trkpt>
      <trkpt lat="44.69235" lon="6.96852">
        <ele>2440.4</ele>
        <time>2022-07-18T07:56:23Z</time>
      </trkpt>
      <trkpt lat="44.69235" lon="6.96855">
        <ele>2440.4</ele>
        <time>2022-07-18T07:56:24Z</time>
      </trkpt>
      <trkpt lat="44.69235" lon="6.96857">
        <ele>2440.8</ele>
        <time>2022-07-18T07:56:25Z</time>
      </trkpt>
      <trkpt lat="44.69235" lon="6.9686">
        <ele>2440.8</ele>
        <time>2022-07-18T07:56:26Z</time>
      </trkpt>
      <trkpt lat="44.69235" lon="6.96863">
        <ele>2441</ele>
        <time>2022-07-18T07:56:27Z</time>
      </trkpt>
      <trkpt lat="44.69235" lon="6.96865">
        <ele>2441</ele>
        <time>2022-07-18T07:56:28Z</time>
      </trkpt>
      <trkpt lat="44.69235" lon="6.96868">
        <ele>2441.4</ele>
        <time>2022-07-18T07:56:29Z</time>
      </trkpt>
      <trkpt lat="44.69235" lon="6.96871">
        <ele>2441.4</ele>
        <time>2022-07-18T07:56:30Z</time>
      </trkpt>
      <trkpt lat="44.69235" lon="6.96873">
        <ele>2441.6</ele>
        <time>2022-07-18T07:56:31Z</time>
      </trkpt>
      <trkpt lat="44.69234" lon="6.96876">
        <ele>2441.6</ele>
        <time>2022-07-18T07:56:32Z</time>
      </trkpt>
      <trkpt lat="44.69234" lon="6.96879">
        <ele>2442</ele>
        <time>2022-07-18T07:56:33Z</time>
      </trkpt>
      <trkpt lat="44.69233" lon="6.96881">
        <ele>2442</ele>
        <time>2022-07-18T07:56:34Z</time>
      </trkpt>
      <trkpt lat="44.69232" lon="6.96884">
        <ele>2442.4</ele>
        <time>2022-07-18T07:56:35Z</time>
      </trkpt>
      <trkpt lat="44.69232" lon="6.96886">
        <ele>2442.4</ele>
        <time>2022-07-18T07:56:36Z</time>
      </trkpt>
      <trkpt lat="44.69231" lon="6.96889">
        <ele>2442.8</ele>
        <time>2022-07-18T07:56:37Z</time>
      </trkpt>
      <trkpt lat="44.6923" lon="6.96891">
        <ele>2442.8</ele>
        <time>2022-07-18T07:56:38Z</time>
      </trkpt>
      <trkpt lat="44.69228" lon="6.96893">
        <ele>2443.2</ele>
        <time>2022-07-18T07:56:39Z</time>
      </trkpt>
      <trkpt lat="44.69227" lon="6.96895">
        <ele>2443.2</ele>
        <time>2022-07-18T07:56:40Z</time>
      </trkpt>
      <trkpt lat="44.69226" lon="6.96897">
        <ele>2443.6</ele>
        <time>2022-07-18T07:56:41Z</time>
      </trkpt>
      <trkpt lat="44.69225" lon="6.96899">
        <ele>2443.6</ele>
        <time>2022-07-18T07:56:42Z</time>
      </trkpt>
      <trkpt lat="44.69224" lon="6.96901">
        <ele>2443.8</ele>
        <time>2022-07-18T07:56:43Z</time>
      </trkpt>
      <trkpt lat="44.69223" lon="6.96903">
        <ele>2443.8</ele>
        <time>2022-07-18T07:56:44Z</time>
      </trkpt>
      <trkpt lat="44.69222" lon="6.96905">
        <ele>2444.2</ele>
        <time>2022-07-18T07:56:45Z</time>
      </trkpt>
      <trkpt lat="44.69221" lon="6.96907">
        <ele>2444.2</ele>
        <time>2022-07-18T07:56:46Z</time>
      </trkpt>
      <trkpt lat="44.6922" lon="6.96909">
        <ele>2444.4</ele>
        <time>2022-07-18T07:56:47Z</time>
      </trkpt>
      <trkpt lat="44.69219" lon="6.96911">
        <ele>2444.4</ele>
        <time>2022-07-18T07:56:48Z</time>
      </trkpt>
      <trkpt lat="44.69218" lon="6.96913">
        <ele>2444.8</ele>
        <time>2022-07-18T07:56:49Z</time>
      </trkpt>
      <trkpt lat="44.69217" lon="6.96916">
        <ele>2444.8</ele>
        <time>2022-07-18T07:56:50Z</time>
      </trkpt>
      <trkpt lat="44.69216" lon="6.96918">
        <ele>2445.2</ele>
        <time>2022-07-18T07:56:51Z</time>
      </trkpt>
      <trkpt lat="44.69215" lon="6.96921">
        <ele>2445.2</ele>
        <time>2022-07-18T07:56:52Z</time>
      </trkpt>
      <trkpt lat="44.69214" lon="6.96923">
        <ele>2445.4</ele>
        <time>2022-07-18T07:56:53Z</time>
      </trkpt>
      <trkpt lat="44.69213" lon="6.96925">
        <ele>2445.4</ele>
        <time>2022-07-18T07:56:54Z</time>
      </trkpt>
      <trkpt lat="44.69212" lon="6.96927">
        <ele>2445.8</ele>
        <time>2022-07-18T07:56:55Z</time>
      </trkpt>
      <trkpt lat="44.69211" lon="6.96929">
        <ele>2445.8</ele>
        <time>2022-07-18T07:56:56Z</time>
      </trkpt>
      <trkpt lat="44.6921" lon="6.96931">
        <ele>2446</ele>
        <time>2022-07-18T07:56:57Z</time>
      </trkpt>
      <trkpt lat="44.69209" lon="6.96933">
        <ele>2446</ele>
        <time>2022-07-18T07:56:58Z</time>
      </trkpt>
      <trkpt lat="44.69208" lon="6.96935">
        <ele>2446.4</ele>
        <time>2022-07-18T07:56:59Z</time>
      </trkpt>
      <trkpt lat="44.69208" lon="6.96938">
        <ele>2446.4</ele>
        <time>2022-07-18T07:57:00Z</time>
      </trkpt>
      <trkpt lat="44.69207" lon="6.96941">
        <ele>2446.6</ele>
        <time>2022-07-18T07:57:01Z</time>
      </trkpt>
      <trkpt lat="44.69206" lon="6.96943">
        <ele>2446.6</ele>
        <time>2022-07-18T07:57:02Z</time>
      </trkpt>
      <trkpt lat="44.69206" lon="6.96946">
        <ele>2447</ele>
        <time>2022-07-18T07:57:03Z</time>
      </trkpt>
      <trkpt lat="44.69205" lon="6.96949">
        <ele>2447</ele>
        <time>2022-07-18T07:57:04Z</time>
      </trkpt>
      <trkpt lat="44.69204" lon="6.96952">
        <ele>2447.2</ele>
        <time>2022-07-18T07:57:05Z</time>
      </trkpt>
      <trkpt lat="44.69204" lon="6.96954">
        <ele>2447.2</ele>
        <time>2022-07-18T07:57:06Z</time>
      </trkpt>
      <trkpt lat="44.69203" lon="6.96957">
        <ele>2447.4</ele>
        <time>2022-07-18T07:57:07Z</time>
      </trkpt>
      <trkpt lat="44.69202" lon="6.9696">
        <ele>2447.4</ele>
        <time>2022-07-18T07:57:08Z</time>
      </trkpt>
      <trkpt lat="44.69202" lon="6.96963">
        <ele>2447.6</ele>
        <time>2022-07-18T07:57:09Z</time>
      </trkpt>
      <trkpt lat="44.69201" lon="6.96966">
        <ele>2447.6</ele>
        <time>2022-07-18T07:57:10Z</time>
      </trkpt>
      <trkpt lat="44.69201" lon="6.96969">
        <ele>2448</ele>
        <time>2022-07-18T07:57:11Z</time>
      </trkpt>
      <trkpt lat="44.69201" lon="6.96971">
        <ele>2448.2</ele>
        <time>2022-07-18T07:57:12Z</time>
      </trkpt>
      <trkpt lat="44.69201" lon="6.96974">
        <ele>2448.2</ele>
        <time>2022-07-18T07:57:13Z</time>
      </trkpt>
      <trkpt lat="44.69201" lon="6.96977">
        <ele>2448.6</ele>
        <time>2022-07-18T07:57:14Z</time>
      </trkpt>
      <trkpt lat="44.692" lon="6.9698">
        <ele>2448.6</ele>
        <time>2022-07-18T07:57:15Z</time>
      </trkpt>
      <trkpt lat="44.692" lon="6.96983">
        <ele>2448.8</ele>
        <time>2022-07-18T07:57:16Z</time>
      </trkpt>
      <trkpt lat="44.692" lon="6.96985">
        <ele>2448.8</ele>
        <time>2022-07-18T07:57:17Z</time>
      </trkpt>
      <trkpt lat="44.69199" lon="6.96988">
        <ele>2449</ele>
        <time>2022-07-18T07:57:18Z</time>
      </trkpt>
      <trkpt lat="44.69199" lon="6.96991">
        <ele>2449.2</ele>
        <time>2022-07-18T07:57:19Z</time>
      </trkpt>
      <trkpt lat="44.69199" lon="6.96993">
        <ele>2449.2</ele>
        <time>2022-07-18T07:57:20Z</time>
      </trkpt>
      <trkpt lat="44.69199" lon="6.96996">
        <ele>2449.6</ele>
        <time>2022-07-18T07:57:21Z</time>
      </trkpt>
      <trkpt lat="44.69199" lon="6.96999">
        <ele>2449.6</ele>
        <time>2022-07-18T07:57:22Z</time>
      </trkpt>
      <trkpt lat="44.69199" lon="6.97002">
        <ele>2449.8</ele>
        <time>2022-07-18T07:57:23Z</time>
      </trkpt>
      <trkpt lat="44.69199" lon="6.97005">
        <ele>2449.8</ele>
        <time>2022-07-18T07:57:24Z</time>
      </trkpt>
      <trkpt lat="44.69198" lon="6.97008">
        <ele>2450.2</ele>
        <time>2022-07-18T07:57:25Z</time>
      </trkpt>
      <trkpt lat="44.69198" lon="6.97011">
        <ele>2450.2</ele>
        <time>2022-07-18T07:57:26Z</time>
      </trkpt>
      <trkpt lat="44.69198" lon="6.97014">
        <ele>2450.6</ele>
        <time>2022-07-18T07:57:27Z</time>
      </trkpt>
      <trkpt lat="44.69197" lon="6.97016">
        <ele>2450.6</ele>
        <time>2022-07-18T07:57:28Z</time>
      </trkpt>
      <trkpt lat="44.69197" lon="6.97019">
        <ele>2450.8</ele>
        <time>2022-07-18T07:57:29Z</time>
      </trkpt>
      <trkpt lat="44.69197" lon="6.97022">
        <ele>2450.8</ele>
        <time>2022-07-18T07:57:30Z</time>
      </trkpt>
      <trkpt lat="44.69196" lon="6.97025">
        <ele>2451.2</ele>
        <time>2022-07-18T07:57:31Z</time>
      </trkpt>
      <trkpt lat="44.69196" lon="6.97028">
        <ele>2451.2</ele>
        <time>2022-07-18T07:57:32Z</time>
      </trkpt>
      <trkpt lat="44.69196" lon="6.9703">
        <ele>2451.6</ele>
        <time>2022-07-18T07:57:33Z</time>
      </trkpt>
      <trkpt lat="44.69196" lon="6.97033">
        <ele>2451.6</ele>
        <time>2022-07-18T07:57:34Z</time>
      </trkpt>
      <trkpt lat="44.69195" lon="6.97036">
        <ele>2452</ele>
        <time>2022-07-18T07:57:35Z</time>
      </trkpt>
      <trkpt lat="44.69195" lon="6.97038">
        <ele>2452</ele>
        <time>2022-07-18T07:57:36Z</time>
      </trkpt>
      <trkpt lat="44.69195" lon="6.97041">
        <ele>2452.2</ele>
        <time>2022-07-18T07:57:37Z</time>
      </trkpt>
      <trkpt lat="44.69194" lon="6.97043">
        <ele>2452.2</ele>
        <time>2022-07-18T07:57:38Z</time>
      </trkpt>
      <trkpt lat="44.69194" lon="6.97046">
        <ele>2452.4</ele>
        <time>2022-07-18T07:57:39Z</time>
      </trkpt>
      <trkpt lat="44.69193" lon="6.97048">
        <ele>2452.4</ele>
        <time>2022-07-18T07:57:40Z</time>
      </trkpt>
      <trkpt lat="44.69192" lon="6.97051">
        <ele>2452.6</ele>
        <time>2022-07-18T07:57:41Z</time>
      </trkpt>
      <trkpt lat="44.69191" lon="6.97053">
        <ele>2452.6</ele>
        <time>2022-07-18T07:57:42Z</time>
      </trkpt>
      <trkpt lat="44.6919" lon="6.97056">
        <ele>2453</ele>
        <time>2022-07-18T07:57:43Z</time>
      </trkpt>
      <trkpt lat="44.69189" lon="6.97058">
        <ele>2453</ele>
        <time>2022-07-18T07:57:44Z</time>
      </trkpt>
      <trkpt lat="44.69188" lon="6.9706">
        <ele>2453.4</ele>
        <time>2022-07-18T07:57:45Z</time>
      </trkpt>
      <trkpt lat="44.69187" lon="6.97062">
        <ele>2453.4</ele>
        <time>2022-07-18T07:57:46Z</time>
      </trkpt>
      <trkpt lat="44.69186" lon="6.97064">
        <ele>2453.8</ele>
        <time>2022-07-18T07:57:47Z</time>
      </trkpt>
      <trkpt lat="44.69185" lon="6.97066">
        <ele>2454</ele>
        <time>2022-07-18T07:57:48Z</time>
      </trkpt>
      <trkpt lat="44.69184" lon="6.97068">
        <ele>2454.2</ele>
        <time>2022-07-18T07:57:49Z</time>
      </trkpt>
      <trkpt lat="44.69183" lon="6.9707">
        <ele>2454.2</ele>
        <time>2022-07-18T07:57:50Z</time>
      </trkpt>
      <trkpt lat="44.69182" lon="6.97072">
        <ele>2454.6</ele>
        <time>2022-07-18T07:57:51Z</time>
      </trkpt>
      <trkpt lat="44.69181" lon="6.97074">
        <ele>2454.6</ele>
        <time>2022-07-18T07:57:52Z</time>
      </trkpt>
      <trkpt lat="44.6918" lon="6.97076">
        <ele>2454.8</ele>
        <time>2022-07-18T07:57:53Z</time>
      </trkpt>
      <trkpt lat="44.69178" lon="6.97078">
        <ele>2454.8</ele>
        <time>2022-07-18T07:57:54Z</time>
      </trkpt>
      <trkpt lat="44.69177" lon="6.9708">
        <ele>2455.2</ele>
        <time>2022-07-18T07:57:55Z</time>
      </trkpt>
      <trkpt lat="44.69176" lon="6.97081">
        <ele>2455.2</ele>
        <time>2022-07-18T07:57:56Z</time>
      </trkpt>
      <trkpt lat="44.69175" lon="6.97084">
        <ele>2455.6</ele>
        <time>2022-07-18T07:57:57Z</time>
      </trkpt>
      <trkpt lat="44.69174" lon="6.97086">
        <ele>2455.6</ele>
        <time>2022-07-18T07:57:58Z</time>
      </trkpt>
      <trkpt lat="44.69173" lon="6.97088">
        <ele>2455.8</ele>
        <time>2022-07-18T07:57:59Z</time>
      </trkpt>
      <trkpt lat="44.69172" lon="6.97089">
        <ele>2455.8</ele>
        <time>2022-07-18T07:58:00Z</time>
      </trkpt>
      <trkpt lat="44.6917" lon="6.97091">
        <ele>2456.2</ele>
        <time>2022-07-18T07:58:01Z</time>
      </trkpt>
      <trkpt lat="44.69169" lon="6.97094">
        <ele>2456.4</ele>
        <time>2022-07-18T07:58:02Z</time>
      </trkpt>
      <trkpt lat="44.69167" lon="6.97096">
        <ele>2456.4</ele>
        <time>2022-07-18T07:58:03Z</time>
      </trkpt>
      <trkpt lat="44.69166" lon="6.97097">
        <ele>2456.8</ele>
        <time>2022-07-18T07:58:04Z</time>
      </trkpt>
      <trkpt lat="44.69165" lon="6.97099">
        <ele>2456.8</ele>
        <time>2022-07-18T07:58:05Z</time>
      </trkpt>
      <trkpt lat="44.69163" lon="6.97101">
        <ele>2457.2</ele>
        <time>2022-07-18T07:58:06Z</time>
      </trkpt>
      <trkpt lat="44.69162" lon="6.97103">
        <ele>2457.2</ele>
        <time>2022-07-18T07:58:07Z</time>
      </trkpt>
      <trkpt lat="44.6916" lon="6.97104">
        <ele>2457.6</ele>
        <time>2022-07-18T07:58:08Z</time>
      </trkpt>
      <trkpt lat="44.69159" lon="6.97106">
        <ele>2457.6</ele>
        <time>2022-07-18T07:58:09Z</time>
      </trkpt>
      <trkpt lat="44.69157" lon="6.97108">
        <ele>2457.8</ele>
        <time>2022-07-18T07:58:10Z</time>
      </trkpt>
      <trkpt lat="44.69156" lon="6.9711">
        <ele>2458.2</ele>
        <time>2022-07-18T07:58:11Z</time>
      </trkpt>
      <trkpt lat="44.69155" lon="6.97111">
        <ele>2458.2</ele>
        <time>2022-07-18T07:58:12Z</time>
      </trkpt>
      <trkpt lat="44.69153" lon="6.97113">
        <ele>2458.4</ele>
        <time>2022-07-18T07:58:13Z</time>
      </trkpt>
      <trkpt lat="44.69152" lon="6.97114">
        <ele>2458.4</ele>
        <time>2022-07-18T07:58:14Z</time>
      </trkpt>
      <trkpt lat="44.6915" lon="6.97116">
        <ele>2458.8</ele>
        <time>2022-07-18T07:58:15Z</time>
      </trkpt>
      <trkpt lat="44.69149" lon="6.97118">
        <ele>2458.8</ele>
        <time>2022-07-18T07:58:16Z</time>
      </trkpt>
      <trkpt lat="44.69148" lon="6.9712">
        <ele>2459.2</ele>
        <time>2022-07-18T07:58:17Z</time>
      </trkpt>
      <trkpt lat="44.69146" lon="6.97121">
        <ele>2459.4</ele>
        <time>2022-07-18T07:58:18Z</time>
      </trkpt>
      <trkpt lat="44.69145" lon="6.97123">
        <ele>2459.4</ele>
        <time>2022-07-18T07:58:19Z</time>
      </trkpt>
      <trkpt lat="44.69144" lon="6.97125">
        <ele>2459.8</ele>
        <time>2022-07-18T07:58:20Z</time>
      </trkpt>
      <trkpt lat="44.69143" lon="6.97127">
        <ele>2459.8</ele>
        <time>2022-07-18T07:58:21Z</time>
      </trkpt>
      <trkpt lat="44.69142" lon="6.97128">
        <ele>2460</ele>
        <time>2022-07-18T07:58:22Z</time>
      </trkpt>
      <trkpt lat="44.69141" lon="6.9713">
        <ele>2460</ele>
        <time>2022-07-18T07:58:23Z</time>
      </trkpt>
      <trkpt lat="44.69141" lon="6.97132">
        <ele>2460.4</ele>
        <time>2022-07-18T07:58:24Z</time>
      </trkpt>
      <trkpt lat="44.6914" lon="6.97134">
        <ele>2460.6</ele>
        <time>2022-07-18T07:58:25Z</time>
      </trkpt>
      <trkpt lat="44.6914" lon="6.97136">
        <ele>2460.6</ele>
        <time>2022-07-18T07:58:26Z</time>
      </trkpt>
      <trkpt lat="44.6914" lon="6.97139">
        <ele>2461</ele>
        <time>2022-07-18T07:58:27Z</time>
      </trkpt>
      <trkpt lat="44.69141" lon="6.97141">
        <ele>2461</ele>
        <time>2022-07-18T07:58:28Z</time>
      </trkpt>
      <trkpt lat="44.69142" lon="6.97142">
        <ele>2461.2</ele>
        <time>2022-07-18T07:58:29Z</time>
      </trkpt>
      <trkpt lat="44.69143" lon="6.97144">
        <ele>2461.2</ele>
        <time>2022-07-18T07:58:30Z</time>
      </trkpt>
      <trkpt lat="44.69144" lon="6.97145">
        <ele>2461.6</ele>
        <time>2022-07-18T07:58:31Z</time>
      </trkpt>
      <trkpt lat="44.69146" lon="6.97146">
        <ele>2461.6</ele>
        <time>2022-07-18T07:58:32Z</time>
      </trkpt>
      <trkpt lat="44.69148" lon="6.97147">
        <ele>2461.8</ele>
        <time>2022-07-18T07:58:33Z</time>
      </trkpt>
      <trkpt lat="44.6915" lon="6.97148">
        <ele>2461.8</ele>
        <time>2022-07-18T07:58:34Z</time>
      </trkpt>
      <trkpt lat="44.69152" lon="6.97148">
        <ele>2461.8</ele>
        <time>2022-07-18T07:58:35Z</time>
      </trkpt>
      <trkpt lat="44.69154" lon="6.97149">
        <ele>2462</ele>
        <time>2022-07-18T07:58:36Z</time>
      </trkpt>
      <trkpt lat="44.69156" lon="6.97148">
        <ele>2462</ele>
        <time>2022-07-18T07:58:37Z</time>
      </trkpt>
      <trkpt lat="44.69158" lon="6.97148">
        <ele>2462</ele>
        <time>2022-07-18T07:58:38Z</time>
      </trkpt>
      <trkpt lat="44.69161" lon="6.97147">
        <ele>2462.4</ele>
        <time>2022-07-18T07:58:39Z</time>
      </trkpt>
      <trkpt lat="44.69163" lon="6.97146">
        <ele>2462.4</ele>
        <time>2022-07-18T07:58:40Z</time>
      </trkpt>
      <trkpt lat="44.69165" lon="6.97145">
        <ele>2462.6</ele>
        <time>2022-07-18T07:58:41Z</time>
      </trkpt>
      <trkpt lat="44.69168" lon="6.97144">
        <ele>2462.6</ele>
        <time>2022-07-18T07:58:42Z</time>
      </trkpt>
      <trkpt lat="44.6917" lon="6.97143">
        <ele>2462.6</ele>
        <time>2022-07-18T07:58:43Z</time>
      </trkpt>
      <trkpt lat="44.69172" lon="6.97141">
        <ele>2462.6</ele>
        <time>2022-07-18T07:58:44Z</time>
      </trkpt>
      <trkpt lat="44.69174" lon="6.97139">
        <ele>2462.8</ele>
        <time>2022-07-18T07:58:45Z</time>
      </trkpt>
      <trkpt lat="44.69176" lon="6.97137">
        <ele>2462.8</ele>
        <time>2022-07-18T07:58:46Z</time>
      </trkpt>
      <trkpt lat="44.69178" lon="6.97135">
        <ele>2463</ele>
        <time>2022-07-18T07:58:47Z</time>
      </trkpt>
      <trkpt lat="44.6918" lon="6.97133">
        <ele>2463</ele>
        <time>2022-07-18T07:58:48Z</time>
      </trkpt>
      <trkpt lat="44.69182" lon="6.97131">
        <ele>2463</ele>
        <time>2022-07-18T07:58:49Z</time>
      </trkpt>
      <trkpt lat="44.69184" lon="6.97129">
        <ele>2463</ele>
        <time>2022-07-18T07:58:50Z</time>
      </trkpt>
      <trkpt lat="44.69187" lon="6.97127">
        <ele>2463.2</ele>
        <time>2022-07-18T07:58:51Z</time>
      </trkpt>
      <trkpt lat="44.69189" lon="6.97126">
        <ele>2463.2</ele>
        <time>2022-07-18T07:58:52Z</time>
      </trkpt>
      <trkpt lat="44.69191" lon="6.97126">
        <ele>2463.6</ele>
        <time>2022-07-18T07:58:53Z</time>
      </trkpt>
      <trkpt lat="44.69193" lon="6.97127">
        <ele>2463.6</ele>
        <time>2022-07-18T07:58:54Z</time>
      </trkpt>
      <trkpt lat="44.69195" lon="6.97129">
        <ele>2463.6</ele>
        <time>2022-07-18T07:58:55Z</time>
      </trkpt>
      <trkpt lat="44.69196" lon="6.97131">
        <ele>2463.8</ele>
        <time>2022-07-18T07:58:56Z</time>
      </trkpt>
      <trkpt lat="44.69196" lon="6.97134">
        <ele>2463.8</ele>
        <time>2022-07-18T07:58:57Z</time>
      </trkpt>
      <trkpt lat="44.69195" lon="6.97136">
        <ele>2463.8</ele>
        <time>2022-07-18T07:58:58Z</time>
      </trkpt>
      <trkpt lat="44.69194" lon="6.97139">
        <ele>2464.2</ele>
        <time>2022-07-18T07:58:59Z</time>
      </trkpt>
      <trkpt lat="44.69192" lon="6.97141">
        <ele>2464.2</ele>
        <time>2022-07-18T07:59:00Z</time>
      </trkpt>
      <trkpt lat="44.69191" lon="6.97143">
        <ele>2464.4</ele>
        <time>2022-07-18T07:59:01Z</time>
      </trkpt>
      <trkpt lat="44.69189" lon="6.97144">
        <ele>2464.4</ele>
        <time>2022-07-18T07:59:02Z</time>
      </trkpt>
      <trkpt lat="44.69187" lon="6.97145">
        <ele>2464.8</ele>
        <time>2022-07-18T07:59:03Z</time>
      </trkpt>
      <trkpt lat="44.69185" lon="6.97146">
        <ele>2464.8</ele>
        <time>2022-07-18T07:59:04Z</time>
      </trkpt>
      <trkpt lat="44.69184" lon="6.97148">
        <ele>2465</ele>
        <time>2022-07-18T07:59:05Z</time>
      </trkpt>
      <trkpt lat="44.69182" lon="6.97149">
        <ele>2465.4</ele>
        <time>2022-07-18T07:59:07Z</time>
      </trkpt>
      <trkpt lat="44.69181" lon="6.9715">
        <ele>2465.4</ele>
        <time>2022-07-18T07:59:08Z</time>
      </trkpt>
      <trkpt lat="44.69179" lon="6.97152">
        <ele>2465.8</ele>
        <time>2022-07-18T07:59:09Z</time>
      </trkpt>
      <trkpt lat="44.69178" lon="6.97154">
        <ele>2465.8</ele>
        <time>2022-07-18T07:59:10Z</time>
      </trkpt>
      <trkpt lat="44.69176" lon="6.97156">
        <ele>2466</ele>
        <time>2022-07-18T07:59:11Z</time>
      </trkpt>
      <trkpt lat="44.69175" lon="6.97158">
        <ele>2466</ele>
        <time>2022-07-18T07:59:12Z</time>
      </trkpt>
      <trkpt lat="44.69173" lon="6.97159">
        <ele>2466.4</ele>
        <time>2022-07-18T07:59:13Z</time>
      </trkpt>
      <trkpt lat="44.69172" lon="6.97161">
        <ele>2466.4</ele>
        <time>2022-07-18T07:59:14Z</time>
      </trkpt>
      <trkpt lat="44.6917" lon="6.97163">
        <ele>2466.6</ele>
        <time>2022-07-18T07:59:15Z</time>
      </trkpt>
      <trkpt lat="44.69169" lon="6.97165">
        <ele>2466.6</ele>
        <time>2022-07-18T07:59:16Z</time>
      </trkpt>
      <trkpt lat="44.69168" lon="6.97167">
        <ele>2466.8</ele>
        <time>2022-07-18T07:59:17Z</time>
      </trkpt>
      <trkpt lat="44.69166" lon="6.97169">
        <ele>2466.8</ele>
        <time>2022-07-18T07:59:18Z</time>
      </trkpt>
      <trkpt lat="44.69165" lon="6.97171">
        <ele>2467.2</ele>
        <time>2022-07-18T07:59:19Z</time>
      </trkpt>
      <trkpt lat="44.69164" lon="6.97173">
        <ele>2467.4</ele>
        <time>2022-07-18T07:59:20Z</time>
      </trkpt>
      <trkpt lat="44.69164" lon="6.97175">
        <ele>2467.8</ele>
        <time>2022-07-18T07:59:21Z</time>
      </trkpt>
      <trkpt lat="44.69163" lon="6.97177">
        <ele>2468</ele>
        <time>2022-07-18T07:59:22Z</time>
      </trkpt>
      <trkpt lat="44.69162" lon="6.97179">
        <ele>2468.2</ele>
        <time>2022-07-18T07:59:23Z</time>
      </trkpt>
      <trkpt lat="44.69162" lon="6.97182">
        <ele>2468.2</ele>
        <time>2022-07-18T07:59:24Z</time>
      </trkpt>
      <trkpt lat="44.69161" lon="6.97184">
        <ele>2468.6</ele>
        <time>2022-07-18T07:59:25Z</time>
      </trkpt>
      <trkpt lat="44.6916" lon="6.97186">
        <ele>2468.8</ele>
        <time>2022-07-18T07:59:26Z</time>
      </trkpt>
      <trkpt lat="44.6916" lon="6.97189">
        <ele>2468.8</ele>
        <time>2022-07-18T07:59:27Z</time>
      </trkpt>
      <trkpt lat="44.69159" lon="6.97191">
        <ele>2469.2</ele>
        <time>2022-07-18T07:59:28Z</time>
      </trkpt>
      <trkpt lat="44.69158" lon="6.97194">
        <ele>2469.2</ele>
        <time>2022-07-18T07:59:29Z</time>
      </trkpt>
      <trkpt lat="44.69157" lon="6.97196">
        <ele>2469.6</ele>
        <time>2022-07-18T07:59:30Z</time>
      </trkpt>
      <trkpt lat="44.69157" lon="6.97199">
        <ele>2469.6</ele>
        <time>2022-07-18T07:59:31Z</time>
      </trkpt>
      <trkpt lat="44.69156" lon="6.97202">
        <ele>2470</ele>
        <time>2022-07-18T07:59:32Z</time>
      </trkpt>
      <trkpt lat="44.69155" lon="6.97204">
        <ele>2470.2</ele>
        <time>2022-07-18T07:59:33Z</time>
      </trkpt>
      <trkpt lat="44.69155" lon="6.97207">
        <ele>2470.2</ele>
        <time>2022-07-18T07:59:34Z</time>
      </trkpt>
      <trkpt lat="44.69154" lon="6.97209">
        <ele>2470.4</ele>
        <time>2022-07-18T07:59:35Z</time>
      </trkpt>
      <trkpt lat="44.69153" lon="6.97212">
        <ele>2470.4</ele>
        <time>2022-07-18T07:59:36Z</time>
      </trkpt>
      <trkpt lat="44.69153" lon="6.97214">
        <ele>2470.8</ele>
        <time>2022-07-18T07:59:37Z</time>
      </trkpt>
      <trkpt lat="44.69153" lon="6.97217">
        <ele>2471.2</ele>
        <time>2022-07-18T07:59:38Z</time>
      </trkpt>
      <trkpt lat="44.69152" lon="6.97219">
        <ele>2471.4</ele>
        <time>2022-07-18T07:59:39Z</time>
      </trkpt>
      <trkpt lat="44.69152" lon="6.97222">
        <ele>2471.8</ele>
        <time>2022-07-18T07:59:40Z</time>
      </trkpt>
      <trkpt lat="44.69151" lon="6.97225">
        <ele>2472</ele>
        <time>2022-07-18T07:59:41Z</time>
      </trkpt>
      <trkpt lat="44.69151" lon="6.97227">
        <ele>2472</ele>
        <time>2022-07-18T07:59:42Z</time>
      </trkpt>
      <trkpt lat="44.6915" lon="6.9723">
        <ele>2472.2</ele>
        <time>2022-07-18T07:59:43Z</time>
      </trkpt>
      <trkpt lat="44.6915" lon="6.97232">
        <ele>2472.2</ele>
        <time>2022-07-18T07:59:44Z</time>
      </trkpt>
      <trkpt lat="44.69149" lon="6.97235">
        <ele>2472.8</ele>
        <time>2022-07-18T07:59:45Z</time>
      </trkpt>
      <trkpt lat="44.69149" lon="6.97237">
        <ele>2473</ele>
        <time>2022-07-18T07:59:46Z</time>
      </trkpt>
      <trkpt lat="44.69149" lon="6.9724">
        <ele>2473</ele>
        <time>2022-07-18T07:59:47Z</time>
      </trkpt>
      <trkpt lat="44.69148" lon="6.97243">
        <ele>2473.2</ele>
        <time>2022-07-18T07:59:48Z</time>
      </trkpt>
      <trkpt lat="44.69147" lon="6.97245">
        <ele>2473.2</ele>
        <time>2022-07-18T07:59:49Z</time>
      </trkpt>
      <trkpt lat="44.69147" lon="6.97248">
        <ele>2473.6</ele>
        <time>2022-07-18T07:59:50Z</time>
      </trkpt>
      <trkpt lat="44.69147" lon="6.9725">
        <ele>2473.6</ele>
        <time>2022-07-18T07:59:51Z</time>
      </trkpt>
      <trkpt lat="44.69146" lon="6.97252">
        <ele>2474</ele>
        <time>2022-07-18T07:59:52Z</time>
      </trkpt>
      <trkpt lat="44.69146" lon="6.97254">
        <ele>2474.2</ele>
        <time>2022-07-18T07:59:53Z</time>
      </trkpt>
      <trkpt lat="44.69145" lon="6.97257">
        <ele>2474.2</ele>
        <time>2022-07-18T07:59:54Z</time>
      </trkpt>
      <trkpt lat="44.69145" lon="6.97259">
        <ele>2474.6</ele>
        <time>2022-07-18T07:59:55Z</time>
      </trkpt>
      <trkpt lat="44.69144" lon="6.97262">
        <ele>2474.6</ele>
        <time>2022-07-18T07:59:56Z</time>
      </trkpt>
      <trkpt lat="44.69144" lon="6.97264">
        <ele>2475</ele>
        <time>2022-07-18T07:59:57Z</time>
      </trkpt>
      <trkpt lat="44.69144" lon="6.97266">
        <ele>2475.2</ele>
        <time>2022-07-18T07:59:58Z</time>
      </trkpt>
      <trkpt lat="44.69144" lon="6.97269">
        <ele>2475.2</ele>
        <time>2022-07-18T07:59:59Z</time>
      </trkpt>
      <trkpt lat="44.69143" lon="6.97271">
        <ele>2475.6</ele>
        <time>2022-07-18T08:00:00Z</time>
      </trkpt>
      <trkpt lat="44.69143" lon="6.97273">
        <ele>2475.6</ele>
        <time>2022-07-18T08:00:01Z</time>
      </trkpt>
      <trkpt lat="44.69143" lon="6.97276">
        <ele>2475.8</ele>
        <time>2022-07-18T08:00:02Z</time>
      </trkpt>
      <trkpt lat="44.69143" lon="6.97278">
        <ele>2475.8</ele>
        <time>2022-07-18T08:00:03Z</time>
      </trkpt>
      <trkpt lat="44.69143" lon="6.9728">
        <ele>2476.2</ele>
        <time>2022-07-18T08:00:04Z</time>
      </trkpt>
      <trkpt lat="44.69143" lon="6.97282">
        <ele>2476.2</ele>
        <time>2022-07-18T08:00:05Z</time>
      </trkpt>
      <trkpt lat="44.69144" lon="6.97285">
        <ele>2476.4</ele>
        <time>2022-07-18T08:00:06Z</time>
      </trkpt>
      <trkpt lat="44.69144" lon="6.97287">
        <ele>2476.4</ele>
        <time>2022-07-18T08:00:07Z</time>
      </trkpt>
      <trkpt lat="44.69144" lon="6.9729">
        <ele>2476.8</ele>
        <time>2022-07-18T08:00:08Z</time>
      </trkpt>
      <trkpt lat="44.69145" lon="6.97292">
        <ele>2476.8</ele>
        <time>2022-07-18T08:00:09Z</time>
      </trkpt>
      <trkpt lat="44.69145" lon="6.97295">
        <ele>2477.2</ele>
        <time>2022-07-18T08:00:10Z</time>
      </trkpt>
      <trkpt lat="44.69146" lon="6.97297">
        <ele>2477.2</ele>
        <time>2022-07-18T08:00:11Z</time>
      </trkpt>
      <trkpt lat="44.69147" lon="6.97299">
        <ele>2477.6</ele>
        <time>2022-07-18T08:00:12Z</time>
      </trkpt>
      <trkpt lat="44.69148" lon="6.97301">
        <ele>2477.6</ele>
        <time>2022-07-18T08:00:13Z</time>
      </trkpt>
      <trkpt lat="44.69148" lon="6.97303">
        <ele>2477.8</ele>
        <time>2022-07-18T08:00:14Z</time>
      </trkpt>
      <trkpt lat="44.69149" lon="6.97305">
        <ele>2477.8</ele>
        <time>2022-07-18T08:00:15Z</time>
      </trkpt>
      <trkpt lat="44.69149" lon="6.97307">
        <ele>2478.2</ele>
        <time>2022-07-18T08:00:16Z</time>
      </trkpt>
      <trkpt lat="44.6915" lon="6.97309">
        <ele>2478.2</ele>
        <time>2022-07-18T08:00:17Z</time>
      </trkpt>
      <trkpt lat="44.69151" lon="6.97311">
        <ele>2478.4</ele>
        <time>2022-07-18T08:00:18Z</time>
      </trkpt>
      <trkpt lat="44.69151" lon="6.97314">
        <ele>2478.8</ele>
        <time>2022-07-18T08:00:19Z</time>
      </trkpt>
      <trkpt lat="44.69151" lon="6.97316">
        <ele>2478.8</ele>
        <time>2022-07-18T08:00:20Z</time>
      </trkpt>
      <trkpt lat="44.69151" lon="6.97318">
        <ele>2479</ele>
        <time>2022-07-18T08:00:21Z</time>
      </trkpt>
      <trkpt lat="44.69151" lon="6.9732">
        <ele>2479.4</ele>
        <time>2022-07-18T08:00:22Z</time>
      </trkpt>
      <trkpt lat="44.6915" lon="6.97322">
        <ele>2479.4</ele>
        <time>2022-07-18T08:00:23Z</time>
      </trkpt>
      <trkpt lat="44.69149" lon="6.97324">
        <ele>2479.6</ele>
        <time>2022-07-18T08:00:24Z</time>
      </trkpt>
      <trkpt lat="44.69148" lon="6.97326">
        <ele>2479.6</ele>
        <time>2022-07-18T08:00:25Z</time>
      </trkpt>
      <trkpt lat="44.69146" lon="6.97328">
        <ele>2480</ele>
        <time>2022-07-18T08:00:26Z</time>
      </trkpt>
      <trkpt lat="44.69145" lon="6.97329">
        <ele>2480</ele>
        <time>2022-07-18T08:00:27Z</time>
      </trkpt>
      <trkpt lat="44.69144" lon="6.97331">
        <ele>2480.4</ele>
        <time>2022-07-18T08:00:28Z</time>
      </trkpt>
      <trkpt lat="44.69142" lon="6.97333">
        <ele>2480.6</ele>
        <time>2022-07-18T08:00:29Z</time>
      </trkpt>
      <trkpt lat="44.69141" lon="6.97335">
        <ele>2480.6</ele>
        <time>2022-07-18T08:00:30Z</time>
      </trkpt>
      <trkpt lat="44.6914" lon="6.97337">
        <ele>2480.8</ele>
        <time>2022-07-18T08:00:31Z</time>
      </trkpt>
      <trkpt lat="44.69139" lon="6.97338">
        <ele>2480.8</ele>
        <time>2022-07-18T08:00:32Z</time>
      </trkpt>
      <trkpt lat="44.69137" lon="6.9734">
        <ele>2481.2</ele>
        <time>2022-07-18T08:00:33Z</time>
      </trkpt>
      <trkpt lat="44.69136" lon="6.97341">
        <ele>2481.4</ele>
        <time>2022-07-18T08:00:34Z</time>
      </trkpt>
      <trkpt lat="44.69134" lon="6.97343">
        <ele>2481.4</ele>
        <time>2022-07-18T08:00:35Z</time>
      </trkpt>
      <trkpt lat="44.69132" lon="6.97344">
        <ele>2481.6</ele>
        <time>2022-07-18T08:00:36Z</time>
      </trkpt>
      <trkpt lat="44.69131" lon="6.97345">
        <ele>2482</ele>
        <time>2022-07-18T08:00:37Z</time>
      </trkpt>
      <trkpt lat="44.69129" lon="6.97346">
        <ele>2482</ele>
        <time>2022-07-18T08:00:38Z</time>
      </trkpt>
      <trkpt lat="44.69128" lon="6.97347">
        <ele>2482.2</ele>
        <time>2022-07-18T08:00:39Z</time>
      </trkpt>
      <trkpt lat="44.69126" lon="6.97348">
        <ele>2482.2</ele>
        <time>2022-07-18T08:00:40Z</time>
      </trkpt>
      <trkpt lat="44.69124" lon="6.97348">
        <ele>2482.2</ele>
        <time>2022-07-18T08:00:41Z</time>
      </trkpt>
      <trkpt lat="44.69122" lon="6.97348">
        <ele>2482.4</ele>
        <time>2022-07-18T08:00:42Z</time>
      </trkpt>
      <trkpt lat="44.69121" lon="6.97349">
        <ele>2482.4</ele>
        <time>2022-07-18T08:00:43Z</time>
      </trkpt>
      <trkpt lat="44.69119" lon="6.97349">
        <ele>2482.4</ele>
        <time>2022-07-18T08:00:44Z</time>
      </trkpt>
      <trkpt lat="44.69117" lon="6.9735">
        <ele>2482.8</ele>
        <time>2022-07-18T08:00:45Z</time>
      </trkpt>
      <trkpt lat="44.69116" lon="6.9735">
        <ele>2483</ele>
        <time>2022-07-18T08:00:46Z</time>
      </trkpt>
      <trkpt lat="44.69114" lon="6.97351">
        <ele>2483</ele>
        <time>2022-07-18T08:00:47Z</time>
      </trkpt>
      <trkpt lat="44.69112" lon="6.97351">
        <ele>2483.4</ele>
        <time>2022-07-18T08:00:48Z</time>
      </trkpt>
      <trkpt lat="44.69111" lon="6.97352">
        <ele>2483.4</ele>
        <time>2022-07-18T08:00:49Z</time>
      </trkpt>
      <trkpt lat="44.69109" lon="6.97353">
        <ele>2483.6</ele>
        <time>2022-07-18T08:00:50Z</time>
      </trkpt>
      <trkpt lat="44.69107" lon="6.97353">
        <ele>2483.6</ele>
        <time>2022-07-18T08:00:51Z</time>
      </trkpt>
      <trkpt lat="44.69105" lon="6.97354">
        <ele>2484</ele>
        <time>2022-07-18T08:00:52Z</time>
      </trkpt>
      <trkpt lat="44.69104" lon="6.97355">
        <ele>2484</ele>
        <time>2022-07-18T08:00:53Z</time>
      </trkpt>
      <trkpt lat="44.69102" lon="6.97356">
        <ele>2484.2</ele>
        <time>2022-07-18T08:00:54Z</time>
      </trkpt>
      <trkpt lat="44.691" lon="6.97356">
        <ele>2484.2</ele>
        <time>2022-07-18T08:00:55Z</time>
      </trkpt>
      <trkpt lat="44.69099" lon="6.97357">
        <ele>2484.2</ele>
        <time>2022-07-18T08:00:56Z</time>
      </trkpt>
      <trkpt lat="44.69097" lon="6.97358">
        <ele>2484.6</ele>
        <time>2022-07-18T08:00:57Z</time>
      </trkpt>
      <trkpt lat="44.69095" lon="6.97359">
        <ele>2484.6</ele>
        <time>2022-07-18T08:00:58Z</time>
      </trkpt>
      <trkpt lat="44.69094" lon="6.9736">
        <ele>2485</ele>
        <time>2022-07-18T08:00:59Z</time>
      </trkpt>
      <trkpt lat="44.69092" lon="6.97361">
        <ele>2485</ele>
        <time>2022-07-18T08:01:00Z</time>
      </trkpt>
      <trkpt lat="44.6909" lon="6.97362">
        <ele>2485.2</ele>
        <time>2022-07-18T08:01:01Z</time>
      </trkpt>
      <trkpt lat="44.69089" lon="6.97364">
        <ele>2485.2</ele>
        <time>2022-07-18T08:01:02Z</time>
      </trkpt>
      <trkpt lat="44.69087" lon="6.97365">
        <ele>2485.6</ele>
        <time>2022-07-18T08:01:03Z</time>
      </trkpt>
      <trkpt lat="44.69085" lon="6.97366">
        <ele>2485.8</ele>
        <time>2022-07-18T08:01:04Z</time>
      </trkpt>
      <trkpt lat="44.69084" lon="6.97367">
        <ele>2486</ele>
        <time>2022-07-18T08:01:05Z</time>
      </trkpt>
      <trkpt lat="44.69082" lon="6.97368">
        <ele>2486</ele>
        <time>2022-07-18T08:01:06Z</time>
      </trkpt>
      <trkpt lat="44.69081" lon="6.97369">
        <ele>2486.2</ele>
        <time>2022-07-18T08:01:07Z</time>
      </trkpt>
      <trkpt lat="44.6908" lon="6.9737">
        <ele>2486.2</ele>
        <time>2022-07-18T08:01:08Z</time>
      </trkpt>
      <trkpt lat="44.69078" lon="6.97372">
        <ele>2486.6</ele>
        <time>2022-07-18T08:01:09Z</time>
      </trkpt>
      <trkpt lat="44.69077" lon="6.97373">
        <ele>2486.8</ele>
        <time>2022-07-18T08:01:10Z</time>
      </trkpt>
      <trkpt lat="44.69075" lon="6.97374">
        <ele>2487</ele>
        <time>2022-07-18T08:01:11Z</time>
      </trkpt>
      <trkpt lat="44.69074" lon="6.97375">
        <ele>2487</ele>
        <time>2022-07-18T08:01:12Z</time>
      </trkpt>
      <trkpt lat="44.69072" lon="6.97376">
        <ele>2487.4</ele>
        <time>2022-07-18T08:01:13Z</time>
      </trkpt>
      <trkpt lat="44.69071" lon="6.97377">
        <ele>2487.4</ele>
        <time>2022-07-18T08:01:14Z</time>
      </trkpt>
      <trkpt lat="44.6907" lon="6.97378">
        <ele>2487.4</ele>
        <time>2022-07-18T08:01:15Z</time>
      </trkpt>
      <trkpt lat="44.69068" lon="6.9738">
        <ele>2487.6</ele>
        <time>2022-07-18T08:01:16Z</time>
      </trkpt>
      <trkpt lat="44.69067" lon="6.9738">
        <ele>2487.6</ele>
        <time>2022-07-18T08:01:17Z</time>
      </trkpt>
      <trkpt lat="44.69065" lon="6.97381">
        <ele>2488</ele>
        <time>2022-07-18T08:01:18Z</time>
      </trkpt>
      <trkpt lat="44.69064" lon="6.97383">
        <ele>2488.2</ele>
        <time>2022-07-18T08:01:19Z</time>
      </trkpt>
      <trkpt lat="44.69062" lon="6.97384">
        <ele>2488.2</ele>
        <time>2022-07-18T08:01:20Z</time>
      </trkpt>
      <trkpt lat="44.6906" lon="6.97385">
        <ele>2488.6</ele>
        <time>2022-07-18T08:01:21Z</time>
      </trkpt>
      <trkpt lat="44.69059" lon="6.97386">
        <ele>2488.8</ele>
        <time>2022-07-18T08:01:22Z</time>
      </trkpt>
      <trkpt lat="44.69057" lon="6.97387">
        <ele>2488.8</ele>
        <time>2022-07-18T08:01:23Z</time>
      </trkpt>
      <trkpt lat="44.69056" lon="6.97388">
        <ele>2488.8</ele>
        <time>2022-07-18T08:01:24Z</time>
      </trkpt>
      <trkpt lat="44.69054" lon="6.9739">
        <ele>2489.2</ele>
        <time>2022-07-18T08:01:25Z</time>
      </trkpt>
      <trkpt lat="44.69053" lon="6.97391">
        <ele>2489.4</ele>
        <time>2022-07-18T08:01:26Z</time>
      </trkpt>
      <trkpt lat="44.69051" lon="6.97392">
        <ele>2489.6</ele>
        <time>2022-07-18T08:01:27Z</time>
      </trkpt>
      <trkpt lat="44.6905" lon="6.97393">
        <ele>2489.8</ele>
        <time>2022-07-18T08:01:28Z</time>
      </trkpt>
      <trkpt lat="44.69048" lon="6.97394">
        <ele>2490</ele>
        <time>2022-07-18T08:01:29Z</time>
      </trkpt>
      <trkpt lat="44.69047" lon="6.97395">
        <ele>2490</ele>
        <time>2022-07-18T08:01:30Z</time>
      </trkpt>
      <trkpt lat="44.69045" lon="6.97397">
        <ele>2490.4</ele>
        <time>2022-07-18T08:01:31Z</time>
      </trkpt>
      <trkpt lat="44.69043" lon="6.97398">
        <ele>2490.4</ele>
        <time>2022-07-18T08:01:32Z</time>
      </trkpt>
      <trkpt lat="44.69042" lon="6.97399">
        <ele>2490.8</ele>
        <time>2022-07-18T08:01:33Z</time>
      </trkpt>
      <trkpt lat="44.6904" lon="6.97401">
        <ele>2490.8</ele>
        <time>2022-07-18T08:01:34Z</time>
      </trkpt>
      <trkpt lat="44.69039" lon="6.97402">
        <ele>2491.2</ele>
        <time>2022-07-18T08:01:35Z</time>
      </trkpt>
      <trkpt lat="44.69037" lon="6.97404">
        <ele>2491.2</ele>
        <time>2022-07-18T08:01:36Z</time>
      </trkpt>
      <trkpt lat="44.69035" lon="6.97405">
        <ele>2491.6</ele>
        <time>2022-07-18T08:01:37Z</time>
      </trkpt>
      <trkpt lat="44.69034" lon="6.97407">
        <ele>2491.6</ele>
        <time>2022-07-18T08:01:38Z</time>
      </trkpt>
      <trkpt lat="44.69032" lon="6.97408">
        <ele>2491.8</ele>
        <time>2022-07-18T08:01:39Z</time>
      </trkpt>
      <trkpt lat="44.69031" lon="6.9741">
        <ele>2491.8</ele>
        <time>2022-07-18T08:01:40Z</time>
      </trkpt>
      <trkpt lat="44.69029" lon="6.97411">
        <ele>2492.2</ele>
        <time>2022-07-18T08:01:41Z</time>
      </trkpt>
      <trkpt lat="44.69028" lon="6.97413">
        <ele>2492.4</ele>
        <time>2022-07-18T08:01:42Z</time>
      </trkpt>
      <trkpt lat="44.69026" lon="6.97415">
        <ele>2492.4</ele>
        <time>2022-07-18T08:01:43Z</time>
      </trkpt>
      <trkpt lat="44.69025" lon="6.97416">
        <ele>2492.8</ele>
        <time>2022-07-18T08:01:44Z</time>
      </trkpt>
      <trkpt lat="44.69023" lon="6.97418">
        <ele>2492.8</ele>
        <time>2022-07-18T08:01:45Z</time>
      </trkpt>
      <trkpt lat="44.69022" lon="6.97419">
        <ele>2493.2</ele>
        <time>2022-07-18T08:01:46Z</time>
      </trkpt>
      <trkpt lat="44.69021" lon="6.97421">
        <ele>2493.4</ele>
        <time>2022-07-18T08:01:47Z</time>
      </trkpt>
      <trkpt lat="44.69019" lon="6.97423">
        <ele>2493.6</ele>
        <time>2022-07-18T08:01:48Z</time>
      </trkpt>
      <trkpt lat="44.69018" lon="6.97425">
        <ele>2493.8</ele>
        <time>2022-07-18T08:01:49Z</time>
      </trkpt>
      <trkpt lat="44.69017" lon="6.97426">
        <ele>2493.8</ele>
        <time>2022-07-18T08:01:50Z</time>
      </trkpt>
      <trkpt lat="44.69016" lon="6.97428">
        <ele>2494.2</ele>
        <time>2022-07-18T08:01:51Z</time>
      </trkpt>
      <trkpt lat="44.69015" lon="6.9743">
        <ele>2494.4</ele>
        <time>2022-07-18T08:01:52Z</time>
      </trkpt>
      <trkpt lat="44.69014" lon="6.97432">
        <ele>2494.6</ele>
        <time>2022-07-18T08:01:53Z</time>
      </trkpt>
      <trkpt lat="44.69013" lon="6.97434">
        <ele>2494.6</ele>
        <time>2022-07-18T08:01:54Z</time>
      </trkpt>
      <trkpt lat="44.69012" lon="6.97436">
        <ele>2495</ele>
        <time>2022-07-18T08:01:55Z</time>
      </trkpt>
      <trkpt lat="44.69012" lon="6.97438">
        <ele>2495.4</ele>
        <time>2022-07-18T08:01:56Z</time>
      </trkpt>
      <trkpt lat="44.69011" lon="6.9744">
        <ele>2495.4</ele>
        <time>2022-07-18T08:01:57Z</time>
      </trkpt>
      <trkpt lat="44.6901" lon="6.97442">
        <ele>2495.8</ele>
        <time>2022-07-18T08:01:58Z</time>
      </trkpt>
      <trkpt lat="44.6901" lon="6.97445">
        <ele>2495.8</ele>
        <time>2022-07-18T08:01:59Z</time>
      </trkpt>
      <trkpt lat="44.69009" lon="6.97447">
        <ele>2496</ele>
        <time>2022-07-18T08:02:00Z</time>
      </trkpt>
      <trkpt lat="44.69008" lon="6.97449">
        <ele>2496</ele>
        <time>2022-07-18T08:02:01Z</time>
      </trkpt>
      <trkpt lat="44.69008" lon="6.97452">
        <ele>2496.4</ele>
        <time>2022-07-18T08:02:02Z</time>
      </trkpt>
      <trkpt lat="44.69008" lon="6.97454">
        <ele>2496.6</ele>
        <time>2022-07-18T08:02:03Z</time>
      </trkpt>
      <trkpt lat="44.69008" lon="6.97457">
        <ele>2496.8</ele>
        <time>2022-07-18T08:02:04Z</time>
      </trkpt>
      <trkpt lat="44.69007" lon="6.97459">
        <ele>2497</ele>
        <time>2022-07-18T08:02:05Z</time>
      </trkpt>
      <trkpt lat="44.69008" lon="6.97462">
        <ele>2497</ele>
        <time>2022-07-18T08:02:06Z</time>
      </trkpt>
      <trkpt lat="44.69008" lon="6.97464">
        <ele>2497.4</ele>
        <time>2022-07-18T08:02:07Z</time>
      </trkpt>
      <trkpt lat="44.69008" lon="6.97467">
        <ele>2497.4</ele>
        <time>2022-07-18T08:02:08Z</time>
      </trkpt>
      <trkpt lat="44.69008" lon="6.97469">
        <ele>2497.6</ele>
        <time>2022-07-18T08:02:09Z</time>
      </trkpt>
      <trkpt lat="44.69009" lon="6.97471">
        <ele>2497.6</ele>
        <time>2022-07-18T08:02:10Z</time>
      </trkpt>
      <trkpt lat="44.69009" lon="6.97473">
        <ele>2498</ele>
        <time>2022-07-18T08:02:11Z</time>
      </trkpt>
      <trkpt lat="44.69009" lon="6.97476">
        <ele>2498</ele>
        <time>2022-07-18T08:02:12Z</time>
      </trkpt>
      <trkpt lat="44.6901" lon="6.97478">
        <ele>2498.2</ele>
        <time>2022-07-18T08:02:13Z</time>
      </trkpt>
      <trkpt lat="44.6901" lon="6.9748">
        <ele>2498.2</ele>
        <time>2022-07-18T08:02:14Z</time>
      </trkpt>
      <trkpt lat="44.6901" lon="6.97483">
        <ele>2498.6</ele>
        <time>2022-07-18T08:02:15Z</time>
      </trkpt>
      <trkpt lat="44.69011" lon="6.97485">
        <ele>2498.6</ele>
        <time>2022-07-18T08:02:16Z</time>
      </trkpt>
      <trkpt lat="44.69011" lon="6.97487">
        <ele>2499</ele>
        <time>2022-07-18T08:02:17Z</time>
      </trkpt>
      <trkpt lat="44.69012" lon="6.97489">
        <ele>2499</ele>
        <time>2022-07-18T08:02:18Z</time>
      </trkpt>
      <trkpt lat="44.69012" lon="6.97492">
        <ele>2499.4</ele>
        <time>2022-07-18T08:02:19Z</time>
      </trkpt>
      <trkpt lat="44.69012" lon="6.97494">
        <ele>2499.4</ele>
        <time>2022-07-18T08:02:20Z</time>
      </trkpt>
      <trkpt lat="44.69013" lon="6.97496">
        <ele>2499.8</ele>
        <time>2022-07-18T08:02:21Z</time>
      </trkpt>
      <trkpt lat="44.69013" lon="6.97498">
        <ele>2499.8</ele>
        <time>2022-07-18T08:02:22Z</time>
      </trkpt>
      <trkpt lat="44.69013" lon="6.97501">
        <ele>2500.2</ele>
        <time>2022-07-18T08:02:23Z</time>
      </trkpt>
      <trkpt lat="44.69013" lon="6.97503">
        <ele>2500.2</ele>
        <time>2022-07-18T08:02:24Z</time>
      </trkpt>
      <trkpt lat="44.69014" lon="6.97505">
        <ele>2500.6</ele>
        <time>2022-07-18T08:02:25Z</time>
      </trkpt>
      <trkpt lat="44.69014" lon="6.97507">
        <ele>2500.6</ele>
        <time>2022-07-18T08:02:26Z</time>
      </trkpt>
      <trkpt lat="44.69013" lon="6.97509">
        <ele>2500.8</ele>
        <time>2022-07-18T08:02:27Z</time>
      </trkpt>
      <trkpt lat="44.69013" lon="6.97512">
        <ele>2500.8</ele>
        <time>2022-07-18T08:02:28Z</time>
      </trkpt>
      <trkpt lat="44.69013" lon="6.97514">
        <ele>2501.2</ele>
        <time>2022-07-18T08:02:29Z</time>
      </trkpt>
      <trkpt lat="44.69013" lon="6.97517">
        <ele>2501.2</ele>
        <time>2022-07-18T08:02:30Z</time>
      </trkpt>
      <trkpt lat="44.69013" lon="6.97519">
        <ele>2501.6</ele>
        <time>2022-07-18T08:02:31Z</time>
      </trkpt>
      <trkpt lat="44.69013" lon="6.97521">
        <ele>2501.8</ele>
        <time>2022-07-18T08:02:32Z</time>
      </trkpt>
      <trkpt lat="44.69012" lon="6.97524">
        <ele>2501.8</ele>
        <time>2022-07-18T08:02:33Z</time>
      </trkpt>
      <trkpt lat="44.69012" lon="6.97526">
        <ele>2502.2</ele>
        <time>2022-07-18T08:02:34Z</time>
      </trkpt>
      <trkpt lat="44.69012" lon="6.97529">
        <ele>2502.4</ele>
        <time>2022-07-18T08:02:35Z</time>
      </trkpt>
      <trkpt lat="44.69012" lon="6.97531">
        <ele>2502.4</ele>
        <time>2022-07-18T08:02:36Z</time>
      </trkpt>
      <trkpt lat="44.69011" lon="6.97534">
        <ele>2502.6</ele>
        <time>2022-07-18T08:02:37Z</time>
      </trkpt>
      <trkpt lat="44.69011" lon="6.97536">
        <ele>2502.6</ele>
        <time>2022-07-18T08:02:38Z</time>
      </trkpt>
      <trkpt lat="44.69011" lon="6.97539">
        <ele>2503</ele>
        <time>2022-07-18T08:02:39Z</time>
      </trkpt>
      <trkpt lat="44.6901" lon="6.97541">
        <ele>2503</ele>
        <time>2022-07-18T08:02:40Z</time>
      </trkpt>
      <trkpt lat="44.6901" lon="6.97544">
        <ele>2503.4</ele>
        <time>2022-07-18T08:02:41Z</time>
      </trkpt>
      <trkpt lat="44.69009" lon="6.97546">
        <ele>2503.8</ele>
        <time>2022-07-18T08:02:42Z</time>
      </trkpt>
      <trkpt lat="44.69009" lon="6.97548">
        <ele>2503.8</ele>
        <time>2022-07-18T08:02:43Z</time>
      </trkpt>
      <trkpt lat="44.69008" lon="6.97551">
        <ele>2504</ele>
        <time>2022-07-18T08:02:44Z</time>
      </trkpt>
      <trkpt lat="44.69008" lon="6.97554">
        <ele>2504</ele>
        <time>2022-07-18T08:02:45Z</time>
      </trkpt>
      <trkpt lat="44.69008" lon="6.97558">
        <ele>2504.4</ele>
        <time>2022-07-18T08:02:46Z</time>
      </trkpt>
      <trkpt lat="44.69009" lon="6.9756">
        <ele>2504.4</ele>
        <time>2022-07-18T08:02:47Z</time>
      </trkpt>
      <trkpt lat="44.69009" lon="6.97563">
        <ele>2504.8</ele>
        <time>2022-07-18T08:02:48Z</time>
      </trkpt>
      <trkpt lat="44.69009" lon="6.97565">
        <ele>2505</ele>
        <time>2022-07-18T08:02:49Z</time>
      </trkpt>
      <trkpt lat="44.6901" lon="6.97568">
        <ele>2505.2</ele>
        <time>2022-07-18T08:02:50Z</time>
      </trkpt>
      <trkpt lat="44.69011" lon="6.9757">
        <ele>2505.6</ele>
        <time>2022-07-18T08:02:51Z</time>
      </trkpt>
      <trkpt lat="44.69011" lon="6.97572">
        <ele>2505.8</ele>
        <time>2022-07-18T08:02:52Z</time>
      </trkpt>
      <trkpt lat="44.69012" lon="6.97574">
        <ele>2505.8</ele>
        <time>2022-07-18T08:02:53Z</time>
      </trkpt>
      <trkpt lat="44.69013" lon="6.97576">
        <ele>2506.2</ele>
        <time>2022-07-18T08:02:54Z</time>
      </trkpt>
      <trkpt lat="44.69014" lon="6.97578">
        <ele>2506.2</ele>
        <time>2022-07-18T08:02:55Z</time>
      </trkpt>
      <trkpt lat="44.69015" lon="6.9758">
        <ele>2506.6</ele>
        <time>2022-07-18T08:02:56Z</time>
      </trkpt>
      <trkpt lat="44.69016" lon="6.97582">
        <ele>2506.6</ele>
        <time>2022-07-18T08:02:57Z</time>
      </trkpt>
      <trkpt lat="44.69017" lon="6.97584">
        <ele>2506.8</ele>
        <time>2022-07-18T08:02:58Z</time>
      </trkpt>
      <trkpt lat="44.69017" lon="6.97586">
        <ele>2506.8</ele>
        <time>2022-07-18T08:02:59Z</time>
      </trkpt>
      <trkpt lat="44.69018" lon="6.97588">
        <ele>2507.2</ele>
        <time>2022-07-18T08:03:00Z</time>
      </trkpt>
      <trkpt lat="44.69019" lon="6.9759">
        <ele>2507.2</ele>
        <time>2022-07-18T08:03:01Z</time>
      </trkpt>
      <trkpt lat="44.6902" lon="6.97592">
        <ele>2507.4</ele>
        <time>2022-07-18T08:03:02Z</time>
      </trkpt>
      <trkpt lat="44.69021" lon="6.97594">
        <ele>2507.6</ele>
        <time>2022-07-18T08:03:03Z</time>
      </trkpt>
      <trkpt lat="44.69022" lon="6.97596">
        <ele>2507.6</ele>
        <time>2022-07-18T08:03:04Z</time>
      </trkpt>
      <trkpt lat="44.69023" lon="6.97598">
        <ele>2508</ele>
        <time>2022-07-18T08:03:05Z</time>
      </trkpt>
      <trkpt lat="44.69024" lon="6.976">
        <ele>2508</ele>
        <time>2022-07-18T08:03:06Z</time>
      </trkpt>
      <trkpt lat="44.69025" lon="6.97602">
        <ele>2508.2</ele>
        <time>2022-07-18T08:03:07Z</time>
      </trkpt>
      <trkpt lat="44.69026" lon="6.97604">
        <ele>2508.2</ele>
        <time>2022-07-18T08:03:08Z</time>
      </trkpt>
      <trkpt lat="44.69027" lon="6.97606">
        <ele>2508.6</ele>
        <time>2022-07-18T08:03:09Z</time>
      </trkpt>
      <trkpt lat="44.69027" lon="6.97608">
        <ele>2508.6</ele>
        <time>2022-07-18T08:03:10Z</time>
      </trkpt>
      <trkpt lat="44.69028" lon="6.9761">
        <ele>2508.8</ele>
        <time>2022-07-18T08:03:11Z</time>
      </trkpt>
      <trkpt lat="44.69029" lon="6.97612">
        <ele>2508.8</ele>
        <time>2022-07-18T08:03:12Z</time>
      </trkpt>
      <trkpt lat="44.6903" lon="6.97614">
        <ele>2509</ele>
        <time>2022-07-18T08:03:13Z</time>
      </trkpt>
      <trkpt lat="44.69031" lon="6.97616">
        <ele>2509</ele>
        <time>2022-07-18T08:03:14Z</time>
      </trkpt>
      <trkpt lat="44.69032" lon="6.97619">
        <ele>2509</ele>
        <time>2022-07-18T08:03:15Z</time>
      </trkpt>
      <trkpt lat="44.69033" lon="6.97621">
        <ele>2509.4</ele>
        <time>2022-07-18T08:03:16Z</time>
      </trkpt>
      <trkpt lat="44.69034" lon="6.97623">
        <ele>2509.4</ele>
        <time>2022-07-18T08:03:17Z</time>
      </trkpt>
      <trkpt lat="44.69035" lon="6.97625">
        <ele>2509.6</ele>
        <time>2022-07-18T08:03:18Z</time>
      </trkpt>
      <trkpt lat="44.69036" lon="6.97627">
        <ele>2509.6</ele>
        <time>2022-07-18T08:03:19Z</time>
      </trkpt>
      <trkpt lat="44.69037" lon="6.97629">
        <ele>2510</ele>
        <time>2022-07-18T08:03:20Z</time>
      </trkpt>
      <trkpt lat="44.69038" lon="6.97631">
        <ele>2510</ele>
        <time>2022-07-18T08:03:21Z</time>
      </trkpt>
      <trkpt lat="44.69039" lon="6.97634">
        <ele>2510.2</ele>
        <time>2022-07-18T08:03:22Z</time>
      </trkpt>
      <trkpt lat="44.6904" lon="6.97636">
        <ele>2510.2</ele>
        <time>2022-07-18T08:03:23Z</time>
      </trkpt>
      <trkpt lat="44.69041" lon="6.97638">
        <ele>2510.4</ele>
        <time>2022-07-18T08:03:24Z</time>
      </trkpt>
      <trkpt lat="44.69042" lon="6.97641">
        <ele>2510.4</ele>
        <time>2022-07-18T08:03:25Z</time>
      </trkpt>
      <trkpt lat="44.69043" lon="6.97643">
        <ele>2510.8</ele>
        <time>2022-07-18T08:03:26Z</time>
      </trkpt>
      <trkpt lat="44.69044" lon="6.97645">
        <ele>2511</ele>
        <time>2022-07-18T08:03:27Z</time>
      </trkpt>
      <trkpt lat="44.69045" lon="6.97648">
        <ele>2511</ele>
        <time>2022-07-18T08:03:28Z</time>
      </trkpt>
      <trkpt lat="44.69046" lon="6.9765">
        <ele>2511.2</ele>
        <time>2022-07-18T08:03:29Z</time>
      </trkpt>
      <trkpt lat="44.69047" lon="6.97652">
        <ele>2511.2</ele>
        <time>2022-07-18T08:03:30Z</time>
      </trkpt>
      <trkpt lat="44.69048" lon="6.97654">
        <ele>2511.4</ele>
        <time>2022-07-18T08:03:31Z</time>
      </trkpt>
      <trkpt lat="44.69049" lon="6.97657">
        <ele>2511.4</ele>
        <time>2022-07-18T08:03:32Z</time>
      </trkpt>
      <trkpt lat="44.6905" lon="6.97659">
        <ele>2511.8</ele>
        <time>2022-07-18T08:03:33Z</time>
      </trkpt>
      <trkpt lat="44.69051" lon="6.97662">
        <ele>2511.8</ele>
        <time>2022-07-18T08:03:34Z</time>
      </trkpt>
      <trkpt lat="44.69051" lon="6.97664">
        <ele>2512</ele>
        <time>2022-07-18T08:03:35Z</time>
      </trkpt>
      <trkpt lat="44.69052" lon="6.97666">
        <ele>2512</ele>
        <time>2022-07-18T08:03:36Z</time>
      </trkpt>
      <trkpt lat="44.69053" lon="6.97668">
        <ele>2512.4</ele>
        <time>2022-07-18T08:03:37Z</time>
      </trkpt>
      <trkpt lat="44.69053" lon="6.9767">
        <ele>2512.4</ele>
        <time>2022-07-18T08:03:38Z</time>
      </trkpt>
      <trkpt lat="44.69054" lon="6.97673">
        <ele>2512.4</ele>
        <time>2022-07-18T08:03:39Z</time>
      </trkpt>
      <trkpt lat="44.69054" lon="6.97675">
        <ele>2512.6</ele>
        <time>2022-07-18T08:03:40Z</time>
      </trkpt>
      <trkpt lat="44.69055" lon="6.97677">
        <ele>2512.6</ele>
        <time>2022-07-18T08:03:41Z</time>
      </trkpt>
      <trkpt lat="44.69055" lon="6.97679">
        <ele>2512.8</ele>
        <time>2022-07-18T08:03:42Z</time>
      </trkpt>
      <trkpt lat="44.69056" lon="6.97681">
        <ele>2512.8</ele>
        <time>2022-07-18T08:03:43Z</time>
      </trkpt>
      <trkpt lat="44.69057" lon="6.97683">
        <ele>2513.2</ele>
        <time>2022-07-18T08:03:44Z</time>
      </trkpt>
      <trkpt lat="44.69057" lon="6.97686">
        <ele>2513.2</ele>
        <time>2022-07-18T08:03:45Z</time>
      </trkpt>
      <trkpt lat="44.69057" lon="6.97688">
        <ele>2513.6</ele>
        <time>2022-07-18T08:03:46Z</time>
      </trkpt>
      <trkpt lat="44.69057" lon="6.9769">
        <ele>2513.6</ele>
        <time>2022-07-18T08:03:47Z</time>
      </trkpt>
      <trkpt lat="44.69057" lon="6.97693">
        <ele>2513.8</ele>
        <time>2022-07-18T08:03:48Z</time>
      </trkpt>
      <trkpt lat="44.69057" lon="6.97695">
        <ele>2513.8</ele>
        <time>2022-07-18T08:03:49Z</time>
      </trkpt>
      <trkpt lat="44.69057" lon="6.97697">
        <ele>2514.2</ele>
        <time>2022-07-18T08:03:50Z</time>
      </trkpt>
      <trkpt lat="44.69057" lon="6.97699">
        <ele>2514.4</ele>
        <time>2022-07-18T08:03:51Z</time>
      </trkpt>
      <trkpt lat="44.69056" lon="6.97702">
        <ele>2514.6</ele>
        <time>2022-07-18T08:03:52Z</time>
      </trkpt>
      <trkpt lat="44.69056" lon="6.97704">
        <ele>2514.8</ele>
        <time>2022-07-18T08:03:53Z</time>
      </trkpt>
      <trkpt lat="44.69056" lon="6.97706">
        <ele>2514.8</ele>
        <time>2022-07-18T08:03:54Z</time>
      </trkpt>
      <trkpt lat="44.69056" lon="6.97709">
        <ele>2515.2</ele>
        <time>2022-07-18T08:03:55Z</time>
      </trkpt>
      <trkpt lat="44.69056" lon="6.97711">
        <ele>2515.2</ele>
        <time>2022-07-18T08:03:56Z</time>
      </trkpt>
      <trkpt lat="44.69056" lon="6.97713">
        <ele>2515.4</ele>
        <time>2022-07-18T08:03:57Z</time>
      </trkpt>
      <trkpt lat="44.69056" lon="6.97716">
        <ele>2515.4</ele>
        <time>2022-07-18T08:03:58Z</time>
      </trkpt>
      <trkpt lat="44.69056" lon="6.97718">
        <ele>2515.8</ele>
        <time>2022-07-18T08:03:59Z</time>
      </trkpt>
      <trkpt lat="44.69056" lon="6.9772">
        <ele>2516</ele>
        <time>2022-07-18T08:04:00Z</time>
      </trkpt>
      <trkpt lat="44.69056" lon="6.97723">
        <ele>2516</ele>
        <time>2022-07-18T08:04:01Z</time>
      </trkpt>
      <trkpt lat="44.69055" lon="6.97725">
        <ele>2516.2</ele>
        <time>2022-07-18T08:04:02Z</time>
      </trkpt>
      <trkpt lat="44.69055" lon="6.97727">
        <ele>2516.2</ele>
        <time>2022-07-18T08:04:03Z</time>
      </trkpt>
      <trkpt lat="44.69054" lon="6.97729">
        <ele>2516.6</ele>
        <time>2022-07-18T08:04:04Z</time>
      </trkpt>
      <trkpt lat="44.69053" lon="6.97731">
        <ele>2516.6</ele>
        <time>2022-07-18T08:04:05Z</time>
      </trkpt>
      <trkpt lat="44.69052" lon="6.97733">
        <ele>2517</ele>
        <time>2022-07-18T08:04:06Z</time>
      </trkpt>
      <trkpt lat="44.69052" lon="6.97735">
        <ele>2517</ele>
        <time>2022-07-18T08:04:07Z</time>
      </trkpt>
      <trkpt lat="44.69051" lon="6.97737">
        <ele>2517.2</ele>
        <time>2022-07-18T08:04:08Z</time>
      </trkpt>
      <trkpt lat="44.6905" lon="6.97739">
        <ele>2517.2</ele>
        <time>2022-07-18T08:04:09Z</time>
      </trkpt>
      <trkpt lat="44.69049" lon="6.97741">
        <ele>2517.6</ele>
        <time>2022-07-18T08:04:10Z</time>
      </trkpt>
      <trkpt lat="44.69049" lon="6.97744">
        <ele>2517.6</ele>
        <time>2022-07-18T08:04:11Z</time>
      </trkpt>
      <trkpt lat="44.69048" lon="6.97746">
        <ele>2517.8</ele>
        <time>2022-07-18T08:04:12Z</time>
      </trkpt>
      <trkpt lat="44.69047" lon="6.97748">
        <ele>2517.8</ele>
        <time>2022-07-18T08:04:13Z</time>
      </trkpt>
      <trkpt lat="44.69046" lon="6.97749">
        <ele>2518.2</ele>
        <time>2022-07-18T08:04:14Z</time>
      </trkpt>
      <trkpt lat="44.69044" lon="6.97751">
        <ele>2518.2</ele>
        <time>2022-07-18T08:04:15Z</time>
      </trkpt>
      <trkpt lat="44.69043" lon="6.97752">
        <ele>2518.4</ele>
        <time>2022-07-18T08:04:16Z</time>
      </trkpt>
      <trkpt lat="44.69041" lon="6.97753">
        <ele>2518.4</ele>
        <time>2022-07-18T08:04:17Z</time>
      </trkpt>
      <trkpt lat="44.69039" lon="6.97754">
        <ele>2518.8</ele>
        <time>2022-07-18T08:04:18Z</time>
      </trkpt>
      <trkpt lat="44.69038" lon="6.97755">
        <ele>2518.8</ele>
        <time>2022-07-18T08:04:19Z</time>
      </trkpt>
      <trkpt lat="44.69036" lon="6.97756">
        <ele>2519</ele>
        <time>2022-07-18T08:04:20Z</time>
      </trkpt>
      <trkpt lat="44.69035" lon="6.97757">
        <ele>2519</ele>
        <time>2022-07-18T08:04:21Z</time>
      </trkpt>
      <trkpt lat="44.69033" lon="6.97758">
        <ele>2519.4</ele>
        <time>2022-07-18T08:04:22Z</time>
      </trkpt>
      <trkpt lat="44.69032" lon="6.97759">
        <ele>2519.4</ele>
        <time>2022-07-18T08:04:23Z</time>
      </trkpt>
      <trkpt lat="44.69031" lon="6.9776">
        <ele>2519.6</ele>
        <time>2022-07-18T08:04:24Z</time>
      </trkpt>
      <trkpt lat="44.69029" lon="6.97762">
        <ele>2519.6</ele>
        <time>2022-07-18T08:04:25Z</time>
      </trkpt>
      <trkpt lat="44.69027" lon="6.97763">
        <ele>2520</ele>
        <time>2022-07-18T08:04:26Z</time>
      </trkpt>
      <trkpt lat="44.69026" lon="6.97764">
        <ele>2520</ele>
        <time>2022-07-18T08:04:27Z</time>
      </trkpt>
      <trkpt lat="44.69024" lon="6.97764">
        <ele>2520.4</ele>
        <time>2022-07-18T08:04:28Z</time>
      </trkpt>
      <trkpt lat="44.69023" lon="6.97765">
        <ele>2520.4</ele>
        <time>2022-07-18T08:04:29Z</time>
      </trkpt>
      <trkpt lat="44.69021" lon="6.97765">
        <ele>2520.6</ele>
        <time>2022-07-18T08:04:30Z</time>
      </trkpt>
      <trkpt lat="44.69019" lon="6.97766">
        <ele>2520.6</ele>
        <time>2022-07-18T08:04:31Z</time>
      </trkpt>
      <trkpt lat="44.69018" lon="6.97767">
        <ele>2521</ele>
        <time>2022-07-18T08:04:32Z</time>
      </trkpt>
      <trkpt lat="44.69016" lon="6.97768">
        <ele>2521</ele>
        <time>2022-07-18T08:04:33Z</time>
      </trkpt>
      <trkpt lat="44.69015" lon="6.97769">
        <ele>2521.4</ele>
        <time>2022-07-18T08:04:34Z</time>
      </trkpt>
      <trkpt lat="44.69013" lon="6.9777">
        <ele>2521.4</ele>
        <time>2022-07-18T08:04:35Z</time>
      </trkpt>
      <trkpt lat="44.69012" lon="6.97771">
        <ele>2521.6</ele>
        <time>2022-07-18T08:04:36Z</time>
      </trkpt>
      <trkpt lat="44.6901" lon="6.97771">
        <ele>2521.6</ele>
        <time>2022-07-18T08:04:37Z</time>
      </trkpt>
      <trkpt lat="44.69008" lon="6.97772">
        <ele>2522</ele>
        <time>2022-07-18T08:04:38Z</time>
      </trkpt>
      <trkpt lat="44.69007" lon="6.97772">
        <ele>2522</ele>
        <time>2022-07-18T08:04:39Z</time>
      </trkpt>
      <trkpt lat="44.69005" lon="6.97772">
        <ele>2522.4</ele>
        <time>2022-07-18T08:04:40Z</time>
      </trkpt>
      <trkpt lat="44.69003" lon="6.97772">
        <ele>2522.6</ele>
        <time>2022-07-18T08:04:41Z</time>
      </trkpt>
      <trkpt lat="44.69001" lon="6.97772">
        <ele>2523</ele>
        <time>2022-07-18T08:04:42Z</time>
      </trkpt>
      <trkpt lat="44.68999" lon="6.97772">
        <ele>2523</ele>
        <time>2022-07-18T08:04:43Z</time>
      </trkpt>
      <trkpt lat="44.68998" lon="6.97772">
        <ele>2523.2</ele>
        <time>2022-07-18T08:04:44Z</time>
      </trkpt>
      <trkpt lat="44.68996" lon="6.97772">
        <ele>2523.2</ele>
        <time>2022-07-18T08:04:45Z</time>
      </trkpt>
      <trkpt lat="44.68994" lon="6.97772">
        <ele>2523.4</ele>
        <time>2022-07-18T08:04:46Z</time>
      </trkpt>
      <trkpt lat="44.68992" lon="6.97772">
        <ele>2523.4</ele>
        <time>2022-07-18T08:04:47Z</time>
      </trkpt>
      <trkpt lat="44.68991" lon="6.97772">
        <ele>2523.8</ele>
        <time>2022-07-18T08:04:48Z</time>
      </trkpt>
      <trkpt lat="44.68989" lon="6.97772">
        <ele>2523.8</ele>
        <time>2022-07-18T08:04:49Z</time>
      </trkpt>
      <trkpt lat="44.68987" lon="6.97771">
        <ele>2524</ele>
        <time>2022-07-18T08:04:50Z</time>
      </trkpt>
      <trkpt lat="44.68985" lon="6.97771">
        <ele>2524</ele>
        <time>2022-07-18T08:04:51Z</time>
      </trkpt>
      <trkpt lat="44.68983" lon="6.97771">
        <ele>2524.2</ele>
        <time>2022-07-18T08:04:52Z</time>
      </trkpt>
      <trkpt lat="44.68981" lon="6.9777">
        <ele>2524.2</ele>
        <time>2022-07-18T08:04:53Z</time>
      </trkpt>
      <trkpt lat="44.68979" lon="6.9777">
        <ele>2524.6</ele>
        <time>2022-07-18T08:04:54Z</time>
      </trkpt>
      <trkpt lat="44.68977" lon="6.9777">
        <ele>2524.6</ele>
        <time>2022-07-18T08:04:55Z</time>
      </trkpt>
      <trkpt lat="44.68976" lon="6.97769">
        <ele>2525</ele>
        <time>2022-07-18T08:04:56Z</time>
      </trkpt>
      <trkpt lat="44.68974" lon="6.97769">
        <ele>2525</ele>
        <time>2022-07-18T08:04:57Z</time>
      </trkpt>
      <trkpt lat="44.68972" lon="6.97768">
        <ele>2525.2</ele>
        <time>2022-07-18T08:04:58Z</time>
      </trkpt>
      <trkpt lat="44.6897" lon="6.97768">
        <ele>2525.2</ele>
        <time>2022-07-18T08:04:59Z</time>
      </trkpt>
      <trkpt lat="44.68968" lon="6.97768">
        <ele>2525.4</ele>
        <time>2022-07-18T08:05:00Z</time>
      </trkpt>
      <trkpt lat="44.68966" lon="6.97767">
        <ele>2525.6</ele>
        <time>2022-07-18T08:05:01Z</time>
      </trkpt>
      <trkpt lat="44.68964" lon="6.97767">
        <ele>2525.8</ele>
        <time>2022-07-18T08:05:02Z</time>
      </trkpt>
      <trkpt lat="44.68962" lon="6.97767">
        <ele>2525.8</ele>
        <time>2022-07-18T08:05:03Z</time>
      </trkpt>
      <trkpt lat="44.6896" lon="6.97767">
        <ele>2526.2</ele>
        <time>2022-07-18T08:05:04Z</time>
      </trkpt>
      <trkpt lat="44.68958" lon="6.97767">
        <ele>2526.2</ele>
        <time>2022-07-18T08:05:05Z</time>
      </trkpt>
      <trkpt lat="44.68956" lon="6.97767">
        <ele>2526.4</ele>
        <time>2022-07-18T08:05:06Z</time>
      </trkpt>
      <trkpt lat="44.68954" lon="6.97767">
        <ele>2526.4</ele>
        <time>2022-07-18T08:05:07Z</time>
      </trkpt>
      <trkpt lat="44.68952" lon="6.97767">
        <ele>2526.6</ele>
        <time>2022-07-18T08:05:08Z</time>
      </trkpt>
      <trkpt lat="44.6895" lon="6.97767">
        <ele>2526.6</ele>
        <time>2022-07-18T08:05:09Z</time>
      </trkpt>
      <trkpt lat="44.68948" lon="6.97767">
        <ele>2527</ele>
        <time>2022-07-18T08:05:10Z</time>
      </trkpt>
      <trkpt lat="44.68946" lon="6.97767">
        <ele>2527</ele>
        <time>2022-07-18T08:05:11Z</time>
      </trkpt>
      <trkpt lat="44.68944" lon="6.97767">
        <ele>2527.2</ele>
        <time>2022-07-18T08:05:12Z</time>
      </trkpt>
      <trkpt lat="44.68942" lon="6.97767">
        <ele>2527.2</ele>
        <time>2022-07-18T08:05:13Z</time>
      </trkpt>
      <trkpt lat="44.6894" lon="6.97767">
        <ele>2527.6</ele>
        <time>2022-07-18T08:05:14Z</time>
      </trkpt>
      <trkpt lat="44.68938" lon="6.97767">
        <ele>2527.6</ele>
        <time>2022-07-18T08:05:15Z</time>
      </trkpt>
      <trkpt lat="44.68936" lon="6.97767">
        <ele>2527.8</ele>
        <time>2022-07-18T08:05:16Z</time>
      </trkpt>
      <trkpt lat="44.68934" lon="6.97768">
        <ele>2527.8</ele>
        <time>2022-07-18T08:05:17Z</time>
      </trkpt>
      <trkpt lat="44.68932" lon="6.97768">
        <ele>2528</ele>
        <time>2022-07-18T08:05:18Z</time>
      </trkpt>
      <trkpt lat="44.6893" lon="6.97768">
        <ele>2528</ele>
        <time>2022-07-18T08:05:19Z</time>
      </trkpt>
      <trkpt lat="44.68928" lon="6.97768">
        <ele>2528.4</ele>
        <time>2022-07-18T08:05:20Z</time>
      </trkpt>
      <trkpt lat="44.68926" lon="6.97768">
        <ele>2528.4</ele>
        <time>2022-07-18T08:05:21Z</time>
      </trkpt>
      <trkpt lat="44.68924" lon="6.97768">
        <ele>2528.6</ele>
        <time>2022-07-18T08:05:22Z</time>
      </trkpt>
      <trkpt lat="44.68922" lon="6.97768">
        <ele>2529</ele>
        <time>2022-07-18T08:05:23Z</time>
      </trkpt>
      <trkpt lat="44.6892" lon="6.97768">
        <ele>2529.2</ele>
        <time>2022-07-18T08:05:24Z</time>
      </trkpt>
      <trkpt lat="44.68918" lon="6.97768">
        <ele>2529.2</ele>
        <time>2022-07-18T08:05:25Z</time>
      </trkpt>
      <trkpt lat="44.68916" lon="6.97769">
        <ele>2529.6</ele>
        <time>2022-07-18T08:05:26Z</time>
      </trkpt>
      <trkpt lat="44.68914" lon="6.97769">
        <ele>2529.6</ele>
        <time>2022-07-18T08:05:27Z</time>
      </trkpt>
      <trkpt lat="44.68912" lon="6.97769">
        <ele>2530</ele>
        <time>2022-07-18T08:05:28Z</time>
      </trkpt>
      <trkpt lat="44.6891" lon="6.97769">
        <ele>2530</ele>
        <time>2022-07-18T08:05:29Z</time>
      </trkpt>
      <trkpt lat="44.68908" lon="6.97769">
        <ele>2530.2</ele>
        <time>2022-07-18T08:05:30Z</time>
      </trkpt>
      <trkpt lat="44.68906" lon="6.97769">
        <ele>2530.6</ele>
        <time>2022-07-18T08:05:31Z</time>
      </trkpt>
      <trkpt lat="44.68904" lon="6.97769">
        <ele>2530.6</ele>
        <time>2022-07-18T08:05:32Z</time>
      </trkpt>
      <trkpt lat="44.68902" lon="6.97769">
        <ele>2530.8</ele>
        <time>2022-07-18T08:05:33Z</time>
      </trkpt>
      <trkpt lat="44.689" lon="6.97769">
        <ele>2530.8</ele>
        <time>2022-07-18T08:05:34Z</time>
      </trkpt>
      <trkpt lat="44.68898" lon="6.97769">
        <ele>2531.2</ele>
        <time>2022-07-18T08:05:35Z</time>
      </trkpt>
      <trkpt lat="44.68896" lon="6.97769">
        <ele>2531.2</ele>
        <time>2022-07-18T08:05:36Z</time>
      </trkpt>
      <trkpt lat="44.68895" lon="6.97769">
        <ele>2531.6</ele>
        <time>2022-07-18T08:05:37Z</time>
      </trkpt>
      <trkpt lat="44.68893" lon="6.97769">
        <ele>2531.8</ele>
        <time>2022-07-18T08:05:38Z</time>
      </trkpt>
      <trkpt lat="44.68891" lon="6.9777">
        <ele>2532</ele>
        <time>2022-07-18T08:05:39Z</time>
      </trkpt>
      <trkpt lat="44.68889" lon="6.9777">
        <ele>2532</ele>
        <time>2022-07-18T08:05:40Z</time>
      </trkpt>
      <trkpt lat="44.68887" lon="6.97771">
        <ele>2532.4</ele>
        <time>2022-07-18T08:05:41Z</time>
      </trkpt>
      <trkpt lat="44.68885" lon="6.97771">
        <ele>2532.4</ele>
        <time>2022-07-18T08:05:42Z</time>
      </trkpt>
      <trkpt lat="44.68883" lon="6.97771">
        <ele>2532.6</ele>
        <time>2022-07-18T08:05:43Z</time>
      </trkpt>
      <trkpt lat="44.68882" lon="6.9777">
        <ele>2532.8</ele>
        <time>2022-07-18T08:05:44Z</time>
      </trkpt>
      <trkpt lat="44.6888" lon="6.9777">
        <ele>2532.8</ele>
        <time>2022-07-18T08:05:45Z</time>
      </trkpt>
      <trkpt lat="44.68878" lon="6.9777">
        <ele>2533.2</ele>
        <time>2022-07-18T08:05:46Z</time>
      </trkpt>
      <trkpt lat="44.68876" lon="6.97769">
        <ele>2533.4</ele>
        <time>2022-07-18T08:05:47Z</time>
      </trkpt>
      <trkpt lat="44.68874" lon="6.97769">
        <ele>2533.4</ele>
        <time>2022-07-18T08:05:48Z</time>
      </trkpt>
      <trkpt lat="44.68873" lon="6.97769">
        <ele>2533.6</ele>
        <time>2022-07-18T08:05:49Z</time>
      </trkpt>
      <trkpt lat="44.68871" lon="6.97768">
        <ele>2533.6</ele>
        <time>2022-07-18T08:05:50Z</time>
      </trkpt>
      <trkpt lat="44.68869" lon="6.97768">
        <ele>2534</ele>
        <time>2022-07-18T08:05:51Z</time>
      </trkpt>
      <trkpt lat="44.68867" lon="6.97767">
        <ele>2534.2</ele>
        <time>2022-07-18T08:05:52Z</time>
      </trkpt>
      <trkpt lat="44.68866" lon="6.97765">
        <ele>2534.2</ele>
        <time>2022-07-18T08:05:53Z</time>
      </trkpt>
      <trkpt lat="44.68864" lon="6.97764">
        <ele>2534.4</ele>
        <time>2022-07-18T08:05:54Z</time>
      </trkpt>
      <trkpt lat="44.68863" lon="6.97763">
        <ele>2534.4</ele>
        <time>2022-07-18T08:05:55Z</time>
      </trkpt>
      <trkpt lat="44.68861" lon="6.97762">
        <ele>2534.8</ele>
        <time>2022-07-18T08:05:56Z</time>
      </trkpt>
      <trkpt lat="44.68859" lon="6.9776">
        <ele>2534.8</ele>
        <time>2022-07-18T08:05:57Z</time>
      </trkpt>
      <trkpt lat="44.68858" lon="6.97759">
        <ele>2535</ele>
        <time>2022-07-18T08:05:58Z</time>
      </trkpt>
      <trkpt lat="44.68856" lon="6.97758">
        <ele>2535.2</ele>
        <time>2022-07-18T08:05:59Z</time>
      </trkpt>
      <trkpt lat="44.68854" lon="6.97757">
        <ele>2535.2</ele>
        <time>2022-07-18T08:06:00Z</time>
      </trkpt>
      <trkpt lat="44.68853" lon="6.97756">
        <ele>2535.6</ele>
        <time>2022-07-18T08:06:01Z</time>
      </trkpt>
      <trkpt lat="44.68851" lon="6.97755">
        <ele>2535.6</ele>
        <time>2022-07-18T08:06:02Z</time>
      </trkpt>
      <trkpt lat="44.68849" lon="6.97754">
        <ele>2535.8</ele>
        <time>2022-07-18T08:06:03Z</time>
      </trkpt>
      <trkpt lat="44.68848" lon="6.97754">
        <ele>2535.8</ele>
        <time>2022-07-18T08:06:04Z</time>
      </trkpt>
      <trkpt lat="44.68846" lon="6.97753">
        <ele>2536</ele>
        <time>2022-07-18T08:06:05Z</time>
      </trkpt>
      <trkpt lat="44.68844" lon="6.97752">
        <ele>2536</ele>
        <time>2022-07-18T08:06:06Z</time>
      </trkpt>
      <trkpt lat="44.68842" lon="6.97752">
        <ele>2536.4</ele>
        <time>2022-07-18T08:06:07Z</time>
      </trkpt>
      <trkpt lat="44.6884" lon="6.97752">
        <ele>2536.4</ele>
        <time>2022-07-18T08:06:08Z</time>
      </trkpt>
      <trkpt lat="44.68839" lon="6.97753">
        <ele>2536.6</ele>
        <time>2022-07-18T08:06:09Z</time>
      </trkpt>
      <trkpt lat="44.68837" lon="6.97753">
        <ele>2536.6</ele>
        <time>2022-07-18T08:06:10Z</time>
      </trkpt>
      <trkpt lat="44.68835" lon="6.97755">
        <ele>2536.8</ele>
        <time>2022-07-18T08:06:11Z</time>
      </trkpt>
      <trkpt lat="44.68834" lon="6.97756">
        <ele>2536.8</ele>
        <time>2022-07-18T08:06:12Z</time>
      </trkpt>
      <trkpt lat="44.68833" lon="6.97757">
        <ele>2537.2</ele>
        <time>2022-07-18T08:06:13Z</time>
      </trkpt>
      <trkpt lat="44.68831" lon="6.97759">
        <ele>2537.2</ele>
        <time>2022-07-18T08:06:14Z</time>
      </trkpt>
      <trkpt lat="44.6883" lon="6.97761">
        <ele>2537.6</ele>
        <time>2022-07-18T08:06:15Z</time>
      </trkpt>
      <trkpt lat="44.6883" lon="6.97761">
        <ele>2537.6</ele>
        <time>2022-07-18T08:06:16Z</time>
      </trkpt>
      <trkpt lat="44.6883" lon="6.97761">
        <ele>2537.6</ele>
        <time>2022-07-18T08:06:17Z</time>
      </trkpt>
      <trkpt lat="44.6883" lon="6.97761">
        <ele>2537.8</ele>
        <time>2022-07-18T08:06:25Z</time>
      </trkpt>
      <trkpt lat="44.6883" lon="6.97761">
        <ele>2537.8</ele>
        <time>2022-07-18T08:06:29Z</time>
      </trkpt>
      <trkpt lat="44.6883" lon="6.97761">
        <ele>2537.6</ele>
        <time>2022-07-18T08:06:34Z</time>
      </trkpt>
      <trkpt lat="44.6883" lon="6.97761">
        <ele>2537.2</ele>
        <time>2022-07-18T08:06:39Z</time>
      </trkpt>
      <trkpt lat="44.6883" lon="6.97761">
        <ele>2537.6</ele>
        <time>2022-07-18T08:11:10Z</time>
      </trkpt>
      <trkpt lat="44.6883" lon="6.97761">
        <ele>2537.8</ele>
        <time>2022-07-18T08:11:14Z</time>
      </trkpt>
      <trkpt lat="44.6883" lon="6.97761">
        <ele>2537.8</ele>
        <time>2022-07-18T08:11:18Z</time>
      </trkpt>
      <trkpt lat="44.68829" lon="6.97764">
        <ele>2537.8</ele>
        <time>2022-07-18T08:11:22Z</time>
      </trkpt>
      <trkpt lat="44.68828" lon="6.97766">
        <ele>2537.8</ele>
        <time>2022-07-18T08:11:23Z</time>
      </trkpt>
      <trkpt lat="44.68827" lon="6.97768">
        <ele>2537.8</ele>
        <time>2022-07-18T08:11:24Z</time>
      </trkpt>
      <trkpt lat="44.68827" lon="6.9777">
        <ele>2538</ele>
        <time>2022-07-18T08:11:25Z</time>
      </trkpt>
      <trkpt lat="44.68826" lon="6.97773">
        <ele>2538</ele>
        <time>2022-07-18T08:11:26Z</time>
      </trkpt>
      <trkpt lat="44.68825" lon="6.97775">
        <ele>2538</ele>
        <time>2022-07-18T08:11:27Z</time>
      </trkpt>
      <trkpt lat="44.68824" lon="6.97777">
        <ele>2538.4</ele>
        <time>2022-07-18T08:11:28Z</time>
      </trkpt>
      <trkpt lat="44.68823" lon="6.97779">
        <ele>2538.4</ele>
        <time>2022-07-18T08:11:29Z</time>
      </trkpt>
      <trkpt lat="44.68823" lon="6.97781">
        <ele>2538.6</ele>
        <time>2022-07-18T08:11:30Z</time>
      </trkpt>
      <trkpt lat="44.68822" lon="6.97783">
        <ele>2538.8</ele>
        <time>2022-07-18T08:11:31Z</time>
      </trkpt>
      <trkpt lat="44.68822" lon="6.97786">
        <ele>2538.8</ele>
        <time>2022-07-18T08:11:32Z</time>
      </trkpt>
      <trkpt lat="44.68822" lon="6.97788">
        <ele>2539.2</ele>
        <time>2022-07-18T08:11:33Z</time>
      </trkpt>
      <trkpt lat="44.68821" lon="6.9779">
        <ele>2539.2</ele>
        <time>2022-07-18T08:11:34Z</time>
      </trkpt>
      <trkpt lat="44.68821" lon="6.97792">
        <ele>2539.6</ele>
        <time>2022-07-18T08:11:35Z</time>
      </trkpt>
      <trkpt lat="44.68821" lon="6.97795">
        <ele>2539.8</ele>
        <time>2022-07-18T08:11:36Z</time>
      </trkpt>
      <trkpt lat="44.68821" lon="6.97797">
        <ele>2539.8</ele>
        <time>2022-07-18T08:11:37Z</time>
      </trkpt>
      <trkpt lat="44.68821" lon="6.97799">
        <ele>2540.2</ele>
        <time>2022-07-18T08:11:38Z</time>
      </trkpt>
      <trkpt lat="44.68821" lon="6.97801">
        <ele>2540.2</ele>
        <time>2022-07-18T08:11:39Z</time>
      </trkpt>
      <trkpt lat="44.6882" lon="6.97804">
        <ele>2540.6</ele>
        <time>2022-07-18T08:11:40Z</time>
      </trkpt>
      <trkpt lat="44.6882" lon="6.97806">
        <ele>2540.8</ele>
        <time>2022-07-18T08:11:41Z</time>
      </trkpt>
      <trkpt lat="44.6882" lon="6.97808">
        <ele>2541</ele>
        <time>2022-07-18T08:11:42Z</time>
      </trkpt>
      <trkpt lat="44.68819" lon="6.97811">
        <ele>2541.2</ele>
        <time>2022-07-18T08:11:43Z</time>
      </trkpt>
      <trkpt lat="44.68819" lon="6.97814">
        <ele>2541.2</ele>
        <time>2022-07-18T08:11:44Z</time>
      </trkpt>
      <trkpt lat="44.68818" lon="6.97816">
        <ele>2541.8</ele>
        <time>2022-07-18T08:11:45Z</time>
      </trkpt>
      <trkpt lat="44.68818" lon="6.97819">
        <ele>2541.8</ele>
        <time>2022-07-18T08:11:46Z</time>
      </trkpt>
      <trkpt lat="44.68817" lon="6.97821">
        <ele>2542</ele>
        <time>2022-07-18T08:11:47Z</time>
      </trkpt>
      <trkpt lat="44.68817" lon="6.97824">
        <ele>2542</ele>
        <time>2022-07-18T08:11:48Z</time>
      </trkpt>
      <trkpt lat="44.68817" lon="6.97826">
        <ele>2542.4</ele>
        <time>2022-07-18T08:11:49Z</time>
      </trkpt>
      <trkpt lat="44.68816" lon="6.97828">
        <ele>2542.8</ele>
        <time>2022-07-18T08:11:50Z</time>
      </trkpt>
      <trkpt lat="44.68816" lon="6.97831">
        <ele>2543</ele>
        <time>2022-07-18T08:11:51Z</time>
      </trkpt>
      <trkpt lat="44.68815" lon="6.97833">
        <ele>2543</ele>
        <time>2022-07-18T08:11:52Z</time>
      </trkpt>
      <trkpt lat="44.68815" lon="6.97835">
        <ele>2543.4</ele>
        <time>2022-07-18T08:11:53Z</time>
      </trkpt>
      <trkpt lat="44.68815" lon="6.97838">
        <ele>2543.6</ele>
        <time>2022-07-18T08:11:54Z</time>
      </trkpt>
      <trkpt lat="44.68814" lon="6.9784">
        <ele>2544</ele>
        <time>2022-07-18T08:11:55Z</time>
      </trkpt>
      <trkpt lat="44.68814" lon="6.97842">
        <ele>2544.2</ele>
        <time>2022-07-18T08:11:56Z</time>
      </trkpt>
      <trkpt lat="44.68813" lon="6.97844">
        <ele>2544.4</ele>
        <time>2022-07-18T08:11:57Z</time>
      </trkpt>
      <trkpt lat="44.68812" lon="6.97846">
        <ele>2544.6</ele>
        <time>2022-07-18T08:11:58Z</time>
      </trkpt>
      <trkpt lat="44.68812" lon="6.97848">
        <ele>2544.6</ele>
        <time>2022-07-18T08:11:59Z</time>
      </trkpt>
      <trkpt lat="44.68811" lon="6.97851">
        <ele>2545</ele>
        <time>2022-07-18T08:12:00Z</time>
      </trkpt>
      <trkpt lat="44.6881" lon="6.97853">
        <ele>2545.2</ele>
        <time>2022-07-18T08:12:01Z</time>
      </trkpt>
      <trkpt lat="44.6881" lon="6.97855">
        <ele>2545.2</ele>
        <time>2022-07-18T08:12:02Z</time>
      </trkpt>
      <trkpt lat="44.68809" lon="6.97857">
        <ele>2545.6</ele>
        <time>2022-07-18T08:12:03Z</time>
      </trkpt>
      <trkpt lat="44.68808" lon="6.9786">
        <ele>2545.6</ele>
        <time>2022-07-18T08:12:04Z</time>
      </trkpt>
      <trkpt lat="44.68807" lon="6.97862">
        <ele>2546</ele>
        <time>2022-07-18T08:12:05Z</time>
      </trkpt>
      <trkpt lat="44.68806" lon="6.97864">
        <ele>2546</ele>
        <time>2022-07-18T08:12:06Z</time>
      </trkpt>
      <trkpt lat="44.68804" lon="6.97865">
        <ele>2546.4</ele>
        <time>2022-07-18T08:12:07Z</time>
      </trkpt>
      <trkpt lat="44.68803" lon="6.97866">
        <ele>2546.4</ele>
        <time>2022-07-18T08:12:08Z</time>
      </trkpt>
      <trkpt lat="44.68801" lon="6.97868">
        <ele>2546.6</ele>
        <time>2022-07-18T08:12:09Z</time>
      </trkpt>
      <trkpt lat="44.688" lon="6.97869">
        <ele>2546.6</ele>
        <time>2022-07-18T08:12:10Z</time>
      </trkpt>
      <trkpt lat="44.68799" lon="6.97871">
        <ele>2547</ele>
        <time>2022-07-18T08:12:11Z</time>
      </trkpt>
      <trkpt lat="44.68797" lon="6.97872">
        <ele>2547.2</ele>
        <time>2022-07-18T08:12:12Z</time>
      </trkpt>
      <trkpt lat="44.68795" lon="6.97873">
        <ele>2547.4</ele>
        <time>2022-07-18T08:12:13Z</time>
      </trkpt>
      <trkpt lat="44.68794" lon="6.97874">
        <ele>2547.4</ele>
        <time>2022-07-18T08:12:14Z</time>
      </trkpt>
      <trkpt lat="44.68792" lon="6.97875">
        <ele>2548</ele>
        <time>2022-07-18T08:12:15Z</time>
      </trkpt>
      <trkpt lat="44.6879" lon="6.97876">
        <ele>2548.2</ele>
        <time>2022-07-18T08:12:16Z</time>
      </trkpt>
      <trkpt lat="44.68789" lon="6.97877">
        <ele>2548.2</ele>
        <time>2022-07-18T08:12:17Z</time>
      </trkpt>
      <trkpt lat="44.68787" lon="6.97877">
        <ele>2548.6</ele>
        <time>2022-07-18T08:12:18Z</time>
      </trkpt>
      <trkpt lat="44.68785" lon="6.97877">
        <ele>2548.6</ele>
        <time>2022-07-18T08:12:19Z</time>
      </trkpt>
      <trkpt lat="44.68784" lon="6.97877">
        <ele>2548.8</ele>
        <time>2022-07-18T08:12:20Z</time>
      </trkpt>
      <trkpt lat="44.68782" lon="6.97878">
        <ele>2548.8</ele>
        <time>2022-07-18T08:12:21Z</time>
      </trkpt>
      <trkpt lat="44.68781" lon="6.97878">
        <ele>2549.2</ele>
        <time>2022-07-18T08:12:22Z</time>
      </trkpt>
      <trkpt lat="44.68779" lon="6.97878">
        <ele>2549.4</ele>
        <time>2022-07-18T08:12:23Z</time>
      </trkpt>
      <trkpt lat="44.68777" lon="6.97878">
        <ele>2549.8</ele>
        <time>2022-07-18T08:12:24Z</time>
      </trkpt>
      <trkpt lat="44.68776" lon="6.97878">
        <ele>2549.8</ele>
        <time>2022-07-18T08:12:25Z</time>
      </trkpt>
      <trkpt lat="44.68774" lon="6.97879">
        <ele>2550</ele>
        <time>2022-07-18T08:12:26Z</time>
      </trkpt>
      <trkpt lat="44.68772" lon="6.97879">
        <ele>2550</ele>
        <time>2022-07-18T08:12:27Z</time>
      </trkpt>
      <trkpt lat="44.68771" lon="6.97879">
        <ele>2550.2</ele>
        <time>2022-07-18T08:12:28Z</time>
      </trkpt>
      <trkpt lat="44.68769" lon="6.97879">
        <ele>2550.6</ele>
        <time>2022-07-18T08:12:29Z</time>
      </trkpt>
      <trkpt lat="44.68767" lon="6.97879">
        <ele>2550.6</ele>
        <time>2022-07-18T08:12:30Z</time>
      </trkpt>
      <trkpt lat="44.68765" lon="6.97879">
        <ele>2550.8</ele>
        <time>2022-07-18T08:12:31Z</time>
      </trkpt>
      <trkpt lat="44.68764" lon="6.97879">
        <ele>2550.8</ele>
        <time>2022-07-18T08:12:32Z</time>
      </trkpt>
      <trkpt lat="44.68762" lon="6.9788">
        <ele>2551.2</ele>
        <time>2022-07-18T08:12:33Z</time>
      </trkpt>
      <trkpt lat="44.6876" lon="6.97881">
        <ele>2551.2</ele>
        <time>2022-07-18T08:12:34Z</time>
      </trkpt>
      <trkpt lat="44.68759" lon="6.97881">
        <ele>2551.4</ele>
        <time>2022-07-18T08:12:35Z</time>
      </trkpt>
      <trkpt lat="44.68757" lon="6.9788">
        <ele>2551.4</ele>
        <time>2022-07-18T08:12:36Z</time>
      </trkpt>
      <trkpt lat="44.68755" lon="6.9788">
        <ele>2551.8</ele>
        <time>2022-07-18T08:12:37Z</time>
      </trkpt>
      <trkpt lat="44.68754" lon="6.9788">
        <ele>2551.8</ele>
        <time>2022-07-18T08:12:38Z</time>
      </trkpt>
      <trkpt lat="44.68752" lon="6.9788">
        <ele>2552</ele>
        <time>2022-07-18T08:12:39Z</time>
      </trkpt>
      <trkpt lat="44.6875" lon="6.9788">
        <ele>2552</ele>
        <time>2022-07-18T08:12:40Z</time>
      </trkpt>
      <trkpt lat="44.68748" lon="6.9788">
        <ele>2552.4</ele>
        <time>2022-07-18T08:12:41Z</time>
      </trkpt>
      <trkpt lat="44.68747" lon="6.9788">
        <ele>2552.4</ele>
        <time>2022-07-18T08:12:42Z</time>
      </trkpt>
      <trkpt lat="44.68745" lon="6.9788">
        <ele>2552.4</ele>
        <time>2022-07-18T08:12:43Z</time>
      </trkpt>
      <trkpt lat="44.68743" lon="6.97881">
        <ele>2552.6</ele>
        <time>2022-07-18T08:12:44Z</time>
      </trkpt>
      <trkpt lat="44.68741" lon="6.97881">
        <ele>2552.6</ele>
        <time>2022-07-18T08:12:45Z</time>
      </trkpt>
      <trkpt lat="44.68739" lon="6.97882">
        <ele>2553</ele>
        <time>2022-07-18T08:12:46Z</time>
      </trkpt>
      <trkpt lat="44.68738" lon="6.97882">
        <ele>2553</ele>
        <time>2022-07-18T08:12:47Z</time>
      </trkpt>
      <trkpt lat="44.68736" lon="6.97882">
        <ele>2553.2</ele>
        <time>2022-07-18T08:12:48Z</time>
      </trkpt>
      <trkpt lat="44.68734" lon="6.97883">
        <ele>2553.4</ele>
        <time>2022-07-18T08:12:49Z</time>
      </trkpt>
      <trkpt lat="44.68732" lon="6.97883">
        <ele>2553.4</ele>
        <time>2022-07-18T08:12:50Z</time>
      </trkpt>
      <trkpt lat="44.6873" lon="6.97883">
        <ele>2553.8</ele>
        <time>2022-07-18T08:12:51Z</time>
      </trkpt>
      <trkpt lat="44.68729" lon="6.97884">
        <ele>2553.8</ele>
        <time>2022-07-18T08:12:52Z</time>
      </trkpt>
      <trkpt lat="44.68727" lon="6.97885">
        <ele>2554</ele>
        <time>2022-07-18T08:12:53Z</time>
      </trkpt>
      <trkpt lat="44.68725" lon="6.97885">
        <ele>2554</ele>
        <time>2022-07-18T08:12:54Z</time>
      </trkpt>
      <trkpt lat="44.68723" lon="6.97885">
        <ele>2554.4</ele>
        <time>2022-07-18T08:12:55Z</time>
      </trkpt>
      <trkpt lat="44.68721" lon="6.97885">
        <ele>2554.4</ele>
        <time>2022-07-18T08:12:56Z</time>
      </trkpt>
      <trkpt lat="44.68719" lon="6.97884">
        <ele>2554.6</ele>
        <time>2022-07-18T08:12:57Z</time>
      </trkpt>
      <trkpt lat="44.68717" lon="6.97884">
        <ele>2554.6</ele>
        <time>2022-07-18T08:12:58Z</time>
      </trkpt>
      <trkpt lat="44.68716" lon="6.97884">
        <ele>2554.8</ele>
        <time>2022-07-18T08:12:59Z</time>
      </trkpt>
      <trkpt lat="44.68714" lon="6.97883">
        <ele>2554.8</ele>
        <time>2022-07-18T08:13:00Z</time>
      </trkpt>
      <trkpt lat="44.68712" lon="6.97883">
        <ele>2555.2</ele>
        <time>2022-07-18T08:13:01Z</time>
      </trkpt>
      <trkpt lat="44.68711" lon="6.97883">
        <ele>2555.2</ele>
        <time>2022-07-18T08:13:02Z</time>
      </trkpt>
      <trkpt lat="44.68709" lon="6.97883">
        <ele>2555.6</ele>
        <time>2022-07-18T08:13:03Z</time>
      </trkpt>
      <trkpt lat="44.68707" lon="6.97883">
        <ele>2556</ele>
        <time>2022-07-18T08:13:05Z</time>
      </trkpt>
      <trkpt lat="44.68705" lon="6.97883">
        <ele>2556.2</ele>
        <time>2022-07-18T08:13:06Z</time>
      </trkpt>
      <trkpt lat="44.68703" lon="6.97882">
        <ele>2556.2</ele>
        <time>2022-07-18T08:13:07Z</time>
      </trkpt>
      <trkpt lat="44.68701" lon="6.97882">
        <ele>2556.4</ele>
        <time>2022-07-18T08:13:08Z</time>
      </trkpt>
      <trkpt lat="44.687" lon="6.97881">
        <ele>2556.8</ele>
        <time>2022-07-18T08:13:09Z</time>
      </trkpt>
      <trkpt lat="44.68698" lon="6.97881">
        <ele>2557</ele>
        <time>2022-07-18T08:13:10Z</time>
      </trkpt>
      <trkpt lat="44.68696" lon="6.9788">
        <ele>2557.2</ele>
        <time>2022-07-18T08:13:11Z</time>
      </trkpt>
      <trkpt lat="44.68694" lon="6.9788">
        <ele>2557.4</ele>
        <time>2022-07-18T08:13:12Z</time>
      </trkpt>
      <trkpt lat="44.68693" lon="6.97879">
        <ele>2557.6</ele>
        <time>2022-07-18T08:13:13Z</time>
      </trkpt>
      <trkpt lat="44.68691" lon="6.97879">
        <ele>2557.6</ele>
        <time>2022-07-18T08:13:14Z</time>
      </trkpt>
      <trkpt lat="44.68689" lon="6.97879">
        <ele>2558</ele>
        <time>2022-07-18T08:13:15Z</time>
      </trkpt>
      <trkpt lat="44.68688" lon="6.97879">
        <ele>2558</ele>
        <time>2022-07-18T08:13:16Z</time>
      </trkpt>
      <trkpt lat="44.68686" lon="6.97878">
        <ele>2558.2</ele>
        <time>2022-07-18T08:13:17Z</time>
      </trkpt>
      <trkpt lat="44.68684" lon="6.97878">
        <ele>2558.6</ele>
        <time>2022-07-18T08:13:18Z</time>
      </trkpt>
      <trkpt lat="44.68682" lon="6.97877">
        <ele>2558.6</ele>
        <time>2022-07-18T08:13:19Z</time>
      </trkpt>
      <trkpt lat="44.68681" lon="6.97877">
        <ele>2559</ele>
        <time>2022-07-18T08:13:20Z</time>
      </trkpt>
      <trkpt lat="44.68679" lon="6.97876">
        <ele>2559</ele>
        <time>2022-07-18T08:13:21Z</time>
      </trkpt>
      <trkpt lat="44.68677" lon="6.97876">
        <ele>2559.4</ele>
        <time>2022-07-18T08:13:22Z</time>
      </trkpt>
      <trkpt lat="44.68675" lon="6.97875">
        <ele>2559.4</ele>
        <time>2022-07-18T08:13:23Z</time>
      </trkpt>
      <trkpt lat="44.68674" lon="6.97875">
        <ele>2559.6</ele>
        <time>2022-07-18T08:13:24Z</time>
      </trkpt>
      <trkpt lat="44.68672" lon="6.97874">
        <ele>2559.6</ele>
        <time>2022-07-18T08:13:25Z</time>
      </trkpt>
      <trkpt lat="44.6867" lon="6.97874">
        <ele>2560</ele>
        <time>2022-07-18T08:13:26Z</time>
      </trkpt>
      <trkpt lat="44.68669" lon="6.97874">
        <ele>2560.4</ele>
        <time>2022-07-18T08:13:27Z</time>
      </trkpt>
      <trkpt lat="44.68667" lon="6.97873">
        <ele>2560.6</ele>
        <time>2022-07-18T08:13:28Z</time>
      </trkpt>
      <trkpt lat="44.68665" lon="6.97873">
        <ele>2560.6</ele>
        <time>2022-07-18T08:13:29Z</time>
      </trkpt>
      <trkpt lat="44.68663" lon="6.97872">
        <ele>2561</ele>
        <time>2022-07-18T08:13:30Z</time>
      </trkpt>
      <trkpt lat="44.68661" lon="6.97872">
        <ele>2561</ele>
        <time>2022-07-18T08:13:31Z</time>
      </trkpt>
      <trkpt lat="44.6866" lon="6.97872">
        <ele>2561.4</ele>
        <time>2022-07-18T08:13:32Z</time>
      </trkpt>
      <trkpt lat="44.68658" lon="6.97871">
        <ele>2561.4</ele>
        <time>2022-07-18T08:13:33Z</time>
      </trkpt>
      <trkpt lat="44.68656" lon="6.97871">
        <ele>2561.6</ele>
        <time>2022-07-18T08:13:34Z</time>
      </trkpt>
      <trkpt lat="44.68654" lon="6.97871">
        <ele>2561.6</ele>
        <time>2022-07-18T08:13:35Z</time>
      </trkpt>
      <trkpt lat="44.68653" lon="6.9787">
        <ele>2561.8</ele>
        <time>2022-07-18T08:13:36Z</time>
      </trkpt>
      <trkpt lat="44.68651" lon="6.9787">
        <ele>2561.8</ele>
        <time>2022-07-18T08:13:37Z</time>
      </trkpt>
      <trkpt lat="44.68649" lon="6.97869">
        <ele>2562.2</ele>
        <time>2022-07-18T08:13:38Z</time>
      </trkpt>
      <trkpt lat="44.68647" lon="6.97868">
        <ele>2562.4</ele>
        <time>2022-07-18T08:13:39Z</time>
      </trkpt>
      <trkpt lat="44.68646" lon="6.97868">
        <ele>2562.4</ele>
        <time>2022-07-18T08:13:40Z</time>
      </trkpt>
      <trkpt lat="44.68644" lon="6.97867">
        <ele>2562.8</ele>
        <time>2022-07-18T08:13:41Z</time>
      </trkpt>
      <trkpt lat="44.68643" lon="6.97866">
        <ele>2562.8</ele>
        <time>2022-07-18T08:13:42Z</time>
      </trkpt>
      <trkpt lat="44.68641" lon="6.97865">
        <ele>2563</ele>
        <time>2022-07-18T08:13:43Z</time>
      </trkpt>
      <trkpt lat="44.6864" lon="6.97864">
        <ele>2563</ele>
        <time>2022-07-18T08:13:44Z</time>
      </trkpt>
      <trkpt lat="44.68638" lon="6.97863">
        <ele>2563.4</ele>
        <time>2022-07-18T08:13:45Z</time>
      </trkpt>
      <trkpt lat="44.68637" lon="6.97862">
        <ele>2563.6</ele>
        <time>2022-07-18T08:13:46Z</time>
      </trkpt>
      <trkpt lat="44.68635" lon="6.97861">
        <ele>2563.8</ele>
        <time>2022-07-18T08:13:47Z</time>
      </trkpt>
      <trkpt lat="44.68634" lon="6.9786">
        <ele>2563.8</ele>
        <time>2022-07-18T08:13:48Z</time>
      </trkpt>
      <trkpt lat="44.68633" lon="6.97859">
        <ele>2564.2</ele>
        <time>2022-07-18T08:13:49Z</time>
      </trkpt>
      <trkpt lat="44.68631" lon="6.97858">
        <ele>2564.4</ele>
        <time>2022-07-18T08:13:50Z</time>
      </trkpt>
      <trkpt lat="44.6863" lon="6.97858">
        <ele>2564.4</ele>
        <time>2022-07-18T08:13:51Z</time>
      </trkpt>
      <trkpt lat="44.68628" lon="6.97857">
        <ele>2564.8</ele>
        <time>2022-07-18T08:13:52Z</time>
      </trkpt>
      <trkpt lat="44.68627" lon="6.97856">
        <ele>2564.8</ele>
        <time>2022-07-18T08:13:53Z</time>
      </trkpt>
      <trkpt lat="44.68625" lon="6.97856">
        <ele>2565.2</ele>
        <time>2022-07-18T08:13:54Z</time>
      </trkpt>
      <trkpt lat="44.68624" lon="6.97855">
        <ele>2565.2</ele>
        <time>2022-07-18T08:13:55Z</time>
      </trkpt>
      <trkpt lat="44.68622" lon="6.97855">
        <ele>2565.4</ele>
        <time>2022-07-18T08:13:56Z</time>
      </trkpt>
      <trkpt lat="44.68621" lon="6.97854">
        <ele>2565.4</ele>
        <time>2022-07-18T08:13:57Z</time>
      </trkpt>
      <trkpt lat="44.68619" lon="6.97855">
        <ele>2565.4</ele>
        <time>2022-07-18T08:13:58Z</time>
      </trkpt>
      <trkpt lat="44.68618" lon="6.97855">
        <ele>2565.8</ele>
        <time>2022-07-18T08:13:59Z</time>
      </trkpt>
      <trkpt lat="44.68616" lon="6.97855">
        <ele>2565.8</ele>
        <time>2022-07-18T08:14:00Z</time>
      </trkpt>
      <trkpt lat="44.68615" lon="6.97856">
        <ele>2566</ele>
        <time>2022-07-18T08:14:01Z</time>
      </trkpt>
      <trkpt lat="44.68613" lon="6.97856">
        <ele>2566</ele>
        <time>2022-07-18T08:14:02Z</time>
      </trkpt>
      <trkpt lat="44.68612" lon="6.97857">
        <ele>2566.4</ele>
        <time>2022-07-18T08:14:03Z</time>
      </trkpt>
      <trkpt lat="44.6861" lon="6.97857">
        <ele>2566.4</ele>
        <time>2022-07-18T08:14:04Z</time>
      </trkpt>
      <trkpt lat="44.68609" lon="6.97858">
        <ele>2566.8</ele>
        <time>2022-07-18T08:14:05Z</time>
      </trkpt>
      <trkpt lat="44.68607" lon="6.97859">
        <ele>2566.8</ele>
        <time>2022-07-18T08:14:06Z</time>
      </trkpt>
      <trkpt lat="44.68606" lon="6.9786">
        <ele>2567</ele>
        <time>2022-07-18T08:14:07Z</time>
      </trkpt>
      <trkpt lat="44.68605" lon="6.97862">
        <ele>2567</ele>
        <time>2022-07-18T08:14:08Z</time>
      </trkpt>
      <trkpt lat="44.68603" lon="6.97863">
        <ele>2567.4</ele>
        <time>2022-07-18T08:14:09Z</time>
      </trkpt>
      <trkpt lat="44.68602" lon="6.97865">
        <ele>2567.4</ele>
        <time>2022-07-18T08:14:10Z</time>
      </trkpt>
      <trkpt lat="44.68601" lon="6.97866">
        <ele>2567.8</ele>
        <time>2022-07-18T08:14:11Z</time>
      </trkpt>
      <trkpt lat="44.686" lon="6.97867">
        <ele>2567.8</ele>
        <time>2022-07-18T08:14:12Z</time>
      </trkpt>
      <trkpt lat="44.68598" lon="6.97869">
        <ele>2568.2</ele>
        <time>2022-07-18T08:14:13Z</time>
      </trkpt>
      <trkpt lat="44.68597" lon="6.9787">
        <ele>2568.4</ele>
        <time>2022-07-18T08:14:14Z</time>
      </trkpt>
      <trkpt lat="44.68596" lon="6.97871">
        <ele>2568.4</ele>
        <time>2022-07-18T08:14:15Z</time>
      </trkpt>
      <trkpt lat="44.68595" lon="6.97872">
        <ele>2568.6</ele>
        <time>2022-07-18T08:14:16Z</time>
      </trkpt>
      <trkpt lat="44.68594" lon="6.97874">
        <ele>2568.6</ele>
        <time>2022-07-18T08:14:17Z</time>
      </trkpt>
      <trkpt lat="44.68592" lon="6.97875">
        <ele>2569</ele>
        <time>2022-07-18T08:14:18Z</time>
      </trkpt>
      <trkpt lat="44.68591" lon="6.97876">
        <ele>2569</ele>
        <time>2022-07-18T08:14:19Z</time>
      </trkpt>
      <trkpt lat="44.6859" lon="6.97877">
        <ele>2569.4</ele>
        <time>2022-07-18T08:14:20Z</time>
      </trkpt>
      <trkpt lat="44.68588" lon="6.97878">
        <ele>2569.6</ele>
        <time>2022-07-18T08:14:21Z</time>
      </trkpt>
      <trkpt lat="44.68587" lon="6.97879">
        <ele>2569.6</ele>
        <time>2022-07-18T08:14:22Z</time>
      </trkpt>
      <trkpt lat="44.68586" lon="6.9788">
        <ele>2570</ele>
        <time>2022-07-18T08:14:23Z</time>
      </trkpt>
      <trkpt lat="44.68584" lon="6.97881">
        <ele>2570</ele>
        <time>2022-07-18T08:14:24Z</time>
      </trkpt>
      <trkpt lat="44.68583" lon="6.97883">
        <ele>2570.4</ele>
        <time>2022-07-18T08:14:25Z</time>
      </trkpt>
      <trkpt lat="44.68582" lon="6.97884">
        <ele>2570.4</ele>
        <time>2022-07-18T08:14:26Z</time>
      </trkpt>
      <trkpt lat="44.6858" lon="6.97885">
        <ele>2570.8</ele>
        <time>2022-07-18T08:14:27Z</time>
      </trkpt>
      <trkpt lat="44.68579" lon="6.97886">
        <ele>2570.8</ele>
        <time>2022-07-18T08:14:28Z</time>
      </trkpt>
      <trkpt lat="44.68577" lon="6.97887">
        <ele>2571.2</ele>
        <time>2022-07-18T08:14:29Z</time>
      </trkpt>
      <trkpt lat="44.68576" lon="6.97888">
        <ele>2571.4</ele>
        <time>2022-07-18T08:14:30Z</time>
      </trkpt>
      <trkpt lat="44.68574" lon="6.97889">
        <ele>2571.6</ele>
        <time>2022-07-18T08:14:31Z</time>
      </trkpt>
      <trkpt lat="44.68572" lon="6.9789">
        <ele>2571.6</ele>
        <time>2022-07-18T08:14:32Z</time>
      </trkpt>
      <trkpt lat="44.68571" lon="6.9789">
        <ele>2572</ele>
        <time>2022-07-18T08:14:33Z</time>
      </trkpt>
      <trkpt lat="44.68569" lon="6.97891">
        <ele>2572</ele>
        <time>2022-07-18T08:14:34Z</time>
      </trkpt>
      <trkpt lat="44.68568" lon="6.97892">
        <ele>2572.4</ele>
        <time>2022-07-18T08:14:35Z</time>
      </trkpt>
      <trkpt lat="44.68566" lon="6.97892">
        <ele>2572.6</ele>
        <time>2022-07-18T08:14:36Z</time>
      </trkpt>
      <trkpt lat="44.68564" lon="6.97892">
        <ele>2572.8</ele>
        <time>2022-07-18T08:14:37Z</time>
      </trkpt>
      <trkpt lat="44.68563" lon="6.97892">
        <ele>2572.8</ele>
        <time>2022-07-18T08:14:38Z</time>
      </trkpt>
      <trkpt lat="44.68561" lon="6.97893">
        <ele>2573.2</ele>
        <time>2022-07-18T08:14:39Z</time>
      </trkpt>
      <trkpt lat="44.68559" lon="6.97893">
        <ele>2573.4</ele>
        <time>2022-07-18T08:14:40Z</time>
      </trkpt>
      <trkpt lat="44.68558" lon="6.97894">
        <ele>2573.4</ele>
        <time>2022-07-18T08:14:41Z</time>
      </trkpt>
      <trkpt lat="44.68556" lon="6.97894">
        <ele>2573.8</ele>
        <time>2022-07-18T08:14:42Z</time>
      </trkpt>
      <trkpt lat="44.68554" lon="6.97894">
        <ele>2574</ele>
        <time>2022-07-18T08:14:43Z</time>
      </trkpt>
      <trkpt lat="44.68553" lon="6.97895">
        <ele>2574</ele>
        <time>2022-07-18T08:14:44Z</time>
      </trkpt>
      <trkpt lat="44.68551" lon="6.97895">
        <ele>2574.2</ele>
        <time>2022-07-18T08:14:45Z</time>
      </trkpt>
      <trkpt lat="44.68549" lon="6.97894">
        <ele>2574.2</ele>
        <time>2022-07-18T08:14:46Z</time>
      </trkpt>
      <trkpt lat="44.68547" lon="6.97894">
        <ele>2574.6</ele>
        <time>2022-07-18T08:14:47Z</time>
      </trkpt>
      <trkpt lat="44.68546" lon="6.97893">
        <ele>2574.6</ele>
        <time>2022-07-18T08:14:48Z</time>
      </trkpt>
      <trkpt lat="44.68544" lon="6.97892">
        <ele>2574.8</ele>
        <time>2022-07-18T08:14:49Z</time>
      </trkpt>
      <trkpt lat="44.68542" lon="6.97891">
        <ele>2575.2</ele>
        <time>2022-07-18T08:14:50Z</time>
      </trkpt>
      <trkpt lat="44.68541" lon="6.9789">
        <ele>2575.2</ele>
        <time>2022-07-18T08:14:51Z</time>
      </trkpt>
      <trkpt lat="44.68539" lon="6.97888">
        <ele>2575.4</ele>
        <time>2022-07-18T08:14:52Z</time>
      </trkpt>
      <trkpt lat="44.68537" lon="6.97887">
        <ele>2575.4</ele>
        <time>2022-07-18T08:14:53Z</time>
      </trkpt>
      <trkpt lat="44.68536" lon="6.97885">
        <ele>2575.6</ele>
        <time>2022-07-18T08:14:54Z</time>
      </trkpt>
      <trkpt lat="44.68535" lon="6.97882">
        <ele>2575.6</ele>
        <time>2022-07-18T08:14:55Z</time>
      </trkpt>
      <trkpt lat="44.68534" lon="6.9788">
        <ele>2575.6</ele>
        <time>2022-07-18T08:14:56Z</time>
      </trkpt>
      <trkpt lat="44.68533" lon="6.97878">
        <ele>2576</ele>
        <time>2022-07-18T08:14:57Z</time>
      </trkpt>
      <trkpt lat="44.68531" lon="6.97875">
        <ele>2576</ele>
        <time>2022-07-18T08:14:58Z</time>
      </trkpt>
      <trkpt lat="44.6853" lon="6.97873">
        <ele>2576.2</ele>
        <time>2022-07-18T08:14:59Z</time>
      </trkpt>
      <trkpt lat="44.68529" lon="6.97871">
        <ele>2576.2</ele>
        <time>2022-07-18T08:15:00Z</time>
      </trkpt>
      <trkpt lat="44.68528" lon="6.97869">
        <ele>2576.2</ele>
        <time>2022-07-18T08:15:01Z</time>
      </trkpt>
      <trkpt lat="44.68526" lon="6.97867">
        <ele>2576.6</ele>
        <time>2022-07-18T08:15:02Z</time>
      </trkpt>
      <trkpt lat="44.68525" lon="6.97865">
        <ele>2576.6</ele>
        <time>2022-07-18T08:15:03Z</time>
      </trkpt>
      <trkpt lat="44.68524" lon="6.97862">
        <ele>2576.8</ele>
        <time>2022-07-18T08:15:04Z</time>
      </trkpt>
      <trkpt lat="44.68523" lon="6.9786">
        <ele>2576.8</ele>
        <time>2022-07-18T08:15:05Z</time>
      </trkpt>
      <trkpt lat="44.68522" lon="6.97858">
        <ele>2576.8</ele>
        <time>2022-07-18T08:15:06Z</time>
      </trkpt>
      <trkpt lat="44.68521" lon="6.97855">
        <ele>2577.2</ele>
        <time>2022-07-18T08:15:07Z</time>
      </trkpt>
      <trkpt lat="44.68519" lon="6.97853">
        <ele>2577.2</ele>
        <time>2022-07-18T08:15:08Z</time>
      </trkpt>
      <trkpt lat="44.68518" lon="6.97851">
        <ele>2577.4</ele>
        <time>2022-07-18T08:15:09Z</time>
      </trkpt>
      <trkpt lat="44.68517" lon="6.97849">
        <ele>2577.4</ele>
        <time>2022-07-18T08:15:10Z</time>
      </trkpt>
      <trkpt lat="44.68516" lon="6.97846">
        <ele>2577.4</ele>
        <time>2022-07-18T08:15:11Z</time>
      </trkpt>
      <trkpt lat="44.68516" lon="6.97844">
        <ele>2577.6</ele>
        <time>2022-07-18T08:15:12Z</time>
      </trkpt>
      <trkpt lat="44.68515" lon="6.97841">
        <ele>2577.6</ele>
        <time>2022-07-18T08:15:13Z</time>
      </trkpt>
      <trkpt lat="44.68514" lon="6.97838">
        <ele>2577.6</ele>
        <time>2022-07-18T08:15:14Z</time>
      </trkpt>
      <trkpt lat="44.68514" lon="6.97835">
        <ele>2578</ele>
        <time>2022-07-18T08:15:15Z</time>
      </trkpt>
      <trkpt lat="44.68513" lon="6.97833">
        <ele>2578</ele>
        <time>2022-07-18T08:15:16Z</time>
      </trkpt>
      <trkpt lat="44.68512" lon="6.9783">
        <ele>2578</ele>
        <time>2022-07-18T08:15:17Z</time>
      </trkpt>
      <trkpt lat="44.68512" lon="6.97827">
        <ele>2578.2</ele>
        <time>2022-07-18T08:15:18Z</time>
      </trkpt>
      <trkpt lat="44.68511" lon="6.97824">
        <ele>2578.2</ele>
        <time>2022-07-18T08:15:19Z</time>
      </trkpt>
      <trkpt lat="44.68511" lon="6.97821">
        <ele>2578.4</ele>
        <time>2022-07-18T08:15:20Z</time>
      </trkpt>
      <trkpt lat="44.68511" lon="6.97818">
        <ele>2578.4</ele>
        <time>2022-07-18T08:15:21Z</time>
      </trkpt>
      <trkpt lat="44.68511" lon="6.97815">
        <ele>2578.8</ele>
        <time>2022-07-18T08:15:22Z</time>
      </trkpt>
      <trkpt lat="44.6851" lon="6.97813">
        <ele>2578.8</ele>
        <time>2022-07-18T08:15:23Z</time>
      </trkpt>
      <trkpt lat="44.68509" lon="6.9781">
        <ele>2579</ele>
        <time>2022-07-18T08:15:24Z</time>
      </trkpt>
      <trkpt lat="44.68509" lon="6.97807">
        <ele>2579</ele>
        <time>2022-07-18T08:15:25Z</time>
      </trkpt>
      <trkpt lat="44.68508" lon="6.97805">
        <ele>2579.4</ele>
        <time>2022-07-18T08:15:26Z</time>
      </trkpt>
      <trkpt lat="44.68506" lon="6.97803">
        <ele>2579.6</ele>
        <time>2022-07-18T08:15:27Z</time>
      </trkpt>
      <trkpt lat="44.68505" lon="6.97802">
        <ele>2579.6</ele>
        <time>2022-07-18T08:15:28Z</time>
      </trkpt>
      <trkpt lat="44.68503" lon="6.97801">
        <ele>2579.8</ele>
        <time>2022-07-18T08:15:29Z</time>
      </trkpt>
      <trkpt lat="44.68502" lon="6.978">
        <ele>2579.8</ele>
        <time>2022-07-18T08:15:30Z</time>
      </trkpt>
      <trkpt lat="44.685" lon="6.978">
        <ele>2580.2</ele>
        <time>2022-07-18T08:15:31Z</time>
      </trkpt>
      <trkpt lat="44.68498" lon="6.978">
        <ele>2580.2</ele>
        <time>2022-07-18T08:15:32Z</time>
      </trkpt>
      <trkpt lat="44.68497" lon="6.978">
        <ele>2580.6</ele>
        <time>2022-07-18T08:15:33Z</time>
      </trkpt>
      <trkpt lat="44.68495" lon="6.97801">
        <ele>2580.6</ele>
        <time>2022-07-18T08:15:34Z</time>
      </trkpt>
      <trkpt lat="44.68494" lon="6.97802">
        <ele>2580.8</ele>
        <time>2022-07-18T08:15:35Z</time>
      </trkpt>
      <trkpt lat="44.68492" lon="6.97803">
        <ele>2580.8</ele>
        <time>2022-07-18T08:15:36Z</time>
      </trkpt>
      <trkpt lat="44.68491" lon="6.97805">
        <ele>2581.2</ele>
        <time>2022-07-18T08:15:37Z</time>
      </trkpt>
      <trkpt lat="44.6849" lon="6.97807">
        <ele>2581.2</ele>
        <time>2022-07-18T08:15:38Z</time>
      </trkpt>
      <trkpt lat="44.68489" lon="6.97809">
        <ele>2581.6</ele>
        <time>2022-07-18T08:15:39Z</time>
      </trkpt>
      <trkpt lat="44.68489" lon="6.97811">
        <ele>2581.6</ele>
        <time>2022-07-18T08:15:40Z</time>
      </trkpt>
      <trkpt lat="44.68488" lon="6.97814">
        <ele>2582</ele>
        <time>2022-07-18T08:15:41Z</time>
      </trkpt>
      <trkpt lat="44.68488" lon="6.97816">
        <ele>2582</ele>
        <time>2022-07-18T08:15:42Z</time>
      </trkpt>
      <trkpt lat="44.68488" lon="6.97819">
        <ele>2582.4</ele>
        <time>2022-07-18T08:15:43Z</time>
      </trkpt>
      <trkpt lat="44.68487" lon="6.97821">
        <ele>2582.4</ele>
        <time>2022-07-18T08:15:44Z</time>
      </trkpt>
      <trkpt lat="44.68487" lon="6.97824">
        <ele>2582.8</ele>
        <time>2022-07-18T08:15:45Z</time>
      </trkpt>
      <trkpt lat="44.68486" lon="6.97826">
        <ele>2582.8</ele>
        <time>2022-07-18T08:15:46Z</time>
      </trkpt>
      <trkpt lat="44.68486" lon="6.97829">
        <ele>2583.2</ele>
        <time>2022-07-18T08:15:47Z</time>
      </trkpt>
      <trkpt lat="44.68485" lon="6.97831">
        <ele>2583.2</ele>
        <time>2022-07-18T08:15:48Z</time>
      </trkpt>
      <trkpt lat="44.68485" lon="6.97834">
        <ele>2583.4</ele>
        <time>2022-07-18T08:15:49Z</time>
      </trkpt>
      <trkpt lat="44.68485" lon="6.97837">
        <ele>2583.4</ele>
        <time>2022-07-18T08:15:50Z</time>
      </trkpt>
      <trkpt lat="44.68484" lon="6.97839">
        <ele>2583.4</ele>
        <time>2022-07-18T08:15:51Z</time>
      </trkpt>
      <trkpt lat="44.68484" lon="6.97842">
        <ele>2583.8</ele>
        <time>2022-07-18T08:15:52Z</time>
      </trkpt>
      <trkpt lat="44.68484" lon="6.97844">
        <ele>2583.8</ele>
        <time>2022-07-18T08:15:53Z</time>
      </trkpt>
      <trkpt lat="44.68483" lon="6.97847">
        <ele>2584.2</ele>
        <time>2022-07-18T08:15:54Z</time>
      </trkpt>
      <trkpt lat="44.68483" lon="6.97849">
        <ele>2584.2</ele>
        <time>2022-07-18T08:15:55Z</time>
      </trkpt>
      <trkpt lat="44.68482" lon="6.97851">
        <ele>2584.6</ele>
        <time>2022-07-18T08:15:56Z</time>
      </trkpt>
      <trkpt lat="44.68481" lon="6.97853">
        <ele>2584.8</ele>
        <time>2022-07-18T08:15:57Z</time>
      </trkpt>
      <trkpt lat="44.68481" lon="6.97855">
        <ele>2585</ele>
        <time>2022-07-18T08:15:58Z</time>
      </trkpt>
      <trkpt lat="44.6848" lon="6.97857">
        <ele>2585</ele>
        <time>2022-07-18T08:15:59Z</time>
      </trkpt>
      <trkpt lat="44.6848" lon="6.97859">
        <ele>2585.2</ele>
        <time>2022-07-18T08:16:00Z</time>
      </trkpt>
      <trkpt lat="44.68479" lon="6.97862">
        <ele>2585.6</ele>
        <time>2022-07-18T08:16:01Z</time>
      </trkpt>
      <trkpt lat="44.68479" lon="6.97864">
        <ele>2585.6</ele>
        <time>2022-07-18T08:16:02Z</time>
      </trkpt>
      <trkpt lat="44.68479" lon="6.97866">
        <ele>2585.8</ele>
        <time>2022-07-18T08:16:03Z</time>
      </trkpt>
      <trkpt lat="44.68478" lon="6.97869">
        <ele>2586</ele>
        <time>2022-07-18T08:16:04Z</time>
      </trkpt>
      <trkpt lat="44.68478" lon="6.97871">
        <ele>2586</ele>
        <time>2022-07-18T08:16:05Z</time>
      </trkpt>
      <trkpt lat="44.68477" lon="6.97874">
        <ele>2586.4</ele>
        <time>2022-07-18T08:16:06Z</time>
      </trkpt>
      <trkpt lat="44.68477" lon="6.97876">
        <ele>2586.6</ele>
        <time>2022-07-18T08:16:07Z</time>
      </trkpt>
      <trkpt lat="44.68476" lon="6.97878">
        <ele>2586.6</ele>
        <time>2022-07-18T08:16:08Z</time>
      </trkpt>
      <trkpt lat="44.68476" lon="6.97881">
        <ele>2586.8</ele>
        <time>2022-07-18T08:16:09Z</time>
      </trkpt>
      <trkpt lat="44.68475" lon="6.97883">
        <ele>2586.8</ele>
        <time>2022-07-18T08:16:10Z</time>
      </trkpt>
      <trkpt lat="44.68475" lon="6.97885">
        <ele>2587</ele>
        <time>2022-07-18T08:16:11Z</time>
      </trkpt>
      <trkpt lat="44.68475" lon="6.97887">
        <ele>2587</ele>
        <time>2022-07-18T08:16:12Z</time>
      </trkpt>
      <trkpt lat="44.68475" lon="6.9789">
        <ele>2587.4</ele>
        <time>2022-07-18T08:16:13Z</time>
      </trkpt>
      <trkpt lat="44.68474" lon="6.97892">
        <ele>2587.4</ele>
        <time>2022-07-18T08:16:14Z</time>
      </trkpt>
      <trkpt lat="44.68474" lon="6.97895">
        <ele>2587.8</ele>
        <time>2022-07-18T08:16:15Z</time>
      </trkpt>
      <trkpt lat="44.68474" lon="6.97897">
        <ele>2588</ele>
        <time>2022-07-18T08:16:16Z</time>
      </trkpt>
      <trkpt lat="44.68473" lon="6.979">
        <ele>2588</ele>
        <time>2022-07-18T08:16:17Z</time>
      </trkpt>
      <trkpt lat="44.68473" lon="6.97902">
        <ele>2588.2</ele>
        <time>2022-07-18T08:16:18Z</time>
      </trkpt>
      <trkpt lat="44.68473" lon="6.97905">
        <ele>2588.2</ele>
        <time>2022-07-18T08:16:19Z</time>
      </trkpt>
      <trkpt lat="44.68473" lon="6.97907">
        <ele>2588.4</ele>
        <time>2022-07-18T08:16:20Z</time>
      </trkpt>
      <trkpt lat="44.68473" lon="6.9791">
        <ele>2588.4</ele>
        <time>2022-07-18T08:16:21Z</time>
      </trkpt>
      <trkpt lat="44.68473" lon="6.97912">
        <ele>2588.8</ele>
        <time>2022-07-18T08:16:22Z</time>
      </trkpt>
      <trkpt lat="44.68473" lon="6.97915">
        <ele>2589</ele>
        <time>2022-07-18T08:16:23Z</time>
      </trkpt>
      <trkpt lat="44.68473" lon="6.97917">
        <ele>2589</ele>
        <time>2022-07-18T08:16:24Z</time>
      </trkpt>
      <trkpt lat="44.68473" lon="6.9792">
        <ele>2589.4</ele>
        <time>2022-07-18T08:16:25Z</time>
      </trkpt>
      <trkpt lat="44.68473" lon="6.97922">
        <ele>2589.4</ele>
        <time>2022-07-18T08:16:26Z</time>
      </trkpt>
      <trkpt lat="44.68474" lon="6.97925">
        <ele>2589.6</ele>
        <time>2022-07-18T08:16:27Z</time>
      </trkpt>
      <trkpt lat="44.68474" lon="6.97927">
        <ele>2589.6</ele>
        <time>2022-07-18T08:16:28Z</time>
      </trkpt>
      <trkpt lat="44.68474" lon="6.97929">
        <ele>2590</ele>
        <time>2022-07-18T08:16:29Z</time>
      </trkpt>
      <trkpt lat="44.68475" lon="6.97932">
        <ele>2590</ele>
        <time>2022-07-18T08:16:30Z</time>
      </trkpt>
      <trkpt lat="44.68476" lon="6.97934">
        <ele>2590.2</ele>
        <time>2022-07-18T08:16:31Z</time>
      </trkpt>
      <trkpt lat="44.68477" lon="6.97936">
        <ele>2590.2</ele>
        <time>2022-07-18T08:16:32Z</time>
      </trkpt>
      <trkpt lat="44.68478" lon="6.97938">
        <ele>2590.4</ele>
        <time>2022-07-18T08:16:33Z</time>
      </trkpt>
      <trkpt lat="44.68479" lon="6.9794">
        <ele>2590.4</ele>
        <time>2022-07-18T08:16:34Z</time>
      </trkpt>
      <trkpt lat="44.68481" lon="6.97942">
        <ele>2590.6</ele>
        <time>2022-07-18T08:16:35Z</time>
      </trkpt>
      <trkpt lat="44.68482" lon="6.97944">
        <ele>2590.6</ele>
        <time>2022-07-18T08:16:36Z</time>
      </trkpt>
      <trkpt lat="44.68483" lon="6.97945">
        <ele>2591</ele>
        <time>2022-07-18T08:16:37Z</time>
      </trkpt>
      <trkpt lat="44.68485" lon="6.97947">
        <ele>2591</ele>
        <time>2022-07-18T08:16:38Z</time>
      </trkpt>
      <trkpt lat="44.68486" lon="6.97948">
        <ele>2591.2</ele>
        <time>2022-07-18T08:16:39Z</time>
      </trkpt>
      <trkpt lat="44.68488" lon="6.9795">
        <ele>2591.2</ele>
        <time>2022-07-18T08:16:40Z</time>
      </trkpt>
      <trkpt lat="44.6849" lon="6.97951">
        <ele>2591.6</ele>
        <time>2022-07-18T08:16:41Z</time>
      </trkpt>
      <trkpt lat="44.68491" lon="6.97953">
        <ele>2591.6</ele>
        <time>2022-07-18T08:16:42Z</time>
      </trkpt>
      <trkpt lat="44.68493" lon="6.97954">
        <ele>2592</ele>
        <time>2022-07-18T08:16:43Z</time>
      </trkpt>
      <trkpt lat="44.68495" lon="6.97956">
        <ele>2592</ele>
        <time>2022-07-18T08:16:44Z</time>
      </trkpt>
      <trkpt lat="44.68497" lon="6.97957">
        <ele>2592.2</ele>
        <time>2022-07-18T08:16:45Z</time>
      </trkpt>
      <trkpt lat="44.68498" lon="6.97958">
        <ele>2592.4</ele>
        <time>2022-07-18T08:16:46Z</time>
      </trkpt>
      <trkpt lat="44.685" lon="6.97959">
        <ele>2592.8</ele>
        <time>2022-07-18T08:16:47Z</time>
      </trkpt>
      <trkpt lat="44.68502" lon="6.97961">
        <ele>2592.8</ele>
        <time>2022-07-18T08:16:48Z</time>
      </trkpt>
      <trkpt lat="44.68504" lon="6.97962">
        <ele>2593.2</ele>
        <time>2022-07-18T08:16:49Z</time>
      </trkpt>
      <trkpt lat="44.68506" lon="6.97963">
        <ele>2593.2</ele>
        <time>2022-07-18T08:16:50Z</time>
      </trkpt>
      <trkpt lat="44.68507" lon="6.97965">
        <ele>2593.4</ele>
        <time>2022-07-18T08:16:51Z</time>
      </trkpt>
      <trkpt lat="44.68509" lon="6.97966">
        <ele>2593.4</ele>
        <time>2022-07-18T08:16:52Z</time>
      </trkpt>
      <trkpt lat="44.68511" lon="6.97967">
        <ele>2593.8</ele>
        <time>2022-07-18T08:16:53Z</time>
      </trkpt>
      <trkpt lat="44.68513" lon="6.97968">
        <ele>2593.8</ele>
        <time>2022-07-18T08:16:54Z</time>
      </trkpt>
      <trkpt lat="44.68515" lon="6.97969">
        <ele>2593.8</ele>
        <time>2022-07-18T08:16:55Z</time>
      </trkpt>
      <trkpt lat="44.68517" lon="6.9797">
        <ele>2594</ele>
        <time>2022-07-18T08:16:56Z</time>
      </trkpt>
      <trkpt lat="44.68519" lon="6.97971">
        <ele>2594</ele>
        <time>2022-07-18T08:16:57Z</time>
      </trkpt>
      <trkpt lat="44.68521" lon="6.97971">
        <ele>2594.2</ele>
        <time>2022-07-18T08:16:58Z</time>
      </trkpt>
      <trkpt lat="44.68523" lon="6.97971">
        <ele>2594.2</ele>
        <time>2022-07-18T08:16:59Z</time>
      </trkpt>
      <trkpt lat="44.68526" lon="6.97971">
        <ele>2594.6</ele>
        <time>2022-07-18T08:17:00Z</time>
      </trkpt>
      <trkpt lat="44.68528" lon="6.97972">
        <ele>2594.6</ele>
        <time>2022-07-18T08:17:01Z</time>
      </trkpt>
      <trkpt lat="44.6853" lon="6.97972">
        <ele>2595</ele>
        <time>2022-07-18T08:17:02Z</time>
      </trkpt>
      <trkpt lat="44.68532" lon="6.97973">
        <ele>2595</ele>
        <time>2022-07-18T08:17:03Z</time>
      </trkpt>
      <trkpt lat="44.68534" lon="6.97973">
        <ele>2595.2</ele>
        <time>2022-07-18T08:17:04Z</time>
      </trkpt>
      <trkpt lat="44.68536" lon="6.97974">
        <ele>2595.2</ele>
        <time>2022-07-18T08:17:05Z</time>
      </trkpt>
      <trkpt lat="44.68538" lon="6.97974">
        <ele>2595.2</ele>
        <time>2022-07-18T08:17:06Z</time>
      </trkpt>
      <trkpt lat="44.6854" lon="6.97974">
        <ele>2595.6</ele>
        <time>2022-07-18T08:17:07Z</time>
      </trkpt>
      <trkpt lat="44.68542" lon="6.97975">
        <ele>2595.6</ele>
        <time>2022-07-18T08:17:08Z</time>
      </trkpt>
      <trkpt lat="44.68544" lon="6.97975">
        <ele>2596</ele>
        <time>2022-07-18T08:17:09Z</time>
      </trkpt>
      <trkpt lat="44.68546" lon="6.97976">
        <ele>2596</ele>
        <time>2022-07-18T08:17:10Z</time>
      </trkpt>
      <trkpt lat="44.68548" lon="6.97976">
        <ele>2596</ele>
        <time>2022-07-18T08:17:11Z</time>
      </trkpt>
      <trkpt lat="44.6855" lon="6.97977">
        <ele>2596.4</ele>
        <time>2022-07-18T08:17:12Z</time>
      </trkpt>
      <trkpt lat="44.68551" lon="6.97978">
        <ele>2596.4</ele>
        <time>2022-07-18T08:17:13Z</time>
      </trkpt>
      <trkpt lat="44.68553" lon="6.97979">
        <ele>2596.6</ele>
        <time>2022-07-18T08:17:14Z</time>
      </trkpt>
      <trkpt lat="44.68555" lon="6.9798">
        <ele>2596.6</ele>
        <time>2022-07-18T08:17:15Z</time>
      </trkpt>
      <trkpt lat="44.68557" lon="6.97981">
        <ele>2596.6</ele>
        <time>2022-07-18T08:17:16Z</time>
      </trkpt>
      <trkpt lat="44.68559" lon="6.97982">
        <ele>2597</ele>
        <time>2022-07-18T08:17:17Z</time>
      </trkpt>
      <trkpt lat="44.68561" lon="6.97983">
        <ele>2597</ele>
        <time>2022-07-18T08:17:18Z</time>
      </trkpt>
      <trkpt lat="44.68563" lon="6.97984">
        <ele>2597</ele>
        <time>2022-07-18T08:17:19Z</time>
      </trkpt>
      <trkpt lat="44.68565" lon="6.97985">
        <ele>2597.2</ele>
        <time>2022-07-18T08:17:20Z</time>
      </trkpt>
      <trkpt lat="44.68567" lon="6.97986">
        <ele>2597.2</ele>
        <time>2022-07-18T08:17:21Z</time>
      </trkpt>
      <trkpt lat="44.68569" lon="6.97987">
        <ele>2597.6</ele>
        <time>2022-07-18T08:17:22Z</time>
      </trkpt>
      <trkpt lat="44.6857" lon="6.97988">
        <ele>2597.6</ele>
        <time>2022-07-18T08:17:23Z</time>
      </trkpt>
      <trkpt lat="44.68572" lon="6.97988">
        <ele>2597.8</ele>
        <time>2022-07-18T08:17:24Z</time>
      </trkpt>
      <trkpt lat="44.68574" lon="6.97989">
        <ele>2597.8</ele>
        <time>2022-07-18T08:17:25Z</time>
      </trkpt>
      <trkpt lat="44.68576" lon="6.97989">
        <ele>2598</ele>
        <time>2022-07-18T08:17:26Z</time>
      </trkpt>
      <trkpt lat="44.68578" lon="6.97989">
        <ele>2598</ele>
        <time>2022-07-18T08:17:27Z</time>
      </trkpt>
      <trkpt lat="44.6858" lon="6.97989">
        <ele>2598.4</ele>
        <time>2022-07-18T08:17:28Z</time>
      </trkpt>
      <trkpt lat="44.68582" lon="6.97989">
        <ele>2598.4</ele>
        <time>2022-07-18T08:17:29Z</time>
      </trkpt>
      <trkpt lat="44.68584" lon="6.9799">
        <ele>2598.6</ele>
        <time>2022-07-18T08:17:30Z</time>
      </trkpt>
      <trkpt lat="44.68586" lon="6.9799">
        <ele>2598.6</ele>
        <time>2022-07-18T08:17:31Z</time>
      </trkpt>
      <trkpt lat="44.68589" lon="6.9799">
        <ele>2599</ele>
        <time>2022-07-18T08:17:32Z</time>
      </trkpt>
      <trkpt lat="44.6859" lon="6.9799">
        <ele>2599</ele>
        <time>2022-07-18T08:17:33Z</time>
      </trkpt>
      <trkpt lat="44.68592" lon="6.97991">
        <ele>2599.2</ele>
        <time>2022-07-18T08:17:34Z</time>
      </trkpt>
      <trkpt lat="44.68594" lon="6.97991">
        <ele>2599.2</ele>
        <time>2022-07-18T08:17:35Z</time>
      </trkpt>
      <trkpt lat="44.68596" lon="6.97991">
        <ele>2599.6</ele>
        <time>2022-07-18T08:17:36Z</time>
      </trkpt>
      <trkpt lat="44.68598" lon="6.97992">
        <ele>2599.6</ele>
        <time>2022-07-18T08:17:37Z</time>
      </trkpt>
      <trkpt lat="44.68599" lon="6.97995">
        <ele>2600</ele>
        <time>2022-07-18T08:17:38Z</time>
      </trkpt>
      <trkpt lat="44.686" lon="6.97997">
        <ele>2600</ele>
        <time>2022-07-18T08:17:39Z</time>
      </trkpt>
      <trkpt lat="44.686" lon="6.98">
        <ele>2600.2</ele>
        <time>2022-07-18T08:17:40Z</time>
      </trkpt>
      <trkpt lat="44.68599" lon="6.98003">
        <ele>2600.2</ele>
        <time>2022-07-18T08:17:41Z</time>
      </trkpt>
      <trkpt lat="44.68598" lon="6.98005">
        <ele>2600.6</ele>
        <time>2022-07-18T08:17:42Z</time>
      </trkpt>
      <trkpt lat="44.68595" lon="6.98006">
        <ele>2600.6</ele>
        <time>2022-07-18T08:17:43Z</time>
      </trkpt>
      <trkpt lat="44.68593" lon="6.98006">
        <ele>2600.8</ele>
        <time>2022-07-18T08:17:44Z</time>
      </trkpt>
      <trkpt lat="44.68591" lon="6.98006">
        <ele>2600.8</ele>
        <time>2022-07-18T08:17:45Z</time>
      </trkpt>
      <trkpt lat="44.68588" lon="6.98005">
        <ele>2601</ele>
        <time>2022-07-18T08:17:46Z</time>
      </trkpt>
      <trkpt lat="44.68586" lon="6.98005">
        <ele>2601</ele>
        <time>2022-07-18T08:17:47Z</time>
      </trkpt>
      <trkpt lat="44.68584" lon="6.98006">
        <ele>2601</ele>
        <time>2022-07-18T08:17:48Z</time>
      </trkpt>
      <trkpt lat="44.68582" lon="6.98006">
        <ele>2601.4</ele>
        <time>2022-07-18T08:17:49Z</time>
      </trkpt>
      <trkpt lat="44.68579" lon="6.98005">
        <ele>2601.4</ele>
        <time>2022-07-18T08:17:50Z</time>
      </trkpt>
      <trkpt lat="44.68577" lon="6.98005">
        <ele>2601.6</ele>
        <time>2022-07-18T08:17:51Z</time>
      </trkpt>
      <trkpt lat="44.68575" lon="6.98005">
        <ele>2601.6</ele>
        <time>2022-07-18T08:17:52Z</time>
      </trkpt>
      <trkpt lat="44.68573" lon="6.98005">
        <ele>2602</ele>
        <time>2022-07-18T08:17:53Z</time>
      </trkpt>
      <trkpt lat="44.68571" lon="6.98005">
        <ele>2602</ele>
        <time>2022-07-18T08:17:54Z</time>
      </trkpt>
      <trkpt lat="44.68569" lon="6.98005">
        <ele>2602.4</ele>
        <time>2022-07-18T08:17:55Z</time>
      </trkpt>
      <trkpt lat="44.68567" lon="6.98005">
        <ele>2602.4</ele>
        <time>2022-07-18T08:17:56Z</time>
      </trkpt>
      <trkpt lat="44.68565" lon="6.98005">
        <ele>2602.6</ele>
        <time>2022-07-18T08:17:57Z</time>
      </trkpt>
      <trkpt lat="44.68563" lon="6.98004">
        <ele>2602.8</ele>
        <time>2022-07-18T08:17:58Z</time>
      </trkpt>
      <trkpt lat="44.68561" lon="6.98004">
        <ele>2603.2</ele>
        <time>2022-07-18T08:17:59Z</time>
      </trkpt>
      <trkpt lat="44.68559" lon="6.98004">
        <ele>2603.4</ele>
        <time>2022-07-18T08:18:00Z</time>
      </trkpt>
      <trkpt lat="44.68557" lon="6.98004">
        <ele>2603.4</ele>
        <time>2022-07-18T08:18:01Z</time>
      </trkpt>
      <trkpt lat="44.68555" lon="6.98003">
        <ele>2603.8</ele>
        <time>2022-07-18T08:18:02Z</time>
      </trkpt>
      <trkpt lat="44.68553" lon="6.98003">
        <ele>2603.8</ele>
        <time>2022-07-18T08:18:03Z</time>
      </trkpt>
      <trkpt lat="44.68551" lon="6.98003">
        <ele>2604</ele>
        <time>2022-07-18T08:18:04Z</time>
      </trkpt>
      <trkpt lat="44.68549" lon="6.98003">
        <ele>2604.4</ele>
        <time>2022-07-18T08:18:05Z</time>
      </trkpt>
      <trkpt lat="44.68547" lon="6.98003">
        <ele>2604.4</ele>
        <time>2022-07-18T08:18:06Z</time>
      </trkpt>
      <trkpt lat="44.68545" lon="6.98003">
        <ele>2604.8</ele>
        <time>2022-07-18T08:18:07Z</time>
      </trkpt>
      <trkpt lat="44.68544" lon="6.98003">
        <ele>2605</ele>
        <time>2022-07-18T08:18:08Z</time>
      </trkpt>
      <trkpt lat="44.68542" lon="6.98004">
        <ele>2605</ele>
        <time>2022-07-18T08:18:09Z</time>
      </trkpt>
      <trkpt lat="44.6854" lon="6.98004">
        <ele>2605</ele>
        <time>2022-07-18T08:18:10Z</time>
      </trkpt>
      <trkpt lat="44.68538" lon="6.98005">
        <ele>2605.2</ele>
        <time>2022-07-18T08:18:11Z</time>
      </trkpt>
      <trkpt lat="44.68536" lon="6.98006">
        <ele>2605.4</ele>
        <time>2022-07-18T08:18:12Z</time>
      </trkpt>
      <trkpt lat="44.68535" lon="6.98007">
        <ele>2605.6</ele>
        <time>2022-07-18T08:18:13Z</time>
      </trkpt>
      <trkpt lat="44.68533" lon="6.98008">
        <ele>2605.6</ele>
        <time>2022-07-18T08:18:14Z</time>
      </trkpt>
      <trkpt lat="44.68531" lon="6.9801">
        <ele>2606</ele>
        <time>2022-07-18T08:18:15Z</time>
      </trkpt>
      <trkpt lat="44.6853" lon="6.98011">
        <ele>2606.4</ele>
        <time>2022-07-18T08:18:16Z</time>
      </trkpt>
      <trkpt lat="44.68528" lon="6.98013">
        <ele>2606.6</ele>
        <time>2022-07-18T08:18:17Z</time>
      </trkpt>
      <trkpt lat="44.68527" lon="6.98015">
        <ele>2606.8</ele>
        <time>2022-07-18T08:18:18Z</time>
      </trkpt>
      <trkpt lat="44.68526" lon="6.98016">
        <ele>2606.8</ele>
        <time>2022-07-18T08:18:19Z</time>
      </trkpt>
      <trkpt lat="44.68524" lon="6.98018">
        <ele>2607.2</ele>
        <time>2022-07-18T08:18:20Z</time>
      </trkpt>
      <trkpt lat="44.68523" lon="6.98019">
        <ele>2607.2</ele>
        <time>2022-07-18T08:18:21Z</time>
      </trkpt>
      <trkpt lat="44.68522" lon="6.98021">
        <ele>2607.4</ele>
        <time>2022-07-18T08:18:22Z</time>
      </trkpt>
      <trkpt lat="44.68521" lon="6.98023">
        <ele>2607.4</ele>
        <time>2022-07-18T08:18:23Z</time>
      </trkpt>
      <trkpt lat="44.6852" lon="6.98025">
        <ele>2607.8</ele>
        <time>2022-07-18T08:18:24Z</time>
      </trkpt>
      <trkpt lat="44.68519" lon="6.98027">
        <ele>2608.2</ele>
        <time>2022-07-18T08:18:25Z</time>
      </trkpt>
      <trkpt lat="44.68517" lon="6.98029">
        <ele>2608.4</ele>
        <time>2022-07-18T08:18:26Z</time>
      </trkpt>
      <trkpt lat="44.68516" lon="6.98031">
        <ele>2608.6</ele>
        <time>2022-07-18T08:18:27Z</time>
      </trkpt>
      <trkpt lat="44.68514" lon="6.98033">
        <ele>2608.6</ele>
        <time>2022-07-18T08:18:28Z</time>
      </trkpt>
      <trkpt lat="44.68512" lon="6.98035">
        <ele>2609</ele>
        <time>2022-07-18T08:18:29Z</time>
      </trkpt>
      <trkpt lat="44.68511" lon="6.98036">
        <ele>2609.2</ele>
        <time>2022-07-18T08:18:30Z</time>
      </trkpt>
      <trkpt lat="44.68509" lon="6.98038">
        <ele>2609.2</ele>
        <time>2022-07-18T08:18:31Z</time>
      </trkpt>
      <trkpt lat="44.68507" lon="6.98039">
        <ele>2609.4</ele>
        <time>2022-07-18T08:18:32Z</time>
      </trkpt>
      <trkpt lat="44.68506" lon="6.98039">
        <ele>2609.4</ele>
        <time>2022-07-18T08:18:33Z</time>
      </trkpt>
      <trkpt lat="44.68504" lon="6.9804">
        <ele>2609.8</ele>
        <time>2022-07-18T08:18:34Z</time>
      </trkpt>
      <trkpt lat="44.68502" lon="6.98041">
        <ele>2610</ele>
        <time>2022-07-18T08:18:35Z</time>
      </trkpt>
      <trkpt lat="44.685" lon="6.98043">
        <ele>2610.4</ele>
        <time>2022-07-18T08:18:36Z</time>
      </trkpt>
      <trkpt lat="44.68498" lon="6.98043">
        <ele>2610.4</ele>
        <time>2022-07-18T08:18:37Z</time>
      </trkpt>
      <trkpt lat="44.68496" lon="6.98044">
        <ele>2610.6</ele>
        <time>2022-07-18T08:18:38Z</time>
      </trkpt>
      <trkpt lat="44.68494" lon="6.98044">
        <ele>2610.6</ele>
        <time>2022-07-18T08:18:39Z</time>
      </trkpt>
      <trkpt lat="44.68493" lon="6.98045">
        <ele>2611.2</ele>
        <time>2022-07-18T08:18:40Z</time>
      </trkpt>
      <trkpt lat="44.68491" lon="6.98045">
        <ele>2611.2</ele>
        <time>2022-07-18T08:18:41Z</time>
      </trkpt>
      <trkpt lat="44.68489" lon="6.98046">
        <ele>2611.4</ele>
        <time>2022-07-18T08:18:42Z</time>
      </trkpt>
      <trkpt lat="44.68487" lon="6.98046">
        <ele>2611.4</ele>
        <time>2022-07-18T08:18:43Z</time>
      </trkpt>
      <trkpt lat="44.68485" lon="6.98046">
        <ele>2611.6</ele>
        <time>2022-07-18T08:18:44Z</time>
      </trkpt>
      <trkpt lat="44.68483" lon="6.98046">
        <ele>2611.6</ele>
        <time>2022-07-18T08:18:45Z</time>
      </trkpt>
      <trkpt lat="44.68481" lon="6.98046">
        <ele>2612</ele>
        <time>2022-07-18T08:18:46Z</time>
      </trkpt>
      <trkpt lat="44.6848" lon="6.98046">
        <ele>2612</ele>
        <time>2022-07-18T08:18:47Z</time>
      </trkpt>
      <trkpt lat="44.68478" lon="6.98046">
        <ele>2612.2</ele>
        <time>2022-07-18T08:18:48Z</time>
      </trkpt>
      <trkpt lat="44.68476" lon="6.98045">
        <ele>2612.4</ele>
        <time>2022-07-18T08:18:49Z</time>
      </trkpt>
      <trkpt lat="44.68474" lon="6.98045">
        <ele>2612.4</ele>
        <time>2022-07-18T08:18:50Z</time>
      </trkpt>
      <trkpt lat="44.68472" lon="6.98045">
        <ele>2612.6</ele>
        <time>2022-07-18T08:18:51Z</time>
      </trkpt>
      <trkpt lat="44.6847" lon="6.98045">
        <ele>2612.6</ele>
        <time>2022-07-18T08:18:52Z</time>
      </trkpt>
      <trkpt lat="44.68468" lon="6.98044">
        <ele>2613</ele>
        <time>2022-07-18T08:18:53Z</time>
      </trkpt>
      <trkpt lat="44.68466" lon="6.98044">
        <ele>2613.2</ele>
        <time>2022-07-18T08:18:54Z</time>
      </trkpt>
      <trkpt lat="44.68464" lon="6.98044">
        <ele>2613.2</ele>
        <time>2022-07-18T08:18:55Z</time>
      </trkpt>
      <trkpt lat="44.68462" lon="6.98043">
        <ele>2613.4</ele>
        <time>2022-07-18T08:18:56Z</time>
      </trkpt>
      <trkpt lat="44.6846" lon="6.98043">
        <ele>2613.4</ele>
        <time>2022-07-18T08:18:57Z</time>
      </trkpt>
      <trkpt lat="44.68458" lon="6.98042">
        <ele>2613.4</ele>
        <time>2022-07-18T08:18:58Z</time>
      </trkpt>
      <trkpt lat="44.68456" lon="6.9804">
        <ele>2613.8</ele>
        <time>2022-07-18T08:18:59Z</time>
      </trkpt>
      <trkpt lat="44.68455" lon="6.98039">
        <ele>2613.8</ele>
        <time>2022-07-18T08:19:00Z</time>
      </trkpt>
      <trkpt lat="44.68453" lon="6.98038">
        <ele>2614</ele>
        <time>2022-07-18T08:19:01Z</time>
      </trkpt>
      <trkpt lat="44.68451" lon="6.98037">
        <ele>2614</ele>
        <time>2022-07-18T08:19:02Z</time>
      </trkpt>
      <trkpt lat="44.68449" lon="6.98035">
        <ele>2614.2</ele>
        <time>2022-07-18T08:19:03Z</time>
      </trkpt>
      <trkpt lat="44.68448" lon="6.98033">
        <ele>2614.2</ele>
        <time>2022-07-18T08:19:04Z</time>
      </trkpt>
      <trkpt lat="44.68447" lon="6.98032">
        <ele>2614.6</ele>
        <time>2022-07-18T08:19:05Z</time>
      </trkpt>
      <trkpt lat="44.68445" lon="6.9803">
        <ele>2614.6</ele>
        <time>2022-07-18T08:19:06Z</time>
      </trkpt>
      <trkpt lat="44.68444" lon="6.98029">
        <ele>2614.8</ele>
        <time>2022-07-18T08:19:07Z</time>
      </trkpt>
      <trkpt lat="44.68442" lon="6.98027">
        <ele>2614.8</ele>
        <time>2022-07-18T08:19:08Z</time>
      </trkpt>
      <trkpt lat="44.6844" lon="6.98026">
        <ele>2615</ele>
        <time>2022-07-18T08:19:09Z</time>
      </trkpt>
      <trkpt lat="44.68439" lon="6.98024">
        <ele>2615</ele>
        <time>2022-07-18T08:19:10Z</time>
      </trkpt>
      <trkpt lat="44.68438" lon="6.98022">
        <ele>2615.4</ele>
        <time>2022-07-18T08:19:11Z</time>
      </trkpt>
      <trkpt lat="44.68436" lon="6.9802">
        <ele>2615.4</ele>
        <time>2022-07-18T08:19:12Z</time>
      </trkpt>
      <trkpt lat="44.68435" lon="6.98019">
        <ele>2615.6</ele>
        <time>2022-07-18T08:19:13Z</time>
      </trkpt>
      <trkpt lat="44.68433" lon="6.98017">
        <ele>2615.6</ele>
        <time>2022-07-18T08:19:14Z</time>
      </trkpt>
      <trkpt lat="44.68431" lon="6.98016">
        <ele>2615.8</ele>
        <time>2022-07-18T08:19:15Z</time>
      </trkpt>
      <trkpt lat="44.6843" lon="6.98014">
        <ele>2615.8</ele>
        <time>2022-07-18T08:19:16Z</time>
      </trkpt>
      <trkpt lat="44.68428" lon="6.98013">
        <ele>2616.2</ele>
        <time>2022-07-18T08:19:17Z</time>
      </trkpt>
      <trkpt lat="44.68426" lon="6.98011">
        <ele>2616.2</ele>
        <time>2022-07-18T08:19:18Z</time>
      </trkpt>
      <trkpt lat="44.68425" lon="6.98009">
        <ele>2616.4</ele>
        <time>2022-07-18T08:19:19Z</time>
      </trkpt>
      <trkpt lat="44.68423" lon="6.98007">
        <ele>2616.4</ele>
        <time>2022-07-18T08:19:20Z</time>
      </trkpt>
      <trkpt lat="44.68422" lon="6.98005">
        <ele>2616.4</ele>
        <time>2022-07-18T08:19:21Z</time>
      </trkpt>
      <trkpt lat="44.68421" lon="6.98003">
        <ele>2616.6</ele>
        <time>2022-07-18T08:19:22Z</time>
      </trkpt>
      <trkpt lat="44.6842" lon="6.98">
        <ele>2616.6</ele>
        <time>2022-07-18T08:19:23Z</time>
      </trkpt>
      <trkpt lat="44.68418" lon="6.97998">
        <ele>2617</ele>
        <time>2022-07-18T08:19:24Z</time>
      </trkpt>
      <trkpt lat="44.68417" lon="6.97996">
        <ele>2617</ele>
        <time>2022-07-18T08:19:25Z</time>
      </trkpt>
      <trkpt lat="44.68416" lon="6.97994">
        <ele>2617.2</ele>
        <time>2022-07-18T08:19:26Z</time>
      </trkpt>
      <trkpt lat="44.68415" lon="6.97992">
        <ele>2617.2</ele>
        <time>2022-07-18T08:19:27Z</time>
      </trkpt>
      <trkpt lat="44.68414" lon="6.9799">
        <ele>2617.2</ele>
        <time>2022-07-18T08:19:28Z</time>
      </trkpt>
      <trkpt lat="44.68413" lon="6.97988">
        <ele>2617.4</ele>
        <time>2022-07-18T08:19:29Z</time>
      </trkpt>
      <trkpt lat="44.68412" lon="6.97985">
        <ele>2617.4</ele>
        <time>2022-07-18T08:19:30Z</time>
      </trkpt>
      <trkpt lat="44.68411" lon="6.97983">
        <ele>2617.4</ele>
        <time>2022-07-18T08:19:31Z</time>
      </trkpt>
      <trkpt lat="44.6841" lon="6.97981">
        <ele>2617.8</ele>
        <time>2022-07-18T08:19:32Z</time>
      </trkpt>
      <trkpt lat="44.68409" lon="6.97979">
        <ele>2617.8</ele>
        <time>2022-07-18T08:19:33Z</time>
      </trkpt>
      <trkpt lat="44.68408" lon="6.97977">
        <ele>2618</ele>
        <time>2022-07-18T08:19:34Z</time>
      </trkpt>
      <trkpt lat="44.68407" lon="6.97974">
        <ele>2618</ele>
        <time>2022-07-18T08:19:35Z</time>
      </trkpt>
      <trkpt lat="44.68406" lon="6.97972">
        <ele>2618.4</ele>
        <time>2022-07-18T08:19:36Z</time>
      </trkpt>
      <trkpt lat="44.68405" lon="6.9797">
        <ele>2618.4</ele>
        <time>2022-07-18T08:19:37Z</time>
      </trkpt>
      <trkpt lat="44.68404" lon="6.97968">
        <ele>2618.4</ele>
        <time>2022-07-18T08:19:38Z</time>
      </trkpt>
      <trkpt lat="44.68403" lon="6.97966">
        <ele>2618.8</ele>
        <time>2022-07-18T08:19:39Z</time>
      </trkpt>
      <trkpt lat="44.68402" lon="6.97963">
        <ele>2618.8</ele>
        <time>2022-07-18T08:19:40Z</time>
      </trkpt>
      <trkpt lat="44.68401" lon="6.97961">
        <ele>2618.8</ele>
        <time>2022-07-18T08:19:41Z</time>
      </trkpt>
      <trkpt lat="44.684" lon="6.97959">
        <ele>2619</ele>
        <time>2022-07-18T08:19:42Z</time>
      </trkpt>
      <trkpt lat="44.68399" lon="6.97957">
        <ele>2619</ele>
        <time>2022-07-18T08:19:43Z</time>
      </trkpt>
      <trkpt lat="44.68399" lon="6.97955">
        <ele>2619.4</ele>
        <time>2022-07-18T08:19:44Z</time>
      </trkpt>
      <trkpt lat="44.68398" lon="6.97953">
        <ele>2619.4</ele>
        <time>2022-07-18T08:19:45Z</time>
      </trkpt>
      <trkpt lat="44.68397" lon="6.97952">
        <ele>2619.8</ele>
        <time>2022-07-18T08:19:46Z</time>
      </trkpt>
      <trkpt lat="44.68396" lon="6.9795">
        <ele>2619.8</ele>
        <time>2022-07-18T08:19:47Z</time>
      </trkpt>
      <trkpt lat="44.68395" lon="6.97949">
        <ele>2620</ele>
        <time>2022-07-18T08:19:48Z</time>
      </trkpt>
      <trkpt lat="44.68394" lon="6.97947">
        <ele>2620</ele>
        <time>2022-07-18T08:19:49Z</time>
      </trkpt>
      <trkpt lat="44.68392" lon="6.97946">
        <ele>2620.2</ele>
        <time>2022-07-18T08:19:50Z</time>
      </trkpt>
      <trkpt lat="44.68391" lon="6.97944">
        <ele>2620.2</ele>
        <time>2022-07-18T08:19:51Z</time>
      </trkpt>
      <trkpt lat="44.6839" lon="6.97942">
        <ele>2620.4</ele>
        <time>2022-07-18T08:19:52Z</time>
      </trkpt>
      <trkpt lat="44.68388" lon="6.97941">
        <ele>2620.4</ele>
        <time>2022-07-18T08:19:53Z</time>
      </trkpt>
      <trkpt lat="44.68387" lon="6.97939">
        <ele>2620.8</ele>
        <time>2022-07-18T08:19:54Z</time>
      </trkpt>
      <trkpt lat="44.68386" lon="6.97938">
        <ele>2620.8</ele>
        <time>2022-07-18T08:19:55Z</time>
      </trkpt>
      <trkpt lat="44.68385" lon="6.97936">
        <ele>2620.8</ele>
        <time>2022-07-18T08:19:56Z</time>
      </trkpt>
      <trkpt lat="44.68384" lon="6.97935">
        <ele>2621</ele>
        <time>2022-07-18T08:19:57Z</time>
      </trkpt>
      <trkpt lat="44.68383" lon="6.97934">
        <ele>2621</ele>
        <time>2022-07-18T08:19:58Z</time>
      </trkpt>
      <trkpt lat="44.68383" lon="6.97934">
        <ele>2621</ele>
        <time>2022-07-18T08:19:59Z</time>
      </trkpt>
      <trkpt lat="44.68383" lon="6.97934">
        <ele>2621.2</ele>
        <time>2022-07-18T08:20:08Z</time>
      </trkpt>
      <trkpt lat="44.68382" lon="6.9794">
        <ele>2621.2</ele>
        <time>2022-07-18T08:20:10Z</time>
      </trkpt>
      <trkpt lat="44.68383" lon="6.97941">
        <ele>2621.2</ele>
        <time>2022-07-18T08:20:11Z</time>
      </trkpt>
      <trkpt lat="44.68383" lon="6.97942">
        <ele>2621.2</ele>
        <time>2022-07-18T08:20:12Z</time>
      </trkpt>
      <trkpt lat="44.68383" lon="6.97943">
        <ele>2621.2</ele>
        <time>2022-07-18T08:20:13Z</time>
      </trkpt>
      <trkpt lat="44.68384" lon="6.97944">
        <ele>2621.2</ele>
        <time>2022-07-18T08:20:14Z</time>
      </trkpt>
      <trkpt lat="44.68387" lon="6.97947">
        <ele>2621.2</ele>
        <time>2022-07-18T08:20:18Z</time>
      </trkpt>
      <trkpt lat="44.68387" lon="6.97949">
        <ele>2621.2</ele>
        <time>2022-07-18T08:20:19Z</time>
      </trkpt>
      <trkpt lat="44.68388" lon="6.9795">
        <ele>2621.2</ele>
        <time>2022-07-18T08:20:20Z</time>
      </trkpt>
      <trkpt lat="44.68388" lon="6.97952">
        <ele>2621.2</ele>
        <time>2022-07-18T08:20:21Z</time>
      </trkpt>
      <trkpt lat="44.68389" lon="6.97953">
        <ele>2621</ele>
        <time>2022-07-18T08:20:22Z</time>
      </trkpt>
      <trkpt lat="44.68389" lon="6.97955">
        <ele>2621</ele>
        <time>2022-07-18T08:20:23Z</time>
      </trkpt>
      <trkpt lat="44.68389" lon="6.97956">
        <ele>2621</ele>
        <time>2022-07-18T08:20:24Z</time>
      </trkpt>
      <trkpt lat="44.68389" lon="6.97958">
        <ele>2621</ele>
        <time>2022-07-18T08:20:25Z</time>
      </trkpt>
      <trkpt lat="44.6839" lon="6.97959">
        <ele>2621</ele>
        <time>2022-07-18T08:20:26Z</time>
      </trkpt>
      <trkpt lat="44.6839" lon="6.97961">
        <ele>2620.6</ele>
        <time>2022-07-18T08:20:27Z</time>
      </trkpt>
      <trkpt lat="44.68391" lon="6.97962">
        <ele>2620.6</ele>
        <time>2022-07-18T08:20:28Z</time>
      </trkpt>
      <trkpt lat="44.68391" lon="6.97963">
        <ele>2620.6</ele>
        <time>2022-07-18T08:20:29Z</time>
      </trkpt>
      <trkpt lat="44.68392" lon="6.97965">
        <ele>2620.4</ele>
        <time>2022-07-18T08:20:30Z</time>
      </trkpt>
      <trkpt lat="44.68392" lon="6.97966">
        <ele>2620.4</ele>
        <time>2022-07-18T08:20:31Z</time>
      </trkpt>
      <trkpt lat="44.68392" lon="6.97967">
        <ele>2620.4</ele>
        <time>2022-07-18T08:20:32Z</time>
      </trkpt>
      <trkpt lat="44.68392" lon="6.97967">
        <ele>2620.2</ele>
        <time>2022-07-18T08:20:33Z</time>
      </trkpt>
      <trkpt lat="44.68392" lon="6.97967">
        <ele>2620.2</ele>
        <time>2022-07-18T08:20:34Z</time>
      </trkpt>
      <trkpt lat="44.68392" lon="6.97967">
        <ele>2620.2</ele>
        <time>2022-07-18T08:20:39Z</time>
      </trkpt>
      <trkpt lat="44.68392" lon="6.97967">
        <ele>2620.2</ele>
        <time>2022-07-18T08:20:46Z</time>
      </trkpt>
      <trkpt lat="44.68392" lon="6.97967">
        <ele>2620.2</ele>
        <time>2022-07-18T08:20:51Z</time>
      </trkpt>
      <trkpt lat="44.68392" lon="6.97967">
        <ele>2620</ele>
        <time>2022-07-18T08:21:16Z</time>
      </trkpt>
      <trkpt lat="44.68392" lon="6.97967">
        <ele>2619.8</ele>
        <time>2022-07-18T08:21:21Z</time>
      </trkpt>
      <trkpt lat="44.68392" lon="6.97967">
        <ele>2619.8</ele>
        <time>2022-07-18T08:21:26Z</time>
      </trkpt>
      <trkpt lat="44.68392" lon="6.97967">
        <ele>2619.8</ele>
        <time>2022-07-18T08:21:30Z</time>
      </trkpt>
      <trkpt lat="44.68392" lon="6.97967">
        <ele>2619.8</ele>
        <time>2022-07-18T08:22:24Z</time>
      </trkpt>
      <trkpt lat="44.68391" lon="6.97966">
        <ele>2619.8</ele>
        <time>2022-07-18T08:22:26Z</time>
      </trkpt>
      <trkpt lat="44.68391" lon="6.97965">
        <ele>2619.8</ele>
        <time>2022-07-18T08:22:27Z</time>
      </trkpt>
      <trkpt lat="44.6839" lon="6.97963">
        <ele>2619.8</ele>
        <time>2022-07-18T08:22:28Z</time>
      </trkpt>
      <trkpt lat="44.6839" lon="6.97962">
        <ele>2620</ele>
        <time>2022-07-18T08:22:29Z</time>
      </trkpt>
      <trkpt lat="44.6839" lon="6.9796">
        <ele>2620</ele>
        <time>2022-07-18T08:22:30Z</time>
      </trkpt>
      <trkpt lat="44.6839" lon="6.97958">
        <ele>2620</ele>
        <time>2022-07-18T08:22:31Z</time>
      </trkpt>
      <trkpt lat="44.68389" lon="6.97957">
        <ele>2620.2</ele>
        <time>2022-07-18T08:22:32Z</time>
      </trkpt>
      <trkpt lat="44.68389" lon="6.97955">
        <ele>2620.2</ele>
        <time>2022-07-18T08:22:33Z</time>
      </trkpt>
      <trkpt lat="44.68389" lon="6.97954">
        <ele>2620.2</ele>
        <time>2022-07-18T08:22:34Z</time>
      </trkpt>
      <trkpt lat="44.68388" lon="6.97952">
        <ele>2620.2</ele>
        <time>2022-07-18T08:22:35Z</time>
      </trkpt>
      <trkpt lat="44.68388" lon="6.97951">
        <ele>2620.2</ele>
        <time>2022-07-18T08:22:36Z</time>
      </trkpt>
      <trkpt lat="44.68387" lon="6.97949">
        <ele>2620.4</ele>
        <time>2022-07-18T08:22:37Z</time>
      </trkpt>
      <trkpt lat="44.68387" lon="6.97948">
        <ele>2620.4</ele>
        <time>2022-07-18T08:22:38Z</time>
      </trkpt>
      <trkpt lat="44.68386" lon="6.97947">
        <ele>2620.6</ele>
        <time>2022-07-18T08:22:39Z</time>
      </trkpt>
      <trkpt lat="44.68385" lon="6.97946">
        <ele>2620.6</ele>
        <time>2022-07-18T08:22:40Z</time>
      </trkpt>
      <trkpt lat="44.68384" lon="6.97945">
        <ele>2620.6</ele>
        <time>2022-07-18T08:22:41Z</time>
      </trkpt>
      <trkpt lat="44.68384" lon="6.97944">
        <ele>2620.6</ele>
        <time>2022-07-18T08:22:42Z</time>
      </trkpt>
      <trkpt lat="44.68383" lon="6.97944">
        <ele>2620.8</ele>
        <time>2022-07-18T08:22:43Z</time>
      </trkpt>
      <trkpt lat="44.68382" lon="6.97943">
        <ele>2620.8</ele>
        <time>2022-07-18T08:22:44Z</time>
      </trkpt>
      <trkpt lat="44.68381" lon="6.97943">
        <ele>2620.8</ele>
        <time>2022-07-18T08:22:45Z</time>
      </trkpt>
      <trkpt lat="44.68381" lon="6.97943">
        <ele>2621.2</ele>
        <time>2022-07-18T08:22:52Z</time>
      </trkpt>
      <trkpt lat="44.68381" lon="6.97943">
        <ele>2621.2</ele>
        <time>2022-07-18T08:22:56Z</time>
      </trkpt>
      <trkpt lat="44.68381" lon="6.97943">
        <ele>2621.6</ele>
        <time>2022-07-18T08:26:32Z</time>
      </trkpt>
      <trkpt lat="44.68381" lon="6.97943">
        <ele>2621.6</ele>
        <time>2022-07-18T08:26:39Z</time>
      </trkpt>
      <trkpt lat="44.68381" lon="6.97943">
        <ele>2622.4</ele>
        <time>2022-07-18T08:28:59Z</time>
      </trkpt>
      <trkpt lat="44.68381" lon="6.97943">
        <ele>2622.4</ele>
        <time>2022-07-18T08:29:03Z</time>
      </trkpt>
      <trkpt lat="44.68381" lon="6.97943">
        <ele>2622.4</ele>
        <time>2022-07-18T08:29:08Z</time>
      </trkpt>
      <trkpt lat="44.68381" lon="6.97943">
        <ele>2622.4</ele>
        <time>2022-07-18T08:29:15Z</time>
      </trkpt>
      <trkpt lat="44.68381" lon="6.97943">
        <ele>2622.4</ele>
        <time>2022-07-18T08:29:19Z</time>
      </trkpt>
      <trkpt lat="44.6838" lon="6.97944">
        <ele>2622.4</ele>
        <time>2022-07-18T08:29:22Z</time>
      </trkpt>
      <trkpt lat="44.68381" lon="6.97945">
        <ele>2622.2</ele>
        <time>2022-07-18T08:29:23Z</time>
      </trkpt>
      <trkpt lat="44.68382" lon="6.97945">
        <ele>2622.2</ele>
        <time>2022-07-18T08:29:24Z</time>
      </trkpt>
      <trkpt lat="44.68384" lon="6.97946">
        <ele>2622.2</ele>
        <time>2022-07-18T08:29:25Z</time>
      </trkpt>
      <trkpt lat="44.68385" lon="6.97947">
        <ele>2622.2</ele>
        <time>2022-07-18T08:29:26Z</time>
      </trkpt>
      <trkpt lat="44.68386" lon="6.97948">
        <ele>2622.2</ele>
        <time>2022-07-18T08:29:27Z</time>
      </trkpt>
      <trkpt lat="44.68387" lon="6.97951">
        <ele>2622</ele>
        <time>2022-07-18T08:29:28Z</time>
      </trkpt>
      <trkpt lat="44.68388" lon="6.97954">
        <ele>2622</ele>
        <time>2022-07-18T08:29:29Z</time>
      </trkpt>
      <trkpt lat="44.68388" lon="6.97957">
        <ele>2622</ele>
        <time>2022-07-18T08:29:30Z</time>
      </trkpt>
      <trkpt lat="44.68386" lon="6.97961">
        <ele>2621.6</ele>
        <time>2022-07-18T08:29:31Z</time>
      </trkpt>
      <trkpt lat="44.68385" lon="6.97965">
        <ele>2621.6</ele>
        <time>2022-07-18T08:29:32Z</time>
      </trkpt>
      <trkpt lat="44.68383" lon="6.97969">
        <ele>2621.4</ele>
        <time>2022-07-18T08:29:33Z</time>
      </trkpt>
      <trkpt lat="44.68381" lon="6.97975">
        <ele>2621.4</ele>
        <time>2022-07-18T08:29:34Z</time>
      </trkpt>
      <trkpt lat="44.6838" lon="6.97981">
        <ele>2621.2</ele>
        <time>2022-07-18T08:29:35Z</time>
      </trkpt>
      <trkpt lat="44.68378" lon="6.97987">
        <ele>2621.2</ele>
        <time>2022-07-18T08:29:36Z</time>
      </trkpt>
      <trkpt lat="44.68377" lon="6.97995">
        <ele>2620.8</ele>
        <time>2022-07-18T08:29:37Z</time>
      </trkpt>
      <trkpt lat="44.68375" lon="6.98003">
        <ele>2620.4</ele>
        <time>2022-07-18T08:29:38Z</time>
      </trkpt>
      <trkpt lat="44.68373" lon="6.98013">
        <ele>2620</ele>
        <time>2022-07-18T08:29:39Z</time>
      </trkpt>
      <trkpt lat="44.68371" lon="6.98022">
        <ele>2619.6</ele>
        <time>2022-07-18T08:29:40Z</time>
      </trkpt>
      <trkpt lat="44.68369" lon="6.98033">
        <ele>2619.4</ele>
        <time>2022-07-18T08:29:41Z</time>
      </trkpt>
      <trkpt lat="44.68367" lon="6.98043">
        <ele>2619</ele>
        <time>2022-07-18T08:29:42Z</time>
      </trkpt>
      <trkpt lat="44.68364" lon="6.98053">
        <ele>2618.4</ele>
        <time>2022-07-18T08:29:43Z</time>
      </trkpt>
      <trkpt lat="44.6836" lon="6.98063">
        <ele>2617.8</ele>
        <time>2022-07-18T08:29:44Z</time>
      </trkpt>
      <trkpt lat="44.68356" lon="6.98074">
        <ele>2617</ele>
        <time>2022-07-18T08:29:45Z</time>
      </trkpt>
      <trkpt lat="44.68351" lon="6.98085">
        <ele>2616.4</ele>
        <time>2022-07-18T08:29:46Z</time>
      </trkpt>
      <trkpt lat="44.68347" lon="6.98095">
        <ele>2615.6</ele>
        <time>2022-07-18T08:29:47Z</time>
      </trkpt>
      <trkpt lat="44.68342" lon="6.98106">
        <ele>2614.8</ele>
        <time>2022-07-18T08:29:48Z</time>
      </trkpt>
      <trkpt lat="44.68338" lon="6.98116">
        <ele>2614.2</ele>
        <time>2022-07-18T08:29:49Z</time>
      </trkpt>
      <trkpt lat="44.68333" lon="6.98125">
        <ele>2613.6</ele>
        <time>2022-07-18T08:29:50Z</time>
      </trkpt>
      <trkpt lat="44.6833" lon="6.98134">
        <ele>2613</ele>
        <time>2022-07-18T08:29:51Z</time>
      </trkpt>
      <trkpt lat="44.68326" lon="6.98142">
        <ele>2612.6</ele>
        <time>2022-07-18T08:29:52Z</time>
      </trkpt>
      <trkpt lat="44.68324" lon="6.9815">
        <ele>2612.2</ele>
        <time>2022-07-18T08:29:53Z</time>
      </trkpt>
      <trkpt lat="44.68322" lon="6.98158">
        <ele>2611.8</ele>
        <time>2022-07-18T08:29:54Z</time>
      </trkpt>
      <trkpt lat="44.6832" lon="6.98165">
        <ele>2611.4</ele>
        <time>2022-07-18T08:29:55Z</time>
      </trkpt>
      <trkpt lat="44.68318" lon="6.98171">
        <ele>2611</ele>
        <time>2022-07-18T08:29:56Z</time>
      </trkpt>
      <trkpt lat="44.68316" lon="6.98175">
        <ele>2610.8</ele>
        <time>2022-07-18T08:29:57Z</time>
      </trkpt>
      <trkpt lat="44.68313" lon="6.98176">
        <ele>2610.4</ele>
        <time>2022-07-18T08:29:58Z</time>
      </trkpt>
      <trkpt lat="44.68311" lon="6.98172">
        <ele>2610.2</ele>
        <time>2022-07-18T08:29:59Z</time>
      </trkpt>
      <trkpt lat="44.6831" lon="6.98167">
        <ele>2609.8</ele>
        <time>2022-07-18T08:30:00Z</time>
      </trkpt>
      <trkpt lat="44.68311" lon="6.98161">
        <ele>2609.4</ele>
        <time>2022-07-18T08:30:01Z</time>
      </trkpt>
      <trkpt lat="44.68313" lon="6.98154">
        <ele>2609</ele>
        <time>2022-07-18T08:30:02Z</time>
      </trkpt>
      <trkpt lat="44.68315" lon="6.98146">
        <ele>2608.4</ele>
        <time>2022-07-18T08:30:03Z</time>
      </trkpt>
      <trkpt lat="44.68317" lon="6.98137">
        <ele>2608</ele>
        <time>2022-07-18T08:30:04Z</time>
      </trkpt>
      <trkpt lat="44.6832" lon="6.98127">
        <ele>2607.4</ele>
        <time>2022-07-18T08:30:05Z</time>
      </trkpt>
      <trkpt lat="44.68322" lon="6.98115">
        <ele>2606.6</ele>
        <time>2022-07-18T08:30:06Z</time>
      </trkpt>
      <trkpt lat="44.68325" lon="6.98103">
        <ele>2606</ele>
        <time>2022-07-18T08:30:07Z</time>
      </trkpt>
      <trkpt lat="44.68327" lon="6.98091">
        <ele>2605.2</ele>
        <time>2022-07-18T08:30:08Z</time>
      </trkpt>
      <trkpt lat="44.68328" lon="6.98076">
        <ele>2604.2</ele>
        <time>2022-07-18T08:30:09Z</time>
      </trkpt>
      <trkpt lat="44.68329" lon="6.98061">
        <ele>2603.4</ele>
        <time>2022-07-18T08:30:10Z</time>
      </trkpt>
      <trkpt lat="44.6833" lon="6.98047">
        <ele>2602.4</ele>
        <time>2022-07-18T08:30:11Z</time>
      </trkpt>
      <trkpt lat="44.68332" lon="6.98033">
        <ele>2601.6</ele>
        <time>2022-07-18T08:30:12Z</time>
      </trkpt>
      <trkpt lat="44.68334" lon="6.9802">
        <ele>2600.6</ele>
        <time>2022-07-18T08:30:13Z</time>
      </trkpt>
      <trkpt lat="44.68334" lon="6.98008">
        <ele>2599.8</ele>
        <time>2022-07-18T08:30:14Z</time>
      </trkpt>
      <trkpt lat="44.68333" lon="6.97996">
        <ele>2598.8</ele>
        <time>2022-07-18T08:30:15Z</time>
      </trkpt>
      <trkpt lat="44.68331" lon="6.97985">
        <ele>2597.8</ele>
        <time>2022-07-18T08:30:16Z</time>
      </trkpt>
      <trkpt lat="44.68327" lon="6.97976">
        <ele>2596.6</ele>
        <time>2022-07-18T08:30:17Z</time>
      </trkpt>
      <trkpt lat="44.68322" lon="6.97967">
        <ele>2595.6</ele>
        <time>2022-07-18T08:30:18Z</time>
      </trkpt>
      <trkpt lat="44.68315" lon="6.9796">
        <ele>2594.6</ele>
        <time>2022-07-18T08:30:19Z</time>
      </trkpt>
      <trkpt lat="44.68304" lon="6.97954">
        <ele>2593.6</ele>
        <time>2022-07-18T08:30:20Z</time>
      </trkpt>
      <trkpt lat="44.68293" lon="6.97949">
        <ele>2592.4</ele>
        <time>2022-07-18T08:30:21Z</time>
      </trkpt>
      <trkpt lat="44.68283" lon="6.97944">
        <ele>2591.4</ele>
        <time>2022-07-18T08:30:22Z</time>
      </trkpt>
      <trkpt lat="44.68272" lon="6.97938">
        <ele>2590.2</ele>
        <time>2022-07-18T08:30:23Z</time>
      </trkpt>
      <trkpt lat="44.68262" lon="6.97931">
        <ele>2589.2</ele>
        <time>2022-07-18T08:30:24Z</time>
      </trkpt>
      <trkpt lat="44.68253" lon="6.97923">
        <ele>2588</ele>
        <time>2022-07-18T08:30:25Z</time>
      </trkpt>
      <trkpt lat="44.68245" lon="6.97915">
        <ele>2587</ele>
        <time>2022-07-18T08:30:26Z</time>
      </trkpt>
      <trkpt lat="44.68236" lon="6.97907">
        <ele>2585.8</ele>
        <time>2022-07-18T08:30:27Z</time>
      </trkpt>
      <trkpt lat="44.68225" lon="6.97901">
        <ele>2584.4</ele>
        <time>2022-07-18T08:30:28Z</time>
      </trkpt>
      <trkpt lat="44.68214" lon="6.97896">
        <ele>2583.2</ele>
        <time>2022-07-18T08:30:29Z</time>
      </trkpt>
      <trkpt lat="44.68204" lon="6.97893">
        <ele>2581.8</ele>
        <time>2022-07-18T08:30:30Z</time>
      </trkpt>
      <trkpt lat="44.68193" lon="6.97891">
        <ele>2580.8</ele>
        <time>2022-07-18T08:30:31Z</time>
      </trkpt>
      <trkpt lat="44.68183" lon="6.97889">
        <ele>2579.4</ele>
        <time>2022-07-18T08:30:32Z</time>
      </trkpt>
      <trkpt lat="44.68173" lon="6.97886">
        <ele>2578</ele>
        <time>2022-07-18T08:30:33Z</time>
      </trkpt>
      <trkpt lat="44.68163" lon="6.97883">
        <ele>2576.8</ele>
        <time>2022-07-18T08:30:34Z</time>
      </trkpt>
      <trkpt lat="44.68155" lon="6.97882">
        <ele>2575.6</ele>
        <time>2022-07-18T08:30:35Z</time>
      </trkpt>
      <trkpt lat="44.68148" lon="6.97881">
        <ele>2574.6</ele>
        <time>2022-07-18T08:30:36Z</time>
      </trkpt>
      <trkpt lat="44.68142" lon="6.9788">
        <ele>2573.4</ele>
        <time>2022-07-18T08:30:37Z</time>
      </trkpt>
      <trkpt lat="44.68136" lon="6.9788">
        <ele>2573.4</ele>
        <time>2022-07-18T08:30:38Z</time>
      </trkpt>
      <trkpt lat="44.68131" lon="6.9788">
        <ele>2572.6</ele>
        <time>2022-07-18T08:30:39Z</time>
      </trkpt>
      <trkpt lat="44.68126" lon="6.9788">
        <ele>2571.6</ele>
        <time>2022-07-18T08:30:40Z</time>
      </trkpt>
      <trkpt lat="44.6812" lon="6.97879">
        <ele>2570.8</ele>
        <time>2022-07-18T08:30:41Z</time>
      </trkpt>
      <trkpt lat="44.68115" lon="6.97878">
        <ele>2570.2</ele>
        <time>2022-07-18T08:30:42Z</time>
      </trkpt>
      <trkpt lat="44.6811" lon="6.97878">
        <ele>2569.4</ele>
        <time>2022-07-18T08:30:43Z</time>
      </trkpt>
      <trkpt lat="44.68105" lon="6.97877">
        <ele>2568.6</ele>
        <time>2022-07-18T08:30:44Z</time>
      </trkpt>
      <trkpt lat="44.681" lon="6.97875">
        <ele>2568</ele>
        <time>2022-07-18T08:30:45Z</time>
      </trkpt>
      <trkpt lat="44.68095" lon="6.97874">
        <ele>2567.2</ele>
        <time>2022-07-18T08:30:46Z</time>
      </trkpt>
      <trkpt lat="44.6809" lon="6.97873">
        <ele>2566.6</ele>
        <time>2022-07-18T08:30:47Z</time>
      </trkpt>
      <trkpt lat="44.68084" lon="6.97872">
        <ele>2566</ele>
        <time>2022-07-18T08:30:48Z</time>
      </trkpt>
      <trkpt lat="44.68077" lon="6.9787">
        <ele>2565.6</ele>
        <time>2022-07-18T08:30:49Z</time>
      </trkpt>
      <trkpt lat="44.6807" lon="6.97867">
        <ele>2565</ele>
        <time>2022-07-18T08:30:50Z</time>
      </trkpt>
      <trkpt lat="44.68062" lon="6.97864">
        <ele>2564.2</ele>
        <time>2022-07-18T08:30:51Z</time>
      </trkpt>
      <trkpt lat="44.68054" lon="6.97861">
        <ele>2563.4</ele>
        <time>2022-07-18T08:30:52Z</time>
      </trkpt>
      <trkpt lat="44.68044" lon="6.97858">
        <ele>2562.4</ele>
        <time>2022-07-18T08:30:53Z</time>
      </trkpt>
      <trkpt lat="44.68034" lon="6.97854">
        <ele>2561</ele>
        <time>2022-07-18T08:30:54Z</time>
      </trkpt>
      <trkpt lat="44.68023" lon="6.97852">
        <ele>2559.8</ele>
        <time>2022-07-18T08:30:55Z</time>
      </trkpt>
      <trkpt lat="44.68013" lon="6.97851">
        <ele>2558.6</ele>
        <time>2022-07-18T08:30:56Z</time>
      </trkpt>
      <trkpt lat="44.68002" lon="6.97849">
        <ele>2557.6</ele>
        <time>2022-07-18T08:30:57Z</time>
      </trkpt>
      <trkpt lat="44.67992" lon="6.97846">
        <ele>2556.4</ele>
        <time>2022-07-18T08:30:58Z</time>
      </trkpt>
      <trkpt lat="44.67983" lon="6.97842">
        <ele>2555.2</ele>
        <time>2022-07-18T08:30:59Z</time>
      </trkpt>
      <trkpt lat="44.67974" lon="6.97839">
        <ele>2554</ele>
        <time>2022-07-18T08:31:00Z</time>
      </trkpt>
      <trkpt lat="44.67965" lon="6.97836">
        <ele>2552.8</ele>
        <time>2022-07-18T08:31:01Z</time>
      </trkpt>
      <trkpt lat="44.67956" lon="6.97835">
        <ele>2551.6</ele>
        <time>2022-07-18T08:31:02Z</time>
      </trkpt>
      <trkpt lat="44.67947" lon="6.97835">
        <ele>2550.4</ele>
        <time>2022-07-18T08:31:03Z</time>
      </trkpt>
      <trkpt lat="44.67938" lon="6.97834">
        <ele>2549.2</ele>
        <time>2022-07-18T08:31:04Z</time>
      </trkpt>
      <trkpt lat="44.67929" lon="6.97834">
        <ele>2548</ele>
        <time>2022-07-18T08:31:05Z</time>
      </trkpt>
      <trkpt lat="44.67921" lon="6.97834">
        <ele>2547</ele>
        <time>2022-07-18T08:31:06Z</time>
      </trkpt>
      <trkpt lat="44.67913" lon="6.97835">
        <ele>2545.8</ele>
        <time>2022-07-18T08:31:07Z</time>
      </trkpt>
      <trkpt lat="44.67905" lon="6.97837">
        <ele>2544.8</ele>
        <time>2022-07-18T08:31:08Z</time>
      </trkpt>
      <trkpt lat="44.67897" lon="6.97839">
        <ele>2543.6</ele>
        <time>2022-07-18T08:31:09Z</time>
      </trkpt>
      <trkpt lat="44.6789" lon="6.97841">
        <ele>2542.6</ele>
        <time>2022-07-18T08:31:10Z</time>
      </trkpt>
      <trkpt lat="44.67882" lon="6.97842">
        <ele>2541.8</ele>
        <time>2022-07-18T08:31:11Z</time>
      </trkpt>
      <trkpt lat="44.67874" lon="6.97841">
        <ele>2540.8</ele>
        <time>2022-07-18T08:31:12Z</time>
      </trkpt>
      <trkpt lat="44.67867" lon="6.97839">
        <ele>2540</ele>
        <time>2022-07-18T08:31:13Z</time>
      </trkpt>
      <trkpt lat="44.67858" lon="6.97835">
        <ele>2539.2</ele>
        <time>2022-07-18T08:31:14Z</time>
      </trkpt>
      <trkpt lat="44.6785" lon="6.9783">
        <ele>2538.2</ele>
        <time>2022-07-18T08:31:15Z</time>
      </trkpt>
      <trkpt lat="44.67842" lon="6.97824">
        <ele>2537.2</ele>
        <time>2022-07-18T08:31:16Z</time>
      </trkpt>
      <trkpt lat="44.67834" lon="6.97817">
        <ele>2536</ele>
        <time>2022-07-18T08:31:17Z</time>
      </trkpt>
      <trkpt lat="44.67825" lon="6.97811">
        <ele>2534.8</ele>
        <time>2022-07-18T08:31:18Z</time>
      </trkpt>
      <trkpt lat="44.67816" lon="6.97805">
        <ele>2533.6</ele>
        <time>2022-07-18T08:31:19Z</time>
      </trkpt>
      <trkpt lat="44.67808" lon="6.97798">
        <ele>2532.4</ele>
        <time>2022-07-18T08:31:20Z</time>
      </trkpt>
      <trkpt lat="44.678" lon="6.97789">
        <ele>2531.4</ele>
        <time>2022-07-18T08:31:21Z</time>
      </trkpt>
      <trkpt lat="44.67792" lon="6.97782">
        <ele>2530.4</ele>
        <time>2022-07-18T08:31:22Z</time>
      </trkpt>
      <trkpt lat="44.67783" lon="6.97776">
        <ele>2529.4</ele>
        <time>2022-07-18T08:31:23Z</time>
      </trkpt>
      <trkpt lat="44.67775" lon="6.97769">
        <ele>2528.4</ele>
        <time>2022-07-18T08:31:24Z</time>
      </trkpt>
      <trkpt lat="44.67767" lon="6.97764">
        <ele>2527.4</ele>
        <time>2022-07-18T08:31:25Z</time>
      </trkpt>
      <trkpt lat="44.67759" lon="6.9776">
        <ele>2526.2</ele>
        <time>2022-07-18T08:31:26Z</time>
      </trkpt>
      <trkpt lat="44.67751" lon="6.97756">
        <ele>2525.2</ele>
        <time>2022-07-18T08:31:27Z</time>
      </trkpt>
      <trkpt lat="44.67744" lon="6.97752">
        <ele>2524.2</ele>
        <time>2022-07-18T08:31:28Z</time>
      </trkpt>
      <trkpt lat="44.67737" lon="6.97748">
        <ele>2523.4</ele>
        <time>2022-07-18T08:31:29Z</time>
      </trkpt>
      <trkpt lat="44.67731" lon="6.97744">
        <ele>2522.4</ele>
        <time>2022-07-18T08:31:30Z</time>
      </trkpt>
      <trkpt lat="44.67727" lon="6.97739">
        <ele>2521.6</ele>
        <time>2022-07-18T08:31:31Z</time>
      </trkpt>
      <trkpt lat="44.67723" lon="6.97735">
        <ele>2520.6</ele>
        <time>2022-07-18T08:31:32Z</time>
      </trkpt>
      <trkpt lat="44.67719" lon="6.97733">
        <ele>2520</ele>
        <time>2022-07-18T08:31:33Z</time>
      </trkpt>
      <trkpt lat="44.67715" lon="6.97732">
        <ele>2519.4</ele>
        <time>2022-07-18T08:31:34Z</time>
      </trkpt>
      <trkpt lat="44.67713" lon="6.97734">
        <ele>2518.8</ele>
        <time>2022-07-18T08:31:35Z</time>
      </trkpt>
      <trkpt lat="44.67712" lon="6.97739">
        <ele>2518.4</ele>
        <time>2022-07-18T08:31:36Z</time>
      </trkpt>
      <trkpt lat="44.67713" lon="6.97744">
        <ele>2518</ele>
        <time>2022-07-18T08:31:37Z</time>
      </trkpt>
      <trkpt lat="44.67716" lon="6.97749">
        <ele>2517.6</ele>
        <time>2022-07-18T08:31:38Z</time>
      </trkpt>
      <trkpt lat="44.6772" lon="6.97755">
        <ele>2517</ele>
        <time>2022-07-18T08:31:39Z</time>
      </trkpt>
      <trkpt lat="44.67725" lon="6.9776">
        <ele>2516.6</ele>
        <time>2022-07-18T08:31:40Z</time>
      </trkpt>
      <trkpt lat="44.6773" lon="6.97767">
        <ele>2516</ele>
        <time>2022-07-18T08:31:41Z</time>
      </trkpt>
      <trkpt lat="44.67736" lon="6.97775">
        <ele>2515.4</ele>
        <time>2022-07-18T08:31:42Z</time>
      </trkpt>
      <trkpt lat="44.67742" lon="6.97783">
        <ele>2514.8</ele>
        <time>2022-07-18T08:31:43Z</time>
      </trkpt>
      <trkpt lat="44.67748" lon="6.97792">
        <ele>2514.2</ele>
        <time>2022-07-18T08:31:44Z</time>
      </trkpt>
      <trkpt lat="44.67754" lon="6.97802">
        <ele>2513.6</ele>
        <time>2022-07-18T08:31:45Z</time>
      </trkpt>
      <trkpt lat="44.6776" lon="6.97812">
        <ele>2512.8</ele>
        <time>2022-07-18T08:31:46Z</time>
      </trkpt>
      <trkpt lat="44.67766" lon="6.97823">
        <ele>2512</ele>
        <time>2022-07-18T08:31:47Z</time>
      </trkpt>
      <trkpt lat="44.67772" lon="6.97836">
        <ele>2511.4</ele>
        <time>2022-07-18T08:31:48Z</time>
      </trkpt>
      <trkpt lat="44.67778" lon="6.97848">
        <ele>2510.6</ele>
        <time>2022-07-18T08:31:49Z</time>
      </trkpt>
      <trkpt lat="44.67785" lon="6.9786">
        <ele>2509.8</ele>
        <time>2022-07-18T08:31:50Z</time>
      </trkpt>
      <trkpt lat="44.67793" lon="6.9787">
        <ele>2509</ele>
        <time>2022-07-18T08:31:51Z</time>
      </trkpt>
      <trkpt lat="44.678" lon="6.9788">
        <ele>2508.2</ele>
        <time>2022-07-18T08:31:52Z</time>
      </trkpt>
      <trkpt lat="44.67807" lon="6.9789">
        <ele>2507.6</ele>
        <time>2022-07-18T08:31:53Z</time>
      </trkpt>
      <trkpt lat="44.67814" lon="6.97902">
        <ele>2506.8</ele>
        <time>2022-07-18T08:31:54Z</time>
      </trkpt>
      <trkpt lat="44.67819" lon="6.97912">
        <ele>2505.8</ele>
        <time>2022-07-18T08:31:55Z</time>
      </trkpt>
      <trkpt lat="44.67823" lon="6.97922">
        <ele>2505</ele>
        <time>2022-07-18T08:31:56Z</time>
      </trkpt>
      <trkpt lat="44.67828" lon="6.97931">
        <ele>2504.2</ele>
        <time>2022-07-18T08:31:57Z</time>
      </trkpt>
      <trkpt lat="44.67833" lon="6.97938">
        <ele>2503.6</ele>
        <time>2022-07-18T08:31:58Z</time>
      </trkpt>
      <trkpt lat="44.67838" lon="6.97946">
        <ele>2502.8</ele>
        <time>2022-07-18T08:31:59Z</time>
      </trkpt>
      <trkpt lat="44.67843" lon="6.97952">
        <ele>2502.4</ele>
        <time>2022-07-18T08:32:00Z</time>
      </trkpt>
      <trkpt lat="44.67849" lon="6.97958">
        <ele>2501.6</ele>
        <time>2022-07-18T08:32:01Z</time>
      </trkpt>
      <trkpt lat="44.67855" lon="6.97964">
        <ele>2501</ele>
        <time>2022-07-18T08:32:02Z</time>
      </trkpt>
      <trkpt lat="44.6786" lon="6.97968">
        <ele>2500.4</ele>
        <time>2022-07-18T08:32:03Z</time>
      </trkpt>
      <trkpt lat="44.67865" lon="6.97971">
        <ele>2499.6</ele>
        <time>2022-07-18T08:32:04Z</time>
      </trkpt>
      <trkpt lat="44.6787" lon="6.97974">
        <ele>2499</ele>
        <time>2022-07-18T08:32:05Z</time>
      </trkpt>
      <trkpt lat="44.67875" lon="6.97977">
        <ele>2498.4</ele>
        <time>2022-07-18T08:32:06Z</time>
      </trkpt>
      <trkpt lat="44.67881" lon="6.97982">
        <ele>2497.8</ele>
        <time>2022-07-18T08:32:07Z</time>
      </trkpt>
      <trkpt lat="44.67887" lon="6.97987">
        <ele>2497.2</ele>
        <time>2022-07-18T08:32:08Z</time>
      </trkpt>
      <trkpt lat="44.67892" lon="6.97995">
        <ele>2496.6</ele>
        <time>2022-07-18T08:32:09Z</time>
      </trkpt>
      <trkpt lat="44.67897" lon="6.98003">
        <ele>2496.2</ele>
        <time>2022-07-18T08:32:10Z</time>
      </trkpt>
      <trkpt lat="44.67902" lon="6.9801">
        <ele>2495.6</ele>
        <time>2022-07-18T08:32:11Z</time>
      </trkpt>
      <trkpt lat="44.67908" lon="6.98017">
        <ele>2495.2</ele>
        <time>2022-07-18T08:32:12Z</time>
      </trkpt>
      <trkpt lat="44.67913" lon="6.98024">
        <ele>2494.6</ele>
        <time>2022-07-18T08:32:13Z</time>
      </trkpt>
      <trkpt lat="44.67918" lon="6.98032">
        <ele>2494</ele>
        <time>2022-07-18T08:32:14Z</time>
      </trkpt>
      <trkpt lat="44.67922" lon="6.98041">
        <ele>2493.4</ele>
        <time>2022-07-18T08:32:15Z</time>
      </trkpt>
      <trkpt lat="44.67924" lon="6.98051">
        <ele>2493</ele>
        <time>2022-07-18T08:32:16Z</time>
      </trkpt>
      <trkpt lat="44.67924" lon="6.98061">
        <ele>2492.6</ele>
        <time>2022-07-18T08:32:17Z</time>
      </trkpt>
      <trkpt lat="44.67925" lon="6.98071">
        <ele>2492</ele>
        <time>2022-07-18T08:32:18Z</time>
      </trkpt>
      <trkpt lat="44.67926" lon="6.98081">
        <ele>2491.4</ele>
        <time>2022-07-18T08:32:19Z</time>
      </trkpt>
      <trkpt lat="44.67926" lon="6.9809">
        <ele>2490.6</ele>
        <time>2022-07-18T08:32:20Z</time>
      </trkpt>
      <trkpt lat="44.67927" lon="6.98098">
        <ele>2490</ele>
        <time>2022-07-18T08:32:21Z</time>
      </trkpt>
      <trkpt lat="44.6793" lon="6.98105">
        <ele>2489.2</ele>
        <time>2022-07-18T08:32:22Z</time>
      </trkpt>
      <trkpt lat="44.67934" lon="6.98111">
        <ele>2488.4</ele>
        <time>2022-07-18T08:32:23Z</time>
      </trkpt>
      <trkpt lat="44.6794" lon="6.98116">
        <ele>2487.6</ele>
        <time>2022-07-18T08:32:24Z</time>
      </trkpt>
      <trkpt lat="44.67947" lon="6.9812">
        <ele>2486.8</ele>
        <time>2022-07-18T08:32:25Z</time>
      </trkpt>
      <trkpt lat="44.67954" lon="6.98125">
        <ele>2486.2</ele>
        <time>2022-07-18T08:32:26Z</time>
      </trkpt>
      <trkpt lat="44.6796" lon="6.98131">
        <ele>2485.4</ele>
        <time>2022-07-18T08:32:27Z</time>
      </trkpt>
      <trkpt lat="44.67966" lon="6.9814">
        <ele>2484.4</ele>
        <time>2022-07-18T08:32:28Z</time>
      </trkpt>
      <trkpt lat="44.67972" lon="6.9815">
        <ele>2483.6</ele>
        <time>2022-07-18T08:32:29Z</time>
      </trkpt>
      <trkpt lat="44.67977" lon="6.9816">
        <ele>2482.8</ele>
        <time>2022-07-18T08:32:30Z</time>
      </trkpt>
      <trkpt lat="44.67982" lon="6.9817">
        <ele>2482</ele>
        <time>2022-07-18T08:32:31Z</time>
      </trkpt>
      <trkpt lat="44.67987" lon="6.9818">
        <ele>2481.4</ele>
        <time>2022-07-18T08:32:32Z</time>
      </trkpt>
      <trkpt lat="44.67993" lon="6.98189">
        <ele>2480.6</ele>
        <time>2022-07-18T08:32:33Z</time>
      </trkpt>
      <trkpt lat="44.67999" lon="6.98199">
        <ele>2479.6</ele>
        <time>2022-07-18T08:32:34Z</time>
      </trkpt>
      <trkpt lat="44.68004" lon="6.98209">
        <ele>2478.8</ele>
        <time>2022-07-18T08:32:35Z</time>
      </trkpt>
      <trkpt lat="44.6801" lon="6.98219">
        <ele>2477.8</ele>
        <time>2022-07-18T08:32:36Z</time>
      </trkpt>
      <trkpt lat="44.68015" lon="6.9823">
        <ele>2477</ele>
        <time>2022-07-18T08:32:37Z</time>
      </trkpt>
      <trkpt lat="44.6802" lon="6.9824">
        <ele>2475.8</ele>
        <time>2022-07-18T08:32:38Z</time>
      </trkpt>
      <trkpt lat="44.68025" lon="6.9825">
        <ele>2474.8</ele>
        <time>2022-07-18T08:32:39Z</time>
      </trkpt>
      <trkpt lat="44.68031" lon="6.9826">
        <ele>2473.8</ele>
        <time>2022-07-18T08:32:40Z</time>
      </trkpt>
      <trkpt lat="44.68036" lon="6.98268">
        <ele>2472</ele>
        <time>2022-07-18T08:32:42Z</time>
      </trkpt>
      <trkpt lat="44.68041" lon="6.98276">
        <ele>2471.2</ele>
        <time>2022-07-18T08:32:43Z</time>
      </trkpt>
      <trkpt lat="44.68046" lon="6.98284">
        <ele>2470.4</ele>
        <time>2022-07-18T08:32:44Z</time>
      </trkpt>
      <trkpt lat="44.6805" lon="6.98292">
        <ele>2469.6</ele>
        <time>2022-07-18T08:32:45Z</time>
      </trkpt>
      <trkpt lat="44.68053" lon="6.98302">
        <ele>2468.6</ele>
        <time>2022-07-18T08:32:46Z</time>
      </trkpt>
      <trkpt lat="44.68055" lon="6.98313">
        <ele>2467.8</ele>
        <time>2022-07-18T08:32:47Z</time>
      </trkpt>
      <trkpt lat="44.68054" lon="6.98324">
        <ele>2467</ele>
        <time>2022-07-18T08:32:48Z</time>
      </trkpt>
      <trkpt lat="44.68051" lon="6.98336">
        <ele>2466.2</ele>
        <time>2022-07-18T08:32:49Z</time>
      </trkpt>
      <trkpt lat="44.68046" lon="6.98347">
        <ele>2465.4</ele>
        <time>2022-07-18T08:32:50Z</time>
      </trkpt>
      <trkpt lat="44.6804" lon="6.9836">
        <ele>2464.6</ele>
        <time>2022-07-18T08:32:51Z</time>
      </trkpt>
      <trkpt lat="44.68035" lon="6.98374">
        <ele>2463.8</ele>
        <time>2022-07-18T08:32:52Z</time>
      </trkpt>
      <trkpt lat="44.6803" lon="6.98388">
        <ele>2463</ele>
        <time>2022-07-18T08:32:53Z</time>
      </trkpt>
      <trkpt lat="44.68025" lon="6.98402">
        <ele>2462</ele>
        <time>2022-07-18T08:32:54Z</time>
      </trkpt>
      <trkpt lat="44.6802" lon="6.98415">
        <ele>2461.2</ele>
        <time>2022-07-18T08:32:55Z</time>
      </trkpt>
      <trkpt lat="44.68014" lon="6.98429">
        <ele>2460.2</ele>
        <time>2022-07-18T08:32:56Z</time>
      </trkpt>
      <trkpt lat="44.68008" lon="6.98442">
        <ele>2459.2</ele>
        <time>2022-07-18T08:32:57Z</time>
      </trkpt>
      <trkpt lat="44.68002" lon="6.98456">
        <ele>2458.4</ele>
        <time>2022-07-18T08:32:58Z</time>
      </trkpt>
      <trkpt lat="44.67996" lon="6.98468">
        <ele>2457.8</ele>
        <time>2022-07-18T08:32:59Z</time>
      </trkpt>
      <trkpt lat="44.67989" lon="6.9848">
        <ele>2457</ele>
        <time>2022-07-18T08:33:00Z</time>
      </trkpt>
      <trkpt lat="44.67983" lon="6.98492">
        <ele>2456.4</ele>
        <time>2022-07-18T08:33:01Z</time>
      </trkpt>
      <trkpt lat="44.67977" lon="6.98504">
        <ele>2455.8</ele>
        <time>2022-07-18T08:33:02Z</time>
      </trkpt>
      <trkpt lat="44.67971" lon="6.98517">
        <ele>2455</ele>
        <time>2022-07-18T08:33:03Z</time>
      </trkpt>
      <trkpt lat="44.67965" lon="6.98528">
        <ele>2454.4</ele>
        <time>2022-07-18T08:33:04Z</time>
      </trkpt>
      <trkpt lat="44.67958" lon="6.9854">
        <ele>2453.6</ele>
        <time>2022-07-18T08:33:05Z</time>
      </trkpt>
      <trkpt lat="44.67953" lon="6.98551">
        <ele>2453</ele>
        <time>2022-07-18T08:33:06Z</time>
      </trkpt>
      <trkpt lat="44.67947" lon="6.98561">
        <ele>2452.4</ele>
        <time>2022-07-18T08:33:07Z</time>
      </trkpt>
      <trkpt lat="44.67941" lon="6.98572">
        <ele>2451.6</ele>
        <time>2022-07-18T08:33:08Z</time>
      </trkpt>
      <trkpt lat="44.67936" lon="6.98582">
        <ele>2451</ele>
        <time>2022-07-18T08:33:09Z</time>
      </trkpt>
      <trkpt lat="44.6793" lon="6.98593">
        <ele>2450.4</ele>
        <time>2022-07-18T08:33:10Z</time>
      </trkpt>
      <trkpt lat="44.67926" lon="6.98603">
        <ele>2449.8</ele>
        <time>2022-07-18T08:33:11Z</time>
      </trkpt>
      <trkpt lat="44.67921" lon="6.98614">
        <ele>2449.2</ele>
        <time>2022-07-18T08:33:12Z</time>
      </trkpt>
      <trkpt lat="44.67917" lon="6.98624">
        <ele>2448.6</ele>
        <time>2022-07-18T08:33:13Z</time>
      </trkpt>
      <trkpt lat="44.67913" lon="6.98634">
        <ele>2448</ele>
        <time>2022-07-18T08:33:14Z</time>
      </trkpt>
      <trkpt lat="44.6791" lon="6.98644">
        <ele>2447.4</ele>
        <time>2022-07-18T08:33:15Z</time>
      </trkpt>
      <trkpt lat="44.67908" lon="6.98656">
        <ele>2446.8</ele>
        <time>2022-07-18T08:33:16Z</time>
      </trkpt>
      <trkpt lat="44.67907" lon="6.98669">
        <ele>2446</ele>
        <time>2022-07-18T08:33:17Z</time>
      </trkpt>
      <trkpt lat="44.67908" lon="6.98683">
        <ele>2445.4</ele>
        <time>2022-07-18T08:33:18Z</time>
      </trkpt>
      <trkpt lat="44.6791" lon="6.98696">
        <ele>2443.4</ele>
        <time>2022-07-18T08:33:19Z</time>
      </trkpt>
      <trkpt lat="44.67912" lon="6.9871">
        <ele>2442.6</ele>
        <time>2022-07-18T08:33:20Z</time>
      </trkpt>
      <trkpt lat="44.67914" lon="6.98724">
        <ele>2441.6</ele>
        <time>2022-07-18T08:33:21Z</time>
      </trkpt>
      <trkpt lat="44.67915" lon="6.98738">
        <ele>2440.6</ele>
        <time>2022-07-18T08:33:22Z</time>
      </trkpt>
      <trkpt lat="44.67915" lon="6.98754">
        <ele>2439.6</ele>
        <time>2022-07-18T08:33:23Z</time>
      </trkpt>
      <trkpt lat="44.67915" lon="6.98769">
        <ele>2438.6</ele>
        <time>2022-07-18T08:33:24Z</time>
      </trkpt>
      <trkpt lat="44.67916" lon="6.98783">
        <ele>2437.6</ele>
        <time>2022-07-18T08:33:25Z</time>
      </trkpt>
      <trkpt lat="44.67915" lon="6.98795">
        <ele>2436.8</ele>
        <time>2022-07-18T08:33:26Z</time>
      </trkpt>
      <trkpt lat="44.67914" lon="6.98806">
        <ele>2435.8</ele>
        <time>2022-07-18T08:33:27Z</time>
      </trkpt>
      <trkpt lat="44.67911" lon="6.98817">
        <ele>2434.8</ele>
        <time>2022-07-18T08:33:28Z</time>
      </trkpt>
      <trkpt lat="44.67907" lon="6.98829">
        <ele>2434</ele>
        <time>2022-07-18T08:33:29Z</time>
      </trkpt>
      <trkpt lat="44.67901" lon="6.9884">
        <ele>2433</ele>
        <time>2022-07-18T08:33:30Z</time>
      </trkpt>
      <trkpt lat="44.67894" lon="6.98847">
        <ele>2432.2</ele>
        <time>2022-07-18T08:33:31Z</time>
      </trkpt>
      <trkpt lat="44.67887" lon="6.98855">
        <ele>2431.4</ele>
        <time>2022-07-18T08:33:32Z</time>
      </trkpt>
      <trkpt lat="44.6788" lon="6.98863">
        <ele>2430.6</ele>
        <time>2022-07-18T08:33:33Z</time>
      </trkpt>
      <trkpt lat="44.67873" lon="6.98872">
        <ele>2429.8</ele>
        <time>2022-07-18T08:33:34Z</time>
      </trkpt>
      <trkpt lat="44.67867" lon="6.98883">
        <ele>2428.8</ele>
        <time>2022-07-18T08:33:35Z</time>
      </trkpt>
      <trkpt lat="44.6786" lon="6.98896">
        <ele>2427.8</ele>
        <time>2022-07-18T08:33:36Z</time>
      </trkpt>
      <trkpt lat="44.67854" lon="6.98908">
        <ele>2426.8</ele>
        <time>2022-07-18T08:33:37Z</time>
      </trkpt>
      <trkpt lat="44.67847" lon="6.98919">
        <ele>2425.6</ele>
        <time>2022-07-18T08:33:38Z</time>
      </trkpt>
      <trkpt lat="44.6784" lon="6.98925">
        <ele>2424.4</ele>
        <time>2022-07-18T08:33:39Z</time>
      </trkpt>
      <trkpt lat="44.67831" lon="6.9893">
        <ele>2423</ele>
        <time>2022-07-18T08:33:40Z</time>
      </trkpt>
      <trkpt lat="44.6782" lon="6.98936">
        <ele>2421.8</ele>
        <time>2022-07-18T08:33:41Z</time>
      </trkpt>
      <trkpt lat="44.67809" lon="6.98939">
        <ele>2420.4</ele>
        <time>2022-07-18T08:33:42Z</time>
      </trkpt>
      <trkpt lat="44.67796" lon="6.98942">
        <ele>2419.2</ele>
        <time>2022-07-18T08:33:43Z</time>
      </trkpt>
      <trkpt lat="44.67784" lon="6.98945">
        <ele>2417.8</ele>
        <time>2022-07-18T08:33:44Z</time>
      </trkpt>
      <trkpt lat="44.67772" lon="6.98947">
        <ele>2416.6</ele>
        <time>2022-07-18T08:33:45Z</time>
      </trkpt>
      <trkpt lat="44.6776" lon="6.9895">
        <ele>2415</ele>
        <time>2022-07-18T08:33:46Z</time>
      </trkpt>
      <trkpt lat="44.67748" lon="6.98953">
        <ele>2413.2</ele>
        <time>2022-07-18T08:33:47Z</time>
      </trkpt>
      <trkpt lat="44.67736" lon="6.98958">
        <ele>2411.6</ele>
        <time>2022-07-18T08:33:48Z</time>
      </trkpt>
      <trkpt lat="44.67724" lon="6.98963">
        <ele>2410.2</ele>
        <time>2022-07-18T08:33:49Z</time>
      </trkpt>
      <trkpt lat="44.67714" lon="6.98969">
        <ele>2408.8</ele>
        <time>2022-07-18T08:33:50Z</time>
      </trkpt>
      <trkpt lat="44.67704" lon="6.98976">
        <ele>2407.6</ele>
        <time>2022-07-18T08:33:51Z</time>
      </trkpt>
      <trkpt lat="44.67694" lon="6.98982">
        <ele>2406.2</ele>
        <time>2022-07-18T08:33:52Z</time>
      </trkpt>
      <trkpt lat="44.67685" lon="6.98991">
        <ele>2405</ele>
        <time>2022-07-18T08:33:53Z</time>
      </trkpt>
      <trkpt lat="44.67677" lon="6.99">
        <ele>2404</ele>
        <time>2022-07-18T08:33:54Z</time>
      </trkpt>
      <trkpt lat="44.67669" lon="6.9901">
        <ele>2403</ele>
        <time>2022-07-18T08:33:55Z</time>
      </trkpt>
      <trkpt lat="44.67662" lon="6.99018">
        <ele>2402</ele>
        <time>2022-07-18T08:33:56Z</time>
      </trkpt>
      <trkpt lat="44.67653" lon="6.99025">
        <ele>2401</ele>
        <time>2022-07-18T08:33:57Z</time>
      </trkpt>
      <trkpt lat="44.67643" lon="6.9903">
        <ele>2399.8</ele>
        <time>2022-07-18T08:33:58Z</time>
      </trkpt>
      <trkpt lat="44.67636" lon="6.99034">
        <ele>2398.8</ele>
        <time>2022-07-18T08:33:59Z</time>
      </trkpt>
      <trkpt lat="44.6763" lon="6.99043">
        <ele>2397.6</ele>
        <time>2022-07-18T08:34:00Z</time>
      </trkpt>
      <trkpt lat="44.67622" lon="6.99052">
        <ele>2396.2</ele>
        <time>2022-07-18T08:34:01Z</time>
      </trkpt>
      <trkpt lat="44.67616" lon="6.99062">
        <ele>2395</ele>
        <time>2022-07-18T08:34:02Z</time>
      </trkpt>
      <trkpt lat="44.67609" lon="6.99073">
        <ele>2393.6</ele>
        <time>2022-07-18T08:34:03Z</time>
      </trkpt>
      <trkpt lat="44.67602" lon="6.99081">
        <ele>2392.2</ele>
        <time>2022-07-18T08:34:04Z</time>
      </trkpt>
      <trkpt lat="44.67593" lon="6.99088">
        <ele>2391</ele>
        <time>2022-07-18T08:34:05Z</time>
      </trkpt>
      <trkpt lat="44.67583" lon="6.99094">
        <ele>2389.8</ele>
        <time>2022-07-18T08:34:06Z</time>
      </trkpt>
      <trkpt lat="44.67574" lon="6.99097">
        <ele>2388.8</ele>
        <time>2022-07-18T08:34:07Z</time>
      </trkpt>
      <trkpt lat="44.67566" lon="6.99101">
        <ele>2387.6</ele>
        <time>2022-07-18T08:34:08Z</time>
      </trkpt>
      <trkpt lat="44.67559" lon="6.99105">
        <ele>2386.6</ele>
        <time>2022-07-18T08:34:09Z</time>
      </trkpt>
      <trkpt lat="44.67552" lon="6.99109">
        <ele>2385.6</ele>
        <time>2022-07-18T08:34:10Z</time>
      </trkpt>
      <trkpt lat="44.67546" lon="6.99115">
        <ele>2384.4</ele>
        <time>2022-07-18T08:34:11Z</time>
      </trkpt>
      <trkpt lat="44.67542" lon="6.99123">
        <ele>2383.2</ele>
        <time>2022-07-18T08:34:12Z</time>
      </trkpt>
      <trkpt lat="44.67538" lon="6.99132">
        <ele>2381.8</ele>
        <time>2022-07-18T08:34:13Z</time>
      </trkpt>
      <trkpt lat="44.67534" lon="6.99144">
        <ele>2380.2</ele>
        <time>2022-07-18T08:34:14Z</time>
      </trkpt>
      <trkpt lat="44.67528" lon="6.99156">
        <ele>2379</ele>
        <time>2022-07-18T08:34:15Z</time>
      </trkpt>
      <trkpt lat="44.67522" lon="6.99169">
        <ele>2377.6</ele>
        <time>2022-07-18T08:34:16Z</time>
      </trkpt>
      <trkpt lat="44.67513" lon="6.9918">
        <ele>2376.2</ele>
        <time>2022-07-18T08:34:17Z</time>
      </trkpt>
      <trkpt lat="44.67505" lon="6.99191">
        <ele>2375</ele>
        <time>2022-07-18T08:34:18Z</time>
      </trkpt>
      <trkpt lat="44.67495" lon="6.99202">
        <ele>2373.4</ele>
        <time>2022-07-18T08:34:19Z</time>
      </trkpt>
      <trkpt lat="44.67485" lon="6.9921">
        <ele>2372.2</ele>
        <time>2022-07-18T08:34:20Z</time>
      </trkpt>
      <trkpt lat="44.67475" lon="6.99217">
        <ele>2370.8</ele>
        <time>2022-07-18T08:34:21Z</time>
      </trkpt>
      <trkpt lat="44.67465" lon="6.99223">
        <ele>2369.6</ele>
        <time>2022-07-18T08:34:22Z</time>
      </trkpt>
      <trkpt lat="44.67455" lon="6.9923">
        <ele>2368.4</ele>
        <time>2022-07-18T08:34:23Z</time>
      </trkpt>
      <trkpt lat="44.67445" lon="6.99237">
        <ele>2367.2</ele>
        <time>2022-07-18T08:34:24Z</time>
      </trkpt>
      <trkpt lat="44.67435" lon="6.99243">
        <ele>2366</ele>
        <time>2022-07-18T08:34:25Z</time>
      </trkpt>
      <trkpt lat="44.67426" lon="6.9925">
        <ele>2364.8</ele>
        <time>2022-07-18T08:34:26Z</time>
      </trkpt>
      <trkpt lat="44.67417" lon="6.99256">
        <ele>2363.6</ele>
        <time>2022-07-18T08:34:27Z</time>
      </trkpt>
      <trkpt lat="44.67408" lon="6.99261">
        <ele>2362.4</ele>
        <time>2022-07-18T08:34:28Z</time>
      </trkpt>
      <trkpt lat="44.674" lon="6.99265">
        <ele>2361.4</ele>
        <time>2022-07-18T08:34:29Z</time>
      </trkpt>
      <trkpt lat="44.67392" lon="6.9927">
        <ele>2360.4</ele>
        <time>2022-07-18T08:34:30Z</time>
      </trkpt>
      <trkpt lat="44.67385" lon="6.99275">
        <ele>2359.4</ele>
        <time>2022-07-18T08:34:31Z</time>
      </trkpt>
      <trkpt lat="44.6738" lon="6.99279">
        <ele>2358.6</ele>
        <time>2022-07-18T08:34:32Z</time>
      </trkpt>
      <trkpt lat="44.67374" lon="6.99282">
        <ele>2357.8</ele>
        <time>2022-07-18T08:34:33Z</time>
      </trkpt>
      <trkpt lat="44.67369" lon="6.99281">
        <ele>2357.2</ele>
        <time>2022-07-18T08:34:34Z</time>
      </trkpt>
      <trkpt lat="44.67366" lon="6.99278">
        <ele>2356.4</ele>
        <time>2022-07-18T08:34:35Z</time>
      </trkpt>
      <trkpt lat="44.67363" lon="6.99274">
        <ele>2355.8</ele>
        <time>2022-07-18T08:34:36Z</time>
      </trkpt>
      <trkpt lat="44.67364" lon="6.99269">
        <ele>2355.2</ele>
        <time>2022-07-18T08:34:37Z</time>
      </trkpt>
      <trkpt lat="44.67367" lon="6.99264">
        <ele>2354.6</ele>
        <time>2022-07-18T08:34:38Z</time>
      </trkpt>
      <trkpt lat="44.67372" lon="6.9926">
        <ele>2353.8</ele>
        <time>2022-07-18T08:34:39Z</time>
      </trkpt>
      <trkpt lat="44.67377" lon="6.99255">
        <ele>2353</ele>
        <time>2022-07-18T08:34:40Z</time>
      </trkpt>
      <trkpt lat="44.67384" lon="6.9925">
        <ele>2352.2</ele>
        <time>2022-07-18T08:34:41Z</time>
      </trkpt>
      <trkpt lat="44.6739" lon="6.99245">
        <ele>2351.4</ele>
        <time>2022-07-18T08:34:42Z</time>
      </trkpt>
      <trkpt lat="44.67397" lon="6.99237">
        <ele>2350.6</ele>
        <time>2022-07-18T08:34:43Z</time>
      </trkpt>
      <trkpt lat="44.67404" lon="6.99228">
        <ele>2349.8</ele>
        <time>2022-07-18T08:34:44Z</time>
      </trkpt>
      <trkpt lat="44.67412" lon="6.99219">
        <ele>2348.8</ele>
        <time>2022-07-18T08:34:45Z</time>
      </trkpt>
      <trkpt lat="44.67418" lon="6.99208">
        <ele>2347.6</ele>
        <time>2022-07-18T08:34:46Z</time>
      </trkpt>
      <trkpt lat="44.67425" lon="6.99197">
        <ele>2346.6</ele>
        <time>2022-07-18T08:34:47Z</time>
      </trkpt>
      <trkpt lat="44.67432" lon="6.99184">
        <ele>2345.4</ele>
        <time>2022-07-18T08:34:48Z</time>
      </trkpt>
      <trkpt lat="44.67438" lon="6.99171">
        <ele>2344.2</ele>
        <time>2022-07-18T08:34:49Z</time>
      </trkpt>
      <trkpt lat="44.67445" lon="6.99158">
        <ele>2343</ele>
        <time>2022-07-18T08:34:50Z</time>
      </trkpt>
      <trkpt lat="44.67451" lon="6.99145">
        <ele>2341.8</ele>
        <time>2022-07-18T08:34:51Z</time>
      </trkpt>
      <trkpt lat="44.67457" lon="6.99132">
        <ele>2340.6</ele>
        <time>2022-07-18T08:34:52Z</time>
      </trkpt>
      <trkpt lat="44.67462" lon="6.9912">
        <ele>2339.4</ele>
        <time>2022-07-18T08:34:53Z</time>
      </trkpt>
      <trkpt lat="44.67466" lon="6.99106">
        <ele>2338.2</ele>
        <time>2022-07-18T08:34:54Z</time>
      </trkpt>
      <trkpt lat="44.67469" lon="6.99091">
        <ele>2336.8</ele>
        <time>2022-07-18T08:34:55Z</time>
      </trkpt>
      <trkpt lat="44.67472" lon="6.99077">
        <ele>2335.6</ele>
        <time>2022-07-18T08:34:56Z</time>
      </trkpt>
      <trkpt lat="44.67476" lon="6.99064">
        <ele>2334.4</ele>
        <time>2022-07-18T08:34:57Z</time>
      </trkpt>
      <trkpt lat="44.67481" lon="6.99051">
        <ele>2333</ele>
        <time>2022-07-18T08:34:58Z</time>
      </trkpt>
      <trkpt lat="44.67485" lon="6.99039">
        <ele>2331.8</ele>
        <time>2022-07-18T08:34:59Z</time>
      </trkpt>
      <trkpt lat="44.6749" lon="6.99028">
        <ele>2330.8</ele>
        <time>2022-07-18T08:35:00Z</time>
      </trkpt>
      <trkpt lat="44.67494" lon="6.99018">
        <ele>2329.8</ele>
        <time>2022-07-18T08:35:01Z</time>
      </trkpt>
      <trkpt lat="44.67497" lon="6.99008">
        <ele>2329.2</ele>
        <time>2022-07-18T08:35:02Z</time>
      </trkpt>
      <trkpt lat="44.675" lon="6.99">
        <ele>2328.6</ele>
        <time>2022-07-18T08:35:03Z</time>
      </trkpt>
      <trkpt lat="44.67502" lon="6.98992">
        <ele>2327.8</ele>
        <time>2022-07-18T08:35:04Z</time>
      </trkpt>
      <trkpt lat="44.67502" lon="6.98986">
        <ele>2327.2</ele>
        <time>2022-07-18T08:35:05Z</time>
      </trkpt>
      <trkpt lat="44.675" lon="6.98982">
        <ele>2326.4</ele>
        <time>2022-07-18T08:35:06Z</time>
      </trkpt>
      <trkpt lat="44.67497" lon="6.98982">
        <ele>2325.8</ele>
        <time>2022-07-18T08:35:07Z</time>
      </trkpt>
      <trkpt lat="44.67494" lon="6.98984">
        <ele>2325.4</ele>
        <time>2022-07-18T08:35:08Z</time>
      </trkpt>
      <trkpt lat="44.6749" lon="6.98988">
        <ele>2324.6</ele>
        <time>2022-07-18T08:35:09Z</time>
      </trkpt>
      <trkpt lat="44.67487" lon="6.98995">
        <ele>2324</ele>
        <time>2022-07-18T08:35:10Z</time>
      </trkpt>
      <trkpt lat="44.67483" lon="6.99002">
        <ele>2323.2</ele>
        <time>2022-07-18T08:35:11Z</time>
      </trkpt>
      <trkpt lat="44.67479" lon="6.99011">
        <ele>2322.4</ele>
        <time>2022-07-18T08:35:12Z</time>
      </trkpt>
      <trkpt lat="44.67474" lon="6.9902">
        <ele>2321.2</ele>
        <time>2022-07-18T08:35:13Z</time>
      </trkpt>
      <trkpt lat="44.67468" lon="6.99031">
        <ele>2320</ele>
        <time>2022-07-18T08:35:14Z</time>
      </trkpt>
      <trkpt lat="44.67461" lon="6.99042">
        <ele>2318.6</ele>
        <time>2022-07-18T08:35:15Z</time>
      </trkpt>
      <trkpt lat="44.67453" lon="6.99053">
        <ele>2317.2</ele>
        <time>2022-07-18T08:35:16Z</time>
      </trkpt>
      <trkpt lat="44.67445" lon="6.99065">
        <ele>2315.8</ele>
        <time>2022-07-18T08:35:17Z</time>
      </trkpt>
      <trkpt lat="44.67437" lon="6.99076">
        <ele>2314.4</ele>
        <time>2022-07-18T08:35:18Z</time>
      </trkpt>
      <trkpt lat="44.67427" lon="6.99086">
        <ele>2312.6</ele>
        <time>2022-07-18T08:35:19Z</time>
      </trkpt>
      <trkpt lat="44.67417" lon="6.99094">
        <ele>2311.2</ele>
        <time>2022-07-18T08:35:20Z</time>
      </trkpt>
      <trkpt lat="44.67407" lon="6.99103">
        <ele>2309.6</ele>
        <time>2022-07-18T08:35:21Z</time>
      </trkpt>
      <trkpt lat="44.67396" lon="6.99111">
        <ele>2308</ele>
        <time>2022-07-18T08:35:22Z</time>
      </trkpt>
      <trkpt lat="44.67385" lon="6.99117">
        <ele>2306.4</ele>
        <time>2022-07-18T08:35:23Z</time>
      </trkpt>
      <trkpt lat="44.67374" lon="6.99122">
        <ele>2304.8</ele>
        <time>2022-07-18T08:35:24Z</time>
      </trkpt>
      <trkpt lat="44.67363" lon="6.99126">
        <ele>2303.2</ele>
        <time>2022-07-18T08:35:25Z</time>
      </trkpt>
      <trkpt lat="44.67352" lon="6.99129">
        <ele>2301.6</ele>
        <time>2022-07-18T08:35:26Z</time>
      </trkpt>
      <trkpt lat="44.67341" lon="6.99131">
        <ele>2300</ele>
        <time>2022-07-18T08:35:27Z</time>
      </trkpt>
      <trkpt lat="44.67331" lon="6.99131">
        <ele>2298.6</ele>
        <time>2022-07-18T08:35:28Z</time>
      </trkpt>
      <trkpt lat="44.67321" lon="6.99129">
        <ele>2297.2</ele>
        <time>2022-07-18T08:35:29Z</time>
      </trkpt>
      <trkpt lat="44.67312" lon="6.99124">
        <ele>2296</ele>
        <time>2022-07-18T08:35:30Z</time>
      </trkpt>
      <trkpt lat="44.67304" lon="6.99118">
        <ele>2294.8</ele>
        <time>2022-07-18T08:35:31Z</time>
      </trkpt>
      <trkpt lat="44.67295" lon="6.9911">
        <ele>2293.6</ele>
        <time>2022-07-18T08:35:32Z</time>
      </trkpt>
      <trkpt lat="44.67287" lon="6.99103">
        <ele>2292.4</ele>
        <time>2022-07-18T08:35:33Z</time>
      </trkpt>
      <trkpt lat="44.67278" lon="6.99097">
        <ele>2291.2</ele>
        <time>2022-07-18T08:35:34Z</time>
      </trkpt>
      <trkpt lat="44.67267" lon="6.99092">
        <ele>2289.8</ele>
        <time>2022-07-18T08:35:35Z</time>
      </trkpt>
      <trkpt lat="44.67255" lon="6.99088">
        <ele>2288.4</ele>
        <time>2022-07-18T08:35:36Z</time>
      </trkpt>
      <trkpt lat="44.67244" lon="6.99084">
        <ele>2286.8</ele>
        <time>2022-07-18T08:35:37Z</time>
      </trkpt>
      <trkpt lat="44.67232" lon="6.9908">
        <ele>2285.2</ele>
        <time>2022-07-18T08:35:38Z</time>
      </trkpt>
      <trkpt lat="44.67221" lon="6.99076">
        <ele>2283.6</ele>
        <time>2022-07-18T08:35:39Z</time>
      </trkpt>
      <trkpt lat="44.67211" lon="6.99072">
        <ele>2282.4</ele>
        <time>2022-07-18T08:35:40Z</time>
      </trkpt>
      <trkpt lat="44.67201" lon="6.99069">
        <ele>2281.2</ele>
        <time>2022-07-18T08:35:41Z</time>
      </trkpt>
      <trkpt lat="44.67191" lon="6.99067">
        <ele>2280</ele>
        <time>2022-07-18T08:35:42Z</time>
      </trkpt>
      <trkpt lat="44.67182" lon="6.99065">
        <ele>2279.2</ele>
        <time>2022-07-18T08:35:43Z</time>
      </trkpt>
      <trkpt lat="44.67175" lon="6.99063">
        <ele>2278.4</ele>
        <time>2022-07-18T08:35:44Z</time>
      </trkpt>
      <trkpt lat="44.6717" lon="6.99061">
        <ele>2277.6</ele>
        <time>2022-07-18T08:35:45Z</time>
      </trkpt>
      <trkpt lat="44.67166" lon="6.99058">
        <ele>2277</ele>
        <time>2022-07-18T08:35:46Z</time>
      </trkpt>
      <trkpt lat="44.67165" lon="6.99053">
        <ele>2276.6</ele>
        <time>2022-07-18T08:35:47Z</time>
      </trkpt>
      <trkpt lat="44.67166" lon="6.99046">
        <ele>2276.2</ele>
        <time>2022-07-18T08:35:48Z</time>
      </trkpt>
      <trkpt lat="44.67171" lon="6.99041">
        <ele>2275.8</ele>
        <time>2022-07-18T08:35:49Z</time>
      </trkpt>
      <trkpt lat="44.67176" lon="6.99039">
        <ele>2275.4</ele>
        <time>2022-07-18T08:35:50Z</time>
      </trkpt>
      <trkpt lat="44.67183" lon="6.99037">
        <ele>2275</ele>
        <time>2022-07-18T08:35:51Z</time>
      </trkpt>
      <trkpt lat="44.6719" lon="6.99036">
        <ele>2274.8</ele>
        <time>2022-07-18T08:35:52Z</time>
      </trkpt>
      <trkpt lat="44.67197" lon="6.99037">
        <ele>2274.4</ele>
        <time>2022-07-18T08:35:53Z</time>
      </trkpt>
      <trkpt lat="44.67204" lon="6.99039">
        <ele>2274.2</ele>
        <time>2022-07-18T08:35:54Z</time>
      </trkpt>
      <trkpt lat="44.67211" lon="6.99041">
        <ele>2273.8</ele>
        <time>2022-07-18T08:35:55Z</time>
      </trkpt>
      <trkpt lat="44.67218" lon="6.99042">
        <ele>2273.6</ele>
        <time>2022-07-18T08:35:56Z</time>
      </trkpt>
      <trkpt lat="44.67226" lon="6.99044">
        <ele>2273.2</ele>
        <time>2022-07-18T08:35:57Z</time>
      </trkpt>
      <trkpt lat="44.67234" lon="6.99045">
        <ele>2273</ele>
        <time>2022-07-18T08:35:58Z</time>
      </trkpt>
      <trkpt lat="44.67241" lon="6.99046">
        <ele>2272.6</ele>
        <time>2022-07-18T08:35:59Z</time>
      </trkpt>
      <trkpt lat="44.67249" lon="6.99045">
        <ele>2272.4</ele>
        <time>2022-07-18T08:36:00Z</time>
      </trkpt>
      <trkpt lat="44.67257" lon="6.99044">
        <ele>2272.4</ele>
        <time>2022-07-18T08:36:01Z</time>
      </trkpt>
      <trkpt lat="44.67265" lon="6.99042">
        <ele>2272.4</ele>
        <time>2022-07-18T08:36:02Z</time>
      </trkpt>
      <trkpt lat="44.67273" lon="6.99039">
        <ele>2272.2</ele>
        <time>2022-07-18T08:36:03Z</time>
      </trkpt>
      <trkpt lat="44.67281" lon="6.99037">
        <ele>2272.2</ele>
        <time>2022-07-18T08:36:04Z</time>
      </trkpt>
      <trkpt lat="44.67289" lon="6.99034">
        <ele>2272.2</ele>
        <time>2022-07-18T08:36:05Z</time>
      </trkpt>
      <trkpt lat="44.67296" lon="6.9903">
        <ele>2272.2</ele>
        <time>2022-07-18T08:36:06Z</time>
      </trkpt>
      <trkpt lat="44.67303" lon="6.99026">
        <ele>2272.2</ele>
        <time>2022-07-18T08:36:07Z</time>
      </trkpt>
      <trkpt lat="44.6731" lon="6.99021">
        <ele>2272.2</ele>
        <time>2022-07-18T08:36:08Z</time>
      </trkpt>
      <trkpt lat="44.67316" lon="6.99016">
        <ele>2272.2</ele>
        <time>2022-07-18T08:36:09Z</time>
      </trkpt>
      <trkpt lat="44.67322" lon="6.99011">
        <ele>2272.2</ele>
        <time>2022-07-18T08:36:10Z</time>
      </trkpt>
      <trkpt lat="44.67328" lon="6.99006">
        <ele>2272.2</ele>
        <time>2022-07-18T08:36:11Z</time>
      </trkpt>
      <trkpt lat="44.67333" lon="6.98999">
        <ele>2272.6</ele>
        <time>2022-07-18T08:36:12Z</time>
      </trkpt>
      <trkpt lat="44.67337" lon="6.98991">
        <ele>2272.6</ele>
        <time>2022-07-18T08:36:13Z</time>
      </trkpt>
      <trkpt lat="44.6734" lon="6.98983">
        <ele>2272.6</ele>
        <time>2022-07-18T08:36:14Z</time>
      </trkpt>
      <trkpt lat="44.67342" lon="6.98974">
        <ele>2272.6</ele>
        <time>2022-07-18T08:36:15Z</time>
      </trkpt>
      <trkpt lat="44.67344" lon="6.98965">
        <ele>2272.6</ele>
        <time>2022-07-18T08:36:16Z</time>
      </trkpt>
      <trkpt lat="44.67346" lon="6.98955">
        <ele>2272.2</ele>
        <time>2022-07-18T08:36:17Z</time>
      </trkpt>
      <trkpt lat="44.67346" lon="6.98945">
        <ele>2271.8</ele>
        <time>2022-07-18T08:36:18Z</time>
      </trkpt>
      <trkpt lat="44.67346" lon="6.98935">
        <ele>2271.8</ele>
        <time>2022-07-18T08:36:19Z</time>
      </trkpt>
      <trkpt lat="44.67346" lon="6.98925">
        <ele>2271.4</ele>
        <time>2022-07-18T08:36:20Z</time>
      </trkpt>
      <trkpt lat="44.67344" lon="6.98915">
        <ele>2271.4</ele>
        <time>2022-07-18T08:36:21Z</time>
      </trkpt>
      <trkpt lat="44.67341" lon="6.98905">
        <ele>2271</ele>
        <time>2022-07-18T08:36:22Z</time>
      </trkpt>
      <trkpt lat="44.67337" lon="6.98896">
        <ele>2270.6</ele>
        <time>2022-07-18T08:36:23Z</time>
      </trkpt>
      <trkpt lat="44.67333" lon="6.98887">
        <ele>2270</ele>
        <time>2022-07-18T08:36:24Z</time>
      </trkpt>
      <trkpt lat="44.67327" lon="6.98879">
        <ele>2269.6</ele>
        <time>2022-07-18T08:36:25Z</time>
      </trkpt>
      <trkpt lat="44.67321" lon="6.98873">
        <ele>2269.2</ele>
        <time>2022-07-18T08:36:26Z</time>
      </trkpt>
      <trkpt lat="44.67314" lon="6.98868">
        <ele>2268.6</ele>
        <time>2022-07-18T08:36:27Z</time>
      </trkpt>
      <trkpt lat="44.67307" lon="6.98865">
        <ele>2268.2</ele>
        <time>2022-07-18T08:36:28Z</time>
      </trkpt>
      <trkpt lat="44.673" lon="6.98864">
        <ele>2267.8</ele>
        <time>2022-07-18T08:36:29Z</time>
      </trkpt>
      <trkpt lat="44.67294" lon="6.98865">
        <ele>2267</ele>
        <time>2022-07-18T08:36:30Z</time>
      </trkpt>
      <trkpt lat="44.67288" lon="6.98868">
        <ele>2266.4</ele>
        <time>2022-07-18T08:36:31Z</time>
      </trkpt>
      <trkpt lat="44.67282" lon="6.98873">
        <ele>2265.8</ele>
        <time>2022-07-18T08:36:32Z</time>
      </trkpt>
      <trkpt lat="44.67276" lon="6.9888">
        <ele>2265</ele>
        <time>2022-07-18T08:36:33Z</time>
      </trkpt>
      <trkpt lat="44.6727" lon="6.98888">
        <ele>2264</ele>
        <time>2022-07-18T08:36:34Z</time>
      </trkpt>
      <trkpt lat="44.67263" lon="6.98895">
        <ele>2262.8</ele>
        <time>2022-07-18T08:36:35Z</time>
      </trkpt>
      <trkpt lat="44.67255" lon="6.98899">
        <ele>2261.8</ele>
        <time>2022-07-18T08:36:36Z</time>
      </trkpt>
      <trkpt lat="44.67247" lon="6.989">
        <ele>2260.8</ele>
        <time>2022-07-18T08:36:37Z</time>
      </trkpt>
      <trkpt lat="44.67238" lon="6.98898">
        <ele>2259.6</ele>
        <time>2022-07-18T08:36:38Z</time>
      </trkpt>
      <trkpt lat="44.6723" lon="6.98895">
        <ele>2258.8</ele>
        <time>2022-07-18T08:36:39Z</time>
      </trkpt>
      <trkpt lat="44.67222" lon="6.98893">
        <ele>2257.8</ele>
        <time>2022-07-18T08:36:40Z</time>
      </trkpt>
      <trkpt lat="44.67214" lon="6.98892">
        <ele>2256.8</ele>
        <time>2022-07-18T08:36:41Z</time>
      </trkpt>
      <trkpt lat="44.67207" lon="6.98893">
        <ele>2255.8</ele>
        <time>2022-07-18T08:36:42Z</time>
      </trkpt>
      <trkpt lat="44.67201" lon="6.98893">
        <ele>2255</ele>
        <time>2022-07-18T08:36:43Z</time>
      </trkpt>
      <trkpt lat="44.67196" lon="6.98892">
        <ele>2254.4</ele>
        <time>2022-07-18T08:36:44Z</time>
      </trkpt>
      <trkpt lat="44.67194" lon="6.98888">
        <ele>2253.6</ele>
        <time>2022-07-18T08:36:45Z</time>
      </trkpt>
      <trkpt lat="44.67195" lon="6.98884">
        <ele>2253.2</ele>
        <time>2022-07-18T08:36:46Z</time>
      </trkpt>
      <trkpt lat="44.67199" lon="6.98881">
        <ele>2252.6</ele>
        <time>2022-07-18T08:36:47Z</time>
      </trkpt>
      <trkpt lat="44.67204" lon="6.98879">
        <ele>2252</ele>
        <time>2022-07-18T08:36:48Z</time>
      </trkpt>
      <trkpt lat="44.6721" lon="6.98877">
        <ele>2251.4</ele>
        <time>2022-07-18T08:36:49Z</time>
      </trkpt>
      <trkpt lat="44.67217" lon="6.98875">
        <ele>2250.8</ele>
        <time>2022-07-18T08:36:50Z</time>
      </trkpt>
      <trkpt lat="44.67224" lon="6.98873">
        <ele>2249.8</ele>
        <time>2022-07-18T08:36:51Z</time>
      </trkpt>
      <trkpt lat="44.67232" lon="6.9887">
        <ele>2249.2</ele>
        <time>2022-07-18T08:36:52Z</time>
      </trkpt>
      <trkpt lat="44.67238" lon="6.98865">
        <ele>2248.2</ele>
        <time>2022-07-18T08:36:53Z</time>
      </trkpt>
      <trkpt lat="44.67245" lon="6.98858">
        <ele>2247.4</ele>
        <time>2022-07-18T08:36:54Z</time>
      </trkpt>
      <trkpt lat="44.67251" lon="6.98851">
        <ele>2246.4</ele>
        <time>2022-07-18T08:36:55Z</time>
      </trkpt>
      <trkpt lat="44.67257" lon="6.98846">
        <ele>2245.6</ele>
        <time>2022-07-18T08:36:56Z</time>
      </trkpt>
      <trkpt lat="44.67262" lon="6.98841">
        <ele>2244.8</ele>
        <time>2022-07-18T08:36:57Z</time>
      </trkpt>
      <trkpt lat="44.67266" lon="6.98836">
        <ele>2244.2</ele>
        <time>2022-07-18T08:36:58Z</time>
      </trkpt>
      <trkpt lat="44.67267" lon="6.98831">
        <ele>2243.6</ele>
        <time>2022-07-18T08:36:59Z</time>
      </trkpt>
      <trkpt lat="44.67266" lon="6.98826">
        <ele>2243.2</ele>
        <time>2022-07-18T08:37:00Z</time>
      </trkpt>
      <trkpt lat="44.67263" lon="6.98822">
        <ele>2242.6</ele>
        <time>2022-07-18T08:37:01Z</time>
      </trkpt>
      <trkpt lat="44.67258" lon="6.98823">
        <ele>2242.2</ele>
        <time>2022-07-18T08:37:02Z</time>
      </trkpt>
      <trkpt lat="44.67253" lon="6.98825">
        <ele>2241.6</ele>
        <time>2022-07-18T08:37:03Z</time>
      </trkpt>
      <trkpt lat="44.67247" lon="6.9883">
        <ele>2241</ele>
        <time>2022-07-18T08:37:04Z</time>
      </trkpt>
      <trkpt lat="44.6724" lon="6.98835">
        <ele>2240.2</ele>
        <time>2022-07-18T08:37:05Z</time>
      </trkpt>
      <trkpt lat="44.67233" lon="6.98838">
        <ele>2239.4</ele>
        <time>2022-07-18T08:37:06Z</time>
      </trkpt>
      <trkpt lat="44.67224" lon="6.98839">
        <ele>2238.4</ele>
        <time>2022-07-18T08:37:07Z</time>
      </trkpt>
      <trkpt lat="44.67214" lon="6.98838">
        <ele>2237.4</ele>
        <time>2022-07-18T08:37:08Z</time>
      </trkpt>
      <trkpt lat="44.67204" lon="6.98835">
        <ele>2236.2</ele>
        <time>2022-07-18T08:37:09Z</time>
      </trkpt>
      <trkpt lat="44.67194" lon="6.98834">
        <ele>2235.2</ele>
        <time>2022-07-18T08:37:10Z</time>
      </trkpt>
      <trkpt lat="44.67183" lon="6.98833">
        <ele>2234.2</ele>
        <time>2022-07-18T08:37:11Z</time>
      </trkpt>
      <trkpt lat="44.67173" lon="6.98833">
        <ele>2233</ele>
        <time>2022-07-18T08:37:12Z</time>
      </trkpt>
      <trkpt lat="44.67163" lon="6.98833">
        <ele>2231.8</ele>
        <time>2022-07-18T08:37:13Z</time>
      </trkpt>
      <trkpt lat="44.67153" lon="6.98831">
        <ele>2230.8</ele>
        <time>2022-07-18T08:37:14Z</time>
      </trkpt>
      <trkpt lat="44.67144" lon="6.98828">
        <ele>2229.8</ele>
        <time>2022-07-18T08:37:15Z</time>
      </trkpt>
      <trkpt lat="44.67135" lon="6.98825">
        <ele>2228.8</ele>
        <time>2022-07-18T08:37:16Z</time>
      </trkpt>
      <trkpt lat="44.67128" lon="6.98823">
        <ele>2227.6</ele>
        <time>2022-07-18T08:37:17Z</time>
      </trkpt>
      <trkpt lat="44.6712" lon="6.98822">
        <ele>2226.8</ele>
        <time>2022-07-18T08:37:18Z</time>
      </trkpt>
      <trkpt lat="44.67114" lon="6.98821">
        <ele>2226</ele>
        <time>2022-07-18T08:37:19Z</time>
      </trkpt>
      <trkpt lat="44.67109" lon="6.9882">
        <ele>2225.4</ele>
        <time>2022-07-18T08:37:20Z</time>
      </trkpt>
      <trkpt lat="44.67105" lon="6.98817">
        <ele>2224.8</ele>
        <time>2022-07-18T08:37:21Z</time>
      </trkpt>
      <trkpt lat="44.67104" lon="6.98812">
        <ele>2224.2</ele>
        <time>2022-07-18T08:37:22Z</time>
      </trkpt>
      <trkpt lat="44.67107" lon="6.98807">
        <ele>2223.6</ele>
        <time>2022-07-18T08:37:23Z</time>
      </trkpt>
      <trkpt lat="44.67111" lon="6.98803">
        <ele>2222.6</ele>
        <time>2022-07-18T08:37:24Z</time>
      </trkpt>
      <trkpt lat="44.67116" lon="6.98798">
        <ele>2221.8</ele>
        <time>2022-07-18T08:37:25Z</time>
      </trkpt>
      <trkpt lat="44.67122" lon="6.98792">
        <ele>2220.8</ele>
        <time>2022-07-18T08:37:26Z</time>
      </trkpt>
      <trkpt lat="44.67128" lon="6.98784">
        <ele>2219.8</ele>
        <time>2022-07-18T08:37:27Z</time>
      </trkpt>
      <trkpt lat="44.67134" lon="6.98773">
        <ele>2218.8</ele>
        <time>2022-07-18T08:37:28Z</time>
      </trkpt>
      <trkpt lat="44.6714" lon="6.98761">
        <ele>2217.8</ele>
        <time>2022-07-18T08:37:29Z</time>
      </trkpt>
      <trkpt lat="44.67146" lon="6.98749">
        <ele>2216.6</ele>
        <time>2022-07-18T08:37:30Z</time>
      </trkpt>
      <trkpt lat="44.67152" lon="6.98737">
        <ele>2215.6</ele>
        <time>2022-07-18T08:37:31Z</time>
      </trkpt>
      <trkpt lat="44.67158" lon="6.98726">
        <ele>2214.6</ele>
        <time>2022-07-18T08:37:32Z</time>
      </trkpt>
      <trkpt lat="44.67164" lon="6.98715">
        <ele>2213.6</ele>
        <time>2022-07-18T08:37:33Z</time>
      </trkpt>
      <trkpt lat="44.67171" lon="6.98707">
        <ele>2212.8</ele>
        <time>2022-07-18T08:37:34Z</time>
      </trkpt>
      <trkpt lat="44.67178" lon="6.98701">
        <ele>2212</ele>
        <time>2022-07-18T08:37:35Z</time>
      </trkpt>
      <trkpt lat="44.67186" lon="6.98697">
        <ele>2211</ele>
        <time>2022-07-18T08:37:36Z</time>
      </trkpt>
      <trkpt lat="44.67195" lon="6.98695">
        <ele>2210.2</ele>
        <time>2022-07-18T08:37:37Z</time>
      </trkpt>
      <trkpt lat="44.67202" lon="6.98694">
        <ele>2209.4</ele>
        <time>2022-07-18T08:37:38Z</time>
      </trkpt>
      <trkpt lat="44.67209" lon="6.98693">
        <ele>2208.8</ele>
        <time>2022-07-18T08:37:39Z</time>
      </trkpt>
      <trkpt lat="44.67213" lon="6.98691">
        <ele>2208.2</ele>
        <time>2022-07-18T08:37:40Z</time>
      </trkpt>
      <trkpt lat="44.67216" lon="6.98686">
        <ele>2207.6</ele>
        <time>2022-07-18T08:37:41Z</time>
      </trkpt>
      <trkpt lat="44.67215" lon="6.9868">
        <ele>2207.2</ele>
        <time>2022-07-18T08:37:42Z</time>
      </trkpt>
      <trkpt lat="44.67212" lon="6.98674">
        <ele>2206.6</ele>
        <time>2022-07-18T08:37:43Z</time>
      </trkpt>
      <trkpt lat="44.67207" lon="6.98671">
        <ele>2206</ele>
        <time>2022-07-18T08:37:44Z</time>
      </trkpt>
      <trkpt lat="44.672" lon="6.98668">
        <ele>2205.2</ele>
        <time>2022-07-18T08:37:45Z</time>
      </trkpt>
      <trkpt lat="44.67193" lon="6.98665">
        <ele>2204.6</ele>
        <time>2022-07-18T08:37:46Z</time>
      </trkpt>
      <trkpt lat="44.67185" lon="6.98663">
        <ele>2203.8</ele>
        <time>2022-07-18T08:37:47Z</time>
      </trkpt>
      <trkpt lat="44.67177" lon="6.98661">
        <ele>2203</ele>
        <time>2022-07-18T08:37:48Z</time>
      </trkpt>
      <trkpt lat="44.67168" lon="6.9866">
        <ele>2202</ele>
        <time>2022-07-18T08:37:49Z</time>
      </trkpt>
      <trkpt lat="44.67158" lon="6.98659">
        <ele>2201</ele>
        <time>2022-07-18T08:37:50Z</time>
      </trkpt>
      <trkpt lat="44.67148" lon="6.9866">
        <ele>2200</ele>
        <time>2022-07-18T08:37:51Z</time>
      </trkpt>
      <trkpt lat="44.67137" lon="6.98661">
        <ele>2198.6</ele>
        <time>2022-07-18T08:37:52Z</time>
      </trkpt>
      <trkpt lat="44.67126" lon="6.98663">
        <ele>2197.4</ele>
        <time>2022-07-18T08:37:53Z</time>
      </trkpt>
      <trkpt lat="44.67114" lon="6.98666">
        <ele>2196</ele>
        <time>2022-07-18T08:37:54Z</time>
      </trkpt>
      <trkpt lat="44.67102" lon="6.9867">
        <ele>2194.6</ele>
        <time>2022-07-18T08:37:55Z</time>
      </trkpt>
      <trkpt lat="44.6709" lon="6.98675">
        <ele>2193.2</ele>
        <time>2022-07-18T08:37:56Z</time>
      </trkpt>
      <trkpt lat="44.67078" lon="6.98681">
        <ele>2191.6</ele>
        <time>2022-07-18T08:37:57Z</time>
      </trkpt>
      <trkpt lat="44.67066" lon="6.98689">
        <ele>2190.2</ele>
        <time>2022-07-18T08:37:58Z</time>
      </trkpt>
      <trkpt lat="44.67055" lon="6.98695">
        <ele>2188.8</ele>
        <time>2022-07-18T08:37:59Z</time>
      </trkpt>
      <trkpt lat="44.67044" lon="6.98703">
        <ele>2187.4</ele>
        <time>2022-07-18T08:38:00Z</time>
      </trkpt>
      <trkpt lat="44.67032" lon="6.9871">
        <ele>2185.8</ele>
        <time>2022-07-18T08:38:01Z</time>
      </trkpt>
      <trkpt lat="44.6702" lon="6.98715">
        <ele>2184.4</ele>
        <time>2022-07-18T08:38:02Z</time>
      </trkpt>
      <trkpt lat="44.67007" lon="6.98718">
        <ele>2182.8</ele>
        <time>2022-07-18T08:38:03Z</time>
      </trkpt>
      <trkpt lat="44.66994" lon="6.9872">
        <ele>2181.2</ele>
        <time>2022-07-18T08:38:04Z</time>
      </trkpt>
      <trkpt lat="44.66982" lon="6.98721">
        <ele>2179.8</ele>
        <time>2022-07-18T08:38:05Z</time>
      </trkpt>
      <trkpt lat="44.66969" lon="6.98722">
        <ele>2178.4</ele>
        <time>2022-07-18T08:38:06Z</time>
      </trkpt>
      <trkpt lat="44.66957" lon="6.98723">
        <ele>2176.8</ele>
        <time>2022-07-18T08:38:07Z</time>
      </trkpt>
      <trkpt lat="44.66945" lon="6.98723">
        <ele>2175.4</ele>
        <time>2022-07-18T08:38:08Z</time>
      </trkpt>
      <trkpt lat="44.66921" lon="6.98721">
        <ele>2173.8</ele>
        <time>2022-07-18T08:38:09Z</time>
      </trkpt>
      <trkpt lat="44.6691" lon="6.9872">
        <ele>2172.2</ele>
        <time>2022-07-18T08:38:10Z</time>
      </trkpt>
      <trkpt lat="44.66898" lon="6.98717">
        <ele>2170.8</ele>
        <time>2022-07-18T08:38:11Z</time>
      </trkpt>
      <trkpt lat="44.66886" lon="6.98714">
        <ele>2169.2</ele>
        <time>2022-07-18T08:38:12Z</time>
      </trkpt>
      <trkpt lat="44.66874" lon="6.9871">
        <ele>2167.8</ele>
        <time>2022-07-18T08:38:13Z</time>
      </trkpt>
      <trkpt lat="44.66862" lon="6.98706">
        <ele>2166.6</ele>
        <time>2022-07-18T08:38:14Z</time>
      </trkpt>
      <trkpt lat="44.66851" lon="6.98702">
        <ele>2165.2</ele>
        <time>2022-07-18T08:38:15Z</time>
      </trkpt>
      <trkpt lat="44.66839" lon="6.98699">
        <ele>2164</ele>
        <time>2022-07-18T08:38:16Z</time>
      </trkpt>
      <trkpt lat="44.66827" lon="6.98696">
        <ele>2162.8</ele>
        <time>2022-07-18T08:38:17Z</time>
      </trkpt>
      <trkpt lat="44.66816" lon="6.98693">
        <ele>2161.4</ele>
        <time>2022-07-18T08:38:18Z</time>
      </trkpt>
      <trkpt lat="44.66804" lon="6.9869">
        <ele>2160</ele>
        <time>2022-07-18T08:38:19Z</time>
      </trkpt>
      <trkpt lat="44.66792" lon="6.98688">
        <ele>2158.4</ele>
        <time>2022-07-18T08:38:20Z</time>
      </trkpt>
      <trkpt lat="44.6678" lon="6.98687">
        <ele>2157</ele>
        <time>2022-07-18T08:38:21Z</time>
      </trkpt>
      <trkpt lat="44.66767" lon="6.98686">
        <ele>2155.6</ele>
        <time>2022-07-18T08:38:22Z</time>
      </trkpt>
      <trkpt lat="44.66755" lon="6.98687">
        <ele>2154</ele>
        <time>2022-07-18T08:38:23Z</time>
      </trkpt>
      <trkpt lat="44.66742" lon="6.98687">
        <ele>2152.6</ele>
        <time>2022-07-18T08:38:24Z</time>
      </trkpt>
      <trkpt lat="44.66729" lon="6.98687">
        <ele>2151.2</ele>
        <time>2022-07-18T08:38:25Z</time>
      </trkpt>
      <trkpt lat="44.66717" lon="6.98686">
        <ele>2149.8</ele>
        <time>2022-07-18T08:38:26Z</time>
      </trkpt>
      <trkpt lat="44.66705" lon="6.98686">
        <ele>2148.4</ele>
        <time>2022-07-18T08:38:27Z</time>
      </trkpt>
      <trkpt lat="44.66692" lon="6.98686">
        <ele>2147</ele>
        <time>2022-07-18T08:38:28Z</time>
      </trkpt>
      <trkpt lat="44.6668" lon="6.98686">
        <ele>2145.6</ele>
        <time>2022-07-18T08:38:29Z</time>
      </trkpt>
      <trkpt lat="44.66667" lon="6.98686">
        <ele>2144</ele>
        <time>2022-07-18T08:38:30Z</time>
      </trkpt>
      <trkpt lat="44.66655" lon="6.98686">
        <ele>2142.6</ele>
        <time>2022-07-18T08:38:31Z</time>
      </trkpt>
      <trkpt lat="44.66642" lon="6.98687">
        <ele>2141.2</ele>
        <time>2022-07-18T08:38:32Z</time>
      </trkpt>
      <trkpt lat="44.6663" lon="6.98689">
        <ele>2140</ele>
        <time>2022-07-18T08:38:33Z</time>
      </trkpt>
      <trkpt lat="44.66618" lon="6.98691">
        <ele>2138.8</ele>
        <time>2022-07-18T08:38:34Z</time>
      </trkpt>
      <trkpt lat="44.66605" lon="6.98693">
        <ele>2137.6</ele>
        <time>2022-07-18T08:38:35Z</time>
      </trkpt>
      <trkpt lat="44.66594" lon="6.98695">
        <ele>2136.4</ele>
        <time>2022-07-18T08:38:36Z</time>
      </trkpt>
      <trkpt lat="44.66582" lon="6.98698">
        <ele>2135</ele>
        <time>2022-07-18T08:38:37Z</time>
      </trkpt>
      <trkpt lat="44.66571" lon="6.98699">
        <ele>2133.6</ele>
        <time>2022-07-18T08:38:38Z</time>
      </trkpt>
      <trkpt lat="44.6656" lon="6.987">
        <ele>2132.4</ele>
        <time>2022-07-18T08:38:39Z</time>
      </trkpt>
      <trkpt lat="44.66549" lon="6.98699">
        <ele>2131</ele>
        <time>2022-07-18T08:38:40Z</time>
      </trkpt>
      <trkpt lat="44.66538" lon="6.98698">
        <ele>2129.8</ele>
        <time>2022-07-18T08:38:41Z</time>
      </trkpt>
      <trkpt lat="44.66526" lon="6.98696">
        <ele>2128.8</ele>
        <time>2022-07-18T08:38:42Z</time>
      </trkpt>
      <trkpt lat="44.66515" lon="6.98696">
        <ele>2127.6</ele>
        <time>2022-07-18T08:38:43Z</time>
      </trkpt>
      <trkpt lat="44.66503" lon="6.98697">
        <ele>2126.4</ele>
        <time>2022-07-18T08:38:44Z</time>
      </trkpt>
      <trkpt lat="44.66491" lon="6.98697">
        <ele>2125.2</ele>
        <time>2022-07-18T08:38:45Z</time>
      </trkpt>
      <trkpt lat="44.66479" lon="6.98698">
        <ele>2123.8</ele>
        <time>2022-07-18T08:38:46Z</time>
      </trkpt>
      <trkpt lat="44.66467" lon="6.98699">
        <ele>2122.6</ele>
        <time>2022-07-18T08:38:47Z</time>
      </trkpt>
      <trkpt lat="44.66455" lon="6.98701">
        <ele>2121.2</ele>
        <time>2022-07-18T08:38:48Z</time>
      </trkpt>
      <trkpt lat="44.66444" lon="6.98702">
        <ele>2120</ele>
        <time>2022-07-18T08:38:49Z</time>
      </trkpt>
      <trkpt lat="44.66433" lon="6.98703">
        <ele>2118.6</ele>
        <time>2022-07-18T08:38:50Z</time>
      </trkpt>
      <trkpt lat="44.66422" lon="6.98704">
        <ele>2117.2</ele>
        <time>2022-07-18T08:38:51Z</time>
      </trkpt>
      <trkpt lat="44.66411" lon="6.98704">
        <ele>2116</ele>
        <time>2022-07-18T08:38:52Z</time>
      </trkpt>
      <trkpt lat="44.664" lon="6.98705">
        <ele>2114.8</ele>
        <time>2022-07-18T08:38:53Z</time>
      </trkpt>
      <trkpt lat="44.66389" lon="6.98705">
        <ele>2113.6</ele>
        <time>2022-07-18T08:38:54Z</time>
      </trkpt>
      <trkpt lat="44.66379" lon="6.98705">
        <ele>2112.2</ele>
        <time>2022-07-18T08:38:55Z</time>
      </trkpt>
      <trkpt lat="44.6637" lon="6.98705">
        <ele>2111</ele>
        <time>2022-07-18T08:38:56Z</time>
      </trkpt>
      <trkpt lat="44.6636" lon="6.98706">
        <ele>2110</ele>
        <time>2022-07-18T08:38:57Z</time>
      </trkpt>
      <trkpt lat="44.66351" lon="6.98707">
        <ele>2109</ele>
        <time>2022-07-18T08:38:58Z</time>
      </trkpt>
      <trkpt lat="44.66342" lon="6.98708">
        <ele>2108</ele>
        <time>2022-07-18T08:38:59Z</time>
      </trkpt>
      <trkpt lat="44.66332" lon="6.98711">
        <ele>2106.8</ele>
        <time>2022-07-18T08:39:00Z</time>
      </trkpt>
      <trkpt lat="44.66322" lon="6.98713">
        <ele>2105.6</ele>
        <time>2022-07-18T08:39:01Z</time>
      </trkpt>
      <trkpt lat="44.66312" lon="6.98716">
        <ele>2104.4</ele>
        <time>2022-07-18T08:39:02Z</time>
      </trkpt>
      <trkpt lat="44.66302" lon="6.98717">
        <ele>2103</ele>
        <time>2022-07-18T08:39:03Z</time>
      </trkpt>
      <trkpt lat="44.66291" lon="6.98718">
        <ele>2101.8</ele>
        <time>2022-07-18T08:39:04Z</time>
      </trkpt>
      <trkpt lat="44.66281" lon="6.98717">
        <ele>2100.6</ele>
        <time>2022-07-18T08:39:05Z</time>
      </trkpt>
      <trkpt lat="44.66271" lon="6.98716">
        <ele>2099.4</ele>
        <time>2022-07-18T08:39:06Z</time>
      </trkpt>
      <trkpt lat="44.66261" lon="6.98714">
        <ele>2098.2</ele>
        <time>2022-07-18T08:39:07Z</time>
      </trkpt>
      <trkpt lat="44.66251" lon="6.98713">
        <ele>2097.2</ele>
        <time>2022-07-18T08:39:08Z</time>
      </trkpt>
      <trkpt lat="44.66242" lon="6.98712">
        <ele>2096</ele>
        <time>2022-07-18T08:39:09Z</time>
      </trkpt>
      <trkpt lat="44.66234" lon="6.98712">
        <ele>2095</ele>
        <time>2022-07-18T08:39:10Z</time>
      </trkpt>
      <trkpt lat="44.66226" lon="6.98713">
        <ele>2094.2</ele>
        <time>2022-07-18T08:39:11Z</time>
      </trkpt>
      <trkpt lat="44.66218" lon="6.98715">
        <ele>2093.4</ele>
        <time>2022-07-18T08:39:12Z</time>
      </trkpt>
      <trkpt lat="44.6621" lon="6.98717">
        <ele>2092.6</ele>
        <time>2022-07-18T08:39:13Z</time>
      </trkpt>
      <trkpt lat="44.66203" lon="6.9872">
        <ele>2091.8</ele>
        <time>2022-07-18T08:39:14Z</time>
      </trkpt>
      <trkpt lat="44.66196" lon="6.98723">
        <ele>2091</ele>
        <time>2022-07-18T08:39:15Z</time>
      </trkpt>
      <trkpt lat="44.6619" lon="6.98726">
        <ele>2090.4</ele>
        <time>2022-07-18T08:39:16Z</time>
      </trkpt>
      <trkpt lat="44.66185" lon="6.98728">
        <ele>2089.8</ele>
        <time>2022-07-18T08:39:17Z</time>
      </trkpt>
      <trkpt lat="44.6618" lon="6.98726">
        <ele>2089.2</ele>
        <time>2022-07-18T08:39:18Z</time>
      </trkpt>
      <trkpt lat="44.66176" lon="6.98723">
        <ele>2088.6</ele>
        <time>2022-07-18T08:39:19Z</time>
      </trkpt>
      <trkpt lat="44.66174" lon="6.98717">
        <ele>2088</ele>
        <time>2022-07-18T08:39:20Z</time>
      </trkpt>
      <trkpt lat="44.66174" lon="6.98712">
        <ele>2087.6</ele>
        <time>2022-07-18T08:39:21Z</time>
      </trkpt>
      <trkpt lat="44.66177" lon="6.98705">
        <ele>2087</ele>
        <time>2022-07-18T08:39:22Z</time>
      </trkpt>
      <trkpt lat="44.66181" lon="6.987">
        <ele>2086.4</ele>
        <time>2022-07-18T08:39:23Z</time>
      </trkpt>
      <trkpt lat="44.66187" lon="6.98695">
        <ele>2085.8</ele>
        <time>2022-07-18T08:39:24Z</time>
      </trkpt>
      <trkpt lat="44.66195" lon="6.98691">
        <ele>2085.2</ele>
        <time>2022-07-18T08:39:25Z</time>
      </trkpt>
      <trkpt lat="44.66202" lon="6.98687">
        <ele>2084.4</ele>
        <time>2022-07-18T08:39:26Z</time>
      </trkpt>
      <trkpt lat="44.66211" lon="6.98683">
        <ele>2083.6</ele>
        <time>2022-07-18T08:39:27Z</time>
      </trkpt>
      <trkpt lat="44.66219" lon="6.98678">
        <ele>2083</ele>
        <time>2022-07-18T08:39:28Z</time>
      </trkpt>
      <trkpt lat="44.66226" lon="6.98674">
        <ele>2082</ele>
        <time>2022-07-18T08:39:29Z</time>
      </trkpt>
      <trkpt lat="44.66233" lon="6.98669">
        <ele>2081.4</ele>
        <time>2022-07-18T08:39:30Z</time>
      </trkpt>
      <trkpt lat="44.66241" lon="6.98667">
        <ele>2080.6</ele>
        <time>2022-07-18T08:39:31Z</time>
      </trkpt>
      <trkpt lat="44.66248" lon="6.98666">
        <ele>2080</ele>
        <time>2022-07-18T08:39:32Z</time>
      </trkpt>
      <trkpt lat="44.66256" lon="6.98666">
        <ele>2079.4</ele>
        <time>2022-07-18T08:39:33Z</time>
      </trkpt>
      <trkpt lat="44.66261" lon="6.98665">
        <ele>2078.8</ele>
        <time>2022-07-18T08:39:34Z</time>
      </trkpt>
      <trkpt lat="44.66266" lon="6.98664">
        <ele>2078.2</ele>
        <time>2022-07-18T08:39:35Z</time>
      </trkpt>
      <trkpt lat="44.66269" lon="6.98659">
        <ele>2077.8</ele>
        <time>2022-07-18T08:39:36Z</time>
      </trkpt>
      <trkpt lat="44.66269" lon="6.98652">
        <ele>2077.4</ele>
        <time>2022-07-18T08:39:37Z</time>
      </trkpt>
      <trkpt lat="44.66268" lon="6.98646">
        <ele>2077</ele>
        <time>2022-07-18T08:39:38Z</time>
      </trkpt>
      <trkpt lat="44.66262" lon="6.98642">
        <ele>2076.6</ele>
        <time>2022-07-18T08:39:39Z</time>
      </trkpt>
      <trkpt lat="44.66256" lon="6.98638">
        <ele>2076.2</ele>
        <time>2022-07-18T08:39:40Z</time>
      </trkpt>
      <trkpt lat="44.66249" lon="6.98635">
        <ele>2075.6</ele>
        <time>2022-07-18T08:39:41Z</time>
      </trkpt>
      <trkpt lat="44.66242" lon="6.98632">
        <ele>2075</ele>
        <time>2022-07-18T08:39:42Z</time>
      </trkpt>
      <trkpt lat="44.66235" lon="6.98628">
        <ele>2074.4</ele>
        <time>2022-07-18T08:39:43Z</time>
      </trkpt>
      <trkpt lat="44.66227" lon="6.98624">
        <ele>2074</ele>
        <time>2022-07-18T08:39:44Z</time>
      </trkpt>
      <trkpt lat="44.66218" lon="6.98621">
        <ele>2073</ele>
        <time>2022-07-18T08:39:45Z</time>
      </trkpt>
      <trkpt lat="44.66209" lon="6.98616">
        <ele>2072.2</ele>
        <time>2022-07-18T08:39:46Z</time>
      </trkpt>
      <trkpt lat="44.662" lon="6.98612">
        <ele>2071.4</ele>
        <time>2022-07-18T08:39:47Z</time>
      </trkpt>
      <trkpt lat="44.6619" lon="6.98608">
        <ele>2070.4</ele>
        <time>2022-07-18T08:39:48Z</time>
      </trkpt>
      <trkpt lat="44.6618" lon="6.98605">
        <ele>2069.4</ele>
        <time>2022-07-18T08:39:49Z</time>
      </trkpt>
      <trkpt lat="44.66172" lon="6.98602">
        <ele>2068.6</ele>
        <time>2022-07-18T08:39:50Z</time>
      </trkpt>
      <trkpt lat="44.66163" lon="6.98601">
        <ele>2067.6</ele>
        <time>2022-07-18T08:39:51Z</time>
      </trkpt>
      <trkpt lat="44.66153" lon="6.98601">
        <ele>2066.6</ele>
        <time>2022-07-18T08:39:52Z</time>
      </trkpt>
      <trkpt lat="44.66144" lon="6.98602">
        <ele>2065.6</ele>
        <time>2022-07-18T08:39:53Z</time>
      </trkpt>
      <trkpt lat="44.66134" lon="6.98604">
        <ele>2064.4</ele>
        <time>2022-07-18T08:39:54Z</time>
      </trkpt>
      <trkpt lat="44.66123" lon="6.98606">
        <ele>2063.2</ele>
        <time>2022-07-18T08:39:55Z</time>
      </trkpt>
      <trkpt lat="44.66112" lon="6.98608">
        <ele>2062</ele>
        <time>2022-07-18T08:39:56Z</time>
      </trkpt>
      <trkpt lat="44.66102" lon="6.9861">
        <ele>2060.6</ele>
        <time>2022-07-18T08:39:57Z</time>
      </trkpt>
      <trkpt lat="44.66091" lon="6.9861">
        <ele>2059.4</ele>
        <time>2022-07-18T08:39:58Z</time>
      </trkpt>
      <trkpt lat="44.6608" lon="6.98611">
        <ele>2058.2</ele>
        <time>2022-07-18T08:39:59Z</time>
      </trkpt>
      <trkpt lat="44.66069" lon="6.98612">
        <ele>2057</ele>
        <time>2022-07-18T08:40:00Z</time>
      </trkpt>
      <trkpt lat="44.66058" lon="6.98612">
        <ele>2055.6</ele>
        <time>2022-07-18T08:40:01Z</time>
      </trkpt>
      <trkpt lat="44.66047" lon="6.98613">
        <ele>2054.2</ele>
        <time>2022-07-18T08:40:02Z</time>
      </trkpt>
      <trkpt lat="44.66036" lon="6.98613">
        <ele>2052.6</ele>
        <time>2022-07-18T08:40:03Z</time>
      </trkpt>
      <trkpt lat="44.66025" lon="6.98614">
        <ele>2051.2</ele>
        <time>2022-07-18T08:40:04Z</time>
      </trkpt>
      <trkpt lat="44.66013" lon="6.98614">
        <ele>2049.8</ele>
        <time>2022-07-18T08:40:05Z</time>
      </trkpt>
      <trkpt lat="44.66002" lon="6.98616">
        <ele>2048.4</ele>
        <time>2022-07-18T08:40:06Z</time>
      </trkpt>
      <trkpt lat="44.65989" lon="6.98617">
        <ele>2047</ele>
        <time>2022-07-18T08:40:07Z</time>
      </trkpt>
      <trkpt lat="44.65977" lon="6.98617">
        <ele>2045.4</ele>
        <time>2022-07-18T08:40:08Z</time>
      </trkpt>
      <trkpt lat="44.65965" lon="6.98618">
        <ele>2044</ele>
        <time>2022-07-18T08:40:09Z</time>
      </trkpt>
      <trkpt lat="44.65953" lon="6.98618">
        <ele>2042.6</ele>
        <time>2022-07-18T08:40:10Z</time>
      </trkpt>
      <trkpt lat="44.65942" lon="6.98618">
        <ele>2041</ele>
        <time>2022-07-18T08:40:11Z</time>
      </trkpt>
      <trkpt lat="44.6593" lon="6.98618">
        <ele>2039.6</ele>
        <time>2022-07-18T08:40:12Z</time>
      </trkpt>
      <trkpt lat="44.65919" lon="6.98618">
        <ele>2038</ele>
        <time>2022-07-18T08:40:13Z</time>
      </trkpt>
      <trkpt lat="44.65909" lon="6.98618">
        <ele>2036.6</ele>
        <time>2022-07-18T08:40:14Z</time>
      </trkpt>
      <trkpt lat="44.65899" lon="6.98618">
        <ele>2035</ele>
        <time>2022-07-18T08:40:15Z</time>
      </trkpt>
      <trkpt lat="44.65889" lon="6.98618">
        <ele>2033.6</ele>
        <time>2022-07-18T08:40:16Z</time>
      </trkpt>
      <trkpt lat="44.65879" lon="6.98618">
        <ele>2032.2</ele>
        <time>2022-07-18T08:40:17Z</time>
      </trkpt>
      <trkpt lat="44.6587" lon="6.9862">
        <ele>2030.8</ele>
        <time>2022-07-18T08:40:18Z</time>
      </trkpt>
      <trkpt lat="44.65861" lon="6.98624">
        <ele>2029.6</ele>
        <time>2022-07-18T08:40:19Z</time>
      </trkpt>
      <trkpt lat="44.65851" lon="6.98628">
        <ele>2028.2</ele>
        <time>2022-07-18T08:40:20Z</time>
      </trkpt>
      <trkpt lat="44.65841" lon="6.98632">
        <ele>2027</ele>
        <time>2022-07-18T08:40:21Z</time>
      </trkpt>
      <trkpt lat="44.65832" lon="6.98636">
        <ele>2025.8</ele>
        <time>2022-07-18T08:40:22Z</time>
      </trkpt>
      <trkpt lat="44.65821" lon="6.98639">
        <ele>2024.4</ele>
        <time>2022-07-18T08:40:23Z</time>
      </trkpt>
      <trkpt lat="44.65812" lon="6.98641">
        <ele>2023</ele>
        <time>2022-07-18T08:40:24Z</time>
      </trkpt>
      <trkpt lat="44.65802" lon="6.98644">
        <ele>2021.6</ele>
        <time>2022-07-18T08:40:25Z</time>
      </trkpt>
      <trkpt lat="44.65792" lon="6.98646">
        <ele>2020.2</ele>
        <time>2022-07-18T08:40:26Z</time>
      </trkpt>
      <trkpt lat="44.65783" lon="6.98649">
        <ele>2018.6</ele>
        <time>2022-07-18T08:40:27Z</time>
      </trkpt>
      <trkpt lat="44.65774" lon="6.98652">
        <ele>2017.2</ele>
        <time>2022-07-18T08:40:28Z</time>
      </trkpt>
      <trkpt lat="44.65765" lon="6.98657">
        <ele>2015.8</ele>
        <time>2022-07-18T08:40:29Z</time>
      </trkpt>
      <trkpt lat="44.65756" lon="6.98662">
        <ele>2014.4</ele>
        <time>2022-07-18T08:40:30Z</time>
      </trkpt>
      <trkpt lat="44.65748" lon="6.98667">
        <ele>2013.2</ele>
        <time>2022-07-18T08:40:31Z</time>
      </trkpt>
      <trkpt lat="44.65739" lon="6.98672">
        <ele>2011.8</ele>
        <time>2022-07-18T08:40:32Z</time>
      </trkpt>
      <trkpt lat="44.65731" lon="6.98676">
        <ele>2010.6</ele>
        <time>2022-07-18T08:40:33Z</time>
      </trkpt>
      <trkpt lat="44.65723" lon="6.98681">
        <ele>2009.2</ele>
        <time>2022-07-18T08:40:34Z</time>
      </trkpt>
      <trkpt lat="44.65715" lon="6.98684">
        <ele>2008</ele>
        <time>2022-07-18T08:40:35Z</time>
      </trkpt>
      <trkpt lat="44.65708" lon="6.98687">
        <ele>2006.8</ele>
        <time>2022-07-18T08:40:36Z</time>
      </trkpt>
      <trkpt lat="44.65702" lon="6.9869">
        <ele>2005.6</ele>
        <time>2022-07-18T08:40:37Z</time>
      </trkpt>
      <trkpt lat="44.65696" lon="6.98692">
        <ele>2004.6</ele>
        <time>2022-07-18T08:40:38Z</time>
      </trkpt>
      <trkpt lat="44.6569" lon="6.98695">
        <ele>2003.6</ele>
        <time>2022-07-18T08:40:39Z</time>
      </trkpt>
      <trkpt lat="44.65685" lon="6.98698">
        <ele>2002.8</ele>
        <time>2022-07-18T08:40:40Z</time>
      </trkpt>
      <trkpt lat="44.6568" lon="6.98703">
        <ele>2001.8</ele>
        <time>2022-07-18T08:40:41Z</time>
      </trkpt>
      <trkpt lat="44.65677" lon="6.98709">
        <ele>2001</ele>
        <time>2022-07-18T08:40:42Z</time>
      </trkpt>
      <trkpt lat="44.65676" lon="6.98717">
        <ele>2000</ele>
        <time>2022-07-18T08:40:43Z</time>
      </trkpt>
      <trkpt lat="44.65677" lon="6.98726">
        <ele>1999.2</ele>
        <time>2022-07-18T08:40:44Z</time>
      </trkpt>
      <trkpt lat="44.65679" lon="6.98736">
        <ele>1998.2</ele>
        <time>2022-07-18T08:40:45Z</time>
      </trkpt>
      <trkpt lat="44.65682" lon="6.98745">
        <ele>1997.2</ele>
        <time>2022-07-18T08:40:46Z</time>
      </trkpt>
      <trkpt lat="44.65687" lon="6.98752">
        <ele>1996.4</ele>
        <time>2022-07-18T08:40:47Z</time>
      </trkpt>
      <trkpt lat="44.65692" lon="6.98757">
        <ele>1995.6</ele>
        <time>2022-07-18T08:40:48Z</time>
      </trkpt>
      <trkpt lat="44.65697" lon="6.9876">
        <ele>1995</ele>
        <time>2022-07-18T08:40:49Z</time>
      </trkpt>
      <trkpt lat="44.65702" lon="6.98761">
        <ele>1994.2</ele>
        <time>2022-07-18T08:40:50Z</time>
      </trkpt>
      <trkpt lat="44.65708" lon="6.98761">
        <ele>1993.8</ele>
        <time>2022-07-18T08:40:51Z</time>
      </trkpt>
      <trkpt lat="44.65714" lon="6.98758">
        <ele>1993.2</ele>
        <time>2022-07-18T08:40:52Z</time>
      </trkpt>
      <trkpt lat="44.65721" lon="6.98754">
        <ele>1992.4</ele>
        <time>2022-07-18T08:40:53Z</time>
      </trkpt>
      <trkpt lat="44.65729" lon="6.9875">
        <ele>1991.8</ele>
        <time>2022-07-18T08:40:54Z</time>
      </trkpt>
      <trkpt lat="44.65738" lon="6.98744">
        <ele>1991.2</ele>
        <time>2022-07-18T08:40:55Z</time>
      </trkpt>
      <trkpt lat="44.65747" lon="6.98739">
        <ele>1990.6</ele>
        <time>2022-07-18T08:40:56Z</time>
      </trkpt>
      <trkpt lat="44.65757" lon="6.98732">
        <ele>1990</ele>
        <time>2022-07-18T08:40:57Z</time>
      </trkpt>
      <trkpt lat="44.65767" lon="6.98725">
        <ele>1989.2</ele>
        <time>2022-07-18T08:40:58Z</time>
      </trkpt>
      <trkpt lat="44.65779" lon="6.98719">
        <ele>1988.8</ele>
        <time>2022-07-18T08:40:59Z</time>
      </trkpt>
      <trkpt lat="44.65788" lon="6.98715">
        <ele>1988.4</ele>
        <time>2022-07-18T08:41:00Z</time>
      </trkpt>
      <trkpt lat="44.65798" lon="6.98713">
        <ele>1987.8</ele>
        <time>2022-07-18T08:41:01Z</time>
      </trkpt>
      <trkpt lat="44.65806" lon="6.98712">
        <ele>1987.2</ele>
        <time>2022-07-18T08:41:02Z</time>
      </trkpt>
      <trkpt lat="44.65815" lon="6.98713">
        <ele>1986.8</ele>
        <time>2022-07-18T08:41:03Z</time>
      </trkpt>
      <trkpt lat="44.65824" lon="6.98715">
        <ele>1986.2</ele>
        <time>2022-07-18T08:41:04Z</time>
      </trkpt>
      <trkpt lat="44.65832" lon="6.98718">
        <ele>1985.8</ele>
        <time>2022-07-18T08:41:05Z</time>
      </trkpt>
      <trkpt lat="44.65842" lon="6.98721">
        <ele>1985.2</ele>
        <time>2022-07-18T08:41:06Z</time>
      </trkpt>
      <trkpt lat="44.65852" lon="6.98725">
        <ele>1984.6</ele>
        <time>2022-07-18T08:41:07Z</time>
      </trkpt>
      <trkpt lat="44.65861" lon="6.98729">
        <ele>1983.8</ele>
        <time>2022-07-18T08:41:08Z</time>
      </trkpt>
      <trkpt lat="44.6587" lon="6.98733">
        <ele>1983.2</ele>
        <time>2022-07-18T08:41:09Z</time>
      </trkpt>
      <trkpt lat="44.65879" lon="6.98736">
        <ele>1982.4</ele>
        <time>2022-07-18T08:41:10Z</time>
      </trkpt>
      <trkpt lat="44.65889" lon="6.98738">
        <ele>1981.6</ele>
        <time>2022-07-18T08:41:11Z</time>
      </trkpt>
      <trkpt lat="44.65899" lon="6.9874">
        <ele>1980.8</ele>
        <time>2022-07-18T08:41:12Z</time>
      </trkpt>
      <trkpt lat="44.65908" lon="6.9874">
        <ele>1980</ele>
        <time>2022-07-18T08:41:13Z</time>
      </trkpt>
      <trkpt lat="44.65917" lon="6.9874">
        <ele>1979.2</ele>
        <time>2022-07-18T08:41:14Z</time>
      </trkpt>
      <trkpt lat="44.65925" lon="6.9874">
        <ele>1978.2</ele>
        <time>2022-07-18T08:41:15Z</time>
      </trkpt>
      <trkpt lat="44.65933" lon="6.98742">
        <ele>1977.2</ele>
        <time>2022-07-18T08:41:16Z</time>
      </trkpt>
      <trkpt lat="44.65941" lon="6.98745">
        <ele>1976.2</ele>
        <time>2022-07-18T08:41:17Z</time>
      </trkpt>
      <trkpt lat="44.65949" lon="6.98749">
        <ele>1975.2</ele>
        <time>2022-07-18T08:41:18Z</time>
      </trkpt>
      <trkpt lat="44.65957" lon="6.98756">
        <ele>1974.2</ele>
        <time>2022-07-18T08:41:19Z</time>
      </trkpt>
      <trkpt lat="44.65965" lon="6.98763">
        <ele>1973.2</ele>
        <time>2022-07-18T08:41:20Z</time>
      </trkpt>
      <trkpt lat="44.65973" lon="6.9877">
        <ele>1972</ele>
        <time>2022-07-18T08:41:21Z</time>
      </trkpt>
      <trkpt lat="44.65983" lon="6.98776">
        <ele>1970.8</ele>
        <time>2022-07-18T08:41:22Z</time>
      </trkpt>
      <trkpt lat="44.65992" lon="6.98783">
        <ele>1969.8</ele>
        <time>2022-07-18T08:41:23Z</time>
      </trkpt>
      <trkpt lat="44.66001" lon="6.98788">
        <ele>1968.6</ele>
        <time>2022-07-18T08:41:24Z</time>
      </trkpt>
      <trkpt lat="44.66009" lon="6.98796">
        <ele>1967.6</ele>
        <time>2022-07-18T08:41:25Z</time>
      </trkpt>
      <trkpt lat="44.66016" lon="6.98805">
        <ele>1966.4</ele>
        <time>2022-07-18T08:41:26Z</time>
      </trkpt>
      <trkpt lat="44.66022" lon="6.98815">
        <ele>1965.4</ele>
        <time>2022-07-18T08:41:27Z</time>
      </trkpt>
      <trkpt lat="44.66027" lon="6.98827">
        <ele>1964.4</ele>
        <time>2022-07-18T08:41:28Z</time>
      </trkpt>
      <trkpt lat="44.66031" lon="6.9884">
        <ele>1963.4</ele>
        <time>2022-07-18T08:41:29Z</time>
      </trkpt>
      <trkpt lat="44.66034" lon="6.98855">
        <ele>1962.4</ele>
        <time>2022-07-18T08:41:30Z</time>
      </trkpt>
      <trkpt lat="44.66037" lon="6.98869">
        <ele>1961.4</ele>
        <time>2022-07-18T08:41:31Z</time>
      </trkpt>
      <trkpt lat="44.6604" lon="6.98884">
        <ele>1960.2</ele>
        <time>2022-07-18T08:41:32Z</time>
      </trkpt>
      <trkpt lat="44.66043" lon="6.98899">
        <ele>1959.2</ele>
        <time>2022-07-18T08:41:33Z</time>
      </trkpt>
      <trkpt lat="44.66046" lon="6.98913">
        <ele>1958</ele>
        <time>2022-07-18T08:41:34Z</time>
      </trkpt>
      <trkpt lat="44.66049" lon="6.98926">
        <ele>1957</ele>
        <time>2022-07-18T08:41:35Z</time>
      </trkpt>
      <trkpt lat="44.66052" lon="6.98939">
        <ele>1955.8</ele>
        <time>2022-07-18T08:41:36Z</time>
      </trkpt>
      <trkpt lat="44.66055" lon="6.98952">
        <ele>1954.8</ele>
        <time>2022-07-18T08:41:37Z</time>
      </trkpt>
      <trkpt lat="44.66058" lon="6.98964">
        <ele>1953.6</ele>
        <time>2022-07-18T08:41:38Z</time>
      </trkpt>
      <trkpt lat="44.66061" lon="6.98976">
        <ele>1952.6</ele>
        <time>2022-07-18T08:41:39Z</time>
      </trkpt>
      <trkpt lat="44.66066" lon="6.98987">
        <ele>1951.6</ele>
        <time>2022-07-18T08:41:40Z</time>
      </trkpt>
      <trkpt lat="44.66073" lon="6.99">
        <ele>1950.4</ele>
        <time>2022-07-18T08:41:41Z</time>
      </trkpt>
      <trkpt lat="44.66081" lon="6.99013">
        <ele>1949.2</ele>
        <time>2022-07-18T08:41:42Z</time>
      </trkpt>
      <trkpt lat="44.66089" lon="6.99026">
        <ele>1947.8</ele>
        <time>2022-07-18T08:41:43Z</time>
      </trkpt>
      <trkpt lat="44.66097" lon="6.99039">
        <ele>1946.6</ele>
        <time>2022-07-18T08:41:44Z</time>
      </trkpt>
      <trkpt lat="44.66106" lon="6.99051">
        <ele>1945.4</ele>
        <time>2022-07-18T08:41:45Z</time>
      </trkpt>
      <trkpt lat="44.66114" lon="6.99064">
        <ele>1944</ele>
        <time>2022-07-18T08:41:46Z</time>
      </trkpt>
      <trkpt lat="44.66123" lon="6.99077">
        <ele>1942.6</ele>
        <time>2022-07-18T08:41:47Z</time>
      </trkpt>
      <trkpt lat="44.66131" lon="6.9909">
        <ele>1941.2</ele>
        <time>2022-07-18T08:41:48Z</time>
      </trkpt>
      <trkpt lat="44.66138" lon="6.99104">
        <ele>1939.8</ele>
        <time>2022-07-18T08:41:49Z</time>
      </trkpt>
      <trkpt lat="44.66146" lon="6.99117">
        <ele>1938.4</ele>
        <time>2022-07-18T08:41:50Z</time>
      </trkpt>
      <trkpt lat="44.66154" lon="6.99131">
        <ele>1937</ele>
        <time>2022-07-18T08:41:51Z</time>
      </trkpt>
      <trkpt lat="44.66162" lon="6.99144">
        <ele>1935.8</ele>
        <time>2022-07-18T08:41:52Z</time>
      </trkpt>
      <trkpt lat="44.6617" lon="6.99157">
        <ele>1934.2</ele>
        <time>2022-07-18T08:41:53Z</time>
      </trkpt>
      <trkpt lat="44.66178" lon="6.99169">
        <ele>1933</ele>
        <time>2022-07-18T08:41:54Z</time>
      </trkpt>
      <trkpt lat="44.66184" lon="6.99181">
        <ele>1931.8</ele>
        <time>2022-07-18T08:41:55Z</time>
      </trkpt>
      <trkpt lat="44.6619" lon="6.99192">
        <ele>1930.6</ele>
        <time>2022-07-18T08:41:56Z</time>
      </trkpt>
      <trkpt lat="44.66196" lon="6.99203">
        <ele>1929.6</ele>
        <time>2022-07-18T08:41:57Z</time>
      </trkpt>
      <trkpt lat="44.66201" lon="6.99213">
        <ele>1928.6</ele>
        <time>2022-07-18T08:41:58Z</time>
      </trkpt>
      <trkpt lat="44.66205" lon="6.99223">
        <ele>1927.6</ele>
        <time>2022-07-18T08:41:59Z</time>
      </trkpt>
      <trkpt lat="44.66209" lon="6.99233">
        <ele>1927</ele>
        <time>2022-07-18T08:42:00Z</time>
      </trkpt>
      <trkpt lat="44.66211" lon="6.99242">
        <ele>1926.2</ele>
        <time>2022-07-18T08:42:01Z</time>
      </trkpt>
      <trkpt lat="44.66212" lon="6.9925">
        <ele>1925.6</ele>
        <time>2022-07-18T08:42:02Z</time>
      </trkpt>
      <trkpt lat="44.66209" lon="6.99257">
        <ele>1925.2</ele>
        <time>2022-07-18T08:42:03Z</time>
      </trkpt>
      <trkpt lat="44.66205" lon="6.99261">
        <ele>1924.6</ele>
        <time>2022-07-18T08:42:04Z</time>
      </trkpt>
      <trkpt lat="44.66199" lon="6.99262">
        <ele>1924.2</ele>
        <time>2022-07-18T08:42:05Z</time>
      </trkpt>
      <trkpt lat="44.66192" lon="6.99259">
        <ele>1923.6</ele>
        <time>2022-07-18T08:42:06Z</time>
      </trkpt>
      <trkpt lat="44.66187" lon="6.99254">
        <ele>1923.2</ele>
        <time>2022-07-18T08:42:07Z</time>
      </trkpt>
      <trkpt lat="44.66181" lon="6.99248">
        <ele>1922.6</ele>
        <time>2022-07-18T08:42:08Z</time>
      </trkpt>
      <trkpt lat="44.66176" lon="6.9924">
        <ele>1922</ele>
        <time>2022-07-18T08:42:09Z</time>
      </trkpt>
      <trkpt lat="44.66171" lon="6.99232">
        <ele>1921.6</ele>
        <time>2022-07-18T08:42:10Z</time>
      </trkpt>
      <trkpt lat="44.66166" lon="6.99224">
        <ele>1921</ele>
        <time>2022-07-18T08:42:11Z</time>
      </trkpt>
      <trkpt lat="44.66161" lon="6.99215">
        <ele>1920.4</ele>
        <time>2022-07-18T08:42:12Z</time>
      </trkpt>
      <trkpt lat="44.66156" lon="6.99206">
        <ele>1919.8</ele>
        <time>2022-07-18T08:42:13Z</time>
      </trkpt>
      <trkpt lat="44.6615" lon="6.99197">
        <ele>1919.4</ele>
        <time>2022-07-18T08:42:14Z</time>
      </trkpt>
      <trkpt lat="44.66144" lon="6.99188">
        <ele>1918.8</ele>
        <time>2022-07-18T08:42:15Z</time>
      </trkpt>
      <trkpt lat="44.66137" lon="6.9918">
        <ele>1918.2</ele>
        <time>2022-07-18T08:42:16Z</time>
      </trkpt>
      <trkpt lat="44.6613" lon="6.99172">
        <ele>1917.8</ele>
        <time>2022-07-18T08:42:17Z</time>
      </trkpt>
      <trkpt lat="44.66122" lon="6.99164">
        <ele>1917.2</ele>
        <time>2022-07-18T08:42:18Z</time>
      </trkpt>
      <trkpt lat="44.66113" lon="6.99157">
        <ele>1916.4</ele>
        <time>2022-07-18T08:42:19Z</time>
      </trkpt>
      <trkpt lat="44.66104" lon="6.9915">
        <ele>1915.6</ele>
        <time>2022-07-18T08:42:20Z</time>
      </trkpt>
      <trkpt lat="44.66094" lon="6.99145">
        <ele>1914.8</ele>
        <time>2022-07-18T08:42:21Z</time>
      </trkpt>
      <trkpt lat="44.66084" lon="6.9914">
        <ele>1914</ele>
        <time>2022-07-18T08:42:22Z</time>
      </trkpt>
      <trkpt lat="44.66073" lon="6.99138">
        <ele>1913.2</ele>
        <time>2022-07-18T08:42:23Z</time>
      </trkpt>
      <trkpt lat="44.66063" lon="6.99136">
        <ele>1912.4</ele>
        <time>2022-07-18T08:42:24Z</time>
      </trkpt>
      <trkpt lat="44.66052" lon="6.99134">
        <ele>1911.4</ele>
        <time>2022-07-18T08:42:25Z</time>
      </trkpt>
      <trkpt lat="44.66041" lon="6.99132">
        <ele>1910.4</ele>
        <time>2022-07-18T08:42:26Z</time>
      </trkpt>
      <trkpt lat="44.6603" lon="6.99129">
        <ele>1909</ele>
        <time>2022-07-18T08:42:27Z</time>
      </trkpt>
      <trkpt lat="44.66019" lon="6.99127">
        <ele>1907.8</ele>
        <time>2022-07-18T08:42:28Z</time>
      </trkpt>
      <trkpt lat="44.66009" lon="6.99124">
        <ele>1906.6</ele>
        <time>2022-07-18T08:42:29Z</time>
      </trkpt>
      <trkpt lat="44.65998" lon="6.9912">
        <ele>1905.2</ele>
        <time>2022-07-18T08:42:30Z</time>
      </trkpt>
      <trkpt lat="44.65987" lon="6.99115">
        <ele>1903.8</ele>
        <time>2022-07-18T08:42:31Z</time>
      </trkpt>
      <trkpt lat="44.65977" lon="6.99108">
        <ele>1902.4</ele>
        <time>2022-07-18T08:42:32Z</time>
      </trkpt>
      <trkpt lat="44.65967" lon="6.991">
        <ele>1901.2</ele>
        <time>2022-07-18T08:42:33Z</time>
      </trkpt>
      <trkpt lat="44.65956" lon="6.99092">
        <ele>1899.6</ele>
        <time>2022-07-18T08:42:34Z</time>
      </trkpt>
      <trkpt lat="44.65946" lon="6.99083">
        <ele>1898.2</ele>
        <time>2022-07-18T08:42:35Z</time>
      </trkpt>
      <trkpt lat="44.65935" lon="6.99074">
        <ele>1896.8</ele>
        <time>2022-07-18T08:42:36Z</time>
      </trkpt>
      <trkpt lat="44.65925" lon="6.99063">
        <ele>1895</ele>
        <time>2022-07-18T08:42:37Z</time>
      </trkpt>
      <trkpt lat="44.65915" lon="6.99052">
        <ele>1893.4</ele>
        <time>2022-07-18T08:42:38Z</time>
      </trkpt>
      <trkpt lat="44.65906" lon="6.99041">
        <ele>1892</ele>
        <time>2022-07-18T08:42:39Z</time>
      </trkpt>
      <trkpt lat="44.65897" lon="6.99029">
        <ele>1890.6</ele>
        <time>2022-07-18T08:42:40Z</time>
      </trkpt>
      <trkpt lat="44.65887" lon="6.99018">
        <ele>1889.2</ele>
        <time>2022-07-18T08:42:41Z</time>
      </trkpt>
      <trkpt lat="44.65878" lon="6.99008">
        <ele>1888</ele>
        <time>2022-07-18T08:42:42Z</time>
      </trkpt>
      <trkpt lat="44.65869" lon="6.98999">
        <ele>1886.8</ele>
        <time>2022-07-18T08:42:43Z</time>
      </trkpt>
      <trkpt lat="44.65858" lon="6.98992">
        <ele>1885.4</ele>
        <time>2022-07-18T08:42:44Z</time>
      </trkpt>
      <trkpt lat="44.65847" lon="6.98988">
        <ele>1884</ele>
        <time>2022-07-18T08:42:45Z</time>
      </trkpt>
      <trkpt lat="44.65835" lon="6.98986">
        <ele>1882.8</ele>
        <time>2022-07-18T08:42:46Z</time>
      </trkpt>
      <trkpt lat="44.65822" lon="6.98985">
        <ele>1881.4</ele>
        <time>2022-07-18T08:42:47Z</time>
      </trkpt>
      <trkpt lat="44.65809" lon="6.98986">
        <ele>1880.2</ele>
        <time>2022-07-18T08:42:48Z</time>
      </trkpt>
      <trkpt lat="44.65798" lon="6.98986">
        <ele>1879</ele>
        <time>2022-07-18T08:42:49Z</time>
      </trkpt>
      <trkpt lat="44.65786" lon="6.98986">
        <ele>1877.6</ele>
        <time>2022-07-18T08:42:50Z</time>
      </trkpt>
      <trkpt lat="44.65774" lon="6.98986">
        <ele>1876.4</ele>
        <time>2022-07-18T08:42:51Z</time>
      </trkpt>
      <trkpt lat="44.65762" lon="6.98986">
        <ele>1875</ele>
        <time>2022-07-18T08:42:52Z</time>
      </trkpt>
      <trkpt lat="44.65751" lon="6.98985">
        <ele>1873.8</ele>
        <time>2022-07-18T08:42:53Z</time>
      </trkpt>
      <trkpt lat="44.6574" lon="6.98983">
        <ele>1872.4</ele>
        <time>2022-07-18T08:42:54Z</time>
      </trkpt>
      <trkpt lat="44.65729" lon="6.98981">
        <ele>1871</ele>
        <time>2022-07-18T08:42:55Z</time>
      </trkpt>
      <trkpt lat="44.65718" lon="6.98979">
        <ele>1869.8</ele>
        <time>2022-07-18T08:42:56Z</time>
      </trkpt>
      <trkpt lat="44.65706" lon="6.98975">
        <ele>1868.4</ele>
        <time>2022-07-18T08:42:57Z</time>
      </trkpt>
      <trkpt lat="44.65696" lon="6.98972">
        <ele>1867.2</ele>
        <time>2022-07-18T08:42:58Z</time>
      </trkpt>
      <trkpt lat="44.65685" lon="6.98969">
        <ele>1866</ele>
        <time>2022-07-18T08:42:59Z</time>
      </trkpt>
      <trkpt lat="44.65675" lon="6.98965">
        <ele>1864.8</ele>
        <time>2022-07-18T08:43:00Z</time>
      </trkpt>
      <trkpt lat="44.65664" lon="6.98961">
        <ele>1863.6</ele>
        <time>2022-07-18T08:43:01Z</time>
      </trkpt>
      <trkpt lat="44.65654" lon="6.98958">
        <ele>1862.4</ele>
        <time>2022-07-18T08:43:02Z</time>
      </trkpt>
      <trkpt lat="44.65644" lon="6.98956">
        <ele>1861.4</ele>
        <time>2022-07-18T08:43:03Z</time>
      </trkpt>
      <trkpt lat="44.65633" lon="6.98953">
        <ele>1860</ele>
        <time>2022-07-18T08:43:04Z</time>
      </trkpt>
      <trkpt lat="44.65623" lon="6.9895">
        <ele>1859</ele>
        <time>2022-07-18T08:43:05Z</time>
      </trkpt>
      <trkpt lat="44.65612" lon="6.98947">
        <ele>1857.8</ele>
        <time>2022-07-18T08:43:06Z</time>
      </trkpt>
      <trkpt lat="44.65602" lon="6.98942">
        <ele>1856.6</ele>
        <time>2022-07-18T08:43:07Z</time>
      </trkpt>
      <trkpt lat="44.65592" lon="6.98937">
        <ele>1855.4</ele>
        <time>2022-07-18T08:43:08Z</time>
      </trkpt>
      <trkpt lat="44.65581" lon="6.98932">
        <ele>1854</ele>
        <time>2022-07-18T08:43:09Z</time>
      </trkpt>
      <trkpt lat="44.65571" lon="6.98928">
        <ele>1852.6</ele>
        <time>2022-07-18T08:43:10Z</time>
      </trkpt>
      <trkpt lat="44.65561" lon="6.98925">
        <ele>1851.4</ele>
        <time>2022-07-18T08:43:11Z</time>
      </trkpt>
      <trkpt lat="44.65551" lon="6.98922">
        <ele>1850.2</ele>
        <time>2022-07-18T08:43:12Z</time>
      </trkpt>
      <trkpt lat="44.65541" lon="6.9892">
        <ele>1848.8</ele>
        <time>2022-07-18T08:43:13Z</time>
      </trkpt>
      <trkpt lat="44.6553" lon="6.98919">
        <ele>1847.6</ele>
        <time>2022-07-18T08:43:14Z</time>
      </trkpt>
      <trkpt lat="44.65519" lon="6.98917">
        <ele>1846.6</ele>
        <time>2022-07-18T08:43:15Z</time>
      </trkpt>
      <trkpt lat="44.65509" lon="6.98916">
        <ele>1845.4</ele>
        <time>2022-07-18T08:43:16Z</time>
      </trkpt>
      <trkpt lat="44.65499" lon="6.98915">
        <ele>1844</ele>
        <time>2022-07-18T08:43:17Z</time>
      </trkpt>
      <trkpt lat="44.65488" lon="6.98913">
        <ele>1842.8</ele>
        <time>2022-07-18T08:43:18Z</time>
      </trkpt>
      <trkpt lat="44.65477" lon="6.98912">
        <ele>1841.6</ele>
        <time>2022-07-18T08:43:19Z</time>
      </trkpt>
      <trkpt lat="44.65466" lon="6.98911">
        <ele>1840.2</ele>
        <time>2022-07-18T08:43:20Z</time>
      </trkpt>
      <trkpt lat="44.65455" lon="6.98909">
        <ele>1838.6</ele>
        <time>2022-07-18T08:43:21Z</time>
      </trkpt>
      <trkpt lat="44.65438" lon="6.98904">
        <ele>1837.2</ele>
        <time>2022-07-18T08:43:22Z</time>
      </trkpt>
      <trkpt lat="44.65433" lon="6.98902">
        <ele>1835.8</ele>
        <time>2022-07-18T08:43:23Z</time>
      </trkpt>
      <trkpt lat="44.65422" lon="6.98898">
        <ele>1834.4</ele>
        <time>2022-07-18T08:43:24Z</time>
      </trkpt>
      <trkpt lat="44.65412" lon="6.98893">
        <ele>1833.2</ele>
        <time>2022-07-18T08:43:25Z</time>
      </trkpt>
      <trkpt lat="44.65403" lon="6.98889">
        <ele>1831.8</ele>
        <time>2022-07-18T08:43:26Z</time>
      </trkpt>
      <trkpt lat="44.65393" lon="6.98885">
        <ele>1830.8</ele>
        <time>2022-07-18T08:43:27Z</time>
      </trkpt>
      <trkpt lat="44.65384" lon="6.98881">
        <ele>1829.6</ele>
        <time>2022-07-18T08:43:28Z</time>
      </trkpt>
      <trkpt lat="44.65375" lon="6.98876">
        <ele>1828.4</ele>
        <time>2022-07-18T08:43:29Z</time>
      </trkpt>
      <trkpt lat="44.65367" lon="6.98869">
        <ele>1827.4</ele>
        <time>2022-07-18T08:43:30Z</time>
      </trkpt>
      <trkpt lat="44.65359" lon="6.98859">
        <ele>1826.2</ele>
        <time>2022-07-18T08:43:31Z</time>
      </trkpt>
      <trkpt lat="44.65352" lon="6.98848">
        <ele>1824.8</ele>
        <time>2022-07-18T08:43:32Z</time>
      </trkpt>
      <trkpt lat="44.65346" lon="6.98836">
        <ele>1823.8</ele>
        <time>2022-07-18T08:43:33Z</time>
      </trkpt>
      <trkpt lat="44.6534" lon="6.98824">
        <ele>1821</ele>
        <time>2022-07-18T08:43:34Z</time>
      </trkpt>
      <trkpt lat="44.65334" lon="6.98813">
        <ele>1819.8</ele>
        <time>2022-07-18T08:43:35Z</time>
      </trkpt>
      <trkpt lat="44.65329" lon="6.98801">
        <ele>1818.6</ele>
        <time>2022-07-18T08:43:36Z</time>
      </trkpt>
      <trkpt lat="44.65324" lon="6.98791">
        <ele>1817.4</ele>
        <time>2022-07-18T08:43:37Z</time>
      </trkpt>
      <trkpt lat="44.65319" lon="6.9878">
        <ele>1816.2</ele>
        <time>2022-07-18T08:43:38Z</time>
      </trkpt>
      <trkpt lat="44.65314" lon="6.9877">
        <ele>1815.2</ele>
        <time>2022-07-18T08:43:39Z</time>
      </trkpt>
      <trkpt lat="44.65311" lon="6.98761">
        <ele>1814.2</ele>
        <time>2022-07-18T08:43:40Z</time>
      </trkpt>
      <trkpt lat="44.65307" lon="6.98752">
        <ele>1813.2</ele>
        <time>2022-07-18T08:43:41Z</time>
      </trkpt>
      <trkpt lat="44.65305" lon="6.98742">
        <ele>1812.4</ele>
        <time>2022-07-18T08:43:42Z</time>
      </trkpt>
      <trkpt lat="44.65304" lon="6.98734">
        <ele>1811.8</ele>
        <time>2022-07-18T08:43:43Z</time>
      </trkpt>
      <trkpt lat="44.65302" lon="6.98726">
        <ele>1811.2</ele>
        <time>2022-07-18T08:43:44Z</time>
      </trkpt>
      <trkpt lat="44.653" lon="6.98722">
        <ele>1810.8</ele>
        <time>2022-07-18T08:43:45Z</time>
      </trkpt>
      <trkpt lat="44.65297" lon="6.98721">
        <ele>1810.4</ele>
        <time>2022-07-18T08:43:46Z</time>
      </trkpt>
      <trkpt lat="44.65293" lon="6.98723">
        <ele>1810.2</ele>
        <time>2022-07-18T08:43:47Z</time>
      </trkpt>
      <trkpt lat="44.65292" lon="6.98728">
        <ele>1809.8</ele>
        <time>2022-07-18T08:43:48Z</time>
      </trkpt>
      <trkpt lat="44.65291" lon="6.98735">
        <ele>1809.2</ele>
        <time>2022-07-18T08:43:49Z</time>
      </trkpt>
      <trkpt lat="44.65293" lon="6.98743">
        <ele>1808.8</ele>
        <time>2022-07-18T08:43:50Z</time>
      </trkpt>
      <trkpt lat="44.65295" lon="6.98752">
        <ele>1808.2</ele>
        <time>2022-07-18T08:43:51Z</time>
      </trkpt>
      <trkpt lat="44.65297" lon="6.98762">
        <ele>1807.4</ele>
        <time>2022-07-18T08:43:52Z</time>
      </trkpt>
      <trkpt lat="44.65299" lon="6.98773">
        <ele>1806.6</ele>
        <time>2022-07-18T08:43:53Z</time>
      </trkpt>
      <trkpt lat="44.65302" lon="6.98785">
        <ele>1805.6</ele>
        <time>2022-07-18T08:43:54Z</time>
      </trkpt>
      <trkpt lat="44.65304" lon="6.98798">
        <ele>1804.6</ele>
        <time>2022-07-18T08:43:55Z</time>
      </trkpt>
      <trkpt lat="44.65306" lon="6.98811">
        <ele>1803.6</ele>
        <time>2022-07-18T08:43:56Z</time>
      </trkpt>
      <trkpt lat="44.65308" lon="6.98825">
        <ele>1802.4</ele>
        <time>2022-07-18T08:43:57Z</time>
      </trkpt>
      <trkpt lat="44.65309" lon="6.98838">
        <ele>1801.2</ele>
        <time>2022-07-18T08:43:58Z</time>
      </trkpt>
      <trkpt lat="44.65311" lon="6.98852">
        <ele>1800</ele>
        <time>2022-07-18T08:43:59Z</time>
      </trkpt>
      <trkpt lat="44.65313" lon="6.98866">
        <ele>1798.8</ele>
        <time>2022-07-18T08:44:00Z</time>
      </trkpt>
      <trkpt lat="44.65314" lon="6.9888">
        <ele>1797.6</ele>
        <time>2022-07-18T08:44:01Z</time>
      </trkpt>
      <trkpt lat="44.65315" lon="6.98893">
        <ele>1796.4</ele>
        <time>2022-07-18T08:44:02Z</time>
      </trkpt>
      <trkpt lat="44.65315" lon="6.98906">
        <ele>1795.2</ele>
        <time>2022-07-18T08:44:03Z</time>
      </trkpt>
      <trkpt lat="44.65315" lon="6.98917">
        <ele>1794.2</ele>
        <time>2022-07-18T08:44:04Z</time>
      </trkpt>
      <trkpt lat="44.65314" lon="6.98927">
        <ele>1793.4</ele>
        <time>2022-07-18T08:44:05Z</time>
      </trkpt>
      <trkpt lat="44.65313" lon="6.98937">
        <ele>1792.4</ele>
        <time>2022-07-18T08:44:06Z</time>
      </trkpt>
      <trkpt lat="44.65313" lon="6.98947">
        <ele>1791.4</ele>
        <time>2022-07-18T08:44:07Z</time>
      </trkpt>
      <trkpt lat="44.65315" lon="6.98959">
        <ele>1790.2</ele>
        <time>2022-07-18T08:44:08Z</time>
      </trkpt>
      <trkpt lat="44.65317" lon="6.98972">
        <ele>1789.2</ele>
        <time>2022-07-18T08:44:09Z</time>
      </trkpt>
      <trkpt lat="44.65321" lon="6.98984">
        <ele>1788.2</ele>
        <time>2022-07-18T08:44:10Z</time>
      </trkpt>
      <trkpt lat="44.65325" lon="6.98995">
        <ele>1787</ele>
        <time>2022-07-18T08:44:11Z</time>
      </trkpt>
      <trkpt lat="44.6533" lon="6.99005">
        <ele>1786</ele>
        <time>2022-07-18T08:44:12Z</time>
      </trkpt>
      <trkpt lat="44.65335" lon="6.99014">
        <ele>1785</ele>
        <time>2022-07-18T08:44:13Z</time>
      </trkpt>
      <trkpt lat="44.65339" lon="6.99022">
        <ele>1785</ele>
        <time>2022-07-18T08:44:14Z</time>
      </trkpt>
      <trkpt lat="44.65345" lon="6.99029">
        <ele>1783.8</ele>
        <time>2022-07-18T08:44:15Z</time>
      </trkpt>
      <trkpt lat="44.65351" lon="6.99036">
        <ele>1782.8</ele>
        <time>2022-07-18T08:44:16Z</time>
      </trkpt>
      <trkpt lat="44.65359" lon="6.99041">
        <ele>1781.8</ele>
        <time>2022-07-18T08:44:17Z</time>
      </trkpt>
      <trkpt lat="44.65368" lon="6.99046">
        <ele>1780.6</ele>
        <time>2022-07-18T08:44:18Z</time>
      </trkpt>
      <trkpt lat="44.65377" lon="6.99049">
        <ele>1779.4</ele>
        <time>2022-07-18T08:44:19Z</time>
      </trkpt>
      <trkpt lat="44.65386" lon="6.99051">
        <ele>1778.2</ele>
        <time>2022-07-18T08:44:20Z</time>
      </trkpt>
      <trkpt lat="44.65396" lon="6.99053">
        <ele>1777.2</ele>
        <time>2022-07-18T08:44:21Z</time>
      </trkpt>
      <trkpt lat="44.65405" lon="6.99055">
        <ele>1776.2</ele>
        <time>2022-07-18T08:44:22Z</time>
      </trkpt>
      <trkpt lat="44.65414" lon="6.99057">
        <ele>1775.4</ele>
        <time>2022-07-18T08:44:23Z</time>
      </trkpt>
      <trkpt lat="44.65424" lon="6.99057">
        <ele>1774.6</ele>
        <time>2022-07-18T08:44:24Z</time>
      </trkpt>
      <trkpt lat="44.65434" lon="6.99055">
        <ele>1774</ele>
        <time>2022-07-18T08:44:25Z</time>
      </trkpt>
      <trkpt lat="44.65443" lon="6.99053">
        <ele>1773.2</ele>
        <time>2022-07-18T08:44:26Z</time>
      </trkpt>
      <trkpt lat="44.65452" lon="6.99052">
        <ele>1772.8</ele>
        <time>2022-07-18T08:44:27Z</time>
      </trkpt>
      <trkpt lat="44.6546" lon="6.99051">
        <ele>1772.2</ele>
        <time>2022-07-18T08:44:28Z</time>
      </trkpt>
      <trkpt lat="44.65468" lon="6.99049">
        <ele>1771.8</ele>
        <time>2022-07-18T08:44:29Z</time>
      </trkpt>
      <trkpt lat="44.65475" lon="6.99048">
        <ele>1771.4</ele>
        <time>2022-07-18T08:44:30Z</time>
      </trkpt>
      <trkpt lat="44.65482" lon="6.99048">
        <ele>1771.2</ele>
        <time>2022-07-18T08:44:31Z</time>
      </trkpt>
      <trkpt lat="44.65488" lon="6.99051">
        <ele>1771</ele>
        <time>2022-07-18T08:44:32Z</time>
      </trkpt>
      <trkpt lat="44.65493" lon="6.99056">
        <ele>1770.6</ele>
        <time>2022-07-18T08:44:33Z</time>
      </trkpt>
      <trkpt lat="44.65495" lon="6.99063">
        <ele>1770.6</ele>
        <time>2022-07-18T08:44:34Z</time>
      </trkpt>
      <trkpt lat="44.65495" lon="6.99071">
        <ele>1770.2</ele>
        <time>2022-07-18T08:44:36Z</time>
      </trkpt>
      <trkpt lat="44.65493" lon="6.99079">
        <ele>1770</ele>
        <time>2022-07-18T08:44:37Z</time>
      </trkpt>
      <trkpt lat="44.6549" lon="6.99085">
        <ele>1769.8</ele>
        <time>2022-07-18T08:44:38Z</time>
      </trkpt>
      <trkpt lat="44.65486" lon="6.99088">
        <ele>1769.6</ele>
        <time>2022-07-18T08:44:39Z</time>
      </trkpt>
      <trkpt lat="44.65481" lon="6.99091">
        <ele>1769.2</ele>
        <time>2022-07-18T08:44:40Z</time>
      </trkpt>
      <trkpt lat="44.65475" lon="6.99093">
        <ele>1769</ele>
        <time>2022-07-18T08:44:41Z</time>
      </trkpt>
      <trkpt lat="44.65469" lon="6.99095">
        <ele>1768.6</ele>
        <time>2022-07-18T08:44:42Z</time>
      </trkpt>
      <trkpt lat="44.65463" lon="6.99097">
        <ele>1768.2</ele>
        <time>2022-07-18T08:44:43Z</time>
      </trkpt>
      <trkpt lat="44.65457" lon="6.991">
        <ele>1767.8</ele>
        <time>2022-07-18T08:44:44Z</time>
      </trkpt>
      <trkpt lat="44.6545" lon="6.99103">
        <ele>1767.2</ele>
        <time>2022-07-18T08:44:45Z</time>
      </trkpt>
      <trkpt lat="44.65444" lon="6.99106">
        <ele>1766.6</ele>
        <time>2022-07-18T08:44:46Z</time>
      </trkpt>
      <trkpt lat="44.65437" lon="6.9911">
        <ele>1766.2</ele>
        <time>2022-07-18T08:44:47Z</time>
      </trkpt>
      <trkpt lat="44.65429" lon="6.99114">
        <ele>1765.4</ele>
        <time>2022-07-18T08:44:48Z</time>
      </trkpt>
      <trkpt lat="44.65421" lon="6.99119">
        <ele>1764.8</ele>
        <time>2022-07-18T08:44:49Z</time>
      </trkpt>
      <trkpt lat="44.65412" lon="6.99124">
        <ele>1764</ele>
        <time>2022-07-18T08:44:50Z</time>
      </trkpt>
      <trkpt lat="44.65404" lon="6.9913">
        <ele>1763.2</ele>
        <time>2022-07-18T08:44:51Z</time>
      </trkpt>
      <trkpt lat="44.65395" lon="6.99135">
        <ele>1762.6</ele>
        <time>2022-07-18T08:44:52Z</time>
      </trkpt>
      <trkpt lat="44.65387" lon="6.9914">
        <ele>1762</ele>
        <time>2022-07-18T08:44:53Z</time>
      </trkpt>
      <trkpt lat="44.65378" lon="6.99146">
        <ele>1761.2</ele>
        <time>2022-07-18T08:44:54Z</time>
      </trkpt>
      <trkpt lat="44.6537" lon="6.99151">
        <ele>1760.4</ele>
        <time>2022-07-18T08:44:55Z</time>
      </trkpt>
      <trkpt lat="44.65361" lon="6.99157">
        <ele>1759.8</ele>
        <time>2022-07-18T08:44:56Z</time>
      </trkpt>
      <trkpt lat="44.65352" lon="6.99163">
        <ele>1759.2</ele>
        <time>2022-07-18T08:44:57Z</time>
      </trkpt>
      <trkpt lat="44.65344" lon="6.9917">
        <ele>1758.8</ele>
        <time>2022-07-18T08:44:58Z</time>
      </trkpt>
      <trkpt lat="44.65336" lon="6.99176">
        <ele>1758</ele>
        <time>2022-07-18T08:44:59Z</time>
      </trkpt>
      <trkpt lat="44.65327" lon="6.99184">
        <ele>1757.4</ele>
        <time>2022-07-18T08:45:00Z</time>
      </trkpt>
      <trkpt lat="44.65319" lon="6.99191">
        <ele>1756.8</ele>
        <time>2022-07-18T08:45:01Z</time>
      </trkpt>
      <trkpt lat="44.6531" lon="6.99199">
        <ele>1756</ele>
        <time>2022-07-18T08:45:02Z</time>
      </trkpt>
      <trkpt lat="44.65301" lon="6.99207">
        <ele>1755.4</ele>
        <time>2022-07-18T08:45:03Z</time>
      </trkpt>
      <trkpt lat="44.65293" lon="6.99216">
        <ele>1754.8</ele>
        <time>2022-07-18T08:45:04Z</time>
      </trkpt>
      <trkpt lat="44.65284" lon="6.99224">
        <ele>1754</ele>
        <time>2022-07-18T08:45:05Z</time>
      </trkpt>
      <trkpt lat="44.65275" lon="6.99233">
        <ele>1753.4</ele>
        <time>2022-07-18T08:45:06Z</time>
      </trkpt>
      <trkpt lat="44.65266" lon="6.99241">
        <ele>1752.8</ele>
        <time>2022-07-18T08:45:07Z</time>
      </trkpt>
      <trkpt lat="44.65257" lon="6.9925">
        <ele>1752.2</ele>
        <time>2022-07-18T08:45:08Z</time>
      </trkpt>
      <trkpt lat="44.65248" lon="6.99259">
        <ele>1751.6</ele>
        <time>2022-07-18T08:45:09Z</time>
      </trkpt>
      <trkpt lat="44.65239" lon="6.99269">
        <ele>1750.8</ele>
        <time>2022-07-18T08:45:10Z</time>
      </trkpt>
      <trkpt lat="44.6523" lon="6.99279">
        <ele>1750.2</ele>
        <time>2022-07-18T08:45:11Z</time>
      </trkpt>
      <trkpt lat="44.65221" lon="6.99289">
        <ele>1749.6</ele>
        <time>2022-07-18T08:45:12Z</time>
      </trkpt>
      <trkpt lat="44.65211" lon="6.99298">
        <ele>1748.8</ele>
        <time>2022-07-18T08:45:13Z</time>
      </trkpt>
      <trkpt lat="44.65201" lon="6.99308">
        <ele>1748</ele>
        <time>2022-07-18T08:45:14Z</time>
      </trkpt>
      <trkpt lat="44.65192" lon="6.99317">
        <ele>1747.2</ele>
        <time>2022-07-18T08:45:15Z</time>
      </trkpt>
      <trkpt lat="44.65182" lon="6.99327">
        <ele>1746.6</ele>
        <time>2022-07-18T08:45:16Z</time>
      </trkpt>
      <trkpt lat="44.65172" lon="6.99337">
        <ele>1745.6</ele>
        <time>2022-07-18T08:45:17Z</time>
      </trkpt>
      <trkpt lat="44.65162" lon="6.99348">
        <ele>1744.8</ele>
        <time>2022-07-18T08:45:18Z</time>
      </trkpt>
      <trkpt lat="44.65152" lon="6.99358">
        <ele>1743.8</ele>
        <time>2022-07-18T08:45:19Z</time>
      </trkpt>
      <trkpt lat="44.65142" lon="6.99368">
        <ele>1743.2</ele>
        <time>2022-07-18T08:45:20Z</time>
      </trkpt>
      <trkpt lat="44.65132" lon="6.99379">
        <ele>1742.2</ele>
        <time>2022-07-18T08:45:21Z</time>
      </trkpt>
      <trkpt lat="44.65123" lon="6.9939">
        <ele>1741.2</ele>
        <time>2022-07-18T08:45:22Z</time>
      </trkpt>
      <trkpt lat="44.65113" lon="6.99401">
        <ele>1740.4</ele>
        <time>2022-07-18T08:45:23Z</time>
      </trkpt>
      <trkpt lat="44.65103" lon="6.99412">
        <ele>1739.6</ele>
        <time>2022-07-18T08:45:24Z</time>
      </trkpt>
      <trkpt lat="44.65093" lon="6.99423">
        <ele>1739</ele>
        <time>2022-07-18T08:45:25Z</time>
      </trkpt>
      <trkpt lat="44.65083" lon="6.99434">
        <ele>1738.2</ele>
        <time>2022-07-18T08:45:26Z</time>
      </trkpt>
      <trkpt lat="44.65073" lon="6.99445">
        <ele>1737.6</ele>
        <time>2022-07-18T08:45:27Z</time>
      </trkpt>
      <trkpt lat="44.65063" lon="6.99457">
        <ele>1736.8</ele>
        <time>2022-07-18T08:45:28Z</time>
      </trkpt>
      <trkpt lat="44.65053" lon="6.99468">
        <ele>1736</ele>
        <time>2022-07-18T08:45:29Z</time>
      </trkpt>
      <trkpt lat="44.65043" lon="6.9948">
        <ele>1735.4</ele>
        <time>2022-07-18T08:45:30Z</time>
      </trkpt>
      <trkpt lat="44.65033" lon="6.99491">
        <ele>1734.6</ele>
        <time>2022-07-18T08:45:31Z</time>
      </trkpt>
      <trkpt lat="44.65023" lon="6.99503">
        <ele>1734.2</ele>
        <time>2022-07-18T08:45:32Z</time>
      </trkpt>
      <trkpt lat="44.65014" lon="6.99515">
        <ele>1733.6</ele>
        <time>2022-07-18T08:45:33Z</time>
      </trkpt>
      <trkpt lat="44.65004" lon="6.99526">
        <ele>1733.2</ele>
        <time>2022-07-18T08:45:34Z</time>
      </trkpt>
      <trkpt lat="44.64995" lon="6.99537">
        <ele>1733</ele>
        <time>2022-07-18T08:45:35Z</time>
      </trkpt>
      <trkpt lat="44.64986" lon="6.99547">
        <ele>1733</ele>
        <time>2022-07-18T08:45:36Z</time>
      </trkpt>
      <trkpt lat="44.64977" lon="6.99556">
        <ele>1733</ele>
        <time>2022-07-18T08:45:37Z</time>
      </trkpt>
      <trkpt lat="44.64969" lon="6.99565">
        <ele>1732.6</ele>
        <time>2022-07-18T08:45:38Z</time>
      </trkpt>
      <trkpt lat="44.64961" lon="6.99575">
        <ele>1732.6</ele>
        <time>2022-07-18T08:45:39Z</time>
      </trkpt>
      <trkpt lat="44.64953" lon="6.99584">
        <ele>1732.6</ele>
        <time>2022-07-18T08:45:40Z</time>
      </trkpt>
      <trkpt lat="44.64946" lon="6.99593">
        <ele>1732.6</ele>
        <time>2022-07-18T08:45:41Z</time>
      </trkpt>
      <trkpt lat="44.64938" lon="6.99601">
        <ele>1732.4</ele>
        <time>2022-07-18T08:45:42Z</time>
      </trkpt>
      <trkpt lat="44.64931" lon="6.99609">
        <ele>1732.4</ele>
        <time>2022-07-18T08:45:43Z</time>
      </trkpt>
      <trkpt lat="44.64925" lon="6.99617">
        <ele>1732.4</ele>
        <time>2022-07-18T08:45:44Z</time>
      </trkpt>
      <trkpt lat="44.64917" lon="6.99626">
        <ele>1732.4</ele>
        <time>2022-07-18T08:45:45Z</time>
      </trkpt>
      <trkpt lat="44.64911" lon="6.99633">
        <ele>1732.4</ele>
        <time>2022-07-18T08:45:46Z</time>
      </trkpt>
      <trkpt lat="44.64904" lon="6.9964">
        <ele>1732.4</ele>
        <time>2022-07-18T08:45:47Z</time>
      </trkpt>
      <trkpt lat="44.64898" lon="6.99647">
        <ele>1732.4</ele>
        <time>2022-07-18T08:45:48Z</time>
      </trkpt>
      <trkpt lat="44.64893" lon="6.99655">
        <ele>1732.4</ele>
        <time>2022-07-18T08:45:49Z</time>
      </trkpt>
      <trkpt lat="44.64887" lon="6.99662">
        <ele>1732.4</ele>
        <time>2022-07-18T08:45:50Z</time>
      </trkpt>
      <trkpt lat="44.64882" lon="6.9967">
        <ele>1732.4</ele>
        <time>2022-07-18T08:45:51Z</time>
      </trkpt>
      <trkpt lat="44.64877" lon="6.99678">
        <ele>1732.4</ele>
        <time>2022-07-18T08:45:52Z</time>
      </trkpt>
      <trkpt lat="44.64872" lon="6.99685">
        <ele>1732.6</ele>
        <time>2022-07-18T08:45:53Z</time>
      </trkpt>
      <trkpt lat="44.64868" lon="6.99693">
        <ele>1732.6</ele>
        <time>2022-07-18T08:45:54Z</time>
      </trkpt>
      <trkpt lat="44.64864" lon="6.997">
        <ele>1732.6</ele>
        <time>2022-07-18T08:45:55Z</time>
      </trkpt>
      <trkpt lat="44.6486" lon="6.99708">
        <ele>1732.6</ele>
        <time>2022-07-18T08:45:56Z</time>
      </trkpt>
      <trkpt lat="44.64857" lon="6.99715">
        <ele>1732.6</ele>
        <time>2022-07-18T08:45:57Z</time>
      </trkpt>
      <trkpt lat="44.64853" lon="6.99722">
        <ele>1732.6</ele>
        <time>2022-07-18T08:45:58Z</time>
      </trkpt>
      <trkpt lat="44.6485" lon="6.9973">
        <ele>1732.2</ele>
        <time>2022-07-18T08:45:59Z</time>
      </trkpt>
      <trkpt lat="44.64846" lon="6.99738">
        <ele>1732</ele>
        <time>2022-07-18T08:46:00Z</time>
      </trkpt>
      <trkpt lat="44.64842" lon="6.99746">
        <ele>1731.4</ele>
        <time>2022-07-18T08:46:01Z</time>
      </trkpt>
      <trkpt lat="44.64838" lon="6.99754">
        <ele>1731.2</ele>
        <time>2022-07-18T08:46:02Z</time>
      </trkpt>
      <trkpt lat="44.64834" lon="6.99762">
        <ele>1730.6</ele>
        <time>2022-07-18T08:46:03Z</time>
      </trkpt>
      <trkpt lat="44.64831" lon="6.99769">
        <ele>1730</ele>
        <time>2022-07-18T08:46:04Z</time>
      </trkpt>
      <trkpt lat="44.64828" lon="6.99776">
        <ele>1729.6</ele>
        <time>2022-07-18T08:46:05Z</time>
      </trkpt>
      <trkpt lat="44.64825" lon="6.9978">
        <ele>1729.4</ele>
        <time>2022-07-18T08:46:06Z</time>
      </trkpt>
      <trkpt lat="44.64823" lon="6.99784">
        <ele>1729</ele>
        <time>2022-07-18T08:46:07Z</time>
      </trkpt>
      <trkpt lat="44.64821" lon="6.99787">
        <ele>1728.8</ele>
        <time>2022-07-18T08:46:08Z</time>
      </trkpt>
      <trkpt lat="44.64821" lon="6.99787">
        <ele>1728.8</ele>
        <time>2022-07-18T08:46:09Z</time>
      </trkpt>
      <trkpt lat="44.64821" lon="6.99788">
        <ele>1728.6</ele>
        <time>2022-07-18T08:46:10Z</time>
      </trkpt>
      <trkpt lat="44.64821" lon="6.99788">
        <ele>1728.6</ele>
        <time>2022-07-18T08:46:11Z</time>
      </trkpt>
      <trkpt lat="44.64821" lon="6.99788">
        <ele>1728.6</ele>
        <time>2022-07-18T08:46:12Z</time>
      </trkpt>
      <trkpt lat="44.64821" lon="6.99789">
        <ele>1728.2</ele>
        <time>2022-07-18T08:46:14Z</time>
      </trkpt>
      <trkpt lat="44.64821" lon="6.99789">
        <ele>1728.2</ele>
        <time>2022-07-18T08:46:15Z</time>
      </trkpt>
      <trkpt lat="44.64821" lon="6.99789">
        <ele>1728.2</ele>
        <time>2022-07-18T08:46:16Z</time>
      </trkpt>
      <trkpt lat="44.64821" lon="6.99789">
        <ele>1728</ele>
        <time>2022-07-18T08:46:29Z</time>
      </trkpt>
      <trkpt lat="44.64821" lon="6.9979">
        <ele>1728</ele>
        <time>2022-07-18T08:46:30Z</time>
      </trkpt>
      <trkpt lat="44.64821" lon="6.9979">
        <ele>1728</ele>
        <time>2022-07-18T08:46:31Z</time>
      </trkpt>
      <trkpt lat="44.64821" lon="6.9979">
        <ele>1728</ele>
        <time>2022-07-18T08:46:32Z</time>
      </trkpt>
      <trkpt lat="44.64821" lon="6.9979">
        <ele>1728</ele>
        <time>2022-07-18T08:46:33Z</time>
      </trkpt>
      <trkpt lat="44.6482" lon="6.99791">
        <ele>1728</ele>
        <time>2022-07-18T08:46:34Z</time>
      </trkpt>
      <trkpt lat="44.6482" lon="6.99791">
        <ele>1728</ele>
        <time>2022-07-18T08:46:35Z</time>
      </trkpt>
      <trkpt lat="44.6482" lon="6.99791">
        <ele>1728</ele>
        <time>2022-07-18T08:46:36Z</time>
      </trkpt>
      <trkpt lat="44.6482" lon="6.99792">
        <ele>1728</ele>
        <time>2022-07-18T08:46:37Z</time>
      </trkpt>
      <trkpt lat="44.6482" lon="6.99792">
        <ele>1728</ele>
        <time>2022-07-18T08:46:38Z</time>
      </trkpt>
      <trkpt lat="44.6482" lon="6.99792">
        <ele>1727.8</ele>
        <time>2022-07-18T08:46:42Z</time>
      </trkpt>
      <trkpt lat="44.6482" lon="6.99792">
        <ele>1727.8</ele>
        <time>2022-07-18T08:46:43Z</time>
      </trkpt>
      <trkpt lat="44.6482" lon="6.99793">
        <ele>1727.8</ele>
        <time>2022-07-18T08:46:44Z</time>
      </trkpt>
      <trkpt lat="44.6482" lon="6.99793">
        <ele>1727.8</ele>
        <time>2022-07-18T08:46:45Z</time>
      </trkpt>
      <trkpt lat="44.6482" lon="6.99793">
        <ele>1727.8</ele>
        <time>2022-07-18T08:46:46Z</time>
      </trkpt>
      <trkpt lat="44.6482" lon="6.99793">
        <ele>1727.8</ele>
        <time>2022-07-18T08:46:47Z</time>
      </trkpt>
      <trkpt lat="44.6482" lon="6.99794">
        <ele>1727.6</ele>
        <time>2022-07-18T08:48:19Z</time>
      </trkpt>
      <trkpt lat="44.6482" lon="6.99794">
        <ele>1727.6</ele>
        <time>2022-07-18T08:48:20Z</time>
      </trkpt>
      <trkpt lat="44.6482" lon="6.99794">
        <ele>1727.6</ele>
        <time>2022-07-18T08:48:21Z</time>
      </trkpt>
      <trkpt lat="44.6482" lon="6.99795">
        <ele>1727.6</ele>
        <time>2022-07-18T08:48:22Z</time>
      </trkpt>
      <trkpt lat="44.6482" lon="6.99795">
        <ele>1727.6</ele>
        <time>2022-07-18T08:48:23Z</time>
      </trkpt>
      <trkpt lat="44.6482" lon="6.99795">
        <ele>1727.6</ele>
        <time>2022-07-18T08:48:24Z</time>
      </trkpt>
      <trkpt lat="44.6482" lon="6.99795">
        <ele>1727.4</ele>
        <time>2022-07-18T08:48:27Z</time>
      </trkpt>
      <trkpt lat="44.64819" lon="6.99796">
        <ele>1727.4</ele>
        <time>2022-07-18T08:48:28Z</time>
      </trkpt>
      <trkpt lat="44.64819" lon="6.99796">
        <ele>1727.4</ele>
        <time>2022-07-18T08:48:30Z</time>
      </trkpt>
      <trkpt lat="44.64819" lon="6.99796">
        <ele>1727.4</ele>
        <time>2022-07-18T08:48:31Z</time>
      </trkpt>
      <trkpt lat="44.64819" lon="6.99796">
        <ele>1727.4</ele>
        <time>2022-07-18T08:48:32Z</time>
      </trkpt>
      <trkpt lat="44.64819" lon="6.99797">
        <ele>1727.4</ele>
        <time>2022-07-18T08:48:33Z</time>
      </trkpt>
      <trkpt lat="44.64819" lon="6.99797">
        <ele>1727.4</ele>
        <time>2022-07-18T08:48:36Z</time>
      </trkpt>
      <trkpt lat="44.64819" lon="6.99797">
        <ele>1727.4</ele>
        <time>2022-07-18T08:48:37Z</time>
      </trkpt>
      <trkpt lat="44.64819" lon="6.99798">
        <ele>1727.8</ele>
        <time>2022-07-18T08:49:13Z</time>
      </trkpt>
      <trkpt lat="44.64819" lon="6.99798">
        <ele>1727.8</ele>
        <time>2022-07-18T08:49:14Z</time>
      </trkpt>
      <trkpt lat="44.64819" lon="6.99798">
        <ele>1727.8</ele>
        <time>2022-07-18T08:49:15Z</time>
      </trkpt>
      <trkpt lat="44.64819" lon="6.99798">
        <ele>1727.8</ele>
        <time>2022-07-18T08:49:16Z</time>
      </trkpt>
      <trkpt lat="44.64819" lon="6.99799">
        <ele>1727.8</ele>
        <time>2022-07-18T08:49:17Z</time>
      </trkpt>
      <trkpt lat="44.64819" lon="6.99799">
        <ele>1727.8</ele>
        <time>2022-07-18T08:49:19Z</time>
      </trkpt>
      <trkpt lat="44.64819" lon="6.99799">
        <ele>1727.8</ele>
        <time>2022-07-18T08:49:20Z</time>
      </trkpt>
      <trkpt lat="44.64819" lon="6.99799">
        <ele>1727.8</ele>
        <time>2022-07-18T08:49:21Z</time>
      </trkpt>
      <trkpt lat="44.64819" lon="6.998">
        <ele>1727.8</ele>
        <time>2022-07-18T08:49:22Z</time>
      </trkpt>
      <trkpt lat="44.64819" lon="6.998">
        <ele>1727.6</ele>
        <time>2022-07-18T08:49:25Z</time>
      </trkpt>
      <trkpt lat="44.64819" lon="6.998">
        <ele>1727.6</ele>
        <time>2022-07-18T08:49:26Z</time>
      </trkpt>
      <trkpt lat="44.64818" lon="6.99801">
        <ele>1727.6</ele>
        <time>2022-07-18T08:49:27Z</time>
      </trkpt>
      <trkpt lat="44.64818" lon="6.99801">
        <ele>1727.6</ele>
        <time>2022-07-18T08:49:28Z</time>
      </trkpt>
      <trkpt lat="44.64818" lon="6.99801">
        <ele>1727.6</ele>
        <time>2022-07-18T08:49:29Z</time>
      </trkpt>
      <trkpt lat="44.64818" lon="6.99801">
        <ele>1727.6</ele>
        <time>2022-07-18T08:49:30Z</time>
      </trkpt>
      <trkpt lat="44.64818" lon="6.99802">
        <ele>1727.6</ele>
        <time>2022-07-18T08:49:31Z</time>
      </trkpt>
      <trkpt lat="44.64818" lon="6.99802">
        <ele>1727.6</ele>
        <time>2022-07-18T08:49:32Z</time>
      </trkpt>
      <trkpt lat="44.64816" lon="6.99805">
        <ele>1727.2</ele>
        <time>2022-07-18T08:49:33Z</time>
      </trkpt>
      <trkpt lat="44.64814" lon="6.9981">
        <ele>1727</ele>
        <time>2022-07-18T08:49:34Z</time>
      </trkpt>
      <trkpt lat="44.64812" lon="6.99815">
        <ele>1726.8</ele>
        <time>2022-07-18T08:49:35Z</time>
      </trkpt>
      <trkpt lat="44.64809" lon="6.9982">
        <ele>1726.4</ele>
        <time>2022-07-18T08:49:36Z</time>
      </trkpt>
      <trkpt lat="44.64806" lon="6.99827">
        <ele>1725.8</ele>
        <time>2022-07-18T08:49:37Z</time>
      </trkpt>
      <trkpt lat="44.64802" lon="6.99835">
        <ele>1725.2</ele>
        <time>2022-07-18T08:49:38Z</time>
      </trkpt>
      <trkpt lat="44.64798" lon="6.99843">
        <ele>1724.8</ele>
        <time>2022-07-18T08:49:39Z</time>
      </trkpt>
      <trkpt lat="44.64794" lon="6.99851">
        <ele>1724.2</ele>
        <time>2022-07-18T08:49:40Z</time>
      </trkpt>
      <trkpt lat="44.64789" lon="6.9986">
        <ele>1723.4</ele>
        <time>2022-07-18T08:49:41Z</time>
      </trkpt>
      <trkpt lat="44.64784" lon="6.9987">
        <ele>1722.8</ele>
        <time>2022-07-18T08:49:42Z</time>
      </trkpt>
      <trkpt lat="44.64779" lon="6.9988">
        <ele>1722</ele>
        <time>2022-07-18T08:49:43Z</time>
      </trkpt>
      <trkpt lat="44.64774" lon="6.9989">
        <ele>1721.4</ele>
        <time>2022-07-18T08:49:44Z</time>
      </trkpt>
      <trkpt lat="44.64769" lon="6.999">
        <ele>1720.8</ele>
        <time>2022-07-18T08:49:45Z</time>
      </trkpt>
      <trkpt lat="44.64763" lon="6.9991">
        <ele>1720.2</ele>
        <time>2022-07-18T08:49:46Z</time>
      </trkpt>
      <trkpt lat="44.64758" lon="6.99921">
        <ele>1719.8</ele>
        <time>2022-07-18T08:49:47Z</time>
      </trkpt>
      <trkpt lat="44.64753" lon="6.99931">
        <ele>1719.6</ele>
        <time>2022-07-18T08:49:48Z</time>
      </trkpt>
      <trkpt lat="44.64748" lon="6.9994">
        <ele>1719.4</ele>
        <time>2022-07-18T08:49:49Z</time>
      </trkpt>
      <trkpt lat="44.64743" lon="6.9995">
        <ele>1719.4</ele>
        <time>2022-07-18T08:49:50Z</time>
      </trkpt>
      <trkpt lat="44.64738" lon="6.99959">
        <ele>1719.2</ele>
        <time>2022-07-18T08:49:51Z</time>
      </trkpt>
      <trkpt lat="44.64733" lon="6.99968">
        <ele>1719.2</ele>
        <time>2022-07-18T08:49:52Z</time>
      </trkpt>
      <trkpt lat="44.64727" lon="6.99976">
        <ele>1718.8</ele>
        <time>2022-07-18T08:49:53Z</time>
      </trkpt>
      <trkpt lat="44.64722" lon="6.99984">
        <ele>1718.8</ele>
        <time>2022-07-18T08:49:54Z</time>
      </trkpt>
      <trkpt lat="44.64716" lon="6.99991">
        <ele>1718.8</ele>
        <time>2022-07-18T08:49:55Z</time>
      </trkpt>
      <trkpt lat="44.6471" lon="6.99998">
        <ele>1718.8</ele>
        <time>2022-07-18T08:49:56Z</time>
      </trkpt>
      <trkpt lat="44.64705" lon="7.00004">
        <ele>1718.8</ele>
        <time>2022-07-18T08:49:57Z</time>
      </trkpt>
      <trkpt lat="44.64699" lon="7.0001">
        <ele>1718.6</ele>
        <time>2022-07-18T08:49:58Z</time>
      </trkpt>
      <trkpt lat="44.64692" lon="7.00015">
        <ele>1718.6</ele>
        <time>2022-07-18T08:49:59Z</time>
      </trkpt>
      <trkpt lat="44.64686" lon="7.0002">
        <ele>1718.4</ele>
        <time>2022-07-18T08:50:00Z</time>
      </trkpt>
      <trkpt lat="44.6468" lon="7.00024">
        <ele>1718.4</ele>
        <time>2022-07-18T08:50:01Z</time>
      </trkpt>
      <trkpt lat="44.64673" lon="7.00028">
        <ele>1718.2</ele>
        <time>2022-07-18T08:50:02Z</time>
      </trkpt>
      <trkpt lat="44.64667" lon="7.00033">
        <ele>1718.2</ele>
        <time>2022-07-18T08:50:03Z</time>
      </trkpt>
      <trkpt lat="44.64661" lon="7.00037">
        <ele>1717.8</ele>
        <time>2022-07-18T08:50:04Z</time>
      </trkpt>
      <trkpt lat="44.64655" lon="7.00043">
        <ele>1717.8</ele>
        <time>2022-07-18T08:50:05Z</time>
      </trkpt>
      <trkpt lat="44.64649" lon="7.00049">
        <ele>1717.6</ele>
        <time>2022-07-18T08:50:06Z</time>
      </trkpt>
      <trkpt lat="44.64643" lon="7.00056">
        <ele>1717.6</ele>
        <time>2022-07-18T08:50:07Z</time>
      </trkpt>
      <trkpt lat="44.64637" lon="7.00064">
        <ele>1717</ele>
        <time>2022-07-18T08:50:08Z</time>
      </trkpt>
      <trkpt lat="44.64631" lon="7.00073">
        <ele>1716.6</ele>
        <time>2022-07-18T08:50:09Z</time>
      </trkpt>
      <trkpt lat="44.64626" lon="7.00082">
        <ele>1716</ele>
        <time>2022-07-18T08:50:10Z</time>
      </trkpt>
      <trkpt lat="44.6462" lon="7.00092">
        <ele>1715.4</ele>
        <time>2022-07-18T08:50:11Z</time>
      </trkpt>
      <trkpt lat="44.64614" lon="7.00103">
        <ele>1714.8</ele>
        <time>2022-07-18T08:50:12Z</time>
      </trkpt>
      <trkpt lat="44.64608" lon="7.00114">
        <ele>1714.2</ele>
        <time>2022-07-18T08:50:13Z</time>
      </trkpt>
      <trkpt lat="44.64601" lon="7.00126">
        <ele>1713.4</ele>
        <time>2022-07-18T08:50:14Z</time>
      </trkpt>
      <trkpt lat="44.64594" lon="7.00138">
        <ele>1712.6</ele>
        <time>2022-07-18T08:50:15Z</time>
      </trkpt>
      <trkpt lat="44.64588" lon="7.00151">
        <ele>1712</ele>
        <time>2022-07-18T08:50:16Z</time>
      </trkpt>
      <trkpt lat="44.64582" lon="7.00163">
        <ele>1711.2</ele>
        <time>2022-07-18T08:50:17Z</time>
      </trkpt>
      <trkpt lat="44.64575" lon="7.00176">
        <ele>1710.6</ele>
        <time>2022-07-18T08:50:18Z</time>
      </trkpt>
      <trkpt lat="44.6457" lon="7.00189">
        <ele>1709.8</ele>
        <time>2022-07-18T08:50:19Z</time>
      </trkpt>
      <trkpt lat="44.64563" lon="7.00202">
        <ele>1709</ele>
        <time>2022-07-18T08:50:20Z</time>
      </trkpt>
      <trkpt lat="44.64557" lon="7.00215">
        <ele>1708.4</ele>
        <time>2022-07-18T08:50:21Z</time>
      </trkpt>
      <trkpt lat="44.64552" lon="7.00228">
        <ele>1707.8</ele>
        <time>2022-07-18T08:50:22Z</time>
      </trkpt>
      <trkpt lat="44.64546" lon="7.00242">
        <ele>1707.2</ele>
        <time>2022-07-18T08:50:23Z</time>
      </trkpt>
      <trkpt lat="44.64541" lon="7.00256">
        <ele>1706.8</ele>
        <time>2022-07-18T08:50:24Z</time>
      </trkpt>
      <trkpt lat="44.64536" lon="7.0027">
        <ele>1706.4</ele>
        <time>2022-07-18T08:50:25Z</time>
      </trkpt>
      <trkpt lat="44.64532" lon="7.00283">
        <ele>1705.6</ele>
        <time>2022-07-18T08:50:26Z</time>
      </trkpt>
      <trkpt lat="44.64526" lon="7.00296">
        <ele>1705.4</ele>
        <time>2022-07-18T08:50:27Z</time>
      </trkpt>
      <trkpt lat="44.64521" lon="7.00309">
        <ele>1705</ele>
        <time>2022-07-18T08:50:28Z</time>
      </trkpt>
      <trkpt lat="44.64515" lon="7.00321">
        <ele>1705</ele>
        <time>2022-07-18T08:50:29Z</time>
      </trkpt>
      <trkpt lat="44.64509" lon="7.00333">
        <ele>1704.6</ele>
        <time>2022-07-18T08:50:30Z</time>
      </trkpt>
      <trkpt lat="44.64502" lon="7.00343">
        <ele>1704.6</ele>
        <time>2022-07-18T08:50:31Z</time>
      </trkpt>
      <trkpt lat="44.64495" lon="7.00353">
        <ele>1704.2</ele>
        <time>2022-07-18T08:50:32Z</time>
      </trkpt>
      <trkpt lat="44.64488" lon="7.00362">
        <ele>1704.2</ele>
        <time>2022-07-18T08:50:33Z</time>
      </trkpt>
      <trkpt lat="44.64482" lon="7.00371">
        <ele>1704.2</ele>
        <time>2022-07-18T08:50:34Z</time>
      </trkpt>
      <trkpt lat="44.64477" lon="7.00381">
        <ele>1703.8</ele>
        <time>2022-07-18T08:50:35Z</time>
      </trkpt>
      <trkpt lat="44.6447" lon="7.0039">
        <ele>1703.8</ele>
        <time>2022-07-18T08:50:36Z</time>
      </trkpt>
      <trkpt lat="44.64465" lon="7.00399">
        <ele>1703.4</ele>
        <time>2022-07-18T08:50:37Z</time>
      </trkpt>
      <trkpt lat="44.64458" lon="7.00408">
        <ele>1703.2</ele>
        <time>2022-07-18T08:50:38Z</time>
      </trkpt>
      <trkpt lat="44.64452" lon="7.00417">
        <ele>1702.8</ele>
        <time>2022-07-18T08:50:39Z</time>
      </trkpt>
      <trkpt lat="44.64446" lon="7.00427">
        <ele>1702.4</ele>
        <time>2022-07-18T08:50:40Z</time>
      </trkpt>
      <trkpt lat="44.6444" lon="7.00436">
        <ele>1702.4</ele>
        <time>2022-07-18T08:50:41Z</time>
      </trkpt>
      <trkpt lat="44.64434" lon="7.00445">
        <ele>1702.2</ele>
        <time>2022-07-18T08:50:42Z</time>
      </trkpt>
      <trkpt lat="44.64429" lon="7.00454">
        <ele>1702.2</ele>
        <time>2022-07-18T08:50:43Z</time>
      </trkpt>
      <trkpt lat="44.64423" lon="7.00463">
        <ele>1702</ele>
        <time>2022-07-18T08:50:44Z</time>
      </trkpt>
      <trkpt lat="44.64417" lon="7.00471">
        <ele>1701.8</ele>
        <time>2022-07-18T08:50:45Z</time>
      </trkpt>
      <trkpt lat="44.64411" lon="7.00479">
        <ele>1701.6</ele>
        <time>2022-07-18T08:50:46Z</time>
      </trkpt>
      <trkpt lat="44.64405" lon="7.00488">
        <ele>1701.6</ele>
        <time>2022-07-18T08:50:47Z</time>
      </trkpt>
      <trkpt lat="44.64399" lon="7.00496">
        <ele>1701.2</ele>
        <time>2022-07-18T08:50:48Z</time>
      </trkpt>
      <trkpt lat="44.64392" lon="7.00504">
        <ele>1701</ele>
        <time>2022-07-18T08:50:49Z</time>
      </trkpt>
      <trkpt lat="44.64385" lon="7.00511">
        <ele>1700.8</ele>
        <time>2022-07-18T08:50:50Z</time>
      </trkpt>
      <trkpt lat="44.64378" lon="7.00517">
        <ele>1700.8</ele>
        <time>2022-07-18T08:50:51Z</time>
      </trkpt>
      <trkpt lat="44.64371" lon="7.00523">
        <ele>1700.4</ele>
        <time>2022-07-18T08:50:52Z</time>
      </trkpt>
      <trkpt lat="44.64364" lon="7.00529">
        <ele>1700.2</ele>
        <time>2022-07-18T08:50:53Z</time>
      </trkpt>
      <trkpt lat="44.64357" lon="7.00536">
        <ele>1700.2</ele>
        <time>2022-07-18T08:50:54Z</time>
      </trkpt>
      <trkpt lat="44.6435" lon="7.00544">
        <ele>1699.8</ele>
        <time>2022-07-18T08:50:55Z</time>
      </trkpt>
      <trkpt lat="44.64344" lon="7.00553">
        <ele>1699.6</ele>
        <time>2022-07-18T08:50:56Z</time>
      </trkpt>
      <trkpt lat="44.64337" lon="7.00563">
        <ele>1699.2</ele>
        <time>2022-07-18T08:50:57Z</time>
      </trkpt>
      <trkpt lat="44.64332" lon="7.00573">
        <ele>1698.8</ele>
        <time>2022-07-18T08:50:58Z</time>
      </trkpt>
      <trkpt lat="44.64326" lon="7.00584">
        <ele>1698.4</ele>
        <time>2022-07-18T08:50:59Z</time>
      </trkpt>
      <trkpt lat="44.64319" lon="7.00595">
        <ele>1698</ele>
        <time>2022-07-18T08:51:00Z</time>
      </trkpt>
      <trkpt lat="44.64313" lon="7.00605">
        <ele>1697.8</ele>
        <time>2022-07-18T08:51:01Z</time>
      </trkpt>
      <trkpt lat="44.64307" lon="7.00615">
        <ele>1697.4</ele>
        <time>2022-07-18T08:51:02Z</time>
      </trkpt>
      <trkpt lat="44.64301" lon="7.00625">
        <ele>1696.8</ele>
        <time>2022-07-18T08:51:03Z</time>
      </trkpt>
      <trkpt lat="44.64294" lon="7.00635">
        <ele>1696.6</ele>
        <time>2022-07-18T08:51:04Z</time>
      </trkpt>
      <trkpt lat="44.64288" lon="7.00646">
        <ele>1696</ele>
        <time>2022-07-18T08:51:05Z</time>
      </trkpt>
      <trkpt lat="44.6428" lon="7.00657">
        <ele>1695.6</ele>
        <time>2022-07-18T08:51:06Z</time>
      </trkpt>
      <trkpt lat="44.64273" lon="7.00667">
        <ele>1695</ele>
        <time>2022-07-18T08:51:07Z</time>
      </trkpt>
      <trkpt lat="44.64265" lon="7.00676">
        <ele>1694.4</ele>
        <time>2022-07-18T08:51:08Z</time>
      </trkpt>
      <trkpt lat="44.64258" lon="7.00684">
        <ele>1694.2</ele>
        <time>2022-07-18T08:51:09Z</time>
      </trkpt>
      <trkpt lat="44.6425" lon="7.00691">
        <ele>1693.6</ele>
        <time>2022-07-18T08:51:10Z</time>
      </trkpt>
      <trkpt lat="44.64242" lon="7.00697">
        <ele>1693.4</ele>
        <time>2022-07-18T08:51:11Z</time>
      </trkpt>
      <trkpt lat="44.64234" lon="7.00703">
        <ele>1693.2</ele>
        <time>2022-07-18T08:51:12Z</time>
      </trkpt>
      <trkpt lat="44.64224" lon="7.00709">
        <ele>1692.8</ele>
        <time>2022-07-18T08:51:13Z</time>
      </trkpt>
      <trkpt lat="44.64217" lon="7.00715">
        <ele>1692.6</ele>
        <time>2022-07-18T08:51:14Z</time>
      </trkpt>
      <trkpt lat="44.64208" lon="7.00722">
        <ele>1692</ele>
        <time>2022-07-18T08:51:15Z</time>
      </trkpt>
      <trkpt lat="44.642" lon="7.00731">
        <ele>1691.8</ele>
        <time>2022-07-18T08:51:16Z</time>
      </trkpt>
      <trkpt lat="44.64192" lon="7.00739">
        <ele>1691.4</ele>
        <time>2022-07-18T08:51:17Z</time>
      </trkpt>
      <trkpt lat="44.64185" lon="7.00747">
        <ele>1690.8</ele>
        <time>2022-07-18T08:51:18Z</time>
      </trkpt>
      <trkpt lat="44.64178" lon="7.00758">
        <ele>1690.4</ele>
        <time>2022-07-18T08:51:19Z</time>
      </trkpt>
      <trkpt lat="44.64172" lon="7.00768">
        <ele>1690</ele>
        <time>2022-07-18T08:51:20Z</time>
      </trkpt>
      <trkpt lat="44.64166" lon="7.0078">
        <ele>1689.4</ele>
        <time>2022-07-18T08:51:21Z</time>
      </trkpt>
      <trkpt lat="44.64161" lon="7.00792">
        <ele>1689</ele>
        <time>2022-07-18T08:51:22Z</time>
      </trkpt>
      <trkpt lat="44.64156" lon="7.00804">
        <ele>1688.4</ele>
        <time>2022-07-18T08:51:23Z</time>
      </trkpt>
      <trkpt lat="44.64151" lon="7.00816">
        <ele>1687.8</ele>
        <time>2022-07-18T08:51:24Z</time>
      </trkpt>
      <trkpt lat="44.64146" lon="7.00828">
        <ele>1687.4</ele>
        <time>2022-07-18T08:51:25Z</time>
      </trkpt>
      <trkpt lat="44.6414" lon="7.0084">
        <ele>1686.8</ele>
        <time>2022-07-18T08:51:26Z</time>
      </trkpt>
      <trkpt lat="44.64135" lon="7.00852">
        <ele>1686.2</ele>
        <time>2022-07-18T08:51:27Z</time>
      </trkpt>
      <trkpt lat="44.64129" lon="7.00865">
        <ele>1685.6</ele>
        <time>2022-07-18T08:51:28Z</time>
      </trkpt>
      <trkpt lat="44.64123" lon="7.00878">
        <ele>1685.2</ele>
        <time>2022-07-18T08:51:29Z</time>
      </trkpt>
      <trkpt lat="44.64118" lon="7.0089">
        <ele>1684.6</ele>
        <time>2022-07-18T08:51:30Z</time>
      </trkpt>
      <trkpt lat="44.64111" lon="7.00903">
        <ele>1684</ele>
        <time>2022-07-18T08:51:31Z</time>
      </trkpt>
      <trkpt lat="44.64105" lon="7.00916">
        <ele>1683.4</ele>
        <time>2022-07-18T08:51:32Z</time>
      </trkpt>
      <trkpt lat="44.64099" lon="7.00929">
        <ele>1683</ele>
        <time>2022-07-18T08:51:33Z</time>
      </trkpt>
      <trkpt lat="44.64093" lon="7.00942">
        <ele>1682.4</ele>
        <time>2022-07-18T08:51:34Z</time>
      </trkpt>
      <trkpt lat="44.64087" lon="7.00955">
        <ele>1682</ele>
        <time>2022-07-18T08:51:35Z</time>
      </trkpt>
      <trkpt lat="44.64081" lon="7.00967">
        <ele>1681.6</ele>
        <time>2022-07-18T08:51:36Z</time>
      </trkpt>
      <trkpt lat="44.64075" lon="7.00978">
        <ele>1681.4</ele>
        <time>2022-07-18T08:51:37Z</time>
      </trkpt>
      <trkpt lat="44.64068" lon="7.00988">
        <ele>1681</ele>
        <time>2022-07-18T08:51:38Z</time>
      </trkpt>
      <trkpt lat="44.64061" lon="7.00996">
        <ele>1680.8</ele>
        <time>2022-07-18T08:51:39Z</time>
      </trkpt>
      <trkpt lat="44.64055" lon="7.01004">
        <ele>1680.6</ele>
        <time>2022-07-18T08:51:40Z</time>
      </trkpt>
      <trkpt lat="44.64047" lon="7.0101">
        <ele>1680.6</ele>
        <time>2022-07-18T08:51:41Z</time>
      </trkpt>
      <trkpt lat="44.64039" lon="7.01016">
        <ele>1680</ele>
        <time>2022-07-18T08:51:42Z</time>
      </trkpt>
      <trkpt lat="44.64031" lon="7.01022">
        <ele>1679.8</ele>
        <time>2022-07-18T08:51:43Z</time>
      </trkpt>
      <trkpt lat="44.64022" lon="7.01027">
        <ele>1679.8</ele>
        <time>2022-07-18T08:51:44Z</time>
      </trkpt>
      <trkpt lat="44.64014" lon="7.01033">
        <ele>1679.8</ele>
        <time>2022-07-18T08:51:45Z</time>
      </trkpt>
      <trkpt lat="44.64005" lon="7.01039">
        <ele>1679.6</ele>
        <time>2022-07-18T08:51:46Z</time>
      </trkpt>
      <trkpt lat="44.63997" lon="7.01043">
        <ele>1679.6</ele>
        <time>2022-07-18T08:51:47Z</time>
      </trkpt>
      <trkpt lat="44.63989" lon="7.01048">
        <ele>1679.6</ele>
        <time>2022-07-18T08:51:48Z</time>
      </trkpt>
      <trkpt lat="44.63981" lon="7.01052">
        <ele>1679.6</ele>
        <time>2022-07-18T08:51:49Z</time>
      </trkpt>
      <trkpt lat="44.63974" lon="7.01057">
        <ele>1679.8</ele>
        <time>2022-07-18T08:51:50Z</time>
      </trkpt>
      <trkpt lat="44.63966" lon="7.01061">
        <ele>1679.8</ele>
        <time>2022-07-18T08:51:51Z</time>
      </trkpt>
      <trkpt lat="44.63958" lon="7.01066">
        <ele>1679.8</ele>
        <time>2022-07-18T08:51:52Z</time>
      </trkpt>
      <trkpt lat="44.6395" lon="7.01071">
        <ele>1679.8</ele>
        <time>2022-07-18T08:51:53Z</time>
      </trkpt>
      <trkpt lat="44.63942" lon="7.01075">
        <ele>1679.6</ele>
        <time>2022-07-18T08:51:54Z</time>
      </trkpt>
      <trkpt lat="44.63935" lon="7.0108">
        <ele>1679.6</ele>
        <time>2022-07-18T08:51:55Z</time>
      </trkpt>
      <trkpt lat="44.63928" lon="7.01085">
        <ele>1679.6</ele>
        <time>2022-07-18T08:51:56Z</time>
      </trkpt>
      <trkpt lat="44.63921" lon="7.01089">
        <ele>1679.6</ele>
        <time>2022-07-18T08:51:57Z</time>
      </trkpt>
      <trkpt lat="44.63914" lon="7.01094">
        <ele>1679.6</ele>
        <time>2022-07-18T08:51:58Z</time>
      </trkpt>
      <trkpt lat="44.63908" lon="7.01099">
        <ele>1679.8</ele>
        <time>2022-07-18T08:51:59Z</time>
      </trkpt>
      <trkpt lat="44.63902" lon="7.01105">
        <ele>1679.8</ele>
        <time>2022-07-18T08:52:00Z</time>
      </trkpt>
      <trkpt lat="44.63896" lon="7.0111">
        <ele>1679.8</ele>
        <time>2022-07-18T08:52:01Z</time>
      </trkpt>
      <trkpt lat="44.6389" lon="7.01116">
        <ele>1679.8</ele>
        <time>2022-07-18T08:52:02Z</time>
      </trkpt>
      <trkpt lat="44.63884" lon="7.01122">
        <ele>1679.8</ele>
        <time>2022-07-18T08:52:03Z</time>
      </trkpt>
      <trkpt lat="44.63879" lon="7.01128">
        <ele>1680</ele>
        <time>2022-07-18T08:52:04Z</time>
      </trkpt>
      <trkpt lat="44.63873" lon="7.01134">
        <ele>1680</ele>
        <time>2022-07-18T08:52:05Z</time>
      </trkpt>
      <trkpt lat="44.63868" lon="7.0114">
        <ele>1680.2</ele>
        <time>2022-07-18T08:52:06Z</time>
      </trkpt>
      <trkpt lat="44.63862" lon="7.01145">
        <ele>1680.2</ele>
        <time>2022-07-18T08:52:07Z</time>
      </trkpt>
      <trkpt lat="44.63856" lon="7.01151">
        <ele>1680.2</ele>
        <time>2022-07-18T08:52:08Z</time>
      </trkpt>
      <trkpt lat="44.63851" lon="7.01156">
        <ele>1680.2</ele>
        <time>2022-07-18T08:52:09Z</time>
      </trkpt>
      <trkpt lat="44.63845" lon="7.01161">
        <ele>1680.2</ele>
        <time>2022-07-18T08:52:10Z</time>
      </trkpt>
      <trkpt lat="44.63839" lon="7.01165">
        <ele>1680.2</ele>
        <time>2022-07-18T08:52:11Z</time>
      </trkpt>
      <trkpt lat="44.63834" lon="7.01168">
        <ele>1680.2</ele>
        <time>2022-07-18T08:52:12Z</time>
      </trkpt>
      <trkpt lat="44.63828" lon="7.01171">
        <ele>1680.2</ele>
        <time>2022-07-18T08:52:13Z</time>
      </trkpt>
      <trkpt lat="44.63822" lon="7.01174">
        <ele>1680.2</ele>
        <time>2022-07-18T08:52:14Z</time>
      </trkpt>
      <trkpt lat="44.63817" lon="7.01177">
        <ele>1680.4</ele>
        <time>2022-07-18T08:52:15Z</time>
      </trkpt>
      <trkpt lat="44.63811" lon="7.0118">
        <ele>1680.4</ele>
        <time>2022-07-18T08:52:16Z</time>
      </trkpt>
      <trkpt lat="44.63806" lon="7.01183">
        <ele>1680.4</ele>
        <time>2022-07-18T08:52:17Z</time>
      </trkpt>
      <trkpt lat="44.638" lon="7.01185">
        <ele>1680.4</ele>
        <time>2022-07-18T08:52:18Z</time>
      </trkpt>
      <trkpt lat="44.63795" lon="7.01188">
        <ele>1680.4</ele>
        <time>2022-07-18T08:52:19Z</time>
      </trkpt>
      <trkpt lat="44.6379" lon="7.01191">
        <ele>1680.4</ele>
        <time>2022-07-18T08:52:20Z</time>
      </trkpt>
      <trkpt lat="44.63784" lon="7.01194">
        <ele>1680.4</ele>
        <time>2022-07-18T08:52:21Z</time>
      </trkpt>
      <trkpt lat="44.63779" lon="7.01198">
        <ele>1680.8</ele>
        <time>2022-07-18T08:52:22Z</time>
      </trkpt>
      <trkpt lat="44.63774" lon="7.01201">
        <ele>1680.8</ele>
        <time>2022-07-18T08:52:23Z</time>
      </trkpt>
      <trkpt lat="44.63768" lon="7.01205">
        <ele>1680.8</ele>
        <time>2022-07-18T08:52:24Z</time>
      </trkpt>
      <trkpt lat="44.63762" lon="7.01208">
        <ele>1680.8</ele>
        <time>2022-07-18T08:52:25Z</time>
      </trkpt>
      <trkpt lat="44.63757" lon="7.01212">
        <ele>1680.4</ele>
        <time>2022-07-18T08:52:26Z</time>
      </trkpt>
      <trkpt lat="44.63751" lon="7.01216">
        <ele>1680.2</ele>
        <time>2022-07-18T08:52:27Z</time>
      </trkpt>
      <trkpt lat="44.63745" lon="7.0122">
        <ele>1680.2</ele>
        <time>2022-07-18T08:52:28Z</time>
      </trkpt>
      <trkpt lat="44.63739" lon="7.01224">
        <ele>1680</ele>
        <time>2022-07-18T08:52:29Z</time>
      </trkpt>
      <trkpt lat="44.63733" lon="7.01228">
        <ele>1680</ele>
        <time>2022-07-18T08:52:30Z</time>
      </trkpt>
      <trkpt lat="44.63727" lon="7.01231">
        <ele>1680</ele>
        <time>2022-07-18T08:52:31Z</time>
      </trkpt>
      <trkpt lat="44.63721" lon="7.01235">
        <ele>1679.8</ele>
        <time>2022-07-18T08:52:32Z</time>
      </trkpt>
      <trkpt lat="44.63715" lon="7.01239">
        <ele>1679.8</ele>
        <time>2022-07-18T08:52:33Z</time>
      </trkpt>
      <trkpt lat="44.63709" lon="7.01243">
        <ele>1679.8</ele>
        <time>2022-07-18T08:52:34Z</time>
      </trkpt>
      <trkpt lat="44.63703" lon="7.01248">
        <ele>1679.8</ele>
        <time>2022-07-18T08:52:35Z</time>
      </trkpt>
      <trkpt lat="44.63697" lon="7.01252">
        <ele>1679.8</ele>
        <time>2022-07-18T08:52:36Z</time>
      </trkpt>
      <trkpt lat="44.6369" lon="7.01256">
        <ele>1679.4</ele>
        <time>2022-07-18T08:52:37Z</time>
      </trkpt>
      <trkpt lat="44.63684" lon="7.01261">
        <ele>1679.4</ele>
        <time>2022-07-18T08:52:38Z</time>
      </trkpt>
      <trkpt lat="44.63677" lon="7.01265">
        <ele>1679</ele>
        <time>2022-07-18T08:52:39Z</time>
      </trkpt>
      <trkpt lat="44.63671" lon="7.01269">
        <ele>1679</ele>
        <time>2022-07-18T08:52:40Z</time>
      </trkpt>
      <trkpt lat="44.63664" lon="7.01274">
        <ele>1678.6</ele>
        <time>2022-07-18T08:52:41Z</time>
      </trkpt>
      <trkpt lat="44.63658" lon="7.01278">
        <ele>1678.4</ele>
        <time>2022-07-18T08:52:42Z</time>
      </trkpt>
      <trkpt lat="44.63651" lon="7.01283">
        <ele>1678</ele>
        <time>2022-07-18T08:52:43Z</time>
      </trkpt>
      <trkpt lat="44.63644" lon="7.01289">
        <ele>1677.8</ele>
        <time>2022-07-18T08:52:44Z</time>
      </trkpt>
      <trkpt lat="44.63638" lon="7.01294">
        <ele>1677.4</ele>
        <time>2022-07-18T08:52:45Z</time>
      </trkpt>
      <trkpt lat="44.63631" lon="7.01301">
        <ele>1677</ele>
        <time>2022-07-18T08:52:46Z</time>
      </trkpt>
      <trkpt lat="44.63624" lon="7.01307">
        <ele>1676.4</ele>
        <time>2022-07-18T08:52:47Z</time>
      </trkpt>
      <trkpt lat="44.63617" lon="7.01314">
        <ele>1676</ele>
        <time>2022-07-18T08:52:48Z</time>
      </trkpt>
      <trkpt lat="44.63609" lon="7.01321">
        <ele>1675.4</ele>
        <time>2022-07-18T08:52:49Z</time>
      </trkpt>
      <trkpt lat="44.63602" lon="7.01329">
        <ele>1674.8</ele>
        <time>2022-07-18T08:52:50Z</time>
      </trkpt>
      <trkpt lat="44.63595" lon="7.01337">
        <ele>1674.2</ele>
        <time>2022-07-18T08:52:51Z</time>
      </trkpt>
      <trkpt lat="44.63586" lon="7.01345">
        <ele>1673.6</ele>
        <time>2022-07-18T08:52:52Z</time>
      </trkpt>
      <trkpt lat="44.63578" lon="7.01354">
        <ele>1673</ele>
        <time>2022-07-18T08:52:53Z</time>
      </trkpt>
      <trkpt lat="44.6357" lon="7.01363">
        <ele>1672.4</ele>
        <time>2022-07-18T08:52:54Z</time>
      </trkpt>
      <trkpt lat="44.63561" lon="7.01372">
        <ele>1671.6</ele>
        <time>2022-07-18T08:52:55Z</time>
      </trkpt>
      <trkpt lat="44.63554" lon="7.01381">
        <ele>1670.6</ele>
        <time>2022-07-18T08:52:56Z</time>
      </trkpt>
      <trkpt lat="44.63545" lon="7.01391">
        <ele>1670</ele>
        <time>2022-07-18T08:52:57Z</time>
      </trkpt>
      <trkpt lat="44.63537" lon="7.01401">
        <ele>1669.2</ele>
        <time>2022-07-18T08:52:58Z</time>
      </trkpt>
      <trkpt lat="44.63529" lon="7.01412">
        <ele>1668.2</ele>
        <time>2022-07-18T08:52:59Z</time>
      </trkpt>
      <trkpt lat="44.63521" lon="7.01424">
        <ele>1667.6</ele>
        <time>2022-07-18T08:53:00Z</time>
      </trkpt>
      <trkpt lat="44.63512" lon="7.01436">
        <ele>1666.6</ele>
        <time>2022-07-18T08:53:01Z</time>
      </trkpt>
      <trkpt lat="44.63504" lon="7.01449">
        <ele>1665.8</ele>
        <time>2022-07-18T08:53:02Z</time>
      </trkpt>
      <trkpt lat="44.63497" lon="7.01462">
        <ele>1665</ele>
        <time>2022-07-18T08:53:03Z</time>
      </trkpt>
      <trkpt lat="44.6349" lon="7.01476">
        <ele>1664</ele>
        <time>2022-07-18T08:53:04Z</time>
      </trkpt>
      <trkpt lat="44.63482" lon="7.0149">
        <ele>1663</ele>
        <time>2022-07-18T08:53:05Z</time>
      </trkpt>
      <trkpt lat="44.63475" lon="7.01504">
        <ele>1662.2</ele>
        <time>2022-07-18T08:53:06Z</time>
      </trkpt>
      <trkpt lat="44.63468" lon="7.01519">
        <ele>1661.4</ele>
        <time>2022-07-18T08:53:07Z</time>
      </trkpt>
      <trkpt lat="44.63461" lon="7.01532">
        <ele>1660.4</ele>
        <time>2022-07-18T08:53:08Z</time>
      </trkpt>
      <trkpt lat="44.63452" lon="7.01544">
        <ele>1659.8</ele>
        <time>2022-07-18T08:53:09Z</time>
      </trkpt>
      <trkpt lat="44.63444" lon="7.01556">
        <ele>1659.2</ele>
        <time>2022-07-18T08:53:10Z</time>
      </trkpt>
      <trkpt lat="44.63436" lon="7.01568">
        <ele>1658.6</ele>
        <time>2022-07-18T08:53:11Z</time>
      </trkpt>
      <trkpt lat="44.63428" lon="7.0158">
        <ele>1658.2</ele>
        <time>2022-07-18T08:53:12Z</time>
      </trkpt>
      <trkpt lat="44.63419" lon="7.01591">
        <ele>1658</ele>
        <time>2022-07-18T08:53:13Z</time>
      </trkpt>
      <trkpt lat="44.63411" lon="7.01601">
        <ele>1657.6</ele>
        <time>2022-07-18T08:53:14Z</time>
      </trkpt>
      <trkpt lat="44.63402" lon="7.01609">
        <ele>1657.4</ele>
        <time>2022-07-18T08:53:15Z</time>
      </trkpt>
      <trkpt lat="44.63393" lon="7.01617">
        <ele>1656.8</ele>
        <time>2022-07-18T08:53:16Z</time>
      </trkpt>
      <trkpt lat="44.63385" lon="7.01624">
        <ele>1656.4</ele>
        <time>2022-07-18T08:53:17Z</time>
      </trkpt>
      <trkpt lat="44.63376" lon="7.0163">
        <ele>1656.2</ele>
        <time>2022-07-18T08:53:18Z</time>
      </trkpt>
      <trkpt lat="44.63367" lon="7.01637">
        <ele>1655.8</ele>
        <time>2022-07-18T08:53:19Z</time>
      </trkpt>
      <trkpt lat="44.63359" lon="7.01644">
        <ele>1655.8</ele>
        <time>2022-07-18T08:53:20Z</time>
      </trkpt>
      <trkpt lat="44.6335" lon="7.01651">
        <ele>1655.6</ele>
        <time>2022-07-18T08:53:21Z</time>
      </trkpt>
      <trkpt lat="44.63343" lon="7.01658">
        <ele>1655.6</ele>
        <time>2022-07-18T08:53:22Z</time>
      </trkpt>
      <trkpt lat="44.63335" lon="7.01664">
        <ele>1655.6</ele>
        <time>2022-07-18T08:53:23Z</time>
      </trkpt>
      <trkpt lat="44.63327" lon="7.0167">
        <ele>1655.2</ele>
        <time>2022-07-18T08:53:24Z</time>
      </trkpt>
      <trkpt lat="44.6332" lon="7.01676">
        <ele>1655.2</ele>
        <time>2022-07-18T08:53:25Z</time>
      </trkpt>
      <trkpt lat="44.63311" lon="7.01682">
        <ele>1654.6</ele>
        <time>2022-07-18T08:53:26Z</time>
      </trkpt>
      <trkpt lat="44.63304" lon="7.01687">
        <ele>1654.2</ele>
        <time>2022-07-18T08:53:27Z</time>
      </trkpt>
      <trkpt lat="44.63294" lon="7.01691">
        <ele>1653.8</ele>
        <time>2022-07-18T08:53:28Z</time>
      </trkpt>
      <trkpt lat="44.63285" lon="7.01695">
        <ele>1653.4</ele>
        <time>2022-07-18T08:53:29Z</time>
      </trkpt>
      <trkpt lat="44.63276" lon="7.01699">
        <ele>1653.2</ele>
        <time>2022-07-18T08:53:30Z</time>
      </trkpt>
      <trkpt lat="44.63266" lon="7.01701">
        <ele>1653.2</ele>
        <time>2022-07-18T08:53:31Z</time>
      </trkpt>
      <trkpt lat="44.63257" lon="7.01704">
        <ele>1652.8</ele>
        <time>2022-07-18T08:53:32Z</time>
      </trkpt>
      <trkpt lat="44.63248" lon="7.01706">
        <ele>1652.4</ele>
        <time>2022-07-18T08:53:33Z</time>
      </trkpt>
      <trkpt lat="44.63238" lon="7.01708">
        <ele>1652</ele>
        <time>2022-07-18T08:53:34Z</time>
      </trkpt>
      <trkpt lat="44.63229" lon="7.01711">
        <ele>1651.8</ele>
        <time>2022-07-18T08:53:35Z</time>
      </trkpt>
      <trkpt lat="44.6322" lon="7.01713">
        <ele>1651.4</ele>
        <time>2022-07-18T08:53:36Z</time>
      </trkpt>
      <trkpt lat="44.6321" lon="7.01716">
        <ele>1651</ele>
        <time>2022-07-18T08:53:37Z</time>
      </trkpt>
      <trkpt lat="44.632" lon="7.0172">
        <ele>1650.6</ele>
        <time>2022-07-18T08:53:38Z</time>
      </trkpt>
      <trkpt lat="44.63191" lon="7.01725">
        <ele>1650.2</ele>
        <time>2022-07-18T08:53:39Z</time>
      </trkpt>
      <trkpt lat="44.63181" lon="7.01732">
        <ele>1649.8</ele>
        <time>2022-07-18T08:53:40Z</time>
      </trkpt>
      <trkpt lat="44.63173" lon="7.0174">
        <ele>1649.2</ele>
        <time>2022-07-18T08:53:41Z</time>
      </trkpt>
      <trkpt lat="44.63165" lon="7.01749">
        <ele>1648.8</ele>
        <time>2022-07-18T08:53:42Z</time>
      </trkpt>
      <trkpt lat="44.63158" lon="7.01758">
        <ele>1648</ele>
        <time>2022-07-18T08:53:43Z</time>
      </trkpt>
      <trkpt lat="44.6315" lon="7.01768">
        <ele>1647.4</ele>
        <time>2022-07-18T08:53:44Z</time>
      </trkpt>
      <trkpt lat="44.63143" lon="7.01779">
        <ele>1647</ele>
        <time>2022-07-18T08:53:45Z</time>
      </trkpt>
      <trkpt lat="44.63135" lon="7.01789">
        <ele>1646.6</ele>
        <time>2022-07-18T08:53:46Z</time>
      </trkpt>
      <trkpt lat="44.63126" lon="7.018">
        <ele>1645.8</ele>
        <time>2022-07-18T08:53:47Z</time>
      </trkpt>
      <trkpt lat="44.63119" lon="7.0181">
        <ele>1645.2</ele>
        <time>2022-07-18T08:53:48Z</time>
      </trkpt>
      <trkpt lat="44.63111" lon="7.0182">
        <ele>1644.8</ele>
        <time>2022-07-18T08:53:49Z</time>
      </trkpt>
      <trkpt lat="44.63102" lon="7.01829">
        <ele>1644.2</ele>
        <time>2022-07-18T08:53:50Z</time>
      </trkpt>
      <trkpt lat="44.63094" lon="7.01838">
        <ele>1643.6</ele>
        <time>2022-07-18T08:53:51Z</time>
      </trkpt>
      <trkpt lat="44.63086" lon="7.01845">
        <ele>1643.2</ele>
        <time>2022-07-18T08:53:52Z</time>
      </trkpt>
      <trkpt lat="44.63077" lon="7.01853">
        <ele>1642.8</ele>
        <time>2022-07-18T08:53:53Z</time>
      </trkpt>
      <trkpt lat="44.63069" lon="7.01862">
        <ele>1642.4</ele>
        <time>2022-07-18T08:53:54Z</time>
      </trkpt>
      <trkpt lat="44.63062" lon="7.01871">
        <ele>1642.4</ele>
        <time>2022-07-18T08:53:55Z</time>
      </trkpt>
      <trkpt lat="44.63054" lon="7.01877">
        <ele>1642.2</ele>
        <time>2022-07-18T08:53:56Z</time>
      </trkpt>
      <trkpt lat="44.63047" lon="7.01884">
        <ele>1641.8</ele>
        <time>2022-07-18T08:53:57Z</time>
      </trkpt>
      <trkpt lat="44.63039" lon="7.0189">
        <ele>1641.8</ele>
        <time>2022-07-18T08:53:58Z</time>
      </trkpt>
      <trkpt lat="44.63032" lon="7.01897">
        <ele>1641.8</ele>
        <time>2022-07-18T08:53:59Z</time>
      </trkpt>
      <trkpt lat="44.63024" lon="7.01904">
        <ele>1641.8</ele>
        <time>2022-07-18T08:54:00Z</time>
      </trkpt>
      <trkpt lat="44.63017" lon="7.0191">
        <ele>1641.6</ele>
        <time>2022-07-18T08:54:01Z</time>
      </trkpt>
      <trkpt lat="44.6301" lon="7.01916">
        <ele>1641.4</ele>
        <time>2022-07-18T08:54:02Z</time>
      </trkpt>
      <trkpt lat="44.63002" lon="7.01922">
        <ele>1641.4</ele>
        <time>2022-07-18T08:54:03Z</time>
      </trkpt>
      <trkpt lat="44.62995" lon="7.01929">
        <ele>1641.4</ele>
        <time>2022-07-18T08:54:04Z</time>
      </trkpt>
      <trkpt lat="44.62988" lon="7.01935">
        <ele>1641.4</ele>
        <time>2022-07-18T08:54:05Z</time>
      </trkpt>
      <trkpt lat="44.62981" lon="7.01942">
        <ele>1641.4</ele>
        <time>2022-07-18T08:54:06Z</time>
      </trkpt>
      <trkpt lat="44.62974" lon="7.01948">
        <ele>1641.4</ele>
        <time>2022-07-18T08:54:07Z</time>
      </trkpt>
      <trkpt lat="44.62968" lon="7.01953">
        <ele>1641</ele>
        <time>2022-07-18T08:54:08Z</time>
      </trkpt>
      <trkpt lat="44.62961" lon="7.01959">
        <ele>1641</ele>
        <time>2022-07-18T08:54:09Z</time>
      </trkpt>
      <trkpt lat="44.62955" lon="7.01965">
        <ele>1641</ele>
        <time>2022-07-18T08:54:10Z</time>
      </trkpt>
      <trkpt lat="44.62948" lon="7.01972">
        <ele>1641</ele>
        <time>2022-07-18T08:54:11Z</time>
      </trkpt>
      <trkpt lat="44.62942" lon="7.01978">
        <ele>1641</ele>
        <time>2022-07-18T08:54:12Z</time>
      </trkpt>
      <trkpt lat="44.62937" lon="7.01984">
        <ele>1641</ele>
        <time>2022-07-18T08:54:13Z</time>
      </trkpt>
      <trkpt lat="44.62931" lon="7.01991">
        <ele>1641</ele>
        <time>2022-07-18T08:54:14Z</time>
      </trkpt>
      <trkpt lat="44.62925" lon="7.01997">
        <ele>1641</ele>
        <time>2022-07-18T08:54:15Z</time>
      </trkpt>
      <trkpt lat="44.6292" lon="7.02004">
        <ele>1640.8</ele>
        <time>2022-07-18T08:54:16Z</time>
      </trkpt>
      <trkpt lat="44.62915" lon="7.02011">
        <ele>1640.8</ele>
        <time>2022-07-18T08:54:17Z</time>
      </trkpt>
      <trkpt lat="44.6291" lon="7.02019">
        <ele>1640.8</ele>
        <time>2022-07-18T08:54:18Z</time>
      </trkpt>
      <trkpt lat="44.62905" lon="7.02026">
        <ele>1640.4</ele>
        <time>2022-07-18T08:54:19Z</time>
      </trkpt>
      <trkpt lat="44.62899" lon="7.02033">
        <ele>1640.2</ele>
        <time>2022-07-18T08:54:20Z</time>
      </trkpt>
      <trkpt lat="44.62894" lon="7.02041">
        <ele>1640.2</ele>
        <time>2022-07-18T08:54:21Z</time>
      </trkpt>
      <trkpt lat="44.62889" lon="7.02049">
        <ele>1639.6</ele>
        <time>2022-07-18T08:54:22Z</time>
      </trkpt>
      <trkpt lat="44.62884" lon="7.02057">
        <ele>1639.4</ele>
        <time>2022-07-18T08:54:23Z</time>
      </trkpt>
      <trkpt lat="44.62879" lon="7.02066">
        <ele>1639</ele>
        <time>2022-07-18T08:54:24Z</time>
      </trkpt>
      <trkpt lat="44.62874" lon="7.02075">
        <ele>1638.6</ele>
        <time>2022-07-18T08:54:25Z</time>
      </trkpt>
      <trkpt lat="44.62869" lon="7.02084">
        <ele>1638.2</ele>
        <time>2022-07-18T08:54:26Z</time>
      </trkpt>
      <trkpt lat="44.62864" lon="7.02093">
        <ele>1637.8</ele>
        <time>2022-07-18T08:54:27Z</time>
      </trkpt>
      <trkpt lat="44.62858" lon="7.02102">
        <ele>1637.4</ele>
        <time>2022-07-18T08:54:28Z</time>
      </trkpt>
      <trkpt lat="44.62853" lon="7.02112">
        <ele>1636.8</ele>
        <time>2022-07-18T08:54:29Z</time>
      </trkpt>
      <trkpt lat="44.62847" lon="7.02121">
        <ele>1636</ele>
        <time>2022-07-18T08:54:30Z</time>
      </trkpt>
      <trkpt lat="44.62841" lon="7.0213">
        <ele>1635.4</ele>
        <time>2022-07-18T08:54:31Z</time>
      </trkpt>
      <trkpt lat="44.62834" lon="7.02139">
        <ele>1634.8</ele>
        <time>2022-07-18T08:54:32Z</time>
      </trkpt>
      <trkpt lat="44.62826" lon="7.02148">
        <ele>1633.8</ele>
        <time>2022-07-18T08:54:33Z</time>
      </trkpt>
      <trkpt lat="44.62818" lon="7.02155">
        <ele>1633</ele>
        <time>2022-07-18T08:54:34Z</time>
      </trkpt>
      <trkpt lat="44.62809" lon="7.02163">
        <ele>1632</ele>
        <time>2022-07-18T08:54:35Z</time>
      </trkpt>
      <trkpt lat="44.628" lon="7.02171">
        <ele>1631</ele>
        <time>2022-07-18T08:54:36Z</time>
      </trkpt>
      <trkpt lat="44.6279" lon="7.02178">
        <ele>1629.8</ele>
        <time>2022-07-18T08:54:37Z</time>
      </trkpt>
      <trkpt lat="44.6278" lon="7.02185">
        <ele>1628.8</ele>
        <time>2022-07-18T08:54:38Z</time>
      </trkpt>
      <trkpt lat="44.62769" lon="7.02192">
        <ele>1627.8</ele>
        <time>2022-07-18T08:54:39Z</time>
      </trkpt>
      <trkpt lat="44.62758" lon="7.022">
        <ele>1626.8</ele>
        <time>2022-07-18T08:54:40Z</time>
      </trkpt>
      <trkpt lat="44.62747" lon="7.02207">
        <ele>1625.4</ele>
        <time>2022-07-18T08:54:41Z</time>
      </trkpt>
      <trkpt lat="44.62736" lon="7.02215">
        <ele>1624.2</ele>
        <time>2022-07-18T08:54:42Z</time>
      </trkpt>
      <trkpt lat="44.62725" lon="7.02224">
        <ele>1623.2</ele>
        <time>2022-07-18T08:54:43Z</time>
      </trkpt>
      <trkpt lat="44.62714" lon="7.02232">
        <ele>1621.8</ele>
        <time>2022-07-18T08:54:44Z</time>
      </trkpt>
      <trkpt lat="44.62702" lon="7.02239">
        <ele>1620.8</ele>
        <time>2022-07-18T08:54:45Z</time>
      </trkpt>
      <trkpt lat="44.6269" lon="7.02247">
        <ele>1619.6</ele>
        <time>2022-07-18T08:54:46Z</time>
      </trkpt>
      <trkpt lat="44.62678" lon="7.02254">
        <ele>1618</ele>
        <time>2022-07-18T08:54:47Z</time>
      </trkpt>
      <trkpt lat="44.62666" lon="7.02262">
        <ele>1616.6</ele>
        <time>2022-07-18T08:54:48Z</time>
      </trkpt>
      <trkpt lat="44.62654" lon="7.0227">
        <ele>1615</ele>
        <time>2022-07-18T08:54:49Z</time>
      </trkpt>
      <trkpt lat="44.62642" lon="7.02278">
        <ele>1613.6</ele>
        <time>2022-07-18T08:54:50Z</time>
      </trkpt>
      <trkpt lat="44.62631" lon="7.02287">
        <ele>1612</ele>
        <time>2022-07-18T08:54:51Z</time>
      </trkpt>
      <trkpt lat="44.62618" lon="7.02296">
        <ele>1610.4</ele>
        <time>2022-07-18T08:54:52Z</time>
      </trkpt>
      <trkpt lat="44.62606" lon="7.02305">
        <ele>1609</ele>
        <time>2022-07-18T08:54:53Z</time>
      </trkpt>
      <trkpt lat="44.62593" lon="7.02313">
        <ele>1607.6</ele>
        <time>2022-07-18T08:54:54Z</time>
      </trkpt>
      <trkpt lat="44.62582" lon="7.02321">
        <ele>1606.2</ele>
        <time>2022-07-18T08:54:55Z</time>
      </trkpt>
      <trkpt lat="44.62571" lon="7.02328">
        <ele>1605</ele>
        <time>2022-07-18T08:54:56Z</time>
      </trkpt>
      <trkpt lat="44.6256" lon="7.02333">
        <ele>1603.8</ele>
        <time>2022-07-18T08:54:57Z</time>
      </trkpt>
      <trkpt lat="44.62549" lon="7.02336">
        <ele>1602.6</ele>
        <time>2022-07-18T08:54:58Z</time>
      </trkpt>
      <trkpt lat="44.62538" lon="7.02334">
        <ele>1601.4</ele>
        <time>2022-07-18T08:54:59Z</time>
      </trkpt>
      <trkpt lat="44.62526" lon="7.02331">
        <ele>1600.4</ele>
        <time>2022-07-18T08:55:00Z</time>
      </trkpt>
      <trkpt lat="44.62514" lon="7.02327">
        <ele>1599.2</ele>
        <time>2022-07-18T08:55:01Z</time>
      </trkpt>
      <trkpt lat="44.62504" lon="7.02323">
        <ele>1598.2</ele>
        <time>2022-07-18T08:55:02Z</time>
      </trkpt>
      <trkpt lat="44.62494" lon="7.02318">
        <ele>1598.2</ele>
        <time>2022-07-18T08:55:03Z</time>
      </trkpt>
      <trkpt lat="44.62485" lon="7.02313">
        <ele>1597</ele>
        <time>2022-07-18T08:55:04Z</time>
      </trkpt>
      <trkpt lat="44.62476" lon="7.0231">
        <ele>1596.2</ele>
        <time>2022-07-18T08:55:05Z</time>
      </trkpt>
      <trkpt lat="44.62468" lon="7.02309">
        <ele>1595.4</ele>
        <time>2022-07-18T08:55:06Z</time>
      </trkpt>
      <trkpt lat="44.6246" lon="7.0231">
        <ele>1594.6</ele>
        <time>2022-07-18T08:55:07Z</time>
      </trkpt>
      <trkpt lat="44.62452" lon="7.02314">
        <ele>1593.8</ele>
        <time>2022-07-18T08:55:08Z</time>
      </trkpt>
      <trkpt lat="44.62446" lon="7.02321">
        <ele>1593.2</ele>
        <time>2022-07-18T08:55:09Z</time>
      </trkpt>
      <trkpt lat="44.62441" lon="7.02329">
        <ele>1592.4</ele>
        <time>2022-07-18T08:55:10Z</time>
      </trkpt>
      <trkpt lat="44.62438" lon="7.02339">
        <ele>1591.8</ele>
        <time>2022-07-18T08:55:11Z</time>
      </trkpt>
      <trkpt lat="44.62436" lon="7.0235">
        <ele>1591.4</ele>
        <time>2022-07-18T08:55:12Z</time>
      </trkpt>
      <trkpt lat="44.62436" lon="7.02362">
        <ele>1590.8</ele>
        <time>2022-07-18T08:55:13Z</time>
      </trkpt>
      <trkpt lat="44.62437" lon="7.02374">
        <ele>1590</ele>
        <time>2022-07-18T08:55:14Z</time>
      </trkpt>
      <trkpt lat="44.62439" lon="7.02388">
        <ele>1589.2</ele>
        <time>2022-07-18T08:55:15Z</time>
      </trkpt>
      <trkpt lat="44.6244" lon="7.02402">
        <ele>1588.4</ele>
        <time>2022-07-18T08:55:16Z</time>
      </trkpt>
      <trkpt lat="44.62442" lon="7.02416">
        <ele>1587.6</ele>
        <time>2022-07-18T08:55:17Z</time>
      </trkpt>
      <trkpt lat="44.62444" lon="7.02431">
        <ele>1586.8</ele>
        <time>2022-07-18T08:55:18Z</time>
      </trkpt>
      <trkpt lat="44.62445" lon="7.02448">
        <ele>1585.8</ele>
        <time>2022-07-18T08:55:19Z</time>
      </trkpt>
      <trkpt lat="44.62447" lon="7.02465">
        <ele>1584.8</ele>
        <time>2022-07-18T08:55:20Z</time>
      </trkpt>
      <trkpt lat="44.62448" lon="7.02481">
        <ele>1583.8</ele>
        <time>2022-07-18T08:55:21Z</time>
      </trkpt>
      <trkpt lat="44.6245" lon="7.02498">
        <ele>1583</ele>
        <time>2022-07-18T08:55:22Z</time>
      </trkpt>
      <trkpt lat="44.62452" lon="7.02513">
        <ele>1582</ele>
        <time>2022-07-18T08:55:23Z</time>
      </trkpt>
      <trkpt lat="44.62453" lon="7.02529">
        <ele>1581</ele>
        <time>2022-07-18T08:55:24Z</time>
      </trkpt>
      <trkpt lat="44.62455" lon="7.02543">
        <ele>1580</ele>
        <time>2022-07-18T08:55:25Z</time>
      </trkpt>
      <trkpt lat="44.62457" lon="7.02559">
        <ele>1579.2</ele>
        <time>2022-07-18T08:55:26Z</time>
      </trkpt>
      <trkpt lat="44.62458" lon="7.02574">
        <ele>1578.4</ele>
        <time>2022-07-18T08:55:27Z</time>
      </trkpt>
      <trkpt lat="44.62459" lon="7.02591">
        <ele>1577.4</ele>
        <time>2022-07-18T08:55:28Z</time>
      </trkpt>
      <trkpt lat="44.6246" lon="7.02608">
        <ele>1576.2</ele>
        <time>2022-07-18T08:55:29Z</time>
      </trkpt>
      <trkpt lat="44.62459" lon="7.02623">
        <ele>1575.4</ele>
        <time>2022-07-18T08:55:30Z</time>
      </trkpt>
      <trkpt lat="44.62457" lon="7.02639">
        <ele>1574.4</ele>
        <time>2022-07-18T08:55:31Z</time>
      </trkpt>
      <trkpt lat="44.62455" lon="7.02655">
        <ele>1573.6</ele>
        <time>2022-07-18T08:55:32Z</time>
      </trkpt>
      <trkpt lat="44.62453" lon="7.0267">
        <ele>1572.6</ele>
        <time>2022-07-18T08:55:33Z</time>
      </trkpt>
      <trkpt lat="44.62451" lon="7.02685">
        <ele>1571.8</ele>
        <time>2022-07-18T08:55:34Z</time>
      </trkpt>
      <trkpt lat="44.62448" lon="7.02701">
        <ele>1571.2</ele>
        <time>2022-07-18T08:55:35Z</time>
      </trkpt>
      <trkpt lat="44.62444" lon="7.02716">
        <ele>1570.2</ele>
        <time>2022-07-18T08:55:36Z</time>
      </trkpt>
      <trkpt lat="44.62439" lon="7.02731">
        <ele>1569.2</ele>
        <time>2022-07-18T08:55:37Z</time>
      </trkpt>
      <trkpt lat="44.62435" lon="7.02747">
        <ele>1568.2</ele>
        <time>2022-07-18T08:55:38Z</time>
      </trkpt>
      <trkpt lat="44.6243" lon="7.02761">
        <ele>1567.2</ele>
        <time>2022-07-18T08:55:39Z</time>
      </trkpt>
      <trkpt lat="44.62424" lon="7.02775">
        <ele>1566.4</ele>
        <time>2022-07-18T08:55:40Z</time>
      </trkpt>
      <trkpt lat="44.62418" lon="7.02789">
        <ele>1565.2</ele>
        <time>2022-07-18T08:55:41Z</time>
      </trkpt>
      <trkpt lat="44.62412" lon="7.02804">
        <ele>1564.4</ele>
        <time>2022-07-18T08:55:42Z</time>
      </trkpt>
      <trkpt lat="44.62406" lon="7.02819">
        <ele>1563.4</ele>
        <time>2022-07-18T08:55:43Z</time>
      </trkpt>
      <trkpt lat="44.624" lon="7.02834">
        <ele>1562.4</ele>
        <time>2022-07-18T08:55:44Z</time>
      </trkpt>
      <trkpt lat="44.62395" lon="7.02849">
        <ele>1561.4</ele>
        <time>2022-07-18T08:55:45Z</time>
      </trkpt>
      <trkpt lat="44.6239" lon="7.02864">
        <ele>1560.4</ele>
        <time>2022-07-18T08:55:46Z</time>
      </trkpt>
      <trkpt lat="44.62384" lon="7.02878">
        <ele>1559.6</ele>
        <time>2022-07-18T08:55:47Z</time>
      </trkpt>
      <trkpt lat="44.62378" lon="7.02893">
        <ele>1558.8</ele>
        <time>2022-07-18T08:55:48Z</time>
      </trkpt>
      <trkpt lat="44.62372" lon="7.02908">
        <ele>1557.8</ele>
        <time>2022-07-18T08:55:49Z</time>
      </trkpt>
      <trkpt lat="44.62367" lon="7.02922">
        <ele>1556.6</ele>
        <time>2022-07-18T08:55:50Z</time>
      </trkpt>
      <trkpt lat="44.62361" lon="7.02936">
        <ele>1555.6</ele>
        <time>2022-07-18T08:55:51Z</time>
      </trkpt>
      <trkpt lat="44.62355" lon="7.0295">
        <ele>1555</ele>
        <time>2022-07-18T08:55:52Z</time>
      </trkpt>
      <trkpt lat="44.62349" lon="7.02963">
        <ele>1554</ele>
        <time>2022-07-18T08:55:53Z</time>
      </trkpt>
      <trkpt lat="44.62343" lon="7.02976">
        <ele>1552.2</ele>
        <time>2022-07-18T08:55:55Z</time>
      </trkpt>
      <trkpt lat="44.62337" lon="7.02988">
        <ele>1551.4</ele>
        <time>2022-07-18T08:55:56Z</time>
      </trkpt>
      <trkpt lat="44.62332" lon="7.03">
        <ele>1550.8</ele>
        <time>2022-07-18T08:55:57Z</time>
      </trkpt>
      <trkpt lat="44.62328" lon="7.0301">
        <ele>1550</ele>
        <time>2022-07-18T08:55:58Z</time>
      </trkpt>
      <trkpt lat="44.62323" lon="7.03021">
        <ele>1549.2</ele>
        <time>2022-07-18T08:55:59Z</time>
      </trkpt>
      <trkpt lat="44.62319" lon="7.03033">
        <ele>1548.6</ele>
        <time>2022-07-18T08:56:00Z</time>
      </trkpt>
      <trkpt lat="44.62314" lon="7.03043">
        <ele>1548</ele>
        <time>2022-07-18T08:56:01Z</time>
      </trkpt>
      <trkpt lat="44.62308" lon="7.03053">
        <ele>1547.4</ele>
        <time>2022-07-18T08:56:02Z</time>
      </trkpt>
      <trkpt lat="44.62302" lon="7.03064">
        <ele>1546.8</ele>
        <time>2022-07-18T08:56:03Z</time>
      </trkpt>
      <trkpt lat="44.62294" lon="7.03074">
        <ele>1546.2</ele>
        <time>2022-07-18T08:56:04Z</time>
      </trkpt>
      <trkpt lat="44.62286" lon="7.03084">
        <ele>1545.6</ele>
        <time>2022-07-18T08:56:05Z</time>
      </trkpt>
      <trkpt lat="44.62278" lon="7.03091">
        <ele>1545</ele>
        <time>2022-07-18T08:56:06Z</time>
      </trkpt>
      <trkpt lat="44.62269" lon="7.03098">
        <ele>1544.4</ele>
        <time>2022-07-18T08:56:07Z</time>
      </trkpt>
      <trkpt lat="44.62262" lon="7.03105">
        <ele>1543.8</ele>
        <time>2022-07-18T08:56:08Z</time>
      </trkpt>
      <trkpt lat="44.62254" lon="7.03111">
        <ele>1543.4</ele>
        <time>2022-07-18T08:56:09Z</time>
      </trkpt>
      <trkpt lat="44.62246" lon="7.03118">
        <ele>1543</ele>
        <time>2022-07-18T08:56:10Z</time>
      </trkpt>
      <trkpt lat="44.62239" lon="7.03123">
        <ele>1542.6</ele>
        <time>2022-07-18T08:56:11Z</time>
      </trkpt>
      <trkpt lat="44.62232" lon="7.03129">
        <ele>1542.2</ele>
        <time>2022-07-18T08:56:12Z</time>
      </trkpt>
      <trkpt lat="44.62225" lon="7.03133">
        <ele>1541.8</ele>
        <time>2022-07-18T08:56:13Z</time>
      </trkpt>
      <trkpt lat="44.62218" lon="7.03137">
        <ele>1541.4</ele>
        <time>2022-07-18T08:56:14Z</time>
      </trkpt>
      <trkpt lat="44.6221" lon="7.0314">
        <ele>1540.8</ele>
        <time>2022-07-18T08:56:15Z</time>
      </trkpt>
      <trkpt lat="44.62202" lon="7.03143">
        <ele>1540.4</ele>
        <time>2022-07-18T08:56:16Z</time>
      </trkpt>
      <trkpt lat="44.62194" lon="7.03146">
        <ele>1539.8</ele>
        <time>2022-07-18T08:56:17Z</time>
      </trkpt>
      <trkpt lat="44.62186" lon="7.03148">
        <ele>1539.2</ele>
        <time>2022-07-18T08:56:18Z</time>
      </trkpt>
      <trkpt lat="44.62178" lon="7.0315">
        <ele>1538.8</ele>
        <time>2022-07-18T08:56:19Z</time>
      </trkpt>
      <trkpt lat="44.62169" lon="7.03152">
        <ele>1538.4</ele>
        <time>2022-07-18T08:56:20Z</time>
      </trkpt>
      <trkpt lat="44.62161" lon="7.03154">
        <ele>1537.8</ele>
        <time>2022-07-18T08:56:21Z</time>
      </trkpt>
      <trkpt lat="44.62153" lon="7.03157">
        <ele>1537.4</ele>
        <time>2022-07-18T08:56:22Z</time>
      </trkpt>
      <trkpt lat="44.62145" lon="7.03161">
        <ele>1537</ele>
        <time>2022-07-18T08:56:23Z</time>
      </trkpt>
      <trkpt lat="44.62137" lon="7.03165">
        <ele>1536.4</ele>
        <time>2022-07-18T08:56:24Z</time>
      </trkpt>
      <trkpt lat="44.62129" lon="7.03171">
        <ele>1536</ele>
        <time>2022-07-18T08:56:25Z</time>
      </trkpt>
      <trkpt lat="44.62121" lon="7.03179">
        <ele>1535.6</ele>
        <time>2022-07-18T08:56:26Z</time>
      </trkpt>
      <trkpt lat="44.62114" lon="7.03188">
        <ele>1535</ele>
        <time>2022-07-18T08:56:27Z</time>
      </trkpt>
      <trkpt lat="44.62107" lon="7.03197">
        <ele>1534.6</ele>
        <time>2022-07-18T08:56:28Z</time>
      </trkpt>
      <trkpt lat="44.62101" lon="7.03207">
        <ele>1534</ele>
        <time>2022-07-18T08:56:29Z</time>
      </trkpt>
      <trkpt lat="44.62094" lon="7.03215">
        <ele>1533.6</ele>
        <time>2022-07-18T08:56:30Z</time>
      </trkpt>
      <trkpt lat="44.62088" lon="7.03224">
        <ele>1533.4</ele>
        <time>2022-07-18T08:56:31Z</time>
      </trkpt>
      <trkpt lat="44.62081" lon="7.03233">
        <ele>1533</ele>
        <time>2022-07-18T08:56:32Z</time>
      </trkpt>
      <trkpt lat="44.62075" lon="7.03243">
        <ele>1532.8</ele>
        <time>2022-07-18T08:56:33Z</time>
      </trkpt>
      <trkpt lat="44.6207" lon="7.03254">
        <ele>1532.4</ele>
        <time>2022-07-18T08:56:34Z</time>
      </trkpt>
      <trkpt lat="44.62066" lon="7.03264">
        <ele>1532</ele>
        <time>2022-07-18T08:56:35Z</time>
      </trkpt>
      <trkpt lat="44.62063" lon="7.03276">
        <ele>1531.6</ele>
        <time>2022-07-18T08:56:36Z</time>
      </trkpt>
      <trkpt lat="44.62059" lon="7.03287">
        <ele>1531.2</ele>
        <time>2022-07-18T08:56:37Z</time>
      </trkpt>
      <trkpt lat="44.62055" lon="7.03298">
        <ele>1530.8</ele>
        <time>2022-07-18T08:56:38Z</time>
      </trkpt>
      <trkpt lat="44.62052" lon="7.0331">
        <ele>1530.4</ele>
        <time>2022-07-18T08:56:39Z</time>
      </trkpt>
      <trkpt lat="44.62048" lon="7.03321">
        <ele>1530</ele>
        <time>2022-07-18T08:56:40Z</time>
      </trkpt>
      <trkpt lat="44.62045" lon="7.03333">
        <ele>1529.6</ele>
        <time>2022-07-18T08:56:41Z</time>
      </trkpt>
      <trkpt lat="44.62043" lon="7.03346">
        <ele>1529.6</ele>
        <time>2022-07-18T08:56:42Z</time>
      </trkpt>
      <trkpt lat="44.62042" lon="7.03358">
        <ele>1529.2</ele>
        <time>2022-07-18T08:56:43Z</time>
      </trkpt>
      <trkpt lat="44.62041" lon="7.0337">
        <ele>1528.8</ele>
        <time>2022-07-18T08:56:44Z</time>
      </trkpt>
      <trkpt lat="44.6204" lon="7.03383">
        <ele>1528.6</ele>
        <time>2022-07-18T08:56:45Z</time>
      </trkpt>
      <trkpt lat="44.62038" lon="7.03395">
        <ele>1528.2</ele>
        <time>2022-07-18T08:56:46Z</time>
      </trkpt>
      <trkpt lat="44.62036" lon="7.03407">
        <ele>1528.2</ele>
        <time>2022-07-18T08:56:47Z</time>
      </trkpt>
      <trkpt lat="44.62034" lon="7.03418">
        <ele>1528</ele>
        <time>2022-07-18T08:56:48Z</time>
      </trkpt>
      <trkpt lat="44.62031" lon="7.03429">
        <ele>1528</ele>
        <time>2022-07-18T08:56:49Z</time>
      </trkpt>
      <trkpt lat="44.62028" lon="7.03439">
        <ele>1528</ele>
        <time>2022-07-18T08:56:50Z</time>
      </trkpt>
      <trkpt lat="44.62025" lon="7.0345">
        <ele>1528</ele>
        <time>2022-07-18T08:56:51Z</time>
      </trkpt>
      <trkpt lat="44.62022" lon="7.0346">
        <ele>1528</ele>
        <time>2022-07-18T08:56:52Z</time>
      </trkpt>
      <trkpt lat="44.62018" lon="7.03469">
        <ele>1528</ele>
        <time>2022-07-18T08:56:53Z</time>
      </trkpt>
      <trkpt lat="44.62015" lon="7.03478">
        <ele>1528</ele>
        <time>2022-07-18T08:56:54Z</time>
      </trkpt>
      <trkpt lat="44.62012" lon="7.03488">
        <ele>1527.8</ele>
        <time>2022-07-18T08:56:55Z</time>
      </trkpt>
      <trkpt lat="44.62009" lon="7.03497">
        <ele>1527.8</ele>
        <time>2022-07-18T08:56:56Z</time>
      </trkpt>
      <trkpt lat="44.62005" lon="7.03506">
        <ele>1527.8</ele>
        <time>2022-07-18T08:56:57Z</time>
      </trkpt>
      <trkpt lat="44.62002" lon="7.03515">
        <ele>1527.8</ele>
        <time>2022-07-18T08:56:58Z</time>
      </trkpt>
      <trkpt lat="44.61999" lon="7.03524">
        <ele>1527.8</ele>
        <time>2022-07-18T08:56:59Z</time>
      </trkpt>
      <trkpt lat="44.61997" lon="7.03533">
        <ele>1527.8</ele>
        <time>2022-07-18T08:57:00Z</time>
      </trkpt>
      <trkpt lat="44.61994" lon="7.03542">
        <ele>1527.8</ele>
        <time>2022-07-18T08:57:01Z</time>
      </trkpt>
      <trkpt lat="44.61991" lon="7.0355">
        <ele>1527.8</ele>
        <time>2022-07-18T08:57:02Z</time>
      </trkpt>
      <trkpt lat="44.61988" lon="7.03559">
        <ele>1527.8</ele>
        <time>2022-07-18T08:57:03Z</time>
      </trkpt>
      <trkpt lat="44.61984" lon="7.03566">
        <ele>1527.8</ele>
        <time>2022-07-18T08:57:04Z</time>
      </trkpt>
      <trkpt lat="44.61981" lon="7.03574">
        <ele>1528</ele>
        <time>2022-07-18T08:57:05Z</time>
      </trkpt>
      <trkpt lat="44.61977" lon="7.03582">
        <ele>1528</ele>
        <time>2022-07-18T08:57:06Z</time>
      </trkpt>
      <trkpt lat="44.61974" lon="7.0359">
        <ele>1528</ele>
        <time>2022-07-18T08:57:07Z</time>
      </trkpt>
      <trkpt lat="44.6197" lon="7.03598">
        <ele>1528</ele>
        <time>2022-07-18T08:57:08Z</time>
      </trkpt>
      <trkpt lat="44.61967" lon="7.03606">
        <ele>1528.4</ele>
        <time>2022-07-18T08:57:09Z</time>
      </trkpt>
      <trkpt lat="44.61963" lon="7.03614">
        <ele>1528.4</ele>
        <time>2022-07-18T08:57:10Z</time>
      </trkpt>
      <trkpt lat="44.61959" lon="7.03621">
        <ele>1528.4</ele>
        <time>2022-07-18T08:57:11Z</time>
      </trkpt>
      <trkpt lat="44.61955" lon="7.03628">
        <ele>1528.4</ele>
        <time>2022-07-18T08:57:12Z</time>
      </trkpt>
      <trkpt lat="44.61951" lon="7.03635">
        <ele>1528.4</ele>
        <time>2022-07-18T08:57:13Z</time>
      </trkpt>
      <trkpt lat="44.61947" lon="7.03642">
        <ele>1528.4</ele>
        <time>2022-07-18T08:57:14Z</time>
      </trkpt>
      <trkpt lat="44.61942" lon="7.03648">
        <ele>1528.4</ele>
        <time>2022-07-18T08:57:15Z</time>
      </trkpt>
      <trkpt lat="44.61937" lon="7.03654">
        <ele>1528.4</ele>
        <time>2022-07-18T08:57:16Z</time>
      </trkpt>
      <trkpt lat="44.61932" lon="7.0366">
        <ele>1528.4</ele>
        <time>2022-07-18T08:57:17Z</time>
      </trkpt>
      <trkpt lat="44.61927" lon="7.03665">
        <ele>1528.4</ele>
        <time>2022-07-18T08:57:18Z</time>
      </trkpt>
      <trkpt lat="44.61922" lon="7.03671">
        <ele>1528.4</ele>
        <time>2022-07-18T08:57:19Z</time>
      </trkpt>
      <trkpt lat="44.61917" lon="7.03676">
        <ele>1528.4</ele>
        <time>2022-07-18T08:57:20Z</time>
      </trkpt>
      <trkpt lat="44.61912" lon="7.03681">
        <ele>1528.4</ele>
        <time>2022-07-18T08:57:21Z</time>
      </trkpt>
      <trkpt lat="44.61907" lon="7.03687">
        <ele>1528.4</ele>
        <time>2022-07-18T08:57:22Z</time>
      </trkpt>
      <trkpt lat="44.61902" lon="7.03693">
        <ele>1528.4</ele>
        <time>2022-07-18T08:57:23Z</time>
      </trkpt>
      <trkpt lat="44.61897" lon="7.03698">
        <ele>1528.4</ele>
        <time>2022-07-18T08:57:24Z</time>
      </trkpt>
      <trkpt lat="44.61892" lon="7.03704">
        <ele>1528.4</ele>
        <time>2022-07-18T08:57:25Z</time>
      </trkpt>
      <trkpt lat="44.61888" lon="7.0371">
        <ele>1528.6</ele>
        <time>2022-07-18T08:57:26Z</time>
      </trkpt>
      <trkpt lat="44.61883" lon="7.03716">
        <ele>1528.6</ele>
        <time>2022-07-18T08:57:27Z</time>
      </trkpt>
      <trkpt lat="44.61879" lon="7.03722">
        <ele>1528.6</ele>
        <time>2022-07-18T08:57:28Z</time>
      </trkpt>
      <trkpt lat="44.61874" lon="7.03728">
        <ele>1528.6</ele>
        <time>2022-07-18T08:57:29Z</time>
      </trkpt>
      <trkpt lat="44.6187" lon="7.03734">
        <ele>1528.6</ele>
        <time>2022-07-18T08:57:30Z</time>
      </trkpt>
      <trkpt lat="44.61866" lon="7.03741">
        <ele>1528.6</ele>
        <time>2022-07-18T08:57:31Z</time>
      </trkpt>
      <trkpt lat="44.61861" lon="7.03748">
        <ele>1528.6</ele>
        <time>2022-07-18T08:57:32Z</time>
      </trkpt>
      <trkpt lat="44.61857" lon="7.03754">
        <ele>1528.6</ele>
        <time>2022-07-18T08:57:33Z</time>
      </trkpt>
      <trkpt lat="44.61853" lon="7.03761">
        <ele>1528.6</ele>
        <time>2022-07-18T08:57:34Z</time>
      </trkpt>
      <trkpt lat="44.61849" lon="7.03767">
        <ele>1528.6</ele>
        <time>2022-07-18T08:57:35Z</time>
      </trkpt>
      <trkpt lat="44.61845" lon="7.03774">
        <ele>1528.6</ele>
        <time>2022-07-18T08:57:36Z</time>
      </trkpt>
      <trkpt lat="44.61841" lon="7.0378">
        <ele>1528.2</ele>
        <time>2022-07-18T08:57:37Z</time>
      </trkpt>
      <trkpt lat="44.61837" lon="7.03787">
        <ele>1528.2</ele>
        <time>2022-07-18T08:57:38Z</time>
      </trkpt>
      <trkpt lat="44.61833" lon="7.03793">
        <ele>1528</ele>
        <time>2022-07-18T08:57:39Z</time>
      </trkpt>
      <trkpt lat="44.61829" lon="7.03799">
        <ele>1528</ele>
        <time>2022-07-18T08:57:40Z</time>
      </trkpt>
      <trkpt lat="44.61826" lon="7.03806">
        <ele>1528.4</ele>
        <time>2022-07-18T08:57:41Z</time>
      </trkpt>
      <trkpt lat="44.61822" lon="7.03813">
        <ele>1528.4</ele>
        <time>2022-07-18T08:57:42Z</time>
      </trkpt>
      <trkpt lat="44.61818" lon="7.03819">
        <ele>1528.4</ele>
        <time>2022-07-18T08:57:43Z</time>
      </trkpt>
      <trkpt lat="44.61814" lon="7.03826">
        <ele>1528.4</ele>
        <time>2022-07-18T08:57:44Z</time>
      </trkpt>
      <trkpt lat="44.61811" lon="7.03832">
        <ele>1528.4</ele>
        <time>2022-07-18T08:57:45Z</time>
      </trkpt>
      <trkpt lat="44.61807" lon="7.03839">
        <ele>1528.4</ele>
        <time>2022-07-18T08:57:46Z</time>
      </trkpt>
      <trkpt lat="44.61804" lon="7.03846">
        <ele>1528.4</ele>
        <time>2022-07-18T08:57:47Z</time>
      </trkpt>
      <trkpt lat="44.61801" lon="7.03852">
        <ele>1528.4</ele>
        <time>2022-07-18T08:57:48Z</time>
      </trkpt>
      <trkpt lat="44.61799" lon="7.03859">
        <ele>1528.4</ele>
        <time>2022-07-18T08:57:49Z</time>
      </trkpt>
      <trkpt lat="44.61796" lon="7.03866">
        <ele>1528.4</ele>
        <time>2022-07-18T08:57:50Z</time>
      </trkpt>
      <trkpt lat="44.61793" lon="7.03873">
        <ele>1528.4</ele>
        <time>2022-07-18T08:57:51Z</time>
      </trkpt>
      <trkpt lat="44.6179" lon="7.03881">
        <ele>1528.4</ele>
        <time>2022-07-18T08:57:52Z</time>
      </trkpt>
      <trkpt lat="44.61788" lon="7.03888">
        <ele>1528.2</ele>
        <time>2022-07-18T08:57:53Z</time>
      </trkpt>
      <trkpt lat="44.61786" lon="7.03895">
        <ele>1528.2</ele>
        <time>2022-07-18T08:57:54Z</time>
      </trkpt>
      <trkpt lat="44.61784" lon="7.03903">
        <ele>1528.2</ele>
        <time>2022-07-18T08:57:55Z</time>
      </trkpt>
      <trkpt lat="44.61782" lon="7.03911">
        <ele>1528.2</ele>
        <time>2022-07-18T08:57:56Z</time>
      </trkpt>
      <trkpt lat="44.6178" lon="7.03919">
        <ele>1528.2</ele>
        <time>2022-07-18T08:57:57Z</time>
      </trkpt>
      <trkpt lat="44.61778" lon="7.03927">
        <ele>1528.2</ele>
        <time>2022-07-18T08:57:58Z</time>
      </trkpt>
      <trkpt lat="44.61777" lon="7.03935">
        <ele>1528.2</ele>
        <time>2022-07-18T08:57:59Z</time>
      </trkpt>
      <trkpt lat="44.61775" lon="7.03943">
        <ele>1528.2</ele>
        <time>2022-07-18T08:58:00Z</time>
      </trkpt>
      <trkpt lat="44.61774" lon="7.03952">
        <ele>1528.2</ele>
        <time>2022-07-18T08:58:01Z</time>
      </trkpt>
      <trkpt lat="44.61772" lon="7.0396">
        <ele>1528.2</ele>
        <time>2022-07-18T08:58:02Z</time>
      </trkpt>
      <trkpt lat="44.61771" lon="7.03968">
        <ele>1527.8</ele>
        <time>2022-07-18T08:58:03Z</time>
      </trkpt>
      <trkpt lat="44.61769" lon="7.03976">
        <ele>1528.2</ele>
        <time>2022-07-18T08:58:04Z</time>
      </trkpt>
      <trkpt lat="44.61767" lon="7.03984">
        <ele>1528.2</ele>
        <time>2022-07-18T08:58:05Z</time>
      </trkpt>
      <trkpt lat="44.61766" lon="7.03992">
        <ele>1528.2</ele>
        <time>2022-07-18T08:58:06Z</time>
      </trkpt>
      <trkpt lat="44.61764" lon="7.04">
        <ele>1528.2</ele>
        <time>2022-07-18T08:58:07Z</time>
      </trkpt>
      <trkpt lat="44.61763" lon="7.04008">
        <ele>1528.2</ele>
        <time>2022-07-18T08:58:08Z</time>
      </trkpt>
      <trkpt lat="44.61761" lon="7.04017">
        <ele>1528</ele>
        <time>2022-07-18T08:58:09Z</time>
      </trkpt>
      <trkpt lat="44.61758" lon="7.04025">
        <ele>1528</ele>
        <time>2022-07-18T08:58:10Z</time>
      </trkpt>
      <trkpt lat="44.61756" lon="7.04033">
        <ele>1528</ele>
        <time>2022-07-18T08:58:11Z</time>
      </trkpt>
      <trkpt lat="44.61754" lon="7.04042">
        <ele>1528</ele>
        <time>2022-07-18T08:58:12Z</time>
      </trkpt>
      <trkpt lat="44.61751" lon="7.0405">
        <ele>1528</ele>
        <time>2022-07-18T08:58:13Z</time>
      </trkpt>
      <trkpt lat="44.61749" lon="7.04058">
        <ele>1528</ele>
        <time>2022-07-18T08:58:14Z</time>
      </trkpt>
      <trkpt lat="44.61747" lon="7.04066">
        <ele>1528</ele>
        <time>2022-07-18T08:58:15Z</time>
      </trkpt>
      <trkpt lat="44.61745" lon="7.04074">
        <ele>1528</ele>
        <time>2022-07-18T08:58:16Z</time>
      </trkpt>
      <trkpt lat="44.61742" lon="7.04082">
        <ele>1528</ele>
        <time>2022-07-18T08:58:17Z</time>
      </trkpt>
      <trkpt lat="44.6174" lon="7.0409">
        <ele>1528</ele>
        <time>2022-07-18T08:58:18Z</time>
      </trkpt>
      <trkpt lat="44.61737" lon="7.04098">
        <ele>1528</ele>
        <time>2022-07-18T08:58:19Z</time>
      </trkpt>
      <trkpt lat="44.61735" lon="7.04107">
        <ele>1528</ele>
        <time>2022-07-18T08:58:20Z</time>
      </trkpt>
      <trkpt lat="44.61733" lon="7.04115">
        <ele>1528</ele>
        <time>2022-07-18T08:58:21Z</time>
      </trkpt>
      <trkpt lat="44.61731" lon="7.04123">
        <ele>1528</ele>
        <time>2022-07-18T08:58:22Z</time>
      </trkpt>
      <trkpt lat="44.61726" lon="7.0414">
        <ele>1528.2</ele>
        <time>2022-07-18T08:58:23Z</time>
      </trkpt>
      <trkpt lat="44.61723" lon="7.04148">
        <ele>1528.2</ele>
        <time>2022-07-18T08:58:24Z</time>
      </trkpt>
      <trkpt lat="44.61721" lon="7.04156">
        <ele>1528.2</ele>
        <time>2022-07-18T08:58:25Z</time>
      </trkpt>
      <trkpt lat="44.61719" lon="7.04165">
        <ele>1528.2</ele>
        <time>2022-07-18T08:58:26Z</time>
      </trkpt>
      <trkpt lat="44.61717" lon="7.04173">
        <ele>1528.2</ele>
        <time>2022-07-18T08:58:27Z</time>
      </trkpt>
      <trkpt lat="44.61715" lon="7.04181">
        <ele>1528.2</ele>
        <time>2022-07-18T08:58:28Z</time>
      </trkpt>
      <trkpt lat="44.61712" lon="7.04189">
        <ele>1528.2</ele>
        <time>2022-07-18T08:58:29Z</time>
      </trkpt>
      <trkpt lat="44.6171" lon="7.04197">
        <ele>1528</ele>
        <time>2022-07-18T08:58:30Z</time>
      </trkpt>
      <trkpt lat="44.61707" lon="7.04205">
        <ele>1528</ele>
        <time>2022-07-18T08:58:31Z</time>
      </trkpt>
      <trkpt lat="44.61705" lon="7.04213">
        <ele>1528</ele>
        <time>2022-07-18T08:58:32Z</time>
      </trkpt>
      <trkpt lat="44.61703" lon="7.04221">
        <ele>1528</ele>
        <time>2022-07-18T08:58:33Z</time>
      </trkpt>
      <trkpt lat="44.617" lon="7.04229">
        <ele>1528</ele>
        <time>2022-07-18T08:58:34Z</time>
      </trkpt>
      <trkpt lat="44.61698" lon="7.04237">
        <ele>1528</ele>
        <time>2022-07-18T08:58:35Z</time>
      </trkpt>
      <trkpt lat="44.61695" lon="7.04245">
        <ele>1528</ele>
        <time>2022-07-18T08:58:36Z</time>
      </trkpt>
      <trkpt lat="44.61693" lon="7.04253">
        <ele>1528</ele>
        <time>2022-07-18T08:58:37Z</time>
      </trkpt>
      <trkpt lat="44.61691" lon="7.04261">
        <ele>1528</ele>
        <time>2022-07-18T08:58:38Z</time>
      </trkpt>
      <trkpt lat="44.61688" lon="7.04269">
        <ele>1528</ele>
        <time>2022-07-18T08:58:39Z</time>
      </trkpt>
      <trkpt lat="44.61685" lon="7.04276">
        <ele>1528</ele>
        <time>2022-07-18T08:58:40Z</time>
      </trkpt>
      <trkpt lat="44.61683" lon="7.04284">
        <ele>1528</ele>
        <time>2022-07-18T08:58:41Z</time>
      </trkpt>
      <trkpt lat="44.61681" lon="7.04292">
        <ele>1528</ele>
        <time>2022-07-18T08:58:42Z</time>
      </trkpt>
      <trkpt lat="44.61678" lon="7.04299">
        <ele>1528</ele>
        <time>2022-07-18T08:58:43Z</time>
      </trkpt>
      <trkpt lat="44.61676" lon="7.04308">
        <ele>1528.2</ele>
        <time>2022-07-18T08:58:44Z</time>
      </trkpt>
      <trkpt lat="44.61674" lon="7.04316">
        <ele>1528.2</ele>
        <time>2022-07-18T08:58:45Z</time>
      </trkpt>
      <trkpt lat="44.61672" lon="7.04324">
        <ele>1528.2</ele>
        <time>2022-07-18T08:58:46Z</time>
      </trkpt>
      <trkpt lat="44.61669" lon="7.04332">
        <ele>1528.2</ele>
        <time>2022-07-18T08:58:47Z</time>
      </trkpt>
      <trkpt lat="44.61667" lon="7.04341">
        <ele>1528.2</ele>
        <time>2022-07-18T08:58:48Z</time>
      </trkpt>
      <trkpt lat="44.61665" lon="7.04349">
        <ele>1528.2</ele>
        <time>2022-07-18T08:58:49Z</time>
      </trkpt>
      <trkpt lat="44.61663" lon="7.04358">
        <ele>1528.2</ele>
        <time>2022-07-18T08:58:50Z</time>
      </trkpt>
      <trkpt lat="44.6166" lon="7.04366">
        <ele>1528.2</ele>
        <time>2022-07-18T08:58:51Z</time>
      </trkpt>
      <trkpt lat="44.61658" lon="7.04375">
        <ele>1528.2</ele>
        <time>2022-07-18T08:58:52Z</time>
      </trkpt>
      <trkpt lat="44.61655" lon="7.04383">
        <ele>1528.2</ele>
        <time>2022-07-18T08:58:53Z</time>
      </trkpt>
      <trkpt lat="44.61653" lon="7.04391">
        <ele>1528.2</ele>
        <time>2022-07-18T08:58:54Z</time>
      </trkpt>
      <trkpt lat="44.6165" lon="7.044">
        <ele>1528.2</ele>
        <time>2022-07-18T08:58:55Z</time>
      </trkpt>
      <trkpt lat="44.61648" lon="7.04408">
        <ele>1528.2</ele>
        <time>2022-07-18T08:58:56Z</time>
      </trkpt>
      <trkpt lat="44.61646" lon="7.04417">
        <ele>1528.2</ele>
        <time>2022-07-18T08:58:57Z</time>
      </trkpt>
      <trkpt lat="44.61643" lon="7.04425">
        <ele>1528.2</ele>
        <time>2022-07-18T08:58:58Z</time>
      </trkpt>
      <trkpt lat="44.61641" lon="7.04434">
        <ele>1528.2</ele>
        <time>2022-07-18T08:58:59Z</time>
      </trkpt>
      <trkpt lat="44.61639" lon="7.04442">
        <ele>1528.2</ele>
        <time>2022-07-18T08:59:00Z</time>
      </trkpt>
      <trkpt lat="44.61636" lon="7.04451">
        <ele>1528.2</ele>
        <time>2022-07-18T08:59:01Z</time>
      </trkpt>
      <trkpt lat="44.61634" lon="7.04459">
        <ele>1528.2</ele>
        <time>2022-07-18T08:59:02Z</time>
      </trkpt>
      <trkpt lat="44.61631" lon="7.04467">
        <ele>1528.2</ele>
        <time>2022-07-18T08:59:03Z</time>
      </trkpt>
      <trkpt lat="44.61629" lon="7.04475">
        <ele>1528.2</ele>
        <time>2022-07-18T08:59:04Z</time>
      </trkpt>
      <trkpt lat="44.61627" lon="7.04484">
        <ele>1528.2</ele>
        <time>2022-07-18T08:59:05Z</time>
      </trkpt>
      <trkpt lat="44.61624" lon="7.04492">
        <ele>1528.2</ele>
        <time>2022-07-18T08:59:06Z</time>
      </trkpt>
      <trkpt lat="44.61622" lon="7.045">
        <ele>1528.2</ele>
        <time>2022-07-18T08:59:07Z</time>
      </trkpt>
      <trkpt lat="44.6162" lon="7.04507">
        <ele>1528.2</ele>
        <time>2022-07-18T08:59:08Z</time>
      </trkpt>
      <trkpt lat="44.61618" lon="7.04515">
        <ele>1528.2</ele>
        <time>2022-07-18T08:59:09Z</time>
      </trkpt>
      <trkpt lat="44.61616" lon="7.04522">
        <ele>1528</ele>
        <time>2022-07-18T08:59:10Z</time>
      </trkpt>
      <trkpt lat="44.61614" lon="7.0453">
        <ele>1528</ele>
        <time>2022-07-18T08:59:11Z</time>
      </trkpt>
      <trkpt lat="44.61612" lon="7.04538">
        <ele>1528</ele>
        <time>2022-07-18T08:59:12Z</time>
      </trkpt>
      <trkpt lat="44.6161" lon="7.04545">
        <ele>1528</ele>
        <time>2022-07-18T08:59:13Z</time>
      </trkpt>
      <trkpt lat="44.61607" lon="7.04553">
        <ele>1528</ele>
        <time>2022-07-18T08:59:14Z</time>
      </trkpt>
      <trkpt lat="44.61605" lon="7.0456">
        <ele>1528</ele>
        <time>2022-07-18T08:59:15Z</time>
      </trkpt>
      <trkpt lat="44.61603" lon="7.04568">
        <ele>1528</ele>
        <time>2022-07-18T08:59:16Z</time>
      </trkpt>
      <trkpt lat="44.616" lon="7.04575">
        <ele>1528</ele>
        <time>2022-07-18T08:59:17Z</time>
      </trkpt>
      <trkpt lat="44.61598" lon="7.04583">
        <ele>1528</ele>
        <time>2022-07-18T08:59:18Z</time>
      </trkpt>
      <trkpt lat="44.61595" lon="7.0459">
        <ele>1528</ele>
        <time>2022-07-18T08:59:19Z</time>
      </trkpt>
      <trkpt lat="44.61593" lon="7.04597">
        <ele>1528</ele>
        <time>2022-07-18T08:59:20Z</time>
      </trkpt>
      <trkpt lat="44.6159" lon="7.04605">
        <ele>1528</ele>
        <time>2022-07-18T08:59:21Z</time>
      </trkpt>
      <trkpt lat="44.61588" lon="7.04612">
        <ele>1528</ele>
        <time>2022-07-18T08:59:22Z</time>
      </trkpt>
      <trkpt lat="44.61585" lon="7.04619">
        <ele>1528</ele>
        <time>2022-07-18T08:59:23Z</time>
      </trkpt>
      <trkpt lat="44.61583" lon="7.04627">
        <ele>1528</ele>
        <time>2022-07-18T08:59:24Z</time>
      </trkpt>
      <trkpt lat="44.61581" lon="7.04634">
        <ele>1528</ele>
        <time>2022-07-18T08:59:25Z</time>
      </trkpt>
      <trkpt lat="44.61579" lon="7.04642">
        <ele>1528</ele>
        <time>2022-07-18T08:59:26Z</time>
      </trkpt>
      <trkpt lat="44.61577" lon="7.0465">
        <ele>1528</ele>
        <time>2022-07-18T08:59:27Z</time>
      </trkpt>
      <trkpt lat="44.61576" lon="7.04659">
        <ele>1528.2</ele>
        <time>2022-07-18T08:59:28Z</time>
      </trkpt>
      <trkpt lat="44.61575" lon="7.04667">
        <ele>1528.2</ele>
        <time>2022-07-18T08:59:29Z</time>
      </trkpt>
      <trkpt lat="44.61573" lon="7.04675">
        <ele>1528.2</ele>
        <time>2022-07-18T08:59:30Z</time>
      </trkpt>
      <trkpt lat="44.61571" lon="7.04683">
        <ele>1528.2</ele>
        <time>2022-07-18T08:59:31Z</time>
      </trkpt>
      <trkpt lat="44.6157" lon="7.04692">
        <ele>1528.2</ele>
        <time>2022-07-18T08:59:32Z</time>
      </trkpt>
      <trkpt lat="44.61568" lon="7.047">
        <ele>1528</ele>
        <time>2022-07-18T08:59:33Z</time>
      </trkpt>
      <trkpt lat="44.61567" lon="7.04708">
        <ele>1528</ele>
        <time>2022-07-18T08:59:34Z</time>
      </trkpt>
      <trkpt lat="44.61565" lon="7.04717">
        <ele>1528</ele>
        <time>2022-07-18T08:59:35Z</time>
      </trkpt>
      <trkpt lat="44.61564" lon="7.04725">
        <ele>1528</ele>
        <time>2022-07-18T08:59:36Z</time>
      </trkpt>
      <trkpt lat="44.61563" lon="7.04733">
        <ele>1527.8</ele>
        <time>2022-07-18T08:59:37Z</time>
      </trkpt>
      <trkpt lat="44.61561" lon="7.04741">
        <ele>1527.8</ele>
        <time>2022-07-18T08:59:38Z</time>
      </trkpt>
      <trkpt lat="44.61559" lon="7.04748">
        <ele>1527.8</ele>
        <time>2022-07-18T08:59:39Z</time>
      </trkpt>
      <trkpt lat="44.61557" lon="7.04755">
        <ele>1527.8</ele>
        <time>2022-07-18T08:59:40Z</time>
      </trkpt>
      <trkpt lat="44.61555" lon="7.04762">
        <ele>1527.8</ele>
        <time>2022-07-18T08:59:41Z</time>
      </trkpt>
      <trkpt lat="44.61553" lon="7.04769">
        <ele>1527.8</ele>
        <time>2022-07-18T08:59:42Z</time>
      </trkpt>
      <trkpt lat="44.61551" lon="7.04777">
        <ele>1527.8</ele>
        <time>2022-07-18T08:59:43Z</time>
      </trkpt>
      <trkpt lat="44.61549" lon="7.04785">
        <ele>1527.8</ele>
        <time>2022-07-18T08:59:44Z</time>
      </trkpt>
      <trkpt lat="44.61546" lon="7.04792">
        <ele>1527.6</ele>
        <time>2022-07-18T08:59:45Z</time>
      </trkpt>
      <trkpt lat="44.61544" lon="7.04801">
        <ele>1527.6</ele>
        <time>2022-07-18T08:59:46Z</time>
      </trkpt>
      <trkpt lat="44.61542" lon="7.04809">
        <ele>1527.6</ele>
        <time>2022-07-18T08:59:47Z</time>
      </trkpt>
      <trkpt lat="44.61539" lon="7.04817">
        <ele>1527.2</ele>
        <time>2022-07-18T08:59:48Z</time>
      </trkpt>
      <trkpt lat="44.61536" lon="7.04826">
        <ele>1527.2</ele>
        <time>2022-07-18T08:59:49Z</time>
      </trkpt>
      <trkpt lat="44.61532" lon="7.04833">
        <ele>1526.8</ele>
        <time>2022-07-18T08:59:50Z</time>
      </trkpt>
      <trkpt lat="44.61528" lon="7.0484">
        <ele>1526.6</ele>
        <time>2022-07-18T08:59:51Z</time>
      </trkpt>
      <trkpt lat="44.61522" lon="7.04845">
        <ele>1526.2</ele>
        <time>2022-07-18T08:59:52Z</time>
      </trkpt>
      <trkpt lat="44.61516" lon="7.04849">
        <ele>1526</ele>
        <time>2022-07-18T08:59:53Z</time>
      </trkpt>
      <trkpt lat="44.6151" lon="7.04852">
        <ele>1526</ele>
        <time>2022-07-18T08:59:54Z</time>
      </trkpt>
      <trkpt lat="44.61503" lon="7.04855">
        <ele>1525.8</ele>
        <time>2022-07-18T08:59:55Z</time>
      </trkpt>
      <trkpt lat="44.61496" lon="7.04858">
        <ele>1525.8</ele>
        <time>2022-07-18T08:59:56Z</time>
      </trkpt>
      <trkpt lat="44.61489" lon="7.04861">
        <ele>1525.4</ele>
        <time>2022-07-18T08:59:57Z</time>
      </trkpt>
      <trkpt lat="44.61482" lon="7.04864">
        <ele>1525.4</ele>
        <time>2022-07-18T08:59:58Z</time>
      </trkpt>
      <trkpt lat="44.61476" lon="7.04869">
        <ele>1525</ele>
        <time>2022-07-18T08:59:59Z</time>
      </trkpt>
      <trkpt lat="44.6147" lon="7.04875">
        <ele>1525</ele>
        <time>2022-07-18T09:00:00Z</time>
      </trkpt>
      <trkpt lat="44.61465" lon="7.04883">
        <ele>1524.8</ele>
        <time>2022-07-18T09:00:01Z</time>
      </trkpt>
      <trkpt lat="44.61461" lon="7.0489">
        <ele>1524.8</ele>
        <time>2022-07-18T09:00:02Z</time>
      </trkpt>
      <trkpt lat="44.61459" lon="7.04899">
        <ele>1524.6</ele>
        <time>2022-07-18T09:00:03Z</time>
      </trkpt>
      <trkpt lat="44.61457" lon="7.04907">
        <ele>1524.6</ele>
        <time>2022-07-18T09:00:04Z</time>
      </trkpt>
      <trkpt lat="44.61458" lon="7.04915">
        <ele>1524.6</ele>
        <time>2022-07-18T09:00:05Z</time>
      </trkpt>
      <trkpt lat="44.61459" lon="7.04923">
        <ele>1524.6</ele>
        <time>2022-07-18T09:00:06Z</time>
      </trkpt>
      <trkpt lat="44.6146" lon="7.0493">
        <ele>1524.6</ele>
        <time>2022-07-18T09:00:07Z</time>
      </trkpt>
      <trkpt lat="44.61462" lon="7.04938">
        <ele>1524.6</ele>
        <time>2022-07-18T09:00:08Z</time>
      </trkpt>
      <trkpt lat="44.61463" lon="7.04944">
        <ele>1524.8</ele>
        <time>2022-07-18T09:00:09Z</time>
      </trkpt>
      <trkpt lat="44.61465" lon="7.04951">
        <ele>1524.8</ele>
        <time>2022-07-18T09:00:10Z</time>
      </trkpt>
      <trkpt lat="44.61466" lon="7.04957">
        <ele>1525</ele>
        <time>2022-07-18T09:00:11Z</time>
      </trkpt>
      <trkpt lat="44.61467" lon="7.04963">
        <ele>1525</ele>
        <time>2022-07-18T09:00:12Z</time>
      </trkpt>
      <trkpt lat="44.61469" lon="7.04968">
        <ele>1525.4</ele>
        <time>2022-07-18T09:00:13Z</time>
      </trkpt>
      <trkpt lat="44.61469" lon="7.04974">
        <ele>1525.4</ele>
        <time>2022-07-18T09:00:14Z</time>
      </trkpt>
      <trkpt lat="44.6147" lon="7.04978">
        <ele>1525.6</ele>
        <time>2022-07-18T09:00:15Z</time>
      </trkpt>
      <trkpt lat="44.61471" lon="7.04983">
        <ele>1525.6</ele>
        <time>2022-07-18T09:00:16Z</time>
      </trkpt>
      <trkpt lat="44.61472" lon="7.04987">
        <ele>1526</ele>
        <time>2022-07-18T09:00:17Z</time>
      </trkpt>
      <trkpt lat="44.61472" lon="7.04989">
        <ele>1526</ele>
        <time>2022-07-18T09:00:18Z</time>
      </trkpt>
      <trkpt lat="44.61471" lon="7.04991">
        <ele>1526</ele>
        <time>2022-07-18T09:00:19Z</time>
      </trkpt>
      <trkpt lat="44.61471" lon="7.04992">
        <ele>1526</ele>
        <time>2022-07-18T09:00:20Z</time>
      </trkpt>
      <trkpt lat="44.61471" lon="7.04993">
        <ele>1526</ele>
        <time>2022-07-18T09:00:21Z</time>
      </trkpt>
      <trkpt lat="44.61471" lon="7.04993">
        <ele>1526</ele>
        <time>2022-07-18T09:00:22Z</time>
      </trkpt>
      <trkpt lat="44.61471" lon="7.04993">
        <ele>1526</ele>
        <time>2022-07-18T09:00:26Z</time>
      </trkpt>
      <trkpt lat="44.61471" lon="7.04993">
        <ele>1526</ele>
        <time>2022-07-18T09:00:30Z</time>
      </trkpt>
      <trkpt lat="44.61471" lon="7.04993">
        <ele>1526</ele>
        <time>2022-07-18T09:00:35Z</time>
      </trkpt>
      <trkpt lat="44.61471" lon="7.04993">
        <ele>1526.2</ele>
        <time>2022-07-18T09:00:43Z</time>
      </trkpt>
      <trkpt lat="44.61471" lon="7.04993">
        <ele>1526.2</ele>
        <time>2022-07-18T09:01:03Z</time>
      </trkpt>
      <trkpt lat="44.61471" lon="7.04993">
        <ele>1526</ele>
        <time>2022-07-18T09:01:36Z</time>
      </trkpt>
      <trkpt lat="44.61471" lon="7.04993">
        <ele>1526</ele>
        <time>2022-07-18T09:01:41Z</time>
      </trkpt>
      <trkpt lat="44.6147" lon="7.04996">
        <ele>1525.8</ele>
        <time>2022-07-18T09:01:46Z</time>
      </trkpt>
      <trkpt lat="44.6147" lon="7.05">
        <ele>1525.8</ele>
        <time>2022-07-18T09:01:47Z</time>
      </trkpt>
      <trkpt lat="44.6147" lon="7.05004">
        <ele>1525.6</ele>
        <time>2022-07-18T09:01:48Z</time>
      </trkpt>
      <trkpt lat="44.6147" lon="7.0501">
        <ele>1525.6</ele>
        <time>2022-07-18T09:01:49Z</time>
      </trkpt>
      <trkpt lat="44.6147" lon="7.05016">
        <ele>1525.2</ele>
        <time>2022-07-18T09:01:50Z</time>
      </trkpt>
      <trkpt lat="44.61471" lon="7.05022">
        <ele>1524.8</ele>
        <time>2022-07-18T09:01:51Z</time>
      </trkpt>
      <trkpt lat="44.61472" lon="7.05028">
        <ele>1524.6</ele>
        <time>2022-07-18T09:01:52Z</time>
      </trkpt>
      <trkpt lat="44.61474" lon="7.05035">
        <ele>1524</ele>
        <time>2022-07-18T09:01:53Z</time>
      </trkpt>
      <trkpt lat="44.61476" lon="7.05043">
        <ele>1523.8</ele>
        <time>2022-07-18T09:01:54Z</time>
      </trkpt>
      <trkpt lat="44.61479" lon="7.0505">
        <ele>1523.6</ele>
        <time>2022-07-18T09:01:55Z</time>
      </trkpt>
      <trkpt lat="44.61482" lon="7.05058">
        <ele>1523.2</ele>
        <time>2022-07-18T09:01:56Z</time>
      </trkpt>
      <trkpt lat="44.61487" lon="7.05065">
        <ele>1523</ele>
        <time>2022-07-18T09:01:57Z</time>
      </trkpt>
      <trkpt lat="44.61491" lon="7.05073">
        <ele>1522.6</ele>
        <time>2022-07-18T09:01:58Z</time>
      </trkpt>
      <trkpt lat="44.61495" lon="7.05081">
        <ele>1522.4</ele>
        <time>2022-07-18T09:01:59Z</time>
      </trkpt>
      <trkpt lat="44.61499" lon="7.0509">
        <ele>1522</ele>
        <time>2022-07-18T09:02:00Z</time>
      </trkpt>
      <trkpt lat="44.61503" lon="7.051">
        <ele>1521.6</ele>
        <time>2022-07-18T09:02:01Z</time>
      </trkpt>
      <trkpt lat="44.61506" lon="7.05109">
        <ele>1521.2</ele>
        <time>2022-07-18T09:02:02Z</time>
      </trkpt>
      <trkpt lat="44.6151" lon="7.05119">
        <ele>1520.8</ele>
        <time>2022-07-18T09:02:03Z</time>
      </trkpt>
      <trkpt lat="44.61513" lon="7.05129">
        <ele>1520.4</ele>
        <time>2022-07-18T09:02:04Z</time>
      </trkpt>
      <trkpt lat="44.61515" lon="7.05139">
        <ele>1519.8</ele>
        <time>2022-07-18T09:02:05Z</time>
      </trkpt>
      <trkpt lat="44.61518" lon="7.0515">
        <ele>1519.4</ele>
        <time>2022-07-18T09:02:06Z</time>
      </trkpt>
      <trkpt lat="44.61521" lon="7.0516">
        <ele>1519</ele>
        <time>2022-07-18T09:02:07Z</time>
      </trkpt>
      <trkpt lat="44.61524" lon="7.05171">
        <ele>1518.6</ele>
        <time>2022-07-18T09:02:08Z</time>
      </trkpt>
      <trkpt lat="44.61527" lon="7.05182">
        <ele>1518.2</ele>
        <time>2022-07-18T09:02:09Z</time>
      </trkpt>
      <trkpt lat="44.61531" lon="7.05194">
        <ele>1517.8</ele>
        <time>2022-07-18T09:02:10Z</time>
      </trkpt>
      <trkpt lat="44.61534" lon="7.05205">
        <ele>1517.8</ele>
        <time>2022-07-18T09:02:11Z</time>
      </trkpt>
      <trkpt lat="44.61535" lon="7.05218">
        <ele>1517.4</ele>
        <time>2022-07-18T09:02:12Z</time>
      </trkpt>
      <trkpt lat="44.61535" lon="7.05231">
        <ele>1517.4</ele>
        <time>2022-07-18T09:02:13Z</time>
      </trkpt>
      <trkpt lat="44.61532" lon="7.05243">
        <ele>1517</ele>
        <time>2022-07-18T09:02:14Z</time>
      </trkpt>
      <trkpt lat="44.61527" lon="7.05253">
        <ele>1517</ele>
        <time>2022-07-18T09:02:15Z</time>
      </trkpt>
      <trkpt lat="44.61521" lon="7.05262">
        <ele>1517</ele>
        <time>2022-07-18T09:02:16Z</time>
      </trkpt>
      <trkpt lat="44.61515" lon="7.05269">
        <ele>1517</ele>
        <time>2022-07-18T09:02:17Z</time>
      </trkpt>
      <trkpt lat="44.61508" lon="7.05274">
        <ele>1517</ele>
        <time>2022-07-18T09:02:18Z</time>
      </trkpt>
      <trkpt lat="44.61499" lon="7.05275">
        <ele>1517</ele>
        <time>2022-07-18T09:02:19Z</time>
      </trkpt>
      <trkpt lat="44.61491" lon="7.05275">
        <ele>1517</ele>
        <time>2022-07-18T09:02:20Z</time>
      </trkpt>
      <trkpt lat="44.61483" lon="7.05273">
        <ele>1516.8</ele>
        <time>2022-07-18T09:02:21Z</time>
      </trkpt>
      <trkpt lat="44.61475" lon="7.0527">
        <ele>1516.8</ele>
        <time>2022-07-18T09:02:22Z</time>
      </trkpt>
      <trkpt lat="44.61467" lon="7.05268">
        <ele>1516.8</ele>
        <time>2022-07-18T09:02:23Z</time>
      </trkpt>
      <trkpt lat="44.61459" lon="7.05268">
        <ele>1516.8</ele>
        <time>2022-07-18T09:02:24Z</time>
      </trkpt>
      <trkpt lat="44.61452" lon="7.05268">
        <ele>1516.8</ele>
        <time>2022-07-18T09:02:25Z</time>
      </trkpt>
      <trkpt lat="44.61444" lon="7.05269">
        <ele>1516.8</ele>
        <time>2022-07-18T09:02:26Z</time>
      </trkpt>
      <trkpt lat="44.61436" lon="7.05271">
        <ele>1516.8</ele>
        <time>2022-07-18T09:02:27Z</time>
      </trkpt>
      <trkpt lat="44.61429" lon="7.05272">
        <ele>1516.6</ele>
        <time>2022-07-18T09:02:28Z</time>
      </trkpt>
      <trkpt lat="44.61421" lon="7.05274">
        <ele>1516.6</ele>
        <time>2022-07-18T09:02:29Z</time>
      </trkpt>
      <trkpt lat="44.61414" lon="7.05276">
        <ele>1516.6</ele>
        <time>2022-07-18T09:02:30Z</time>
      </trkpt>
      <trkpt lat="44.61406" lon="7.05278">
        <ele>1516.4</ele>
        <time>2022-07-18T09:02:31Z</time>
      </trkpt>
      <trkpt lat="44.61399" lon="7.0528">
        <ele>1516.4</ele>
        <time>2022-07-18T09:02:32Z</time>
      </trkpt>
      <trkpt lat="44.61391" lon="7.05281">
        <ele>1516.4</ele>
        <time>2022-07-18T09:02:33Z</time>
      </trkpt>
      <trkpt lat="44.61384" lon="7.05283">
        <ele>1516.4</ele>
        <time>2022-07-18T09:02:34Z</time>
      </trkpt>
      <trkpt lat="44.61376" lon="7.05284">
        <ele>1516.4</ele>
        <time>2022-07-18T09:02:35Z</time>
      </trkpt>
      <trkpt lat="44.61368" lon="7.05286">
        <ele>1516</ele>
        <time>2022-07-18T09:02:36Z</time>
      </trkpt>
      <trkpt lat="44.61361" lon="7.05287">
        <ele>1516</ele>
        <time>2022-07-18T09:02:37Z</time>
      </trkpt>
      <trkpt lat="44.61353" lon="7.05289">
        <ele>1515.8</ele>
        <time>2022-07-18T09:02:38Z</time>
      </trkpt>
      <trkpt lat="44.61345" lon="7.05291">
        <ele>1515.8</ele>
        <time>2022-07-18T09:02:39Z</time>
      </trkpt>
      <trkpt lat="44.61338" lon="7.05293">
        <ele>1515.6</ele>
        <time>2022-07-18T09:02:40Z</time>
      </trkpt>
      <trkpt lat="44.6133" lon="7.05296">
        <ele>1515.6</ele>
        <time>2022-07-18T09:02:41Z</time>
      </trkpt>
      <trkpt lat="44.61323" lon="7.053">
        <ele>1515.2</ele>
        <time>2022-07-18T09:02:42Z</time>
      </trkpt>
      <trkpt lat="44.61315" lon="7.05304">
        <ele>1514.8</ele>
        <time>2022-07-18T09:02:43Z</time>
      </trkpt>
      <trkpt lat="44.61308" lon="7.05309">
        <ele>1514.6</ele>
        <time>2022-07-18T09:02:44Z</time>
      </trkpt>
      <trkpt lat="44.613" lon="7.05313">
        <ele>1514.4</ele>
        <time>2022-07-18T09:02:45Z</time>
      </trkpt>
      <trkpt lat="44.61292" lon="7.05318">
        <ele>1514.2</ele>
        <time>2022-07-18T09:02:46Z</time>
      </trkpt>
      <trkpt lat="44.61284" lon="7.05322">
        <ele>1514</ele>
        <time>2022-07-18T09:02:47Z</time>
      </trkpt>
      <trkpt lat="44.61277" lon="7.05327">
        <ele>1513.6</ele>
        <time>2022-07-18T09:02:48Z</time>
      </trkpt>
      <trkpt lat="44.61269" lon="7.05332">
        <ele>1513.4</ele>
        <time>2022-07-18T09:02:49Z</time>
      </trkpt>
      <trkpt lat="44.6126" lon="7.05337">
        <ele>1513.2</ele>
        <time>2022-07-18T09:02:50Z</time>
      </trkpt>
      <trkpt lat="44.61252" lon="7.05342">
        <ele>1512.8</ele>
        <time>2022-07-18T09:02:51Z</time>
      </trkpt>
      <trkpt lat="44.61245" lon="7.05347">
        <ele>1512.6</ele>
        <time>2022-07-18T09:02:52Z</time>
      </trkpt>
      <trkpt lat="44.61237" lon="7.05353">
        <ele>1512.2</ele>
        <time>2022-07-18T09:02:53Z</time>
      </trkpt>
      <trkpt lat="44.61229" lon="7.05359">
        <ele>1511.8</ele>
        <time>2022-07-18T09:02:54Z</time>
      </trkpt>
      <trkpt lat="44.61222" lon="7.05366">
        <ele>1511.4</ele>
        <time>2022-07-18T09:02:55Z</time>
      </trkpt>
      <trkpt lat="44.61215" lon="7.05373">
        <ele>1511.2</ele>
        <time>2022-07-18T09:02:56Z</time>
      </trkpt>
      <trkpt lat="44.61207" lon="7.0538">
        <ele>1510.8</ele>
        <time>2022-07-18T09:02:57Z</time>
      </trkpt>
      <trkpt lat="44.612" lon="7.05387">
        <ele>1510.4</ele>
        <time>2022-07-18T09:02:58Z</time>
      </trkpt>
      <trkpt lat="44.61192" lon="7.05394">
        <ele>1510.2</ele>
        <time>2022-07-18T09:02:59Z</time>
      </trkpt>
      <trkpt lat="44.61184" lon="7.054">
        <ele>1510</ele>
        <time>2022-07-18T09:03:00Z</time>
      </trkpt>
      <trkpt lat="44.61176" lon="7.05406">
        <ele>1509.6</ele>
        <time>2022-07-18T09:03:01Z</time>
      </trkpt>
      <trkpt lat="44.61167" lon="7.05411">
        <ele>1509.2</ele>
        <time>2022-07-18T09:03:02Z</time>
      </trkpt>
      <trkpt lat="44.61158" lon="7.05415">
        <ele>1508.8</ele>
        <time>2022-07-18T09:03:03Z</time>
      </trkpt>
      <trkpt lat="44.61149" lon="7.0542">
        <ele>1508.4</ele>
        <time>2022-07-18T09:03:04Z</time>
      </trkpt>
      <trkpt lat="44.61141" lon="7.05425">
        <ele>1508</ele>
        <time>2022-07-18T09:03:05Z</time>
      </trkpt>
      <trkpt lat="44.61133" lon="7.05432">
        <ele>1507.6</ele>
        <time>2022-07-18T09:03:06Z</time>
      </trkpt>
      <trkpt lat="44.61125" lon="7.05439">
        <ele>1507.2</ele>
        <time>2022-07-18T09:03:07Z</time>
      </trkpt>
      <trkpt lat="44.61117" lon="7.05448">
        <ele>1506.8</ele>
        <time>2022-07-18T09:03:08Z</time>
      </trkpt>
      <trkpt lat="44.6111" lon="7.05456">
        <ele>1506.4</ele>
        <time>2022-07-18T09:03:09Z</time>
      </trkpt>
      <trkpt lat="44.61102" lon="7.05465">
        <ele>1506.2</ele>
        <time>2022-07-18T09:03:10Z</time>
      </trkpt>
      <trkpt lat="44.61095" lon="7.05474">
        <ele>1505.6</ele>
        <time>2022-07-18T09:03:11Z</time>
      </trkpt>
      <trkpt lat="44.61088" lon="7.05484">
        <ele>1505.2</ele>
        <time>2022-07-18T09:03:12Z</time>
      </trkpt>
      <trkpt lat="44.61081" lon="7.05493">
        <ele>1504.8</ele>
        <time>2022-07-18T09:03:13Z</time>
      </trkpt>
      <trkpt lat="44.61076" lon="7.05503">
        <ele>1504.4</ele>
        <time>2022-07-18T09:03:14Z</time>
      </trkpt>
      <trkpt lat="44.61071" lon="7.05512">
        <ele>1504</ele>
        <time>2022-07-18T09:03:15Z</time>
      </trkpt>
      <trkpt lat="44.61066" lon="7.05522">
        <ele>1503.8</ele>
        <time>2022-07-18T09:03:16Z</time>
      </trkpt>
      <trkpt lat="44.61063" lon="7.05533">
        <ele>1503.4</ele>
        <time>2022-07-18T09:03:17Z</time>
      </trkpt>
      <trkpt lat="44.61062" lon="7.05544">
        <ele>1503</ele>
        <time>2022-07-18T09:03:18Z</time>
      </trkpt>
      <trkpt lat="44.61062" lon="7.05556">
        <ele>1502.6</ele>
        <time>2022-07-18T09:03:19Z</time>
      </trkpt>
      <trkpt lat="44.61062" lon="7.05568">
        <ele>1502.4</ele>
        <time>2022-07-18T09:03:20Z</time>
      </trkpt>
      <trkpt lat="44.61064" lon="7.0558">
        <ele>1502</ele>
        <time>2022-07-18T09:03:21Z</time>
      </trkpt>
      <trkpt lat="44.61065" lon="7.05592">
        <ele>1501.8</ele>
        <time>2022-07-18T09:03:22Z</time>
      </trkpt>
      <trkpt lat="44.61066" lon="7.05605">
        <ele>1501.4</ele>
        <time>2022-07-18T09:03:23Z</time>
      </trkpt>
      <trkpt lat="44.61067" lon="7.05617">
        <ele>1501</ele>
        <time>2022-07-18T09:03:24Z</time>
      </trkpt>
      <trkpt lat="44.61068" lon="7.0563">
        <ele>1500.8</ele>
        <time>2022-07-18T09:03:25Z</time>
      </trkpt>
      <trkpt lat="44.61069" lon="7.05643">
        <ele>1500.4</ele>
        <time>2022-07-18T09:03:26Z</time>
      </trkpt>
      <trkpt lat="44.61069" lon="7.05656">
        <ele>1500</ele>
        <time>2022-07-18T09:03:27Z</time>
      </trkpt>
      <trkpt lat="44.61068" lon="7.05669">
        <ele>1499.8</ele>
        <time>2022-07-18T09:03:28Z</time>
      </trkpt>
      <trkpt lat="44.61067" lon="7.05682">
        <ele>1499.2</ele>
        <time>2022-07-18T09:03:29Z</time>
      </trkpt>
      <trkpt lat="44.61064" lon="7.05695">
        <ele>1499</ele>
        <time>2022-07-18T09:03:30Z</time>
      </trkpt>
      <trkpt lat="44.6106" lon="7.05707">
        <ele>1498.6</ele>
        <time>2022-07-18T09:03:31Z</time>
      </trkpt>
      <trkpt lat="44.61054" lon="7.05717">
        <ele>1498.2</ele>
        <time>2022-07-18T09:03:32Z</time>
      </trkpt>
      <trkpt lat="44.61045" lon="7.05725">
        <ele>1497.8</ele>
        <time>2022-07-18T09:03:33Z</time>
      </trkpt>
      <trkpt lat="44.61036" lon="7.05733">
        <ele>1497.4</ele>
        <time>2022-07-18T09:03:34Z</time>
      </trkpt>
      <trkpt lat="44.61027" lon="7.05739">
        <ele>1496.8</ele>
        <time>2022-07-18T09:03:35Z</time>
      </trkpt>
      <trkpt lat="44.61018" lon="7.05745">
        <ele>1496.4</ele>
        <time>2022-07-18T09:03:36Z</time>
      </trkpt>
      <trkpt lat="44.61009" lon="7.05751">
        <ele>1496.2</ele>
        <time>2022-07-18T09:03:37Z</time>
      </trkpt>
      <trkpt lat="44.61001" lon="7.05757">
        <ele>1495.8</ele>
        <time>2022-07-18T09:03:38Z</time>
      </trkpt>
      <trkpt lat="44.60993" lon="7.05764">
        <ele>1495.4</ele>
        <time>2022-07-18T09:03:39Z</time>
      </trkpt>
      <trkpt lat="44.60987" lon="7.05773">
        <ele>1494.8</ele>
        <time>2022-07-18T09:03:40Z</time>
      </trkpt>
      <trkpt lat="44.60981" lon="7.05783">
        <ele>1494.4</ele>
        <time>2022-07-18T09:03:41Z</time>
      </trkpt>
      <trkpt lat="44.60975" lon="7.05793">
        <ele>1494</ele>
        <time>2022-07-18T09:03:42Z</time>
      </trkpt>
      <trkpt lat="44.60971" lon="7.05804">
        <ele>1493.6</ele>
        <time>2022-07-18T09:03:43Z</time>
      </trkpt>
      <trkpt lat="44.60966" lon="7.05817">
        <ele>1493</ele>
        <time>2022-07-18T09:03:44Z</time>
      </trkpt>
      <trkpt lat="44.60961" lon="7.05829">
        <ele>1492.6</ele>
        <time>2022-07-18T09:03:45Z</time>
      </trkpt>
      <trkpt lat="44.60957" lon="7.05843">
        <ele>1492.2</ele>
        <time>2022-07-18T09:03:46Z</time>
      </trkpt>
      <trkpt lat="44.60953" lon="7.05856">
        <ele>1491.8</ele>
        <time>2022-07-18T09:03:47Z</time>
      </trkpt>
      <trkpt lat="44.60949" lon="7.05869">
        <ele>1491.4</ele>
        <time>2022-07-18T09:03:48Z</time>
      </trkpt>
      <trkpt lat="44.60946" lon="7.05883">
        <ele>1491</ele>
        <time>2022-07-18T09:03:49Z</time>
      </trkpt>
      <trkpt lat="44.60941" lon="7.05897">
        <ele>1490.4</ele>
        <time>2022-07-18T09:03:50Z</time>
      </trkpt>
      <trkpt lat="44.60938" lon="7.0591">
        <ele>1490.2</ele>
        <time>2022-07-18T09:03:51Z</time>
      </trkpt>
      <trkpt lat="44.60934" lon="7.05925">
        <ele>1489.8</ele>
        <time>2022-07-18T09:03:52Z</time>
      </trkpt>
      <trkpt lat="44.60931" lon="7.05939">
        <ele>1489.2</ele>
        <time>2022-07-18T09:03:53Z</time>
      </trkpt>
      <trkpt lat="44.60927" lon="7.05952">
        <ele>1488.8</ele>
        <time>2022-07-18T09:03:54Z</time>
      </trkpt>
      <trkpt lat="44.60923" lon="7.05964">
        <ele>1488.2</ele>
        <time>2022-07-18T09:03:55Z</time>
      </trkpt>
      <trkpt lat="44.60917" lon="7.05975">
        <ele>1487.6</ele>
        <time>2022-07-18T09:03:56Z</time>
      </trkpt>
      <trkpt lat="44.60911" lon="7.05985">
        <ele>1487</ele>
        <time>2022-07-18T09:03:57Z</time>
      </trkpt>
      <trkpt lat="44.60903" lon="7.05993">
        <ele>1486.2</ele>
        <time>2022-07-18T09:03:58Z</time>
      </trkpt>
      <trkpt lat="44.60892" lon="7.05997">
        <ele>1485.6</ele>
        <time>2022-07-18T09:03:59Z</time>
      </trkpt>
      <trkpt lat="44.60881" lon="7.05999">
        <ele>1485</ele>
        <time>2022-07-18T09:04:00Z</time>
      </trkpt>
      <trkpt lat="44.60869" lon="7.06001">
        <ele>1484.4</ele>
        <time>2022-07-18T09:04:01Z</time>
      </trkpt>
      <trkpt lat="44.60858" lon="7.06003">
        <ele>1483.6</ele>
        <time>2022-07-18T09:04:02Z</time>
      </trkpt>
      <trkpt lat="44.60847" lon="7.06007">
        <ele>1482.8</ele>
        <time>2022-07-18T09:04:03Z</time>
      </trkpt>
      <trkpt lat="44.60836" lon="7.06012">
        <ele>1482.2</ele>
        <time>2022-07-18T09:04:04Z</time>
      </trkpt>
      <trkpt lat="44.60826" lon="7.06019">
        <ele>1481.4</ele>
        <time>2022-07-18T09:04:05Z</time>
      </trkpt>
      <trkpt lat="44.60816" lon="7.06028">
        <ele>1480.6</ele>
        <time>2022-07-18T09:04:06Z</time>
      </trkpt>
      <trkpt lat="44.60807" lon="7.06037">
        <ele>1479.8</ele>
        <time>2022-07-18T09:04:07Z</time>
      </trkpt>
      <trkpt lat="44.60798" lon="7.06047">
        <ele>1479</ele>
        <time>2022-07-18T09:04:08Z</time>
      </trkpt>
      <trkpt lat="44.60789" lon="7.06057">
        <ele>1478.2</ele>
        <time>2022-07-18T09:04:09Z</time>
      </trkpt>
      <trkpt lat="44.60781" lon="7.06067">
        <ele>1477.2</ele>
        <time>2022-07-18T09:04:10Z</time>
      </trkpt>
      <trkpt lat="44.60773" lon="7.06075">
        <ele>1476.4</ele>
        <time>2022-07-18T09:04:11Z</time>
      </trkpt>
      <trkpt lat="44.60763" lon="7.06082">
        <ele>1475.6</ele>
        <time>2022-07-18T09:04:12Z</time>
      </trkpt>
      <trkpt lat="44.60753" lon="7.06086">
        <ele>1474.6</ele>
        <time>2022-07-18T09:04:13Z</time>
      </trkpt>
      <trkpt lat="44.60742" lon="7.06087">
        <ele>1473.8</ele>
        <time>2022-07-18T09:04:14Z</time>
      </trkpt>
      <trkpt lat="44.60731" lon="7.06087">
        <ele>1472.8</ele>
        <time>2022-07-18T09:04:15Z</time>
      </trkpt>
      <trkpt lat="44.6072" lon="7.06087">
        <ele>1471.8</ele>
        <time>2022-07-18T09:04:16Z</time>
      </trkpt>
      <trkpt lat="44.60711" lon="7.0609">
        <ele>1470.8</ele>
        <time>2022-07-18T09:04:17Z</time>
      </trkpt>
      <trkpt lat="44.60702" lon="7.06094">
        <ele>1470</ele>
        <time>2022-07-18T09:04:18Z</time>
      </trkpt>
      <trkpt lat="44.60692" lon="7.06101">
        <ele>1469.4</ele>
        <time>2022-07-18T09:04:19Z</time>
      </trkpt>
      <trkpt lat="44.60684" lon="7.0611">
        <ele>1468.6</ele>
        <time>2022-07-18T09:04:20Z</time>
      </trkpt>
      <trkpt lat="44.60675" lon="7.0612">
        <ele>1467.8</ele>
        <time>2022-07-18T09:04:21Z</time>
      </trkpt>
      <trkpt lat="44.60666" lon="7.06131">
        <ele>1466.8</ele>
        <time>2022-07-18T09:04:22Z</time>
      </trkpt>
      <trkpt lat="44.60658" lon="7.06143">
        <ele>1465.8</ele>
        <time>2022-07-18T09:04:23Z</time>
      </trkpt>
      <trkpt lat="44.60648" lon="7.06153">
        <ele>1465</ele>
        <time>2022-07-18T09:04:24Z</time>
      </trkpt>
      <trkpt lat="44.60638" lon="7.06162">
        <ele>1464.2</ele>
        <time>2022-07-18T09:04:25Z</time>
      </trkpt>
      <trkpt lat="44.60628" lon="7.06172">
        <ele>1463.2</ele>
        <time>2022-07-18T09:04:26Z</time>
      </trkpt>
      <trkpt lat="44.60618" lon="7.06181">
        <ele>1462.4</ele>
        <time>2022-07-18T09:04:27Z</time>
      </trkpt>
      <trkpt lat="44.60607" lon="7.0619">
        <ele>1461.4</ele>
        <time>2022-07-18T09:04:28Z</time>
      </trkpt>
      <trkpt lat="44.60597" lon="7.06199">
        <ele>1460.6</ele>
        <time>2022-07-18T09:04:29Z</time>
      </trkpt>
      <trkpt lat="44.60586" lon="7.06207">
        <ele>1459.6</ele>
        <time>2022-07-18T09:04:30Z</time>
      </trkpt>
      <trkpt lat="44.60576" lon="7.06216">
        <ele>1458.8</ele>
        <time>2022-07-18T09:04:31Z</time>
      </trkpt>
      <trkpt lat="44.60565" lon="7.06225">
        <ele>1458</ele>
        <time>2022-07-18T09:04:32Z</time>
      </trkpt>
      <trkpt lat="44.60555" lon="7.06234">
        <ele>1457.2</ele>
        <time>2022-07-18T09:04:33Z</time>
      </trkpt>
      <trkpt lat="44.60545" lon="7.06242">
        <ele>1456.2</ele>
        <time>2022-07-18T09:04:34Z</time>
      </trkpt>
      <trkpt lat="44.60535" lon="7.06249">
        <ele>1455.2</ele>
        <time>2022-07-18T09:04:35Z</time>
      </trkpt>
      <trkpt lat="44.60525" lon="7.06256">
        <ele>1454.4</ele>
        <time>2022-07-18T09:04:36Z</time>
      </trkpt>
      <trkpt lat="44.60515" lon="7.06261">
        <ele>1453.6</ele>
        <time>2022-07-18T09:04:37Z</time>
      </trkpt>
      <trkpt lat="44.60504" lon="7.06267">
        <ele>1452.6</ele>
        <time>2022-07-18T09:04:38Z</time>
      </trkpt>
      <trkpt lat="44.60494" lon="7.06273">
        <ele>1451.8</ele>
        <time>2022-07-18T09:04:39Z</time>
      </trkpt>
      <trkpt lat="44.60483" lon="7.06278">
        <ele>1451</ele>
        <time>2022-07-18T09:04:40Z</time>
      </trkpt>
      <trkpt lat="44.60474" lon="7.06284">
        <ele>1450.2</ele>
        <time>2022-07-18T09:04:41Z</time>
      </trkpt>
      <trkpt lat="44.60464" lon="7.0629">
        <ele>1449.4</ele>
        <time>2022-07-18T09:04:42Z</time>
      </trkpt>
      <trkpt lat="44.60455" lon="7.06295">
        <ele>1448.6</ele>
        <time>2022-07-18T09:04:43Z</time>
      </trkpt>
      <trkpt lat="44.60444" lon="7.06299">
        <ele>1448</ele>
        <time>2022-07-18T09:04:44Z</time>
      </trkpt>
      <trkpt lat="44.60434" lon="7.06302">
        <ele>1446.8</ele>
        <time>2022-07-18T09:04:45Z</time>
      </trkpt>
      <trkpt lat="44.60424" lon="7.06305">
        <ele>1446</ele>
        <time>2022-07-18T09:04:46Z</time>
      </trkpt>
      <trkpt lat="44.60413" lon="7.06309">
        <ele>1445.2</ele>
        <time>2022-07-18T09:04:47Z</time>
      </trkpt>
      <trkpt lat="44.60403" lon="7.06316">
        <ele>1444.4</ele>
        <time>2022-07-18T09:04:48Z</time>
      </trkpt>
      <trkpt lat="44.60394" lon="7.06324">
        <ele>1443.6</ele>
        <time>2022-07-18T09:04:49Z</time>
      </trkpt>
      <trkpt lat="44.60385" lon="7.06334">
        <ele>1443</ele>
        <time>2022-07-18T09:04:50Z</time>
      </trkpt>
      <trkpt lat="44.60376" lon="7.06344">
        <ele>1442.2</ele>
        <time>2022-07-18T09:04:51Z</time>
      </trkpt>
      <trkpt lat="44.60367" lon="7.06354">
        <ele>1441.6</ele>
        <time>2022-07-18T09:04:52Z</time>
      </trkpt>
      <trkpt lat="44.60357" lon="7.06363">
        <ele>1440.8</ele>
        <time>2022-07-18T09:04:53Z</time>
      </trkpt>
      <trkpt lat="44.60348" lon="7.06372">
        <ele>1440</ele>
        <time>2022-07-18T09:04:54Z</time>
      </trkpt>
      <trkpt lat="44.60339" lon="7.06381">
        <ele>1439.2</ele>
        <time>2022-07-18T09:04:55Z</time>
      </trkpt>
      <trkpt lat="44.60329" lon="7.06388">
        <ele>1438.4</ele>
        <time>2022-07-18T09:04:56Z</time>
      </trkpt>
      <trkpt lat="44.60319" lon="7.06394">
        <ele>1437.8</ele>
        <time>2022-07-18T09:04:57Z</time>
      </trkpt>
      <trkpt lat="44.6031" lon="7.064">
        <ele>1437</ele>
        <time>2022-07-18T09:04:58Z</time>
      </trkpt>
      <trkpt lat="44.60301" lon="7.06406">
        <ele>1436.2</ele>
        <time>2022-07-18T09:04:59Z</time>
      </trkpt>
      <trkpt lat="44.60292" lon="7.06414">
        <ele>1435.2</ele>
        <time>2022-07-18T09:05:00Z</time>
      </trkpt>
      <trkpt lat="44.60284" lon="7.06423">
        <ele>1434.2</ele>
        <time>2022-07-18T09:05:01Z</time>
      </trkpt>
      <trkpt lat="44.60275" lon="7.06433">
        <ele>1433.4</ele>
        <time>2022-07-18T09:05:02Z</time>
      </trkpt>
      <trkpt lat="44.60267" lon="7.06443">
        <ele>1432.4</ele>
        <time>2022-07-18T09:05:03Z</time>
      </trkpt>
      <trkpt lat="44.60258" lon="7.06454">
        <ele>1431.4</ele>
        <time>2022-07-18T09:05:04Z</time>
      </trkpt>
      <trkpt lat="44.60249" lon="7.06464">
        <ele>1430.4</ele>
        <time>2022-07-18T09:05:05Z</time>
      </trkpt>
      <trkpt lat="44.6024" lon="7.06473">
        <ele>1429.2</ele>
        <time>2022-07-18T09:05:06Z</time>
      </trkpt>
      <trkpt lat="44.6023" lon="7.06481">
        <ele>1428.2</ele>
        <time>2022-07-18T09:05:07Z</time>
      </trkpt>
      <trkpt lat="44.60221" lon="7.0649">
        <ele>1427.2</ele>
        <time>2022-07-18T09:05:08Z</time>
      </trkpt>
      <trkpt lat="44.60212" lon="7.06498">
        <ele>1426.2</ele>
        <time>2022-07-18T09:05:09Z</time>
      </trkpt>
      <trkpt lat="44.60203" lon="7.06504">
        <ele>1424</ele>
        <time>2022-07-18T09:05:10Z</time>
      </trkpt>
      <trkpt lat="44.60193" lon="7.0651">
        <ele>1422.8</ele>
        <time>2022-07-18T09:05:11Z</time>
      </trkpt>
      <trkpt lat="44.60183" lon="7.06517">
        <ele>1421.8</ele>
        <time>2022-07-18T09:05:12Z</time>
      </trkpt>
      <trkpt lat="44.60174" lon="7.06524">
        <ele>1420.8</ele>
        <time>2022-07-18T09:05:13Z</time>
      </trkpt>
      <trkpt lat="44.60165" lon="7.06531">
        <ele>1419.8</ele>
        <time>2022-07-18T09:05:14Z</time>
      </trkpt>
      <trkpt lat="44.60157" lon="7.06538">
        <ele>1418.8</ele>
        <time>2022-07-18T09:05:15Z</time>
      </trkpt>
      <trkpt lat="44.60148" lon="7.06545">
        <ele>1417.8</ele>
        <time>2022-07-18T09:05:16Z</time>
      </trkpt>
      <trkpt lat="44.60138" lon="7.06551">
        <ele>1417</ele>
        <time>2022-07-18T09:05:17Z</time>
      </trkpt>
      <trkpt lat="44.60129" lon="7.06559">
        <ele>1416.2</ele>
        <time>2022-07-18T09:05:18Z</time>
      </trkpt>
      <trkpt lat="44.6012" lon="7.06567">
        <ele>1415.2</ele>
        <time>2022-07-18T09:05:19Z</time>
      </trkpt>
      <trkpt lat="44.60111" lon="7.06576">
        <ele>1414.2</ele>
        <time>2022-07-18T09:05:20Z</time>
      </trkpt>
      <trkpt lat="44.60102" lon="7.06585">
        <ele>1413.2</ele>
        <time>2022-07-18T09:05:21Z</time>
      </trkpt>
      <trkpt lat="44.60093" lon="7.06595">
        <ele>1412.2</ele>
        <time>2022-07-18T09:05:22Z</time>
      </trkpt>
      <trkpt lat="44.60084" lon="7.06604">
        <ele>1411.4</ele>
        <time>2022-07-18T09:05:23Z</time>
      </trkpt>
      <trkpt lat="44.60075" lon="7.06614">
        <ele>1410.6</ele>
        <time>2022-07-18T09:05:24Z</time>
      </trkpt>
      <trkpt lat="44.60067" lon="7.06623">
        <ele>1409.8</ele>
        <time>2022-07-18T09:05:25Z</time>
      </trkpt>
      <trkpt lat="44.60059" lon="7.06633">
        <ele>1409.2</ele>
        <time>2022-07-18T09:05:26Z</time>
      </trkpt>
      <trkpt lat="44.60051" lon="7.06643">
        <ele>1408.4</ele>
        <time>2022-07-18T09:05:27Z</time>
      </trkpt>
      <trkpt lat="44.60044" lon="7.06653">
        <ele>1407.8</ele>
        <time>2022-07-18T09:05:28Z</time>
      </trkpt>
      <trkpt lat="44.60038" lon="7.06664">
        <ele>1407</ele>
        <time>2022-07-18T09:05:29Z</time>
      </trkpt>
      <trkpt lat="44.60031" lon="7.06672">
        <ele>1406.2</ele>
        <time>2022-07-18T09:05:30Z</time>
      </trkpt>
      <trkpt lat="44.60023" lon="7.0668">
        <ele>1405.4</ele>
        <time>2022-07-18T09:05:31Z</time>
      </trkpt>
      <trkpt lat="44.60015" lon="7.06687">
        <ele>1404.6</ele>
        <time>2022-07-18T09:05:32Z</time>
      </trkpt>
      <trkpt lat="44.60006" lon="7.06694">
        <ele>1403.8</ele>
        <time>2022-07-18T09:05:33Z</time>
      </trkpt>
      <trkpt lat="44.59998" lon="7.06703">
        <ele>1402.8</ele>
        <time>2022-07-18T09:05:34Z</time>
      </trkpt>
      <trkpt lat="44.5999" lon="7.06714">
        <ele>1402</ele>
        <time>2022-07-18T09:05:35Z</time>
      </trkpt>
      <trkpt lat="44.59984" lon="7.06726">
        <ele>1401</ele>
        <time>2022-07-18T09:05:36Z</time>
      </trkpt>
      <trkpt lat="44.59978" lon="7.06738">
        <ele>1400.2</ele>
        <time>2022-07-18T09:05:37Z</time>
      </trkpt>
      <trkpt lat="44.59972" lon="7.06749">
        <ele>1399.2</ele>
        <time>2022-07-18T09:05:38Z</time>
      </trkpt>
      <trkpt lat="44.59965" lon="7.06757">
        <ele>1398.2</ele>
        <time>2022-07-18T09:05:39Z</time>
      </trkpt>
      <trkpt lat="44.59957" lon="7.06765">
        <ele>1397.2</ele>
        <time>2022-07-18T09:05:40Z</time>
      </trkpt>
      <trkpt lat="44.59948" lon="7.06771">
        <ele>1396.2</ele>
        <time>2022-07-18T09:05:41Z</time>
      </trkpt>
      <trkpt lat="44.59937" lon="7.06774">
        <ele>1395.2</ele>
        <time>2022-07-18T09:05:42Z</time>
      </trkpt>
      <trkpt lat="44.59927" lon="7.06777">
        <ele>1394.2</ele>
        <time>2022-07-18T09:05:43Z</time>
      </trkpt>
      <trkpt lat="44.59917" lon="7.0678">
        <ele>1393.4</ele>
        <time>2022-07-18T09:05:44Z</time>
      </trkpt>
      <trkpt lat="44.59907" lon="7.06785">
        <ele>1392.4</ele>
        <time>2022-07-18T09:05:45Z</time>
      </trkpt>
      <trkpt lat="44.59898" lon="7.06791">
        <ele>1391.6</ele>
        <time>2022-07-18T09:05:46Z</time>
      </trkpt>
      <trkpt lat="44.59888" lon="7.06796">
        <ele>1390.6</ele>
        <time>2022-07-18T09:05:47Z</time>
      </trkpt>
      <trkpt lat="44.59878" lon="7.06799">
        <ele>1389.4</ele>
        <time>2022-07-18T09:05:48Z</time>
      </trkpt>
      <trkpt lat="44.59868" lon="7.06799">
        <ele>1388.6</ele>
        <time>2022-07-18T09:05:49Z</time>
      </trkpt>
      <trkpt lat="44.59858" lon="7.06798">
        <ele>1387.6</ele>
        <time>2022-07-18T09:05:50Z</time>
      </trkpt>
      <trkpt lat="44.59849" lon="7.06798">
        <ele>1386.6</ele>
        <time>2022-07-18T09:05:51Z</time>
      </trkpt>
      <trkpt lat="44.59839" lon="7.06801">
        <ele>1385.8</ele>
        <time>2022-07-18T09:05:52Z</time>
      </trkpt>
      <trkpt lat="44.5983" lon="7.06806">
        <ele>1384.8</ele>
        <time>2022-07-18T09:05:53Z</time>
      </trkpt>
      <trkpt lat="44.59821" lon="7.06814">
        <ele>1383.8</ele>
        <time>2022-07-18T09:05:54Z</time>
      </trkpt>
      <trkpt lat="44.59812" lon="7.06824">
        <ele>1383</ele>
        <time>2022-07-18T09:05:55Z</time>
      </trkpt>
      <trkpt lat="44.59802" lon="7.06833">
        <ele>1381.8</ele>
        <time>2022-07-18T09:05:56Z</time>
      </trkpt>
      <trkpt lat="44.59792" lon="7.0684">
        <ele>1380.8</ele>
        <time>2022-07-18T09:05:57Z</time>
      </trkpt>
      <trkpt lat="44.59782" lon="7.06846">
        <ele>1379.8</ele>
        <time>2022-07-18T09:05:58Z</time>
      </trkpt>
      <trkpt lat="44.59772" lon="7.0685">
        <ele>1379</ele>
        <time>2022-07-18T09:05:59Z</time>
      </trkpt>
      <trkpt lat="44.59763" lon="7.06856">
        <ele>1378.2</ele>
        <time>2022-07-18T09:06:00Z</time>
      </trkpt>
      <trkpt lat="44.59754" lon="7.06864">
        <ele>1377.2</ele>
        <time>2022-07-18T09:06:01Z</time>
      </trkpt>
      <trkpt lat="44.59747" lon="7.06875">
        <ele>1376.2</ele>
        <time>2022-07-18T09:06:02Z</time>
      </trkpt>
      <trkpt lat="44.5974" lon="7.06887">
        <ele>1375</ele>
        <time>2022-07-18T09:06:03Z</time>
      </trkpt>
      <trkpt lat="44.59733" lon="7.069">
        <ele>1374</ele>
        <time>2022-07-18T09:06:04Z</time>
      </trkpt>
      <trkpt lat="44.59724" lon="7.06908">
        <ele>1373</ele>
        <time>2022-07-18T09:06:05Z</time>
      </trkpt>
      <trkpt lat="44.59714" lon="7.06914">
        <ele>1372</ele>
        <time>2022-07-18T09:06:06Z</time>
      </trkpt>
      <trkpt lat="44.59704" lon="7.06917">
        <ele>1371</ele>
        <time>2022-07-18T09:06:07Z</time>
      </trkpt>
      <trkpt lat="44.59694" lon="7.06915">
        <ele>1370</ele>
        <time>2022-07-18T09:06:08Z</time>
      </trkpt>
      <trkpt lat="44.59683" lon="7.06911">
        <ele>1368.8</ele>
        <time>2022-07-18T09:06:09Z</time>
      </trkpt>
      <trkpt lat="44.59671" lon="7.06905">
        <ele>1367.8</ele>
        <time>2022-07-18T09:06:10Z</time>
      </trkpt>
      <trkpt lat="44.59661" lon="7.06898">
        <ele>1366.8</ele>
        <time>2022-07-18T09:06:11Z</time>
      </trkpt>
      <trkpt lat="44.5965" lon="7.06891">
        <ele>1365.8</ele>
        <time>2022-07-18T09:06:12Z</time>
      </trkpt>
      <trkpt lat="44.59638" lon="7.06885">
        <ele>1364.8</ele>
        <time>2022-07-18T09:06:13Z</time>
      </trkpt>
      <trkpt lat="44.59628" lon="7.06878">
        <ele>1363.8</ele>
        <time>2022-07-18T09:06:14Z</time>
      </trkpt>
      <trkpt lat="44.59618" lon="7.06874">
        <ele>1362.8</ele>
        <time>2022-07-18T09:06:15Z</time>
      </trkpt>
      <trkpt lat="44.59609" lon="7.06872">
        <ele>1361.8</ele>
        <time>2022-07-18T09:06:16Z</time>
      </trkpt>
      <trkpt lat="44.59599" lon="7.06874">
        <ele>1360.8</ele>
        <time>2022-07-18T09:06:17Z</time>
      </trkpt>
      <trkpt lat="44.59588" lon="7.06875">
        <ele>1360</ele>
        <time>2022-07-18T09:06:18Z</time>
      </trkpt>
      <trkpt lat="44.59577" lon="7.06875">
        <ele>1359</ele>
        <time>2022-07-18T09:06:19Z</time>
      </trkpt>
      <trkpt lat="44.59566" lon="7.06876">
        <ele>1358</ele>
        <time>2022-07-18T09:06:20Z</time>
      </trkpt>
      <trkpt lat="44.59554" lon="7.06877">
        <ele>1357.2</ele>
        <time>2022-07-18T09:06:21Z</time>
      </trkpt>
      <trkpt lat="44.59542" lon="7.06878">
        <ele>1356.2</ele>
        <time>2022-07-18T09:06:22Z</time>
      </trkpt>
      <trkpt lat="44.5953" lon="7.06879">
        <ele>1355.2</ele>
        <time>2022-07-18T09:06:23Z</time>
      </trkpt>
      <trkpt lat="44.59518" lon="7.0688">
        <ele>1354.4</ele>
        <time>2022-07-18T09:06:24Z</time>
      </trkpt>
      <trkpt lat="44.59506" lon="7.06881">
        <ele>1353.8</ele>
        <time>2022-07-18T09:06:25Z</time>
      </trkpt>
      <trkpt lat="44.59495" lon="7.06883">
        <ele>1353.2</ele>
        <time>2022-07-18T09:06:26Z</time>
      </trkpt>
      <trkpt lat="44.59484" lon="7.06885">
        <ele>1352.4</ele>
        <time>2022-07-18T09:06:27Z</time>
      </trkpt>
      <trkpt lat="44.59472" lon="7.06888">
        <ele>1352</ele>
        <time>2022-07-18T09:06:28Z</time>
      </trkpt>
      <trkpt lat="44.59461" lon="7.06891">
        <ele>1351.2</ele>
        <time>2022-07-18T09:06:29Z</time>
      </trkpt>
      <trkpt lat="44.59451" lon="7.06893">
        <ele>1350.8</ele>
        <time>2022-07-18T09:06:30Z</time>
      </trkpt>
      <trkpt lat="44.59442" lon="7.06897">
        <ele>1350.2</ele>
        <time>2022-07-18T09:06:31Z</time>
      </trkpt>
      <trkpt lat="44.59433" lon="7.06901">
        <ele>1349.6</ele>
        <time>2022-07-18T09:06:32Z</time>
      </trkpt>
      <trkpt lat="44.59425" lon="7.06908">
        <ele>1349</ele>
        <time>2022-07-18T09:06:33Z</time>
      </trkpt>
      <trkpt lat="44.59417" lon="7.06917">
        <ele>1348.2</ele>
        <time>2022-07-18T09:06:34Z</time>
      </trkpt>
      <trkpt lat="44.59409" lon="7.06929">
        <ele>1347.4</ele>
        <time>2022-07-18T09:06:35Z</time>
      </trkpt>
      <trkpt lat="44.59401" lon="7.0694">
        <ele>1346.4</ele>
        <time>2022-07-18T09:06:36Z</time>
      </trkpt>
      <trkpt lat="44.59392" lon="7.06951">
        <ele>1345.4</ele>
        <time>2022-07-18T09:06:37Z</time>
      </trkpt>
      <trkpt lat="44.59382" lon="7.06963">
        <ele>1344.2</ele>
        <time>2022-07-18T09:06:38Z</time>
      </trkpt>
      <trkpt lat="44.59373" lon="7.06974">
        <ele>1343.2</ele>
        <time>2022-07-18T09:06:39Z</time>
      </trkpt>
      <trkpt lat="44.59362" lon="7.06986">
        <ele>1342</ele>
        <time>2022-07-18T09:06:40Z</time>
      </trkpt>
      <trkpt lat="44.59352" lon="7.06997">
        <ele>1340.8</ele>
        <time>2022-07-18T09:06:41Z</time>
      </trkpt>
      <trkpt lat="44.59343" lon="7.07008">
        <ele>1339.6</ele>
        <time>2022-07-18T09:06:42Z</time>
      </trkpt>
      <trkpt lat="44.59332" lon="7.07019">
        <ele>1338.4</ele>
        <time>2022-07-18T09:06:43Z</time>
      </trkpt>
      <trkpt lat="44.59322" lon="7.07028">
        <ele>1337.2</ele>
        <time>2022-07-18T09:06:44Z</time>
      </trkpt>
      <trkpt lat="44.5931" lon="7.07036">
        <ele>1336</ele>
        <time>2022-07-18T09:06:45Z</time>
      </trkpt>
      <trkpt lat="44.59298" lon="7.07043">
        <ele>1334.8</ele>
        <time>2022-07-18T09:06:46Z</time>
      </trkpt>
      <trkpt lat="44.59286" lon="7.0705">
        <ele>1333.8</ele>
        <time>2022-07-18T09:06:47Z</time>
      </trkpt>
      <trkpt lat="44.59274" lon="7.07056">
        <ele>1332.4</ele>
        <time>2022-07-18T09:06:48Z</time>
      </trkpt>
      <trkpt lat="44.59262" lon="7.07063">
        <ele>1331.2</ele>
        <time>2022-07-18T09:06:49Z</time>
      </trkpt>
      <trkpt lat="44.5925" lon="7.0707">
        <ele>1330.2</ele>
        <time>2022-07-18T09:06:50Z</time>
      </trkpt>
      <trkpt lat="44.59238" lon="7.07077">
        <ele>1329</ele>
        <time>2022-07-18T09:06:51Z</time>
      </trkpt>
      <trkpt lat="44.59226" lon="7.07084">
        <ele>1327.8</ele>
        <time>2022-07-18T09:06:52Z</time>
      </trkpt>
      <trkpt lat="44.59214" lon="7.07091">
        <ele>1326.6</ele>
        <time>2022-07-18T09:06:53Z</time>
      </trkpt>
      <trkpt lat="44.59202" lon="7.07098">
        <ele>1325.6</ele>
        <time>2022-07-18T09:06:54Z</time>
      </trkpt>
      <trkpt lat="44.5919" lon="7.07104">
        <ele>1324.2</ele>
        <time>2022-07-18T09:06:55Z</time>
      </trkpt>
      <trkpt lat="44.59179" lon="7.0711">
        <ele>1323</ele>
        <time>2022-07-18T09:06:56Z</time>
      </trkpt>
      <trkpt lat="44.59168" lon="7.07117">
        <ele>1321.8</ele>
        <time>2022-07-18T09:06:57Z</time>
      </trkpt>
      <trkpt lat="44.59158" lon="7.07123">
        <ele>1320.6</ele>
        <time>2022-07-18T09:06:58Z</time>
      </trkpt>
      <trkpt lat="44.59146" lon="7.07128">
        <ele>1319.4</ele>
        <time>2022-07-18T09:06:59Z</time>
      </trkpt>
      <trkpt lat="44.59135" lon="7.07134">
        <ele>1318.2</ele>
        <time>2022-07-18T09:07:00Z</time>
      </trkpt>
      <trkpt lat="44.59124" lon="7.0714">
        <ele>1316.8</ele>
        <time>2022-07-18T09:07:01Z</time>
      </trkpt>
      <trkpt lat="44.59113" lon="7.07146">
        <ele>1315.6</ele>
        <time>2022-07-18T09:07:02Z</time>
      </trkpt>
      <trkpt lat="44.59103" lon="7.07154">
        <ele>1314.4</ele>
        <time>2022-07-18T09:07:03Z</time>
      </trkpt>
      <trkpt lat="44.59093" lon="7.07163">
        <ele>1313.2</ele>
        <time>2022-07-18T09:07:04Z</time>
      </trkpt>
      <trkpt lat="44.59083" lon="7.07175">
        <ele>1312</ele>
        <time>2022-07-18T09:07:05Z</time>
      </trkpt>
      <trkpt lat="44.59074" lon="7.07187">
        <ele>1310.8</ele>
        <time>2022-07-18T09:07:06Z</time>
      </trkpt>
      <trkpt lat="44.59066" lon="7.07201">
        <ele>1309.4</ele>
        <time>2022-07-18T09:07:07Z</time>
      </trkpt>
      <trkpt lat="44.59058" lon="7.07214">
        <ele>1308</ele>
        <time>2022-07-18T09:07:08Z</time>
      </trkpt>
      <trkpt lat="44.5905" lon="7.07226">
        <ele>1306.8</ele>
        <time>2022-07-18T09:07:09Z</time>
      </trkpt>
      <trkpt lat="44.59043" lon="7.07237">
        <ele>1305.8</ele>
        <time>2022-07-18T09:07:10Z</time>
      </trkpt>
      <trkpt lat="44.59037" lon="7.07248">
        <ele>1304.8</ele>
        <time>2022-07-18T09:07:11Z</time>
      </trkpt>
      <trkpt lat="44.59031" lon="7.07257">
        <ele>1303.8</ele>
        <time>2022-07-18T09:07:12Z</time>
      </trkpt>
      <trkpt lat="44.59026" lon="7.07266">
        <ele>1303</ele>
        <time>2022-07-18T09:07:13Z</time>
      </trkpt>
      <trkpt lat="44.59024" lon="7.07276">
        <ele>1302.2</ele>
        <time>2022-07-18T09:07:14Z</time>
      </trkpt>
      <trkpt lat="44.59023" lon="7.07286">
        <ele>1301.6</ele>
        <time>2022-07-18T09:07:15Z</time>
      </trkpt>
      <trkpt lat="44.59024" lon="7.07295">
        <ele>1301.2</ele>
        <time>2022-07-18T09:07:16Z</time>
      </trkpt>
      <trkpt lat="44.59024" lon="7.07304">
        <ele>1300.6</ele>
        <time>2022-07-18T09:07:17Z</time>
      </trkpt>
      <trkpt lat="44.59022" lon="7.07311">
        <ele>1300.2</ele>
        <time>2022-07-18T09:07:18Z</time>
      </trkpt>
      <trkpt lat="44.59018" lon="7.07313">
        <ele>1299.8</ele>
        <time>2022-07-18T09:07:19Z</time>
      </trkpt>
      <trkpt lat="44.59014" lon="7.07311">
        <ele>1299.4</ele>
        <time>2022-07-18T09:07:20Z</time>
      </trkpt>
      <trkpt lat="44.59011" lon="7.07306">
        <ele>1299</ele>
        <time>2022-07-18T09:07:21Z</time>
      </trkpt>
      <trkpt lat="44.5901" lon="7.07298">
        <ele>1298.8</ele>
        <time>2022-07-18T09:07:22Z</time>
      </trkpt>
      <trkpt lat="44.59013" lon="7.0729">
        <ele>1298.6</ele>
        <time>2022-07-18T09:07:23Z</time>
      </trkpt>
      <trkpt lat="44.59015" lon="7.07282">
        <ele>1298.2</ele>
        <time>2022-07-18T09:07:24Z</time>
      </trkpt>
      <trkpt lat="44.59018" lon="7.07274">
        <ele>1297.8</ele>
        <time>2022-07-18T09:07:25Z</time>
      </trkpt>
      <trkpt lat="44.59021" lon="7.07265">
        <ele>1297.4</ele>
        <time>2022-07-18T09:07:26Z</time>
      </trkpt>
      <trkpt lat="44.59024" lon="7.07255">
        <ele>1297</ele>
        <time>2022-07-18T09:07:27Z</time>
      </trkpt>
      <trkpt lat="44.59028" lon="7.07246">
        <ele>1296.6</ele>
        <time>2022-07-18T09:07:28Z</time>
      </trkpt>
      <trkpt lat="44.59032" lon="7.07236">
        <ele>1296.2</ele>
        <time>2022-07-18T09:07:29Z</time>
      </trkpt>
      <trkpt lat="44.59036" lon="7.07226">
        <ele>1295.8</ele>
        <time>2022-07-18T09:07:30Z</time>
      </trkpt>
      <trkpt lat="44.59041" lon="7.07216">
        <ele>1295.4</ele>
        <time>2022-07-18T09:07:31Z</time>
      </trkpt>
      <trkpt lat="44.59045" lon="7.07205">
        <ele>1294.8</ele>
        <time>2022-07-18T09:07:32Z</time>
      </trkpt>
      <trkpt lat="44.59049" lon="7.07194">
        <ele>1294.4</ele>
        <time>2022-07-18T09:07:33Z</time>
      </trkpt>
      <trkpt lat="44.59052" lon="7.07182">
        <ele>1294</ele>
        <time>2022-07-18T09:07:34Z</time>
      </trkpt>
      <trkpt lat="44.59054" lon="7.07169">
        <ele>1293.4</ele>
        <time>2022-07-18T09:07:35Z</time>
      </trkpt>
      <trkpt lat="44.59056" lon="7.07156">
        <ele>1292.8</ele>
        <time>2022-07-18T09:07:36Z</time>
      </trkpt>
      <trkpt lat="44.59057" lon="7.07143">
        <ele>1292.2</ele>
        <time>2022-07-18T09:07:37Z</time>
      </trkpt>
      <trkpt lat="44.59057" lon="7.07131">
        <ele>1291.6</ele>
        <time>2022-07-18T09:07:38Z</time>
      </trkpt>
      <trkpt lat="44.59056" lon="7.07117">
        <ele>1291.2</ele>
        <time>2022-07-18T09:07:39Z</time>
      </trkpt>
      <trkpt lat="44.59053" lon="7.07104">
        <ele>1290.6</ele>
        <time>2022-07-18T09:07:40Z</time>
      </trkpt>
      <trkpt lat="44.59052" lon="7.07091">
        <ele>1290.2</ele>
        <time>2022-07-18T09:07:41Z</time>
      </trkpt>
      <trkpt lat="44.59051" lon="7.07078">
        <ele>1289.6</ele>
        <time>2022-07-18T09:07:42Z</time>
      </trkpt>
      <trkpt lat="44.59051" lon="7.07067">
        <ele>1289.2</ele>
        <time>2022-07-18T09:07:43Z</time>
      </trkpt>
      <trkpt lat="44.59052" lon="7.07056">
        <ele>1288.6</ele>
        <time>2022-07-18T09:07:44Z</time>
      </trkpt>
      <trkpt lat="44.59056" lon="7.07046">
        <ele>1288.2</ele>
        <time>2022-07-18T09:07:45Z</time>
      </trkpt>
      <trkpt lat="44.5906" lon="7.07036">
        <ele>1287.8</ele>
        <time>2022-07-18T09:07:46Z</time>
      </trkpt>
      <trkpt lat="44.59066" lon="7.07028">
        <ele>1287.2</ele>
        <time>2022-07-18T09:07:47Z</time>
      </trkpt>
      <trkpt lat="44.59073" lon="7.07021">
        <ele>1286.6</ele>
        <time>2022-07-18T09:07:48Z</time>
      </trkpt>
      <trkpt lat="44.5908" lon="7.07013">
        <ele>1286</ele>
        <time>2022-07-18T09:07:49Z</time>
      </trkpt>
      <trkpt lat="44.59088" lon="7.07004">
        <ele>1285.2</ele>
        <time>2022-07-18T09:07:50Z</time>
      </trkpt>
      <trkpt lat="44.59096" lon="7.06996">
        <ele>1284.4</ele>
        <time>2022-07-18T09:07:51Z</time>
      </trkpt>
      <trkpt lat="44.59104" lon="7.06988">
        <ele>1283.6</ele>
        <time>2022-07-18T09:07:52Z</time>
      </trkpt>
      <trkpt lat="44.59111" lon="7.0698">
        <ele>1282.8</ele>
        <time>2022-07-18T09:07:53Z</time>
      </trkpt>
      <trkpt lat="44.59119" lon="7.06971">
        <ele>1282</ele>
        <time>2022-07-18T09:07:54Z</time>
      </trkpt>
      <trkpt lat="44.59126" lon="7.06962">
        <ele>1281</ele>
        <time>2022-07-18T09:07:55Z</time>
      </trkpt>
      <trkpt lat="44.59133" lon="7.06953">
        <ele>1280.2</ele>
        <time>2022-07-18T09:07:56Z</time>
      </trkpt>
      <trkpt lat="44.59141" lon="7.06943">
        <ele>1279.4</ele>
        <time>2022-07-18T09:07:57Z</time>
      </trkpt>
      <trkpt lat="44.59148" lon="7.06934">
        <ele>1278.6</ele>
        <time>2022-07-18T09:07:58Z</time>
      </trkpt>
      <trkpt lat="44.59155" lon="7.06925">
        <ele>1277.6</ele>
        <time>2022-07-18T09:07:59Z</time>
      </trkpt>
      <trkpt lat="44.59161" lon="7.06916">
        <ele>1276.8</ele>
        <time>2022-07-18T09:08:00Z</time>
      </trkpt>
      <trkpt lat="44.59168" lon="7.06907">
        <ele>1275.8</ele>
        <time>2022-07-18T09:08:01Z</time>
      </trkpt>
      <trkpt lat="44.59174" lon="7.06897">
        <ele>1275</ele>
        <time>2022-07-18T09:08:02Z</time>
      </trkpt>
      <trkpt lat="44.5918" lon="7.06888">
        <ele>1274.2</ele>
        <time>2022-07-18T09:08:03Z</time>
      </trkpt>
      <trkpt lat="44.59186" lon="7.06879">
        <ele>1273.4</ele>
        <time>2022-07-18T09:08:04Z</time>
      </trkpt>
      <trkpt lat="44.59193" lon="7.0687">
        <ele>1272.6</ele>
        <time>2022-07-18T09:08:05Z</time>
      </trkpt>
      <trkpt lat="44.59199" lon="7.06861">
        <ele>1272</ele>
        <time>2022-07-18T09:08:06Z</time>
      </trkpt>
      <trkpt lat="44.59206" lon="7.06851">
        <ele>1271.4</ele>
        <time>2022-07-18T09:08:07Z</time>
      </trkpt>
      <trkpt lat="44.59213" lon="7.06842">
        <ele>1271.2</ele>
        <time>2022-07-18T09:08:08Z</time>
      </trkpt>
      <trkpt lat="44.59219" lon="7.06832">
        <ele>1270.8</ele>
        <time>2022-07-18T09:08:09Z</time>
      </trkpt>
      <trkpt lat="44.59226" lon="7.06823">
        <ele>1270.6</ele>
        <time>2022-07-18T09:08:10Z</time>
      </trkpt>
      <trkpt lat="44.59233" lon="7.06815">
        <ele>1270.4</ele>
        <time>2022-07-18T09:08:11Z</time>
      </trkpt>
      <trkpt lat="44.5924" lon="7.06807">
        <ele>1270</ele>
        <time>2022-07-18T09:08:12Z</time>
      </trkpt>
      <trkpt lat="44.59247" lon="7.068">
        <ele>1270</ele>
        <time>2022-07-18T09:08:13Z</time>
      </trkpt>
      <trkpt lat="44.59255" lon="7.06793">
        <ele>1269.8</ele>
        <time>2022-07-18T09:08:14Z</time>
      </trkpt>
      <trkpt lat="44.59262" lon="7.06786">
        <ele>1269.8</ele>
        <time>2022-07-18T09:08:15Z</time>
      </trkpt>
      <trkpt lat="44.5927" lon="7.06781">
        <ele>1269.6</ele>
        <time>2022-07-18T09:08:16Z</time>
      </trkpt>
      <trkpt lat="44.59279" lon="7.06776">
        <ele>1269.6</ele>
        <time>2022-07-18T09:08:17Z</time>
      </trkpt>
      <trkpt lat="44.59287" lon="7.0677">
        <ele>1269.6</ele>
        <time>2022-07-18T09:08:18Z</time>
      </trkpt>
      <trkpt lat="44.59295" lon="7.06765">
        <ele>1269.2</ele>
        <time>2022-07-18T09:08:19Z</time>
      </trkpt>
      <trkpt lat="44.59303" lon="7.06759">
        <ele>1269.2</ele>
        <time>2022-07-18T09:08:20Z</time>
      </trkpt>
      <trkpt lat="44.59311" lon="7.06754">
        <ele>1269.2</ele>
        <time>2022-07-18T09:08:21Z</time>
      </trkpt>
      <trkpt lat="44.59319" lon="7.06749">
        <ele>1269.2</ele>
        <time>2022-07-18T09:08:22Z</time>
      </trkpt>
      <trkpt lat="44.59327" lon="7.06744">
        <ele>1269.2</ele>
        <time>2022-07-18T09:08:23Z</time>
      </trkpt>
      <trkpt lat="44.59334" lon="7.06739">
        <ele>1269</ele>
        <time>2022-07-18T09:08:24Z</time>
      </trkpt>
      <trkpt lat="44.59342" lon="7.06734">
        <ele>1269</ele>
        <time>2022-07-18T09:08:25Z</time>
      </trkpt>
      <trkpt lat="44.5935" lon="7.0673">
        <ele>1269</ele>
        <time>2022-07-18T09:08:26Z</time>
      </trkpt>
      <trkpt lat="44.59357" lon="7.06725">
        <ele>1268.6</ele>
        <time>2022-07-18T09:08:27Z</time>
      </trkpt>
      <trkpt lat="44.59364" lon="7.06721">
        <ele>1268.6</ele>
        <time>2022-07-18T09:08:28Z</time>
      </trkpt>
      <trkpt lat="44.59371" lon="7.06717">
        <ele>1268.4</ele>
        <time>2022-07-18T09:08:29Z</time>
      </trkpt>
      <trkpt lat="44.59377" lon="7.06713">
        <ele>1268.4</ele>
        <time>2022-07-18T09:08:30Z</time>
      </trkpt>
      <trkpt lat="44.59382" lon="7.06708">
        <ele>1268.2</ele>
        <time>2022-07-18T09:08:31Z</time>
      </trkpt>
      <trkpt lat="44.59387" lon="7.06703">
        <ele>1268.2</ele>
        <time>2022-07-18T09:08:32Z</time>
      </trkpt>
      <trkpt lat="44.59391" lon="7.06696">
        <ele>1267.6</ele>
        <time>2022-07-18T09:08:33Z</time>
      </trkpt>
      <trkpt lat="44.59392" lon="7.06686">
        <ele>1267.4</ele>
        <time>2022-07-18T09:08:34Z</time>
      </trkpt>
      <trkpt lat="44.59391" lon="7.06677">
        <ele>1267</ele>
        <time>2022-07-18T09:08:35Z</time>
      </trkpt>
      <trkpt lat="44.59388" lon="7.06669">
        <ele>1266.8</ele>
        <time>2022-07-18T09:08:36Z</time>
      </trkpt>
      <trkpt lat="44.59383" lon="7.06664">
        <ele>1266.8</ele>
        <time>2022-07-18T09:08:37Z</time>
      </trkpt>
      <trkpt lat="44.59376" lon="7.06662">
        <ele>1266.6</ele>
        <time>2022-07-18T09:08:38Z</time>
      </trkpt>
      <trkpt lat="44.59369" lon="7.06663">
        <ele>1266.6</ele>
        <time>2022-07-18T09:08:39Z</time>
      </trkpt>
      <trkpt lat="44.59361" lon="7.06666">
        <ele>1266.4</ele>
        <time>2022-07-18T09:08:40Z</time>
      </trkpt>
      <trkpt lat="44.59354" lon="7.06672">
        <ele>1266</ele>
        <time>2022-07-18T09:08:41Z</time>
      </trkpt>
      <trkpt lat="44.59346" lon="7.06678">
        <ele>1265.8</ele>
        <time>2022-07-18T09:08:42Z</time>
      </trkpt>
      <trkpt lat="44.59339" lon="7.06685">
        <ele>1265.6</ele>
        <time>2022-07-18T09:08:43Z</time>
      </trkpt>
      <trkpt lat="44.59332" lon="7.06692">
        <ele>1265</ele>
        <time>2022-07-18T09:08:44Z</time>
      </trkpt>
      <trkpt lat="44.59325" lon="7.06698">
        <ele>1264.8</ele>
        <time>2022-07-18T09:08:45Z</time>
      </trkpt>
      <trkpt lat="44.59318" lon="7.06705">
        <ele>1264.4</ele>
        <time>2022-07-18T09:08:46Z</time>
      </trkpt>
      <trkpt lat="44.59311" lon="7.06712">
        <ele>1264</ele>
        <time>2022-07-18T09:08:47Z</time>
      </trkpt>
      <trkpt lat="44.59304" lon="7.06719">
        <ele>1263.6</ele>
        <time>2022-07-18T09:08:48Z</time>
      </trkpt>
      <trkpt lat="44.59297" lon="7.06725">
        <ele>1263</ele>
        <time>2022-07-18T09:08:49Z</time>
      </trkpt>
      <trkpt lat="44.59289" lon="7.06732">
        <ele>1263</ele>
        <time>2022-07-18T09:08:50Z</time>
      </trkpt>
      <trkpt lat="44.59282" lon="7.06739">
        <ele>1262.6</ele>
        <time>2022-07-18T09:08:51Z</time>
      </trkpt>
      <trkpt lat="44.59275" lon="7.06745">
        <ele>1262.2</ele>
        <time>2022-07-18T09:08:52Z</time>
      </trkpt>
      <trkpt lat="44.59268" lon="7.06752">
        <ele>1262</ele>
        <time>2022-07-18T09:08:53Z</time>
      </trkpt>
      <trkpt lat="44.59261" lon="7.06758">
        <ele>1261.6</ele>
        <time>2022-07-18T09:08:54Z</time>
      </trkpt>
      <trkpt lat="44.59253" lon="7.06764">
        <ele>1261.4</ele>
        <time>2022-07-18T09:08:55Z</time>
      </trkpt>
      <trkpt lat="44.59246" lon="7.06769">
        <ele>1261.2</ele>
        <time>2022-07-18T09:08:56Z</time>
      </trkpt>
      <trkpt lat="44.59238" lon="7.06774">
        <ele>1260.8</ele>
        <time>2022-07-18T09:08:57Z</time>
      </trkpt>
      <trkpt lat="44.5923" lon="7.06777">
        <ele>1260.4</ele>
        <time>2022-07-18T09:08:58Z</time>
      </trkpt>
      <trkpt lat="44.59222" lon="7.0678">
        <ele>1259.8</ele>
        <time>2022-07-18T09:08:59Z</time>
      </trkpt>
      <trkpt lat="44.59213" lon="7.06781">
        <ele>1259.2</ele>
        <time>2022-07-18T09:09:00Z</time>
      </trkpt>
      <trkpt lat="44.59205" lon="7.06782">
        <ele>1258.6</ele>
        <time>2022-07-18T09:09:01Z</time>
      </trkpt>
      <trkpt lat="44.59196" lon="7.06782">
        <ele>1257.8</ele>
        <time>2022-07-18T09:09:02Z</time>
      </trkpt>
      <trkpt lat="44.59187" lon="7.0678">
        <ele>1257</ele>
        <time>2022-07-18T09:09:03Z</time>
      </trkpt>
      <trkpt lat="44.59177" lon="7.06779">
        <ele>1256.2</ele>
        <time>2022-07-18T09:09:04Z</time>
      </trkpt>
      <trkpt lat="44.59168" lon="7.06778">
        <ele>1255.4</ele>
        <time>2022-07-18T09:09:05Z</time>
      </trkpt>
      <trkpt lat="44.59159" lon="7.06777">
        <ele>1254.6</ele>
        <time>2022-07-18T09:09:06Z</time>
      </trkpt>
      <trkpt lat="44.5915" lon="7.06778">
        <ele>1253.8</ele>
        <time>2022-07-18T09:09:07Z</time>
      </trkpt>
      <trkpt lat="44.59141" lon="7.06779">
        <ele>1253</ele>
        <time>2022-07-18T09:09:08Z</time>
      </trkpt>
      <trkpt lat="44.59133" lon="7.06783">
        <ele>1252.2</ele>
        <time>2022-07-18T09:09:09Z</time>
      </trkpt>
      <trkpt lat="44.59124" lon="7.06788">
        <ele>1251.6</ele>
        <time>2022-07-18T09:09:10Z</time>
      </trkpt>
      <trkpt lat="44.59117" lon="7.06796">
        <ele>1250.8</ele>
        <time>2022-07-18T09:09:11Z</time>
      </trkpt>
      <trkpt lat="44.5911" lon="7.06805">
        <ele>1250.2</ele>
        <time>2022-07-18T09:09:12Z</time>
      </trkpt>
      <trkpt lat="44.59104" lon="7.06814">
        <ele>1249.4</ele>
        <time>2022-07-18T09:09:13Z</time>
      </trkpt>
      <trkpt lat="44.59098" lon="7.06825">
        <ele>1248.8</ele>
        <time>2022-07-18T09:09:14Z</time>
      </trkpt>
      <trkpt lat="44.59092" lon="7.06834">
        <ele>1248.4</ele>
        <time>2022-07-18T09:09:15Z</time>
      </trkpt>
      <trkpt lat="44.59085" lon="7.06843">
        <ele>1247.6</ele>
        <time>2022-07-18T09:09:16Z</time>
      </trkpt>
      <trkpt lat="44.59078" lon="7.06851">
        <ele>1246.8</ele>
        <time>2022-07-18T09:09:17Z</time>
      </trkpt>
      <trkpt lat="44.59069" lon="7.06857">
        <ele>1246</ele>
        <time>2022-07-18T09:09:18Z</time>
      </trkpt>
      <trkpt lat="44.5906" lon="7.06863">
        <ele>1245.2</ele>
        <time>2022-07-18T09:09:19Z</time>
      </trkpt>
      <trkpt lat="44.59051" lon="7.06868">
        <ele>1244.4</ele>
        <time>2022-07-18T09:09:20Z</time>
      </trkpt>
      <trkpt lat="44.59042" lon="7.06873">
        <ele>1243.6</ele>
        <time>2022-07-18T09:09:21Z</time>
      </trkpt>
      <trkpt lat="44.59032" lon="7.06878">
        <ele>1242.8</ele>
        <time>2022-07-18T09:09:22Z</time>
      </trkpt>
      <trkpt lat="44.59023" lon="7.06882">
        <ele>1242</ele>
        <time>2022-07-18T09:09:23Z</time>
      </trkpt>
      <trkpt lat="44.59013" lon="7.06887">
        <ele>1241.2</ele>
        <time>2022-07-18T09:09:24Z</time>
      </trkpt>
      <trkpt lat="44.59004" lon="7.06892">
        <ele>1240.4</ele>
        <time>2022-07-18T09:09:25Z</time>
      </trkpt>
      <trkpt lat="44.58994" lon="7.06897">
        <ele>1239.6</ele>
        <time>2022-07-18T09:09:26Z</time>
      </trkpt>
      <trkpt lat="44.58985" lon="7.06902">
        <ele>1238.8</ele>
        <time>2022-07-18T09:09:27Z</time>
      </trkpt>
      <trkpt lat="44.58975" lon="7.06909">
        <ele>1238</ele>
        <time>2022-07-18T09:09:28Z</time>
      </trkpt>
      <trkpt lat="44.58966" lon="7.06918">
        <ele>1237.6</ele>
        <time>2022-07-18T09:09:29Z</time>
      </trkpt>
      <trkpt lat="44.58958" lon="7.06928">
        <ele>1237</ele>
        <time>2022-07-18T09:09:30Z</time>
      </trkpt>
      <trkpt lat="44.5895" lon="7.06938">
        <ele>1236.4</ele>
        <time>2022-07-18T09:09:31Z</time>
      </trkpt>
      <trkpt lat="44.58942" lon="7.06949">
        <ele>1236.2</ele>
        <time>2022-07-18T09:09:32Z</time>
      </trkpt>
      <trkpt lat="44.58935" lon="7.06959">
        <ele>1236.2</ele>
        <time>2022-07-18T09:09:33Z</time>
      </trkpt>
      <trkpt lat="44.58928" lon="7.06969">
        <ele>1236.2</ele>
        <time>2022-07-18T09:09:34Z</time>
      </trkpt>
      <trkpt lat="44.58923" lon="7.0698">
        <ele>1236</ele>
        <time>2022-07-18T09:09:35Z</time>
      </trkpt>
      <trkpt lat="44.58918" lon="7.06992">
        <ele>1236</ele>
        <time>2022-07-18T09:09:36Z</time>
      </trkpt>
      <trkpt lat="44.58914" lon="7.07004">
        <ele>1236</ele>
        <time>2022-07-18T09:09:37Z</time>
      </trkpt>
      <trkpt lat="44.58911" lon="7.07015">
        <ele>1236</ele>
        <time>2022-07-18T09:09:38Z</time>
      </trkpt>
      <trkpt lat="44.58907" lon="7.07024">
        <ele>1236</ele>
        <time>2022-07-18T09:09:39Z</time>
      </trkpt>
      <trkpt lat="44.58903" lon="7.07034">
        <ele>1236</ele>
        <time>2022-07-18T09:09:40Z</time>
      </trkpt>
      <trkpt lat="44.589" lon="7.07044">
        <ele>1236.6</ele>
        <time>2022-07-18T09:09:41Z</time>
      </trkpt>
      <trkpt lat="44.58897" lon="7.07053">
        <ele>1236.8</ele>
        <time>2022-07-18T09:09:42Z</time>
      </trkpt>
      <trkpt lat="44.58893" lon="7.07061">
        <ele>1237.2</ele>
        <time>2022-07-18T09:09:43Z</time>
      </trkpt>
      <trkpt lat="44.58891" lon="7.07069">
        <ele>1237.6</ele>
        <time>2022-07-18T09:09:44Z</time>
      </trkpt>
      <trkpt lat="44.58889" lon="7.07077">
        <ele>1237.8</ele>
        <time>2022-07-18T09:09:45Z</time>
      </trkpt>
      <trkpt lat="44.58887" lon="7.07084">
        <ele>1238.2</ele>
        <time>2022-07-18T09:09:46Z</time>
      </trkpt>
      <trkpt lat="44.58885" lon="7.07091">
        <ele>1238.4</ele>
        <time>2022-07-18T09:09:47Z</time>
      </trkpt>
      <trkpt lat="44.58883" lon="7.07097">
        <ele>1238.8</ele>
        <time>2022-07-18T09:09:48Z</time>
      </trkpt>
      <trkpt lat="44.58881" lon="7.07104">
        <ele>1239.2</ele>
        <time>2022-07-18T09:09:49Z</time>
      </trkpt>
      <trkpt lat="44.5888" lon="7.07109">
        <ele>1239.4</ele>
        <time>2022-07-18T09:09:50Z</time>
      </trkpt>
      <trkpt lat="44.58879" lon="7.07114">
        <ele>1239.6</ele>
        <time>2022-07-18T09:09:51Z</time>
      </trkpt>
      <trkpt lat="44.58878" lon="7.07118">
        <ele>1240</ele>
        <time>2022-07-18T09:09:52Z</time>
      </trkpt>
      <trkpt lat="44.58877" lon="7.07123">
        <ele>1240.2</ele>
        <time>2022-07-18T09:09:53Z</time>
      </trkpt>
      <trkpt lat="44.58876" lon="7.07128">
        <ele>1240.4</ele>
        <time>2022-07-18T09:09:54Z</time>
      </trkpt>
      <trkpt lat="44.58875" lon="7.07132">
        <ele>1240.6</ele>
        <time>2022-07-18T09:09:55Z</time>
      </trkpt>
      <trkpt lat="44.58874" lon="7.07137">
        <ele>1241</ele>
        <time>2022-07-18T09:09:56Z</time>
      </trkpt>
      <trkpt lat="44.58874" lon="7.07142">
        <ele>1241.2</ele>
        <time>2022-07-18T09:09:57Z</time>
      </trkpt>
      <trkpt lat="44.58874" lon="7.07147">
        <ele>1241.4</ele>
        <time>2022-07-18T09:09:58Z</time>
      </trkpt>
      <trkpt lat="44.58874" lon="7.07153">
        <ele>1241.8</ele>
        <time>2022-07-18T09:09:59Z</time>
      </trkpt>
      <trkpt lat="44.58874" lon="7.07159">
        <ele>1242</ele>
        <time>2022-07-18T09:10:00Z</time>
      </trkpt>
      <trkpt lat="44.58875" lon="7.07165">
        <ele>1242.2</ele>
        <time>2022-07-18T09:10:01Z</time>
      </trkpt>
      <trkpt lat="44.58875" lon="7.07171">
        <ele>1242.6</ele>
        <time>2022-07-18T09:10:02Z</time>
      </trkpt>
      <trkpt lat="44.58875" lon="7.07177">
        <ele>1242.8</ele>
        <time>2022-07-18T09:10:03Z</time>
      </trkpt>
      <trkpt lat="44.58875" lon="7.07183">
        <ele>1243.2</ele>
        <time>2022-07-18T09:10:04Z</time>
      </trkpt>
      <trkpt lat="44.58875" lon="7.0719">
        <ele>1243.4</ele>
        <time>2022-07-18T09:10:05Z</time>
      </trkpt>
      <trkpt lat="44.58875" lon="7.07196">
        <ele>1243.6</ele>
        <time>2022-07-18T09:10:06Z</time>
      </trkpt>
      <trkpt lat="44.58876" lon="7.07202">
        <ele>1243.8</ele>
        <time>2022-07-18T09:10:07Z</time>
      </trkpt>
      <trkpt lat="44.58876" lon="7.07208">
        <ele>1244.2</ele>
        <time>2022-07-18T09:10:08Z</time>
      </trkpt>
      <trkpt lat="44.58877" lon="7.07214">
        <ele>1244.2</ele>
        <time>2022-07-18T09:10:09Z</time>
      </trkpt>
      <trkpt lat="44.58878" lon="7.07219">
        <ele>1244.4</ele>
        <time>2022-07-18T09:10:10Z</time>
      </trkpt>
      <trkpt lat="44.58879" lon="7.07224">
        <ele>1244.4</ele>
        <time>2022-07-18T09:10:11Z</time>
      </trkpt>
      <trkpt lat="44.58879" lon="7.0723">
        <ele>1244.8</ele>
        <time>2022-07-18T09:10:12Z</time>
      </trkpt>
      <trkpt lat="44.5888" lon="7.07236">
        <ele>1245</ele>
        <time>2022-07-18T09:10:13Z</time>
      </trkpt>
      <trkpt lat="44.58881" lon="7.07242">
        <ele>1245</ele>
        <time>2022-07-18T09:10:14Z</time>
      </trkpt>
      <trkpt lat="44.58881" lon="7.07248">
        <ele>1245</ele>
        <time>2022-07-18T09:10:15Z</time>
      </trkpt>
      <trkpt lat="44.5888" lon="7.07256">
        <ele>1245</ele>
        <time>2022-07-18T09:10:16Z</time>
      </trkpt>
      <trkpt lat="44.58879" lon="7.07263">
        <ele>1245</ele>
        <time>2022-07-18T09:10:17Z</time>
      </trkpt>
      <trkpt lat="44.58878" lon="7.07271">
        <ele>1244.6</ele>
        <time>2022-07-18T09:10:18Z</time>
      </trkpt>
      <trkpt lat="44.58877" lon="7.07279">
        <ele>1244.6</ele>
        <time>2022-07-18T09:10:19Z</time>
      </trkpt>
      <trkpt lat="44.58876" lon="7.07287">
        <ele>1244.4</ele>
        <time>2022-07-18T09:10:20Z</time>
      </trkpt>
      <trkpt lat="44.58874" lon="7.07295">
        <ele>1244.4</ele>
        <time>2022-07-18T09:10:21Z</time>
      </trkpt>
      <trkpt lat="44.58872" lon="7.07304">
        <ele>1244.2</ele>
        <time>2022-07-18T09:10:22Z</time>
      </trkpt>
      <trkpt lat="44.5887" lon="7.07312">
        <ele>1244</ele>
        <time>2022-07-18T09:10:23Z</time>
      </trkpt>
      <trkpt lat="44.58867" lon="7.07321">
        <ele>1243.8</ele>
        <time>2022-07-18T09:10:24Z</time>
      </trkpt>
      <trkpt lat="44.58865" lon="7.0733">
        <ele>1243.4</ele>
        <time>2022-07-18T09:10:25Z</time>
      </trkpt>
      <trkpt lat="44.58863" lon="7.07339">
        <ele>1243.2</ele>
        <time>2022-07-18T09:10:26Z</time>
      </trkpt>
      <trkpt lat="44.5886" lon="7.07348">
        <ele>1243.2</ele>
        <time>2022-07-18T09:10:27Z</time>
      </trkpt>
      <trkpt lat="44.58858" lon="7.07357">
        <ele>1242.8</ele>
        <time>2022-07-18T09:10:28Z</time>
      </trkpt>
      <trkpt lat="44.58855" lon="7.07366">
        <ele>1242.4</ele>
        <time>2022-07-18T09:10:29Z</time>
      </trkpt>
      <trkpt lat="44.58851" lon="7.07374">
        <ele>1242.4</ele>
        <time>2022-07-18T09:10:30Z</time>
      </trkpt>
      <trkpt lat="44.58848" lon="7.07383">
        <ele>1242.2</ele>
        <time>2022-07-18T09:10:31Z</time>
      </trkpt>
      <trkpt lat="44.58845" lon="7.07392">
        <ele>1242.2</ele>
        <time>2022-07-18T09:10:32Z</time>
      </trkpt>
      <trkpt lat="44.58841" lon="7.074">
        <ele>1241.8</ele>
        <time>2022-07-18T09:10:33Z</time>
      </trkpt>
      <trkpt lat="44.58837" lon="7.07409">
        <ele>1241.8</ele>
        <time>2022-07-18T09:10:34Z</time>
      </trkpt>
      <trkpt lat="44.58833" lon="7.07417">
        <ele>1241.8</ele>
        <time>2022-07-18T09:10:35Z</time>
      </trkpt>
      <trkpt lat="44.58829" lon="7.07425">
        <ele>1241.6</ele>
        <time>2022-07-18T09:10:36Z</time>
      </trkpt>
      <trkpt lat="44.58825" lon="7.07434">
        <ele>1241.6</ele>
        <time>2022-07-18T09:10:37Z</time>
      </trkpt>
      <trkpt lat="44.5882" lon="7.07442">
        <ele>1241.4</ele>
        <time>2022-07-18T09:10:38Z</time>
      </trkpt>
      <trkpt lat="44.58816" lon="7.0745">
        <ele>1241.4</ele>
        <time>2022-07-18T09:10:39Z</time>
      </trkpt>
      <trkpt lat="44.58812" lon="7.07459">
        <ele>1241</ele>
        <time>2022-07-18T09:10:40Z</time>
      </trkpt>
      <trkpt lat="44.58808" lon="7.07467">
        <ele>1241</ele>
        <time>2022-07-18T09:10:41Z</time>
      </trkpt>
      <trkpt lat="44.58804" lon="7.07475">
        <ele>1241</ele>
        <time>2022-07-18T09:10:42Z</time>
      </trkpt>
      <trkpt lat="44.588" lon="7.07483">
        <ele>1241</ele>
        <time>2022-07-18T09:10:43Z</time>
      </trkpt>
      <trkpt lat="44.58796" lon="7.07492">
        <ele>1241</ele>
        <time>2022-07-18T09:10:44Z</time>
      </trkpt>
      <trkpt lat="44.58793" lon="7.075">
        <ele>1241</ele>
        <time>2022-07-18T09:10:45Z</time>
      </trkpt>
      <trkpt lat="44.58789" lon="7.07508">
        <ele>1241</ele>
        <time>2022-07-18T09:10:46Z</time>
      </trkpt>
      <trkpt lat="44.58785" lon="7.07516">
        <ele>1241</ele>
        <time>2022-07-18T09:10:47Z</time>
      </trkpt>
      <trkpt lat="44.58782" lon="7.07524">
        <ele>1241.2</ele>
        <time>2022-07-18T09:10:48Z</time>
      </trkpt>
      <trkpt lat="44.58778" lon="7.07532">
        <ele>1241.2</ele>
        <time>2022-07-18T09:10:49Z</time>
      </trkpt>
      <trkpt lat="44.58775" lon="7.07539">
        <ele>1241.2</ele>
        <time>2022-07-18T09:10:50Z</time>
      </trkpt>
      <trkpt lat="44.58771" lon="7.07547">
        <ele>1241.2</ele>
        <time>2022-07-18T09:10:51Z</time>
      </trkpt>
      <trkpt lat="44.58768" lon="7.07555">
        <ele>1241.2</ele>
        <time>2022-07-18T09:10:52Z</time>
      </trkpt>
      <trkpt lat="44.58764" lon="7.07562">
        <ele>1241.2</ele>
        <time>2022-07-18T09:10:53Z</time>
      </trkpt>
      <trkpt lat="44.58761" lon="7.0757">
        <ele>1241.2</ele>
        <time>2022-07-18T09:10:54Z</time>
      </trkpt>
      <trkpt lat="44.58754" lon="7.07584">
        <ele>1241.2</ele>
        <time>2022-07-18T09:10:55Z</time>
      </trkpt>
      <trkpt lat="44.5875" lon="7.07592">
        <ele>1240.8</ele>
        <time>2022-07-18T09:10:56Z</time>
      </trkpt>
      <trkpt lat="44.58746" lon="7.076">
        <ele>1240.8</ele>
        <time>2022-07-18T09:10:57Z</time>
      </trkpt>
      <trkpt lat="44.58742" lon="7.07607">
        <ele>1240.8</ele>
        <time>2022-07-18T09:10:58Z</time>
      </trkpt>
      <trkpt lat="44.58738" lon="7.07614">
        <ele>1240.8</ele>
        <time>2022-07-18T09:10:59Z</time>
      </trkpt>
      <trkpt lat="44.58733" lon="7.0762">
        <ele>1240.8</ele>
        <time>2022-07-18T09:11:00Z</time>
      </trkpt>
      <trkpt lat="44.58728" lon="7.07626">
        <ele>1240.8</ele>
        <time>2022-07-18T09:11:01Z</time>
      </trkpt>
      <trkpt lat="44.58723" lon="7.07632">
        <ele>1240.8</ele>
        <time>2022-07-18T09:11:02Z</time>
      </trkpt>
      <trkpt lat="44.58718" lon="7.07638">
        <ele>1240.8</ele>
        <time>2022-07-18T09:11:03Z</time>
      </trkpt>
      <trkpt lat="44.58713" lon="7.07643">
        <ele>1241.2</ele>
        <time>2022-07-18T09:11:04Z</time>
      </trkpt>
      <trkpt lat="44.58707" lon="7.07647">
        <ele>1241.2</ele>
        <time>2022-07-18T09:11:05Z</time>
      </trkpt>
      <trkpt lat="44.58702" lon="7.07652">
        <ele>1241.4</ele>
        <time>2022-07-18T09:11:06Z</time>
      </trkpt>
      <trkpt lat="44.58696" lon="7.07656">
        <ele>1241.4</ele>
        <time>2022-07-18T09:11:07Z</time>
      </trkpt>
      <trkpt lat="44.58691" lon="7.0766">
        <ele>1241.4</ele>
        <time>2022-07-18T09:11:08Z</time>
      </trkpt>
      <trkpt lat="44.58686" lon="7.07664">
        <ele>1241.4</ele>
        <time>2022-07-18T09:11:09Z</time>
      </trkpt>
      <trkpt lat="44.5868" lon="7.07668">
        <ele>1241.4</ele>
        <time>2022-07-18T09:11:10Z</time>
      </trkpt>
      <trkpt lat="44.58674" lon="7.07671">
        <ele>1241.4</ele>
        <time>2022-07-18T09:11:11Z</time>
      </trkpt>
      <trkpt lat="44.58669" lon="7.07675">
        <ele>1241.8</ele>
        <time>2022-07-18T09:11:12Z</time>
      </trkpt>
      <trkpt lat="44.58664" lon="7.07678">
        <ele>1241.8</ele>
        <time>2022-07-18T09:11:13Z</time>
      </trkpt>
      <trkpt lat="44.58658" lon="7.07681">
        <ele>1242</ele>
        <time>2022-07-18T09:11:14Z</time>
      </trkpt>
      <trkpt lat="44.58653" lon="7.07685">
        <ele>1242</ele>
        <time>2022-07-18T09:11:15Z</time>
      </trkpt>
      <trkpt lat="44.58648" lon="7.07688">
        <ele>1242</ele>
        <time>2022-07-18T09:11:16Z</time>
      </trkpt>
      <trkpt lat="44.58642" lon="7.07692">
        <ele>1242.4</ele>
        <time>2022-07-18T09:11:17Z</time>
      </trkpt>
      <trkpt lat="44.58637" lon="7.07695">
        <ele>1242.4</ele>
        <time>2022-07-18T09:11:18Z</time>
      </trkpt>
      <trkpt lat="44.58632" lon="7.07698">
        <ele>1242.4</ele>
        <time>2022-07-18T09:11:19Z</time>
      </trkpt>
      <trkpt lat="44.58626" lon="7.07701">
        <ele>1242.4</ele>
        <time>2022-07-18T09:11:20Z</time>
      </trkpt>
      <trkpt lat="44.58621" lon="7.07704">
        <ele>1242.4</ele>
        <time>2022-07-18T09:11:21Z</time>
      </trkpt>
      <trkpt lat="44.58615" lon="7.07707">
        <ele>1242.4</ele>
        <time>2022-07-18T09:11:22Z</time>
      </trkpt>
      <trkpt lat="44.5861" lon="7.0771">
        <ele>1242.4</ele>
        <time>2022-07-18T09:11:23Z</time>
      </trkpt>
      <trkpt lat="44.58604" lon="7.07713">
        <ele>1242.4</ele>
        <time>2022-07-18T09:11:24Z</time>
      </trkpt>
      <trkpt lat="44.58599" lon="7.07716">
        <ele>1242.6</ele>
        <time>2022-07-18T09:11:25Z</time>
      </trkpt>
      <trkpt lat="44.58593" lon="7.07719">
        <ele>1242.6</ele>
        <time>2022-07-18T09:11:26Z</time>
      </trkpt>
      <trkpt lat="44.58588" lon="7.07723">
        <ele>1242.8</ele>
        <time>2022-07-18T09:11:27Z</time>
      </trkpt>
      <trkpt lat="44.58583" lon="7.07726">
        <ele>1242.8</ele>
        <time>2022-07-18T09:11:28Z</time>
      </trkpt>
      <trkpt lat="44.58577" lon="7.0773">
        <ele>1243</ele>
        <time>2022-07-18T09:11:29Z</time>
      </trkpt>
      <trkpt lat="44.58572" lon="7.07733">
        <ele>1243</ele>
        <time>2022-07-18T09:11:30Z</time>
      </trkpt>
      <trkpt lat="44.58566" lon="7.07737">
        <ele>1243</ele>
        <time>2022-07-18T09:11:31Z</time>
      </trkpt>
      <trkpt lat="44.58561" lon="7.0774">
        <ele>1243.4</ele>
        <time>2022-07-18T09:11:32Z</time>
      </trkpt>
      <trkpt lat="44.58555" lon="7.07744">
        <ele>1243.4</ele>
        <time>2022-07-18T09:11:33Z</time>
      </trkpt>
      <trkpt lat="44.5855" lon="7.07748">
        <ele>1243.4</ele>
        <time>2022-07-18T09:11:34Z</time>
      </trkpt>
      <trkpt lat="44.58546" lon="7.07753">
        <ele>1243.4</ele>
        <time>2022-07-18T09:11:35Z</time>
      </trkpt>
      <trkpt lat="44.58541" lon="7.07758">
        <ele>1243.6</ele>
        <time>2022-07-18T09:11:37Z</time>
      </trkpt>
      <trkpt lat="44.58538" lon="7.07764">
        <ele>1243.6</ele>
        <time>2022-07-18T09:11:38Z</time>
      </trkpt>
      <trkpt lat="44.58534" lon="7.0777">
        <ele>1243.8</ele>
        <time>2022-07-18T09:11:39Z</time>
      </trkpt>
      <trkpt lat="44.58531" lon="7.07777">
        <ele>1243.8</ele>
        <time>2022-07-18T09:11:40Z</time>
      </trkpt>
      <trkpt lat="44.58527" lon="7.07784">
        <ele>1244</ele>
        <time>2022-07-18T09:11:41Z</time>
      </trkpt>
      <trkpt lat="44.58524" lon="7.07791">
        <ele>1244</ele>
        <time>2022-07-18T09:11:42Z</time>
      </trkpt>
      <trkpt lat="44.58521" lon="7.07798">
        <ele>1244</ele>
        <time>2022-07-18T09:11:43Z</time>
      </trkpt>
      <trkpt lat="44.58518" lon="7.07806">
        <ele>1244.4</ele>
        <time>2022-07-18T09:11:44Z</time>
      </trkpt>
      <trkpt lat="44.58515" lon="7.07813">
        <ele>1244.4</ele>
        <time>2022-07-18T09:11:45Z</time>
      </trkpt>
      <trkpt lat="44.58511" lon="7.0782">
        <ele>1244.6</ele>
        <time>2022-07-18T09:11:46Z</time>
      </trkpt>
      <trkpt lat="44.58508" lon="7.07828">
        <ele>1244.6</ele>
        <time>2022-07-18T09:11:47Z</time>
      </trkpt>
      <trkpt lat="44.58506" lon="7.07835">
        <ele>1244.6</ele>
        <time>2022-07-18T09:11:48Z</time>
      </trkpt>
      <trkpt lat="44.58503" lon="7.07842">
        <ele>1244.6</ele>
        <time>2022-07-18T09:11:49Z</time>
      </trkpt>
      <trkpt lat="44.58501" lon="7.0785">
        <ele>1244.8</ele>
        <time>2022-07-18T09:11:50Z</time>
      </trkpt>
      <trkpt lat="44.58499" lon="7.07857">
        <ele>1244.8</ele>
        <time>2022-07-18T09:11:51Z</time>
      </trkpt>
      <trkpt lat="44.58498" lon="7.07864">
        <ele>1244.8</ele>
        <time>2022-07-18T09:11:52Z</time>
      </trkpt>
      <trkpt lat="44.58498" lon="7.07872">
        <ele>1245.2</ele>
        <time>2022-07-18T09:11:53Z</time>
      </trkpt>
      <trkpt lat="44.58498" lon="7.0788">
        <ele>1245.2</ele>
        <time>2022-07-18T09:11:54Z</time>
      </trkpt>
      <trkpt lat="44.58499" lon="7.07887">
        <ele>1245.2</ele>
        <time>2022-07-18T09:11:55Z</time>
      </trkpt>
      <trkpt lat="44.58501" lon="7.07895">
        <ele>1245.4</ele>
        <time>2022-07-18T09:11:56Z</time>
      </trkpt>
      <trkpt lat="44.58503" lon="7.07902">
        <ele>1245.4</ele>
        <time>2022-07-18T09:11:57Z</time>
      </trkpt>
      <trkpt lat="44.58506" lon="7.0791">
        <ele>1245.8</ele>
        <time>2022-07-18T09:11:58Z</time>
      </trkpt>
      <trkpt lat="44.58509" lon="7.07917">
        <ele>1245.8</ele>
        <time>2022-07-18T09:11:59Z</time>
      </trkpt>
      <trkpt lat="44.58511" lon="7.07924">
        <ele>1245.8</ele>
        <time>2022-07-18T09:12:00Z</time>
      </trkpt>
      <trkpt lat="44.58514" lon="7.07932">
        <ele>1245.8</ele>
        <time>2022-07-18T09:12:01Z</time>
      </trkpt>
      <trkpt lat="44.58517" lon="7.0794">
        <ele>1245.8</ele>
        <time>2022-07-18T09:12:02Z</time>
      </trkpt>
      <trkpt lat="44.58519" lon="7.07948">
        <ele>1245.4</ele>
        <time>2022-07-18T09:12:03Z</time>
      </trkpt>
      <trkpt lat="44.58522" lon="7.07957">
        <ele>1245.4</ele>
        <time>2022-07-18T09:12:04Z</time>
      </trkpt>
      <trkpt lat="44.58525" lon="7.07965">
        <ele>1245.4</ele>
        <time>2022-07-18T09:12:05Z</time>
      </trkpt>
      <trkpt lat="44.58528" lon="7.07974">
        <ele>1245</ele>
        <time>2022-07-18T09:12:06Z</time>
      </trkpt>
      <trkpt lat="44.58531" lon="7.07983">
        <ele>1244.8</ele>
        <time>2022-07-18T09:12:07Z</time>
      </trkpt>
      <trkpt lat="44.58534" lon="7.07992">
        <ele>1244.6</ele>
        <time>2022-07-18T09:12:08Z</time>
      </trkpt>
      <trkpt lat="44.58538" lon="7.08001">
        <ele>1244.2</ele>
        <time>2022-07-18T09:12:09Z</time>
      </trkpt>
      <trkpt lat="44.58542" lon="7.08011">
        <ele>1243.8</ele>
        <time>2022-07-18T09:12:10Z</time>
      </trkpt>
      <trkpt lat="44.58546" lon="7.08022">
        <ele>1243.4</ele>
        <time>2022-07-18T09:12:11Z</time>
      </trkpt>
      <trkpt lat="44.58549" lon="7.08033">
        <ele>1242.8</ele>
        <time>2022-07-18T09:12:12Z</time>
      </trkpt>
      <trkpt lat="44.58553" lon="7.08044">
        <ele>1242.4</ele>
        <time>2022-07-18T09:12:13Z</time>
      </trkpt>
      <trkpt lat="44.58556" lon="7.08056">
        <ele>1241.8</ele>
        <time>2022-07-18T09:12:14Z</time>
      </trkpt>
      <trkpt lat="44.58559" lon="7.08068">
        <ele>1241.2</ele>
        <time>2022-07-18T09:12:15Z</time>
      </trkpt>
      <trkpt lat="44.5856" lon="7.08081">
        <ele>1240.8</ele>
        <time>2022-07-18T09:12:16Z</time>
      </trkpt>
      <trkpt lat="44.5856" lon="7.08093">
        <ele>1240.2</ele>
        <time>2022-07-18T09:12:17Z</time>
      </trkpt>
      <trkpt lat="44.5856" lon="7.08106">
        <ele>1239.8</ele>
        <time>2022-07-18T09:12:18Z</time>
      </trkpt>
      <trkpt lat="44.58558" lon="7.08119">
        <ele>1239.2</ele>
        <time>2022-07-18T09:12:19Z</time>
      </trkpt>
      <trkpt lat="44.58555" lon="7.08131">
        <ele>1238.6</ele>
        <time>2022-07-18T09:12:20Z</time>
      </trkpt>
      <trkpt lat="44.58551" lon="7.08144">
        <ele>1238</ele>
        <time>2022-07-18T09:12:21Z</time>
      </trkpt>
      <trkpt lat="44.58546" lon="7.08157">
        <ele>1237.4</ele>
        <time>2022-07-18T09:12:22Z</time>
      </trkpt>
      <trkpt lat="44.58543" lon="7.0817">
        <ele>1236.8</ele>
        <time>2022-07-18T09:12:23Z</time>
      </trkpt>
      <trkpt lat="44.5854" lon="7.08182">
        <ele>1236</ele>
        <time>2022-07-18T09:12:24Z</time>
      </trkpt>
      <trkpt lat="44.58538" lon="7.08195">
        <ele>1235.4</ele>
        <time>2022-07-18T09:12:25Z</time>
      </trkpt>
      <trkpt lat="44.5854" lon="7.08209">
        <ele>1234.8</ele>
        <time>2022-07-18T09:12:26Z</time>
      </trkpt>
      <trkpt lat="44.58544" lon="7.08223">
        <ele>1234</ele>
        <time>2022-07-18T09:12:27Z</time>
      </trkpt>
      <trkpt lat="44.58548" lon="7.08237">
        <ele>1233.2</ele>
        <time>2022-07-18T09:12:28Z</time>
      </trkpt>
      <trkpt lat="44.58554" lon="7.08252">
        <ele>1232.6</ele>
        <time>2022-07-18T09:12:29Z</time>
      </trkpt>
      <trkpt lat="44.58556" lon="7.08268">
        <ele>1231.8</ele>
        <time>2022-07-18T09:12:30Z</time>
      </trkpt>
      <trkpt lat="44.58557" lon="7.08283">
        <ele>1231</ele>
        <time>2022-07-18T09:12:31Z</time>
      </trkpt>
      <trkpt lat="44.58556" lon="7.08299">
        <ele>1230.4</ele>
        <time>2022-07-18T09:12:32Z</time>
      </trkpt>
      <trkpt lat="44.58554" lon="7.08316">
        <ele>1229.6</ele>
        <time>2022-07-18T09:12:33Z</time>
      </trkpt>
      <trkpt lat="44.58551" lon="7.08332">
        <ele>1228.8</ele>
        <time>2022-07-18T09:12:34Z</time>
      </trkpt>
      <trkpt lat="44.58548" lon="7.0835">
        <ele>1228</ele>
        <time>2022-07-18T09:12:35Z</time>
      </trkpt>
      <trkpt lat="44.58546" lon="7.08367">
        <ele>1227.4</ele>
        <time>2022-07-18T09:12:36Z</time>
      </trkpt>
      <trkpt lat="44.58543" lon="7.08385">
        <ele>1226.6</ele>
        <time>2022-07-18T09:12:37Z</time>
      </trkpt>
      <trkpt lat="44.58539" lon="7.08402">
        <ele>1226</ele>
        <time>2022-07-18T09:12:38Z</time>
      </trkpt>
      <trkpt lat="44.58534" lon="7.08419">
        <ele>1225.4</ele>
        <time>2022-07-18T09:12:39Z</time>
      </trkpt>
      <trkpt lat="44.58528" lon="7.08435">
        <ele>1224.8</ele>
        <time>2022-07-18T09:12:40Z</time>
      </trkpt>
      <trkpt lat="44.58523" lon="7.0845">
        <ele>1224</ele>
        <time>2022-07-18T09:12:41Z</time>
      </trkpt>
      <trkpt lat="44.58519" lon="7.08464">
        <ele>1223.4</ele>
        <time>2022-07-18T09:12:42Z</time>
      </trkpt>
      <trkpt lat="44.58517" lon="7.08478">
        <ele>1222.6</ele>
        <time>2022-07-18T09:12:43Z</time>
      </trkpt>
      <trkpt lat="44.58516" lon="7.08493">
        <ele>1221.8</ele>
        <time>2022-07-18T09:12:44Z</time>
      </trkpt>
      <trkpt lat="44.58518" lon="7.08509">
        <ele>1221</ele>
        <time>2022-07-18T09:12:45Z</time>
      </trkpt>
      <trkpt lat="44.58521" lon="7.08526">
        <ele>1220.2</ele>
        <time>2022-07-18T09:12:46Z</time>
      </trkpt>
      <trkpt lat="44.58526" lon="7.08543">
        <ele>1219.4</ele>
        <time>2022-07-18T09:12:47Z</time>
      </trkpt>
      <trkpt lat="44.5853" lon="7.0856">
        <ele>1218.4</ele>
        <time>2022-07-18T09:12:48Z</time>
      </trkpt>
      <trkpt lat="44.58534" lon="7.08578">
        <ele>1217.4</ele>
        <time>2022-07-18T09:12:49Z</time>
      </trkpt>
      <trkpt lat="44.58538" lon="7.08595">
        <ele>1216.4</ele>
        <time>2022-07-18T09:12:50Z</time>
      </trkpt>
      <trkpt lat="44.58542" lon="7.08613">
        <ele>1215.4</ele>
        <time>2022-07-18T09:12:51Z</time>
      </trkpt>
      <trkpt lat="44.58547" lon="7.08631">
        <ele>1214.4</ele>
        <time>2022-07-18T09:12:52Z</time>
      </trkpt>
      <trkpt lat="44.5855" lon="7.08649">
        <ele>1213.2</ele>
        <time>2022-07-18T09:12:53Z</time>
      </trkpt>
      <trkpt lat="44.58553" lon="7.08668">
        <ele>1212.2</ele>
        <time>2022-07-18T09:12:54Z</time>
      </trkpt>
      <trkpt lat="44.58556" lon="7.08685">
        <ele>1211.2</ele>
        <time>2022-07-18T09:12:55Z</time>
      </trkpt>
      <trkpt lat="44.58559" lon="7.08702">
        <ele>1210.2</ele>
        <time>2022-07-18T09:12:56Z</time>
      </trkpt>
      <trkpt lat="44.58562" lon="7.08718">
        <ele>1209.4</ele>
        <time>2022-07-18T09:12:57Z</time>
      </trkpt>
      <trkpt lat="44.58565" lon="7.08735">
        <ele>1208.4</ele>
        <time>2022-07-18T09:12:58Z</time>
      </trkpt>
      <trkpt lat="44.58568" lon="7.08753">
        <ele>1207.4</ele>
        <time>2022-07-18T09:12:59Z</time>
      </trkpt>
      <trkpt lat="44.58571" lon="7.08771">
        <ele>1206.4</ele>
        <time>2022-07-18T09:13:00Z</time>
      </trkpt>
      <trkpt lat="44.58573" lon="7.08789">
        <ele>1205.4</ele>
        <time>2022-07-18T09:13:01Z</time>
      </trkpt>
      <trkpt lat="44.58574" lon="7.08807">
        <ele>1204.4</ele>
        <time>2022-07-18T09:13:02Z</time>
      </trkpt>
      <trkpt lat="44.58575" lon="7.08826">
        <ele>1203.2</ele>
        <time>2022-07-18T09:13:03Z</time>
      </trkpt>
      <trkpt lat="44.58576" lon="7.08844">
        <ele>1202.2</ele>
        <time>2022-07-18T09:13:04Z</time>
      </trkpt>
      <trkpt lat="44.58575" lon="7.08862">
        <ele>1201.2</ele>
        <time>2022-07-18T09:13:05Z</time>
      </trkpt>
      <trkpt lat="44.58574" lon="7.08879">
        <ele>1200</ele>
        <time>2022-07-18T09:13:06Z</time>
      </trkpt>
      <trkpt lat="44.58572" lon="7.08896">
        <ele>1199.2</ele>
        <time>2022-07-18T09:13:07Z</time>
      </trkpt>
      <trkpt lat="44.5857" lon="7.08911">
        <ele>1198.2</ele>
        <time>2022-07-18T09:13:08Z</time>
      </trkpt>
      <trkpt lat="44.58568" lon="7.08924">
        <ele>1197.4</ele>
        <time>2022-07-18T09:13:09Z</time>
      </trkpt>
      <trkpt lat="44.58567" lon="7.08937">
        <ele>1196.6</ele>
        <time>2022-07-18T09:13:10Z</time>
      </trkpt>
      <trkpt lat="44.58565" lon="7.08949">
        <ele>1195.8</ele>
        <time>2022-07-18T09:13:11Z</time>
      </trkpt>
      <trkpt lat="44.58564" lon="7.08958">
        <ele>1195</ele>
        <time>2022-07-18T09:13:12Z</time>
      </trkpt>
      <trkpt lat="44.58562" lon="7.08967">
        <ele>1194.4</ele>
        <time>2022-07-18T09:13:13Z</time>
      </trkpt>
      <trkpt lat="44.58558" lon="7.08972">
        <ele>1193.6</ele>
        <time>2022-07-18T09:13:14Z</time>
      </trkpt>
      <trkpt lat="44.58553" lon="7.08974">
        <ele>1193.2</ele>
        <time>2022-07-18T09:13:15Z</time>
      </trkpt>
      <trkpt lat="44.58547" lon="7.08971">
        <ele>1192.6</ele>
        <time>2022-07-18T09:13:16Z</time>
      </trkpt>
      <trkpt lat="44.58542" lon="7.08965">
        <ele>1192</ele>
        <time>2022-07-18T09:13:17Z</time>
      </trkpt>
      <trkpt lat="44.5854" lon="7.08955">
        <ele>1191.6</ele>
        <time>2022-07-18T09:13:18Z</time>
      </trkpt>
      <trkpt lat="44.58541" lon="7.08944">
        <ele>1191</ele>
        <time>2022-07-18T09:13:19Z</time>
      </trkpt>
      <trkpt lat="44.58544" lon="7.08933">
        <ele>1190.4</ele>
        <time>2022-07-18T09:13:20Z</time>
      </trkpt>
      <trkpt lat="44.58548" lon="7.08922">
        <ele>1189.8</ele>
        <time>2022-07-18T09:13:21Z</time>
      </trkpt>
      <trkpt lat="44.58551" lon="7.0891">
        <ele>1189.2</ele>
        <time>2022-07-18T09:13:22Z</time>
      </trkpt>
      <trkpt lat="44.58554" lon="7.08898">
        <ele>1188.6</ele>
        <time>2022-07-18T09:13:23Z</time>
      </trkpt>
      <trkpt lat="44.58557" lon="7.08887">
        <ele>1188</ele>
        <time>2022-07-18T09:13:24Z</time>
      </trkpt>
      <trkpt lat="44.58559" lon="7.08876">
        <ele>1187.6</ele>
        <time>2022-07-18T09:13:25Z</time>
      </trkpt>
      <trkpt lat="44.58561" lon="7.08867">
        <ele>1187.2</ele>
        <time>2022-07-18T09:13:26Z</time>
      </trkpt>
      <trkpt lat="44.5856" lon="7.08857">
        <ele>1186.8</ele>
        <time>2022-07-18T09:13:27Z</time>
      </trkpt>
      <trkpt lat="44.58557" lon="7.08849">
        <ele>1186.2</ele>
        <time>2022-07-18T09:13:28Z</time>
      </trkpt>
      <trkpt lat="44.58551" lon="7.08845">
        <ele>1185.6</ele>
        <time>2022-07-18T09:13:29Z</time>
      </trkpt>
      <trkpt lat="44.58545" lon="7.08846">
        <ele>1185.2</ele>
        <time>2022-07-18T09:13:30Z</time>
      </trkpt>
      <trkpt lat="44.58539" lon="7.0885">
        <ele>1184.6</ele>
        <time>2022-07-18T09:13:31Z</time>
      </trkpt>
      <trkpt lat="44.58534" lon="7.08857">
        <ele>1184.2</ele>
        <time>2022-07-18T09:13:32Z</time>
      </trkpt>
      <trkpt lat="44.58529" lon="7.08867">
        <ele>1183.6</ele>
        <time>2022-07-18T09:13:33Z</time>
      </trkpt>
      <trkpt lat="44.58525" lon="7.08878">
        <ele>1183</ele>
        <time>2022-07-18T09:13:34Z</time>
      </trkpt>
      <trkpt lat="44.58521" lon="7.08889">
        <ele>1182.6</ele>
        <time>2022-07-18T09:13:35Z</time>
      </trkpt>
      <trkpt lat="44.58517" lon="7.089">
        <ele>1182.2</ele>
        <time>2022-07-18T09:13:36Z</time>
      </trkpt>
      <trkpt lat="44.58513" lon="7.08911">
        <ele>1181.8</ele>
        <time>2022-07-18T09:13:37Z</time>
      </trkpt>
      <trkpt lat="44.58509" lon="7.08922">
        <ele>1181.4</ele>
        <time>2022-07-18T09:13:38Z</time>
      </trkpt>
      <trkpt lat="44.58505" lon="7.08934">
        <ele>1181</ele>
        <time>2022-07-18T09:13:39Z</time>
      </trkpt>
      <trkpt lat="44.58502" lon="7.08947">
        <ele>1180.6</ele>
        <time>2022-07-18T09:13:40Z</time>
      </trkpt>
      <trkpt lat="44.585" lon="7.08959">
        <ele>1180</ele>
        <time>2022-07-18T09:13:41Z</time>
      </trkpt>
      <trkpt lat="44.58498" lon="7.08971">
        <ele>1179.4</ele>
        <time>2022-07-18T09:13:42Z</time>
      </trkpt>
      <trkpt lat="44.58495" lon="7.08982">
        <ele>1179</ele>
        <time>2022-07-18T09:13:43Z</time>
      </trkpt>
      <trkpt lat="44.58492" lon="7.0899">
        <ele>1178.6</ele>
        <time>2022-07-18T09:13:44Z</time>
      </trkpt>
      <trkpt lat="44.58487" lon="7.08997">
        <ele>1178</ele>
        <time>2022-07-18T09:13:45Z</time>
      </trkpt>
      <trkpt lat="44.58482" lon="7.09">
        <ele>1177.6</ele>
        <time>2022-07-18T09:13:46Z</time>
      </trkpt>
      <trkpt lat="44.58476" lon="7.08999">
        <ele>1177</ele>
        <time>2022-07-18T09:13:47Z</time>
      </trkpt>
      <trkpt lat="44.58471" lon="7.08993">
        <ele>1176.4</ele>
        <time>2022-07-18T09:13:48Z</time>
      </trkpt>
      <trkpt lat="44.58467" lon="7.08983">
        <ele>1175.8</ele>
        <time>2022-07-18T09:13:49Z</time>
      </trkpt>
      <trkpt lat="44.58466" lon="7.08972">
        <ele>1175.2</ele>
        <time>2022-07-18T09:13:50Z</time>
      </trkpt>
      <trkpt lat="44.58465" lon="7.0896">
        <ele>1174.8</ele>
        <time>2022-07-18T09:13:51Z</time>
      </trkpt>
      <trkpt lat="44.58464" lon="7.08948">
        <ele>1174.4</ele>
        <time>2022-07-18T09:13:52Z</time>
      </trkpt>
      <trkpt lat="44.58464" lon="7.08935">
        <ele>1173.8</ele>
        <time>2022-07-18T09:13:53Z</time>
      </trkpt>
      <trkpt lat="44.58463" lon="7.08922">
        <ele>1173.2</ele>
        <time>2022-07-18T09:13:54Z</time>
      </trkpt>
      <trkpt lat="44.58462" lon="7.08908">
        <ele>1172.6</ele>
        <time>2022-07-18T09:13:55Z</time>
      </trkpt>
      <trkpt lat="44.58462" lon="7.08894">
        <ele>1171.8</ele>
        <time>2022-07-18T09:13:56Z</time>
      </trkpt>
      <trkpt lat="44.58463" lon="7.08879">
        <ele>1171.2</ele>
        <time>2022-07-18T09:13:57Z</time>
      </trkpt>
      <trkpt lat="44.58464" lon="7.08866">
        <ele>1170.4</ele>
        <time>2022-07-18T09:13:58Z</time>
      </trkpt>
      <trkpt lat="44.58471" lon="7.08846">
        <ele>1169.6</ele>
        <time>2022-07-18T09:13:59Z</time>
      </trkpt>
      <trkpt lat="44.58474" lon="7.08839">
        <ele>1168.8</ele>
        <time>2022-07-18T09:14:00Z</time>
      </trkpt>
      <trkpt lat="44.5848" lon="7.08826">
        <ele>1168.2</ele>
        <time>2022-07-18T09:14:01Z</time>
      </trkpt>
      <trkpt lat="44.58487" lon="7.08813">
        <ele>1167.4</ele>
        <time>2022-07-18T09:14:02Z</time>
      </trkpt>
      <trkpt lat="44.58494" lon="7.088">
        <ele>1166.8</ele>
        <time>2022-07-18T09:14:03Z</time>
      </trkpt>
      <trkpt lat="44.585" lon="7.08788">
        <ele>1166</ele>
        <time>2022-07-18T09:14:04Z</time>
      </trkpt>
      <trkpt lat="44.58506" lon="7.08776">
        <ele>1165.2</ele>
        <time>2022-07-18T09:14:05Z</time>
      </trkpt>
      <trkpt lat="44.58508" lon="7.08765">
        <ele>1164.6</ele>
        <time>2022-07-18T09:14:06Z</time>
      </trkpt>
      <trkpt lat="44.58508" lon="7.08756">
        <ele>1164.2</ele>
        <time>2022-07-18T09:14:07Z</time>
      </trkpt>
      <trkpt lat="44.58505" lon="7.08748">
        <ele>1163.6</ele>
        <time>2022-07-18T09:14:08Z</time>
      </trkpt>
      <trkpt lat="44.58501" lon="7.08742">
        <ele>1163.2</ele>
        <time>2022-07-18T09:14:09Z</time>
      </trkpt>
      <trkpt lat="44.58494" lon="7.08741">
        <ele>1162.8</ele>
        <time>2022-07-18T09:14:10Z</time>
      </trkpt>
      <trkpt lat="44.58486" lon="7.08745">
        <ele>1162.4</ele>
        <time>2022-07-18T09:14:11Z</time>
      </trkpt>
      <trkpt lat="44.58479" lon="7.08751">
        <ele>1162</ele>
        <time>2022-07-18T09:14:12Z</time>
      </trkpt>
      <trkpt lat="44.58472" lon="7.08759">
        <ele>1161.6</ele>
        <time>2022-07-18T09:14:13Z</time>
      </trkpt>
      <trkpt lat="44.58466" lon="7.08768">
        <ele>1161</ele>
        <time>2022-07-18T09:14:14Z</time>
      </trkpt>
      <trkpt lat="44.58459" lon="7.08777">
        <ele>1160.6</ele>
        <time>2022-07-18T09:14:15Z</time>
      </trkpt>
      <trkpt lat="44.58452" lon="7.08785">
        <ele>1160.2</ele>
        <time>2022-07-18T09:14:16Z</time>
      </trkpt>
      <trkpt lat="44.58445" lon="7.08794">
        <ele>1159.8</ele>
        <time>2022-07-18T09:14:17Z</time>
      </trkpt>
      <trkpt lat="44.58437" lon="7.08803">
        <ele>1159.4</ele>
        <time>2022-07-18T09:14:18Z</time>
      </trkpt>
      <trkpt lat="44.5843" lon="7.08812">
        <ele>1158.8</ele>
        <time>2022-07-18T09:14:19Z</time>
      </trkpt>
      <trkpt lat="44.58422" lon="7.08822">
        <ele>1158.4</ele>
        <time>2022-07-18T09:14:20Z</time>
      </trkpt>
      <trkpt lat="44.58414" lon="7.08832">
        <ele>1157.6</ele>
        <time>2022-07-18T09:14:21Z</time>
      </trkpt>
      <trkpt lat="44.58405" lon="7.08842">
        <ele>1157.2</ele>
        <time>2022-07-18T09:14:22Z</time>
      </trkpt>
      <trkpt lat="44.58397" lon="7.08852">
        <ele>1156.6</ele>
        <time>2022-07-18T09:14:23Z</time>
      </trkpt>
      <trkpt lat="44.58389" lon="7.08863">
        <ele>1156</ele>
        <time>2022-07-18T09:14:24Z</time>
      </trkpt>
      <trkpt lat="44.58381" lon="7.08874">
        <ele>1155.4</ele>
        <time>2022-07-18T09:14:25Z</time>
      </trkpt>
      <trkpt lat="44.58374" lon="7.08886">
        <ele>1154.8</ele>
        <time>2022-07-18T09:14:26Z</time>
      </trkpt>
      <trkpt lat="44.58367" lon="7.08899">
        <ele>1154.2</ele>
        <time>2022-07-18T09:14:27Z</time>
      </trkpt>
      <trkpt lat="44.58361" lon="7.08912">
        <ele>1153.6</ele>
        <time>2022-07-18T09:14:28Z</time>
      </trkpt>
      <trkpt lat="44.58355" lon="7.08925">
        <ele>1152.8</ele>
        <time>2022-07-18T09:14:29Z</time>
      </trkpt>
      <trkpt lat="44.5835" lon="7.0894">
        <ele>1152.2</ele>
        <time>2022-07-18T09:14:30Z</time>
      </trkpt>
      <trkpt lat="44.58346" lon="7.08955">
        <ele>1151.4</ele>
        <time>2022-07-18T09:14:31Z</time>
      </trkpt>
      <trkpt lat="44.58343" lon="7.08971">
        <ele>1150.8</ele>
        <time>2022-07-18T09:14:32Z</time>
      </trkpt>
      <trkpt lat="44.58341" lon="7.08987">
        <ele>1150</ele>
        <time>2022-07-18T09:14:33Z</time>
      </trkpt>
      <trkpt lat="44.58339" lon="7.09004">
        <ele>1149.2</ele>
        <time>2022-07-18T09:14:34Z</time>
      </trkpt>
      <trkpt lat="44.58338" lon="7.09022">
        <ele>1148.6</ele>
        <time>2022-07-18T09:14:35Z</time>
      </trkpt>
      <trkpt lat="44.58339" lon="7.09041">
        <ele>1147.8</ele>
        <time>2022-07-18T09:14:36Z</time>
      </trkpt>
      <trkpt lat="44.58341" lon="7.09059">
        <ele>1147</ele>
        <time>2022-07-18T09:14:37Z</time>
      </trkpt>
      <trkpt lat="44.58343" lon="7.09077">
        <ele>1146.2</ele>
        <time>2022-07-18T09:14:38Z</time>
      </trkpt>
      <trkpt lat="44.58346" lon="7.09095">
        <ele>1145.4</ele>
        <time>2022-07-18T09:14:39Z</time>
      </trkpt>
      <trkpt lat="44.58349" lon="7.09112">
        <ele>1144.6</ele>
        <time>2022-07-18T09:14:40Z</time>
      </trkpt>
      <trkpt lat="44.58352" lon="7.09129">
        <ele>1144</ele>
        <time>2022-07-18T09:14:41Z</time>
      </trkpt>
      <trkpt lat="44.58356" lon="7.09146">
        <ele>1143.2</ele>
        <time>2022-07-18T09:14:42Z</time>
      </trkpt>
      <trkpt lat="44.58359" lon="7.09165">
        <ele>1142.4</ele>
        <time>2022-07-18T09:14:43Z</time>
      </trkpt>
      <trkpt lat="44.58363" lon="7.09182">
        <ele>1141.8</ele>
        <time>2022-07-18T09:14:44Z</time>
      </trkpt>
      <trkpt lat="44.58366" lon="7.092">
        <ele>1141</ele>
        <time>2022-07-18T09:14:45Z</time>
      </trkpt>
      <trkpt lat="44.58369" lon="7.09217">
        <ele>1140.4</ele>
        <time>2022-07-18T09:14:46Z</time>
      </trkpt>
      <trkpt lat="44.58371" lon="7.09234">
        <ele>1139.6</ele>
        <time>2022-07-18T09:14:47Z</time>
      </trkpt>
      <trkpt lat="44.58373" lon="7.09252">
        <ele>1138.8</ele>
        <time>2022-07-18T09:14:48Z</time>
      </trkpt>
      <trkpt lat="44.58375" lon="7.0927">
        <ele>1138</ele>
        <time>2022-07-18T09:14:49Z</time>
      </trkpt>
      <trkpt lat="44.58375" lon="7.09289">
        <ele>1137.2</ele>
        <time>2022-07-18T09:14:50Z</time>
      </trkpt>
      <trkpt lat="44.58374" lon="7.09307">
        <ele>1136.4</ele>
        <time>2022-07-18T09:14:51Z</time>
      </trkpt>
      <trkpt lat="44.58374" lon="7.09326">
        <ele>1135.8</ele>
        <time>2022-07-18T09:14:52Z</time>
      </trkpt>
      <trkpt lat="44.58373" lon="7.09343">
        <ele>1135</ele>
        <time>2022-07-18T09:14:53Z</time>
      </trkpt>
      <trkpt lat="44.58372" lon="7.09361">
        <ele>1134.4</ele>
        <time>2022-07-18T09:14:54Z</time>
      </trkpt>
      <trkpt lat="44.5837" lon="7.09379">
        <ele>1134</ele>
        <time>2022-07-18T09:14:55Z</time>
      </trkpt>
      <trkpt lat="44.58369" lon="7.09396">
        <ele>1133.4</ele>
        <time>2022-07-18T09:14:56Z</time>
      </trkpt>
      <trkpt lat="44.58368" lon="7.09412">
        <ele>1132.8</ele>
        <time>2022-07-18T09:14:57Z</time>
      </trkpt>
      <trkpt lat="44.58367" lon="7.09428">
        <ele>1132.4</ele>
        <time>2022-07-18T09:14:58Z</time>
      </trkpt>
      <trkpt lat="44.58366" lon="7.09444">
        <ele>1131.8</ele>
        <time>2022-07-18T09:14:59Z</time>
      </trkpt>
      <trkpt lat="44.58365" lon="7.09461">
        <ele>1131.2</ele>
        <time>2022-07-18T09:15:00Z</time>
      </trkpt>
      <trkpt lat="44.58364" lon="7.09476">
        <ele>1130.8</ele>
        <time>2022-07-18T09:15:01Z</time>
      </trkpt>
      <trkpt lat="44.58362" lon="7.09491">
        <ele>1130.4</ele>
        <time>2022-07-18T09:15:02Z</time>
      </trkpt>
      <trkpt lat="44.58361" lon="7.09507">
        <ele>1130</ele>
        <time>2022-07-18T09:15:03Z</time>
      </trkpt>
      <trkpt lat="44.58359" lon="7.09522">
        <ele>1129.6</ele>
        <time>2022-07-18T09:15:04Z</time>
      </trkpt>
      <trkpt lat="44.58359" lon="7.09538">
        <ele>1129</ele>
        <time>2022-07-18T09:15:05Z</time>
      </trkpt>
      <trkpt lat="44.58358" lon="7.09553">
        <ele>1128.6</ele>
        <time>2022-07-18T09:15:06Z</time>
      </trkpt>
      <trkpt lat="44.58357" lon="7.09568">
        <ele>1128.2</ele>
        <time>2022-07-18T09:15:07Z</time>
      </trkpt>
      <trkpt lat="44.58357" lon="7.09583">
        <ele>1127.8</ele>
        <time>2022-07-18T09:15:08Z</time>
      </trkpt>
      <trkpt lat="44.58356" lon="7.09598">
        <ele>1127.4</ele>
        <time>2022-07-18T09:15:09Z</time>
      </trkpt>
      <trkpt lat="44.58354" lon="7.09612">
        <ele>1127</ele>
        <time>2022-07-18T09:15:10Z</time>
      </trkpt>
      <trkpt lat="44.58353" lon="7.09628">
        <ele>1126.6</ele>
        <time>2022-07-18T09:15:11Z</time>
      </trkpt>
      <trkpt lat="44.58352" lon="7.09642">
        <ele>1126.2</ele>
        <time>2022-07-18T09:15:12Z</time>
      </trkpt>
      <trkpt lat="44.58351" lon="7.09657">
        <ele>1126</ele>
        <time>2022-07-18T09:15:13Z</time>
      </trkpt>
      <trkpt lat="44.5835" lon="7.09671">
        <ele>1125.6</ele>
        <time>2022-07-18T09:15:14Z</time>
      </trkpt>
      <trkpt lat="44.58349" lon="7.09686">
        <ele>1125.2</ele>
        <time>2022-07-18T09:15:15Z</time>
      </trkpt>
      <trkpt lat="44.58348" lon="7.097">
        <ele>1125</ele>
        <time>2022-07-18T09:15:16Z</time>
      </trkpt>
      <trkpt lat="44.58347" lon="7.09714">
        <ele>1124.6</ele>
        <time>2022-07-18T09:15:17Z</time>
      </trkpt>
      <trkpt lat="44.58346" lon="7.09728">
        <ele>1124.2</ele>
        <time>2022-07-18T09:15:18Z</time>
      </trkpt>
      <trkpt lat="44.58346" lon="7.09741">
        <ele>1124</ele>
        <time>2022-07-18T09:15:19Z</time>
      </trkpt>
      <trkpt lat="44.58345" lon="7.09754">
        <ele>1123.4</ele>
        <time>2022-07-18T09:15:20Z</time>
      </trkpt>
      <trkpt lat="44.58344" lon="7.09768">
        <ele>1123.2</ele>
        <time>2022-07-18T09:15:21Z</time>
      </trkpt>
      <trkpt lat="44.58343" lon="7.0978">
        <ele>1122.8</ele>
        <time>2022-07-18T09:15:22Z</time>
      </trkpt>
      <trkpt lat="44.58342" lon="7.09793">
        <ele>1122.6</ele>
        <time>2022-07-18T09:15:23Z</time>
      </trkpt>
      <trkpt lat="44.58341" lon="7.09807">
        <ele>1122.4</ele>
        <time>2022-07-18T09:15:24Z</time>
      </trkpt>
      <trkpt lat="44.58341" lon="7.0982">
        <ele>1122.2</ele>
        <time>2022-07-18T09:15:25Z</time>
      </trkpt>
      <trkpt lat="44.5834" lon="7.09833">
        <ele>1122</ele>
        <time>2022-07-18T09:15:26Z</time>
      </trkpt>
      <trkpt lat="44.58339" lon="7.09846">
        <ele>1122</ele>
        <time>2022-07-18T09:15:27Z</time>
      </trkpt>
      <trkpt lat="44.58339" lon="7.0986">
        <ele>1121.6</ele>
        <time>2022-07-18T09:15:28Z</time>
      </trkpt>
      <trkpt lat="44.58338" lon="7.09874">
        <ele>1121.2</ele>
        <time>2022-07-18T09:15:29Z</time>
      </trkpt>
      <trkpt lat="44.58338" lon="7.09887">
        <ele>1121</ele>
        <time>2022-07-18T09:15:30Z</time>
      </trkpt>
      <trkpt lat="44.58339" lon="7.09901">
        <ele>1121</ele>
        <time>2022-07-18T09:15:31Z</time>
      </trkpt>
      <trkpt lat="44.5834" lon="7.09914">
        <ele>1120.6</ele>
        <time>2022-07-18T09:15:32Z</time>
      </trkpt>
      <trkpt lat="44.5834" lon="7.09928">
        <ele>1120.4</ele>
        <time>2022-07-18T09:15:33Z</time>
      </trkpt>
      <trkpt lat="44.58341" lon="7.09941">
        <ele>1120.4</ele>
        <time>2022-07-18T09:15:34Z</time>
      </trkpt>
      <trkpt lat="44.58342" lon="7.09955">
        <ele>1119.8</ele>
        <time>2022-07-18T09:15:35Z</time>
      </trkpt>
      <trkpt lat="44.58344" lon="7.09968">
        <ele>1119.8</ele>
        <time>2022-07-18T09:15:36Z</time>
      </trkpt>
      <trkpt lat="44.58345" lon="7.09982">
        <ele>1119.4</ele>
        <time>2022-07-18T09:15:37Z</time>
      </trkpt>
      <trkpt lat="44.58346" lon="7.09996">
        <ele>1119.2</ele>
        <time>2022-07-18T09:15:38Z</time>
      </trkpt>
      <trkpt lat="44.58347" lon="7.10009">
        <ele>1119</ele>
        <time>2022-07-18T09:15:39Z</time>
      </trkpt>
      <trkpt lat="44.58349" lon="7.10022">
        <ele>1118.8</ele>
        <time>2022-07-18T09:15:40Z</time>
      </trkpt>
      <trkpt lat="44.5835" lon="7.10035">
        <ele>1118.8</ele>
        <time>2022-07-18T09:15:41Z</time>
      </trkpt>
      <trkpt lat="44.58352" lon="7.10048">
        <ele>1118</ele>
        <time>2022-07-18T09:15:42Z</time>
      </trkpt>
      <trkpt lat="44.58353" lon="7.10061">
        <ele>1117.6</ele>
        <time>2022-07-18T09:15:43Z</time>
      </trkpt>
      <trkpt lat="44.58355" lon="7.10074">
        <ele>1117.4</ele>
        <time>2022-07-18T09:15:44Z</time>
      </trkpt>
      <trkpt lat="44.58355" lon="7.10087">
        <ele>1116.8</ele>
        <time>2022-07-18T09:15:45Z</time>
      </trkpt>
      <trkpt lat="44.58356" lon="7.10101">
        <ele>1116.6</ele>
        <time>2022-07-18T09:15:46Z</time>
      </trkpt>
      <trkpt lat="44.58357" lon="7.10113">
        <ele>1116.4</ele>
        <time>2022-07-18T09:15:47Z</time>
      </trkpt>
      <trkpt lat="44.58359" lon="7.10125">
        <ele>1116.2</ele>
        <time>2022-07-18T09:15:48Z</time>
      </trkpt>
      <trkpt lat="44.5836" lon="7.10138">
        <ele>1115.8</ele>
        <time>2022-07-18T09:15:49Z</time>
      </trkpt>
      <trkpt lat="44.58362" lon="7.1015">
        <ele>1115.6</ele>
        <time>2022-07-18T09:15:50Z</time>
      </trkpt>
      <trkpt lat="44.58363" lon="7.10163">
        <ele>1115.4</ele>
        <time>2022-07-18T09:15:51Z</time>
      </trkpt>
      <trkpt lat="44.58364" lon="7.10175">
        <ele>1115</ele>
        <time>2022-07-18T09:15:52Z</time>
      </trkpt>
      <trkpt lat="44.58365" lon="7.10188">
        <ele>1114.8</ele>
        <time>2022-07-18T09:15:53Z</time>
      </trkpt>
      <trkpt lat="44.58367" lon="7.10201">
        <ele>1114.6</ele>
        <time>2022-07-18T09:15:54Z</time>
      </trkpt>
      <trkpt lat="44.58368" lon="7.10214">
        <ele>1114.4</ele>
        <time>2022-07-18T09:15:55Z</time>
      </trkpt>
      <trkpt lat="44.58369" lon="7.10227">
        <ele>1114</ele>
        <time>2022-07-18T09:15:56Z</time>
      </trkpt>
      <trkpt lat="44.58371" lon="7.1024">
        <ele>1113.8</ele>
        <time>2022-07-18T09:15:57Z</time>
      </trkpt>
      <trkpt lat="44.58372" lon="7.10253">
        <ele>1113.4</ele>
        <time>2022-07-18T09:15:58Z</time>
      </trkpt>
      <trkpt lat="44.58374" lon="7.10266">
        <ele>1113.2</ele>
        <time>2022-07-18T09:15:59Z</time>
      </trkpt>
      <trkpt lat="44.58376" lon="7.1028">
        <ele>1112.8</ele>
        <time>2022-07-18T09:16:00Z</time>
      </trkpt>
      <trkpt lat="44.58376" lon="7.10294">
        <ele>1112.6</ele>
        <time>2022-07-18T09:16:01Z</time>
      </trkpt>
      <trkpt lat="44.58377" lon="7.10307">
        <ele>1112.2</ele>
        <time>2022-07-18T09:16:02Z</time>
      </trkpt>
      <trkpt lat="44.58378" lon="7.10319">
        <ele>1111.8</ele>
        <time>2022-07-18T09:16:03Z</time>
      </trkpt>
      <trkpt lat="44.58379" lon="7.10333">
        <ele>1111.6</ele>
        <time>2022-07-18T09:16:04Z</time>
      </trkpt>
      <trkpt lat="44.58381" lon="7.10346">
        <ele>1111.2</ele>
        <time>2022-07-18T09:16:05Z</time>
      </trkpt>
      <trkpt lat="44.58382" lon="7.10359">
        <ele>1110.8</ele>
        <time>2022-07-18T09:16:06Z</time>
      </trkpt>
      <trkpt lat="44.58384" lon="7.10372">
        <ele>1110.8</ele>
        <time>2022-07-18T09:16:07Z</time>
      </trkpt>
      <trkpt lat="44.58385" lon="7.10386">
        <ele>1110.4</ele>
        <time>2022-07-18T09:16:08Z</time>
      </trkpt>
      <trkpt lat="44.58386" lon="7.10399">
        <ele>1110.2</ele>
        <time>2022-07-18T09:16:09Z</time>
      </trkpt>
      <trkpt lat="44.58387" lon="7.10413">
        <ele>1110</ele>
        <time>2022-07-18T09:16:10Z</time>
      </trkpt>
      <trkpt lat="44.58388" lon="7.10427">
        <ele>1109.8</ele>
        <time>2022-07-18T09:16:11Z</time>
      </trkpt>
      <trkpt lat="44.58389" lon="7.1044">
        <ele>1109.6</ele>
        <time>2022-07-18T09:16:12Z</time>
      </trkpt>
      <trkpt lat="44.58391" lon="7.10453">
        <ele>1109.6</ele>
        <time>2022-07-18T09:16:13Z</time>
      </trkpt>
      <trkpt lat="44.58392" lon="7.10467">
        <ele>1109.2</ele>
        <time>2022-07-18T09:16:14Z</time>
      </trkpt>
      <trkpt lat="44.58394" lon="7.1048">
        <ele>1109.2</ele>
        <time>2022-07-18T09:16:15Z</time>
      </trkpt>
      <trkpt lat="44.58395" lon="7.10493">
        <ele>1108.8</ele>
        <time>2022-07-18T09:16:16Z</time>
      </trkpt>
      <trkpt lat="44.58397" lon="7.10506">
        <ele>1108.4</ele>
        <time>2022-07-18T09:16:17Z</time>
      </trkpt>
      <trkpt lat="44.58397" lon="7.10519">
        <ele>1108</ele>
        <time>2022-07-18T09:16:18Z</time>
      </trkpt>
      <trkpt lat="44.58398" lon="7.10533">
        <ele>1107.8</ele>
        <time>2022-07-18T09:16:19Z</time>
      </trkpt>
      <trkpt lat="44.58399" lon="7.10546">
        <ele>1107.4</ele>
        <time>2022-07-18T09:16:20Z</time>
      </trkpt>
      <trkpt lat="44.58399" lon="7.10558">
        <ele>1107.2</ele>
        <time>2022-07-18T09:16:21Z</time>
      </trkpt>
      <trkpt lat="44.584" lon="7.10571">
        <ele>1106.8</ele>
        <time>2022-07-18T09:16:22Z</time>
      </trkpt>
      <trkpt lat="44.584" lon="7.10584">
        <ele>1106.8</ele>
        <time>2022-07-18T09:16:23Z</time>
      </trkpt>
      <trkpt lat="44.584" lon="7.10597">
        <ele>1106.6</ele>
        <time>2022-07-18T09:16:24Z</time>
      </trkpt>
      <trkpt lat="44.584" lon="7.10611">
        <ele>1106.6</ele>
        <time>2022-07-18T09:16:25Z</time>
      </trkpt>
      <trkpt lat="44.58399" lon="7.10623">
        <ele>1106.2</ele>
        <time>2022-07-18T09:16:26Z</time>
      </trkpt>
      <trkpt lat="44.58398" lon="7.10636">
        <ele>1106.2</ele>
        <time>2022-07-18T09:16:27Z</time>
      </trkpt>
      <trkpt lat="44.58397" lon="7.10649">
        <ele>1105.6</ele>
        <time>2022-07-18T09:16:28Z</time>
      </trkpt>
      <trkpt lat="44.58396" lon="7.10662">
        <ele>1105.2</ele>
        <time>2022-07-18T09:16:29Z</time>
      </trkpt>
      <trkpt lat="44.58394" lon="7.10675">
        <ele>1105</ele>
        <time>2022-07-18T09:16:30Z</time>
      </trkpt>
      <trkpt lat="44.58394" lon="7.10688">
        <ele>1104.8</ele>
        <time>2022-07-18T09:16:31Z</time>
      </trkpt>
      <trkpt lat="44.58392" lon="7.10701">
        <ele>1104.6</ele>
        <time>2022-07-18T09:16:32Z</time>
      </trkpt>
      <trkpt lat="44.58391" lon="7.10713">
        <ele>1104.6</ele>
        <time>2022-07-18T09:16:33Z</time>
      </trkpt>
      <trkpt lat="44.58391" lon="7.10725">
        <ele>1104</ele>
        <time>2022-07-18T09:16:34Z</time>
      </trkpt>
      <trkpt lat="44.5839" lon="7.10738">
        <ele>1103.6</ele>
        <time>2022-07-18T09:16:35Z</time>
      </trkpt>
      <trkpt lat="44.58389" lon="7.1075">
        <ele>1103.4</ele>
        <time>2022-07-18T09:16:36Z</time>
      </trkpt>
      <trkpt lat="44.58387" lon="7.10764">
        <ele>1103.4</ele>
        <time>2022-07-18T09:16:37Z</time>
      </trkpt>
      <trkpt lat="44.58386" lon="7.10777">
        <ele>1103</ele>
        <time>2022-07-18T09:16:38Z</time>
      </trkpt>
      <trkpt lat="44.58384" lon="7.1079">
        <ele>1102.8</ele>
        <time>2022-07-18T09:16:39Z</time>
      </trkpt>
      <trkpt lat="44.58382" lon="7.10803">
        <ele>1102.4</ele>
        <time>2022-07-18T09:16:40Z</time>
      </trkpt>
      <trkpt lat="44.58381" lon="7.10817">
        <ele>1102.2</ele>
        <time>2022-07-18T09:16:41Z</time>
      </trkpt>
      <trkpt lat="44.58381" lon="7.1083">
        <ele>1101.8</ele>
        <time>2022-07-18T09:16:42Z</time>
      </trkpt>
      <trkpt lat="44.5838" lon="7.10843">
        <ele>1101.6</ele>
        <time>2022-07-18T09:16:43Z</time>
      </trkpt>
      <trkpt lat="44.58379" lon="7.10857">
        <ele>1101.4</ele>
        <time>2022-07-18T09:16:44Z</time>
      </trkpt>
      <trkpt lat="44.58377" lon="7.10871">
        <ele>1101.2</ele>
        <time>2022-07-18T09:16:45Z</time>
      </trkpt>
      <trkpt lat="44.58376" lon="7.10884">
        <ele>1101.2</ele>
        <time>2022-07-18T09:16:46Z</time>
      </trkpt>
      <trkpt lat="44.58375" lon="7.10897">
        <ele>1101</ele>
        <time>2022-07-18T09:16:47Z</time>
      </trkpt>
      <trkpt lat="44.58374" lon="7.10911">
        <ele>1100.6</ele>
        <time>2022-07-18T09:16:48Z</time>
      </trkpt>
      <trkpt lat="44.58373" lon="7.10924">
        <ele>1100.4</ele>
        <time>2022-07-18T09:16:49Z</time>
      </trkpt>
      <trkpt lat="44.58372" lon="7.10937">
        <ele>1100.2</ele>
        <time>2022-07-18T09:16:50Z</time>
      </trkpt>
      <trkpt lat="44.58371" lon="7.1095">
        <ele>1100</ele>
        <time>2022-07-18T09:16:51Z</time>
      </trkpt>
      <trkpt lat="44.5837" lon="7.10962">
        <ele>1099.6</ele>
        <time>2022-07-18T09:16:52Z</time>
      </trkpt>
      <trkpt lat="44.58368" lon="7.10974">
        <ele>1099.2</ele>
        <time>2022-07-18T09:16:53Z</time>
      </trkpt>
      <trkpt lat="44.58368" lon="7.10987">
        <ele>1099</ele>
        <time>2022-07-18T09:16:54Z</time>
      </trkpt>
      <trkpt lat="44.58367" lon="7.11">
        <ele>1099</ele>
        <time>2022-07-18T09:16:55Z</time>
      </trkpt>
      <trkpt lat="44.58366" lon="7.11012">
        <ele>1098.6</ele>
        <time>2022-07-18T09:16:56Z</time>
      </trkpt>
      <trkpt lat="44.58365" lon="7.11025">
        <ele>1098.4</ele>
        <time>2022-07-18T09:16:57Z</time>
      </trkpt>
      <trkpt lat="44.58364" lon="7.11038">
        <ele>1098</ele>
        <time>2022-07-18T09:16:58Z</time>
      </trkpt>
      <trkpt lat="44.58363" lon="7.11051">
        <ele>1098</ele>
        <time>2022-07-18T09:16:59Z</time>
      </trkpt>
      <trkpt lat="44.58362" lon="7.11063">
        <ele>1097.8</ele>
        <time>2022-07-18T09:17:00Z</time>
      </trkpt>
      <trkpt lat="44.58361" lon="7.11075">
        <ele>1097.4</ele>
        <time>2022-07-18T09:17:01Z</time>
      </trkpt>
      <trkpt lat="44.5836" lon="7.11088">
        <ele>1096.8</ele>
        <time>2022-07-18T09:17:02Z</time>
      </trkpt>
      <trkpt lat="44.58359" lon="7.111">
        <ele>1096.4</ele>
        <time>2022-07-18T09:17:03Z</time>
      </trkpt>
      <trkpt lat="44.58358" lon="7.11113">
        <ele>1096</ele>
        <time>2022-07-18T09:17:04Z</time>
      </trkpt>
      <trkpt lat="44.58357" lon="7.11126">
        <ele>1095.8</ele>
        <time>2022-07-18T09:17:05Z</time>
      </trkpt>
      <trkpt lat="44.58356" lon="7.11138">
        <ele>1095.8</ele>
        <time>2022-07-18T09:17:06Z</time>
      </trkpt>
      <trkpt lat="44.58355" lon="7.11151">
        <ele>1095.4</ele>
        <time>2022-07-18T09:17:07Z</time>
      </trkpt>
      <trkpt lat="44.58354" lon="7.11163">
        <ele>1095.4</ele>
        <time>2022-07-18T09:17:08Z</time>
      </trkpt>
      <trkpt lat="44.58352" lon="7.11176">
        <ele>1095</ele>
        <time>2022-07-18T09:17:09Z</time>
      </trkpt>
      <trkpt lat="44.58351" lon="7.11188">
        <ele>1094.8</ele>
        <time>2022-07-18T09:17:10Z</time>
      </trkpt>
      <trkpt lat="44.5835" lon="7.112">
        <ele>1094.8</ele>
        <time>2022-07-18T09:17:11Z</time>
      </trkpt>
      <trkpt lat="44.58349" lon="7.11213">
        <ele>1094.4</ele>
        <time>2022-07-18T09:17:12Z</time>
      </trkpt>
      <trkpt lat="44.58348" lon="7.11226">
        <ele>1094.2</ele>
        <time>2022-07-18T09:17:13Z</time>
      </trkpt>
      <trkpt lat="44.58347" lon="7.11238">
        <ele>1093.8</ele>
        <time>2022-07-18T09:17:14Z</time>
      </trkpt>
      <trkpt lat="44.58344" lon="7.11251">
        <ele>1093.6</ele>
        <time>2022-07-18T09:17:15Z</time>
      </trkpt>
      <trkpt lat="44.58343" lon="7.11264">
        <ele>1093.2</ele>
        <time>2022-07-18T09:17:16Z</time>
      </trkpt>
      <trkpt lat="44.58342" lon="7.11277">
        <ele>1093.2</ele>
        <time>2022-07-18T09:17:17Z</time>
      </trkpt>
      <trkpt lat="44.58342" lon="7.1129">
        <ele>1093</ele>
        <time>2022-07-18T09:17:18Z</time>
      </trkpt>
      <trkpt lat="44.5834" lon="7.11303">
        <ele>1093</ele>
        <time>2022-07-18T09:17:19Z</time>
      </trkpt>
      <trkpt lat="44.58339" lon="7.11317">
        <ele>1092.4</ele>
        <time>2022-07-18T09:17:20Z</time>
      </trkpt>
      <trkpt lat="44.58339" lon="7.1133">
        <ele>1092.2</ele>
        <time>2022-07-18T09:17:21Z</time>
      </trkpt>
      <trkpt lat="44.58337" lon="7.11343">
        <ele>1092</ele>
        <time>2022-07-18T09:17:22Z</time>
      </trkpt>
      <trkpt lat="44.58337" lon="7.11356">
        <ele>1092</ele>
        <time>2022-07-18T09:17:23Z</time>
      </trkpt>
      <trkpt lat="44.58335" lon="7.11369">
        <ele>1091.6</ele>
        <time>2022-07-18T09:17:24Z</time>
      </trkpt>
      <trkpt lat="44.58334" lon="7.11381">
        <ele>1091.4</ele>
        <time>2022-07-18T09:17:25Z</time>
      </trkpt>
      <trkpt lat="44.58333" lon="7.11394">
        <ele>1091.4</ele>
        <time>2022-07-18T09:17:26Z</time>
      </trkpt>
      <trkpt lat="44.58332" lon="7.11406">
        <ele>1091.2</ele>
        <time>2022-07-18T09:17:27Z</time>
      </trkpt>
      <trkpt lat="44.58331" lon="7.11419">
        <ele>1091.2</ele>
        <time>2022-07-18T09:17:28Z</time>
      </trkpt>
      <trkpt lat="44.5833" lon="7.11431">
        <ele>1090.8</ele>
        <time>2022-07-18T09:17:29Z</time>
      </trkpt>
      <trkpt lat="44.58329" lon="7.11443">
        <ele>1090.8</ele>
        <time>2022-07-18T09:17:30Z</time>
      </trkpt>
      <trkpt lat="44.58328" lon="7.11456">
        <ele>1090.2</ele>
        <time>2022-07-18T09:17:31Z</time>
      </trkpt>
      <trkpt lat="44.58327" lon="7.11468">
        <ele>1090</ele>
        <time>2022-07-18T09:17:32Z</time>
      </trkpt>
      <trkpt lat="44.58326" lon="7.1148">
        <ele>1090</ele>
        <time>2022-07-18T09:17:33Z</time>
      </trkpt>
      <trkpt lat="44.58325" lon="7.11493">
        <ele>1089.8</ele>
        <time>2022-07-18T09:17:34Z</time>
      </trkpt>
      <trkpt lat="44.58324" lon="7.11505">
        <ele>1089.8</ele>
        <time>2022-07-18T09:17:35Z</time>
      </trkpt>
      <trkpt lat="44.58322" lon="7.11517">
        <ele>1089.4</ele>
        <time>2022-07-18T09:17:36Z</time>
      </trkpt>
      <trkpt lat="44.58321" lon="7.11529">
        <ele>1089.2</ele>
        <time>2022-07-18T09:17:37Z</time>
      </trkpt>
      <trkpt lat="44.5832" lon="7.11541">
        <ele>1089.2</ele>
        <time>2022-07-18T09:17:38Z</time>
      </trkpt>
      <trkpt lat="44.58319" lon="7.11552">
        <ele>1089</ele>
        <time>2022-07-18T09:17:39Z</time>
      </trkpt>
      <trkpt lat="44.58319" lon="7.11564">
        <ele>1089</ele>
        <time>2022-07-18T09:17:40Z</time>
      </trkpt>
      <trkpt lat="44.58318" lon="7.11575">
        <ele>1088.6</ele>
        <time>2022-07-18T09:17:41Z</time>
      </trkpt>
      <trkpt lat="44.58317" lon="7.11587">
        <ele>1088.4</ele>
        <time>2022-07-18T09:17:42Z</time>
      </trkpt>
      <trkpt lat="44.58316" lon="7.11598">
        <ele>1088.4</ele>
        <time>2022-07-18T09:17:43Z</time>
      </trkpt>
      <trkpt lat="44.58315" lon="7.1161">
        <ele>1088.4</ele>
        <time>2022-07-18T09:17:44Z</time>
      </trkpt>
      <trkpt lat="44.58314" lon="7.11621">
        <ele>1088</ele>
        <time>2022-07-18T09:17:45Z</time>
      </trkpt>
      <trkpt lat="44.58314" lon="7.11633">
        <ele>1087.8</ele>
        <time>2022-07-18T09:17:46Z</time>
      </trkpt>
      <trkpt lat="44.58313" lon="7.11644">
        <ele>1087.4</ele>
        <time>2022-07-18T09:17:47Z</time>
      </trkpt>
      <trkpt lat="44.58313" lon="7.11656">
        <ele>1087.4</ele>
        <time>2022-07-18T09:17:48Z</time>
      </trkpt>
      <trkpt lat="44.58313" lon="7.11667">
        <ele>1087.2</ele>
        <time>2022-07-18T09:17:49Z</time>
      </trkpt>
      <trkpt lat="44.58313" lon="7.11679">
        <ele>1087.2</ele>
        <time>2022-07-18T09:17:50Z</time>
      </trkpt>
      <trkpt lat="44.58313" lon="7.1169">
        <ele>1087.2</ele>
        <time>2022-07-18T09:17:51Z</time>
      </trkpt>
      <trkpt lat="44.58314" lon="7.11701">
        <ele>1086.8</ele>
        <time>2022-07-18T09:17:52Z</time>
      </trkpt>
      <trkpt lat="44.58314" lon="7.11712">
        <ele>1086.6</ele>
        <time>2022-07-18T09:17:53Z</time>
      </trkpt>
      <trkpt lat="44.58315" lon="7.11723">
        <ele>1086.2</ele>
        <time>2022-07-18T09:17:54Z</time>
      </trkpt>
      <trkpt lat="44.58316" lon="7.11734">
        <ele>1085.8</ele>
        <time>2022-07-18T09:17:55Z</time>
      </trkpt>
      <trkpt lat="44.58317" lon="7.11746">
        <ele>1086</ele>
        <time>2022-07-18T09:17:56Z</time>
      </trkpt>
      <trkpt lat="44.58318" lon="7.11757">
        <ele>1085.8</ele>
        <time>2022-07-18T09:17:57Z</time>
      </trkpt>
      <trkpt lat="44.5832" lon="7.11768">
        <ele>1085.6</ele>
        <time>2022-07-18T09:17:58Z</time>
      </trkpt>
      <trkpt lat="44.58321" lon="7.11779">
        <ele>1085.4</ele>
        <time>2022-07-18T09:17:59Z</time>
      </trkpt>
      <trkpt lat="44.58323" lon="7.1179">
        <ele>1085.4</ele>
        <time>2022-07-18T09:18:00Z</time>
      </trkpt>
      <trkpt lat="44.58325" lon="7.11801">
        <ele>1085</ele>
        <time>2022-07-18T09:18:01Z</time>
      </trkpt>
      <trkpt lat="44.58328" lon="7.11812">
        <ele>1085</ele>
        <time>2022-07-18T09:18:02Z</time>
      </trkpt>
      <trkpt lat="44.5833" lon="7.11824">
        <ele>1084.6</ele>
        <time>2022-07-18T09:18:03Z</time>
      </trkpt>
      <trkpt lat="44.58332" lon="7.11835">
        <ele>1084.6</ele>
        <time>2022-07-18T09:18:04Z</time>
      </trkpt>
      <trkpt lat="44.58334" lon="7.11846">
        <ele>1084.4</ele>
        <time>2022-07-18T09:18:05Z</time>
      </trkpt>
      <trkpt lat="44.58337" lon="7.11858">
        <ele>1084.2</ele>
        <time>2022-07-18T09:18:06Z</time>
      </trkpt>
      <trkpt lat="44.58339" lon="7.1187">
        <ele>1084.2</ele>
        <time>2022-07-18T09:18:07Z</time>
      </trkpt>
      <trkpt lat="44.58341" lon="7.11881">
        <ele>1083.8</ele>
        <time>2022-07-18T09:18:08Z</time>
      </trkpt>
      <trkpt lat="44.58344" lon="7.11893">
        <ele>1083.8</ele>
        <time>2022-07-18T09:18:09Z</time>
      </trkpt>
      <trkpt lat="44.58346" lon="7.11905">
        <ele>1083.4</ele>
        <time>2022-07-18T09:18:10Z</time>
      </trkpt>
      <trkpt lat="44.58349" lon="7.11917">
        <ele>1083.4</ele>
        <time>2022-07-18T09:18:11Z</time>
      </trkpt>
      <trkpt lat="44.58351" lon="7.11928">
        <ele>1083.4</ele>
        <time>2022-07-18T09:18:12Z</time>
      </trkpt>
      <trkpt lat="44.58354" lon="7.1194">
        <ele>1083.2</ele>
        <time>2022-07-18T09:18:13Z</time>
      </trkpt>
      <trkpt lat="44.58356" lon="7.11952">
        <ele>1083.2</ele>
        <time>2022-07-18T09:18:14Z</time>
      </trkpt>
      <trkpt lat="44.58359" lon="7.11963">
        <ele>1083</ele>
        <time>2022-07-18T09:18:15Z</time>
      </trkpt>
      <trkpt lat="44.58361" lon="7.11974">
        <ele>1083</ele>
        <time>2022-07-18T09:18:16Z</time>
      </trkpt>
      <trkpt lat="44.58363" lon="7.11986">
        <ele>1082.6</ele>
        <time>2022-07-18T09:18:17Z</time>
      </trkpt>
      <trkpt lat="44.58365" lon="7.11997">
        <ele>1082.6</ele>
        <time>2022-07-18T09:18:18Z</time>
      </trkpt>
      <trkpt lat="44.58368" lon="7.12008">
        <ele>1082.4</ele>
        <time>2022-07-18T09:18:19Z</time>
      </trkpt>
      <trkpt lat="44.5837" lon="7.12019">
        <ele>1082</ele>
        <time>2022-07-18T09:18:20Z</time>
      </trkpt>
      <trkpt lat="44.58372" lon="7.12031">
        <ele>1081.8</ele>
        <time>2022-07-18T09:18:21Z</time>
      </trkpt>
      <trkpt lat="44.58374" lon="7.12042">
        <ele>1081.8</ele>
        <time>2022-07-18T09:18:22Z</time>
      </trkpt>
      <trkpt lat="44.58377" lon="7.12053">
        <ele>1081.4</ele>
        <time>2022-07-18T09:18:23Z</time>
      </trkpt>
      <trkpt lat="44.58379" lon="7.12065">
        <ele>1081.4</ele>
        <time>2022-07-18T09:18:24Z</time>
      </trkpt>
      <trkpt lat="44.5838" lon="7.12077">
        <ele>1081.2</ele>
        <time>2022-07-18T09:18:25Z</time>
      </trkpt>
      <trkpt lat="44.58382" lon="7.12089">
        <ele>1081.2</ele>
        <time>2022-07-18T09:18:26Z</time>
      </trkpt>
      <trkpt lat="44.58383" lon="7.12101">
        <ele>1080.8</ele>
        <time>2022-07-18T09:18:27Z</time>
      </trkpt>
      <trkpt lat="44.58383" lon="7.12113">
        <ele>1080.4</ele>
        <time>2022-07-18T09:18:28Z</time>
      </trkpt>
      <trkpt lat="44.58383" lon="7.12125">
        <ele>1080.2</ele>
        <time>2022-07-18T09:18:29Z</time>
      </trkpt>
      <trkpt lat="44.58383" lon="7.12138">
        <ele>1080</ele>
        <time>2022-07-18T09:18:30Z</time>
      </trkpt>
      <trkpt lat="44.58382" lon="7.1215">
        <ele>1080</ele>
        <time>2022-07-18T09:18:31Z</time>
      </trkpt>
      <trkpt lat="44.58381" lon="7.12162">
        <ele>1079.6</ele>
        <time>2022-07-18T09:18:32Z</time>
      </trkpt>
      <trkpt lat="44.5838" lon="7.12174">
        <ele>1079.4</ele>
        <time>2022-07-18T09:18:33Z</time>
      </trkpt>
      <trkpt lat="44.58378" lon="7.12186">
        <ele>1079.2</ele>
        <time>2022-07-18T09:18:34Z</time>
      </trkpt>
      <trkpt lat="44.58376" lon="7.12198">
        <ele>1079.2</ele>
        <time>2022-07-18T09:18:35Z</time>
      </trkpt>
      <trkpt lat="44.58374" lon="7.12209">
        <ele>1079</ele>
        <time>2022-07-18T09:18:36Z</time>
      </trkpt>
      <trkpt lat="44.58372" lon="7.12221">
        <ele>1078.6</ele>
        <time>2022-07-18T09:18:37Z</time>
      </trkpt>
      <trkpt lat="44.58369" lon="7.12232">
        <ele>1078.6</ele>
        <time>2022-07-18T09:18:38Z</time>
      </trkpt>
      <trkpt lat="44.58366" lon="7.12243">
        <ele>1078.4</ele>
        <time>2022-07-18T09:18:39Z</time>
      </trkpt>
      <trkpt lat="44.58363" lon="7.12254">
        <ele>1078.4</ele>
        <time>2022-07-18T09:18:40Z</time>
      </trkpt>
      <trkpt lat="44.5836" lon="7.12265">
        <ele>1078</ele>
        <time>2022-07-18T09:18:41Z</time>
      </trkpt>
      <trkpt lat="44.58358" lon="7.12275">
        <ele>1078</ele>
        <time>2022-07-18T09:18:42Z</time>
      </trkpt>
      <trkpt lat="44.58355" lon="7.12286">
        <ele>1078</ele>
        <time>2022-07-18T09:18:43Z</time>
      </trkpt>
      <trkpt lat="44.58352" lon="7.12296">
        <ele>1078</ele>
        <time>2022-07-18T09:18:44Z</time>
      </trkpt>
      <trkpt lat="44.58349" lon="7.12306">
        <ele>1078</ele>
        <time>2022-07-18T09:18:45Z</time>
      </trkpt>
      <trkpt lat="44.58346" lon="7.12316">
        <ele>1078</ele>
        <time>2022-07-18T09:18:46Z</time>
      </trkpt>
      <trkpt lat="44.58343" lon="7.12326">
        <ele>1078</ele>
        <time>2022-07-18T09:18:47Z</time>
      </trkpt>
      <trkpt lat="44.5834" lon="7.12336">
        <ele>1078</ele>
        <time>2022-07-18T09:18:48Z</time>
      </trkpt>
      <trkpt lat="44.58338" lon="7.12345">
        <ele>1077.8</ele>
        <time>2022-07-18T09:18:49Z</time>
      </trkpt>
      <trkpt lat="44.58335" lon="7.12354">
        <ele>1077.8</ele>
        <time>2022-07-18T09:18:50Z</time>
      </trkpt>
      <trkpt lat="44.58332" lon="7.12364">
        <ele>1077.8</ele>
        <time>2022-07-18T09:18:51Z</time>
      </trkpt>
      <trkpt lat="44.5833" lon="7.12374">
        <ele>1077.8</ele>
        <time>2022-07-18T09:18:52Z</time>
      </trkpt>
      <trkpt lat="44.58327" lon="7.12383">
        <ele>1077.6</ele>
        <time>2022-07-18T09:18:53Z</time>
      </trkpt>
      <trkpt lat="44.58325" lon="7.12392">
        <ele>1077.6</ele>
        <time>2022-07-18T09:18:54Z</time>
      </trkpt>
      <trkpt lat="44.58322" lon="7.12402">
        <ele>1077.6</ele>
        <time>2022-07-18T09:18:55Z</time>
      </trkpt>
      <trkpt lat="44.5832" lon="7.12411">
        <ele>1077.6</ele>
        <time>2022-07-18T09:18:56Z</time>
      </trkpt>
      <trkpt lat="44.58318" lon="7.12421">
        <ele>1077.6</ele>
        <time>2022-07-18T09:18:57Z</time>
      </trkpt>
      <trkpt lat="44.58316" lon="7.1243">
        <ele>1077.6</ele>
        <time>2022-07-18T09:18:58Z</time>
      </trkpt>
      <trkpt lat="44.58314" lon="7.1244">
        <ele>1077.6</ele>
        <time>2022-07-18T09:18:59Z</time>
      </trkpt>
      <trkpt lat="44.58312" lon="7.12449">
        <ele>1077.8</ele>
        <time>2022-07-18T09:19:00Z</time>
      </trkpt>
      <trkpt lat="44.58311" lon="7.12459">
        <ele>1077.8</ele>
        <time>2022-07-18T09:19:01Z</time>
      </trkpt>
      <trkpt lat="44.58309" lon="7.12468">
        <ele>1077.8</ele>
        <time>2022-07-18T09:19:02Z</time>
      </trkpt>
      <trkpt lat="44.58307" lon="7.12477">
        <ele>1077.8</ele>
        <time>2022-07-18T09:19:03Z</time>
      </trkpt>
      <trkpt lat="44.58306" lon="7.12487">
        <ele>1077.6</ele>
        <time>2022-07-18T09:19:04Z</time>
      </trkpt>
      <trkpt lat="44.58305" lon="7.12496">
        <ele>1077.6</ele>
        <time>2022-07-18T09:19:05Z</time>
      </trkpt>
      <trkpt lat="44.58303" lon="7.12506">
        <ele>1077.6</ele>
        <time>2022-07-18T09:19:06Z</time>
      </trkpt>
      <trkpt lat="44.58302" lon="7.12516">
        <ele>1077.6</ele>
        <time>2022-07-18T09:19:07Z</time>
      </trkpt>
      <trkpt lat="44.58301" lon="7.12526">
        <ele>1077.6</ele>
        <time>2022-07-18T09:19:08Z</time>
      </trkpt>
      <trkpt lat="44.583" lon="7.12537">
        <ele>1077.2</ele>
        <time>2022-07-18T09:19:09Z</time>
      </trkpt>
      <trkpt lat="44.58299" lon="7.12547">
        <ele>1077.2</ele>
        <time>2022-07-18T09:19:10Z</time>
      </trkpt>
      <trkpt lat="44.58298" lon="7.12558">
        <ele>1077.2</ele>
        <time>2022-07-18T09:19:11Z</time>
      </trkpt>
      <trkpt lat="44.58298" lon="7.12569">
        <ele>1077</ele>
        <time>2022-07-18T09:19:12Z</time>
      </trkpt>
      <trkpt lat="44.58296" lon="7.12579">
        <ele>1076.8</ele>
        <time>2022-07-18T09:19:13Z</time>
      </trkpt>
      <trkpt lat="44.58295" lon="7.12595">
        <ele>1076.2</ele>
        <time>2022-07-18T09:19:14Z</time>
      </trkpt>
      <trkpt lat="44.58295" lon="7.12601">
        <ele>1076.2</ele>
        <time>2022-07-18T09:19:15Z</time>
      </trkpt>
      <trkpt lat="44.58294" lon="7.12612">
        <ele>1076.2</ele>
        <time>2022-07-18T09:19:16Z</time>
      </trkpt>
      <trkpt lat="44.58293" lon="7.12623">
        <ele>1076</ele>
        <time>2022-07-18T09:19:17Z</time>
      </trkpt>
      <trkpt lat="44.58292" lon="7.12633">
        <ele>1076</ele>
        <time>2022-07-18T09:19:18Z</time>
      </trkpt>
      <trkpt lat="44.58291" lon="7.12644">
        <ele>1075.6</ele>
        <time>2022-07-18T09:19:19Z</time>
      </trkpt>
      <trkpt lat="44.5829" lon="7.12655">
        <ele>1075.4</ele>
        <time>2022-07-18T09:19:20Z</time>
      </trkpt>
      <trkpt lat="44.58288" lon="7.12666">
        <ele>1075</ele>
        <time>2022-07-18T09:19:21Z</time>
      </trkpt>
      <trkpt lat="44.58287" lon="7.12677">
        <ele>1074.8</ele>
        <time>2022-07-18T09:19:22Z</time>
      </trkpt>
      <trkpt lat="44.58286" lon="7.12689">
        <ele>1074.6</ele>
        <time>2022-07-18T09:19:23Z</time>
      </trkpt>
      <trkpt lat="44.58285" lon="7.127">
        <ele>1074.2</ele>
        <time>2022-07-18T09:19:24Z</time>
      </trkpt>
      <trkpt lat="44.58283" lon="7.12712">
        <ele>1074</ele>
        <time>2022-07-18T09:19:25Z</time>
      </trkpt>
      <trkpt lat="44.58282" lon="7.12725">
        <ele>1073.4</ele>
        <time>2022-07-18T09:19:26Z</time>
      </trkpt>
      <trkpt lat="44.58281" lon="7.12737">
        <ele>1073</ele>
        <time>2022-07-18T09:19:27Z</time>
      </trkpt>
      <trkpt lat="44.58276" lon="7.12764">
        <ele>1072.6</ele>
        <time>2022-07-18T09:19:28Z</time>
      </trkpt>
      <trkpt lat="44.58274" lon="7.12777">
        <ele>1071.8</ele>
        <time>2022-07-18T09:19:29Z</time>
      </trkpt>
      <trkpt lat="44.5827" lon="7.1279">
        <ele>1071.4</ele>
        <time>2022-07-18T09:19:30Z</time>
      </trkpt>
      <trkpt lat="44.58266" lon="7.12803">
        <ele>1071</ele>
        <time>2022-07-18T09:19:31Z</time>
      </trkpt>
      <trkpt lat="44.58261" lon="7.12816">
        <ele>1070.6</ele>
        <time>2022-07-18T09:19:32Z</time>
      </trkpt>
      <trkpt lat="44.58257" lon="7.1283">
        <ele>1070.2</ele>
        <time>2022-07-18T09:19:33Z</time>
      </trkpt>
      <trkpt lat="44.58252" lon="7.12843">
        <ele>1069.8</ele>
        <time>2022-07-18T09:19:34Z</time>
      </trkpt>
      <trkpt lat="44.58247" lon="7.12856">
        <ele>1069.4</ele>
        <time>2022-07-18T09:19:35Z</time>
      </trkpt>
      <trkpt lat="44.58243" lon="7.12868">
        <ele>1069.2</ele>
        <time>2022-07-18T09:19:36Z</time>
      </trkpt>
      <trkpt lat="44.58239" lon="7.1288">
        <ele>1068.8</ele>
        <time>2022-07-18T09:19:37Z</time>
      </trkpt>
      <trkpt lat="44.58235" lon="7.12892">
        <ele>1068.6</ele>
        <time>2022-07-18T09:19:38Z</time>
      </trkpt>
      <trkpt lat="44.58234" lon="7.12906">
        <ele>1068.2</ele>
        <time>2022-07-18T09:19:39Z</time>
      </trkpt>
      <trkpt lat="44.58234" lon="7.1292">
        <ele>1067.8</ele>
        <time>2022-07-18T09:19:40Z</time>
      </trkpt>
      <trkpt lat="44.58235" lon="7.12932">
        <ele>1067.6</ele>
        <time>2022-07-18T09:19:41Z</time>
      </trkpt>
      <trkpt lat="44.58236" lon="7.12945">
        <ele>1066.8</ele>
        <time>2022-07-18T09:19:42Z</time>
      </trkpt>
      <trkpt lat="44.58239" lon="7.12958">
        <ele>1066.4</ele>
        <time>2022-07-18T09:19:43Z</time>
      </trkpt>
      <trkpt lat="44.58241" lon="7.12971">
        <ele>1066</ele>
        <time>2022-07-18T09:19:44Z</time>
      </trkpt>
      <trkpt lat="44.58243" lon="7.12982">
        <ele>1065.6</ele>
        <time>2022-07-18T09:19:45Z</time>
      </trkpt>
      <trkpt lat="44.58247" lon="7.12994">
        <ele>1065.2</ele>
        <time>2022-07-18T09:19:46Z</time>
      </trkpt>
      <trkpt lat="44.58248" lon="7.13008">
        <ele>1064.8</ele>
        <time>2022-07-18T09:19:47Z</time>
      </trkpt>
      <trkpt lat="44.58249" lon="7.13021">
        <ele>1064.4</ele>
        <time>2022-07-18T09:19:48Z</time>
      </trkpt>
      <trkpt lat="44.5825" lon="7.13036">
        <ele>1063.8</ele>
        <time>2022-07-18T09:19:49Z</time>
      </trkpt>
      <trkpt lat="44.58247" lon="7.1305">
        <ele>1063.4</ele>
        <time>2022-07-18T09:19:50Z</time>
      </trkpt>
      <trkpt lat="44.58244" lon="7.13065">
        <ele>1062.8</ele>
        <time>2022-07-18T09:19:51Z</time>
      </trkpt>
      <trkpt lat="44.58241" lon="7.13078">
        <ele>1062.4</ele>
        <time>2022-07-18T09:19:52Z</time>
      </trkpt>
      <trkpt lat="44.58236" lon="7.13091">
        <ele>1062</ele>
        <time>2022-07-18T09:19:53Z</time>
      </trkpt>
      <trkpt lat="44.58232" lon="7.13104">
        <ele>1061.6</ele>
        <time>2022-07-18T09:19:54Z</time>
      </trkpt>
      <trkpt lat="44.58228" lon="7.13117">
        <ele>1061.2</ele>
        <time>2022-07-18T09:19:55Z</time>
      </trkpt>
      <trkpt lat="44.58226" lon="7.13131">
        <ele>1060.8</ele>
        <time>2022-07-18T09:19:56Z</time>
      </trkpt>
      <trkpt lat="44.58225" lon="7.13145">
        <ele>1060.4</ele>
        <time>2022-07-18T09:19:57Z</time>
      </trkpt>
      <trkpt lat="44.58224" lon="7.13159">
        <ele>1059.8</ele>
        <time>2022-07-18T09:19:58Z</time>
      </trkpt>
      <trkpt lat="44.58225" lon="7.13167">
        <ele>1059.2</ele>
        <time>2022-07-18T09:19:59Z</time>
      </trkpt>
      <trkpt lat="44.58225" lon="7.13174">
        <ele>1058.6</ele>
        <time>2022-07-18T09:20:00Z</time>
      </trkpt>
      <trkpt lat="44.58226" lon="7.13189">
        <ele>1058</ele>
        <time>2022-07-18T09:20:01Z</time>
      </trkpt>
      <trkpt lat="44.58227" lon="7.13204">
        <ele>1057.4</ele>
        <time>2022-07-18T09:20:02Z</time>
      </trkpt>
      <trkpt lat="44.58229" lon="7.13219">
        <ele>1056.8</ele>
        <time>2022-07-18T09:20:03Z</time>
      </trkpt>
      <trkpt lat="44.58232" lon="7.13234">
        <ele>1056.8</ele>
        <time>2022-07-18T09:20:04Z</time>
      </trkpt>
      <trkpt lat="44.58234" lon="7.13248">
        <ele>1056.4</ele>
        <time>2022-07-18T09:20:05Z</time>
      </trkpt>
      <trkpt lat="44.58237" lon="7.13262">
        <ele>1055.8</ele>
        <time>2022-07-18T09:20:06Z</time>
      </trkpt>
      <trkpt lat="44.58239" lon="7.13277">
        <ele>1055.2</ele>
        <time>2022-07-18T09:20:07Z</time>
      </trkpt>
      <trkpt lat="44.58237" lon="7.13291">
        <ele>1054.6</ele>
        <time>2022-07-18T09:20:08Z</time>
      </trkpt>
      <trkpt lat="44.58234" lon="7.13304">
        <ele>1054.4</ele>
        <time>2022-07-18T09:20:09Z</time>
      </trkpt>
      <trkpt lat="44.58229" lon="7.13318">
        <ele>1053.6</ele>
        <time>2022-07-18T09:20:10Z</time>
      </trkpt>
      <trkpt lat="44.58224" lon="7.13332">
        <ele>1053.4</ele>
        <time>2022-07-18T09:20:11Z</time>
      </trkpt>
      <trkpt lat="44.58219" lon="7.13346">
        <ele>1052.8</ele>
        <time>2022-07-18T09:20:12Z</time>
      </trkpt>
      <trkpt lat="44.58212" lon="7.13358">
        <ele>1052.2</ele>
        <time>2022-07-18T09:20:13Z</time>
      </trkpt>
      <trkpt lat="44.58205" lon="7.1337">
        <ele>1051.6</ele>
        <time>2022-07-18T09:20:14Z</time>
      </trkpt>
      <trkpt lat="44.58197" lon="7.13382">
        <ele>1051</ele>
        <time>2022-07-18T09:20:15Z</time>
      </trkpt>
      <trkpt lat="44.5819" lon="7.13393">
        <ele>1050.6</ele>
        <time>2022-07-18T09:20:16Z</time>
      </trkpt>
      <trkpt lat="44.58183" lon="7.13403">
        <ele>1050</ele>
        <time>2022-07-18T09:20:17Z</time>
      </trkpt>
      <trkpt lat="44.58176" lon="7.13414">
        <ele>1049.6</ele>
        <time>2022-07-18T09:20:18Z</time>
      </trkpt>
      <trkpt lat="44.58169" lon="7.13425">
        <ele>1049</ele>
        <time>2022-07-18T09:20:19Z</time>
      </trkpt>
      <trkpt lat="44.58163" lon="7.13438">
        <ele>1048.4</ele>
        <time>2022-07-18T09:20:20Z</time>
      </trkpt>
      <trkpt lat="44.58158" lon="7.13449">
        <ele>1048</ele>
        <time>2022-07-18T09:20:21Z</time>
      </trkpt>
      <trkpt lat="44.58152" lon="7.13462">
        <ele>1047.6</ele>
        <time>2022-07-18T09:20:22Z</time>
      </trkpt>
      <trkpt lat="44.58149" lon="7.13476">
        <ele>1047</ele>
        <time>2022-07-18T09:20:23Z</time>
      </trkpt>
      <trkpt lat="44.58146" lon="7.1349">
        <ele>1046.6</ele>
        <time>2022-07-18T09:20:24Z</time>
      </trkpt>
      <trkpt lat="44.58145" lon="7.13505">
        <ele>1046.2</ele>
        <time>2022-07-18T09:20:25Z</time>
      </trkpt>
      <trkpt lat="44.58145" lon="7.13519">
        <ele>1046</ele>
        <time>2022-07-18T09:20:26Z</time>
      </trkpt>
      <trkpt lat="44.58145" lon="7.13533">
        <ele>1045.6</ele>
        <time>2022-07-18T09:20:27Z</time>
      </trkpt>
      <trkpt lat="44.58144" lon="7.13548">
        <ele>1045.2</ele>
        <time>2022-07-18T09:20:28Z</time>
      </trkpt>
      <trkpt lat="44.58143" lon="7.13561">
        <ele>1044.8</ele>
        <time>2022-07-18T09:20:29Z</time>
      </trkpt>
      <trkpt lat="44.58143" lon="7.13575">
        <ele>1044.6</ele>
        <time>2022-07-18T09:20:30Z</time>
      </trkpt>
      <trkpt lat="44.58142" lon="7.13589">
        <ele>1044</ele>
        <time>2022-07-18T09:20:31Z</time>
      </trkpt>
      <trkpt lat="44.58142" lon="7.13602">
        <ele>1043.8</ele>
        <time>2022-07-18T09:20:32Z</time>
      </trkpt>
      <trkpt lat="44.58142" lon="7.13616">
        <ele>1043.4</ele>
        <time>2022-07-18T09:20:33Z</time>
      </trkpt>
      <trkpt lat="44.58142" lon="7.1363">
        <ele>1042.8</ele>
        <time>2022-07-18T09:20:34Z</time>
      </trkpt>
      <trkpt lat="44.58144" lon="7.13644">
        <ele>1042.4</ele>
        <time>2022-07-18T09:20:35Z</time>
      </trkpt>
      <trkpt lat="44.58146" lon="7.13658">
        <ele>1041.8</ele>
        <time>2022-07-18T09:20:36Z</time>
      </trkpt>
      <trkpt lat="44.58149" lon="7.13673">
        <ele>1041.2</ele>
        <time>2022-07-18T09:20:37Z</time>
      </trkpt>
      <trkpt lat="44.58152" lon="7.13687">
        <ele>1040.6</ele>
        <time>2022-07-18T09:20:38Z</time>
      </trkpt>
      <trkpt lat="44.58156" lon="7.137">
        <ele>1040</ele>
        <time>2022-07-18T09:20:39Z</time>
      </trkpt>
      <trkpt lat="44.5816" lon="7.13714">
        <ele>1039.2</ele>
        <time>2022-07-18T09:20:40Z</time>
      </trkpt>
      <trkpt lat="44.58164" lon="7.13727">
        <ele>1038.6</ele>
        <time>2022-07-18T09:20:41Z</time>
      </trkpt>
      <trkpt lat="44.58168" lon="7.13742">
        <ele>1038</ele>
        <time>2022-07-18T09:20:42Z</time>
      </trkpt>
      <trkpt lat="44.58171" lon="7.13757">
        <ele>1037.2</ele>
        <time>2022-07-18T09:20:43Z</time>
      </trkpt>
      <trkpt lat="44.58173" lon="7.13772">
        <ele>1036.6</ele>
        <time>2022-07-18T09:20:44Z</time>
      </trkpt>
      <trkpt lat="44.58175" lon="7.13787">
        <ele>1036</ele>
        <time>2022-07-18T09:20:45Z</time>
      </trkpt>
      <trkpt lat="44.58177" lon="7.13802">
        <ele>1035.4</ele>
        <time>2022-07-18T09:20:46Z</time>
      </trkpt>
      <trkpt lat="44.58179" lon="7.13818">
        <ele>1034.8</ele>
        <time>2022-07-18T09:20:47Z</time>
      </trkpt>
      <trkpt lat="44.5818" lon="7.13833">
        <ele>1034</ele>
        <time>2022-07-18T09:20:48Z</time>
      </trkpt>
      <trkpt lat="44.58182" lon="7.13847">
        <ele>1033.4</ele>
        <time>2022-07-18T09:20:49Z</time>
      </trkpt>
      <trkpt lat="44.58185" lon="7.13862">
        <ele>1032.8</ele>
        <time>2022-07-18T09:20:50Z</time>
      </trkpt>
      <trkpt lat="44.58187" lon="7.13876">
        <ele>1032.2</ele>
        <time>2022-07-18T09:20:51Z</time>
      </trkpt>
      <trkpt lat="44.5819" lon="7.1389">
        <ele>1031.4</ele>
        <time>2022-07-18T09:20:52Z</time>
      </trkpt>
      <trkpt lat="44.58192" lon="7.13906">
        <ele>1030.8</ele>
        <time>2022-07-18T09:20:53Z</time>
      </trkpt>
      <trkpt lat="44.58194" lon="7.1392">
        <ele>1030.2</ele>
        <time>2022-07-18T09:20:54Z</time>
      </trkpt>
      <trkpt lat="44.58196" lon="7.13935">
        <ele>1029.6</ele>
        <time>2022-07-18T09:20:55Z</time>
      </trkpt>
      <trkpt lat="44.58199" lon="7.13949">
        <ele>1028.8</ele>
        <time>2022-07-18T09:20:56Z</time>
      </trkpt>
      <trkpt lat="44.58201" lon="7.13963">
        <ele>1028.2</ele>
        <time>2022-07-18T09:20:57Z</time>
      </trkpt>
      <trkpt lat="44.58203" lon="7.13979">
        <ele>1027.6</ele>
        <time>2022-07-18T09:20:58Z</time>
      </trkpt>
      <trkpt lat="44.58206" lon="7.13992">
        <ele>1027</ele>
        <time>2022-07-18T09:20:59Z</time>
      </trkpt>
      <trkpt lat="44.58211" lon="7.14006">
        <ele>1026.2</ele>
        <time>2022-07-18T09:21:00Z</time>
      </trkpt>
      <trkpt lat="44.58217" lon="7.1402">
        <ele>1025.6</ele>
        <time>2022-07-18T09:21:01Z</time>
      </trkpt>
      <trkpt lat="44.58221" lon="7.14033">
        <ele>1025</ele>
        <time>2022-07-18T09:21:02Z</time>
      </trkpt>
      <trkpt lat="44.58227" lon="7.14046">
        <ele>1024.2</ele>
        <time>2022-07-18T09:21:03Z</time>
      </trkpt>
      <trkpt lat="44.5823" lon="7.14059">
        <ele>1023.6</ele>
        <time>2022-07-18T09:21:04Z</time>
      </trkpt>
      <trkpt lat="44.58235" lon="7.14072">
        <ele>1022.8</ele>
        <time>2022-07-18T09:21:05Z</time>
      </trkpt>
      <trkpt lat="44.58239" lon="7.14086">
        <ele>1022.2</ele>
        <time>2022-07-18T09:21:06Z</time>
      </trkpt>
      <trkpt lat="44.58244" lon="7.14098">
        <ele>1021.8</ele>
        <time>2022-07-18T09:21:07Z</time>
      </trkpt>
      <trkpt lat="44.58248" lon="7.14111">
        <ele>1021.2</ele>
        <time>2022-07-18T09:21:08Z</time>
      </trkpt>
      <trkpt lat="44.58253" lon="7.14124">
        <ele>1020.8</ele>
        <time>2022-07-18T09:21:09Z</time>
      </trkpt>
      <trkpt lat="44.58257" lon="7.14137">
        <ele>1020.4</ele>
        <time>2022-07-18T09:21:10Z</time>
      </trkpt>
      <trkpt lat="44.5826" lon="7.14152">
        <ele>1020</ele>
        <time>2022-07-18T09:21:11Z</time>
      </trkpt>
      <trkpt lat="44.58265" lon="7.14166">
        <ele>1019.6</ele>
        <time>2022-07-18T09:21:12Z</time>
      </trkpt>
      <trkpt lat="44.5827" lon="7.14179">
        <ele>1019.2</ele>
        <time>2022-07-18T09:21:13Z</time>
      </trkpt>
      <trkpt lat="44.58274" lon="7.14193">
        <ele>1018.8</ele>
        <time>2022-07-18T09:21:14Z</time>
      </trkpt>
      <trkpt lat="44.58277" lon="7.14207">
        <ele>1018.4</ele>
        <time>2022-07-18T09:21:15Z</time>
      </trkpt>
      <trkpt lat="44.58279" lon="7.1422">
        <ele>1018</ele>
        <time>2022-07-18T09:21:16Z</time>
      </trkpt>
      <trkpt lat="44.58279" lon="7.14235">
        <ele>1017.6</ele>
        <time>2022-07-18T09:21:17Z</time>
      </trkpt>
      <trkpt lat="44.58278" lon="7.14249">
        <ele>1017.2</ele>
        <time>2022-07-18T09:21:18Z</time>
      </trkpt>
      <trkpt lat="44.58275" lon="7.14261">
        <ele>1016.8</ele>
        <time>2022-07-18T09:21:19Z</time>
      </trkpt>
      <trkpt lat="44.58272" lon="7.14275">
        <ele>1016.4</ele>
        <time>2022-07-18T09:21:20Z</time>
      </trkpt>
      <trkpt lat="44.58269" lon="7.14288">
        <ele>1016</ele>
        <time>2022-07-18T09:21:21Z</time>
      </trkpt>
      <trkpt lat="44.58265" lon="7.14302">
        <ele>1015.8</ele>
        <time>2022-07-18T09:21:22Z</time>
      </trkpt>
      <trkpt lat="44.58261" lon="7.14314">
        <ele>1015.4</ele>
        <time>2022-07-18T09:21:23Z</time>
      </trkpt>
      <trkpt lat="44.58257" lon="7.14327">
        <ele>1015</ele>
        <time>2022-07-18T09:21:24Z</time>
      </trkpt>
      <trkpt lat="44.58251" lon="7.14339">
        <ele>1014.6</ele>
        <time>2022-07-18T09:21:25Z</time>
      </trkpt>
      <trkpt lat="44.58248" lon="7.14353">
        <ele>1014.4</ele>
        <time>2022-07-18T09:21:26Z</time>
      </trkpt>
      <trkpt lat="44.58244" lon="7.14366">
        <ele>1013.8</ele>
        <time>2022-07-18T09:21:27Z</time>
      </trkpt>
      <trkpt lat="44.5824" lon="7.14379">
        <ele>1013.4</ele>
        <time>2022-07-18T09:21:28Z</time>
      </trkpt>
      <trkpt lat="44.58236" lon="7.14391">
        <ele>1013</ele>
        <time>2022-07-18T09:21:29Z</time>
      </trkpt>
      <trkpt lat="44.58232" lon="7.14405">
        <ele>1012.6</ele>
        <time>2022-07-18T09:21:30Z</time>
      </trkpt>
      <trkpt lat="44.58228" lon="7.14419">
        <ele>1012.2</ele>
        <time>2022-07-18T09:21:31Z</time>
      </trkpt>
      <trkpt lat="44.58225" lon="7.14432">
        <ele>1011.8</ele>
        <time>2022-07-18T09:21:32Z</time>
      </trkpt>
      <trkpt lat="44.58221" lon="7.14445">
        <ele>1011.4</ele>
        <time>2022-07-18T09:21:33Z</time>
      </trkpt>
      <trkpt lat="44.58217" lon="7.14458">
        <ele>1011</ele>
        <time>2022-07-18T09:21:34Z</time>
      </trkpt>
      <trkpt lat="44.58213" lon="7.14472">
        <ele>1010.6</ele>
        <time>2022-07-18T09:21:35Z</time>
      </trkpt>
      <trkpt lat="44.58209" lon="7.14486">
        <ele>1010.2</ele>
        <time>2022-07-18T09:21:36Z</time>
      </trkpt>
      <trkpt lat="44.58205" lon="7.145">
        <ele>1010</ele>
        <time>2022-07-18T09:21:37Z</time>
      </trkpt>
      <trkpt lat="44.58201" lon="7.14512">
        <ele>1009.6</ele>
        <time>2022-07-18T09:21:38Z</time>
      </trkpt>
      <trkpt lat="44.58197" lon="7.14525">
        <ele>1009.2</ele>
        <time>2022-07-18T09:21:39Z</time>
      </trkpt>
      <trkpt lat="44.58193" lon="7.14538">
        <ele>1008.8</ele>
        <time>2022-07-18T09:21:40Z</time>
      </trkpt>
      <trkpt lat="44.5819" lon="7.14551">
        <ele>1008.6</ele>
        <time>2022-07-18T09:21:41Z</time>
      </trkpt>
      <trkpt lat="44.58186" lon="7.14564">
        <ele>1008.2</ele>
        <time>2022-07-18T09:21:42Z</time>
      </trkpt>
      <trkpt lat="44.58182" lon="7.14575">
        <ele>1007.8</ele>
        <time>2022-07-18T09:21:43Z</time>
      </trkpt>
      <trkpt lat="44.58178" lon="7.14586">
        <ele>1007.6</ele>
        <time>2022-07-18T09:21:44Z</time>
      </trkpt>
      <trkpt lat="44.58173" lon="7.14597">
        <ele>1007.2</ele>
        <time>2022-07-18T09:21:45Z</time>
      </trkpt>
      <trkpt lat="44.5817" lon="7.1461">
        <ele>1006.8</ele>
        <time>2022-07-18T09:21:46Z</time>
      </trkpt>
      <trkpt lat="44.58166" lon="7.14622">
        <ele>1006.6</ele>
        <time>2022-07-18T09:21:47Z</time>
      </trkpt>
      <trkpt lat="44.58162" lon="7.14634">
        <ele>1006.2</ele>
        <time>2022-07-18T09:21:48Z</time>
      </trkpt>
      <trkpt lat="44.58157" lon="7.14645">
        <ele>1005.8</ele>
        <time>2022-07-18T09:21:49Z</time>
      </trkpt>
      <trkpt lat="44.58152" lon="7.14656">
        <ele>1005.6</ele>
        <time>2022-07-18T09:21:50Z</time>
      </trkpt>
      <trkpt lat="44.58147" lon="7.14667">
        <ele>1005.2</ele>
        <time>2022-07-18T09:21:51Z</time>
      </trkpt>
      <trkpt lat="44.58141" lon="7.14678">
        <ele>1004.8</ele>
        <time>2022-07-18T09:21:52Z</time>
      </trkpt>
      <trkpt lat="44.58135" lon="7.14687">
        <ele>1004.6</ele>
        <time>2022-07-18T09:21:53Z</time>
      </trkpt>
      <trkpt lat="44.5813" lon="7.14697">
        <ele>1004.4</ele>
        <time>2022-07-18T09:21:54Z</time>
      </trkpt>
      <trkpt lat="44.58124" lon="7.14707">
        <ele>1004.4</ele>
        <time>2022-07-18T09:21:55Z</time>
      </trkpt>
      <trkpt lat="44.58119" lon="7.14718">
        <ele>1003.8</ele>
        <time>2022-07-18T09:21:56Z</time>
      </trkpt>
      <trkpt lat="44.58113" lon="7.14728">
        <ele>1003.6</ele>
        <time>2022-07-18T09:21:57Z</time>
      </trkpt>
      <trkpt lat="44.58108" lon="7.14739">
        <ele>1003.2</ele>
        <time>2022-07-18T09:21:58Z</time>
      </trkpt>
      <trkpt lat="44.58099" lon="7.14754">
        <ele>1003</ele>
        <time>2022-07-18T09:21:59Z</time>
      </trkpt>
      <trkpt lat="44.58096" lon="7.14759">
        <ele>1002.6</ele>
        <time>2022-07-18T09:22:00Z</time>
      </trkpt>
      <trkpt lat="44.5809" lon="7.14769">
        <ele>1002.2</ele>
        <time>2022-07-18T09:22:01Z</time>
      </trkpt>
      <trkpt lat="44.58085" lon="7.14779">
        <ele>1002</ele>
        <time>2022-07-18T09:22:02Z</time>
      </trkpt>
      <trkpt lat="44.5808" lon="7.14789">
        <ele>1001.8</ele>
        <time>2022-07-18T09:22:03Z</time>
      </trkpt>
      <trkpt lat="44.58076" lon="7.14799">
        <ele>1001.4</ele>
        <time>2022-07-18T09:22:04Z</time>
      </trkpt>
      <trkpt lat="44.58071" lon="7.14809">
        <ele>1001.2</ele>
        <time>2022-07-18T09:22:05Z</time>
      </trkpt>
      <trkpt lat="44.58068" lon="7.1482">
        <ele>1000.8</ele>
        <time>2022-07-18T09:22:06Z</time>
      </trkpt>
      <trkpt lat="44.58064" lon="7.1483">
        <ele>1000.6</ele>
        <time>2022-07-18T09:22:07Z</time>
      </trkpt>
      <trkpt lat="44.58061" lon="7.14842">
        <ele>1000.2</ele>
        <time>2022-07-18T09:22:08Z</time>
      </trkpt>
      <trkpt lat="44.58058" lon="7.14853">
        <ele>999.8</ele>
        <time>2022-07-18T09:22:09Z</time>
      </trkpt>
      <trkpt lat="44.58055" lon="7.14865">
        <ele>999.6</ele>
        <time>2022-07-18T09:22:10Z</time>
      </trkpt>
      <trkpt lat="44.58053" lon="7.14877">
        <ele>999.2</ele>
        <time>2022-07-18T09:22:11Z</time>
      </trkpt>
      <trkpt lat="44.58051" lon="7.1489">
        <ele>999</ele>
        <time>2022-07-18T09:22:12Z</time>
      </trkpt>
      <trkpt lat="44.5805" lon="7.14902">
        <ele>998.6</ele>
        <time>2022-07-18T09:22:13Z</time>
      </trkpt>
      <trkpt lat="44.58049" lon="7.14915">
        <ele>998.4</ele>
        <time>2022-07-18T09:22:14Z</time>
      </trkpt>
      <trkpt lat="44.58048" lon="7.14928">
        <ele>998</ele>
        <time>2022-07-18T09:22:15Z</time>
      </trkpt>
      <trkpt lat="44.58048" lon="7.1494">
        <ele>997.6</ele>
        <time>2022-07-18T09:22:16Z</time>
      </trkpt>
      <trkpt lat="44.58048" lon="7.14953">
        <ele>997.4</ele>
        <time>2022-07-18T09:22:17Z</time>
      </trkpt>
      <trkpt lat="44.58049" lon="7.14967">
        <ele>997</ele>
        <time>2022-07-18T09:22:18Z</time>
      </trkpt>
      <trkpt lat="44.5805" lon="7.1498">
        <ele>996.6</ele>
        <time>2022-07-18T09:22:19Z</time>
      </trkpt>
      <trkpt lat="44.58052" lon="7.14992">
        <ele>996.4</ele>
        <time>2022-07-18T09:22:20Z</time>
      </trkpt>
      <trkpt lat="44.58053" lon="7.15005">
        <ele>996</ele>
        <time>2022-07-18T09:22:21Z</time>
      </trkpt>
      <trkpt lat="44.58054" lon="7.15018">
        <ele>995.8</ele>
        <time>2022-07-18T09:22:22Z</time>
      </trkpt>
      <trkpt lat="44.58055" lon="7.15032">
        <ele>995.4</ele>
        <time>2022-07-18T09:22:23Z</time>
      </trkpt>
      <trkpt lat="44.58055" lon="7.15045">
        <ele>995.2</ele>
        <time>2022-07-18T09:22:24Z</time>
      </trkpt>
      <trkpt lat="44.58056" lon="7.15057">
        <ele>994.8</ele>
        <time>2022-07-18T09:22:25Z</time>
      </trkpt>
      <trkpt lat="44.58057" lon="7.1507">
        <ele>994.4</ele>
        <time>2022-07-18T09:22:26Z</time>
      </trkpt>
      <trkpt lat="44.58057" lon="7.15083">
        <ele>994.2</ele>
        <time>2022-07-18T09:22:27Z</time>
      </trkpt>
      <trkpt lat="44.58057" lon="7.15096">
        <ele>994</ele>
        <time>2022-07-18T09:22:28Z</time>
      </trkpt>
      <trkpt lat="44.58057" lon="7.15109">
        <ele>993.8</ele>
        <time>2022-07-18T09:22:29Z</time>
      </trkpt>
      <trkpt lat="44.58056" lon="7.15121">
        <ele>993.4</ele>
        <time>2022-07-18T09:22:30Z</time>
      </trkpt>
      <trkpt lat="44.58054" lon="7.15134">
        <ele>993.2</ele>
        <time>2022-07-18T09:22:31Z</time>
      </trkpt>
      <trkpt lat="44.58051" lon="7.15148">
        <ele>993</ele>
        <time>2022-07-18T09:22:32Z</time>
      </trkpt>
      <trkpt lat="44.58048" lon="7.1516">
        <ele>992.6</ele>
        <time>2022-07-18T09:22:33Z</time>
      </trkpt>
      <trkpt lat="44.58046" lon="7.15173">
        <ele>992.4</ele>
        <time>2022-07-18T09:22:34Z</time>
      </trkpt>
      <trkpt lat="44.58043" lon="7.15185">
        <ele>992.2</ele>
        <time>2022-07-18T09:22:35Z</time>
      </trkpt>
      <trkpt lat="44.58041" lon="7.15196">
        <ele>992.2</ele>
        <time>2022-07-18T09:22:36Z</time>
      </trkpt>
      <trkpt lat="44.58038" lon="7.15208">
        <ele>991.8</ele>
        <time>2022-07-18T09:22:37Z</time>
      </trkpt>
      <trkpt lat="44.58037" lon="7.1522">
        <ele>991.4</ele>
        <time>2022-07-18T09:22:38Z</time>
      </trkpt>
      <trkpt lat="44.58035" lon="7.15233">
        <ele>991</ele>
        <time>2022-07-18T09:22:39Z</time>
      </trkpt>
      <trkpt lat="44.58032" lon="7.15245">
        <ele>990.8</ele>
        <time>2022-07-18T09:22:40Z</time>
      </trkpt>
      <trkpt lat="44.58031" lon="7.15259">
        <ele>990.4</ele>
        <time>2022-07-18T09:22:41Z</time>
      </trkpt>
      <trkpt lat="44.58028" lon="7.15272">
        <ele>990.2</ele>
        <time>2022-07-18T09:22:42Z</time>
      </trkpt>
      <trkpt lat="44.58026" lon="7.15285">
        <ele>989.8</ele>
        <time>2022-07-18T09:22:43Z</time>
      </trkpt>
      <trkpt lat="44.58024" lon="7.15298">
        <ele>989.4</ele>
        <time>2022-07-18T09:22:44Z</time>
      </trkpt>
      <trkpt lat="44.58022" lon="7.1531">
        <ele>989</ele>
        <time>2022-07-18T09:22:45Z</time>
      </trkpt>
      <trkpt lat="44.58019" lon="7.15322">
        <ele>988.8</ele>
        <time>2022-07-18T09:22:46Z</time>
      </trkpt>
      <trkpt lat="44.58017" lon="7.15334">
        <ele>988.4</ele>
        <time>2022-07-18T09:22:47Z</time>
      </trkpt>
      <trkpt lat="44.58015" lon="7.15346">
        <ele>988.2</ele>
        <time>2022-07-18T09:22:48Z</time>
      </trkpt>
      <trkpt lat="44.58013" lon="7.15358">
        <ele>987.8</ele>
        <time>2022-07-18T09:22:49Z</time>
      </trkpt>
      <trkpt lat="44.58011" lon="7.15369">
        <ele>987.4</ele>
        <time>2022-07-18T09:22:50Z</time>
      </trkpt>
      <trkpt lat="44.58009" lon="7.15381">
        <ele>987.2</ele>
        <time>2022-07-18T09:22:51Z</time>
      </trkpt>
      <trkpt lat="44.58006" lon="7.15392">
        <ele>986.8</ele>
        <time>2022-07-18T09:22:52Z</time>
      </trkpt>
      <trkpt lat="44.58004" lon="7.15403">
        <ele>986.6</ele>
        <time>2022-07-18T09:22:53Z</time>
      </trkpt>
      <trkpt lat="44.58002" lon="7.15415">
        <ele>986.2</ele>
        <time>2022-07-18T09:22:54Z</time>
      </trkpt>
      <trkpt lat="44.57999" lon="7.15427">
        <ele>986</ele>
        <time>2022-07-18T09:22:55Z</time>
      </trkpt>
      <trkpt lat="44.57997" lon="7.15439">
        <ele>985.6</ele>
        <time>2022-07-18T09:22:56Z</time>
      </trkpt>
      <trkpt lat="44.57995" lon="7.15451">
        <ele>985.4</ele>
        <time>2022-07-18T09:22:57Z</time>
      </trkpt>
      <trkpt lat="44.57992" lon="7.15463">
        <ele>985.4</ele>
        <time>2022-07-18T09:22:58Z</time>
      </trkpt>
      <trkpt lat="44.5799" lon="7.15475">
        <ele>984.8</ele>
        <time>2022-07-18T09:22:59Z</time>
      </trkpt>
      <trkpt lat="44.57987" lon="7.15488">
        <ele>984.4</ele>
        <time>2022-07-18T09:23:00Z</time>
      </trkpt>
      <trkpt lat="44.57985" lon="7.155">
        <ele>984.2</ele>
        <time>2022-07-18T09:23:01Z</time>
      </trkpt>
      <trkpt lat="44.57983" lon="7.15512">
        <ele>983.8</ele>
        <time>2022-07-18T09:23:02Z</time>
      </trkpt>
      <trkpt lat="44.57981" lon="7.15525">
        <ele>983.4</ele>
        <time>2022-07-18T09:23:03Z</time>
      </trkpt>
      <trkpt lat="44.57979" lon="7.15537">
        <ele>983</ele>
        <time>2022-07-18T09:23:04Z</time>
      </trkpt>
      <trkpt lat="44.57977" lon="7.15549">
        <ele>982.6</ele>
        <time>2022-07-18T09:23:05Z</time>
      </trkpt>
      <trkpt lat="44.57974" lon="7.15561">
        <ele>982.2</ele>
        <time>2022-07-18T09:23:06Z</time>
      </trkpt>
      <trkpt lat="44.57972" lon="7.15573">
        <ele>982</ele>
        <time>2022-07-18T09:23:07Z</time>
      </trkpt>
      <trkpt lat="44.5797" lon="7.15585">
        <ele>981.8</ele>
        <time>2022-07-18T09:23:08Z</time>
      </trkpt>
      <trkpt lat="44.57967" lon="7.15597">
        <ele>981.6</ele>
        <time>2022-07-18T09:23:09Z</time>
      </trkpt>
      <trkpt lat="44.57965" lon="7.15608">
        <ele>981.6</ele>
        <time>2022-07-18T09:23:10Z</time>
      </trkpt>
      <trkpt lat="44.57963" lon="7.1562">
        <ele>981</ele>
        <time>2022-07-18T09:23:11Z</time>
      </trkpt>
      <trkpt lat="44.5796" lon="7.15631">
        <ele>980.8</ele>
        <time>2022-07-18T09:23:12Z</time>
      </trkpt>
      <trkpt lat="44.57958" lon="7.15643">
        <ele>980.4</ele>
        <time>2022-07-18T09:23:13Z</time>
      </trkpt>
      <trkpt lat="44.57955" lon="7.15654">
        <ele>980.4</ele>
        <time>2022-07-18T09:23:14Z</time>
      </trkpt>
      <trkpt lat="44.57953" lon="7.15666">
        <ele>980</ele>
        <time>2022-07-18T09:23:15Z</time>
      </trkpt>
      <trkpt lat="44.5795" lon="7.15678">
        <ele>979.4</ele>
        <time>2022-07-18T09:23:16Z</time>
      </trkpt>
      <trkpt lat="44.57947" lon="7.1569">
        <ele>979.2</ele>
        <time>2022-07-18T09:23:17Z</time>
      </trkpt>
      <trkpt lat="44.57945" lon="7.15701">
        <ele>979.2</ele>
        <time>2022-07-18T09:23:18Z</time>
      </trkpt>
      <trkpt lat="44.57942" lon="7.15713">
        <ele>979</ele>
        <time>2022-07-18T09:23:19Z</time>
      </trkpt>
      <trkpt lat="44.57939" lon="7.15725">
        <ele>978.6</ele>
        <time>2022-07-18T09:23:20Z</time>
      </trkpt>
      <trkpt lat="44.57937" lon="7.15737">
        <ele>978.4</ele>
        <time>2022-07-18T09:23:21Z</time>
      </trkpt>
      <trkpt lat="44.57934" lon="7.15748">
        <ele>978.4</ele>
        <time>2022-07-18T09:23:22Z</time>
      </trkpt>
      <trkpt lat="44.57932" lon="7.15759">
        <ele>978.4</ele>
        <time>2022-07-18T09:23:23Z</time>
      </trkpt>
      <trkpt lat="44.57929" lon="7.1577">
        <ele>978.2</ele>
        <time>2022-07-18T09:23:24Z</time>
      </trkpt>
      <trkpt lat="44.57927" lon="7.15782">
        <ele>978.2</ele>
        <time>2022-07-18T09:23:25Z</time>
      </trkpt>
      <trkpt lat="44.57926" lon="7.15793">
        <ele>978.2</ele>
        <time>2022-07-18T09:23:26Z</time>
      </trkpt>
      <trkpt lat="44.57924" lon="7.15804">
        <ele>978</ele>
        <time>2022-07-18T09:23:27Z</time>
      </trkpt>
      <trkpt lat="44.57923" lon="7.15815">
        <ele>978</ele>
        <time>2022-07-18T09:23:28Z</time>
      </trkpt>
      <trkpt lat="44.57921" lon="7.15826">
        <ele>978</ele>
        <time>2022-07-18T09:23:29Z</time>
      </trkpt>
      <trkpt lat="44.5792" lon="7.15838">
        <ele>977.6</ele>
        <time>2022-07-18T09:23:30Z</time>
      </trkpt>
      <trkpt lat="44.57918" lon="7.15849">
        <ele>977.4</ele>
        <time>2022-07-18T09:23:31Z</time>
      </trkpt>
      <trkpt lat="44.57917" lon="7.1586">
        <ele>977</ele>
        <time>2022-07-18T09:23:32Z</time>
      </trkpt>
      <trkpt lat="44.57915" lon="7.15871">
        <ele>976.8</ele>
        <time>2022-07-18T09:23:33Z</time>
      </trkpt>
      <trkpt lat="44.57914" lon="7.15882">
        <ele>976.4</ele>
        <time>2022-07-18T09:23:34Z</time>
      </trkpt>
      <trkpt lat="44.57914" lon="7.15894">
        <ele>976.2</ele>
        <time>2022-07-18T09:23:35Z</time>
      </trkpt>
      <trkpt lat="44.57913" lon="7.15906">
        <ele>975.8</ele>
        <time>2022-07-18T09:23:36Z</time>
      </trkpt>
      <trkpt lat="44.57913" lon="7.15918">
        <ele>975.2</ele>
        <time>2022-07-18T09:23:37Z</time>
      </trkpt>
      <trkpt lat="44.57914" lon="7.15931">
        <ele>974.8</ele>
        <time>2022-07-18T09:23:38Z</time>
      </trkpt>
      <trkpt lat="44.57915" lon="7.15944">
        <ele>974.4</ele>
        <time>2022-07-18T09:23:39Z</time>
      </trkpt>
      <trkpt lat="44.57918" lon="7.15957">
        <ele>973.8</ele>
        <time>2022-07-18T09:23:40Z</time>
      </trkpt>
      <trkpt lat="44.57921" lon="7.15971">
        <ele>973.4</ele>
        <time>2022-07-18T09:23:41Z</time>
      </trkpt>
      <trkpt lat="44.57924" lon="7.15983">
        <ele>972.8</ele>
        <time>2022-07-18T09:23:42Z</time>
      </trkpt>
      <trkpt lat="44.57928" lon="7.15995">
        <ele>972.4</ele>
        <time>2022-07-18T09:23:43Z</time>
      </trkpt>
      <trkpt lat="44.5793" lon="7.16007">
        <ele>971.8</ele>
        <time>2022-07-18T09:23:44Z</time>
      </trkpt>
      <trkpt lat="44.57933" lon="7.16019">
        <ele>971.4</ele>
        <time>2022-07-18T09:23:45Z</time>
      </trkpt>
      <trkpt lat="44.57935" lon="7.16031">
        <ele>971</ele>
        <time>2022-07-18T09:23:46Z</time>
      </trkpt>
      <trkpt lat="44.57938" lon="7.16044">
        <ele>970.6</ele>
        <time>2022-07-18T09:23:47Z</time>
      </trkpt>
      <trkpt lat="44.5794" lon="7.16058">
        <ele>970.2</ele>
        <time>2022-07-18T09:23:48Z</time>
      </trkpt>
      <trkpt lat="44.57941" lon="7.16072">
        <ele>970</ele>
        <time>2022-07-18T09:23:49Z</time>
      </trkpt>
      <trkpt lat="44.57942" lon="7.16085">
        <ele>969.6</ele>
        <time>2022-07-18T09:23:50Z</time>
      </trkpt>
      <trkpt lat="44.57943" lon="7.161">
        <ele>969.2</ele>
        <time>2022-07-18T09:23:51Z</time>
      </trkpt>
      <trkpt lat="44.57943" lon="7.16112">
        <ele>968.8</ele>
        <time>2022-07-18T09:23:52Z</time>
      </trkpt>
      <trkpt lat="44.57943" lon="7.16126">
        <ele>968.6</ele>
        <time>2022-07-18T09:23:53Z</time>
      </trkpt>
      <trkpt lat="44.57943" lon="7.1614">
        <ele>968.2</ele>
        <time>2022-07-18T09:23:54Z</time>
      </trkpt>
      <trkpt lat="44.57945" lon="7.16153">
        <ele>968</ele>
        <time>2022-07-18T09:23:55Z</time>
      </trkpt>
      <trkpt lat="44.57946" lon="7.16166">
        <ele>968</ele>
        <time>2022-07-18T09:23:56Z</time>
      </trkpt>
      <trkpt lat="44.57946" lon="7.1618">
        <ele>967.6</ele>
        <time>2022-07-18T09:23:57Z</time>
      </trkpt>
      <trkpt lat="44.57946" lon="7.16193">
        <ele>967.2</ele>
        <time>2022-07-18T09:23:58Z</time>
      </trkpt>
      <trkpt lat="44.57947" lon="7.16206">
        <ele>966.8</ele>
        <time>2022-07-18T09:23:59Z</time>
      </trkpt>
      <trkpt lat="44.57948" lon="7.16219">
        <ele>966.4</ele>
        <time>2022-07-18T09:24:00Z</time>
      </trkpt>
      <trkpt lat="44.57948" lon="7.16232">
        <ele>965.8</ele>
        <time>2022-07-18T09:24:01Z</time>
      </trkpt>
      <trkpt lat="44.5795" lon="7.16246">
        <ele>965.4</ele>
        <time>2022-07-18T09:24:02Z</time>
      </trkpt>
      <trkpt lat="44.57953" lon="7.16261">
        <ele>965</ele>
        <time>2022-07-18T09:24:03Z</time>
      </trkpt>
      <trkpt lat="44.57956" lon="7.16274">
        <ele>964.6</ele>
        <time>2022-07-18T09:24:04Z</time>
      </trkpt>
      <trkpt lat="44.57958" lon="7.16286">
        <ele>963.8</ele>
        <time>2022-07-18T09:24:05Z</time>
      </trkpt>
      <trkpt lat="44.57961" lon="7.16297">
        <ele>963.2</ele>
        <time>2022-07-18T09:24:06Z</time>
      </trkpt>
      <trkpt lat="44.57965" lon="7.16309">
        <ele>962.8</ele>
        <time>2022-07-18T09:24:07Z</time>
      </trkpt>
      <trkpt lat="44.57969" lon="7.1632">
        <ele>962.2</ele>
        <time>2022-07-18T09:24:08Z</time>
      </trkpt>
      <trkpt lat="44.57974" lon="7.1633">
        <ele>961.8</ele>
        <time>2022-07-18T09:24:09Z</time>
      </trkpt>
      <trkpt lat="44.5798" lon="7.1634">
        <ele>961.4</ele>
        <time>2022-07-18T09:24:10Z</time>
      </trkpt>
      <trkpt lat="44.57986" lon="7.1635">
        <ele>961</ele>
        <time>2022-07-18T09:24:11Z</time>
      </trkpt>
      <trkpt lat="44.57993" lon="7.16358">
        <ele>960.8</ele>
        <time>2022-07-18T09:24:12Z</time>
      </trkpt>
      <trkpt lat="44.58" lon="7.16366">
        <ele>960.4</ele>
        <time>2022-07-18T09:24:13Z</time>
      </trkpt>
      <trkpt lat="44.58006" lon="7.16375">
        <ele>960.4</ele>
        <time>2022-07-18T09:24:14Z</time>
      </trkpt>
      <trkpt lat="44.58012" lon="7.16384">
        <ele>960.2</ele>
        <time>2022-07-18T09:24:15Z</time>
      </trkpt>
      <trkpt lat="44.58018" lon="7.16392">
        <ele>959.8</ele>
        <time>2022-07-18T09:24:16Z</time>
      </trkpt>
      <trkpt lat="44.58025" lon="7.164">
        <ele>959.6</ele>
        <time>2022-07-18T09:24:17Z</time>
      </trkpt>
      <trkpt lat="44.58032" lon="7.1641">
        <ele>959.2</ele>
        <time>2022-07-18T09:24:18Z</time>
      </trkpt>
      <trkpt lat="44.58039" lon="7.16422">
        <ele>959</ele>
        <time>2022-07-18T09:24:19Z</time>
      </trkpt>
      <trkpt lat="44.58046" lon="7.16433">
        <ele>958.8</ele>
        <time>2022-07-18T09:24:20Z</time>
      </trkpt>
      <trkpt lat="44.58053" lon="7.16443">
        <ele>958.4</ele>
        <time>2022-07-18T09:24:21Z</time>
      </trkpt>
      <trkpt lat="44.58059" lon="7.16454">
        <ele>958.2</ele>
        <time>2022-07-18T09:24:22Z</time>
      </trkpt>
      <trkpt lat="44.58064" lon="7.16465">
        <ele>957.8</ele>
        <time>2022-07-18T09:24:23Z</time>
      </trkpt>
      <trkpt lat="44.5807" lon="7.16477">
        <ele>957.6</ele>
        <time>2022-07-18T09:24:24Z</time>
      </trkpt>
      <trkpt lat="44.58076" lon="7.16489">
        <ele>957.4</ele>
        <time>2022-07-18T09:24:25Z</time>
      </trkpt>
      <trkpt lat="44.58081" lon="7.16501">
        <ele>957</ele>
        <time>2022-07-18T09:24:26Z</time>
      </trkpt>
      <trkpt lat="44.58086" lon="7.16514">
        <ele>956.8</ele>
        <time>2022-07-18T09:24:27Z</time>
      </trkpt>
      <trkpt lat="44.58091" lon="7.16527">
        <ele>956.6</ele>
        <time>2022-07-18T09:24:28Z</time>
      </trkpt>
      <trkpt lat="44.58095" lon="7.16539">
        <ele>956.6</ele>
        <time>2022-07-18T09:24:29Z</time>
      </trkpt>
      <trkpt lat="44.58099" lon="7.16552">
        <ele>956.2</ele>
        <time>2022-07-18T09:24:30Z</time>
      </trkpt>
      <trkpt lat="44.58104" lon="7.16564">
        <ele>956.2</ele>
        <time>2022-07-18T09:24:31Z</time>
      </trkpt>
      <trkpt lat="44.58107" lon="7.16576">
        <ele>955.8</ele>
        <time>2022-07-18T09:24:32Z</time>
      </trkpt>
      <trkpt lat="44.58112" lon="7.16589">
        <ele>955.6</ele>
        <time>2022-07-18T09:24:33Z</time>
      </trkpt>
      <trkpt lat="44.58114" lon="7.16601">
        <ele>955.2</ele>
        <time>2022-07-18T09:24:34Z</time>
      </trkpt>
      <trkpt lat="44.58118" lon="7.16613">
        <ele>955</ele>
        <time>2022-07-18T09:24:35Z</time>
      </trkpt>
      <trkpt lat="44.58121" lon="7.16625">
        <ele>954.6</ele>
        <time>2022-07-18T09:24:36Z</time>
      </trkpt>
      <trkpt lat="44.58124" lon="7.16637">
        <ele>954.2</ele>
        <time>2022-07-18T09:24:37Z</time>
      </trkpt>
      <trkpt lat="44.58127" lon="7.16649">
        <ele>954</ele>
        <time>2022-07-18T09:24:38Z</time>
      </trkpt>
      <trkpt lat="44.58131" lon="7.1666">
        <ele>953.8</ele>
        <time>2022-07-18T09:24:39Z</time>
      </trkpt>
      <trkpt lat="44.58134" lon="7.16672">
        <ele>953.4</ele>
        <time>2022-07-18T09:24:40Z</time>
      </trkpt>
      <trkpt lat="44.58138" lon="7.16683">
        <ele>953</ele>
        <time>2022-07-18T09:24:41Z</time>
      </trkpt>
      <trkpt lat="44.5814" lon="7.16694">
        <ele>952.6</ele>
        <time>2022-07-18T09:24:42Z</time>
      </trkpt>
      <trkpt lat="44.58143" lon="7.16705">
        <ele>952.4</ele>
        <time>2022-07-18T09:24:43Z</time>
      </trkpt>
      <trkpt lat="44.58146" lon="7.16716">
        <ele>952.4</ele>
        <time>2022-07-18T09:24:44Z</time>
      </trkpt>
      <trkpt lat="44.58149" lon="7.16726">
        <ele>952</ele>
        <time>2022-07-18T09:24:45Z</time>
      </trkpt>
      <trkpt lat="44.58153" lon="7.16737">
        <ele>952</ele>
        <time>2022-07-18T09:24:46Z</time>
      </trkpt>
      <trkpt lat="44.58156" lon="7.16748">
        <ele>952</ele>
        <time>2022-07-18T09:24:47Z</time>
      </trkpt>
      <trkpt lat="44.58159" lon="7.16759">
        <ele>952</ele>
        <time>2022-07-18T09:24:48Z</time>
      </trkpt>
      <trkpt lat="44.58162" lon="7.1677">
        <ele>951.6</ele>
        <time>2022-07-18T09:24:49Z</time>
      </trkpt>
      <trkpt lat="44.58165" lon="7.1678">
        <ele>951.6</ele>
        <time>2022-07-18T09:24:50Z</time>
      </trkpt>
      <trkpt lat="44.58167" lon="7.1679">
        <ele>951.2</ele>
        <time>2022-07-18T09:24:51Z</time>
      </trkpt>
      <trkpt lat="44.5817" lon="7.168">
        <ele>951.2</ele>
        <time>2022-07-18T09:24:52Z</time>
      </trkpt>
      <trkpt lat="44.58173" lon="7.1681">
        <ele>951</ele>
        <time>2022-07-18T09:24:53Z</time>
      </trkpt>
      <trkpt lat="44.58175" lon="7.16819">
        <ele>951</ele>
        <time>2022-07-18T09:24:54Z</time>
      </trkpt>
      <trkpt lat="44.58178" lon="7.16828">
        <ele>951</ele>
        <time>2022-07-18T09:24:55Z</time>
      </trkpt>
      <trkpt lat="44.5818" lon="7.16837">
        <ele>951</ele>
        <time>2022-07-18T09:24:56Z</time>
      </trkpt>
      <trkpt lat="44.58182" lon="7.16847">
        <ele>950.6</ele>
        <time>2022-07-18T09:24:57Z</time>
      </trkpt>
      <trkpt lat="44.58185" lon="7.16856">
        <ele>950.6</ele>
        <time>2022-07-18T09:24:58Z</time>
      </trkpt>
      <trkpt lat="44.58187" lon="7.16865">
        <ele>950.4</ele>
        <time>2022-07-18T09:24:59Z</time>
      </trkpt>
      <trkpt lat="44.58189" lon="7.16876">
        <ele>950.2</ele>
        <time>2022-07-18T09:25:00Z</time>
      </trkpt>
      <trkpt lat="44.58189" lon="7.16887">
        <ele>950.2</ele>
        <time>2022-07-18T09:25:01Z</time>
      </trkpt>
      <trkpt lat="44.58189" lon="7.16899">
        <ele>950</ele>
        <time>2022-07-18T09:25:02Z</time>
      </trkpt>
      <trkpt lat="44.58188" lon="7.1691">
        <ele>949.8</ele>
        <time>2022-07-18T09:25:03Z</time>
      </trkpt>
      <trkpt lat="44.58187" lon="7.16922">
        <ele>949.8</ele>
        <time>2022-07-18T09:25:04Z</time>
      </trkpt>
      <trkpt lat="44.58186" lon="7.16934">
        <ele>949.4</ele>
        <time>2022-07-18T09:25:05Z</time>
      </trkpt>
      <trkpt lat="44.58186" lon="7.16945">
        <ele>949.4</ele>
        <time>2022-07-18T09:25:06Z</time>
      </trkpt>
      <trkpt lat="44.58185" lon="7.16956">
        <ele>949.2</ele>
        <time>2022-07-18T09:25:07Z</time>
      </trkpt>
      <trkpt lat="44.58184" lon="7.16967">
        <ele>949.2</ele>
        <time>2022-07-18T09:25:08Z</time>
      </trkpt>
      <trkpt lat="44.58183" lon="7.16978">
        <ele>949.2</ele>
        <time>2022-07-18T09:25:09Z</time>
      </trkpt>
      <trkpt lat="44.58182" lon="7.16988">
        <ele>949.2</ele>
        <time>2022-07-18T09:25:10Z</time>
      </trkpt>
      <trkpt lat="44.58181" lon="7.16999">
        <ele>949.2</ele>
        <time>2022-07-18T09:25:11Z</time>
      </trkpt>
      <trkpt lat="44.5818" lon="7.17009">
        <ele>949.2</ele>
        <time>2022-07-18T09:25:12Z</time>
      </trkpt>
      <trkpt lat="44.5818" lon="7.17018">
        <ele>949.2</ele>
        <time>2022-07-18T09:25:13Z</time>
      </trkpt>
      <trkpt lat="44.58179" lon="7.17027">
        <ele>949.4</ele>
        <time>2022-07-18T09:25:14Z</time>
      </trkpt>
      <trkpt lat="44.58179" lon="7.17036">
        <ele>949.6</ele>
        <time>2022-07-18T09:25:15Z</time>
      </trkpt>
      <trkpt lat="44.58179" lon="7.17045">
        <ele>949.6</ele>
        <time>2022-07-18T09:25:16Z</time>
      </trkpt>
      <trkpt lat="44.58179" lon="7.17053">
        <ele>949.6</ele>
        <time>2022-07-18T09:25:17Z</time>
      </trkpt>
      <trkpt lat="44.58179" lon="7.17062">
        <ele>949.6</ele>
        <time>2022-07-18T09:25:18Z</time>
      </trkpt>
      <trkpt lat="44.5818" lon="7.1707">
        <ele>949.8</ele>
        <time>2022-07-18T09:25:19Z</time>
      </trkpt>
      <trkpt lat="44.58181" lon="7.17078">
        <ele>949.8</ele>
        <time>2022-07-18T09:25:20Z</time>
      </trkpt>
      <trkpt lat="44.58183" lon="7.17093">
        <ele>950.2</ele>
        <time>2022-07-18T09:25:21Z</time>
      </trkpt>
      <trkpt lat="44.58184" lon="7.17101">
        <ele>950.2</ele>
        <time>2022-07-18T09:25:22Z</time>
      </trkpt>
      <trkpt lat="44.58185" lon="7.17108">
        <ele>950.6</ele>
        <time>2022-07-18T09:25:23Z</time>
      </trkpt>
      <trkpt lat="44.58186" lon="7.17116">
        <ele>950.8</ele>
        <time>2022-07-18T09:25:24Z</time>
      </trkpt>
      <trkpt lat="44.58187" lon="7.17124">
        <ele>950.8</ele>
        <time>2022-07-18T09:25:25Z</time>
      </trkpt>
      <trkpt lat="44.58188" lon="7.17132">
        <ele>951.2</ele>
        <time>2022-07-18T09:25:26Z</time>
      </trkpt>
      <trkpt lat="44.58188" lon="7.1714">
        <ele>951.4</ele>
        <time>2022-07-18T09:25:27Z</time>
      </trkpt>
      <trkpt lat="44.58189" lon="7.17149">
        <ele>951.8</ele>
        <time>2022-07-18T09:25:28Z</time>
      </trkpt>
      <trkpt lat="44.58189" lon="7.17158">
        <ele>951.8</ele>
        <time>2022-07-18T09:25:29Z</time>
      </trkpt>
      <trkpt lat="44.58189" lon="7.17166">
        <ele>952</ele>
        <time>2022-07-18T09:25:30Z</time>
      </trkpt>
      <trkpt lat="44.58189" lon="7.17175">
        <ele>952</ele>
        <time>2022-07-18T09:25:31Z</time>
      </trkpt>
      <trkpt lat="44.58188" lon="7.17183">
        <ele>952</ele>
        <time>2022-07-18T09:25:32Z</time>
      </trkpt>
      <trkpt lat="44.58187" lon="7.17191">
        <ele>952</ele>
        <time>2022-07-18T09:25:33Z</time>
      </trkpt>
      <trkpt lat="44.58186" lon="7.172">
        <ele>952</ele>
        <time>2022-07-18T09:25:34Z</time>
      </trkpt>
      <trkpt lat="44.58185" lon="7.17208">
        <ele>952</ele>
        <time>2022-07-18T09:25:35Z</time>
      </trkpt>
      <trkpt lat="44.58184" lon="7.17216">
        <ele>952</ele>
        <time>2022-07-18T09:25:36Z</time>
      </trkpt>
      <trkpt lat="44.58183" lon="7.17224">
        <ele>952</ele>
        <time>2022-07-18T09:25:37Z</time>
      </trkpt>
      <trkpt lat="44.58182" lon="7.17233">
        <ele>952.4</ele>
        <time>2022-07-18T09:25:38Z</time>
      </trkpt>
      <trkpt lat="44.58181" lon="7.17241">
        <ele>952.4</ele>
        <time>2022-07-18T09:25:39Z</time>
      </trkpt>
      <trkpt lat="44.5818" lon="7.17249">
        <ele>952.4</ele>
        <time>2022-07-18T09:25:40Z</time>
      </trkpt>
      <trkpt lat="44.58179" lon="7.17257">
        <ele>952.4</ele>
        <time>2022-07-18T09:25:41Z</time>
      </trkpt>
      <trkpt lat="44.58177" lon="7.17265">
        <ele>952.4</ele>
        <time>2022-07-18T09:25:42Z</time>
      </trkpt>
      <trkpt lat="44.58176" lon="7.17273">
        <ele>952.4</ele>
        <time>2022-07-18T09:25:43Z</time>
      </trkpt>
      <trkpt lat="44.58174" lon="7.17281">
        <ele>952.6</ele>
        <time>2022-07-18T09:25:44Z</time>
      </trkpt>
      <trkpt lat="44.58173" lon="7.17289">
        <ele>952.6</ele>
        <time>2022-07-18T09:25:45Z</time>
      </trkpt>
      <trkpt lat="44.58172" lon="7.17297">
        <ele>952.6</ele>
        <time>2022-07-18T09:25:46Z</time>
      </trkpt>
      <trkpt lat="44.5817" lon="7.17305">
        <ele>952.6</ele>
        <time>2022-07-18T09:25:47Z</time>
      </trkpt>
      <trkpt lat="44.58169" lon="7.17313">
        <ele>952.6</ele>
        <time>2022-07-18T09:25:48Z</time>
      </trkpt>
      <trkpt lat="44.58167" lon="7.17321">
        <ele>952.6</ele>
        <time>2022-07-18T09:25:49Z</time>
      </trkpt>
      <trkpt lat="44.58165" lon="7.17329">
        <ele>952.6</ele>
        <time>2022-07-18T09:25:50Z</time>
      </trkpt>
      <trkpt lat="44.58163" lon="7.17337">
        <ele>952.6</ele>
        <time>2022-07-18T09:25:51Z</time>
      </trkpt>
      <trkpt lat="44.58162" lon="7.17345">
        <ele>952.6</ele>
        <time>2022-07-18T09:25:52Z</time>
      </trkpt>
      <trkpt lat="44.5816" lon="7.17353">
        <ele>952.6</ele>
        <time>2022-07-18T09:25:53Z</time>
      </trkpt>
      <trkpt lat="44.58159" lon="7.17362">
        <ele>952.4</ele>
        <time>2022-07-18T09:25:54Z</time>
      </trkpt>
      <trkpt lat="44.58157" lon="7.1737">
        <ele>952.4</ele>
        <time>2022-07-18T09:25:55Z</time>
      </trkpt>
      <trkpt lat="44.58155" lon="7.17378">
        <ele>952.4</ele>
        <time>2022-07-18T09:25:56Z</time>
      </trkpt>
      <trkpt lat="44.58153" lon="7.17387">
        <ele>952</ele>
        <time>2022-07-18T09:25:57Z</time>
      </trkpt>
      <trkpt lat="44.58151" lon="7.17396">
        <ele>951.8</ele>
        <time>2022-07-18T09:25:58Z</time>
      </trkpt>
      <trkpt lat="44.58149" lon="7.17405">
        <ele>951.8</ele>
        <time>2022-07-18T09:25:59Z</time>
      </trkpt>
      <trkpt lat="44.58147" lon="7.17414">
        <ele>951.8</ele>
        <time>2022-07-18T09:26:00Z</time>
      </trkpt>
      <trkpt lat="44.58145" lon="7.17423">
        <ele>951.8</ele>
        <time>2022-07-18T09:26:01Z</time>
      </trkpt>
      <trkpt lat="44.58143" lon="7.17432">
        <ele>951.8</ele>
        <time>2022-07-18T09:26:02Z</time>
      </trkpt>
      <trkpt lat="44.58141" lon="7.17442">
        <ele>951.6</ele>
        <time>2022-07-18T09:26:03Z</time>
      </trkpt>
      <trkpt lat="44.58139" lon="7.17451">
        <ele>951.2</ele>
        <time>2022-07-18T09:26:04Z</time>
      </trkpt>
      <trkpt lat="44.58137" lon="7.17461">
        <ele>951</ele>
        <time>2022-07-18T09:26:05Z</time>
      </trkpt>
      <trkpt lat="44.58135" lon="7.1747">
        <ele>950.6</ele>
        <time>2022-07-18T09:26:06Z</time>
      </trkpt>
      <trkpt lat="44.58133" lon="7.17479">
        <ele>950.6</ele>
        <time>2022-07-18T09:26:07Z</time>
      </trkpt>
      <trkpt lat="44.5813" lon="7.17489">
        <ele>950.6</ele>
        <time>2022-07-18T09:26:08Z</time>
      </trkpt>
      <trkpt lat="44.58128" lon="7.17498">
        <ele>950.6</ele>
        <time>2022-07-18T09:26:09Z</time>
      </trkpt>
      <trkpt lat="44.58126" lon="7.17508">
        <ele>950.4</ele>
        <time>2022-07-18T09:26:10Z</time>
      </trkpt>
      <trkpt lat="44.58124" lon="7.17518">
        <ele>950.4</ele>
        <time>2022-07-18T09:26:11Z</time>
      </trkpt>
      <trkpt lat="44.58122" lon="7.17527">
        <ele>950.4</ele>
        <time>2022-07-18T09:26:12Z</time>
      </trkpt>
      <trkpt lat="44.5812" lon="7.17536">
        <ele>950.4</ele>
        <time>2022-07-18T09:26:13Z</time>
      </trkpt>
      <trkpt lat="44.58118" lon="7.17545">
        <ele>950.4</ele>
        <time>2022-07-18T09:26:14Z</time>
      </trkpt>
      <trkpt lat="44.58116" lon="7.17553">
        <ele>950.2</ele>
        <time>2022-07-18T09:26:15Z</time>
      </trkpt>
      <trkpt lat="44.58114" lon="7.17562">
        <ele>950.2</ele>
        <time>2022-07-18T09:26:16Z</time>
      </trkpt>
      <trkpt lat="44.58112" lon="7.1757">
        <ele>950.2</ele>
        <time>2022-07-18T09:26:17Z</time>
      </trkpt>
      <trkpt lat="44.5811" lon="7.17579">
        <ele>950</ele>
        <time>2022-07-18T09:26:18Z</time>
      </trkpt>
      <trkpt lat="44.58108" lon="7.17587">
        <ele>950</ele>
        <time>2022-07-18T09:26:19Z</time>
      </trkpt>
      <trkpt lat="44.58106" lon="7.17596">
        <ele>949.6</ele>
        <time>2022-07-18T09:26:20Z</time>
      </trkpt>
      <trkpt lat="44.58104" lon="7.17604">
        <ele>949.6</ele>
        <time>2022-07-18T09:26:21Z</time>
      </trkpt>
      <trkpt lat="44.58102" lon="7.17613">
        <ele>949.4</ele>
        <time>2022-07-18T09:26:22Z</time>
      </trkpt>
      <trkpt lat="44.581" lon="7.17622">
        <ele>949.4</ele>
        <time>2022-07-18T09:26:23Z</time>
      </trkpt>
      <trkpt lat="44.58098" lon="7.1763">
        <ele>949.4</ele>
        <time>2022-07-18T09:26:24Z</time>
      </trkpt>
      <trkpt lat="44.58096" lon="7.17638">
        <ele>949</ele>
        <time>2022-07-18T09:26:25Z</time>
      </trkpt>
      <trkpt lat="44.58094" lon="7.17647">
        <ele>949</ele>
        <time>2022-07-18T09:26:26Z</time>
      </trkpt>
      <trkpt lat="44.58092" lon="7.17655">
        <ele>948.8</ele>
        <time>2022-07-18T09:26:27Z</time>
      </trkpt>
      <trkpt lat="44.5809" lon="7.17663">
        <ele>948.8</ele>
        <time>2022-07-18T09:26:28Z</time>
      </trkpt>
      <trkpt lat="44.58089" lon="7.17672">
        <ele>948.8</ele>
        <time>2022-07-18T09:26:29Z</time>
      </trkpt>
      <trkpt lat="44.58087" lon="7.1768">
        <ele>948.8</ele>
        <time>2022-07-18T09:26:30Z</time>
      </trkpt>
      <trkpt lat="44.58086" lon="7.17688">
        <ele>948.8</ele>
        <time>2022-07-18T09:26:31Z</time>
      </trkpt>
      <trkpt lat="44.58084" lon="7.17696">
        <ele>948.8</ele>
        <time>2022-07-18T09:26:32Z</time>
      </trkpt>
      <trkpt lat="44.58083" lon="7.17704">
        <ele>949.2</ele>
        <time>2022-07-18T09:26:33Z</time>
      </trkpt>
      <trkpt lat="44.58082" lon="7.17711">
        <ele>949.2</ele>
        <time>2022-07-18T09:26:34Z</time>
      </trkpt>
      <trkpt lat="44.5808" lon="7.17719">
        <ele>949.6</ele>
        <time>2022-07-18T09:26:35Z</time>
      </trkpt>
      <trkpt lat="44.58079" lon="7.17726">
        <ele>949.8</ele>
        <time>2022-07-18T09:26:36Z</time>
      </trkpt>
      <trkpt lat="44.58078" lon="7.17733">
        <ele>950</ele>
        <time>2022-07-18T09:26:37Z</time>
      </trkpt>
      <trkpt lat="44.58077" lon="7.1774">
        <ele>950</ele>
        <time>2022-07-18T09:26:38Z</time>
      </trkpt>
      <trkpt lat="44.58077" lon="7.17747">
        <ele>950.4</ele>
        <time>2022-07-18T09:26:39Z</time>
      </trkpt>
      <trkpt lat="44.58076" lon="7.17753">
        <ele>950.4</ele>
        <time>2022-07-18T09:26:40Z</time>
      </trkpt>
      <trkpt lat="44.58075" lon="7.1776">
        <ele>950.4</ele>
        <time>2022-07-18T09:26:41Z</time>
      </trkpt>
      <trkpt lat="44.58075" lon="7.17767">
        <ele>950.6</ele>
        <time>2022-07-18T09:26:42Z</time>
      </trkpt>
      <trkpt lat="44.58074" lon="7.17774">
        <ele>950.6</ele>
        <time>2022-07-18T09:26:43Z</time>
      </trkpt>
      <trkpt lat="44.58073" lon="7.17781">
        <ele>950.6</ele>
        <time>2022-07-18T09:26:44Z</time>
      </trkpt>
      <trkpt lat="44.58073" lon="7.17788">
        <ele>950.6</ele>
        <time>2022-07-18T09:26:45Z</time>
      </trkpt>
      <trkpt lat="44.58072" lon="7.17795">
        <ele>951.2</ele>
        <time>2022-07-18T09:26:47Z</time>
      </trkpt>
      <trkpt lat="44.58072" lon="7.17802">
        <ele>951.2</ele>
        <time>2022-07-18T09:26:48Z</time>
      </trkpt>
      <trkpt lat="44.58072" lon="7.17808">
        <ele>951.6</ele>
        <time>2022-07-18T09:26:49Z</time>
      </trkpt>
      <trkpt lat="44.58072" lon="7.17815">
        <ele>951.8</ele>
        <time>2022-07-18T09:26:50Z</time>
      </trkpt>
      <trkpt lat="44.58072" lon="7.17822">
        <ele>951.8</ele>
        <time>2022-07-18T09:26:51Z</time>
      </trkpt>
      <trkpt lat="44.58071" lon="7.17829">
        <ele>951.8</ele>
        <time>2022-07-18T09:26:52Z</time>
      </trkpt>
      <trkpt lat="44.58071" lon="7.17836">
        <ele>951.8</ele>
        <time>2022-07-18T09:26:53Z</time>
      </trkpt>
      <trkpt lat="44.5807" lon="7.17842">
        <ele>952.2</ele>
        <time>2022-07-18T09:26:54Z</time>
      </trkpt>
      <trkpt lat="44.5807" lon="7.17849">
        <ele>952.2</ele>
        <time>2022-07-18T09:26:55Z</time>
      </trkpt>
      <trkpt lat="44.58069" lon="7.17856">
        <ele>952.2</ele>
        <time>2022-07-18T09:26:56Z</time>
      </trkpt>
      <trkpt lat="44.58069" lon="7.17864">
        <ele>952.2</ele>
        <time>2022-07-18T09:26:57Z</time>
      </trkpt>
      <trkpt lat="44.58068" lon="7.17871">
        <ele>952.2</ele>
        <time>2022-07-18T09:26:58Z</time>
      </trkpt>
      <trkpt lat="44.58068" lon="7.17878">
        <ele>952.2</ele>
        <time>2022-07-18T09:26:59Z</time>
      </trkpt>
      <trkpt lat="44.58067" lon="7.17886">
        <ele>952.2</ele>
        <time>2022-07-18T09:27:00Z</time>
      </trkpt>
      <trkpt lat="44.58067" lon="7.17894">
        <ele>952.2</ele>
        <time>2022-07-18T09:27:01Z</time>
      </trkpt>
      <trkpt lat="44.58066" lon="7.17901">
        <ele>952.2</ele>
        <time>2022-07-18T09:27:02Z</time>
      </trkpt>
      <trkpt lat="44.58066" lon="7.17909">
        <ele>952.2</ele>
        <time>2022-07-18T09:27:03Z</time>
      </trkpt>
      <trkpt lat="44.58065" lon="7.17917">
        <ele>952</ele>
        <time>2022-07-18T09:27:04Z</time>
      </trkpt>
      <trkpt lat="44.58065" lon="7.17925">
        <ele>952</ele>
        <time>2022-07-18T09:27:05Z</time>
      </trkpt>
      <trkpt lat="44.58064" lon="7.17933">
        <ele>951.6</ele>
        <time>2022-07-18T09:27:06Z</time>
      </trkpt>
      <trkpt lat="44.58063" lon="7.17941">
        <ele>951.4</ele>
        <time>2022-07-18T09:27:07Z</time>
      </trkpt>
      <trkpt lat="44.58063" lon="7.17949">
        <ele>951.4</ele>
        <time>2022-07-18T09:27:08Z</time>
      </trkpt>
      <trkpt lat="44.58062" lon="7.17957">
        <ele>951.2</ele>
        <time>2022-07-18T09:27:09Z</time>
      </trkpt>
      <trkpt lat="44.58062" lon="7.17966">
        <ele>951.2</ele>
        <time>2022-07-18T09:27:10Z</time>
      </trkpt>
      <trkpt lat="44.58062" lon="7.17975">
        <ele>951.2</ele>
        <time>2022-07-18T09:27:11Z</time>
      </trkpt>
      <trkpt lat="44.58061" lon="7.17984">
        <ele>951.2</ele>
        <time>2022-07-18T09:27:12Z</time>
      </trkpt>
      <trkpt lat="44.58061" lon="7.17993">
        <ele>950.8</ele>
        <time>2022-07-18T09:27:13Z</time>
      </trkpt>
      <trkpt lat="44.5806" lon="7.18003">
        <ele>950.8</ele>
        <time>2022-07-18T09:27:14Z</time>
      </trkpt>
      <trkpt lat="44.58059" lon="7.18012">
        <ele>950.4</ele>
        <time>2022-07-18T09:27:15Z</time>
      </trkpt>
      <trkpt lat="44.58058" lon="7.18022">
        <ele>950</ele>
        <time>2022-07-18T09:27:16Z</time>
      </trkpt>
      <trkpt lat="44.58057" lon="7.18033">
        <ele>949.6</ele>
        <time>2022-07-18T09:27:17Z</time>
      </trkpt>
      <trkpt lat="44.58056" lon="7.18044">
        <ele>949.2</ele>
        <time>2022-07-18T09:27:18Z</time>
      </trkpt>
      <trkpt lat="44.58055" lon="7.18055">
        <ele>948.8</ele>
        <time>2022-07-18T09:27:19Z</time>
      </trkpt>
      <trkpt lat="44.58054" lon="7.18066">
        <ele>948.4</ele>
        <time>2022-07-18T09:27:20Z</time>
      </trkpt>
      <trkpt lat="44.58052" lon="7.18078">
        <ele>947.8</ele>
        <time>2022-07-18T09:27:21Z</time>
      </trkpt>
      <trkpt lat="44.58049" lon="7.18089">
        <ele>947</ele>
        <time>2022-07-18T09:27:22Z</time>
      </trkpt>
      <trkpt lat="44.58047" lon="7.181">
        <ele>946.4</ele>
        <time>2022-07-18T09:27:23Z</time>
      </trkpt>
      <trkpt lat="44.58043" lon="7.18112">
        <ele>945.6</ele>
        <time>2022-07-18T09:27:24Z</time>
      </trkpt>
      <trkpt lat="44.5804" lon="7.18123">
        <ele>944.8</ele>
        <time>2022-07-18T09:27:25Z</time>
      </trkpt>
      <trkpt lat="44.58037" lon="7.18134">
        <ele>944</ele>
        <time>2022-07-18T09:27:26Z</time>
      </trkpt>
      <trkpt lat="44.58034" lon="7.18145">
        <ele>943.2</ele>
        <time>2022-07-18T09:27:27Z</time>
      </trkpt>
      <trkpt lat="44.5803" lon="7.18156">
        <ele>942.6</ele>
        <time>2022-07-18T09:27:28Z</time>
      </trkpt>
      <trkpt lat="44.58026" lon="7.18165">
        <ele>942.2</ele>
        <time>2022-07-18T09:27:29Z</time>
      </trkpt>
      <trkpt lat="44.58021" lon="7.18175">
        <ele>941.6</ele>
        <time>2022-07-18T09:27:30Z</time>
      </trkpt>
      <trkpt lat="44.58016" lon="7.18185">
        <ele>941.2</ele>
        <time>2022-07-18T09:27:31Z</time>
      </trkpt>
      <trkpt lat="44.58011" lon="7.18194">
        <ele>941</ele>
        <time>2022-07-18T09:27:32Z</time>
      </trkpt>
      <trkpt lat="44.58008" lon="7.18204">
        <ele>940.4</ele>
        <time>2022-07-18T09:27:33Z</time>
      </trkpt>
      <trkpt lat="44.58005" lon="7.18213">
        <ele>940</ele>
        <time>2022-07-18T09:27:34Z</time>
      </trkpt>
      <trkpt lat="44.58001" lon="7.18223">
        <ele>939.8</ele>
        <time>2022-07-18T09:27:35Z</time>
      </trkpt>
      <trkpt lat="44.57997" lon="7.18232">
        <ele>939.4</ele>
        <time>2022-07-18T09:27:36Z</time>
      </trkpt>
      <trkpt lat="44.57993" lon="7.18241">
        <ele>939.2</ele>
        <time>2022-07-18T09:27:37Z</time>
      </trkpt>
      <trkpt lat="44.57989" lon="7.1825">
        <ele>939.2</ele>
        <time>2022-07-18T09:27:38Z</time>
      </trkpt>
      <trkpt lat="44.57986" lon="7.18259">
        <ele>938.8</ele>
        <time>2022-07-18T09:27:39Z</time>
      </trkpt>
      <trkpt lat="44.57982" lon="7.18267">
        <ele>938.8</ele>
        <time>2022-07-18T09:27:40Z</time>
      </trkpt>
      <trkpt lat="44.57978" lon="7.18276">
        <ele>938.6</ele>
        <time>2022-07-18T09:27:41Z</time>
      </trkpt>
      <trkpt lat="44.57975" lon="7.18285">
        <ele>938.2</ele>
        <time>2022-07-18T09:27:42Z</time>
      </trkpt>
      <trkpt lat="44.57971" lon="7.18294">
        <ele>938</ele>
        <time>2022-07-18T09:27:43Z</time>
      </trkpt>
      <trkpt lat="44.57968" lon="7.18303">
        <ele>938</ele>
        <time>2022-07-18T09:27:44Z</time>
      </trkpt>
      <trkpt lat="44.57963" lon="7.18311">
        <ele>937.6</ele>
        <time>2022-07-18T09:27:45Z</time>
      </trkpt>
      <trkpt lat="44.57959" lon="7.1832">
        <ele>937.6</ele>
        <time>2022-07-18T09:27:46Z</time>
      </trkpt>
      <trkpt lat="44.57955" lon="7.18329">
        <ele>937.2</ele>
        <time>2022-07-18T09:27:47Z</time>
      </trkpt>
      <trkpt lat="44.57951" lon="7.18339">
        <ele>937.2</ele>
        <time>2022-07-18T09:27:48Z</time>
      </trkpt>
      <trkpt lat="44.57947" lon="7.18348">
        <ele>936.8</ele>
        <time>2022-07-18T09:27:49Z</time>
      </trkpt>
      <trkpt lat="44.57943" lon="7.18357">
        <ele>936.6</ele>
        <time>2022-07-18T09:27:50Z</time>
      </trkpt>
      <trkpt lat="44.57939" lon="7.18367">
        <ele>936.2</ele>
        <time>2022-07-18T09:27:51Z</time>
      </trkpt>
      <trkpt lat="44.57935" lon="7.18376">
        <ele>936.2</ele>
        <time>2022-07-18T09:27:52Z</time>
      </trkpt>
      <trkpt lat="44.57931" lon="7.18386">
        <ele>935.8</ele>
        <time>2022-07-18T09:27:53Z</time>
      </trkpt>
      <trkpt lat="44.57926" lon="7.18396">
        <ele>935.8</ele>
        <time>2022-07-18T09:27:54Z</time>
      </trkpt>
      <trkpt lat="44.57923" lon="7.18405">
        <ele>935.6</ele>
        <time>2022-07-18T09:27:55Z</time>
      </trkpt>
      <trkpt lat="44.57919" lon="7.18415">
        <ele>935.2</ele>
        <time>2022-07-18T09:27:56Z</time>
      </trkpt>
      <trkpt lat="44.57916" lon="7.18424">
        <ele>935</ele>
        <time>2022-07-18T09:27:57Z</time>
      </trkpt>
      <trkpt lat="44.57913" lon="7.18434">
        <ele>934.8</ele>
        <time>2022-07-18T09:27:58Z</time>
      </trkpt>
      <trkpt lat="44.57909" lon="7.18443">
        <ele>934.6</ele>
        <time>2022-07-18T09:27:59Z</time>
      </trkpt>
      <trkpt lat="44.57906" lon="7.18453">
        <ele>934.2</ele>
        <time>2022-07-18T09:28:00Z</time>
      </trkpt>
      <trkpt lat="44.57903" lon="7.18462">
        <ele>934</ele>
        <time>2022-07-18T09:28:01Z</time>
      </trkpt>
      <trkpt lat="44.579" lon="7.18471">
        <ele>933.6</ele>
        <time>2022-07-18T09:28:02Z</time>
      </trkpt>
      <trkpt lat="44.57897" lon="7.1848">
        <ele>933.4</ele>
        <time>2022-07-18T09:28:03Z</time>
      </trkpt>
      <trkpt lat="44.57894" lon="7.18488">
        <ele>933.4</ele>
        <time>2022-07-18T09:28:04Z</time>
      </trkpt>
      <trkpt lat="44.57892" lon="7.18497">
        <ele>933.2</ele>
        <time>2022-07-18T09:28:05Z</time>
      </trkpt>
      <trkpt lat="44.5789" lon="7.18505">
        <ele>933.2</ele>
        <time>2022-07-18T09:28:06Z</time>
      </trkpt>
      <trkpt lat="44.57887" lon="7.18514">
        <ele>933.2</ele>
        <time>2022-07-18T09:28:07Z</time>
      </trkpt>
      <trkpt lat="44.57884" lon="7.18522">
        <ele>932.8</ele>
        <time>2022-07-18T09:28:08Z</time>
      </trkpt>
      <trkpt lat="44.57882" lon="7.18531">
        <ele>932.8</ele>
        <time>2022-07-18T09:28:09Z</time>
      </trkpt>
      <trkpt lat="44.57878" lon="7.18543">
        <ele>932.4</ele>
        <time>2022-07-18T09:28:10Z</time>
      </trkpt>
      <trkpt lat="44.57877" lon="7.18547">
        <ele>932.4</ele>
        <time>2022-07-18T09:28:11Z</time>
      </trkpt>
      <trkpt lat="44.57874" lon="7.18555">
        <ele>932.4</ele>
        <time>2022-07-18T09:28:12Z</time>
      </trkpt>
      <trkpt lat="44.57872" lon="7.18564">
        <ele>932.2</ele>
        <time>2022-07-18T09:28:13Z</time>
      </trkpt>
      <trkpt lat="44.57869" lon="7.18572">
        <ele>932.2</ele>
        <time>2022-07-18T09:28:14Z</time>
      </trkpt>
      <trkpt lat="44.57866" lon="7.18581">
        <ele>931.8</ele>
        <time>2022-07-18T09:28:15Z</time>
      </trkpt>
      <trkpt lat="44.57864" lon="7.18589">
        <ele>931.6</ele>
        <time>2022-07-18T09:28:16Z</time>
      </trkpt>
      <trkpt lat="44.57862" lon="7.18598">
        <ele>931.2</ele>
        <time>2022-07-18T09:28:17Z</time>
      </trkpt>
      <trkpt lat="44.57859" lon="7.18606">
        <ele>930.8</ele>
        <time>2022-07-18T09:28:18Z</time>
      </trkpt>
      <trkpt lat="44.57857" lon="7.18615">
        <ele>930.8</ele>
        <time>2022-07-18T09:28:19Z</time>
      </trkpt>
      <trkpt lat="44.57854" lon="7.18624">
        <ele>930.4</ele>
        <time>2022-07-18T09:28:20Z</time>
      </trkpt>
      <trkpt lat="44.57851" lon="7.18633">
        <ele>930.2</ele>
        <time>2022-07-18T09:28:21Z</time>
      </trkpt>
      <trkpt lat="44.57849" lon="7.18642">
        <ele>930</ele>
        <time>2022-07-18T09:28:22Z</time>
      </trkpt>
      <trkpt lat="44.57846" lon="7.18651">
        <ele>929.6</ele>
        <time>2022-07-18T09:28:23Z</time>
      </trkpt>
      <trkpt lat="44.57844" lon="7.1866">
        <ele>929.4</ele>
        <time>2022-07-18T09:28:24Z</time>
      </trkpt>
      <trkpt lat="44.57842" lon="7.18668">
        <ele>929</ele>
        <time>2022-07-18T09:28:25Z</time>
      </trkpt>
      <trkpt lat="44.57839" lon="7.18676">
        <ele>928.8</ele>
        <time>2022-07-18T09:28:26Z</time>
      </trkpt>
      <trkpt lat="44.57837" lon="7.18684">
        <ele>928.6</ele>
        <time>2022-07-18T09:28:27Z</time>
      </trkpt>
      <trkpt lat="44.57836" lon="7.18692">
        <ele>928.2</ele>
        <time>2022-07-18T09:28:28Z</time>
      </trkpt>
      <trkpt lat="44.57834" lon="7.187">
        <ele>928</ele>
        <time>2022-07-18T09:28:29Z</time>
      </trkpt>
      <trkpt lat="44.57832" lon="7.18707">
        <ele>928</ele>
        <time>2022-07-18T09:28:30Z</time>
      </trkpt>
      <trkpt lat="44.57831" lon="7.18713">
        <ele>927.6</ele>
        <time>2022-07-18T09:28:31Z</time>
      </trkpt>
      <trkpt lat="44.57829" lon="7.18718">
        <ele>927.6</ele>
        <time>2022-07-18T09:28:32Z</time>
      </trkpt>
      <trkpt lat="44.57827" lon="7.18722">
        <ele>927.4</ele>
        <time>2022-07-18T09:28:33Z</time>
      </trkpt>
      <trkpt lat="44.57825" lon="7.18723">
        <ele>927.2</ele>
        <time>2022-07-18T09:28:34Z</time>
      </trkpt>
      <trkpt lat="44.57823" lon="7.18722">
        <ele>927.2</ele>
        <time>2022-07-18T09:28:35Z</time>
      </trkpt>
      <trkpt lat="44.57822" lon="7.18719">
        <ele>926.8</ele>
        <time>2022-07-18T09:28:36Z</time>
      </trkpt>
      <trkpt lat="44.5782" lon="7.18717">
        <ele>926.8</ele>
        <time>2022-07-18T09:28:37Z</time>
      </trkpt>
      <trkpt lat="44.57818" lon="7.18716">
        <ele>926.6</ele>
        <time>2022-07-18T09:28:38Z</time>
      </trkpt>
      <trkpt lat="44.57816" lon="7.18717">
        <ele>926.6</ele>
        <time>2022-07-18T09:28:39Z</time>
      </trkpt>
      <trkpt lat="44.57816" lon="7.18717">
        <ele>926.6</ele>
        <time>2022-07-18T09:28:40Z</time>
      </trkpt>
      <trkpt lat="44.57816" lon="7.18717">
        <ele>926.6</ele>
        <time>2022-07-18T09:28:41Z</time>
      </trkpt>
      <trkpt lat="44.57816" lon="7.18718">
        <ele>926.6</ele>
        <time>2022-07-18T09:28:42Z</time>
      </trkpt>
      <trkpt lat="44.57816" lon="7.18718">
        <ele>926.2</ele>
        <time>2022-07-18T09:28:47Z</time>
      </trkpt>
      <trkpt lat="44.57816" lon="7.18718">
        <ele>926</ele>
        <time>2022-07-18T09:28:51Z</time>
      </trkpt>
      <trkpt lat="44.57816" lon="7.18718">
        <ele>926</ele>
        <time>2022-07-18T09:28:57Z</time>
      </trkpt>
      <trkpt lat="44.57816" lon="7.18718">
        <ele>926</ele>
        <time>2022-07-18T09:29:01Z</time>
      </trkpt>
      <trkpt lat="44.57816" lon="7.18718">
        <ele>925.8</ele>
        <time>2022-07-18T09:39:22Z</time>
      </trkpt>
      <trkpt lat="44.57816" lon="7.18718">
        <ele>925.8</ele>
        <time>2022-07-18T09:39:26Z</time>
      </trkpt>
      <trkpt lat="44.57816" lon="7.18718">
        <ele>926.2</ele>
        <time>2022-07-18T09:39:31Z</time>
      </trkpt>
      <trkpt lat="44.57816" lon="7.18718">
        <ele>926.4</ele>
        <time>2022-07-18T09:39:37Z</time>
      </trkpt>
      <trkpt lat="44.57816" lon="7.18718">
        <ele>926.4</ele>
        <time>2022-07-18T09:39:41Z</time>
      </trkpt>
      <trkpt lat="44.57816" lon="7.18718">
        <ele>926.4</ele>
        <time>2022-07-18T09:39:45Z</time>
      </trkpt>
      <trkpt lat="44.57819" lon="7.18713">
        <ele>926.4</ele>
        <time>2022-07-18T09:39:47Z</time>
      </trkpt>
      <trkpt lat="44.57819" lon="7.18712">
        <ele>926.4</ele>
        <time>2022-07-18T09:39:48Z</time>
      </trkpt>
      <trkpt lat="44.57821" lon="7.1871">
        <ele>926.4</ele>
        <time>2022-07-18T09:39:49Z</time>
      </trkpt>
      <trkpt lat="44.57822" lon="7.18707">
        <ele>926.4</ele>
        <time>2022-07-18T09:39:50Z</time>
      </trkpt>
      <trkpt lat="44.57824" lon="7.18705">
        <ele>926.4</ele>
        <time>2022-07-18T09:39:51Z</time>
      </trkpt>
      <trkpt lat="44.57826" lon="7.18701">
        <ele>926</ele>
        <time>2022-07-18T09:39:52Z</time>
      </trkpt>
      <trkpt lat="44.57826" lon="7.18696">
        <ele>926</ele>
        <time>2022-07-18T09:39:53Z</time>
      </trkpt>
      <trkpt lat="44.57826" lon="7.18691">
        <ele>925.8</ele>
        <time>2022-07-18T09:39:54Z</time>
      </trkpt>
      <trkpt lat="44.57827" lon="7.18686">
        <ele>925.8</ele>
        <time>2022-07-18T09:39:55Z</time>
      </trkpt>
      <trkpt lat="44.57827" lon="7.1868">
        <ele>925.6</ele>
        <time>2022-07-18T09:39:56Z</time>
      </trkpt>
      <trkpt lat="44.57827" lon="7.18675">
        <ele>925.6</ele>
        <time>2022-07-18T09:39:57Z</time>
      </trkpt>
      <trkpt lat="44.57827" lon="7.18669">
        <ele>925.2</ele>
        <time>2022-07-18T09:39:58Z</time>
      </trkpt>
      <trkpt lat="44.57827" lon="7.18664">
        <ele>925</ele>
        <time>2022-07-18T09:39:59Z</time>
      </trkpt>
      <trkpt lat="44.57827" lon="7.18657">
        <ele>924.8</ele>
        <time>2022-07-18T09:40:00Z</time>
      </trkpt>
      <trkpt lat="44.57827" lon="7.18651">
        <ele>924.6</ele>
        <time>2022-07-18T09:40:01Z</time>
      </trkpt>
      <trkpt lat="44.57827" lon="7.18644">
        <ele>924.2</ele>
        <time>2022-07-18T09:40:02Z</time>
      </trkpt>
      <trkpt lat="44.57828" lon="7.18636">
        <ele>923.8</ele>
        <time>2022-07-18T09:40:03Z</time>
      </trkpt>
      <trkpt lat="44.57828" lon="7.18627">
        <ele>923.6</ele>
        <time>2022-07-18T09:40:04Z</time>
      </trkpt>
      <trkpt lat="44.57828" lon="7.18618">
        <ele>923.2</ele>
        <time>2022-07-18T09:40:05Z</time>
      </trkpt>
      <trkpt lat="44.57828" lon="7.18609">
        <ele>922.8</ele>
        <time>2022-07-18T09:40:06Z</time>
      </trkpt>
      <trkpt lat="44.57828" lon="7.18598">
        <ele>922.4</ele>
        <time>2022-07-18T09:40:07Z</time>
      </trkpt>
      <trkpt lat="44.57828" lon="7.18588">
        <ele>922.2</ele>
        <time>2022-07-18T09:40:08Z</time>
      </trkpt>
      <trkpt lat="44.57828" lon="7.18577">
        <ele>922</ele>
        <time>2022-07-18T09:40:09Z</time>
      </trkpt>
      <trkpt lat="44.57828" lon="7.18566">
        <ele>921.6</ele>
        <time>2022-07-18T09:40:10Z</time>
      </trkpt>
      <trkpt lat="44.57828" lon="7.18556">
        <ele>921.2</ele>
        <time>2022-07-18T09:40:11Z</time>
      </trkpt>
      <trkpt lat="44.57828" lon="7.18545">
        <ele>920.8</ele>
        <time>2022-07-18T09:40:12Z</time>
      </trkpt>
      <trkpt lat="44.57826" lon="7.18534">
        <ele>920.4</ele>
        <time>2022-07-18T09:40:13Z</time>
      </trkpt>
      <trkpt lat="44.57824" lon="7.18525">
        <ele>920.2</ele>
        <time>2022-07-18T09:40:14Z</time>
      </trkpt>
      <trkpt lat="44.57821" lon="7.18515">
        <ele>920.2</ele>
        <time>2022-07-18T09:40:15Z</time>
      </trkpt>
      <trkpt lat="44.57816" lon="7.18508">
        <ele>920.2</ele>
        <time>2022-07-18T09:40:16Z</time>
      </trkpt>
      <trkpt lat="44.5781" lon="7.18501">
        <ele>919.8</ele>
        <time>2022-07-18T09:40:17Z</time>
      </trkpt>
      <trkpt lat="44.57804" lon="7.18495">
        <ele>919.6</ele>
        <time>2022-07-18T09:40:18Z</time>
      </trkpt>
      <trkpt lat="44.57798" lon="7.18489">
        <ele>919.2</ele>
        <time>2022-07-18T09:40:19Z</time>
      </trkpt>
      <trkpt lat="44.57792" lon="7.18483">
        <ele>919.2</ele>
        <time>2022-07-18T09:40:20Z</time>
      </trkpt>
      <trkpt lat="44.57787" lon="7.18477">
        <ele>919.2</ele>
        <time>2022-07-18T09:40:21Z</time>
      </trkpt>
      <trkpt lat="44.57781" lon="7.18472">
        <ele>919</ele>
        <time>2022-07-18T09:40:22Z</time>
      </trkpt>
      <trkpt lat="44.57776" lon="7.18466">
        <ele>919</ele>
        <time>2022-07-18T09:40:23Z</time>
      </trkpt>
      <trkpt lat="44.57771" lon="7.1846">
        <ele>919</ele>
        <time>2022-07-18T09:40:24Z</time>
      </trkpt>
      <trkpt lat="44.57765" lon="7.18455">
        <ele>919</ele>
        <time>2022-07-18T09:40:25Z</time>
      </trkpt>
      <trkpt lat="44.5776" lon="7.1845">
        <ele>918.6</ele>
        <time>2022-07-18T09:40:26Z</time>
      </trkpt>
      <trkpt lat="44.57755" lon="7.18445">
        <ele>918.6</ele>
        <time>2022-07-18T09:40:27Z</time>
      </trkpt>
      <trkpt lat="44.57752" lon="7.18439">
        <ele>918.6</ele>
        <time>2022-07-18T09:40:28Z</time>
      </trkpt>
      <trkpt lat="44.57749" lon="7.18432">
        <ele>919</ele>
        <time>2022-07-18T09:40:29Z</time>
      </trkpt>
      <trkpt lat="44.57747" lon="7.18426">
        <ele>919</ele>
        <time>2022-07-18T09:40:30Z</time>
      </trkpt>
      <trkpt lat="44.57746" lon="7.18419">
        <ele>919.2</ele>
        <time>2022-07-18T09:40:31Z</time>
      </trkpt>
      <trkpt lat="44.57746" lon="7.18412">
        <ele>919.2</ele>
        <time>2022-07-18T09:40:32Z</time>
      </trkpt>
      <trkpt lat="44.57746" lon="7.18405">
        <ele>919.6</ele>
        <time>2022-07-18T09:40:33Z</time>
      </trkpt>
      <trkpt lat="44.57746" lon="7.18399">
        <ele>919.8</ele>
        <time>2022-07-18T09:40:34Z</time>
      </trkpt>
      <trkpt lat="44.57747" lon="7.18393">
        <ele>920</ele>
        <time>2022-07-18T09:40:35Z</time>
      </trkpt>
      <trkpt lat="44.57747" lon="7.18388">
        <ele>920.2</ele>
        <time>2022-07-18T09:40:36Z</time>
      </trkpt>
      <trkpt lat="44.57747" lon="7.18383">
        <ele>920.6</ele>
        <time>2022-07-18T09:40:37Z</time>
      </trkpt>
      <trkpt lat="44.57747" lon="7.18378">
        <ele>920.8</ele>
        <time>2022-07-18T09:40:38Z</time>
      </trkpt>
      <trkpt lat="44.57747" lon="7.18374">
        <ele>921.2</ele>
        <time>2022-07-18T09:40:39Z</time>
      </trkpt>
      <trkpt lat="44.57747" lon="7.18369">
        <ele>921.4</ele>
        <time>2022-07-18T09:40:40Z</time>
      </trkpt>
      <trkpt lat="44.57748" lon="7.18366">
        <ele>921.8</ele>
        <time>2022-07-18T09:40:41Z</time>
      </trkpt>
      <trkpt lat="44.57748" lon="7.18362">
        <ele>922</ele>
        <time>2022-07-18T09:40:42Z</time>
      </trkpt>
      <trkpt lat="44.57748" lon="7.18358">
        <ele>922.2</ele>
        <time>2022-07-18T09:40:43Z</time>
      </trkpt>
      <trkpt lat="44.57748" lon="7.18355">
        <ele>922.6</ele>
        <time>2022-07-18T09:40:44Z</time>
      </trkpt>
      <trkpt lat="44.57749" lon="7.18351">
        <ele>922.8</ele>
        <time>2022-07-18T09:40:45Z</time>
      </trkpt>
      <trkpt lat="44.57749" lon="7.18348">
        <ele>923</ele>
        <time>2022-07-18T09:40:46Z</time>
      </trkpt>
      <trkpt lat="44.57749" lon="7.18344">
        <ele>923.2</ele>
        <time>2022-07-18T09:40:47Z</time>
      </trkpt>
      <trkpt lat="44.5775" lon="7.1834">
        <ele>923.2</ele>
        <time>2022-07-18T09:40:48Z</time>
      </trkpt>
      <trkpt lat="44.5775" lon="7.18337">
        <ele>923.6</ele>
        <time>2022-07-18T09:40:49Z</time>
      </trkpt>
      <trkpt lat="44.57751" lon="7.18333">
        <ele>924</ele>
        <time>2022-07-18T09:40:50Z</time>
      </trkpt>
      <trkpt lat="44.57751" lon="7.1833">
        <ele>924</ele>
        <time>2022-07-18T09:40:51Z</time>
      </trkpt>
      <trkpt lat="44.57751" lon="7.18325">
        <ele>924.6</ele>
        <time>2022-07-18T09:40:52Z</time>
      </trkpt>
      <trkpt lat="44.57751" lon="7.18321">
        <ele>924.8</ele>
        <time>2022-07-18T09:40:53Z</time>
      </trkpt>
      <trkpt lat="44.57751" lon="7.18317">
        <ele>925</ele>
        <time>2022-07-18T09:40:54Z</time>
      </trkpt>
      <trkpt lat="44.57751" lon="7.18313">
        <ele>925.4</ele>
        <time>2022-07-18T09:40:55Z</time>
      </trkpt>
      <trkpt lat="44.57752" lon="7.18309">
        <ele>925.4</ele>
        <time>2022-07-18T09:40:56Z</time>
      </trkpt>
      <trkpt lat="44.57752" lon="7.18305">
        <ele>925.8</ele>
        <time>2022-07-18T09:40:57Z</time>
      </trkpt>
      <trkpt lat="44.57752" lon="7.18301">
        <ele>926.2</ele>
        <time>2022-07-18T09:40:58Z</time>
      </trkpt>
      <trkpt lat="44.57752" lon="7.18297">
        <ele>926.4</ele>
        <time>2022-07-18T09:40:59Z</time>
      </trkpt>
      <trkpt lat="44.57752" lon="7.18294">
        <ele>926.6</ele>
        <time>2022-07-18T09:41:00Z</time>
      </trkpt>
      <trkpt lat="44.57752" lon="7.1829">
        <ele>926.8</ele>
        <time>2022-07-18T09:41:01Z</time>
      </trkpt>
      <trkpt lat="44.57752" lon="7.18287">
        <ele>926.8</ele>
        <time>2022-07-18T09:41:02Z</time>
      </trkpt>
      <trkpt lat="44.57752" lon="7.18284">
        <ele>927.4</ele>
        <time>2022-07-18T09:41:03Z</time>
      </trkpt>
      <trkpt lat="44.57752" lon="7.18281">
        <ele>927.6</ele>
        <time>2022-07-18T09:41:04Z</time>
      </trkpt>
      <trkpt lat="44.57752" lon="7.18277">
        <ele>927.8</ele>
        <time>2022-07-18T09:41:05Z</time>
      </trkpt>
      <trkpt lat="44.57752" lon="7.18275">
        <ele>927.8</ele>
        <time>2022-07-18T09:41:06Z</time>
      </trkpt>
      <trkpt lat="44.57752" lon="7.18272">
        <ele>928.2</ele>
        <time>2022-07-18T09:41:07Z</time>
      </trkpt>
      <trkpt lat="44.57752" lon="7.18269">
        <ele>928.4</ele>
        <time>2022-07-18T09:41:08Z</time>
      </trkpt>
      <trkpt lat="44.57752" lon="7.18266">
        <ele>928.8</ele>
        <time>2022-07-18T09:41:09Z</time>
      </trkpt>
      <trkpt lat="44.57752" lon="7.18263">
        <ele>929</ele>
        <time>2022-07-18T09:41:10Z</time>
      </trkpt>
      <trkpt lat="44.57752" lon="7.1826">
        <ele>929.2</ele>
        <time>2022-07-18T09:41:11Z</time>
      </trkpt>
      <trkpt lat="44.57752" lon="7.18258">
        <ele>929.4</ele>
        <time>2022-07-18T09:41:12Z</time>
      </trkpt>
      <trkpt lat="44.57753" lon="7.18255">
        <ele>929.6</ele>
        <time>2022-07-18T09:41:13Z</time>
      </trkpt>
      <trkpt lat="44.57752" lon="7.18252">
        <ele>929.6</ele>
        <time>2022-07-18T09:41:14Z</time>
      </trkpt>
      <trkpt lat="44.57752" lon="7.18249">
        <ele>930</ele>
        <time>2022-07-18T09:41:15Z</time>
      </trkpt>
      <trkpt lat="44.57752" lon="7.18246">
        <ele>930</ele>
        <time>2022-07-18T09:41:16Z</time>
      </trkpt>
      <trkpt lat="44.57751" lon="7.18243">
        <ele>930.6</ele>
        <time>2022-07-18T09:41:17Z</time>
      </trkpt>
      <trkpt lat="44.57752" lon="7.1824">
        <ele>930.8</ele>
        <time>2022-07-18T09:41:18Z</time>
      </trkpt>
      <trkpt lat="44.57752" lon="7.18237">
        <ele>931</ele>
        <time>2022-07-18T09:41:19Z</time>
      </trkpt>
      <trkpt lat="44.57752" lon="7.18235">
        <ele>931.2</ele>
        <time>2022-07-18T09:41:20Z</time>
      </trkpt>
      <trkpt lat="44.57752" lon="7.18232">
        <ele>931.4</ele>
        <time>2022-07-18T09:41:21Z</time>
      </trkpt>
      <trkpt lat="44.57752" lon="7.18229">
        <ele>931.6</ele>
        <time>2022-07-18T09:41:22Z</time>
      </trkpt>
      <trkpt lat="44.57752" lon="7.18226">
        <ele>931.8</ele>
        <time>2022-07-18T09:41:23Z</time>
      </trkpt>
      <trkpt lat="44.57752" lon="7.18224">
        <ele>932</ele>
        <time>2022-07-18T09:41:24Z</time>
      </trkpt>
      <trkpt lat="44.57752" lon="7.18222">
        <ele>932.2</ele>
        <time>2022-07-18T09:41:25Z</time>
      </trkpt>
      <trkpt lat="44.57751" lon="7.1822">
        <ele>932.6</ele>
        <time>2022-07-18T09:41:26Z</time>
      </trkpt>
      <trkpt lat="44.57751" lon="7.18218">
        <ele>932.8</ele>
        <time>2022-07-18T09:41:27Z</time>
      </trkpt>
      <trkpt lat="44.57751" lon="7.18215">
        <ele>933</ele>
        <time>2022-07-18T09:41:28Z</time>
      </trkpt>
      <trkpt lat="44.57751" lon="7.18213">
        <ele>933</ele>
        <time>2022-07-18T09:41:29Z</time>
      </trkpt>
      <trkpt lat="44.5775" lon="7.1821">
        <ele>933.4</ele>
        <time>2022-07-18T09:41:30Z</time>
      </trkpt>
      <trkpt lat="44.57749" lon="7.18208">
        <ele>933.4</ele>
        <time>2022-07-18T09:41:31Z</time>
      </trkpt>
      <trkpt lat="44.57749" lon="7.18205">
        <ele>933.8</ele>
        <time>2022-07-18T09:41:32Z</time>
      </trkpt>
      <trkpt lat="44.57748" lon="7.18202">
        <ele>933.8</ele>
        <time>2022-07-18T09:41:33Z</time>
      </trkpt>
      <trkpt lat="44.57747" lon="7.182">
        <ele>934</ele>
        <time>2022-07-18T09:41:34Z</time>
      </trkpt>
      <trkpt lat="44.57746" lon="7.18198">
        <ele>934</ele>
        <time>2022-07-18T09:41:35Z</time>
      </trkpt>
      <trkpt lat="44.57744" lon="7.18195">
        <ele>934.4</ele>
        <time>2022-07-18T09:41:36Z</time>
      </trkpt>
      <trkpt lat="44.57743" lon="7.18193">
        <ele>934.6</ele>
        <time>2022-07-18T09:41:37Z</time>
      </trkpt>
      <trkpt lat="44.57742" lon="7.1819">
        <ele>934.6</ele>
        <time>2022-07-18T09:41:38Z</time>
      </trkpt>
      <trkpt lat="44.57741" lon="7.18188">
        <ele>935</ele>
        <time>2022-07-18T09:41:39Z</time>
      </trkpt>
      <trkpt lat="44.57739" lon="7.18187">
        <ele>935.2</ele>
        <time>2022-07-18T09:41:40Z</time>
      </trkpt>
      <trkpt lat="44.57738" lon="7.18185">
        <ele>935.2</ele>
        <time>2022-07-18T09:41:41Z</time>
      </trkpt>
      <trkpt lat="44.57736" lon="7.18183">
        <ele>935.6</ele>
        <time>2022-07-18T09:41:42Z</time>
      </trkpt>
      <trkpt lat="44.57735" lon="7.18181">
        <ele>935.6</ele>
        <time>2022-07-18T09:41:43Z</time>
      </trkpt>
      <trkpt lat="44.57734" lon="7.18179">
        <ele>936</ele>
        <time>2022-07-18T09:41:44Z</time>
      </trkpt>
      <trkpt lat="44.57732" lon="7.18178">
        <ele>936.2</ele>
        <time>2022-07-18T09:41:45Z</time>
      </trkpt>
      <trkpt lat="44.5773" lon="7.18176">
        <ele>936.4</ele>
        <time>2022-07-18T09:41:46Z</time>
      </trkpt>
      <trkpt lat="44.57728" lon="7.18175">
        <ele>936.4</ele>
        <time>2022-07-18T09:41:47Z</time>
      </trkpt>
      <trkpt lat="44.57727" lon="7.18173">
        <ele>937</ele>
        <time>2022-07-18T09:41:48Z</time>
      </trkpt>
      <trkpt lat="44.57725" lon="7.18171">
        <ele>937.2</ele>
        <time>2022-07-18T09:41:49Z</time>
      </trkpt>
      <trkpt lat="44.57724" lon="7.18168">
        <ele>937.2</ele>
        <time>2022-07-18T09:41:50Z</time>
      </trkpt>
      <trkpt lat="44.57723" lon="7.18166">
        <ele>937.6</ele>
        <time>2022-07-18T09:41:51Z</time>
      </trkpt>
      <trkpt lat="44.57721" lon="7.18164">
        <ele>937.6</ele>
        <time>2022-07-18T09:41:52Z</time>
      </trkpt>
      <trkpt lat="44.5772" lon="7.18162">
        <ele>937.8</ele>
        <time>2022-07-18T09:41:53Z</time>
      </trkpt>
      <trkpt lat="44.57719" lon="7.18159">
        <ele>937.8</ele>
        <time>2022-07-18T09:41:54Z</time>
      </trkpt>
      <trkpt lat="44.57718" lon="7.18157">
        <ele>938.2</ele>
        <time>2022-07-18T09:41:55Z</time>
      </trkpt>
      <trkpt lat="44.57716" lon="7.18155">
        <ele>938.2</ele>
        <time>2022-07-18T09:41:56Z</time>
      </trkpt>
      <trkpt lat="44.57715" lon="7.18153">
        <ele>938.6</ele>
        <time>2022-07-18T09:41:57Z</time>
      </trkpt>
      <trkpt lat="44.57713" lon="7.18152">
        <ele>938.6</ele>
        <time>2022-07-18T09:41:58Z</time>
      </trkpt>
      <trkpt lat="44.57712" lon="7.1815">
        <ele>938.8</ele>
        <time>2022-07-18T09:41:59Z</time>
      </trkpt>
      <trkpt lat="44.5771" lon="7.18148">
        <ele>938.8</ele>
        <time>2022-07-18T09:42:00Z</time>
      </trkpt>
      <trkpt lat="44.57709" lon="7.18146">
        <ele>939.2</ele>
        <time>2022-07-18T09:42:01Z</time>
      </trkpt>
      <trkpt lat="44.57708" lon="7.18143">
        <ele>939.2</ele>
        <time>2022-07-18T09:42:02Z</time>
      </trkpt>
      <trkpt lat="44.57706" lon="7.18141">
        <ele>939.6</ele>
        <time>2022-07-18T09:42:03Z</time>
      </trkpt>
      <trkpt lat="44.57705" lon="7.18139">
        <ele>939.6</ele>
        <time>2022-07-18T09:42:04Z</time>
      </trkpt>
      <trkpt lat="44.57703" lon="7.18138">
        <ele>939.8</ele>
        <time>2022-07-18T09:42:05Z</time>
      </trkpt>
      <trkpt lat="44.57702" lon="7.18136">
        <ele>939.8</ele>
        <time>2022-07-18T09:42:06Z</time>
      </trkpt>
      <trkpt lat="44.577" lon="7.18134">
        <ele>940.2</ele>
        <time>2022-07-18T09:42:07Z</time>
      </trkpt>
      <trkpt lat="44.57699" lon="7.18132">
        <ele>940.2</ele>
        <time>2022-07-18T09:42:08Z</time>
      </trkpt>
      <trkpt lat="44.57697" lon="7.1813">
        <ele>940.6</ele>
        <time>2022-07-18T09:42:09Z</time>
      </trkpt>
      <trkpt lat="44.57696" lon="7.18128">
        <ele>940.6</ele>
        <time>2022-07-18T09:42:10Z</time>
      </trkpt>
      <trkpt lat="44.57695" lon="7.18126">
        <ele>941</ele>
        <time>2022-07-18T09:42:11Z</time>
      </trkpt>
      <trkpt lat="44.57693" lon="7.18125">
        <ele>941</ele>
        <time>2022-07-18T09:42:12Z</time>
      </trkpt>
      <trkpt lat="44.57691" lon="7.18123">
        <ele>941.4</ele>
        <time>2022-07-18T09:42:13Z</time>
      </trkpt>
      <trkpt lat="44.5769" lon="7.18122">
        <ele>941.6</ele>
        <time>2022-07-18T09:42:14Z</time>
      </trkpt>
      <trkpt lat="44.57688" lon="7.1812">
        <ele>941.8</ele>
        <time>2022-07-18T09:42:15Z</time>
      </trkpt>
      <trkpt lat="44.57687" lon="7.18118">
        <ele>941.8</ele>
        <time>2022-07-18T09:42:16Z</time>
      </trkpt>
      <trkpt lat="44.57685" lon="7.18117">
        <ele>942.2</ele>
        <time>2022-07-18T09:42:17Z</time>
      </trkpt>
      <trkpt lat="44.57684" lon="7.18115">
        <ele>942.2</ele>
        <time>2022-07-18T09:42:18Z</time>
      </trkpt>
      <trkpt lat="44.57683" lon="7.18113">
        <ele>942.4</ele>
        <time>2022-07-18T09:42:19Z</time>
      </trkpt>
      <trkpt lat="44.57681" lon="7.18111">
        <ele>942.4</ele>
        <time>2022-07-18T09:42:20Z</time>
      </trkpt>
      <trkpt lat="44.57679" lon="7.18109">
        <ele>942.8</ele>
        <time>2022-07-18T09:42:21Z</time>
      </trkpt>
      <trkpt lat="44.57677" lon="7.18108">
        <ele>942.8</ele>
        <time>2022-07-18T09:42:22Z</time>
      </trkpt>
      <trkpt lat="44.57676" lon="7.18106">
        <ele>943.2</ele>
        <time>2022-07-18T09:42:23Z</time>
      </trkpt>
      <trkpt lat="44.57675" lon="7.18104">
        <ele>943.2</ele>
        <time>2022-07-18T09:42:24Z</time>
      </trkpt>
      <trkpt lat="44.57673" lon="7.18102">
        <ele>943.6</ele>
        <time>2022-07-18T09:42:25Z</time>
      </trkpt>
      <trkpt lat="44.57672" lon="7.18101">
        <ele>943.6</ele>
        <time>2022-07-18T09:42:26Z</time>
      </trkpt>
      <trkpt lat="44.5767" lon="7.18099">
        <ele>944</ele>
        <time>2022-07-18T09:42:27Z</time>
      </trkpt>
      <trkpt lat="44.57668" lon="7.18098">
        <ele>944</ele>
        <time>2022-07-18T09:42:28Z</time>
      </trkpt>
      <trkpt lat="44.57667" lon="7.18095">
        <ele>944.4</ele>
        <time>2022-07-18T09:42:29Z</time>
      </trkpt>
      <trkpt lat="44.57665" lon="7.18093">
        <ele>944.6</ele>
        <time>2022-07-18T09:42:30Z</time>
      </trkpt>
      <trkpt lat="44.57664" lon="7.18091">
        <ele>944.6</ele>
        <time>2022-07-18T09:42:31Z</time>
      </trkpt>
      <trkpt lat="44.57662" lon="7.18089">
        <ele>945</ele>
        <time>2022-07-18T09:42:32Z</time>
      </trkpt>
      <trkpt lat="44.57661" lon="7.18087">
        <ele>945.2</ele>
        <time>2022-07-18T09:42:33Z</time>
      </trkpt>
      <trkpt lat="44.5766" lon="7.18085">
        <ele>945.4</ele>
        <time>2022-07-18T09:42:34Z</time>
      </trkpt>
      <trkpt lat="44.57659" lon="7.18083">
        <ele>945.4</ele>
        <time>2022-07-18T09:42:35Z</time>
      </trkpt>
      <trkpt lat="44.57657" lon="7.18081">
        <ele>945.8</ele>
        <time>2022-07-18T09:42:36Z</time>
      </trkpt>
      <trkpt lat="44.57655" lon="7.18079">
        <ele>945.8</ele>
        <time>2022-07-18T09:42:37Z</time>
      </trkpt>
      <trkpt lat="44.57654" lon="7.18078">
        <ele>946</ele>
        <time>2022-07-18T09:42:38Z</time>
      </trkpt>
      <trkpt lat="44.57652" lon="7.18075">
        <ele>946</ele>
        <time>2022-07-18T09:42:39Z</time>
      </trkpt>
      <trkpt lat="44.57651" lon="7.18073">
        <ele>946.4</ele>
        <time>2022-07-18T09:42:40Z</time>
      </trkpt>
      <trkpt lat="44.57649" lon="7.18071">
        <ele>946.4</ele>
        <time>2022-07-18T09:42:41Z</time>
      </trkpt>
      <trkpt lat="44.57647" lon="7.18069">
        <ele>946.8</ele>
        <time>2022-07-18T09:42:42Z</time>
      </trkpt>
      <trkpt lat="44.57646" lon="7.18067">
        <ele>946.8</ele>
        <time>2022-07-18T09:42:43Z</time>
      </trkpt>
      <trkpt lat="44.57644" lon="7.18064">
        <ele>947.2</ele>
        <time>2022-07-18T09:42:44Z</time>
      </trkpt>
      <trkpt lat="44.57643" lon="7.18062">
        <ele>947.2</ele>
        <time>2022-07-18T09:42:45Z</time>
      </trkpt>
      <trkpt lat="44.57641" lon="7.1806">
        <ele>947.6</ele>
        <time>2022-07-18T09:42:46Z</time>
      </trkpt>
      <trkpt lat="44.57639" lon="7.18058">
        <ele>947.6</ele>
        <time>2022-07-18T09:42:47Z</time>
      </trkpt>
      <trkpt lat="44.57637" lon="7.18056">
        <ele>947.8</ele>
        <time>2022-07-18T09:42:48Z</time>
      </trkpt>
      <trkpt lat="44.57635" lon="7.18054">
        <ele>947.8</ele>
        <time>2022-07-18T09:42:49Z</time>
      </trkpt>
      <trkpt lat="44.57633" lon="7.18052">
        <ele>948</ele>
        <time>2022-07-18T09:42:50Z</time>
      </trkpt>
      <trkpt lat="44.57632" lon="7.1805">
        <ele>948.2</ele>
        <time>2022-07-18T09:42:51Z</time>
      </trkpt>
      <trkpt lat="44.5763" lon="7.18047">
        <ele>948.6</ele>
        <time>2022-07-18T09:42:52Z</time>
      </trkpt>
      <trkpt lat="44.57628" lon="7.18045">
        <ele>948.6</ele>
        <time>2022-07-18T09:42:53Z</time>
      </trkpt>
      <trkpt lat="44.57627" lon="7.18042">
        <ele>948.8</ele>
        <time>2022-07-18T09:42:54Z</time>
      </trkpt>
      <trkpt lat="44.57626" lon="7.18039">
        <ele>948.8</ele>
        <time>2022-07-18T09:42:55Z</time>
      </trkpt>
      <trkpt lat="44.57625" lon="7.18036">
        <ele>949.2</ele>
        <time>2022-07-18T09:42:56Z</time>
      </trkpt>
      <trkpt lat="44.57623" lon="7.18033">
        <ele>949.2</ele>
        <time>2022-07-18T09:42:57Z</time>
      </trkpt>
      <trkpt lat="44.57622" lon="7.1803">
        <ele>949.4</ele>
        <time>2022-07-18T09:42:58Z</time>
      </trkpt>
      <trkpt lat="44.57621" lon="7.18028">
        <ele>949.4</ele>
        <time>2022-07-18T09:42:59Z</time>
      </trkpt>
      <trkpt lat="44.5762" lon="7.18024">
        <ele>949.8</ele>
        <time>2022-07-18T09:43:00Z</time>
      </trkpt>
      <trkpt lat="44.57619" lon="7.18021">
        <ele>949.8</ele>
        <time>2022-07-18T09:43:01Z</time>
      </trkpt>
      <trkpt lat="44.57619" lon="7.18018">
        <ele>950</ele>
        <time>2022-07-18T09:43:02Z</time>
      </trkpt>
      <trkpt lat="44.57618" lon="7.18015">
        <ele>950</ele>
        <time>2022-07-18T09:43:03Z</time>
      </trkpt>
      <trkpt lat="44.57617" lon="7.18012">
        <ele>950.4</ele>
        <time>2022-07-18T09:43:04Z</time>
      </trkpt>
      <trkpt lat="44.57617" lon="7.18009">
        <ele>950.6</ele>
        <time>2022-07-18T09:43:05Z</time>
      </trkpt>
      <trkpt lat="44.57616" lon="7.18006">
        <ele>951</ele>
        <time>2022-07-18T09:43:06Z</time>
      </trkpt>
      <trkpt lat="44.57616" lon="7.18004">
        <ele>951</ele>
        <time>2022-07-18T09:43:07Z</time>
      </trkpt>
      <trkpt lat="44.57615" lon="7.18001">
        <ele>951.4</ele>
        <time>2022-07-18T09:43:08Z</time>
      </trkpt>
      <trkpt lat="44.57615" lon="7.17998">
        <ele>951.4</ele>
        <time>2022-07-18T09:43:09Z</time>
      </trkpt>
      <trkpt lat="44.57615" lon="7.17995">
        <ele>951.6</ele>
        <time>2022-07-18T09:43:10Z</time>
      </trkpt>
      <trkpt lat="44.57615" lon="7.17992">
        <ele>951.6</ele>
        <time>2022-07-18T09:43:11Z</time>
      </trkpt>
      <trkpt lat="44.57615" lon="7.1799">
        <ele>952</ele>
        <time>2022-07-18T09:43:12Z</time>
      </trkpt>
      <trkpt lat="44.57615" lon="7.17987">
        <ele>952</ele>
        <time>2022-07-18T09:43:13Z</time>
      </trkpt>
      <trkpt lat="44.57615" lon="7.17985">
        <ele>952.4</ele>
        <time>2022-07-18T09:43:14Z</time>
      </trkpt>
      <trkpt lat="44.57615" lon="7.17982">
        <ele>952.4</ele>
        <time>2022-07-18T09:43:15Z</time>
      </trkpt>
      <trkpt lat="44.57615" lon="7.1798">
        <ele>952.8</ele>
        <time>2022-07-18T09:43:16Z</time>
      </trkpt>
      <trkpt lat="44.57615" lon="7.17978">
        <ele>952.8</ele>
        <time>2022-07-18T09:43:17Z</time>
      </trkpt>
      <trkpt lat="44.57614" lon="7.17975">
        <ele>953</ele>
        <time>2022-07-18T09:43:18Z</time>
      </trkpt>
      <trkpt lat="44.57613" lon="7.17973">
        <ele>953.4</ele>
        <time>2022-07-18T09:43:19Z</time>
      </trkpt>
      <trkpt lat="44.57612" lon="7.17971">
        <ele>953.6</ele>
        <time>2022-07-18T09:43:20Z</time>
      </trkpt>
      <trkpt lat="44.57611" lon="7.17969">
        <ele>953.6</ele>
        <time>2022-07-18T09:43:21Z</time>
      </trkpt>
      <trkpt lat="44.5761" lon="7.17967">
        <ele>953.8</ele>
        <time>2022-07-18T09:43:22Z</time>
      </trkpt>
      <trkpt lat="44.5761" lon="7.17965">
        <ele>953.8</ele>
        <time>2022-07-18T09:43:23Z</time>
      </trkpt>
      <trkpt lat="44.57609" lon="7.17963">
        <ele>954.2</ele>
        <time>2022-07-18T09:43:24Z</time>
      </trkpt>
      <trkpt lat="44.57609" lon="7.1796">
        <ele>954.4</ele>
        <time>2022-07-18T09:43:25Z</time>
      </trkpt>
      <trkpt lat="44.57609" lon="7.17957">
        <ele>954.6</ele>
        <time>2022-07-18T09:43:26Z</time>
      </trkpt>
      <trkpt lat="44.57609" lon="7.17955">
        <ele>954.6</ele>
        <time>2022-07-18T09:43:27Z</time>
      </trkpt>
      <trkpt lat="44.57609" lon="7.17952">
        <ele>955</ele>
        <time>2022-07-18T09:43:28Z</time>
      </trkpt>
      <trkpt lat="44.57609" lon="7.1795">
        <ele>955</ele>
        <time>2022-07-18T09:43:29Z</time>
      </trkpt>
      <trkpt lat="44.5761" lon="7.17947">
        <ele>955.4</ele>
        <time>2022-07-18T09:43:30Z</time>
      </trkpt>
      <trkpt lat="44.57611" lon="7.17944">
        <ele>955.4</ele>
        <time>2022-07-18T09:43:31Z</time>
      </trkpt>
      <trkpt lat="44.57611" lon="7.17942">
        <ele>955.6</ele>
        <time>2022-07-18T09:43:32Z</time>
      </trkpt>
      <trkpt lat="44.57612" lon="7.17939">
        <ele>956</ele>
        <time>2022-07-18T09:43:33Z</time>
      </trkpt>
      <trkpt lat="44.57612" lon="7.17937">
        <ele>956.2</ele>
        <time>2022-07-18T09:43:34Z</time>
      </trkpt>
      <trkpt lat="44.57612" lon="7.17934">
        <ele>956.4</ele>
        <time>2022-07-18T09:43:35Z</time>
      </trkpt>
      <trkpt lat="44.57613" lon="7.17932">
        <ele>956.8</ele>
        <time>2022-07-18T09:43:36Z</time>
      </trkpt>
      <trkpt lat="44.57614" lon="7.1793">
        <ele>956.8</ele>
        <time>2022-07-18T09:43:37Z</time>
      </trkpt>
      <trkpt lat="44.57614" lon="7.17927">
        <ele>957.2</ele>
        <time>2022-07-18T09:43:38Z</time>
      </trkpt>
      <trkpt lat="44.57614" lon="7.17924">
        <ele>957.4</ele>
        <time>2022-07-18T09:43:39Z</time>
      </trkpt>
      <trkpt lat="44.57614" lon="7.17921">
        <ele>957.6</ele>
        <time>2022-07-18T09:43:40Z</time>
      </trkpt>
      <trkpt lat="44.57614" lon="7.17918">
        <ele>957.8</ele>
        <time>2022-07-18T09:43:41Z</time>
      </trkpt>
      <trkpt lat="44.57613" lon="7.17914">
        <ele>957.8</ele>
        <time>2022-07-18T09:43:42Z</time>
      </trkpt>
      <trkpt lat="44.57612" lon="7.1791">
        <ele>958.2</ele>
        <time>2022-07-18T09:43:43Z</time>
      </trkpt>
      <trkpt lat="44.57611" lon="7.17907">
        <ele>958.2</ele>
        <time>2022-07-18T09:43:44Z</time>
      </trkpt>
      <trkpt lat="44.57611" lon="7.17904">
        <ele>958.4</ele>
        <time>2022-07-18T09:43:45Z</time>
      </trkpt>
      <trkpt lat="44.5761" lon="7.17901">
        <ele>958.4</ele>
        <time>2022-07-18T09:43:46Z</time>
      </trkpt>
      <trkpt lat="44.5761" lon="7.17898">
        <ele>958.8</ele>
        <time>2022-07-18T09:43:47Z</time>
      </trkpt>
      <trkpt lat="44.5761" lon="7.17895">
        <ele>958.8</ele>
        <time>2022-07-18T09:43:48Z</time>
      </trkpt>
      <trkpt lat="44.57609" lon="7.17892">
        <ele>959.2</ele>
        <time>2022-07-18T09:43:49Z</time>
      </trkpt>
      <trkpt lat="44.57609" lon="7.17888">
        <ele>959.2</ele>
        <time>2022-07-18T09:43:50Z</time>
      </trkpt>
      <trkpt lat="44.57608" lon="7.17885">
        <ele>959.4</ele>
        <time>2022-07-18T09:43:51Z</time>
      </trkpt>
      <trkpt lat="44.57608" lon="7.17882">
        <ele>959.4</ele>
        <time>2022-07-18T09:43:52Z</time>
      </trkpt>
      <trkpt lat="44.57608" lon="7.17878">
        <ele>959.8</ele>
        <time>2022-07-18T09:43:53Z</time>
      </trkpt>
      <trkpt lat="44.57607" lon="7.17875">
        <ele>959.8</ele>
        <time>2022-07-18T09:43:54Z</time>
      </trkpt>
      <trkpt lat="44.57607" lon="7.17872">
        <ele>960</ele>
        <time>2022-07-18T09:43:55Z</time>
      </trkpt>
      <trkpt lat="44.57606" lon="7.17869">
        <ele>960</ele>
        <time>2022-07-18T09:43:56Z</time>
      </trkpt>
      <trkpt lat="44.57605" lon="7.17866">
        <ele>960.2</ele>
        <time>2022-07-18T09:43:57Z</time>
      </trkpt>
      <trkpt lat="44.57604" lon="7.17862">
        <ele>960.2</ele>
        <time>2022-07-18T09:43:58Z</time>
      </trkpt>
      <trkpt lat="44.57604" lon="7.17858">
        <ele>960.6</ele>
        <time>2022-07-18T09:43:59Z</time>
      </trkpt>
      <trkpt lat="44.57604" lon="7.17855">
        <ele>960.6</ele>
        <time>2022-07-18T09:44:00Z</time>
      </trkpt>
      <trkpt lat="44.57605" lon="7.17852">
        <ele>960.8</ele>
        <time>2022-07-18T09:44:01Z</time>
      </trkpt>
      <trkpt lat="44.57605" lon="7.17849">
        <ele>960.8</ele>
        <time>2022-07-18T09:44:02Z</time>
      </trkpt>
      <trkpt lat="44.57606" lon="7.17847">
        <ele>960.8</ele>
        <time>2022-07-18T09:44:03Z</time>
      </trkpt>
      <trkpt lat="44.57606" lon="7.17844">
        <ele>961.2</ele>
        <time>2022-07-18T09:44:04Z</time>
      </trkpt>
      <trkpt lat="44.57606" lon="7.17841">
        <ele>961.2</ele>
        <time>2022-07-18T09:44:05Z</time>
      </trkpt>
      <trkpt lat="44.57607" lon="7.17838">
        <ele>961.6</ele>
        <time>2022-07-18T09:44:06Z</time>
      </trkpt>
      <trkpt lat="44.57608" lon="7.17835">
        <ele>961.6</ele>
        <time>2022-07-18T09:44:07Z</time>
      </trkpt>
      <trkpt lat="44.57609" lon="7.17832">
        <ele>961.8</ele>
        <time>2022-07-18T09:44:08Z</time>
      </trkpt>
      <trkpt lat="44.57609" lon="7.17829">
        <ele>961.8</ele>
        <time>2022-07-18T09:44:09Z</time>
      </trkpt>
      <trkpt lat="44.5761" lon="7.17826">
        <ele>961.8</ele>
        <time>2022-07-18T09:44:10Z</time>
      </trkpt>
      <trkpt lat="44.5761" lon="7.17823">
        <ele>962.2</ele>
        <time>2022-07-18T09:44:11Z</time>
      </trkpt>
      <trkpt lat="44.57609" lon="7.17819">
        <ele>962.2</ele>
        <time>2022-07-18T09:44:12Z</time>
      </trkpt>
      <trkpt lat="44.57609" lon="7.17816">
        <ele>962.4</ele>
        <time>2022-07-18T09:44:13Z</time>
      </trkpt>
      <trkpt lat="44.57609" lon="7.17813">
        <ele>962.4</ele>
        <time>2022-07-18T09:44:14Z</time>
      </trkpt>
      <trkpt lat="44.57609" lon="7.17809">
        <ele>962.6</ele>
        <time>2022-07-18T09:44:15Z</time>
      </trkpt>
      <trkpt lat="44.5761" lon="7.17806">
        <ele>962.6</ele>
        <time>2022-07-18T09:44:16Z</time>
      </trkpt>
      <trkpt lat="44.57611" lon="7.17803">
        <ele>962.8</ele>
        <time>2022-07-18T09:44:17Z</time>
      </trkpt>
      <trkpt lat="44.57612" lon="7.17799">
        <ele>962.8</ele>
        <time>2022-07-18T09:44:18Z</time>
      </trkpt>
      <trkpt lat="44.57613" lon="7.17796">
        <ele>963.2</ele>
        <time>2022-07-18T09:44:19Z</time>
      </trkpt>
      <trkpt lat="44.57614" lon="7.17793">
        <ele>963.2</ele>
        <time>2022-07-18T09:44:20Z</time>
      </trkpt>
      <trkpt lat="44.57615" lon="7.1779">
        <ele>963.4</ele>
        <time>2022-07-18T09:44:21Z</time>
      </trkpt>
      <trkpt lat="44.57616" lon="7.17787">
        <ele>963.4</ele>
        <time>2022-07-18T09:44:22Z</time>
      </trkpt>
      <trkpt lat="44.57616" lon="7.17785">
        <ele>963.6</ele>
        <time>2022-07-18T09:44:23Z</time>
      </trkpt>
      <trkpt lat="44.57617" lon="7.17782">
        <ele>963.6</ele>
        <time>2022-07-18T09:44:24Z</time>
      </trkpt>
      <trkpt lat="44.57618" lon="7.1778">
        <ele>964</ele>
        <time>2022-07-18T09:44:25Z</time>
      </trkpt>
      <trkpt lat="44.57619" lon="7.17777">
        <ele>964.2</ele>
        <time>2022-07-18T09:44:26Z</time>
      </trkpt>
      <trkpt lat="44.5762" lon="7.17774">
        <ele>964.2</ele>
        <time>2022-07-18T09:44:27Z</time>
      </trkpt>
      <trkpt lat="44.5762" lon="7.17772">
        <ele>964.4</ele>
        <time>2022-07-18T09:44:28Z</time>
      </trkpt>
      <trkpt lat="44.57621" lon="7.17769">
        <ele>964.4</ele>
        <time>2022-07-18T09:44:29Z</time>
      </trkpt>
      <trkpt lat="44.57622" lon="7.17765">
        <ele>964.8</ele>
        <time>2022-07-18T09:44:30Z</time>
      </trkpt>
      <trkpt lat="44.57623" lon="7.17761">
        <ele>964.8</ele>
        <time>2022-07-18T09:44:31Z</time>
      </trkpt>
      <trkpt lat="44.57624" lon="7.17759">
        <ele>965</ele>
        <time>2022-07-18T09:44:32Z</time>
      </trkpt>
      <trkpt lat="44.57625" lon="7.17756">
        <ele>965</ele>
        <time>2022-07-18T09:44:33Z</time>
      </trkpt>
      <trkpt lat="44.57626" lon="7.17753">
        <ele>965.4</ele>
        <time>2022-07-18T09:44:34Z</time>
      </trkpt>
      <trkpt lat="44.57627" lon="7.1775">
        <ele>965.4</ele>
        <time>2022-07-18T09:44:35Z</time>
      </trkpt>
      <trkpt lat="44.57628" lon="7.17747">
        <ele>965.6</ele>
        <time>2022-07-18T09:44:36Z</time>
      </trkpt>
      <trkpt lat="44.57628" lon="7.17743">
        <ele>965.6</ele>
        <time>2022-07-18T09:44:37Z</time>
      </trkpt>
      <trkpt lat="44.57629" lon="7.1774">
        <ele>965.8</ele>
        <time>2022-07-18T09:44:38Z</time>
      </trkpt>
      <trkpt lat="44.57629" lon="7.17738">
        <ele>965.8</ele>
        <time>2022-07-18T09:44:39Z</time>
      </trkpt>
      <trkpt lat="44.57629" lon="7.17735">
        <ele>966.2</ele>
        <time>2022-07-18T09:44:40Z</time>
      </trkpt>
      <trkpt lat="44.57629" lon="7.17731">
        <ele>966.4</ele>
        <time>2022-07-18T09:44:41Z</time>
      </trkpt>
      <trkpt lat="44.57629" lon="7.17728">
        <ele>966.6</ele>
        <time>2022-07-18T09:44:42Z</time>
      </trkpt>
      <trkpt lat="44.57629" lon="7.17724">
        <ele>966.8</ele>
        <time>2022-07-18T09:44:43Z</time>
      </trkpt>
      <trkpt lat="44.57629" lon="7.1772">
        <ele>967</ele>
        <time>2022-07-18T09:44:44Z</time>
      </trkpt>
      <trkpt lat="44.57629" lon="7.17716">
        <ele>967</ele>
        <time>2022-07-18T09:44:45Z</time>
      </trkpt>
      <trkpt lat="44.57628" lon="7.17713">
        <ele>967.4</ele>
        <time>2022-07-18T09:44:46Z</time>
      </trkpt>
      <trkpt lat="44.57628" lon="7.1771">
        <ele>967.4</ele>
        <time>2022-07-18T09:44:47Z</time>
      </trkpt>
      <trkpt lat="44.57629" lon="7.17707">
        <ele>967.8</ele>
        <time>2022-07-18T09:44:48Z</time>
      </trkpt>
      <trkpt lat="44.57629" lon="7.17704">
        <ele>967.8</ele>
        <time>2022-07-18T09:44:49Z</time>
      </trkpt>
      <trkpt lat="44.57629" lon="7.17701">
        <ele>968.2</ele>
        <time>2022-07-18T09:44:50Z</time>
      </trkpt>
      <trkpt lat="44.57629" lon="7.17698">
        <ele>968.4</ele>
        <time>2022-07-18T09:44:51Z</time>
      </trkpt>
      <trkpt lat="44.57629" lon="7.17695">
        <ele>968.6</ele>
        <time>2022-07-18T09:44:52Z</time>
      </trkpt>
      <trkpt lat="44.57628" lon="7.17692">
        <ele>968.8</ele>
        <time>2022-07-18T09:44:53Z</time>
      </trkpt>
      <trkpt lat="44.57628" lon="7.17689">
        <ele>969</ele>
        <time>2022-07-18T09:44:54Z</time>
      </trkpt>
      <trkpt lat="44.57627" lon="7.17686">
        <ele>969</ele>
        <time>2022-07-18T09:44:55Z</time>
      </trkpt>
      <trkpt lat="44.57627" lon="7.17683">
        <ele>969.4</ele>
        <time>2022-07-18T09:44:56Z</time>
      </trkpt>
      <trkpt lat="44.57626" lon="7.1768">
        <ele>969.4</ele>
        <time>2022-07-18T09:44:57Z</time>
      </trkpt>
      <trkpt lat="44.57624" lon="7.17678">
        <ele>969.8</ele>
        <time>2022-07-18T09:44:58Z</time>
      </trkpt>
      <trkpt lat="44.57623" lon="7.17675">
        <ele>969.8</ele>
        <time>2022-07-18T09:44:59Z</time>
      </trkpt>
      <trkpt lat="44.57621" lon="7.17673">
        <ele>970.2</ele>
        <time>2022-07-18T09:45:00Z</time>
      </trkpt>
      <trkpt lat="44.57619" lon="7.17671">
        <ele>970.2</ele>
        <time>2022-07-18T09:45:01Z</time>
      </trkpt>
      <trkpt lat="44.57618" lon="7.17669">
        <ele>970.6</ele>
        <time>2022-07-18T09:45:02Z</time>
      </trkpt>
      <trkpt lat="44.57616" lon="7.17667">
        <ele>970.6</ele>
        <time>2022-07-18T09:45:03Z</time>
      </trkpt>
      <trkpt lat="44.57614" lon="7.17666">
        <ele>971</ele>
        <time>2022-07-18T09:45:04Z</time>
      </trkpt>
      <trkpt lat="44.57613" lon="7.17665">
        <ele>971</ele>
        <time>2022-07-18T09:45:05Z</time>
      </trkpt>
      <trkpt lat="44.57611" lon="7.17665">
        <ele>971.2</ele>
        <time>2022-07-18T09:45:06Z</time>
      </trkpt>
      <trkpt lat="44.5761" lon="7.17663">
        <ele>971.2</ele>
        <time>2022-07-18T09:45:07Z</time>
      </trkpt>
      <trkpt lat="44.57608" lon="7.17662">
        <ele>971.6</ele>
        <time>2022-07-18T09:45:08Z</time>
      </trkpt>
      <trkpt lat="44.57606" lon="7.1766">
        <ele>971.6</ele>
        <time>2022-07-18T09:45:09Z</time>
      </trkpt>
      <trkpt lat="44.57604" lon="7.17659">
        <ele>972</ele>
        <time>2022-07-18T09:45:10Z</time>
      </trkpt>
      <trkpt lat="44.57603" lon="7.17658">
        <ele>972</ele>
        <time>2022-07-18T09:45:11Z</time>
      </trkpt>
      <trkpt lat="44.57602" lon="7.17656">
        <ele>972.4</ele>
        <time>2022-07-18T09:45:12Z</time>
      </trkpt>
      <trkpt lat="44.57602" lon="7.17655">
        <ele>972.4</ele>
        <time>2022-07-18T09:45:13Z</time>
      </trkpt>
      <trkpt lat="44.57602" lon="7.17653">
        <ele>972.8</ele>
        <time>2022-07-18T09:45:14Z</time>
      </trkpt>
      <trkpt lat="44.57602" lon="7.17651">
        <ele>973</ele>
        <time>2022-07-18T09:45:15Z</time>
      </trkpt>
      <trkpt lat="44.57601" lon="7.17648">
        <ele>973</ele>
        <time>2022-07-18T09:45:16Z</time>
      </trkpt>
      <trkpt lat="44.576" lon="7.17645">
        <ele>973.2</ele>
        <time>2022-07-18T09:45:17Z</time>
      </trkpt>
      <trkpt lat="44.57599" lon="7.17643">
        <ele>973.2</ele>
        <time>2022-07-18T09:45:18Z</time>
      </trkpt>
      <trkpt lat="44.57599" lon="7.1764">
        <ele>974</ele>
        <time>2022-07-18T09:45:20Z</time>
      </trkpt>
      <trkpt lat="44.57599" lon="7.17637">
        <ele>974</ele>
        <time>2022-07-18T09:45:21Z</time>
      </trkpt>
      <trkpt lat="44.57599" lon="7.17635">
        <ele>974.2</ele>
        <time>2022-07-18T09:45:22Z</time>
      </trkpt>
      <trkpt lat="44.576" lon="7.17633">
        <ele>974.2</ele>
        <time>2022-07-18T09:45:23Z</time>
      </trkpt>
      <trkpt lat="44.57599" lon="7.1763">
        <ele>974.6</ele>
        <time>2022-07-18T09:45:24Z</time>
      </trkpt>
      <trkpt lat="44.57599" lon="7.17628">
        <ele>974.8</ele>
        <time>2022-07-18T09:45:25Z</time>
      </trkpt>
      <trkpt lat="44.57599" lon="7.17625">
        <ele>975</ele>
        <time>2022-07-18T09:45:26Z</time>
      </trkpt>
      <trkpt lat="44.57599" lon="7.17622">
        <ele>975.2</ele>
        <time>2022-07-18T09:45:27Z</time>
      </trkpt>
      <trkpt lat="44.57599" lon="7.17619">
        <ele>975.2</ele>
        <time>2022-07-18T09:45:28Z</time>
      </trkpt>
      <trkpt lat="44.57599" lon="7.17616">
        <ele>975.6</ele>
        <time>2022-07-18T09:45:29Z</time>
      </trkpt>
      <trkpt lat="44.576" lon="7.17613">
        <ele>975.8</ele>
        <time>2022-07-18T09:45:30Z</time>
      </trkpt>
      <trkpt lat="44.576" lon="7.17611">
        <ele>975.8</ele>
        <time>2022-07-18T09:45:31Z</time>
      </trkpt>
      <trkpt lat="44.57601" lon="7.17608">
        <ele>976.2</ele>
        <time>2022-07-18T09:45:32Z</time>
      </trkpt>
      <trkpt lat="44.57602" lon="7.17606">
        <ele>976.4</ele>
        <time>2022-07-18T09:45:33Z</time>
      </trkpt>
      <trkpt lat="44.57602" lon="7.17603">
        <ele>976.6</ele>
        <time>2022-07-18T09:45:34Z</time>
      </trkpt>
      <trkpt lat="44.57602" lon="7.176">
        <ele>976.8</ele>
        <time>2022-07-18T09:45:35Z</time>
      </trkpt>
      <trkpt lat="44.57604" lon="7.17598">
        <ele>977</ele>
        <time>2022-07-18T09:45:36Z</time>
      </trkpt>
      <trkpt lat="44.57604" lon="7.17595">
        <ele>977</ele>
        <time>2022-07-18T09:45:37Z</time>
      </trkpt>
      <trkpt lat="44.57603" lon="7.1759">
        <ele>977.4</ele>
        <time>2022-07-18T09:45:38Z</time>
      </trkpt>
      <trkpt lat="44.57603" lon="7.17587">
        <ele>977.4</ele>
        <time>2022-07-18T09:45:39Z</time>
      </trkpt>
      <trkpt lat="44.57604" lon="7.17584">
        <ele>977.8</ele>
        <time>2022-07-18T09:45:40Z</time>
      </trkpt>
      <trkpt lat="44.57605" lon="7.17581">
        <ele>977.8</ele>
        <time>2022-07-18T09:45:41Z</time>
      </trkpt>
      <trkpt lat="44.57606" lon="7.17578">
        <ele>978</ele>
        <time>2022-07-18T09:45:42Z</time>
      </trkpt>
      <trkpt lat="44.57608" lon="7.17575">
        <ele>978</ele>
        <time>2022-07-18T09:45:43Z</time>
      </trkpt>
      <trkpt lat="44.57607" lon="7.17571">
        <ele>978.4</ele>
        <time>2022-07-18T09:45:44Z</time>
      </trkpt>
      <trkpt lat="44.57609" lon="7.17569">
        <ele>978.4</ele>
        <time>2022-07-18T09:45:45Z</time>
      </trkpt>
      <trkpt lat="44.5761" lon="7.17566">
        <ele>978.8</ele>
        <time>2022-07-18T09:45:46Z</time>
      </trkpt>
      <trkpt lat="44.57611" lon="7.17564">
        <ele>979</ele>
        <time>2022-07-18T09:45:47Z</time>
      </trkpt>
      <trkpt lat="44.57612" lon="7.17562">
        <ele>979</ele>
        <time>2022-07-18T09:45:48Z</time>
      </trkpt>
      <trkpt lat="44.57613" lon="7.17559">
        <ele>979.4</ele>
        <time>2022-07-18T09:45:49Z</time>
      </trkpt>
      <trkpt lat="44.57615" lon="7.17556">
        <ele>979.6</ele>
        <time>2022-07-18T09:45:50Z</time>
      </trkpt>
      <trkpt lat="44.57613" lon="7.17552">
        <ele>979.6</ele>
        <time>2022-07-18T09:45:51Z</time>
      </trkpt>
      <trkpt lat="44.57614" lon="7.1755">
        <ele>979.8</ele>
        <time>2022-07-18T09:45:52Z</time>
      </trkpt>
      <trkpt lat="44.57615" lon="7.17547">
        <ele>980.2</ele>
        <time>2022-07-18T09:45:53Z</time>
      </trkpt>
      <trkpt lat="44.57617" lon="7.17543">
        <ele>980.2</ele>
        <time>2022-07-18T09:45:54Z</time>
      </trkpt>
      <trkpt lat="44.57615" lon="7.17539">
        <ele>980.6</ele>
        <time>2022-07-18T09:45:55Z</time>
      </trkpt>
      <trkpt lat="44.57615" lon="7.17537">
        <ele>980.8</ele>
        <time>2022-07-18T09:45:56Z</time>
      </trkpt>
      <trkpt lat="44.57614" lon="7.17532">
        <ele>981</ele>
        <time>2022-07-18T09:45:57Z</time>
      </trkpt>
      <trkpt lat="44.57614" lon="7.17529">
        <ele>981</ele>
        <time>2022-07-18T09:45:58Z</time>
      </trkpt>
      <trkpt lat="44.57614" lon="7.17525">
        <ele>981.4</ele>
        <time>2022-07-18T09:45:59Z</time>
      </trkpt>
      <trkpt lat="44.57615" lon="7.17523">
        <ele>981.6</ele>
        <time>2022-07-18T09:46:00Z</time>
      </trkpt>
      <trkpt lat="44.57615" lon="7.17521">
        <ele>981.6</ele>
        <time>2022-07-18T09:46:01Z</time>
      </trkpt>
      <trkpt lat="44.57616" lon="7.17518">
        <ele>982</ele>
        <time>2022-07-18T09:46:02Z</time>
      </trkpt>
      <trkpt lat="44.57616" lon="7.17514">
        <ele>982.2</ele>
        <time>2022-07-18T09:46:03Z</time>
      </trkpt>
      <trkpt lat="44.57617" lon="7.17511">
        <ele>982.4</ele>
        <time>2022-07-18T09:46:04Z</time>
      </trkpt>
      <trkpt lat="44.57617" lon="7.17508">
        <ele>982.6</ele>
        <time>2022-07-18T09:46:05Z</time>
      </trkpt>
      <trkpt lat="44.57617" lon="7.17504">
        <ele>983</ele>
        <time>2022-07-18T09:46:06Z</time>
      </trkpt>
      <trkpt lat="44.57618" lon="7.17501">
        <ele>983.2</ele>
        <time>2022-07-18T09:46:07Z</time>
      </trkpt>
      <trkpt lat="44.57619" lon="7.17498">
        <ele>983.4</ele>
        <time>2022-07-18T09:46:08Z</time>
      </trkpt>
      <trkpt lat="44.57619" lon="7.17494">
        <ele>983.6</ele>
        <time>2022-07-18T09:46:09Z</time>
      </trkpt>
      <trkpt lat="44.57621" lon="7.1749">
        <ele>983.8</ele>
        <time>2022-07-18T09:46:10Z</time>
      </trkpt>
      <trkpt lat="44.57622" lon="7.17487">
        <ele>983.8</ele>
        <time>2022-07-18T09:46:11Z</time>
      </trkpt>
      <trkpt lat="44.57624" lon="7.17483">
        <ele>984.2</ele>
        <time>2022-07-18T09:46:12Z</time>
      </trkpt>
      <trkpt lat="44.57625" lon="7.17481">
        <ele>984.2</ele>
        <time>2022-07-18T09:46:13Z</time>
      </trkpt>
      <trkpt lat="44.57626" lon="7.17474">
        <ele>984.4</ele>
        <time>2022-07-18T09:46:14Z</time>
      </trkpt>
      <trkpt lat="44.57627" lon="7.17472">
        <ele>984.8</ele>
        <time>2022-07-18T09:46:15Z</time>
      </trkpt>
      <trkpt lat="44.57628" lon="7.17469">
        <ele>985</ele>
        <time>2022-07-18T09:46:16Z</time>
      </trkpt>
      <trkpt lat="44.57626" lon="7.17465">
        <ele>985.2</ele>
        <time>2022-07-18T09:46:17Z</time>
      </trkpt>
      <trkpt lat="44.57626" lon="7.1746">
        <ele>985.4</ele>
        <time>2022-07-18T09:46:18Z</time>
      </trkpt>
      <trkpt lat="44.57626" lon="7.17457">
        <ele>985.6</ele>
        <time>2022-07-18T09:46:19Z</time>
      </trkpt>
      <trkpt lat="44.57627" lon="7.17453">
        <ele>986</ele>
        <time>2022-07-18T09:46:20Z</time>
      </trkpt>
      <trkpt lat="44.57627" lon="7.1745">
        <ele>986.2</ele>
        <time>2022-07-18T09:46:21Z</time>
      </trkpt>
      <trkpt lat="44.57627" lon="7.17446">
        <ele>986.4</ele>
        <time>2022-07-18T09:46:22Z</time>
      </trkpt>
      <trkpt lat="44.57627" lon="7.17444">
        <ele>986.6</ele>
        <time>2022-07-18T09:46:23Z</time>
      </trkpt>
      <trkpt lat="44.57628" lon="7.17441">
        <ele>987</ele>
        <time>2022-07-18T09:46:24Z</time>
      </trkpt>
      <trkpt lat="44.57629" lon="7.17438">
        <ele>987.2</ele>
        <time>2022-07-18T09:46:25Z</time>
      </trkpt>
      <trkpt lat="44.57629" lon="7.17435">
        <ele>987.4</ele>
        <time>2022-07-18T09:46:26Z</time>
      </trkpt>
      <trkpt lat="44.5763" lon="7.17432">
        <ele>987.8</ele>
        <time>2022-07-18T09:46:27Z</time>
      </trkpt>
      <trkpt lat="44.57631" lon="7.1743">
        <ele>988</ele>
        <time>2022-07-18T09:46:28Z</time>
      </trkpt>
      <trkpt lat="44.57631" lon="7.17428">
        <ele>988.2</ele>
        <time>2022-07-18T09:46:29Z</time>
      </trkpt>
      <trkpt lat="44.57632" lon="7.17425">
        <ele>988.4</ele>
        <time>2022-07-18T09:46:30Z</time>
      </trkpt>
      <trkpt lat="44.57632" lon="7.17423">
        <ele>988.8</ele>
        <time>2022-07-18T09:46:31Z</time>
      </trkpt>
      <trkpt lat="44.57633" lon="7.17421">
        <ele>988.8</ele>
        <time>2022-07-18T09:46:32Z</time>
      </trkpt>
      <trkpt lat="44.57633" lon="7.17418">
        <ele>989.2</ele>
        <time>2022-07-18T09:46:33Z</time>
      </trkpt>
      <trkpt lat="44.57633" lon="7.17415">
        <ele>989.4</ele>
        <time>2022-07-18T09:46:34Z</time>
      </trkpt>
      <trkpt lat="44.57633" lon="7.17413">
        <ele>989.6</ele>
        <time>2022-07-18T09:46:35Z</time>
      </trkpt>
      <trkpt lat="44.57633" lon="7.17411">
        <ele>989.6</ele>
        <time>2022-07-18T09:46:36Z</time>
      </trkpt>
      <trkpt lat="44.57633" lon="7.17409">
        <ele>990</ele>
        <time>2022-07-18T09:46:37Z</time>
      </trkpt>
      <trkpt lat="44.57633" lon="7.17407">
        <ele>990.2</ele>
        <time>2022-07-18T09:46:38Z</time>
      </trkpt>
      <trkpt lat="44.57634" lon="7.17405">
        <ele>990.4</ele>
        <time>2022-07-18T09:46:39Z</time>
      </trkpt>
      <trkpt lat="44.57635" lon="7.17403">
        <ele>990.6</ele>
        <time>2022-07-18T09:46:40Z</time>
      </trkpt>
      <trkpt lat="44.57634" lon="7.17401">
        <ele>990.8</ele>
        <time>2022-07-18T09:46:41Z</time>
      </trkpt>
      <trkpt lat="44.57634" lon="7.17399">
        <ele>991.2</ele>
        <time>2022-07-18T09:46:42Z</time>
      </trkpt>
      <trkpt lat="44.57634" lon="7.17396">
        <ele>991.4</ele>
        <time>2022-07-18T09:46:43Z</time>
      </trkpt>
      <trkpt lat="44.57634" lon="7.17394">
        <ele>991.6</ele>
        <time>2022-07-18T09:46:44Z</time>
      </trkpt>
      <trkpt lat="44.57634" lon="7.17392">
        <ele>991.6</ele>
        <time>2022-07-18T09:46:45Z</time>
      </trkpt>
      <trkpt lat="44.57634" lon="7.1739">
        <ele>992</ele>
        <time>2022-07-18T09:46:46Z</time>
      </trkpt>
      <trkpt lat="44.57635" lon="7.17388">
        <ele>992</ele>
        <time>2022-07-18T09:46:47Z</time>
      </trkpt>
      <trkpt lat="44.57635" lon="7.17386">
        <ele>992.4</ele>
        <time>2022-07-18T09:46:48Z</time>
      </trkpt>
      <trkpt lat="44.57636" lon="7.17384">
        <ele>992.6</ele>
        <time>2022-07-18T09:46:49Z</time>
      </trkpt>
      <trkpt lat="44.57636" lon="7.17381">
        <ele>992.8</ele>
        <time>2022-07-18T09:46:50Z</time>
      </trkpt>
      <trkpt lat="44.57637" lon="7.17379">
        <ele>992.8</ele>
        <time>2022-07-18T09:46:51Z</time>
      </trkpt>
      <trkpt lat="44.57637" lon="7.17376">
        <ele>993.2</ele>
        <time>2022-07-18T09:46:52Z</time>
      </trkpt>
      <trkpt lat="44.57638" lon="7.17374">
        <ele>993.4</ele>
        <time>2022-07-18T09:46:53Z</time>
      </trkpt>
      <trkpt lat="44.57638" lon="7.17371">
        <ele>993.4</ele>
        <time>2022-07-18T09:46:54Z</time>
      </trkpt>
      <trkpt lat="44.57639" lon="7.17369">
        <ele>993.8</ele>
        <time>2022-07-18T09:46:55Z</time>
      </trkpt>
      <trkpt lat="44.5764" lon="7.17366">
        <ele>994</ele>
        <time>2022-07-18T09:46:56Z</time>
      </trkpt>
      <trkpt lat="44.5764" lon="7.17363">
        <ele>994.4</ele>
        <time>2022-07-18T09:46:57Z</time>
      </trkpt>
      <trkpt lat="44.57641" lon="7.17361">
        <ele>994.6</ele>
        <time>2022-07-18T09:46:58Z</time>
      </trkpt>
      <trkpt lat="44.57641" lon="7.17359">
        <ele>994.6</ele>
        <time>2022-07-18T09:46:59Z</time>
      </trkpt>
      <trkpt lat="44.57641" lon="7.17358">
        <ele>995</ele>
        <time>2022-07-18T09:47:00Z</time>
      </trkpt>
      <trkpt lat="44.57642" lon="7.17356">
        <ele>995.2</ele>
        <time>2022-07-18T09:47:01Z</time>
      </trkpt>
      <trkpt lat="44.57641" lon="7.17354">
        <ele>995.4</ele>
        <time>2022-07-18T09:47:02Z</time>
      </trkpt>
      <trkpt lat="44.57642" lon="7.17351">
        <ele>995.4</ele>
        <time>2022-07-18T09:47:03Z</time>
      </trkpt>
      <trkpt lat="44.57642" lon="7.17349">
        <ele>995.8</ele>
        <time>2022-07-18T09:47:04Z</time>
      </trkpt>
      <trkpt lat="44.57644" lon="7.17348">
        <ele>995.8</ele>
        <time>2022-07-18T09:47:05Z</time>
      </trkpt>
      <trkpt lat="44.57644" lon="7.17345">
        <ele>996</ele>
        <time>2022-07-18T09:47:06Z</time>
      </trkpt>
      <trkpt lat="44.57641" lon="7.17341">
        <ele>996.2</ele>
        <time>2022-07-18T09:47:07Z</time>
      </trkpt>
      <trkpt lat="44.5764" lon="7.17338">
        <ele>996.2</ele>
        <time>2022-07-18T09:47:08Z</time>
      </trkpt>
      <trkpt lat="44.5764" lon="7.17336">
        <ele>996.6</ele>
        <time>2022-07-18T09:47:09Z</time>
      </trkpt>
      <trkpt lat="44.57638" lon="7.17332">
        <ele>997</ele>
        <time>2022-07-18T09:47:10Z</time>
      </trkpt>
      <trkpt lat="44.57639" lon="7.1733">
        <ele>997</ele>
        <time>2022-07-18T09:47:11Z</time>
      </trkpt>
      <trkpt lat="44.57639" lon="7.17328">
        <ele>997.4</ele>
        <time>2022-07-18T09:47:12Z</time>
      </trkpt>
      <trkpt lat="44.57639" lon="7.17325">
        <ele>997.4</ele>
        <time>2022-07-18T09:47:13Z</time>
      </trkpt>
      <trkpt lat="44.5764" lon="7.17322">
        <ele>997.8</ele>
        <time>2022-07-18T09:47:14Z</time>
      </trkpt>
      <trkpt lat="44.57639" lon="7.1732">
        <ele>998</ele>
        <time>2022-07-18T09:47:15Z</time>
      </trkpt>
      <trkpt lat="44.57639" lon="7.17317">
        <ele>998.2</ele>
        <time>2022-07-18T09:47:16Z</time>
      </trkpt>
      <trkpt lat="44.57639" lon="7.17314">
        <ele>998.4</ele>
        <time>2022-07-18T09:47:17Z</time>
      </trkpt>
      <trkpt lat="44.57639" lon="7.17312">
        <ele>998.8</ele>
        <time>2022-07-18T09:47:18Z</time>
      </trkpt>
      <trkpt lat="44.5764" lon="7.1731">
        <ele>999</ele>
        <time>2022-07-18T09:47:19Z</time>
      </trkpt>
      <trkpt lat="44.5764" lon="7.17308">
        <ele>999.2</ele>
        <time>2022-07-18T09:47:20Z</time>
      </trkpt>
      <trkpt lat="44.5764" lon="7.17305">
        <ele>999.2</ele>
        <time>2022-07-18T09:47:21Z</time>
      </trkpt>
      <trkpt lat="44.5764" lon="7.17303">
        <ele>999.6</ele>
        <time>2022-07-18T09:47:22Z</time>
      </trkpt>
      <trkpt lat="44.5764" lon="7.173">
        <ele>999.6</ele>
        <time>2022-07-18T09:47:23Z</time>
      </trkpt>
      <trkpt lat="44.5764" lon="7.17298">
        <ele>1000</ele>
        <time>2022-07-18T09:47:24Z</time>
      </trkpt>
      <trkpt lat="44.57641" lon="7.17295">
        <ele>1000.2</ele>
        <time>2022-07-18T09:47:25Z</time>
      </trkpt>
      <trkpt lat="44.5764" lon="7.17292">
        <ele>1000.2</ele>
        <time>2022-07-18T09:47:26Z</time>
      </trkpt>
      <trkpt lat="44.5764" lon="7.1729">
        <ele>1000.6</ele>
        <time>2022-07-18T09:47:27Z</time>
      </trkpt>
      <trkpt lat="44.5764" lon="7.17288">
        <ele>1000.8</ele>
        <time>2022-07-18T09:47:28Z</time>
      </trkpt>
      <trkpt lat="44.5764" lon="7.17285">
        <ele>1000.8</ele>
        <time>2022-07-18T09:47:29Z</time>
      </trkpt>
      <trkpt lat="44.57639" lon="7.17283">
        <ele>1001.2</ele>
        <time>2022-07-18T09:47:30Z</time>
      </trkpt>
      <trkpt lat="44.57639" lon="7.17281">
        <ele>1001.2</ele>
        <time>2022-07-18T09:47:31Z</time>
      </trkpt>
      <trkpt lat="44.57639" lon="7.17279">
        <ele>1001.8</ele>
        <time>2022-07-18T09:47:32Z</time>
      </trkpt>
      <trkpt lat="44.57639" lon="7.17276">
        <ele>1002</ele>
        <time>2022-07-18T09:47:33Z</time>
      </trkpt>
      <trkpt lat="44.57639" lon="7.17274">
        <ele>1002.2</ele>
        <time>2022-07-18T09:47:34Z</time>
      </trkpt>
      <trkpt lat="44.57639" lon="7.17272">
        <ele>1002.4</ele>
        <time>2022-07-18T09:47:35Z</time>
      </trkpt>
      <trkpt lat="44.57641" lon="7.17269">
        <ele>1002.6</ele>
        <time>2022-07-18T09:47:36Z</time>
      </trkpt>
      <trkpt lat="44.57642" lon="7.17266">
        <ele>1003</ele>
        <time>2022-07-18T09:47:37Z</time>
      </trkpt>
      <trkpt lat="44.57643" lon="7.17264">
        <ele>1003.2</ele>
        <time>2022-07-18T09:47:38Z</time>
      </trkpt>
      <trkpt lat="44.57643" lon="7.17261">
        <ele>1003.4</ele>
        <time>2022-07-18T09:47:39Z</time>
      </trkpt>
      <trkpt lat="44.57643" lon="7.17259">
        <ele>1003.4</ele>
        <time>2022-07-18T09:47:40Z</time>
      </trkpt>
      <trkpt lat="44.57643" lon="7.17257">
        <ele>1003.6</ele>
        <time>2022-07-18T09:47:41Z</time>
      </trkpt>
      <trkpt lat="44.57643" lon="7.17255">
        <ele>1004</ele>
        <time>2022-07-18T09:47:42Z</time>
      </trkpt>
      <trkpt lat="44.57643" lon="7.17253">
        <ele>1004.2</ele>
        <time>2022-07-18T09:47:43Z</time>
      </trkpt>
      <trkpt lat="44.57644" lon="7.1725">
        <ele>1004.4</ele>
        <time>2022-07-18T09:47:44Z</time>
      </trkpt>
      <trkpt lat="44.57644" lon="7.17248">
        <ele>1004.6</ele>
        <time>2022-07-18T09:47:45Z</time>
      </trkpt>
      <trkpt lat="44.57644" lon="7.17246">
        <ele>1005</ele>
        <time>2022-07-18T09:47:46Z</time>
      </trkpt>
      <trkpt lat="44.57645" lon="7.17244">
        <ele>1005.2</ele>
        <time>2022-07-18T09:47:47Z</time>
      </trkpt>
      <trkpt lat="44.57645" lon="7.17241">
        <ele>1005.4</ele>
        <time>2022-07-18T09:47:48Z</time>
      </trkpt>
      <trkpt lat="44.57646" lon="7.17238">
        <ele>1005.4</ele>
        <time>2022-07-18T09:47:49Z</time>
      </trkpt>
      <trkpt lat="44.57646" lon="7.17236">
        <ele>1005.8</ele>
        <time>2022-07-18T09:47:50Z</time>
      </trkpt>
      <trkpt lat="44.57646" lon="7.17233">
        <ele>1006</ele>
        <time>2022-07-18T09:47:51Z</time>
      </trkpt>
      <trkpt lat="44.57646" lon="7.1723">
        <ele>1006.4</ele>
        <time>2022-07-18T09:47:52Z</time>
      </trkpt>
      <trkpt lat="44.57646" lon="7.17228">
        <ele>1006.6</ele>
        <time>2022-07-18T09:47:53Z</time>
      </trkpt>
      <trkpt lat="44.57647" lon="7.17226">
        <ele>1006.8</ele>
        <time>2022-07-18T09:47:54Z</time>
      </trkpt>
      <trkpt lat="44.57647" lon="7.17221">
        <ele>1007</ele>
        <time>2022-07-18T09:47:55Z</time>
      </trkpt>
      <trkpt lat="44.57647" lon="7.1722">
        <ele>1007.2</ele>
        <time>2022-07-18T09:47:56Z</time>
      </trkpt>
      <trkpt lat="44.57647" lon="7.17218">
        <ele>1007.6</ele>
        <time>2022-07-18T09:47:58Z</time>
      </trkpt>
      <trkpt lat="44.57647" lon="7.17216">
        <ele>1008</ele>
        <time>2022-07-18T09:47:59Z</time>
      </trkpt>
      <trkpt lat="44.57648" lon="7.17214">
        <ele>1008.4</ele>
        <time>2022-07-18T09:48:01Z</time>
      </trkpt>
      <trkpt lat="44.57648" lon="7.17212">
        <ele>1008.6</ele>
        <time>2022-07-18T09:48:02Z</time>
      </trkpt>
      <trkpt lat="44.57648" lon="7.1721">
        <ele>1008.8</ele>
        <time>2022-07-18T09:48:03Z</time>
      </trkpt>
      <trkpt lat="44.57649" lon="7.17207">
        <ele>1009</ele>
        <time>2022-07-18T09:48:04Z</time>
      </trkpt>
      <trkpt lat="44.5765" lon="7.17205">
        <ele>1009</ele>
        <time>2022-07-18T09:48:05Z</time>
      </trkpt>
      <trkpt lat="44.57649" lon="7.17201">
        <ele>1009.4</ele>
        <time>2022-07-18T09:48:06Z</time>
      </trkpt>
      <trkpt lat="44.57649" lon="7.17199">
        <ele>1009.6</ele>
        <time>2022-07-18T09:48:07Z</time>
      </trkpt>
      <trkpt lat="44.57649" lon="7.17197">
        <ele>1009.8</ele>
        <time>2022-07-18T09:48:08Z</time>
      </trkpt>
      <trkpt lat="44.57649" lon="7.17195">
        <ele>1010</ele>
        <time>2022-07-18T09:48:09Z</time>
      </trkpt>
      <trkpt lat="44.5765" lon="7.17192">
        <ele>1010</ele>
        <time>2022-07-18T09:48:10Z</time>
      </trkpt>
      <trkpt lat="44.57651" lon="7.1719">
        <ele>1010.4</ele>
        <time>2022-07-18T09:48:11Z</time>
      </trkpt>
      <trkpt lat="44.57651" lon="7.17188">
        <ele>1010.4</ele>
        <time>2022-07-18T09:48:12Z</time>
      </trkpt>
      <trkpt lat="44.57652" lon="7.17187">
        <ele>1011</ele>
        <time>2022-07-18T09:48:13Z</time>
      </trkpt>
      <trkpt lat="44.57653" lon="7.17185">
        <ele>1011</ele>
        <time>2022-07-18T09:48:14Z</time>
      </trkpt>
      <trkpt lat="44.57652" lon="7.17182">
        <ele>1011.4</ele>
        <time>2022-07-18T09:48:15Z</time>
      </trkpt>
      <trkpt lat="44.57652" lon="7.17175">
        <ele>1012.4</ele>
        <time>2022-07-18T09:48:19Z</time>
      </trkpt>
      <trkpt lat="44.57651" lon="7.17171">
        <ele>1012.6</ele>
        <time>2022-07-18T09:48:20Z</time>
      </trkpt>
      <trkpt lat="44.57651" lon="7.17169">
        <ele>1012.6</ele>
        <time>2022-07-18T09:48:21Z</time>
      </trkpt>
      <trkpt lat="44.57651" lon="7.17168">
        <ele>1012.8</ele>
        <time>2022-07-18T09:48:22Z</time>
      </trkpt>
      <trkpt lat="44.5765" lon="7.17165">
        <ele>1013.2</ele>
        <time>2022-07-18T09:48:23Z</time>
      </trkpt>
      <trkpt lat="44.57651" lon="7.17152">
        <ele>1014.6</ele>
        <time>2022-07-18T09:48:29Z</time>
      </trkpt>
      <trkpt lat="44.5765" lon="7.17149">
        <ele>1014.8</ele>
        <time>2022-07-18T09:48:30Z</time>
      </trkpt>
      <trkpt lat="44.5765" lon="7.17147">
        <ele>1014.8</ele>
        <time>2022-07-18T09:48:31Z</time>
      </trkpt>
      <trkpt lat="44.57651" lon="7.17144">
        <ele>1015.2</ele>
        <time>2022-07-18T09:48:32Z</time>
      </trkpt>
      <trkpt lat="44.57652" lon="7.17141">
        <ele>1015.4</ele>
        <time>2022-07-18T09:48:33Z</time>
      </trkpt>
      <trkpt lat="44.57652" lon="7.17139">
        <ele>1015.6</ele>
        <time>2022-07-18T09:48:34Z</time>
      </trkpt>
      <trkpt lat="44.57651" lon="7.17135">
        <ele>1015.8</ele>
        <time>2022-07-18T09:48:35Z</time>
      </trkpt>
      <trkpt lat="44.5765" lon="7.17132">
        <ele>1016</ele>
        <time>2022-07-18T09:48:36Z</time>
      </trkpt>
      <trkpt lat="44.57652" lon="7.1713">
        <ele>1016.2</ele>
        <time>2022-07-18T09:48:37Z</time>
      </trkpt>
      <trkpt lat="44.57652" lon="7.17127">
        <ele>1016.2</ele>
        <time>2022-07-18T09:48:38Z</time>
      </trkpt>
      <trkpt lat="44.57653" lon="7.17124">
        <ele>1016.8</ele>
        <time>2022-07-18T09:48:39Z</time>
      </trkpt>
      <trkpt lat="44.57653" lon="7.17121">
        <ele>1017</ele>
        <time>2022-07-18T09:48:40Z</time>
      </trkpt>
      <trkpt lat="44.57652" lon="7.17117">
        <ele>1017</ele>
        <time>2022-07-18T09:48:41Z</time>
      </trkpt>
      <trkpt lat="44.57652" lon="7.17113">
        <ele>1017.4</ele>
        <time>2022-07-18T09:48:42Z</time>
      </trkpt>
      <trkpt lat="44.57652" lon="7.1711">
        <ele>1017.4</ele>
        <time>2022-07-18T09:48:43Z</time>
      </trkpt>
      <trkpt lat="44.57652" lon="7.17107">
        <ele>1017.8</ele>
        <time>2022-07-18T09:48:44Z</time>
      </trkpt>
      <trkpt lat="44.57652" lon="7.17105">
        <ele>1018</ele>
        <time>2022-07-18T09:48:45Z</time>
      </trkpt>
      <trkpt lat="44.57653" lon="7.17102">
        <ele>1018</ele>
        <time>2022-07-18T09:48:46Z</time>
      </trkpt>
      <trkpt lat="44.57652" lon="7.171">
        <ele>1018.4</ele>
        <time>2022-07-18T09:48:47Z</time>
      </trkpt>
      <trkpt lat="44.57651" lon="7.17097">
        <ele>1018.4</ele>
        <time>2022-07-18T09:48:48Z</time>
      </trkpt>
      <trkpt lat="44.57651" lon="7.17094">
        <ele>1018.6</ele>
        <time>2022-07-18T09:48:49Z</time>
      </trkpt>
      <trkpt lat="44.57651" lon="7.17092">
        <ele>1018.6</ele>
        <time>2022-07-18T09:48:50Z</time>
      </trkpt>
      <trkpt lat="44.57651" lon="7.17089">
        <ele>1019</ele>
        <time>2022-07-18T09:48:51Z</time>
      </trkpt>
      <trkpt lat="44.57651" lon="7.17086">
        <ele>1019</ele>
        <time>2022-07-18T09:48:52Z</time>
      </trkpt>
      <trkpt lat="44.57651" lon="7.17083">
        <ele>1019.2</ele>
        <time>2022-07-18T09:48:53Z</time>
      </trkpt>
      <trkpt lat="44.5765" lon="7.17081">
        <ele>1019.2</ele>
        <time>2022-07-18T09:48:54Z</time>
      </trkpt>
      <trkpt lat="44.57649" lon="7.17077">
        <ele>1019.6</ele>
        <time>2022-07-18T09:48:55Z</time>
      </trkpt>
      <trkpt lat="44.57648" lon="7.17073">
        <ele>1019.6</ele>
        <time>2022-07-18T09:48:56Z</time>
      </trkpt>
      <trkpt lat="44.57647" lon="7.1707">
        <ele>1019.8</ele>
        <time>2022-07-18T09:48:57Z</time>
      </trkpt>
      <trkpt lat="44.57646" lon="7.17066">
        <ele>1020</ele>
        <time>2022-07-18T09:48:58Z</time>
      </trkpt>
      <trkpt lat="44.57645" lon="7.17063">
        <ele>1020</ele>
        <time>2022-07-18T09:48:59Z</time>
      </trkpt>
      <trkpt lat="44.57644" lon="7.17061">
        <ele>1020.4</ele>
        <time>2022-07-18T09:49:00Z</time>
      </trkpt>
      <trkpt lat="44.57644" lon="7.17058">
        <ele>1020.6</ele>
        <time>2022-07-18T09:49:01Z</time>
      </trkpt>
      <trkpt lat="44.57644" lon="7.17056">
        <ele>1020.8</ele>
        <time>2022-07-18T09:49:02Z</time>
      </trkpt>
      <trkpt lat="44.57643" lon="7.17053">
        <ele>1020.8</ele>
        <time>2022-07-18T09:49:03Z</time>
      </trkpt>
      <trkpt lat="44.57643" lon="7.17052">
        <ele>1021.2</ele>
        <time>2022-07-18T09:49:04Z</time>
      </trkpt>
      <trkpt lat="44.57643" lon="7.17049">
        <ele>1021.4</ele>
        <time>2022-07-18T09:49:05Z</time>
      </trkpt>
      <trkpt lat="44.57643" lon="7.17047">
        <ele>1021.6</ele>
        <time>2022-07-18T09:49:06Z</time>
      </trkpt>
      <trkpt lat="44.57643" lon="7.17044">
        <ele>1021.6</ele>
        <time>2022-07-18T09:49:07Z</time>
      </trkpt>
      <trkpt lat="44.57642" lon="7.17041">
        <ele>1022</ele>
        <time>2022-07-18T09:49:08Z</time>
      </trkpt>
      <trkpt lat="44.57643" lon="7.17038">
        <ele>1022.2</ele>
        <time>2022-07-18T09:49:09Z</time>
      </trkpt>
      <trkpt lat="44.57643" lon="7.17036">
        <ele>1022.2</ele>
        <time>2022-07-18T09:49:10Z</time>
      </trkpt>
      <trkpt lat="44.57643" lon="7.17033">
        <ele>1022.6</ele>
        <time>2022-07-18T09:49:11Z</time>
      </trkpt>
      <trkpt lat="44.57642" lon="7.17031">
        <ele>1022.6</ele>
        <time>2022-07-18T09:49:12Z</time>
      </trkpt>
      <trkpt lat="44.57642" lon="7.17029">
        <ele>1023</ele>
        <time>2022-07-18T09:49:13Z</time>
      </trkpt>
      <trkpt lat="44.57642" lon="7.17027">
        <ele>1023</ele>
        <time>2022-07-18T09:49:14Z</time>
      </trkpt>
      <trkpt lat="44.57642" lon="7.17024">
        <ele>1023.2</ele>
        <time>2022-07-18T09:49:15Z</time>
      </trkpt>
      <trkpt lat="44.57641" lon="7.17022">
        <ele>1023.6</ele>
        <time>2022-07-18T09:49:16Z</time>
      </trkpt>
      <trkpt lat="44.57642" lon="7.17019">
        <ele>1023.6</ele>
        <time>2022-07-18T09:49:17Z</time>
      </trkpt>
      <trkpt lat="44.57642" lon="7.17017">
        <ele>1023.8</ele>
        <time>2022-07-18T09:49:18Z</time>
      </trkpt>
      <trkpt lat="44.57642" lon="7.17014">
        <ele>1023.8</ele>
        <time>2022-07-18T09:49:19Z</time>
      </trkpt>
      <trkpt lat="44.57642" lon="7.17011">
        <ele>1024.2</ele>
        <time>2022-07-18T09:49:20Z</time>
      </trkpt>
      <trkpt lat="44.57642" lon="7.17009">
        <ele>1024.2</ele>
        <time>2022-07-18T09:49:21Z</time>
      </trkpt>
      <trkpt lat="44.57642" lon="7.17007">
        <ele>1024.6</ele>
        <time>2022-07-18T09:49:22Z</time>
      </trkpt>
      <trkpt lat="44.57643" lon="7.17005">
        <ele>1024.8</ele>
        <time>2022-07-18T09:49:23Z</time>
      </trkpt>
      <trkpt lat="44.57642" lon="7.17003">
        <ele>1025</ele>
        <time>2022-07-18T09:49:24Z</time>
      </trkpt>
      <trkpt lat="44.57642" lon="7.17001">
        <ele>1025.2</ele>
        <time>2022-07-18T09:49:25Z</time>
      </trkpt>
      <trkpt lat="44.57642" lon="7.16999">
        <ele>1025.4</ele>
        <time>2022-07-18T09:49:26Z</time>
      </trkpt>
      <trkpt lat="44.57642" lon="7.16997">
        <ele>1025.8</ele>
        <time>2022-07-18T09:49:27Z</time>
      </trkpt>
      <trkpt lat="44.57641" lon="7.16994">
        <ele>1025.8</ele>
        <time>2022-07-18T09:49:28Z</time>
      </trkpt>
      <trkpt lat="44.5764" lon="7.16991">
        <ele>1026</ele>
        <time>2022-07-18T09:49:29Z</time>
      </trkpt>
      <trkpt lat="44.5764" lon="7.16988">
        <ele>1026</ele>
        <time>2022-07-18T09:49:30Z</time>
      </trkpt>
      <trkpt lat="44.5764" lon="7.16985">
        <ele>1026.4</ele>
        <time>2022-07-18T09:49:31Z</time>
      </trkpt>
      <trkpt lat="44.5764" lon="7.16982">
        <ele>1026.6</ele>
        <time>2022-07-18T09:49:32Z</time>
      </trkpt>
      <trkpt lat="44.5764" lon="7.1698">
        <ele>1026.6</ele>
        <time>2022-07-18T09:49:33Z</time>
      </trkpt>
      <trkpt lat="44.5764" lon="7.16978">
        <ele>1027</ele>
        <time>2022-07-18T09:49:34Z</time>
      </trkpt>
      <trkpt lat="44.5764" lon="7.16976">
        <ele>1027.2</ele>
        <time>2022-07-18T09:49:35Z</time>
      </trkpt>
      <trkpt lat="44.57641" lon="7.16974">
        <ele>1027.4</ele>
        <time>2022-07-18T09:49:36Z</time>
      </trkpt>
      <trkpt lat="44.57641" lon="7.16971">
        <ele>1027.4</ele>
        <time>2022-07-18T09:49:37Z</time>
      </trkpt>
      <trkpt lat="44.57641" lon="7.16969">
        <ele>1027.8</ele>
        <time>2022-07-18T09:49:38Z</time>
      </trkpt>
      <trkpt lat="44.57642" lon="7.16967">
        <ele>1027.8</ele>
        <time>2022-07-18T09:49:39Z</time>
      </trkpt>
      <trkpt lat="44.57641" lon="7.16964">
        <ele>1028</ele>
        <time>2022-07-18T09:49:40Z</time>
      </trkpt>
      <trkpt lat="44.5764" lon="7.16961">
        <ele>1028</ele>
        <time>2022-07-18T09:49:41Z</time>
      </trkpt>
      <trkpt lat="44.57641" lon="7.16959">
        <ele>1028.4</ele>
        <time>2022-07-18T09:49:42Z</time>
      </trkpt>
      <trkpt lat="44.5764" lon="7.16956">
        <ele>1028.6</ele>
        <time>2022-07-18T09:49:43Z</time>
      </trkpt>
      <trkpt lat="44.5764" lon="7.16954">
        <ele>1029</ele>
        <time>2022-07-18T09:49:44Z</time>
      </trkpt>
      <trkpt lat="44.57641" lon="7.16952">
        <ele>1029</ele>
        <time>2022-07-18T09:49:45Z</time>
      </trkpt>
      <trkpt lat="44.57642" lon="7.1695">
        <ele>1029.2</ele>
        <time>2022-07-18T09:49:46Z</time>
      </trkpt>
      <trkpt lat="44.57641" lon="7.16947">
        <ele>1029.4</ele>
        <time>2022-07-18T09:49:47Z</time>
      </trkpt>
      <trkpt lat="44.57642" lon="7.16945">
        <ele>1029.6</ele>
        <time>2022-07-18T09:49:48Z</time>
      </trkpt>
      <trkpt lat="44.57642" lon="7.16943">
        <ele>1030</ele>
        <time>2022-07-18T09:49:49Z</time>
      </trkpt>
      <trkpt lat="44.57642" lon="7.1694">
        <ele>1030</ele>
        <time>2022-07-18T09:49:50Z</time>
      </trkpt>
      <trkpt lat="44.57642" lon="7.16937">
        <ele>1030.4</ele>
        <time>2022-07-18T09:49:51Z</time>
      </trkpt>
      <trkpt lat="44.57642" lon="7.16934">
        <ele>1030.6</ele>
        <time>2022-07-18T09:49:52Z</time>
      </trkpt>
      <trkpt lat="44.57643" lon="7.16931">
        <ele>1030.8</ele>
        <time>2022-07-18T09:49:53Z</time>
      </trkpt>
      <trkpt lat="44.57643" lon="7.16928">
        <ele>1030.8</ele>
        <time>2022-07-18T09:49:54Z</time>
      </trkpt>
      <trkpt lat="44.57643" lon="7.16925">
        <ele>1031.2</ele>
        <time>2022-07-18T09:49:55Z</time>
      </trkpt>
      <trkpt lat="44.57643" lon="7.16922">
        <ele>1031.2</ele>
        <time>2022-07-18T09:49:56Z</time>
      </trkpt>
      <trkpt lat="44.57643" lon="7.1692">
        <ele>1031.4</ele>
        <time>2022-07-18T09:49:57Z</time>
      </trkpt>
      <trkpt lat="44.57643" lon="7.1692">
        <ele>1031.4</ele>
        <time>2022-07-18T09:49:58Z</time>
      </trkpt>
      <trkpt lat="44.57643" lon="7.16919">
        <ele>1031.4</ele>
        <time>2022-07-18T09:49:59Z</time>
      </trkpt>
      <trkpt lat="44.57643" lon="7.16919">
        <ele>1031.8</ele>
        <time>2022-07-18T09:50:00Z</time>
      </trkpt>
      <trkpt lat="44.57643" lon="7.16918">
        <ele>1031.8</ele>
        <time>2022-07-18T09:50:01Z</time>
      </trkpt>
      <trkpt lat="44.57643" lon="7.16918">
        <ele>1031.8</ele>
        <time>2022-07-18T09:50:04Z</time>
      </trkpt>
      <trkpt lat="44.57643" lon="7.16917">
        <ele>1031.8</ele>
        <time>2022-07-18T09:50:05Z</time>
      </trkpt>
      <trkpt lat="44.57643" lon="7.16917">
        <ele>1031.6</ele>
        <time>2022-07-18T09:50:08Z</time>
      </trkpt>
      <trkpt lat="44.57643" lon="7.16916">
        <ele>1031.6</ele>
        <time>2022-07-18T09:50:09Z</time>
      </trkpt>
      <trkpt lat="44.57643" lon="7.16916">
        <ele>1031.6</ele>
        <time>2022-07-18T09:50:10Z</time>
      </trkpt>
      <trkpt lat="44.57643" lon="7.16915">
        <ele>1031.6</ele>
        <time>2022-07-18T09:50:11Z</time>
      </trkpt>
      <trkpt lat="44.57643" lon="7.16915">
        <ele>1031.6</ele>
        <time>2022-07-18T09:50:12Z</time>
      </trkpt>
      <trkpt lat="44.57643" lon="7.16914">
        <ele>1031.6</ele>
        <time>2022-07-18T09:50:13Z</time>
      </trkpt>
      <trkpt lat="44.57643" lon="7.16914">
        <ele>1031.6</ele>
        <time>2022-07-18T09:50:14Z</time>
      </trkpt>
      <trkpt lat="44.57643" lon="7.16913">
        <ele>1031.6</ele>
        <time>2022-07-18T09:50:15Z</time>
      </trkpt>
      <trkpt lat="44.57643" lon="7.16913">
        <ele>1031.6</ele>
        <time>2022-07-18T09:50:16Z</time>
      </trkpt>
      <trkpt lat="44.57643" lon="7.16912">
        <ele>1031.6</ele>
        <time>2022-07-18T09:50:17Z</time>
      </trkpt>
      <trkpt lat="44.57643" lon="7.16912">
        <ele>1031.6</ele>
        <time>2022-07-18T09:50:36Z</time>
      </trkpt>
      <trkpt lat="44.57643" lon="7.16911">
        <ele>1031.6</ele>
        <time>2022-07-18T09:50:37Z</time>
      </trkpt>
      <trkpt lat="44.57643" lon="7.16911">
        <ele>1031.6</ele>
        <time>2022-07-18T09:50:38Z</time>
      </trkpt>
      <trkpt lat="44.57643" lon="7.16911">
        <ele>1031.6</ele>
        <time>2022-07-18T09:50:45Z</time>
      </trkpt>
      <trkpt lat="44.57643" lon="7.1691">
        <ele>1031.6</ele>
        <time>2022-07-18T09:50:46Z</time>
      </trkpt>
      <trkpt lat="44.57643" lon="7.1691">
        <ele>1031.6</ele>
        <time>2022-07-18T09:50:47Z</time>
      </trkpt>
      <trkpt lat="44.57643" lon="7.16909">
        <ele>1031.6</ele>
        <time>2022-07-18T09:50:48Z</time>
      </trkpt>
      <trkpt lat="44.57643" lon="7.16909">
        <ele>1031.6</ele>
        <time>2022-07-18T09:50:50Z</time>
      </trkpt>
      <trkpt lat="44.57643" lon="7.16908">
        <ele>1031.6</ele>
        <time>2022-07-18T09:50:51Z</time>
      </trkpt>
      <trkpt lat="44.57643" lon="7.16908">
        <ele>1031.4</ele>
        <time>2022-07-18T09:52:06Z</time>
      </trkpt>
      <trkpt lat="44.57643" lon="7.16907">
        <ele>1031.6</ele>
        <time>2022-07-18T09:52:07Z</time>
      </trkpt>
      <trkpt lat="44.57643" lon="7.16907">
        <ele>1031.6</ele>
        <time>2022-07-18T09:52:08Z</time>
      </trkpt>
      <trkpt lat="44.57643" lon="7.16906">
        <ele>1031.6</ele>
        <time>2022-07-18T09:52:09Z</time>
      </trkpt>
      <trkpt lat="44.57643" lon="7.16906">
        <ele>1031.6</ele>
        <time>2022-07-18T09:52:10Z</time>
      </trkpt>
      <trkpt lat="44.57643" lon="7.16905">
        <ele>1031.6</ele>
        <time>2022-07-18T09:52:11Z</time>
      </trkpt>
      <trkpt lat="44.57643" lon="7.16905">
        <ele>1031.6</ele>
        <time>2022-07-18T09:52:12Z</time>
      </trkpt>
      <trkpt lat="44.57643" lon="7.16904">
        <ele>1031.6</ele>
        <time>2022-07-18T09:52:16Z</time>
      </trkpt>
      <trkpt lat="44.57643" lon="7.16904">
        <ele>1031.6</ele>
        <time>2022-07-18T09:52:17Z</time>
      </trkpt>
      <trkpt lat="44.57643" lon="7.16903">
        <ele>1031.6</ele>
        <time>2022-07-18T09:52:18Z</time>
      </trkpt>
      <trkpt lat="44.57643" lon="7.16902">
        <ele>1031.8</ele>
        <time>2022-07-18T09:52:19Z</time>
      </trkpt>
      <trkpt lat="44.57643" lon="7.16901">
        <ele>1031.8</ele>
        <time>2022-07-18T09:52:20Z</time>
      </trkpt>
      <trkpt lat="44.57643" lon="7.16901">
        <ele>1031.8</ele>
        <time>2022-07-18T09:52:21Z</time>
      </trkpt>
      <trkpt lat="44.57643" lon="7.169">
        <ele>1031.8</ele>
        <time>2022-07-18T09:52:22Z</time>
      </trkpt>
      <trkpt lat="44.57643" lon="7.169">
        <ele>1031.8</ele>
        <time>2022-07-18T09:52:23Z</time>
      </trkpt>
      <trkpt lat="44.57643" lon="7.16899">
        <ele>1032</ele>
        <time>2022-07-18T09:52:24Z</time>
      </trkpt>
      <trkpt lat="44.57643" lon="7.16898">
        <ele>1032</ele>
        <time>2022-07-18T09:52:25Z</time>
      </trkpt>
      <trkpt lat="44.57643" lon="7.16898">
        <ele>1032</ele>
        <time>2022-07-18T09:52:26Z</time>
      </trkpt>
      <trkpt lat="44.57643" lon="7.16897">
        <ele>1032</ele>
        <time>2022-07-18T09:52:27Z</time>
      </trkpt>
      <trkpt lat="44.57643" lon="7.16897">
        <ele>1032</ele>
        <time>2022-07-18T09:52:29Z</time>
      </trkpt>
      <trkpt lat="44.57643" lon="7.16896">
        <ele>1032</ele>
        <time>2022-07-18T09:52:30Z</time>
      </trkpt>
      <trkpt lat="44.57643" lon="7.16895">
        <ele>1032</ele>
        <time>2022-07-18T09:52:31Z</time>
      </trkpt>
      <trkpt lat="44.57643" lon="7.16895">
        <ele>1032.2</ele>
        <time>2022-07-18T09:52:32Z</time>
      </trkpt>
      <trkpt lat="44.57643" lon="7.16893">
        <ele>1032.2</ele>
        <time>2022-07-18T09:52:33Z</time>
      </trkpt>
      <trkpt lat="44.57643" lon="7.16891">
        <ele>1032.4</ele>
        <time>2022-07-18T09:52:34Z</time>
      </trkpt>
      <trkpt lat="44.57643" lon="7.16888">
        <ele>1032.4</ele>
        <time>2022-07-18T09:52:35Z</time>
      </trkpt>
      <trkpt lat="44.57643" lon="7.16886">
        <ele>1032.6</ele>
        <time>2022-07-18T09:52:36Z</time>
      </trkpt>
      <trkpt lat="44.57643" lon="7.16884">
        <ele>1032.6</ele>
        <time>2022-07-18T09:52:37Z</time>
      </trkpt>
      <trkpt lat="44.57643" lon="7.16882">
        <ele>1033</ele>
        <time>2022-07-18T09:52:38Z</time>
      </trkpt>
      <trkpt lat="44.57643" lon="7.1688">
        <ele>1033</ele>
        <time>2022-07-18T09:52:39Z</time>
      </trkpt>
      <trkpt lat="44.57643" lon="7.16877">
        <ele>1033.4</ele>
        <time>2022-07-18T09:52:40Z</time>
      </trkpt>
      <trkpt lat="44.57643" lon="7.16875">
        <ele>1033.4</ele>
        <time>2022-07-18T09:52:41Z</time>
      </trkpt>
      <trkpt lat="44.57643" lon="7.16872">
        <ele>1033.6</ele>
        <time>2022-07-18T09:52:42Z</time>
      </trkpt>
      <trkpt lat="44.57643" lon="7.1687">
        <ele>1033.6</ele>
        <time>2022-07-18T09:52:43Z</time>
      </trkpt>
      <trkpt lat="44.57643" lon="7.16867">
        <ele>1034</ele>
        <time>2022-07-18T09:52:44Z</time>
      </trkpt>
      <trkpt lat="44.57642" lon="7.16864">
        <ele>1034</ele>
        <time>2022-07-18T09:52:45Z</time>
      </trkpt>
      <trkpt lat="44.57642" lon="7.16862">
        <ele>1034.4</ele>
        <time>2022-07-18T09:52:46Z</time>
      </trkpt>
      <trkpt lat="44.57642" lon="7.16859">
        <ele>1034.4</ele>
        <time>2022-07-18T09:52:47Z</time>
      </trkpt>
      <trkpt lat="44.57642" lon="7.16856">
        <ele>1034.6</ele>
        <time>2022-07-18T09:52:48Z</time>
      </trkpt>
      <trkpt lat="44.57642" lon="7.16854">
        <ele>1034.8</ele>
        <time>2022-07-18T09:52:49Z</time>
      </trkpt>
      <trkpt lat="44.57641" lon="7.16852">
        <ele>1034.8</ele>
        <time>2022-07-18T09:52:50Z</time>
      </trkpt>
      <trkpt lat="44.57641" lon="7.16849">
        <ele>1035.2</ele>
        <time>2022-07-18T09:52:51Z</time>
      </trkpt>
      <trkpt lat="44.5764" lon="7.16847">
        <ele>1035.2</ele>
        <time>2022-07-18T09:52:52Z</time>
      </trkpt>
      <trkpt lat="44.5764" lon="7.16845">
        <ele>1035.6</ele>
        <time>2022-07-18T09:52:53Z</time>
      </trkpt>
      <trkpt lat="44.57639" lon="7.16843">
        <ele>1035.6</ele>
        <time>2022-07-18T09:52:54Z</time>
      </trkpt>
      <trkpt lat="44.57639" lon="7.1684">
        <ele>1036</ele>
        <time>2022-07-18T09:52:55Z</time>
      </trkpt>
      <trkpt lat="44.57639" lon="7.16838">
        <ele>1036</ele>
        <time>2022-07-18T09:52:56Z</time>
      </trkpt>
      <trkpt lat="44.57638" lon="7.16835">
        <ele>1036.2</ele>
        <time>2022-07-18T09:52:57Z</time>
      </trkpt>
      <trkpt lat="44.57638" lon="7.16832">
        <ele>1036.6</ele>
        <time>2022-07-18T09:52:58Z</time>
      </trkpt>
      <trkpt lat="44.57638" lon="7.1683">
        <ele>1036.6</ele>
        <time>2022-07-18T09:52:59Z</time>
      </trkpt>
      <trkpt lat="44.57637" lon="7.16827">
        <ele>1036.8</ele>
        <time>2022-07-18T09:53:00Z</time>
      </trkpt>
      <trkpt lat="44.57637" lon="7.16825">
        <ele>1036.8</ele>
        <time>2022-07-18T09:53:01Z</time>
      </trkpt>
      <trkpt lat="44.57636" lon="7.16822">
        <ele>1037.2</ele>
        <time>2022-07-18T09:53:02Z</time>
      </trkpt>
      <trkpt lat="44.57635" lon="7.16819">
        <ele>1037.2</ele>
        <time>2022-07-18T09:53:03Z</time>
      </trkpt>
      <trkpt lat="44.57635" lon="7.16817">
        <ele>1037.6</ele>
        <time>2022-07-18T09:53:04Z</time>
      </trkpt>
      <trkpt lat="44.57634" lon="7.16815">
        <ele>1037.6</ele>
        <time>2022-07-18T09:53:05Z</time>
      </trkpt>
      <trkpt lat="44.57634" lon="7.16814">
        <ele>1037.8</ele>
        <time>2022-07-18T09:53:06Z</time>
      </trkpt>
      <trkpt lat="44.57634" lon="7.16812">
        <ele>1037.8</ele>
        <time>2022-07-18T09:53:07Z</time>
      </trkpt>
      <trkpt lat="44.57633" lon="7.16807">
        <ele>1038.4</ele>
        <time>2022-07-18T09:53:10Z</time>
      </trkpt>
      <trkpt lat="44.57633" lon="7.16805">
        <ele>1038.4</ele>
        <time>2022-07-18T09:53:11Z</time>
      </trkpt>
      <trkpt lat="44.57632" lon="7.16803">
        <ele>1038.6</ele>
        <time>2022-07-18T09:53:12Z</time>
      </trkpt>
      <trkpt lat="44.57632" lon="7.16801">
        <ele>1038.6</ele>
        <time>2022-07-18T09:53:13Z</time>
      </trkpt>
      <trkpt lat="44.57632" lon="7.16799">
        <ele>1039</ele>
        <time>2022-07-18T09:53:14Z</time>
      </trkpt>
      <trkpt lat="44.57631" lon="7.16796">
        <ele>1039</ele>
        <time>2022-07-18T09:53:15Z</time>
      </trkpt>
      <trkpt lat="44.57631" lon="7.16794">
        <ele>1039</ele>
        <time>2022-07-18T09:53:16Z</time>
      </trkpt>
      <trkpt lat="44.5763" lon="7.16793">
        <ele>1039.2</ele>
        <time>2022-07-18T09:53:17Z</time>
      </trkpt>
      <trkpt lat="44.57629" lon="7.16791">
        <ele>1039.2</ele>
        <time>2022-07-18T09:53:18Z</time>
      </trkpt>
      <trkpt lat="44.57629" lon="7.16789">
        <ele>1039.6</ele>
        <time>2022-07-18T09:53:19Z</time>
      </trkpt>
      <trkpt lat="44.57628" lon="7.16786">
        <ele>1039.6</ele>
        <time>2022-07-18T09:53:20Z</time>
      </trkpt>
      <trkpt lat="44.57627" lon="7.16783">
        <ele>1040</ele>
        <time>2022-07-18T09:53:21Z</time>
      </trkpt>
      <trkpt lat="44.57625" lon="7.16779">
        <ele>1040.2</ele>
        <time>2022-07-18T09:53:22Z</time>
      </trkpt>
      <trkpt lat="44.57624" lon="7.16777">
        <ele>1040.2</ele>
        <time>2022-07-18T09:53:23Z</time>
      </trkpt>
      <trkpt lat="44.57624" lon="7.16776">
        <ele>1040.4</ele>
        <time>2022-07-18T09:53:24Z</time>
      </trkpt>
      <trkpt lat="44.57622" lon="7.16773">
        <ele>1040.6</ele>
        <time>2022-07-18T09:53:25Z</time>
      </trkpt>
      <trkpt lat="44.5762" lon="7.1677">
        <ele>1041</ele>
        <time>2022-07-18T09:53:26Z</time>
      </trkpt>
      <trkpt lat="44.57619" lon="7.16768">
        <ele>1041</ele>
        <time>2022-07-18T09:53:27Z</time>
      </trkpt>
      <trkpt lat="44.57618" lon="7.16765">
        <ele>1041.2</ele>
        <time>2022-07-18T09:53:28Z</time>
      </trkpt>
      <trkpt lat="44.57618" lon="7.16762">
        <ele>1041.2</ele>
        <time>2022-07-18T09:53:29Z</time>
      </trkpt>
      <trkpt lat="44.57618" lon="7.16759">
        <ele>1041.6</ele>
        <time>2022-07-18T09:53:30Z</time>
      </trkpt>
      <trkpt lat="44.57617" lon="7.16757">
        <ele>1041.6</ele>
        <time>2022-07-18T09:53:31Z</time>
      </trkpt>
      <trkpt lat="44.57616" lon="7.16754">
        <ele>1041.8</ele>
        <time>2022-07-18T09:53:32Z</time>
      </trkpt>
      <trkpt lat="44.57615" lon="7.16751">
        <ele>1041.8</ele>
        <time>2022-07-18T09:53:33Z</time>
      </trkpt>
      <trkpt lat="44.57614" lon="7.16748">
        <ele>1042.2</ele>
        <time>2022-07-18T09:53:34Z</time>
      </trkpt>
      <trkpt lat="44.57614" lon="7.16746">
        <ele>1042.2</ele>
        <time>2022-07-18T09:53:35Z</time>
      </trkpt>
      <trkpt lat="44.57613" lon="7.16744">
        <ele>1042.6</ele>
        <time>2022-07-18T09:53:36Z</time>
      </trkpt>
      <trkpt lat="44.57612" lon="7.16742">
        <ele>1042.6</ele>
        <time>2022-07-18T09:53:37Z</time>
      </trkpt>
      <trkpt lat="44.57612" lon="7.16738">
        <ele>1042.8</ele>
        <time>2022-07-18T09:53:38Z</time>
      </trkpt>
      <trkpt lat="44.57611" lon="7.16735">
        <ele>1042.8</ele>
        <time>2022-07-18T09:53:39Z</time>
      </trkpt>
      <trkpt lat="44.5761" lon="7.16733">
        <ele>1043.2</ele>
        <time>2022-07-18T09:53:40Z</time>
      </trkpt>
      <trkpt lat="44.5761" lon="7.1673">
        <ele>1043.2</ele>
        <time>2022-07-18T09:53:41Z</time>
      </trkpt>
      <trkpt lat="44.5761" lon="7.16727">
        <ele>1043.6</ele>
        <time>2022-07-18T09:53:42Z</time>
      </trkpt>
      <trkpt lat="44.57609" lon="7.16724">
        <ele>1043.6</ele>
        <time>2022-07-18T09:53:43Z</time>
      </trkpt>
      <trkpt lat="44.57607" lon="7.1672">
        <ele>1044</ele>
        <time>2022-07-18T09:53:44Z</time>
      </trkpt>
      <trkpt lat="44.57606" lon="7.16717">
        <ele>1044.2</ele>
        <time>2022-07-18T09:53:45Z</time>
      </trkpt>
      <trkpt lat="44.57605" lon="7.16714">
        <ele>1044.4</ele>
        <time>2022-07-18T09:53:46Z</time>
      </trkpt>
      <trkpt lat="44.57604" lon="7.16711">
        <ele>1044.6</ele>
        <time>2022-07-18T09:53:47Z</time>
      </trkpt>
      <trkpt lat="44.57604" lon="7.16709">
        <ele>1044.6</ele>
        <time>2022-07-18T09:53:48Z</time>
      </trkpt>
      <trkpt lat="44.57603" lon="7.16707">
        <ele>1045</ele>
        <time>2022-07-18T09:53:49Z</time>
      </trkpt>
      <trkpt lat="44.57603" lon="7.16704">
        <ele>1045.2</ele>
        <time>2022-07-18T09:53:50Z</time>
      </trkpt>
      <trkpt lat="44.57603" lon="7.16702">
        <ele>1045.4</ele>
        <time>2022-07-18T09:53:51Z</time>
      </trkpt>
      <trkpt lat="44.57602" lon="7.16698">
        <ele>1045.8</ele>
        <time>2022-07-18T09:53:52Z</time>
      </trkpt>
      <trkpt lat="44.57601" lon="7.16695">
        <ele>1046</ele>
        <time>2022-07-18T09:53:53Z</time>
      </trkpt>
      <trkpt lat="44.57601" lon="7.16692">
        <ele>1046.2</ele>
        <time>2022-07-18T09:53:54Z</time>
      </trkpt>
      <trkpt lat="44.576" lon="7.1669">
        <ele>1046.6</ele>
        <time>2022-07-18T09:53:55Z</time>
      </trkpt>
      <trkpt lat="44.57599" lon="7.16687">
        <ele>1046.8</ele>
        <time>2022-07-18T09:53:56Z</time>
      </trkpt>
      <trkpt lat="44.57599" lon="7.16684">
        <ele>1046.8</ele>
        <time>2022-07-18T09:53:57Z</time>
      </trkpt>
      <trkpt lat="44.57598" lon="7.16681">
        <ele>1047.2</ele>
        <time>2022-07-18T09:53:58Z</time>
      </trkpt>
      <trkpt lat="44.57598" lon="7.16679">
        <ele>1047.4</ele>
        <time>2022-07-18T09:53:59Z</time>
      </trkpt>
      <trkpt lat="44.57598" lon="7.16676">
        <ele>1047.4</ele>
        <time>2022-07-18T09:54:00Z</time>
      </trkpt>
      <trkpt lat="44.57598" lon="7.16674">
        <ele>1047.8</ele>
        <time>2022-07-18T09:54:01Z</time>
      </trkpt>
      <trkpt lat="44.57598" lon="7.16672">
        <ele>1048</ele>
        <time>2022-07-18T09:54:02Z</time>
      </trkpt>
      <trkpt lat="44.57598" lon="7.1667">
        <ele>1048.2</ele>
        <time>2022-07-18T09:54:03Z</time>
      </trkpt>
      <trkpt lat="44.57597" lon="7.16667">
        <ele>1048.2</ele>
        <time>2022-07-18T09:54:04Z</time>
      </trkpt>
      <trkpt lat="44.57596" lon="7.16664">
        <ele>1048.8</ele>
        <time>2022-07-18T09:54:05Z</time>
      </trkpt>
      <trkpt lat="44.57596" lon="7.16662">
        <ele>1049</ele>
        <time>2022-07-18T09:54:06Z</time>
      </trkpt>
      <trkpt lat="44.57595" lon="7.1666">
        <ele>1049.2</ele>
        <time>2022-07-18T09:54:07Z</time>
      </trkpt>
      <trkpt lat="44.57595" lon="7.16658">
        <ele>1049.6</ele>
        <time>2022-07-18T09:54:08Z</time>
      </trkpt>
      <trkpt lat="44.57595" lon="7.16656">
        <ele>1049.6</ele>
        <time>2022-07-18T09:54:09Z</time>
      </trkpt>
      <trkpt lat="44.57595" lon="7.16654">
        <ele>1050</ele>
        <time>2022-07-18T09:54:10Z</time>
      </trkpt>
      <trkpt lat="44.57594" lon="7.16651">
        <ele>1050.2</ele>
        <time>2022-07-18T09:54:11Z</time>
      </trkpt>
      <trkpt lat="44.57593" lon="7.16649">
        <ele>1050.6</ele>
        <time>2022-07-18T09:54:12Z</time>
      </trkpt>
      <trkpt lat="44.57593" lon="7.16647">
        <ele>1050.8</ele>
        <time>2022-07-18T09:54:13Z</time>
      </trkpt>
      <trkpt lat="44.57593" lon="7.16645">
        <ele>1051</ele>
        <time>2022-07-18T09:54:14Z</time>
      </trkpt>
      <trkpt lat="44.57591" lon="7.16643">
        <ele>1051.2</ele>
        <time>2022-07-18T09:54:15Z</time>
      </trkpt>
      <trkpt lat="44.57591" lon="7.16642">
        <ele>1051.6</ele>
        <time>2022-07-18T09:54:16Z</time>
      </trkpt>
      <trkpt lat="44.57591" lon="7.1664">
        <ele>1051.8</ele>
        <time>2022-07-18T09:54:17Z</time>
      </trkpt>
      <trkpt lat="44.5759" lon="7.16638">
        <ele>1052</ele>
        <time>2022-07-18T09:54:18Z</time>
      </trkpt>
      <trkpt lat="44.57589" lon="7.16634">
        <ele>1052.2</ele>
        <time>2022-07-18T09:54:19Z</time>
      </trkpt>
      <trkpt lat="44.57588" lon="7.16631">
        <ele>1052.2</ele>
        <time>2022-07-18T09:54:20Z</time>
      </trkpt>
      <trkpt lat="44.57587" lon="7.16629">
        <ele>1052.6</ele>
        <time>2022-07-18T09:54:21Z</time>
      </trkpt>
      <trkpt lat="44.57586" lon="7.16626">
        <ele>1052.8</ele>
        <time>2022-07-18T09:54:22Z</time>
      </trkpt>
      <trkpt lat="44.57585" lon="7.16624">
        <ele>1053</ele>
        <time>2022-07-18T09:54:23Z</time>
      </trkpt>
      <trkpt lat="44.57584" lon="7.16621">
        <ele>1053.2</ele>
        <time>2022-07-18T09:54:24Z</time>
      </trkpt>
      <trkpt lat="44.57584" lon="7.16619">
        <ele>1053.2</ele>
        <time>2022-07-18T09:54:25Z</time>
      </trkpt>
      <trkpt lat="44.57583" lon="7.16617">
        <ele>1053.8</ele>
        <time>2022-07-18T09:54:26Z</time>
      </trkpt>
      <trkpt lat="44.57582" lon="7.16615">
        <ele>1053.8</ele>
        <time>2022-07-18T09:54:27Z</time>
      </trkpt>
      <trkpt lat="44.5758" lon="7.16612">
        <ele>1054.2</ele>
        <time>2022-07-18T09:54:28Z</time>
      </trkpt>
      <trkpt lat="44.5758" lon="7.16611">
        <ele>1054.4</ele>
        <time>2022-07-18T09:54:29Z</time>
      </trkpt>
      <trkpt lat="44.57578" lon="7.16608">
        <ele>1054.4</ele>
        <time>2022-07-18T09:54:30Z</time>
      </trkpt>
      <trkpt lat="44.57578" lon="7.16606">
        <ele>1054.6</ele>
        <time>2022-07-18T09:54:31Z</time>
      </trkpt>
      <trkpt lat="44.57577" lon="7.16603">
        <ele>1054.8</ele>
        <time>2022-07-18T09:54:32Z</time>
      </trkpt>
      <trkpt lat="44.57577" lon="7.16601">
        <ele>1055.2</ele>
        <time>2022-07-18T09:54:33Z</time>
      </trkpt>
      <trkpt lat="44.57574" lon="7.16598">
        <ele>1055.4</ele>
        <time>2022-07-18T09:54:34Z</time>
      </trkpt>
      <trkpt lat="44.57572" lon="7.16596">
        <ele>1055.4</ele>
        <time>2022-07-18T09:54:35Z</time>
      </trkpt>
      <trkpt lat="44.57571" lon="7.16593">
        <ele>1055.8</ele>
        <time>2022-07-18T09:54:36Z</time>
      </trkpt>
      <trkpt lat="44.5757" lon="7.16591">
        <ele>1056</ele>
        <time>2022-07-18T09:54:37Z</time>
      </trkpt>
      <trkpt lat="44.5757" lon="7.16589">
        <ele>1056.2</ele>
        <time>2022-07-18T09:54:38Z</time>
      </trkpt>
      <trkpt lat="44.57568" lon="7.16585">
        <ele>1056.4</ele>
        <time>2022-07-18T09:54:39Z</time>
      </trkpt>
      <trkpt lat="44.57567" lon="7.16582">
        <ele>1056.4</ele>
        <time>2022-07-18T09:54:40Z</time>
      </trkpt>
      <trkpt lat="44.57566" lon="7.1658">
        <ele>1056.8</ele>
        <time>2022-07-18T09:54:41Z</time>
      </trkpt>
      <trkpt lat="44.57565" lon="7.16578">
        <ele>1056.8</ele>
        <time>2022-07-18T09:54:42Z</time>
      </trkpt>
      <trkpt lat="44.57565" lon="7.16575">
        <ele>1057.2</ele>
        <time>2022-07-18T09:54:43Z</time>
      </trkpt>
      <trkpt lat="44.57564" lon="7.16573">
        <ele>1057.4</ele>
        <time>2022-07-18T09:54:44Z</time>
      </trkpt>
      <trkpt lat="44.57564" lon="7.16572">
        <ele>1057.4</ele>
        <time>2022-07-18T09:54:45Z</time>
      </trkpt>
      <trkpt lat="44.57563" lon="7.1657">
        <ele>1057.8</ele>
        <time>2022-07-18T09:54:46Z</time>
      </trkpt>
      <trkpt lat="44.57563" lon="7.16568">
        <ele>1058</ele>
        <time>2022-07-18T09:54:47Z</time>
      </trkpt>
      <trkpt lat="44.57562" lon="7.16566">
        <ele>1058.4</ele>
        <time>2022-07-18T09:54:48Z</time>
      </trkpt>
      <trkpt lat="44.57561" lon="7.16564">
        <ele>1058.4</ele>
        <time>2022-07-18T09:54:49Z</time>
      </trkpt>
      <trkpt lat="44.5756" lon="7.16562">
        <ele>1058.6</ele>
        <time>2022-07-18T09:54:50Z</time>
      </trkpt>
      <trkpt lat="44.57558" lon="7.16558">
        <ele>1059</ele>
        <time>2022-07-18T09:54:51Z</time>
      </trkpt>
      <trkpt lat="44.57557" lon="7.16556">
        <ele>1059.2</ele>
        <time>2022-07-18T09:54:52Z</time>
      </trkpt>
      <trkpt lat="44.57555" lon="7.16554">
        <ele>1059.2</ele>
        <time>2022-07-18T09:54:53Z</time>
      </trkpt>
      <trkpt lat="44.57553" lon="7.1655">
        <ele>1059.6</ele>
        <time>2022-07-18T09:54:54Z</time>
      </trkpt>
      <trkpt lat="44.5755" lon="7.16547">
        <ele>1059.6</ele>
        <time>2022-07-18T09:54:55Z</time>
      </trkpt>
      <trkpt lat="44.57549" lon="7.16545">
        <ele>1060</ele>
        <time>2022-07-18T09:54:56Z</time>
      </trkpt>
      <trkpt lat="44.57547" lon="7.16543">
        <ele>1060</ele>
        <time>2022-07-18T09:54:57Z</time>
      </trkpt>
      <trkpt lat="44.57546" lon="7.16541">
        <ele>1060.2</ele>
        <time>2022-07-18T09:54:58Z</time>
      </trkpt>
      <trkpt lat="44.57545" lon="7.1654">
        <ele>1060.2</ele>
        <time>2022-07-18T09:54:59Z</time>
      </trkpt>
      <trkpt lat="44.57544" lon="7.16539">
        <ele>1060.6</ele>
        <time>2022-07-18T09:55:00Z</time>
      </trkpt>
      <trkpt lat="44.57542" lon="7.16536">
        <ele>1060.6</ele>
        <time>2022-07-18T09:55:01Z</time>
      </trkpt>
      <trkpt lat="44.57541" lon="7.16535">
        <ele>1061</ele>
        <time>2022-07-18T09:55:02Z</time>
      </trkpt>
      <trkpt lat="44.5754" lon="7.16533">
        <ele>1061.2</ele>
        <time>2022-07-18T09:55:03Z</time>
      </trkpt>
      <trkpt lat="44.57538" lon="7.16531">
        <ele>1061.2</ele>
        <time>2022-07-18T09:55:04Z</time>
      </trkpt>
      <trkpt lat="44.57537" lon="7.1653">
        <ele>1061.6</ele>
        <time>2022-07-18T09:55:05Z</time>
      </trkpt>
      <trkpt lat="44.57536" lon="7.16528">
        <ele>1061.8</ele>
        <time>2022-07-18T09:55:06Z</time>
      </trkpt>
      <trkpt lat="44.57534" lon="7.16526">
        <ele>1061.8</ele>
        <time>2022-07-18T09:55:07Z</time>
      </trkpt>
      <trkpt lat="44.57532" lon="7.16524">
        <ele>1062.2</ele>
        <time>2022-07-18T09:55:08Z</time>
      </trkpt>
      <trkpt lat="44.5753" lon="7.16522">
        <ele>1062.2</ele>
        <time>2022-07-18T09:55:09Z</time>
      </trkpt>
      <trkpt lat="44.57528" lon="7.1652">
        <ele>1062.6</ele>
        <time>2022-07-18T09:55:10Z</time>
      </trkpt>
      <trkpt lat="44.57526" lon="7.16519">
        <ele>1062.8</ele>
        <time>2022-07-18T09:55:11Z</time>
      </trkpt>
      <trkpt lat="44.57525" lon="7.16517">
        <ele>1062.8</ele>
        <time>2022-07-18T09:55:12Z</time>
      </trkpt>
      <trkpt lat="44.57523" lon="7.16516">
        <ele>1063</ele>
        <time>2022-07-18T09:55:13Z</time>
      </trkpt>
      <trkpt lat="44.57522" lon="7.16514">
        <ele>1063</ele>
        <time>2022-07-18T09:55:14Z</time>
      </trkpt>
      <trkpt lat="44.57521" lon="7.16513">
        <ele>1063.4</ele>
        <time>2022-07-18T09:55:15Z</time>
      </trkpt>
      <trkpt lat="44.57521" lon="7.16512">
        <ele>1063.4</ele>
        <time>2022-07-18T09:55:16Z</time>
      </trkpt>
      <trkpt lat="44.5752" lon="7.1651">
        <ele>1063.8</ele>
        <time>2022-07-18T09:55:17Z</time>
      </trkpt>
      <trkpt lat="44.57518" lon="7.16509">
        <ele>1063.8</ele>
        <time>2022-07-18T09:55:18Z</time>
      </trkpt>
      <trkpt lat="44.57517" lon="7.16507">
        <ele>1064.2</ele>
        <time>2022-07-18T09:55:19Z</time>
      </trkpt>
      <trkpt lat="44.57516" lon="7.16506">
        <ele>1064.4</ele>
        <time>2022-07-18T09:55:20Z</time>
      </trkpt>
      <trkpt lat="44.57514" lon="7.16505">
        <ele>1064.6</ele>
        <time>2022-07-18T09:55:21Z</time>
      </trkpt>
      <trkpt lat="44.57513" lon="7.16504">
        <ele>1065</ele>
        <time>2022-07-18T09:55:22Z</time>
      </trkpt>
      <trkpt lat="44.57511" lon="7.16503">
        <ele>1065.2</ele>
        <time>2022-07-18T09:55:23Z</time>
      </trkpt>
      <trkpt lat="44.5751" lon="7.16501">
        <ele>1065.4</ele>
        <time>2022-07-18T09:55:24Z</time>
      </trkpt>
      <trkpt lat="44.57509" lon="7.165">
        <ele>1065.4</ele>
        <time>2022-07-18T09:55:25Z</time>
      </trkpt>
      <trkpt lat="44.57509" lon="7.16499">
        <ele>1065.6</ele>
        <time>2022-07-18T09:55:26Z</time>
      </trkpt>
      <trkpt lat="44.57507" lon="7.16498">
        <ele>1066</ele>
        <time>2022-07-18T09:55:27Z</time>
      </trkpt>
      <trkpt lat="44.57506" lon="7.16497">
        <ele>1066.2</ele>
        <time>2022-07-18T09:55:28Z</time>
      </trkpt>
      <trkpt lat="44.57505" lon="7.16497">
        <ele>1066.4</ele>
        <time>2022-07-18T09:55:29Z</time>
      </trkpt>
      <trkpt lat="44.57503" lon="7.16496">
        <ele>1066.8</ele>
        <time>2022-07-18T09:55:30Z</time>
      </trkpt>
      <trkpt lat="44.57498" lon="7.16489">
        <ele>1068.2</ele>
        <time>2022-07-18T09:55:36Z</time>
      </trkpt>
      <trkpt lat="44.57496" lon="7.16487">
        <ele>1068.4</ele>
        <time>2022-07-18T09:55:37Z</time>
      </trkpt>
      <trkpt lat="44.57495" lon="7.16485">
        <ele>1068.4</ele>
        <time>2022-07-18T09:55:38Z</time>
      </trkpt>
      <trkpt lat="44.57494" lon="7.16483">
        <ele>1068.8</ele>
        <time>2022-07-18T09:55:39Z</time>
      </trkpt>
      <trkpt lat="44.57494" lon="7.16481">
        <ele>1068.8</ele>
        <time>2022-07-18T09:55:40Z</time>
      </trkpt>
      <trkpt lat="44.57493" lon="7.16478">
        <ele>1069</ele>
        <time>2022-07-18T09:55:41Z</time>
      </trkpt>
      <trkpt lat="44.57492" lon="7.16476">
        <ele>1069.4</ele>
        <time>2022-07-18T09:55:42Z</time>
      </trkpt>
      <trkpt lat="44.57491" lon="7.16474">
        <ele>1069.6</ele>
        <time>2022-07-18T09:55:43Z</time>
      </trkpt>
      <trkpt lat="44.57489" lon="7.16471">
        <ele>1069.8</ele>
        <time>2022-07-18T09:55:44Z</time>
      </trkpt>
      <trkpt lat="44.57488" lon="7.16468">
        <ele>1070</ele>
        <time>2022-07-18T09:55:45Z</time>
      </trkpt>
      <trkpt lat="44.57488" lon="7.16467">
        <ele>1070</ele>
        <time>2022-07-18T09:55:46Z</time>
      </trkpt>
      <trkpt lat="44.57487" lon="7.16464">
        <ele>1070.4</ele>
        <time>2022-07-18T09:55:47Z</time>
      </trkpt>
      <trkpt lat="44.57486" lon="7.16462">
        <ele>1070.4</ele>
        <time>2022-07-18T09:55:48Z</time>
      </trkpt>
      <trkpt lat="44.57485" lon="7.16459">
        <ele>1070.8</ele>
        <time>2022-07-18T09:55:49Z</time>
      </trkpt>
      <trkpt lat="44.57483" lon="7.16457">
        <ele>1071</ele>
        <time>2022-07-18T09:55:50Z</time>
      </trkpt>
      <trkpt lat="44.57481" lon="7.16454">
        <ele>1071</ele>
        <time>2022-07-18T09:55:51Z</time>
      </trkpt>
      <trkpt lat="44.5748" lon="7.16452">
        <ele>1071.4</ele>
        <time>2022-07-18T09:55:52Z</time>
      </trkpt>
      <trkpt lat="44.5748" lon="7.1645">
        <ele>1071.6</ele>
        <time>2022-07-18T09:55:53Z</time>
      </trkpt>
      <trkpt lat="44.5748" lon="7.16448">
        <ele>1071.6</ele>
        <time>2022-07-18T09:55:54Z</time>
      </trkpt>
      <trkpt lat="44.57478" lon="7.16445">
        <ele>1072</ele>
        <time>2022-07-18T09:55:55Z</time>
      </trkpt>
      <trkpt lat="44.57477" lon="7.16443">
        <ele>1072</ele>
        <time>2022-07-18T09:55:56Z</time>
      </trkpt>
      <trkpt lat="44.57476" lon="7.16441">
        <ele>1072.4</ele>
        <time>2022-07-18T09:55:57Z</time>
      </trkpt>
      <trkpt lat="44.57476" lon="7.16439">
        <ele>1072.6</ele>
        <time>2022-07-18T09:55:58Z</time>
      </trkpt>
      <trkpt lat="44.57474" lon="7.16436">
        <ele>1072.6</ele>
        <time>2022-07-18T09:55:59Z</time>
      </trkpt>
      <trkpt lat="44.57471" lon="7.16435">
        <ele>1073</ele>
        <time>2022-07-18T09:56:00Z</time>
      </trkpt>
      <trkpt lat="44.57468" lon="7.16433">
        <ele>1073</ele>
        <time>2022-07-18T09:56:01Z</time>
      </trkpt>
      <trkpt lat="44.57466" lon="7.16432">
        <ele>1073.4</ele>
        <time>2022-07-18T09:56:02Z</time>
      </trkpt>
      <trkpt lat="44.57464" lon="7.16431">
        <ele>1073.6</ele>
        <time>2022-07-18T09:56:03Z</time>
      </trkpt>
      <trkpt lat="44.57462" lon="7.1643">
        <ele>1073.6</ele>
        <time>2022-07-18T09:56:04Z</time>
      </trkpt>
      <trkpt lat="44.5746" lon="7.1643">
        <ele>1074</ele>
        <time>2022-07-18T09:56:05Z</time>
      </trkpt>
      <trkpt lat="44.57458" lon="7.16431">
        <ele>1074</ele>
        <time>2022-07-18T09:56:06Z</time>
      </trkpt>
      <trkpt lat="44.57457" lon="7.16432">
        <ele>1074.2</ele>
        <time>2022-07-18T09:56:07Z</time>
      </trkpt>
      <trkpt lat="44.57456" lon="7.16434">
        <ele>1074.2</ele>
        <time>2022-07-18T09:56:08Z</time>
      </trkpt>
      <trkpt lat="44.57455" lon="7.16435">
        <ele>1074.6</ele>
        <time>2022-07-18T09:56:09Z</time>
      </trkpt>
      <trkpt lat="44.57455" lon="7.16438">
        <ele>1074.6</ele>
        <time>2022-07-18T09:56:10Z</time>
      </trkpt>
      <trkpt lat="44.57454" lon="7.1644">
        <ele>1074.8</ele>
        <time>2022-07-18T09:56:11Z</time>
      </trkpt>
      <trkpt lat="44.57454" lon="7.16443">
        <ele>1074.8</ele>
        <time>2022-07-18T09:56:12Z</time>
      </trkpt>
      <trkpt lat="44.57454" lon="7.16446">
        <ele>1074.8</ele>
        <time>2022-07-18T09:56:13Z</time>
      </trkpt>
      <trkpt lat="44.57454" lon="7.16449">
        <ele>1075</ele>
        <time>2022-07-18T09:56:14Z</time>
      </trkpt>
      <trkpt lat="44.57456" lon="7.16452">
        <ele>1075</ele>
        <time>2022-07-18T09:56:15Z</time>
      </trkpt>
      <trkpt lat="44.57458" lon="7.16455">
        <ele>1075</ele>
        <time>2022-07-18T09:56:16Z</time>
      </trkpt>
      <trkpt lat="44.57461" lon="7.16458">
        <ele>1075</ele>
        <time>2022-07-18T09:56:17Z</time>
      </trkpt>
      <trkpt lat="44.57463" lon="7.1646">
        <ele>1075.2</ele>
        <time>2022-07-18T09:56:18Z</time>
      </trkpt>
      <trkpt lat="44.57465" lon="7.16463">
        <ele>1075.2</ele>
        <time>2022-07-18T09:56:19Z</time>
      </trkpt>
      <trkpt lat="44.57467" lon="7.16465">
        <ele>1075.2</ele>
        <time>2022-07-18T09:56:20Z</time>
      </trkpt>
      <trkpt lat="44.57469" lon="7.16468">
        <ele>1075.6</ele>
        <time>2022-07-18T09:56:21Z</time>
      </trkpt>
      <trkpt lat="44.5747" lon="7.16471">
        <ele>1075.6</ele>
        <time>2022-07-18T09:56:22Z</time>
      </trkpt>
      <trkpt lat="44.57471" lon="7.16473">
        <ele>1075.8</ele>
        <time>2022-07-18T09:56:23Z</time>
      </trkpt>
      <trkpt lat="44.57473" lon="7.16476">
        <ele>1075.8</ele>
        <time>2022-07-18T09:56:24Z</time>
      </trkpt>
      <trkpt lat="44.57473" lon="7.16479">
        <ele>1076</ele>
        <time>2022-07-18T09:56:25Z</time>
      </trkpt>
      <trkpt lat="44.57475" lon="7.16482">
        <ele>1076</ele>
        <time>2022-07-18T09:56:26Z</time>
      </trkpt>
      <trkpt lat="44.57476" lon="7.16485">
        <ele>1076.2</ele>
        <time>2022-07-18T09:56:27Z</time>
      </trkpt>
      <trkpt lat="44.57476" lon="7.16487">
        <ele>1076.2</ele>
        <time>2022-07-18T09:56:28Z</time>
      </trkpt>
      <trkpt lat="44.57477" lon="7.1649">
        <ele>1076.4</ele>
        <time>2022-07-18T09:56:29Z</time>
      </trkpt>
      <trkpt lat="44.57477" lon="7.16492">
        <ele>1076.4</ele>
        <time>2022-07-18T09:56:30Z</time>
      </trkpt>
      <trkpt lat="44.57478" lon="7.16495">
        <ele>1076.4</ele>
        <time>2022-07-18T09:56:31Z</time>
      </trkpt>
      <trkpt lat="44.57479" lon="7.16498">
        <ele>1076.8</ele>
        <time>2022-07-18T09:56:32Z</time>
      </trkpt>
      <trkpt lat="44.5748" lon="7.16501">
        <ele>1076.8</ele>
        <time>2022-07-18T09:56:33Z</time>
      </trkpt>
      <trkpt lat="44.5748" lon="7.16503">
        <ele>1077</ele>
        <time>2022-07-18T09:56:34Z</time>
      </trkpt>
      <trkpt lat="44.57481" lon="7.16506">
        <ele>1077</ele>
        <time>2022-07-18T09:56:35Z</time>
      </trkpt>
      <trkpt lat="44.57482" lon="7.16509">
        <ele>1077.4</ele>
        <time>2022-07-18T09:56:36Z</time>
      </trkpt>
      <trkpt lat="44.57483" lon="7.16512">
        <ele>1077.4</ele>
        <time>2022-07-18T09:56:37Z</time>
      </trkpt>
      <trkpt lat="44.57485" lon="7.16515">
        <ele>1077.6</ele>
        <time>2022-07-18T09:56:38Z</time>
      </trkpt>
      <trkpt lat="44.57486" lon="7.16517">
        <ele>1077.6</ele>
        <time>2022-07-18T09:56:39Z</time>
      </trkpt>
      <trkpt lat="44.57487" lon="7.16519">
        <ele>1078</ele>
        <time>2022-07-18T09:56:40Z</time>
      </trkpt>
      <trkpt lat="44.57488" lon="7.16522">
        <ele>1078</ele>
        <time>2022-07-18T09:56:41Z</time>
      </trkpt>
      <trkpt lat="44.57489" lon="7.16524">
        <ele>1078.2</ele>
        <time>2022-07-18T09:56:42Z</time>
      </trkpt>
      <trkpt lat="44.5749" lon="7.16527">
        <ele>1078.2</ele>
        <time>2022-07-18T09:56:43Z</time>
      </trkpt>
      <trkpt lat="44.57491" lon="7.1653">
        <ele>1078.4</ele>
        <time>2022-07-18T09:56:44Z</time>
      </trkpt>
      <trkpt lat="44.57493" lon="7.16533">
        <ele>1078.4</ele>
        <time>2022-07-18T09:56:45Z</time>
      </trkpt>
      <trkpt lat="44.57494" lon="7.16536">
        <ele>1078.8</ele>
        <time>2022-07-18T09:56:46Z</time>
      </trkpt>
      <trkpt lat="44.57495" lon="7.16538">
        <ele>1078.8</ele>
        <time>2022-07-18T09:56:47Z</time>
      </trkpt>
      <trkpt lat="44.57497" lon="7.1654">
        <ele>1079</ele>
        <time>2022-07-18T09:56:48Z</time>
      </trkpt>
      <trkpt lat="44.57498" lon="7.16542">
        <ele>1079</ele>
        <time>2022-07-18T09:56:49Z</time>
      </trkpt>
      <trkpt lat="44.57499" lon="7.16544">
        <ele>1079.4</ele>
        <time>2022-07-18T09:56:50Z</time>
      </trkpt>
      <trkpt lat="44.575" lon="7.16545">
        <ele>1079.4</ele>
        <time>2022-07-18T09:56:51Z</time>
      </trkpt>
      <trkpt lat="44.57501" lon="7.16547">
        <ele>1079.8</ele>
        <time>2022-07-18T09:56:52Z</time>
      </trkpt>
      <trkpt lat="44.57503" lon="7.16549">
        <ele>1080</ele>
        <time>2022-07-18T09:56:53Z</time>
      </trkpt>
      <trkpt lat="44.57504" lon="7.16551">
        <ele>1080</ele>
        <time>2022-07-18T09:56:54Z</time>
      </trkpt>
      <trkpt lat="44.57504" lon="7.16554">
        <ele>1080.4</ele>
        <time>2022-07-18T09:56:55Z</time>
      </trkpt>
      <trkpt lat="44.57505" lon="7.16556">
        <ele>1080.6</ele>
        <time>2022-07-18T09:56:56Z</time>
      </trkpt>
      <trkpt lat="44.57506" lon="7.16558">
        <ele>1080.6</ele>
        <time>2022-07-18T09:56:57Z</time>
      </trkpt>
      <trkpt lat="44.57506" lon="7.1656">
        <ele>1081</ele>
        <time>2022-07-18T09:56:58Z</time>
      </trkpt>
      <trkpt lat="44.57506" lon="7.16562">
        <ele>1081</ele>
        <time>2022-07-18T09:56:59Z</time>
      </trkpt>
      <trkpt lat="44.57507" lon="7.16565">
        <ele>1081.6</ele>
        <time>2022-07-18T09:57:00Z</time>
      </trkpt>
      <trkpt lat="44.57507" lon="7.16568">
        <ele>1081.8</ele>
        <time>2022-07-18T09:57:01Z</time>
      </trkpt>
      <trkpt lat="44.57508" lon="7.16571">
        <ele>1081.8</ele>
        <time>2022-07-18T09:57:02Z</time>
      </trkpt>
      <trkpt lat="44.57508" lon="7.16574">
        <ele>1082</ele>
        <time>2022-07-18T09:57:03Z</time>
      </trkpt>
      <trkpt lat="44.57509" lon="7.16577">
        <ele>1082.2</ele>
        <time>2022-07-18T09:57:04Z</time>
      </trkpt>
      <trkpt lat="44.5751" lon="7.1658">
        <ele>1082.4</ele>
        <time>2022-07-18T09:57:05Z</time>
      </trkpt>
      <trkpt lat="44.5751" lon="7.16584">
        <ele>1082.8</ele>
        <time>2022-07-18T09:57:06Z</time>
      </trkpt>
      <trkpt lat="44.57511" lon="7.16587">
        <ele>1083</ele>
        <time>2022-07-18T09:57:07Z</time>
      </trkpt>
      <trkpt lat="44.57511" lon="7.1659">
        <ele>1083</ele>
        <time>2022-07-18T09:57:08Z</time>
      </trkpt>
      <trkpt lat="44.57512" lon="7.16593">
        <ele>1083.4</ele>
        <time>2022-07-18T09:57:09Z</time>
      </trkpt>
      <trkpt lat="44.57513" lon="7.16595">
        <ele>1083.4</ele>
        <time>2022-07-18T09:57:10Z</time>
      </trkpt>
      <trkpt lat="44.57513" lon="7.16597">
        <ele>1083.8</ele>
        <time>2022-07-18T09:57:11Z</time>
      </trkpt>
      <trkpt lat="44.57514" lon="7.166">
        <ele>1084</ele>
        <time>2022-07-18T09:57:12Z</time>
      </trkpt>
      <trkpt lat="44.57514" lon="7.16603">
        <ele>1084</ele>
        <time>2022-07-18T09:57:13Z</time>
      </trkpt>
      <trkpt lat="44.57515" lon="7.16605">
        <ele>1084.2</ele>
        <time>2022-07-18T09:57:14Z</time>
      </trkpt>
      <trkpt lat="44.57515" lon="7.16608">
        <ele>1084.4</ele>
        <time>2022-07-18T09:57:15Z</time>
      </trkpt>
      <trkpt lat="44.57516" lon="7.1661">
        <ele>1084.4</ele>
        <time>2022-07-18T09:57:16Z</time>
      </trkpt>
      <trkpt lat="44.57517" lon="7.16612">
        <ele>1084.8</ele>
        <time>2022-07-18T09:57:17Z</time>
      </trkpt>
      <trkpt lat="44.57518" lon="7.16614">
        <ele>1084.8</ele>
        <time>2022-07-18T09:57:18Z</time>
      </trkpt>
      <trkpt lat="44.57518" lon="7.16617">
        <ele>1085.2</ele>
        <time>2022-07-18T09:57:19Z</time>
      </trkpt>
      <trkpt lat="44.57518" lon="7.16619">
        <ele>1085.2</ele>
        <time>2022-07-18T09:57:20Z</time>
      </trkpt>
      <trkpt lat="44.57519" lon="7.16622">
        <ele>1085.6</ele>
        <time>2022-07-18T09:57:21Z</time>
      </trkpt>
      <trkpt lat="44.57519" lon="7.16624">
        <ele>1085.6</ele>
        <time>2022-07-18T09:57:22Z</time>
      </trkpt>
      <trkpt lat="44.57519" lon="7.16626">
        <ele>1085.8</ele>
        <time>2022-07-18T09:57:23Z</time>
      </trkpt>
      <trkpt lat="44.5752" lon="7.16629">
        <ele>1086</ele>
        <time>2022-07-18T09:57:24Z</time>
      </trkpt>
      <trkpt lat="44.5752" lon="7.16631">
        <ele>1086</ele>
        <time>2022-07-18T09:57:25Z</time>
      </trkpt>
      <trkpt lat="44.5752" lon="7.16633">
        <ele>1086.4</ele>
        <time>2022-07-18T09:57:26Z</time>
      </trkpt>
      <trkpt lat="44.5752" lon="7.16635">
        <ele>1086.6</ele>
        <time>2022-07-18T09:57:27Z</time>
      </trkpt>
      <trkpt lat="44.5752" lon="7.16637">
        <ele>1086.6</ele>
        <time>2022-07-18T09:57:28Z</time>
      </trkpt>
      <trkpt lat="44.5752" lon="7.16639">
        <ele>1087</ele>
        <time>2022-07-18T09:57:29Z</time>
      </trkpt>
      <trkpt lat="44.5752" lon="7.16643">
        <ele>1087</ele>
        <time>2022-07-18T09:57:30Z</time>
      </trkpt>
      <trkpt lat="44.5752" lon="7.16645">
        <ele>1087.4</ele>
        <time>2022-07-18T09:57:31Z</time>
      </trkpt>
      <trkpt lat="44.5752" lon="7.16648">
        <ele>1087.6</ele>
        <time>2022-07-18T09:57:32Z</time>
      </trkpt>
      <trkpt lat="44.5752" lon="7.1665">
        <ele>1087.8</ele>
        <time>2022-07-18T09:57:33Z</time>
      </trkpt>
      <trkpt lat="44.5752" lon="7.16653">
        <ele>1087.8</ele>
        <time>2022-07-18T09:57:34Z</time>
      </trkpt>
      <trkpt lat="44.5752" lon="7.16655">
        <ele>1088.4</ele>
        <time>2022-07-18T09:57:35Z</time>
      </trkpt>
      <trkpt lat="44.57521" lon="7.16657">
        <ele>1088.6</ele>
        <time>2022-07-18T09:57:36Z</time>
      </trkpt>
      <trkpt lat="44.57521" lon="7.1666">
        <ele>1088.6</ele>
        <time>2022-07-18T09:57:37Z</time>
      </trkpt>
      <trkpt lat="44.57521" lon="7.16662">
        <ele>1088.8</ele>
        <time>2022-07-18T09:57:38Z</time>
      </trkpt>
      <trkpt lat="44.57521" lon="7.16665">
        <ele>1088.8</ele>
        <time>2022-07-18T09:57:39Z</time>
      </trkpt>
      <trkpt lat="44.5752" lon="7.16667">
        <ele>1089.2</ele>
        <time>2022-07-18T09:57:40Z</time>
      </trkpt>
      <trkpt lat="44.5752" lon="7.16669">
        <ele>1089.2</ele>
        <time>2022-07-18T09:57:41Z</time>
      </trkpt>
      <trkpt lat="44.5752" lon="7.16671">
        <ele>1089.4</ele>
        <time>2022-07-18T09:57:42Z</time>
      </trkpt>
      <trkpt lat="44.57519" lon="7.16674">
        <ele>1089.4</ele>
        <time>2022-07-18T09:57:43Z</time>
      </trkpt>
      <trkpt lat="44.57519" lon="7.16676">
        <ele>1089.8</ele>
        <time>2022-07-18T09:57:44Z</time>
      </trkpt>
      <trkpt lat="44.57519" lon="7.16678">
        <ele>1090</ele>
        <time>2022-07-18T09:57:45Z</time>
      </trkpt>
      <trkpt lat="44.57519" lon="7.16681">
        <ele>1090</ele>
        <time>2022-07-18T09:57:46Z</time>
      </trkpt>
      <trkpt lat="44.57518" lon="7.16683">
        <ele>1090.4</ele>
        <time>2022-07-18T09:57:47Z</time>
      </trkpt>
      <trkpt lat="44.57518" lon="7.16686">
        <ele>1090.4</ele>
        <time>2022-07-18T09:57:48Z</time>
      </trkpt>
      <trkpt lat="44.57518" lon="7.16688">
        <ele>1090.8</ele>
        <time>2022-07-18T09:57:49Z</time>
      </trkpt>
      <trkpt lat="44.57517" lon="7.16691">
        <ele>1091</ele>
        <time>2022-07-18T09:57:50Z</time>
      </trkpt>
      <trkpt lat="44.57517" lon="7.16693">
        <ele>1091</ele>
        <time>2022-07-18T09:57:51Z</time>
      </trkpt>
      <trkpt lat="44.57517" lon="7.16696">
        <ele>1091.2</ele>
        <time>2022-07-18T09:57:52Z</time>
      </trkpt>
      <trkpt lat="44.57517" lon="7.16698">
        <ele>1091.6</ele>
        <time>2022-07-18T09:57:53Z</time>
      </trkpt>
      <trkpt lat="44.57517" lon="7.167">
        <ele>1091.8</ele>
        <time>2022-07-18T09:57:54Z</time>
      </trkpt>
      <trkpt lat="44.57517" lon="7.16702">
        <ele>1092</ele>
        <time>2022-07-18T09:57:55Z</time>
      </trkpt>
      <trkpt lat="44.57517" lon="7.16704">
        <ele>1092.4</ele>
        <time>2022-07-18T09:57:56Z</time>
      </trkpt>
      <trkpt lat="44.57516" lon="7.16706">
        <ele>1092.6</ele>
        <time>2022-07-18T09:57:57Z</time>
      </trkpt>
      <trkpt lat="44.57516" lon="7.16708">
        <ele>1092.8</ele>
        <time>2022-07-18T09:57:58Z</time>
      </trkpt>
      <trkpt lat="44.57516" lon="7.16711">
        <ele>1092.8</ele>
        <time>2022-07-18T09:57:59Z</time>
      </trkpt>
      <trkpt lat="44.57516" lon="7.16714">
        <ele>1093.2</ele>
        <time>2022-07-18T09:58:00Z</time>
      </trkpt>
      <trkpt lat="44.57516" lon="7.16717">
        <ele>1093.2</ele>
        <time>2022-07-18T09:58:01Z</time>
      </trkpt>
      <trkpt lat="44.57516" lon="7.1672">
        <ele>1093.6</ele>
        <time>2022-07-18T09:58:02Z</time>
      </trkpt>
      <trkpt lat="44.57516" lon="7.16723">
        <ele>1093.6</ele>
        <time>2022-07-18T09:58:03Z</time>
      </trkpt>
      <trkpt lat="44.57516" lon="7.16725">
        <ele>1094</ele>
        <time>2022-07-18T09:58:04Z</time>
      </trkpt>
      <trkpt lat="44.57516" lon="7.16728">
        <ele>1094.2</ele>
        <time>2022-07-18T09:58:05Z</time>
      </trkpt>
      <trkpt lat="44.57516" lon="7.1673">
        <ele>1094.2</ele>
        <time>2022-07-18T09:58:06Z</time>
      </trkpt>
      <trkpt lat="44.57516" lon="7.16732">
        <ele>1094.6</ele>
        <time>2022-07-18T09:58:07Z</time>
      </trkpt>
      <trkpt lat="44.57516" lon="7.16735">
        <ele>1094.6</ele>
        <time>2022-07-18T09:58:08Z</time>
      </trkpt>
      <trkpt lat="44.57516" lon="7.16737">
        <ele>1095</ele>
        <time>2022-07-18T09:58:09Z</time>
      </trkpt>
      <trkpt lat="44.57515" lon="7.16738">
        <ele>1095.2</ele>
        <time>2022-07-18T09:58:10Z</time>
      </trkpt>
      <trkpt lat="44.57515" lon="7.16741">
        <ele>1095.4</ele>
        <time>2022-07-18T09:58:11Z</time>
      </trkpt>
      <trkpt lat="44.57514" lon="7.16743">
        <ele>1095.6</ele>
        <time>2022-07-18T09:58:12Z</time>
      </trkpt>
      <trkpt lat="44.57513" lon="7.16746">
        <ele>1095.6</ele>
        <time>2022-07-18T09:58:13Z</time>
      </trkpt>
      <trkpt lat="44.57513" lon="7.16748">
        <ele>1096</ele>
        <time>2022-07-18T09:58:14Z</time>
      </trkpt>
      <trkpt lat="44.57513" lon="7.16751">
        <ele>1096</ele>
        <time>2022-07-18T09:58:15Z</time>
      </trkpt>
      <trkpt lat="44.57512" lon="7.16753">
        <ele>1096.4</ele>
        <time>2022-07-18T09:58:16Z</time>
      </trkpt>
      <trkpt lat="44.57512" lon="7.16755">
        <ele>1096.4</ele>
        <time>2022-07-18T09:58:17Z</time>
      </trkpt>
      <trkpt lat="44.57512" lon="7.16758">
        <ele>1096.6</ele>
        <time>2022-07-18T09:58:18Z</time>
      </trkpt>
      <trkpt lat="44.57512" lon="7.16761">
        <ele>1096.6</ele>
        <time>2022-07-18T09:58:19Z</time>
      </trkpt>
      <trkpt lat="44.57511" lon="7.16763">
        <ele>1097</ele>
        <time>2022-07-18T09:58:20Z</time>
      </trkpt>
      <trkpt lat="44.57511" lon="7.16766">
        <ele>1097</ele>
        <time>2022-07-18T09:58:21Z</time>
      </trkpt>
      <trkpt lat="44.57511" lon="7.16769">
        <ele>1097.2</ele>
        <time>2022-07-18T09:58:22Z</time>
      </trkpt>
      <trkpt lat="44.5751" lon="7.16771">
        <ele>1097.6</ele>
        <time>2022-07-18T09:58:23Z</time>
      </trkpt>
      <trkpt lat="44.5751" lon="7.16773">
        <ele>1097.6</ele>
        <time>2022-07-18T09:58:24Z</time>
      </trkpt>
      <trkpt lat="44.5751" lon="7.16775">
        <ele>1097.8</ele>
        <time>2022-07-18T09:58:25Z</time>
      </trkpt>
      <trkpt lat="44.5751" lon="7.16778">
        <ele>1097.8</ele>
        <time>2022-07-18T09:58:26Z</time>
      </trkpt>
      <trkpt lat="44.5751" lon="7.16781">
        <ele>1098.2</ele>
        <time>2022-07-18T09:58:27Z</time>
      </trkpt>
      <trkpt lat="44.5751" lon="7.16783">
        <ele>1098.2</ele>
        <time>2022-07-18T09:58:28Z</time>
      </trkpt>
      <trkpt lat="44.5751" lon="7.16786">
        <ele>1098.6</ele>
        <time>2022-07-18T09:58:29Z</time>
      </trkpt>
      <trkpt lat="44.57509" lon="7.16789">
        <ele>1098.6</ele>
        <time>2022-07-18T09:58:30Z</time>
      </trkpt>
      <trkpt lat="44.57509" lon="7.16791">
        <ele>1098.8</ele>
        <time>2022-07-18T09:58:31Z</time>
      </trkpt>
      <trkpt lat="44.57508" lon="7.16793">
        <ele>1098.8</ele>
        <time>2022-07-18T09:58:32Z</time>
      </trkpt>
      <trkpt lat="44.57507" lon="7.16795">
        <ele>1099.2</ele>
        <time>2022-07-18T09:58:33Z</time>
      </trkpt>
      <trkpt lat="44.57506" lon="7.16797">
        <ele>1099.2</ele>
        <time>2022-07-18T09:58:34Z</time>
      </trkpt>
      <trkpt lat="44.57506" lon="7.168">
        <ele>1099.4</ele>
        <time>2022-07-18T09:58:35Z</time>
      </trkpt>
      <trkpt lat="44.57505" lon="7.16802">
        <ele>1099.4</ele>
        <time>2022-07-18T09:58:36Z</time>
      </trkpt>
      <trkpt lat="44.57504" lon="7.16804">
        <ele>1099.8</ele>
        <time>2022-07-18T09:58:37Z</time>
      </trkpt>
      <trkpt lat="44.57503" lon="7.16806">
        <ele>1099.8</ele>
        <time>2022-07-18T09:58:38Z</time>
      </trkpt>
      <trkpt lat="44.57504" lon="7.16808">
        <ele>1100.2</ele>
        <time>2022-07-18T09:58:39Z</time>
      </trkpt>
      <trkpt lat="44.57503" lon="7.16811">
        <ele>1100.2</ele>
        <time>2022-07-18T09:58:40Z</time>
      </trkpt>
      <trkpt lat="44.57503" lon="7.16813">
        <ele>1100.8</ele>
        <time>2022-07-18T09:58:41Z</time>
      </trkpt>
      <trkpt lat="44.57503" lon="7.16816">
        <ele>1101</ele>
        <time>2022-07-18T09:58:42Z</time>
      </trkpt>
      <trkpt lat="44.57502" lon="7.16818">
        <ele>1101.4</ele>
        <time>2022-07-18T09:58:43Z</time>
      </trkpt>
      <trkpt lat="44.57502" lon="7.16821">
        <ele>1101.4</ele>
        <time>2022-07-18T09:58:44Z</time>
      </trkpt>
      <trkpt lat="44.57502" lon="7.16823">
        <ele>1101.8</ele>
        <time>2022-07-18T09:58:45Z</time>
      </trkpt>
      <trkpt lat="44.57501" lon="7.16825">
        <ele>1101.8</ele>
        <time>2022-07-18T09:58:46Z</time>
      </trkpt>
      <trkpt lat="44.57501" lon="7.16828">
        <ele>1102</ele>
        <time>2022-07-18T09:58:47Z</time>
      </trkpt>
      <trkpt lat="44.57501" lon="7.16831">
        <ele>1102</ele>
        <time>2022-07-18T09:58:48Z</time>
      </trkpt>
      <trkpt lat="44.57501" lon="7.16834">
        <ele>1102.4</ele>
        <time>2022-07-18T09:58:49Z</time>
      </trkpt>
      <trkpt lat="44.57501" lon="7.16836">
        <ele>1102.4</ele>
        <time>2022-07-18T09:58:50Z</time>
      </trkpt>
      <trkpt lat="44.57501" lon="7.16839">
        <ele>1102.8</ele>
        <time>2022-07-18T09:58:51Z</time>
      </trkpt>
      <trkpt lat="44.57501" lon="7.16842">
        <ele>1103</ele>
        <time>2022-07-18T09:58:52Z</time>
      </trkpt>
      <trkpt lat="44.57501" lon="7.16845">
        <ele>1103.2</ele>
        <time>2022-07-18T09:58:53Z</time>
      </trkpt>
      <trkpt lat="44.575" lon="7.16847">
        <ele>1103.4</ele>
        <time>2022-07-18T09:58:54Z</time>
      </trkpt>
      <trkpt lat="44.575" lon="7.1685">
        <ele>1103.4</ele>
        <time>2022-07-18T09:58:55Z</time>
      </trkpt>
      <trkpt lat="44.57499" lon="7.16852">
        <ele>1104</ele>
        <time>2022-07-18T09:58:56Z</time>
      </trkpt>
      <trkpt lat="44.57498" lon="7.16855">
        <ele>1104.2</ele>
        <time>2022-07-18T09:58:57Z</time>
      </trkpt>
      <trkpt lat="44.57497" lon="7.16857">
        <ele>1104.4</ele>
        <time>2022-07-18T09:58:58Z</time>
      </trkpt>
      <trkpt lat="44.57497" lon="7.1686">
        <ele>1104.6</ele>
        <time>2022-07-18T09:58:59Z</time>
      </trkpt>
      <trkpt lat="44.57496" lon="7.16863">
        <ele>1104.8</ele>
        <time>2022-07-18T09:59:00Z</time>
      </trkpt>
      <trkpt lat="44.57495" lon="7.16865">
        <ele>1105.2</ele>
        <time>2022-07-18T09:59:01Z</time>
      </trkpt>
      <trkpt lat="44.57495" lon="7.16868">
        <ele>1105.2</ele>
        <time>2022-07-18T09:59:02Z</time>
      </trkpt>
      <trkpt lat="44.57494" lon="7.1687">
        <ele>1105.4</ele>
        <time>2022-07-18T09:59:03Z</time>
      </trkpt>
      <trkpt lat="44.57494" lon="7.16873">
        <ele>1105.4</ele>
        <time>2022-07-18T09:59:04Z</time>
      </trkpt>
      <trkpt lat="44.57493" lon="7.16875">
        <ele>1105.8</ele>
        <time>2022-07-18T09:59:05Z</time>
      </trkpt>
      <trkpt lat="44.57493" lon="7.16877">
        <ele>1106</ele>
        <time>2022-07-18T09:59:06Z</time>
      </trkpt>
      <trkpt lat="44.57492" lon="7.1688">
        <ele>1106</ele>
        <time>2022-07-18T09:59:07Z</time>
      </trkpt>
      <trkpt lat="44.57492" lon="7.16882">
        <ele>1106.2</ele>
        <time>2022-07-18T09:59:08Z</time>
      </trkpt>
      <trkpt lat="44.57492" lon="7.16884">
        <ele>1106.2</ele>
        <time>2022-07-18T09:59:09Z</time>
      </trkpt>
      <trkpt lat="44.57491" lon="7.16886">
        <ele>1106.6</ele>
        <time>2022-07-18T09:59:10Z</time>
      </trkpt>
      <trkpt lat="44.57491" lon="7.16889">
        <ele>1106.6</ele>
        <time>2022-07-18T09:59:11Z</time>
      </trkpt>
      <trkpt lat="44.57491" lon="7.16892">
        <ele>1107</ele>
        <time>2022-07-18T09:59:12Z</time>
      </trkpt>
      <trkpt lat="44.5749" lon="7.16894">
        <ele>1107</ele>
        <time>2022-07-18T09:59:13Z</time>
      </trkpt>
      <trkpt lat="44.5749" lon="7.16897">
        <ele>1107.4</ele>
        <time>2022-07-18T09:59:14Z</time>
      </trkpt>
      <trkpt lat="44.57489" lon="7.16899">
        <ele>1107.4</ele>
        <time>2022-07-18T09:59:15Z</time>
      </trkpt>
      <trkpt lat="44.57489" lon="7.16902">
        <ele>1107.8</ele>
        <time>2022-07-18T09:59:16Z</time>
      </trkpt>
      <trkpt lat="44.57489" lon="7.16904">
        <ele>1108.2</ele>
        <time>2022-07-18T09:59:17Z</time>
      </trkpt>
      <trkpt lat="44.57488" lon="7.16906">
        <ele>1108.4</ele>
        <time>2022-07-18T09:59:18Z</time>
      </trkpt>
      <trkpt lat="44.57488" lon="7.16909">
        <ele>1108.4</ele>
        <time>2022-07-18T09:59:19Z</time>
      </trkpt>
      <trkpt lat="44.57487" lon="7.16911">
        <ele>1108.6</ele>
        <time>2022-07-18T09:59:20Z</time>
      </trkpt>
      <trkpt lat="44.57486" lon="7.16914">
        <ele>1108.6</ele>
        <time>2022-07-18T09:59:21Z</time>
      </trkpt>
      <trkpt lat="44.57485" lon="7.16916">
        <ele>1109</ele>
        <time>2022-07-18T09:59:22Z</time>
      </trkpt>
      <trkpt lat="44.57484" lon="7.16919">
        <ele>1109</ele>
        <time>2022-07-18T09:59:23Z</time>
      </trkpt>
      <trkpt lat="44.57484" lon="7.16921">
        <ele>1109.4</ele>
        <time>2022-07-18T09:59:24Z</time>
      </trkpt>
      <trkpt lat="44.57483" lon="7.16924">
        <ele>1109.4</ele>
        <time>2022-07-18T09:59:25Z</time>
      </trkpt>
      <trkpt lat="44.57483" lon="7.16926">
        <ele>1109.8</ele>
        <time>2022-07-18T09:59:26Z</time>
      </trkpt>
      <trkpt lat="44.57483" lon="7.16929">
        <ele>1110</ele>
        <time>2022-07-18T09:59:27Z</time>
      </trkpt>
      <trkpt lat="44.57483" lon="7.16931">
        <ele>1110.4</ele>
        <time>2022-07-18T09:59:28Z</time>
      </trkpt>
      <trkpt lat="44.57483" lon="7.16934">
        <ele>1110.4</ele>
        <time>2022-07-18T09:59:29Z</time>
      </trkpt>
      <trkpt lat="44.57482" lon="7.16937">
        <ele>1110.8</ele>
        <time>2022-07-18T09:59:30Z</time>
      </trkpt>
      <trkpt lat="44.57482" lon="7.16939">
        <ele>1110.8</ele>
        <time>2022-07-18T09:59:31Z</time>
      </trkpt>
      <trkpt lat="44.57482" lon="7.16942">
        <ele>1111.2</ele>
        <time>2022-07-18T09:59:32Z</time>
      </trkpt>
      <trkpt lat="44.57481" lon="7.16944">
        <ele>1111.2</ele>
        <time>2022-07-18T09:59:33Z</time>
      </trkpt>
      <trkpt lat="44.57481" lon="7.16947">
        <ele>1111.4</ele>
        <time>2022-07-18T09:59:34Z</time>
      </trkpt>
      <trkpt lat="44.57481" lon="7.1695">
        <ele>1111.6</ele>
        <time>2022-07-18T09:59:35Z</time>
      </trkpt>
      <trkpt lat="44.5748" lon="7.16952">
        <ele>1111.6</ele>
        <time>2022-07-18T09:59:36Z</time>
      </trkpt>
      <trkpt lat="44.5748" lon="7.16955">
        <ele>1112</ele>
        <time>2022-07-18T09:59:37Z</time>
      </trkpt>
      <trkpt lat="44.5748" lon="7.16957">
        <ele>1112</ele>
        <time>2022-07-18T09:59:38Z</time>
      </trkpt>
      <trkpt lat="44.57481" lon="7.1696">
        <ele>1112.4</ele>
        <time>2022-07-18T09:59:39Z</time>
      </trkpt>
      <trkpt lat="44.57481" lon="7.16962">
        <ele>1112.4</ele>
        <time>2022-07-18T09:59:40Z</time>
      </trkpt>
      <trkpt lat="44.5748" lon="7.16964">
        <ele>1112.6</ele>
        <time>2022-07-18T09:59:41Z</time>
      </trkpt>
      <trkpt lat="44.5748" lon="7.16967">
        <ele>1112.8</ele>
        <time>2022-07-18T09:59:42Z</time>
      </trkpt>
      <trkpt lat="44.5748" lon="7.16969">
        <ele>1112.8</ele>
        <time>2022-07-18T09:59:43Z</time>
      </trkpt>
      <trkpt lat="44.5748" lon="7.16971">
        <ele>1113.2</ele>
        <time>2022-07-18T09:59:44Z</time>
      </trkpt>
      <trkpt lat="44.57479" lon="7.16973">
        <ele>1113.2</ele>
        <time>2022-07-18T09:59:45Z</time>
      </trkpt>
      <trkpt lat="44.57478" lon="7.16975">
        <ele>1113.4</ele>
        <time>2022-07-18T09:59:46Z</time>
      </trkpt>
      <trkpt lat="44.57478" lon="7.16977">
        <ele>1113.8</ele>
        <time>2022-07-18T09:59:47Z</time>
      </trkpt>
      <trkpt lat="44.57478" lon="7.16979">
        <ele>1113.8</ele>
        <time>2022-07-18T09:59:48Z</time>
      </trkpt>
      <trkpt lat="44.57478" lon="7.16982">
        <ele>1114</ele>
        <time>2022-07-18T09:59:49Z</time>
      </trkpt>
      <trkpt lat="44.57477" lon="7.16985">
        <ele>1114.2</ele>
        <time>2022-07-18T09:59:50Z</time>
      </trkpt>
      <trkpt lat="44.57477" lon="7.16987">
        <ele>1114.4</ele>
        <time>2022-07-18T09:59:51Z</time>
      </trkpt>
      <trkpt lat="44.57477" lon="7.1699">
        <ele>1114.6</ele>
        <time>2022-07-18T09:59:52Z</time>
      </trkpt>
      <trkpt lat="44.57477" lon="7.16992">
        <ele>1115</ele>
        <time>2022-07-18T09:59:53Z</time>
      </trkpt>
      <trkpt lat="44.57476" lon="7.16994">
        <ele>1115</ele>
        <time>2022-07-18T09:59:54Z</time>
      </trkpt>
      <trkpt lat="44.57476" lon="7.16997">
        <ele>1115.4</ele>
        <time>2022-07-18T09:59:55Z</time>
      </trkpt>
      <trkpt lat="44.57475" lon="7.16999">
        <ele>1115.4</ele>
        <time>2022-07-18T09:59:56Z</time>
      </trkpt>
      <trkpt lat="44.57474" lon="7.17001">
        <ele>1115.6</ele>
        <time>2022-07-18T09:59:57Z</time>
      </trkpt>
      <trkpt lat="44.57474" lon="7.17003">
        <ele>1115.6</ele>
        <time>2022-07-18T09:59:58Z</time>
      </trkpt>
      <trkpt lat="44.57473" lon="7.17006">
        <ele>1116</ele>
        <time>2022-07-18T09:59:59Z</time>
      </trkpt>
      <trkpt lat="44.57472" lon="7.17008">
        <ele>1116</ele>
        <time>2022-07-18T10:00:00Z</time>
      </trkpt>
      <trkpt lat="44.57472" lon="7.1701">
        <ele>1116.4</ele>
        <time>2022-07-18T10:00:01Z</time>
      </trkpt>
      <trkpt lat="44.57471" lon="7.17013">
        <ele>1116.6</ele>
        <time>2022-07-18T10:00:02Z</time>
      </trkpt>
      <trkpt lat="44.5747" lon="7.17015">
        <ele>1116.8</ele>
        <time>2022-07-18T10:00:03Z</time>
      </trkpt>
      <trkpt lat="44.57469" lon="7.17018">
        <ele>1116.8</ele>
        <time>2022-07-18T10:00:04Z</time>
      </trkpt>
      <trkpt lat="44.57468" lon="7.1702">
        <ele>1117</ele>
        <time>2022-07-18T10:00:05Z</time>
      </trkpt>
      <trkpt lat="44.57467" lon="7.17022">
        <ele>1117</ele>
        <time>2022-07-18T10:00:06Z</time>
      </trkpt>
      <trkpt lat="44.57466" lon="7.17024">
        <ele>1117.4</ele>
        <time>2022-07-18T10:00:07Z</time>
      </trkpt>
      <trkpt lat="44.57466" lon="7.17027">
        <ele>1117.4</ele>
        <time>2022-07-18T10:00:08Z</time>
      </trkpt>
      <trkpt lat="44.57465" lon="7.17029">
        <ele>1117.8</ele>
        <time>2022-07-18T10:00:09Z</time>
      </trkpt>
      <trkpt lat="44.57464" lon="7.17031">
        <ele>1117.8</ele>
        <time>2022-07-18T10:00:10Z</time>
      </trkpt>
      <trkpt lat="44.57462" lon="7.17033">
        <ele>1118.2</ele>
        <time>2022-07-18T10:00:11Z</time>
      </trkpt>
      <trkpt lat="44.57461" lon="7.17035">
        <ele>1118.2</ele>
        <time>2022-07-18T10:00:12Z</time>
      </trkpt>
      <trkpt lat="44.5746" lon="7.17036">
        <ele>1118.4</ele>
        <time>2022-07-18T10:00:13Z</time>
      </trkpt>
      <trkpt lat="44.57459" lon="7.17039">
        <ele>1118.4</ele>
        <time>2022-07-18T10:00:14Z</time>
      </trkpt>
      <trkpt lat="44.57458" lon="7.17041">
        <ele>1118.8</ele>
        <time>2022-07-18T10:00:15Z</time>
      </trkpt>
      <trkpt lat="44.57457" lon="7.17043">
        <ele>1119</ele>
        <time>2022-07-18T10:00:16Z</time>
      </trkpt>
      <trkpt lat="44.57456" lon="7.17045">
        <ele>1119</ele>
        <time>2022-07-18T10:00:17Z</time>
      </trkpt>
      <trkpt lat="44.57455" lon="7.17047">
        <ele>1119.4</ele>
        <time>2022-07-18T10:00:18Z</time>
      </trkpt>
      <trkpt lat="44.57454" lon="7.17049">
        <ele>1119.8</ele>
        <time>2022-07-18T10:00:19Z</time>
      </trkpt>
      <trkpt lat="44.57454" lon="7.17052">
        <ele>1120</ele>
        <time>2022-07-18T10:00:20Z</time>
      </trkpt>
      <trkpt lat="44.57453" lon="7.17054">
        <ele>1120</ele>
        <time>2022-07-18T10:00:21Z</time>
      </trkpt>
      <trkpt lat="44.57452" lon="7.17056">
        <ele>1120.4</ele>
        <time>2022-07-18T10:00:22Z</time>
      </trkpt>
      <trkpt lat="44.57452" lon="7.17059">
        <ele>1120.6</ele>
        <time>2022-07-18T10:00:23Z</time>
      </trkpt>
      <trkpt lat="44.57451" lon="7.17061">
        <ele>1120.6</ele>
        <time>2022-07-18T10:00:24Z</time>
      </trkpt>
      <trkpt lat="44.5745" lon="7.17063">
        <ele>1121</ele>
        <time>2022-07-18T10:00:25Z</time>
      </trkpt>
      <trkpt lat="44.5745" lon="7.17066">
        <ele>1121</ele>
        <time>2022-07-18T10:00:26Z</time>
      </trkpt>
      <trkpt lat="44.57449" lon="7.17068">
        <ele>1121.2</ele>
        <time>2022-07-18T10:00:27Z</time>
      </trkpt>
      <trkpt lat="44.57449" lon="7.17071">
        <ele>1121.6</ele>
        <time>2022-07-18T10:00:28Z</time>
      </trkpt>
      <trkpt lat="44.57448" lon="7.17073">
        <ele>1121.6</ele>
        <time>2022-07-18T10:00:29Z</time>
      </trkpt>
      <trkpt lat="44.57448" lon="7.17076">
        <ele>1121.8</ele>
        <time>2022-07-18T10:00:30Z</time>
      </trkpt>
      <trkpt lat="44.57447" lon="7.17078">
        <ele>1121.8</ele>
        <time>2022-07-18T10:00:31Z</time>
      </trkpt>
      <trkpt lat="44.57446" lon="7.17081">
        <ele>1122.2</ele>
        <time>2022-07-18T10:00:32Z</time>
      </trkpt>
      <trkpt lat="44.57446" lon="7.17083">
        <ele>1122.4</ele>
        <time>2022-07-18T10:00:33Z</time>
      </trkpt>
      <trkpt lat="44.57445" lon="7.17086">
        <ele>1122.6</ele>
        <time>2022-07-18T10:00:34Z</time>
      </trkpt>
      <trkpt lat="44.57445" lon="7.17089">
        <ele>1123</ele>
        <time>2022-07-18T10:00:35Z</time>
      </trkpt>
      <trkpt lat="44.57445" lon="7.17092">
        <ele>1123</ele>
        <time>2022-07-18T10:00:36Z</time>
      </trkpt>
      <trkpt lat="44.57445" lon="7.17094">
        <ele>1123.4</ele>
        <time>2022-07-18T10:00:37Z</time>
      </trkpt>
      <trkpt lat="44.57444" lon="7.17096">
        <ele>1123.6</ele>
        <time>2022-07-18T10:00:38Z</time>
      </trkpt>
      <trkpt lat="44.57444" lon="7.17098">
        <ele>1123.8</ele>
        <time>2022-07-18T10:00:39Z</time>
      </trkpt>
      <trkpt lat="44.57443" lon="7.171">
        <ele>1124.2</ele>
        <time>2022-07-18T10:00:40Z</time>
      </trkpt>
      <trkpt lat="44.57443" lon="7.17102">
        <ele>1124.4</ele>
        <time>2022-07-18T10:00:41Z</time>
      </trkpt>
      <trkpt lat="44.57443" lon="7.17104">
        <ele>1124.6</ele>
        <time>2022-07-18T10:00:42Z</time>
      </trkpt>
      <trkpt lat="44.57442" lon="7.17106">
        <ele>1124.6</ele>
        <time>2022-07-18T10:00:43Z</time>
      </trkpt>
      <trkpt lat="44.57441" lon="7.17108">
        <ele>1125</ele>
        <time>2022-07-18T10:00:44Z</time>
      </trkpt>
      <trkpt lat="44.57441" lon="7.1711">
        <ele>1125.2</ele>
        <time>2022-07-18T10:00:45Z</time>
      </trkpt>
      <trkpt lat="44.5744" lon="7.17112">
        <ele>1125.2</ele>
        <time>2022-07-18T10:00:46Z</time>
      </trkpt>
      <trkpt lat="44.5744" lon="7.17114">
        <ele>1125.4</ele>
        <time>2022-07-18T10:00:47Z</time>
      </trkpt>
      <trkpt lat="44.5744" lon="7.17116">
        <ele>1125.4</ele>
        <time>2022-07-18T10:00:48Z</time>
      </trkpt>
      <trkpt lat="44.5744" lon="7.17118">
        <ele>1125.8</ele>
        <time>2022-07-18T10:00:49Z</time>
      </trkpt>
      <trkpt lat="44.5744" lon="7.1712">
        <ele>1125.8</ele>
        <time>2022-07-18T10:00:50Z</time>
      </trkpt>
      <trkpt lat="44.5744" lon="7.17123">
        <ele>1126</ele>
        <time>2022-07-18T10:00:51Z</time>
      </trkpt>
      <trkpt lat="44.5744" lon="7.17125">
        <ele>1126.2</ele>
        <time>2022-07-18T10:00:52Z</time>
      </trkpt>
      <trkpt lat="44.5744" lon="7.17128">
        <ele>1126.4</ele>
        <time>2022-07-18T10:00:53Z</time>
      </trkpt>
      <trkpt lat="44.57439" lon="7.1713">
        <ele>1126.4</ele>
        <time>2022-07-18T10:00:54Z</time>
      </trkpt>
      <trkpt lat="44.57439" lon="7.17133">
        <ele>1126.4</ele>
        <time>2022-07-18T10:00:55Z</time>
      </trkpt>
      <trkpt lat="44.57438" lon="7.17136">
        <ele>1126.8</ele>
        <time>2022-07-18T10:00:56Z</time>
      </trkpt>
      <trkpt lat="44.57437" lon="7.17138">
        <ele>1127</ele>
        <time>2022-07-18T10:00:57Z</time>
      </trkpt>
      <trkpt lat="44.57436" lon="7.1714">
        <ele>1127</ele>
        <time>2022-07-18T10:00:58Z</time>
      </trkpt>
      <trkpt lat="44.57435" lon="7.17142">
        <ele>1127.2</ele>
        <time>2022-07-18T10:00:59Z</time>
      </trkpt>
      <trkpt lat="44.57434" lon="7.17144">
        <ele>1127.2</ele>
        <time>2022-07-18T10:01:00Z</time>
      </trkpt>
      <trkpt lat="44.57433" lon="7.17146">
        <ele>1127.6</ele>
        <time>2022-07-18T10:01:01Z</time>
      </trkpt>
      <trkpt lat="44.57433" lon="7.17148">
        <ele>1127.6</ele>
        <time>2022-07-18T10:01:02Z</time>
      </trkpt>
      <trkpt lat="44.57432" lon="7.17151">
        <ele>1127.8</ele>
        <time>2022-07-18T10:01:03Z</time>
      </trkpt>
      <trkpt lat="44.57432" lon="7.17153">
        <ele>1127.8</ele>
        <time>2022-07-18T10:01:04Z</time>
      </trkpt>
      <trkpt lat="44.57431" lon="7.17155">
        <ele>1128.2</ele>
        <time>2022-07-18T10:01:05Z</time>
      </trkpt>
      <trkpt lat="44.5743" lon="7.17158">
        <ele>1128.2</ele>
        <time>2022-07-18T10:01:06Z</time>
      </trkpt>
      <trkpt lat="44.5743" lon="7.1716">
        <ele>1128.6</ele>
        <time>2022-07-18T10:01:07Z</time>
      </trkpt>
      <trkpt lat="44.5743" lon="7.17163">
        <ele>1128.6</ele>
        <time>2022-07-18T10:01:08Z</time>
      </trkpt>
      <trkpt lat="44.57429" lon="7.17165">
        <ele>1129</ele>
        <time>2022-07-18T10:01:09Z</time>
      </trkpt>
      <trkpt lat="44.57428" lon="7.17167">
        <ele>1129.2</ele>
        <time>2022-07-18T10:01:10Z</time>
      </trkpt>
      <trkpt lat="44.57427" lon="7.17169">
        <ele>1129.4</ele>
        <time>2022-07-18T10:01:11Z</time>
      </trkpt>
      <trkpt lat="44.57426" lon="7.17171">
        <ele>1129.6</ele>
        <time>2022-07-18T10:01:12Z</time>
      </trkpt>
      <trkpt lat="44.57426" lon="7.17174">
        <ele>1129.6</ele>
        <time>2022-07-18T10:01:13Z</time>
      </trkpt>
      <trkpt lat="44.57426" lon="7.17176">
        <ele>1129.8</ele>
        <time>2022-07-18T10:01:14Z</time>
      </trkpt>
      <trkpt lat="44.57426" lon="7.17178">
        <ele>1129.8</ele>
        <time>2022-07-18T10:01:15Z</time>
      </trkpt>
      <trkpt lat="44.57425" lon="7.1718">
        <ele>1130.2</ele>
        <time>2022-07-18T10:01:16Z</time>
      </trkpt>
      <trkpt lat="44.57425" lon="7.17182">
        <ele>1130.2</ele>
        <time>2022-07-18T10:01:17Z</time>
      </trkpt>
      <trkpt lat="44.57425" lon="7.17185">
        <ele>1130.6</ele>
        <time>2022-07-18T10:01:18Z</time>
      </trkpt>
      <trkpt lat="44.57424" lon="7.17187">
        <ele>1130.6</ele>
        <time>2022-07-18T10:01:19Z</time>
      </trkpt>
      <trkpt lat="44.57424" lon="7.17189">
        <ele>1131</ele>
        <time>2022-07-18T10:01:20Z</time>
      </trkpt>
      <trkpt lat="44.57424" lon="7.17191">
        <ele>1131</ele>
        <time>2022-07-18T10:01:21Z</time>
      </trkpt>
      <trkpt lat="44.57423" lon="7.17193">
        <ele>1131.2</ele>
        <time>2022-07-18T10:01:22Z</time>
      </trkpt>
      <trkpt lat="44.57423" lon="7.17195">
        <ele>1131.4</ele>
        <time>2022-07-18T10:01:23Z</time>
      </trkpt>
      <trkpt lat="44.57422" lon="7.17197">
        <ele>1131.6</ele>
        <time>2022-07-18T10:01:24Z</time>
      </trkpt>
      <trkpt lat="44.57422" lon="7.172">
        <ele>1131.6</ele>
        <time>2022-07-18T10:01:25Z</time>
      </trkpt>
      <trkpt lat="44.57422" lon="7.17203">
        <ele>1132</ele>
        <time>2022-07-18T10:01:26Z</time>
      </trkpt>
      <trkpt lat="44.57422" lon="7.17205">
        <ele>1132</ele>
        <time>2022-07-18T10:01:27Z</time>
      </trkpt>
      <trkpt lat="44.57421" lon="7.17208">
        <ele>1132.2</ele>
        <time>2022-07-18T10:01:28Z</time>
      </trkpt>
      <trkpt lat="44.57421" lon="7.1721">
        <ele>1132.2</ele>
        <time>2022-07-18T10:01:29Z</time>
      </trkpt>
      <trkpt lat="44.5742" lon="7.17212">
        <ele>1132.6</ele>
        <time>2022-07-18T10:01:30Z</time>
      </trkpt>
      <trkpt lat="44.5742" lon="7.17214">
        <ele>1132.6</ele>
        <time>2022-07-18T10:01:31Z</time>
      </trkpt>
      <trkpt lat="44.57419" lon="7.17216">
        <ele>1133</ele>
        <time>2022-07-18T10:01:32Z</time>
      </trkpt>
      <trkpt lat="44.57419" lon="7.17218">
        <ele>1133</ele>
        <time>2022-07-18T10:01:33Z</time>
      </trkpt>
      <trkpt lat="44.57418" lon="7.17221">
        <ele>1133.4</ele>
        <time>2022-07-18T10:01:34Z</time>
      </trkpt>
      <trkpt lat="44.57418" lon="7.17223">
        <ele>1133.4</ele>
        <time>2022-07-18T10:01:35Z</time>
      </trkpt>
      <trkpt lat="44.57417" lon="7.17226">
        <ele>1133.8</ele>
        <time>2022-07-18T10:01:36Z</time>
      </trkpt>
      <trkpt lat="44.57417" lon="7.17228">
        <ele>1133.8</ele>
        <time>2022-07-18T10:01:37Z</time>
      </trkpt>
      <trkpt lat="44.57416" lon="7.1723">
        <ele>1134.2</ele>
        <time>2022-07-18T10:01:38Z</time>
      </trkpt>
      <trkpt lat="44.57416" lon="7.17232">
        <ele>1134.2</ele>
        <time>2022-07-18T10:01:39Z</time>
      </trkpt>
      <trkpt lat="44.57415" lon="7.17235">
        <ele>1134.4</ele>
        <time>2022-07-18T10:01:40Z</time>
      </trkpt>
      <trkpt lat="44.57415" lon="7.17237">
        <ele>1134.4</ele>
        <time>2022-07-18T10:01:41Z</time>
      </trkpt>
      <trkpt lat="44.57414" lon="7.1724">
        <ele>1134.8</ele>
        <time>2022-07-18T10:01:42Z</time>
      </trkpt>
      <trkpt lat="44.57414" lon="7.17242">
        <ele>1134.8</ele>
        <time>2022-07-18T10:01:43Z</time>
      </trkpt>
      <trkpt lat="44.57413" lon="7.17244">
        <ele>1135.2</ele>
        <time>2022-07-18T10:01:44Z</time>
      </trkpt>
      <trkpt lat="44.57413" lon="7.17246">
        <ele>1135.2</ele>
        <time>2022-07-18T10:01:45Z</time>
      </trkpt>
      <trkpt lat="44.57412" lon="7.17248">
        <ele>1135.6</ele>
        <time>2022-07-18T10:01:46Z</time>
      </trkpt>
      <trkpt lat="44.57412" lon="7.17251">
        <ele>1135.8</ele>
        <time>2022-07-18T10:01:47Z</time>
      </trkpt>
      <trkpt lat="44.57412" lon="7.17253">
        <ele>1135.8</ele>
        <time>2022-07-18T10:01:48Z</time>
      </trkpt>
      <trkpt lat="44.57411" lon="7.17256">
        <ele>1136</ele>
        <time>2022-07-18T10:01:49Z</time>
      </trkpt>
      <trkpt lat="44.57411" lon="7.17258">
        <ele>1136</ele>
        <time>2022-07-18T10:01:50Z</time>
      </trkpt>
      <trkpt lat="44.5741" lon="7.17261">
        <ele>1136.4</ele>
        <time>2022-07-18T10:01:51Z</time>
      </trkpt>
      <trkpt lat="44.5741" lon="7.17263">
        <ele>1136.6</ele>
        <time>2022-07-18T10:01:52Z</time>
      </trkpt>
      <trkpt lat="44.57409" lon="7.17266">
        <ele>1136.6</ele>
        <time>2022-07-18T10:01:53Z</time>
      </trkpt>
      <trkpt lat="44.57409" lon="7.17268">
        <ele>1137</ele>
        <time>2022-07-18T10:01:54Z</time>
      </trkpt>
      <trkpt lat="44.57409" lon="7.1727">
        <ele>1137.2</ele>
        <time>2022-07-18T10:01:55Z</time>
      </trkpt>
      <trkpt lat="44.57408" lon="7.17273">
        <ele>1137.4</ele>
        <time>2022-07-18T10:01:56Z</time>
      </trkpt>
      <trkpt lat="44.57408" lon="7.17275">
        <ele>1137.8</ele>
        <time>2022-07-18T10:01:57Z</time>
      </trkpt>
      <trkpt lat="44.57408" lon="7.17277">
        <ele>1137.8</ele>
        <time>2022-07-18T10:01:58Z</time>
      </trkpt>
      <trkpt lat="44.57407" lon="7.17279">
        <ele>1138.2</ele>
        <time>2022-07-18T10:01:59Z</time>
      </trkpt>
      <trkpt lat="44.57406" lon="7.17282">
        <ele>1138.2</ele>
        <time>2022-07-18T10:02:00Z</time>
      </trkpt>
      <trkpt lat="44.57406" lon="7.17284">
        <ele>1138.4</ele>
        <time>2022-07-18T10:02:01Z</time>
      </trkpt>
      <trkpt lat="44.57406" lon="7.17286">
        <ele>1138.4</ele>
        <time>2022-07-18T10:02:02Z</time>
      </trkpt>
      <trkpt lat="44.57406" lon="7.17288">
        <ele>1138.8</ele>
        <time>2022-07-18T10:02:03Z</time>
      </trkpt>
      <trkpt lat="44.57406" lon="7.17291">
        <ele>1138.8</ele>
        <time>2022-07-18T10:02:04Z</time>
      </trkpt>
      <trkpt lat="44.57406" lon="7.17293">
        <ele>1139</ele>
        <time>2022-07-18T10:02:05Z</time>
      </trkpt>
      <trkpt lat="44.57405" lon="7.17296">
        <ele>1139</ele>
        <time>2022-07-18T10:02:06Z</time>
      </trkpt>
      <trkpt lat="44.57404" lon="7.17298">
        <ele>1139.4</ele>
        <time>2022-07-18T10:02:07Z</time>
      </trkpt>
      <trkpt lat="44.57403" lon="7.173">
        <ele>1139.4</ele>
        <time>2022-07-18T10:02:08Z</time>
      </trkpt>
      <trkpt lat="44.57403" lon="7.17301">
        <ele>1139.8</ele>
        <time>2022-07-18T10:02:09Z</time>
      </trkpt>
      <trkpt lat="44.57401" lon="7.17303">
        <ele>1139.8</ele>
        <time>2022-07-18T10:02:10Z</time>
      </trkpt>
      <trkpt lat="44.57401" lon="7.17305">
        <ele>1140</ele>
        <time>2022-07-18T10:02:11Z</time>
      </trkpt>
      <trkpt lat="44.574" lon="7.17307">
        <ele>1140</ele>
        <time>2022-07-18T10:02:12Z</time>
      </trkpt>
      <trkpt lat="44.574" lon="7.17309">
        <ele>1140.4</ele>
        <time>2022-07-18T10:02:13Z</time>
      </trkpt>
      <trkpt lat="44.57399" lon="7.17311">
        <ele>1140.4</ele>
        <time>2022-07-18T10:02:14Z</time>
      </trkpt>
      <trkpt lat="44.57399" lon="7.17313">
        <ele>1140.6</ele>
        <time>2022-07-18T10:02:15Z</time>
      </trkpt>
      <trkpt lat="44.57398" lon="7.17316">
        <ele>1140.6</ele>
        <time>2022-07-18T10:02:16Z</time>
      </trkpt>
      <trkpt lat="44.57397" lon="7.17318">
        <ele>1141.2</ele>
        <time>2022-07-18T10:02:18Z</time>
      </trkpt>
      <trkpt lat="44.57397" lon="7.1732">
        <ele>1141.2</ele>
        <time>2022-07-18T10:02:19Z</time>
      </trkpt>
      <trkpt lat="44.57396" lon="7.17322">
        <ele>1141.4</ele>
        <time>2022-07-18T10:02:20Z</time>
      </trkpt>
      <trkpt lat="44.57395" lon="7.17324">
        <ele>1141.4</ele>
        <time>2022-07-18T10:02:21Z</time>
      </trkpt>
      <trkpt lat="44.57394" lon="7.17326">
        <ele>1141.8</ele>
        <time>2022-07-18T10:02:22Z</time>
      </trkpt>
      <trkpt lat="44.57394" lon="7.17329">
        <ele>1141.8</ele>
        <time>2022-07-18T10:02:23Z</time>
      </trkpt>
      <trkpt lat="44.57393" lon="7.17331">
        <ele>1142.2</ele>
        <time>2022-07-18T10:02:24Z</time>
      </trkpt>
      <trkpt lat="44.57393" lon="7.17334">
        <ele>1142.2</ele>
        <time>2022-07-18T10:02:25Z</time>
      </trkpt>
      <trkpt lat="44.57392" lon="7.17336">
        <ele>1142.4</ele>
        <time>2022-07-18T10:02:26Z</time>
      </trkpt>
      <trkpt lat="44.57391" lon="7.17339">
        <ele>1142.4</ele>
        <time>2022-07-18T10:02:27Z</time>
      </trkpt>
      <trkpt lat="44.5739" lon="7.17341">
        <ele>1142.8</ele>
        <time>2022-07-18T10:02:28Z</time>
      </trkpt>
      <trkpt lat="44.57389" lon="7.17344">
        <ele>1142.8</ele>
        <time>2022-07-18T10:02:29Z</time>
      </trkpt>
      <trkpt lat="44.57388" lon="7.17346">
        <ele>1143.2</ele>
        <time>2022-07-18T10:02:30Z</time>
      </trkpt>
      <trkpt lat="44.57388" lon="7.17348">
        <ele>1143.4</ele>
        <time>2022-07-18T10:02:31Z</time>
      </trkpt>
      <trkpt lat="44.57386" lon="7.1735">
        <ele>1143.4</ele>
        <time>2022-07-18T10:02:32Z</time>
      </trkpt>
      <trkpt lat="44.57385" lon="7.17352">
        <ele>1143.8</ele>
        <time>2022-07-18T10:02:33Z</time>
      </trkpt>
      <trkpt lat="44.57384" lon="7.17355">
        <ele>1144</ele>
        <time>2022-07-18T10:02:34Z</time>
      </trkpt>
      <trkpt lat="44.57383" lon="7.17357">
        <ele>1144</ele>
        <time>2022-07-18T10:02:35Z</time>
      </trkpt>
      <trkpt lat="44.57382" lon="7.17359">
        <ele>1144.2</ele>
        <time>2022-07-18T10:02:36Z</time>
      </trkpt>
      <trkpt lat="44.5738" lon="7.17362">
        <ele>1144.6</ele>
        <time>2022-07-18T10:02:37Z</time>
      </trkpt>
      <trkpt lat="44.57379" lon="7.17364">
        <ele>1144.8</ele>
        <time>2022-07-18T10:02:38Z</time>
      </trkpt>
      <trkpt lat="44.57378" lon="7.17366">
        <ele>1145</ele>
        <time>2022-07-18T10:02:39Z</time>
      </trkpt>
      <trkpt lat="44.57377" lon="7.17367">
        <ele>1145</ele>
        <time>2022-07-18T10:02:40Z</time>
      </trkpt>
      <trkpt lat="44.57375" lon="7.17369">
        <ele>1145.4</ele>
        <time>2022-07-18T10:02:41Z</time>
      </trkpt>
      <trkpt lat="44.57374" lon="7.17371">
        <ele>1145.4</ele>
        <time>2022-07-18T10:02:42Z</time>
      </trkpt>
      <trkpt lat="44.57372" lon="7.17372">
        <ele>1145.8</ele>
        <time>2022-07-18T10:02:43Z</time>
      </trkpt>
      <trkpt lat="44.5737" lon="7.17373">
        <ele>1145.8</ele>
        <time>2022-07-18T10:02:44Z</time>
      </trkpt>
      <trkpt lat="44.57367" lon="7.17374">
        <ele>1146</ele>
        <time>2022-07-18T10:02:45Z</time>
      </trkpt>
      <trkpt lat="44.57365" lon="7.17374">
        <ele>1146</ele>
        <time>2022-07-18T10:02:46Z</time>
      </trkpt>
      <trkpt lat="44.57363" lon="7.17375">
        <ele>1146.4</ele>
        <time>2022-07-18T10:02:47Z</time>
      </trkpt>
      <trkpt lat="44.57361" lon="7.17375">
        <ele>1146.4</ele>
        <time>2022-07-18T10:02:48Z</time>
      </trkpt>
      <trkpt lat="44.57358" lon="7.17375">
        <ele>1146.6</ele>
        <time>2022-07-18T10:02:49Z</time>
      </trkpt>
      <trkpt lat="44.57355" lon="7.17375">
        <ele>1146.6</ele>
        <time>2022-07-18T10:02:50Z</time>
      </trkpt>
      <trkpt lat="44.57352" lon="7.17375">
        <ele>1146.6</ele>
        <time>2022-07-18T10:02:51Z</time>
      </trkpt>
      <trkpt lat="44.57349" lon="7.17374">
        <ele>1146.8</ele>
        <time>2022-07-18T10:02:52Z</time>
      </trkpt>
      <trkpt lat="44.57347" lon="7.17374">
        <ele>1146.8</ele>
        <time>2022-07-18T10:02:53Z</time>
      </trkpt>
      <trkpt lat="44.57345" lon="7.17374">
        <ele>1147.2</ele>
        <time>2022-07-18T10:02:54Z</time>
      </trkpt>
      <trkpt lat="44.57342" lon="7.17374">
        <ele>1147.2</ele>
        <time>2022-07-18T10:02:55Z</time>
      </trkpt>
      <trkpt lat="44.5734" lon="7.17373">
        <ele>1147.6</ele>
        <time>2022-07-18T10:02:56Z</time>
      </trkpt>
      <trkpt lat="44.57338" lon="7.17373">
        <ele>1147.6</ele>
        <time>2022-07-18T10:02:57Z</time>
      </trkpt>
      <trkpt lat="44.57336" lon="7.17372">
        <ele>1147.8</ele>
        <time>2022-07-18T10:02:58Z</time>
      </trkpt>
      <trkpt lat="44.57333" lon="7.17372">
        <ele>1147.8</ele>
        <time>2022-07-18T10:02:59Z</time>
      </trkpt>
      <trkpt lat="44.57331" lon="7.17371">
        <ele>1148.2</ele>
        <time>2022-07-18T10:03:00Z</time>
      </trkpt>
      <trkpt lat="44.57328" lon="7.1737">
        <ele>1148.2</ele>
        <time>2022-07-18T10:03:01Z</time>
      </trkpt>
      <trkpt lat="44.57326" lon="7.17369">
        <ele>1148.4</ele>
        <time>2022-07-18T10:03:02Z</time>
      </trkpt>
      <trkpt lat="44.57323" lon="7.17368">
        <ele>1148.4</ele>
        <time>2022-07-18T10:03:03Z</time>
      </trkpt>
      <trkpt lat="44.57321" lon="7.17367">
        <ele>1148.6</ele>
        <time>2022-07-18T10:03:04Z</time>
      </trkpt>
      <trkpt lat="44.57319" lon="7.17367">
        <ele>1148.6</ele>
        <time>2022-07-18T10:03:05Z</time>
      </trkpt>
      <trkpt lat="44.57316" lon="7.17366">
        <ele>1149</ele>
        <time>2022-07-18T10:03:06Z</time>
      </trkpt>
      <trkpt lat="44.57314" lon="7.17365">
        <ele>1149</ele>
        <time>2022-07-18T10:03:07Z</time>
      </trkpt>
      <trkpt lat="44.57312" lon="7.17364">
        <ele>1149</ele>
        <time>2022-07-18T10:03:08Z</time>
      </trkpt>
      <trkpt lat="44.57309" lon="7.17363">
        <ele>1149.2</ele>
        <time>2022-07-18T10:03:09Z</time>
      </trkpt>
      <trkpt lat="44.57307" lon="7.17362">
        <ele>1149.2</ele>
        <time>2022-07-18T10:03:10Z</time>
      </trkpt>
      <trkpt lat="44.57305" lon="7.1736">
        <ele>1149.4</ele>
        <time>2022-07-18T10:03:11Z</time>
      </trkpt>
      <trkpt lat="44.57303" lon="7.17358">
        <ele>1149.4</ele>
        <time>2022-07-18T10:03:12Z</time>
      </trkpt>
      <trkpt lat="44.57301" lon="7.17357">
        <ele>1149.8</ele>
        <time>2022-07-18T10:03:13Z</time>
      </trkpt>
      <trkpt lat="44.57298" lon="7.17356">
        <ele>1150</ele>
        <time>2022-07-18T10:03:14Z</time>
      </trkpt>
      <trkpt lat="44.57296" lon="7.17354">
        <ele>1150</ele>
        <time>2022-07-18T10:03:15Z</time>
      </trkpt>
      <trkpt lat="44.57294" lon="7.17352">
        <ele>1150.2</ele>
        <time>2022-07-18T10:03:16Z</time>
      </trkpt>
      <trkpt lat="44.57291" lon="7.17351">
        <ele>1150.2</ele>
        <time>2022-07-18T10:03:17Z</time>
      </trkpt>
      <trkpt lat="44.57289" lon="7.17349">
        <ele>1150.4</ele>
        <time>2022-07-18T10:03:18Z</time>
      </trkpt>
      <trkpt lat="44.57287" lon="7.17347">
        <ele>1150.4</ele>
        <time>2022-07-18T10:03:19Z</time>
      </trkpt>
      <trkpt lat="44.57285" lon="7.17346">
        <ele>1150.8</ele>
        <time>2022-07-18T10:03:20Z</time>
      </trkpt>
      <trkpt lat="44.57282" lon="7.17344">
        <ele>1150.8</ele>
        <time>2022-07-18T10:03:21Z</time>
      </trkpt>
      <trkpt lat="44.5728" lon="7.17343">
        <ele>1151</ele>
        <time>2022-07-18T10:03:22Z</time>
      </trkpt>
      <trkpt lat="44.57277" lon="7.17342">
        <ele>1151</ele>
        <time>2022-07-18T10:03:23Z</time>
      </trkpt>
      <trkpt lat="44.57275" lon="7.17341">
        <ele>1151.2</ele>
        <time>2022-07-18T10:03:24Z</time>
      </trkpt>
      <trkpt lat="44.57273" lon="7.17339">
        <ele>1151.2</ele>
        <time>2022-07-18T10:03:25Z</time>
      </trkpt>
      <trkpt lat="44.57271" lon="7.17337">
        <ele>1151.6</ele>
        <time>2022-07-18T10:03:26Z</time>
      </trkpt>
      <trkpt lat="44.57269" lon="7.17336">
        <ele>1151.6</ele>
        <time>2022-07-18T10:03:27Z</time>
      </trkpt>
      <trkpt lat="44.57266" lon="7.17334">
        <ele>1152</ele>
        <time>2022-07-18T10:03:28Z</time>
      </trkpt>
      <trkpt lat="44.57264" lon="7.17332">
        <ele>1152</ele>
        <time>2022-07-18T10:03:29Z</time>
      </trkpt>
      <trkpt lat="44.57262" lon="7.1733">
        <ele>1152.4</ele>
        <time>2022-07-18T10:03:30Z</time>
      </trkpt>
      <trkpt lat="44.57261" lon="7.17329">
        <ele>1152.4</ele>
        <time>2022-07-18T10:03:31Z</time>
      </trkpt>
      <trkpt lat="44.57259" lon="7.17327">
        <ele>1152.6</ele>
        <time>2022-07-18T10:03:32Z</time>
      </trkpt>
      <trkpt lat="44.57257" lon="7.17325">
        <ele>1152.6</ele>
        <time>2022-07-18T10:03:33Z</time>
      </trkpt>
      <trkpt lat="44.57255" lon="7.17323">
        <ele>1153</ele>
        <time>2022-07-18T10:03:34Z</time>
      </trkpt>
      <trkpt lat="44.57252" lon="7.1732">
        <ele>1153</ele>
        <time>2022-07-18T10:03:35Z</time>
      </trkpt>
      <trkpt lat="44.5725" lon="7.17319">
        <ele>1153.2</ele>
        <time>2022-07-18T10:03:36Z</time>
      </trkpt>
      <trkpt lat="44.57248" lon="7.17317">
        <ele>1153.2</ele>
        <time>2022-07-18T10:03:37Z</time>
      </trkpt>
      <trkpt lat="44.57246" lon="7.17316">
        <ele>1153.6</ele>
        <time>2022-07-18T10:03:38Z</time>
      </trkpt>
      <trkpt lat="44.57243" lon="7.17314">
        <ele>1153.6</ele>
        <time>2022-07-18T10:03:39Z</time>
      </trkpt>
      <trkpt lat="44.57241" lon="7.17313">
        <ele>1154</ele>
        <time>2022-07-18T10:03:40Z</time>
      </trkpt>
      <trkpt lat="44.57239" lon="7.17311">
        <ele>1154.2</ele>
        <time>2022-07-18T10:03:41Z</time>
      </trkpt>
      <trkpt lat="44.57237" lon="7.17309">
        <ele>1154.2</ele>
        <time>2022-07-18T10:03:42Z</time>
      </trkpt>
      <trkpt lat="44.57234" lon="7.17307">
        <ele>1154.4</ele>
        <time>2022-07-18T10:03:43Z</time>
      </trkpt>
      <trkpt lat="44.57232" lon="7.17306">
        <ele>1154.4</ele>
        <time>2022-07-18T10:03:44Z</time>
      </trkpt>
      <trkpt lat="44.57229" lon="7.17305">
        <ele>1154.6</ele>
        <time>2022-07-18T10:03:45Z</time>
      </trkpt>
      <trkpt lat="44.57227" lon="7.17303">
        <ele>1154.6</ele>
        <time>2022-07-18T10:03:46Z</time>
      </trkpt>
      <trkpt lat="44.57224" lon="7.17302">
        <ele>1155</ele>
        <time>2022-07-18T10:03:47Z</time>
      </trkpt>
      <trkpt lat="44.57221" lon="7.17301">
        <ele>1155.2</ele>
        <time>2022-07-18T10:03:48Z</time>
      </trkpt>
      <trkpt lat="44.57219" lon="7.173">
        <ele>1155.2</ele>
        <time>2022-07-18T10:03:49Z</time>
      </trkpt>
      <trkpt lat="44.57217" lon="7.17299">
        <ele>1155.6</ele>
        <time>2022-07-18T10:03:50Z</time>
      </trkpt>
      <trkpt lat="44.57215" lon="7.17298">
        <ele>1155.6</ele>
        <time>2022-07-18T10:03:51Z</time>
      </trkpt>
      <trkpt lat="44.57212" lon="7.17296">
        <ele>1155.8</ele>
        <time>2022-07-18T10:03:52Z</time>
      </trkpt>
      <trkpt lat="44.57209" lon="7.17296">
        <ele>1155.8</ele>
        <time>2022-07-18T10:03:53Z</time>
      </trkpt>
      <trkpt lat="44.57207" lon="7.17295">
        <ele>1156.2</ele>
        <time>2022-07-18T10:03:54Z</time>
      </trkpt>
      <trkpt lat="44.57204" lon="7.17294">
        <ele>1156.2</ele>
        <time>2022-07-18T10:03:55Z</time>
      </trkpt>
      <trkpt lat="44.57202" lon="7.17293">
        <ele>1156.4</ele>
        <time>2022-07-18T10:03:56Z</time>
      </trkpt>
      <trkpt lat="44.572" lon="7.17292">
        <ele>1156.4</ele>
        <time>2022-07-18T10:03:57Z</time>
      </trkpt>
      <trkpt lat="44.57198" lon="7.1729">
        <ele>1156.8</ele>
        <time>2022-07-18T10:03:58Z</time>
      </trkpt>
      <trkpt lat="44.57197" lon="7.17289">
        <ele>1156.8</ele>
        <time>2022-07-18T10:03:59Z</time>
      </trkpt>
      <trkpt lat="44.57194" lon="7.17288">
        <ele>1157</ele>
        <time>2022-07-18T10:04:00Z</time>
      </trkpt>
      <trkpt lat="44.57192" lon="7.17287">
        <ele>1157</ele>
        <time>2022-07-18T10:04:01Z</time>
      </trkpt>
      <trkpt lat="44.5719" lon="7.17285">
        <ele>1157.4</ele>
        <time>2022-07-18T10:04:02Z</time>
      </trkpt>
      <trkpt lat="44.57188" lon="7.17284">
        <ele>1157.4</ele>
        <time>2022-07-18T10:04:03Z</time>
      </trkpt>
      <trkpt lat="44.57185" lon="7.17284">
        <ele>1157.6</ele>
        <time>2022-07-18T10:04:04Z</time>
      </trkpt>
      <trkpt lat="44.57183" lon="7.17283">
        <ele>1157.6</ele>
        <time>2022-07-18T10:04:05Z</time>
      </trkpt>
      <trkpt lat="44.5718" lon="7.17284">
        <ele>1158</ele>
        <time>2022-07-18T10:04:06Z</time>
      </trkpt>
      <trkpt lat="44.57178" lon="7.17284">
        <ele>1158</ele>
        <time>2022-07-18T10:04:07Z</time>
      </trkpt>
      <trkpt lat="44.57177" lon="7.17286">
        <ele>1158.4</ele>
        <time>2022-07-18T10:04:08Z</time>
      </trkpt>
      <trkpt lat="44.57175" lon="7.17289">
        <ele>1158.6</ele>
        <time>2022-07-18T10:04:09Z</time>
      </trkpt>
      <trkpt lat="44.57174" lon="7.17292">
        <ele>1158.8</ele>
        <time>2022-07-18T10:04:10Z</time>
      </trkpt>
      <trkpt lat="44.57173" lon="7.17293">
        <ele>1158.8</ele>
        <time>2022-07-18T10:04:11Z</time>
      </trkpt>
      <trkpt lat="44.57171" lon="7.17301">
        <ele>1159.2</ele>
        <time>2022-07-18T10:04:12Z</time>
      </trkpt>
      <trkpt lat="44.57169" lon="7.17308">
        <ele>1159.2</ele>
        <time>2022-07-18T10:04:13Z</time>
      </trkpt>
      <trkpt lat="44.57168" lon="7.17312">
        <ele>1159.4</ele>
        <time>2022-07-18T10:04:14Z</time>
      </trkpt>
      <trkpt lat="44.57168" lon="7.17315">
        <ele>1159.4</ele>
        <time>2022-07-18T10:04:15Z</time>
      </trkpt>
      <trkpt lat="44.57168" lon="7.17318">
        <ele>1159.6</ele>
        <time>2022-07-18T10:04:16Z</time>
      </trkpt>
      <trkpt lat="44.57168" lon="7.1732">
        <ele>1159.6</ele>
        <time>2022-07-18T10:04:17Z</time>
      </trkpt>
      <trkpt lat="44.57168" lon="7.17323">
        <ele>1160</ele>
        <time>2022-07-18T10:04:18Z</time>
      </trkpt>
      <trkpt lat="44.57167" lon="7.17325">
        <ele>1160.2</ele>
        <time>2022-07-18T10:04:19Z</time>
      </trkpt>
      <trkpt lat="44.57168" lon="7.17328">
        <ele>1160.2</ele>
        <time>2022-07-18T10:04:20Z</time>
      </trkpt>
      <trkpt lat="44.57168" lon="7.17331">
        <ele>1160.6</ele>
        <time>2022-07-18T10:04:21Z</time>
      </trkpt>
      <trkpt lat="44.57167" lon="7.17333">
        <ele>1160.8</ele>
        <time>2022-07-18T10:04:22Z</time>
      </trkpt>
      <trkpt lat="44.57168" lon="7.17336">
        <ele>1160.8</ele>
        <time>2022-07-18T10:04:23Z</time>
      </trkpt>
      <trkpt lat="44.57168" lon="7.17339">
        <ele>1161.2</ele>
        <time>2022-07-18T10:04:24Z</time>
      </trkpt>
      <trkpt lat="44.57169" lon="7.17341">
        <ele>1161.4</ele>
        <time>2022-07-18T10:04:25Z</time>
      </trkpt>
      <trkpt lat="44.5717" lon="7.17344">
        <ele>1161.4</ele>
        <time>2022-07-18T10:04:26Z</time>
      </trkpt>
      <trkpt lat="44.5717" lon="7.17346">
        <ele>1161.8</ele>
        <time>2022-07-18T10:04:27Z</time>
      </trkpt>
      <trkpt lat="44.57171" lon="7.17349">
        <ele>1161.8</ele>
        <time>2022-07-18T10:04:28Z</time>
      </trkpt>
      <trkpt lat="44.57171" lon="7.17352">
        <ele>1162</ele>
        <time>2022-07-18T10:04:29Z</time>
      </trkpt>
      <trkpt lat="44.57171" lon="7.17355">
        <ele>1162.2</ele>
        <time>2022-07-18T10:04:30Z</time>
      </trkpt>
      <trkpt lat="44.57172" lon="7.17358">
        <ele>1162.6</ele>
        <time>2022-07-18T10:04:31Z</time>
      </trkpt>
      <trkpt lat="44.57172" lon="7.17361">
        <ele>1162.8</ele>
        <time>2022-07-18T10:04:32Z</time>
      </trkpt>
      <trkpt lat="44.57172" lon="7.17364">
        <ele>1163</ele>
        <time>2022-07-18T10:04:33Z</time>
      </trkpt>
      <trkpt lat="44.57172" lon="7.17367">
        <ele>1163.2</ele>
        <time>2022-07-18T10:04:34Z</time>
      </trkpt>
      <trkpt lat="44.57171" lon="7.1737">
        <ele>1163.4</ele>
        <time>2022-07-18T10:04:35Z</time>
      </trkpt>
      <trkpt lat="44.57171" lon="7.17372">
        <ele>1163.4</ele>
        <time>2022-07-18T10:04:36Z</time>
      </trkpt>
      <trkpt lat="44.57172" lon="7.17378">
        <ele>1163.8</ele>
        <time>2022-07-18T10:04:37Z</time>
      </trkpt>
      <trkpt lat="44.57172" lon="7.1738">
        <ele>1164</ele>
        <time>2022-07-18T10:04:38Z</time>
      </trkpt>
      <trkpt lat="44.57172" lon="7.17383">
        <ele>1164.2</ele>
        <time>2022-07-18T10:04:39Z</time>
      </trkpt>
      <trkpt lat="44.57172" lon="7.17386">
        <ele>1164.2</ele>
        <time>2022-07-18T10:04:40Z</time>
      </trkpt>
      <trkpt lat="44.57172" lon="7.17389">
        <ele>1164.6</ele>
        <time>2022-07-18T10:04:41Z</time>
      </trkpt>
      <trkpt lat="44.57171" lon="7.17391">
        <ele>1164.6</ele>
        <time>2022-07-18T10:04:42Z</time>
      </trkpt>
      <trkpt lat="44.57171" lon="7.17394">
        <ele>1164.8</ele>
        <time>2022-07-18T10:04:43Z</time>
      </trkpt>
      <trkpt lat="44.57171" lon="7.17398">
        <ele>1164.8</ele>
        <time>2022-07-18T10:04:44Z</time>
      </trkpt>
      <trkpt lat="44.57171" lon="7.17401">
        <ele>1165.2</ele>
        <time>2022-07-18T10:04:45Z</time>
      </trkpt>
      <trkpt lat="44.57171" lon="7.17404">
        <ele>1165.2</ele>
        <time>2022-07-18T10:04:46Z</time>
      </trkpt>
      <trkpt lat="44.57171" lon="7.17407">
        <ele>1165.4</ele>
        <time>2022-07-18T10:04:47Z</time>
      </trkpt>
      <trkpt lat="44.5717" lon="7.1741">
        <ele>1165.8</ele>
        <time>2022-07-18T10:04:48Z</time>
      </trkpt>
      <trkpt lat="44.5717" lon="7.17413">
        <ele>1165.8</ele>
        <time>2022-07-18T10:04:49Z</time>
      </trkpt>
      <trkpt lat="44.5717" lon="7.17416">
        <ele>1166</ele>
        <time>2022-07-18T10:04:50Z</time>
      </trkpt>
      <trkpt lat="44.5717" lon="7.17419">
        <ele>1166.4</ele>
        <time>2022-07-18T10:04:51Z</time>
      </trkpt>
      <trkpt lat="44.57169" lon="7.17422">
        <ele>1166.8</ele>
        <time>2022-07-18T10:04:52Z</time>
      </trkpt>
      <trkpt lat="44.57169" lon="7.17426">
        <ele>1167</ele>
        <time>2022-07-18T10:04:53Z</time>
      </trkpt>
      <trkpt lat="44.57168" lon="7.17429">
        <ele>1167.2</ele>
        <time>2022-07-18T10:04:54Z</time>
      </trkpt>
      <trkpt lat="44.57168" lon="7.17432">
        <ele>1167.4</ele>
        <time>2022-07-18T10:04:55Z</time>
      </trkpt>
      <trkpt lat="44.57168" lon="7.17435">
        <ele>1167.4</ele>
        <time>2022-07-18T10:04:56Z</time>
      </trkpt>
      <trkpt lat="44.57167" lon="7.17438">
        <ele>1167.8</ele>
        <time>2022-07-18T10:04:57Z</time>
      </trkpt>
      <trkpt lat="44.57167" lon="7.17441">
        <ele>1168</ele>
        <time>2022-07-18T10:04:58Z</time>
      </trkpt>
      <trkpt lat="44.57167" lon="7.17444">
        <ele>1168</ele>
        <time>2022-07-18T10:04:59Z</time>
      </trkpt>
      <trkpt lat="44.57166" lon="7.17447">
        <ele>1168.6</ele>
        <time>2022-07-18T10:05:00Z</time>
      </trkpt>
      <trkpt lat="44.57166" lon="7.17451">
        <ele>1168.8</ele>
        <time>2022-07-18T10:05:01Z</time>
      </trkpt>
      <trkpt lat="44.57166" lon="7.17454">
        <ele>1168.8</ele>
        <time>2022-07-18T10:05:02Z</time>
      </trkpt>
      <trkpt lat="44.57166" lon="7.17457">
        <ele>1169.2</ele>
        <time>2022-07-18T10:05:03Z</time>
      </trkpt>
      <trkpt lat="44.57165" lon="7.17461">
        <ele>1169.4</ele>
        <time>2022-07-18T10:05:04Z</time>
      </trkpt>
      <trkpt lat="44.57165" lon="7.17464">
        <ele>1169.6</ele>
        <time>2022-07-18T10:05:05Z</time>
      </trkpt>
      <trkpt lat="44.57164" lon="7.17467">
        <ele>1169.6</ele>
        <time>2022-07-18T10:05:06Z</time>
      </trkpt>
      <trkpt lat="44.57163" lon="7.17469">
        <ele>1170</ele>
        <time>2022-07-18T10:05:07Z</time>
      </trkpt>
      <trkpt lat="44.57162" lon="7.17472">
        <ele>1170</ele>
        <time>2022-07-18T10:05:08Z</time>
      </trkpt>
      <trkpt lat="44.57161" lon="7.17475">
        <ele>1170.4</ele>
        <time>2022-07-18T10:05:09Z</time>
      </trkpt>
      <trkpt lat="44.5716" lon="7.17477">
        <ele>1170.6</ele>
        <time>2022-07-18T10:05:10Z</time>
      </trkpt>
      <trkpt lat="44.57158" lon="7.1748">
        <ele>1170.6</ele>
        <time>2022-07-18T10:05:11Z</time>
      </trkpt>
      <trkpt lat="44.57157" lon="7.17482">
        <ele>1170.8</ele>
        <time>2022-07-18T10:05:12Z</time>
      </trkpt>
      <trkpt lat="44.57156" lon="7.17485">
        <ele>1170.8</ele>
        <time>2022-07-18T10:05:13Z</time>
      </trkpt>
      <trkpt lat="44.57155" lon="7.17487">
        <ele>1171.2</ele>
        <time>2022-07-18T10:05:14Z</time>
      </trkpt>
      <trkpt lat="44.57153" lon="7.1749">
        <ele>1171.4</ele>
        <time>2022-07-18T10:05:15Z</time>
      </trkpt>
      <trkpt lat="44.57152" lon="7.17492">
        <ele>1171.8</ele>
        <time>2022-07-18T10:05:16Z</time>
      </trkpt>
      <trkpt lat="44.5715" lon="7.17494">
        <ele>1171.8</ele>
        <time>2022-07-18T10:05:17Z</time>
      </trkpt>
      <trkpt lat="44.57149" lon="7.17495">
        <ele>1172.2</ele>
        <time>2022-07-18T10:05:18Z</time>
      </trkpt>
      <trkpt lat="44.57147" lon="7.17497">
        <ele>1172.2</ele>
        <time>2022-07-18T10:05:19Z</time>
      </trkpt>
      <trkpt lat="44.57145" lon="7.17498">
        <ele>1172.4</ele>
        <time>2022-07-18T10:05:20Z</time>
      </trkpt>
      <trkpt lat="44.57143" lon="7.17499">
        <ele>1172.4</ele>
        <time>2022-07-18T10:05:21Z</time>
      </trkpt>
      <trkpt lat="44.57141" lon="7.17499">
        <ele>1172.8</ele>
        <time>2022-07-18T10:05:22Z</time>
      </trkpt>
      <trkpt lat="44.57139" lon="7.175">
        <ele>1172.8</ele>
        <time>2022-07-18T10:05:23Z</time>
      </trkpt>
      <trkpt lat="44.57137" lon="7.17501">
        <ele>1173</ele>
        <time>2022-07-18T10:05:24Z</time>
      </trkpt>
      <trkpt lat="44.57135" lon="7.17502">
        <ele>1173</ele>
        <time>2022-07-18T10:05:25Z</time>
      </trkpt>
      <trkpt lat="44.57134" lon="7.17503">
        <ele>1173.4</ele>
        <time>2022-07-18T10:05:26Z</time>
      </trkpt>
      <trkpt lat="44.57132" lon="7.17504">
        <ele>1173.6</ele>
        <time>2022-07-18T10:05:27Z</time>
      </trkpt>
      <trkpt lat="44.5713" lon="7.17504">
        <ele>1174</ele>
        <time>2022-07-18T10:05:28Z</time>
      </trkpt>
      <trkpt lat="44.57128" lon="7.17504">
        <ele>1174</ele>
        <time>2022-07-18T10:05:29Z</time>
      </trkpt>
      <trkpt lat="44.57126" lon="7.17504">
        <ele>1174.2</ele>
        <time>2022-07-18T10:05:30Z</time>
      </trkpt>
      <trkpt lat="44.57124" lon="7.17504">
        <ele>1174.2</ele>
        <time>2022-07-18T10:05:31Z</time>
      </trkpt>
      <trkpt lat="44.57122" lon="7.17504">
        <ele>1174.6</ele>
        <time>2022-07-18T10:05:32Z</time>
      </trkpt>
      <trkpt lat="44.5712" lon="7.17504">
        <ele>1174.8</ele>
        <time>2022-07-18T10:05:33Z</time>
      </trkpt>
      <trkpt lat="44.57119" lon="7.17503">
        <ele>1174.8</ele>
        <time>2022-07-18T10:05:34Z</time>
      </trkpt>
      <trkpt lat="44.57117" lon="7.17503">
        <ele>1175.2</ele>
        <time>2022-07-18T10:05:35Z</time>
      </trkpt>
      <trkpt lat="44.57115" lon="7.17503">
        <ele>1175.2</ele>
        <time>2022-07-18T10:05:36Z</time>
      </trkpt>
      <trkpt lat="44.57113" lon="7.17503">
        <ele>1175.4</ele>
        <time>2022-07-18T10:05:37Z</time>
      </trkpt>
      <trkpt lat="44.57111" lon="7.17503">
        <ele>1175.4</ele>
        <time>2022-07-18T10:05:38Z</time>
      </trkpt>
      <trkpt lat="44.57109" lon="7.17503">
        <ele>1175.8</ele>
        <time>2022-07-18T10:05:39Z</time>
      </trkpt>
      <trkpt lat="44.57107" lon="7.17503">
        <ele>1175.8</ele>
        <time>2022-07-18T10:05:40Z</time>
      </trkpt>
      <trkpt lat="44.57105" lon="7.17504">
        <ele>1176</ele>
        <time>2022-07-18T10:05:41Z</time>
      </trkpt>
      <trkpt lat="44.57103" lon="7.17504">
        <ele>1176</ele>
        <time>2022-07-18T10:05:42Z</time>
      </trkpt>
      <trkpt lat="44.57102" lon="7.17504">
        <ele>1176.4</ele>
        <time>2022-07-18T10:05:43Z</time>
      </trkpt>
      <trkpt lat="44.571" lon="7.17504">
        <ele>1176.6</ele>
        <time>2022-07-18T10:05:44Z</time>
      </trkpt>
      <trkpt lat="44.57098" lon="7.17504">
        <ele>1176.8</ele>
        <time>2022-07-18T10:05:45Z</time>
      </trkpt>
      <trkpt lat="44.57096" lon="7.17504">
        <ele>1177</ele>
        <time>2022-07-18T10:05:46Z</time>
      </trkpt>
      <trkpt lat="44.57094" lon="7.17504">
        <ele>1177</ele>
        <time>2022-07-18T10:05:47Z</time>
      </trkpt>
      <trkpt lat="44.57092" lon="7.17505">
        <ele>1177.4</ele>
        <time>2022-07-18T10:05:48Z</time>
      </trkpt>
      <trkpt lat="44.5709" lon="7.17505">
        <ele>1177.6</ele>
        <time>2022-07-18T10:05:49Z</time>
      </trkpt>
      <trkpt lat="44.57088" lon="7.17505">
        <ele>1177.6</ele>
        <time>2022-07-18T10:05:50Z</time>
      </trkpt>
      <trkpt lat="44.57086" lon="7.17505">
        <ele>1177.8</ele>
        <time>2022-07-18T10:05:51Z</time>
      </trkpt>
      <trkpt lat="44.57085" lon="7.17505">
        <ele>1177.8</ele>
        <time>2022-07-18T10:05:52Z</time>
      </trkpt>
      <trkpt lat="44.57083" lon="7.17505">
        <ele>1178.2</ele>
        <time>2022-07-18T10:05:53Z</time>
      </trkpt>
      <trkpt lat="44.57081" lon="7.17505">
        <ele>1178.4</ele>
        <time>2022-07-18T10:05:54Z</time>
      </trkpt>
      <trkpt lat="44.57079" lon="7.17505">
        <ele>1178.4</ele>
        <time>2022-07-18T10:05:55Z</time>
      </trkpt>
      <trkpt lat="44.57077" lon="7.17506">
        <ele>1178.8</ele>
        <time>2022-07-18T10:05:56Z</time>
      </trkpt>
      <trkpt lat="44.57076" lon="7.17506">
        <ele>1178.8</ele>
        <time>2022-07-18T10:05:57Z</time>
      </trkpt>
      <trkpt lat="44.57074" lon="7.17505">
        <ele>1179.2</ele>
        <time>2022-07-18T10:05:58Z</time>
      </trkpt>
      <trkpt lat="44.57072" lon="7.17505">
        <ele>1179.2</ele>
        <time>2022-07-18T10:05:59Z</time>
      </trkpt>
      <trkpt lat="44.5707" lon="7.17505">
        <ele>1179.4</ele>
        <time>2022-07-18T10:06:00Z</time>
      </trkpt>
      <trkpt lat="44.57068" lon="7.17505">
        <ele>1179.4</ele>
        <time>2022-07-18T10:06:01Z</time>
      </trkpt>
      <trkpt lat="44.57066" lon="7.17505">
        <ele>1179.6</ele>
        <time>2022-07-18T10:06:02Z</time>
      </trkpt>
      <trkpt lat="44.57064" lon="7.17505">
        <ele>1179.6</ele>
        <time>2022-07-18T10:06:03Z</time>
      </trkpt>
      <trkpt lat="44.57063" lon="7.17506">
        <ele>1180</ele>
        <time>2022-07-18T10:06:04Z</time>
      </trkpt>
      <trkpt lat="44.57061" lon="7.17506">
        <ele>1180</ele>
        <time>2022-07-18T10:06:05Z</time>
      </trkpt>
      <trkpt lat="44.57059" lon="7.17506">
        <ele>1180.2</ele>
        <time>2022-07-18T10:06:06Z</time>
      </trkpt>
      <trkpt lat="44.57058" lon="7.17506">
        <ele>1180.2</ele>
        <time>2022-07-18T10:06:07Z</time>
      </trkpt>
      <trkpt lat="44.57056" lon="7.17506">
        <ele>1180.4</ele>
        <time>2022-07-18T10:06:08Z</time>
      </trkpt>
      <trkpt lat="44.57054" lon="7.17506">
        <ele>1180.4</ele>
        <time>2022-07-18T10:06:09Z</time>
      </trkpt>
      <trkpt lat="44.57052" lon="7.17506">
        <ele>1180.8</ele>
        <time>2022-07-18T10:06:10Z</time>
      </trkpt>
      <trkpt lat="44.5705" lon="7.17506">
        <ele>1181</ele>
        <time>2022-07-18T10:06:11Z</time>
      </trkpt>
      <trkpt lat="44.57048" lon="7.17506">
        <ele>1181.2</ele>
        <time>2022-07-18T10:06:12Z</time>
      </trkpt>
      <trkpt lat="44.57046" lon="7.17507">
        <ele>1181.2</ele>
        <time>2022-07-18T10:06:13Z</time>
      </trkpt>
      <trkpt lat="44.57044" lon="7.17508">
        <ele>1181.6</ele>
        <time>2022-07-18T10:06:14Z</time>
      </trkpt>
      <trkpt lat="44.57042" lon="7.1751">
        <ele>1181.6</ele>
        <time>2022-07-18T10:06:15Z</time>
      </trkpt>
      <trkpt lat="44.57041" lon="7.17511">
        <ele>1182</ele>
        <time>2022-07-18T10:06:16Z</time>
      </trkpt>
      <trkpt lat="44.57039" lon="7.17512">
        <ele>1182</ele>
        <time>2022-07-18T10:06:17Z</time>
      </trkpt>
      <trkpt lat="44.57037" lon="7.17513">
        <ele>1182.4</ele>
        <time>2022-07-18T10:06:18Z</time>
      </trkpt>
      <trkpt lat="44.57035" lon="7.17514">
        <ele>1182.6</ele>
        <time>2022-07-18T10:06:19Z</time>
      </trkpt>
      <trkpt lat="44.57033" lon="7.17516">
        <ele>1182.6</ele>
        <time>2022-07-18T10:06:20Z</time>
      </trkpt>
      <trkpt lat="44.57032" lon="7.17518">
        <ele>1182.8</ele>
        <time>2022-07-18T10:06:21Z</time>
      </trkpt>
      <trkpt lat="44.5703" lon="7.1752">
        <ele>1183</ele>
        <time>2022-07-18T10:06:22Z</time>
      </trkpt>
      <trkpt lat="44.57028" lon="7.17521">
        <ele>1183.2</ele>
        <time>2022-07-18T10:06:23Z</time>
      </trkpt>
      <trkpt lat="44.57027" lon="7.17523">
        <ele>1183.4</ele>
        <time>2022-07-18T10:06:24Z</time>
      </trkpt>
      <trkpt lat="44.57026" lon="7.17525">
        <ele>1183.4</ele>
        <time>2022-07-18T10:06:25Z</time>
      </trkpt>
      <trkpt lat="44.57024" lon="7.17527">
        <ele>1183.8</ele>
        <time>2022-07-18T10:06:26Z</time>
      </trkpt>
      <trkpt lat="44.57023" lon="7.17529">
        <ele>1184</ele>
        <time>2022-07-18T10:06:27Z</time>
      </trkpt>
      <trkpt lat="44.57022" lon="7.17531">
        <ele>1184.4</ele>
        <time>2022-07-18T10:06:28Z</time>
      </trkpt>
      <trkpt lat="44.57021" lon="7.17533">
        <ele>1184.6</ele>
        <time>2022-07-18T10:06:29Z</time>
      </trkpt>
      <trkpt lat="44.5702" lon="7.17535">
        <ele>1184.6</ele>
        <time>2022-07-18T10:06:30Z</time>
      </trkpt>
      <trkpt lat="44.57019" lon="7.17537">
        <ele>1185</ele>
        <time>2022-07-18T10:06:31Z</time>
      </trkpt>
      <trkpt lat="44.57017" lon="7.17539">
        <ele>1185</ele>
        <time>2022-07-18T10:06:32Z</time>
      </trkpt>
      <trkpt lat="44.57016" lon="7.17541">
        <ele>1185</ele>
        <time>2022-07-18T10:06:33Z</time>
      </trkpt>
      <trkpt lat="44.57015" lon="7.17543">
        <ele>1185.4</ele>
        <time>2022-07-18T10:06:34Z</time>
      </trkpt>
      <trkpt lat="44.57013" lon="7.17545">
        <ele>1185.4</ele>
        <time>2022-07-18T10:06:35Z</time>
      </trkpt>
      <trkpt lat="44.57012" lon="7.17547">
        <ele>1185.4</ele>
        <time>2022-07-18T10:06:36Z</time>
      </trkpt>
      <trkpt lat="44.57011" lon="7.17549">
        <ele>1185.6</ele>
        <time>2022-07-18T10:06:37Z</time>
      </trkpt>
      <trkpt lat="44.5701" lon="7.17551">
        <ele>1185.6</ele>
        <time>2022-07-18T10:06:38Z</time>
      </trkpt>
      <trkpt lat="44.57008" lon="7.17552">
        <ele>1185.8</ele>
        <time>2022-07-18T10:06:39Z</time>
      </trkpt>
      <trkpt lat="44.57007" lon="7.17553">
        <ele>1185.8</ele>
        <time>2022-07-18T10:06:40Z</time>
      </trkpt>
      <trkpt lat="44.57005" lon="7.17555">
        <ele>1186</ele>
        <time>2022-07-18T10:06:41Z</time>
      </trkpt>
      <trkpt lat="44.57004" lon="7.17556">
        <ele>1186</ele>
        <time>2022-07-18T10:06:42Z</time>
      </trkpt>
      <trkpt lat="44.57002" lon="7.17558">
        <ele>1186.4</ele>
        <time>2022-07-18T10:06:43Z</time>
      </trkpt>
      <trkpt lat="44.57001" lon="7.1756">
        <ele>1186.4</ele>
        <time>2022-07-18T10:06:44Z</time>
      </trkpt>
      <trkpt lat="44.56999" lon="7.17561">
        <ele>1186.6</ele>
        <time>2022-07-18T10:06:45Z</time>
      </trkpt>
      <trkpt lat="44.56997" lon="7.17562">
        <ele>1186.6</ele>
        <time>2022-07-18T10:06:46Z</time>
      </trkpt>
      <trkpt lat="44.56996" lon="7.17564">
        <ele>1186.8</ele>
        <time>2022-07-18T10:06:47Z</time>
      </trkpt>
      <trkpt lat="44.56994" lon="7.17565">
        <ele>1186.8</ele>
        <time>2022-07-18T10:06:48Z</time>
      </trkpt>
      <trkpt lat="44.56992" lon="7.17566">
        <ele>1187.2</ele>
        <time>2022-07-18T10:06:49Z</time>
      </trkpt>
      <trkpt lat="44.5699" lon="7.17568">
        <ele>1187.2</ele>
        <time>2022-07-18T10:06:50Z</time>
      </trkpt>
      <trkpt lat="44.56989" lon="7.17569">
        <ele>1187.4</ele>
        <time>2022-07-18T10:06:51Z</time>
      </trkpt>
      <trkpt lat="44.56987" lon="7.1757">
        <ele>1187.4</ele>
        <time>2022-07-18T10:06:52Z</time>
      </trkpt>
      <trkpt lat="44.56985" lon="7.17572">
        <ele>1187.8</ele>
        <time>2022-07-18T10:06:53Z</time>
      </trkpt>
      <trkpt lat="44.56984" lon="7.17573">
        <ele>1187.8</ele>
        <time>2022-07-18T10:06:54Z</time>
      </trkpt>
      <trkpt lat="44.56982" lon="7.17574">
        <ele>1188</ele>
        <time>2022-07-18T10:06:55Z</time>
      </trkpt>
      <trkpt lat="44.56981" lon="7.17575">
        <ele>1188</ele>
        <time>2022-07-18T10:06:56Z</time>
      </trkpt>
      <trkpt lat="44.5698" lon="7.17576">
        <ele>1188.4</ele>
        <time>2022-07-18T10:06:57Z</time>
      </trkpt>
      <trkpt lat="44.56979" lon="7.17578">
        <ele>1188.4</ele>
        <time>2022-07-18T10:06:58Z</time>
      </trkpt>
      <trkpt lat="44.56978" lon="7.17579">
        <ele>1188.6</ele>
        <time>2022-07-18T10:06:59Z</time>
      </trkpt>
      <trkpt lat="44.56977" lon="7.1758">
        <ele>1188.6</ele>
        <time>2022-07-18T10:07:00Z</time>
      </trkpt>
      <trkpt lat="44.56976" lon="7.17582">
        <ele>1189</ele>
        <time>2022-07-18T10:07:01Z</time>
      </trkpt>
      <trkpt lat="44.56975" lon="7.17583">
        <ele>1189</ele>
        <time>2022-07-18T10:07:02Z</time>
      </trkpt>
      <trkpt lat="44.56973" lon="7.17586">
        <ele>1189.6</ele>
        <time>2022-07-18T10:07:04Z</time>
      </trkpt>
      <trkpt lat="44.56973" lon="7.17588">
        <ele>1189.8</ele>
        <time>2022-07-18T10:07:05Z</time>
      </trkpt>
      <trkpt lat="44.56972" lon="7.17589">
        <ele>1190</ele>
        <time>2022-07-18T10:07:06Z</time>
      </trkpt>
      <trkpt lat="44.56971" lon="7.17591">
        <ele>1190.2</ele>
        <time>2022-07-18T10:07:07Z</time>
      </trkpt>
      <trkpt lat="44.5697" lon="7.17592">
        <ele>1190.2</ele>
        <time>2022-07-18T10:07:08Z</time>
      </trkpt>
      <trkpt lat="44.56969" lon="7.17593">
        <ele>1190.6</ele>
        <time>2022-07-18T10:07:09Z</time>
      </trkpt>
      <trkpt lat="44.56968" lon="7.17594">
        <ele>1190.8</ele>
        <time>2022-07-18T10:07:10Z</time>
      </trkpt>
      <trkpt lat="44.56961" lon="7.17603">
        <ele>1192.4</ele>
        <time>2022-07-18T10:07:17Z</time>
      </trkpt>
      <trkpt lat="44.56959" lon="7.17604">
        <ele>1192.6</ele>
        <time>2022-07-18T10:07:18Z</time>
      </trkpt>
      <trkpt lat="44.56957" lon="7.17605">
        <ele>1192.6</ele>
        <time>2022-07-18T10:07:19Z</time>
      </trkpt>
      <trkpt lat="44.56956" lon="7.17605">
        <ele>1193</ele>
        <time>2022-07-18T10:07:20Z</time>
      </trkpt>
      <trkpt lat="44.56954" lon="7.17606">
        <ele>1193</ele>
        <time>2022-07-18T10:07:21Z</time>
      </trkpt>
      <trkpt lat="44.56953" lon="7.17607">
        <ele>1193.2</ele>
        <time>2022-07-18T10:07:22Z</time>
      </trkpt>
      <trkpt lat="44.56952" lon="7.17608">
        <ele>1193.4</ele>
        <time>2022-07-18T10:07:23Z</time>
      </trkpt>
      <trkpt lat="44.56952" lon="7.17608">
        <ele>1193.6</ele>
        <time>2022-07-18T10:07:24Z</time>
      </trkpt>
      <trkpt lat="44.56949" lon="7.17609">
        <ele>1194</ele>
        <time>2022-07-18T10:07:25Z</time>
      </trkpt>
      <trkpt lat="44.56948" lon="7.17609">
        <ele>1194</ele>
        <time>2022-07-18T10:07:26Z</time>
      </trkpt>
      <trkpt lat="44.56946" lon="7.1761">
        <ele>1194.4</ele>
        <time>2022-07-18T10:07:27Z</time>
      </trkpt>
      <trkpt lat="44.56945" lon="7.17611">
        <ele>1194.6</ele>
        <time>2022-07-18T10:07:28Z</time>
      </trkpt>
      <trkpt lat="44.56943" lon="7.17611">
        <ele>1194.8</ele>
        <time>2022-07-18T10:07:29Z</time>
      </trkpt>
      <trkpt lat="44.56942" lon="7.17612">
        <ele>1195</ele>
        <time>2022-07-18T10:07:30Z</time>
      </trkpt>
      <trkpt lat="44.5694" lon="7.17613">
        <ele>1195.2</ele>
        <time>2022-07-18T10:07:31Z</time>
      </trkpt>
      <trkpt lat="44.56938" lon="7.17614">
        <ele>1195.2</ele>
        <time>2022-07-18T10:07:32Z</time>
      </trkpt>
      <trkpt lat="44.56935" lon="7.17614">
        <ele>1195.6</ele>
        <time>2022-07-18T10:07:33Z</time>
      </trkpt>
      <trkpt lat="44.56933" lon="7.17614">
        <ele>1195.8</ele>
        <time>2022-07-18T10:07:34Z</time>
      </trkpt>
      <trkpt lat="44.56931" lon="7.17614">
        <ele>1196</ele>
        <time>2022-07-18T10:07:35Z</time>
      </trkpt>
      <trkpt lat="44.56929" lon="7.17614">
        <ele>1196</ele>
        <time>2022-07-18T10:07:36Z</time>
      </trkpt>
      <trkpt lat="44.56927" lon="7.17614">
        <ele>1196.6</ele>
        <time>2022-07-18T10:07:37Z</time>
      </trkpt>
      <trkpt lat="44.56925" lon="7.17614">
        <ele>1196.6</ele>
        <time>2022-07-18T10:07:38Z</time>
      </trkpt>
      <trkpt lat="44.56923" lon="7.17615">
        <ele>1196.8</ele>
        <time>2022-07-18T10:07:39Z</time>
      </trkpt>
      <trkpt lat="44.56921" lon="7.17615">
        <ele>1196.8</ele>
        <time>2022-07-18T10:07:40Z</time>
      </trkpt>
      <trkpt lat="44.56919" lon="7.17615">
        <ele>1197.2</ele>
        <time>2022-07-18T10:07:41Z</time>
      </trkpt>
      <trkpt lat="44.56918" lon="7.17614">
        <ele>1197.2</ele>
        <time>2022-07-18T10:07:42Z</time>
      </trkpt>
      <trkpt lat="44.56916" lon="7.17614">
        <ele>1197.6</ele>
        <time>2022-07-18T10:07:43Z</time>
      </trkpt>
      <trkpt lat="44.56915" lon="7.17613">
        <ele>1197.6</ele>
        <time>2022-07-18T10:07:44Z</time>
      </trkpt>
      <trkpt lat="44.56913" lon="7.17613">
        <ele>1198</ele>
        <time>2022-07-18T10:07:45Z</time>
      </trkpt>
      <trkpt lat="44.56911" lon="7.17612">
        <ele>1198.2</ele>
        <time>2022-07-18T10:07:46Z</time>
      </trkpt>
      <trkpt lat="44.5691" lon="7.17611">
        <ele>1198.2</ele>
        <time>2022-07-18T10:07:47Z</time>
      </trkpt>
      <trkpt lat="44.56909" lon="7.17611">
        <ele>1198.6</ele>
        <time>2022-07-18T10:07:48Z</time>
      </trkpt>
      <trkpt lat="44.56907" lon="7.1761">
        <ele>1198.8</ele>
        <time>2022-07-18T10:07:49Z</time>
      </trkpt>
      <trkpt lat="44.56905" lon="7.17609">
        <ele>1199</ele>
        <time>2022-07-18T10:07:50Z</time>
      </trkpt>
      <trkpt lat="44.56904" lon="7.17608">
        <ele>1199</ele>
        <time>2022-07-18T10:07:51Z</time>
      </trkpt>
      <trkpt lat="44.56902" lon="7.17607">
        <ele>1199.4</ele>
        <time>2022-07-18T10:07:52Z</time>
      </trkpt>
      <trkpt lat="44.56901" lon="7.17606">
        <ele>1199.6</ele>
        <time>2022-07-18T10:07:53Z</time>
      </trkpt>
      <trkpt lat="44.56899" lon="7.17605">
        <ele>1199.6</ele>
        <time>2022-07-18T10:07:54Z</time>
      </trkpt>
      <trkpt lat="44.56897" lon="7.17603">
        <ele>1200</ele>
        <time>2022-07-18T10:07:55Z</time>
      </trkpt>
      <trkpt lat="44.56896" lon="7.17602">
        <ele>1200</ele>
        <time>2022-07-18T10:07:56Z</time>
      </trkpt>
      <trkpt lat="44.56894" lon="7.17601">
        <ele>1200.2</ele>
        <time>2022-07-18T10:07:57Z</time>
      </trkpt>
      <trkpt lat="44.56892" lon="7.176">
        <ele>1200.2</ele>
        <time>2022-07-18T10:07:58Z</time>
      </trkpt>
      <trkpt lat="44.56891" lon="7.17599">
        <ele>1200.6</ele>
        <time>2022-07-18T10:07:59Z</time>
      </trkpt>
      <trkpt lat="44.56889" lon="7.17599">
        <ele>1200.8</ele>
        <time>2022-07-18T10:08:00Z</time>
      </trkpt>
      <trkpt lat="44.56887" lon="7.17598">
        <ele>1200.8</ele>
        <time>2022-07-18T10:08:01Z</time>
      </trkpt>
      <trkpt lat="44.56885" lon="7.17597">
        <ele>1201.2</ele>
        <time>2022-07-18T10:08:02Z</time>
      </trkpt>
      <trkpt lat="44.56884" lon="7.17596">
        <ele>1201.2</ele>
        <time>2022-07-18T10:08:03Z</time>
      </trkpt>
      <trkpt lat="44.56882" lon="7.17595">
        <ele>1201.4</ele>
        <time>2022-07-18T10:08:04Z</time>
      </trkpt>
      <trkpt lat="44.5688" lon="7.17594">
        <ele>1201.4</ele>
        <time>2022-07-18T10:08:05Z</time>
      </trkpt>
      <trkpt lat="44.56879" lon="7.17593">
        <ele>1201.8</ele>
        <time>2022-07-18T10:08:06Z</time>
      </trkpt>
      <trkpt lat="44.56877" lon="7.17592">
        <ele>1202</ele>
        <time>2022-07-18T10:08:07Z</time>
      </trkpt>
      <trkpt lat="44.56876" lon="7.17592">
        <ele>1202.2</ele>
        <time>2022-07-18T10:08:08Z</time>
      </trkpt>
      <trkpt lat="44.56874" lon="7.17593">
        <ele>1202.4</ele>
        <time>2022-07-18T10:08:09Z</time>
      </trkpt>
      <trkpt lat="44.56872" lon="7.17592">
        <ele>1202.4</ele>
        <time>2022-07-18T10:08:10Z</time>
      </trkpt>
      <trkpt lat="44.5687" lon="7.17592">
        <ele>1202.8</ele>
        <time>2022-07-18T10:08:11Z</time>
      </trkpt>
      <trkpt lat="44.56869" lon="7.17591">
        <ele>1202.8</ele>
        <time>2022-07-18T10:08:12Z</time>
      </trkpt>
      <trkpt lat="44.56867" lon="7.17591">
        <ele>1203.2</ele>
        <time>2022-07-18T10:08:13Z</time>
      </trkpt>
      <trkpt lat="44.56865" lon="7.1759">
        <ele>1203.2</ele>
        <time>2022-07-18T10:08:14Z</time>
      </trkpt>
      <trkpt lat="44.56863" lon="7.17589">
        <ele>1203.4</ele>
        <time>2022-07-18T10:08:15Z</time>
      </trkpt>
      <trkpt lat="44.56861" lon="7.17588">
        <ele>1203.4</ele>
        <time>2022-07-18T10:08:16Z</time>
      </trkpt>
      <trkpt lat="44.56859" lon="7.17586">
        <ele>1203.4</ele>
        <time>2022-07-18T10:08:17Z</time>
      </trkpt>
      <trkpt lat="44.56857" lon="7.17585">
        <ele>1203.8</ele>
        <time>2022-07-18T10:08:18Z</time>
      </trkpt>
      <trkpt lat="44.56856" lon="7.17584">
        <ele>1203.8</ele>
        <time>2022-07-18T10:08:19Z</time>
      </trkpt>
      <trkpt lat="44.56854" lon="7.17582">
        <ele>1204</ele>
        <time>2022-07-18T10:08:20Z</time>
      </trkpt>
      <trkpt lat="44.56853" lon="7.1758">
        <ele>1204</ele>
        <time>2022-07-18T10:08:21Z</time>
      </trkpt>
      <trkpt lat="44.56851" lon="7.17579">
        <ele>1204.2</ele>
        <time>2022-07-18T10:08:22Z</time>
      </trkpt>
      <trkpt lat="44.5685" lon="7.17579">
        <ele>1204.2</ele>
        <time>2022-07-18T10:08:23Z</time>
      </trkpt>
      <trkpt lat="44.56848" lon="7.17578">
        <ele>1204.4</ele>
        <time>2022-07-18T10:08:24Z</time>
      </trkpt>
      <trkpt lat="44.56846" lon="7.17577">
        <ele>1204.4</ele>
        <time>2022-07-18T10:08:25Z</time>
      </trkpt>
      <trkpt lat="44.56845" lon="7.17576">
        <ele>1204.8</ele>
        <time>2022-07-18T10:08:26Z</time>
      </trkpt>
      <trkpt lat="44.56843" lon="7.17575">
        <ele>1204.8</ele>
        <time>2022-07-18T10:08:27Z</time>
      </trkpt>
      <trkpt lat="44.56841" lon="7.17573">
        <ele>1205</ele>
        <time>2022-07-18T10:08:28Z</time>
      </trkpt>
      <trkpt lat="44.5684" lon="7.17572">
        <ele>1205</ele>
        <time>2022-07-18T10:08:29Z</time>
      </trkpt>
      <trkpt lat="44.56838" lon="7.17571">
        <ele>1205.4</ele>
        <time>2022-07-18T10:08:30Z</time>
      </trkpt>
      <trkpt lat="44.56836" lon="7.17571">
        <ele>1205.4</ele>
        <time>2022-07-18T10:08:31Z</time>
      </trkpt>
      <trkpt lat="44.56833" lon="7.17569">
        <ele>1205.6</ele>
        <time>2022-07-18T10:08:32Z</time>
      </trkpt>
      <trkpt lat="44.56831" lon="7.17568">
        <ele>1205.6</ele>
        <time>2022-07-18T10:08:33Z</time>
      </trkpt>
      <trkpt lat="44.56829" lon="7.17568">
        <ele>1205.8</ele>
        <time>2022-07-18T10:08:34Z</time>
      </trkpt>
      <trkpt lat="44.56827" lon="7.17567">
        <ele>1205.8</ele>
        <time>2022-07-18T10:08:35Z</time>
      </trkpt>
      <trkpt lat="44.56825" lon="7.17567">
        <ele>1206</ele>
        <time>2022-07-18T10:08:36Z</time>
      </trkpt>
      <trkpt lat="44.56823" lon="7.17568">
        <ele>1206</ele>
        <time>2022-07-18T10:08:37Z</time>
      </trkpt>
      <trkpt lat="44.56821" lon="7.17569">
        <ele>1206.4</ele>
        <time>2022-07-18T10:08:38Z</time>
      </trkpt>
      <trkpt lat="44.5682" lon="7.17571">
        <ele>1206.4</ele>
        <time>2022-07-18T10:08:39Z</time>
      </trkpt>
      <trkpt lat="44.56819" lon="7.17572">
        <ele>1206.6</ele>
        <time>2022-07-18T10:08:40Z</time>
      </trkpt>
      <trkpt lat="44.56817" lon="7.17574">
        <ele>1206.6</ele>
        <time>2022-07-18T10:08:41Z</time>
      </trkpt>
      <trkpt lat="44.56816" lon="7.17576">
        <ele>1206.6</ele>
        <time>2022-07-18T10:08:42Z</time>
      </trkpt>
      <trkpt lat="44.56815" lon="7.17578">
        <ele>1206.8</ele>
        <time>2022-07-18T10:08:43Z</time>
      </trkpt>
      <trkpt lat="44.56814" lon="7.1758">
        <ele>1206.8</ele>
        <time>2022-07-18T10:08:44Z</time>
      </trkpt>
      <trkpt lat="44.56813" lon="7.17582">
        <ele>1206.8</ele>
        <time>2022-07-18T10:08:45Z</time>
      </trkpt>
      <trkpt lat="44.56814" lon="7.17585">
        <ele>1207</ele>
        <time>2022-07-18T10:08:46Z</time>
      </trkpt>
      <trkpt lat="44.56814" lon="7.17588">
        <ele>1207</ele>
        <time>2022-07-18T10:08:47Z</time>
      </trkpt>
      <trkpt lat="44.56814" lon="7.17591">
        <ele>1207</ele>
        <time>2022-07-18T10:08:48Z</time>
      </trkpt>
      <trkpt lat="44.56814" lon="7.17595">
        <ele>1207.4</ele>
        <time>2022-07-18T10:08:49Z</time>
      </trkpt>
      <trkpt lat="44.56815" lon="7.17597">
        <ele>1207.4</ele>
        <time>2022-07-18T10:08:50Z</time>
      </trkpt>
      <trkpt lat="44.56816" lon="7.176">
        <ele>1207.4</ele>
        <time>2022-07-18T10:08:51Z</time>
      </trkpt>
      <trkpt lat="44.56818" lon="7.17603">
        <ele>1207.6</ele>
        <time>2022-07-18T10:08:52Z</time>
      </trkpt>
      <trkpt lat="44.5682" lon="7.17607">
        <ele>1207.6</ele>
        <time>2022-07-18T10:08:53Z</time>
      </trkpt>
      <trkpt lat="44.56821" lon="7.17609">
        <ele>1207.6</ele>
        <time>2022-07-18T10:08:54Z</time>
      </trkpt>
      <trkpt lat="44.56823" lon="7.17612">
        <ele>1208</ele>
        <time>2022-07-18T10:08:55Z</time>
      </trkpt>
      <trkpt lat="44.56824" lon="7.17615">
        <ele>1208</ele>
        <time>2022-07-18T10:08:56Z</time>
      </trkpt>
      <trkpt lat="44.56826" lon="7.17618">
        <ele>1208.2</ele>
        <time>2022-07-18T10:08:57Z</time>
      </trkpt>
      <trkpt lat="44.56827" lon="7.1762">
        <ele>1208.2</ele>
        <time>2022-07-18T10:08:58Z</time>
      </trkpt>
      <trkpt lat="44.56828" lon="7.17623">
        <ele>1208.6</ele>
        <time>2022-07-18T10:08:59Z</time>
      </trkpt>
      <trkpt lat="44.56829" lon="7.17625">
        <ele>1208.8</ele>
        <time>2022-07-18T10:09:00Z</time>
      </trkpt>
      <trkpt lat="44.5683" lon="7.17628">
        <ele>1209</ele>
        <time>2022-07-18T10:09:01Z</time>
      </trkpt>
      <trkpt lat="44.56832" lon="7.1763">
        <ele>1209</ele>
        <time>2022-07-18T10:09:02Z</time>
      </trkpt>
      <trkpt lat="44.56833" lon="7.17632">
        <ele>1209.4</ele>
        <time>2022-07-18T10:09:03Z</time>
      </trkpt>
      <trkpt lat="44.56834" lon="7.17634">
        <ele>1209.4</ele>
        <time>2022-07-18T10:09:04Z</time>
      </trkpt>
      <trkpt lat="44.56836" lon="7.17635">
        <ele>1209.4</ele>
        <time>2022-07-18T10:09:05Z</time>
      </trkpt>
      <trkpt lat="44.56837" lon="7.17637">
        <ele>1209.8</ele>
        <time>2022-07-18T10:09:06Z</time>
      </trkpt>
      <trkpt lat="44.56839" lon="7.17638">
        <ele>1210</ele>
        <time>2022-07-18T10:09:07Z</time>
      </trkpt>
      <trkpt lat="44.56841" lon="7.1764">
        <ele>1210</ele>
        <time>2022-07-18T10:09:08Z</time>
      </trkpt>
      <trkpt lat="44.56842" lon="7.17641">
        <ele>1210.4</ele>
        <time>2022-07-18T10:09:09Z</time>
      </trkpt>
      <trkpt lat="44.56844" lon="7.17643">
        <ele>1210.4</ele>
        <time>2022-07-18T10:09:10Z</time>
      </trkpt>
      <trkpt lat="44.56846" lon="7.17645">
        <ele>1210.6</ele>
        <time>2022-07-18T10:09:11Z</time>
      </trkpt>
      <trkpt lat="44.56847" lon="7.17646">
        <ele>1210.6</ele>
        <time>2022-07-18T10:09:12Z</time>
      </trkpt>
      <trkpt lat="44.56849" lon="7.17648">
        <ele>1210.8</ele>
        <time>2022-07-18T10:09:13Z</time>
      </trkpt>
      <trkpt lat="44.5685" lon="7.1765">
        <ele>1210.8</ele>
        <time>2022-07-18T10:09:14Z</time>
      </trkpt>
      <trkpt lat="44.56852" lon="7.17652">
        <ele>1211.2</ele>
        <time>2022-07-18T10:09:15Z</time>
      </trkpt>
      <trkpt lat="44.56853" lon="7.17654">
        <ele>1211.2</ele>
        <time>2022-07-18T10:09:16Z</time>
      </trkpt>
      <trkpt lat="44.56855" lon="7.17657">
        <ele>1211.6</ele>
        <time>2022-07-18T10:09:17Z</time>
      </trkpt>
      <trkpt lat="44.56856" lon="7.17659">
        <ele>1211.8</ele>
        <time>2022-07-18T10:09:18Z</time>
      </trkpt>
      <trkpt lat="44.56857" lon="7.17662">
        <ele>1211.8</ele>
        <time>2022-07-18T10:09:19Z</time>
      </trkpt>
      <trkpt lat="44.56858" lon="7.17665">
        <ele>1212</ele>
        <time>2022-07-18T10:09:20Z</time>
      </trkpt>
      <trkpt lat="44.56858" lon="7.17668">
        <ele>1212</ele>
        <time>2022-07-18T10:09:21Z</time>
      </trkpt>
      <trkpt lat="44.56859" lon="7.17672">
        <ele>1212.4</ele>
        <time>2022-07-18T10:09:22Z</time>
      </trkpt>
      <trkpt lat="44.56859" lon="7.17675">
        <ele>1212.4</ele>
        <time>2022-07-18T10:09:23Z</time>
      </trkpt>
      <trkpt lat="44.56859" lon="7.17679">
        <ele>1212.4</ele>
        <time>2022-07-18T10:09:24Z</time>
      </trkpt>
      <trkpt lat="44.56859" lon="7.17683">
        <ele>1212.8</ele>
        <time>2022-07-18T10:09:25Z</time>
      </trkpt>
      <trkpt lat="44.5686" lon="7.17686">
        <ele>1212.8</ele>
        <time>2022-07-18T10:09:26Z</time>
      </trkpt>
      <trkpt lat="44.5686" lon="7.17689">
        <ele>1213</ele>
        <time>2022-07-18T10:09:27Z</time>
      </trkpt>
      <trkpt lat="44.56861" lon="7.17692">
        <ele>1213</ele>
        <time>2022-07-18T10:09:28Z</time>
      </trkpt>
      <trkpt lat="44.56861" lon="7.17695">
        <ele>1213.4</ele>
        <time>2022-07-18T10:09:29Z</time>
      </trkpt>
      <trkpt lat="44.56861" lon="7.17699">
        <ele>1213.4</ele>
        <time>2022-07-18T10:09:30Z</time>
      </trkpt>
      <trkpt lat="44.56862" lon="7.17702">
        <ele>1213.6</ele>
        <time>2022-07-18T10:09:31Z</time>
      </trkpt>
      <trkpt lat="44.56863" lon="7.17705">
        <ele>1213.6</ele>
        <time>2022-07-18T10:09:32Z</time>
      </trkpt>
      <trkpt lat="44.56863" lon="7.17708">
        <ele>1214</ele>
        <time>2022-07-18T10:09:33Z</time>
      </trkpt>
      <trkpt lat="44.56864" lon="7.17712">
        <ele>1214</ele>
        <time>2022-07-18T10:09:34Z</time>
      </trkpt>
      <trkpt lat="44.56864" lon="7.17715">
        <ele>1214.4</ele>
        <time>2022-07-18T10:09:35Z</time>
      </trkpt>
      <trkpt lat="44.56865" lon="7.17718">
        <ele>1214.4</ele>
        <time>2022-07-18T10:09:36Z</time>
      </trkpt>
      <trkpt lat="44.56865" lon="7.17722">
        <ele>1214.6</ele>
        <time>2022-07-18T10:09:37Z</time>
      </trkpt>
      <trkpt lat="44.56865" lon="7.17726">
        <ele>1214.6</ele>
        <time>2022-07-18T10:09:38Z</time>
      </trkpt>
      <trkpt lat="44.56865" lon="7.1773">
        <ele>1214.8</ele>
        <time>2022-07-18T10:09:39Z</time>
      </trkpt>
      <trkpt lat="44.56866" lon="7.17733">
        <ele>1214.8</ele>
        <time>2022-07-18T10:09:40Z</time>
      </trkpt>
      <trkpt lat="44.56866" lon="7.17737">
        <ele>1215.2</ele>
        <time>2022-07-18T10:09:41Z</time>
      </trkpt>
      <trkpt lat="44.56867" lon="7.1774">
        <ele>1215.2</ele>
        <time>2022-07-18T10:09:42Z</time>
      </trkpt>
      <trkpt lat="44.56867" lon="7.17743">
        <ele>1215.6</ele>
        <time>2022-07-18T10:09:43Z</time>
      </trkpt>
      <trkpt lat="44.56868" lon="7.17747">
        <ele>1215.8</ele>
        <time>2022-07-18T10:09:44Z</time>
      </trkpt>
      <trkpt lat="44.56871" lon="7.1775">
        <ele>1215.8</ele>
        <time>2022-07-18T10:09:45Z</time>
      </trkpt>
      <trkpt lat="44.56872" lon="7.17753">
        <ele>1216.2</ele>
        <time>2022-07-18T10:09:46Z</time>
      </trkpt>
      <trkpt lat="44.56873" lon="7.17756">
        <ele>1216.2</ele>
        <time>2022-07-18T10:09:47Z</time>
      </trkpt>
      <trkpt lat="44.56874" lon="7.17759">
        <ele>1216.6</ele>
        <time>2022-07-18T10:09:48Z</time>
      </trkpt>
      <trkpt lat="44.56875" lon="7.17761">
        <ele>1216.8</ele>
        <time>2022-07-18T10:09:49Z</time>
      </trkpt>
      <trkpt lat="44.56876" lon="7.17764">
        <ele>1216.8</ele>
        <time>2022-07-18T10:09:50Z</time>
      </trkpt>
      <trkpt lat="44.56877" lon="7.17767">
        <ele>1217.2</ele>
        <time>2022-07-18T10:09:51Z</time>
      </trkpt>
      <trkpt lat="44.56878" lon="7.17769">
        <ele>1217.2</ele>
        <time>2022-07-18T10:09:52Z</time>
      </trkpt>
      <trkpt lat="44.56878" lon="7.17772">
        <ele>1217.6</ele>
        <time>2022-07-18T10:09:53Z</time>
      </trkpt>
      <trkpt lat="44.5688" lon="7.17775">
        <ele>1217.6</ele>
        <time>2022-07-18T10:09:54Z</time>
      </trkpt>
      <trkpt lat="44.56881" lon="7.17777">
        <ele>1217.8</ele>
        <time>2022-07-18T10:09:55Z</time>
      </trkpt>
      <trkpt lat="44.56882" lon="7.1778">
        <ele>1217.8</ele>
        <time>2022-07-18T10:09:56Z</time>
      </trkpt>
      <trkpt lat="44.56883" lon="7.17782">
        <ele>1218</ele>
        <time>2022-07-18T10:09:57Z</time>
      </trkpt>
      <trkpt lat="44.56883" lon="7.17784">
        <ele>1218</ele>
        <time>2022-07-18T10:09:58Z</time>
      </trkpt>
      <trkpt lat="44.56885" lon="7.17787">
        <ele>1218.2</ele>
        <time>2022-07-18T10:09:59Z</time>
      </trkpt>
      <trkpt lat="44.56886" lon="7.17789">
        <ele>1218.2</ele>
        <time>2022-07-18T10:10:00Z</time>
      </trkpt>
      <trkpt lat="44.56887" lon="7.17792">
        <ele>1218.6</ele>
        <time>2022-07-18T10:10:01Z</time>
      </trkpt>
      <trkpt lat="44.56889" lon="7.17796">
        <ele>1218.6</ele>
        <time>2022-07-18T10:10:02Z</time>
      </trkpt>
      <trkpt lat="44.5689" lon="7.17799">
        <ele>1219</ele>
        <time>2022-07-18T10:10:03Z</time>
      </trkpt>
      <trkpt lat="44.56891" lon="7.17802">
        <ele>1219</ele>
        <time>2022-07-18T10:10:04Z</time>
      </trkpt>
      <trkpt lat="44.56892" lon="7.17804">
        <ele>1219.2</ele>
        <time>2022-07-18T10:10:05Z</time>
      </trkpt>
      <trkpt lat="44.56893" lon="7.17807">
        <ele>1219.2</ele>
        <time>2022-07-18T10:10:06Z</time>
      </trkpt>
      <trkpt lat="44.56894" lon="7.1781">
        <ele>1219.6</ele>
        <time>2022-07-18T10:10:07Z</time>
      </trkpt>
      <trkpt lat="44.56896" lon="7.17813">
        <ele>1219.6</ele>
        <time>2022-07-18T10:10:08Z</time>
      </trkpt>
      <trkpt lat="44.56897" lon="7.17815">
        <ele>1220</ele>
        <time>2022-07-18T10:10:09Z</time>
      </trkpt>
      <trkpt lat="44.56898" lon="7.17818">
        <ele>1220</ele>
        <time>2022-07-18T10:10:10Z</time>
      </trkpt>
      <trkpt lat="44.56898" lon="7.17821">
        <ele>1220.4</ele>
        <time>2022-07-18T10:10:11Z</time>
      </trkpt>
      <trkpt lat="44.56899" lon="7.17824">
        <ele>1220.4</ele>
        <time>2022-07-18T10:10:12Z</time>
      </trkpt>
      <trkpt lat="44.569" lon="7.17826">
        <ele>1220.6</ele>
        <time>2022-07-18T10:10:13Z</time>
      </trkpt>
      <trkpt lat="44.56901" lon="7.17829">
        <ele>1220.6</ele>
        <time>2022-07-18T10:10:14Z</time>
      </trkpt>
      <trkpt lat="44.56902" lon="7.17831">
        <ele>1221</ele>
        <time>2022-07-18T10:10:15Z</time>
      </trkpt>
      <trkpt lat="44.56903" lon="7.17833">
        <ele>1221</ele>
        <time>2022-07-18T10:10:16Z</time>
      </trkpt>
      <trkpt lat="44.56903" lon="7.17835">
        <ele>1221.4</ele>
        <time>2022-07-18T10:10:17Z</time>
      </trkpt>
      <trkpt lat="44.56904" lon="7.17837">
        <ele>1221.4</ele>
        <time>2022-07-18T10:10:18Z</time>
      </trkpt>
      <trkpt lat="44.56905" lon="7.1784">
        <ele>1221.8</ele>
        <time>2022-07-18T10:10:19Z</time>
      </trkpt>
      <trkpt lat="44.56906" lon="7.17842">
        <ele>1221.8</ele>
        <time>2022-07-18T10:10:20Z</time>
      </trkpt>
      <trkpt lat="44.56908" lon="7.17845">
        <ele>1222.2</ele>
        <time>2022-07-18T10:10:21Z</time>
      </trkpt>
      <trkpt lat="44.56909" lon="7.17847">
        <ele>1222.2</ele>
        <time>2022-07-18T10:10:22Z</time>
      </trkpt>
      <trkpt lat="44.5691" lon="7.17849">
        <ele>1222.6</ele>
        <time>2022-07-18T10:10:23Z</time>
      </trkpt>
      <trkpt lat="44.56911" lon="7.17851">
        <ele>1222.6</ele>
        <time>2022-07-18T10:10:24Z</time>
      </trkpt>
      <trkpt lat="44.56912" lon="7.17853">
        <ele>1223</ele>
        <time>2022-07-18T10:10:25Z</time>
      </trkpt>
      <trkpt lat="44.56913" lon="7.17855">
        <ele>1223</ele>
        <time>2022-07-18T10:10:26Z</time>
      </trkpt>
      <trkpt lat="44.56914" lon="7.17857">
        <ele>1223.4</ele>
        <time>2022-07-18T10:10:27Z</time>
      </trkpt>
      <trkpt lat="44.56916" lon="7.17859">
        <ele>1223.4</ele>
        <time>2022-07-18T10:10:28Z</time>
      </trkpt>
      <trkpt lat="44.56919" lon="7.17861">
        <ele>1223.6</ele>
        <time>2022-07-18T10:10:29Z</time>
      </trkpt>
      <trkpt lat="44.56921" lon="7.17863">
        <ele>1223.6</ele>
        <time>2022-07-18T10:10:30Z</time>
      </trkpt>
      <trkpt lat="44.56923" lon="7.17864">
        <ele>1224</ele>
        <time>2022-07-18T10:10:31Z</time>
      </trkpt>
      <trkpt lat="44.56925" lon="7.17865">
        <ele>1224</ele>
        <time>2022-07-18T10:10:32Z</time>
      </trkpt>
      <trkpt lat="44.56928" lon="7.17866">
        <ele>1224.2</ele>
        <time>2022-07-18T10:10:33Z</time>
      </trkpt>
      <trkpt lat="44.5693" lon="7.17866">
        <ele>1224.2</ele>
        <time>2022-07-18T10:10:34Z</time>
      </trkpt>
      <trkpt lat="44.56932" lon="7.17866">
        <ele>1224.4</ele>
        <time>2022-07-18T10:10:35Z</time>
      </trkpt>
      <trkpt lat="44.56935" lon="7.17866">
        <ele>1224.4</ele>
        <time>2022-07-18T10:10:36Z</time>
      </trkpt>
      <trkpt lat="44.56937" lon="7.17865">
        <ele>1224.8</ele>
        <time>2022-07-18T10:10:37Z</time>
      </trkpt>
      <trkpt lat="44.5694" lon="7.17865">
        <ele>1224.8</ele>
        <time>2022-07-18T10:10:38Z</time>
      </trkpt>
      <trkpt lat="44.56942" lon="7.17865">
        <ele>1225.2</ele>
        <time>2022-07-18T10:10:39Z</time>
      </trkpt>
      <trkpt lat="44.56945" lon="7.17864">
        <ele>1225.4</ele>
        <time>2022-07-18T10:10:40Z</time>
      </trkpt>
      <trkpt lat="44.56947" lon="7.17864">
        <ele>1225.4</ele>
        <time>2022-07-18T10:10:41Z</time>
      </trkpt>
      <trkpt lat="44.56949" lon="7.17863">
        <ele>1225.8</ele>
        <time>2022-07-18T10:10:42Z</time>
      </trkpt>
      <trkpt lat="44.5695" lon="7.17863">
        <ele>1226.2</ele>
        <time>2022-07-18T10:10:43Z</time>
      </trkpt>
      <trkpt lat="44.56953" lon="7.17863">
        <ele>1226.2</ele>
        <time>2022-07-18T10:10:44Z</time>
      </trkpt>
      <trkpt lat="44.56955" lon="7.17862">
        <ele>1226.6</ele>
        <time>2022-07-18T10:10:45Z</time>
      </trkpt>
      <trkpt lat="44.56958" lon="7.17863">
        <ele>1226.8</ele>
        <time>2022-07-18T10:10:46Z</time>
      </trkpt>
      <trkpt lat="44.5696" lon="7.17864">
        <ele>1227</ele>
        <time>2022-07-18T10:10:47Z</time>
      </trkpt>
      <trkpt lat="44.56963" lon="7.17865">
        <ele>1227</ele>
        <time>2022-07-18T10:10:48Z</time>
      </trkpt>
      <trkpt lat="44.56965" lon="7.17866">
        <ele>1227.4</ele>
        <time>2022-07-18T10:10:49Z</time>
      </trkpt>
      <trkpt lat="44.56967" lon="7.17868">
        <ele>1227.6</ele>
        <time>2022-07-18T10:10:50Z</time>
      </trkpt>
      <trkpt lat="44.5697" lon="7.1787">
        <ele>1227.8</ele>
        <time>2022-07-18T10:10:51Z</time>
      </trkpt>
      <trkpt lat="44.56972" lon="7.17873">
        <ele>1227.8</ele>
        <time>2022-07-18T10:10:52Z</time>
      </trkpt>
      <trkpt lat="44.56973" lon="7.17877">
        <ele>1228.2</ele>
        <time>2022-07-18T10:10:53Z</time>
      </trkpt>
      <trkpt lat="44.56975" lon="7.1788">
        <ele>1228.4</ele>
        <time>2022-07-18T10:10:54Z</time>
      </trkpt>
      <trkpt lat="44.56975" lon="7.17883">
        <ele>1228.4</ele>
        <time>2022-07-18T10:10:55Z</time>
      </trkpt>
      <trkpt lat="44.56976" lon="7.17886">
        <ele>1228.8</ele>
        <time>2022-07-18T10:10:56Z</time>
      </trkpt>
      <trkpt lat="44.56977" lon="7.17889">
        <ele>1229</ele>
        <time>2022-07-18T10:10:57Z</time>
      </trkpt>
      <trkpt lat="44.56977" lon="7.17893">
        <ele>1229</ele>
        <time>2022-07-18T10:10:58Z</time>
      </trkpt>
      <trkpt lat="44.56977" lon="7.17896">
        <ele>1229.4</ele>
        <time>2022-07-18T10:10:59Z</time>
      </trkpt>
      <trkpt lat="44.56977" lon="7.17899">
        <ele>1229.4</ele>
        <time>2022-07-18T10:11:00Z</time>
      </trkpt>
      <trkpt lat="44.56977" lon="7.17901">
        <ele>1229.8</ele>
        <time>2022-07-18T10:11:01Z</time>
      </trkpt>
      <trkpt lat="44.56977" lon="7.17905">
        <ele>1230</ele>
        <time>2022-07-18T10:11:02Z</time>
      </trkpt>
      <trkpt lat="44.56977" lon="7.17908">
        <ele>1230.2</ele>
        <time>2022-07-18T10:11:03Z</time>
      </trkpt>
      <trkpt lat="44.56978" lon="7.1791">
        <ele>1230.2</ele>
        <time>2022-07-18T10:11:04Z</time>
      </trkpt>
      <trkpt lat="44.56977" lon="7.17913">
        <ele>1230.6</ele>
        <time>2022-07-18T10:11:05Z</time>
      </trkpt>
      <trkpt lat="44.56977" lon="7.17916">
        <ele>1230.6</ele>
        <time>2022-07-18T10:11:06Z</time>
      </trkpt>
      <trkpt lat="44.56976" lon="7.17919">
        <ele>1230.8</ele>
        <time>2022-07-18T10:11:07Z</time>
      </trkpt>
      <trkpt lat="44.56976" lon="7.17922">
        <ele>1231</ele>
        <time>2022-07-18T10:11:08Z</time>
      </trkpt>
      <trkpt lat="44.56976" lon="7.17925">
        <ele>1231</ele>
        <time>2022-07-18T10:11:09Z</time>
      </trkpt>
      <trkpt lat="44.56976" lon="7.17928">
        <ele>1231.2</ele>
        <time>2022-07-18T10:11:11Z</time>
      </trkpt>
      <trkpt lat="44.56975" lon="7.17931">
        <ele>1231.6</ele>
        <time>2022-07-18T10:11:12Z</time>
      </trkpt>
      <trkpt lat="44.56974" lon="7.17934">
        <ele>1231.6</ele>
        <time>2022-07-18T10:11:13Z</time>
      </trkpt>
      <trkpt lat="44.56973" lon="7.17937">
        <ele>1232</ele>
        <time>2022-07-18T10:11:14Z</time>
      </trkpt>
      <trkpt lat="44.56973" lon="7.1794">
        <ele>1232</ele>
        <time>2022-07-18T10:11:15Z</time>
      </trkpt>
      <trkpt lat="44.56972" lon="7.17943">
        <ele>1232.2</ele>
        <time>2022-07-18T10:11:16Z</time>
      </trkpt>
      <trkpt lat="44.56971" lon="7.17946">
        <ele>1232.2</ele>
        <time>2022-07-18T10:11:17Z</time>
      </trkpt>
      <trkpt lat="44.5697" lon="7.1795">
        <ele>1232.6</ele>
        <time>2022-07-18T10:11:18Z</time>
      </trkpt>
      <trkpt lat="44.56969" lon="7.17953">
        <ele>1232.6</ele>
        <time>2022-07-18T10:11:19Z</time>
      </trkpt>
      <trkpt lat="44.56969" lon="7.17956">
        <ele>1232.8</ele>
        <time>2022-07-18T10:11:20Z</time>
      </trkpt>
      <trkpt lat="44.56969" lon="7.1796">
        <ele>1233</ele>
        <time>2022-07-18T10:11:21Z</time>
      </trkpt>
      <trkpt lat="44.56968" lon="7.17964">
        <ele>1233</ele>
        <time>2022-07-18T10:11:22Z</time>
      </trkpt>
      <trkpt lat="44.56968" lon="7.17967">
        <ele>1233.4</ele>
        <time>2022-07-18T10:11:23Z</time>
      </trkpt>
      <trkpt lat="44.56969" lon="7.1797">
        <ele>1233.4</ele>
        <time>2022-07-18T10:11:24Z</time>
      </trkpt>
      <trkpt lat="44.56969" lon="7.17974">
        <ele>1233.6</ele>
        <time>2022-07-18T10:11:25Z</time>
      </trkpt>
      <trkpt lat="44.56969" lon="7.17977">
        <ele>1233.8</ele>
        <time>2022-07-18T10:11:26Z</time>
      </trkpt>
      <trkpt lat="44.56969" lon="7.1798">
        <ele>1233.8</ele>
        <time>2022-07-18T10:11:27Z</time>
      </trkpt>
      <trkpt lat="44.56968" lon="7.17983">
        <ele>1234</ele>
        <time>2022-07-18T10:11:28Z</time>
      </trkpt>
      <trkpt lat="44.56967" lon="7.17986">
        <ele>1234</ele>
        <time>2022-07-18T10:11:29Z</time>
      </trkpt>
      <trkpt lat="44.56965" lon="7.17987">
        <ele>1234.4</ele>
        <time>2022-07-18T10:11:30Z</time>
      </trkpt>
      <trkpt lat="44.56963" lon="7.17988">
        <ele>1234.4</ele>
        <time>2022-07-18T10:11:31Z</time>
      </trkpt>
      <trkpt lat="44.56962" lon="7.17987">
        <ele>1234.8</ele>
        <time>2022-07-18T10:11:32Z</time>
      </trkpt>
      <trkpt lat="44.5696" lon="7.17986">
        <ele>1234.8</ele>
        <time>2022-07-18T10:11:33Z</time>
      </trkpt>
      <trkpt lat="44.5696" lon="7.17984">
        <ele>1235.2</ele>
        <time>2022-07-18T10:11:34Z</time>
      </trkpt>
      <trkpt lat="44.56959" lon="7.17982">
        <ele>1235.2</ele>
        <time>2022-07-18T10:11:35Z</time>
      </trkpt>
      <trkpt lat="44.56958" lon="7.17979">
        <ele>1235.4</ele>
        <time>2022-07-18T10:11:36Z</time>
      </trkpt>
      <trkpt lat="44.56958" lon="7.17977">
        <ele>1235.4</ele>
        <time>2022-07-18T10:11:37Z</time>
      </trkpt>
      <trkpt lat="44.56958" lon="7.17974">
        <ele>1235.8</ele>
        <time>2022-07-18T10:11:38Z</time>
      </trkpt>
      <trkpt lat="44.56958" lon="7.17971">
        <ele>1235.8</ele>
        <time>2022-07-18T10:11:39Z</time>
      </trkpt>
      <trkpt lat="44.56958" lon="7.17969">
        <ele>1236</ele>
        <time>2022-07-18T10:11:40Z</time>
      </trkpt>
      <trkpt lat="44.56959" lon="7.17966">
        <ele>1236</ele>
        <time>2022-07-18T10:11:41Z</time>
      </trkpt>
      <trkpt lat="44.56959" lon="7.17964">
        <ele>1236.2</ele>
        <time>2022-07-18T10:11:42Z</time>
      </trkpt>
      <trkpt lat="44.5696" lon="7.17961">
        <ele>1236.2</ele>
        <time>2022-07-18T10:11:43Z</time>
      </trkpt>
      <trkpt lat="44.5696" lon="7.17958">
        <ele>1236.4</ele>
        <time>2022-07-18T10:11:44Z</time>
      </trkpt>
      <trkpt lat="44.56961" lon="7.17954">
        <ele>1236.4</ele>
        <time>2022-07-18T10:11:45Z</time>
      </trkpt>
      <trkpt lat="44.56961" lon="7.17951">
        <ele>1236.6</ele>
        <time>2022-07-18T10:11:46Z</time>
      </trkpt>
      <trkpt lat="44.56961" lon="7.17948">
        <ele>1236.6</ele>
        <time>2022-07-18T10:11:47Z</time>
      </trkpt>
      <trkpt lat="44.56961" lon="7.17945">
        <ele>1237</ele>
        <time>2022-07-18T10:11:48Z</time>
      </trkpt>
      <trkpt lat="44.56961" lon="7.17943">
        <ele>1237</ele>
        <time>2022-07-18T10:11:49Z</time>
      </trkpt>
      <trkpt lat="44.56962" lon="7.1794">
        <ele>1237.4</ele>
        <time>2022-07-18T10:11:50Z</time>
      </trkpt>
      <trkpt lat="44.56963" lon="7.17938">
        <ele>1237.4</ele>
        <time>2022-07-18T10:11:51Z</time>
      </trkpt>
      <trkpt lat="44.56963" lon="7.17936">
        <ele>1237.8</ele>
        <time>2022-07-18T10:11:52Z</time>
      </trkpt>
      <trkpt lat="44.56962" lon="7.17933">
        <ele>1237.8</ele>
        <time>2022-07-18T10:11:53Z</time>
      </trkpt>
      <trkpt lat="44.56962" lon="7.17931">
        <ele>1238</ele>
        <time>2022-07-18T10:11:54Z</time>
      </trkpt>
      <trkpt lat="44.56961" lon="7.17929">
        <ele>1238</ele>
        <time>2022-07-18T10:11:55Z</time>
      </trkpt>
      <trkpt lat="44.5696" lon="7.17927">
        <ele>1238.4</ele>
        <time>2022-07-18T10:11:56Z</time>
      </trkpt>
      <trkpt lat="44.56959" lon="7.17925">
        <ele>1238.6</ele>
        <time>2022-07-18T10:11:57Z</time>
      </trkpt>
      <trkpt lat="44.56956" lon="7.17923">
        <ele>1238.8</ele>
        <time>2022-07-18T10:11:58Z</time>
      </trkpt>
      <trkpt lat="44.56954" lon="7.17922">
        <ele>1239</ele>
        <time>2022-07-18T10:11:59Z</time>
      </trkpt>
      <trkpt lat="44.56952" lon="7.17922">
        <ele>1239.2</ele>
        <time>2022-07-18T10:12:00Z</time>
      </trkpt>
      <trkpt lat="44.56951" lon="7.17922">
        <ele>1239.4</ele>
        <time>2022-07-18T10:12:01Z</time>
      </trkpt>
      <trkpt lat="44.56949" lon="7.17922">
        <ele>1239.4</ele>
        <time>2022-07-18T10:12:02Z</time>
      </trkpt>
      <trkpt lat="44.56948" lon="7.17923">
        <ele>1239.8</ele>
        <time>2022-07-18T10:12:03Z</time>
      </trkpt>
      <trkpt lat="44.56945" lon="7.17923">
        <ele>1239.8</ele>
        <time>2022-07-18T10:12:04Z</time>
      </trkpt>
      <trkpt lat="44.56944" lon="7.17923">
        <ele>1240.2</ele>
        <time>2022-07-18T10:12:05Z</time>
      </trkpt>
      <trkpt lat="44.56942" lon="7.17924">
        <ele>1240.4</ele>
        <time>2022-07-18T10:12:06Z</time>
      </trkpt>
      <trkpt lat="44.5694" lon="7.17924">
        <ele>1240.6</ele>
        <time>2022-07-18T10:12:07Z</time>
      </trkpt>
      <trkpt lat="44.56938" lon="7.17925">
        <ele>1240.8</ele>
        <time>2022-07-18T10:12:08Z</time>
      </trkpt>
      <trkpt lat="44.56936" lon="7.17925">
        <ele>1241</ele>
        <time>2022-07-18T10:12:09Z</time>
      </trkpt>
      <trkpt lat="44.56934" lon="7.17925">
        <ele>1241</ele>
        <time>2022-07-18T10:12:10Z</time>
      </trkpt>
      <trkpt lat="44.56932" lon="7.17925">
        <ele>1241.4</ele>
        <time>2022-07-18T10:12:11Z</time>
      </trkpt>
      <trkpt lat="44.56931" lon="7.17925">
        <ele>1241.4</ele>
        <time>2022-07-18T10:12:12Z</time>
      </trkpt>
      <trkpt lat="44.5693" lon="7.17926">
        <ele>1241.6</ele>
        <time>2022-07-18T10:12:13Z</time>
      </trkpt>
      <trkpt lat="44.56928" lon="7.17925">
        <ele>1241.6</ele>
        <time>2022-07-18T10:12:14Z</time>
      </trkpt>
      <trkpt lat="44.56927" lon="7.17925">
        <ele>1242</ele>
        <time>2022-07-18T10:12:15Z</time>
      </trkpt>
      <trkpt lat="44.56926" lon="7.17925">
        <ele>1242</ele>
        <time>2022-07-18T10:12:16Z</time>
      </trkpt>
      <trkpt lat="44.56924" lon="7.17924">
        <ele>1242.4</ele>
        <time>2022-07-18T10:12:17Z</time>
      </trkpt>
      <trkpt lat="44.56923" lon="7.17923">
        <ele>1242.4</ele>
        <time>2022-07-18T10:12:18Z</time>
      </trkpt>
      <trkpt lat="44.56922" lon="7.17921">
        <ele>1242.8</ele>
        <time>2022-07-18T10:12:19Z</time>
      </trkpt>
      <trkpt lat="44.56921" lon="7.1792">
        <ele>1242.8</ele>
        <time>2022-07-18T10:12:20Z</time>
      </trkpt>
      <trkpt lat="44.5692" lon="7.17918">
        <ele>1243.2</ele>
        <time>2022-07-18T10:12:21Z</time>
      </trkpt>
      <trkpt lat="44.56918" lon="7.17916">
        <ele>1243.2</ele>
        <time>2022-07-18T10:12:22Z</time>
      </trkpt>
      <trkpt lat="44.56916" lon="7.17915">
        <ele>1243.4</ele>
        <time>2022-07-18T10:12:23Z</time>
      </trkpt>
      <trkpt lat="44.56915" lon="7.17913">
        <ele>1243.4</ele>
        <time>2022-07-18T10:12:24Z</time>
      </trkpt>
      <trkpt lat="44.56914" lon="7.17911">
        <ele>1243.8</ele>
        <time>2022-07-18T10:12:25Z</time>
      </trkpt>
      <trkpt lat="44.56913" lon="7.1791">
        <ele>1243.8</ele>
        <time>2022-07-18T10:12:26Z</time>
      </trkpt>
      <trkpt lat="44.56912" lon="7.17908">
        <ele>1244</ele>
        <time>2022-07-18T10:12:27Z</time>
      </trkpt>
      <trkpt lat="44.56911" lon="7.17907">
        <ele>1244</ele>
        <time>2022-07-18T10:12:28Z</time>
      </trkpt>
      <trkpt lat="44.5691" lon="7.17906">
        <ele>1244.4</ele>
        <time>2022-07-18T10:12:29Z</time>
      </trkpt>
      <trkpt lat="44.56909" lon="7.17904">
        <ele>1244.4</ele>
        <time>2022-07-18T10:12:30Z</time>
      </trkpt>
      <trkpt lat="44.56908" lon="7.17903">
        <ele>1244.8</ele>
        <time>2022-07-18T10:12:31Z</time>
      </trkpt>
      <trkpt lat="44.56908" lon="7.17901">
        <ele>1245</ele>
        <time>2022-07-18T10:12:32Z</time>
      </trkpt>
      <trkpt lat="44.56907" lon="7.17899">
        <ele>1245</ele>
        <time>2022-07-18T10:12:33Z</time>
      </trkpt>
      <trkpt lat="44.56905" lon="7.17898">
        <ele>1245.2</ele>
        <time>2022-07-18T10:12:34Z</time>
      </trkpt>
      <trkpt lat="44.56905" lon="7.17897">
        <ele>1245.6</ele>
        <time>2022-07-18T10:12:35Z</time>
      </trkpt>
      <trkpt lat="44.56903" lon="7.17894">
        <ele>1245.8</ele>
        <time>2022-07-18T10:12:36Z</time>
      </trkpt>
      <trkpt lat="44.56903" lon="7.17893">
        <ele>1245.8</ele>
        <time>2022-07-18T10:12:37Z</time>
      </trkpt>
      <trkpt lat="44.56901" lon="7.17892">
        <ele>1246.2</ele>
        <time>2022-07-18T10:12:38Z</time>
      </trkpt>
      <trkpt lat="44.569" lon="7.1789">
        <ele>1246.2</ele>
        <time>2022-07-18T10:12:39Z</time>
      </trkpt>
      <trkpt lat="44.56899" lon="7.17889">
        <ele>1246.6</ele>
        <time>2022-07-18T10:12:40Z</time>
      </trkpt>
      <trkpt lat="44.56898" lon="7.17888">
        <ele>1246.8</ele>
        <time>2022-07-18T10:12:41Z</time>
      </trkpt>
      <trkpt lat="44.56896" lon="7.17886">
        <ele>1246.8</ele>
        <time>2022-07-18T10:12:42Z</time>
      </trkpt>
      <trkpt lat="44.56895" lon="7.17886">
        <ele>1247</ele>
        <time>2022-07-18T10:12:43Z</time>
      </trkpt>
      <trkpt lat="44.56893" lon="7.17884">
        <ele>1247.2</ele>
        <time>2022-07-18T10:12:44Z</time>
      </trkpt>
      <trkpt lat="44.56892" lon="7.17883">
        <ele>1247.2</ele>
        <time>2022-07-18T10:12:45Z</time>
      </trkpt>
      <trkpt lat="44.5689" lon="7.17882">
        <ele>1247.6</ele>
        <time>2022-07-18T10:12:46Z</time>
      </trkpt>
      <trkpt lat="44.5689" lon="7.17881">
        <ele>1247.6</ele>
        <time>2022-07-18T10:12:47Z</time>
      </trkpt>
      <trkpt lat="44.56888" lon="7.17878">
        <ele>1247.8</ele>
        <time>2022-07-18T10:12:49Z</time>
      </trkpt>
      <trkpt lat="44.56887" lon="7.17877">
        <ele>1248.2</ele>
        <time>2022-07-18T10:12:50Z</time>
      </trkpt>
      <trkpt lat="44.56885" lon="7.17875">
        <ele>1248.2</ele>
        <time>2022-07-18T10:12:51Z</time>
      </trkpt>
      <trkpt lat="44.56883" lon="7.17874">
        <ele>1248.4</ele>
        <time>2022-07-18T10:12:52Z</time>
      </trkpt>
      <trkpt lat="44.56876" lon="7.17868">
        <ele>1249</ele>
        <time>2022-07-18T10:12:56Z</time>
      </trkpt>
      <trkpt lat="44.56874" lon="7.17866">
        <ele>1249.2</ele>
        <time>2022-07-18T10:12:57Z</time>
      </trkpt>
      <trkpt lat="44.56872" lon="7.17865">
        <ele>1249.2</ele>
        <time>2022-07-18T10:12:58Z</time>
      </trkpt>
      <trkpt lat="44.56872" lon="7.17865">
        <ele>1249.6</ele>
        <time>2022-07-18T10:12:59Z</time>
      </trkpt>
      <trkpt lat="44.56871" lon="7.17863">
        <ele>1249.6</ele>
        <time>2022-07-18T10:13:00Z</time>
      </trkpt>
      <trkpt lat="44.5687" lon="7.17862">
        <ele>1249.8</ele>
        <time>2022-07-18T10:13:01Z</time>
      </trkpt>
      <trkpt lat="44.56865" lon="7.17857">
        <ele>1250.4</ele>
        <time>2022-07-18T10:13:04Z</time>
      </trkpt>
      <trkpt lat="44.56863" lon="7.17855">
        <ele>1250.4</ele>
        <time>2022-07-18T10:13:05Z</time>
      </trkpt>
      <trkpt lat="44.56861" lon="7.17853">
        <ele>1250.8</ele>
        <time>2022-07-18T10:13:06Z</time>
      </trkpt>
      <trkpt lat="44.56859" lon="7.17851">
        <ele>1251</ele>
        <time>2022-07-18T10:13:07Z</time>
      </trkpt>
      <trkpt lat="44.56857" lon="7.17848">
        <ele>1251.2</ele>
        <time>2022-07-18T10:13:08Z</time>
      </trkpt>
      <trkpt lat="44.56855" lon="7.17847">
        <ele>1251.2</ele>
        <time>2022-07-18T10:13:09Z</time>
      </trkpt>
      <trkpt lat="44.56853" lon="7.17844">
        <ele>1251.4</ele>
        <time>2022-07-18T10:13:10Z</time>
      </trkpt>
      <trkpt lat="44.5685" lon="7.17843">
        <ele>1251.6</ele>
        <time>2022-07-18T10:13:11Z</time>
      </trkpt>
      <trkpt lat="44.56849" lon="7.17842">
        <ele>1251.6</ele>
        <time>2022-07-18T10:13:12Z</time>
      </trkpt>
      <trkpt lat="44.56847" lon="7.1784">
        <ele>1252</ele>
        <time>2022-07-18T10:13:13Z</time>
      </trkpt>
      <trkpt lat="44.56846" lon="7.17839">
        <ele>1252</ele>
        <time>2022-07-18T10:13:14Z</time>
      </trkpt>
      <trkpt lat="44.56844" lon="7.17837">
        <ele>1252.2</ele>
        <time>2022-07-18T10:13:15Z</time>
      </trkpt>
      <trkpt lat="44.56842" lon="7.17836">
        <ele>1252.4</ele>
        <time>2022-07-18T10:13:16Z</time>
      </trkpt>
      <trkpt lat="44.56841" lon="7.17835">
        <ele>1252.4</ele>
        <time>2022-07-18T10:13:17Z</time>
      </trkpt>
      <trkpt lat="44.56839" lon="7.17833">
        <ele>1252.8</ele>
        <time>2022-07-18T10:13:18Z</time>
      </trkpt>
      <trkpt lat="44.56838" lon="7.17831">
        <ele>1252.8</ele>
        <time>2022-07-18T10:13:19Z</time>
      </trkpt>
      <trkpt lat="44.56837" lon="7.17829">
        <ele>1253</ele>
        <time>2022-07-18T10:13:20Z</time>
      </trkpt>
      <trkpt lat="44.56836" lon="7.17827">
        <ele>1253</ele>
        <time>2022-07-18T10:13:21Z</time>
      </trkpt>
      <trkpt lat="44.56834" lon="7.17825">
        <ele>1253.4</ele>
        <time>2022-07-18T10:13:22Z</time>
      </trkpt>
      <trkpt lat="44.56833" lon="7.17823">
        <ele>1253.4</ele>
        <time>2022-07-18T10:13:23Z</time>
      </trkpt>
      <trkpt lat="44.56832" lon="7.17822">
        <ele>1253.6</ele>
        <time>2022-07-18T10:13:24Z</time>
      </trkpt>
      <trkpt lat="44.56831" lon="7.17821">
        <ele>1253.6</ele>
        <time>2022-07-18T10:13:25Z</time>
      </trkpt>
      <trkpt lat="44.56829" lon="7.1782">
        <ele>1254</ele>
        <time>2022-07-18T10:13:26Z</time>
      </trkpt>
      <trkpt lat="44.56828" lon="7.17818">
        <ele>1254</ele>
        <time>2022-07-18T10:13:27Z</time>
      </trkpt>
      <trkpt lat="44.56826" lon="7.17816">
        <ele>1254.4</ele>
        <time>2022-07-18T10:13:28Z</time>
      </trkpt>
      <trkpt lat="44.56825" lon="7.17814">
        <ele>1254.6</ele>
        <time>2022-07-18T10:13:29Z</time>
      </trkpt>
      <trkpt lat="44.56824" lon="7.17813">
        <ele>1254.6</ele>
        <time>2022-07-18T10:13:30Z</time>
      </trkpt>
      <trkpt lat="44.56822" lon="7.17811">
        <ele>1255</ele>
        <time>2022-07-18T10:13:31Z</time>
      </trkpt>
      <trkpt lat="44.56819" lon="7.17809">
        <ele>1255.2</ele>
        <time>2022-07-18T10:13:32Z</time>
      </trkpt>
      <trkpt lat="44.56818" lon="7.17808">
        <ele>1255.4</ele>
        <time>2022-07-18T10:13:33Z</time>
      </trkpt>
      <trkpt lat="44.56816" lon="7.17807">
        <ele>1255.6</ele>
        <time>2022-07-18T10:13:34Z</time>
      </trkpt>
      <trkpt lat="44.56814" lon="7.17805">
        <ele>1255.6</ele>
        <time>2022-07-18T10:13:35Z</time>
      </trkpt>
      <trkpt lat="44.56812" lon="7.17804">
        <ele>1256.2</ele>
        <time>2022-07-18T10:13:36Z</time>
      </trkpt>
      <trkpt lat="44.5681" lon="7.17802">
        <ele>1256.4</ele>
        <time>2022-07-18T10:13:37Z</time>
      </trkpt>
      <trkpt lat="44.56808" lon="7.178">
        <ele>1256.6</ele>
        <time>2022-07-18T10:13:38Z</time>
      </trkpt>
      <trkpt lat="44.56806" lon="7.17798">
        <ele>1256.8</ele>
        <time>2022-07-18T10:13:39Z</time>
      </trkpt>
      <trkpt lat="44.56805" lon="7.17796">
        <ele>1257</ele>
        <time>2022-07-18T10:13:40Z</time>
      </trkpt>
      <trkpt lat="44.56803" lon="7.17794">
        <ele>1257</ele>
        <time>2022-07-18T10:13:41Z</time>
      </trkpt>
      <trkpt lat="44.56802" lon="7.17792">
        <ele>1257.4</ele>
        <time>2022-07-18T10:13:42Z</time>
      </trkpt>
      <trkpt lat="44.56801" lon="7.1779">
        <ele>1257.6</ele>
        <time>2022-07-18T10:13:43Z</time>
      </trkpt>
      <trkpt lat="44.568" lon="7.17788">
        <ele>1257.8</ele>
        <time>2022-07-18T10:13:44Z</time>
      </trkpt>
      <trkpt lat="44.56798" lon="7.17786">
        <ele>1258</ele>
        <time>2022-07-18T10:13:45Z</time>
      </trkpt>
      <trkpt lat="44.56796" lon="7.17784">
        <ele>1258.2</ele>
        <time>2022-07-18T10:13:46Z</time>
      </trkpt>
      <trkpt lat="44.56793" lon="7.17782">
        <ele>1258.4</ele>
        <time>2022-07-18T10:13:47Z</time>
      </trkpt>
      <trkpt lat="44.56791" lon="7.17781">
        <ele>1258.6</ele>
        <time>2022-07-18T10:13:48Z</time>
      </trkpt>
      <trkpt lat="44.56789" lon="7.17778">
        <ele>1258.8</ele>
        <time>2022-07-18T10:13:49Z</time>
      </trkpt>
      <trkpt lat="44.56787" lon="7.17776">
        <ele>1258.8</ele>
        <time>2022-07-18T10:13:50Z</time>
      </trkpt>
      <trkpt lat="44.56786" lon="7.17774">
        <ele>1259.2</ele>
        <time>2022-07-18T10:13:51Z</time>
      </trkpt>
      <trkpt lat="44.56783" lon="7.17772">
        <ele>1259.2</ele>
        <time>2022-07-18T10:13:52Z</time>
      </trkpt>
      <trkpt lat="44.56781" lon="7.1777">
        <ele>1259.6</ele>
        <time>2022-07-18T10:13:53Z</time>
      </trkpt>
      <trkpt lat="44.56778" lon="7.17768">
        <ele>1259.6</ele>
        <time>2022-07-18T10:13:54Z</time>
      </trkpt>
      <trkpt lat="44.56775" lon="7.17766">
        <ele>1260</ele>
        <time>2022-07-18T10:13:55Z</time>
      </trkpt>
      <trkpt lat="44.56772" lon="7.17765">
        <ele>1260.2</ele>
        <time>2022-07-18T10:13:56Z</time>
      </trkpt>
      <trkpt lat="44.5677" lon="7.17763">
        <ele>1260.2</ele>
        <time>2022-07-18T10:13:57Z</time>
      </trkpt>
      <trkpt lat="44.56767" lon="7.17762">
        <ele>1260.4</ele>
        <time>2022-07-18T10:13:58Z</time>
      </trkpt>
      <trkpt lat="44.56765" lon="7.17762">
        <ele>1260.4</ele>
        <time>2022-07-18T10:13:59Z</time>
      </trkpt>
      <trkpt lat="44.56762" lon="7.17761">
        <ele>1260.8</ele>
        <time>2022-07-18T10:14:00Z</time>
      </trkpt>
      <trkpt lat="44.5676" lon="7.1776">
        <ele>1260.8</ele>
        <time>2022-07-18T10:14:01Z</time>
      </trkpt>
      <trkpt lat="44.56758" lon="7.1776">
        <ele>1261.2</ele>
        <time>2022-07-18T10:14:02Z</time>
      </trkpt>
      <trkpt lat="44.56756" lon="7.17759">
        <ele>1261.2</ele>
        <time>2022-07-18T10:14:03Z</time>
      </trkpt>
      <trkpt lat="44.56755" lon="7.17759">
        <ele>1261.4</ele>
        <time>2022-07-18T10:14:04Z</time>
      </trkpt>
      <trkpt lat="44.56754" lon="7.17758">
        <ele>1261.8</ele>
        <time>2022-07-18T10:14:05Z</time>
      </trkpt>
      <trkpt lat="44.56753" lon="7.17757">
        <ele>1261.8</ele>
        <time>2022-07-18T10:14:06Z</time>
      </trkpt>
      <trkpt lat="44.56752" lon="7.17756">
        <ele>1262.2</ele>
        <time>2022-07-18T10:14:07Z</time>
      </trkpt>
      <trkpt lat="44.56751" lon="7.17755">
        <ele>1262.2</ele>
        <time>2022-07-18T10:14:08Z</time>
      </trkpt>
      <trkpt lat="44.5675" lon="7.17755">
        <ele>1262.4</ele>
        <time>2022-07-18T10:14:09Z</time>
      </trkpt>
      <trkpt lat="44.56749" lon="7.17754">
        <ele>1262.4</ele>
        <time>2022-07-18T10:14:10Z</time>
      </trkpt>
      <trkpt lat="44.56747" lon="7.17754">
        <ele>1262.8</ele>
        <time>2022-07-18T10:14:11Z</time>
      </trkpt>
      <trkpt lat="44.56746" lon="7.17753">
        <ele>1262.8</ele>
        <time>2022-07-18T10:14:12Z</time>
      </trkpt>
      <trkpt lat="44.56744" lon="7.17753">
        <ele>1263.2</ele>
        <time>2022-07-18T10:14:13Z</time>
      </trkpt>
      <trkpt lat="44.56743" lon="7.17752">
        <ele>1263.4</ele>
        <time>2022-07-18T10:14:14Z</time>
      </trkpt>
      <trkpt lat="44.56741" lon="7.17751">
        <ele>1263.4</ele>
        <time>2022-07-18T10:14:15Z</time>
      </trkpt>
      <trkpt lat="44.5674" lon="7.1775">
        <ele>1263.8</ele>
        <time>2022-07-18T10:14:16Z</time>
      </trkpt>
      <trkpt lat="44.56738" lon="7.17749">
        <ele>1263.8</ele>
        <time>2022-07-18T10:14:17Z</time>
      </trkpt>
      <trkpt lat="44.56737" lon="7.17748">
        <ele>1264.2</ele>
        <time>2022-07-18T10:14:18Z</time>
      </trkpt>
      <trkpt lat="44.56736" lon="7.17747">
        <ele>1264.2</ele>
        <time>2022-07-18T10:14:19Z</time>
      </trkpt>
      <trkpt lat="44.56735" lon="7.17746">
        <ele>1264.6</ele>
        <time>2022-07-18T10:14:20Z</time>
      </trkpt>
      <trkpt lat="44.56733" lon="7.17745">
        <ele>1264.8</ele>
        <time>2022-07-18T10:14:21Z</time>
      </trkpt>
      <trkpt lat="44.56731" lon="7.17744">
        <ele>1264.8</ele>
        <time>2022-07-18T10:14:22Z</time>
      </trkpt>
      <trkpt lat="44.56729" lon="7.17743">
        <ele>1265</ele>
        <time>2022-07-18T10:14:23Z</time>
      </trkpt>
      <trkpt lat="44.56728" lon="7.17742">
        <ele>1265</ele>
        <time>2022-07-18T10:14:24Z</time>
      </trkpt>
      <trkpt lat="44.56727" lon="7.1774">
        <ele>1265.4</ele>
        <time>2022-07-18T10:14:25Z</time>
      </trkpt>
      <trkpt lat="44.56725" lon="7.17739">
        <ele>1265.4</ele>
        <time>2022-07-18T10:14:26Z</time>
      </trkpt>
      <trkpt lat="44.56724" lon="7.17737">
        <ele>1265.6</ele>
        <time>2022-07-18T10:14:27Z</time>
      </trkpt>
      <trkpt lat="44.56723" lon="7.17736">
        <ele>1265.6</ele>
        <time>2022-07-18T10:14:28Z</time>
      </trkpt>
      <trkpt lat="44.56722" lon="7.17734">
        <ele>1266</ele>
        <time>2022-07-18T10:14:29Z</time>
      </trkpt>
      <trkpt lat="44.56721" lon="7.17732">
        <ele>1266.2</ele>
        <time>2022-07-18T10:14:30Z</time>
      </trkpt>
      <trkpt lat="44.56719" lon="7.1773">
        <ele>1266.2</ele>
        <time>2022-07-18T10:14:31Z</time>
      </trkpt>
      <trkpt lat="44.56718" lon="7.17729">
        <ele>1266.4</ele>
        <time>2022-07-18T10:14:32Z</time>
      </trkpt>
      <trkpt lat="44.56716" lon="7.17728">
        <ele>1266.4</ele>
        <time>2022-07-18T10:14:33Z</time>
      </trkpt>
      <trkpt lat="44.56714" lon="7.17728">
        <ele>1266.8</ele>
        <time>2022-07-18T10:14:34Z</time>
      </trkpt>
      <trkpt lat="44.56713" lon="7.17727">
        <ele>1266.8</ele>
        <time>2022-07-18T10:14:35Z</time>
      </trkpt>
      <trkpt lat="44.56712" lon="7.17726">
        <ele>1267.2</ele>
        <time>2022-07-18T10:14:36Z</time>
      </trkpt>
      <trkpt lat="44.56711" lon="7.17724">
        <ele>1267.4</ele>
        <time>2022-07-18T10:14:37Z</time>
      </trkpt>
      <trkpt lat="44.56709" lon="7.17723">
        <ele>1267.4</ele>
        <time>2022-07-18T10:14:38Z</time>
      </trkpt>
      <trkpt lat="44.56708" lon="7.17721">
        <ele>1267.4</ele>
        <time>2022-07-18T10:14:39Z</time>
      </trkpt>
      <trkpt lat="44.56707" lon="7.1772">
        <ele>1267.8</ele>
        <time>2022-07-18T10:14:40Z</time>
      </trkpt>
      <trkpt lat="44.56707" lon="7.17719">
        <ele>1267.8</ele>
        <time>2022-07-18T10:14:41Z</time>
      </trkpt>
      <trkpt lat="44.56705" lon="7.17718">
        <ele>1268</ele>
        <time>2022-07-18T10:14:42Z</time>
      </trkpt>
      <trkpt lat="44.56704" lon="7.17717">
        <ele>1268</ele>
        <time>2022-07-18T10:14:43Z</time>
      </trkpt>
      <trkpt lat="44.56703" lon="7.17716">
        <ele>1268.4</ele>
        <time>2022-07-18T10:14:44Z</time>
      </trkpt>
      <trkpt lat="44.56701" lon="7.17715">
        <ele>1268.6</ele>
        <time>2022-07-18T10:14:45Z</time>
      </trkpt>
      <trkpt lat="44.567" lon="7.17714">
        <ele>1268.6</ele>
        <time>2022-07-18T10:14:46Z</time>
      </trkpt>
      <trkpt lat="44.56699" lon="7.17713">
        <ele>1269</ele>
        <time>2022-07-18T10:14:47Z</time>
      </trkpt>
      <trkpt lat="44.56698" lon="7.17711">
        <ele>1269</ele>
        <time>2022-07-18T10:14:48Z</time>
      </trkpt>
      <trkpt lat="44.56697" lon="7.17709">
        <ele>1269.2</ele>
        <time>2022-07-18T10:14:49Z</time>
      </trkpt>
      <trkpt lat="44.56696" lon="7.17707">
        <ele>1269.2</ele>
        <time>2022-07-18T10:14:50Z</time>
      </trkpt>
      <trkpt lat="44.56695" lon="7.17706">
        <ele>1269.6</ele>
        <time>2022-07-18T10:14:51Z</time>
      </trkpt>
      <trkpt lat="44.56694" lon="7.17705">
        <ele>1269.6</ele>
        <time>2022-07-18T10:14:52Z</time>
      </trkpt>
      <trkpt lat="44.56692" lon="7.17704">
        <ele>1270</ele>
        <time>2022-07-18T10:14:53Z</time>
      </trkpt>
      <trkpt lat="44.56691" lon="7.17703">
        <ele>1270</ele>
        <time>2022-07-18T10:14:54Z</time>
      </trkpt>
      <trkpt lat="44.56689" lon="7.17702">
        <ele>1270.2</ele>
        <time>2022-07-18T10:14:55Z</time>
      </trkpt>
      <trkpt lat="44.56687" lon="7.17701">
        <ele>1270.4</ele>
        <time>2022-07-18T10:14:56Z</time>
      </trkpt>
      <trkpt lat="44.56686" lon="7.177">
        <ele>1270.6</ele>
        <time>2022-07-18T10:14:57Z</time>
      </trkpt>
      <trkpt lat="44.56685" lon="7.17699">
        <ele>1271</ele>
        <time>2022-07-18T10:14:58Z</time>
      </trkpt>
      <trkpt lat="44.56684" lon="7.17698">
        <ele>1271</ele>
        <time>2022-07-18T10:14:59Z</time>
      </trkpt>
      <trkpt lat="44.56683" lon="7.17697">
        <ele>1271.2</ele>
        <time>2022-07-18T10:15:00Z</time>
      </trkpt>
      <trkpt lat="44.56682" lon="7.17696">
        <ele>1271.2</ele>
        <time>2022-07-18T10:15:01Z</time>
      </trkpt>
      <trkpt lat="44.56681" lon="7.17695">
        <ele>1271.4</ele>
        <time>2022-07-18T10:15:02Z</time>
      </trkpt>
      <trkpt lat="44.56679" lon="7.17694">
        <ele>1271.4</ele>
        <time>2022-07-18T10:15:03Z</time>
      </trkpt>
      <trkpt lat="44.56677" lon="7.17693">
        <ele>1271.8</ele>
        <time>2022-07-18T10:15:04Z</time>
      </trkpt>
      <trkpt lat="44.56676" lon="7.17692">
        <ele>1271.8</ele>
        <time>2022-07-18T10:15:05Z</time>
      </trkpt>
      <trkpt lat="44.56674" lon="7.17691">
        <ele>1272</ele>
        <time>2022-07-18T10:15:06Z</time>
      </trkpt>
      <trkpt lat="44.56673" lon="7.17689">
        <ele>1272</ele>
        <time>2022-07-18T10:15:07Z</time>
      </trkpt>
      <trkpt lat="44.56672" lon="7.17688">
        <ele>1272.4</ele>
        <time>2022-07-18T10:15:08Z</time>
      </trkpt>
      <trkpt lat="44.5667" lon="7.17686">
        <ele>1272.4</ele>
        <time>2022-07-18T10:15:09Z</time>
      </trkpt>
      <trkpt lat="44.56669" lon="7.17685">
        <ele>1272.8</ele>
        <time>2022-07-18T10:15:10Z</time>
      </trkpt>
      <trkpt lat="44.56668" lon="7.17684">
        <ele>1272.8</ele>
        <time>2022-07-18T10:15:11Z</time>
      </trkpt>
      <trkpt lat="44.56667" lon="7.17683">
        <ele>1273.2</ele>
        <time>2022-07-18T10:15:12Z</time>
      </trkpt>
      <trkpt lat="44.56665" lon="7.17682">
        <ele>1273.4</ele>
        <time>2022-07-18T10:15:13Z</time>
      </trkpt>
      <trkpt lat="44.56664" lon="7.1768">
        <ele>1273.4</ele>
        <time>2022-07-18T10:15:14Z</time>
      </trkpt>
      <trkpt lat="44.56662" lon="7.17679">
        <ele>1273.6</ele>
        <time>2022-07-18T10:15:15Z</time>
      </trkpt>
      <trkpt lat="44.56661" lon="7.17678">
        <ele>1273.6</ele>
        <time>2022-07-18T10:15:16Z</time>
      </trkpt>
      <trkpt lat="44.56659" lon="7.17676">
        <ele>1273.8</ele>
        <time>2022-07-18T10:15:17Z</time>
      </trkpt>
      <trkpt lat="44.56658" lon="7.17675">
        <ele>1273.8</ele>
        <time>2022-07-18T10:15:18Z</time>
      </trkpt>
      <trkpt lat="44.56656" lon="7.17673">
        <ele>1274.2</ele>
        <time>2022-07-18T10:15:19Z</time>
      </trkpt>
      <trkpt lat="44.56655" lon="7.17672">
        <ele>1274.2</ele>
        <time>2022-07-18T10:15:20Z</time>
      </trkpt>
      <trkpt lat="44.56654" lon="7.1767">
        <ele>1274.4</ele>
        <time>2022-07-18T10:15:21Z</time>
      </trkpt>
      <trkpt lat="44.56653" lon="7.17668">
        <ele>1274.4</ele>
        <time>2022-07-18T10:15:22Z</time>
      </trkpt>
      <trkpt lat="44.56652" lon="7.17666">
        <ele>1274.6</ele>
        <time>2022-07-18T10:15:23Z</time>
      </trkpt>
      <trkpt lat="44.5665" lon="7.17664">
        <ele>1274.6</ele>
        <time>2022-07-18T10:15:24Z</time>
      </trkpt>
      <trkpt lat="44.56649" lon="7.17663">
        <ele>1275</ele>
        <time>2022-07-18T10:15:25Z</time>
      </trkpt>
      <trkpt lat="44.56648" lon="7.17661">
        <ele>1275</ele>
        <time>2022-07-18T10:15:26Z</time>
      </trkpt>
      <trkpt lat="44.56647" lon="7.17658">
        <ele>1275.2</ele>
        <time>2022-07-18T10:15:27Z</time>
      </trkpt>
      <trkpt lat="44.56646" lon="7.17656">
        <ele>1275.2</ele>
        <time>2022-07-18T10:15:28Z</time>
      </trkpt>
      <trkpt lat="44.56644" lon="7.17654">
        <ele>1275.6</ele>
        <time>2022-07-18T10:15:29Z</time>
      </trkpt>
      <trkpt lat="44.56643" lon="7.17653">
        <ele>1275.6</ele>
        <time>2022-07-18T10:15:30Z</time>
      </trkpt>
      <trkpt lat="44.56642" lon="7.17651">
        <ele>1275.8</ele>
        <time>2022-07-18T10:15:31Z</time>
      </trkpt>
      <trkpt lat="44.56642" lon="7.1765">
        <ele>1275.8</ele>
        <time>2022-07-18T10:15:32Z</time>
      </trkpt>
      <trkpt lat="44.5664" lon="7.17647">
        <ele>1276.2</ele>
        <time>2022-07-18T10:15:33Z</time>
      </trkpt>
      <trkpt lat="44.5664" lon="7.17645">
        <ele>1276.2</ele>
        <time>2022-07-18T10:15:34Z</time>
      </trkpt>
      <trkpt lat="44.56638" lon="7.17644">
        <ele>1276.6</ele>
        <time>2022-07-18T10:15:35Z</time>
      </trkpt>
      <trkpt lat="44.56637" lon="7.17642">
        <ele>1276.6</ele>
        <time>2022-07-18T10:15:36Z</time>
      </trkpt>
      <trkpt lat="44.56635" lon="7.17639">
        <ele>1276.8</ele>
        <time>2022-07-18T10:15:37Z</time>
      </trkpt>
      <trkpt lat="44.56634" lon="7.17637">
        <ele>1276.8</ele>
        <time>2022-07-18T10:15:38Z</time>
      </trkpt>
      <trkpt lat="44.56633" lon="7.17635">
        <ele>1277</ele>
        <time>2022-07-18T10:15:39Z</time>
      </trkpt>
      <trkpt lat="44.56632" lon="7.17634">
        <ele>1277</ele>
        <time>2022-07-18T10:15:40Z</time>
      </trkpt>
      <trkpt lat="44.56631" lon="7.17632">
        <ele>1277.4</ele>
        <time>2022-07-18T10:15:41Z</time>
      </trkpt>
      <trkpt lat="44.56631" lon="7.1763">
        <ele>1277.4</ele>
        <time>2022-07-18T10:15:42Z</time>
      </trkpt>
      <trkpt lat="44.5663" lon="7.17629">
        <ele>1277.6</ele>
        <time>2022-07-18T10:15:43Z</time>
      </trkpt>
      <trkpt lat="44.56629" lon="7.17628">
        <ele>1277.6</ele>
        <time>2022-07-18T10:15:44Z</time>
      </trkpt>
      <trkpt lat="44.56628" lon="7.17627">
        <ele>1278</ele>
        <time>2022-07-18T10:15:45Z</time>
      </trkpt>
      <trkpt lat="44.56628" lon="7.17626">
        <ele>1278</ele>
        <time>2022-07-18T10:15:46Z</time>
      </trkpt>
      <trkpt lat="44.56627" lon="7.17624">
        <ele>1278.4</ele>
        <time>2022-07-18T10:15:47Z</time>
      </trkpt>
      <trkpt lat="44.56626" lon="7.17621">
        <ele>1278.4</ele>
        <time>2022-07-18T10:15:48Z</time>
      </trkpt>
      <trkpt lat="44.56625" lon="7.17619">
        <ele>1278.6</ele>
        <time>2022-07-18T10:15:49Z</time>
      </trkpt>
      <trkpt lat="44.56623" lon="7.17617">
        <ele>1278.6</ele>
        <time>2022-07-18T10:15:50Z</time>
      </trkpt>
      <trkpt lat="44.56622" lon="7.17615">
        <ele>1278.8</ele>
        <time>2022-07-18T10:15:51Z</time>
      </trkpt>
      <trkpt lat="44.56621" lon="7.17613">
        <ele>1278.8</ele>
        <time>2022-07-18T10:15:52Z</time>
      </trkpt>
      <trkpt lat="44.5662" lon="7.17611">
        <ele>1279.2</ele>
        <time>2022-07-18T10:15:53Z</time>
      </trkpt>
      <trkpt lat="44.56619" lon="7.17609">
        <ele>1279.2</ele>
        <time>2022-07-18T10:15:54Z</time>
      </trkpt>
      <trkpt lat="44.56618" lon="7.17607">
        <ele>1279.4</ele>
        <time>2022-07-18T10:15:55Z</time>
      </trkpt>
      <trkpt lat="44.56617" lon="7.17605">
        <ele>1279.4</ele>
        <time>2022-07-18T10:15:56Z</time>
      </trkpt>
      <trkpt lat="44.56616" lon="7.17603">
        <ele>1279.6</ele>
        <time>2022-07-18T10:15:57Z</time>
      </trkpt>
      <trkpt lat="44.56615" lon="7.17601">
        <ele>1279.6</ele>
        <time>2022-07-18T10:15:58Z</time>
      </trkpt>
      <trkpt lat="44.56613" lon="7.176">
        <ele>1280</ele>
        <time>2022-07-18T10:15:59Z</time>
      </trkpt>
      <trkpt lat="44.56612" lon="7.17598">
        <ele>1280.2</ele>
        <time>2022-07-18T10:16:00Z</time>
      </trkpt>
      <trkpt lat="44.56611" lon="7.17596">
        <ele>1280.2</ele>
        <time>2022-07-18T10:16:01Z</time>
      </trkpt>
      <trkpt lat="44.5661" lon="7.17594">
        <ele>1280.4</ele>
        <time>2022-07-18T10:16:02Z</time>
      </trkpt>
      <trkpt lat="44.56609" lon="7.17592">
        <ele>1280.4</ele>
        <time>2022-07-18T10:16:03Z</time>
      </trkpt>
      <trkpt lat="44.56608" lon="7.1759">
        <ele>1280.8</ele>
        <time>2022-07-18T10:16:04Z</time>
      </trkpt>
      <trkpt lat="44.56607" lon="7.17587">
        <ele>1280.8</ele>
        <time>2022-07-18T10:16:05Z</time>
      </trkpt>
      <trkpt lat="44.56606" lon="7.17585">
        <ele>1281.2</ele>
        <time>2022-07-18T10:16:06Z</time>
      </trkpt>
      <trkpt lat="44.56605" lon="7.17583">
        <ele>1281.2</ele>
        <time>2022-07-18T10:16:07Z</time>
      </trkpt>
      <trkpt lat="44.56604" lon="7.17581">
        <ele>1281.6</ele>
        <time>2022-07-18T10:16:08Z</time>
      </trkpt>
      <trkpt lat="44.56603" lon="7.17579">
        <ele>1281.6</ele>
        <time>2022-07-18T10:16:09Z</time>
      </trkpt>
      <trkpt lat="44.56603" lon="7.17577">
        <ele>1282</ele>
        <time>2022-07-18T10:16:10Z</time>
      </trkpt>
      <trkpt lat="44.56602" lon="7.17575">
        <ele>1282</ele>
        <time>2022-07-18T10:16:11Z</time>
      </trkpt>
      <trkpt lat="44.56601" lon="7.17573">
        <ele>1282.2</ele>
        <time>2022-07-18T10:16:12Z</time>
      </trkpt>
      <trkpt lat="44.56601" lon="7.17571">
        <ele>1282.4</ele>
        <time>2022-07-18T10:16:13Z</time>
      </trkpt>
      <trkpt lat="44.566" lon="7.17569">
        <ele>1282.4</ele>
        <time>2022-07-18T10:16:14Z</time>
      </trkpt>
      <trkpt lat="44.566" lon="7.17567">
        <ele>1282.8</ele>
        <time>2022-07-18T10:16:15Z</time>
      </trkpt>
      <trkpt lat="44.56599" lon="7.17566">
        <ele>1282.8</ele>
        <time>2022-07-18T10:16:16Z</time>
      </trkpt>
      <trkpt lat="44.56598" lon="7.17564">
        <ele>1283.2</ele>
        <time>2022-07-18T10:16:17Z</time>
      </trkpt>
      <trkpt lat="44.56598" lon="7.17562">
        <ele>1283.2</ele>
        <time>2022-07-18T10:16:18Z</time>
      </trkpt>
      <trkpt lat="44.56597" lon="7.1756">
        <ele>1283.4</ele>
        <time>2022-07-18T10:16:19Z</time>
      </trkpt>
      <trkpt lat="44.56597" lon="7.17559">
        <ele>1283.6</ele>
        <time>2022-07-18T10:16:20Z</time>
      </trkpt>
      <trkpt lat="44.56596" lon="7.17557">
        <ele>1283.6</ele>
        <time>2022-07-18T10:16:21Z</time>
      </trkpt>
      <trkpt lat="44.56596" lon="7.17555">
        <ele>1284</ele>
        <time>2022-07-18T10:16:22Z</time>
      </trkpt>
      <trkpt lat="44.56596" lon="7.17553">
        <ele>1284</ele>
        <time>2022-07-18T10:16:23Z</time>
      </trkpt>
      <trkpt lat="44.56595" lon="7.17551">
        <ele>1284.4</ele>
        <time>2022-07-18T10:16:24Z</time>
      </trkpt>
      <trkpt lat="44.56595" lon="7.17549">
        <ele>1284.6</ele>
        <time>2022-07-18T10:16:25Z</time>
      </trkpt>
      <trkpt lat="44.56594" lon="7.17547">
        <ele>1284.6</ele>
        <time>2022-07-18T10:16:26Z</time>
      </trkpt>
      <trkpt lat="44.56594" lon="7.17545">
        <ele>1285</ele>
        <time>2022-07-18T10:16:27Z</time>
      </trkpt>
      <trkpt lat="44.56593" lon="7.17543">
        <ele>1285</ele>
        <time>2022-07-18T10:16:28Z</time>
      </trkpt>
      <trkpt lat="44.56593" lon="7.17541">
        <ele>1285.2</ele>
        <time>2022-07-18T10:16:29Z</time>
      </trkpt>
      <trkpt lat="44.56593" lon="7.17539">
        <ele>1285.6</ele>
        <time>2022-07-18T10:16:30Z</time>
      </trkpt>
      <trkpt lat="44.56593" lon="7.17537">
        <ele>1285.8</ele>
        <time>2022-07-18T10:16:31Z</time>
      </trkpt>
      <trkpt lat="44.56592" lon="7.17535">
        <ele>1286</ele>
        <time>2022-07-18T10:16:32Z</time>
      </trkpt>
      <trkpt lat="44.56592" lon="7.17533">
        <ele>1286</ele>
        <time>2022-07-18T10:16:33Z</time>
      </trkpt>
      <trkpt lat="44.56592" lon="7.1753">
        <ele>1286.4</ele>
        <time>2022-07-18T10:16:34Z</time>
      </trkpt>
      <trkpt lat="44.56592" lon="7.17528">
        <ele>1286.4</ele>
        <time>2022-07-18T10:16:35Z</time>
      </trkpt>
      <trkpt lat="44.56592" lon="7.17527">
        <ele>1286.6</ele>
        <time>2022-07-18T10:16:36Z</time>
      </trkpt>
      <trkpt lat="44.56592" lon="7.17525">
        <ele>1286.6</ele>
        <time>2022-07-18T10:16:37Z</time>
      </trkpt>
      <trkpt lat="44.56592" lon="7.17522">
        <ele>1287</ele>
        <time>2022-07-18T10:16:38Z</time>
      </trkpt>
      <trkpt lat="44.56592" lon="7.1752">
        <ele>1287</ele>
        <time>2022-07-18T10:16:39Z</time>
      </trkpt>
      <trkpt lat="44.56593" lon="7.17518">
        <ele>1287.4</ele>
        <time>2022-07-18T10:16:40Z</time>
      </trkpt>
      <trkpt lat="44.56593" lon="7.17515">
        <ele>1287.4</ele>
        <time>2022-07-18T10:16:41Z</time>
      </trkpt>
      <trkpt lat="44.56593" lon="7.17514">
        <ele>1287.6</ele>
        <time>2022-07-18T10:16:42Z</time>
      </trkpt>
      <trkpt lat="44.56593" lon="7.17512">
        <ele>1287.6</ele>
        <time>2022-07-18T10:16:43Z</time>
      </trkpt>
      <trkpt lat="44.56594" lon="7.1751">
        <ele>1288</ele>
        <time>2022-07-18T10:16:44Z</time>
      </trkpt>
      <trkpt lat="44.56593" lon="7.17508">
        <ele>1288</ele>
        <time>2022-07-18T10:16:45Z</time>
      </trkpt>
      <trkpt lat="44.56593" lon="7.17506">
        <ele>1288.2</ele>
        <time>2022-07-18T10:16:46Z</time>
      </trkpt>
      <trkpt lat="44.56592" lon="7.17503">
        <ele>1288.2</ele>
        <time>2022-07-18T10:16:47Z</time>
      </trkpt>
      <trkpt lat="44.56591" lon="7.17501">
        <ele>1288.4</ele>
        <time>2022-07-18T10:16:48Z</time>
      </trkpt>
      <trkpt lat="44.5659" lon="7.17499">
        <ele>1288.4</ele>
        <time>2022-07-18T10:16:49Z</time>
      </trkpt>
      <trkpt lat="44.5659" lon="7.17496">
        <ele>1288.8</ele>
        <time>2022-07-18T10:16:50Z</time>
      </trkpt>
      <trkpt lat="44.56589" lon="7.17494">
        <ele>1288.8</ele>
        <time>2022-07-18T10:16:51Z</time>
      </trkpt>
      <trkpt lat="44.56587" lon="7.17491">
        <ele>1289.2</ele>
        <time>2022-07-18T10:16:52Z</time>
      </trkpt>
      <trkpt lat="44.56586" lon="7.17489">
        <ele>1289.2</ele>
        <time>2022-07-18T10:16:53Z</time>
      </trkpt>
      <trkpt lat="44.56586" lon="7.17487">
        <ele>1289.4</ele>
        <time>2022-07-18T10:16:54Z</time>
      </trkpt>
      <trkpt lat="44.56585" lon="7.17485">
        <ele>1289.4</ele>
        <time>2022-07-18T10:16:55Z</time>
      </trkpt>
      <trkpt lat="44.56584" lon="7.17483">
        <ele>1289.6</ele>
        <time>2022-07-18T10:16:56Z</time>
      </trkpt>
      <trkpt lat="44.56583" lon="7.17481">
        <ele>1289.6</ele>
        <time>2022-07-18T10:16:57Z</time>
      </trkpt>
      <trkpt lat="44.56581" lon="7.17479">
        <ele>1289.6</ele>
        <time>2022-07-18T10:16:58Z</time>
      </trkpt>
      <trkpt lat="44.5658" lon="7.17477">
        <ele>1290</ele>
        <time>2022-07-18T10:16:59Z</time>
      </trkpt>
      <trkpt lat="44.56578" lon="7.17475">
        <ele>1290</ele>
        <time>2022-07-18T10:17:00Z</time>
      </trkpt>
      <trkpt lat="44.56576" lon="7.17474">
        <ele>1290.2</ele>
        <time>2022-07-18T10:17:01Z</time>
      </trkpt>
      <trkpt lat="44.56574" lon="7.17474">
        <ele>1290.2</ele>
        <time>2022-07-18T10:17:02Z</time>
      </trkpt>
      <trkpt lat="44.56572" lon="7.17473">
        <ele>1290.4</ele>
        <time>2022-07-18T10:17:03Z</time>
      </trkpt>
      <trkpt lat="44.56571" lon="7.17472">
        <ele>1290.4</ele>
        <time>2022-07-18T10:17:04Z</time>
      </trkpt>
      <trkpt lat="44.56569" lon="7.17471">
        <ele>1290.8</ele>
        <time>2022-07-18T10:17:05Z</time>
      </trkpt>
      <trkpt lat="44.56567" lon="7.17471">
        <ele>1290.8</ele>
        <time>2022-07-18T10:17:06Z</time>
      </trkpt>
      <trkpt lat="44.56566" lon="7.1747">
        <ele>1291.2</ele>
        <time>2022-07-18T10:17:07Z</time>
      </trkpt>
      <trkpt lat="44.56564" lon="7.1747">
        <ele>1291.2</ele>
        <time>2022-07-18T10:17:08Z</time>
      </trkpt>
      <trkpt lat="44.56563" lon="7.1747">
        <ele>1291.4</ele>
        <time>2022-07-18T10:17:09Z</time>
      </trkpt>
      <trkpt lat="44.56561" lon="7.17471">
        <ele>1291.4</ele>
        <time>2022-07-18T10:17:10Z</time>
      </trkpt>
      <trkpt lat="44.56559" lon="7.17472">
        <ele>1291.8</ele>
        <time>2022-07-18T10:17:11Z</time>
      </trkpt>
      <trkpt lat="44.56558" lon="7.17473">
        <ele>1291.8</ele>
        <time>2022-07-18T10:17:12Z</time>
      </trkpt>
      <trkpt lat="44.56556" lon="7.17474">
        <ele>1292</ele>
        <time>2022-07-18T10:17:13Z</time>
      </trkpt>
      <trkpt lat="44.56555" lon="7.17474">
        <ele>1292</ele>
        <time>2022-07-18T10:17:14Z</time>
      </trkpt>
      <trkpt lat="44.56553" lon="7.17476">
        <ele>1292.2</ele>
        <time>2022-07-18T10:17:15Z</time>
      </trkpt>
      <trkpt lat="44.56552" lon="7.17477">
        <ele>1292.2</ele>
        <time>2022-07-18T10:17:16Z</time>
      </trkpt>
      <trkpt lat="44.5655" lon="7.17478">
        <ele>1292.6</ele>
        <time>2022-07-18T10:17:17Z</time>
      </trkpt>
      <trkpt lat="44.56549" lon="7.17479">
        <ele>1292.6</ele>
        <time>2022-07-18T10:17:18Z</time>
      </trkpt>
      <trkpt lat="44.56547" lon="7.17481">
        <ele>1292.8</ele>
        <time>2022-07-18T10:17:19Z</time>
      </trkpt>
      <trkpt lat="44.56546" lon="7.17482">
        <ele>1292.8</ele>
        <time>2022-07-18T10:17:20Z</time>
      </trkpt>
      <trkpt lat="44.56544" lon="7.17482">
        <ele>1293.2</ele>
        <time>2022-07-18T10:17:21Z</time>
      </trkpt>
      <trkpt lat="44.56542" lon="7.17483">
        <ele>1293.2</ele>
        <time>2022-07-18T10:17:22Z</time>
      </trkpt>
      <trkpt lat="44.56541" lon="7.17484">
        <ele>1293.4</ele>
        <time>2022-07-18T10:17:23Z</time>
      </trkpt>
      <trkpt lat="44.56539" lon="7.17485">
        <ele>1293.8</ele>
        <time>2022-07-18T10:17:24Z</time>
      </trkpt>
      <trkpt lat="44.56537" lon="7.17486">
        <ele>1293.8</ele>
        <time>2022-07-18T10:17:25Z</time>
      </trkpt>
      <trkpt lat="44.56536" lon="7.17487">
        <ele>1294</ele>
        <time>2022-07-18T10:17:26Z</time>
      </trkpt>
      <trkpt lat="44.56535" lon="7.17488">
        <ele>1294</ele>
        <time>2022-07-18T10:17:27Z</time>
      </trkpt>
      <trkpt lat="44.56534" lon="7.17489">
        <ele>1294.4</ele>
        <time>2022-07-18T10:17:28Z</time>
      </trkpt>
      <trkpt lat="44.56532" lon="7.1749">
        <ele>1294.4</ele>
        <time>2022-07-18T10:17:29Z</time>
      </trkpt>
      <trkpt lat="44.56531" lon="7.17491">
        <ele>1294.6</ele>
        <time>2022-07-18T10:17:30Z</time>
      </trkpt>
      <trkpt lat="44.56529" lon="7.17492">
        <ele>1294.6</ele>
        <time>2022-07-18T10:17:31Z</time>
      </trkpt>
      <trkpt lat="44.56528" lon="7.17493">
        <ele>1295</ele>
        <time>2022-07-18T10:17:32Z</time>
      </trkpt>
      <trkpt lat="44.56526" lon="7.17494">
        <ele>1295</ele>
        <time>2022-07-18T10:17:33Z</time>
      </trkpt>
      <trkpt lat="44.56525" lon="7.17495">
        <ele>1295.2</ele>
        <time>2022-07-18T10:17:34Z</time>
      </trkpt>
      <trkpt lat="44.56523" lon="7.17497">
        <ele>1295.2</ele>
        <time>2022-07-18T10:17:35Z</time>
      </trkpt>
      <trkpt lat="44.56522" lon="7.17498">
        <ele>1295.6</ele>
        <time>2022-07-18T10:17:36Z</time>
      </trkpt>
      <trkpt lat="44.56521" lon="7.17499">
        <ele>1295.6</ele>
        <time>2022-07-18T10:17:37Z</time>
      </trkpt>
      <trkpt lat="44.56519" lon="7.17499">
        <ele>1295.8</ele>
        <time>2022-07-18T10:17:38Z</time>
      </trkpt>
      <trkpt lat="44.56517" lon="7.17501">
        <ele>1295.8</ele>
        <time>2022-07-18T10:17:39Z</time>
      </trkpt>
      <trkpt lat="44.56516" lon="7.17502">
        <ele>1296</ele>
        <time>2022-07-18T10:17:40Z</time>
      </trkpt>
      <trkpt lat="44.56515" lon="7.17503">
        <ele>1296</ele>
        <time>2022-07-18T10:17:41Z</time>
      </trkpt>
      <trkpt lat="44.56513" lon="7.17504">
        <ele>1296.4</ele>
        <time>2022-07-18T10:17:42Z</time>
      </trkpt>
      <trkpt lat="44.56511" lon="7.17505">
        <ele>1296.4</ele>
        <time>2022-07-18T10:17:43Z</time>
      </trkpt>
      <trkpt lat="44.5651" lon="7.17506">
        <ele>1296.6</ele>
        <time>2022-07-18T10:17:44Z</time>
      </trkpt>
      <trkpt lat="44.56509" lon="7.17508">
        <ele>1296.8</ele>
        <time>2022-07-18T10:17:45Z</time>
      </trkpt>
      <trkpt lat="44.56507" lon="7.17509">
        <ele>1296.8</ele>
        <time>2022-07-18T10:17:46Z</time>
      </trkpt>
      <trkpt lat="44.56506" lon="7.1751">
        <ele>1297.2</ele>
        <time>2022-07-18T10:17:47Z</time>
      </trkpt>
      <trkpt lat="44.56505" lon="7.17511">
        <ele>1297.2</ele>
        <time>2022-07-18T10:17:48Z</time>
      </trkpt>
      <trkpt lat="44.56503" lon="7.17511">
        <ele>1297.4</ele>
        <time>2022-07-18T10:17:49Z</time>
      </trkpt>
      <trkpt lat="44.56502" lon="7.17513">
        <ele>1297.6</ele>
        <time>2022-07-18T10:17:50Z</time>
      </trkpt>
      <trkpt lat="44.56501" lon="7.17514">
        <ele>1297.6</ele>
        <time>2022-07-18T10:17:51Z</time>
      </trkpt>
      <trkpt lat="44.56499" lon="7.17515">
        <ele>1298</ele>
        <time>2022-07-18T10:17:52Z</time>
      </trkpt>
      <trkpt lat="44.56498" lon="7.17516">
        <ele>1298</ele>
        <time>2022-07-18T10:17:53Z</time>
      </trkpt>
      <trkpt lat="44.56496" lon="7.17517">
        <ele>1298.4</ele>
        <time>2022-07-18T10:17:54Z</time>
      </trkpt>
      <trkpt lat="44.56495" lon="7.17518">
        <ele>1298.4</ele>
        <time>2022-07-18T10:17:55Z</time>
      </trkpt>
      <trkpt lat="44.56493" lon="7.17518">
        <ele>1298.8</ele>
        <time>2022-07-18T10:17:56Z</time>
      </trkpt>
      <trkpt lat="44.56492" lon="7.17519">
        <ele>1298.8</ele>
        <time>2022-07-18T10:17:57Z</time>
      </trkpt>
      <trkpt lat="44.5649" lon="7.1752">
        <ele>1299</ele>
        <time>2022-07-18T10:17:58Z</time>
      </trkpt>
      <trkpt lat="44.56489" lon="7.17521">
        <ele>1299</ele>
        <time>2022-07-18T10:17:59Z</time>
      </trkpt>
      <trkpt lat="44.56488" lon="7.17522">
        <ele>1299.4</ele>
        <time>2022-07-18T10:18:00Z</time>
      </trkpt>
      <trkpt lat="44.56486" lon="7.17523">
        <ele>1299.4</ele>
        <time>2022-07-18T10:18:01Z</time>
      </trkpt>
      <trkpt lat="44.56485" lon="7.17524">
        <ele>1299.6</ele>
        <time>2022-07-18T10:18:02Z</time>
      </trkpt>
      <trkpt lat="44.56484" lon="7.17525">
        <ele>1299.6</ele>
        <time>2022-07-18T10:18:03Z</time>
      </trkpt>
      <trkpt lat="44.56482" lon="7.17526">
        <ele>1300</ele>
        <time>2022-07-18T10:18:04Z</time>
      </trkpt>
      <trkpt lat="44.5648" lon="7.17527">
        <ele>1300</ele>
        <time>2022-07-18T10:18:05Z</time>
      </trkpt>
      <trkpt lat="44.56478" lon="7.17529">
        <ele>1300.4</ele>
        <time>2022-07-18T10:18:06Z</time>
      </trkpt>
      <trkpt lat="44.56476" lon="7.1753">
        <ele>1300.4</ele>
        <time>2022-07-18T10:18:07Z</time>
      </trkpt>
      <trkpt lat="44.56474" lon="7.17531">
        <ele>1300.6</ele>
        <time>2022-07-18T10:18:08Z</time>
      </trkpt>
      <trkpt lat="44.56472" lon="7.17532">
        <ele>1300.6</ele>
        <time>2022-07-18T10:18:09Z</time>
      </trkpt>
      <trkpt lat="44.56471" lon="7.17534">
        <ele>1301</ele>
        <time>2022-07-18T10:18:10Z</time>
      </trkpt>
      <trkpt lat="44.5647" lon="7.17536">
        <ele>1301.2</ele>
        <time>2022-07-18T10:18:11Z</time>
      </trkpt>
      <trkpt lat="44.56468" lon="7.17537">
        <ele>1301.4</ele>
        <time>2022-07-18T10:18:12Z</time>
      </trkpt>
      <trkpt lat="44.56467" lon="7.17539">
        <ele>1301.4</ele>
        <time>2022-07-18T10:18:13Z</time>
      </trkpt>
      <trkpt lat="44.56465" lon="7.1754">
        <ele>1301.8</ele>
        <time>2022-07-18T10:18:14Z</time>
      </trkpt>
      <trkpt lat="44.56464" lon="7.17542">
        <ele>1301.8</ele>
        <time>2022-07-18T10:18:15Z</time>
      </trkpt>
      <trkpt lat="44.56462" lon="7.17543">
        <ele>1302</ele>
        <time>2022-07-18T10:18:16Z</time>
      </trkpt>
      <trkpt lat="44.56461" lon="7.17544">
        <ele>1302</ele>
        <time>2022-07-18T10:18:17Z</time>
      </trkpt>
      <trkpt lat="44.5646" lon="7.17546">
        <ele>1302.4</ele>
        <time>2022-07-18T10:18:18Z</time>
      </trkpt>
      <trkpt lat="44.56459" lon="7.17548">
        <ele>1302.4</ele>
        <time>2022-07-18T10:18:19Z</time>
      </trkpt>
      <trkpt lat="44.56458" lon="7.17549">
        <ele>1302.8</ele>
        <time>2022-07-18T10:18:20Z</time>
      </trkpt>
      <trkpt lat="44.56457" lon="7.17551">
        <ele>1303</ele>
        <time>2022-07-18T10:18:21Z</time>
      </trkpt>
      <trkpt lat="44.56455" lon="7.17553">
        <ele>1303</ele>
        <time>2022-07-18T10:18:22Z</time>
      </trkpt>
      <trkpt lat="44.56454" lon="7.17554">
        <ele>1303.2</ele>
        <time>2022-07-18T10:18:23Z</time>
      </trkpt>
      <trkpt lat="44.56452" lon="7.17555">
        <ele>1303.2</ele>
        <time>2022-07-18T10:18:24Z</time>
      </trkpt>
      <trkpt lat="44.56451" lon="7.17556">
        <ele>1303.6</ele>
        <time>2022-07-18T10:18:25Z</time>
      </trkpt>
      <trkpt lat="44.56449" lon="7.17557">
        <ele>1303.6</ele>
        <time>2022-07-18T10:18:26Z</time>
      </trkpt>
      <trkpt lat="44.56447" lon="7.17558">
        <ele>1304</ele>
        <time>2022-07-18T10:18:27Z</time>
      </trkpt>
      <trkpt lat="44.56445" lon="7.17559">
        <ele>1304</ele>
        <time>2022-07-18T10:18:28Z</time>
      </trkpt>
      <trkpt lat="44.56444" lon="7.17561">
        <ele>1304.2</ele>
        <time>2022-07-18T10:18:29Z</time>
      </trkpt>
      <trkpt lat="44.56442" lon="7.17562">
        <ele>1304.2</ele>
        <time>2022-07-18T10:18:30Z</time>
      </trkpt>
      <trkpt lat="44.56441" lon="7.17564">
        <ele>1304.6</ele>
        <time>2022-07-18T10:18:31Z</time>
      </trkpt>
      <trkpt lat="44.56439" lon="7.17565">
        <ele>1304.8</ele>
        <time>2022-07-18T10:18:32Z</time>
      </trkpt>
      <trkpt lat="44.56437" lon="7.17567">
        <ele>1304.8</ele>
        <time>2022-07-18T10:18:33Z</time>
      </trkpt>
      <trkpt lat="44.56436" lon="7.17568">
        <ele>1305.2</ele>
        <time>2022-07-18T10:18:34Z</time>
      </trkpt>
      <trkpt lat="44.56434" lon="7.17569">
        <ele>1305.2</ele>
        <time>2022-07-18T10:18:35Z</time>
      </trkpt>
      <trkpt lat="44.56433" lon="7.17571">
        <ele>1305.6</ele>
        <time>2022-07-18T10:18:36Z</time>
      </trkpt>
      <trkpt lat="44.56432" lon="7.17572">
        <ele>1305.8</ele>
        <time>2022-07-18T10:18:37Z</time>
      </trkpt>
      <trkpt lat="44.5643" lon="7.17573">
        <ele>1305.8</ele>
        <time>2022-07-18T10:18:38Z</time>
      </trkpt>
      <trkpt lat="44.56428" lon="7.17573">
        <ele>1306.2</ele>
        <time>2022-07-18T10:18:39Z</time>
      </trkpt>
      <trkpt lat="44.56426" lon="7.17574">
        <ele>1306.6</ele>
        <time>2022-07-18T10:18:41Z</time>
      </trkpt>
      <trkpt lat="44.56424" lon="7.17574">
        <ele>1306.6</ele>
        <time>2022-07-18T10:18:42Z</time>
      </trkpt>
      <trkpt lat="44.56423" lon="7.17574">
        <ele>1307</ele>
        <time>2022-07-18T10:18:43Z</time>
      </trkpt>
      <trkpt lat="44.56421" lon="7.17575">
        <ele>1307</ele>
        <time>2022-07-18T10:18:44Z</time>
      </trkpt>
      <trkpt lat="44.56419" lon="7.17575">
        <ele>1307.2</ele>
        <time>2022-07-18T10:18:45Z</time>
      </trkpt>
      <trkpt lat="44.56417" lon="7.17576">
        <ele>1307.6</ele>
        <time>2022-07-18T10:18:46Z</time>
      </trkpt>
      <trkpt lat="44.56415" lon="7.17576">
        <ele>1307.6</ele>
        <time>2022-07-18T10:18:47Z</time>
      </trkpt>
      <trkpt lat="44.56414" lon="7.17577">
        <ele>1307.8</ele>
        <time>2022-07-18T10:18:48Z</time>
      </trkpt>
      <trkpt lat="44.56412" lon="7.17578">
        <ele>1307.8</ele>
        <time>2022-07-18T10:18:49Z</time>
      </trkpt>
      <trkpt lat="44.5641" lon="7.17579">
        <ele>1308.2</ele>
        <time>2022-07-18T10:18:50Z</time>
      </trkpt>
      <trkpt lat="44.56409" lon="7.1758">
        <ele>1308.2</ele>
        <time>2022-07-18T10:18:51Z</time>
      </trkpt>
      <trkpt lat="44.56406" lon="7.17581">
        <ele>1308.6</ele>
        <time>2022-07-18T10:18:52Z</time>
      </trkpt>
      <trkpt lat="44.56404" lon="7.17581">
        <ele>1308.6</ele>
        <time>2022-07-18T10:18:53Z</time>
      </trkpt>
      <trkpt lat="44.56402" lon="7.17582">
        <ele>1308.8</ele>
        <time>2022-07-18T10:18:54Z</time>
      </trkpt>
      <trkpt lat="44.564" lon="7.17583">
        <ele>1308.8</ele>
        <time>2022-07-18T10:18:55Z</time>
      </trkpt>
      <trkpt lat="44.56398" lon="7.17584">
        <ele>1309.2</ele>
        <time>2022-07-18T10:18:56Z</time>
      </trkpt>
      <trkpt lat="44.56396" lon="7.17585">
        <ele>1309.4</ele>
        <time>2022-07-18T10:18:57Z</time>
      </trkpt>
      <trkpt lat="44.56394" lon="7.17586">
        <ele>1309.4</ele>
        <time>2022-07-18T10:18:58Z</time>
      </trkpt>
      <trkpt lat="44.56393" lon="7.17587">
        <ele>1309.8</ele>
        <time>2022-07-18T10:18:59Z</time>
      </trkpt>
      <trkpt lat="44.56391" lon="7.17587">
        <ele>1309.8</ele>
        <time>2022-07-18T10:19:00Z</time>
      </trkpt>
      <trkpt lat="44.56389" lon="7.17588">
        <ele>1310.2</ele>
        <time>2022-07-18T10:19:01Z</time>
      </trkpt>
      <trkpt lat="44.56387" lon="7.17588">
        <ele>1310.4</ele>
        <time>2022-07-18T10:19:02Z</time>
      </trkpt>
      <trkpt lat="44.56385" lon="7.17589">
        <ele>1310.4</ele>
        <time>2022-07-18T10:19:03Z</time>
      </trkpt>
      <trkpt lat="44.56384" lon="7.1759">
        <ele>1310.8</ele>
        <time>2022-07-18T10:19:04Z</time>
      </trkpt>
      <trkpt lat="44.56382" lon="7.17591">
        <ele>1310.8</ele>
        <time>2022-07-18T10:19:05Z</time>
      </trkpt>
      <trkpt lat="44.56381" lon="7.17592">
        <ele>1310.8</ele>
        <time>2022-07-18T10:19:06Z</time>
      </trkpt>
      <trkpt lat="44.56379" lon="7.17592">
        <ele>1311.2</ele>
        <time>2022-07-18T10:19:07Z</time>
      </trkpt>
      <trkpt lat="44.56377" lon="7.17592">
        <ele>1311.2</ele>
        <time>2022-07-18T10:19:08Z</time>
      </trkpt>
      <trkpt lat="44.56375" lon="7.17593">
        <ele>1311.6</ele>
        <time>2022-07-18T10:19:09Z</time>
      </trkpt>
      <trkpt lat="44.56373" lon="7.17593">
        <ele>1311.6</ele>
        <time>2022-07-18T10:19:10Z</time>
      </trkpt>
      <trkpt lat="44.56372" lon="7.17594">
        <ele>1311.8</ele>
        <time>2022-07-18T10:19:11Z</time>
      </trkpt>
      <trkpt lat="44.56371" lon="7.17595">
        <ele>1312</ele>
        <time>2022-07-18T10:19:12Z</time>
      </trkpt>
      <trkpt lat="44.56369" lon="7.17596">
        <ele>1312</ele>
        <time>2022-07-18T10:19:13Z</time>
      </trkpt>
      <trkpt lat="44.56367" lon="7.17596">
        <ele>1312.2</ele>
        <time>2022-07-18T10:19:14Z</time>
      </trkpt>
      <trkpt lat="44.56365" lon="7.17596">
        <ele>1312.2</ele>
        <time>2022-07-18T10:19:15Z</time>
      </trkpt>
      <trkpt lat="44.56364" lon="7.17596">
        <ele>1312.6</ele>
        <time>2022-07-18T10:19:16Z</time>
      </trkpt>
      <trkpt lat="44.56362" lon="7.17596">
        <ele>1312.8</ele>
        <time>2022-07-18T10:19:17Z</time>
      </trkpt>
      <trkpt lat="44.56359" lon="7.17596">
        <ele>1312.8</ele>
        <time>2022-07-18T10:19:18Z</time>
      </trkpt>
      <trkpt lat="44.56357" lon="7.17596">
        <ele>1313.2</ele>
        <time>2022-07-18T10:19:19Z</time>
      </trkpt>
      <trkpt lat="44.56355" lon="7.17597">
        <ele>1313.2</ele>
        <time>2022-07-18T10:19:20Z</time>
      </trkpt>
      <trkpt lat="44.56353" lon="7.17596">
        <ele>1313.4</ele>
        <time>2022-07-18T10:19:21Z</time>
      </trkpt>
      <trkpt lat="44.56352" lon="7.17597">
        <ele>1313.4</ele>
        <time>2022-07-18T10:19:22Z</time>
      </trkpt>
      <trkpt lat="44.5635" lon="7.17596">
        <ele>1313.8</ele>
        <time>2022-07-18T10:19:23Z</time>
      </trkpt>
      <trkpt lat="44.56348" lon="7.17597">
        <ele>1314</ele>
        <time>2022-07-18T10:19:24Z</time>
      </trkpt>
      <trkpt lat="44.56346" lon="7.17597">
        <ele>1314</ele>
        <time>2022-07-18T10:19:25Z</time>
      </trkpt>
      <trkpt lat="44.56345" lon="7.17597">
        <ele>1314.4</ele>
        <time>2022-07-18T10:19:26Z</time>
      </trkpt>
      <trkpt lat="44.56343" lon="7.17598">
        <ele>1314.4</ele>
        <time>2022-07-18T10:19:27Z</time>
      </trkpt>
      <trkpt lat="44.56342" lon="7.17598">
        <ele>1314.8</ele>
        <time>2022-07-18T10:19:28Z</time>
      </trkpt>
      <trkpt lat="44.56341" lon="7.17598">
        <ele>1314.8</ele>
        <time>2022-07-18T10:19:29Z</time>
      </trkpt>
      <trkpt lat="44.56339" lon="7.17598">
        <ele>1315</ele>
        <time>2022-07-18T10:19:30Z</time>
      </trkpt>
      <trkpt lat="44.56338" lon="7.17598">
        <ele>1315</ele>
        <time>2022-07-18T10:19:31Z</time>
      </trkpt>
      <trkpt lat="44.56337" lon="7.17597">
        <ele>1315.4</ele>
        <time>2022-07-18T10:19:32Z</time>
      </trkpt>
      <trkpt lat="44.56335" lon="7.17597">
        <ele>1315.4</ele>
        <time>2022-07-18T10:19:33Z</time>
      </trkpt>
      <trkpt lat="44.56333" lon="7.17596">
        <ele>1315.6</ele>
        <time>2022-07-18T10:19:34Z</time>
      </trkpt>
      <trkpt lat="44.56332" lon="7.17596">
        <ele>1315.8</ele>
        <time>2022-07-18T10:19:35Z</time>
      </trkpt>
      <trkpt lat="44.5633" lon="7.17596">
        <ele>1316</ele>
        <time>2022-07-18T10:19:36Z</time>
      </trkpt>
      <trkpt lat="44.56329" lon="7.17596">
        <ele>1316</ele>
        <time>2022-07-18T10:19:37Z</time>
      </trkpt>
      <trkpt lat="44.56327" lon="7.17596">
        <ele>1316.4</ele>
        <time>2022-07-18T10:19:38Z</time>
      </trkpt>
      <trkpt lat="44.56326" lon="7.17596">
        <ele>1316.4</ele>
        <time>2022-07-18T10:19:39Z</time>
      </trkpt>
      <trkpt lat="44.56324" lon="7.17595">
        <ele>1316.8</ele>
        <time>2022-07-18T10:19:40Z</time>
      </trkpt>
      <trkpt lat="44.56322" lon="7.17595">
        <ele>1316.8</ele>
        <time>2022-07-18T10:19:41Z</time>
      </trkpt>
      <trkpt lat="44.5632" lon="7.17595">
        <ele>1317.2</ele>
        <time>2022-07-18T10:19:42Z</time>
      </trkpt>
      <trkpt lat="44.56318" lon="7.17594">
        <ele>1317.2</ele>
        <time>2022-07-18T10:19:43Z</time>
      </trkpt>
      <trkpt lat="44.56317" lon="7.17593">
        <ele>1317.2</ele>
        <time>2022-07-18T10:19:44Z</time>
      </trkpt>
      <trkpt lat="44.56315" lon="7.17593">
        <ele>1317.4</ele>
        <time>2022-07-18T10:19:45Z</time>
      </trkpt>
      <trkpt lat="44.56313" lon="7.17593">
        <ele>1317.6</ele>
        <time>2022-07-18T10:19:46Z</time>
      </trkpt>
      <trkpt lat="44.56311" lon="7.17592">
        <ele>1317.6</ele>
        <time>2022-07-18T10:19:47Z</time>
      </trkpt>
      <trkpt lat="44.56309" lon="7.17592">
        <ele>1318</ele>
        <time>2022-07-18T10:19:48Z</time>
      </trkpt>
      <trkpt lat="44.56307" lon="7.17591">
        <ele>1318</ele>
        <time>2022-07-18T10:19:49Z</time>
      </trkpt>
      <trkpt lat="44.56306" lon="7.1759">
        <ele>1318.2</ele>
        <time>2022-07-18T10:19:50Z</time>
      </trkpt>
      <trkpt lat="44.56305" lon="7.17589">
        <ele>1318.2</ele>
        <time>2022-07-18T10:19:51Z</time>
      </trkpt>
      <trkpt lat="44.56303" lon="7.17588">
        <ele>1318.6</ele>
        <time>2022-07-18T10:19:52Z</time>
      </trkpt>
      <trkpt lat="44.56302" lon="7.17587">
        <ele>1318.6</ele>
        <time>2022-07-18T10:19:53Z</time>
      </trkpt>
      <trkpt lat="44.56301" lon="7.17586">
        <ele>1319</ele>
        <time>2022-07-18T10:19:54Z</time>
      </trkpt>
      <trkpt lat="44.56299" lon="7.17585">
        <ele>1319</ele>
        <time>2022-07-18T10:19:55Z</time>
      </trkpt>
      <trkpt lat="44.56298" lon="7.17585">
        <ele>1319.2</ele>
        <time>2022-07-18T10:19:56Z</time>
      </trkpt>
      <trkpt lat="44.56296" lon="7.17584">
        <ele>1319.6</ele>
        <time>2022-07-18T10:19:57Z</time>
      </trkpt>
      <trkpt lat="44.56295" lon="7.17583">
        <ele>1319.6</ele>
        <time>2022-07-18T10:19:58Z</time>
      </trkpt>
      <trkpt lat="44.56293" lon="7.17583">
        <ele>1319.8</ele>
        <time>2022-07-18T10:19:59Z</time>
      </trkpt>
      <trkpt lat="44.56292" lon="7.17582">
        <ele>1320</ele>
        <time>2022-07-18T10:20:00Z</time>
      </trkpt>
      <trkpt lat="44.56291" lon="7.17581">
        <ele>1320</ele>
        <time>2022-07-18T10:20:01Z</time>
      </trkpt>
      <trkpt lat="44.5629" lon="7.1758">
        <ele>1320.4</ele>
        <time>2022-07-18T10:20:02Z</time>
      </trkpt>
      <trkpt lat="44.56288" lon="7.1758">
        <ele>1320.4</ele>
        <time>2022-07-18T10:20:03Z</time>
      </trkpt>
      <trkpt lat="44.56287" lon="7.17579">
        <ele>1320.8</ele>
        <time>2022-07-18T10:20:04Z</time>
      </trkpt>
      <trkpt lat="44.56285" lon="7.17579">
        <ele>1320.8</ele>
        <time>2022-07-18T10:20:05Z</time>
      </trkpt>
      <trkpt lat="44.56284" lon="7.17579">
        <ele>1321.2</ele>
        <time>2022-07-18T10:20:06Z</time>
      </trkpt>
      <trkpt lat="44.56283" lon="7.17579">
        <ele>1321.2</ele>
        <time>2022-07-18T10:20:07Z</time>
      </trkpt>
      <trkpt lat="44.56282" lon="7.17579">
        <ele>1321.6</ele>
        <time>2022-07-18T10:20:08Z</time>
      </trkpt>
      <trkpt lat="44.5628" lon="7.17578">
        <ele>1321.8</ele>
        <time>2022-07-18T10:20:09Z</time>
      </trkpt>
      <trkpt lat="44.56278" lon="7.17576">
        <ele>1321.8</ele>
        <time>2022-07-18T10:20:10Z</time>
      </trkpt>
      <trkpt lat="44.56277" lon="7.17574">
        <ele>1322.2</ele>
        <time>2022-07-18T10:20:11Z</time>
      </trkpt>
      <trkpt lat="44.56276" lon="7.17572">
        <ele>1322.2</ele>
        <time>2022-07-18T10:20:12Z</time>
      </trkpt>
      <trkpt lat="44.56275" lon="7.17571">
        <ele>1322.6</ele>
        <time>2022-07-18T10:20:13Z</time>
      </trkpt>
      <trkpt lat="44.56274" lon="7.17569">
        <ele>1322.6</ele>
        <time>2022-07-18T10:20:14Z</time>
      </trkpt>
      <trkpt lat="44.56272" lon="7.17567">
        <ele>1322.8</ele>
        <time>2022-07-18T10:20:15Z</time>
      </trkpt>
      <trkpt lat="44.56271" lon="7.17565">
        <ele>1322.8</ele>
        <time>2022-07-18T10:20:16Z</time>
      </trkpt>
      <trkpt lat="44.56269" lon="7.17562">
        <ele>1323.2</ele>
        <time>2022-07-18T10:20:17Z</time>
      </trkpt>
      <trkpt lat="44.56268" lon="7.1756">
        <ele>1323.2</ele>
        <time>2022-07-18T10:20:18Z</time>
      </trkpt>
      <trkpt lat="44.56267" lon="7.17558">
        <ele>1323.6</ele>
        <time>2022-07-18T10:20:19Z</time>
      </trkpt>
      <trkpt lat="44.56266" lon="7.17555">
        <ele>1323.8</ele>
        <time>2022-07-18T10:20:20Z</time>
      </trkpt>
      <trkpt lat="44.56265" lon="7.17553">
        <ele>1323.8</ele>
        <time>2022-07-18T10:20:21Z</time>
      </trkpt>
      <trkpt lat="44.56265" lon="7.17551">
        <ele>1324</ele>
        <time>2022-07-18T10:20:22Z</time>
      </trkpt>
      <trkpt lat="44.56265" lon="7.17549">
        <ele>1324</ele>
        <time>2022-07-18T10:20:23Z</time>
      </trkpt>
      <trkpt lat="44.56265" lon="7.17547">
        <ele>1324.4</ele>
        <time>2022-07-18T10:20:24Z</time>
      </trkpt>
      <trkpt lat="44.56265" lon="7.17544">
        <ele>1324.6</ele>
        <time>2022-07-18T10:20:25Z</time>
      </trkpt>
      <trkpt lat="44.56265" lon="7.17542">
        <ele>1324.6</ele>
        <time>2022-07-18T10:20:26Z</time>
      </trkpt>
      <trkpt lat="44.56265" lon="7.1754">
        <ele>1325</ele>
        <time>2022-07-18T10:20:27Z</time>
      </trkpt>
      <trkpt lat="44.56265" lon="7.17537">
        <ele>1325.2</ele>
        <time>2022-07-18T10:20:28Z</time>
      </trkpt>
      <trkpt lat="44.56265" lon="7.17535">
        <ele>1325.4</ele>
        <time>2022-07-18T10:20:29Z</time>
      </trkpt>
      <trkpt lat="44.56265" lon="7.17534">
        <ele>1325.4</ele>
        <time>2022-07-18T10:20:30Z</time>
      </trkpt>
      <trkpt lat="44.56264" lon="7.17531">
        <ele>1325.8</ele>
        <time>2022-07-18T10:20:31Z</time>
      </trkpt>
      <trkpt lat="44.56264" lon="7.17529">
        <ele>1325.8</ele>
        <time>2022-07-18T10:20:32Z</time>
      </trkpt>
      <trkpt lat="44.56264" lon="7.17526">
        <ele>1326.2</ele>
        <time>2022-07-18T10:20:33Z</time>
      </trkpt>
      <trkpt lat="44.56263" lon="7.17523">
        <ele>1326.2</ele>
        <time>2022-07-18T10:20:34Z</time>
      </trkpt>
      <trkpt lat="44.56263" lon="7.1752">
        <ele>1326.4</ele>
        <time>2022-07-18T10:20:35Z</time>
      </trkpt>
      <trkpt lat="44.56262" lon="7.17518">
        <ele>1326.4</ele>
        <time>2022-07-18T10:20:36Z</time>
      </trkpt>
      <trkpt lat="44.56262" lon="7.17515">
        <ele>1326.8</ele>
        <time>2022-07-18T10:20:37Z</time>
      </trkpt>
      <trkpt lat="44.56261" lon="7.17512">
        <ele>1326.8</ele>
        <time>2022-07-18T10:20:38Z</time>
      </trkpt>
      <trkpt lat="44.56261" lon="7.1751">
        <ele>1327</ele>
        <time>2022-07-18T10:20:39Z</time>
      </trkpt>
      <trkpt lat="44.5626" lon="7.17508">
        <ele>1327</ele>
        <time>2022-07-18T10:20:40Z</time>
      </trkpt>
      <trkpt lat="44.56259" lon="7.17505">
        <ele>1327.4</ele>
        <time>2022-07-18T10:20:41Z</time>
      </trkpt>
      <trkpt lat="44.56259" lon="7.17503">
        <ele>1327.6</ele>
        <time>2022-07-18T10:20:42Z</time>
      </trkpt>
      <trkpt lat="44.56259" lon="7.17501">
        <ele>1327.6</ele>
        <time>2022-07-18T10:20:43Z</time>
      </trkpt>
      <trkpt lat="44.56259" lon="7.17499">
        <ele>1327.8</ele>
        <time>2022-07-18T10:20:44Z</time>
      </trkpt>
      <trkpt lat="44.56259" lon="7.17497">
        <ele>1327.8</ele>
        <time>2022-07-18T10:20:45Z</time>
      </trkpt>
      <trkpt lat="44.56258" lon="7.17495">
        <ele>1328.2</ele>
        <time>2022-07-18T10:20:46Z</time>
      </trkpt>
      <trkpt lat="44.56258" lon="7.17493">
        <ele>1328.4</ele>
        <time>2022-07-18T10:20:47Z</time>
      </trkpt>
      <trkpt lat="44.56257" lon="7.1749">
        <ele>1328.4</ele>
        <time>2022-07-18T10:20:48Z</time>
      </trkpt>
      <trkpt lat="44.56256" lon="7.17487">
        <ele>1328.6</ele>
        <time>2022-07-18T10:20:49Z</time>
      </trkpt>
      <trkpt lat="44.56256" lon="7.17485">
        <ele>1328.6</ele>
        <time>2022-07-18T10:20:50Z</time>
      </trkpt>
      <trkpt lat="44.56254" lon="7.17482">
        <ele>1329</ele>
        <time>2022-07-18T10:20:51Z</time>
      </trkpt>
      <trkpt lat="44.56254" lon="7.1748">
        <ele>1329</ele>
        <time>2022-07-18T10:20:52Z</time>
      </trkpt>
      <trkpt lat="44.56253" lon="7.17477">
        <ele>1329.2</ele>
        <time>2022-07-18T10:20:53Z</time>
      </trkpt>
      <trkpt lat="44.56252" lon="7.17474">
        <ele>1329.2</ele>
        <time>2022-07-18T10:20:54Z</time>
      </trkpt>
      <trkpt lat="44.56251" lon="7.17472">
        <ele>1329.4</ele>
        <time>2022-07-18T10:20:55Z</time>
      </trkpt>
      <trkpt lat="44.56251" lon="7.17469">
        <ele>1329.4</ele>
        <time>2022-07-18T10:20:56Z</time>
      </trkpt>
      <trkpt lat="44.56251" lon="7.17467">
        <ele>1329.8</ele>
        <time>2022-07-18T10:20:57Z</time>
      </trkpt>
      <trkpt lat="44.5625" lon="7.17465">
        <ele>1329.8</ele>
        <time>2022-07-18T10:20:58Z</time>
      </trkpt>
      <trkpt lat="44.5625" lon="7.17463">
        <ele>1330.2</ele>
        <time>2022-07-18T10:20:59Z</time>
      </trkpt>
      <trkpt lat="44.56249" lon="7.17461">
        <ele>1330.4</ele>
        <time>2022-07-18T10:21:00Z</time>
      </trkpt>
      <trkpt lat="44.56249" lon="7.17459">
        <ele>1330.4</ele>
        <time>2022-07-18T10:21:01Z</time>
      </trkpt>
      <trkpt lat="44.56249" lon="7.17456">
        <ele>1330.8</ele>
        <time>2022-07-18T10:21:02Z</time>
      </trkpt>
      <trkpt lat="44.56248" lon="7.17454">
        <ele>1330.8</ele>
        <time>2022-07-18T10:21:03Z</time>
      </trkpt>
      <trkpt lat="44.56248" lon="7.17452">
        <ele>1331</ele>
        <time>2022-07-18T10:21:04Z</time>
      </trkpt>
      <trkpt lat="44.56247" lon="7.1745">
        <ele>1331</ele>
        <time>2022-07-18T10:21:05Z</time>
      </trkpt>
      <trkpt lat="44.56247" lon="7.17448">
        <ele>1331.4</ele>
        <time>2022-07-18T10:21:06Z</time>
      </trkpt>
      <trkpt lat="44.56246" lon="7.17446">
        <ele>1331.4</ele>
        <time>2022-07-18T10:21:07Z</time>
      </trkpt>
      <trkpt lat="44.56246" lon="7.17444">
        <ele>1331.6</ele>
        <time>2022-07-18T10:21:08Z</time>
      </trkpt>
      <trkpt lat="44.56245" lon="7.17443">
        <ele>1331.8</ele>
        <time>2022-07-18T10:21:09Z</time>
      </trkpt>
      <trkpt lat="44.56245" lon="7.17441">
        <ele>1331.8</ele>
        <time>2022-07-18T10:21:10Z</time>
      </trkpt>
      <trkpt lat="44.56244" lon="7.17439">
        <ele>1332.2</ele>
        <time>2022-07-18T10:21:11Z</time>
      </trkpt>
      <trkpt lat="44.56243" lon="7.17437">
        <ele>1332.2</ele>
        <time>2022-07-18T10:21:12Z</time>
      </trkpt>
      <trkpt lat="44.56243" lon="7.17435">
        <ele>1332.6</ele>
        <time>2022-07-18T10:21:13Z</time>
      </trkpt>
      <trkpt lat="44.56243" lon="7.17433">
        <ele>1332.8</ele>
        <time>2022-07-18T10:21:14Z</time>
      </trkpt>
      <trkpt lat="44.56243" lon="7.17432">
        <ele>1332.8</ele>
        <time>2022-07-18T10:21:15Z</time>
      </trkpt>
      <trkpt lat="44.56242" lon="7.17429">
        <ele>1333</ele>
        <time>2022-07-18T10:21:16Z</time>
      </trkpt>
      <trkpt lat="44.56242" lon="7.17426">
        <ele>1333</ele>
        <time>2022-07-18T10:21:17Z</time>
      </trkpt>
      <trkpt lat="44.56241" lon="7.17424">
        <ele>1333.4</ele>
        <time>2022-07-18T10:21:18Z</time>
      </trkpt>
      <trkpt lat="44.56241" lon="7.17421">
        <ele>1333.4</ele>
        <time>2022-07-18T10:21:19Z</time>
      </trkpt>
      <trkpt lat="44.5624" lon="7.17419">
        <ele>1333.8</ele>
        <time>2022-07-18T10:21:20Z</time>
      </trkpt>
      <trkpt lat="44.5624" lon="7.17417">
        <ele>1334</ele>
        <time>2022-07-18T10:21:21Z</time>
      </trkpt>
      <trkpt lat="44.56239" lon="7.17415">
        <ele>1334</ele>
        <time>2022-07-18T10:21:22Z</time>
      </trkpt>
      <trkpt lat="44.56238" lon="7.17413">
        <ele>1334.2</ele>
        <time>2022-07-18T10:21:23Z</time>
      </trkpt>
      <trkpt lat="44.56238" lon="7.1741">
        <ele>1334.4</ele>
        <time>2022-07-18T10:21:24Z</time>
      </trkpt>
      <trkpt lat="44.56237" lon="7.17408">
        <ele>1334.6</ele>
        <time>2022-07-18T10:21:25Z</time>
      </trkpt>
      <trkpt lat="44.56237" lon="7.17406">
        <ele>1334.6</ele>
        <time>2022-07-18T10:21:26Z</time>
      </trkpt>
      <trkpt lat="44.56236" lon="7.17403">
        <ele>1335</ele>
        <time>2022-07-18T10:21:27Z</time>
      </trkpt>
      <trkpt lat="44.56235" lon="7.17401">
        <ele>1335.2</ele>
        <time>2022-07-18T10:21:28Z</time>
      </trkpt>
      <trkpt lat="44.56234" lon="7.17398">
        <ele>1335.2</ele>
        <time>2022-07-18T10:21:29Z</time>
      </trkpt>
      <trkpt lat="44.56234" lon="7.17396">
        <ele>1335.6</ele>
        <time>2022-07-18T10:21:30Z</time>
      </trkpt>
      <trkpt lat="44.56233" lon="7.17394">
        <ele>1335.8</ele>
        <time>2022-07-18T10:21:31Z</time>
      </trkpt>
      <trkpt lat="44.56233" lon="7.17392">
        <ele>1335.8</ele>
        <time>2022-07-18T10:21:32Z</time>
      </trkpt>
      <trkpt lat="44.56232" lon="7.1739">
        <ele>1336</ele>
        <time>2022-07-18T10:21:33Z</time>
      </trkpt>
      <trkpt lat="44.56232" lon="7.17388">
        <ele>1336</ele>
        <time>2022-07-18T10:21:34Z</time>
      </trkpt>
      <trkpt lat="44.56231" lon="7.17386">
        <ele>1336.4</ele>
        <time>2022-07-18T10:21:35Z</time>
      </trkpt>
      <trkpt lat="44.56231" lon="7.17384">
        <ele>1336.6</ele>
        <time>2022-07-18T10:21:36Z</time>
      </trkpt>
      <trkpt lat="44.5623" lon="7.17382">
        <ele>1336.8</ele>
        <time>2022-07-18T10:21:37Z</time>
      </trkpt>
      <trkpt lat="44.56229" lon="7.1738">
        <ele>1336.8</ele>
        <time>2022-07-18T10:21:38Z</time>
      </trkpt>
      <trkpt lat="44.56228" lon="7.17377">
        <ele>1337</ele>
        <time>2022-07-18T10:21:39Z</time>
      </trkpt>
      <trkpt lat="44.56227" lon="7.17375">
        <ele>1337</ele>
        <time>2022-07-18T10:21:40Z</time>
      </trkpt>
      <trkpt lat="44.56226" lon="7.17372">
        <ele>1337.4</ele>
        <time>2022-07-18T10:21:41Z</time>
      </trkpt>
      <trkpt lat="44.56226" lon="7.1737">
        <ele>1337.4</ele>
        <time>2022-07-18T10:21:42Z</time>
      </trkpt>
      <trkpt lat="44.56225" lon="7.17368">
        <ele>1337.6</ele>
        <time>2022-07-18T10:21:43Z</time>
      </trkpt>
      <trkpt lat="44.56223" lon="7.17364">
        <ele>1337.6</ele>
        <time>2022-07-18T10:21:44Z</time>
      </trkpt>
      <trkpt lat="44.56222" lon="7.17362">
        <ele>1338</ele>
        <time>2022-07-18T10:21:45Z</time>
      </trkpt>
      <trkpt lat="44.56221" lon="7.1736">
        <ele>1338</ele>
        <time>2022-07-18T10:21:46Z</time>
      </trkpt>
      <trkpt lat="44.56221" lon="7.17358">
        <ele>1338.2</ele>
        <time>2022-07-18T10:21:47Z</time>
      </trkpt>
      <trkpt lat="44.5622" lon="7.17355">
        <ele>1338.2</ele>
        <time>2022-07-18T10:21:48Z</time>
      </trkpt>
      <trkpt lat="44.56219" lon="7.17353">
        <ele>1338.8</ele>
        <time>2022-07-18T10:21:49Z</time>
      </trkpt>
      <trkpt lat="44.56219" lon="7.17351">
        <ele>1339</ele>
        <time>2022-07-18T10:21:50Z</time>
      </trkpt>
      <trkpt lat="44.56218" lon="7.17349">
        <ele>1339</ele>
        <time>2022-07-18T10:21:51Z</time>
      </trkpt>
      <trkpt lat="44.56216" lon="7.17347">
        <ele>1339.4</ele>
        <time>2022-07-18T10:21:52Z</time>
      </trkpt>
      <trkpt lat="44.56216" lon="7.17345">
        <ele>1339.6</ele>
        <time>2022-07-18T10:21:53Z</time>
      </trkpt>
      <trkpt lat="44.56215" lon="7.17343">
        <ele>1339.6</ele>
        <time>2022-07-18T10:21:54Z</time>
      </trkpt>
      <trkpt lat="44.56214" lon="7.17342">
        <ele>1339.8</ele>
        <time>2022-07-18T10:21:55Z</time>
      </trkpt>
      <trkpt lat="44.56213" lon="7.1734">
        <ele>1339.8</ele>
        <time>2022-07-18T10:21:56Z</time>
      </trkpt>
      <trkpt lat="44.56212" lon="7.17338">
        <ele>1340.2</ele>
        <time>2022-07-18T10:21:57Z</time>
      </trkpt>
      <trkpt lat="44.56211" lon="7.17336">
        <ele>1340.4</ele>
        <time>2022-07-18T10:21:58Z</time>
      </trkpt>
      <trkpt lat="44.56211" lon="7.17333">
        <ele>1340.6</ele>
        <time>2022-07-18T10:21:59Z</time>
      </trkpt>
      <trkpt lat="44.5621" lon="7.17332">
        <ele>1340.6</ele>
        <time>2022-07-18T10:22:00Z</time>
      </trkpt>
      <trkpt lat="44.5621" lon="7.1733">
        <ele>1341</ele>
        <time>2022-07-18T10:22:01Z</time>
      </trkpt>
      <trkpt lat="44.56209" lon="7.17328">
        <ele>1341</ele>
        <time>2022-07-18T10:22:02Z</time>
      </trkpt>
      <trkpt lat="44.56208" lon="7.17326">
        <ele>1341.2</ele>
        <time>2022-07-18T10:22:03Z</time>
      </trkpt>
      <trkpt lat="44.56207" lon="7.17324">
        <ele>1341.2</ele>
        <time>2022-07-18T10:22:04Z</time>
      </trkpt>
      <trkpt lat="44.56206" lon="7.17322">
        <ele>1341.6</ele>
        <time>2022-07-18T10:22:05Z</time>
      </trkpt>
      <trkpt lat="44.56205" lon="7.1732">
        <ele>1341.6</ele>
        <time>2022-07-18T10:22:06Z</time>
      </trkpt>
      <trkpt lat="44.56204" lon="7.17318">
        <ele>1342</ele>
        <time>2022-07-18T10:22:07Z</time>
      </trkpt>
      <trkpt lat="44.56203" lon="7.17316">
        <ele>1342</ele>
        <time>2022-07-18T10:22:08Z</time>
      </trkpt>
      <trkpt lat="44.56202" lon="7.17314">
        <ele>1342.2</ele>
        <time>2022-07-18T10:22:09Z</time>
      </trkpt>
      <trkpt lat="44.56201" lon="7.17312">
        <ele>1342.2</ele>
        <time>2022-07-18T10:22:10Z</time>
      </trkpt>
      <trkpt lat="44.56201" lon="7.17309">
        <ele>1342.4</ele>
        <time>2022-07-18T10:22:11Z</time>
      </trkpt>
      <trkpt lat="44.562" lon="7.17307">
        <ele>1342.4</ele>
        <time>2022-07-18T10:22:12Z</time>
      </trkpt>
      <trkpt lat="44.56199" lon="7.17305">
        <ele>1342.8</ele>
        <time>2022-07-18T10:22:13Z</time>
      </trkpt>
      <trkpt lat="44.56198" lon="7.17303">
        <ele>1342.8</ele>
        <time>2022-07-18T10:22:14Z</time>
      </trkpt>
      <trkpt lat="44.56197" lon="7.17301">
        <ele>1343.2</ele>
        <time>2022-07-18T10:22:15Z</time>
      </trkpt>
      <trkpt lat="44.56196" lon="7.17299">
        <ele>1343.2</ele>
        <time>2022-07-18T10:22:16Z</time>
      </trkpt>
      <trkpt lat="44.56195" lon="7.17296">
        <ele>1343.4</ele>
        <time>2022-07-18T10:22:17Z</time>
      </trkpt>
      <trkpt lat="44.56194" lon="7.17294">
        <ele>1343.4</ele>
        <time>2022-07-18T10:22:18Z</time>
      </trkpt>
      <trkpt lat="44.56193" lon="7.17292">
        <ele>1343.4</ele>
        <time>2022-07-18T10:22:19Z</time>
      </trkpt>
      <trkpt lat="44.56192" lon="7.1729">
        <ele>1343.8</ele>
        <time>2022-07-18T10:22:20Z</time>
      </trkpt>
      <trkpt lat="44.56191" lon="7.17287">
        <ele>1343.8</ele>
        <time>2022-07-18T10:22:21Z</time>
      </trkpt>
      <trkpt lat="44.5619" lon="7.17285">
        <ele>1344</ele>
        <time>2022-07-18T10:22:22Z</time>
      </trkpt>
      <trkpt lat="44.56189" lon="7.17283">
        <ele>1344</ele>
        <time>2022-07-18T10:22:23Z</time>
      </trkpt>
      <trkpt lat="44.56188" lon="7.1728">
        <ele>1344.4</ele>
        <time>2022-07-18T10:22:24Z</time>
      </trkpt>
      <trkpt lat="44.56187" lon="7.17278">
        <ele>1344.4</ele>
        <time>2022-07-18T10:22:25Z</time>
      </trkpt>
      <trkpt lat="44.56185" lon="7.17275">
        <ele>1344.6</ele>
        <time>2022-07-18T10:22:26Z</time>
      </trkpt>
      <trkpt lat="44.56184" lon="7.17273">
        <ele>1344.6</ele>
        <time>2022-07-18T10:22:27Z</time>
      </trkpt>
      <trkpt lat="44.56183" lon="7.17271">
        <ele>1344.8</ele>
        <time>2022-07-18T10:22:28Z</time>
      </trkpt>
      <trkpt lat="44.56182" lon="7.17269">
        <ele>1344.8</ele>
        <time>2022-07-18T10:22:29Z</time>
      </trkpt>
      <trkpt lat="44.56181" lon="7.17266">
        <ele>1345.2</ele>
        <time>2022-07-18T10:22:30Z</time>
      </trkpt>
      <trkpt lat="44.5618" lon="7.17264">
        <ele>1345.2</ele>
        <time>2022-07-18T10:22:31Z</time>
      </trkpt>
      <trkpt lat="44.56179" lon="7.17262">
        <ele>1345.4</ele>
        <time>2022-07-18T10:22:32Z</time>
      </trkpt>
      <trkpt lat="44.56178" lon="7.1726">
        <ele>1345.4</ele>
        <time>2022-07-18T10:22:33Z</time>
      </trkpt>
      <trkpt lat="44.56177" lon="7.17257">
        <ele>1345.8</ele>
        <time>2022-07-18T10:22:34Z</time>
      </trkpt>
      <trkpt lat="44.56177" lon="7.17255">
        <ele>1345.8</ele>
        <time>2022-07-18T10:22:35Z</time>
      </trkpt>
      <trkpt lat="44.56176" lon="7.17253">
        <ele>1346.2</ele>
        <time>2022-07-18T10:22:36Z</time>
      </trkpt>
      <trkpt lat="44.56175" lon="7.17251">
        <ele>1346.2</ele>
        <time>2022-07-18T10:22:37Z</time>
      </trkpt>
      <trkpt lat="44.56175" lon="7.17249">
        <ele>1346.4</ele>
        <time>2022-07-18T10:22:38Z</time>
      </trkpt>
      <trkpt lat="44.56175" lon="7.17247">
        <ele>1346.4</ele>
        <time>2022-07-18T10:22:39Z</time>
      </trkpt>
      <trkpt lat="44.56175" lon="7.17245">
        <ele>1346.8</ele>
        <time>2022-07-18T10:22:40Z</time>
      </trkpt>
      <trkpt lat="44.56176" lon="7.17243">
        <ele>1347</ele>
        <time>2022-07-18T10:22:41Z</time>
      </trkpt>
      <trkpt lat="44.56176" lon="7.17241">
        <ele>1347</ele>
        <time>2022-07-18T10:22:42Z</time>
      </trkpt>
      <trkpt lat="44.56176" lon="7.17239">
        <ele>1347.4</ele>
        <time>2022-07-18T10:22:43Z</time>
      </trkpt>
      <trkpt lat="44.56177" lon="7.17237">
        <ele>1347.4</ele>
        <time>2022-07-18T10:22:44Z</time>
      </trkpt>
      <trkpt lat="44.56177" lon="7.17235">
        <ele>1347.6</ele>
        <time>2022-07-18T10:22:45Z</time>
      </trkpt>
      <trkpt lat="44.56178" lon="7.17233">
        <ele>1347.6</ele>
        <time>2022-07-18T10:22:46Z</time>
      </trkpt>
      <trkpt lat="44.56179" lon="7.17232">
        <ele>1348</ele>
        <time>2022-07-18T10:22:47Z</time>
      </trkpt>
      <trkpt lat="44.5618" lon="7.1723">
        <ele>1348</ele>
        <time>2022-07-18T10:22:48Z</time>
      </trkpt>
      <trkpt lat="44.56181" lon="7.17229">
        <ele>1348.4</ele>
        <time>2022-07-18T10:22:49Z</time>
      </trkpt>
      <trkpt lat="44.56183" lon="7.17227">
        <ele>1348.4</ele>
        <time>2022-07-18T10:22:50Z</time>
      </trkpt>
      <trkpt lat="44.56184" lon="7.17224">
        <ele>1348.4</ele>
        <time>2022-07-18T10:22:51Z</time>
      </trkpt>
      <trkpt lat="44.56185" lon="7.17222">
        <ele>1348.8</ele>
        <time>2022-07-18T10:22:52Z</time>
      </trkpt>
      <trkpt lat="44.56187" lon="7.1722">
        <ele>1348.8</ele>
        <time>2022-07-18T10:22:53Z</time>
      </trkpt>
      <trkpt lat="44.56188" lon="7.17218">
        <ele>1349.2</ele>
        <time>2022-07-18T10:22:54Z</time>
      </trkpt>
      <trkpt lat="44.5619" lon="7.17217">
        <ele>1349.4</ele>
        <time>2022-07-18T10:22:55Z</time>
      </trkpt>
      <trkpt lat="44.56191" lon="7.17215">
        <ele>1349.6</ele>
        <time>2022-07-18T10:22:56Z</time>
      </trkpt>
      <trkpt lat="44.56193" lon="7.17213">
        <ele>1349.8</ele>
        <time>2022-07-18T10:22:57Z</time>
      </trkpt>
      <trkpt lat="44.56195" lon="7.17212">
        <ele>1349.8</ele>
        <time>2022-07-18T10:22:58Z</time>
      </trkpt>
      <trkpt lat="44.56196" lon="7.1721">
        <ele>1350.2</ele>
        <time>2022-07-18T10:22:59Z</time>
      </trkpt>
      <trkpt lat="44.56198" lon="7.1721">
        <ele>1350.2</ele>
        <time>2022-07-18T10:23:00Z</time>
      </trkpt>
      <trkpt lat="44.562" lon="7.1721">
        <ele>1350.6</ele>
        <time>2022-07-18T10:23:01Z</time>
      </trkpt>
      <trkpt lat="44.56202" lon="7.1721">
        <ele>1350.6</ele>
        <time>2022-07-18T10:23:02Z</time>
      </trkpt>
      <trkpt lat="44.56204" lon="7.1721">
        <ele>1350.8</ele>
        <time>2022-07-18T10:23:03Z</time>
      </trkpt>
      <trkpt lat="44.56206" lon="7.17209">
        <ele>1350.8</ele>
        <time>2022-07-18T10:23:04Z</time>
      </trkpt>
      <trkpt lat="44.56207" lon="7.17209">
        <ele>1351.2</ele>
        <time>2022-07-18T10:23:05Z</time>
      </trkpt>
      <trkpt lat="44.56209" lon="7.17208">
        <ele>1351.2</ele>
        <time>2022-07-18T10:23:06Z</time>
      </trkpt>
      <trkpt lat="44.5621" lon="7.17208">
        <ele>1351.6</ele>
        <time>2022-07-18T10:23:07Z</time>
      </trkpt>
      <trkpt lat="44.56211" lon="7.17209">
        <ele>1351.6</ele>
        <time>2022-07-18T10:23:08Z</time>
      </trkpt>
      <trkpt lat="44.56213" lon="7.17208">
        <ele>1351.8</ele>
        <time>2022-07-18T10:23:09Z</time>
      </trkpt>
      <trkpt lat="44.56215" lon="7.17208">
        <ele>1352</ele>
        <time>2022-07-18T10:23:10Z</time>
      </trkpt>
      <trkpt lat="44.56217" lon="7.17208">
        <ele>1352</ele>
        <time>2022-07-18T10:23:11Z</time>
      </trkpt>
      <trkpt lat="44.56218" lon="7.17208">
        <ele>1352.2</ele>
        <time>2022-07-18T10:23:12Z</time>
      </trkpt>
      <trkpt lat="44.5622" lon="7.17208">
        <ele>1352.2</ele>
        <time>2022-07-18T10:23:13Z</time>
      </trkpt>
      <trkpt lat="44.56222" lon="7.17209">
        <ele>1352.6</ele>
        <time>2022-07-18T10:23:14Z</time>
      </trkpt>
      <trkpt lat="44.56223" lon="7.17209">
        <ele>1352.6</ele>
        <time>2022-07-18T10:23:15Z</time>
      </trkpt>
      <trkpt lat="44.56225" lon="7.17208">
        <ele>1352.8</ele>
        <time>2022-07-18T10:23:16Z</time>
      </trkpt>
      <trkpt lat="44.56226" lon="7.17208">
        <ele>1352.8</ele>
        <time>2022-07-18T10:23:17Z</time>
      </trkpt>
      <trkpt lat="44.56228" lon="7.17208">
        <ele>1353</ele>
        <time>2022-07-18T10:23:18Z</time>
      </trkpt>
      <trkpt lat="44.5623" lon="7.17208">
        <ele>1353</ele>
        <time>2022-07-18T10:23:19Z</time>
      </trkpt>
      <trkpt lat="44.56231" lon="7.17208">
        <ele>1353.2</ele>
        <time>2022-07-18T10:23:20Z</time>
      </trkpt>
      <trkpt lat="44.56233" lon="7.17208">
        <ele>1353.2</ele>
        <time>2022-07-18T10:23:21Z</time>
      </trkpt>
      <trkpt lat="44.56235" lon="7.17208">
        <ele>1353.6</ele>
        <time>2022-07-18T10:23:22Z</time>
      </trkpt>
      <trkpt lat="44.56236" lon="7.17208">
        <ele>1353.6</ele>
        <time>2022-07-18T10:23:23Z</time>
      </trkpt>
      <trkpt lat="44.56238" lon="7.17207">
        <ele>1353.6</ele>
        <time>2022-07-18T10:23:24Z</time>
      </trkpt>
      <trkpt lat="44.56239" lon="7.17207">
        <ele>1353.8</ele>
        <time>2022-07-18T10:23:25Z</time>
      </trkpt>
      <trkpt lat="44.56241" lon="7.17207">
        <ele>1353.8</ele>
        <time>2022-07-18T10:23:26Z</time>
      </trkpt>
      <trkpt lat="44.56242" lon="7.17207">
        <ele>1354.2</ele>
        <time>2022-07-18T10:23:27Z</time>
      </trkpt>
      <trkpt lat="44.56244" lon="7.17207">
        <ele>1354.2</ele>
        <time>2022-07-18T10:23:28Z</time>
      </trkpt>
      <trkpt lat="44.56246" lon="7.17207">
        <ele>1354.4</ele>
        <time>2022-07-18T10:23:29Z</time>
      </trkpt>
      <trkpt lat="44.56248" lon="7.17207">
        <ele>1354.4</ele>
        <time>2022-07-18T10:23:30Z</time>
      </trkpt>
      <trkpt lat="44.56249" lon="7.17208">
        <ele>1354.8</ele>
        <time>2022-07-18T10:23:31Z</time>
      </trkpt>
      <trkpt lat="44.56251" lon="7.17208">
        <ele>1354.8</ele>
        <time>2022-07-18T10:23:32Z</time>
      </trkpt>
      <trkpt lat="44.56252" lon="7.17208">
        <ele>1355</ele>
        <time>2022-07-18T10:23:33Z</time>
      </trkpt>
      <trkpt lat="44.56254" lon="7.17208">
        <ele>1355</ele>
        <time>2022-07-18T10:23:34Z</time>
      </trkpt>
      <trkpt lat="44.56256" lon="7.17208">
        <ele>1355.2</ele>
        <time>2022-07-18T10:23:35Z</time>
      </trkpt>
      <trkpt lat="44.56258" lon="7.17207">
        <ele>1355.2</ele>
        <time>2022-07-18T10:23:36Z</time>
      </trkpt>
      <trkpt lat="44.56259" lon="7.17207">
        <ele>1355.6</ele>
        <time>2022-07-18T10:23:37Z</time>
      </trkpt>
      <trkpt lat="44.56261" lon="7.17206">
        <ele>1355.6</ele>
        <time>2022-07-18T10:23:38Z</time>
      </trkpt>
      <trkpt lat="44.56262" lon="7.17205">
        <ele>1355.8</ele>
        <time>2022-07-18T10:23:39Z</time>
      </trkpt>
      <trkpt lat="44.56264" lon="7.17206">
        <ele>1355.8</ele>
        <time>2022-07-18T10:23:40Z</time>
      </trkpt>
      <trkpt lat="44.56266" lon="7.17206">
        <ele>1356.2</ele>
        <time>2022-07-18T10:23:41Z</time>
      </trkpt>
      <trkpt lat="44.56267" lon="7.17206">
        <ele>1356.2</ele>
        <time>2022-07-18T10:23:42Z</time>
      </trkpt>
      <trkpt lat="44.56269" lon="7.17206">
        <ele>1356.6</ele>
        <time>2022-07-18T10:23:43Z</time>
      </trkpt>
      <trkpt lat="44.5627" lon="7.17206">
        <ele>1356.6</ele>
        <time>2022-07-18T10:23:44Z</time>
      </trkpt>
      <trkpt lat="44.56272" lon="7.17206">
        <ele>1356.8</ele>
        <time>2022-07-18T10:23:45Z</time>
      </trkpt>
      <trkpt lat="44.56273" lon="7.17206">
        <ele>1357</ele>
        <time>2022-07-18T10:23:46Z</time>
      </trkpt>
      <trkpt lat="44.56275" lon="7.17206">
        <ele>1357</ele>
        <time>2022-07-18T10:23:47Z</time>
      </trkpt>
      <trkpt lat="44.56276" lon="7.17206">
        <ele>1357.2</ele>
        <time>2022-07-18T10:23:48Z</time>
      </trkpt>
      <trkpt lat="44.56278" lon="7.17206">
        <ele>1357.2</ele>
        <time>2022-07-18T10:23:49Z</time>
      </trkpt>
      <trkpt lat="44.56279" lon="7.17206">
        <ele>1357.6</ele>
        <time>2022-07-18T10:23:50Z</time>
      </trkpt>
      <trkpt lat="44.56281" lon="7.17205">
        <ele>1357.6</ele>
        <time>2022-07-18T10:23:51Z</time>
      </trkpt>
      <trkpt lat="44.56282" lon="7.17205">
        <ele>1357.8</ele>
        <time>2022-07-18T10:23:52Z</time>
      </trkpt>
      <trkpt lat="44.56283" lon="7.17204">
        <ele>1357.8</ele>
        <time>2022-07-18T10:23:53Z</time>
      </trkpt>
      <trkpt lat="44.56284" lon="7.17203">
        <ele>1358.2</ele>
        <time>2022-07-18T10:23:54Z</time>
      </trkpt>
      <trkpt lat="44.56286" lon="7.17203">
        <ele>1358.4</ele>
        <time>2022-07-18T10:23:55Z</time>
      </trkpt>
      <trkpt lat="44.56287" lon="7.17203">
        <ele>1358.4</ele>
        <time>2022-07-18T10:23:56Z</time>
      </trkpt>
      <trkpt lat="44.56288" lon="7.17203">
        <ele>1358.8</ele>
        <time>2022-07-18T10:23:57Z</time>
      </trkpt>
      <trkpt lat="44.56289" lon="7.17203">
        <ele>1358.8</ele>
        <time>2022-07-18T10:23:58Z</time>
      </trkpt>
      <trkpt lat="44.5629" lon="7.17203">
        <ele>1359.2</ele>
        <time>2022-07-18T10:23:59Z</time>
      </trkpt>
      <trkpt lat="44.56292" lon="7.17202">
        <ele>1359.2</ele>
        <time>2022-07-18T10:24:00Z</time>
      </trkpt>
      <trkpt lat="44.56294" lon="7.17203">
        <ele>1359.4</ele>
        <time>2022-07-18T10:24:01Z</time>
      </trkpt>
      <trkpt lat="44.56295" lon="7.17203">
        <ele>1359.4</ele>
        <time>2022-07-18T10:24:02Z</time>
      </trkpt>
      <trkpt lat="44.56297" lon="7.17203">
        <ele>1359.8</ele>
        <time>2022-07-18T10:24:03Z</time>
      </trkpt>
      <trkpt lat="44.56299" lon="7.17203">
        <ele>1359.8</ele>
        <time>2022-07-18T10:24:04Z</time>
      </trkpt>
      <trkpt lat="44.563" lon="7.17203">
        <ele>1360</ele>
        <time>2022-07-18T10:24:05Z</time>
      </trkpt>
      <trkpt lat="44.56302" lon="7.17203">
        <ele>1360</ele>
        <time>2022-07-18T10:24:06Z</time>
      </trkpt>
      <trkpt lat="44.56303" lon="7.17204">
        <ele>1360.4</ele>
        <time>2022-07-18T10:24:07Z</time>
      </trkpt>
      <trkpt lat="44.56305" lon="7.17204">
        <ele>1360.4</ele>
        <time>2022-07-18T10:24:08Z</time>
      </trkpt>
      <trkpt lat="44.56305" lon="7.17205">
        <ele>1360.6</ele>
        <time>2022-07-18T10:24:09Z</time>
      </trkpt>
      <trkpt lat="44.56306" lon="7.17205">
        <ele>1360.6</ele>
        <time>2022-07-18T10:24:10Z</time>
      </trkpt>
      <trkpt lat="44.56307" lon="7.17206">
        <ele>1361</ele>
        <time>2022-07-18T10:24:11Z</time>
      </trkpt>
      <trkpt lat="44.56309" lon="7.17206">
        <ele>1361</ele>
        <time>2022-07-18T10:24:12Z</time>
      </trkpt>
      <trkpt lat="44.56311" lon="7.17206">
        <ele>1361.4</ele>
        <time>2022-07-18T10:24:13Z</time>
      </trkpt>
      <trkpt lat="44.56312" lon="7.17206">
        <ele>1361.6</ele>
        <time>2022-07-18T10:24:14Z</time>
      </trkpt>
      <trkpt lat="44.56314" lon="7.17205">
        <ele>1361.6</ele>
        <time>2022-07-18T10:24:15Z</time>
      </trkpt>
      <trkpt lat="44.56315" lon="7.17204">
        <ele>1361.8</ele>
        <time>2022-07-18T10:24:16Z</time>
      </trkpt>
      <trkpt lat="44.56317" lon="7.17204">
        <ele>1361.8</ele>
        <time>2022-07-18T10:24:17Z</time>
      </trkpt>
      <trkpt lat="44.56319" lon="7.17204">
        <ele>1362.2</ele>
        <time>2022-07-18T10:24:18Z</time>
      </trkpt>
      <trkpt lat="44.56321" lon="7.17204">
        <ele>1362.2</ele>
        <time>2022-07-18T10:24:19Z</time>
      </trkpt>
      <trkpt lat="44.56323" lon="7.17205">
        <ele>1362.4</ele>
        <time>2022-07-18T10:24:20Z</time>
      </trkpt>
      <trkpt lat="44.56324" lon="7.17205">
        <ele>1362.4</ele>
        <time>2022-07-18T10:24:21Z</time>
      </trkpt>
      <trkpt lat="44.56326" lon="7.17206">
        <ele>1362.6</ele>
        <time>2022-07-18T10:24:22Z</time>
      </trkpt>
      <trkpt lat="44.56327" lon="7.17206">
        <ele>1363</ele>
        <time>2022-07-18T10:24:23Z</time>
      </trkpt>
      <trkpt lat="44.56329" lon="7.17206">
        <ele>1363.2</ele>
        <time>2022-07-18T10:24:24Z</time>
      </trkpt>
      <trkpt lat="44.56331" lon="7.17207">
        <ele>1363.2</ele>
        <time>2022-07-18T10:24:25Z</time>
      </trkpt>
      <trkpt lat="44.56333" lon="7.17207">
        <ele>1363.6</ele>
        <time>2022-07-18T10:24:26Z</time>
      </trkpt>
      <trkpt lat="44.56335" lon="7.17208">
        <ele>1363.8</ele>
        <time>2022-07-18T10:24:27Z</time>
      </trkpt>
      <trkpt lat="44.56337" lon="7.17208">
        <ele>1363.8</ele>
        <time>2022-07-18T10:24:28Z</time>
      </trkpt>
      <trkpt lat="44.56339" lon="7.17209">
        <ele>1364.2</ele>
        <time>2022-07-18T10:24:29Z</time>
      </trkpt>
      <trkpt lat="44.56341" lon="7.17209">
        <ele>1364.2</ele>
        <time>2022-07-18T10:24:30Z</time>
      </trkpt>
      <trkpt lat="44.56342" lon="7.17209">
        <ele>1364.6</ele>
        <time>2022-07-18T10:24:31Z</time>
      </trkpt>
      <trkpt lat="44.56344" lon="7.17209">
        <ele>1364.8</ele>
        <time>2022-07-18T10:24:32Z</time>
      </trkpt>
      <trkpt lat="44.56346" lon="7.17209">
        <ele>1365</ele>
        <time>2022-07-18T10:24:33Z</time>
      </trkpt>
      <trkpt lat="44.56348" lon="7.17209">
        <ele>1365</ele>
        <time>2022-07-18T10:24:34Z</time>
      </trkpt>
      <trkpt lat="44.56349" lon="7.1721">
        <ele>1365.4</ele>
        <time>2022-07-18T10:24:35Z</time>
      </trkpt>
      <trkpt lat="44.56351" lon="7.17211">
        <ele>1365.4</ele>
        <time>2022-07-18T10:24:36Z</time>
      </trkpt>
      <trkpt lat="44.56353" lon="7.17211">
        <ele>1365.8</ele>
        <time>2022-07-18T10:24:37Z</time>
      </trkpt>
      <trkpt lat="44.56355" lon="7.17211">
        <ele>1366</ele>
        <time>2022-07-18T10:24:38Z</time>
      </trkpt>
      <trkpt lat="44.56357" lon="7.17211">
        <ele>1366</ele>
        <time>2022-07-18T10:24:39Z</time>
      </trkpt>
      <trkpt lat="44.56358" lon="7.17211">
        <ele>1366.2</ele>
        <time>2022-07-18T10:24:40Z</time>
      </trkpt>
      <trkpt lat="44.5636" lon="7.17211">
        <ele>1366.2</ele>
        <time>2022-07-18T10:24:41Z</time>
      </trkpt>
      <trkpt lat="44.56362" lon="7.17212">
        <ele>1366.6</ele>
        <time>2022-07-18T10:24:42Z</time>
      </trkpt>
      <trkpt lat="44.56363" lon="7.17213">
        <ele>1366.6</ele>
        <time>2022-07-18T10:24:43Z</time>
      </trkpt>
      <trkpt lat="44.56365" lon="7.17213">
        <ele>1367</ele>
        <time>2022-07-18T10:24:44Z</time>
      </trkpt>
      <trkpt lat="44.56366" lon="7.17214">
        <ele>1367</ele>
        <time>2022-07-18T10:24:45Z</time>
      </trkpt>
      <trkpt lat="44.56368" lon="7.17214">
        <ele>1367.4</ele>
        <time>2022-07-18T10:24:46Z</time>
      </trkpt>
      <trkpt lat="44.56369" lon="7.17214">
        <ele>1367.4</ele>
        <time>2022-07-18T10:24:47Z</time>
      </trkpt>
      <trkpt lat="44.56371" lon="7.17214">
        <ele>1367.8</ele>
        <time>2022-07-18T10:24:48Z</time>
      </trkpt>
      <trkpt lat="44.56373" lon="7.17215">
        <ele>1368</ele>
        <time>2022-07-18T10:24:49Z</time>
      </trkpt>
      <trkpt lat="44.56374" lon="7.17215">
        <ele>1368</ele>
        <time>2022-07-18T10:24:50Z</time>
      </trkpt>
      <trkpt lat="44.56376" lon="7.17215">
        <ele>1368.2</ele>
        <time>2022-07-18T10:24:51Z</time>
      </trkpt>
      <trkpt lat="44.56378" lon="7.17215">
        <ele>1368.2</ele>
        <time>2022-07-18T10:24:52Z</time>
      </trkpt>
      <trkpt lat="44.56379" lon="7.17215">
        <ele>1368.6</ele>
        <time>2022-07-18T10:24:53Z</time>
      </trkpt>
      <trkpt lat="44.56381" lon="7.17215">
        <ele>1368.6</ele>
        <time>2022-07-18T10:24:54Z</time>
      </trkpt>
      <trkpt lat="44.56382" lon="7.17215">
        <ele>1368.8</ele>
        <time>2022-07-18T10:24:55Z</time>
      </trkpt>
      <trkpt lat="44.56384" lon="7.17214">
        <ele>1368.8</ele>
        <time>2022-07-18T10:24:56Z</time>
      </trkpt>
      <trkpt lat="44.56385" lon="7.17213">
        <ele>1369.2</ele>
        <time>2022-07-18T10:24:57Z</time>
      </trkpt>
      <trkpt lat="44.56386" lon="7.17212">
        <ele>1369.4</ele>
        <time>2022-07-18T10:24:58Z</time>
      </trkpt>
      <trkpt lat="44.56387" lon="7.17211">
        <ele>1369.4</ele>
        <time>2022-07-18T10:24:59Z</time>
      </trkpt>
      <trkpt lat="44.56389" lon="7.1721">
        <ele>1369.8</ele>
        <time>2022-07-18T10:25:00Z</time>
      </trkpt>
      <trkpt lat="44.5639" lon="7.17209">
        <ele>1369.8</ele>
        <time>2022-07-18T10:25:01Z</time>
      </trkpt>
      <trkpt lat="44.56391" lon="7.17207">
        <ele>1370.2</ele>
        <time>2022-07-18T10:25:02Z</time>
      </trkpt>
      <trkpt lat="44.56393" lon="7.17204">
        <ele>1370.2</ele>
        <time>2022-07-18T10:25:03Z</time>
      </trkpt>
      <trkpt lat="44.56394" lon="7.17202">
        <ele>1370.6</ele>
        <time>2022-07-18T10:25:04Z</time>
      </trkpt>
      <trkpt lat="44.56395" lon="7.172">
        <ele>1370.8</ele>
        <time>2022-07-18T10:25:05Z</time>
      </trkpt>
      <trkpt lat="44.56396" lon="7.17199">
        <ele>1370.8</ele>
        <time>2022-07-18T10:25:06Z</time>
      </trkpt>
      <trkpt lat="44.56396" lon="7.17197">
        <ele>1371</ele>
        <time>2022-07-18T10:25:07Z</time>
      </trkpt>
      <trkpt lat="44.56396" lon="7.17194">
        <ele>1371</ele>
        <time>2022-07-18T10:25:08Z</time>
      </trkpt>
      <trkpt lat="44.56397" lon="7.17192">
        <ele>1371.4</ele>
        <time>2022-07-18T10:25:09Z</time>
      </trkpt>
      <trkpt lat="44.56397" lon="7.17189">
        <ele>1371.6</ele>
        <time>2022-07-18T10:25:10Z</time>
      </trkpt>
      <trkpt lat="44.56398" lon="7.17187">
        <ele>1371.6</ele>
        <time>2022-07-18T10:25:11Z</time>
      </trkpt>
      <trkpt lat="44.56398" lon="7.17184">
        <ele>1371.8</ele>
        <time>2022-07-18T10:25:12Z</time>
      </trkpt>
      <trkpt lat="44.56398" lon="7.17181">
        <ele>1371.8</ele>
        <time>2022-07-18T10:25:13Z</time>
      </trkpt>
      <trkpt lat="44.56398" lon="7.17179">
        <ele>1372.2</ele>
        <time>2022-07-18T10:25:14Z</time>
      </trkpt>
      <trkpt lat="44.56398" lon="7.17176">
        <ele>1372.2</ele>
        <time>2022-07-18T10:25:15Z</time>
      </trkpt>
      <trkpt lat="44.56398" lon="7.17173">
        <ele>1372.4</ele>
        <time>2022-07-18T10:25:16Z</time>
      </trkpt>
      <trkpt lat="44.56399" lon="7.1717">
        <ele>1372.6</ele>
        <time>2022-07-18T10:25:17Z</time>
      </trkpt>
      <trkpt lat="44.56399" lon="7.17168">
        <ele>1372.6</ele>
        <time>2022-07-18T10:25:18Z</time>
      </trkpt>
      <trkpt lat="44.56399" lon="7.17165">
        <ele>1373</ele>
        <time>2022-07-18T10:25:19Z</time>
      </trkpt>
      <trkpt lat="44.56399" lon="7.17163">
        <ele>1373</ele>
        <time>2022-07-18T10:25:20Z</time>
      </trkpt>
      <trkpt lat="44.56399" lon="7.1716">
        <ele>1373.2</ele>
        <time>2022-07-18T10:25:21Z</time>
      </trkpt>
      <trkpt lat="44.564" lon="7.17158">
        <ele>1373.2</ele>
        <time>2022-07-18T10:25:22Z</time>
      </trkpt>
      <trkpt lat="44.564" lon="7.17155">
        <ele>1373.4</ele>
        <time>2022-07-18T10:25:23Z</time>
      </trkpt>
      <trkpt lat="44.56401" lon="7.17153">
        <ele>1373.4</ele>
        <time>2022-07-18T10:25:24Z</time>
      </trkpt>
      <trkpt lat="44.56402" lon="7.17151">
        <ele>1373.8</ele>
        <time>2022-07-18T10:25:25Z</time>
      </trkpt>
      <trkpt lat="44.56402" lon="7.17149">
        <ele>1374</ele>
        <time>2022-07-18T10:25:26Z</time>
      </trkpt>
      <trkpt lat="44.56403" lon="7.17147">
        <ele>1374</ele>
        <time>2022-07-18T10:25:27Z</time>
      </trkpt>
      <trkpt lat="44.56404" lon="7.17145">
        <ele>1374.4</ele>
        <time>2022-07-18T10:25:28Z</time>
      </trkpt>
      <trkpt lat="44.56405" lon="7.17143">
        <ele>1374.6</ele>
        <time>2022-07-18T10:25:29Z</time>
      </trkpt>
      <trkpt lat="44.56406" lon="7.17142">
        <ele>1374.8</ele>
        <time>2022-07-18T10:25:30Z</time>
      </trkpt>
      <trkpt lat="44.56408" lon="7.1714">
        <ele>1375</ele>
        <time>2022-07-18T10:25:31Z</time>
      </trkpt>
      <trkpt lat="44.56409" lon="7.17138">
        <ele>1375</ele>
        <time>2022-07-18T10:25:32Z</time>
      </trkpt>
      <trkpt lat="44.56411" lon="7.17137">
        <ele>1375.4</ele>
        <time>2022-07-18T10:25:33Z</time>
      </trkpt>
      <trkpt lat="44.56413" lon="7.17135">
        <ele>1375.6</ele>
        <time>2022-07-18T10:25:34Z</time>
      </trkpt>
      <trkpt lat="44.56414" lon="7.17135">
        <ele>1375.8</ele>
        <time>2022-07-18T10:25:35Z</time>
      </trkpt>
      <trkpt lat="44.56416" lon="7.17134">
        <ele>1376</ele>
        <time>2022-07-18T10:25:36Z</time>
      </trkpt>
      <trkpt lat="44.56417" lon="7.17133">
        <ele>1376</ele>
        <time>2022-07-18T10:25:37Z</time>
      </trkpt>
      <trkpt lat="44.56419" lon="7.17132">
        <ele>1376.4</ele>
        <time>2022-07-18T10:25:38Z</time>
      </trkpt>
      <trkpt lat="44.5642" lon="7.1713">
        <ele>1376.4</ele>
        <time>2022-07-18T10:25:39Z</time>
      </trkpt>
      <trkpt lat="44.56421" lon="7.17129">
        <ele>1376.8</ele>
        <time>2022-07-18T10:25:40Z</time>
      </trkpt>
      <trkpt lat="44.56423" lon="7.17128">
        <ele>1376.8</ele>
        <time>2022-07-18T10:25:41Z</time>
      </trkpt>
      <trkpt lat="44.56425" lon="7.17128">
        <ele>1377.2</ele>
        <time>2022-07-18T10:25:42Z</time>
      </trkpt>
      <trkpt lat="44.56426" lon="7.17127">
        <ele>1377.2</ele>
        <time>2022-07-18T10:25:43Z</time>
      </trkpt>
      <trkpt lat="44.56427" lon="7.17126">
        <ele>1377.4</ele>
        <time>2022-07-18T10:25:44Z</time>
      </trkpt>
      <trkpt lat="44.56429" lon="7.17125">
        <ele>1377.4</ele>
        <time>2022-07-18T10:25:45Z</time>
      </trkpt>
      <trkpt lat="44.5643" lon="7.17124">
        <ele>1377.8</ele>
        <time>2022-07-18T10:25:46Z</time>
      </trkpt>
      <trkpt lat="44.56432" lon="7.17123">
        <ele>1377.8</ele>
        <time>2022-07-18T10:25:47Z</time>
      </trkpt>
      <trkpt lat="44.56433" lon="7.17122">
        <ele>1378</ele>
        <time>2022-07-18T10:25:48Z</time>
      </trkpt>
      <trkpt lat="44.56435" lon="7.17122">
        <ele>1378.2</ele>
        <time>2022-07-18T10:25:49Z</time>
      </trkpt>
      <trkpt lat="44.56436" lon="7.17121">
        <ele>1378.2</ele>
        <time>2022-07-18T10:25:50Z</time>
      </trkpt>
      <trkpt lat="44.56438" lon="7.17121">
        <ele>1378.6</ele>
        <time>2022-07-18T10:25:51Z</time>
      </trkpt>
      <trkpt lat="44.5644" lon="7.1712">
        <ele>1378.6</ele>
        <time>2022-07-18T10:25:52Z</time>
      </trkpt>
      <trkpt lat="44.56441" lon="7.17119">
        <ele>1378.8</ele>
        <time>2022-07-18T10:25:53Z</time>
      </trkpt>
      <trkpt lat="44.56443" lon="7.17119">
        <ele>1378.8</ele>
        <time>2022-07-18T10:25:54Z</time>
      </trkpt>
      <trkpt lat="44.56444" lon="7.17118">
        <ele>1379</ele>
        <time>2022-07-18T10:25:55Z</time>
      </trkpt>
      <trkpt lat="44.56446" lon="7.17117">
        <ele>1379</ele>
        <time>2022-07-18T10:25:56Z</time>
      </trkpt>
      <trkpt lat="44.56448" lon="7.17116">
        <ele>1379.4</ele>
        <time>2022-07-18T10:25:57Z</time>
      </trkpt>
      <trkpt lat="44.56449" lon="7.17116">
        <ele>1379.4</ele>
        <time>2022-07-18T10:25:58Z</time>
      </trkpt>
      <trkpt lat="44.56451" lon="7.17115">
        <ele>1379.6</ele>
        <time>2022-07-18T10:25:59Z</time>
      </trkpt>
      <trkpt lat="44.56452" lon="7.17115">
        <ele>1379.8</ele>
        <time>2022-07-18T10:26:00Z</time>
      </trkpt>
      <trkpt lat="44.56454" lon="7.17114">
        <ele>1379.8</ele>
        <time>2022-07-18T10:26:01Z</time>
      </trkpt>
      <trkpt lat="44.56455" lon="7.17113">
        <ele>1380.2</ele>
        <time>2022-07-18T10:26:02Z</time>
      </trkpt>
      <trkpt lat="44.56457" lon="7.17112">
        <ele>1380.2</ele>
        <time>2022-07-18T10:26:03Z</time>
      </trkpt>
      <trkpt lat="44.56458" lon="7.17111">
        <ele>1380.6</ele>
        <time>2022-07-18T10:26:04Z</time>
      </trkpt>
      <trkpt lat="44.56459" lon="7.1711">
        <ele>1380.8</ele>
        <time>2022-07-18T10:26:05Z</time>
      </trkpt>
      <trkpt lat="44.56461" lon="7.17109">
        <ele>1380.8</ele>
        <time>2022-07-18T10:26:06Z</time>
      </trkpt>
      <trkpt lat="44.56462" lon="7.17107">
        <ele>1381</ele>
        <time>2022-07-18T10:26:07Z</time>
      </trkpt>
      <trkpt lat="44.56463" lon="7.17106">
        <ele>1381</ele>
        <time>2022-07-18T10:26:08Z</time>
      </trkpt>
      <trkpt lat="44.56464" lon="7.17104">
        <ele>1381.4</ele>
        <time>2022-07-18T10:26:09Z</time>
      </trkpt>
      <trkpt lat="44.56465" lon="7.17103">
        <ele>1381.4</ele>
        <time>2022-07-18T10:26:10Z</time>
      </trkpt>
      <trkpt lat="44.56467" lon="7.17102">
        <ele>1382</ele>
        <time>2022-07-18T10:26:11Z</time>
      </trkpt>
      <trkpt lat="44.56468" lon="7.171">
        <ele>1382.2</ele>
        <time>2022-07-18T10:26:12Z</time>
      </trkpt>
      <trkpt lat="44.56469" lon="7.17099">
        <ele>1382.4</ele>
        <time>2022-07-18T10:26:13Z</time>
      </trkpt>
      <trkpt lat="44.5647" lon="7.17098">
        <ele>1382.4</ele>
        <time>2022-07-18T10:26:14Z</time>
      </trkpt>
      <trkpt lat="44.56471" lon="7.17096">
        <ele>1382.6</ele>
        <time>2022-07-18T10:26:15Z</time>
      </trkpt>
      <trkpt lat="44.56471" lon="7.17094">
        <ele>1382.8</ele>
        <time>2022-07-18T10:26:16Z</time>
      </trkpt>
      <trkpt lat="44.56472" lon="7.17092">
        <ele>1383.2</ele>
        <time>2022-07-18T10:26:17Z</time>
      </trkpt>
      <trkpt lat="44.56473" lon="7.1709">
        <ele>1383.2</ele>
        <time>2022-07-18T10:26:18Z</time>
      </trkpt>
      <trkpt lat="44.56473" lon="7.17088">
        <ele>1383.4</ele>
        <time>2022-07-18T10:26:19Z</time>
      </trkpt>
      <trkpt lat="44.56474" lon="7.17086">
        <ele>1383.6</ele>
        <time>2022-07-18T10:26:20Z</time>
      </trkpt>
      <trkpt lat="44.56474" lon="7.17084">
        <ele>1383.6</ele>
        <time>2022-07-18T10:26:21Z</time>
      </trkpt>
      <trkpt lat="44.56474" lon="7.17082">
        <ele>1384</ele>
        <time>2022-07-18T10:26:22Z</time>
      </trkpt>
      <trkpt lat="44.56474" lon="7.17079">
        <ele>1384</ele>
        <time>2022-07-18T10:26:23Z</time>
      </trkpt>
      <trkpt lat="44.56475" lon="7.17077">
        <ele>1384.2</ele>
        <time>2022-07-18T10:26:24Z</time>
      </trkpt>
      <trkpt lat="44.56475" lon="7.17075">
        <ele>1384.2</ele>
        <time>2022-07-18T10:26:25Z</time>
      </trkpt>
      <trkpt lat="44.56476" lon="7.17072">
        <ele>1384.4</ele>
        <time>2022-07-18T10:26:26Z</time>
      </trkpt>
      <trkpt lat="44.56476" lon="7.1707">
        <ele>1384.4</ele>
        <time>2022-07-18T10:26:27Z</time>
      </trkpt>
      <trkpt lat="44.56476" lon="7.17068">
        <ele>1384.8</ele>
        <time>2022-07-18T10:26:28Z</time>
      </trkpt>
      <trkpt lat="44.56477" lon="7.17066">
        <ele>1385</ele>
        <time>2022-07-18T10:26:29Z</time>
      </trkpt>
      <trkpt lat="44.56477" lon="7.17064">
        <ele>1385</ele>
        <time>2022-07-18T10:26:30Z</time>
      </trkpt>
      <trkpt lat="44.56478" lon="7.17063">
        <ele>1385.2</ele>
        <time>2022-07-18T10:26:31Z</time>
      </trkpt>
      <trkpt lat="44.56478" lon="7.17061">
        <ele>1385.2</ele>
        <time>2022-07-18T10:26:32Z</time>
      </trkpt>
      <trkpt lat="44.56479" lon="7.17059">
        <ele>1385.6</ele>
        <time>2022-07-18T10:26:33Z</time>
      </trkpt>
      <trkpt lat="44.56479" lon="7.17057">
        <ele>1385.6</ele>
        <time>2022-07-18T10:26:34Z</time>
      </trkpt>
      <trkpt lat="44.5648" lon="7.17055">
        <ele>1385.8</ele>
        <time>2022-07-18T10:26:35Z</time>
      </trkpt>
      <trkpt lat="44.5648" lon="7.17053">
        <ele>1385.8</ele>
        <time>2022-07-18T10:26:36Z</time>
      </trkpt>
      <trkpt lat="44.5648" lon="7.17051">
        <ele>1386</ele>
        <time>2022-07-18T10:26:37Z</time>
      </trkpt>
      <trkpt lat="44.56481" lon="7.1705">
        <ele>1386</ele>
        <time>2022-07-18T10:26:38Z</time>
      </trkpt>
      <trkpt lat="44.56481" lon="7.17048">
        <ele>1386.4</ele>
        <time>2022-07-18T10:26:39Z</time>
      </trkpt>
      <trkpt lat="44.56482" lon="7.17046">
        <ele>1386.4</ele>
        <time>2022-07-18T10:26:40Z</time>
      </trkpt>
      <trkpt lat="44.56483" lon="7.17044">
        <ele>1386.6</ele>
        <time>2022-07-18T10:26:41Z</time>
      </trkpt>
      <trkpt lat="44.56483" lon="7.17043">
        <ele>1386.6</ele>
        <time>2022-07-18T10:26:42Z</time>
      </trkpt>
      <trkpt lat="44.56484" lon="7.17041">
        <ele>1387</ele>
        <time>2022-07-18T10:26:43Z</time>
      </trkpt>
      <trkpt lat="44.56484" lon="7.17039">
        <ele>1387</ele>
        <time>2022-07-18T10:26:44Z</time>
      </trkpt>
      <trkpt lat="44.56485" lon="7.17038">
        <ele>1387.4</ele>
        <time>2022-07-18T10:26:45Z</time>
      </trkpt>
      <trkpt lat="44.56485" lon="7.17035">
        <ele>1387.4</ele>
        <time>2022-07-18T10:26:46Z</time>
      </trkpt>
      <trkpt lat="44.56485" lon="7.17033">
        <ele>1387.6</ele>
        <time>2022-07-18T10:26:47Z</time>
      </trkpt>
      <trkpt lat="44.56486" lon="7.17032">
        <ele>1387.6</ele>
        <time>2022-07-18T10:26:48Z</time>
      </trkpt>
      <trkpt lat="44.56486" lon="7.17029">
        <ele>1388</ele>
        <time>2022-07-18T10:26:49Z</time>
      </trkpt>
      <trkpt lat="44.56486" lon="7.17027">
        <ele>1388</ele>
        <time>2022-07-18T10:26:50Z</time>
      </trkpt>
      <trkpt lat="44.56487" lon="7.17025">
        <ele>1388.2</ele>
        <time>2022-07-18T10:26:51Z</time>
      </trkpt>
      <trkpt lat="44.56487" lon="7.17022">
        <ele>1388.4</ele>
        <time>2022-07-18T10:26:52Z</time>
      </trkpt>
      <trkpt lat="44.56488" lon="7.1702">
        <ele>1388.4</ele>
        <time>2022-07-18T10:26:53Z</time>
      </trkpt>
      <trkpt lat="44.56488" lon="7.17018">
        <ele>1388.8</ele>
        <time>2022-07-18T10:26:54Z</time>
      </trkpt>
      <trkpt lat="44.56489" lon="7.17015">
        <ele>1388.8</ele>
        <time>2022-07-18T10:26:55Z</time>
      </trkpt>
      <trkpt lat="44.56489" lon="7.17013">
        <ele>1389</ele>
        <time>2022-07-18T10:26:56Z</time>
      </trkpt>
      <trkpt lat="44.5649" lon="7.17011">
        <ele>1389.2</ele>
        <time>2022-07-18T10:26:57Z</time>
      </trkpt>
      <trkpt lat="44.5649" lon="7.17008">
        <ele>1389.4</ele>
        <time>2022-07-18T10:26:58Z</time>
      </trkpt>
      <trkpt lat="44.56491" lon="7.17005">
        <ele>1389.4</ele>
        <time>2022-07-18T10:26:59Z</time>
      </trkpt>
      <trkpt lat="44.56491" lon="7.17002">
        <ele>1389.8</ele>
        <time>2022-07-18T10:27:00Z</time>
      </trkpt>
      <trkpt lat="44.56491" lon="7.17">
        <ele>1389.8</ele>
        <time>2022-07-18T10:27:01Z</time>
      </trkpt>
      <trkpt lat="44.56492" lon="7.16997">
        <ele>1390</ele>
        <time>2022-07-18T10:27:02Z</time>
      </trkpt>
      <trkpt lat="44.56492" lon="7.16995">
        <ele>1390</ele>
        <time>2022-07-18T10:27:03Z</time>
      </trkpt>
      <trkpt lat="44.56492" lon="7.16992">
        <ele>1390.4</ele>
        <time>2022-07-18T10:27:04Z</time>
      </trkpt>
      <trkpt lat="44.56492" lon="7.1699">
        <ele>1390.4</ele>
        <time>2022-07-18T10:27:05Z</time>
      </trkpt>
      <trkpt lat="44.56492" lon="7.16987">
        <ele>1390.6</ele>
        <time>2022-07-18T10:27:06Z</time>
      </trkpt>
      <trkpt lat="44.56493" lon="7.16984">
        <ele>1390.6</ele>
        <time>2022-07-18T10:27:07Z</time>
      </trkpt>
      <trkpt lat="44.56493" lon="7.16982">
        <ele>1391</ele>
        <time>2022-07-18T10:27:08Z</time>
      </trkpt>
      <trkpt lat="44.56493" lon="7.16979">
        <ele>1391</ele>
        <time>2022-07-18T10:27:09Z</time>
      </trkpt>
      <trkpt lat="44.56493" lon="7.16977">
        <ele>1391.2</ele>
        <time>2022-07-18T10:27:10Z</time>
      </trkpt>
      <trkpt lat="44.56493" lon="7.16975">
        <ele>1391.4</ele>
        <time>2022-07-18T10:27:11Z</time>
      </trkpt>
      <trkpt lat="44.56493" lon="7.16972">
        <ele>1391.8</ele>
        <time>2022-07-18T10:27:12Z</time>
      </trkpt>
      <trkpt lat="44.56493" lon="7.1697">
        <ele>1392</ele>
        <time>2022-07-18T10:27:14Z</time>
      </trkpt>
      <trkpt lat="44.56492" lon="7.16968">
        <ele>1392</ele>
        <time>2022-07-18T10:27:15Z</time>
      </trkpt>
      <trkpt lat="44.56492" lon="7.16965">
        <ele>1392</ele>
        <time>2022-07-18T10:27:16Z</time>
      </trkpt>
      <trkpt lat="44.56492" lon="7.16963">
        <ele>1392.2</ele>
        <time>2022-07-18T10:27:17Z</time>
      </trkpt>
      <trkpt lat="44.56491" lon="7.16961">
        <ele>1392.6</ele>
        <time>2022-07-18T10:27:18Z</time>
      </trkpt>
      <trkpt lat="44.5649" lon="7.16959">
        <ele>1392.6</ele>
        <time>2022-07-18T10:27:19Z</time>
      </trkpt>
      <trkpt lat="44.5649" lon="7.16957">
        <ele>1392.8</ele>
        <time>2022-07-18T10:27:20Z</time>
      </trkpt>
      <trkpt lat="44.56489" lon="7.16955">
        <ele>1392.8</ele>
        <time>2022-07-18T10:27:21Z</time>
      </trkpt>
      <trkpt lat="44.56489" lon="7.16953">
        <ele>1393.2</ele>
        <time>2022-07-18T10:27:22Z</time>
      </trkpt>
      <trkpt lat="44.56488" lon="7.16951">
        <ele>1393.2</ele>
        <time>2022-07-18T10:27:23Z</time>
      </trkpt>
      <trkpt lat="44.56488" lon="7.1695">
        <ele>1393.6</ele>
        <time>2022-07-18T10:27:24Z</time>
      </trkpt>
      <trkpt lat="44.56487" lon="7.16949">
        <ele>1393.8</ele>
        <time>2022-07-18T10:27:25Z</time>
      </trkpt>
      <trkpt lat="44.56486" lon="7.16947">
        <ele>1394</ele>
        <time>2022-07-18T10:27:26Z</time>
      </trkpt>
      <trkpt lat="44.56485" lon="7.16946">
        <ele>1394</ele>
        <time>2022-07-18T10:27:27Z</time>
      </trkpt>
      <trkpt lat="44.56484" lon="7.16944">
        <ele>1394.4</ele>
        <time>2022-07-18T10:27:28Z</time>
      </trkpt>
      <trkpt lat="44.56483" lon="7.16943">
        <ele>1394.4</ele>
        <time>2022-07-18T10:27:29Z</time>
      </trkpt>
      <trkpt lat="44.56482" lon="7.16941">
        <ele>1394.6</ele>
        <time>2022-07-18T10:27:30Z</time>
      </trkpt>
      <trkpt lat="44.56481" lon="7.1694">
        <ele>1394.6</ele>
        <time>2022-07-18T10:27:31Z</time>
      </trkpt>
      <trkpt lat="44.56479" lon="7.16939">
        <ele>1395</ele>
        <time>2022-07-18T10:27:32Z</time>
      </trkpt>
      <trkpt lat="44.56477" lon="7.16937">
        <ele>1395</ele>
        <time>2022-07-18T10:27:33Z</time>
      </trkpt>
      <trkpt lat="44.56476" lon="7.16935">
        <ele>1395.2</ele>
        <time>2022-07-18T10:27:34Z</time>
      </trkpt>
      <trkpt lat="44.56474" lon="7.16933">
        <ele>1395.2</ele>
        <time>2022-07-18T10:27:35Z</time>
      </trkpt>
      <trkpt lat="44.56472" lon="7.16932">
        <ele>1395.6</ele>
        <time>2022-07-18T10:27:36Z</time>
      </trkpt>
      <trkpt lat="44.56471" lon="7.16931">
        <ele>1395.6</ele>
        <time>2022-07-18T10:27:37Z</time>
      </trkpt>
      <trkpt lat="44.5647" lon="7.1693">
        <ele>1395.8</ele>
        <time>2022-07-18T10:27:38Z</time>
      </trkpt>
      <trkpt lat="44.56468" lon="7.16928">
        <ele>1395.8</ele>
        <time>2022-07-18T10:27:39Z</time>
      </trkpt>
      <trkpt lat="44.56467" lon="7.16927">
        <ele>1396</ele>
        <time>2022-07-18T10:27:40Z</time>
      </trkpt>
      <trkpt lat="44.56465" lon="7.16925">
        <ele>1396</ele>
        <time>2022-07-18T10:27:41Z</time>
      </trkpt>
      <trkpt lat="44.56464" lon="7.16924">
        <ele>1396</ele>
        <time>2022-07-18T10:27:42Z</time>
      </trkpt>
      <trkpt lat="44.56462" lon="7.16923">
        <ele>1396.2</ele>
        <time>2022-07-18T10:27:43Z</time>
      </trkpt>
      <trkpt lat="44.56461" lon="7.16922">
        <ele>1396.2</ele>
        <time>2022-07-18T10:27:44Z</time>
      </trkpt>
      <trkpt lat="44.5646" lon="7.16921">
        <ele>1396.6</ele>
        <time>2022-07-18T10:27:45Z</time>
      </trkpt>
      <trkpt lat="44.56458" lon="7.16919">
        <ele>1396.6</ele>
        <time>2022-07-18T10:27:46Z</time>
      </trkpt>
      <trkpt lat="44.56457" lon="7.16918">
        <ele>1396.8</ele>
        <time>2022-07-18T10:27:47Z</time>
      </trkpt>
      <trkpt lat="44.56456" lon="7.16916">
        <ele>1396.8</ele>
        <time>2022-07-18T10:27:48Z</time>
      </trkpt>
      <trkpt lat="44.56455" lon="7.16914">
        <ele>1397.2</ele>
        <time>2022-07-18T10:27:49Z</time>
      </trkpt>
      <trkpt lat="44.56454" lon="7.16913">
        <ele>1397.2</ele>
        <time>2022-07-18T10:27:50Z</time>
      </trkpt>
      <trkpt lat="44.56452" lon="7.16911">
        <ele>1397.4</ele>
        <time>2022-07-18T10:27:51Z</time>
      </trkpt>
      <trkpt lat="44.56451" lon="7.1691">
        <ele>1397.4</ele>
        <time>2022-07-18T10:27:52Z</time>
      </trkpt>
      <trkpt lat="44.5645" lon="7.16909">
        <ele>1397.8</ele>
        <time>2022-07-18T10:27:53Z</time>
      </trkpt>
      <trkpt lat="44.56448" lon="7.16907">
        <ele>1398</ele>
        <time>2022-07-18T10:27:54Z</time>
      </trkpt>
      <trkpt lat="44.56447" lon="7.16906">
        <ele>1398</ele>
        <time>2022-07-18T10:27:55Z</time>
      </trkpt>
      <trkpt lat="44.56446" lon="7.16905">
        <ele>1398.4</ele>
        <time>2022-07-18T10:27:56Z</time>
      </trkpt>
      <trkpt lat="44.56444" lon="7.16904">
        <ele>1398.4</ele>
        <time>2022-07-18T10:27:57Z</time>
      </trkpt>
      <trkpt lat="44.56443" lon="7.16903">
        <ele>1398.6</ele>
        <time>2022-07-18T10:27:58Z</time>
      </trkpt>
      <trkpt lat="44.56442" lon="7.16901">
        <ele>1398.6</ele>
        <time>2022-07-18T10:27:59Z</time>
      </trkpt>
      <trkpt lat="44.56441" lon="7.169">
        <ele>1399</ele>
        <time>2022-07-18T10:28:00Z</time>
      </trkpt>
      <trkpt lat="44.56439" lon="7.16898">
        <ele>1399</ele>
        <time>2022-07-18T10:28:01Z</time>
      </trkpt>
      <trkpt lat="44.56438" lon="7.16897">
        <ele>1399.2</ele>
        <time>2022-07-18T10:28:02Z</time>
      </trkpt>
      <trkpt lat="44.56437" lon="7.16895">
        <ele>1399.4</ele>
        <time>2022-07-18T10:28:03Z</time>
      </trkpt>
      <trkpt lat="44.56436" lon="7.16894">
        <ele>1399.4</ele>
        <time>2022-07-18T10:28:04Z</time>
      </trkpt>
      <trkpt lat="44.56434" lon="7.16892">
        <ele>1399.6</ele>
        <time>2022-07-18T10:28:05Z</time>
      </trkpt>
      <trkpt lat="44.56433" lon="7.16891">
        <ele>1399.6</ele>
        <time>2022-07-18T10:28:06Z</time>
      </trkpt>
      <trkpt lat="44.56431" lon="7.1689">
        <ele>1399.8</ele>
        <time>2022-07-18T10:28:07Z</time>
      </trkpt>
      <trkpt lat="44.56429" lon="7.16889">
        <ele>1399.8</ele>
        <time>2022-07-18T10:28:08Z</time>
      </trkpt>
      <trkpt lat="44.56428" lon="7.16888">
        <ele>1400.2</ele>
        <time>2022-07-18T10:28:09Z</time>
      </trkpt>
      <trkpt lat="44.56426" lon="7.16886">
        <ele>1400.2</ele>
        <time>2022-07-18T10:28:10Z</time>
      </trkpt>
      <trkpt lat="44.56425" lon="7.16885">
        <ele>1400.4</ele>
        <time>2022-07-18T10:28:11Z</time>
      </trkpt>
      <trkpt lat="44.56424" lon="7.16884">
        <ele>1400.4</ele>
        <time>2022-07-18T10:28:12Z</time>
      </trkpt>
      <trkpt lat="44.56423" lon="7.16882">
        <ele>1400.8</ele>
        <time>2022-07-18T10:28:13Z</time>
      </trkpt>
      <trkpt lat="44.56421" lon="7.16881">
        <ele>1400.8</ele>
        <time>2022-07-18T10:28:14Z</time>
      </trkpt>
      <trkpt lat="44.5642" lon="7.16879">
        <ele>1401.2</ele>
        <time>2022-07-18T10:28:15Z</time>
      </trkpt>
      <trkpt lat="44.56418" lon="7.16878">
        <ele>1401.2</ele>
        <time>2022-07-18T10:28:16Z</time>
      </trkpt>
      <trkpt lat="44.56417" lon="7.16876">
        <ele>1401.4</ele>
        <time>2022-07-18T10:28:17Z</time>
      </trkpt>
      <trkpt lat="44.56416" lon="7.16875">
        <ele>1401.4</ele>
        <time>2022-07-18T10:28:18Z</time>
      </trkpt>
      <trkpt lat="44.56414" lon="7.16874">
        <ele>1401.8</ele>
        <time>2022-07-18T10:28:19Z</time>
      </trkpt>
      <trkpt lat="44.56413" lon="7.16872">
        <ele>1401.8</ele>
        <time>2022-07-18T10:28:20Z</time>
      </trkpt>
      <trkpt lat="44.56412" lon="7.16871">
        <ele>1402</ele>
        <time>2022-07-18T10:28:21Z</time>
      </trkpt>
      <trkpt lat="44.56411" lon="7.16871">
        <ele>1402</ele>
        <time>2022-07-18T10:28:22Z</time>
      </trkpt>
      <trkpt lat="44.56409" lon="7.1687">
        <ele>1402.2</ele>
        <time>2022-07-18T10:28:23Z</time>
      </trkpt>
      <trkpt lat="44.56408" lon="7.16869">
        <ele>1402.2</ele>
        <time>2022-07-18T10:28:24Z</time>
      </trkpt>
      <trkpt lat="44.56407" lon="7.16868">
        <ele>1402.6</ele>
        <time>2022-07-18T10:28:25Z</time>
      </trkpt>
      <trkpt lat="44.56406" lon="7.16867">
        <ele>1402.6</ele>
        <time>2022-07-18T10:28:26Z</time>
      </trkpt>
      <trkpt lat="44.56405" lon="7.16866">
        <ele>1402.8</ele>
        <time>2022-07-18T10:28:27Z</time>
      </trkpt>
      <trkpt lat="44.56404" lon="7.16864">
        <ele>1402.8</ele>
        <time>2022-07-18T10:28:28Z</time>
      </trkpt>
      <trkpt lat="44.56402" lon="7.16863">
        <ele>1403.2</ele>
        <time>2022-07-18T10:28:29Z</time>
      </trkpt>
      <trkpt lat="44.56401" lon="7.16862">
        <ele>1403.2</ele>
        <time>2022-07-18T10:28:30Z</time>
      </trkpt>
      <trkpt lat="44.564" lon="7.16861">
        <ele>1403.6</ele>
        <time>2022-07-18T10:28:31Z</time>
      </trkpt>
      <trkpt lat="44.56398" lon="7.1686">
        <ele>1403.6</ele>
        <time>2022-07-18T10:28:32Z</time>
      </trkpt>
      <trkpt lat="44.56397" lon="7.16858">
        <ele>1403.8</ele>
        <time>2022-07-18T10:28:33Z</time>
      </trkpt>
      <trkpt lat="44.56395" lon="7.16857">
        <ele>1403.8</ele>
        <time>2022-07-18T10:28:34Z</time>
      </trkpt>
      <trkpt lat="44.56394" lon="7.16856">
        <ele>1404</ele>
        <time>2022-07-18T10:28:35Z</time>
      </trkpt>
      <trkpt lat="44.56392" lon="7.16855">
        <ele>1404.2</ele>
        <time>2022-07-18T10:28:36Z</time>
      </trkpt>
      <trkpt lat="44.56391" lon="7.16854">
        <ele>1404.2</ele>
        <time>2022-07-18T10:28:37Z</time>
      </trkpt>
      <trkpt lat="44.5639" lon="7.16853">
        <ele>1404.6</ele>
        <time>2022-07-18T10:28:38Z</time>
      </trkpt>
      <trkpt lat="44.56388" lon="7.16852">
        <ele>1404.6</ele>
        <time>2022-07-18T10:28:39Z</time>
      </trkpt>
      <trkpt lat="44.56386" lon="7.16851">
        <ele>1404.8</ele>
        <time>2022-07-18T10:28:40Z</time>
      </trkpt>
      <trkpt lat="44.56384" lon="7.1685">
        <ele>1404.8</ele>
        <time>2022-07-18T10:28:41Z</time>
      </trkpt>
      <trkpt lat="44.56383" lon="7.16848">
        <ele>1405.2</ele>
        <time>2022-07-18T10:28:42Z</time>
      </trkpt>
      <trkpt lat="44.56381" lon="7.16847">
        <ele>1405.2</ele>
        <time>2022-07-18T10:28:43Z</time>
      </trkpt>
      <trkpt lat="44.56379" lon="7.16845">
        <ele>1405.4</ele>
        <time>2022-07-18T10:28:44Z</time>
      </trkpt>
      <trkpt lat="44.56378" lon="7.16844">
        <ele>1405.4</ele>
        <time>2022-07-18T10:28:45Z</time>
      </trkpt>
      <trkpt lat="44.56376" lon="7.16843">
        <ele>1405.8</ele>
        <time>2022-07-18T10:28:46Z</time>
      </trkpt>
      <trkpt lat="44.56374" lon="7.16841">
        <ele>1405.8</ele>
        <time>2022-07-18T10:28:47Z</time>
      </trkpt>
      <trkpt lat="44.56374" lon="7.16841">
        <ele>1406.2</ele>
        <time>2022-07-18T10:28:48Z</time>
      </trkpt>
      <trkpt lat="44.56374" lon="7.16841">
        <ele>1406.2</ele>
        <time>2022-07-18T10:28:49Z</time>
      </trkpt>
      <trkpt lat="44.56374" lon="7.16841">
        <ele>1406.4</ele>
        <time>2022-07-18T10:28:50Z</time>
      </trkpt>
      <trkpt lat="44.56373" lon="7.16841">
        <ele>1406.4</ele>
        <time>2022-07-18T10:28:51Z</time>
      </trkpt>
      <trkpt lat="44.56373" lon="7.16841">
        <ele>1406.6</ele>
        <time>2022-07-18T10:28:52Z</time>
      </trkpt>
      <trkpt lat="44.56373" lon="7.16841">
        <ele>1406.6</ele>
        <time>2022-07-18T10:28:54Z</time>
      </trkpt>
      <trkpt lat="44.56373" lon="7.1684">
        <ele>1406.8</ele>
        <time>2022-07-18T10:28:55Z</time>
      </trkpt>
      <trkpt lat="44.56373" lon="7.1684">
        <ele>1406.8</ele>
        <time>2022-07-18T10:28:56Z</time>
      </trkpt>
      <trkpt lat="44.56373" lon="7.1684">
        <ele>1406.8</ele>
        <time>2022-07-18T10:28:57Z</time>
      </trkpt>
      <trkpt lat="44.56372" lon="7.1684">
        <ele>1406.8</ele>
        <time>2022-07-18T10:28:58Z</time>
      </trkpt>
      <trkpt lat="44.56372" lon="7.1684">
        <ele>1407</ele>
        <time>2022-07-18T10:28:59Z</time>
      </trkpt>
      <trkpt lat="44.56372" lon="7.1684">
        <ele>1407</ele>
        <time>2022-07-18T10:29:00Z</time>
      </trkpt>
      <trkpt lat="44.56372" lon="7.1684">
        <ele>1407</ele>
        <time>2022-07-18T10:29:01Z</time>
      </trkpt>
      <trkpt lat="44.56372" lon="7.1684">
        <ele>1407</ele>
        <time>2022-07-18T10:29:02Z</time>
      </trkpt>
      <trkpt lat="44.56372" lon="7.1684">
        <ele>1407</ele>
        <time>2022-07-18T10:29:03Z</time>
      </trkpt>
      <trkpt lat="44.56371" lon="7.16839">
        <ele>1407.2</ele>
        <time>2022-07-18T10:29:04Z</time>
      </trkpt>
      <trkpt lat="44.56371" lon="7.16839">
        <ele>1407.2</ele>
        <time>2022-07-18T10:29:05Z</time>
      </trkpt>
      <trkpt lat="44.56371" lon="7.16839">
        <ele>1407.2</ele>
        <time>2022-07-18T10:29:08Z</time>
      </trkpt>
      <trkpt lat="44.56371" lon="7.16839">
        <ele>1407.2</ele>
        <time>2022-07-18T10:29:09Z</time>
      </trkpt>
      <trkpt lat="44.56371" lon="7.16839">
        <ele>1407</ele>
        <time>2022-07-18T10:29:17Z</time>
      </trkpt>
      <trkpt lat="44.56371" lon="7.16839">
        <ele>1407</ele>
        <time>2022-07-18T10:29:18Z</time>
      </trkpt>
      <trkpt lat="44.5637" lon="7.16839">
        <ele>1407</ele>
        <time>2022-07-18T10:29:25Z</time>
      </trkpt>
      <trkpt lat="44.5637" lon="7.16839">
        <ele>1407</ele>
        <time>2022-07-18T10:29:26Z</time>
      </trkpt>
      <trkpt lat="44.5637" lon="7.16839">
        <ele>1407</ele>
        <time>2022-07-18T10:29:27Z</time>
      </trkpt>
      <trkpt lat="44.5637" lon="7.16838">
        <ele>1407.4</ele>
        <time>2022-07-18T10:31:21Z</time>
      </trkpt>
      <trkpt lat="44.5637" lon="7.16838">
        <ele>1407.4</ele>
        <time>2022-07-18T10:31:22Z</time>
      </trkpt>
      <trkpt lat="44.5637" lon="7.16838">
        <ele>1407.6</ele>
        <time>2022-07-18T10:31:31Z</time>
      </trkpt>
      <trkpt lat="44.56369" lon="7.16838">
        <ele>1407.6</ele>
        <time>2022-07-18T10:31:32Z</time>
      </trkpt>
      <trkpt lat="44.56369" lon="7.16838">
        <ele>1407.6</ele>
        <time>2022-07-18T10:31:36Z</time>
      </trkpt>
      <trkpt lat="44.56369" lon="7.16838">
        <ele>1407.6</ele>
        <time>2022-07-18T10:31:37Z</time>
      </trkpt>
      <trkpt lat="44.56369" lon="7.16838">
        <ele>1407.6</ele>
        <time>2022-07-18T10:31:38Z</time>
      </trkpt>
      <trkpt lat="44.56369" lon="7.16838">
        <ele>1407.4</ele>
        <time>2022-07-18T10:32:18Z</time>
      </trkpt>
      <trkpt lat="44.56369" lon="7.16838">
        <ele>1407.4</ele>
        <time>2022-07-18T10:32:19Z</time>
      </trkpt>
      <trkpt lat="44.56368" lon="7.16837">
        <ele>1407.4</ele>
        <time>2022-07-18T10:32:23Z</time>
      </trkpt>
      <trkpt lat="44.56368" lon="7.16837">
        <ele>1407.4</ele>
        <time>2022-07-18T10:32:24Z</time>
      </trkpt>
      <trkpt lat="44.56368" lon="7.16837">
        <ele>1407.4</ele>
        <time>2022-07-18T10:32:25Z</time>
      </trkpt>
      <trkpt lat="44.56368" lon="7.16837">
        <ele>1407.4</ele>
        <time>2022-07-18T10:32:26Z</time>
      </trkpt>
      <trkpt lat="44.56368" lon="7.16837">
        <ele>1407.4</ele>
        <time>2022-07-18T10:32:27Z</time>
      </trkpt>
      <trkpt lat="44.56368" lon="7.16837">
        <ele>1407.4</ele>
        <time>2022-07-18T10:32:28Z</time>
      </trkpt>
      <trkpt lat="44.56367" lon="7.16837">
        <ele>1407.4</ele>
        <time>2022-07-18T10:32:29Z</time>
      </trkpt>
      <trkpt lat="44.56367" lon="7.16837">
        <ele>1407.4</ele>
        <time>2022-07-18T10:32:37Z</time>
      </trkpt>
      <trkpt lat="44.56367" lon="7.16836">
        <ele>1407.4</ele>
        <time>2022-07-18T10:32:38Z</time>
      </trkpt>
      <trkpt lat="44.56367" lon="7.16836">
        <ele>1407.4</ele>
        <time>2022-07-18T10:32:40Z</time>
      </trkpt>
      <trkpt lat="44.56367" lon="7.16836">
        <ele>1407.4</ele>
        <time>2022-07-18T10:32:41Z</time>
      </trkpt>
      <trkpt lat="44.56367" lon="7.16836">
        <ele>1407.4</ele>
        <time>2022-07-18T10:32:42Z</time>
      </trkpt>
      <trkpt lat="44.56366" lon="7.16836">
        <ele>1407.6</ele>
        <time>2022-07-18T10:33:56Z</time>
      </trkpt>
      <trkpt lat="44.56366" lon="7.16836">
        <ele>1407.6</ele>
        <time>2022-07-18T10:33:57Z</time>
      </trkpt>
      <trkpt lat="44.56366" lon="7.16836">
        <ele>1407.6</ele>
        <time>2022-07-18T10:33:58Z</time>
      </trkpt>
      <trkpt lat="44.56366" lon="7.16836">
        <ele>1407.6</ele>
        <time>2022-07-18T10:33:59Z</time>
      </trkpt>
      <trkpt lat="44.56366" lon="7.16836">
        <ele>1407.6</ele>
        <time>2022-07-18T10:34:00Z</time>
      </trkpt>
      <trkpt lat="44.56366" lon="7.16835">
        <ele>1407.6</ele>
        <time>2022-07-18T10:34:01Z</time>
      </trkpt>
      <trkpt lat="44.56365" lon="7.16835">
        <ele>1407.6</ele>
        <time>2022-07-18T10:34:02Z</time>
      </trkpt>
      <trkpt lat="44.56365" lon="7.16835">
        <ele>1407.6</ele>
        <time>2022-07-18T10:34:03Z</time>
      </trkpt>
      <trkpt lat="44.56365" lon="7.16835">
        <ele>1407.6</ele>
        <time>2022-07-18T10:34:04Z</time>
      </trkpt>
      <trkpt lat="44.56365" lon="7.16835">
        <ele>1407.6</ele>
        <time>2022-07-18T10:34:05Z</time>
      </trkpt>
      <trkpt lat="44.56365" lon="7.16835">
        <ele>1407.4</ele>
        <time>2022-07-18T10:34:08Z</time>
      </trkpt>
      <trkpt lat="44.56365" lon="7.16835">
        <ele>1407.4</ele>
        <time>2022-07-18T10:34:09Z</time>
      </trkpt>
      <trkpt lat="44.56364" lon="7.16835">
        <ele>1407.4</ele>
        <time>2022-07-18T10:34:18Z</time>
      </trkpt>
      <trkpt lat="44.56364" lon="7.16835">
        <ele>1407.4</ele>
        <time>2022-07-18T10:34:19Z</time>
      </trkpt>
      <trkpt lat="44.56364" lon="7.16834">
        <ele>1407.4</ele>
        <time>2022-07-18T10:34:20Z</time>
      </trkpt>
      <trkpt lat="44.56364" lon="7.16834">
        <ele>1407.4</ele>
        <time>2022-07-18T10:34:21Z</time>
      </trkpt>
      <trkpt lat="44.56364" lon="7.16834">
        <ele>1407.4</ele>
        <time>2022-07-18T10:34:22Z</time>
      </trkpt>
      <trkpt lat="44.56364" lon="7.16834">
        <ele>1407.4</ele>
        <time>2022-07-18T10:34:23Z</time>
      </trkpt>
      <trkpt lat="44.56363" lon="7.16834">
        <ele>1407.4</ele>
        <time>2022-07-18T10:34:24Z</time>
      </trkpt>
      <trkpt lat="44.56363" lon="7.16834">
        <ele>1407.4</ele>
        <time>2022-07-18T10:34:25Z</time>
      </trkpt>
      <trkpt lat="44.56363" lon="7.16834">
        <ele>1407.4</ele>
        <time>2022-07-18T10:34:26Z</time>
      </trkpt>
      <trkpt lat="44.56363" lon="7.16834">
        <ele>1407.4</ele>
        <time>2022-07-18T10:34:27Z</time>
      </trkpt>
      <trkpt lat="44.56363" lon="7.16834">
        <ele>1407.4</ele>
        <time>2022-07-18T10:34:28Z</time>
      </trkpt>
      <trkpt lat="44.56363" lon="7.16833">
        <ele>1407.6</ele>
        <time>2022-07-18T10:34:37Z</time>
      </trkpt>
      <trkpt lat="44.56362" lon="7.16833">
        <ele>1407.6</ele>
        <time>2022-07-18T10:34:38Z</time>
      </trkpt>
      <trkpt lat="44.56362" lon="7.16833">
        <ele>1407.6</ele>
        <time>2022-07-18T10:34:39Z</time>
      </trkpt>
      <trkpt lat="44.56362" lon="7.16833">
        <ele>1407.6</ele>
        <time>2022-07-18T10:34:40Z</time>
      </trkpt>
      <trkpt lat="44.56362" lon="7.16833">
        <ele>1407.6</ele>
        <time>2022-07-18T10:34:41Z</time>
      </trkpt>
      <trkpt lat="44.56362" lon="7.16833">
        <ele>1407.6</ele>
        <time>2022-07-18T10:34:42Z</time>
      </trkpt>
      <trkpt lat="44.56362" lon="7.16833">
        <ele>1407.6</ele>
        <time>2022-07-18T10:34:43Z</time>
      </trkpt>
      <trkpt lat="44.56361" lon="7.16833">
        <ele>1407.6</ele>
        <time>2022-07-18T10:34:44Z</time>
      </trkpt>
      <trkpt lat="44.56361" lon="7.16833">
        <ele>1407.6</ele>
        <time>2022-07-18T10:34:45Z</time>
      </trkpt>
      <trkpt lat="44.56361" lon="7.16832">
        <ele>1407.6</ele>
        <time>2022-07-18T10:34:46Z</time>
      </trkpt>
      <trkpt lat="44.56361" lon="7.16832">
        <ele>1407.6</ele>
        <time>2022-07-18T10:34:47Z</time>
      </trkpt>
      <trkpt lat="44.56361" lon="7.16832">
        <ele>1408</ele>
        <time>2022-07-18T10:34:49Z</time>
      </trkpt>
      <trkpt lat="44.56361" lon="7.16832">
        <ele>1408</ele>
        <time>2022-07-18T10:34:50Z</time>
      </trkpt>
      <trkpt lat="44.5636" lon="7.16832">
        <ele>1408</ele>
        <time>2022-07-18T10:34:51Z</time>
      </trkpt>
      <trkpt lat="44.5636" lon="7.16832">
        <ele>1408</ele>
        <time>2022-07-18T10:34:52Z</time>
      </trkpt>
      <trkpt lat="44.5636" lon="7.16832">
        <ele>1408</ele>
        <time>2022-07-18T10:34:53Z</time>
      </trkpt>
      <trkpt lat="44.56359" lon="7.16831">
        <ele>1408</ele>
        <time>2022-07-18T10:34:54Z</time>
      </trkpt>
      <trkpt lat="44.56358" lon="7.1683">
        <ele>1408.2</ele>
        <time>2022-07-18T10:34:55Z</time>
      </trkpt>
      <trkpt lat="44.56357" lon="7.16829">
        <ele>1408.2</ele>
        <time>2022-07-18T10:34:56Z</time>
      </trkpt>
      <trkpt lat="44.56356" lon="7.16829">
        <ele>1408.4</ele>
        <time>2022-07-18T10:34:57Z</time>
      </trkpt>
      <trkpt lat="44.56355" lon="7.16828">
        <ele>1408.4</ele>
        <time>2022-07-18T10:34:58Z</time>
      </trkpt>
      <trkpt lat="44.56354" lon="7.16827">
        <ele>1408.8</ele>
        <time>2022-07-18T10:34:59Z</time>
      </trkpt>
      <trkpt lat="44.56352" lon="7.16827">
        <ele>1408.8</ele>
        <time>2022-07-18T10:35:00Z</time>
      </trkpt>
      <trkpt lat="44.56351" lon="7.16826">
        <ele>1409</ele>
        <time>2022-07-18T10:35:01Z</time>
      </trkpt>
      <trkpt lat="44.5635" lon="7.16825">
        <ele>1409</ele>
        <time>2022-07-18T10:35:02Z</time>
      </trkpt>
      <trkpt lat="44.56348" lon="7.16824">
        <ele>1409</ele>
        <time>2022-07-18T10:35:03Z</time>
      </trkpt>
      <trkpt lat="44.56347" lon="7.16824">
        <ele>1409.2</ele>
        <time>2022-07-18T10:35:04Z</time>
      </trkpt>
      <trkpt lat="44.56345" lon="7.16823">
        <ele>1409.2</ele>
        <time>2022-07-18T10:35:05Z</time>
      </trkpt>
      <trkpt lat="44.56343" lon="7.16821">
        <ele>1409.6</ele>
        <time>2022-07-18T10:35:06Z</time>
      </trkpt>
      <trkpt lat="44.56342" lon="7.1682">
        <ele>1409.6</ele>
        <time>2022-07-18T10:35:07Z</time>
      </trkpt>
      <trkpt lat="44.5634" lon="7.16819">
        <ele>1409.8</ele>
        <time>2022-07-18T10:35:08Z</time>
      </trkpt>
      <trkpt lat="44.56339" lon="7.16819">
        <ele>1409.8</ele>
        <time>2022-07-18T10:35:09Z</time>
      </trkpt>
      <trkpt lat="44.56337" lon="7.16818">
        <ele>1410.2</ele>
        <time>2022-07-18T10:35:10Z</time>
      </trkpt>
      <trkpt lat="44.56335" lon="7.16817">
        <ele>1410.2</ele>
        <time>2022-07-18T10:35:11Z</time>
      </trkpt>
      <trkpt lat="44.56334" lon="7.16816">
        <ele>1410.6</ele>
        <time>2022-07-18T10:35:12Z</time>
      </trkpt>
      <trkpt lat="44.56333" lon="7.16816">
        <ele>1410.6</ele>
        <time>2022-07-18T10:35:13Z</time>
      </trkpt>
      <trkpt lat="44.56331" lon="7.16814">
        <ele>1410.8</ele>
        <time>2022-07-18T10:35:14Z</time>
      </trkpt>
      <trkpt lat="44.5633" lon="7.16813">
        <ele>1411</ele>
        <time>2022-07-18T10:35:15Z</time>
      </trkpt>
      <trkpt lat="44.56328" lon="7.16812">
        <ele>1411</ele>
        <time>2022-07-18T10:35:16Z</time>
      </trkpt>
      <trkpt lat="44.56326" lon="7.16811">
        <ele>1411.4</ele>
        <time>2022-07-18T10:35:17Z</time>
      </trkpt>
      <trkpt lat="44.56325" lon="7.16809">
        <ele>1411.6</ele>
        <time>2022-07-18T10:35:18Z</time>
      </trkpt>
      <trkpt lat="44.56323" lon="7.16808">
        <ele>1411.8</ele>
        <time>2022-07-18T10:35:19Z</time>
      </trkpt>
      <trkpt lat="44.56321" lon="7.16806">
        <ele>1411.8</ele>
        <time>2022-07-18T10:35:20Z</time>
      </trkpt>
      <trkpt lat="44.5632" lon="7.16804">
        <ele>1412</ele>
        <time>2022-07-18T10:35:21Z</time>
      </trkpt>
      <trkpt lat="44.56319" lon="7.16802">
        <ele>1412</ele>
        <time>2022-07-18T10:35:22Z</time>
      </trkpt>
      <trkpt lat="44.56317" lon="7.168">
        <ele>1412.4</ele>
        <time>2022-07-18T10:35:23Z</time>
      </trkpt>
      <trkpt lat="44.56317" lon="7.16798">
        <ele>1412.4</ele>
        <time>2022-07-18T10:35:24Z</time>
      </trkpt>
      <trkpt lat="44.56316" lon="7.16796">
        <ele>1412.8</ele>
        <time>2022-07-18T10:35:25Z</time>
      </trkpt>
      <trkpt lat="44.56314" lon="7.16794">
        <ele>1412.8</ele>
        <time>2022-07-18T10:35:26Z</time>
      </trkpt>
      <trkpt lat="44.56313" lon="7.16792">
        <ele>1413.2</ele>
        <time>2022-07-18T10:35:27Z</time>
      </trkpt>
      <trkpt lat="44.56312" lon="7.1679">
        <ele>1413.2</ele>
        <time>2022-07-18T10:35:28Z</time>
      </trkpt>
      <trkpt lat="44.5631" lon="7.16788">
        <ele>1413.4</ele>
        <time>2022-07-18T10:35:29Z</time>
      </trkpt>
      <trkpt lat="44.56309" lon="7.16785">
        <ele>1413.4</ele>
        <time>2022-07-18T10:35:30Z</time>
      </trkpt>
      <trkpt lat="44.56308" lon="7.16783">
        <ele>1413.8</ele>
        <time>2022-07-18T10:35:31Z</time>
      </trkpt>
      <trkpt lat="44.56307" lon="7.1678">
        <ele>1414.2</ele>
        <time>2022-07-18T10:35:32Z</time>
      </trkpt>
      <trkpt lat="44.56307" lon="7.16778">
        <ele>1414.4</ele>
        <time>2022-07-18T10:35:33Z</time>
      </trkpt>
      <trkpt lat="44.56306" lon="7.16775">
        <ele>1414.6</ele>
        <time>2022-07-18T10:35:34Z</time>
      </trkpt>
      <trkpt lat="44.56306" lon="7.16773">
        <ele>1414.6</ele>
        <time>2022-07-18T10:35:35Z</time>
      </trkpt>
      <trkpt lat="44.56305" lon="7.16771">
        <ele>1415</ele>
        <time>2022-07-18T10:35:36Z</time>
      </trkpt>
      <trkpt lat="44.56305" lon="7.16768">
        <ele>1415</ele>
        <time>2022-07-18T10:35:37Z</time>
      </trkpt>
      <trkpt lat="44.56304" lon="7.16766">
        <ele>1415.4</ele>
        <time>2022-07-18T10:35:38Z</time>
      </trkpt>
      <trkpt lat="44.56303" lon="7.16764">
        <ele>1415.4</ele>
        <time>2022-07-18T10:35:39Z</time>
      </trkpt>
      <trkpt lat="44.56303" lon="7.16761">
        <ele>1415.8</ele>
        <time>2022-07-18T10:35:40Z</time>
      </trkpt>
      <trkpt lat="44.56303" lon="7.16759">
        <ele>1415.8</ele>
        <time>2022-07-18T10:35:41Z</time>
      </trkpt>
      <trkpt lat="44.56302" lon="7.16756">
        <ele>1416</ele>
        <time>2022-07-18T10:35:42Z</time>
      </trkpt>
      <trkpt lat="44.56301" lon="7.16754">
        <ele>1416</ele>
        <time>2022-07-18T10:35:43Z</time>
      </trkpt>
      <trkpt lat="44.563" lon="7.16752">
        <ele>1416.4</ele>
        <time>2022-07-18T10:35:44Z</time>
      </trkpt>
      <trkpt lat="44.563" lon="7.16749">
        <ele>1416.4</ele>
        <time>2022-07-18T10:35:45Z</time>
      </trkpt>
      <trkpt lat="44.563" lon="7.16747">
        <ele>1416.6</ele>
        <time>2022-07-18T10:35:46Z</time>
      </trkpt>
      <trkpt lat="44.56299" lon="7.16745">
        <ele>1416.6</ele>
        <time>2022-07-18T10:35:47Z</time>
      </trkpt>
      <trkpt lat="44.56299" lon="7.16743">
        <ele>1417</ele>
        <time>2022-07-18T10:35:48Z</time>
      </trkpt>
      <trkpt lat="44.56299" lon="7.16741">
        <ele>1417</ele>
        <time>2022-07-18T10:35:49Z</time>
      </trkpt>
      <trkpt lat="44.56299" lon="7.16738">
        <ele>1417.4</ele>
        <time>2022-07-18T10:35:50Z</time>
      </trkpt>
      <trkpt lat="44.56299" lon="7.16737">
        <ele>1417.4</ele>
        <time>2022-07-18T10:35:51Z</time>
      </trkpt>
      <trkpt lat="44.56299" lon="7.16735">
        <ele>1417.8</ele>
        <time>2022-07-18T10:35:52Z</time>
      </trkpt>
      <trkpt lat="44.56299" lon="7.16733">
        <ele>1418</ele>
        <time>2022-07-18T10:35:53Z</time>
      </trkpt>
      <trkpt lat="44.56298" lon="7.1673">
        <ele>1418</ele>
        <time>2022-07-18T10:35:54Z</time>
      </trkpt>
      <trkpt lat="44.56298" lon="7.16728">
        <ele>1418.2</ele>
        <time>2022-07-18T10:35:55Z</time>
      </trkpt>
      <trkpt lat="44.56298" lon="7.16726">
        <ele>1418.4</ele>
        <time>2022-07-18T10:35:56Z</time>
      </trkpt>
      <trkpt lat="44.56299" lon="7.16724">
        <ele>1418.8</ele>
        <time>2022-07-18T10:35:57Z</time>
      </trkpt>
      <trkpt lat="44.56299" lon="7.16721">
        <ele>1419</ele>
        <time>2022-07-18T10:35:58Z</time>
      </trkpt>
      <trkpt lat="44.563" lon="7.16719">
        <ele>1419</ele>
        <time>2022-07-18T10:35:59Z</time>
      </trkpt>
      <trkpt lat="44.563" lon="7.16717">
        <ele>1419.2</ele>
        <time>2022-07-18T10:36:00Z</time>
      </trkpt>
      <trkpt lat="44.563" lon="7.16714">
        <ele>1419.4</ele>
        <time>2022-07-18T10:36:01Z</time>
      </trkpt>
      <trkpt lat="44.563" lon="7.16711">
        <ele>1419.4</ele>
        <time>2022-07-18T10:36:02Z</time>
      </trkpt>
      <trkpt lat="44.56301" lon="7.16709">
        <ele>1419.8</ele>
        <time>2022-07-18T10:36:03Z</time>
      </trkpt>
      <trkpt lat="44.56301" lon="7.16706">
        <ele>1420</ele>
        <time>2022-07-18T10:36:04Z</time>
      </trkpt>
      <trkpt lat="44.56301" lon="7.16704">
        <ele>1420</ele>
        <time>2022-07-18T10:36:05Z</time>
      </trkpt>
      <trkpt lat="44.56301" lon="7.16701">
        <ele>1420.4</ele>
        <time>2022-07-18T10:36:06Z</time>
      </trkpt>
      <trkpt lat="44.56302" lon="7.16699">
        <ele>1420.4</ele>
        <time>2022-07-18T10:36:07Z</time>
      </trkpt>
      <trkpt lat="44.56302" lon="7.16697">
        <ele>1420.8</ele>
        <time>2022-07-18T10:36:08Z</time>
      </trkpt>
      <trkpt lat="44.56302" lon="7.16695">
        <ele>1420.8</ele>
        <time>2022-07-18T10:36:09Z</time>
      </trkpt>
      <trkpt lat="44.56302" lon="7.16694">
        <ele>1421.2</ele>
        <time>2022-07-18T10:36:10Z</time>
      </trkpt>
      <trkpt lat="44.56302" lon="7.16691">
        <ele>1421.2</ele>
        <time>2022-07-18T10:36:11Z</time>
      </trkpt>
      <trkpt lat="44.56302" lon="7.16689">
        <ele>1421.6</ele>
        <time>2022-07-18T10:36:12Z</time>
      </trkpt>
      <trkpt lat="44.56302" lon="7.16687">
        <ele>1421.8</ele>
        <time>2022-07-18T10:36:13Z</time>
      </trkpt>
      <trkpt lat="44.56302" lon="7.16685">
        <ele>1422</ele>
        <time>2022-07-18T10:36:14Z</time>
      </trkpt>
      <trkpt lat="44.56302" lon="7.16682">
        <ele>1422.4</ele>
        <time>2022-07-18T10:36:15Z</time>
      </trkpt>
      <trkpt lat="44.56301" lon="7.16679">
        <ele>1422.6</ele>
        <time>2022-07-18T10:36:16Z</time>
      </trkpt>
      <trkpt lat="44.563" lon="7.16677">
        <ele>1422.8</ele>
        <time>2022-07-18T10:36:17Z</time>
      </trkpt>
      <trkpt lat="44.563" lon="7.16674">
        <ele>1423</ele>
        <time>2022-07-18T10:36:18Z</time>
      </trkpt>
      <trkpt lat="44.563" lon="7.16672">
        <ele>1423</ele>
        <time>2022-07-18T10:36:19Z</time>
      </trkpt>
      <trkpt lat="44.56299" lon="7.16669">
        <ele>1423.2</ele>
        <time>2022-07-18T10:36:20Z</time>
      </trkpt>
      <trkpt lat="44.56298" lon="7.16667">
        <ele>1423.2</ele>
        <time>2022-07-18T10:36:21Z</time>
      </trkpt>
      <trkpt lat="44.56298" lon="7.16664">
        <ele>1423.6</ele>
        <time>2022-07-18T10:36:22Z</time>
      </trkpt>
      <trkpt lat="44.56297" lon="7.16661">
        <ele>1423.6</ele>
        <time>2022-07-18T10:36:23Z</time>
      </trkpt>
      <trkpt lat="44.56296" lon="7.16658">
        <ele>1423.8</ele>
        <time>2022-07-18T10:36:24Z</time>
      </trkpt>
      <trkpt lat="44.56296" lon="7.16655">
        <ele>1423.8</ele>
        <time>2022-07-18T10:36:25Z</time>
      </trkpt>
      <trkpt lat="44.56296" lon="7.16652">
        <ele>1424.2</ele>
        <time>2022-07-18T10:36:26Z</time>
      </trkpt>
      <trkpt lat="44.56295" lon="7.16649">
        <ele>1424.4</ele>
        <time>2022-07-18T10:36:27Z</time>
      </trkpt>
      <trkpt lat="44.56295" lon="7.16646">
        <ele>1424.4</ele>
        <time>2022-07-18T10:36:28Z</time>
      </trkpt>
      <trkpt lat="44.56294" lon="7.16644">
        <ele>1424.8</ele>
        <time>2022-07-18T10:36:29Z</time>
      </trkpt>
      <trkpt lat="44.56294" lon="7.16641">
        <ele>1424.8</ele>
        <time>2022-07-18T10:36:30Z</time>
      </trkpt>
      <trkpt lat="44.56294" lon="7.16637">
        <ele>1425.2</ele>
        <time>2022-07-18T10:36:31Z</time>
      </trkpt>
      <trkpt lat="44.56294" lon="7.16633">
        <ele>1425.2</ele>
        <time>2022-07-18T10:36:32Z</time>
      </trkpt>
      <trkpt lat="44.56295" lon="7.1663">
        <ele>1425.6</ele>
        <time>2022-07-18T10:36:33Z</time>
      </trkpt>
      <trkpt lat="44.56296" lon="7.16628">
        <ele>1425.6</ele>
        <time>2022-07-18T10:36:34Z</time>
      </trkpt>
      <trkpt lat="44.56297" lon="7.16626">
        <ele>1426</ele>
        <time>2022-07-18T10:36:35Z</time>
      </trkpt>
      <trkpt lat="44.56297" lon="7.16623">
        <ele>1426</ele>
        <time>2022-07-18T10:36:36Z</time>
      </trkpt>
      <trkpt lat="44.56298" lon="7.16621">
        <ele>1426.2</ele>
        <time>2022-07-18T10:36:37Z</time>
      </trkpt>
      <trkpt lat="44.56298" lon="7.16619">
        <ele>1426.2</ele>
        <time>2022-07-18T10:36:38Z</time>
      </trkpt>
      <trkpt lat="44.56299" lon="7.16616">
        <ele>1426.6</ele>
        <time>2022-07-18T10:36:39Z</time>
      </trkpt>
      <trkpt lat="44.563" lon="7.16614">
        <ele>1426.8</ele>
        <time>2022-07-18T10:36:40Z</time>
      </trkpt>
      <trkpt lat="44.56301" lon="7.16612">
        <ele>1427</ele>
        <time>2022-07-18T10:36:41Z</time>
      </trkpt>
      <trkpt lat="44.56302" lon="7.16609">
        <ele>1427.2</ele>
        <time>2022-07-18T10:36:42Z</time>
      </trkpt>
      <trkpt lat="44.56304" lon="7.16607">
        <ele>1427.2</ele>
        <time>2022-07-18T10:36:43Z</time>
      </trkpt>
      <trkpt lat="44.56305" lon="7.16604">
        <ele>1427.6</ele>
        <time>2022-07-18T10:36:44Z</time>
      </trkpt>
      <trkpt lat="44.56306" lon="7.16602">
        <ele>1427.6</ele>
        <time>2022-07-18T10:36:45Z</time>
      </trkpt>
      <trkpt lat="44.56308" lon="7.16601">
        <ele>1427.8</ele>
        <time>2022-07-18T10:36:46Z</time>
      </trkpt>
      <trkpt lat="44.5631" lon="7.16599">
        <ele>1427.8</ele>
        <time>2022-07-18T10:36:47Z</time>
      </trkpt>
      <trkpt lat="44.56311" lon="7.16598">
        <ele>1428.2</ele>
        <time>2022-07-18T10:36:48Z</time>
      </trkpt>
      <trkpt lat="44.56313" lon="7.16598">
        <ele>1428.2</ele>
        <time>2022-07-18T10:36:49Z</time>
      </trkpt>
      <trkpt lat="44.56314" lon="7.16597">
        <ele>1428.6</ele>
        <time>2022-07-18T10:36:50Z</time>
      </trkpt>
      <trkpt lat="44.56316" lon="7.16597">
        <ele>1428.6</ele>
        <time>2022-07-18T10:36:51Z</time>
      </trkpt>
      <trkpt lat="44.56317" lon="7.16596">
        <ele>1428.8</ele>
        <time>2022-07-18T10:36:52Z</time>
      </trkpt>
      <trkpt lat="44.56319" lon="7.16595">
        <ele>1428.8</ele>
        <time>2022-07-18T10:36:53Z</time>
      </trkpt>
      <trkpt lat="44.5632" lon="7.16594">
        <ele>1429.2</ele>
        <time>2022-07-18T10:36:54Z</time>
      </trkpt>
      <trkpt lat="44.56321" lon="7.16594">
        <ele>1429.4</ele>
        <time>2022-07-18T10:36:55Z</time>
      </trkpt>
      <trkpt lat="44.56322" lon="7.16595">
        <ele>1429.4</ele>
        <time>2022-07-18T10:36:56Z</time>
      </trkpt>
      <trkpt lat="44.56324" lon="7.16596">
        <ele>1429.6</ele>
        <time>2022-07-18T10:36:57Z</time>
      </trkpt>
      <trkpt lat="44.56325" lon="7.16596">
        <ele>1429.6</ele>
        <time>2022-07-18T10:36:58Z</time>
      </trkpt>
      <trkpt lat="44.56327" lon="7.16596">
        <ele>1430</ele>
        <time>2022-07-18T10:36:59Z</time>
      </trkpt>
      <trkpt lat="44.56329" lon="7.16595">
        <ele>1430</ele>
        <time>2022-07-18T10:37:00Z</time>
      </trkpt>
      <trkpt lat="44.56331" lon="7.16595">
        <ele>1430.4</ele>
        <time>2022-07-18T10:37:01Z</time>
      </trkpt>
      <trkpt lat="44.56332" lon="7.16595">
        <ele>1430.4</ele>
        <time>2022-07-18T10:37:02Z</time>
      </trkpt>
      <trkpt lat="44.56333" lon="7.16595">
        <ele>1430.8</ele>
        <time>2022-07-18T10:37:03Z</time>
      </trkpt>
      <trkpt lat="44.56334" lon="7.16595">
        <ele>1431</ele>
        <time>2022-07-18T10:37:04Z</time>
      </trkpt>
      <trkpt lat="44.56336" lon="7.16596">
        <ele>1431</ele>
        <time>2022-07-18T10:37:05Z</time>
      </trkpt>
      <trkpt lat="44.56337" lon="7.16595">
        <ele>1431.2</ele>
        <time>2022-07-18T10:37:06Z</time>
      </trkpt>
      <trkpt lat="44.56338" lon="7.16595">
        <ele>1431.2</ele>
        <time>2022-07-18T10:37:07Z</time>
      </trkpt>
      <trkpt lat="44.56339" lon="7.16595">
        <ele>1431.6</ele>
        <time>2022-07-18T10:37:08Z</time>
      </trkpt>
      <trkpt lat="44.56341" lon="7.16595">
        <ele>1431.6</ele>
        <time>2022-07-18T10:37:09Z</time>
      </trkpt>
      <trkpt lat="44.56342" lon="7.16595">
        <ele>1431.8</ele>
        <time>2022-07-18T10:37:10Z</time>
      </trkpt>
      <trkpt lat="44.56344" lon="7.16595">
        <ele>1431.8</ele>
        <time>2022-07-18T10:37:11Z</time>
      </trkpt>
      <trkpt lat="44.56346" lon="7.16594">
        <ele>1432.2</ele>
        <time>2022-07-18T10:37:12Z</time>
      </trkpt>
      <trkpt lat="44.56348" lon="7.16593">
        <ele>1432.2</ele>
        <time>2022-07-18T10:37:13Z</time>
      </trkpt>
      <trkpt lat="44.56349" lon="7.16593">
        <ele>1432.6</ele>
        <time>2022-07-18T10:37:14Z</time>
      </trkpt>
      <trkpt lat="44.56351" lon="7.16593">
        <ele>1432.6</ele>
        <time>2022-07-18T10:37:15Z</time>
      </trkpt>
      <trkpt lat="44.56352" lon="7.16593">
        <ele>1433</ele>
        <time>2022-07-18T10:37:16Z</time>
      </trkpt>
      <trkpt lat="44.56353" lon="7.16592">
        <ele>1433</ele>
        <time>2022-07-18T10:37:17Z</time>
      </trkpt>
      <trkpt lat="44.56355" lon="7.16592">
        <ele>1433.2</ele>
        <time>2022-07-18T10:37:18Z</time>
      </trkpt>
      <trkpt lat="44.56356" lon="7.16591">
        <ele>1433.2</ele>
        <time>2022-07-18T10:37:19Z</time>
      </trkpt>
      <trkpt lat="44.56358" lon="7.16591">
        <ele>1433.6</ele>
        <time>2022-07-18T10:37:20Z</time>
      </trkpt>
      <trkpt lat="44.5636" lon="7.16591">
        <ele>1433.6</ele>
        <time>2022-07-18T10:37:21Z</time>
      </trkpt>
      <trkpt lat="44.56362" lon="7.16591">
        <ele>1434</ele>
        <time>2022-07-18T10:37:22Z</time>
      </trkpt>
      <trkpt lat="44.56363" lon="7.1659">
        <ele>1434</ele>
        <time>2022-07-18T10:37:23Z</time>
      </trkpt>
      <trkpt lat="44.56364" lon="7.1659">
        <ele>1434.2</ele>
        <time>2022-07-18T10:37:24Z</time>
      </trkpt>
      <trkpt lat="44.56366" lon="7.1659">
        <ele>1434.2</ele>
        <time>2022-07-18T10:37:25Z</time>
      </trkpt>
      <trkpt lat="44.56368" lon="7.1659">
        <ele>1434.6</ele>
        <time>2022-07-18T10:37:26Z</time>
      </trkpt>
      <trkpt lat="44.56369" lon="7.16589">
        <ele>1434.6</ele>
        <time>2022-07-18T10:37:27Z</time>
      </trkpt>
      <trkpt lat="44.56371" lon="7.16589">
        <ele>1435</ele>
        <time>2022-07-18T10:37:28Z</time>
      </trkpt>
      <trkpt lat="44.56372" lon="7.16589">
        <ele>1435.2</ele>
        <time>2022-07-18T10:37:29Z</time>
      </trkpt>
      <trkpt lat="44.56374" lon="7.16588">
        <ele>1435.2</ele>
        <time>2022-07-18T10:37:30Z</time>
      </trkpt>
      <trkpt lat="44.56375" lon="7.16588">
        <ele>1435.4</ele>
        <time>2022-07-18T10:37:31Z</time>
      </trkpt>
      <trkpt lat="44.56376" lon="7.16588">
        <ele>1435.6</ele>
        <time>2022-07-18T10:37:32Z</time>
      </trkpt>
      <trkpt lat="44.56379" lon="7.16589">
        <ele>1436.2</ele>
        <time>2022-07-18T10:37:34Z</time>
      </trkpt>
      <trkpt lat="44.56382" lon="7.16589">
        <ele>1436.2</ele>
        <time>2022-07-18T10:37:35Z</time>
      </trkpt>
      <trkpt lat="44.56384" lon="7.16589">
        <ele>1436.4</ele>
        <time>2022-07-18T10:37:36Z</time>
      </trkpt>
      <trkpt lat="44.56387" lon="7.1659">
        <ele>1436.4</ele>
        <time>2022-07-18T10:37:37Z</time>
      </trkpt>
      <trkpt lat="44.56389" lon="7.1659">
        <ele>1436.8</ele>
        <time>2022-07-18T10:37:38Z</time>
      </trkpt>
      <trkpt lat="44.5639" lon="7.16589">
        <ele>1436.8</ele>
        <time>2022-07-18T10:37:39Z</time>
      </trkpt>
      <trkpt lat="44.56392" lon="7.16589">
        <ele>1437.2</ele>
        <time>2022-07-18T10:37:40Z</time>
      </trkpt>
      <trkpt lat="44.56393" lon="7.16588">
        <ele>1437.4</ele>
        <time>2022-07-18T10:37:41Z</time>
      </trkpt>
      <trkpt lat="44.56395" lon="7.16588">
        <ele>1437.6</ele>
        <time>2022-07-18T10:37:42Z</time>
      </trkpt>
      <trkpt lat="44.56397" lon="7.16587">
        <ele>1437.8</ele>
        <time>2022-07-18T10:37:43Z</time>
      </trkpt>
      <trkpt lat="44.56398" lon="7.16587">
        <ele>1437.8</ele>
        <time>2022-07-18T10:37:44Z</time>
      </trkpt>
      <trkpt lat="44.564" lon="7.16586">
        <ele>1438.2</ele>
        <time>2022-07-18T10:37:45Z</time>
      </trkpt>
      <trkpt lat="44.56402" lon="7.16586">
        <ele>1438.4</ele>
        <time>2022-07-18T10:37:46Z</time>
      </trkpt>
      <trkpt lat="44.56404" lon="7.16586">
        <ele>1438.6</ele>
        <time>2022-07-18T10:37:47Z</time>
      </trkpt>
      <trkpt lat="44.56405" lon="7.16586">
        <ele>1438.6</ele>
        <time>2022-07-18T10:37:48Z</time>
      </trkpt>
      <trkpt lat="44.56408" lon="7.16585">
        <ele>1439</ele>
        <time>2022-07-18T10:37:49Z</time>
      </trkpt>
      <trkpt lat="44.5641" lon="7.16585">
        <ele>1439</ele>
        <time>2022-07-18T10:37:50Z</time>
      </trkpt>
      <trkpt lat="44.56411" lon="7.16584">
        <ele>1439.4</ele>
        <time>2022-07-18T10:37:51Z</time>
      </trkpt>
      <trkpt lat="44.56414" lon="7.16584">
        <ele>1439.4</ele>
        <time>2022-07-18T10:37:52Z</time>
      </trkpt>
      <trkpt lat="44.56416" lon="7.16585">
        <ele>1439.6</ele>
        <time>2022-07-18T10:37:53Z</time>
      </trkpt>
      <trkpt lat="44.56418" lon="7.16584">
        <ele>1439.6</ele>
        <time>2022-07-18T10:37:54Z</time>
      </trkpt>
      <trkpt lat="44.5642" lon="7.16585">
        <ele>1440</ele>
        <time>2022-07-18T10:37:55Z</time>
      </trkpt>
      <trkpt lat="44.56422" lon="7.16584">
        <ele>1440.2</ele>
        <time>2022-07-18T10:37:56Z</time>
      </trkpt>
      <trkpt lat="44.56424" lon="7.16584">
        <ele>1440.2</ele>
        <time>2022-07-18T10:37:57Z</time>
      </trkpt>
      <trkpt lat="44.56426" lon="7.16583">
        <ele>1440.6</ele>
        <time>2022-07-18T10:37:58Z</time>
      </trkpt>
      <trkpt lat="44.56428" lon="7.16583">
        <ele>1440.6</ele>
        <time>2022-07-18T10:37:59Z</time>
      </trkpt>
      <trkpt lat="44.5643" lon="7.16583">
        <ele>1440.8</ele>
        <time>2022-07-18T10:38:00Z</time>
      </trkpt>
      <trkpt lat="44.56433" lon="7.16583">
        <ele>1441.2</ele>
        <time>2022-07-18T10:38:01Z</time>
      </trkpt>
      <trkpt lat="44.56435" lon="7.16583">
        <ele>1441.2</ele>
        <time>2022-07-18T10:38:02Z</time>
      </trkpt>
      <trkpt lat="44.56437" lon="7.16584">
        <ele>1441.4</ele>
        <time>2022-07-18T10:38:03Z</time>
      </trkpt>
      <trkpt lat="44.56439" lon="7.16583">
        <ele>1441.4</ele>
        <time>2022-07-18T10:38:04Z</time>
      </trkpt>
      <trkpt lat="44.56442" lon="7.16583">
        <ele>1441.8</ele>
        <time>2022-07-18T10:38:05Z</time>
      </trkpt>
      <trkpt lat="44.56444" lon="7.16583">
        <ele>1441.8</ele>
        <time>2022-07-18T10:38:06Z</time>
      </trkpt>
      <trkpt lat="44.56446" lon="7.16583">
        <ele>1442</ele>
        <time>2022-07-18T10:38:07Z</time>
      </trkpt>
      <trkpt lat="44.56448" lon="7.16583">
        <ele>1442</ele>
        <time>2022-07-18T10:38:08Z</time>
      </trkpt>
      <trkpt lat="44.5645" lon="7.16584">
        <ele>1442.4</ele>
        <time>2022-07-18T10:38:09Z</time>
      </trkpt>
      <trkpt lat="44.56452" lon="7.16585">
        <ele>1442.6</ele>
        <time>2022-07-18T10:38:10Z</time>
      </trkpt>
      <trkpt lat="44.56454" lon="7.16585">
        <ele>1442.6</ele>
        <time>2022-07-18T10:38:11Z</time>
      </trkpt>
      <trkpt lat="44.56456" lon="7.16585">
        <ele>1442.8</ele>
        <time>2022-07-18T10:38:12Z</time>
      </trkpt>
      <trkpt lat="44.56457" lon="7.16585">
        <ele>1442.8</ele>
        <time>2022-07-18T10:38:13Z</time>
      </trkpt>
      <trkpt lat="44.56459" lon="7.16585">
        <ele>1443.2</ele>
        <time>2022-07-18T10:38:14Z</time>
      </trkpt>
      <trkpt lat="44.56461" lon="7.16585">
        <ele>1443.2</ele>
        <time>2022-07-18T10:38:15Z</time>
      </trkpt>
      <trkpt lat="44.56463" lon="7.16584">
        <ele>1443.6</ele>
        <time>2022-07-18T10:38:16Z</time>
      </trkpt>
      <trkpt lat="44.56465" lon="7.16584">
        <ele>1443.8</ele>
        <time>2022-07-18T10:38:17Z</time>
      </trkpt>
      <trkpt lat="44.56467" lon="7.16584">
        <ele>1443.8</ele>
        <time>2022-07-18T10:38:18Z</time>
      </trkpt>
      <trkpt lat="44.56469" lon="7.16584">
        <ele>1444.2</ele>
        <time>2022-07-18T10:38:19Z</time>
      </trkpt>
      <trkpt lat="44.5647" lon="7.16585">
        <ele>1444.4</ele>
        <time>2022-07-18T10:38:20Z</time>
      </trkpt>
      <trkpt lat="44.56472" lon="7.16585">
        <ele>1444.4</ele>
        <time>2022-07-18T10:38:21Z</time>
      </trkpt>
      <trkpt lat="44.56474" lon="7.16586">
        <ele>1444.8</ele>
        <time>2022-07-18T10:38:22Z</time>
      </trkpt>
      <trkpt lat="44.56476" lon="7.16586">
        <ele>1444.8</ele>
        <time>2022-07-18T10:38:23Z</time>
      </trkpt>
      <trkpt lat="44.56478" lon="7.16586">
        <ele>1445.2</ele>
        <time>2022-07-18T10:38:24Z</time>
      </trkpt>
      <trkpt lat="44.5648" lon="7.16587">
        <ele>1445.2</ele>
        <time>2022-07-18T10:38:25Z</time>
      </trkpt>
      <trkpt lat="44.56482" lon="7.16587">
        <ele>1445.6</ele>
        <time>2022-07-18T10:38:26Z</time>
      </trkpt>
      <trkpt lat="44.56484" lon="7.16588">
        <ele>1445.6</ele>
        <time>2022-07-18T10:38:27Z</time>
      </trkpt>
      <trkpt lat="44.56485" lon="7.16588">
        <ele>1445.8</ele>
        <time>2022-07-18T10:38:28Z</time>
      </trkpt>
      <trkpt lat="44.56487" lon="7.16589">
        <ele>1445.8</ele>
        <time>2022-07-18T10:38:29Z</time>
      </trkpt>
      <trkpt lat="44.56489" lon="7.1659">
        <ele>1446.2</ele>
        <time>2022-07-18T10:38:30Z</time>
      </trkpt>
      <trkpt lat="44.5649" lon="7.16591">
        <ele>1446.2</ele>
        <time>2022-07-18T10:38:31Z</time>
      </trkpt>
      <trkpt lat="44.56491" lon="7.16591">
        <ele>1446.6</ele>
        <time>2022-07-18T10:38:32Z</time>
      </trkpt>
      <trkpt lat="44.56493" lon="7.16592">
        <ele>1446.6</ele>
        <time>2022-07-18T10:38:33Z</time>
      </trkpt>
      <trkpt lat="44.56494" lon="7.16593">
        <ele>1446.8</ele>
        <time>2022-07-18T10:38:34Z</time>
      </trkpt>
      <trkpt lat="44.56496" lon="7.16593">
        <ele>1446.8</ele>
        <time>2022-07-18T10:38:35Z</time>
      </trkpt>
      <trkpt lat="44.56497" lon="7.16593">
        <ele>1447.2</ele>
        <time>2022-07-18T10:38:36Z</time>
      </trkpt>
      <trkpt lat="44.56499" lon="7.16593">
        <ele>1447.4</ele>
        <time>2022-07-18T10:38:37Z</time>
      </trkpt>
      <trkpt lat="44.565" lon="7.16593">
        <ele>1447.4</ele>
        <time>2022-07-18T10:38:38Z</time>
      </trkpt>
      <trkpt lat="44.56502" lon="7.16594">
        <ele>1447.8</ele>
        <time>2022-07-18T10:38:39Z</time>
      </trkpt>
      <trkpt lat="44.56504" lon="7.16595">
        <ele>1447.8</ele>
        <time>2022-07-18T10:38:40Z</time>
      </trkpt>
      <trkpt lat="44.56505" lon="7.16595">
        <ele>1448</ele>
        <time>2022-07-18T10:38:41Z</time>
      </trkpt>
      <trkpt lat="44.56507" lon="7.16596">
        <ele>1448</ele>
        <time>2022-07-18T10:38:42Z</time>
      </trkpt>
      <trkpt lat="44.56509" lon="7.16596">
        <ele>1448.4</ele>
        <time>2022-07-18T10:38:43Z</time>
      </trkpt>
      <trkpt lat="44.56511" lon="7.16596">
        <ele>1448.4</ele>
        <time>2022-07-18T10:38:44Z</time>
      </trkpt>
      <trkpt lat="44.56513" lon="7.16596">
        <ele>1448.6</ele>
        <time>2022-07-18T10:38:45Z</time>
      </trkpt>
      <trkpt lat="44.56515" lon="7.16597">
        <ele>1448.6</ele>
        <time>2022-07-18T10:38:46Z</time>
      </trkpt>
      <trkpt lat="44.56517" lon="7.16597">
        <ele>1448.8</ele>
        <time>2022-07-18T10:38:47Z</time>
      </trkpt>
      <trkpt lat="44.56519" lon="7.16597">
        <ele>1448.8</ele>
        <time>2022-07-18T10:38:48Z</time>
      </trkpt>
      <trkpt lat="44.56521" lon="7.16598">
        <ele>1449</ele>
        <time>2022-07-18T10:38:49Z</time>
      </trkpt>
      <trkpt lat="44.56523" lon="7.16598">
        <ele>1449</ele>
        <time>2022-07-18T10:38:50Z</time>
      </trkpt>
      <trkpt lat="44.56524" lon="7.16599">
        <ele>1449.4</ele>
        <time>2022-07-18T10:38:51Z</time>
      </trkpt>
      <trkpt lat="44.56526" lon="7.166">
        <ele>1449.4</ele>
        <time>2022-07-18T10:38:52Z</time>
      </trkpt>
      <trkpt lat="44.56528" lon="7.166">
        <ele>1449.8</ele>
        <time>2022-07-18T10:38:53Z</time>
      </trkpt>
      <trkpt lat="44.5653" lon="7.166">
        <ele>1449.8</ele>
        <time>2022-07-18T10:38:54Z</time>
      </trkpt>
      <trkpt lat="44.56532" lon="7.16601">
        <ele>1450</ele>
        <time>2022-07-18T10:38:55Z</time>
      </trkpt>
      <trkpt lat="44.56535" lon="7.16602">
        <ele>1450</ele>
        <time>2022-07-18T10:38:56Z</time>
      </trkpt>
      <trkpt lat="44.56537" lon="7.16602">
        <ele>1450.4</ele>
        <time>2022-07-18T10:38:57Z</time>
      </trkpt>
      <trkpt lat="44.56539" lon="7.16602">
        <ele>1450.6</ele>
        <time>2022-07-18T10:38:58Z</time>
      </trkpt>
      <trkpt lat="44.56541" lon="7.16602">
        <ele>1450.6</ele>
        <time>2022-07-18T10:38:59Z</time>
      </trkpt>
      <trkpt lat="44.56542" lon="7.16602">
        <ele>1451</ele>
        <time>2022-07-18T10:39:00Z</time>
      </trkpt>
      <trkpt lat="44.56544" lon="7.16602">
        <ele>1451</ele>
        <time>2022-07-18T10:39:01Z</time>
      </trkpt>
      <trkpt lat="44.56546" lon="7.16602">
        <ele>1451.2</ele>
        <time>2022-07-18T10:39:02Z</time>
      </trkpt>
      <trkpt lat="44.56549" lon="7.16603">
        <ele>1451.2</ele>
        <time>2022-07-18T10:39:03Z</time>
      </trkpt>
      <trkpt lat="44.56551" lon="7.16604">
        <ele>1451.6</ele>
        <time>2022-07-18T10:39:04Z</time>
      </trkpt>
      <trkpt lat="44.56553" lon="7.16604">
        <ele>1451.8</ele>
        <time>2022-07-18T10:39:05Z</time>
      </trkpt>
      <trkpt lat="44.56555" lon="7.16604">
        <ele>1451.8</ele>
        <time>2022-07-18T10:39:06Z</time>
      </trkpt>
      <trkpt lat="44.56557" lon="7.16604">
        <ele>1452.2</ele>
        <time>2022-07-18T10:39:07Z</time>
      </trkpt>
      <trkpt lat="44.56558" lon="7.16605">
        <ele>1452.2</ele>
        <time>2022-07-18T10:39:08Z</time>
      </trkpt>
      <trkpt lat="44.5656" lon="7.16605">
        <ele>1452.4</ele>
        <time>2022-07-18T10:39:09Z</time>
      </trkpt>
      <trkpt lat="44.56562" lon="7.16606">
        <ele>1452.4</ele>
        <time>2022-07-18T10:39:10Z</time>
      </trkpt>
      <trkpt lat="44.56563" lon="7.16606">
        <ele>1452.8</ele>
        <time>2022-07-18T10:39:11Z</time>
      </trkpt>
      <trkpt lat="44.56565" lon="7.16606">
        <ele>1452.8</ele>
        <time>2022-07-18T10:39:12Z</time>
      </trkpt>
      <trkpt lat="44.56567" lon="7.16606">
        <ele>1453.2</ele>
        <time>2022-07-18T10:39:13Z</time>
      </trkpt>
      <trkpt lat="44.56569" lon="7.16606">
        <ele>1453.4</ele>
        <time>2022-07-18T10:39:14Z</time>
      </trkpt>
      <trkpt lat="44.5657" lon="7.16606">
        <ele>1453.6</ele>
        <time>2022-07-18T10:39:15Z</time>
      </trkpt>
      <trkpt lat="44.56572" lon="7.16606">
        <ele>1453.6</ele>
        <time>2022-07-18T10:39:16Z</time>
      </trkpt>
      <trkpt lat="44.56574" lon="7.16606">
        <ele>1454</ele>
        <time>2022-07-18T10:39:17Z</time>
      </trkpt>
      <trkpt lat="44.56577" lon="7.16606">
        <ele>1454</ele>
        <time>2022-07-18T10:39:18Z</time>
      </trkpt>
      <trkpt lat="44.56579" lon="7.16607">
        <ele>1454.4</ele>
        <time>2022-07-18T10:39:19Z</time>
      </trkpt>
      <trkpt lat="44.56581" lon="7.16608">
        <ele>1454.6</ele>
        <time>2022-07-18T10:39:20Z</time>
      </trkpt>
      <trkpt lat="44.56583" lon="7.16608">
        <ele>1454.6</ele>
        <time>2022-07-18T10:39:21Z</time>
      </trkpt>
      <trkpt lat="44.56585" lon="7.16609">
        <ele>1454.8</ele>
        <time>2022-07-18T10:39:22Z</time>
      </trkpt>
      <trkpt lat="44.56586" lon="7.16609">
        <ele>1454.8</ele>
        <time>2022-07-18T10:39:23Z</time>
      </trkpt>
      <trkpt lat="44.56588" lon="7.1661">
        <ele>1455.2</ele>
        <time>2022-07-18T10:39:24Z</time>
      </trkpt>
      <trkpt lat="44.5659" lon="7.1661">
        <ele>1455.4</ele>
        <time>2022-07-18T10:39:25Z</time>
      </trkpt>
      <trkpt lat="44.56592" lon="7.1661">
        <ele>1455.4</ele>
        <time>2022-07-18T10:39:26Z</time>
      </trkpt>
      <trkpt lat="44.56593" lon="7.16611">
        <ele>1455.8</ele>
        <time>2022-07-18T10:39:27Z</time>
      </trkpt>
      <trkpt lat="44.56596" lon="7.1661">
        <ele>1455.8</ele>
        <time>2022-07-18T10:39:28Z</time>
      </trkpt>
      <trkpt lat="44.56598" lon="7.16611">
        <ele>1456</ele>
        <time>2022-07-18T10:39:29Z</time>
      </trkpt>
      <trkpt lat="44.566" lon="7.1661">
        <ele>1456</ele>
        <time>2022-07-18T10:39:30Z</time>
      </trkpt>
      <trkpt lat="44.56602" lon="7.1661">
        <ele>1456.4</ele>
        <time>2022-07-18T10:39:31Z</time>
      </trkpt>
      <trkpt lat="44.56604" lon="7.16609">
        <ele>1456.4</ele>
        <time>2022-07-18T10:39:32Z</time>
      </trkpt>
      <trkpt lat="44.56606" lon="7.16609">
        <ele>1456.6</ele>
        <time>2022-07-18T10:39:33Z</time>
      </trkpt>
      <trkpt lat="44.56608" lon="7.1661">
        <ele>1456.8</ele>
        <time>2022-07-18T10:39:34Z</time>
      </trkpt>
      <trkpt lat="44.5661" lon="7.1661">
        <ele>1457</ele>
        <time>2022-07-18T10:39:35Z</time>
      </trkpt>
      <trkpt lat="44.56612" lon="7.1661">
        <ele>1457</ele>
        <time>2022-07-18T10:39:36Z</time>
      </trkpt>
      <trkpt lat="44.56614" lon="7.1661">
        <ele>1457.6</ele>
        <time>2022-07-18T10:39:37Z</time>
      </trkpt>
      <trkpt lat="44.56615" lon="7.16611">
        <ele>1457.8</ele>
        <time>2022-07-18T10:39:38Z</time>
      </trkpt>
      <trkpt lat="44.56616" lon="7.1661">
        <ele>1457.8</ele>
        <time>2022-07-18T10:39:39Z</time>
      </trkpt>
      <trkpt lat="44.56618" lon="7.1661">
        <ele>1458</ele>
        <time>2022-07-18T10:39:40Z</time>
      </trkpt>
      <trkpt lat="44.56619" lon="7.1661">
        <ele>1458</ele>
        <time>2022-07-18T10:39:41Z</time>
      </trkpt>
      <trkpt lat="44.56621" lon="7.1661">
        <ele>1458.2</ele>
        <time>2022-07-18T10:39:42Z</time>
      </trkpt>
      <trkpt lat="44.56622" lon="7.16611">
        <ele>1458.2</ele>
        <time>2022-07-18T10:39:43Z</time>
      </trkpt>
      <trkpt lat="44.56623" lon="7.16611">
        <ele>1458.6</ele>
        <time>2022-07-18T10:39:44Z</time>
      </trkpt>
      <trkpt lat="44.56625" lon="7.16612">
        <ele>1458.6</ele>
        <time>2022-07-18T10:39:45Z</time>
      </trkpt>
      <trkpt lat="44.56626" lon="7.16612">
        <ele>1458.8</ele>
        <time>2022-07-18T10:39:46Z</time>
      </trkpt>
      <trkpt lat="44.56627" lon="7.16613">
        <ele>1458.8</ele>
        <time>2022-07-18T10:39:47Z</time>
      </trkpt>
      <trkpt lat="44.5663" lon="7.16612">
        <ele>1459.2</ele>
        <time>2022-07-18T10:39:48Z</time>
      </trkpt>
      <trkpt lat="44.56631" lon="7.16612">
        <ele>1459.2</ele>
        <time>2022-07-18T10:39:49Z</time>
      </trkpt>
      <trkpt lat="44.56633" lon="7.16612">
        <ele>1459.4</ele>
        <time>2022-07-18T10:39:50Z</time>
      </trkpt>
      <trkpt lat="44.56636" lon="7.16612">
        <ele>1459.4</ele>
        <time>2022-07-18T10:39:51Z</time>
      </trkpt>
      <trkpt lat="44.56638" lon="7.16612">
        <ele>1459.6</ele>
        <time>2022-07-18T10:39:52Z</time>
      </trkpt>
      <trkpt lat="44.5664" lon="7.16614">
        <ele>1459.6</ele>
        <time>2022-07-18T10:39:53Z</time>
      </trkpt>
      <trkpt lat="44.56642" lon="7.16614">
        <ele>1460</ele>
        <time>2022-07-18T10:39:54Z</time>
      </trkpt>
      <trkpt lat="44.56644" lon="7.16615">
        <ele>1460</ele>
        <time>2022-07-18T10:39:55Z</time>
      </trkpt>
      <trkpt lat="44.56646" lon="7.16615">
        <ele>1460.4</ele>
        <time>2022-07-18T10:39:56Z</time>
      </trkpt>
      <trkpt lat="44.56649" lon="7.16616">
        <ele>1460.4</ele>
        <time>2022-07-18T10:39:57Z</time>
      </trkpt>
      <trkpt lat="44.56651" lon="7.16617">
        <ele>1460.6</ele>
        <time>2022-07-18T10:39:58Z</time>
      </trkpt>
      <trkpt lat="44.56653" lon="7.16618">
        <ele>1460.6</ele>
        <time>2022-07-18T10:39:59Z</time>
      </trkpt>
      <trkpt lat="44.56655" lon="7.16618">
        <ele>1461</ele>
        <time>2022-07-18T10:40:00Z</time>
      </trkpt>
      <trkpt lat="44.56657" lon="7.16619">
        <ele>1461</ele>
        <time>2022-07-18T10:40:01Z</time>
      </trkpt>
      <trkpt lat="44.56659" lon="7.1662">
        <ele>1461.4</ele>
        <time>2022-07-18T10:40:02Z</time>
      </trkpt>
      <trkpt lat="44.56661" lon="7.16621">
        <ele>1461.6</ele>
        <time>2022-07-18T10:40:03Z</time>
      </trkpt>
      <trkpt lat="44.56663" lon="7.16622">
        <ele>1461.6</ele>
        <time>2022-07-18T10:40:04Z</time>
      </trkpt>
      <trkpt lat="44.56665" lon="7.16623">
        <ele>1461.8</ele>
        <time>2022-07-18T10:40:05Z</time>
      </trkpt>
      <trkpt lat="44.56668" lon="7.16624">
        <ele>1462</ele>
        <time>2022-07-18T10:40:06Z</time>
      </trkpt>
      <trkpt lat="44.5667" lon="7.16625">
        <ele>1462</ele>
        <time>2022-07-18T10:40:07Z</time>
      </trkpt>
      <trkpt lat="44.56672" lon="7.16626">
        <ele>1462.4</ele>
        <time>2022-07-18T10:40:08Z</time>
      </trkpt>
      <trkpt lat="44.56674" lon="7.16627">
        <ele>1462.4</ele>
        <time>2022-07-18T10:40:09Z</time>
      </trkpt>
      <trkpt lat="44.56675" lon="7.16628">
        <ele>1462.6</ele>
        <time>2022-07-18T10:40:10Z</time>
      </trkpt>
      <trkpt lat="44.56677" lon="7.16629">
        <ele>1462.6</ele>
        <time>2022-07-18T10:40:11Z</time>
      </trkpt>
      <trkpt lat="44.56678" lon="7.1663">
        <ele>1463</ele>
        <time>2022-07-18T10:40:12Z</time>
      </trkpt>
      <trkpt lat="44.5668" lon="7.16631">
        <ele>1463</ele>
        <time>2022-07-18T10:40:13Z</time>
      </trkpt>
      <trkpt lat="44.56681" lon="7.16632">
        <ele>1463.2</ele>
        <time>2022-07-18T10:40:14Z</time>
      </trkpt>
      <trkpt lat="44.56683" lon="7.16632">
        <ele>1463.4</ele>
        <time>2022-07-18T10:40:15Z</time>
      </trkpt>
      <trkpt lat="44.56685" lon="7.16633">
        <ele>1463.4</ele>
        <time>2022-07-18T10:40:16Z</time>
      </trkpt>
      <trkpt lat="44.56687" lon="7.16634">
        <ele>1463.8</ele>
        <time>2022-07-18T10:40:17Z</time>
      </trkpt>
      <trkpt lat="44.56689" lon="7.16635">
        <ele>1463.8</ele>
        <time>2022-07-18T10:40:18Z</time>
      </trkpt>
      <trkpt lat="44.5669" lon="7.16635">
        <ele>1464</ele>
        <time>2022-07-18T10:40:19Z</time>
      </trkpt>
      <trkpt lat="44.56692" lon="7.16635">
        <ele>1464.2</ele>
        <time>2022-07-18T10:40:20Z</time>
      </trkpt>
      <trkpt lat="44.56694" lon="7.16636">
        <ele>1464.4</ele>
        <time>2022-07-18T10:40:21Z</time>
      </trkpt>
      <trkpt lat="44.56696" lon="7.16635">
        <ele>1464.8</ele>
        <time>2022-07-18T10:40:22Z</time>
      </trkpt>
      <trkpt lat="44.56698" lon="7.16635">
        <ele>1464.8</ele>
        <time>2022-07-18T10:40:23Z</time>
      </trkpt>
      <trkpt lat="44.567" lon="7.16635">
        <ele>1465</ele>
        <time>2022-07-18T10:40:24Z</time>
      </trkpt>
      <trkpt lat="44.56702" lon="7.16634">
        <ele>1465.4</ele>
        <time>2022-07-18T10:40:25Z</time>
      </trkpt>
      <trkpt lat="44.56703" lon="7.16634">
        <ele>1465.4</ele>
        <time>2022-07-18T10:40:26Z</time>
      </trkpt>
      <trkpt lat="44.56705" lon="7.16634">
        <ele>1465.6</ele>
        <time>2022-07-18T10:40:27Z</time>
      </trkpt>
      <trkpt lat="44.56706" lon="7.16633">
        <ele>1465.8</ele>
        <time>2022-07-18T10:40:28Z</time>
      </trkpt>
      <trkpt lat="44.56708" lon="7.16632">
        <ele>1465.8</ele>
        <time>2022-07-18T10:40:29Z</time>
      </trkpt>
      <trkpt lat="44.5671" lon="7.16631">
        <ele>1466</ele>
        <time>2022-07-18T10:40:30Z</time>
      </trkpt>
      <trkpt lat="44.56711" lon="7.1663">
        <ele>1466</ele>
        <time>2022-07-18T10:40:31Z</time>
      </trkpt>
      <trkpt lat="44.56713" lon="7.16629">
        <ele>1466.4</ele>
        <time>2022-07-18T10:40:32Z</time>
      </trkpt>
      <trkpt lat="44.56715" lon="7.16628">
        <ele>1466.6</ele>
        <time>2022-07-18T10:40:33Z</time>
      </trkpt>
      <trkpt lat="44.56716" lon="7.16626">
        <ele>1466.6</ele>
        <time>2022-07-18T10:40:34Z</time>
      </trkpt>
      <trkpt lat="44.56718" lon="7.16625">
        <ele>1467</ele>
        <time>2022-07-18T10:40:35Z</time>
      </trkpt>
      <trkpt lat="44.56719" lon="7.16624">
        <ele>1467.2</ele>
        <time>2022-07-18T10:40:36Z</time>
      </trkpt>
      <trkpt lat="44.56721" lon="7.16623">
        <ele>1467.2</ele>
        <time>2022-07-18T10:40:37Z</time>
      </trkpt>
      <trkpt lat="44.56722" lon="7.16621">
        <ele>1467.4</ele>
        <time>2022-07-18T10:40:38Z</time>
      </trkpt>
      <trkpt lat="44.56724" lon="7.1662">
        <ele>1467.4</ele>
        <time>2022-07-18T10:40:39Z</time>
      </trkpt>
      <trkpt lat="44.56725" lon="7.16619">
        <ele>1467.6</ele>
        <time>2022-07-18T10:40:40Z</time>
      </trkpt>
      <trkpt lat="44.56727" lon="7.16617">
        <ele>1467.6</ele>
        <time>2022-07-18T10:40:41Z</time>
      </trkpt>
      <trkpt lat="44.56729" lon="7.16616">
        <ele>1468</ele>
        <time>2022-07-18T10:40:42Z</time>
      </trkpt>
      <trkpt lat="44.56731" lon="7.16614">
        <ele>1468</ele>
        <time>2022-07-18T10:40:43Z</time>
      </trkpt>
      <trkpt lat="44.56733" lon="7.16612">
        <ele>1468.2</ele>
        <time>2022-07-18T10:40:44Z</time>
      </trkpt>
      <trkpt lat="44.56734" lon="7.16611">
        <ele>1468.4</ele>
        <time>2022-07-18T10:40:45Z</time>
      </trkpt>
      <trkpt lat="44.56736" lon="7.16609">
        <ele>1468.4</ele>
        <time>2022-07-18T10:40:46Z</time>
      </trkpt>
      <trkpt lat="44.56737" lon="7.16608">
        <ele>1468.8</ele>
        <time>2022-07-18T10:40:47Z</time>
      </trkpt>
      <trkpt lat="44.56739" lon="7.16607">
        <ele>1469</ele>
        <time>2022-07-18T10:40:48Z</time>
      </trkpt>
      <trkpt lat="44.5674" lon="7.16606">
        <ele>1469</ele>
        <time>2022-07-18T10:40:49Z</time>
      </trkpt>
      <trkpt lat="44.56742" lon="7.16604">
        <ele>1469.4</ele>
        <time>2022-07-18T10:40:50Z</time>
      </trkpt>
      <trkpt lat="44.56743" lon="7.16603">
        <ele>1469.4</ele>
        <time>2022-07-18T10:40:51Z</time>
      </trkpt>
      <trkpt lat="44.56744" lon="7.16602">
        <ele>1469.6</ele>
        <time>2022-07-18T10:40:52Z</time>
      </trkpt>
      <trkpt lat="44.56745" lon="7.166">
        <ele>1469.6</ele>
        <time>2022-07-18T10:40:53Z</time>
      </trkpt>
      <trkpt lat="44.56746" lon="7.166">
        <ele>1470</ele>
        <time>2022-07-18T10:40:54Z</time>
      </trkpt>
      <trkpt lat="44.56747" lon="7.16599">
        <ele>1470</ele>
        <time>2022-07-18T10:40:55Z</time>
      </trkpt>
      <trkpt lat="44.56749" lon="7.16597">
        <ele>1470.4</ele>
        <time>2022-07-18T10:40:56Z</time>
      </trkpt>
      <trkpt lat="44.5675" lon="7.16596">
        <ele>1470.4</ele>
        <time>2022-07-18T10:40:57Z</time>
      </trkpt>
      <trkpt lat="44.56751" lon="7.16595">
        <ele>1470.6</ele>
        <time>2022-07-18T10:40:58Z</time>
      </trkpt>
      <trkpt lat="44.56753" lon="7.16594">
        <ele>1470.6</ele>
        <time>2022-07-18T10:40:59Z</time>
      </trkpt>
      <trkpt lat="44.56755" lon="7.16592">
        <ele>1471</ele>
        <time>2022-07-18T10:41:00Z</time>
      </trkpt>
      <trkpt lat="44.56756" lon="7.16591">
        <ele>1471</ele>
        <time>2022-07-18T10:41:01Z</time>
      </trkpt>
      <trkpt lat="44.56757" lon="7.16589">
        <ele>1471.2</ele>
        <time>2022-07-18T10:41:02Z</time>
      </trkpt>
      <trkpt lat="44.56759" lon="7.16588">
        <ele>1471.2</ele>
        <time>2022-07-18T10:41:03Z</time>
      </trkpt>
      <trkpt lat="44.56761" lon="7.16586">
        <ele>1471.4</ele>
        <time>2022-07-18T10:41:04Z</time>
      </trkpt>
      <trkpt lat="44.56763" lon="7.16585">
        <ele>1471.4</ele>
        <time>2022-07-18T10:41:05Z</time>
      </trkpt>
      <trkpt lat="44.56765" lon="7.16584">
        <ele>1471.6</ele>
        <time>2022-07-18T10:41:06Z</time>
      </trkpt>
      <trkpt lat="44.56767" lon="7.16582">
        <ele>1471.6</ele>
        <time>2022-07-18T10:41:07Z</time>
      </trkpt>
      <trkpt lat="44.56769" lon="7.16581">
        <ele>1472</ele>
        <time>2022-07-18T10:41:08Z</time>
      </trkpt>
      <trkpt lat="44.56771" lon="7.1658">
        <ele>1472</ele>
        <time>2022-07-18T10:41:09Z</time>
      </trkpt>
      <trkpt lat="44.56773" lon="7.16579">
        <ele>1472</ele>
        <time>2022-07-18T10:41:10Z</time>
      </trkpt>
      <trkpt lat="44.56775" lon="7.16577">
        <ele>1472.2</ele>
        <time>2022-07-18T10:41:11Z</time>
      </trkpt>
      <trkpt lat="44.56777" lon="7.16576">
        <ele>1472.2</ele>
        <time>2022-07-18T10:41:12Z</time>
      </trkpt>
      <trkpt lat="44.56779" lon="7.16574">
        <ele>1472.6</ele>
        <time>2022-07-18T10:41:13Z</time>
      </trkpt>
      <trkpt lat="44.5678" lon="7.16573">
        <ele>1472.6</ele>
        <time>2022-07-18T10:41:14Z</time>
      </trkpt>
      <trkpt lat="44.56783" lon="7.16571">
        <ele>1472.8</ele>
        <time>2022-07-18T10:41:15Z</time>
      </trkpt>
      <trkpt lat="44.56785" lon="7.16569">
        <ele>1472.8</ele>
        <time>2022-07-18T10:41:16Z</time>
      </trkpt>
      <trkpt lat="44.56786" lon="7.16567">
        <ele>1473.2</ele>
        <time>2022-07-18T10:41:17Z</time>
      </trkpt>
      <trkpt lat="44.56788" lon="7.16566">
        <ele>1473.2</ele>
        <time>2022-07-18T10:41:18Z</time>
      </trkpt>
      <trkpt lat="44.5679" lon="7.16564">
        <ele>1473.4</ele>
        <time>2022-07-18T10:41:19Z</time>
      </trkpt>
      <trkpt lat="44.56792" lon="7.16563">
        <ele>1473.6</ele>
        <time>2022-07-18T10:41:20Z</time>
      </trkpt>
      <trkpt lat="44.56794" lon="7.16562">
        <ele>1473.6</ele>
        <time>2022-07-18T10:41:21Z</time>
      </trkpt>
      <trkpt lat="44.56796" lon="7.16561">
        <ele>1474</ele>
        <time>2022-07-18T10:41:22Z</time>
      </trkpt>
      <trkpt lat="44.56799" lon="7.16559">
        <ele>1474.4</ele>
        <time>2022-07-18T10:41:23Z</time>
      </trkpt>
      <trkpt lat="44.568" lon="7.16558">
        <ele>1474.4</ele>
        <time>2022-07-18T10:41:24Z</time>
      </trkpt>
      <trkpt lat="44.56803" lon="7.16557">
        <ele>1474.8</ele>
        <time>2022-07-18T10:41:25Z</time>
      </trkpt>
      <trkpt lat="44.56805" lon="7.16556">
        <ele>1474.8</ele>
        <time>2022-07-18T10:41:26Z</time>
      </trkpt>
      <trkpt lat="44.56807" lon="7.16555">
        <ele>1475</ele>
        <time>2022-07-18T10:41:27Z</time>
      </trkpt>
      <trkpt lat="44.56809" lon="7.16553">
        <ele>1475</ele>
        <time>2022-07-18T10:41:28Z</time>
      </trkpt>
      <trkpt lat="44.56811" lon="7.16551">
        <ele>1475.2</ele>
        <time>2022-07-18T10:41:29Z</time>
      </trkpt>
      <trkpt lat="44.56812" lon="7.16549">
        <ele>1475.2</ele>
        <time>2022-07-18T10:41:30Z</time>
      </trkpt>
      <trkpt lat="44.56813" lon="7.16547">
        <ele>1475.4</ele>
        <time>2022-07-18T10:41:31Z</time>
      </trkpt>
      <trkpt lat="44.56814" lon="7.16544">
        <ele>1475.4</ele>
        <time>2022-07-18T10:41:32Z</time>
      </trkpt>
      <trkpt lat="44.56814" lon="7.16541">
        <ele>1475.8</ele>
        <time>2022-07-18T10:41:33Z</time>
      </trkpt>
      <trkpt lat="44.56814" lon="7.16539">
        <ele>1475.8</ele>
        <time>2022-07-18T10:41:34Z</time>
      </trkpt>
      <trkpt lat="44.56814" lon="7.16536">
        <ele>1476.2</ele>
        <time>2022-07-18T10:41:35Z</time>
      </trkpt>
      <trkpt lat="44.56813" lon="7.16534">
        <ele>1476.2</ele>
        <time>2022-07-18T10:41:36Z</time>
      </trkpt>
      <trkpt lat="44.56812" lon="7.16532">
        <ele>1476.4</ele>
        <time>2022-07-18T10:41:37Z</time>
      </trkpt>
      <trkpt lat="44.5681" lon="7.16531">
        <ele>1476.4</ele>
        <time>2022-07-18T10:41:38Z</time>
      </trkpt>
      <trkpt lat="44.56809" lon="7.1653">
        <ele>1476.6</ele>
        <time>2022-07-18T10:41:39Z</time>
      </trkpt>
      <trkpt lat="44.56807" lon="7.1653">
        <ele>1476.6</ele>
        <time>2022-07-18T10:41:40Z</time>
      </trkpt>
      <trkpt lat="44.56806" lon="7.1653">
        <ele>1477</ele>
        <time>2022-07-18T10:41:41Z</time>
      </trkpt>
      <trkpt lat="44.56804" lon="7.16531">
        <ele>1477</ele>
        <time>2022-07-18T10:41:42Z</time>
      </trkpt>
      <trkpt lat="44.56803" lon="7.16532">
        <ele>1477.4</ele>
        <time>2022-07-18T10:41:43Z</time>
      </trkpt>
      <trkpt lat="44.56801" lon="7.16534">
        <ele>1477.4</ele>
        <time>2022-07-18T10:41:44Z</time>
      </trkpt>
      <trkpt lat="44.568" lon="7.16536">
        <ele>1477.6</ele>
        <time>2022-07-18T10:41:46Z</time>
      </trkpt>
      <trkpt lat="44.56799" lon="7.16538">
        <ele>1477.8</ele>
        <time>2022-07-18T10:41:47Z</time>
      </trkpt>
      <trkpt lat="44.56797" lon="7.16541">
        <ele>1477.8</ele>
        <time>2022-07-18T10:41:48Z</time>
      </trkpt>
      <trkpt lat="44.56796" lon="7.16543">
        <ele>1477.8</ele>
        <time>2022-07-18T10:41:49Z</time>
      </trkpt>
      <trkpt lat="44.56795" lon="7.16546">
        <ele>1478</ele>
        <time>2022-07-18T10:41:50Z</time>
      </trkpt>
      <trkpt lat="44.56793" lon="7.16548">
        <ele>1478</ele>
        <time>2022-07-18T10:41:51Z</time>
      </trkpt>
      <trkpt lat="44.56792" lon="7.1655">
        <ele>1478</ele>
        <time>2022-07-18T10:41:52Z</time>
      </trkpt>
      <trkpt lat="44.5679" lon="7.16552">
        <ele>1478.4</ele>
        <time>2022-07-18T10:41:53Z</time>
      </trkpt>
      <trkpt lat="44.56788" lon="7.16554">
        <ele>1478.4</ele>
        <time>2022-07-18T10:41:54Z</time>
      </trkpt>
      <trkpt lat="44.56786" lon="7.16556">
        <ele>1478.6</ele>
        <time>2022-07-18T10:41:55Z</time>
      </trkpt>
      <trkpt lat="44.56784" lon="7.16557">
        <ele>1478.6</ele>
        <time>2022-07-18T10:41:56Z</time>
      </trkpt>
      <trkpt lat="44.56782" lon="7.16558">
        <ele>1478.8</ele>
        <time>2022-07-18T10:41:57Z</time>
      </trkpt>
      <trkpt lat="44.56781" lon="7.16559">
        <ele>1478.8</ele>
        <time>2022-07-18T10:41:58Z</time>
      </trkpt>
      <trkpt lat="44.56779" lon="7.16559">
        <ele>1479.2</ele>
        <time>2022-07-18T10:41:59Z</time>
      </trkpt>
      <trkpt lat="44.56777" lon="7.1656">
        <ele>1479.2</ele>
        <time>2022-07-18T10:42:00Z</time>
      </trkpt>
      <trkpt lat="44.56775" lon="7.1656">
        <ele>1479.4</ele>
        <time>2022-07-18T10:42:01Z</time>
      </trkpt>
      <trkpt lat="44.56773" lon="7.16561">
        <ele>1479.4</ele>
        <time>2022-07-18T10:42:02Z</time>
      </trkpt>
      <trkpt lat="44.56771" lon="7.16562">
        <ele>1479.8</ele>
        <time>2022-07-18T10:42:03Z</time>
      </trkpt>
      <trkpt lat="44.56769" lon="7.16562">
        <ele>1480</ele>
        <time>2022-07-18T10:42:04Z</time>
      </trkpt>
      <trkpt lat="44.56767" lon="7.16563">
        <ele>1480</ele>
        <time>2022-07-18T10:42:05Z</time>
      </trkpt>
      <trkpt lat="44.56765" lon="7.16563">
        <ele>1480</ele>
        <time>2022-07-18T10:42:06Z</time>
      </trkpt>
      <trkpt lat="44.56763" lon="7.16564">
        <ele>1480.2</ele>
        <time>2022-07-18T10:42:07Z</time>
      </trkpt>
      <trkpt lat="44.56761" lon="7.16565">
        <ele>1480.2</ele>
        <time>2022-07-18T10:42:08Z</time>
      </trkpt>
      <trkpt lat="44.56759" lon="7.16566">
        <ele>1480.4</ele>
        <time>2022-07-18T10:42:09Z</time>
      </trkpt>
      <trkpt lat="44.56757" lon="7.16566">
        <ele>1480.4</ele>
        <time>2022-07-18T10:42:10Z</time>
      </trkpt>
      <trkpt lat="44.56755" lon="7.16568">
        <ele>1480.8</ele>
        <time>2022-07-18T10:42:11Z</time>
      </trkpt>
      <trkpt lat="44.56753" lon="7.16568">
        <ele>1480.8</ele>
        <time>2022-07-18T10:42:12Z</time>
      </trkpt>
      <trkpt lat="44.56751" lon="7.16568">
        <ele>1481.2</ele>
        <time>2022-07-18T10:42:13Z</time>
      </trkpt>
      <trkpt lat="44.56749" lon="7.16569">
        <ele>1481.4</ele>
        <time>2022-07-18T10:42:14Z</time>
      </trkpt>
      <trkpt lat="44.56747" lon="7.1657">
        <ele>1481.6</ele>
        <time>2022-07-18T10:42:15Z</time>
      </trkpt>
      <trkpt lat="44.56745" lon="7.16572">
        <ele>1481.6</ele>
        <time>2022-07-18T10:42:16Z</time>
      </trkpt>
      <trkpt lat="44.56743" lon="7.16573">
        <ele>1482</ele>
        <time>2022-07-18T10:42:17Z</time>
      </trkpt>
      <trkpt lat="44.56741" lon="7.16575">
        <ele>1482</ele>
        <time>2022-07-18T10:42:18Z</time>
      </trkpt>
      <trkpt lat="44.5674" lon="7.16577">
        <ele>1482.4</ele>
        <time>2022-07-18T10:42:19Z</time>
      </trkpt>
      <trkpt lat="44.56738" lon="7.16578">
        <ele>1482.4</ele>
        <time>2022-07-18T10:42:20Z</time>
      </trkpt>
      <trkpt lat="44.56736" lon="7.16579">
        <ele>1482.6</ele>
        <time>2022-07-18T10:42:21Z</time>
      </trkpt>
      <trkpt lat="44.56735" lon="7.1658">
        <ele>1482.6</ele>
        <time>2022-07-18T10:42:22Z</time>
      </trkpt>
      <trkpt lat="44.56733" lon="7.16581">
        <ele>1483</ele>
        <time>2022-07-18T10:42:23Z</time>
      </trkpt>
      <trkpt lat="44.56732" lon="7.16582">
        <ele>1483</ele>
        <time>2022-07-18T10:42:24Z</time>
      </trkpt>
      <trkpt lat="44.5673" lon="7.16584">
        <ele>1483.2</ele>
        <time>2022-07-18T10:42:25Z</time>
      </trkpt>
      <trkpt lat="44.56729" lon="7.16586">
        <ele>1483.2</ele>
        <time>2022-07-18T10:42:26Z</time>
      </trkpt>
      <trkpt lat="44.56727" lon="7.16587">
        <ele>1483.6</ele>
        <time>2022-07-18T10:42:27Z</time>
      </trkpt>
      <trkpt lat="44.56725" lon="7.16589">
        <ele>1483.6</ele>
        <time>2022-07-18T10:42:28Z</time>
      </trkpt>
      <trkpt lat="44.56724" lon="7.1659">
        <ele>1484</ele>
        <time>2022-07-18T10:42:29Z</time>
      </trkpt>
      <trkpt lat="44.56722" lon="7.16591">
        <ele>1484</ele>
        <time>2022-07-18T10:42:30Z</time>
      </trkpt>
      <trkpt lat="44.5672" lon="7.16593">
        <ele>1484.2</ele>
        <time>2022-07-18T10:42:31Z</time>
      </trkpt>
      <trkpt lat="44.56719" lon="7.16594">
        <ele>1484.2</ele>
        <time>2022-07-18T10:42:32Z</time>
      </trkpt>
      <trkpt lat="44.56717" lon="7.16595">
        <ele>1484.6</ele>
        <time>2022-07-18T10:42:33Z</time>
      </trkpt>
      <trkpt lat="44.56715" lon="7.16596">
        <ele>1484.8</ele>
        <time>2022-07-18T10:42:34Z</time>
      </trkpt>
      <trkpt lat="44.56713" lon="7.16597">
        <ele>1484.8</ele>
        <time>2022-07-18T10:42:35Z</time>
      </trkpt>
      <trkpt lat="44.56711" lon="7.16598">
        <ele>1485</ele>
        <time>2022-07-18T10:42:36Z</time>
      </trkpt>
      <trkpt lat="44.56709" lon="7.16599">
        <ele>1485</ele>
        <time>2022-07-18T10:42:37Z</time>
      </trkpt>
      <trkpt lat="44.56707" lon="7.16599">
        <ele>1485.4</ele>
        <time>2022-07-18T10:42:38Z</time>
      </trkpt>
      <trkpt lat="44.56705" lon="7.16599">
        <ele>1485.4</ele>
        <time>2022-07-18T10:42:39Z</time>
      </trkpt>
      <trkpt lat="44.56703" lon="7.166">
        <ele>1485.8</ele>
        <time>2022-07-18T10:42:40Z</time>
      </trkpt>
      <trkpt lat="44.56701" lon="7.166">
        <ele>1485.8</ele>
        <time>2022-07-18T10:42:41Z</time>
      </trkpt>
      <trkpt lat="44.56699" lon="7.16599">
        <ele>1486.2</ele>
        <time>2022-07-18T10:42:42Z</time>
      </trkpt>
      <trkpt lat="44.56697" lon="7.16598">
        <ele>1486.2</ele>
        <time>2022-07-18T10:42:43Z</time>
      </trkpt>
      <trkpt lat="44.56695" lon="7.16597">
        <ele>1486.4</ele>
        <time>2022-07-18T10:42:44Z</time>
      </trkpt>
      <trkpt lat="44.56694" lon="7.16596">
        <ele>1486.6</ele>
        <time>2022-07-18T10:42:45Z</time>
      </trkpt>
      <trkpt lat="44.56692" lon="7.16594">
        <ele>1487</ele>
        <time>2022-07-18T10:42:46Z</time>
      </trkpt>
      <trkpt lat="44.5669" lon="7.16592">
        <ele>1487</ele>
        <time>2022-07-18T10:42:47Z</time>
      </trkpt>
      <trkpt lat="44.56689" lon="7.1659">
        <ele>1487.4</ele>
        <time>2022-07-18T10:42:48Z</time>
      </trkpt>
      <trkpt lat="44.56688" lon="7.16589">
        <ele>1487.4</ele>
        <time>2022-07-18T10:42:49Z</time>
      </trkpt>
      <trkpt lat="44.56686" lon="7.16587">
        <ele>1487.6</ele>
        <time>2022-07-18T10:42:50Z</time>
      </trkpt>
      <trkpt lat="44.56684" lon="7.16586">
        <ele>1487.6</ele>
        <time>2022-07-18T10:42:51Z</time>
      </trkpt>
      <trkpt lat="44.56682" lon="7.16584">
        <ele>1488</ele>
        <time>2022-07-18T10:42:52Z</time>
      </trkpt>
      <trkpt lat="44.56681" lon="7.16583">
        <ele>1488</ele>
        <time>2022-07-18T10:42:53Z</time>
      </trkpt>
      <trkpt lat="44.56679" lon="7.16582">
        <ele>1488.2</ele>
        <time>2022-07-18T10:42:54Z</time>
      </trkpt>
      <trkpt lat="44.56677" lon="7.1658">
        <ele>1488.2</ele>
        <time>2022-07-18T10:42:55Z</time>
      </trkpt>
      <trkpt lat="44.56676" lon="7.16579">
        <ele>1488.6</ele>
        <time>2022-07-18T10:42:56Z</time>
      </trkpt>
      <trkpt lat="44.56674" lon="7.16577">
        <ele>1488.6</ele>
        <time>2022-07-18T10:42:57Z</time>
      </trkpt>
      <trkpt lat="44.56673" lon="7.16575">
        <ele>1489</ele>
        <time>2022-07-18T10:42:58Z</time>
      </trkpt>
      <trkpt lat="44.56671" lon="7.16574">
        <ele>1489.2</ele>
        <time>2022-07-18T10:42:59Z</time>
      </trkpt>
      <trkpt lat="44.5667" lon="7.16572">
        <ele>1489.2</ele>
        <time>2022-07-18T10:43:00Z</time>
      </trkpt>
      <trkpt lat="44.56669" lon="7.16571">
        <ele>1489.4</ele>
        <time>2022-07-18T10:43:01Z</time>
      </trkpt>
      <trkpt lat="44.56667" lon="7.16569">
        <ele>1489.4</ele>
        <time>2022-07-18T10:43:02Z</time>
      </trkpt>
      <trkpt lat="44.56666" lon="7.16568">
        <ele>1489.8</ele>
        <time>2022-07-18T10:43:03Z</time>
      </trkpt>
      <trkpt lat="44.56664" lon="7.16567">
        <ele>1489.8</ele>
        <time>2022-07-18T10:43:04Z</time>
      </trkpt>
      <trkpt lat="44.56663" lon="7.16566">
        <ele>1490</ele>
        <time>2022-07-18T10:43:05Z</time>
      </trkpt>
      <trkpt lat="44.56661" lon="7.16565">
        <ele>1490.4</ele>
        <time>2022-07-18T10:43:06Z</time>
      </trkpt>
      <trkpt lat="44.56659" lon="7.16564">
        <ele>1490.4</ele>
        <time>2022-07-18T10:43:07Z</time>
      </trkpt>
      <trkpt lat="44.56658" lon="7.16563">
        <ele>1490.8</ele>
        <time>2022-07-18T10:43:08Z</time>
      </trkpt>
      <trkpt lat="44.56656" lon="7.16561">
        <ele>1491</ele>
        <time>2022-07-18T10:43:09Z</time>
      </trkpt>
      <trkpt lat="44.56654" lon="7.16561">
        <ele>1491.2</ele>
        <time>2022-07-18T10:43:10Z</time>
      </trkpt>
      <trkpt lat="44.56653" lon="7.1656">
        <ele>1491.2</ele>
        <time>2022-07-18T10:43:11Z</time>
      </trkpt>
      <trkpt lat="44.56651" lon="7.16559">
        <ele>1491.6</ele>
        <time>2022-07-18T10:43:12Z</time>
      </trkpt>
      <trkpt lat="44.56649" lon="7.16558">
        <ele>1491.6</ele>
        <time>2022-07-18T10:43:13Z</time>
      </trkpt>
      <trkpt lat="44.56647" lon="7.16556">
        <ele>1492</ele>
        <time>2022-07-18T10:43:14Z</time>
      </trkpt>
      <trkpt lat="44.56646" lon="7.16556">
        <ele>1492</ele>
        <time>2022-07-18T10:43:15Z</time>
      </trkpt>
      <trkpt lat="44.56644" lon="7.16554">
        <ele>1492.4</ele>
        <time>2022-07-18T10:43:16Z</time>
      </trkpt>
      <trkpt lat="44.56643" lon="7.16553">
        <ele>1492.6</ele>
        <time>2022-07-18T10:43:17Z</time>
      </trkpt>
      <trkpt lat="44.56641" lon="7.16552">
        <ele>1492.6</ele>
        <time>2022-07-18T10:43:18Z</time>
      </trkpt>
      <trkpt lat="44.56639" lon="7.16551">
        <ele>1493</ele>
        <time>2022-07-18T10:43:19Z</time>
      </trkpt>
      <trkpt lat="44.56637" lon="7.16551">
        <ele>1493.2</ele>
        <time>2022-07-18T10:43:20Z</time>
      </trkpt>
      <trkpt lat="44.56636" lon="7.1655">
        <ele>1493.4</ele>
        <time>2022-07-18T10:43:21Z</time>
      </trkpt>
      <trkpt lat="44.56634" lon="7.1655">
        <ele>1493.6</ele>
        <time>2022-07-18T10:43:22Z</time>
      </trkpt>
      <trkpt lat="44.56632" lon="7.16549">
        <ele>1493.6</ele>
        <time>2022-07-18T10:43:23Z</time>
      </trkpt>
      <trkpt lat="44.56631" lon="7.16548">
        <ele>1494</ele>
        <time>2022-07-18T10:43:24Z</time>
      </trkpt>
      <trkpt lat="44.56629" lon="7.16547">
        <ele>1494.2</ele>
        <time>2022-07-18T10:43:25Z</time>
      </trkpt>
      <trkpt lat="44.56627" lon="7.16546">
        <ele>1494.2</ele>
        <time>2022-07-18T10:43:26Z</time>
      </trkpt>
      <trkpt lat="44.56626" lon="7.16545">
        <ele>1494.6</ele>
        <time>2022-07-18T10:43:27Z</time>
      </trkpt>
      <trkpt lat="44.56624" lon="7.16544">
        <ele>1494.8</ele>
        <time>2022-07-18T10:43:28Z</time>
      </trkpt>
      <trkpt lat="44.56622" lon="7.16544">
        <ele>1494.8</ele>
        <time>2022-07-18T10:43:29Z</time>
      </trkpt>
      <trkpt lat="44.5662" lon="7.16543">
        <ele>1495.2</ele>
        <time>2022-07-18T10:43:30Z</time>
      </trkpt>
      <trkpt lat="44.56619" lon="7.16542">
        <ele>1495.4</ele>
        <time>2022-07-18T10:43:31Z</time>
      </trkpt>
      <trkpt lat="44.56617" lon="7.16541">
        <ele>1495.4</ele>
        <time>2022-07-18T10:43:32Z</time>
      </trkpt>
      <trkpt lat="44.56616" lon="7.1654">
        <ele>1495.8</ele>
        <time>2022-07-18T10:43:33Z</time>
      </trkpt>
      <trkpt lat="44.56614" lon="7.16539">
        <ele>1495.8</ele>
        <time>2022-07-18T10:43:34Z</time>
      </trkpt>
      <trkpt lat="44.56612" lon="7.16538">
        <ele>1496.2</ele>
        <time>2022-07-18T10:43:35Z</time>
      </trkpt>
      <trkpt lat="44.56611" lon="7.16537">
        <ele>1496.2</ele>
        <time>2022-07-18T10:43:36Z</time>
      </trkpt>
      <trkpt lat="44.56609" lon="7.16535">
        <ele>1496.4</ele>
        <time>2022-07-18T10:43:37Z</time>
      </trkpt>
      <trkpt lat="44.56608" lon="7.16534">
        <ele>1496.4</ele>
        <time>2022-07-18T10:43:38Z</time>
      </trkpt>
      <trkpt lat="44.56606" lon="7.16533">
        <ele>1496.8</ele>
        <time>2022-07-18T10:43:39Z</time>
      </trkpt>
      <trkpt lat="44.56604" lon="7.16532">
        <ele>1496.8</ele>
        <time>2022-07-18T10:43:40Z</time>
      </trkpt>
      <trkpt lat="44.56603" lon="7.16531">
        <ele>1497</ele>
        <time>2022-07-18T10:43:41Z</time>
      </trkpt>
      <trkpt lat="44.56601" lon="7.1653">
        <ele>1497</ele>
        <time>2022-07-18T10:43:42Z</time>
      </trkpt>
      <trkpt lat="44.566" lon="7.16529">
        <ele>1497.4</ele>
        <time>2022-07-18T10:43:43Z</time>
      </trkpt>
      <trkpt lat="44.56598" lon="7.16528">
        <ele>1497.4</ele>
        <time>2022-07-18T10:43:44Z</time>
      </trkpt>
      <trkpt lat="44.56597" lon="7.16527">
        <ele>1497.6</ele>
        <time>2022-07-18T10:43:45Z</time>
      </trkpt>
      <trkpt lat="44.56595" lon="7.16527">
        <ele>1498</ele>
        <time>2022-07-18T10:43:46Z</time>
      </trkpt>
      <trkpt lat="44.56593" lon="7.16526">
        <ele>1498</ele>
        <time>2022-07-18T10:43:47Z</time>
      </trkpt>
      <trkpt lat="44.56592" lon="7.16525">
        <ele>1498.2</ele>
        <time>2022-07-18T10:43:48Z</time>
      </trkpt>
      <trkpt lat="44.5659" lon="7.16524">
        <ele>1498.2</ele>
        <time>2022-07-18T10:43:49Z</time>
      </trkpt>
      <trkpt lat="44.56589" lon="7.16523">
        <ele>1498.6</ele>
        <time>2022-07-18T10:43:50Z</time>
      </trkpt>
      <trkpt lat="44.56587" lon="7.16522">
        <ele>1498.6</ele>
        <time>2022-07-18T10:43:51Z</time>
      </trkpt>
      <trkpt lat="44.56585" lon="7.16521">
        <ele>1499</ele>
        <time>2022-07-18T10:43:52Z</time>
      </trkpt>
      <trkpt lat="44.56584" lon="7.1652">
        <ele>1499</ele>
        <time>2022-07-18T10:43:53Z</time>
      </trkpt>
      <trkpt lat="44.56582" lon="7.16519">
        <ele>1499.4</ele>
        <time>2022-07-18T10:43:54Z</time>
      </trkpt>
      <trkpt lat="44.56581" lon="7.16518">
        <ele>1499.6</ele>
        <time>2022-07-18T10:43:55Z</time>
      </trkpt>
      <trkpt lat="44.56579" lon="7.16517">
        <ele>1499.6</ele>
        <time>2022-07-18T10:43:56Z</time>
      </trkpt>
      <trkpt lat="44.56578" lon="7.16516">
        <ele>1500</ele>
        <time>2022-07-18T10:43:57Z</time>
      </trkpt>
      <trkpt lat="44.56576" lon="7.16514">
        <ele>1500.2</ele>
        <time>2022-07-18T10:43:58Z</time>
      </trkpt>
      <trkpt lat="44.56575" lon="7.16513">
        <ele>1500.2</ele>
        <time>2022-07-18T10:43:59Z</time>
      </trkpt>
      <trkpt lat="44.56573" lon="7.16512">
        <ele>1500.4</ele>
        <time>2022-07-18T10:44:00Z</time>
      </trkpt>
      <trkpt lat="44.56572" lon="7.16511">
        <ele>1500.4</ele>
        <time>2022-07-18T10:44:01Z</time>
      </trkpt>
      <trkpt lat="44.5657" lon="7.1651">
        <ele>1500.8</ele>
        <time>2022-07-18T10:44:02Z</time>
      </trkpt>
      <trkpt lat="44.56569" lon="7.16509">
        <ele>1500.8</ele>
        <time>2022-07-18T10:44:03Z</time>
      </trkpt>
      <trkpt lat="44.56567" lon="7.16508">
        <ele>1501.2</ele>
        <time>2022-07-18T10:44:04Z</time>
      </trkpt>
      <trkpt lat="44.56566" lon="7.16507">
        <ele>1501.2</ele>
        <time>2022-07-18T10:44:05Z</time>
      </trkpt>
      <trkpt lat="44.56564" lon="7.16505">
        <ele>1501.4</ele>
        <time>2022-07-18T10:44:06Z</time>
      </trkpt>
      <trkpt lat="44.56563" lon="7.16504">
        <ele>1501.4</ele>
        <time>2022-07-18T10:44:07Z</time>
      </trkpt>
      <trkpt lat="44.56561" lon="7.16503">
        <ele>1501.6</ele>
        <time>2022-07-18T10:44:08Z</time>
      </trkpt>
      <trkpt lat="44.56559" lon="7.16503">
        <ele>1501.8</ele>
        <time>2022-07-18T10:44:09Z</time>
      </trkpt>
      <trkpt lat="44.56558" lon="7.16502">
        <ele>1501.8</ele>
        <time>2022-07-18T10:44:10Z</time>
      </trkpt>
      <trkpt lat="44.56556" lon="7.16501">
        <ele>1502.2</ele>
        <time>2022-07-18T10:44:11Z</time>
      </trkpt>
      <trkpt lat="44.56555" lon="7.16499">
        <ele>1502.4</ele>
        <time>2022-07-18T10:44:12Z</time>
      </trkpt>
      <trkpt lat="44.56553" lon="7.16498">
        <ele>1502.4</ele>
        <time>2022-07-18T10:44:13Z</time>
      </trkpt>
      <trkpt lat="44.56552" lon="7.16496">
        <ele>1502.6</ele>
        <time>2022-07-18T10:44:14Z</time>
      </trkpt>
      <trkpt lat="44.5655" lon="7.16495">
        <ele>1502.6</ele>
        <time>2022-07-18T10:44:15Z</time>
      </trkpt>
      <trkpt lat="44.56548" lon="7.16494">
        <ele>1503</ele>
        <time>2022-07-18T10:44:16Z</time>
      </trkpt>
      <trkpt lat="44.56547" lon="7.16492">
        <ele>1503</ele>
        <time>2022-07-18T10:44:17Z</time>
      </trkpt>
      <trkpt lat="44.56545" lon="7.16491">
        <ele>1503.4</ele>
        <time>2022-07-18T10:44:18Z</time>
      </trkpt>
      <trkpt lat="44.56544" lon="7.16489">
        <ele>1503.4</ele>
        <time>2022-07-18T10:44:19Z</time>
      </trkpt>
      <trkpt lat="44.56542" lon="7.16488">
        <ele>1503.6</ele>
        <time>2022-07-18T10:44:20Z</time>
      </trkpt>
      <trkpt lat="44.5654" lon="7.16487">
        <ele>1503.6</ele>
        <time>2022-07-18T10:44:21Z</time>
      </trkpt>
      <trkpt lat="44.56539" lon="7.16486">
        <ele>1504</ele>
        <time>2022-07-18T10:44:22Z</time>
      </trkpt>
      <trkpt lat="44.56537" lon="7.16484">
        <ele>1504</ele>
        <time>2022-07-18T10:44:23Z</time>
      </trkpt>
      <trkpt lat="44.56535" lon="7.16483">
        <ele>1504.4</ele>
        <time>2022-07-18T10:44:24Z</time>
      </trkpt>
      <trkpt lat="44.56534" lon="7.16481">
        <ele>1504.4</ele>
        <time>2022-07-18T10:44:25Z</time>
      </trkpt>
      <trkpt lat="44.56532" lon="7.1648">
        <ele>1504.4</ele>
        <time>2022-07-18T10:44:26Z</time>
      </trkpt>
      <trkpt lat="44.56531" lon="7.16478">
        <ele>1504.6</ele>
        <time>2022-07-18T10:44:27Z</time>
      </trkpt>
      <trkpt lat="44.56529" lon="7.16476">
        <ele>1504.6</ele>
        <time>2022-07-18T10:44:28Z</time>
      </trkpt>
      <trkpt lat="44.56527" lon="7.16475">
        <ele>1504.8</ele>
        <time>2022-07-18T10:44:29Z</time>
      </trkpt>
      <trkpt lat="44.56526" lon="7.16474">
        <ele>1504.8</ele>
        <time>2022-07-18T10:44:30Z</time>
      </trkpt>
      <trkpt lat="44.56524" lon="7.16472">
        <ele>1505.2</ele>
        <time>2022-07-18T10:44:31Z</time>
      </trkpt>
      <trkpt lat="44.56522" lon="7.16471">
        <ele>1505.4</ele>
        <time>2022-07-18T10:44:32Z</time>
      </trkpt>
      <trkpt lat="44.56521" lon="7.1647">
        <ele>1505.4</ele>
        <time>2022-07-18T10:44:33Z</time>
      </trkpt>
      <trkpt lat="44.56519" lon="7.16469">
        <ele>1505.8</ele>
        <time>2022-07-18T10:44:34Z</time>
      </trkpt>
      <trkpt lat="44.56517" lon="7.16468">
        <ele>1506</ele>
        <time>2022-07-18T10:44:35Z</time>
      </trkpt>
      <trkpt lat="44.56516" lon="7.16467">
        <ele>1506</ele>
        <time>2022-07-18T10:44:36Z</time>
      </trkpt>
      <trkpt lat="44.56514" lon="7.16465">
        <ele>1506.4</ele>
        <time>2022-07-18T10:44:37Z</time>
      </trkpt>
      <trkpt lat="44.56513" lon="7.16464">
        <ele>1506.6</ele>
        <time>2022-07-18T10:44:38Z</time>
      </trkpt>
      <trkpt lat="44.56511" lon="7.16462">
        <ele>1506.6</ele>
        <time>2022-07-18T10:44:39Z</time>
      </trkpt>
      <trkpt lat="44.5651" lon="7.16461">
        <ele>1507</ele>
        <time>2022-07-18T10:44:40Z</time>
      </trkpt>
      <trkpt lat="44.56508" lon="7.16459">
        <ele>1507.2</ele>
        <time>2022-07-18T10:44:41Z</time>
      </trkpt>
      <trkpt lat="44.56507" lon="7.16458">
        <ele>1507.2</ele>
        <time>2022-07-18T10:44:42Z</time>
      </trkpt>
      <trkpt lat="44.56505" lon="7.16457">
        <ele>1507.6</ele>
        <time>2022-07-18T10:44:43Z</time>
      </trkpt>
      <trkpt lat="44.56504" lon="7.16456">
        <ele>1507.8</ele>
        <time>2022-07-18T10:44:44Z</time>
      </trkpt>
      <trkpt lat="44.56502" lon="7.16455">
        <ele>1507.8</ele>
        <time>2022-07-18T10:44:45Z</time>
      </trkpt>
      <trkpt lat="44.56501" lon="7.16453">
        <ele>1508.2</ele>
        <time>2022-07-18T10:44:46Z</time>
      </trkpt>
      <trkpt lat="44.56499" lon="7.16452">
        <ele>1508.2</ele>
        <time>2022-07-18T10:44:47Z</time>
      </trkpt>
      <trkpt lat="44.56498" lon="7.16451">
        <ele>1508.4</ele>
        <time>2022-07-18T10:44:48Z</time>
      </trkpt>
      <trkpt lat="44.56496" lon="7.1645">
        <ele>1508.4</ele>
        <time>2022-07-18T10:44:49Z</time>
      </trkpt>
      <trkpt lat="44.56495" lon="7.16449">
        <ele>1508.8</ele>
        <time>2022-07-18T10:44:50Z</time>
      </trkpt>
      <trkpt lat="44.56493" lon="7.16448">
        <ele>1509</ele>
        <time>2022-07-18T10:44:51Z</time>
      </trkpt>
      <trkpt lat="44.56492" lon="7.16447">
        <ele>1509</ele>
        <time>2022-07-18T10:44:52Z</time>
      </trkpt>
      <trkpt lat="44.5649" lon="7.16446">
        <ele>1509.4</ele>
        <time>2022-07-18T10:44:53Z</time>
      </trkpt>
      <trkpt lat="44.56488" lon="7.16446">
        <ele>1509.4</ele>
        <time>2022-07-18T10:44:54Z</time>
      </trkpt>
      <trkpt lat="44.56487" lon="7.16445">
        <ele>1509.6</ele>
        <time>2022-07-18T10:44:55Z</time>
      </trkpt>
      <trkpt lat="44.56485" lon="7.16444">
        <ele>1509.6</ele>
        <time>2022-07-18T10:44:56Z</time>
      </trkpt>
      <trkpt lat="44.56484" lon="7.16443">
        <ele>1510</ele>
        <time>2022-07-18T10:44:57Z</time>
      </trkpt>
      <trkpt lat="44.56483" lon="7.16442">
        <ele>1510</ele>
        <time>2022-07-18T10:44:58Z</time>
      </trkpt>
      <trkpt lat="44.56481" lon="7.16441">
        <ele>1510.2</ele>
        <time>2022-07-18T10:44:59Z</time>
      </trkpt>
      <trkpt lat="44.5648" lon="7.16439">
        <ele>1510.2</ele>
        <time>2022-07-18T10:45:00Z</time>
      </trkpt>
      <trkpt lat="44.56478" lon="7.16438">
        <ele>1510.6</ele>
        <time>2022-07-18T10:45:01Z</time>
      </trkpt>
      <trkpt lat="44.56477" lon="7.16437">
        <ele>1510.6</ele>
        <time>2022-07-18T10:45:02Z</time>
      </trkpt>
      <trkpt lat="44.56475" lon="7.16436">
        <ele>1510.8</ele>
        <time>2022-07-18T10:45:03Z</time>
      </trkpt>
      <trkpt lat="44.56473" lon="7.16435">
        <ele>1510.8</ele>
        <time>2022-07-18T10:45:04Z</time>
      </trkpt>
      <trkpt lat="44.56472" lon="7.16435">
        <ele>1511.2</ele>
        <time>2022-07-18T10:45:05Z</time>
      </trkpt>
      <trkpt lat="44.5647" lon="7.16434">
        <ele>1511.2</ele>
        <time>2022-07-18T10:45:06Z</time>
      </trkpt>
      <trkpt lat="44.56469" lon="7.16433">
        <ele>1511.4</ele>
        <time>2022-07-18T10:45:07Z</time>
      </trkpt>
      <trkpt lat="44.56467" lon="7.16432">
        <ele>1511.4</ele>
        <time>2022-07-18T10:45:08Z</time>
      </trkpt>
      <trkpt lat="44.56466" lon="7.16431">
        <ele>1511.6</ele>
        <time>2022-07-18T10:45:09Z</time>
      </trkpt>
      <trkpt lat="44.56464" lon="7.1643">
        <ele>1511.6</ele>
        <time>2022-07-18T10:45:10Z</time>
      </trkpt>
      <trkpt lat="44.56462" lon="7.16429">
        <ele>1511.8</ele>
        <time>2022-07-18T10:45:11Z</time>
      </trkpt>
      <trkpt lat="44.56461" lon="7.16428">
        <ele>1511.8</ele>
        <time>2022-07-18T10:45:12Z</time>
      </trkpt>
      <trkpt lat="44.5646" lon="7.16427">
        <ele>1512.2</ele>
        <time>2022-07-18T10:45:13Z</time>
      </trkpt>
      <trkpt lat="44.56458" lon="7.16426">
        <ele>1512.2</ele>
        <time>2022-07-18T10:45:14Z</time>
      </trkpt>
      <trkpt lat="44.56457" lon="7.16425">
        <ele>1512.4</ele>
        <time>2022-07-18T10:45:15Z</time>
      </trkpt>
      <trkpt lat="44.56455" lon="7.16425">
        <ele>1512.4</ele>
        <time>2022-07-18T10:45:16Z</time>
      </trkpt>
      <trkpt lat="44.56453" lon="7.16424">
        <ele>1512.4</ele>
        <time>2022-07-18T10:45:17Z</time>
      </trkpt>
      <trkpt lat="44.56452" lon="7.16423">
        <ele>1512.8</ele>
        <time>2022-07-18T10:45:18Z</time>
      </trkpt>
      <trkpt lat="44.5645" lon="7.16422">
        <ele>1512.8</ele>
        <time>2022-07-18T10:45:19Z</time>
      </trkpt>
      <trkpt lat="44.56449" lon="7.16421">
        <ele>1513</ele>
        <time>2022-07-18T10:45:20Z</time>
      </trkpt>
      <trkpt lat="44.56447" lon="7.1642">
        <ele>1513</ele>
        <time>2022-07-18T10:45:21Z</time>
      </trkpt>
      <trkpt lat="44.56446" lon="7.16419">
        <ele>1513.4</ele>
        <time>2022-07-18T10:45:22Z</time>
      </trkpt>
      <trkpt lat="44.56444" lon="7.16418">
        <ele>1513.6</ele>
        <time>2022-07-18T10:45:23Z</time>
      </trkpt>
      <trkpt lat="44.56443" lon="7.16417">
        <ele>1513.6</ele>
        <time>2022-07-18T10:45:24Z</time>
      </trkpt>
      <trkpt lat="44.56441" lon="7.16416">
        <ele>1514</ele>
        <time>2022-07-18T10:45:25Z</time>
      </trkpt>
      <trkpt lat="44.5644" lon="7.16415">
        <ele>1514</ele>
        <time>2022-07-18T10:45:26Z</time>
      </trkpt>
      <trkpt lat="44.56438" lon="7.16414">
        <ele>1514.4</ele>
        <time>2022-07-18T10:45:27Z</time>
      </trkpt>
      <trkpt lat="44.56437" lon="7.16413">
        <ele>1514.4</ele>
        <time>2022-07-18T10:45:28Z</time>
      </trkpt>
      <trkpt lat="44.56435" lon="7.16412">
        <ele>1514.6</ele>
        <time>2022-07-18T10:45:29Z</time>
      </trkpt>
      <trkpt lat="44.56434" lon="7.16411">
        <ele>1514.6</ele>
        <time>2022-07-18T10:45:30Z</time>
      </trkpt>
      <trkpt lat="44.56432" lon="7.1641">
        <ele>1515</ele>
        <time>2022-07-18T10:45:31Z</time>
      </trkpt>
      <trkpt lat="44.56431" lon="7.16409">
        <ele>1515</ele>
        <time>2022-07-18T10:45:32Z</time>
      </trkpt>
      <trkpt lat="44.56429" lon="7.16408">
        <ele>1515.2</ele>
        <time>2022-07-18T10:45:33Z</time>
      </trkpt>
      <trkpt lat="44.56428" lon="7.16408">
        <ele>1515.2</ele>
        <time>2022-07-18T10:45:34Z</time>
      </trkpt>
      <trkpt lat="44.56426" lon="7.16407">
        <ele>1515.6</ele>
        <time>2022-07-18T10:45:35Z</time>
      </trkpt>
      <trkpt lat="44.56424" lon="7.16406">
        <ele>1515.6</ele>
        <time>2022-07-18T10:45:36Z</time>
      </trkpt>
      <trkpt lat="44.56423" lon="7.16405">
        <ele>1515.8</ele>
        <time>2022-07-18T10:45:37Z</time>
      </trkpt>
      <trkpt lat="44.56421" lon="7.16404">
        <ele>1515.8</ele>
        <time>2022-07-18T10:45:38Z</time>
      </trkpt>
      <trkpt lat="44.5642" lon="7.16404">
        <ele>1516.2</ele>
        <time>2022-07-18T10:45:39Z</time>
      </trkpt>
      <trkpt lat="44.56418" lon="7.16403">
        <ele>1516.2</ele>
        <time>2022-07-18T10:45:40Z</time>
      </trkpt>
      <trkpt lat="44.56417" lon="7.16402">
        <ele>1516.6</ele>
        <time>2022-07-18T10:45:41Z</time>
      </trkpt>
      <trkpt lat="44.56415" lon="7.16402">
        <ele>1516.8</ele>
        <time>2022-07-18T10:45:42Z</time>
      </trkpt>
      <trkpt lat="44.56413" lon="7.16401">
        <ele>1516.8</ele>
        <time>2022-07-18T10:45:43Z</time>
      </trkpt>
      <trkpt lat="44.56412" lon="7.164">
        <ele>1517</ele>
        <time>2022-07-18T10:45:44Z</time>
      </trkpt>
      <trkpt lat="44.5641" lon="7.16399">
        <ele>1517</ele>
        <time>2022-07-18T10:45:45Z</time>
      </trkpt>
      <trkpt lat="44.56409" lon="7.16398">
        <ele>1517.4</ele>
        <time>2022-07-18T10:45:46Z</time>
      </trkpt>
      <trkpt lat="44.56407" lon="7.16398">
        <ele>1517.6</ele>
        <time>2022-07-18T10:45:47Z</time>
      </trkpt>
      <trkpt lat="44.56406" lon="7.16397">
        <ele>1517.6</ele>
        <time>2022-07-18T10:45:48Z</time>
      </trkpt>
      <trkpt lat="44.56404" lon="7.16397">
        <ele>1517.8</ele>
        <time>2022-07-18T10:45:49Z</time>
      </trkpt>
      <trkpt lat="44.56402" lon="7.16396">
        <ele>1518</ele>
        <time>2022-07-18T10:45:50Z</time>
      </trkpt>
      <trkpt lat="44.56401" lon="7.16396">
        <ele>1518</ele>
        <time>2022-07-18T10:45:51Z</time>
      </trkpt>
      <trkpt lat="44.56399" lon="7.16397">
        <ele>1518.4</ele>
        <time>2022-07-18T10:45:52Z</time>
      </trkpt>
      <trkpt lat="44.56397" lon="7.16397">
        <ele>1518.6</ele>
        <time>2022-07-18T10:45:53Z</time>
      </trkpt>
      <trkpt lat="44.56395" lon="7.16396">
        <ele>1518.8</ele>
        <time>2022-07-18T10:45:54Z</time>
      </trkpt>
      <trkpt lat="44.56394" lon="7.16396">
        <ele>1518.8</ele>
        <time>2022-07-18T10:45:55Z</time>
      </trkpt>
      <trkpt lat="44.56392" lon="7.16395">
        <ele>1519.2</ele>
        <time>2022-07-18T10:45:56Z</time>
      </trkpt>
      <trkpt lat="44.5639" lon="7.16394">
        <ele>1519.2</ele>
        <time>2022-07-18T10:45:57Z</time>
      </trkpt>
      <trkpt lat="44.56389" lon="7.16394">
        <ele>1519.4</ele>
        <time>2022-07-18T10:45:58Z</time>
      </trkpt>
      <trkpt lat="44.56387" lon="7.16394">
        <ele>1519.6</ele>
        <time>2022-07-18T10:45:59Z</time>
      </trkpt>
      <trkpt lat="44.56385" lon="7.16394">
        <ele>1519.6</ele>
        <time>2022-07-18T10:46:00Z</time>
      </trkpt>
      <trkpt lat="44.56383" lon="7.16394">
        <ele>1520.2</ele>
        <time>2022-07-18T10:46:01Z</time>
      </trkpt>
      <trkpt lat="44.56382" lon="7.16394">
        <ele>1520.2</ele>
        <time>2022-07-18T10:46:02Z</time>
      </trkpt>
      <trkpt lat="44.5638" lon="7.16393">
        <ele>1520.4</ele>
        <time>2022-07-18T10:46:03Z</time>
      </trkpt>
      <trkpt lat="44.56378" lon="7.16393">
        <ele>1520.4</ele>
        <time>2022-07-18T10:46:04Z</time>
      </trkpt>
      <trkpt lat="44.56377" lon="7.16393">
        <ele>1520.8</ele>
        <time>2022-07-18T10:46:05Z</time>
      </trkpt>
      <trkpt lat="44.56375" lon="7.16393">
        <ele>1521</ele>
        <time>2022-07-18T10:46:06Z</time>
      </trkpt>
      <trkpt lat="44.56373" lon="7.16394">
        <ele>1521</ele>
        <time>2022-07-18T10:46:07Z</time>
      </trkpt>
      <trkpt lat="44.56372" lon="7.16394">
        <ele>1521.2</ele>
        <time>2022-07-18T10:46:08Z</time>
      </trkpt>
      <trkpt lat="44.5637" lon="7.16395">
        <ele>1521.2</ele>
        <time>2022-07-18T10:46:09Z</time>
      </trkpt>
      <trkpt lat="44.56368" lon="7.16396">
        <ele>1521.6</ele>
        <time>2022-07-18T10:46:10Z</time>
      </trkpt>
      <trkpt lat="44.56367" lon="7.16396">
        <ele>1521.8</ele>
        <time>2022-07-18T10:46:11Z</time>
      </trkpt>
      <trkpt lat="44.56365" lon="7.16397">
        <ele>1521.8</ele>
        <time>2022-07-18T10:46:12Z</time>
      </trkpt>
      <trkpt lat="44.56364" lon="7.16399">
        <ele>1522.2</ele>
        <time>2022-07-18T10:46:13Z</time>
      </trkpt>
      <trkpt lat="44.56362" lon="7.164">
        <ele>1522.2</ele>
        <time>2022-07-18T10:46:14Z</time>
      </trkpt>
      <trkpt lat="44.56361" lon="7.16401">
        <ele>1522.4</ele>
        <time>2022-07-18T10:46:15Z</time>
      </trkpt>
      <trkpt lat="44.56359" lon="7.16401">
        <ele>1522.4</ele>
        <time>2022-07-18T10:46:16Z</time>
      </trkpt>
      <trkpt lat="44.56356" lon="7.16403">
        <ele>1522.8</ele>
        <time>2022-07-18T10:46:17Z</time>
      </trkpt>
      <trkpt lat="44.56355" lon="7.16404">
        <ele>1522.8</ele>
        <time>2022-07-18T10:46:18Z</time>
      </trkpt>
      <trkpt lat="44.56354" lon="7.16405">
        <ele>1523</ele>
        <time>2022-07-18T10:46:19Z</time>
      </trkpt>
      <trkpt lat="44.56352" lon="7.16406">
        <ele>1523.2</ele>
        <time>2022-07-18T10:46:20Z</time>
      </trkpt>
      <trkpt lat="44.56351" lon="7.16407">
        <ele>1523.6</ele>
        <time>2022-07-18T10:46:21Z</time>
      </trkpt>
      <trkpt lat="44.56349" lon="7.16408">
        <ele>1523.6</ele>
        <time>2022-07-18T10:46:22Z</time>
      </trkpt>
      <trkpt lat="44.56347" lon="7.16409">
        <ele>1524</ele>
        <time>2022-07-18T10:46:23Z</time>
      </trkpt>
      <trkpt lat="44.56346" lon="7.16409">
        <ele>1524</ele>
        <time>2022-07-18T10:46:24Z</time>
      </trkpt>
      <trkpt lat="44.56344" lon="7.1641">
        <ele>1524.4</ele>
        <time>2022-07-18T10:46:25Z</time>
      </trkpt>
      <trkpt lat="44.56343" lon="7.1641">
        <ele>1524.4</ele>
        <time>2022-07-18T10:46:26Z</time>
      </trkpt>
      <trkpt lat="44.56341" lon="7.16409">
        <ele>1524.8</ele>
        <time>2022-07-18T10:46:27Z</time>
      </trkpt>
      <trkpt lat="44.5634" lon="7.16409">
        <ele>1524.8</ele>
        <time>2022-07-18T10:46:28Z</time>
      </trkpt>
      <trkpt lat="44.56338" lon="7.16408">
        <ele>1525.2</ele>
        <time>2022-07-18T10:46:29Z</time>
      </trkpt>
      <trkpt lat="44.56336" lon="7.16407">
        <ele>1525.4</ele>
        <time>2022-07-18T10:46:30Z</time>
      </trkpt>
      <trkpt lat="44.56335" lon="7.16406">
        <ele>1525.4</ele>
        <time>2022-07-18T10:46:31Z</time>
      </trkpt>
      <trkpt lat="44.56333" lon="7.16405">
        <ele>1525.6</ele>
        <time>2022-07-18T10:46:32Z</time>
      </trkpt>
      <trkpt lat="44.56332" lon="7.16404">
        <ele>1525.6</ele>
        <time>2022-07-18T10:46:33Z</time>
      </trkpt>
      <trkpt lat="44.5633" lon="7.16402">
        <ele>1526</ele>
        <time>2022-07-18T10:46:34Z</time>
      </trkpt>
      <trkpt lat="44.56329" lon="7.16401">
        <ele>1526.2</ele>
        <time>2022-07-18T10:46:35Z</time>
      </trkpt>
      <trkpt lat="44.56328" lon="7.16399">
        <ele>1526.2</ele>
        <time>2022-07-18T10:46:36Z</time>
      </trkpt>
      <trkpt lat="44.56327" lon="7.16397">
        <ele>1526.6</ele>
        <time>2022-07-18T10:46:37Z</time>
      </trkpt>
      <trkpt lat="44.56326" lon="7.16395">
        <ele>1526.6</ele>
        <time>2022-07-18T10:46:38Z</time>
      </trkpt>
      <trkpt lat="44.56325" lon="7.16393">
        <ele>1527</ele>
        <time>2022-07-18T10:46:39Z</time>
      </trkpt>
      <trkpt lat="44.56324" lon="7.16391">
        <ele>1527</ele>
        <time>2022-07-18T10:46:40Z</time>
      </trkpt>
      <trkpt lat="44.56324" lon="7.16388">
        <ele>1527.2</ele>
        <time>2022-07-18T10:46:41Z</time>
      </trkpt>
      <trkpt lat="44.56324" lon="7.16386">
        <ele>1527.2</ele>
        <time>2022-07-18T10:46:42Z</time>
      </trkpt>
      <trkpt lat="44.56323" lon="7.16383">
        <ele>1527.2</ele>
        <time>2022-07-18T10:46:43Z</time>
      </trkpt>
      <trkpt lat="44.56323" lon="7.16381">
        <ele>1527.4</ele>
        <time>2022-07-18T10:46:44Z</time>
      </trkpt>
      <trkpt lat="44.56323" lon="7.16378">
        <ele>1527.4</ele>
        <time>2022-07-18T10:46:45Z</time>
      </trkpt>
      <trkpt lat="44.56322" lon="7.16376">
        <ele>1527.8</ele>
        <time>2022-07-18T10:46:46Z</time>
      </trkpt>
      <trkpt lat="44.56322" lon="7.16374">
        <ele>1527.8</ele>
        <time>2022-07-18T10:46:47Z</time>
      </trkpt>
      <trkpt lat="44.56321" lon="7.16371">
        <ele>1528</ele>
        <time>2022-07-18T10:46:48Z</time>
      </trkpt>
      <trkpt lat="44.56321" lon="7.16369">
        <ele>1528.2</ele>
        <time>2022-07-18T10:46:49Z</time>
      </trkpt>
      <trkpt lat="44.56321" lon="7.16366">
        <ele>1528.2</ele>
        <time>2022-07-18T10:46:50Z</time>
      </trkpt>
      <trkpt lat="44.56322" lon="7.16364">
        <ele>1528.6</ele>
        <time>2022-07-18T10:46:51Z</time>
      </trkpt>
      <trkpt lat="44.56322" lon="7.16362">
        <ele>1528.6</ele>
        <time>2022-07-18T10:46:52Z</time>
      </trkpt>
      <trkpt lat="44.56322" lon="7.16359">
        <ele>1529</ele>
        <time>2022-07-18T10:46:53Z</time>
      </trkpt>
      <trkpt lat="44.56323" lon="7.16357">
        <ele>1529</ele>
        <time>2022-07-18T10:46:54Z</time>
      </trkpt>
      <trkpt lat="44.56323" lon="7.16355">
        <ele>1529.4</ele>
        <time>2022-07-18T10:46:55Z</time>
      </trkpt>
      <trkpt lat="44.56323" lon="7.16352">
        <ele>1529.4</ele>
        <time>2022-07-18T10:46:56Z</time>
      </trkpt>
      <trkpt lat="44.56323" lon="7.1635">
        <ele>1529.6</ele>
        <time>2022-07-18T10:46:57Z</time>
      </trkpt>
      <trkpt lat="44.56322" lon="7.16347">
        <ele>1529.8</ele>
        <time>2022-07-18T10:46:58Z</time>
      </trkpt>
      <trkpt lat="44.56322" lon="7.16345">
        <ele>1529.8</ele>
        <time>2022-07-18T10:46:59Z</time>
      </trkpt>
      <trkpt lat="44.56322" lon="7.16342">
        <ele>1530.2</ele>
        <time>2022-07-18T10:47:00Z</time>
      </trkpt>
      <trkpt lat="44.56323" lon="7.16339">
        <ele>1530.2</ele>
        <time>2022-07-18T10:47:01Z</time>
      </trkpt>
      <trkpt lat="44.56323" lon="7.16336">
        <ele>1530.4</ele>
        <time>2022-07-18T10:47:02Z</time>
      </trkpt>
      <trkpt lat="44.56323" lon="7.16334">
        <ele>1530.4</ele>
        <time>2022-07-18T10:47:03Z</time>
      </trkpt>
      <trkpt lat="44.56322" lon="7.16331">
        <ele>1530.8</ele>
        <time>2022-07-18T10:47:04Z</time>
      </trkpt>
      <trkpt lat="44.56322" lon="7.16329">
        <ele>1530.8</ele>
        <time>2022-07-18T10:47:05Z</time>
      </trkpt>
      <trkpt lat="44.56322" lon="7.16326">
        <ele>1531</ele>
        <time>2022-07-18T10:47:06Z</time>
      </trkpt>
      <trkpt lat="44.56322" lon="7.16324">
        <ele>1531</ele>
        <time>2022-07-18T10:47:07Z</time>
      </trkpt>
      <trkpt lat="44.56321" lon="7.16321">
        <ele>1531.4</ele>
        <time>2022-07-18T10:47:08Z</time>
      </trkpt>
      <trkpt lat="44.56321" lon="7.16319">
        <ele>1531.4</ele>
        <time>2022-07-18T10:47:09Z</time>
      </trkpt>
      <trkpt lat="44.5632" lon="7.16317">
        <ele>1531.6</ele>
        <time>2022-07-18T10:47:10Z</time>
      </trkpt>
      <trkpt lat="44.5632" lon="7.16314">
        <ele>1531.6</ele>
        <time>2022-07-18T10:47:11Z</time>
      </trkpt>
      <trkpt lat="44.56319" lon="7.16312">
        <ele>1532</ele>
        <time>2022-07-18T10:47:12Z</time>
      </trkpt>
      <trkpt lat="44.56319" lon="7.1631">
        <ele>1532</ele>
        <time>2022-07-18T10:47:13Z</time>
      </trkpt>
      <trkpt lat="44.56319" lon="7.16308">
        <ele>1532.2</ele>
        <time>2022-07-18T10:47:14Z</time>
      </trkpt>
      <trkpt lat="44.56319" lon="7.16305">
        <ele>1532.2</ele>
        <time>2022-07-18T10:47:15Z</time>
      </trkpt>
      <trkpt lat="44.56318" lon="7.16303">
        <ele>1532.6</ele>
        <time>2022-07-18T10:47:16Z</time>
      </trkpt>
      <trkpt lat="44.56318" lon="7.163">
        <ele>1532.8</ele>
        <time>2022-07-18T10:47:17Z</time>
      </trkpt>
      <trkpt lat="44.56317" lon="7.16298">
        <ele>1533.2</ele>
        <time>2022-07-18T10:47:18Z</time>
      </trkpt>
      <trkpt lat="44.56317" lon="7.16295">
        <ele>1533.4</ele>
        <time>2022-07-18T10:47:19Z</time>
      </trkpt>
      <trkpt lat="44.56317" lon="7.16293">
        <ele>1533.8</ele>
        <time>2022-07-18T10:47:20Z</time>
      </trkpt>
      <trkpt lat="44.56317" lon="7.1629">
        <ele>1534</ele>
        <time>2022-07-18T10:47:21Z</time>
      </trkpt>
      <trkpt lat="44.56316" lon="7.16288">
        <ele>1534</ele>
        <time>2022-07-18T10:47:22Z</time>
      </trkpt>
      <trkpt lat="44.56316" lon="7.16286">
        <ele>1534.2</ele>
        <time>2022-07-18T10:47:23Z</time>
      </trkpt>
      <trkpt lat="44.56315" lon="7.16283">
        <ele>1534.2</ele>
        <time>2022-07-18T10:47:24Z</time>
      </trkpt>
      <trkpt lat="44.56314" lon="7.16281">
        <ele>1534.6</ele>
        <time>2022-07-18T10:47:25Z</time>
      </trkpt>
      <trkpt lat="44.56314" lon="7.16278">
        <ele>1534.6</ele>
        <time>2022-07-18T10:47:26Z</time>
      </trkpt>
      <trkpt lat="44.56313" lon="7.16276">
        <ele>1534.6</ele>
        <time>2022-07-18T10:47:27Z</time>
      </trkpt>
      <trkpt lat="44.56313" lon="7.16274">
        <ele>1535</ele>
        <time>2022-07-18T10:47:28Z</time>
      </trkpt>
      <trkpt lat="44.56312" lon="7.16272">
        <ele>1535</ele>
        <time>2022-07-18T10:47:29Z</time>
      </trkpt>
      <trkpt lat="44.56312" lon="7.16269">
        <ele>1535.2</ele>
        <time>2022-07-18T10:47:30Z</time>
      </trkpt>
      <trkpt lat="44.56311" lon="7.16267">
        <ele>1535.2</ele>
        <time>2022-07-18T10:47:31Z</time>
      </trkpt>
      <trkpt lat="44.56311" lon="7.16264">
        <ele>1535.6</ele>
        <time>2022-07-18T10:47:32Z</time>
      </trkpt>
      <trkpt lat="44.5631" lon="7.16262">
        <ele>1535.6</ele>
        <time>2022-07-18T10:47:33Z</time>
      </trkpt>
      <trkpt lat="44.5631" lon="7.1626">
        <ele>1536</ele>
        <time>2022-07-18T10:47:34Z</time>
      </trkpt>
      <trkpt lat="44.56309" lon="7.16258">
        <ele>1536</ele>
        <time>2022-07-18T10:47:35Z</time>
      </trkpt>
      <trkpt lat="44.56309" lon="7.16255">
        <ele>1536.2</ele>
        <time>2022-07-18T10:47:36Z</time>
      </trkpt>
      <trkpt lat="44.56308" lon="7.16253">
        <ele>1536.2</ele>
        <time>2022-07-18T10:47:37Z</time>
      </trkpt>
      <trkpt lat="44.56308" lon="7.16251">
        <ele>1536.6</ele>
        <time>2022-07-18T10:47:38Z</time>
      </trkpt>
      <trkpt lat="44.56307" lon="7.16248">
        <ele>1536.6</ele>
        <time>2022-07-18T10:47:39Z</time>
      </trkpt>
      <trkpt lat="44.56306" lon="7.16246">
        <ele>1537</ele>
        <time>2022-07-18T10:47:40Z</time>
      </trkpt>
      <trkpt lat="44.56305" lon="7.16244">
        <ele>1537</ele>
        <time>2022-07-18T10:47:41Z</time>
      </trkpt>
      <trkpt lat="44.56304" lon="7.16242">
        <ele>1537.2</ele>
        <time>2022-07-18T10:47:42Z</time>
      </trkpt>
      <trkpt lat="44.56304" lon="7.1624">
        <ele>1537.2</ele>
        <time>2022-07-18T10:47:43Z</time>
      </trkpt>
      <trkpt lat="44.56303" lon="7.16238">
        <ele>1537.6</ele>
        <time>2022-07-18T10:47:44Z</time>
      </trkpt>
      <trkpt lat="44.56303" lon="7.16235">
        <ele>1537.6</ele>
        <time>2022-07-18T10:47:45Z</time>
      </trkpt>
      <trkpt lat="44.56302" lon="7.16233">
        <ele>1537.8</ele>
        <time>2022-07-18T10:47:46Z</time>
      </trkpt>
      <trkpt lat="44.56302" lon="7.16231">
        <ele>1538</ele>
        <time>2022-07-18T10:47:47Z</time>
      </trkpt>
      <trkpt lat="44.56301" lon="7.16229">
        <ele>1538</ele>
        <time>2022-07-18T10:47:48Z</time>
      </trkpt>
      <trkpt lat="44.56301" lon="7.16226">
        <ele>1538.4</ele>
        <time>2022-07-18T10:47:49Z</time>
      </trkpt>
      <trkpt lat="44.56301" lon="7.16224">
        <ele>1538.4</ele>
        <time>2022-07-18T10:47:50Z</time>
      </trkpt>
      <trkpt lat="44.563" lon="7.16222">
        <ele>1538.6</ele>
        <time>2022-07-18T10:47:51Z</time>
      </trkpt>
      <trkpt lat="44.56299" lon="7.16219">
        <ele>1538.6</ele>
        <time>2022-07-18T10:47:52Z</time>
      </trkpt>
      <trkpt lat="44.56298" lon="7.16217">
        <ele>1539</ele>
        <time>2022-07-18T10:47:53Z</time>
      </trkpt>
      <trkpt lat="44.56297" lon="7.16215">
        <ele>1539</ele>
        <time>2022-07-18T10:47:54Z</time>
      </trkpt>
      <trkpt lat="44.56296" lon="7.16213">
        <ele>1539.4</ele>
        <time>2022-07-18T10:47:55Z</time>
      </trkpt>
      <trkpt lat="44.56295" lon="7.16211">
        <ele>1539.6</ele>
        <time>2022-07-18T10:47:56Z</time>
      </trkpt>
      <trkpt lat="44.56295" lon="7.16209">
        <ele>1539.6</ele>
        <time>2022-07-18T10:47:57Z</time>
      </trkpt>
      <trkpt lat="44.56294" lon="7.16207">
        <ele>1540</ele>
        <time>2022-07-18T10:47:58Z</time>
      </trkpt>
      <trkpt lat="44.56292" lon="7.16204">
        <ele>1540</ele>
        <time>2022-07-18T10:47:59Z</time>
      </trkpt>
      <trkpt lat="44.56291" lon="7.16202">
        <ele>1540.2</ele>
        <time>2022-07-18T10:48:00Z</time>
      </trkpt>
      <trkpt lat="44.5629" lon="7.162">
        <ele>1540.2</ele>
        <time>2022-07-18T10:48:01Z</time>
      </trkpt>
      <trkpt lat="44.56288" lon="7.16198">
        <ele>1540.6</ele>
        <time>2022-07-18T10:48:02Z</time>
      </trkpt>
      <trkpt lat="44.56287" lon="7.16196">
        <ele>1540.6</ele>
        <time>2022-07-18T10:48:03Z</time>
      </trkpt>
      <trkpt lat="44.56287" lon="7.16194">
        <ele>1540.8</ele>
        <time>2022-07-18T10:48:04Z</time>
      </trkpt>
      <trkpt lat="44.56286" lon="7.16192">
        <ele>1540.8</ele>
        <time>2022-07-18T10:48:05Z</time>
      </trkpt>
      <trkpt lat="44.56285" lon="7.1619">
        <ele>1541</ele>
        <time>2022-07-18T10:48:06Z</time>
      </trkpt>
      <trkpt lat="44.56284" lon="7.16188">
        <ele>1541</ele>
        <time>2022-07-18T10:48:07Z</time>
      </trkpt>
      <trkpt lat="44.56283" lon="7.16186">
        <ele>1541.2</ele>
        <time>2022-07-18T10:48:08Z</time>
      </trkpt>
      <trkpt lat="44.56282" lon="7.16184">
        <ele>1541.2</ele>
        <time>2022-07-18T10:48:09Z</time>
      </trkpt>
      <trkpt lat="44.56281" lon="7.16183">
        <ele>1541.6</ele>
        <time>2022-07-18T10:48:10Z</time>
      </trkpt>
      <trkpt lat="44.56279" lon="7.16182">
        <ele>1541.6</ele>
        <time>2022-07-18T10:48:11Z</time>
      </trkpt>
      <trkpt lat="44.56278" lon="7.1618">
        <ele>1541.8</ele>
        <time>2022-07-18T10:48:12Z</time>
      </trkpt>
      <trkpt lat="44.56278" lon="7.16178">
        <ele>1541.8</ele>
        <time>2022-07-18T10:48:13Z</time>
      </trkpt>
      <trkpt lat="44.56277" lon="7.16175">
        <ele>1542.2</ele>
        <time>2022-07-18T10:48:14Z</time>
      </trkpt>
      <trkpt lat="44.56276" lon="7.16173">
        <ele>1542.2</ele>
        <time>2022-07-18T10:48:15Z</time>
      </trkpt>
      <trkpt lat="44.56275" lon="7.16172">
        <ele>1542.6</ele>
        <time>2022-07-18T10:48:16Z</time>
      </trkpt>
      <trkpt lat="44.56274" lon="7.1617">
        <ele>1542.6</ele>
        <time>2022-07-18T10:48:17Z</time>
      </trkpt>
      <trkpt lat="44.56273" lon="7.16168">
        <ele>1542.8</ele>
        <time>2022-07-18T10:48:18Z</time>
      </trkpt>
      <trkpt lat="44.56272" lon="7.16166">
        <ele>1543</ele>
        <time>2022-07-18T10:48:19Z</time>
      </trkpt>
      <trkpt lat="44.56271" lon="7.16165">
        <ele>1543</ele>
        <time>2022-07-18T10:48:20Z</time>
      </trkpt>
      <trkpt lat="44.5627" lon="7.16163">
        <ele>1543.4</ele>
        <time>2022-07-18T10:48:21Z</time>
      </trkpt>
      <trkpt lat="44.56269" lon="7.16162">
        <ele>1543.4</ele>
        <time>2022-07-18T10:48:22Z</time>
      </trkpt>
      <trkpt lat="44.56267" lon="7.1616">
        <ele>1543.8</ele>
        <time>2022-07-18T10:48:23Z</time>
      </trkpt>
      <trkpt lat="44.56266" lon="7.16159">
        <ele>1543.8</ele>
        <time>2022-07-18T10:48:24Z</time>
      </trkpt>
      <trkpt lat="44.56265" lon="7.16157">
        <ele>1544</ele>
        <time>2022-07-18T10:48:25Z</time>
      </trkpt>
      <trkpt lat="44.56264" lon="7.16155">
        <ele>1544</ele>
        <time>2022-07-18T10:48:26Z</time>
      </trkpt>
      <trkpt lat="44.56263" lon="7.16154">
        <ele>1544.4</ele>
        <time>2022-07-18T10:48:27Z</time>
      </trkpt>
      <trkpt lat="44.56262" lon="7.16152">
        <ele>1544.4</ele>
        <time>2022-07-18T10:48:28Z</time>
      </trkpt>
      <trkpt lat="44.56261" lon="7.16149">
        <ele>1544.6</ele>
        <time>2022-07-18T10:48:29Z</time>
      </trkpt>
      <trkpt lat="44.5626" lon="7.16147">
        <ele>1544.6</ele>
        <time>2022-07-18T10:48:30Z</time>
      </trkpt>
      <trkpt lat="44.56259" lon="7.16145">
        <ele>1545</ele>
        <time>2022-07-18T10:48:31Z</time>
      </trkpt>
      <trkpt lat="44.56258" lon="7.16143">
        <ele>1545</ele>
        <time>2022-07-18T10:48:32Z</time>
      </trkpt>
      <trkpt lat="44.56257" lon="7.16142">
        <ele>1545.2</ele>
        <time>2022-07-18T10:48:33Z</time>
      </trkpt>
      <trkpt lat="44.56256" lon="7.1614">
        <ele>1545.2</ele>
        <time>2022-07-18T10:48:34Z</time>
      </trkpt>
      <trkpt lat="44.56254" lon="7.16138">
        <ele>1545.6</ele>
        <time>2022-07-18T10:48:35Z</time>
      </trkpt>
      <trkpt lat="44.56253" lon="7.16137">
        <ele>1545.6</ele>
        <time>2022-07-18T10:48:36Z</time>
      </trkpt>
      <trkpt lat="44.56252" lon="7.16136">
        <ele>1545.8</ele>
        <time>2022-07-18T10:48:37Z</time>
      </trkpt>
      <trkpt lat="44.56251" lon="7.16134">
        <ele>1545.8</ele>
        <time>2022-07-18T10:48:38Z</time>
      </trkpt>
      <trkpt lat="44.56249" lon="7.16133">
        <ele>1546.2</ele>
        <time>2022-07-18T10:48:39Z</time>
      </trkpt>
      <trkpt lat="44.56248" lon="7.16131">
        <ele>1546.2</ele>
        <time>2022-07-18T10:48:40Z</time>
      </trkpt>
      <trkpt lat="44.56247" lon="7.16129">
        <ele>1546.6</ele>
        <time>2022-07-18T10:48:41Z</time>
      </trkpt>
      <trkpt lat="44.56246" lon="7.16128">
        <ele>1546.6</ele>
        <time>2022-07-18T10:48:42Z</time>
      </trkpt>
      <trkpt lat="44.56244" lon="7.16126">
        <ele>1546.8</ele>
        <time>2022-07-18T10:48:43Z</time>
      </trkpt>
      <trkpt lat="44.56243" lon="7.16125">
        <ele>1546.8</ele>
        <time>2022-07-18T10:48:44Z</time>
      </trkpt>
      <trkpt lat="44.56241" lon="7.16123">
        <ele>1547.2</ele>
        <time>2022-07-18T10:48:45Z</time>
      </trkpt>
      <trkpt lat="44.5624" lon="7.16122">
        <ele>1547.2</ele>
        <time>2022-07-18T10:48:46Z</time>
      </trkpt>
      <trkpt lat="44.56239" lon="7.1612">
        <ele>1547.6</ele>
        <time>2022-07-18T10:48:47Z</time>
      </trkpt>
      <trkpt lat="44.56237" lon="7.16119">
        <ele>1547.6</ele>
        <time>2022-07-18T10:48:48Z</time>
      </trkpt>
      <trkpt lat="44.56236" lon="7.16117">
        <ele>1547.8</ele>
        <time>2022-07-18T10:48:49Z</time>
      </trkpt>
      <trkpt lat="44.56235" lon="7.16115">
        <ele>1547.8</ele>
        <time>2022-07-18T10:48:50Z</time>
      </trkpt>
      <trkpt lat="44.56233" lon="7.16114">
        <ele>1548</ele>
        <time>2022-07-18T10:48:51Z</time>
      </trkpt>
      <trkpt lat="44.56232" lon="7.16112">
        <ele>1548</ele>
        <time>2022-07-18T10:48:52Z</time>
      </trkpt>
      <trkpt lat="44.5623" lon="7.16111">
        <ele>1548.4</ele>
        <time>2022-07-18T10:48:53Z</time>
      </trkpt>
      <trkpt lat="44.56229" lon="7.16109">
        <ele>1548.4</ele>
        <time>2022-07-18T10:48:54Z</time>
      </trkpt>
      <trkpt lat="44.56227" lon="7.16108">
        <ele>1548.6</ele>
        <time>2022-07-18T10:48:55Z</time>
      </trkpt>
      <trkpt lat="44.56225" lon="7.16107">
        <ele>1548.6</ele>
        <time>2022-07-18T10:48:56Z</time>
      </trkpt>
      <trkpt lat="44.56224" lon="7.16106">
        <ele>1548.8</ele>
        <time>2022-07-18T10:48:57Z</time>
      </trkpt>
      <trkpt lat="44.56222" lon="7.16105">
        <ele>1548.8</ele>
        <time>2022-07-18T10:48:58Z</time>
      </trkpt>
      <trkpt lat="44.5622" lon="7.16104">
        <ele>1549.2</ele>
        <time>2022-07-18T10:48:59Z</time>
      </trkpt>
      <trkpt lat="44.56218" lon="7.16103">
        <ele>1549.2</ele>
        <time>2022-07-18T10:49:00Z</time>
      </trkpt>
      <trkpt lat="44.56217" lon="7.16102">
        <ele>1549.6</ele>
        <time>2022-07-18T10:49:01Z</time>
      </trkpt>
      <trkpt lat="44.56215" lon="7.16101">
        <ele>1549.6</ele>
        <time>2022-07-18T10:49:02Z</time>
      </trkpt>
      <trkpt lat="44.56213" lon="7.161">
        <ele>1550</ele>
        <time>2022-07-18T10:49:03Z</time>
      </trkpt>
      <trkpt lat="44.56212" lon="7.16098">
        <ele>1550</ele>
        <time>2022-07-18T10:49:04Z</time>
      </trkpt>
      <trkpt lat="44.5621" lon="7.16097">
        <ele>1550.2</ele>
        <time>2022-07-18T10:49:05Z</time>
      </trkpt>
      <trkpt lat="44.56209" lon="7.16096">
        <ele>1550.2</ele>
        <time>2022-07-18T10:49:06Z</time>
      </trkpt>
      <trkpt lat="44.56207" lon="7.16094">
        <ele>1550.6</ele>
        <time>2022-07-18T10:49:07Z</time>
      </trkpt>
      <trkpt lat="44.56205" lon="7.16093">
        <ele>1550.8</ele>
        <time>2022-07-18T10:49:08Z</time>
      </trkpt>
      <trkpt lat="44.56204" lon="7.16092">
        <ele>1550.8</ele>
        <time>2022-07-18T10:49:09Z</time>
      </trkpt>
      <trkpt lat="44.56202" lon="7.16091">
        <ele>1551.2</ele>
        <time>2022-07-18T10:49:10Z</time>
      </trkpt>
      <trkpt lat="44.562" lon="7.1609">
        <ele>1551.2</ele>
        <time>2022-07-18T10:49:11Z</time>
      </trkpt>
      <trkpt lat="44.56198" lon="7.1609">
        <ele>1551.4</ele>
        <time>2022-07-18T10:49:12Z</time>
      </trkpt>
      <trkpt lat="44.56197" lon="7.16089">
        <ele>1551.4</ele>
        <time>2022-07-18T10:49:13Z</time>
      </trkpt>
      <trkpt lat="44.56195" lon="7.16088">
        <ele>1551.8</ele>
        <time>2022-07-18T10:49:14Z</time>
      </trkpt>
      <trkpt lat="44.56194" lon="7.16087">
        <ele>1551.8</ele>
        <time>2022-07-18T10:49:15Z</time>
      </trkpt>
      <trkpt lat="44.56192" lon="7.16086">
        <ele>1552</ele>
        <time>2022-07-18T10:49:16Z</time>
      </trkpt>
      <trkpt lat="44.5619" lon="7.16086">
        <ele>1552</ele>
        <time>2022-07-18T10:49:17Z</time>
      </trkpt>
      <trkpt lat="44.56189" lon="7.16085">
        <ele>1552.4</ele>
        <time>2022-07-18T10:49:18Z</time>
      </trkpt>
      <trkpt lat="44.56187" lon="7.16085">
        <ele>1552.4</ele>
        <time>2022-07-18T10:49:19Z</time>
      </trkpt>
      <trkpt lat="44.56186" lon="7.16084">
        <ele>1552.6</ele>
        <time>2022-07-18T10:49:20Z</time>
      </trkpt>
      <trkpt lat="44.56184" lon="7.16083">
        <ele>1552.6</ele>
        <time>2022-07-18T10:49:21Z</time>
      </trkpt>
      <trkpt lat="44.56183" lon="7.16082">
        <ele>1552.8</ele>
        <time>2022-07-18T10:49:22Z</time>
      </trkpt>
      <trkpt lat="44.56181" lon="7.16082">
        <ele>1552.8</ele>
        <time>2022-07-18T10:49:23Z</time>
      </trkpt>
      <trkpt lat="44.56179" lon="7.16081">
        <ele>1553.2</ele>
        <time>2022-07-18T10:49:24Z</time>
      </trkpt>
      <trkpt lat="44.56178" lon="7.1608">
        <ele>1553.4</ele>
        <time>2022-07-18T10:49:25Z</time>
      </trkpt>
      <trkpt lat="44.56176" lon="7.16079">
        <ele>1553.4</ele>
        <time>2022-07-18T10:49:26Z</time>
      </trkpt>
      <trkpt lat="44.56175" lon="7.16078">
        <ele>1553.8</ele>
        <time>2022-07-18T10:49:27Z</time>
      </trkpt>
      <trkpt lat="44.56173" lon="7.16077">
        <ele>1553.8</ele>
        <time>2022-07-18T10:49:28Z</time>
      </trkpt>
      <trkpt lat="44.56172" lon="7.16076">
        <ele>1554</ele>
        <time>2022-07-18T10:49:29Z</time>
      </trkpt>
      <trkpt lat="44.5617" lon="7.16075">
        <ele>1554</ele>
        <time>2022-07-18T10:49:30Z</time>
      </trkpt>
      <trkpt lat="44.56168" lon="7.16074">
        <ele>1554.2</ele>
        <time>2022-07-18T10:49:31Z</time>
      </trkpt>
      <trkpt lat="44.56167" lon="7.16073">
        <ele>1554.2</ele>
        <time>2022-07-18T10:49:32Z</time>
      </trkpt>
      <trkpt lat="44.56165" lon="7.16072">
        <ele>1554.4</ele>
        <time>2022-07-18T10:49:33Z</time>
      </trkpt>
      <trkpt lat="44.56164" lon="7.16071">
        <ele>1554.4</ele>
        <time>2022-07-18T10:49:34Z</time>
      </trkpt>
      <trkpt lat="44.56162" lon="7.1607">
        <ele>1554.8</ele>
        <time>2022-07-18T10:49:35Z</time>
      </trkpt>
      <trkpt lat="44.56161" lon="7.1607">
        <ele>1555</ele>
        <time>2022-07-18T10:49:36Z</time>
      </trkpt>
      <trkpt lat="44.56159" lon="7.16069">
        <ele>1555.2</ele>
        <time>2022-07-18T10:49:37Z</time>
      </trkpt>
      <trkpt lat="44.56158" lon="7.16068">
        <ele>1555.2</ele>
        <time>2022-07-18T10:49:38Z</time>
      </trkpt>
      <trkpt lat="44.56156" lon="7.16067">
        <ele>1555.6</ele>
        <time>2022-07-18T10:49:39Z</time>
      </trkpt>
      <trkpt lat="44.56155" lon="7.16067">
        <ele>1555.6</ele>
        <time>2022-07-18T10:49:40Z</time>
      </trkpt>
      <trkpt lat="44.56153" lon="7.16066">
        <ele>1555.8</ele>
        <time>2022-07-18T10:49:41Z</time>
      </trkpt>
      <trkpt lat="44.56151" lon="7.16066">
        <ele>1555.8</ele>
        <time>2022-07-18T10:49:42Z</time>
      </trkpt>
      <trkpt lat="44.5615" lon="7.16066">
        <ele>1556</ele>
        <time>2022-07-18T10:49:43Z</time>
      </trkpt>
      <trkpt lat="44.56148" lon="7.16066">
        <ele>1556</ele>
        <time>2022-07-18T10:49:44Z</time>
      </trkpt>
      <trkpt lat="44.56146" lon="7.16065">
        <ele>1556.4</ele>
        <time>2022-07-18T10:49:45Z</time>
      </trkpt>
      <trkpt lat="44.56144" lon="7.16066">
        <ele>1556.4</ele>
        <time>2022-07-18T10:49:46Z</time>
      </trkpt>
      <trkpt lat="44.56142" lon="7.16065">
        <ele>1556.8</ele>
        <time>2022-07-18T10:49:47Z</time>
      </trkpt>
      <trkpt lat="44.5614" lon="7.16065">
        <ele>1556.8</ele>
        <time>2022-07-18T10:49:48Z</time>
      </trkpt>
      <trkpt lat="44.56138" lon="7.16065">
        <ele>1557.2</ele>
        <time>2022-07-18T10:49:49Z</time>
      </trkpt>
      <trkpt lat="44.56136" lon="7.16066">
        <ele>1557.4</ele>
        <time>2022-07-18T10:49:50Z</time>
      </trkpt>
      <trkpt lat="44.56135" lon="7.16067">
        <ele>1557.4</ele>
        <time>2022-07-18T10:49:51Z</time>
      </trkpt>
      <trkpt lat="44.56133" lon="7.16068">
        <ele>1557.6</ele>
        <time>2022-07-18T10:49:52Z</time>
      </trkpt>
      <trkpt lat="44.56131" lon="7.16069">
        <ele>1557.6</ele>
        <time>2022-07-18T10:49:53Z</time>
      </trkpt>
      <trkpt lat="44.56129" lon="7.1607">
        <ele>1557.8</ele>
        <time>2022-07-18T10:49:54Z</time>
      </trkpt>
      <trkpt lat="44.56128" lon="7.16071">
        <ele>1557.8</ele>
        <time>2022-07-18T10:49:55Z</time>
      </trkpt>
      <trkpt lat="44.56126" lon="7.16072">
        <ele>1558.2</ele>
        <time>2022-07-18T10:49:56Z</time>
      </trkpt>
      <trkpt lat="44.56124" lon="7.16072">
        <ele>1558.2</ele>
        <time>2022-07-18T10:49:57Z</time>
      </trkpt>
      <trkpt lat="44.56122" lon="7.16073">
        <ele>1558.6</ele>
        <time>2022-07-18T10:49:58Z</time>
      </trkpt>
      <trkpt lat="44.56121" lon="7.16073">
        <ele>1558.8</ele>
        <time>2022-07-18T10:49:59Z</time>
      </trkpt>
      <trkpt lat="44.56119" lon="7.16074">
        <ele>1559</ele>
        <time>2022-07-18T10:50:00Z</time>
      </trkpt>
      <trkpt lat="44.56117" lon="7.16074">
        <ele>1559</ele>
        <time>2022-07-18T10:50:01Z</time>
      </trkpt>
      <trkpt lat="44.56116" lon="7.16075">
        <ele>1559.4</ele>
        <time>2022-07-18T10:50:02Z</time>
      </trkpt>
      <trkpt lat="44.56114" lon="7.16076">
        <ele>1559.8</ele>
        <time>2022-07-18T10:50:03Z</time>
      </trkpt>
      <trkpt lat="44.56113" lon="7.16077">
        <ele>1559.8</ele>
        <time>2022-07-18T10:50:04Z</time>
      </trkpt>
      <trkpt lat="44.56111" lon="7.16078">
        <ele>1559.8</ele>
        <time>2022-07-18T10:50:05Z</time>
      </trkpt>
      <trkpt lat="44.56109" lon="7.16079">
        <ele>1560.2</ele>
        <time>2022-07-18T10:50:06Z</time>
      </trkpt>
      <trkpt lat="44.56107" lon="7.1608">
        <ele>1560.4</ele>
        <time>2022-07-18T10:50:07Z</time>
      </trkpt>
      <trkpt lat="44.56105" lon="7.16081">
        <ele>1560.6</ele>
        <time>2022-07-18T10:50:08Z</time>
      </trkpt>
      <trkpt lat="44.56104" lon="7.16082">
        <ele>1560.6</ele>
        <time>2022-07-18T10:50:09Z</time>
      </trkpt>
      <trkpt lat="44.56102" lon="7.16083">
        <ele>1561</ele>
        <time>2022-07-18T10:50:10Z</time>
      </trkpt>
      <trkpt lat="44.561" lon="7.16083">
        <ele>1561</ele>
        <time>2022-07-18T10:50:11Z</time>
      </trkpt>
      <trkpt lat="44.56098" lon="7.16084">
        <ele>1561.4</ele>
        <time>2022-07-18T10:50:12Z</time>
      </trkpt>
      <trkpt lat="44.56097" lon="7.16084">
        <ele>1561.6</ele>
        <time>2022-07-18T10:50:13Z</time>
      </trkpt>
      <trkpt lat="44.56095" lon="7.16084">
        <ele>1561.6</ele>
        <time>2022-07-18T10:50:14Z</time>
      </trkpt>
      <trkpt lat="44.56093" lon="7.16085">
        <ele>1562</ele>
        <time>2022-07-18T10:50:15Z</time>
      </trkpt>
      <trkpt lat="44.56092" lon="7.16085">
        <ele>1562</ele>
        <time>2022-07-18T10:50:16Z</time>
      </trkpt>
      <trkpt lat="44.5609" lon="7.16085">
        <ele>1562.2</ele>
        <time>2022-07-18T10:50:17Z</time>
      </trkpt>
      <trkpt lat="44.56088" lon="7.16086">
        <ele>1562.4</ele>
        <time>2022-07-18T10:50:18Z</time>
      </trkpt>
      <trkpt lat="44.56086" lon="7.16086">
        <ele>1562.4</ele>
        <time>2022-07-18T10:50:19Z</time>
      </trkpt>
      <trkpt lat="44.56085" lon="7.16086">
        <ele>1562.6</ele>
        <time>2022-07-18T10:50:20Z</time>
      </trkpt>
      <trkpt lat="44.56083" lon="7.16086">
        <ele>1562.6</ele>
        <time>2022-07-18T10:50:21Z</time>
      </trkpt>
      <trkpt lat="44.56082" lon="7.16086">
        <ele>1562.8</ele>
        <time>2022-07-18T10:50:23Z</time>
      </trkpt>
      <trkpt lat="44.5608" lon="7.16086">
        <ele>1563.2</ele>
        <time>2022-07-18T10:50:24Z</time>
      </trkpt>
      <trkpt lat="44.56079" lon="7.16087">
        <ele>1563.4</ele>
        <time>2022-07-18T10:50:25Z</time>
      </trkpt>
      <trkpt lat="44.56077" lon="7.16088">
        <ele>1563.4</ele>
        <time>2022-07-18T10:50:26Z</time>
      </trkpt>
      <trkpt lat="44.56075" lon="7.16089">
        <ele>1563.8</ele>
        <time>2022-07-18T10:50:27Z</time>
      </trkpt>
      <trkpt lat="44.56074" lon="7.16089">
        <ele>1563.8</ele>
        <time>2022-07-18T10:50:28Z</time>
      </trkpt>
      <trkpt lat="44.56072" lon="7.1609">
        <ele>1564</ele>
        <time>2022-07-18T10:50:29Z</time>
      </trkpt>
      <trkpt lat="44.5607" lon="7.1609">
        <ele>1564.2</ele>
        <time>2022-07-18T10:50:30Z</time>
      </trkpt>
      <trkpt lat="44.56068" lon="7.16091">
        <ele>1564.4</ele>
        <time>2022-07-18T10:50:31Z</time>
      </trkpt>
      <trkpt lat="44.56067" lon="7.16091">
        <ele>1564.8</ele>
        <time>2022-07-18T10:50:32Z</time>
      </trkpt>
      <trkpt lat="44.56065" lon="7.16092">
        <ele>1564.8</ele>
        <time>2022-07-18T10:50:33Z</time>
      </trkpt>
      <trkpt lat="44.56064" lon="7.16092">
        <ele>1565</ele>
        <time>2022-07-18T10:50:34Z</time>
      </trkpt>
      <trkpt lat="44.56062" lon="7.16091">
        <ele>1565</ele>
        <time>2022-07-18T10:50:35Z</time>
      </trkpt>
      <trkpt lat="44.56061" lon="7.16091">
        <ele>1565.4</ele>
        <time>2022-07-18T10:50:36Z</time>
      </trkpt>
      <trkpt lat="44.56059" lon="7.16091">
        <ele>1565.4</ele>
        <time>2022-07-18T10:50:37Z</time>
      </trkpt>
      <trkpt lat="44.56058" lon="7.16091">
        <ele>1565.8</ele>
        <time>2022-07-18T10:50:38Z</time>
      </trkpt>
      <trkpt lat="44.56056" lon="7.16091">
        <ele>1565.8</ele>
        <time>2022-07-18T10:50:39Z</time>
      </trkpt>
      <trkpt lat="44.56054" lon="7.16091">
        <ele>1566</ele>
        <time>2022-07-18T10:50:40Z</time>
      </trkpt>
      <trkpt lat="44.56053" lon="7.16091">
        <ele>1566</ele>
        <time>2022-07-18T10:50:41Z</time>
      </trkpt>
      <trkpt lat="44.56051" lon="7.16092">
        <ele>1566.2</ele>
        <time>2022-07-18T10:50:42Z</time>
      </trkpt>
      <trkpt lat="44.56049" lon="7.16092">
        <ele>1566.2</ele>
        <time>2022-07-18T10:50:43Z</time>
      </trkpt>
      <trkpt lat="44.56047" lon="7.16091">
        <ele>1566.6</ele>
        <time>2022-07-18T10:50:44Z</time>
      </trkpt>
      <trkpt lat="44.56045" lon="7.16092">
        <ele>1566.6</ele>
        <time>2022-07-18T10:50:45Z</time>
      </trkpt>
      <trkpt lat="44.56044" lon="7.16092">
        <ele>1567</ele>
        <time>2022-07-18T10:50:46Z</time>
      </trkpt>
      <trkpt lat="44.56042" lon="7.16091">
        <ele>1567</ele>
        <time>2022-07-18T10:50:47Z</time>
      </trkpt>
      <trkpt lat="44.56041" lon="7.16091">
        <ele>1567.2</ele>
        <time>2022-07-18T10:50:48Z</time>
      </trkpt>
      <trkpt lat="44.56039" lon="7.1609">
        <ele>1567.2</ele>
        <time>2022-07-18T10:50:49Z</time>
      </trkpt>
      <trkpt lat="44.56038" lon="7.1609">
        <ele>1567.6</ele>
        <time>2022-07-18T10:50:50Z</time>
      </trkpt>
      <trkpt lat="44.56036" lon="7.1609">
        <ele>1567.6</ele>
        <time>2022-07-18T10:50:51Z</time>
      </trkpt>
      <trkpt lat="44.56035" lon="7.1609">
        <ele>1567.8</ele>
        <time>2022-07-18T10:50:52Z</time>
      </trkpt>
      <trkpt lat="44.56034" lon="7.1609">
        <ele>1567.8</ele>
        <time>2022-07-18T10:50:53Z</time>
      </trkpt>
      <trkpt lat="44.56032" lon="7.16089">
        <ele>1568.2</ele>
        <time>2022-07-18T10:50:54Z</time>
      </trkpt>
      <trkpt lat="44.5603" lon="7.16089">
        <ele>1568.2</ele>
        <time>2022-07-18T10:50:55Z</time>
      </trkpt>
      <trkpt lat="44.56029" lon="7.16089">
        <ele>1568.4</ele>
        <time>2022-07-18T10:50:56Z</time>
      </trkpt>
      <trkpt lat="44.56028" lon="7.16088">
        <ele>1568.4</ele>
        <time>2022-07-18T10:50:57Z</time>
      </trkpt>
      <trkpt lat="44.56026" lon="7.16088">
        <ele>1568.6</ele>
        <time>2022-07-18T10:50:58Z</time>
      </trkpt>
      <trkpt lat="44.56025" lon="7.16088">
        <ele>1568.6</ele>
        <time>2022-07-18T10:50:59Z</time>
      </trkpt>
      <trkpt lat="44.56023" lon="7.16088">
        <ele>1569</ele>
        <time>2022-07-18T10:51:00Z</time>
      </trkpt>
      <trkpt lat="44.56022" lon="7.16088">
        <ele>1569</ele>
        <time>2022-07-18T10:51:01Z</time>
      </trkpt>
      <trkpt lat="44.5602" lon="7.16089">
        <ele>1569</ele>
        <time>2022-07-18T10:51:02Z</time>
      </trkpt>
      <trkpt lat="44.56019" lon="7.16089">
        <ele>1569.2</ele>
        <time>2022-07-18T10:51:03Z</time>
      </trkpt>
      <trkpt lat="44.56017" lon="7.16089">
        <ele>1569.2</ele>
        <time>2022-07-18T10:51:04Z</time>
      </trkpt>
      <trkpt lat="44.56016" lon="7.16089">
        <ele>1569.6</ele>
        <time>2022-07-18T10:51:05Z</time>
      </trkpt>
      <trkpt lat="44.56014" lon="7.16088">
        <ele>1569.6</ele>
        <time>2022-07-18T10:51:06Z</time>
      </trkpt>
      <trkpt lat="44.56013" lon="7.16087">
        <ele>1569.6</ele>
        <time>2022-07-18T10:51:07Z</time>
      </trkpt>
      <trkpt lat="44.56011" lon="7.16087">
        <ele>1569.8</ele>
        <time>2022-07-18T10:51:08Z</time>
      </trkpt>
      <trkpt lat="44.5601" lon="7.16086">
        <ele>1569.8</ele>
        <time>2022-07-18T10:51:09Z</time>
      </trkpt>
      <trkpt lat="44.56008" lon="7.16086">
        <ele>1570.2</ele>
        <time>2022-07-18T10:51:10Z</time>
      </trkpt>
      <trkpt lat="44.56007" lon="7.16086">
        <ele>1570.2</ele>
        <time>2022-07-18T10:51:11Z</time>
      </trkpt>
      <trkpt lat="44.56005" lon="7.16086">
        <ele>1570.4</ele>
        <time>2022-07-18T10:51:12Z</time>
      </trkpt>
      <trkpt lat="44.56004" lon="7.16085">
        <ele>1570.4</ele>
        <time>2022-07-18T10:51:13Z</time>
      </trkpt>
      <trkpt lat="44.56002" lon="7.16085">
        <ele>1570.8</ele>
        <time>2022-07-18T10:51:14Z</time>
      </trkpt>
      <trkpt lat="44.56001" lon="7.16085">
        <ele>1570.8</ele>
        <time>2022-07-18T10:51:15Z</time>
      </trkpt>
      <trkpt lat="44.55999" lon="7.16085">
        <ele>1570.8</ele>
        <time>2022-07-18T10:51:16Z</time>
      </trkpt>
      <trkpt lat="44.55998" lon="7.16086">
        <ele>1571.2</ele>
        <time>2022-07-18T10:51:17Z</time>
      </trkpt>
      <trkpt lat="44.55997" lon="7.16086">
        <ele>1571.2</ele>
        <time>2022-07-18T10:51:18Z</time>
      </trkpt>
      <trkpt lat="44.55995" lon="7.16087">
        <ele>1571.4</ele>
        <time>2022-07-18T10:51:19Z</time>
      </trkpt>
      <trkpt lat="44.55993" lon="7.16087">
        <ele>1571.4</ele>
        <time>2022-07-18T10:51:20Z</time>
      </trkpt>
      <trkpt lat="44.55992" lon="7.16087">
        <ele>1571.8</ele>
        <time>2022-07-18T10:51:21Z</time>
      </trkpt>
      <trkpt lat="44.5599" lon="7.16086">
        <ele>1571.8</ele>
        <time>2022-07-18T10:51:22Z</time>
      </trkpt>
      <trkpt lat="44.55989" lon="7.16086">
        <ele>1572</ele>
        <time>2022-07-18T10:51:23Z</time>
      </trkpt>
      <trkpt lat="44.55987" lon="7.16085">
        <ele>1572</ele>
        <time>2022-07-18T10:51:24Z</time>
      </trkpt>
      <trkpt lat="44.55986" lon="7.16084">
        <ele>1572.4</ele>
        <time>2022-07-18T10:51:25Z</time>
      </trkpt>
      <trkpt lat="44.55984" lon="7.16084">
        <ele>1572.4</ele>
        <time>2022-07-18T10:51:26Z</time>
      </trkpt>
      <trkpt lat="44.55982" lon="7.16084">
        <ele>1572.6</ele>
        <time>2022-07-18T10:51:27Z</time>
      </trkpt>
      <trkpt lat="44.55981" lon="7.16084">
        <ele>1572.6</ele>
        <time>2022-07-18T10:51:28Z</time>
      </trkpt>
      <trkpt lat="44.55979" lon="7.16085">
        <ele>1572.6</ele>
        <time>2022-07-18T10:51:29Z</time>
      </trkpt>
      <trkpt lat="44.55977" lon="7.16085">
        <ele>1573</ele>
        <time>2022-07-18T10:51:30Z</time>
      </trkpt>
      <trkpt lat="44.55976" lon="7.16084">
        <ele>1573</ele>
        <time>2022-07-18T10:51:31Z</time>
      </trkpt>
      <trkpt lat="44.55974" lon="7.16084">
        <ele>1573.4</ele>
        <time>2022-07-18T10:51:32Z</time>
      </trkpt>
      <trkpt lat="44.55972" lon="7.16084">
        <ele>1573.4</ele>
        <time>2022-07-18T10:51:33Z</time>
      </trkpt>
      <trkpt lat="44.55971" lon="7.16084">
        <ele>1573.6</ele>
        <time>2022-07-18T10:51:34Z</time>
      </trkpt>
      <trkpt lat="44.55969" lon="7.16084">
        <ele>1573.6</ele>
        <time>2022-07-18T10:51:35Z</time>
      </trkpt>
      <trkpt lat="44.55968" lon="7.16084">
        <ele>1574</ele>
        <time>2022-07-18T10:51:36Z</time>
      </trkpt>
      <trkpt lat="44.55966" lon="7.16084">
        <ele>1574</ele>
        <time>2022-07-18T10:51:37Z</time>
      </trkpt>
      <trkpt lat="44.55964" lon="7.16084">
        <ele>1574.2</ele>
        <time>2022-07-18T10:51:38Z</time>
      </trkpt>
      <trkpt lat="44.55962" lon="7.16085">
        <ele>1574.2</ele>
        <time>2022-07-18T10:51:39Z</time>
      </trkpt>
      <trkpt lat="44.5596" lon="7.16085">
        <ele>1574.6</ele>
        <time>2022-07-18T10:51:40Z</time>
      </trkpt>
      <trkpt lat="44.55959" lon="7.16084">
        <ele>1574.6</ele>
        <time>2022-07-18T10:51:41Z</time>
      </trkpt>
      <trkpt lat="44.55957" lon="7.16084">
        <ele>1575</ele>
        <time>2022-07-18T10:51:42Z</time>
      </trkpt>
      <trkpt lat="44.55955" lon="7.16084">
        <ele>1575</ele>
        <time>2022-07-18T10:51:43Z</time>
      </trkpt>
      <trkpt lat="44.55953" lon="7.16083">
        <ele>1575.2</ele>
        <time>2022-07-18T10:51:44Z</time>
      </trkpt>
      <trkpt lat="44.55951" lon="7.16083">
        <ele>1575.2</ele>
        <time>2022-07-18T10:51:45Z</time>
      </trkpt>
      <trkpt lat="44.5595" lon="7.16083">
        <ele>1575.6</ele>
        <time>2022-07-18T10:51:46Z</time>
      </trkpt>
      <trkpt lat="44.55948" lon="7.16082">
        <ele>1575.6</ele>
        <time>2022-07-18T10:51:47Z</time>
      </trkpt>
      <trkpt lat="44.55946" lon="7.16082">
        <ele>1575.8</ele>
        <time>2022-07-18T10:51:48Z</time>
      </trkpt>
      <trkpt lat="44.55944" lon="7.16082">
        <ele>1575.8</ele>
        <time>2022-07-18T10:51:49Z</time>
      </trkpt>
      <trkpt lat="44.55943" lon="7.16082">
        <ele>1576.2</ele>
        <time>2022-07-18T10:51:50Z</time>
      </trkpt>
      <trkpt lat="44.55941" lon="7.16082">
        <ele>1576.2</ele>
        <time>2022-07-18T10:51:51Z</time>
      </trkpt>
      <trkpt lat="44.55939" lon="7.16082">
        <ele>1576.6</ele>
        <time>2022-07-18T10:51:52Z</time>
      </trkpt>
      <trkpt lat="44.55938" lon="7.16082">
        <ele>1576.6</ele>
        <time>2022-07-18T10:51:53Z</time>
      </trkpt>
      <trkpt lat="44.55936" lon="7.16081">
        <ele>1576.8</ele>
        <time>2022-07-18T10:51:54Z</time>
      </trkpt>
      <trkpt lat="44.55935" lon="7.16081">
        <ele>1576.8</ele>
        <time>2022-07-18T10:51:55Z</time>
      </trkpt>
      <trkpt lat="44.55933" lon="7.16082">
        <ele>1577</ele>
        <time>2022-07-18T10:51:56Z</time>
      </trkpt>
      <trkpt lat="44.55932" lon="7.16082">
        <ele>1577</ele>
        <time>2022-07-18T10:51:57Z</time>
      </trkpt>
      <trkpt lat="44.5593" lon="7.16083">
        <ele>1577.4</ele>
        <time>2022-07-18T10:51:58Z</time>
      </trkpt>
      <trkpt lat="44.55928" lon="7.16084">
        <ele>1577.4</ele>
        <time>2022-07-18T10:51:59Z</time>
      </trkpt>
      <trkpt lat="44.55927" lon="7.16084">
        <ele>1577.8</ele>
        <time>2022-07-18T10:52:00Z</time>
      </trkpt>
      <trkpt lat="44.55925" lon="7.16084">
        <ele>1577.8</ele>
        <time>2022-07-18T10:52:01Z</time>
      </trkpt>
      <trkpt lat="44.55923" lon="7.16084">
        <ele>1578</ele>
        <time>2022-07-18T10:52:02Z</time>
      </trkpt>
      <trkpt lat="44.55922" lon="7.16084">
        <ele>1578</ele>
        <time>2022-07-18T10:52:03Z</time>
      </trkpt>
      <trkpt lat="44.5592" lon="7.16085">
        <ele>1578.4</ele>
        <time>2022-07-18T10:52:04Z</time>
      </trkpt>
      <trkpt lat="44.55919" lon="7.16085">
        <ele>1578.4</ele>
        <time>2022-07-18T10:52:05Z</time>
      </trkpt>
      <trkpt lat="44.55917" lon="7.16086">
        <ele>1578.8</ele>
        <time>2022-07-18T10:52:06Z</time>
      </trkpt>
      <trkpt lat="44.55915" lon="7.16086">
        <ele>1579</ele>
        <time>2022-07-18T10:52:07Z</time>
      </trkpt>
      <trkpt lat="44.55914" lon="7.16086">
        <ele>1579</ele>
        <time>2022-07-18T10:52:08Z</time>
      </trkpt>
      <trkpt lat="44.55912" lon="7.16087">
        <ele>1579.4</ele>
        <time>2022-07-18T10:52:09Z</time>
      </trkpt>
      <trkpt lat="44.55911" lon="7.16087">
        <ele>1579.4</ele>
        <time>2022-07-18T10:52:10Z</time>
      </trkpt>
      <trkpt lat="44.55909" lon="7.16088">
        <ele>1579.6</ele>
        <time>2022-07-18T10:52:11Z</time>
      </trkpt>
      <trkpt lat="44.55907" lon="7.16089">
        <ele>1579.6</ele>
        <time>2022-07-18T10:52:12Z</time>
      </trkpt>
      <trkpt lat="44.55906" lon="7.1609">
        <ele>1580</ele>
        <time>2022-07-18T10:52:13Z</time>
      </trkpt>
      <trkpt lat="44.55904" lon="7.16091">
        <ele>1580.2</ele>
        <time>2022-07-18T10:52:14Z</time>
      </trkpt>
      <trkpt lat="44.55903" lon="7.16092">
        <ele>1580.2</ele>
        <time>2022-07-18T10:52:15Z</time>
      </trkpt>
      <trkpt lat="44.55901" lon="7.16092">
        <ele>1580.4</ele>
        <time>2022-07-18T10:52:16Z</time>
      </trkpt>
      <trkpt lat="44.559" lon="7.16093">
        <ele>1580.4</ele>
        <time>2022-07-18T10:52:17Z</time>
      </trkpt>
      <trkpt lat="44.55898" lon="7.16093">
        <ele>1580.8</ele>
        <time>2022-07-18T10:52:18Z</time>
      </trkpt>
      <trkpt lat="44.55896" lon="7.16093">
        <ele>1580.8</ele>
        <time>2022-07-18T10:52:19Z</time>
      </trkpt>
      <trkpt lat="44.55895" lon="7.16094">
        <ele>1581.2</ele>
        <time>2022-07-18T10:52:20Z</time>
      </trkpt>
      <trkpt lat="44.55893" lon="7.16095">
        <ele>1581.2</ele>
        <time>2022-07-18T10:52:21Z</time>
      </trkpt>
      <trkpt lat="44.55891" lon="7.16096">
        <ele>1581.4</ele>
        <time>2022-07-18T10:52:22Z</time>
      </trkpt>
      <trkpt lat="44.5589" lon="7.16097">
        <ele>1581.4</ele>
        <time>2022-07-18T10:52:23Z</time>
      </trkpt>
      <trkpt lat="44.55888" lon="7.16098">
        <ele>1581.8</ele>
        <time>2022-07-18T10:52:24Z</time>
      </trkpt>
      <trkpt lat="44.55887" lon="7.16098">
        <ele>1581.8</ele>
        <time>2022-07-18T10:52:25Z</time>
      </trkpt>
      <trkpt lat="44.55885" lon="7.16098">
        <ele>1582</ele>
        <time>2022-07-18T10:52:26Z</time>
      </trkpt>
      <trkpt lat="44.55883" lon="7.16099">
        <ele>1582</ele>
        <time>2022-07-18T10:52:27Z</time>
      </trkpt>
      <trkpt lat="44.55881" lon="7.16099">
        <ele>1582.2</ele>
        <time>2022-07-18T10:52:28Z</time>
      </trkpt>
      <trkpt lat="44.5588" lon="7.16099">
        <ele>1582.2</ele>
        <time>2022-07-18T10:52:29Z</time>
      </trkpt>
      <trkpt lat="44.55878" lon="7.161">
        <ele>1582.4</ele>
        <time>2022-07-18T10:52:30Z</time>
      </trkpt>
      <trkpt lat="44.55876" lon="7.161">
        <ele>1582.4</ele>
        <time>2022-07-18T10:52:31Z</time>
      </trkpt>
      <trkpt lat="44.55875" lon="7.16101">
        <ele>1582.4</ele>
        <time>2022-07-18T10:52:32Z</time>
      </trkpt>
      <trkpt lat="44.55873" lon="7.16101">
        <ele>1582.8</ele>
        <time>2022-07-18T10:52:33Z</time>
      </trkpt>
      <trkpt lat="44.55871" lon="7.16102">
        <ele>1582.8</ele>
        <time>2022-07-18T10:52:34Z</time>
      </trkpt>
      <trkpt lat="44.55869" lon="7.16103">
        <ele>1583.2</ele>
        <time>2022-07-18T10:52:35Z</time>
      </trkpt>
      <trkpt lat="44.55868" lon="7.16103">
        <ele>1583.2</ele>
        <time>2022-07-18T10:52:36Z</time>
      </trkpt>
      <trkpt lat="44.55866" lon="7.16104">
        <ele>1583.4</ele>
        <time>2022-07-18T10:52:37Z</time>
      </trkpt>
      <trkpt lat="44.55865" lon="7.16105">
        <ele>1583.4</ele>
        <time>2022-07-18T10:52:38Z</time>
      </trkpt>
      <trkpt lat="44.55863" lon="7.16106">
        <ele>1583.6</ele>
        <time>2022-07-18T10:52:39Z</time>
      </trkpt>
      <trkpt lat="44.55862" lon="7.16107">
        <ele>1583.6</ele>
        <time>2022-07-18T10:52:40Z</time>
      </trkpt>
      <trkpt lat="44.55861" lon="7.16108">
        <ele>1584</ele>
        <time>2022-07-18T10:52:41Z</time>
      </trkpt>
      <trkpt lat="44.55859" lon="7.1611">
        <ele>1584.2</ele>
        <time>2022-07-18T10:52:42Z</time>
      </trkpt>
      <trkpt lat="44.55857" lon="7.16111">
        <ele>1584.2</ele>
        <time>2022-07-18T10:52:43Z</time>
      </trkpt>
      <trkpt lat="44.55856" lon="7.16111">
        <ele>1584.8</ele>
        <time>2022-07-18T10:52:44Z</time>
      </trkpt>
      <trkpt lat="44.55855" lon="7.16112">
        <ele>1584.8</ele>
        <time>2022-07-18T10:52:45Z</time>
      </trkpt>
      <trkpt lat="44.55854" lon="7.16114">
        <ele>1585</ele>
        <time>2022-07-18T10:52:46Z</time>
      </trkpt>
      <trkpt lat="44.55853" lon="7.16115">
        <ele>1585</ele>
        <time>2022-07-18T10:52:47Z</time>
      </trkpt>
      <trkpt lat="44.55852" lon="7.16116">
        <ele>1585.6</ele>
        <time>2022-07-18T10:52:48Z</time>
      </trkpt>
      <trkpt lat="44.55851" lon="7.16117">
        <ele>1585.6</ele>
        <time>2022-07-18T10:52:49Z</time>
      </trkpt>
      <trkpt lat="44.55849" lon="7.16119">
        <ele>1585.8</ele>
        <time>2022-07-18T10:52:50Z</time>
      </trkpt>
      <trkpt lat="44.55848" lon="7.1612">
        <ele>1586</ele>
        <time>2022-07-18T10:52:51Z</time>
      </trkpt>
      <trkpt lat="44.55847" lon="7.16121">
        <ele>1586.4</ele>
        <time>2022-07-18T10:52:52Z</time>
      </trkpt>
      <trkpt lat="44.55846" lon="7.16122">
        <ele>1586.4</ele>
        <time>2022-07-18T10:52:53Z</time>
      </trkpt>
      <trkpt lat="44.55844" lon="7.16123">
        <ele>1586.6</ele>
        <time>2022-07-18T10:52:54Z</time>
      </trkpt>
      <trkpt lat="44.55842" lon="7.16124">
        <ele>1586.6</ele>
        <time>2022-07-18T10:52:55Z</time>
      </trkpt>
      <trkpt lat="44.55841" lon="7.16125">
        <ele>1587</ele>
        <time>2022-07-18T10:52:56Z</time>
      </trkpt>
      <trkpt lat="44.5584" lon="7.16126">
        <ele>1587</ele>
        <time>2022-07-18T10:52:57Z</time>
      </trkpt>
      <trkpt lat="44.55839" lon="7.16127">
        <ele>1587.4</ele>
        <time>2022-07-18T10:52:58Z</time>
      </trkpt>
      <trkpt lat="44.55838" lon="7.16128">
        <ele>1587.4</ele>
        <time>2022-07-18T10:52:59Z</time>
      </trkpt>
      <trkpt lat="44.55837" lon="7.16129">
        <ele>1587.6</ele>
        <time>2022-07-18T10:53:00Z</time>
      </trkpt>
      <trkpt lat="44.55836" lon="7.1613">
        <ele>1587.6</ele>
        <time>2022-07-18T10:53:01Z</time>
      </trkpt>
      <trkpt lat="44.55835" lon="7.16131">
        <ele>1588</ele>
        <time>2022-07-18T10:53:02Z</time>
      </trkpt>
      <trkpt lat="44.55833" lon="7.16132">
        <ele>1588</ele>
        <time>2022-07-18T10:53:03Z</time>
      </trkpt>
      <trkpt lat="44.55832" lon="7.16133">
        <ele>1588.2</ele>
        <time>2022-07-18T10:53:04Z</time>
      </trkpt>
      <trkpt lat="44.55831" lon="7.16133">
        <ele>1588.2</ele>
        <time>2022-07-18T10:53:05Z</time>
      </trkpt>
      <trkpt lat="44.5583" lon="7.16133">
        <ele>1588.4</ele>
        <time>2022-07-18T10:53:06Z</time>
      </trkpt>
      <trkpt lat="44.55828" lon="7.16133">
        <ele>1588.4</ele>
        <time>2022-07-18T10:53:07Z</time>
      </trkpt>
      <trkpt lat="44.55826" lon="7.16134">
        <ele>1588.8</ele>
        <time>2022-07-18T10:53:08Z</time>
      </trkpt>
      <trkpt lat="44.55824" lon="7.16133">
        <ele>1588.8</ele>
        <time>2022-07-18T10:53:09Z</time>
      </trkpt>
      <trkpt lat="44.55822" lon="7.16133">
        <ele>1589.2</ele>
        <time>2022-07-18T10:53:10Z</time>
      </trkpt>
      <trkpt lat="44.5582" lon="7.16132">
        <ele>1589.4</ele>
        <time>2022-07-18T10:53:11Z</time>
      </trkpt>
      <trkpt lat="44.55818" lon="7.16131">
        <ele>1589.6</ele>
        <time>2022-07-18T10:53:12Z</time>
      </trkpt>
      <trkpt lat="44.55816" lon="7.16131">
        <ele>1589.6</ele>
        <time>2022-07-18T10:53:13Z</time>
      </trkpt>
      <trkpt lat="44.55814" lon="7.1613">
        <ele>1590</ele>
        <time>2022-07-18T10:53:14Z</time>
      </trkpt>
      <trkpt lat="44.55813" lon="7.16131">
        <ele>1590.2</ele>
        <time>2022-07-18T10:53:15Z</time>
      </trkpt>
      <trkpt lat="44.55811" lon="7.1613">
        <ele>1590.2</ele>
        <time>2022-07-18T10:53:16Z</time>
      </trkpt>
      <trkpt lat="44.55809" lon="7.1613">
        <ele>1590.6</ele>
        <time>2022-07-18T10:53:17Z</time>
      </trkpt>
      <trkpt lat="44.55807" lon="7.1613">
        <ele>1590.6</ele>
        <time>2022-07-18T10:53:18Z</time>
      </trkpt>
      <trkpt lat="44.55806" lon="7.16129">
        <ele>1591</ele>
        <time>2022-07-18T10:53:19Z</time>
      </trkpt>
      <trkpt lat="44.55804" lon="7.16129">
        <ele>1591</ele>
        <time>2022-07-18T10:53:20Z</time>
      </trkpt>
      <trkpt lat="44.55802" lon="7.16128">
        <ele>1591.2</ele>
        <time>2022-07-18T10:53:21Z</time>
      </trkpt>
      <trkpt lat="44.558" lon="7.16127">
        <ele>1591.2</ele>
        <time>2022-07-18T10:53:22Z</time>
      </trkpt>
      <trkpt lat="44.55798" lon="7.16127">
        <ele>1591.6</ele>
        <time>2022-07-18T10:53:23Z</time>
      </trkpt>
      <trkpt lat="44.55797" lon="7.16127">
        <ele>1591.8</ele>
        <time>2022-07-18T10:53:24Z</time>
      </trkpt>
      <trkpt lat="44.55795" lon="7.16125">
        <ele>1591.8</ele>
        <time>2022-07-18T10:53:25Z</time>
      </trkpt>
      <trkpt lat="44.55793" lon="7.16125">
        <ele>1592</ele>
        <time>2022-07-18T10:53:26Z</time>
      </trkpt>
      <trkpt lat="44.55792" lon="7.16124">
        <ele>1592</ele>
        <time>2022-07-18T10:53:27Z</time>
      </trkpt>
      <trkpt lat="44.5579" lon="7.16123">
        <ele>1592.4</ele>
        <time>2022-07-18T10:53:28Z</time>
      </trkpt>
      <trkpt lat="44.55789" lon="7.16122">
        <ele>1592.4</ele>
        <time>2022-07-18T10:53:29Z</time>
      </trkpt>
      <trkpt lat="44.55787" lon="7.16121">
        <ele>1592.8</ele>
        <time>2022-07-18T10:53:30Z</time>
      </trkpt>
      <trkpt lat="44.55785" lon="7.16121">
        <ele>1592.8</ele>
        <time>2022-07-18T10:53:31Z</time>
      </trkpt>
      <trkpt lat="44.55784" lon="7.1612">
        <ele>1593</ele>
        <time>2022-07-18T10:53:32Z</time>
      </trkpt>
      <trkpt lat="44.55782" lon="7.1612">
        <ele>1593</ele>
        <time>2022-07-18T10:53:33Z</time>
      </trkpt>
      <trkpt lat="44.5578" lon="7.16119">
        <ele>1593.2</ele>
        <time>2022-07-18T10:53:34Z</time>
      </trkpt>
      <trkpt lat="44.55778" lon="7.16119">
        <ele>1593.2</ele>
        <time>2022-07-18T10:53:35Z</time>
      </trkpt>
      <trkpt lat="44.55777" lon="7.16119">
        <ele>1593.6</ele>
        <time>2022-07-18T10:53:36Z</time>
      </trkpt>
      <trkpt lat="44.55775" lon="7.16119">
        <ele>1593.6</ele>
        <time>2022-07-18T10:53:37Z</time>
      </trkpt>
      <trkpt lat="44.55773" lon="7.1612">
        <ele>1593.8</ele>
        <time>2022-07-18T10:53:38Z</time>
      </trkpt>
      <trkpt lat="44.55772" lon="7.1612">
        <ele>1593.8</ele>
        <time>2022-07-18T10:53:39Z</time>
      </trkpt>
      <trkpt lat="44.5577" lon="7.1612">
        <ele>1594.2</ele>
        <time>2022-07-18T10:53:40Z</time>
      </trkpt>
      <trkpt lat="44.55768" lon="7.1612">
        <ele>1594.4</ele>
        <time>2022-07-18T10:53:41Z</time>
      </trkpt>
      <trkpt lat="44.55767" lon="7.16121">
        <ele>1594.4</ele>
        <time>2022-07-18T10:53:42Z</time>
      </trkpt>
      <trkpt lat="44.55765" lon="7.16121">
        <ele>1594.8</ele>
        <time>2022-07-18T10:53:43Z</time>
      </trkpt>
      <trkpt lat="44.55764" lon="7.16122">
        <ele>1594.8</ele>
        <time>2022-07-18T10:53:44Z</time>
      </trkpt>
      <trkpt lat="44.55763" lon="7.16122">
        <ele>1595</ele>
        <time>2022-07-18T10:53:45Z</time>
      </trkpt>
      <trkpt lat="44.55761" lon="7.16123">
        <ele>1595</ele>
        <time>2022-07-18T10:53:46Z</time>
      </trkpt>
      <trkpt lat="44.5576" lon="7.16124">
        <ele>1595.4</ele>
        <time>2022-07-18T10:53:47Z</time>
      </trkpt>
      <trkpt lat="44.55759" lon="7.16126">
        <ele>1595.4</ele>
        <time>2022-07-18T10:53:48Z</time>
      </trkpt>
      <trkpt lat="44.55757" lon="7.16127">
        <ele>1595.8</ele>
        <time>2022-07-18T10:53:49Z</time>
      </trkpt>
      <trkpt lat="44.55756" lon="7.16128">
        <ele>1595.8</ele>
        <time>2022-07-18T10:53:50Z</time>
      </trkpt>
      <trkpt lat="44.55754" lon="7.16129">
        <ele>1596.2</ele>
        <time>2022-07-18T10:53:51Z</time>
      </trkpt>
      <trkpt lat="44.55753" lon="7.16131">
        <ele>1596.2</ele>
        <time>2022-07-18T10:53:52Z</time>
      </trkpt>
      <trkpt lat="44.55752" lon="7.16132">
        <ele>1596.4</ele>
        <time>2022-07-18T10:53:53Z</time>
      </trkpt>
      <trkpt lat="44.5575" lon="7.16133">
        <ele>1596.6</ele>
        <time>2022-07-18T10:53:54Z</time>
      </trkpt>
      <trkpt lat="44.55748" lon="7.16134">
        <ele>1596.8</ele>
        <time>2022-07-18T10:53:55Z</time>
      </trkpt>
      <trkpt lat="44.55747" lon="7.16136">
        <ele>1596.8</ele>
        <time>2022-07-18T10:53:56Z</time>
      </trkpt>
      <trkpt lat="44.55746" lon="7.16137">
        <ele>1597.2</ele>
        <time>2022-07-18T10:53:57Z</time>
      </trkpt>
      <trkpt lat="44.55745" lon="7.16138">
        <ele>1597.2</ele>
        <time>2022-07-18T10:53:58Z</time>
      </trkpt>
      <trkpt lat="44.55744" lon="7.16139">
        <ele>1597.4</ele>
        <time>2022-07-18T10:53:59Z</time>
      </trkpt>
      <trkpt lat="44.55742" lon="7.16139">
        <ele>1597.6</ele>
        <time>2022-07-18T10:54:00Z</time>
      </trkpt>
      <trkpt lat="44.55741" lon="7.1614">
        <ele>1597.6</ele>
        <time>2022-07-18T10:54:01Z</time>
      </trkpt>
      <trkpt lat="44.5574" lon="7.16141">
        <ele>1598</ele>
        <time>2022-07-18T10:54:02Z</time>
      </trkpt>
      <trkpt lat="44.55739" lon="7.16141">
        <ele>1598</ele>
        <time>2022-07-18T10:54:03Z</time>
      </trkpt>
      <trkpt lat="44.55738" lon="7.16142">
        <ele>1598.2</ele>
        <time>2022-07-18T10:54:04Z</time>
      </trkpt>
      <trkpt lat="44.55737" lon="7.16143">
        <ele>1598.2</ele>
        <time>2022-07-18T10:54:05Z</time>
      </trkpt>
      <trkpt lat="44.55736" lon="7.16144">
        <ele>1598.6</ele>
        <time>2022-07-18T10:54:06Z</time>
      </trkpt>
      <trkpt lat="44.55734" lon="7.16147">
        <ele>1598.6</ele>
        <time>2022-07-18T10:54:07Z</time>
      </trkpt>
      <trkpt lat="44.55733" lon="7.16148">
        <ele>1598.6</ele>
        <time>2022-07-18T10:54:08Z</time>
      </trkpt>
      <trkpt lat="44.55732" lon="7.1615">
        <ele>1598.8</ele>
        <time>2022-07-18T10:54:09Z</time>
      </trkpt>
      <trkpt lat="44.5573" lon="7.16152">
        <ele>1598.8</ele>
        <time>2022-07-18T10:54:10Z</time>
      </trkpt>
      <trkpt lat="44.55729" lon="7.16154">
        <ele>1599</ele>
        <time>2022-07-18T10:54:11Z</time>
      </trkpt>
      <trkpt lat="44.55729" lon="7.16156">
        <ele>1599</ele>
        <time>2022-07-18T10:54:12Z</time>
      </trkpt>
      <trkpt lat="44.55728" lon="7.16157">
        <ele>1599.4</ele>
        <time>2022-07-18T10:54:13Z</time>
      </trkpt>
      <trkpt lat="44.55726" lon="7.16164">
        <ele>1599.8</ele>
        <time>2022-07-18T10:54:15Z</time>
      </trkpt>
      <trkpt lat="44.55726" lon="7.16167">
        <ele>1599.8</ele>
        <time>2022-07-18T10:54:16Z</time>
      </trkpt>
      <trkpt lat="44.55725" lon="7.16171">
        <ele>1600</ele>
        <time>2022-07-18T10:54:17Z</time>
      </trkpt>
      <trkpt lat="44.55724" lon="7.16174">
        <ele>1600</ele>
        <time>2022-07-18T10:54:18Z</time>
      </trkpt>
      <trkpt lat="44.55724" lon="7.16178">
        <ele>1600.4</ele>
        <time>2022-07-18T10:54:19Z</time>
      </trkpt>
      <trkpt lat="44.55724" lon="7.16181">
        <ele>1600.4</ele>
        <time>2022-07-18T10:54:20Z</time>
      </trkpt>
      <trkpt lat="44.55724" lon="7.16183">
        <ele>1600.6</ele>
        <time>2022-07-18T10:54:21Z</time>
      </trkpt>
      <trkpt lat="44.55725" lon="7.16186">
        <ele>1600.6</ele>
        <time>2022-07-18T10:54:22Z</time>
      </trkpt>
      <trkpt lat="44.55724" lon="7.16188">
        <ele>1601</ele>
        <time>2022-07-18T10:54:23Z</time>
      </trkpt>
      <trkpt lat="44.55725" lon="7.16191">
        <ele>1601</ele>
        <time>2022-07-18T10:54:24Z</time>
      </trkpt>
      <trkpt lat="44.55725" lon="7.16193">
        <ele>1601.2</ele>
        <time>2022-07-18T10:54:25Z</time>
      </trkpt>
      <trkpt lat="44.55725" lon="7.16195">
        <ele>1601.2</ele>
        <time>2022-07-18T10:54:26Z</time>
      </trkpt>
      <trkpt lat="44.55725" lon="7.16198">
        <ele>1601.6</ele>
        <time>2022-07-18T10:54:27Z</time>
      </trkpt>
      <trkpt lat="44.55725" lon="7.162">
        <ele>1601.6</ele>
        <time>2022-07-18T10:54:28Z</time>
      </trkpt>
      <trkpt lat="44.55725" lon="7.16203">
        <ele>1601.6</ele>
        <time>2022-07-18T10:54:29Z</time>
      </trkpt>
      <trkpt lat="44.55725" lon="7.16205">
        <ele>1601.8</ele>
        <time>2022-07-18T10:54:30Z</time>
      </trkpt>
      <trkpt lat="44.55726" lon="7.16208">
        <ele>1601.8</ele>
        <time>2022-07-18T10:54:31Z</time>
      </trkpt>
      <trkpt lat="44.55726" lon="7.1621">
        <ele>1602</ele>
        <time>2022-07-18T10:54:32Z</time>
      </trkpt>
      <trkpt lat="44.55727" lon="7.16212">
        <ele>1602</ele>
        <time>2022-07-18T10:54:33Z</time>
      </trkpt>
      <trkpt lat="44.55728" lon="7.16215">
        <ele>1602.4</ele>
        <time>2022-07-18T10:54:34Z</time>
      </trkpt>
      <trkpt lat="44.55728" lon="7.16217">
        <ele>1602.4</ele>
        <time>2022-07-18T10:54:35Z</time>
      </trkpt>
      <trkpt lat="44.55729" lon="7.16219">
        <ele>1602.6</ele>
        <time>2022-07-18T10:54:36Z</time>
      </trkpt>
      <trkpt lat="44.55729" lon="7.16222">
        <ele>1602.6</ele>
        <time>2022-07-18T10:54:37Z</time>
      </trkpt>
      <trkpt lat="44.5573" lon="7.16224">
        <ele>1603</ele>
        <time>2022-07-18T10:54:38Z</time>
      </trkpt>
      <trkpt lat="44.5573" lon="7.16226">
        <ele>1603</ele>
        <time>2022-07-18T10:54:39Z</time>
      </trkpt>
      <trkpt lat="44.55731" lon="7.16228">
        <ele>1603.2</ele>
        <time>2022-07-18T10:54:40Z</time>
      </trkpt>
      <trkpt lat="44.55731" lon="7.1623">
        <ele>1603.2</ele>
        <time>2022-07-18T10:54:41Z</time>
      </trkpt>
      <trkpt lat="44.55731" lon="7.16232">
        <ele>1603.6</ele>
        <time>2022-07-18T10:54:42Z</time>
      </trkpt>
      <trkpt lat="44.55732" lon="7.16234">
        <ele>1603.6</ele>
        <time>2022-07-18T10:54:43Z</time>
      </trkpt>
      <trkpt lat="44.55733" lon="7.16236">
        <ele>1603.8</ele>
        <time>2022-07-18T10:54:44Z</time>
      </trkpt>
      <trkpt lat="44.55733" lon="7.16238">
        <ele>1603.8</ele>
        <time>2022-07-18T10:54:45Z</time>
      </trkpt>
      <trkpt lat="44.55733" lon="7.16239">
        <ele>1604.2</ele>
        <time>2022-07-18T10:54:46Z</time>
      </trkpt>
      <trkpt lat="44.55734" lon="7.16242">
        <ele>1604.4</ele>
        <time>2022-07-18T10:54:47Z</time>
      </trkpt>
      <trkpt lat="44.55734" lon="7.16244">
        <ele>1604.4</ele>
        <time>2022-07-18T10:54:48Z</time>
      </trkpt>
      <trkpt lat="44.55735" lon="7.16246">
        <ele>1604.4</ele>
        <time>2022-07-18T10:54:49Z</time>
      </trkpt>
      <trkpt lat="44.55736" lon="7.16248">
        <ele>1604.6</ele>
        <time>2022-07-18T10:54:50Z</time>
      </trkpt>
      <trkpt lat="44.55737" lon="7.1625">
        <ele>1604.6</ele>
        <time>2022-07-18T10:54:51Z</time>
      </trkpt>
      <trkpt lat="44.55737" lon="7.16253">
        <ele>1604.8</ele>
        <time>2022-07-18T10:54:52Z</time>
      </trkpt>
      <trkpt lat="44.55738" lon="7.16256">
        <ele>1604.8</ele>
        <time>2022-07-18T10:54:53Z</time>
      </trkpt>
      <trkpt lat="44.55738" lon="7.16258">
        <ele>1605.2</ele>
        <time>2022-07-18T10:54:54Z</time>
      </trkpt>
      <trkpt lat="44.55738" lon="7.1626">
        <ele>1605.2</ele>
        <time>2022-07-18T10:54:55Z</time>
      </trkpt>
      <trkpt lat="44.55739" lon="7.16263">
        <ele>1605.4</ele>
        <time>2022-07-18T10:54:56Z</time>
      </trkpt>
      <trkpt lat="44.55739" lon="7.16266">
        <ele>1605.4</ele>
        <time>2022-07-18T10:54:57Z</time>
      </trkpt>
      <trkpt lat="44.55739" lon="7.16268">
        <ele>1605.8</ele>
        <time>2022-07-18T10:54:58Z</time>
      </trkpt>
      <trkpt lat="44.5574" lon="7.16271">
        <ele>1605.8</ele>
        <time>2022-07-18T10:54:59Z</time>
      </trkpt>
      <trkpt lat="44.5574" lon="7.16274">
        <ele>1606</ele>
        <time>2022-07-18T10:55:00Z</time>
      </trkpt>
      <trkpt lat="44.55741" lon="7.16276">
        <ele>1606.2</ele>
        <time>2022-07-18T10:55:01Z</time>
      </trkpt>
      <trkpt lat="44.55741" lon="7.16278">
        <ele>1606.2</ele>
        <time>2022-07-18T10:55:02Z</time>
      </trkpt>
      <trkpt lat="44.55741" lon="7.16281">
        <ele>1606.4</ele>
        <time>2022-07-18T10:55:03Z</time>
      </trkpt>
      <trkpt lat="44.5574" lon="7.16283">
        <ele>1606.4</ele>
        <time>2022-07-18T10:55:04Z</time>
      </trkpt>
      <trkpt lat="44.5574" lon="7.16285">
        <ele>1606.8</ele>
        <time>2022-07-18T10:55:05Z</time>
      </trkpt>
      <trkpt lat="44.5574" lon="7.16288">
        <ele>1606.8</ele>
        <time>2022-07-18T10:55:06Z</time>
      </trkpt>
      <trkpt lat="44.55739" lon="7.16291">
        <ele>1607.2</ele>
        <time>2022-07-18T10:55:07Z</time>
      </trkpt>
      <trkpt lat="44.55739" lon="7.16293">
        <ele>1607.2</ele>
        <time>2022-07-18T10:55:08Z</time>
      </trkpt>
      <trkpt lat="44.55738" lon="7.16295">
        <ele>1607.4</ele>
        <time>2022-07-18T10:55:09Z</time>
      </trkpt>
      <trkpt lat="44.55738" lon="7.16296">
        <ele>1607.4</ele>
        <time>2022-07-18T10:55:10Z</time>
      </trkpt>
      <trkpt lat="44.55738" lon="7.16298">
        <ele>1607.6</ele>
        <time>2022-07-18T10:55:11Z</time>
      </trkpt>
      <trkpt lat="44.55737" lon="7.163">
        <ele>1607.6</ele>
        <time>2022-07-18T10:55:12Z</time>
      </trkpt>
      <trkpt lat="44.55736" lon="7.16302">
        <ele>1608</ele>
        <time>2022-07-18T10:55:13Z</time>
      </trkpt>
      <trkpt lat="44.55735" lon="7.16304">
        <ele>1608</ele>
        <time>2022-07-18T10:55:14Z</time>
      </trkpt>
      <trkpt lat="44.55734" lon="7.16306">
        <ele>1608.4</ele>
        <time>2022-07-18T10:55:15Z</time>
      </trkpt>
      <trkpt lat="44.55733" lon="7.16308">
        <ele>1608.4</ele>
        <time>2022-07-18T10:55:16Z</time>
      </trkpt>
      <trkpt lat="44.55732" lon="7.1631">
        <ele>1608.8</ele>
        <time>2022-07-18T10:55:17Z</time>
      </trkpt>
      <trkpt lat="44.55731" lon="7.16311">
        <ele>1608.8</ele>
        <time>2022-07-18T10:55:18Z</time>
      </trkpt>
      <trkpt lat="44.5573" lon="7.16312">
        <ele>1609</ele>
        <time>2022-07-18T10:55:19Z</time>
      </trkpt>
      <trkpt lat="44.55729" lon="7.16314">
        <ele>1609</ele>
        <time>2022-07-18T10:55:20Z</time>
      </trkpt>
      <trkpt lat="44.55727" lon="7.16315">
        <ele>1609.4</ele>
        <time>2022-07-18T10:55:21Z</time>
      </trkpt>
      <trkpt lat="44.55726" lon="7.16315">
        <ele>1609.4</ele>
        <time>2022-07-18T10:55:22Z</time>
      </trkpt>
      <trkpt lat="44.55725" lon="7.16315">
        <ele>1609.6</ele>
        <time>2022-07-18T10:55:23Z</time>
      </trkpt>
      <trkpt lat="44.55723" lon="7.16315">
        <ele>1609.6</ele>
        <time>2022-07-18T10:55:24Z</time>
      </trkpt>
      <trkpt lat="44.55721" lon="7.16314">
        <ele>1610</ele>
        <time>2022-07-18T10:55:25Z</time>
      </trkpt>
      <trkpt lat="44.55719" lon="7.16314">
        <ele>1610</ele>
        <time>2022-07-18T10:55:26Z</time>
      </trkpt>
      <trkpt lat="44.55718" lon="7.16313">
        <ele>1610.2</ele>
        <time>2022-07-18T10:55:27Z</time>
      </trkpt>
      <trkpt lat="44.55716" lon="7.16313">
        <ele>1610.2</ele>
        <time>2022-07-18T10:55:28Z</time>
      </trkpt>
      <trkpt lat="44.55715" lon="7.16313">
        <ele>1610.6</ele>
        <time>2022-07-18T10:55:29Z</time>
      </trkpt>
      <trkpt lat="44.55713" lon="7.16312">
        <ele>1610.6</ele>
        <time>2022-07-18T10:55:30Z</time>
      </trkpt>
      <trkpt lat="44.55711" lon="7.16312">
        <ele>1610.8</ele>
        <time>2022-07-18T10:55:31Z</time>
      </trkpt>
      <trkpt lat="44.5571" lon="7.16312">
        <ele>1610.8</ele>
        <time>2022-07-18T10:55:32Z</time>
      </trkpt>
      <trkpt lat="44.55708" lon="7.16311">
        <ele>1611.2</ele>
        <time>2022-07-18T10:55:33Z</time>
      </trkpt>
      <trkpt lat="44.55707" lon="7.16311">
        <ele>1611.2</ele>
        <time>2022-07-18T10:55:34Z</time>
      </trkpt>
      <trkpt lat="44.55706" lon="7.1631">
        <ele>1611.4</ele>
        <time>2022-07-18T10:55:35Z</time>
      </trkpt>
      <trkpt lat="44.55704" lon="7.16309">
        <ele>1611.4</ele>
        <time>2022-07-18T10:55:36Z</time>
      </trkpt>
      <trkpt lat="44.55703" lon="7.16309">
        <ele>1611.6</ele>
        <time>2022-07-18T10:55:37Z</time>
      </trkpt>
      <trkpt lat="44.55701" lon="7.16309">
        <ele>1611.6</ele>
        <time>2022-07-18T10:55:38Z</time>
      </trkpt>
      <trkpt lat="44.557" lon="7.16308">
        <ele>1612</ele>
        <time>2022-07-18T10:55:39Z</time>
      </trkpt>
      <trkpt lat="44.55698" lon="7.16307">
        <ele>1612</ele>
        <time>2022-07-18T10:55:40Z</time>
      </trkpt>
      <trkpt lat="44.55697" lon="7.16306">
        <ele>1612.2</ele>
        <time>2022-07-18T10:55:41Z</time>
      </trkpt>
      <trkpt lat="44.55696" lon="7.16305">
        <ele>1612.2</ele>
        <time>2022-07-18T10:55:42Z</time>
      </trkpt>
      <trkpt lat="44.55695" lon="7.16304">
        <ele>1612.6</ele>
        <time>2022-07-18T10:55:43Z</time>
      </trkpt>
      <trkpt lat="44.55693" lon="7.16303">
        <ele>1612.6</ele>
        <time>2022-07-18T10:55:44Z</time>
      </trkpt>
      <trkpt lat="44.55691" lon="7.16303">
        <ele>1612.8</ele>
        <time>2022-07-18T10:55:45Z</time>
      </trkpt>
      <trkpt lat="44.5569" lon="7.16302">
        <ele>1612.8</ele>
        <time>2022-07-18T10:55:46Z</time>
      </trkpt>
      <trkpt lat="44.55688" lon="7.16301">
        <ele>1613.2</ele>
        <time>2022-07-18T10:55:47Z</time>
      </trkpt>
      <trkpt lat="44.55686" lon="7.16301">
        <ele>1613.2</ele>
        <time>2022-07-18T10:55:48Z</time>
      </trkpt>
      <trkpt lat="44.55685" lon="7.163">
        <ele>1613.2</ele>
        <time>2022-07-18T10:55:49Z</time>
      </trkpt>
      <trkpt lat="44.55683" lon="7.163">
        <ele>1613.6</ele>
        <time>2022-07-18T10:55:50Z</time>
      </trkpt>
      <trkpt lat="44.55682" lon="7.16299">
        <ele>1613.6</ele>
        <time>2022-07-18T10:55:51Z</time>
      </trkpt>
      <trkpt lat="44.5568" lon="7.16298">
        <ele>1613.8</ele>
        <time>2022-07-18T10:55:52Z</time>
      </trkpt>
      <trkpt lat="44.55678" lon="7.16298">
        <ele>1613.8</ele>
        <time>2022-07-18T10:55:53Z</time>
      </trkpt>
      <trkpt lat="44.55677" lon="7.16297">
        <ele>1614</ele>
        <time>2022-07-18T10:55:54Z</time>
      </trkpt>
      <trkpt lat="44.55675" lon="7.16296">
        <ele>1614</ele>
        <time>2022-07-18T10:55:55Z</time>
      </trkpt>
      <trkpt lat="44.55673" lon="7.16296">
        <ele>1614.4</ele>
        <time>2022-07-18T10:55:56Z</time>
      </trkpt>
      <trkpt lat="44.55672" lon="7.16295">
        <ele>1614.6</ele>
        <time>2022-07-18T10:55:57Z</time>
      </trkpt>
      <trkpt lat="44.5567" lon="7.16295">
        <ele>1614.6</ele>
        <time>2022-07-18T10:55:58Z</time>
      </trkpt>
      <trkpt lat="44.55668" lon="7.16295">
        <ele>1614.8</ele>
        <time>2022-07-18T10:55:59Z</time>
      </trkpt>
      <trkpt lat="44.55667" lon="7.16295">
        <ele>1614.8</ele>
        <time>2022-07-18T10:56:00Z</time>
      </trkpt>
      <trkpt lat="44.55665" lon="7.16296">
        <ele>1615.2</ele>
        <time>2022-07-18T10:56:01Z</time>
      </trkpt>
      <trkpt lat="44.55664" lon="7.16296">
        <ele>1615.2</ele>
        <time>2022-07-18T10:56:02Z</time>
      </trkpt>
      <trkpt lat="44.55662" lon="7.16296">
        <ele>1615.4</ele>
        <time>2022-07-18T10:56:03Z</time>
      </trkpt>
      <trkpt lat="44.5566" lon="7.16297">
        <ele>1615.4</ele>
        <time>2022-07-18T10:56:04Z</time>
      </trkpt>
      <trkpt lat="44.55659" lon="7.16297">
        <ele>1615.6</ele>
        <time>2022-07-18T10:56:05Z</time>
      </trkpt>
      <trkpt lat="44.55657" lon="7.16297">
        <ele>1615.6</ele>
        <time>2022-07-18T10:56:06Z</time>
      </trkpt>
      <trkpt lat="44.55656" lon="7.16298">
        <ele>1616</ele>
        <time>2022-07-18T10:56:07Z</time>
      </trkpt>
      <trkpt lat="44.55655" lon="7.16298">
        <ele>1616</ele>
        <time>2022-07-18T10:56:08Z</time>
      </trkpt>
      <trkpt lat="44.55653" lon="7.16299">
        <ele>1616.2</ele>
        <time>2022-07-18T10:56:09Z</time>
      </trkpt>
      <trkpt lat="44.55652" lon="7.16299">
        <ele>1616.2</ele>
        <time>2022-07-18T10:56:10Z</time>
      </trkpt>
      <trkpt lat="44.5565" lon="7.163">
        <ele>1616.6</ele>
        <time>2022-07-18T10:56:11Z</time>
      </trkpt>
      <trkpt lat="44.55649" lon="7.163">
        <ele>1616.8</ele>
        <time>2022-07-18T10:56:12Z</time>
      </trkpt>
      <trkpt lat="44.55647" lon="7.16301">
        <ele>1617</ele>
        <time>2022-07-18T10:56:13Z</time>
      </trkpt>
      <trkpt lat="44.55646" lon="7.16301">
        <ele>1617</ele>
        <time>2022-07-18T10:56:14Z</time>
      </trkpt>
      <trkpt lat="44.55644" lon="7.16301">
        <ele>1617.2</ele>
        <time>2022-07-18T10:56:15Z</time>
      </trkpt>
      <trkpt lat="44.55643" lon="7.16301">
        <ele>1617.4</ele>
        <time>2022-07-18T10:56:16Z</time>
      </trkpt>
      <trkpt lat="44.55641" lon="7.16301">
        <ele>1617.8</ele>
        <time>2022-07-18T10:56:17Z</time>
      </trkpt>
      <trkpt lat="44.55639" lon="7.16302">
        <ele>1617.8</ele>
        <time>2022-07-18T10:56:18Z</time>
      </trkpt>
      <trkpt lat="44.55638" lon="7.16302">
        <ele>1618</ele>
        <time>2022-07-18T10:56:19Z</time>
      </trkpt>
      <trkpt lat="44.55636" lon="7.16302">
        <ele>1618</ele>
        <time>2022-07-18T10:56:20Z</time>
      </trkpt>
      <trkpt lat="44.55634" lon="7.16302">
        <ele>1618.4</ele>
        <time>2022-07-18T10:56:21Z</time>
      </trkpt>
      <trkpt lat="44.55633" lon="7.16302">
        <ele>1618.4</ele>
        <time>2022-07-18T10:56:22Z</time>
      </trkpt>
      <trkpt lat="44.55631" lon="7.16302">
        <ele>1618.6</ele>
        <time>2022-07-18T10:56:23Z</time>
      </trkpt>
      <trkpt lat="44.5563" lon="7.16303">
        <ele>1618.6</ele>
        <time>2022-07-18T10:56:24Z</time>
      </trkpt>
      <trkpt lat="44.55628" lon="7.16302">
        <ele>1618.8</ele>
        <time>2022-07-18T10:56:25Z</time>
      </trkpt>
      <trkpt lat="44.55626" lon="7.16302">
        <ele>1618.8</ele>
        <time>2022-07-18T10:56:26Z</time>
      </trkpt>
      <trkpt lat="44.55623" lon="7.16301">
        <ele>1619.2</ele>
        <time>2022-07-18T10:56:28Z</time>
      </trkpt>
      <trkpt lat="44.55622" lon="7.16301">
        <ele>1619.4</ele>
        <time>2022-07-18T10:56:29Z</time>
      </trkpt>
      <trkpt lat="44.5562" lon="7.16301">
        <ele>1619.4</ele>
        <time>2022-07-18T10:56:30Z</time>
      </trkpt>
      <trkpt lat="44.55619" lon="7.16301">
        <ele>1619.8</ele>
        <time>2022-07-18T10:56:31Z</time>
      </trkpt>
      <trkpt lat="44.55617" lon="7.16301">
        <ele>1619.8</ele>
        <time>2022-07-18T10:56:32Z</time>
      </trkpt>
      <trkpt lat="44.55615" lon="7.163">
        <ele>1620</ele>
        <time>2022-07-18T10:56:33Z</time>
      </trkpt>
      <trkpt lat="44.55614" lon="7.163">
        <ele>1620</ele>
        <time>2022-07-18T10:56:34Z</time>
      </trkpt>
      <trkpt lat="44.55612" lon="7.163">
        <ele>1620.2</ele>
        <time>2022-07-18T10:56:35Z</time>
      </trkpt>
      <trkpt lat="44.55611" lon="7.16299">
        <ele>1620.2</ele>
        <time>2022-07-18T10:56:36Z</time>
      </trkpt>
      <trkpt lat="44.55609" lon="7.16299">
        <ele>1620.6</ele>
        <time>2022-07-18T10:56:37Z</time>
      </trkpt>
      <trkpt lat="44.55608" lon="7.16299">
        <ele>1620.6</ele>
        <time>2022-07-18T10:56:38Z</time>
      </trkpt>
      <trkpt lat="44.55606" lon="7.16299">
        <ele>1620.8</ele>
        <time>2022-07-18T10:56:39Z</time>
      </trkpt>
      <trkpt lat="44.55605" lon="7.16298">
        <ele>1620.8</ele>
        <time>2022-07-18T10:56:40Z</time>
      </trkpt>
      <trkpt lat="44.55603" lon="7.16298">
        <ele>1621</ele>
        <time>2022-07-18T10:56:41Z</time>
      </trkpt>
      <trkpt lat="44.55602" lon="7.16298">
        <ele>1621</ele>
        <time>2022-07-18T10:56:42Z</time>
      </trkpt>
      <trkpt lat="44.556" lon="7.16297">
        <ele>1621.4</ele>
        <time>2022-07-18T10:56:43Z</time>
      </trkpt>
      <trkpt lat="44.55599" lon="7.16297">
        <ele>1621.4</ele>
        <time>2022-07-18T10:56:44Z</time>
      </trkpt>
      <trkpt lat="44.55597" lon="7.16297">
        <ele>1621.6</ele>
        <time>2022-07-18T10:56:45Z</time>
      </trkpt>
      <trkpt lat="44.55596" lon="7.16297">
        <ele>1621.6</ele>
        <time>2022-07-18T10:56:46Z</time>
      </trkpt>
      <trkpt lat="44.55594" lon="7.16296">
        <ele>1622</ele>
        <time>2022-07-18T10:56:47Z</time>
      </trkpt>
      <trkpt lat="44.55593" lon="7.16296">
        <ele>1622</ele>
        <time>2022-07-18T10:56:48Z</time>
      </trkpt>
      <trkpt lat="44.55591" lon="7.16296">
        <ele>1622.4</ele>
        <time>2022-07-18T10:56:49Z</time>
      </trkpt>
      <trkpt lat="44.55589" lon="7.16296">
        <ele>1622.4</ele>
        <time>2022-07-18T10:56:50Z</time>
      </trkpt>
      <trkpt lat="44.55588" lon="7.16297">
        <ele>1622.6</ele>
        <time>2022-07-18T10:56:51Z</time>
      </trkpt>
      <trkpt lat="44.55586" lon="7.16297">
        <ele>1622.6</ele>
        <time>2022-07-18T10:56:52Z</time>
      </trkpt>
      <trkpt lat="44.55585" lon="7.16298">
        <ele>1622.8</ele>
        <time>2022-07-18T10:56:53Z</time>
      </trkpt>
      <trkpt lat="44.55583" lon="7.16299">
        <ele>1622.8</ele>
        <time>2022-07-18T10:56:54Z</time>
      </trkpt>
      <trkpt lat="44.55582" lon="7.163">
        <ele>1623.2</ele>
        <time>2022-07-18T10:56:55Z</time>
      </trkpt>
      <trkpt lat="44.55581" lon="7.16301">
        <ele>1623.2</ele>
        <time>2022-07-18T10:56:56Z</time>
      </trkpt>
      <trkpt lat="44.55579" lon="7.16303">
        <ele>1623.4</ele>
        <time>2022-07-18T10:56:57Z</time>
      </trkpt>
      <trkpt lat="44.55578" lon="7.16305">
        <ele>1623.4</ele>
        <time>2022-07-18T10:56:58Z</time>
      </trkpt>
      <trkpt lat="44.55577" lon="7.16307">
        <ele>1623.8</ele>
        <time>2022-07-18T10:56:59Z</time>
      </trkpt>
      <trkpt lat="44.55576" lon="7.16309">
        <ele>1623.8</ele>
        <time>2022-07-18T10:57:00Z</time>
      </trkpt>
      <trkpt lat="44.55575" lon="7.16311">
        <ele>1624</ele>
        <time>2022-07-18T10:57:01Z</time>
      </trkpt>
      <trkpt lat="44.55574" lon="7.16314">
        <ele>1624.2</ele>
        <time>2022-07-18T10:57:02Z</time>
      </trkpt>
      <trkpt lat="44.55573" lon="7.16316">
        <ele>1624.2</ele>
        <time>2022-07-18T10:57:03Z</time>
      </trkpt>
      <trkpt lat="44.55572" lon="7.16319">
        <ele>1624.4</ele>
        <time>2022-07-18T10:57:04Z</time>
      </trkpt>
      <trkpt lat="44.55572" lon="7.16321">
        <ele>1624.4</ele>
        <time>2022-07-18T10:57:05Z</time>
      </trkpt>
      <trkpt lat="44.55571" lon="7.16323">
        <ele>1624.8</ele>
        <time>2022-07-18T10:57:06Z</time>
      </trkpt>
      <trkpt lat="44.5557" lon="7.16326">
        <ele>1624.8</ele>
        <time>2022-07-18T10:57:07Z</time>
      </trkpt>
      <trkpt lat="44.55569" lon="7.16328">
        <ele>1625</ele>
        <time>2022-07-18T10:57:08Z</time>
      </trkpt>
      <trkpt lat="44.55569" lon="7.16331">
        <ele>1625</ele>
        <time>2022-07-18T10:57:09Z</time>
      </trkpt>
      <trkpt lat="44.55568" lon="7.16333">
        <ele>1625.4</ele>
        <time>2022-07-18T10:57:10Z</time>
      </trkpt>
      <trkpt lat="44.55567" lon="7.16336">
        <ele>1625.6</ele>
        <time>2022-07-18T10:57:11Z</time>
      </trkpt>
      <trkpt lat="44.55567" lon="7.16338">
        <ele>1625.6</ele>
        <time>2022-07-18T10:57:12Z</time>
      </trkpt>
      <trkpt lat="44.55566" lon="7.1634">
        <ele>1626</ele>
        <time>2022-07-18T10:57:13Z</time>
      </trkpt>
      <trkpt lat="44.55566" lon="7.16342">
        <ele>1626</ele>
        <time>2022-07-18T10:57:14Z</time>
      </trkpt>
      <trkpt lat="44.55565" lon="7.16345">
        <ele>1626.4</ele>
        <time>2022-07-18T10:57:15Z</time>
      </trkpt>
      <trkpt lat="44.55564" lon="7.16348">
        <ele>1626.4</ele>
        <time>2022-07-18T10:57:16Z</time>
      </trkpt>
      <trkpt lat="44.55563" lon="7.1635">
        <ele>1626.6</ele>
        <time>2022-07-18T10:57:17Z</time>
      </trkpt>
      <trkpt lat="44.55563" lon="7.16352">
        <ele>1626.6</ele>
        <time>2022-07-18T10:57:18Z</time>
      </trkpt>
      <trkpt lat="44.55562" lon="7.16355">
        <ele>1626.8</ele>
        <time>2022-07-18T10:57:19Z</time>
      </trkpt>
      <trkpt lat="44.55561" lon="7.16357">
        <ele>1627</ele>
        <time>2022-07-18T10:57:20Z</time>
      </trkpt>
      <trkpt lat="44.5556" lon="7.1636">
        <ele>1627</ele>
        <time>2022-07-18T10:57:21Z</time>
      </trkpt>
      <trkpt lat="44.55559" lon="7.16363">
        <ele>1627.4</ele>
        <time>2022-07-18T10:57:22Z</time>
      </trkpt>
      <trkpt lat="44.55559" lon="7.16366">
        <ele>1627.4</ele>
        <time>2022-07-18T10:57:23Z</time>
      </trkpt>
      <trkpt lat="44.55559" lon="7.16368">
        <ele>1627.8</ele>
        <time>2022-07-18T10:57:24Z</time>
      </trkpt>
      <trkpt lat="44.55559" lon="7.16371">
        <ele>1628</ele>
        <time>2022-07-18T10:57:25Z</time>
      </trkpt>
      <trkpt lat="44.55559" lon="7.16373">
        <ele>1628</ele>
        <time>2022-07-18T10:57:26Z</time>
      </trkpt>
      <trkpt lat="44.5556" lon="7.16376">
        <ele>1628.4</ele>
        <time>2022-07-18T10:57:27Z</time>
      </trkpt>
      <trkpt lat="44.55561" lon="7.16379">
        <ele>1628.4</ele>
        <time>2022-07-18T10:57:28Z</time>
      </trkpt>
      <trkpt lat="44.55562" lon="7.16381">
        <ele>1628.6</ele>
        <time>2022-07-18T10:57:29Z</time>
      </trkpt>
      <trkpt lat="44.55563" lon="7.16383">
        <ele>1628.6</ele>
        <time>2022-07-18T10:57:30Z</time>
      </trkpt>
      <trkpt lat="44.55565" lon="7.16385">
        <ele>1629</ele>
        <time>2022-07-18T10:57:31Z</time>
      </trkpt>
      <trkpt lat="44.55566" lon="7.16387">
        <ele>1629</ele>
        <time>2022-07-18T10:57:32Z</time>
      </trkpt>
      <trkpt lat="44.55568" lon="7.16388">
        <ele>1629.2</ele>
        <time>2022-07-18T10:57:33Z</time>
      </trkpt>
      <trkpt lat="44.55569" lon="7.1639">
        <ele>1629.6</ele>
        <time>2022-07-18T10:57:35Z</time>
      </trkpt>
      <trkpt lat="44.5557" lon="7.1639">
        <ele>1629.8</ele>
        <time>2022-07-18T10:57:36Z</time>
      </trkpt>
      <trkpt lat="44.55572" lon="7.16392">
        <ele>1630</ele>
        <time>2022-07-18T10:57:37Z</time>
      </trkpt>
      <trkpt lat="44.55573" lon="7.16393">
        <ele>1630</ele>
        <time>2022-07-18T10:57:38Z</time>
      </trkpt>
      <trkpt lat="44.55574" lon="7.16393">
        <ele>1630.4</ele>
        <time>2022-07-18T10:57:39Z</time>
      </trkpt>
      <trkpt lat="44.55577" lon="7.16395">
        <ele>1630.4</ele>
        <time>2022-07-18T10:57:40Z</time>
      </trkpt>
      <trkpt lat="44.55579" lon="7.16396">
        <ele>1630.6</ele>
        <time>2022-07-18T10:57:41Z</time>
      </trkpt>
      <trkpt lat="44.55581" lon="7.16397">
        <ele>1631</ele>
        <time>2022-07-18T10:57:42Z</time>
      </trkpt>
      <trkpt lat="44.55583" lon="7.16399">
        <ele>1631</ele>
        <time>2022-07-18T10:57:43Z</time>
      </trkpt>
      <trkpt lat="44.55586" lon="7.164">
        <ele>1631.2</ele>
        <time>2022-07-18T10:57:44Z</time>
      </trkpt>
      <trkpt lat="44.55588" lon="7.16402">
        <ele>1631.2</ele>
        <time>2022-07-18T10:57:45Z</time>
      </trkpt>
      <trkpt lat="44.5559" lon="7.16404">
        <ele>1631.6</ele>
        <time>2022-07-18T10:57:46Z</time>
      </trkpt>
      <trkpt lat="44.55592" lon="7.16405">
        <ele>1631.6</ele>
        <time>2022-07-18T10:57:47Z</time>
      </trkpt>
      <trkpt lat="44.55594" lon="7.16407">
        <ele>1631.8</ele>
        <time>2022-07-18T10:57:48Z</time>
      </trkpt>
      <trkpt lat="44.55596" lon="7.16409">
        <ele>1631.8</ele>
        <time>2022-07-18T10:57:49Z</time>
      </trkpt>
      <trkpt lat="44.55597" lon="7.16411">
        <ele>1632.2</ele>
        <time>2022-07-18T10:57:50Z</time>
      </trkpt>
      <trkpt lat="44.55598" lon="7.16413">
        <ele>1632.2</ele>
        <time>2022-07-18T10:57:51Z</time>
      </trkpt>
      <trkpt lat="44.556" lon="7.16414">
        <ele>1632.6</ele>
        <time>2022-07-18T10:57:52Z</time>
      </trkpt>
      <trkpt lat="44.55602" lon="7.16416">
        <ele>1632.6</ele>
        <time>2022-07-18T10:57:53Z</time>
      </trkpt>
      <trkpt lat="44.55603" lon="7.16418">
        <ele>1633</ele>
        <time>2022-07-18T10:57:54Z</time>
      </trkpt>
      <trkpt lat="44.55605" lon="7.1642">
        <ele>1633.2</ele>
        <time>2022-07-18T10:57:55Z</time>
      </trkpt>
      <trkpt lat="44.55607" lon="7.16422">
        <ele>1633.4</ele>
        <time>2022-07-18T10:57:56Z</time>
      </trkpt>
      <trkpt lat="44.55609" lon="7.16424">
        <ele>1633.4</ele>
        <time>2022-07-18T10:57:57Z</time>
      </trkpt>
      <trkpt lat="44.55611" lon="7.16425">
        <ele>1633.8</ele>
        <time>2022-07-18T10:57:58Z</time>
      </trkpt>
      <trkpt lat="44.55612" lon="7.16427">
        <ele>1633.8</ele>
        <time>2022-07-18T10:57:59Z</time>
      </trkpt>
      <trkpt lat="44.55614" lon="7.16429">
        <ele>1634</ele>
        <time>2022-07-18T10:58:00Z</time>
      </trkpt>
      <trkpt lat="44.55616" lon="7.16431">
        <ele>1634</ele>
        <time>2022-07-18T10:58:01Z</time>
      </trkpt>
      <trkpt lat="44.55617" lon="7.16433">
        <ele>1634.4</ele>
        <time>2022-07-18T10:58:02Z</time>
      </trkpt>
      <trkpt lat="44.55618" lon="7.16435">
        <ele>1634.4</ele>
        <time>2022-07-18T10:58:03Z</time>
      </trkpt>
      <trkpt lat="44.55619" lon="7.16437">
        <ele>1634.8</ele>
        <time>2022-07-18T10:58:04Z</time>
      </trkpt>
      <trkpt lat="44.5562" lon="7.16439">
        <ele>1634.8</ele>
        <time>2022-07-18T10:58:05Z</time>
      </trkpt>
      <trkpt lat="44.55621" lon="7.16441">
        <ele>1635</ele>
        <time>2022-07-18T10:58:06Z</time>
      </trkpt>
      <trkpt lat="44.55622" lon="7.16443">
        <ele>1635</ele>
        <time>2022-07-18T10:58:07Z</time>
      </trkpt>
      <trkpt lat="44.55624" lon="7.16445">
        <ele>1635.2</ele>
        <time>2022-07-18T10:58:08Z</time>
      </trkpt>
      <trkpt lat="44.55625" lon="7.16447">
        <ele>1635.2</ele>
        <time>2022-07-18T10:58:09Z</time>
      </trkpt>
      <trkpt lat="44.55626" lon="7.16448">
        <ele>1635.6</ele>
        <time>2022-07-18T10:58:10Z</time>
      </trkpt>
      <trkpt lat="44.55628" lon="7.1645">
        <ele>1635.8</ele>
        <time>2022-07-18T10:58:11Z</time>
      </trkpt>
      <trkpt lat="44.55629" lon="7.16452">
        <ele>1635.8</ele>
        <time>2022-07-18T10:58:12Z</time>
      </trkpt>
      <trkpt lat="44.5563" lon="7.16454">
        <ele>1636.2</ele>
        <time>2022-07-18T10:58:13Z</time>
      </trkpt>
      <trkpt lat="44.55631" lon="7.16456">
        <ele>1636.2</ele>
        <time>2022-07-18T10:58:14Z</time>
      </trkpt>
      <trkpt lat="44.55632" lon="7.16458">
        <ele>1636.6</ele>
        <time>2022-07-18T10:58:15Z</time>
      </trkpt>
      <trkpt lat="44.55634" lon="7.1646">
        <ele>1636.6</ele>
        <time>2022-07-18T10:58:16Z</time>
      </trkpt>
      <trkpt lat="44.55635" lon="7.16461">
        <ele>1636.8</ele>
        <time>2022-07-18T10:58:17Z</time>
      </trkpt>
      <trkpt lat="44.55636" lon="7.16463">
        <ele>1637</ele>
        <time>2022-07-18T10:58:18Z</time>
      </trkpt>
      <trkpt lat="44.55637" lon="7.16465">
        <ele>1637.4</ele>
        <time>2022-07-18T10:58:19Z</time>
      </trkpt>
      <trkpt lat="44.55637" lon="7.16467">
        <ele>1637.4</ele>
        <time>2022-07-18T10:58:20Z</time>
      </trkpt>
      <trkpt lat="44.55638" lon="7.16469">
        <ele>1637.6</ele>
        <time>2022-07-18T10:58:21Z</time>
      </trkpt>
      <trkpt lat="44.55639" lon="7.16472">
        <ele>1637.6</ele>
        <time>2022-07-18T10:58:22Z</time>
      </trkpt>
      <trkpt lat="44.5564" lon="7.16474">
        <ele>1638</ele>
        <time>2022-07-18T10:58:23Z</time>
      </trkpt>
      <trkpt lat="44.55642" lon="7.16475">
        <ele>1638</ele>
        <time>2022-07-18T10:58:24Z</time>
      </trkpt>
      <trkpt lat="44.55642" lon="7.16477">
        <ele>1638.2</ele>
        <time>2022-07-18T10:58:25Z</time>
      </trkpt>
      <trkpt lat="44.55643" lon="7.1648">
        <ele>1638.2</ele>
        <time>2022-07-18T10:58:26Z</time>
      </trkpt>
      <trkpt lat="44.55644" lon="7.16482">
        <ele>1638.6</ele>
        <time>2022-07-18T10:58:27Z</time>
      </trkpt>
      <trkpt lat="44.55645" lon="7.16484">
        <ele>1638.8</ele>
        <time>2022-07-18T10:58:28Z</time>
      </trkpt>
      <trkpt lat="44.55646" lon="7.16486">
        <ele>1638.8</ele>
        <time>2022-07-18T10:58:29Z</time>
      </trkpt>
      <trkpt lat="44.55647" lon="7.16488">
        <ele>1639</ele>
        <time>2022-07-18T10:58:30Z</time>
      </trkpt>
      <trkpt lat="44.55648" lon="7.1649">
        <ele>1639.2</ele>
        <time>2022-07-18T10:58:31Z</time>
      </trkpt>
      <trkpt lat="44.55649" lon="7.16492">
        <ele>1639.2</ele>
        <time>2022-07-18T10:58:32Z</time>
      </trkpt>
      <trkpt lat="44.5565" lon="7.16494">
        <ele>1639.6</ele>
        <time>2022-07-18T10:58:33Z</time>
      </trkpt>
      <trkpt lat="44.55651" lon="7.16497">
        <ele>1639.6</ele>
        <time>2022-07-18T10:58:34Z</time>
      </trkpt>
      <trkpt lat="44.55652" lon="7.16499">
        <ele>1640</ele>
        <time>2022-07-18T10:58:35Z</time>
      </trkpt>
      <trkpt lat="44.55652" lon="7.16501">
        <ele>1640</ele>
        <time>2022-07-18T10:58:36Z</time>
      </trkpt>
      <trkpt lat="44.55654" lon="7.16503">
        <ele>1640.4</ele>
        <time>2022-07-18T10:58:37Z</time>
      </trkpt>
      <trkpt lat="44.55655" lon="7.16505">
        <ele>1640.6</ele>
        <time>2022-07-18T10:58:38Z</time>
      </trkpt>
      <trkpt lat="44.55657" lon="7.16507">
        <ele>1640.6</ele>
        <time>2022-07-18T10:58:39Z</time>
      </trkpt>
      <trkpt lat="44.55658" lon="7.16509">
        <ele>1640.8</ele>
        <time>2022-07-18T10:58:40Z</time>
      </trkpt>
      <trkpt lat="44.55659" lon="7.16512">
        <ele>1640.8</ele>
        <time>2022-07-18T10:58:41Z</time>
      </trkpt>
      <trkpt lat="44.5566" lon="7.16514">
        <ele>1641.2</ele>
        <time>2022-07-18T10:58:42Z</time>
      </trkpt>
      <trkpt lat="44.55661" lon="7.16516">
        <ele>1641.2</ele>
        <time>2022-07-18T10:58:43Z</time>
      </trkpt>
      <trkpt lat="44.55662" lon="7.16518">
        <ele>1641.4</ele>
        <time>2022-07-18T10:58:44Z</time>
      </trkpt>
      <trkpt lat="44.55663" lon="7.1652">
        <ele>1641.4</ele>
        <time>2022-07-18T10:58:45Z</time>
      </trkpt>
      <trkpt lat="44.55664" lon="7.16522">
        <ele>1641.8</ele>
        <time>2022-07-18T10:58:46Z</time>
      </trkpt>
      <trkpt lat="44.55666" lon="7.16523">
        <ele>1641.8</ele>
        <time>2022-07-18T10:58:47Z</time>
      </trkpt>
      <trkpt lat="44.55667" lon="7.16525">
        <ele>1641.8</ele>
        <time>2022-07-18T10:58:48Z</time>
      </trkpt>
      <trkpt lat="44.55669" lon="7.16526">
        <ele>1642</ele>
        <time>2022-07-18T10:58:49Z</time>
      </trkpt>
      <trkpt lat="44.5567" lon="7.16528">
        <ele>1642</ele>
        <time>2022-07-18T10:58:50Z</time>
      </trkpt>
      <trkpt lat="44.55671" lon="7.16529">
        <ele>1642.4</ele>
        <time>2022-07-18T10:58:51Z</time>
      </trkpt>
      <trkpt lat="44.55673" lon="7.16531">
        <ele>1642.4</ele>
        <time>2022-07-18T10:58:52Z</time>
      </trkpt>
      <trkpt lat="44.55674" lon="7.16533">
        <ele>1642.6</ele>
        <time>2022-07-18T10:58:53Z</time>
      </trkpt>
      <trkpt lat="44.55676" lon="7.16535">
        <ele>1642.6</ele>
        <time>2022-07-18T10:58:54Z</time>
      </trkpt>
      <trkpt lat="44.55677" lon="7.16537">
        <ele>1642.8</ele>
        <time>2022-07-18T10:58:55Z</time>
      </trkpt>
      <trkpt lat="44.55678" lon="7.16539">
        <ele>1642.8</ele>
        <time>2022-07-18T10:58:56Z</time>
      </trkpt>
      <trkpt lat="44.55679" lon="7.16541">
        <ele>1643</ele>
        <time>2022-07-18T10:58:57Z</time>
      </trkpt>
      <trkpt lat="44.5568" lon="7.16544">
        <ele>1643</ele>
        <time>2022-07-18T10:58:58Z</time>
      </trkpt>
      <trkpt lat="44.55681" lon="7.16546">
        <ele>1643.4</ele>
        <time>2022-07-18T10:58:59Z</time>
      </trkpt>
      <trkpt lat="44.55682" lon="7.16548">
        <ele>1643.4</ele>
        <time>2022-07-18T10:59:00Z</time>
      </trkpt>
      <trkpt lat="44.55682" lon="7.1655">
        <ele>1643.6</ele>
        <time>2022-07-18T10:59:01Z</time>
      </trkpt>
      <trkpt lat="44.55682" lon="7.16552">
        <ele>1643.6</ele>
        <time>2022-07-18T10:59:02Z</time>
      </trkpt>
      <trkpt lat="44.55682" lon="7.16555">
        <ele>1643.6</ele>
        <time>2022-07-18T10:59:03Z</time>
      </trkpt>
      <trkpt lat="44.55681" lon="7.16557">
        <ele>1644</ele>
        <time>2022-07-18T10:59:04Z</time>
      </trkpt>
      <trkpt lat="44.55681" lon="7.16559">
        <ele>1644</ele>
        <time>2022-07-18T10:59:05Z</time>
      </trkpt>
      <trkpt lat="44.5568" lon="7.16561">
        <ele>1644.2</ele>
        <time>2022-07-18T10:59:06Z</time>
      </trkpt>
      <trkpt lat="44.5568" lon="7.16562">
        <ele>1644.2</ele>
        <time>2022-07-18T10:59:07Z</time>
      </trkpt>
      <trkpt lat="44.55679" lon="7.16564">
        <ele>1644.2</ele>
        <time>2022-07-18T10:59:08Z</time>
      </trkpt>
      <trkpt lat="44.55677" lon="7.16564">
        <ele>1644.4</ele>
        <time>2022-07-18T10:59:09Z</time>
      </trkpt>
      <trkpt lat="44.55676" lon="7.16565">
        <ele>1644.4</ele>
        <time>2022-07-18T10:59:10Z</time>
      </trkpt>
      <trkpt lat="44.55674" lon="7.16565">
        <ele>1644.4</ele>
        <time>2022-07-18T10:59:11Z</time>
      </trkpt>
      <trkpt lat="44.55673" lon="7.16565">
        <ele>1644.8</ele>
        <time>2022-07-18T10:59:12Z</time>
      </trkpt>
      <trkpt lat="44.55671" lon="7.16565">
        <ele>1644.8</ele>
        <time>2022-07-18T10:59:13Z</time>
      </trkpt>
      <trkpt lat="44.5567" lon="7.16564">
        <ele>1644.8</ele>
        <time>2022-07-18T10:59:14Z</time>
      </trkpt>
      <trkpt lat="44.55668" lon="7.16563">
        <ele>1645</ele>
        <time>2022-07-18T10:59:15Z</time>
      </trkpt>
      <trkpt lat="44.55667" lon="7.16562">
        <ele>1645</ele>
        <time>2022-07-18T10:59:16Z</time>
      </trkpt>
      <trkpt lat="44.55666" lon="7.16561">
        <ele>1645.4</ele>
        <time>2022-07-18T10:59:17Z</time>
      </trkpt>
      <trkpt lat="44.55665" lon="7.1656">
        <ele>1645.4</ele>
        <time>2022-07-18T10:59:18Z</time>
      </trkpt>
      <trkpt lat="44.55664" lon="7.16559">
        <ele>1645.4</ele>
        <time>2022-07-18T10:59:19Z</time>
      </trkpt>
      <trkpt lat="44.55663" lon="7.16557">
        <ele>1645.4</ele>
        <time>2022-07-18T10:59:20Z</time>
      </trkpt>
      <trkpt lat="44.55662" lon="7.16556">
        <ele>1645.6</ele>
        <time>2022-07-18T10:59:21Z</time>
      </trkpt>
      <trkpt lat="44.55661" lon="7.16554">
        <ele>1645.6</ele>
        <time>2022-07-18T10:59:22Z</time>
      </trkpt>
      <trkpt lat="44.5566" lon="7.16553">
        <ele>1645.6</ele>
        <time>2022-07-18T10:59:23Z</time>
      </trkpt>
      <trkpt lat="44.55659" lon="7.16551">
        <ele>1646</ele>
        <time>2022-07-18T10:59:24Z</time>
      </trkpt>
      <trkpt lat="44.55658" lon="7.1655">
        <ele>1646</ele>
        <time>2022-07-18T10:59:25Z</time>
      </trkpt>
      <trkpt lat="44.55657" lon="7.16548">
        <ele>1646.2</ele>
        <time>2022-07-18T10:59:26Z</time>
      </trkpt>
      <trkpt lat="44.55655" lon="7.16547">
        <ele>1646.2</ele>
        <time>2022-07-18T10:59:27Z</time>
      </trkpt>
      <trkpt lat="44.55654" lon="7.16546">
        <ele>1646.4</ele>
        <time>2022-07-18T10:59:28Z</time>
      </trkpt>
      <trkpt lat="44.55652" lon="7.16544">
        <ele>1646.4</ele>
        <time>2022-07-18T10:59:29Z</time>
      </trkpt>
      <trkpt lat="44.55651" lon="7.16543">
        <ele>1646.8</ele>
        <time>2022-07-18T10:59:30Z</time>
      </trkpt>
      <trkpt lat="44.55649" lon="7.16541">
        <ele>1646.8</ele>
        <time>2022-07-18T10:59:31Z</time>
      </trkpt>
      <trkpt lat="44.55648" lon="7.1654">
        <ele>1647</ele>
        <time>2022-07-18T10:59:32Z</time>
      </trkpt>
      <trkpt lat="44.55646" lon="7.16538">
        <ele>1647</ele>
        <time>2022-07-18T10:59:33Z</time>
      </trkpt>
      <trkpt lat="44.55644" lon="7.16537">
        <ele>1647</ele>
        <time>2022-07-18T10:59:34Z</time>
      </trkpt>
      <trkpt lat="44.55642" lon="7.16535">
        <ele>1647.2</ele>
        <time>2022-07-18T10:59:35Z</time>
      </trkpt>
      <trkpt lat="44.5564" lon="7.16534">
        <ele>1647.2</ele>
        <time>2022-07-18T10:59:36Z</time>
      </trkpt>
      <trkpt lat="44.55639" lon="7.16532">
        <ele>1647.4</ele>
        <time>2022-07-18T10:59:37Z</time>
      </trkpt>
      <trkpt lat="44.55637" lon="7.16531">
        <ele>1647.4</ele>
        <time>2022-07-18T10:59:38Z</time>
      </trkpt>
      <trkpt lat="44.55635" lon="7.16529">
        <ele>1647.8</ele>
        <time>2022-07-18T10:59:39Z</time>
      </trkpt>
      <trkpt lat="44.55634" lon="7.16528">
        <ele>1647.8</ele>
        <time>2022-07-18T10:59:40Z</time>
      </trkpt>
      <trkpt lat="44.55632" lon="7.16527">
        <ele>1648</ele>
        <time>2022-07-18T10:59:41Z</time>
      </trkpt>
      <trkpt lat="44.55631" lon="7.16526">
        <ele>1648</ele>
        <time>2022-07-18T10:59:42Z</time>
      </trkpt>
      <trkpt lat="44.55629" lon="7.16525">
        <ele>1648.4</ele>
        <time>2022-07-18T10:59:43Z</time>
      </trkpt>
      <trkpt lat="44.55628" lon="7.16524">
        <ele>1648.4</ele>
        <time>2022-07-18T10:59:44Z</time>
      </trkpt>
      <trkpt lat="44.55627" lon="7.16523">
        <ele>1648.8</ele>
        <time>2022-07-18T10:59:45Z</time>
      </trkpt>
      <trkpt lat="44.55625" lon="7.16522">
        <ele>1648.8</ele>
        <time>2022-07-18T10:59:46Z</time>
      </trkpt>
      <trkpt lat="44.55623" lon="7.16521">
        <ele>1649</ele>
        <time>2022-07-18T10:59:47Z</time>
      </trkpt>
      <trkpt lat="44.55622" lon="7.1652">
        <ele>1649</ele>
        <time>2022-07-18T10:59:48Z</time>
      </trkpt>
      <trkpt lat="44.5562" lon="7.16519">
        <ele>1649.4</ele>
        <time>2022-07-18T10:59:49Z</time>
      </trkpt>
      <trkpt lat="44.55618" lon="7.16518">
        <ele>1649.6</ele>
        <time>2022-07-18T10:59:50Z</time>
      </trkpt>
      <trkpt lat="44.55617" lon="7.16517">
        <ele>1649.8</ele>
        <time>2022-07-18T10:59:51Z</time>
      </trkpt>
      <trkpt lat="44.55614" lon="7.16516">
        <ele>1650</ele>
        <time>2022-07-18T10:59:52Z</time>
      </trkpt>
      <trkpt lat="44.55612" lon="7.16515">
        <ele>1650.2</ele>
        <time>2022-07-18T10:59:53Z</time>
      </trkpt>
      <trkpt lat="44.5561" lon="7.16514">
        <ele>1650.6</ele>
        <time>2022-07-18T10:59:54Z</time>
      </trkpt>
      <trkpt lat="44.55608" lon="7.16514">
        <ele>1650.6</ele>
        <time>2022-07-18T10:59:55Z</time>
      </trkpt>
      <trkpt lat="44.55605" lon="7.16513">
        <ele>1651</ele>
        <time>2022-07-18T10:59:56Z</time>
      </trkpt>
      <trkpt lat="44.55603" lon="7.16512">
        <ele>1651.2</ele>
        <time>2022-07-18T10:59:57Z</time>
      </trkpt>
      <trkpt lat="44.55602" lon="7.16512">
        <ele>1651.6</ele>
        <time>2022-07-18T10:59:58Z</time>
      </trkpt>
      <trkpt lat="44.55599" lon="7.16511">
        <ele>1651.8</ele>
        <time>2022-07-18T10:59:59Z</time>
      </trkpt>
      <trkpt lat="44.55597" lon="7.1651">
        <ele>1652</ele>
        <time>2022-07-18T11:00:00Z</time>
      </trkpt>
      <trkpt lat="44.55595" lon="7.16509">
        <ele>1652.2</ele>
        <time>2022-07-18T11:00:01Z</time>
      </trkpt>
      <trkpt lat="44.55593" lon="7.16508">
        <ele>1652.6</ele>
        <time>2022-07-18T11:00:02Z</time>
      </trkpt>
      <trkpt lat="44.55592" lon="7.16507">
        <ele>1652.8</ele>
        <time>2022-07-18T11:00:03Z</time>
      </trkpt>
      <trkpt lat="44.55589" lon="7.16506">
        <ele>1653</ele>
        <time>2022-07-18T11:00:04Z</time>
      </trkpt>
      <trkpt lat="44.55587" lon="7.16505">
        <ele>1653</ele>
        <time>2022-07-18T11:00:05Z</time>
      </trkpt>
      <trkpt lat="44.55586" lon="7.16504">
        <ele>1653.4</ele>
        <time>2022-07-18T11:00:06Z</time>
      </trkpt>
      <trkpt lat="44.55584" lon="7.16503">
        <ele>1653.4</ele>
        <time>2022-07-18T11:00:07Z</time>
      </trkpt>
      <trkpt lat="44.55581" lon="7.16502">
        <ele>1653.6</ele>
        <time>2022-07-18T11:00:08Z</time>
      </trkpt>
      <trkpt lat="44.5558" lon="7.16501">
        <ele>1653.8</ele>
        <time>2022-07-18T11:00:09Z</time>
      </trkpt>
      <trkpt lat="44.55578" lon="7.165">
        <ele>1653.8</ele>
        <time>2022-07-18T11:00:10Z</time>
      </trkpt>
      <trkpt lat="44.55577" lon="7.16499">
        <ele>1654.2</ele>
        <time>2022-07-18T11:00:11Z</time>
      </trkpt>
      <trkpt lat="44.55576" lon="7.16498">
        <ele>1654.4</ele>
        <time>2022-07-18T11:00:12Z</time>
      </trkpt>
      <trkpt lat="44.55574" lon="7.16498">
        <ele>1654.4</ele>
        <time>2022-07-18T11:00:13Z</time>
      </trkpt>
      <trkpt lat="44.55572" lon="7.16497">
        <ele>1654.8</ele>
        <time>2022-07-18T11:00:14Z</time>
      </trkpt>
      <trkpt lat="44.55571" lon="7.16496">
        <ele>1654.8</ele>
        <time>2022-07-18T11:00:15Z</time>
      </trkpt>
      <trkpt lat="44.55569" lon="7.16495">
        <ele>1655.2</ele>
        <time>2022-07-18T11:00:16Z</time>
      </trkpt>
      <trkpt lat="44.55567" lon="7.16494">
        <ele>1655.2</ele>
        <time>2022-07-18T11:00:17Z</time>
      </trkpt>
      <trkpt lat="44.55566" lon="7.16492">
        <ele>1655.4</ele>
        <time>2022-07-18T11:00:18Z</time>
      </trkpt>
      <trkpt lat="44.55564" lon="7.16491">
        <ele>1655.4</ele>
        <time>2022-07-18T11:00:19Z</time>
      </trkpt>
      <trkpt lat="44.55563" lon="7.16491">
        <ele>1655.8</ele>
        <time>2022-07-18T11:00:20Z</time>
      </trkpt>
      <trkpt lat="44.55561" lon="7.16489">
        <ele>1656</ele>
        <time>2022-07-18T11:00:21Z</time>
      </trkpt>
      <trkpt lat="44.55559" lon="7.16488">
        <ele>1656</ele>
        <time>2022-07-18T11:00:22Z</time>
      </trkpt>
      <trkpt lat="44.55558" lon="7.16487">
        <ele>1656.4</ele>
        <time>2022-07-18T11:00:23Z</time>
      </trkpt>
      <trkpt lat="44.55557" lon="7.16486">
        <ele>1656.4</ele>
        <time>2022-07-18T11:00:24Z</time>
      </trkpt>
      <trkpt lat="44.55555" lon="7.16485">
        <ele>1656.6</ele>
        <time>2022-07-18T11:00:25Z</time>
      </trkpt>
      <trkpt lat="44.55554" lon="7.16483">
        <ele>1656.6</ele>
        <time>2022-07-18T11:00:26Z</time>
      </trkpt>
      <trkpt lat="44.55552" lon="7.16482">
        <ele>1657</ele>
        <time>2022-07-18T11:00:27Z</time>
      </trkpt>
      <trkpt lat="44.55551" lon="7.16481">
        <ele>1657</ele>
        <time>2022-07-18T11:00:28Z</time>
      </trkpt>
      <trkpt lat="44.5555" lon="7.1648">
        <ele>1657.4</ele>
        <time>2022-07-18T11:00:29Z</time>
      </trkpt>
      <trkpt lat="44.55548" lon="7.16478">
        <ele>1657.6</ele>
        <time>2022-07-18T11:00:30Z</time>
      </trkpt>
      <trkpt lat="44.55546" lon="7.16477">
        <ele>1657.6</ele>
        <time>2022-07-18T11:00:31Z</time>
      </trkpt>
      <trkpt lat="44.55545" lon="7.16476">
        <ele>1658</ele>
        <time>2022-07-18T11:00:32Z</time>
      </trkpt>
      <trkpt lat="44.55543" lon="7.16476">
        <ele>1658</ele>
        <time>2022-07-18T11:00:33Z</time>
      </trkpt>
      <trkpt lat="44.55542" lon="7.16474">
        <ele>1658.2</ele>
        <time>2022-07-18T11:00:34Z</time>
      </trkpt>
      <trkpt lat="44.55541" lon="7.16473">
        <ele>1658.2</ele>
        <time>2022-07-18T11:00:35Z</time>
      </trkpt>
      <trkpt lat="44.55539" lon="7.16472">
        <ele>1658.6</ele>
        <time>2022-07-18T11:00:36Z</time>
      </trkpt>
      <trkpt lat="44.55538" lon="7.16471">
        <ele>1658.6</ele>
        <time>2022-07-18T11:00:37Z</time>
      </trkpt>
      <trkpt lat="44.55536" lon="7.1647">
        <ele>1659</ele>
        <time>2022-07-18T11:00:38Z</time>
      </trkpt>
      <trkpt lat="44.55535" lon="7.1647">
        <ele>1659.2</ele>
        <time>2022-07-18T11:00:39Z</time>
      </trkpt>
      <trkpt lat="44.55534" lon="7.16469">
        <ele>1659.4</ele>
        <time>2022-07-18T11:00:40Z</time>
      </trkpt>
      <trkpt lat="44.55532" lon="7.16468">
        <ele>1659.4</ele>
        <time>2022-07-18T11:00:41Z</time>
      </trkpt>
      <trkpt lat="44.55531" lon="7.16466">
        <ele>1659.6</ele>
        <time>2022-07-18T11:00:42Z</time>
      </trkpt>
      <trkpt lat="44.5553" lon="7.16466">
        <ele>1659.6</ele>
        <time>2022-07-18T11:00:43Z</time>
      </trkpt>
      <trkpt lat="44.55529" lon="7.16465">
        <ele>1660</ele>
        <time>2022-07-18T11:00:44Z</time>
      </trkpt>
      <trkpt lat="44.55527" lon="7.16464">
        <ele>1660</ele>
        <time>2022-07-18T11:00:45Z</time>
      </trkpt>
      <trkpt lat="44.55526" lon="7.16463">
        <ele>1660.4</ele>
        <time>2022-07-18T11:00:46Z</time>
      </trkpt>
      <trkpt lat="44.55525" lon="7.16462">
        <ele>1660.4</ele>
        <time>2022-07-18T11:00:47Z</time>
      </trkpt>
      <trkpt lat="44.55523" lon="7.16462">
        <ele>1660.6</ele>
        <time>2022-07-18T11:00:48Z</time>
      </trkpt>
      <trkpt lat="44.55521" lon="7.16461">
        <ele>1660.6</ele>
        <time>2022-07-18T11:00:49Z</time>
      </trkpt>
      <trkpt lat="44.55519" lon="7.16461">
        <ele>1661</ele>
        <time>2022-07-18T11:00:50Z</time>
      </trkpt>
      <trkpt lat="44.55518" lon="7.1646">
        <ele>1661</ele>
        <time>2022-07-18T11:00:51Z</time>
      </trkpt>
      <trkpt lat="44.55516" lon="7.1646">
        <ele>1661</ele>
        <time>2022-07-18T11:00:52Z</time>
      </trkpt>
      <trkpt lat="44.55514" lon="7.16459">
        <ele>1661.4</ele>
        <time>2022-07-18T11:00:53Z</time>
      </trkpt>
      <trkpt lat="44.55512" lon="7.16459">
        <ele>1661.4</ele>
        <time>2022-07-18T11:00:54Z</time>
      </trkpt>
      <trkpt lat="44.55511" lon="7.16459">
        <ele>1661.6</ele>
        <time>2022-07-18T11:00:55Z</time>
      </trkpt>
      <trkpt lat="44.55509" lon="7.1646">
        <ele>1661.8</ele>
        <time>2022-07-18T11:00:56Z</time>
      </trkpt>
      <trkpt lat="44.55508" lon="7.16459">
        <ele>1661.8</ele>
        <time>2022-07-18T11:00:57Z</time>
      </trkpt>
      <trkpt lat="44.55506" lon="7.16459">
        <ele>1662</ele>
        <time>2022-07-18T11:00:58Z</time>
      </trkpt>
      <trkpt lat="44.55505" lon="7.16459">
        <ele>1662</ele>
        <time>2022-07-18T11:00:59Z</time>
      </trkpt>
      <trkpt lat="44.55503" lon="7.16459">
        <ele>1662.4</ele>
        <time>2022-07-18T11:01:00Z</time>
      </trkpt>
      <trkpt lat="44.55501" lon="7.16459">
        <ele>1662.4</ele>
        <time>2022-07-18T11:01:01Z</time>
      </trkpt>
      <trkpt lat="44.555" lon="7.16459">
        <ele>1662.8</ele>
        <time>2022-07-18T11:01:02Z</time>
      </trkpt>
      <trkpt lat="44.55498" lon="7.16458">
        <ele>1662.8</ele>
        <time>2022-07-18T11:01:03Z</time>
      </trkpt>
      <trkpt lat="44.55496" lon="7.16458">
        <ele>1663</ele>
        <time>2022-07-18T11:01:04Z</time>
      </trkpt>
      <trkpt lat="44.55494" lon="7.16458">
        <ele>1663</ele>
        <time>2022-07-18T11:01:05Z</time>
      </trkpt>
      <trkpt lat="44.55493" lon="7.16457">
        <ele>1663.2</ele>
        <time>2022-07-18T11:01:06Z</time>
      </trkpt>
      <trkpt lat="44.55491" lon="7.16456">
        <ele>1663.2</ele>
        <time>2022-07-18T11:01:07Z</time>
      </trkpt>
      <trkpt lat="44.5549" lon="7.16456">
        <ele>1663.6</ele>
        <time>2022-07-18T11:01:08Z</time>
      </trkpt>
      <trkpt lat="44.55488" lon="7.16456">
        <ele>1663.6</ele>
        <time>2022-07-18T11:01:09Z</time>
      </trkpt>
      <trkpt lat="44.55487" lon="7.16456">
        <ele>1664</ele>
        <time>2022-07-18T11:01:10Z</time>
      </trkpt>
      <trkpt lat="44.55485" lon="7.16456">
        <ele>1664</ele>
        <time>2022-07-18T11:01:11Z</time>
      </trkpt>
      <trkpt lat="44.55483" lon="7.16455">
        <ele>1664.2</ele>
        <time>2022-07-18T11:01:12Z</time>
      </trkpt>
      <trkpt lat="44.55481" lon="7.16455">
        <ele>1664.4</ele>
        <time>2022-07-18T11:01:13Z</time>
      </trkpt>
      <trkpt lat="44.55479" lon="7.16455">
        <ele>1664.4</ele>
        <time>2022-07-18T11:01:14Z</time>
      </trkpt>
      <trkpt lat="44.55478" lon="7.16455">
        <ele>1664.8</ele>
        <time>2022-07-18T11:01:15Z</time>
      </trkpt>
      <trkpt lat="44.55476" lon="7.16455">
        <ele>1664.8</ele>
        <time>2022-07-18T11:01:16Z</time>
      </trkpt>
      <trkpt lat="44.55475" lon="7.16455">
        <ele>1665</ele>
        <time>2022-07-18T11:01:17Z</time>
      </trkpt>
      <trkpt lat="44.55473" lon="7.16455">
        <ele>1665</ele>
        <time>2022-07-18T11:01:18Z</time>
      </trkpt>
      <trkpt lat="44.55472" lon="7.16455">
        <ele>1665.4</ele>
        <time>2022-07-18T11:01:19Z</time>
      </trkpt>
      <trkpt lat="44.5547" lon="7.16455">
        <ele>1665.4</ele>
        <time>2022-07-18T11:01:20Z</time>
      </trkpt>
      <trkpt lat="44.55468" lon="7.16455">
        <ele>1665.8</ele>
        <time>2022-07-18T11:01:21Z</time>
      </trkpt>
      <trkpt lat="44.55466" lon="7.16455">
        <ele>1666</ele>
        <time>2022-07-18T11:01:22Z</time>
      </trkpt>
      <trkpt lat="44.55464" lon="7.16454">
        <ele>1666</ele>
        <time>2022-07-18T11:01:23Z</time>
      </trkpt>
      <trkpt lat="44.55462" lon="7.16454">
        <ele>1666.4</ele>
        <time>2022-07-18T11:01:24Z</time>
      </trkpt>
      <trkpt lat="44.55461" lon="7.16454">
        <ele>1666.6</ele>
        <time>2022-07-18T11:01:25Z</time>
      </trkpt>
      <trkpt lat="44.55459" lon="7.16454">
        <ele>1666.8</ele>
        <time>2022-07-18T11:01:26Z</time>
      </trkpt>
      <trkpt lat="44.55457" lon="7.16454">
        <ele>1667</ele>
        <time>2022-07-18T11:01:27Z</time>
      </trkpt>
      <trkpt lat="44.55456" lon="7.16454">
        <ele>1667</ele>
        <time>2022-07-18T11:01:28Z</time>
      </trkpt>
      <trkpt lat="44.55454" lon="7.16454">
        <ele>1667.4</ele>
        <time>2022-07-18T11:01:29Z</time>
      </trkpt>
      <trkpt lat="44.55452" lon="7.16454">
        <ele>1667.4</ele>
        <time>2022-07-18T11:01:30Z</time>
      </trkpt>
      <trkpt lat="44.5545" lon="7.16454">
        <ele>1667.8</ele>
        <time>2022-07-18T11:01:31Z</time>
      </trkpt>
      <trkpt lat="44.55448" lon="7.16453">
        <ele>1667.8</ele>
        <time>2022-07-18T11:01:32Z</time>
      </trkpt>
      <trkpt lat="44.55446" lon="7.16452">
        <ele>1668</ele>
        <time>2022-07-18T11:01:33Z</time>
      </trkpt>
      <trkpt lat="44.55444" lon="7.16452">
        <ele>1668</ele>
        <time>2022-07-18T11:01:34Z</time>
      </trkpt>
      <trkpt lat="44.55442" lon="7.16451">
        <ele>1668.4</ele>
        <time>2022-07-18T11:01:35Z</time>
      </trkpt>
      <trkpt lat="44.55441" lon="7.16451">
        <ele>1668.4</ele>
        <time>2022-07-18T11:01:36Z</time>
      </trkpt>
      <trkpt lat="44.55439" lon="7.16451">
        <ele>1668.6</ele>
        <time>2022-07-18T11:01:37Z</time>
      </trkpt>
      <trkpt lat="44.55437" lon="7.1645">
        <ele>1668.8</ele>
        <time>2022-07-18T11:01:38Z</time>
      </trkpt>
      <trkpt lat="44.55436" lon="7.1645">
        <ele>1668.8</ele>
        <time>2022-07-18T11:01:39Z</time>
      </trkpt>
      <trkpt lat="44.55434" lon="7.16449">
        <ele>1669.2</ele>
        <time>2022-07-18T11:01:40Z</time>
      </trkpt>
      <trkpt lat="44.55432" lon="7.16449">
        <ele>1669.2</ele>
        <time>2022-07-18T11:01:41Z</time>
      </trkpt>
      <trkpt lat="44.55431" lon="7.16448">
        <ele>1669.4</ele>
        <time>2022-07-18T11:01:42Z</time>
      </trkpt>
      <trkpt lat="44.55429" lon="7.16447">
        <ele>1669.4</ele>
        <time>2022-07-18T11:01:43Z</time>
      </trkpt>
      <trkpt lat="44.55427" lon="7.16447">
        <ele>1669.8</ele>
        <time>2022-07-18T11:01:44Z</time>
      </trkpt>
      <trkpt lat="44.55425" lon="7.16446">
        <ele>1669.8</ele>
        <time>2022-07-18T11:01:45Z</time>
      </trkpt>
      <trkpt lat="44.55423" lon="7.16446">
        <ele>1670.2</ele>
        <time>2022-07-18T11:01:46Z</time>
      </trkpt>
      <trkpt lat="44.55421" lon="7.16446">
        <ele>1670.2</ele>
        <time>2022-07-18T11:01:47Z</time>
      </trkpt>
      <trkpt lat="44.55419" lon="7.16446">
        <ele>1670.6</ele>
        <time>2022-07-18T11:01:48Z</time>
      </trkpt>
      <trkpt lat="44.55418" lon="7.16445">
        <ele>1670.8</ele>
        <time>2022-07-18T11:01:49Z</time>
      </trkpt>
      <trkpt lat="44.55416" lon="7.16444">
        <ele>1670.8</ele>
        <time>2022-07-18T11:01:50Z</time>
      </trkpt>
      <trkpt lat="44.55414" lon="7.16444">
        <ele>1671</ele>
        <time>2022-07-18T11:01:51Z</time>
      </trkpt>
      <trkpt lat="44.55413" lon="7.16443">
        <ele>1671</ele>
        <time>2022-07-18T11:01:52Z</time>
      </trkpt>
      <trkpt lat="44.55412" lon="7.16443">
        <ele>1671.4</ele>
        <time>2022-07-18T11:01:53Z</time>
      </trkpt>
      <trkpt lat="44.55411" lon="7.16443">
        <ele>1671.4</ele>
        <time>2022-07-18T11:01:54Z</time>
      </trkpt>
      <trkpt lat="44.5541" lon="7.16442">
        <ele>1671.6</ele>
        <time>2022-07-18T11:01:55Z</time>
      </trkpt>
      <trkpt lat="44.55408" lon="7.16442">
        <ele>1671.6</ele>
        <time>2022-07-18T11:01:56Z</time>
      </trkpt>
      <trkpt lat="44.55407" lon="7.16442">
        <ele>1672</ele>
        <time>2022-07-18T11:01:57Z</time>
      </trkpt>
      <trkpt lat="44.55406" lon="7.16442">
        <ele>1672</ele>
        <time>2022-07-18T11:01:58Z</time>
      </trkpt>
      <trkpt lat="44.55404" lon="7.16442">
        <ele>1672.4</ele>
        <time>2022-07-18T11:01:59Z</time>
      </trkpt>
      <trkpt lat="44.55403" lon="7.16442">
        <ele>1672.4</ele>
        <time>2022-07-18T11:02:00Z</time>
      </trkpt>
      <trkpt lat="44.55401" lon="7.16441">
        <ele>1672.8</ele>
        <time>2022-07-18T11:02:01Z</time>
      </trkpt>
      <trkpt lat="44.55399" lon="7.1644">
        <ele>1672.8</ele>
        <time>2022-07-18T11:02:02Z</time>
      </trkpt>
      <trkpt lat="44.55398" lon="7.1644">
        <ele>1673</ele>
        <time>2022-07-18T11:02:03Z</time>
      </trkpt>
      <trkpt lat="44.55397" lon="7.1644">
        <ele>1673</ele>
        <time>2022-07-18T11:02:04Z</time>
      </trkpt>
      <trkpt lat="44.55396" lon="7.1644">
        <ele>1673.2</ele>
        <time>2022-07-18T11:02:05Z</time>
      </trkpt>
      <trkpt lat="44.55394" lon="7.1644">
        <ele>1673.2</ele>
        <time>2022-07-18T11:02:06Z</time>
      </trkpt>
      <trkpt lat="44.55391" lon="7.16439">
        <ele>1673.6</ele>
        <time>2022-07-18T11:02:07Z</time>
      </trkpt>
      <trkpt lat="44.55389" lon="7.16439">
        <ele>1674</ele>
        <time>2022-07-18T11:02:08Z</time>
      </trkpt>
      <trkpt lat="44.55388" lon="7.16438">
        <ele>1674</ele>
        <time>2022-07-18T11:02:09Z</time>
      </trkpt>
      <trkpt lat="44.55386" lon="7.16438">
        <ele>1674.2</ele>
        <time>2022-07-18T11:02:10Z</time>
      </trkpt>
      <trkpt lat="44.55385" lon="7.16438">
        <ele>1674.2</ele>
        <time>2022-07-18T11:02:11Z</time>
      </trkpt>
      <trkpt lat="44.55384" lon="7.16438">
        <ele>1674.4</ele>
        <time>2022-07-18T11:02:12Z</time>
      </trkpt>
      <trkpt lat="44.55382" lon="7.16438">
        <ele>1674.4</ele>
        <time>2022-07-18T11:02:13Z</time>
      </trkpt>
      <trkpt lat="44.55381" lon="7.16437">
        <ele>1674.8</ele>
        <time>2022-07-18T11:02:14Z</time>
      </trkpt>
      <trkpt lat="44.55377" lon="7.16437">
        <ele>1675.2</ele>
        <time>2022-07-18T11:02:16Z</time>
      </trkpt>
      <trkpt lat="44.55375" lon="7.16437">
        <ele>1675.2</ele>
        <time>2022-07-18T11:02:17Z</time>
      </trkpt>
      <trkpt lat="44.55373" lon="7.16436">
        <ele>1675.4</ele>
        <time>2022-07-18T11:02:18Z</time>
      </trkpt>
      <trkpt lat="44.55372" lon="7.16436">
        <ele>1675.4</ele>
        <time>2022-07-18T11:02:19Z</time>
      </trkpt>
      <trkpt lat="44.5537" lon="7.16435">
        <ele>1675.8</ele>
        <time>2022-07-18T11:02:20Z</time>
      </trkpt>
      <trkpt lat="44.55368" lon="7.16435">
        <ele>1675.8</ele>
        <time>2022-07-18T11:02:21Z</time>
      </trkpt>
      <trkpt lat="44.55367" lon="7.16435">
        <ele>1676.2</ele>
        <time>2022-07-18T11:02:22Z</time>
      </trkpt>
      <trkpt lat="44.55365" lon="7.16434">
        <ele>1676.2</ele>
        <time>2022-07-18T11:02:23Z</time>
      </trkpt>
      <trkpt lat="44.55364" lon="7.16434">
        <ele>1676.4</ele>
        <time>2022-07-18T11:02:24Z</time>
      </trkpt>
      <trkpt lat="44.55363" lon="7.16433">
        <ele>1676.4</ele>
        <time>2022-07-18T11:02:25Z</time>
      </trkpt>
      <trkpt lat="44.55361" lon="7.16433">
        <ele>1676.6</ele>
        <time>2022-07-18T11:02:26Z</time>
      </trkpt>
      <trkpt lat="44.55359" lon="7.16432">
        <ele>1676.6</ele>
        <time>2022-07-18T11:02:27Z</time>
      </trkpt>
      <trkpt lat="44.55358" lon="7.1643">
        <ele>1677</ele>
        <time>2022-07-18T11:02:28Z</time>
      </trkpt>
      <trkpt lat="44.55357" lon="7.16429">
        <ele>1677</ele>
        <time>2022-07-18T11:02:29Z</time>
      </trkpt>
      <trkpt lat="44.55356" lon="7.16428">
        <ele>1677.2</ele>
        <time>2022-07-18T11:02:30Z</time>
      </trkpt>
      <trkpt lat="44.55355" lon="7.16427">
        <ele>1677.6</ele>
        <time>2022-07-18T11:02:31Z</time>
      </trkpt>
      <trkpt lat="44.55353" lon="7.16425">
        <ele>1677.6</ele>
        <time>2022-07-18T11:02:32Z</time>
      </trkpt>
      <trkpt lat="44.55352" lon="7.16424">
        <ele>1677.8</ele>
        <time>2022-07-18T11:02:33Z</time>
      </trkpt>
      <trkpt lat="44.55351" lon="7.16422">
        <ele>1677.8</ele>
        <time>2022-07-18T11:02:34Z</time>
      </trkpt>
      <trkpt lat="44.55349" lon="7.16421">
        <ele>1678.2</ele>
        <time>2022-07-18T11:02:35Z</time>
      </trkpt>
      <trkpt lat="44.55348" lon="7.16419">
        <ele>1678.2</ele>
        <time>2022-07-18T11:02:36Z</time>
      </trkpt>
      <trkpt lat="44.55347" lon="7.16418">
        <ele>1678.4</ele>
        <time>2022-07-18T11:02:37Z</time>
      </trkpt>
      <trkpt lat="44.55346" lon="7.16416">
        <ele>1678.8</ele>
        <time>2022-07-18T11:02:38Z</time>
      </trkpt>
      <trkpt lat="44.55345" lon="7.16414">
        <ele>1679</ele>
        <time>2022-07-18T11:02:39Z</time>
      </trkpt>
      <trkpt lat="44.55344" lon="7.16413">
        <ele>1679</ele>
        <time>2022-07-18T11:02:40Z</time>
      </trkpt>
      <trkpt lat="44.55343" lon="7.16411">
        <ele>1679.2</ele>
        <time>2022-07-18T11:02:41Z</time>
      </trkpt>
      <trkpt lat="44.55342" lon="7.1641">
        <ele>1679.2</ele>
        <time>2022-07-18T11:02:42Z</time>
      </trkpt>
      <trkpt lat="44.55341" lon="7.16408">
        <ele>1679.6</ele>
        <time>2022-07-18T11:02:43Z</time>
      </trkpt>
      <trkpt lat="44.5534" lon="7.16407">
        <ele>1679.6</ele>
        <time>2022-07-18T11:02:44Z</time>
      </trkpt>
      <trkpt lat="44.55339" lon="7.16406">
        <ele>1679.8</ele>
        <time>2022-07-18T11:02:45Z</time>
      </trkpt>
      <trkpt lat="44.55337" lon="7.16404">
        <ele>1680</ele>
        <time>2022-07-18T11:02:46Z</time>
      </trkpt>
      <trkpt lat="44.55336" lon="7.16403">
        <ele>1680</ele>
        <time>2022-07-18T11:02:47Z</time>
      </trkpt>
      <trkpt lat="44.55335" lon="7.16401">
        <ele>1680.4</ele>
        <time>2022-07-18T11:02:48Z</time>
      </trkpt>
      <trkpt lat="44.55334" lon="7.164">
        <ele>1680.6</ele>
        <time>2022-07-18T11:02:49Z</time>
      </trkpt>
      <trkpt lat="44.55333" lon="7.16398">
        <ele>1680.6</ele>
        <time>2022-07-18T11:02:50Z</time>
      </trkpt>
      <trkpt lat="44.55332" lon="7.16396">
        <ele>1681</ele>
        <time>2022-07-18T11:02:51Z</time>
      </trkpt>
      <trkpt lat="44.5533" lon="7.16395">
        <ele>1681</ele>
        <time>2022-07-18T11:02:52Z</time>
      </trkpt>
      <trkpt lat="44.55329" lon="7.16393">
        <ele>1681.4</ele>
        <time>2022-07-18T11:02:53Z</time>
      </trkpt>
      <trkpt lat="44.55328" lon="7.16392">
        <ele>1681.4</ele>
        <time>2022-07-18T11:02:54Z</time>
      </trkpt>
      <trkpt lat="44.55327" lon="7.1639">
        <ele>1681.6</ele>
        <time>2022-07-18T11:02:55Z</time>
      </trkpt>
      <trkpt lat="44.55326" lon="7.16389">
        <ele>1681.6</ele>
        <time>2022-07-18T11:02:56Z</time>
      </trkpt>
      <trkpt lat="44.55325" lon="7.16388">
        <ele>1682</ele>
        <time>2022-07-18T11:02:57Z</time>
      </trkpt>
      <trkpt lat="44.55324" lon="7.16387">
        <ele>1682</ele>
        <time>2022-07-18T11:02:58Z</time>
      </trkpt>
      <trkpt lat="44.55322" lon="7.16385">
        <ele>1682.2</ele>
        <time>2022-07-18T11:02:59Z</time>
      </trkpt>
      <trkpt lat="44.55321" lon="7.16384">
        <ele>1682.2</ele>
        <time>2022-07-18T11:03:00Z</time>
      </trkpt>
      <trkpt lat="44.5532" lon="7.16383">
        <ele>1682.4</ele>
        <time>2022-07-18T11:03:01Z</time>
      </trkpt>
      <trkpt lat="44.55319" lon="7.16381">
        <ele>1682.4</ele>
        <time>2022-07-18T11:03:02Z</time>
      </trkpt>
      <trkpt lat="44.55318" lon="7.1638">
        <ele>1682.8</ele>
        <time>2022-07-18T11:03:03Z</time>
      </trkpt>
      <trkpt lat="44.55317" lon="7.16379">
        <ele>1683</ele>
        <time>2022-07-18T11:03:04Z</time>
      </trkpt>
      <trkpt lat="44.55316" lon="7.16378">
        <ele>1683</ele>
        <time>2022-07-18T11:03:05Z</time>
      </trkpt>
      <trkpt lat="44.55315" lon="7.16376">
        <ele>1683.4</ele>
        <time>2022-07-18T11:03:06Z</time>
      </trkpt>
      <trkpt lat="44.55314" lon="7.16375">
        <ele>1683.4</ele>
        <time>2022-07-18T11:03:07Z</time>
      </trkpt>
      <trkpt lat="44.55313" lon="7.16373">
        <ele>1683.6</ele>
        <time>2022-07-18T11:03:08Z</time>
      </trkpt>
      <trkpt lat="44.55312" lon="7.16371">
        <ele>1683.6</ele>
        <time>2022-07-18T11:03:09Z</time>
      </trkpt>
      <trkpt lat="44.55311" lon="7.16369">
        <ele>1684</ele>
        <time>2022-07-18T11:03:10Z</time>
      </trkpt>
      <trkpt lat="44.5531" lon="7.16367">
        <ele>1684</ele>
        <time>2022-07-18T11:03:11Z</time>
      </trkpt>
      <trkpt lat="44.55309" lon="7.16365">
        <ele>1684.2</ele>
        <time>2022-07-18T11:03:12Z</time>
      </trkpt>
      <trkpt lat="44.55308" lon="7.16364">
        <ele>1684.2</ele>
        <time>2022-07-18T11:03:13Z</time>
      </trkpt>
      <trkpt lat="44.55307" lon="7.16362">
        <ele>1684.4</ele>
        <time>2022-07-18T11:03:14Z</time>
      </trkpt>
      <trkpt lat="44.55306" lon="7.1636">
        <ele>1684.4</ele>
        <time>2022-07-18T11:03:15Z</time>
      </trkpt>
      <trkpt lat="44.55305" lon="7.16358">
        <ele>1684.8</ele>
        <time>2022-07-18T11:03:16Z</time>
      </trkpt>
      <trkpt lat="44.55304" lon="7.16357">
        <ele>1684.8</ele>
        <time>2022-07-18T11:03:17Z</time>
      </trkpt>
      <trkpt lat="44.55304" lon="7.16355">
        <ele>1685</ele>
        <time>2022-07-18T11:03:18Z</time>
      </trkpt>
      <trkpt lat="44.55303" lon="7.16353">
        <ele>1685</ele>
        <time>2022-07-18T11:03:19Z</time>
      </trkpt>
      <trkpt lat="44.55302" lon="7.16352">
        <ele>1685.4</ele>
        <time>2022-07-18T11:03:20Z</time>
      </trkpt>
      <trkpt lat="44.55301" lon="7.16351">
        <ele>1685.4</ele>
        <time>2022-07-18T11:03:21Z</time>
      </trkpt>
      <trkpt lat="44.553" lon="7.16349">
        <ele>1685.6</ele>
        <time>2022-07-18T11:03:22Z</time>
      </trkpt>
      <trkpt lat="44.553" lon="7.16348">
        <ele>1685.6</ele>
        <time>2022-07-18T11:03:23Z</time>
      </trkpt>
      <trkpt lat="44.55299" lon="7.16347">
        <ele>1685.8</ele>
        <time>2022-07-18T11:03:24Z</time>
      </trkpt>
      <trkpt lat="44.55298" lon="7.16346">
        <ele>1685.8</ele>
        <time>2022-07-18T11:03:25Z</time>
      </trkpt>
      <trkpt lat="44.55297" lon="7.16344">
        <ele>1686.2</ele>
        <time>2022-07-18T11:03:26Z</time>
      </trkpt>
      <trkpt lat="44.55296" lon="7.16343">
        <ele>1686.2</ele>
        <time>2022-07-18T11:03:27Z</time>
      </trkpt>
      <trkpt lat="44.55295" lon="7.16341">
        <ele>1686.4</ele>
        <time>2022-07-18T11:03:28Z</time>
      </trkpt>
      <trkpt lat="44.55294" lon="7.1634">
        <ele>1686.6</ele>
        <time>2022-07-18T11:03:29Z</time>
      </trkpt>
      <trkpt lat="44.55293" lon="7.16338">
        <ele>1686.6</ele>
        <time>2022-07-18T11:03:30Z</time>
      </trkpt>
      <trkpt lat="44.55291" lon="7.16336">
        <ele>1687</ele>
        <time>2022-07-18T11:03:31Z</time>
      </trkpt>
      <trkpt lat="44.5529" lon="7.16335">
        <ele>1687</ele>
        <time>2022-07-18T11:03:32Z</time>
      </trkpt>
      <trkpt lat="44.55289" lon="7.16334">
        <ele>1687.4</ele>
        <time>2022-07-18T11:03:33Z</time>
      </trkpt>
      <trkpt lat="44.55288" lon="7.16332">
        <ele>1687.4</ele>
        <time>2022-07-18T11:03:34Z</time>
      </trkpt>
      <trkpt lat="44.55287" lon="7.16331">
        <ele>1687.6</ele>
        <time>2022-07-18T11:03:35Z</time>
      </trkpt>
      <trkpt lat="44.55284" lon="7.16328">
        <ele>1687.6</ele>
        <time>2022-07-18T11:03:36Z</time>
      </trkpt>
      <trkpt lat="44.55283" lon="7.16326">
        <ele>1688</ele>
        <time>2022-07-18T11:03:37Z</time>
      </trkpt>
      <trkpt lat="44.55282" lon="7.16325">
        <ele>1688</ele>
        <time>2022-07-18T11:03:38Z</time>
      </trkpt>
      <trkpt lat="44.55281" lon="7.16324">
        <ele>1688</ele>
        <time>2022-07-18T11:03:39Z</time>
      </trkpt>
      <trkpt lat="44.5528" lon="7.16322">
        <ele>1688.4</ele>
        <time>2022-07-18T11:03:40Z</time>
      </trkpt>
      <trkpt lat="44.55279" lon="7.1632">
        <ele>1688.4</ele>
        <time>2022-07-18T11:03:41Z</time>
      </trkpt>
      <trkpt lat="44.55278" lon="7.16318">
        <ele>1688.8</ele>
        <time>2022-07-18T11:03:42Z</time>
      </trkpt>
      <trkpt lat="44.55277" lon="7.16316">
        <ele>1689</ele>
        <time>2022-07-18T11:03:43Z</time>
      </trkpt>
      <trkpt lat="44.55277" lon="7.16314">
        <ele>1689</ele>
        <time>2022-07-18T11:03:44Z</time>
      </trkpt>
      <trkpt lat="44.55276" lon="7.16312">
        <ele>1689.2</ele>
        <time>2022-07-18T11:03:45Z</time>
      </trkpt>
      <trkpt lat="44.55276" lon="7.1631">
        <ele>1689.2</ele>
        <time>2022-07-18T11:03:46Z</time>
      </trkpt>
      <trkpt lat="44.55275" lon="7.16308">
        <ele>1689.4</ele>
        <time>2022-07-18T11:03:47Z</time>
      </trkpt>
      <trkpt lat="44.55275" lon="7.16306">
        <ele>1689.4</ele>
        <time>2022-07-18T11:03:48Z</time>
      </trkpt>
      <trkpt lat="44.55275" lon="7.16304">
        <ele>1689.8</ele>
        <time>2022-07-18T11:03:49Z</time>
      </trkpt>
      <trkpt lat="44.55275" lon="7.16301">
        <ele>1689.8</ele>
        <time>2022-07-18T11:03:50Z</time>
      </trkpt>
      <trkpt lat="44.55275" lon="7.16299">
        <ele>1690</ele>
        <time>2022-07-18T11:03:51Z</time>
      </trkpt>
      <trkpt lat="44.55276" lon="7.16297">
        <ele>1690</ele>
        <time>2022-07-18T11:03:52Z</time>
      </trkpt>
      <trkpt lat="44.55276" lon="7.16294">
        <ele>1690</ele>
        <time>2022-07-18T11:03:53Z</time>
      </trkpt>
      <trkpt lat="44.55276" lon="7.16292">
        <ele>1690.4</ele>
        <time>2022-07-18T11:03:54Z</time>
      </trkpt>
      <trkpt lat="44.55276" lon="7.1629">
        <ele>1690.4</ele>
        <time>2022-07-18T11:03:55Z</time>
      </trkpt>
      <trkpt lat="44.55276" lon="7.16288">
        <ele>1690.8</ele>
        <time>2022-07-18T11:03:56Z</time>
      </trkpt>
      <trkpt lat="44.55276" lon="7.16286">
        <ele>1690.8</ele>
        <time>2022-07-18T11:03:57Z</time>
      </trkpt>
      <trkpt lat="44.55276" lon="7.16283">
        <ele>1691</ele>
        <time>2022-07-18T11:03:58Z</time>
      </trkpt>
      <trkpt lat="44.55276" lon="7.16281">
        <ele>1691</ele>
        <time>2022-07-18T11:03:59Z</time>
      </trkpt>
      <trkpt lat="44.55276" lon="7.16279">
        <ele>1691.2</ele>
        <time>2022-07-18T11:04:00Z</time>
      </trkpt>
      <trkpt lat="44.55276" lon="7.16277">
        <ele>1691.2</ele>
        <time>2022-07-18T11:04:01Z</time>
      </trkpt>
      <trkpt lat="44.55276" lon="7.16275">
        <ele>1691.6</ele>
        <time>2022-07-18T11:04:02Z</time>
      </trkpt>
      <trkpt lat="44.55276" lon="7.16273">
        <ele>1691.6</ele>
        <time>2022-07-18T11:04:03Z</time>
      </trkpt>
      <trkpt lat="44.55276" lon="7.1627">
        <ele>1691.8</ele>
        <time>2022-07-18T11:04:04Z</time>
      </trkpt>
      <trkpt lat="44.55276" lon="7.16268">
        <ele>1691.8</ele>
        <time>2022-07-18T11:04:05Z</time>
      </trkpt>
      <trkpt lat="44.55276" lon="7.16266">
        <ele>1692</ele>
        <time>2022-07-18T11:04:06Z</time>
      </trkpt>
      <trkpt lat="44.55276" lon="7.16264">
        <ele>1692</ele>
        <time>2022-07-18T11:04:07Z</time>
      </trkpt>
      <trkpt lat="44.55277" lon="7.16262">
        <ele>1692</ele>
        <time>2022-07-18T11:04:08Z</time>
      </trkpt>
      <trkpt lat="44.55277" lon="7.1626">
        <ele>1692.6</ele>
        <time>2022-07-18T11:04:09Z</time>
      </trkpt>
      <trkpt lat="44.55277" lon="7.16258">
        <ele>1692.6</ele>
        <time>2022-07-18T11:04:10Z</time>
      </trkpt>
      <trkpt lat="44.55278" lon="7.16256">
        <ele>1692.8</ele>
        <time>2022-07-18T11:04:11Z</time>
      </trkpt>
      <trkpt lat="44.55278" lon="7.16254">
        <ele>1692.8</ele>
        <time>2022-07-18T11:04:12Z</time>
      </trkpt>
      <trkpt lat="44.55278" lon="7.16251">
        <ele>1693.2</ele>
        <time>2022-07-18T11:04:13Z</time>
      </trkpt>
      <trkpt lat="44.55278" lon="7.16249">
        <ele>1693.2</ele>
        <time>2022-07-18T11:04:14Z</time>
      </trkpt>
      <trkpt lat="44.55278" lon="7.16247">
        <ele>1693.6</ele>
        <time>2022-07-18T11:04:15Z</time>
      </trkpt>
      <trkpt lat="44.55278" lon="7.16245">
        <ele>1693.6</ele>
        <time>2022-07-18T11:04:16Z</time>
      </trkpt>
      <trkpt lat="44.55278" lon="7.16243">
        <ele>1693.8</ele>
        <time>2022-07-18T11:04:17Z</time>
      </trkpt>
      <trkpt lat="44.55279" lon="7.16241">
        <ele>1693.8</ele>
        <time>2022-07-18T11:04:18Z</time>
      </trkpt>
      <trkpt lat="44.5528" lon="7.16239">
        <ele>1694.2</ele>
        <time>2022-07-18T11:04:19Z</time>
      </trkpt>
      <trkpt lat="44.55281" lon="7.16237">
        <ele>1694.4</ele>
        <time>2022-07-18T11:04:20Z</time>
      </trkpt>
      <trkpt lat="44.55282" lon="7.16235">
        <ele>1694.4</ele>
        <time>2022-07-18T11:04:21Z</time>
      </trkpt>
      <trkpt lat="44.55282" lon="7.16233">
        <ele>1694.8</ele>
        <time>2022-07-18T11:04:22Z</time>
      </trkpt>
      <trkpt lat="44.55283" lon="7.16231">
        <ele>1695</ele>
        <time>2022-07-18T11:04:23Z</time>
      </trkpt>
      <trkpt lat="44.55283" lon="7.16229">
        <ele>1695.4</ele>
        <time>2022-07-18T11:04:24Z</time>
      </trkpt>
      <trkpt lat="44.55284" lon="7.16227">
        <ele>1695.6</ele>
        <time>2022-07-18T11:04:25Z</time>
      </trkpt>
      <trkpt lat="44.55285" lon="7.16225">
        <ele>1695.6</ele>
        <time>2022-07-18T11:04:26Z</time>
      </trkpt>
      <trkpt lat="44.55285" lon="7.16224">
        <ele>1695.8</ele>
        <time>2022-07-18T11:04:27Z</time>
      </trkpt>
      <trkpt lat="44.55286" lon="7.16222">
        <ele>1695.8</ele>
        <time>2022-07-18T11:04:28Z</time>
      </trkpt>
      <trkpt lat="44.55287" lon="7.1622">
        <ele>1696.2</ele>
        <time>2022-07-18T11:04:29Z</time>
      </trkpt>
      <trkpt lat="44.55287" lon="7.16218">
        <ele>1696.2</ele>
        <time>2022-07-18T11:04:30Z</time>
      </trkpt>
      <trkpt lat="44.55288" lon="7.16216">
        <ele>1696.4</ele>
        <time>2022-07-18T11:04:31Z</time>
      </trkpt>
      <trkpt lat="44.55289" lon="7.16214">
        <ele>1696.4</ele>
        <time>2022-07-18T11:04:32Z</time>
      </trkpt>
      <trkpt lat="44.5529" lon="7.16213">
        <ele>1696.8</ele>
        <time>2022-07-18T11:04:33Z</time>
      </trkpt>
      <trkpt lat="44.55291" lon="7.16211">
        <ele>1696.8</ele>
        <time>2022-07-18T11:04:34Z</time>
      </trkpt>
      <trkpt lat="44.55292" lon="7.16209">
        <ele>1697</ele>
        <time>2022-07-18T11:04:35Z</time>
      </trkpt>
      <trkpt lat="44.55292" lon="7.16207">
        <ele>1697</ele>
        <time>2022-07-18T11:04:36Z</time>
      </trkpt>
      <trkpt lat="44.55293" lon="7.16205">
        <ele>1697.4</ele>
        <time>2022-07-18T11:04:37Z</time>
      </trkpt>
      <trkpt lat="44.55294" lon="7.16204">
        <ele>1697.4</ele>
        <time>2022-07-18T11:04:38Z</time>
      </trkpt>
      <trkpt lat="44.55295" lon="7.16202">
        <ele>1697.6</ele>
        <time>2022-07-18T11:04:39Z</time>
      </trkpt>
      <trkpt lat="44.55296" lon="7.162">
        <ele>1697.6</ele>
        <time>2022-07-18T11:04:40Z</time>
      </trkpt>
      <trkpt lat="44.55296" lon="7.16198">
        <ele>1697.8</ele>
        <time>2022-07-18T11:04:41Z</time>
      </trkpt>
      <trkpt lat="44.55297" lon="7.16196">
        <ele>1697.8</ele>
        <time>2022-07-18T11:04:42Z</time>
      </trkpt>
      <trkpt lat="44.55298" lon="7.16195">
        <ele>1698.2</ele>
        <time>2022-07-18T11:04:43Z</time>
      </trkpt>
      <trkpt lat="44.55298" lon="7.16193">
        <ele>1698.2</ele>
        <time>2022-07-18T11:04:44Z</time>
      </trkpt>
      <trkpt lat="44.55299" lon="7.16191">
        <ele>1698.6</ele>
        <time>2022-07-18T11:04:45Z</time>
      </trkpt>
      <trkpt lat="44.553" lon="7.1619">
        <ele>1698.6</ele>
        <time>2022-07-18T11:04:46Z</time>
      </trkpt>
      <trkpt lat="44.55301" lon="7.16189">
        <ele>1698.8</ele>
        <time>2022-07-18T11:04:47Z</time>
      </trkpt>
      <trkpt lat="44.55302" lon="7.16187">
        <ele>1698.8</ele>
        <time>2022-07-18T11:04:48Z</time>
      </trkpt>
      <trkpt lat="44.55303" lon="7.16185">
        <ele>1699.2</ele>
        <time>2022-07-18T11:04:49Z</time>
      </trkpt>
      <trkpt lat="44.55304" lon="7.16183">
        <ele>1699.2</ele>
        <time>2022-07-18T11:04:50Z</time>
      </trkpt>
      <trkpt lat="44.55304" lon="7.16182">
        <ele>1699.6</ele>
        <time>2022-07-18T11:04:51Z</time>
      </trkpt>
      <trkpt lat="44.55305" lon="7.1618">
        <ele>1699.6</ele>
        <time>2022-07-18T11:04:52Z</time>
      </trkpt>
      <trkpt lat="44.55306" lon="7.16179">
        <ele>1700</ele>
        <time>2022-07-18T11:04:53Z</time>
      </trkpt>
      <trkpt lat="44.55307" lon="7.16176">
        <ele>1700</ele>
        <time>2022-07-18T11:04:54Z</time>
      </trkpt>
      <trkpt lat="44.55308" lon="7.16174">
        <ele>1700.2</ele>
        <time>2022-07-18T11:04:55Z</time>
      </trkpt>
      <trkpt lat="44.55309" lon="7.16173">
        <ele>1700.2</ele>
        <time>2022-07-18T11:04:56Z</time>
      </trkpt>
      <trkpt lat="44.5531" lon="7.16171">
        <ele>1700.6</ele>
        <time>2022-07-18T11:04:57Z</time>
      </trkpt>
      <trkpt lat="44.55311" lon="7.16169">
        <ele>1700.6</ele>
        <time>2022-07-18T11:04:58Z</time>
      </trkpt>
      <trkpt lat="44.55311" lon="7.16167">
        <ele>1701</ele>
        <time>2022-07-18T11:04:59Z</time>
      </trkpt>
      <trkpt lat="44.55312" lon="7.16165">
        <ele>1701</ele>
        <time>2022-07-18T11:05:00Z</time>
      </trkpt>
      <trkpt lat="44.55313" lon="7.16164">
        <ele>1701.2</ele>
        <time>2022-07-18T11:05:01Z</time>
      </trkpt>
      <trkpt lat="44.55314" lon="7.16162">
        <ele>1701.2</ele>
        <time>2022-07-18T11:05:02Z</time>
      </trkpt>
      <trkpt lat="44.55314" lon="7.1616">
        <ele>1701.6</ele>
        <time>2022-07-18T11:05:03Z</time>
      </trkpt>
      <trkpt lat="44.55315" lon="7.16158">
        <ele>1701.6</ele>
        <time>2022-07-18T11:05:04Z</time>
      </trkpt>
      <trkpt lat="44.55316" lon="7.16156">
        <ele>1702</ele>
        <time>2022-07-18T11:05:05Z</time>
      </trkpt>
      <trkpt lat="44.55316" lon="7.16153">
        <ele>1702</ele>
        <time>2022-07-18T11:05:06Z</time>
      </trkpt>
      <trkpt lat="44.55317" lon="7.16151">
        <ele>1702.2</ele>
        <time>2022-07-18T11:05:07Z</time>
      </trkpt>
      <trkpt lat="44.55318" lon="7.1615">
        <ele>1702.4</ele>
        <time>2022-07-18T11:05:08Z</time>
      </trkpt>
      <trkpt lat="44.55319" lon="7.16148">
        <ele>1702.4</ele>
        <time>2022-07-18T11:05:09Z</time>
      </trkpt>
      <trkpt lat="44.55319" lon="7.16146">
        <ele>1702.8</ele>
        <time>2022-07-18T11:05:10Z</time>
      </trkpt>
      <trkpt lat="44.5532" lon="7.16144">
        <ele>1702.8</ele>
        <time>2022-07-18T11:05:11Z</time>
      </trkpt>
      <trkpt lat="44.55321" lon="7.16142">
        <ele>1703</ele>
        <time>2022-07-18T11:05:12Z</time>
      </trkpt>
      <trkpt lat="44.55322" lon="7.1614">
        <ele>1703</ele>
        <time>2022-07-18T11:05:13Z</time>
      </trkpt>
      <trkpt lat="44.55322" lon="7.16137">
        <ele>1703.4</ele>
        <time>2022-07-18T11:05:14Z</time>
      </trkpt>
      <trkpt lat="44.55323" lon="7.16134">
        <ele>1703.4</ele>
        <time>2022-07-18T11:05:15Z</time>
      </trkpt>
      <trkpt lat="44.55323" lon="7.16132">
        <ele>1703.8</ele>
        <time>2022-07-18T11:05:16Z</time>
      </trkpt>
      <trkpt lat="44.55324" lon="7.1613">
        <ele>1704</ele>
        <time>2022-07-18T11:05:17Z</time>
      </trkpt>
      <trkpt lat="44.55325" lon="7.16128">
        <ele>1704</ele>
        <time>2022-07-18T11:05:19Z</time>
      </trkpt>
      <trkpt lat="44.55325" lon="7.16126">
        <ele>1704.4</ele>
        <time>2022-07-18T11:05:20Z</time>
      </trkpt>
      <trkpt lat="44.55326" lon="7.16123">
        <ele>1704.4</ele>
        <time>2022-07-18T11:05:21Z</time>
      </trkpt>
      <trkpt lat="44.55326" lon="7.16121">
        <ele>1704.8</ele>
        <time>2022-07-18T11:05:22Z</time>
      </trkpt>
      <trkpt lat="44.55327" lon="7.16118">
        <ele>1704.8</ele>
        <time>2022-07-18T11:05:23Z</time>
      </trkpt>
      <trkpt lat="44.55328" lon="7.16116">
        <ele>1705</ele>
        <time>2022-07-18T11:05:24Z</time>
      </trkpt>
      <trkpt lat="44.55329" lon="7.16114">
        <ele>1705</ele>
        <time>2022-07-18T11:05:25Z</time>
      </trkpt>
      <trkpt lat="44.55329" lon="7.16112">
        <ele>1705.4</ele>
        <time>2022-07-18T11:05:26Z</time>
      </trkpt>
      <trkpt lat="44.5533" lon="7.1611">
        <ele>1705.4</ele>
        <time>2022-07-18T11:05:27Z</time>
      </trkpt>
      <trkpt lat="44.55331" lon="7.16108">
        <ele>1705.6</ele>
        <time>2022-07-18T11:05:28Z</time>
      </trkpt>
      <trkpt lat="44.55332" lon="7.16106">
        <ele>1705.8</ele>
        <time>2022-07-18T11:05:29Z</time>
      </trkpt>
      <trkpt lat="44.55332" lon="7.16104">
        <ele>1706</ele>
        <time>2022-07-18T11:05:30Z</time>
      </trkpt>
      <trkpt lat="44.55333" lon="7.16102">
        <ele>1706</ele>
        <time>2022-07-18T11:05:31Z</time>
      </trkpt>
      <trkpt lat="44.55333" lon="7.16101">
        <ele>1706.4</ele>
        <time>2022-07-18T11:05:32Z</time>
      </trkpt>
      <trkpt lat="44.55334" lon="7.16099">
        <ele>1706.6</ele>
        <time>2022-07-18T11:05:33Z</time>
      </trkpt>
      <trkpt lat="44.55335" lon="7.16098">
        <ele>1706.6</ele>
        <time>2022-07-18T11:05:34Z</time>
      </trkpt>
      <trkpt lat="44.55336" lon="7.16097">
        <ele>1707</ele>
        <time>2022-07-18T11:05:35Z</time>
      </trkpt>
      <trkpt lat="44.55338" lon="7.16096">
        <ele>1707</ele>
        <time>2022-07-18T11:05:36Z</time>
      </trkpt>
      <trkpt lat="44.55339" lon="7.16095">
        <ele>1707.2</ele>
        <time>2022-07-18T11:05:37Z</time>
      </trkpt>
      <trkpt lat="44.55341" lon="7.16093">
        <ele>1707.2</ele>
        <time>2022-07-18T11:05:38Z</time>
      </trkpt>
      <trkpt lat="44.55342" lon="7.16092">
        <ele>1707.6</ele>
        <time>2022-07-18T11:05:39Z</time>
      </trkpt>
      <trkpt lat="44.55344" lon="7.16091">
        <ele>1707.8</ele>
        <time>2022-07-18T11:05:40Z</time>
      </trkpt>
      <trkpt lat="44.55346" lon="7.1609">
        <ele>1707.8</ele>
        <time>2022-07-18T11:05:41Z</time>
      </trkpt>
      <trkpt lat="44.55347" lon="7.16089">
        <ele>1708.2</ele>
        <time>2022-07-18T11:05:42Z</time>
      </trkpt>
      <trkpt lat="44.55348" lon="7.16088">
        <ele>1708.2</ele>
        <time>2022-07-18T11:05:43Z</time>
      </trkpt>
      <trkpt lat="44.5535" lon="7.16086">
        <ele>1708.4</ele>
        <time>2022-07-18T11:05:44Z</time>
      </trkpt>
      <trkpt lat="44.55351" lon="7.16085">
        <ele>1708.4</ele>
        <time>2022-07-18T11:05:45Z</time>
      </trkpt>
      <trkpt lat="44.55353" lon="7.16084">
        <ele>1708.8</ele>
        <time>2022-07-18T11:05:46Z</time>
      </trkpt>
      <trkpt lat="44.55354" lon="7.16083">
        <ele>1708.8</ele>
        <time>2022-07-18T11:05:47Z</time>
      </trkpt>
      <trkpt lat="44.55355" lon="7.16082">
        <ele>1709</ele>
        <time>2022-07-18T11:05:48Z</time>
      </trkpt>
      <trkpt lat="44.55357" lon="7.16081">
        <ele>1709</ele>
        <time>2022-07-18T11:05:49Z</time>
      </trkpt>
      <trkpt lat="44.55358" lon="7.1608">
        <ele>1709.2</ele>
        <time>2022-07-18T11:05:50Z</time>
      </trkpt>
      <trkpt lat="44.5536" lon="7.16079">
        <ele>1709.2</ele>
        <time>2022-07-18T11:05:51Z</time>
      </trkpt>
      <trkpt lat="44.55361" lon="7.16078">
        <ele>1709.6</ele>
        <time>2022-07-18T11:05:52Z</time>
      </trkpt>
      <trkpt lat="44.55363" lon="7.16077">
        <ele>1709.6</ele>
        <time>2022-07-18T11:05:53Z</time>
      </trkpt>
      <trkpt lat="44.55364" lon="7.16076">
        <ele>1710</ele>
        <time>2022-07-18T11:05:54Z</time>
      </trkpt>
      <trkpt lat="44.55365" lon="7.16075">
        <ele>1710</ele>
        <time>2022-07-18T11:05:55Z</time>
      </trkpt>
      <trkpt lat="44.55366" lon="7.16073">
        <ele>1710.4</ele>
        <time>2022-07-18T11:05:56Z</time>
      </trkpt>
      <trkpt lat="44.55368" lon="7.16072">
        <ele>1710.6</ele>
        <time>2022-07-18T11:05:57Z</time>
      </trkpt>
      <trkpt lat="44.55369" lon="7.16071">
        <ele>1710.6</ele>
        <time>2022-07-18T11:05:58Z</time>
      </trkpt>
      <trkpt lat="44.5537" lon="7.16071">
        <ele>1711</ele>
        <time>2022-07-18T11:05:59Z</time>
      </trkpt>
      <trkpt lat="44.55371" lon="7.1607">
        <ele>1711</ele>
        <time>2022-07-18T11:06:00Z</time>
      </trkpt>
      <trkpt lat="44.55373" lon="7.16069">
        <ele>1711.4</ele>
        <time>2022-07-18T11:06:01Z</time>
      </trkpt>
      <trkpt lat="44.55374" lon="7.16068">
        <ele>1711.4</ele>
        <time>2022-07-18T11:06:02Z</time>
      </trkpt>
      <trkpt lat="44.55375" lon="7.16067">
        <ele>1711.6</ele>
        <time>2022-07-18T11:06:03Z</time>
      </trkpt>
      <trkpt lat="44.55377" lon="7.16065">
        <ele>1711.6</ele>
        <time>2022-07-18T11:06:04Z</time>
      </trkpt>
      <trkpt lat="44.55378" lon="7.16063">
        <ele>1712</ele>
        <time>2022-07-18T11:06:05Z</time>
      </trkpt>
      <trkpt lat="44.5538" lon="7.16062">
        <ele>1712</ele>
        <time>2022-07-18T11:06:06Z</time>
      </trkpt>
      <trkpt lat="44.55381" lon="7.16061">
        <ele>1712.4</ele>
        <time>2022-07-18T11:06:07Z</time>
      </trkpt>
      <trkpt lat="44.55382" lon="7.16061">
        <ele>1712.4</ele>
        <time>2022-07-18T11:06:08Z</time>
      </trkpt>
      <trkpt lat="44.55384" lon="7.1606">
        <ele>1712.6</ele>
        <time>2022-07-18T11:06:09Z</time>
      </trkpt>
      <trkpt lat="44.55385" lon="7.16059">
        <ele>1712.6</ele>
        <time>2022-07-18T11:06:10Z</time>
      </trkpt>
      <trkpt lat="44.55387" lon="7.16058">
        <ele>1713</ele>
        <time>2022-07-18T11:06:11Z</time>
      </trkpt>
      <trkpt lat="44.55388" lon="7.16057">
        <ele>1713</ele>
        <time>2022-07-18T11:06:12Z</time>
      </trkpt>
      <trkpt lat="44.5539" lon="7.16056">
        <ele>1713.4</ele>
        <time>2022-07-18T11:06:13Z</time>
      </trkpt>
      <trkpt lat="44.55391" lon="7.16055">
        <ele>1713.4</ele>
        <time>2022-07-18T11:06:14Z</time>
      </trkpt>
      <trkpt lat="44.55393" lon="7.16054">
        <ele>1713.8</ele>
        <time>2022-07-18T11:06:15Z</time>
      </trkpt>
      <trkpt lat="44.55394" lon="7.16052">
        <ele>1714</ele>
        <time>2022-07-18T11:06:16Z</time>
      </trkpt>
      <trkpt lat="44.55396" lon="7.16051">
        <ele>1714</ele>
        <time>2022-07-18T11:06:17Z</time>
      </trkpt>
      <trkpt lat="44.55397" lon="7.1605">
        <ele>1714.2</ele>
        <time>2022-07-18T11:06:18Z</time>
      </trkpt>
      <trkpt lat="44.55398" lon="7.16049">
        <ele>1714.2</ele>
        <time>2022-07-18T11:06:19Z</time>
      </trkpt>
      <trkpt lat="44.554" lon="7.16049">
        <ele>1714.6</ele>
        <time>2022-07-18T11:06:20Z</time>
      </trkpt>
      <trkpt lat="44.55401" lon="7.16048">
        <ele>1714.6</ele>
        <time>2022-07-18T11:06:21Z</time>
      </trkpt>
      <trkpt lat="44.55402" lon="7.16047">
        <ele>1714.8</ele>
        <time>2022-07-18T11:06:22Z</time>
      </trkpt>
      <trkpt lat="44.55403" lon="7.16045">
        <ele>1714.8</ele>
        <time>2022-07-18T11:06:23Z</time>
      </trkpt>
      <trkpt lat="44.55405" lon="7.16044">
        <ele>1715.2</ele>
        <time>2022-07-18T11:06:24Z</time>
      </trkpt>
      <trkpt lat="44.55406" lon="7.16042">
        <ele>1715.4</ele>
        <time>2022-07-18T11:06:25Z</time>
      </trkpt>
      <trkpt lat="44.55407" lon="7.1604">
        <ele>1715.6</ele>
        <time>2022-07-18T11:06:26Z</time>
      </trkpt>
      <trkpt lat="44.55408" lon="7.16037">
        <ele>1715.6</ele>
        <time>2022-07-18T11:06:27Z</time>
      </trkpt>
      <trkpt lat="44.5541" lon="7.16035">
        <ele>1715.8</ele>
        <time>2022-07-18T11:06:28Z</time>
      </trkpt>
      <trkpt lat="44.55411" lon="7.16032">
        <ele>1715.8</ele>
        <time>2022-07-18T11:06:29Z</time>
      </trkpt>
      <trkpt lat="44.55412" lon="7.16029">
        <ele>1716.2</ele>
        <time>2022-07-18T11:06:30Z</time>
      </trkpt>
      <trkpt lat="44.55413" lon="7.16027">
        <ele>1716.2</ele>
        <time>2022-07-18T11:06:31Z</time>
      </trkpt>
      <trkpt lat="44.55414" lon="7.16025">
        <ele>1716.6</ele>
        <time>2022-07-18T11:06:32Z</time>
      </trkpt>
      <trkpt lat="44.55414" lon="7.16022">
        <ele>1716.6</ele>
        <time>2022-07-18T11:06:33Z</time>
      </trkpt>
      <trkpt lat="44.55415" lon="7.1602">
        <ele>1717</ele>
        <time>2022-07-18T11:06:34Z</time>
      </trkpt>
      <trkpt lat="44.55415" lon="7.16017">
        <ele>1717</ele>
        <time>2022-07-18T11:06:35Z</time>
      </trkpt>
      <trkpt lat="44.55416" lon="7.16015">
        <ele>1717.4</ele>
        <time>2022-07-18T11:06:36Z</time>
      </trkpt>
      <trkpt lat="44.55417" lon="7.16013">
        <ele>1717.4</ele>
        <time>2022-07-18T11:06:37Z</time>
      </trkpt>
      <trkpt lat="44.55418" lon="7.16011">
        <ele>1717.8</ele>
        <time>2022-07-18T11:06:38Z</time>
      </trkpt>
      <trkpt lat="44.55419" lon="7.16009">
        <ele>1718</ele>
        <time>2022-07-18T11:06:39Z</time>
      </trkpt>
      <trkpt lat="44.5542" lon="7.16007">
        <ele>1718</ele>
        <time>2022-07-18T11:06:40Z</time>
      </trkpt>
      <trkpt lat="44.55421" lon="7.16005">
        <ele>1718.2</ele>
        <time>2022-07-18T11:06:41Z</time>
      </trkpt>
      <trkpt lat="44.55422" lon="7.16002">
        <ele>1718.2</ele>
        <time>2022-07-18T11:06:42Z</time>
      </trkpt>
      <trkpt lat="44.55422" lon="7.16">
        <ele>1718.6</ele>
        <time>2022-07-18T11:06:43Z</time>
      </trkpt>
      <trkpt lat="44.55423" lon="7.15998">
        <ele>1718.6</ele>
        <time>2022-07-18T11:06:44Z</time>
      </trkpt>
      <trkpt lat="44.55423" lon="7.15996">
        <ele>1718.6</ele>
        <time>2022-07-18T11:06:45Z</time>
      </trkpt>
      <trkpt lat="44.55424" lon="7.15994">
        <ele>1718.8</ele>
        <time>2022-07-18T11:06:46Z</time>
      </trkpt>
      <trkpt lat="44.55425" lon="7.15992">
        <ele>1718.8</ele>
        <time>2022-07-18T11:06:47Z</time>
      </trkpt>
      <trkpt lat="44.55425" lon="7.1599">
        <ele>1719.2</ele>
        <time>2022-07-18T11:06:48Z</time>
      </trkpt>
      <trkpt lat="44.55426" lon="7.15988">
        <ele>1719.2</ele>
        <time>2022-07-18T11:06:49Z</time>
      </trkpt>
      <trkpt lat="44.55427" lon="7.15987">
        <ele>1719.6</ele>
        <time>2022-07-18T11:06:50Z</time>
      </trkpt>
      <trkpt lat="44.55427" lon="7.15985">
        <ele>1719.6</ele>
        <time>2022-07-18T11:06:51Z</time>
      </trkpt>
      <trkpt lat="44.55428" lon="7.15983">
        <ele>1719.8</ele>
        <time>2022-07-18T11:06:52Z</time>
      </trkpt>
      <trkpt lat="44.55429" lon="7.15981">
        <ele>1720</ele>
        <time>2022-07-18T11:06:53Z</time>
      </trkpt>
      <trkpt lat="44.55429" lon="7.15978">
        <ele>1720</ele>
        <time>2022-07-18T11:06:54Z</time>
      </trkpt>
      <trkpt lat="44.55429" lon="7.15976">
        <ele>1720.4</ele>
        <time>2022-07-18T11:06:55Z</time>
      </trkpt>
      <trkpt lat="44.5543" lon="7.15974">
        <ele>1720.4</ele>
        <time>2022-07-18T11:06:56Z</time>
      </trkpt>
      <trkpt lat="44.5543" lon="7.15972">
        <ele>1720.8</ele>
        <time>2022-07-18T11:06:57Z</time>
      </trkpt>
      <trkpt lat="44.55431" lon="7.1597">
        <ele>1721</ele>
        <time>2022-07-18T11:06:58Z</time>
      </trkpt>
      <trkpt lat="44.55431" lon="7.15968">
        <ele>1721.2</ele>
        <time>2022-07-18T11:06:59Z</time>
      </trkpt>
      <trkpt lat="44.55431" lon="7.15966">
        <ele>1721.2</ele>
        <time>2022-07-18T11:07:00Z</time>
      </trkpt>
      <trkpt lat="44.55431" lon="7.15963">
        <ele>1721.6</ele>
        <time>2022-07-18T11:07:01Z</time>
      </trkpt>
      <trkpt lat="44.55431" lon="7.15961">
        <ele>1721.6</ele>
        <time>2022-07-18T11:07:02Z</time>
      </trkpt>
      <trkpt lat="44.55431" lon="7.15959">
        <ele>1721.8</ele>
        <time>2022-07-18T11:07:03Z</time>
      </trkpt>
      <trkpt lat="44.55431" lon="7.15956">
        <ele>1722</ele>
        <time>2022-07-18T11:07:04Z</time>
      </trkpt>
      <trkpt lat="44.55431" lon="7.15954">
        <ele>1722</ele>
        <time>2022-07-18T11:07:05Z</time>
      </trkpt>
      <trkpt lat="44.55431" lon="7.15952">
        <ele>1722.4</ele>
        <time>2022-07-18T11:07:06Z</time>
      </trkpt>
      <trkpt lat="44.55431" lon="7.1595">
        <ele>1722.4</ele>
        <time>2022-07-18T11:07:07Z</time>
      </trkpt>
      <trkpt lat="44.5543" lon="7.15947">
        <ele>1722.8</ele>
        <time>2022-07-18T11:07:08Z</time>
      </trkpt>
      <trkpt lat="44.5543" lon="7.15945">
        <ele>1722.8</ele>
        <time>2022-07-18T11:07:09Z</time>
      </trkpt>
      <trkpt lat="44.55429" lon="7.15943">
        <ele>1723</ele>
        <time>2022-07-18T11:07:10Z</time>
      </trkpt>
      <trkpt lat="44.55429" lon="7.1594">
        <ele>1723</ele>
        <time>2022-07-18T11:07:11Z</time>
      </trkpt>
      <trkpt lat="44.55429" lon="7.15938">
        <ele>1723.4</ele>
        <time>2022-07-18T11:07:12Z</time>
      </trkpt>
      <trkpt lat="44.55428" lon="7.15936">
        <ele>1723.4</ele>
        <time>2022-07-18T11:07:13Z</time>
      </trkpt>
      <trkpt lat="44.55428" lon="7.15934">
        <ele>1723.6</ele>
        <time>2022-07-18T11:07:14Z</time>
      </trkpt>
      <trkpt lat="44.55427" lon="7.15932">
        <ele>1723.6</ele>
        <time>2022-07-18T11:07:15Z</time>
      </trkpt>
      <trkpt lat="44.55427" lon="7.1593">
        <ele>1724</ele>
        <time>2022-07-18T11:07:16Z</time>
      </trkpt>
      <trkpt lat="44.55426" lon="7.15928">
        <ele>1724</ele>
        <time>2022-07-18T11:07:17Z</time>
      </trkpt>
      <trkpt lat="44.55426" lon="7.15926">
        <ele>1724.2</ele>
        <time>2022-07-18T11:07:18Z</time>
      </trkpt>
      <trkpt lat="44.55426" lon="7.15924">
        <ele>1724.2</ele>
        <time>2022-07-18T11:07:19Z</time>
      </trkpt>
      <trkpt lat="44.55425" lon="7.15921">
        <ele>1724.6</ele>
        <time>2022-07-18T11:07:20Z</time>
      </trkpt>
      <trkpt lat="44.55425" lon="7.15919">
        <ele>1724.8</ele>
        <time>2022-07-18T11:07:21Z</time>
      </trkpt>
      <trkpt lat="44.55425" lon="7.15917">
        <ele>1725</ele>
        <time>2022-07-18T11:07:22Z</time>
      </trkpt>
      <trkpt lat="44.55425" lon="7.15915">
        <ele>1725</ele>
        <time>2022-07-18T11:07:23Z</time>
      </trkpt>
      <trkpt lat="44.55424" lon="7.15911">
        <ele>1725.4</ele>
        <time>2022-07-18T11:07:25Z</time>
      </trkpt>
      <trkpt lat="44.55424" lon="7.15909">
        <ele>1725.6</ele>
        <time>2022-07-18T11:07:26Z</time>
      </trkpt>
      <trkpt lat="44.55423" lon="7.15907">
        <ele>1725.6</ele>
        <time>2022-07-18T11:07:27Z</time>
      </trkpt>
      <trkpt lat="44.55423" lon="7.15904">
        <ele>1726</ele>
        <time>2022-07-18T11:07:28Z</time>
      </trkpt>
      <trkpt lat="44.55423" lon="7.15902">
        <ele>1726</ele>
        <time>2022-07-18T11:07:29Z</time>
      </trkpt>
      <trkpt lat="44.55423" lon="7.159">
        <ele>1726.4</ele>
        <time>2022-07-18T11:07:30Z</time>
      </trkpt>
      <trkpt lat="44.55422" lon="7.15898">
        <ele>1726.6</ele>
        <time>2022-07-18T11:07:31Z</time>
      </trkpt>
      <trkpt lat="44.55422" lon="7.15896">
        <ele>1726.6</ele>
        <time>2022-07-18T11:07:32Z</time>
      </trkpt>
      <trkpt lat="44.55422" lon="7.15894">
        <ele>1727</ele>
        <time>2022-07-18T11:07:33Z</time>
      </trkpt>
      <trkpt lat="44.55422" lon="7.15892">
        <ele>1727.2</ele>
        <time>2022-07-18T11:07:34Z</time>
      </trkpt>
      <trkpt lat="44.55422" lon="7.15889">
        <ele>1727.4</ele>
        <time>2022-07-18T11:07:35Z</time>
      </trkpt>
      <trkpt lat="44.55421" lon="7.15887">
        <ele>1727.4</ele>
        <time>2022-07-18T11:07:36Z</time>
      </trkpt>
      <trkpt lat="44.55421" lon="7.15885">
        <ele>1727.8</ele>
        <time>2022-07-18T11:07:37Z</time>
      </trkpt>
      <trkpt lat="44.55421" lon="7.15883">
        <ele>1728</ele>
        <time>2022-07-18T11:07:38Z</time>
      </trkpt>
      <trkpt lat="44.55421" lon="7.15881">
        <ele>1728.2</ele>
        <time>2022-07-18T11:07:39Z</time>
      </trkpt>
      <trkpt lat="44.55421" lon="7.15879">
        <ele>1728.2</ele>
        <time>2022-07-18T11:07:40Z</time>
      </trkpt>
      <trkpt lat="44.55421" lon="7.15877">
        <ele>1728.6</ele>
        <time>2022-07-18T11:07:41Z</time>
      </trkpt>
      <trkpt lat="44.5542" lon="7.15875">
        <ele>1728.6</ele>
        <time>2022-07-18T11:07:42Z</time>
      </trkpt>
      <trkpt lat="44.5542" lon="7.15873">
        <ele>1728.8</ele>
        <time>2022-07-18T11:07:43Z</time>
      </trkpt>
      <trkpt lat="44.5542" lon="7.15871">
        <ele>1728.8</ele>
        <time>2022-07-18T11:07:44Z</time>
      </trkpt>
      <trkpt lat="44.5542" lon="7.15868">
        <ele>1729.2</ele>
        <time>2022-07-18T11:07:45Z</time>
      </trkpt>
      <trkpt lat="44.55419" lon="7.15866">
        <ele>1729.2</ele>
        <time>2022-07-18T11:07:46Z</time>
      </trkpt>
      <trkpt lat="44.55419" lon="7.15864">
        <ele>1729.4</ele>
        <time>2022-07-18T11:07:47Z</time>
      </trkpt>
      <trkpt lat="44.55419" lon="7.15862">
        <ele>1729.8</ele>
        <time>2022-07-18T11:07:48Z</time>
      </trkpt>
      <trkpt lat="44.55419" lon="7.1586">
        <ele>1729.8</ele>
        <time>2022-07-18T11:07:49Z</time>
      </trkpt>
      <trkpt lat="44.55419" lon="7.15858">
        <ele>1730</ele>
        <time>2022-07-18T11:07:50Z</time>
      </trkpt>
      <trkpt lat="44.55419" lon="7.15856">
        <ele>1730</ele>
        <time>2022-07-18T11:07:51Z</time>
      </trkpt>
      <trkpt lat="44.55419" lon="7.15853">
        <ele>1730.2</ele>
        <time>2022-07-18T11:07:52Z</time>
      </trkpt>
      <trkpt lat="44.55419" lon="7.15851">
        <ele>1730.2</ele>
        <time>2022-07-18T11:07:53Z</time>
      </trkpt>
      <trkpt lat="44.55419" lon="7.15848">
        <ele>1730.6</ele>
        <time>2022-07-18T11:07:54Z</time>
      </trkpt>
      <trkpt lat="44.55419" lon="7.15846">
        <ele>1730.6</ele>
        <time>2022-07-18T11:07:55Z</time>
      </trkpt>
      <trkpt lat="44.55418" lon="7.15844">
        <ele>1730.6</ele>
        <time>2022-07-18T11:07:56Z</time>
      </trkpt>
      <trkpt lat="44.55418" lon="7.15842">
        <ele>1731</ele>
        <time>2022-07-18T11:07:57Z</time>
      </trkpt>
      <trkpt lat="44.55418" lon="7.1584">
        <ele>1731</ele>
        <time>2022-07-18T11:07:58Z</time>
      </trkpt>
      <trkpt lat="44.55418" lon="7.15838">
        <ele>1731.2</ele>
        <time>2022-07-18T11:07:59Z</time>
      </trkpt>
      <trkpt lat="44.55418" lon="7.15836">
        <ele>1731.2</ele>
        <time>2022-07-18T11:08:00Z</time>
      </trkpt>
      <trkpt lat="44.55418" lon="7.15834">
        <ele>1731.6</ele>
        <time>2022-07-18T11:08:01Z</time>
      </trkpt>
      <trkpt lat="44.55418" lon="7.15832">
        <ele>1731.8</ele>
        <time>2022-07-18T11:08:02Z</time>
      </trkpt>
      <trkpt lat="44.55418" lon="7.1583">
        <ele>1731.8</ele>
        <time>2022-07-18T11:08:03Z</time>
      </trkpt>
      <trkpt lat="44.55418" lon="7.15828">
        <ele>1732.2</ele>
        <time>2022-07-18T11:08:04Z</time>
      </trkpt>
      <trkpt lat="44.55418" lon="7.15826">
        <ele>1732.2</ele>
        <time>2022-07-18T11:08:05Z</time>
      </trkpt>
      <trkpt lat="44.55418" lon="7.15824">
        <ele>1732.4</ele>
        <time>2022-07-18T11:08:06Z</time>
      </trkpt>
      <trkpt lat="44.55418" lon="7.15822">
        <ele>1732.4</ele>
        <time>2022-07-18T11:08:07Z</time>
      </trkpt>
      <trkpt lat="44.55418" lon="7.15819">
        <ele>1732.6</ele>
        <time>2022-07-18T11:08:08Z</time>
      </trkpt>
      <trkpt lat="44.55418" lon="7.15817">
        <ele>1732.6</ele>
        <time>2022-07-18T11:08:09Z</time>
      </trkpt>
      <trkpt lat="44.55418" lon="7.15815">
        <ele>1733</ele>
        <time>2022-07-18T11:08:10Z</time>
      </trkpt>
      <trkpt lat="44.55418" lon="7.15813">
        <ele>1733</ele>
        <time>2022-07-18T11:08:11Z</time>
      </trkpt>
      <trkpt lat="44.55417" lon="7.15811">
        <ele>1733.4</ele>
        <time>2022-07-18T11:08:12Z</time>
      </trkpt>
      <trkpt lat="44.55417" lon="7.15808">
        <ele>1733.4</ele>
        <time>2022-07-18T11:08:13Z</time>
      </trkpt>
      <trkpt lat="44.55417" lon="7.15806">
        <ele>1733.8</ele>
        <time>2022-07-18T11:08:14Z</time>
      </trkpt>
      <trkpt lat="44.55417" lon="7.15804">
        <ele>1733.8</ele>
        <time>2022-07-18T11:08:15Z</time>
      </trkpt>
      <trkpt lat="44.55417" lon="7.15802">
        <ele>1734</ele>
        <time>2022-07-18T11:08:16Z</time>
      </trkpt>
      <trkpt lat="44.55417" lon="7.158">
        <ele>1734</ele>
        <time>2022-07-18T11:08:17Z</time>
      </trkpt>
      <trkpt lat="44.55417" lon="7.15797">
        <ele>1734.2</ele>
        <time>2022-07-18T11:08:18Z</time>
      </trkpt>
      <trkpt lat="44.55416" lon="7.15795">
        <ele>1734.2</ele>
        <time>2022-07-18T11:08:19Z</time>
      </trkpt>
      <trkpt lat="44.55416" lon="7.15793">
        <ele>1734.6</ele>
        <time>2022-07-18T11:08:20Z</time>
      </trkpt>
      <trkpt lat="44.55416" lon="7.1579">
        <ele>1734.6</ele>
        <time>2022-07-18T11:08:21Z</time>
      </trkpt>
      <trkpt lat="44.55415" lon="7.15788">
        <ele>1734.8</ele>
        <time>2022-07-18T11:08:22Z</time>
      </trkpt>
      <trkpt lat="44.55415" lon="7.15787">
        <ele>1734.8</ele>
        <time>2022-07-18T11:08:23Z</time>
      </trkpt>
      <trkpt lat="44.55415" lon="7.15785">
        <ele>1735.2</ele>
        <time>2022-07-18T11:08:24Z</time>
      </trkpt>
      <trkpt lat="44.55415" lon="7.15783">
        <ele>1735.2</ele>
        <time>2022-07-18T11:08:25Z</time>
      </trkpt>
      <trkpt lat="44.55416" lon="7.15781">
        <ele>1735.6</ele>
        <time>2022-07-18T11:08:26Z</time>
      </trkpt>
      <trkpt lat="44.55415" lon="7.15778">
        <ele>1735.6</ele>
        <time>2022-07-18T11:08:27Z</time>
      </trkpt>
      <trkpt lat="44.55415" lon="7.15776">
        <ele>1736</ele>
        <time>2022-07-18T11:08:28Z</time>
      </trkpt>
      <trkpt lat="44.55415" lon="7.15774">
        <ele>1736</ele>
        <time>2022-07-18T11:08:29Z</time>
      </trkpt>
      <trkpt lat="44.55415" lon="7.15771">
        <ele>1736</ele>
        <time>2022-07-18T11:08:30Z</time>
      </trkpt>
      <trkpt lat="44.55415" lon="7.15769">
        <ele>1736.4</ele>
        <time>2022-07-18T11:08:31Z</time>
      </trkpt>
      <trkpt lat="44.55415" lon="7.15767">
        <ele>1736.6</ele>
        <time>2022-07-18T11:08:32Z</time>
      </trkpt>
      <trkpt lat="44.55415" lon="7.15765">
        <ele>1736.8</ele>
        <time>2022-07-18T11:08:33Z</time>
      </trkpt>
      <trkpt lat="44.55415" lon="7.15763">
        <ele>1736.8</ele>
        <time>2022-07-18T11:08:34Z</time>
      </trkpt>
      <trkpt lat="44.55415" lon="7.15761">
        <ele>1736.8</ele>
        <time>2022-07-18T11:08:35Z</time>
      </trkpt>
      <trkpt lat="44.55415" lon="7.15759">
        <ele>1737</ele>
        <time>2022-07-18T11:08:36Z</time>
      </trkpt>
      <trkpt lat="44.55415" lon="7.15757">
        <ele>1737.4</ele>
        <time>2022-07-18T11:08:37Z</time>
      </trkpt>
      <trkpt lat="44.55414" lon="7.15754">
        <ele>1737.6</ele>
        <time>2022-07-18T11:08:38Z</time>
      </trkpt>
      <trkpt lat="44.55414" lon="7.15752">
        <ele>1737.6</ele>
        <time>2022-07-18T11:08:39Z</time>
      </trkpt>
      <trkpt lat="44.55414" lon="7.1575">
        <ele>1737.8</ele>
        <time>2022-07-18T11:08:40Z</time>
      </trkpt>
      <trkpt lat="44.55415" lon="7.15748">
        <ele>1737.8</ele>
        <time>2022-07-18T11:08:41Z</time>
      </trkpt>
      <trkpt lat="44.55415" lon="7.15745">
        <ele>1738.2</ele>
        <time>2022-07-18T11:08:42Z</time>
      </trkpt>
      <trkpt lat="44.55415" lon="7.15743">
        <ele>1738.4</ele>
        <time>2022-07-18T11:08:43Z</time>
      </trkpt>
      <trkpt lat="44.55415" lon="7.15741">
        <ele>1738.4</ele>
        <time>2022-07-18T11:08:44Z</time>
      </trkpt>
      <trkpt lat="44.55415" lon="7.15739">
        <ele>1738.8</ele>
        <time>2022-07-18T11:08:45Z</time>
      </trkpt>
      <trkpt lat="44.55415" lon="7.15737">
        <ele>1738.8</ele>
        <time>2022-07-18T11:08:46Z</time>
      </trkpt>
      <trkpt lat="44.55415" lon="7.15735">
        <ele>1739.2</ele>
        <time>2022-07-18T11:08:47Z</time>
      </trkpt>
      <trkpt lat="44.55415" lon="7.15733">
        <ele>1739.2</ele>
        <time>2022-07-18T11:08:48Z</time>
      </trkpt>
      <trkpt lat="44.55415" lon="7.15731">
        <ele>1739.4</ele>
        <time>2022-07-18T11:08:49Z</time>
      </trkpt>
      <trkpt lat="44.55415" lon="7.15729">
        <ele>1739.8</ele>
        <time>2022-07-18T11:08:50Z</time>
      </trkpt>
      <trkpt lat="44.55415" lon="7.15727">
        <ele>1739.8</ele>
        <time>2022-07-18T11:08:51Z</time>
      </trkpt>
      <trkpt lat="44.55415" lon="7.15724">
        <ele>1740</ele>
        <time>2022-07-18T11:08:52Z</time>
      </trkpt>
      <trkpt lat="44.55415" lon="7.15722">
        <ele>1740</ele>
        <time>2022-07-18T11:08:53Z</time>
      </trkpt>
      <trkpt lat="44.55414" lon="7.15721">
        <ele>1740.2</ele>
        <time>2022-07-18T11:08:54Z</time>
      </trkpt>
      <trkpt lat="44.55414" lon="7.15719">
        <ele>1740.2</ele>
        <time>2022-07-18T11:08:55Z</time>
      </trkpt>
      <trkpt lat="44.55414" lon="7.15716">
        <ele>1740.4</ele>
        <time>2022-07-18T11:08:56Z</time>
      </trkpt>
      <trkpt lat="44.55414" lon="7.15714">
        <ele>1740.4</ele>
        <time>2022-07-18T11:08:57Z</time>
      </trkpt>
      <trkpt lat="44.55413" lon="7.15712">
        <ele>1740.8</ele>
        <time>2022-07-18T11:08:58Z</time>
      </trkpt>
      <trkpt lat="44.55413" lon="7.1571">
        <ele>1740.8</ele>
        <time>2022-07-18T11:08:59Z</time>
      </trkpt>
      <trkpt lat="44.55413" lon="7.15708">
        <ele>1741</ele>
        <time>2022-07-18T11:09:00Z</time>
      </trkpt>
      <trkpt lat="44.55413" lon="7.15707">
        <ele>1741.2</ele>
        <time>2022-07-18T11:09:01Z</time>
      </trkpt>
      <trkpt lat="44.55412" lon="7.15705">
        <ele>1741.2</ele>
        <time>2022-07-18T11:09:02Z</time>
      </trkpt>
      <trkpt lat="44.5541" lon="7.15699">
        <ele>1741.8</ele>
        <time>2022-07-18T11:09:06Z</time>
      </trkpt>
      <trkpt lat="44.5541" lon="7.15696">
        <ele>1742.2</ele>
        <time>2022-07-18T11:09:07Z</time>
      </trkpt>
      <trkpt lat="44.55409" lon="7.15694">
        <ele>1742.2</ele>
        <time>2022-07-18T11:09:08Z</time>
      </trkpt>
      <trkpt lat="44.55409" lon="7.15693">
        <ele>1742.4</ele>
        <time>2022-07-18T11:09:09Z</time>
      </trkpt>
      <trkpt lat="44.55409" lon="7.1569">
        <ele>1742.4</ele>
        <time>2022-07-18T11:09:10Z</time>
      </trkpt>
      <trkpt lat="44.55408" lon="7.15688">
        <ele>1742.8</ele>
        <time>2022-07-18T11:09:11Z</time>
      </trkpt>
      <trkpt lat="44.55408" lon="7.15686">
        <ele>1742.8</ele>
        <time>2022-07-18T11:09:12Z</time>
      </trkpt>
      <trkpt lat="44.55407" lon="7.15684">
        <ele>1743</ele>
        <time>2022-07-18T11:09:13Z</time>
      </trkpt>
      <trkpt lat="44.55407" lon="7.15682">
        <ele>1743</ele>
        <time>2022-07-18T11:09:14Z</time>
      </trkpt>
      <trkpt lat="44.55406" lon="7.1568">
        <ele>1743.4</ele>
        <time>2022-07-18T11:09:15Z</time>
      </trkpt>
      <trkpt lat="44.55406" lon="7.15678">
        <ele>1743.4</ele>
        <time>2022-07-18T11:09:16Z</time>
      </trkpt>
      <trkpt lat="44.55405" lon="7.15676">
        <ele>1743.6</ele>
        <time>2022-07-18T11:09:17Z</time>
      </trkpt>
      <trkpt lat="44.55405" lon="7.15675">
        <ele>1743.8</ele>
        <time>2022-07-18T11:09:18Z</time>
      </trkpt>
      <trkpt lat="44.55404" lon="7.15673">
        <ele>1743.8</ele>
        <time>2022-07-18T11:09:19Z</time>
      </trkpt>
      <trkpt lat="44.55403" lon="7.15671">
        <ele>1744.2</ele>
        <time>2022-07-18T11:09:20Z</time>
      </trkpt>
      <trkpt lat="44.55403" lon="7.15669">
        <ele>1744.2</ele>
        <time>2022-07-18T11:09:21Z</time>
      </trkpt>
      <trkpt lat="44.55402" lon="7.15667">
        <ele>1744.4</ele>
        <time>2022-07-18T11:09:22Z</time>
      </trkpt>
      <trkpt lat="44.55401" lon="7.15665">
        <ele>1744.4</ele>
        <time>2022-07-18T11:09:23Z</time>
      </trkpt>
      <trkpt lat="44.554" lon="7.15664">
        <ele>1744.8</ele>
        <time>2022-07-18T11:09:24Z</time>
      </trkpt>
      <trkpt lat="44.55399" lon="7.15662">
        <ele>1744.8</ele>
        <time>2022-07-18T11:09:25Z</time>
      </trkpt>
      <trkpt lat="44.55399" lon="7.1566">
        <ele>1745.2</ele>
        <time>2022-07-18T11:09:26Z</time>
      </trkpt>
      <trkpt lat="44.55398" lon="7.15659">
        <ele>1745.2</ele>
        <time>2022-07-18T11:09:27Z</time>
      </trkpt>
      <trkpt lat="44.55397" lon="7.15657">
        <ele>1745.4</ele>
        <time>2022-07-18T11:09:28Z</time>
      </trkpt>
      <trkpt lat="44.55395" lon="7.15655">
        <ele>1745.4</ele>
        <time>2022-07-18T11:09:29Z</time>
      </trkpt>
      <trkpt lat="44.55394" lon="7.15653">
        <ele>1745.8</ele>
        <time>2022-07-18T11:09:30Z</time>
      </trkpt>
      <trkpt lat="44.55393" lon="7.15651">
        <ele>1745.8</ele>
        <time>2022-07-18T11:09:31Z</time>
      </trkpt>
      <trkpt lat="44.55393" lon="7.15649">
        <ele>1746</ele>
        <time>2022-07-18T11:09:32Z</time>
      </trkpt>
      <trkpt lat="44.55392" lon="7.15647">
        <ele>1746.2</ele>
        <time>2022-07-18T11:09:33Z</time>
      </trkpt>
      <trkpt lat="44.55391" lon="7.15645">
        <ele>1746.2</ele>
        <time>2022-07-18T11:09:34Z</time>
      </trkpt>
      <trkpt lat="44.5539" lon="7.15643">
        <ele>1746.4</ele>
        <time>2022-07-18T11:09:35Z</time>
      </trkpt>
      <trkpt lat="44.55389" lon="7.15641">
        <ele>1746.4</ele>
        <time>2022-07-18T11:09:36Z</time>
      </trkpt>
      <trkpt lat="44.55389" lon="7.15639">
        <ele>1746.6</ele>
        <time>2022-07-18T11:09:37Z</time>
      </trkpt>
      <trkpt lat="44.55388" lon="7.15637">
        <ele>1746.6</ele>
        <time>2022-07-18T11:09:38Z</time>
      </trkpt>
      <trkpt lat="44.55387" lon="7.15635">
        <ele>1747</ele>
        <time>2022-07-18T11:09:39Z</time>
      </trkpt>
      <trkpt lat="44.55386" lon="7.15633">
        <ele>1747</ele>
        <time>2022-07-18T11:09:40Z</time>
      </trkpt>
      <trkpt lat="44.55385" lon="7.15631">
        <ele>1747.4</ele>
        <time>2022-07-18T11:09:41Z</time>
      </trkpt>
      <trkpt lat="44.55384" lon="7.15629">
        <ele>1747.4</ele>
        <time>2022-07-18T11:09:42Z</time>
      </trkpt>
      <trkpt lat="44.55384" lon="7.15627">
        <ele>1747.8</ele>
        <time>2022-07-18T11:09:43Z</time>
      </trkpt>
      <trkpt lat="44.55383" lon="7.15625">
        <ele>1747.8</ele>
        <time>2022-07-18T11:09:44Z</time>
      </trkpt>
      <trkpt lat="44.55383" lon="7.15623">
        <ele>1748</ele>
        <time>2022-07-18T11:09:45Z</time>
      </trkpt>
      <trkpt lat="44.55382" lon="7.15621">
        <ele>1748</ele>
        <time>2022-07-18T11:09:46Z</time>
      </trkpt>
      <trkpt lat="44.55382" lon="7.15619">
        <ele>1748.2</ele>
        <time>2022-07-18T11:09:47Z</time>
      </trkpt>
      <trkpt lat="44.55382" lon="7.15617">
        <ele>1748.2</ele>
        <time>2022-07-18T11:09:48Z</time>
      </trkpt>
      <trkpt lat="44.55383" lon="7.15615">
        <ele>1748.6</ele>
        <time>2022-07-18T11:09:49Z</time>
      </trkpt>
      <trkpt lat="44.55383" lon="7.15613">
        <ele>1748.6</ele>
        <time>2022-07-18T11:09:50Z</time>
      </trkpt>
      <trkpt lat="44.55383" lon="7.1561">
        <ele>1749</ele>
        <time>2022-07-18T11:09:51Z</time>
      </trkpt>
      <trkpt lat="44.55383" lon="7.15608">
        <ele>1749</ele>
        <time>2022-07-18T11:09:52Z</time>
      </trkpt>
      <trkpt lat="44.55383" lon="7.15606">
        <ele>1749.2</ele>
        <time>2022-07-18T11:09:53Z</time>
      </trkpt>
      <trkpt lat="44.55384" lon="7.15604">
        <ele>1749.2</ele>
        <time>2022-07-18T11:09:54Z</time>
      </trkpt>
      <trkpt lat="44.55384" lon="7.15602">
        <ele>1749.6</ele>
        <time>2022-07-18T11:09:55Z</time>
      </trkpt>
      <trkpt lat="44.55384" lon="7.156">
        <ele>1749.6</ele>
        <time>2022-07-18T11:09:56Z</time>
      </trkpt>
      <trkpt lat="44.55385" lon="7.15599">
        <ele>1749.8</ele>
        <time>2022-07-18T11:09:57Z</time>
      </trkpt>
      <trkpt lat="44.55385" lon="7.15596">
        <ele>1749.8</ele>
        <time>2022-07-18T11:09:58Z</time>
      </trkpt>
      <trkpt lat="44.55385" lon="7.15594">
        <ele>1750.2</ele>
        <time>2022-07-18T11:09:59Z</time>
      </trkpt>
      <trkpt lat="44.55386" lon="7.15591">
        <ele>1750.2</ele>
        <time>2022-07-18T11:10:00Z</time>
      </trkpt>
      <trkpt lat="44.55386" lon="7.15591">
        <ele>1750.4</ele>
        <time>2022-07-18T11:10:01Z</time>
      </trkpt>
      <trkpt lat="44.55386" lon="7.15591">
        <ele>1750.4</ele>
        <time>2022-07-18T11:10:02Z</time>
      </trkpt>
      <trkpt lat="44.55386" lon="7.15591">
        <ele>1750.4</ele>
        <time>2022-07-18T11:10:03Z</time>
      </trkpt>
      <trkpt lat="44.55386" lon="7.15591">
        <ele>1750.4</ele>
        <time>2022-07-18T11:10:04Z</time>
      </trkpt>
      <trkpt lat="44.55386" lon="7.1559">
        <ele>1750.6</ele>
        <time>2022-07-18T11:10:07Z</time>
      </trkpt>
      <trkpt lat="44.55386" lon="7.1559">
        <ele>1750.6</ele>
        <time>2022-07-18T11:10:08Z</time>
      </trkpt>
      <trkpt lat="44.55386" lon="7.1559">
        <ele>1750.8</ele>
        <time>2022-07-18T11:10:10Z</time>
      </trkpt>
      <trkpt lat="44.55387" lon="7.1559">
        <ele>1750.8</ele>
        <time>2022-07-18T11:10:11Z</time>
      </trkpt>
      <trkpt lat="44.55387" lon="7.1559">
        <ele>1750.8</ele>
        <time>2022-07-18T11:10:12Z</time>
      </trkpt>
      <trkpt lat="44.55387" lon="7.15589">
        <ele>1750.8</ele>
        <time>2022-07-18T11:10:13Z</time>
      </trkpt>
      <trkpt lat="44.55387" lon="7.15589">
        <ele>1751</ele>
        <time>2022-07-18T11:10:14Z</time>
      </trkpt>
      <trkpt lat="44.55387" lon="7.15589">
        <ele>1751</ele>
        <time>2022-07-18T11:10:15Z</time>
      </trkpt>
      <trkpt lat="44.55387" lon="7.15589">
        <ele>1751</ele>
        <time>2022-07-18T11:10:16Z</time>
      </trkpt>
      <trkpt lat="44.55387" lon="7.15589">
        <ele>1751</ele>
        <time>2022-07-18T11:10:17Z</time>
      </trkpt>
      <trkpt lat="44.55388" lon="7.15589">
        <ele>1751</ele>
        <time>2022-07-18T11:10:18Z</time>
      </trkpt>
      <trkpt lat="44.55388" lon="7.15588">
        <ele>1751</ele>
        <time>2022-07-18T11:10:19Z</time>
      </trkpt>
      <trkpt lat="44.55388" lon="7.15588">
        <ele>1751</ele>
        <time>2022-07-18T11:10:22Z</time>
      </trkpt>
      <trkpt lat="44.55388" lon="7.15588">
        <ele>1751</ele>
        <time>2022-07-18T11:10:23Z</time>
      </trkpt>
      <trkpt lat="44.55388" lon="7.15588">
        <ele>1751</ele>
        <time>2022-07-18T11:10:24Z</time>
      </trkpt>
      <trkpt lat="44.55388" lon="7.15588">
        <ele>1751</ele>
        <time>2022-07-18T11:10:25Z</time>
      </trkpt>
      <trkpt lat="44.55388" lon="7.15588">
        <ele>1751</ele>
        <time>2022-07-18T11:10:26Z</time>
      </trkpt>
      <trkpt lat="44.55388" lon="7.15587">
        <ele>1751</ele>
        <time>2022-07-18T11:10:27Z</time>
      </trkpt>
      <trkpt lat="44.55389" lon="7.15587">
        <ele>1751</ele>
        <time>2022-07-18T11:10:28Z</time>
      </trkpt>
      <trkpt lat="44.55389" lon="7.15587">
        <ele>1751</ele>
        <time>2022-07-18T11:10:29Z</time>
      </trkpt>
      <trkpt lat="44.55389" lon="7.15587">
        <ele>1751</ele>
        <time>2022-07-18T11:10:30Z</time>
      </trkpt>
      <trkpt lat="44.55389" lon="7.15587">
        <ele>1751</ele>
        <time>2022-07-18T11:10:31Z</time>
      </trkpt>
      <trkpt lat="44.55389" lon="7.15587">
        <ele>1751</ele>
        <time>2022-07-18T11:10:36Z</time>
      </trkpt>
      <trkpt lat="44.55389" lon="7.15586">
        <ele>1751</ele>
        <time>2022-07-18T11:10:37Z</time>
      </trkpt>
      <trkpt lat="44.55389" lon="7.15586">
        <ele>1751</ele>
        <time>2022-07-18T11:13:49Z</time>
      </trkpt>
      <trkpt lat="44.5539" lon="7.15586">
        <ele>1751</ele>
        <time>2022-07-18T11:13:50Z</time>
      </trkpt>
      <trkpt lat="44.5539" lon="7.15586">
        <ele>1751</ele>
        <time>2022-07-18T11:13:51Z</time>
      </trkpt>
      <trkpt lat="44.5539" lon="7.15586">
        <ele>1751</ele>
        <time>2022-07-18T11:13:52Z</time>
      </trkpt>
      <trkpt lat="44.5539" lon="7.15585">
        <ele>1751.2</ele>
        <time>2022-07-18T11:13:53Z</time>
      </trkpt>
      <trkpt lat="44.5539" lon="7.15585">
        <ele>1751.2</ele>
        <time>2022-07-18T11:13:54Z</time>
      </trkpt>
      <trkpt lat="44.5539" lon="7.15585">
        <ele>1751.2</ele>
        <time>2022-07-18T11:13:55Z</time>
      </trkpt>
      <trkpt lat="44.5539" lon="7.15585">
        <ele>1751.2</ele>
        <time>2022-07-18T11:13:56Z</time>
      </trkpt>
      <trkpt lat="44.5539" lon="7.15585">
        <ele>1751.2</ele>
        <time>2022-07-18T11:13:57Z</time>
      </trkpt>
      <trkpt lat="44.55391" lon="7.15585">
        <ele>1751.2</ele>
        <time>2022-07-18T11:13:58Z</time>
      </trkpt>
      <trkpt lat="44.55391" lon="7.15584">
        <ele>1751.2</ele>
        <time>2022-07-18T11:14:00Z</time>
      </trkpt>
      <trkpt lat="44.55391" lon="7.15584">
        <ele>1751.2</ele>
        <time>2022-07-18T11:14:01Z</time>
      </trkpt>
      <trkpt lat="44.55391" lon="7.15584">
        <ele>1751.2</ele>
        <time>2022-07-18T11:14:02Z</time>
      </trkpt>
      <trkpt lat="44.55391" lon="7.15584">
        <ele>1751.2</ele>
        <time>2022-07-18T11:14:03Z</time>
      </trkpt>
      <trkpt lat="44.55391" lon="7.15584">
        <ele>1751.2</ele>
        <time>2022-07-18T11:14:04Z</time>
      </trkpt>
      <trkpt lat="44.55391" lon="7.15584">
        <ele>1751.2</ele>
        <time>2022-07-18T11:14:05Z</time>
      </trkpt>
      <trkpt lat="44.55393" lon="7.15583">
        <ele>1751.6</ele>
        <time>2022-07-18T11:14:06Z</time>
      </trkpt>
      <trkpt lat="44.55394" lon="7.15582">
        <ele>1751.6</ele>
        <time>2022-07-18T11:14:07Z</time>
      </trkpt>
      <trkpt lat="44.55395" lon="7.1558">
        <ele>1751.6</ele>
        <time>2022-07-18T11:14:08Z</time>
      </trkpt>
      <trkpt lat="44.55396" lon="7.15579">
        <ele>1752</ele>
        <time>2022-07-18T11:14:09Z</time>
      </trkpt>
      <trkpt lat="44.55397" lon="7.15579">
        <ele>1752</ele>
        <time>2022-07-18T11:14:10Z</time>
      </trkpt>
      <trkpt lat="44.55398" lon="7.15578">
        <ele>1752.2</ele>
        <time>2022-07-18T11:14:11Z</time>
      </trkpt>
      <trkpt lat="44.55399" lon="7.15578">
        <ele>1752.2</ele>
        <time>2022-07-18T11:14:12Z</time>
      </trkpt>
      <trkpt lat="44.554" lon="7.15577">
        <ele>1752.4</ele>
        <time>2022-07-18T11:14:13Z</time>
      </trkpt>
      <trkpt lat="44.55402" lon="7.15577">
        <ele>1752.4</ele>
        <time>2022-07-18T11:14:14Z</time>
      </trkpt>
      <trkpt lat="44.55403" lon="7.15576">
        <ele>1752.6</ele>
        <time>2022-07-18T11:14:15Z</time>
      </trkpt>
      <trkpt lat="44.55405" lon="7.15574">
        <ele>1752.6</ele>
        <time>2022-07-18T11:14:16Z</time>
      </trkpt>
      <trkpt lat="44.55406" lon="7.15574">
        <ele>1752.6</ele>
        <time>2022-07-18T11:14:17Z</time>
      </trkpt>
      <trkpt lat="44.55408" lon="7.15573">
        <ele>1752.8</ele>
        <time>2022-07-18T11:14:18Z</time>
      </trkpt>
      <trkpt lat="44.55409" lon="7.15573">
        <ele>1752.8</ele>
        <time>2022-07-18T11:14:19Z</time>
      </trkpt>
      <trkpt lat="44.5541" lon="7.15572">
        <ele>1752.8</ele>
        <time>2022-07-18T11:14:20Z</time>
      </trkpt>
      <trkpt lat="44.55412" lon="7.15572">
        <ele>1753.2</ele>
        <time>2022-07-18T11:14:21Z</time>
      </trkpt>
      <trkpt lat="44.55414" lon="7.15571">
        <ele>1753.2</ele>
        <time>2022-07-18T11:14:22Z</time>
      </trkpt>
      <trkpt lat="44.55416" lon="7.15569">
        <ele>1753.2</ele>
        <time>2022-07-18T11:14:23Z</time>
      </trkpt>
      <trkpt lat="44.55418" lon="7.15568">
        <ele>1753.4</ele>
        <time>2022-07-18T11:14:24Z</time>
      </trkpt>
      <trkpt lat="44.5542" lon="7.15567">
        <ele>1753.4</ele>
        <time>2022-07-18T11:14:25Z</time>
      </trkpt>
      <trkpt lat="44.55422" lon="7.15566">
        <ele>1753.8</ele>
        <time>2022-07-18T11:14:26Z</time>
      </trkpt>
      <trkpt lat="44.55423" lon="7.15566">
        <ele>1753.8</ele>
        <time>2022-07-18T11:14:27Z</time>
      </trkpt>
      <trkpt lat="44.55425" lon="7.15565">
        <ele>1754</ele>
        <time>2022-07-18T11:14:28Z</time>
      </trkpt>
      <trkpt lat="44.55426" lon="7.15565">
        <ele>1754</ele>
        <time>2022-07-18T11:14:29Z</time>
      </trkpt>
      <trkpt lat="44.55428" lon="7.15564">
        <ele>1754.4</ele>
        <time>2022-07-18T11:14:30Z</time>
      </trkpt>
      <trkpt lat="44.5543" lon="7.15564">
        <ele>1754.4</ele>
        <time>2022-07-18T11:14:31Z</time>
      </trkpt>
      <trkpt lat="44.55431" lon="7.15563">
        <ele>1754.6</ele>
        <time>2022-07-18T11:14:32Z</time>
      </trkpt>
      <trkpt lat="44.55433" lon="7.15563">
        <ele>1754.6</ele>
        <time>2022-07-18T11:14:33Z</time>
      </trkpt>
      <trkpt lat="44.55434" lon="7.15562">
        <ele>1754.8</ele>
        <time>2022-07-18T11:14:34Z</time>
      </trkpt>
      <trkpt lat="44.55436" lon="7.15561">
        <ele>1754.8</ele>
        <time>2022-07-18T11:14:35Z</time>
      </trkpt>
      <trkpt lat="44.55438" lon="7.15561">
        <ele>1755.2</ele>
        <time>2022-07-18T11:14:36Z</time>
      </trkpt>
      <trkpt lat="44.55439" lon="7.15561">
        <ele>1755.2</ele>
        <time>2022-07-18T11:14:37Z</time>
      </trkpt>
      <trkpt lat="44.55441" lon="7.15561">
        <ele>1755.4</ele>
        <time>2022-07-18T11:14:38Z</time>
      </trkpt>
      <trkpt lat="44.55442" lon="7.1556">
        <ele>1755.4</ele>
        <time>2022-07-18T11:14:39Z</time>
      </trkpt>
      <trkpt lat="44.55444" lon="7.15559">
        <ele>1755.8</ele>
        <time>2022-07-18T11:14:40Z</time>
      </trkpt>
      <trkpt lat="44.55445" lon="7.15558">
        <ele>1755.8</ele>
        <time>2022-07-18T11:14:41Z</time>
      </trkpt>
      <trkpt lat="44.55447" lon="7.15556">
        <ele>1756</ele>
        <time>2022-07-18T11:14:42Z</time>
      </trkpt>
      <trkpt lat="44.55449" lon="7.15555">
        <ele>1756</ele>
        <time>2022-07-18T11:14:43Z</time>
      </trkpt>
      <trkpt lat="44.55451" lon="7.15554">
        <ele>1756.4</ele>
        <time>2022-07-18T11:14:44Z</time>
      </trkpt>
      <trkpt lat="44.55453" lon="7.15552">
        <ele>1756.4</ele>
        <time>2022-07-18T11:14:45Z</time>
      </trkpt>
      <trkpt lat="44.55454" lon="7.1555">
        <ele>1756.6</ele>
        <time>2022-07-18T11:14:46Z</time>
      </trkpt>
      <trkpt lat="44.55455" lon="7.15548">
        <ele>1756.6</ele>
        <time>2022-07-18T11:14:47Z</time>
      </trkpt>
      <trkpt lat="44.55457" lon="7.15546">
        <ele>1757</ele>
        <time>2022-07-18T11:14:48Z</time>
      </trkpt>
      <trkpt lat="44.55458" lon="7.15544">
        <ele>1757.2</ele>
        <time>2022-07-18T11:14:49Z</time>
      </trkpt>
      <trkpt lat="44.55459" lon="7.15542">
        <ele>1757.2</ele>
        <time>2022-07-18T11:14:50Z</time>
      </trkpt>
      <trkpt lat="44.5546" lon="7.15539">
        <ele>1757.4</ele>
        <time>2022-07-18T11:14:51Z</time>
      </trkpt>
      <trkpt lat="44.55462" lon="7.15537">
        <ele>1757.4</ele>
        <time>2022-07-18T11:14:52Z</time>
      </trkpt>
      <trkpt lat="44.55463" lon="7.15535">
        <ele>1757.8</ele>
        <time>2022-07-18T11:14:53Z</time>
      </trkpt>
      <trkpt lat="44.55464" lon="7.15532">
        <ele>1757.8</ele>
        <time>2022-07-18T11:14:54Z</time>
      </trkpt>
      <trkpt lat="44.55465" lon="7.1553">
        <ele>1757.8</ele>
        <time>2022-07-18T11:14:55Z</time>
      </trkpt>
      <trkpt lat="44.55466" lon="7.15527">
        <ele>1758</ele>
        <time>2022-07-18T11:14:56Z</time>
      </trkpt>
      <trkpt lat="44.55466" lon="7.15525">
        <ele>1758</ele>
        <time>2022-07-18T11:14:57Z</time>
      </trkpt>
      <trkpt lat="44.55467" lon="7.15522">
        <ele>1758.4</ele>
        <time>2022-07-18T11:14:58Z</time>
      </trkpt>
      <trkpt lat="44.55468" lon="7.1552">
        <ele>1758.4</ele>
        <time>2022-07-18T11:14:59Z</time>
      </trkpt>
      <trkpt lat="44.55469" lon="7.15518">
        <ele>1758.6</ele>
        <time>2022-07-18T11:15:00Z</time>
      </trkpt>
      <trkpt lat="44.5547" lon="7.15515">
        <ele>1758.6</ele>
        <time>2022-07-18T11:15:01Z</time>
      </trkpt>
      <trkpt lat="44.5547" lon="7.15513">
        <ele>1758.8</ele>
        <time>2022-07-18T11:15:02Z</time>
      </trkpt>
      <trkpt lat="44.55471" lon="7.15511">
        <ele>1758.8</ele>
        <time>2022-07-18T11:15:03Z</time>
      </trkpt>
      <trkpt lat="44.55471" lon="7.15508">
        <ele>1759.2</ele>
        <time>2022-07-18T11:15:04Z</time>
      </trkpt>
      <trkpt lat="44.55472" lon="7.15506">
        <ele>1759.2</ele>
        <time>2022-07-18T11:15:05Z</time>
      </trkpt>
      <trkpt lat="44.55473" lon="7.15503">
        <ele>1759.2</ele>
        <time>2022-07-18T11:15:06Z</time>
      </trkpt>
      <trkpt lat="44.55473" lon="7.155">
        <ele>1759.4</ele>
        <time>2022-07-18T11:15:07Z</time>
      </trkpt>
      <trkpt lat="44.55474" lon="7.15498">
        <ele>1759.4</ele>
        <time>2022-07-18T11:15:08Z</time>
      </trkpt>
      <trkpt lat="44.55475" lon="7.15495">
        <ele>1759.8</ele>
        <time>2022-07-18T11:15:09Z</time>
      </trkpt>
      <trkpt lat="44.55475" lon="7.15493">
        <ele>1759.8</ele>
        <time>2022-07-18T11:15:10Z</time>
      </trkpt>
      <trkpt lat="44.55476" lon="7.1549">
        <ele>1760</ele>
        <time>2022-07-18T11:15:11Z</time>
      </trkpt>
      <trkpt lat="44.55476" lon="7.15488">
        <ele>1760</ele>
        <time>2022-07-18T11:15:12Z</time>
      </trkpt>
      <trkpt lat="44.55477" lon="7.15485">
        <ele>1760</ele>
        <time>2022-07-18T11:15:13Z</time>
      </trkpt>
      <trkpt lat="44.55478" lon="7.15483">
        <ele>1760.4</ele>
        <time>2022-07-18T11:15:14Z</time>
      </trkpt>
      <trkpt lat="44.55478" lon="7.15481">
        <ele>1760.4</ele>
        <time>2022-07-18T11:15:15Z</time>
      </trkpt>
      <trkpt lat="44.55479" lon="7.15478">
        <ele>1760.6</ele>
        <time>2022-07-18T11:15:16Z</time>
      </trkpt>
      <trkpt lat="44.55479" lon="7.15476">
        <ele>1760.6</ele>
        <time>2022-07-18T11:15:17Z</time>
      </trkpt>
      <trkpt lat="44.5548" lon="7.15473">
        <ele>1760.8</ele>
        <time>2022-07-18T11:15:18Z</time>
      </trkpt>
      <trkpt lat="44.5548" lon="7.15471">
        <ele>1760.8</ele>
        <time>2022-07-18T11:15:19Z</time>
      </trkpt>
      <trkpt lat="44.55481" lon="7.15468">
        <ele>1761.2</ele>
        <time>2022-07-18T11:15:20Z</time>
      </trkpt>
      <trkpt lat="44.55481" lon="7.15466">
        <ele>1761.2</ele>
        <time>2022-07-18T11:15:21Z</time>
      </trkpt>
      <trkpt lat="44.55482" lon="7.15464">
        <ele>1761.4</ele>
        <time>2022-07-18T11:15:22Z</time>
      </trkpt>
      <trkpt lat="44.55483" lon="7.15462">
        <ele>1761.4</ele>
        <time>2022-07-18T11:15:23Z</time>
      </trkpt>
      <trkpt lat="44.55484" lon="7.1546">
        <ele>1761.6</ele>
        <time>2022-07-18T11:15:24Z</time>
      </trkpt>
      <trkpt lat="44.55486" lon="7.15458">
        <ele>1761.6</ele>
        <time>2022-07-18T11:15:25Z</time>
      </trkpt>
      <trkpt lat="44.55487" lon="7.15457">
        <ele>1762</ele>
        <time>2022-07-18T11:15:26Z</time>
      </trkpt>
      <trkpt lat="44.55488" lon="7.15455">
        <ele>1762</ele>
        <time>2022-07-18T11:15:27Z</time>
      </trkpt>
      <trkpt lat="44.5549" lon="7.15454">
        <ele>1762.2</ele>
        <time>2022-07-18T11:15:28Z</time>
      </trkpt>
      <trkpt lat="44.55492" lon="7.15453">
        <ele>1762.2</ele>
        <time>2022-07-18T11:15:29Z</time>
      </trkpt>
      <trkpt lat="44.55494" lon="7.15451">
        <ele>1762.2</ele>
        <time>2022-07-18T11:15:30Z</time>
      </trkpt>
      <trkpt lat="44.55495" lon="7.1545">
        <ele>1762.6</ele>
        <time>2022-07-18T11:15:31Z</time>
      </trkpt>
      <trkpt lat="44.55497" lon="7.15449">
        <ele>1762.6</ele>
        <time>2022-07-18T11:15:32Z</time>
      </trkpt>
      <trkpt lat="44.55499" lon="7.15449">
        <ele>1763</ele>
        <time>2022-07-18T11:15:33Z</time>
      </trkpt>
      <trkpt lat="44.555" lon="7.15448">
        <ele>1763</ele>
        <time>2022-07-18T11:15:34Z</time>
      </trkpt>
      <trkpt lat="44.55502" lon="7.15447">
        <ele>1763.2</ele>
        <time>2022-07-18T11:15:35Z</time>
      </trkpt>
      <trkpt lat="44.55504" lon="7.15447">
        <ele>1763.2</ele>
        <time>2022-07-18T11:15:36Z</time>
      </trkpt>
      <trkpt lat="44.55506" lon="7.15447">
        <ele>1763.4</ele>
        <time>2022-07-18T11:15:37Z</time>
      </trkpt>
      <trkpt lat="44.55508" lon="7.15447">
        <ele>1763.4</ele>
        <time>2022-07-18T11:15:38Z</time>
      </trkpt>
      <trkpt lat="44.5551" lon="7.15446">
        <ele>1763.8</ele>
        <time>2022-07-18T11:15:39Z</time>
      </trkpt>
      <trkpt lat="44.55512" lon="7.15446">
        <ele>1763.8</ele>
        <time>2022-07-18T11:15:40Z</time>
      </trkpt>
      <trkpt lat="44.55513" lon="7.15445">
        <ele>1764.2</ele>
        <time>2022-07-18T11:15:41Z</time>
      </trkpt>
      <trkpt lat="44.55516" lon="7.15444">
        <ele>1764.4</ele>
        <time>2022-07-18T11:15:42Z</time>
      </trkpt>
      <trkpt lat="44.55518" lon="7.15444">
        <ele>1764.4</ele>
        <time>2022-07-18T11:15:43Z</time>
      </trkpt>
      <trkpt lat="44.5552" lon="7.15444">
        <ele>1764.6</ele>
        <time>2022-07-18T11:15:44Z</time>
      </trkpt>
      <trkpt lat="44.55522" lon="7.15443">
        <ele>1764.6</ele>
        <time>2022-07-18T11:15:45Z</time>
      </trkpt>
      <trkpt lat="44.55525" lon="7.15443">
        <ele>1765</ele>
        <time>2022-07-18T11:15:47Z</time>
      </trkpt>
      <trkpt lat="44.55527" lon="7.15442">
        <ele>1765.2</ele>
        <time>2022-07-18T11:15:48Z</time>
      </trkpt>
      <trkpt lat="44.55529" lon="7.15441">
        <ele>1765.2</ele>
        <time>2022-07-18T11:15:49Z</time>
      </trkpt>
      <trkpt lat="44.55531" lon="7.15441">
        <ele>1765.6</ele>
        <time>2022-07-18T11:15:50Z</time>
      </trkpt>
      <trkpt lat="44.55533" lon="7.1544">
        <ele>1765.6</ele>
        <time>2022-07-18T11:15:51Z</time>
      </trkpt>
      <trkpt lat="44.55535" lon="7.15439">
        <ele>1765.6</ele>
        <time>2022-07-18T11:15:52Z</time>
      </trkpt>
      <trkpt lat="44.55537" lon="7.15439">
        <ele>1766</ele>
        <time>2022-07-18T11:15:53Z</time>
      </trkpt>
      <trkpt lat="44.55539" lon="7.15438">
        <ele>1766</ele>
        <time>2022-07-18T11:15:54Z</time>
      </trkpt>
      <trkpt lat="44.55541" lon="7.15438">
        <ele>1766.2</ele>
        <time>2022-07-18T11:15:55Z</time>
      </trkpt>
      <trkpt lat="44.55544" lon="7.15438">
        <ele>1766.2</ele>
        <time>2022-07-18T11:15:56Z</time>
      </trkpt>
      <trkpt lat="44.55546" lon="7.15437">
        <ele>1766.6</ele>
        <time>2022-07-18T11:15:57Z</time>
      </trkpt>
      <trkpt lat="44.55548" lon="7.15437">
        <ele>1766.6</ele>
        <time>2022-07-18T11:15:58Z</time>
      </trkpt>
      <trkpt lat="44.5555" lon="7.15436">
        <ele>1766.8</ele>
        <time>2022-07-18T11:15:59Z</time>
      </trkpt>
      <trkpt lat="44.55552" lon="7.15435">
        <ele>1766.8</ele>
        <time>2022-07-18T11:16:00Z</time>
      </trkpt>
      <trkpt lat="44.55554" lon="7.15435">
        <ele>1767.2</ele>
        <time>2022-07-18T11:16:01Z</time>
      </trkpt>
      <trkpt lat="44.55556" lon="7.15434">
        <ele>1767.2</ele>
        <time>2022-07-18T11:16:02Z</time>
      </trkpt>
      <trkpt lat="44.55558" lon="7.15434">
        <ele>1767.4</ele>
        <time>2022-07-18T11:16:03Z</time>
      </trkpt>
      <trkpt lat="44.55561" lon="7.15433">
        <ele>1767.4</ele>
        <time>2022-07-18T11:16:04Z</time>
      </trkpt>
      <trkpt lat="44.55563" lon="7.15433">
        <ele>1767.8</ele>
        <time>2022-07-18T11:16:05Z</time>
      </trkpt>
      <trkpt lat="44.55565" lon="7.15432">
        <ele>1768</ele>
        <time>2022-07-18T11:16:06Z</time>
      </trkpt>
      <trkpt lat="44.55566" lon="7.15431">
        <ele>1768</ele>
        <time>2022-07-18T11:16:07Z</time>
      </trkpt>
      <trkpt lat="44.55568" lon="7.15431">
        <ele>1768.2</ele>
        <time>2022-07-18T11:16:08Z</time>
      </trkpt>
      <trkpt lat="44.5557" lon="7.1543">
        <ele>1768.4</ele>
        <time>2022-07-18T11:16:09Z</time>
      </trkpt>
      <trkpt lat="44.55572" lon="7.15429">
        <ele>1768.6</ele>
        <time>2022-07-18T11:16:10Z</time>
      </trkpt>
      <trkpt lat="44.55575" lon="7.15429">
        <ele>1768.6</ele>
        <time>2022-07-18T11:16:11Z</time>
      </trkpt>
      <trkpt lat="44.55577" lon="7.15429">
        <ele>1769</ele>
        <time>2022-07-18T11:16:12Z</time>
      </trkpt>
      <trkpt lat="44.55579" lon="7.15428">
        <ele>1769.2</ele>
        <time>2022-07-18T11:16:13Z</time>
      </trkpt>
      <trkpt lat="44.55581" lon="7.15427">
        <ele>1769.2</ele>
        <time>2022-07-18T11:16:14Z</time>
      </trkpt>
      <trkpt lat="44.55583" lon="7.15427">
        <ele>1769.6</ele>
        <time>2022-07-18T11:16:15Z</time>
      </trkpt>
      <trkpt lat="44.55585" lon="7.15426">
        <ele>1769.6</ele>
        <time>2022-07-18T11:16:16Z</time>
      </trkpt>
      <trkpt lat="44.55587" lon="7.15425">
        <ele>1769.8</ele>
        <time>2022-07-18T11:16:17Z</time>
      </trkpt>
      <trkpt lat="44.55589" lon="7.15424">
        <ele>1769.8</ele>
        <time>2022-07-18T11:16:18Z</time>
      </trkpt>
      <trkpt lat="44.55591" lon="7.15423">
        <ele>1770</ele>
        <time>2022-07-18T11:16:19Z</time>
      </trkpt>
      <trkpt lat="44.55592" lon="7.15422">
        <ele>1770</ele>
        <time>2022-07-18T11:16:20Z</time>
      </trkpt>
      <trkpt lat="44.55594" lon="7.15422">
        <ele>1770.4</ele>
        <time>2022-07-18T11:16:21Z</time>
      </trkpt>
      <trkpt lat="44.55596" lon="7.1542">
        <ele>1770.4</ele>
        <time>2022-07-18T11:16:22Z</time>
      </trkpt>
      <trkpt lat="44.55598" lon="7.15419">
        <ele>1770.6</ele>
        <time>2022-07-18T11:16:23Z</time>
      </trkpt>
      <trkpt lat="44.556" lon="7.15418">
        <ele>1770.6</ele>
        <time>2022-07-18T11:16:24Z</time>
      </trkpt>
      <trkpt lat="44.55602" lon="7.15417">
        <ele>1771</ele>
        <time>2022-07-18T11:16:25Z</time>
      </trkpt>
      <trkpt lat="44.55604" lon="7.15416">
        <ele>1771</ele>
        <time>2022-07-18T11:16:26Z</time>
      </trkpt>
      <trkpt lat="44.55605" lon="7.15415">
        <ele>1771.2</ele>
        <time>2022-07-18T11:16:27Z</time>
      </trkpt>
      <trkpt lat="44.55607" lon="7.15414">
        <ele>1771.2</ele>
        <time>2022-07-18T11:16:28Z</time>
      </trkpt>
      <trkpt lat="44.55609" lon="7.15412">
        <ele>1771.6</ele>
        <time>2022-07-18T11:16:29Z</time>
      </trkpt>
      <trkpt lat="44.55611" lon="7.15411">
        <ele>1771.6</ele>
        <time>2022-07-18T11:16:30Z</time>
      </trkpt>
      <trkpt lat="44.55613" lon="7.1541">
        <ele>1772</ele>
        <time>2022-07-18T11:16:31Z</time>
      </trkpt>
      <trkpt lat="44.55615" lon="7.15409">
        <ele>1772</ele>
        <time>2022-07-18T11:16:32Z</time>
      </trkpt>
      <trkpt lat="44.55616" lon="7.15407">
        <ele>1772.4</ele>
        <time>2022-07-18T11:16:33Z</time>
      </trkpt>
      <trkpt lat="44.55618" lon="7.15406">
        <ele>1772.4</ele>
        <time>2022-07-18T11:16:34Z</time>
      </trkpt>
      <trkpt lat="44.5562" lon="7.15405">
        <ele>1772.6</ele>
        <time>2022-07-18T11:16:35Z</time>
      </trkpt>
      <trkpt lat="44.55622" lon="7.15404">
        <ele>1772.6</ele>
        <time>2022-07-18T11:16:36Z</time>
      </trkpt>
      <trkpt lat="44.55624" lon="7.15403">
        <ele>1773</ele>
        <time>2022-07-18T11:16:37Z</time>
      </trkpt>
      <trkpt lat="44.55626" lon="7.15402">
        <ele>1773</ele>
        <time>2022-07-18T11:16:38Z</time>
      </trkpt>
      <trkpt lat="44.55628" lon="7.154">
        <ele>1773</ele>
        <time>2022-07-18T11:16:39Z</time>
      </trkpt>
      <trkpt lat="44.5563" lon="7.15399">
        <ele>1773.2</ele>
        <time>2022-07-18T11:16:40Z</time>
      </trkpt>
      <trkpt lat="44.55632" lon="7.15398">
        <ele>1773.2</ele>
        <time>2022-07-18T11:16:41Z</time>
      </trkpt>
      <trkpt lat="44.55633" lon="7.15398">
        <ele>1773.6</ele>
        <time>2022-07-18T11:16:42Z</time>
      </trkpt>
      <trkpt lat="44.55635" lon="7.15397">
        <ele>1773.8</ele>
        <time>2022-07-18T11:16:43Z</time>
      </trkpt>
      <trkpt lat="44.55637" lon="7.15395">
        <ele>1774</ele>
        <time>2022-07-18T11:16:44Z</time>
      </trkpt>
      <trkpt lat="44.55639" lon="7.15394">
        <ele>1774</ele>
        <time>2022-07-18T11:16:45Z</time>
      </trkpt>
      <trkpt lat="44.55641" lon="7.15394">
        <ele>1774.4</ele>
        <time>2022-07-18T11:16:46Z</time>
      </trkpt>
      <trkpt lat="44.55642" lon="7.15393">
        <ele>1774.4</ele>
        <time>2022-07-18T11:16:47Z</time>
      </trkpt>
      <trkpt lat="44.55644" lon="7.15392">
        <ele>1774.6</ele>
        <time>2022-07-18T11:16:48Z</time>
      </trkpt>
      <trkpt lat="44.55646" lon="7.15391">
        <ele>1774.6</ele>
        <time>2022-07-18T11:16:49Z</time>
      </trkpt>
      <trkpt lat="44.55647" lon="7.1539">
        <ele>1775</ele>
        <time>2022-07-18T11:16:50Z</time>
      </trkpt>
      <trkpt lat="44.55649" lon="7.1539">
        <ele>1775</ele>
        <time>2022-07-18T11:16:51Z</time>
      </trkpt>
      <trkpt lat="44.55651" lon="7.1539">
        <ele>1775.4</ele>
        <time>2022-07-18T11:16:52Z</time>
      </trkpt>
      <trkpt lat="44.55653" lon="7.1539">
        <ele>1775.4</ele>
        <time>2022-07-18T11:16:53Z</time>
      </trkpt>
      <trkpt lat="44.55655" lon="7.1539">
        <ele>1775.6</ele>
        <time>2022-07-18T11:16:54Z</time>
      </trkpt>
      <trkpt lat="44.55657" lon="7.15389">
        <ele>1775.6</ele>
        <time>2022-07-18T11:16:55Z</time>
      </trkpt>
      <trkpt lat="44.55658" lon="7.15389">
        <ele>1776</ele>
        <time>2022-07-18T11:16:56Z</time>
      </trkpt>
      <trkpt lat="44.5566" lon="7.15389">
        <ele>1776</ele>
        <time>2022-07-18T11:16:57Z</time>
      </trkpt>
      <trkpt lat="44.55662" lon="7.1539">
        <ele>1776.4</ele>
        <time>2022-07-18T11:16:58Z</time>
      </trkpt>
      <trkpt lat="44.55664" lon="7.1539">
        <ele>1776.4</ele>
        <time>2022-07-18T11:16:59Z</time>
      </trkpt>
      <trkpt lat="44.55666" lon="7.15389">
        <ele>1776.6</ele>
        <time>2022-07-18T11:17:00Z</time>
      </trkpt>
      <trkpt lat="44.55668" lon="7.15389">
        <ele>1776.6</ele>
        <time>2022-07-18T11:17:01Z</time>
      </trkpt>
      <trkpt lat="44.5567" lon="7.15389">
        <ele>1777</ele>
        <time>2022-07-18T11:17:02Z</time>
      </trkpt>
      <trkpt lat="44.55672" lon="7.1539">
        <ele>1777.2</ele>
        <time>2022-07-18T11:17:03Z</time>
      </trkpt>
      <trkpt lat="44.55674" lon="7.1539">
        <ele>1777.2</ele>
        <time>2022-07-18T11:17:04Z</time>
      </trkpt>
      <trkpt lat="44.55676" lon="7.15389">
        <ele>1777.6</ele>
        <time>2022-07-18T11:17:05Z</time>
      </trkpt>
      <trkpt lat="44.55677" lon="7.15389">
        <ele>1777.6</ele>
        <time>2022-07-18T11:17:06Z</time>
      </trkpt>
      <trkpt lat="44.55679" lon="7.15389">
        <ele>1777.8</ele>
        <time>2022-07-18T11:17:07Z</time>
      </trkpt>
      <trkpt lat="44.55681" lon="7.15389">
        <ele>1777.8</ele>
        <time>2022-07-18T11:17:08Z</time>
      </trkpt>
      <trkpt lat="44.55683" lon="7.15389">
        <ele>1778.2</ele>
        <time>2022-07-18T11:17:09Z</time>
      </trkpt>
      <trkpt lat="44.55685" lon="7.15389">
        <ele>1778.4</ele>
        <time>2022-07-18T11:17:10Z</time>
      </trkpt>
      <trkpt lat="44.55687" lon="7.15389">
        <ele>1778.6</ele>
        <time>2022-07-18T11:17:11Z</time>
      </trkpt>
      <trkpt lat="44.55689" lon="7.1539">
        <ele>1778.6</ele>
        <time>2022-07-18T11:17:12Z</time>
      </trkpt>
      <trkpt lat="44.55691" lon="7.15391">
        <ele>1779</ele>
        <time>2022-07-18T11:17:13Z</time>
      </trkpt>
      <trkpt lat="44.55692" lon="7.15391">
        <ele>1779</ele>
        <time>2022-07-18T11:17:14Z</time>
      </trkpt>
      <trkpt lat="44.55694" lon="7.15391">
        <ele>1779.2</ele>
        <time>2022-07-18T11:17:15Z</time>
      </trkpt>
      <trkpt lat="44.55696" lon="7.15391">
        <ele>1779.2</ele>
        <time>2022-07-18T11:17:16Z</time>
      </trkpt>
      <trkpt lat="44.55698" lon="7.15393">
        <ele>1779.6</ele>
        <time>2022-07-18T11:17:17Z</time>
      </trkpt>
      <trkpt lat="44.55701" lon="7.15394">
        <ele>1779.8</ele>
        <time>2022-07-18T11:17:18Z</time>
      </trkpt>
      <trkpt lat="44.55703" lon="7.15395">
        <ele>1780</ele>
        <time>2022-07-18T11:17:19Z</time>
      </trkpt>
      <trkpt lat="44.55705" lon="7.15396">
        <ele>1780</ele>
        <time>2022-07-18T11:17:20Z</time>
      </trkpt>
      <trkpt lat="44.55707" lon="7.15397">
        <ele>1780.4</ele>
        <time>2022-07-18T11:17:21Z</time>
      </trkpt>
      <trkpt lat="44.55709" lon="7.15398">
        <ele>1780.4</ele>
        <time>2022-07-18T11:17:22Z</time>
      </trkpt>
      <trkpt lat="44.55711" lon="7.15399">
        <ele>1780.6</ele>
        <time>2022-07-18T11:17:23Z</time>
      </trkpt>
      <trkpt lat="44.55714" lon="7.154">
        <ele>1780.6</ele>
        <time>2022-07-18T11:17:24Z</time>
      </trkpt>
      <trkpt lat="44.55717" lon="7.15401">
        <ele>1780.8</ele>
        <time>2022-07-18T11:17:25Z</time>
      </trkpt>
      <trkpt lat="44.55719" lon="7.15402">
        <ele>1780.8</ele>
        <time>2022-07-18T11:17:26Z</time>
      </trkpt>
      <trkpt lat="44.55722" lon="7.15403">
        <ele>1781.2</ele>
        <time>2022-07-18T11:17:27Z</time>
      </trkpt>
      <trkpt lat="44.55724" lon="7.15404">
        <ele>1781.2</ele>
        <time>2022-07-18T11:17:28Z</time>
      </trkpt>
      <trkpt lat="44.55726" lon="7.15404">
        <ele>1781.4</ele>
        <time>2022-07-18T11:17:29Z</time>
      </trkpt>
      <trkpt lat="44.55728" lon="7.15405">
        <ele>1781.4</ele>
        <time>2022-07-18T11:17:30Z</time>
      </trkpt>
      <trkpt lat="44.5573" lon="7.15405">
        <ele>1781.8</ele>
        <time>2022-07-18T11:17:31Z</time>
      </trkpt>
      <trkpt lat="44.55733" lon="7.15407">
        <ele>1781.8</ele>
        <time>2022-07-18T11:17:32Z</time>
      </trkpt>
      <trkpt lat="44.55735" lon="7.15408">
        <ele>1782.2</ele>
        <time>2022-07-18T11:17:33Z</time>
      </trkpt>
      <trkpt lat="44.55737" lon="7.15409">
        <ele>1782.2</ele>
        <time>2022-07-18T11:17:34Z</time>
      </trkpt>
      <trkpt lat="44.5574" lon="7.1541">
        <ele>1782.6</ele>
        <time>2022-07-18T11:17:35Z</time>
      </trkpt>
      <trkpt lat="44.55742" lon="7.15411">
        <ele>1782.8</ele>
        <time>2022-07-18T11:17:36Z</time>
      </trkpt>
      <trkpt lat="44.55744" lon="7.15412">
        <ele>1783</ele>
        <time>2022-07-18T11:17:37Z</time>
      </trkpt>
      <trkpt lat="44.55746" lon="7.15413">
        <ele>1783</ele>
        <time>2022-07-18T11:17:38Z</time>
      </trkpt>
      <trkpt lat="44.55748" lon="7.15414">
        <ele>1783.4</ele>
        <time>2022-07-18T11:17:39Z</time>
      </trkpt>
      <trkpt lat="44.55751" lon="7.15414">
        <ele>1783.4</ele>
        <time>2022-07-18T11:17:40Z</time>
      </trkpt>
      <trkpt lat="44.55753" lon="7.15414">
        <ele>1783.6</ele>
        <time>2022-07-18T11:17:41Z</time>
      </trkpt>
      <trkpt lat="44.55755" lon="7.15415">
        <ele>1783.6</ele>
        <time>2022-07-18T11:17:42Z</time>
      </trkpt>
      <trkpt lat="44.55757" lon="7.15415">
        <ele>1784</ele>
        <time>2022-07-18T11:17:43Z</time>
      </trkpt>
      <trkpt lat="44.55758" lon="7.15415">
        <ele>1784</ele>
        <time>2022-07-18T11:17:44Z</time>
      </trkpt>
      <trkpt lat="44.5576" lon="7.15415">
        <ele>1784.2</ele>
        <time>2022-07-18T11:17:45Z</time>
      </trkpt>
      <trkpt lat="44.55763" lon="7.15416">
        <ele>1784.2</ele>
        <time>2022-07-18T11:17:46Z</time>
      </trkpt>
      <trkpt lat="44.55765" lon="7.15416">
        <ele>1784.6</ele>
        <time>2022-07-18T11:17:47Z</time>
      </trkpt>
      <trkpt lat="44.55767" lon="7.15417">
        <ele>1784.6</ele>
        <time>2022-07-18T11:17:48Z</time>
      </trkpt>
      <trkpt lat="44.55769" lon="7.15417">
        <ele>1785</ele>
        <time>2022-07-18T11:17:49Z</time>
      </trkpt>
      <trkpt lat="44.55772" lon="7.15417">
        <ele>1785</ele>
        <time>2022-07-18T11:17:50Z</time>
      </trkpt>
      <trkpt lat="44.55774" lon="7.15417">
        <ele>1785.4</ele>
        <time>2022-07-18T11:17:51Z</time>
      </trkpt>
      <trkpt lat="44.55775" lon="7.15417">
        <ele>1785.4</ele>
        <time>2022-07-18T11:17:52Z</time>
      </trkpt>
      <trkpt lat="44.55777" lon="7.15417">
        <ele>1785.8</ele>
        <time>2022-07-18T11:17:53Z</time>
      </trkpt>
      <trkpt lat="44.55779" lon="7.15416">
        <ele>1786</ele>
        <time>2022-07-18T11:17:54Z</time>
      </trkpt>
      <trkpt lat="44.55781" lon="7.15416">
        <ele>1786</ele>
        <time>2022-07-18T11:17:55Z</time>
      </trkpt>
      <trkpt lat="44.55783" lon="7.15416">
        <ele>1786.2</ele>
        <time>2022-07-18T11:17:56Z</time>
      </trkpt>
      <trkpt lat="44.55785" lon="7.15415">
        <ele>1786.2</ele>
        <time>2022-07-18T11:17:57Z</time>
      </trkpt>
      <trkpt lat="44.55788" lon="7.15414">
        <ele>1786.6</ele>
        <time>2022-07-18T11:17:58Z</time>
      </trkpt>
      <trkpt lat="44.5579" lon="7.15413">
        <ele>1786.6</ele>
        <time>2022-07-18T11:17:59Z</time>
      </trkpt>
      <trkpt lat="44.55793" lon="7.15412">
        <ele>1786.8</ele>
        <time>2022-07-18T11:18:00Z</time>
      </trkpt>
      <trkpt lat="44.55795" lon="7.15412">
        <ele>1786.8</ele>
        <time>2022-07-18T11:18:01Z</time>
      </trkpt>
      <trkpt lat="44.55798" lon="7.15412">
        <ele>1787.2</ele>
        <time>2022-07-18T11:18:02Z</time>
      </trkpt>
      <trkpt lat="44.558" lon="7.15412">
        <ele>1787.2</ele>
        <time>2022-07-18T11:18:03Z</time>
      </trkpt>
      <trkpt lat="44.55803" lon="7.15412">
        <ele>1787.2</ele>
        <time>2022-07-18T11:18:04Z</time>
      </trkpt>
      <trkpt lat="44.55806" lon="7.15412">
        <ele>1787.4</ele>
        <time>2022-07-18T11:18:05Z</time>
      </trkpt>
      <trkpt lat="44.55809" lon="7.15413">
        <ele>1787.4</ele>
        <time>2022-07-18T11:18:06Z</time>
      </trkpt>
      <trkpt lat="44.55812" lon="7.15413">
        <ele>1787.6</ele>
        <time>2022-07-18T11:18:07Z</time>
      </trkpt>
      <trkpt lat="44.55815" lon="7.15413">
        <ele>1787.6</ele>
        <time>2022-07-18T11:18:08Z</time>
      </trkpt>
      <trkpt lat="44.55817" lon="7.15413">
        <ele>1787.8</ele>
        <time>2022-07-18T11:18:09Z</time>
      </trkpt>
      <trkpt lat="44.5582" lon="7.15413">
        <ele>1787.8</ele>
        <time>2022-07-18T11:18:10Z</time>
      </trkpt>
      <trkpt lat="44.55823" lon="7.15412">
        <ele>1787.8</ele>
        <time>2022-07-18T11:18:11Z</time>
      </trkpt>
      <trkpt lat="44.55825" lon="7.15411">
        <ele>1788.2</ele>
        <time>2022-07-18T11:18:12Z</time>
      </trkpt>
      <trkpt lat="44.55827" lon="7.15408">
        <ele>1788.2</ele>
        <time>2022-07-18T11:18:13Z</time>
      </trkpt>
      <trkpt lat="44.55828" lon="7.15405">
        <ele>1788.4</ele>
        <time>2022-07-18T11:18:14Z</time>
      </trkpt>
      <trkpt lat="44.55828" lon="7.15402">
        <ele>1788.4</ele>
        <time>2022-07-18T11:18:15Z</time>
      </trkpt>
      <trkpt lat="44.55828" lon="7.15399">
        <ele>1788.6</ele>
        <time>2022-07-18T11:18:16Z</time>
      </trkpt>
      <trkpt lat="44.55826" lon="7.15396">
        <ele>1788.6</ele>
        <time>2022-07-18T11:18:17Z</time>
      </trkpt>
      <trkpt lat="44.55824" lon="7.15396">
        <ele>1788.6</ele>
        <time>2022-07-18T11:18:18Z</time>
      </trkpt>
      <trkpt lat="44.55822" lon="7.15395">
        <ele>1789</ele>
        <time>2022-07-18T11:18:19Z</time>
      </trkpt>
      <trkpt lat="44.5582" lon="7.15396">
        <ele>1789</ele>
        <time>2022-07-18T11:18:20Z</time>
      </trkpt>
      <trkpt lat="44.55818" lon="7.15396">
        <ele>1789</ele>
        <time>2022-07-18T11:18:21Z</time>
      </trkpt>
      <trkpt lat="44.55815" lon="7.15397">
        <ele>1789.2</ele>
        <time>2022-07-18T11:18:22Z</time>
      </trkpt>
      <trkpt lat="44.55813" lon="7.15397">
        <ele>1789.2</ele>
        <time>2022-07-18T11:18:23Z</time>
      </trkpt>
      <trkpt lat="44.5581" lon="7.15398">
        <ele>1789.4</ele>
        <time>2022-07-18T11:18:24Z</time>
      </trkpt>
      <trkpt lat="44.55808" lon="7.15399">
        <ele>1789.6</ele>
        <time>2022-07-18T11:18:25Z</time>
      </trkpt>
      <trkpt lat="44.55805" lon="7.154">
        <ele>1789.6</ele>
        <time>2022-07-18T11:18:26Z</time>
      </trkpt>
      <trkpt lat="44.55803" lon="7.15401">
        <ele>1789.6</ele>
        <time>2022-07-18T11:18:27Z</time>
      </trkpt>
      <trkpt lat="44.55801" lon="7.15402">
        <ele>1789.6</ele>
        <time>2022-07-18T11:18:28Z</time>
      </trkpt>
      <trkpt lat="44.55799" lon="7.15402">
        <ele>1790</ele>
        <time>2022-07-18T11:18:29Z</time>
      </trkpt>
      <trkpt lat="44.55796" lon="7.15402">
        <ele>1790</ele>
        <time>2022-07-18T11:18:30Z</time>
      </trkpt>
      <trkpt lat="44.55794" lon="7.15403">
        <ele>1790.4</ele>
        <time>2022-07-18T11:18:31Z</time>
      </trkpt>
      <trkpt lat="44.55792" lon="7.15403">
        <ele>1790.4</ele>
        <time>2022-07-18T11:18:32Z</time>
      </trkpt>
      <trkpt lat="44.5579" lon="7.15403">
        <ele>1790.6</ele>
        <time>2022-07-18T11:18:33Z</time>
      </trkpt>
      <trkpt lat="44.55788" lon="7.15403">
        <ele>1790.6</ele>
        <time>2022-07-18T11:18:34Z</time>
      </trkpt>
      <trkpt lat="44.55786" lon="7.15403">
        <ele>1791</ele>
        <time>2022-07-18T11:18:35Z</time>
      </trkpt>
      <trkpt lat="44.55784" lon="7.15403">
        <ele>1791</ele>
        <time>2022-07-18T11:18:36Z</time>
      </trkpt>
      <trkpt lat="44.55781" lon="7.15403">
        <ele>1791.2</ele>
        <time>2022-07-18T11:18:37Z</time>
      </trkpt>
      <trkpt lat="44.55779" lon="7.15403">
        <ele>1791.2</ele>
        <time>2022-07-18T11:18:38Z</time>
      </trkpt>
      <trkpt lat="44.55777" lon="7.15403">
        <ele>1791.6</ele>
        <time>2022-07-18T11:18:39Z</time>
      </trkpt>
      <trkpt lat="44.55775" lon="7.15403">
        <ele>1791.6</ele>
        <time>2022-07-18T11:18:40Z</time>
      </trkpt>
      <trkpt lat="44.55773" lon="7.15402">
        <ele>1791.8</ele>
        <time>2022-07-18T11:18:41Z</time>
      </trkpt>
      <trkpt lat="44.55771" lon="7.15401">
        <ele>1791.8</ele>
        <time>2022-07-18T11:18:42Z</time>
      </trkpt>
      <trkpt lat="44.55769" lon="7.154">
        <ele>1792.2</ele>
        <time>2022-07-18T11:18:43Z</time>
      </trkpt>
      <trkpt lat="44.55767" lon="7.15399">
        <ele>1792.2</ele>
        <time>2022-07-18T11:18:44Z</time>
      </trkpt>
      <trkpt lat="44.55764" lon="7.15398">
        <ele>1792.6</ele>
        <time>2022-07-18T11:18:45Z</time>
      </trkpt>
      <trkpt lat="44.55762" lon="7.15398">
        <ele>1792.6</ele>
        <time>2022-07-18T11:18:46Z</time>
      </trkpt>
      <trkpt lat="44.5576" lon="7.15398">
        <ele>1792.8</ele>
        <time>2022-07-18T11:18:47Z</time>
      </trkpt>
      <trkpt lat="44.55758" lon="7.15397">
        <ele>1792.8</ele>
        <time>2022-07-18T11:18:48Z</time>
      </trkpt>
      <trkpt lat="44.55756" lon="7.15396">
        <ele>1793.2</ele>
        <time>2022-07-18T11:18:49Z</time>
      </trkpt>
      <trkpt lat="44.55754" lon="7.15395">
        <ele>1793.2</ele>
        <time>2022-07-18T11:18:50Z</time>
      </trkpt>
      <trkpt lat="44.55752" lon="7.15394">
        <ele>1793.6</ele>
        <time>2022-07-18T11:18:51Z</time>
      </trkpt>
      <trkpt lat="44.5575" lon="7.15393">
        <ele>1793.8</ele>
        <time>2022-07-18T11:18:52Z</time>
      </trkpt>
      <trkpt lat="44.55748" lon="7.15392">
        <ele>1794</ele>
        <time>2022-07-18T11:18:53Z</time>
      </trkpt>
      <trkpt lat="44.55746" lon="7.1539">
        <ele>1794.2</ele>
        <time>2022-07-18T11:18:54Z</time>
      </trkpt>
      <trkpt lat="44.55744" lon="7.15388">
        <ele>1794.2</ele>
        <time>2022-07-18T11:18:55Z</time>
      </trkpt>
      <trkpt lat="44.55742" lon="7.15387">
        <ele>1794.4</ele>
        <time>2022-07-18T11:18:56Z</time>
      </trkpt>
      <trkpt lat="44.5574" lon="7.15385">
        <ele>1794.4</ele>
        <time>2022-07-18T11:18:57Z</time>
      </trkpt>
      <trkpt lat="44.55739" lon="7.15382">
        <ele>1795</ele>
        <time>2022-07-18T11:18:58Z</time>
      </trkpt>
      <trkpt lat="44.55738" lon="7.1538">
        <ele>1795</ele>
        <time>2022-07-18T11:18:59Z</time>
      </trkpt>
      <trkpt lat="44.55736" lon="7.15378">
        <ele>1795.2</ele>
        <time>2022-07-18T11:19:00Z</time>
      </trkpt>
      <trkpt lat="44.55734" lon="7.15376">
        <ele>1795.2</ele>
        <time>2022-07-18T11:19:01Z</time>
      </trkpt>
      <trkpt lat="44.55732" lon="7.15374">
        <ele>1795.6</ele>
        <time>2022-07-18T11:19:02Z</time>
      </trkpt>
      <trkpt lat="44.55731" lon="7.15372">
        <ele>1795.6</ele>
        <time>2022-07-18T11:19:03Z</time>
      </trkpt>
      <trkpt lat="44.55729" lon="7.15371">
        <ele>1796.2</ele>
        <time>2022-07-18T11:19:04Z</time>
      </trkpt>
      <trkpt lat="44.55727" lon="7.15369">
        <ele>1796.4</ele>
        <time>2022-07-18T11:19:05Z</time>
      </trkpt>
      <trkpt lat="44.55725" lon="7.15368">
        <ele>1796.6</ele>
        <time>2022-07-18T11:19:06Z</time>
      </trkpt>
      <trkpt lat="44.55723" lon="7.15366">
        <ele>1796.6</ele>
        <time>2022-07-18T11:19:07Z</time>
      </trkpt>
      <trkpt lat="44.55721" lon="7.15365">
        <ele>1797</ele>
        <time>2022-07-18T11:19:08Z</time>
      </trkpt>
      <trkpt lat="44.55719" lon="7.15363">
        <ele>1797</ele>
        <time>2022-07-18T11:19:09Z</time>
      </trkpt>
      <trkpt lat="44.55718" lon="7.15362">
        <ele>1797.4</ele>
        <time>2022-07-18T11:19:10Z</time>
      </trkpt>
      <trkpt lat="44.55716" lon="7.1536">
        <ele>1797.6</ele>
        <time>2022-07-18T11:19:11Z</time>
      </trkpt>
      <trkpt lat="44.55715" lon="7.15358">
        <ele>1797.8</ele>
        <time>2022-07-18T11:19:12Z</time>
      </trkpt>
      <trkpt lat="44.55713" lon="7.15357">
        <ele>1798</ele>
        <time>2022-07-18T11:19:13Z</time>
      </trkpt>
      <trkpt lat="44.55711" lon="7.15355">
        <ele>1798.2</ele>
        <time>2022-07-18T11:19:14Z</time>
      </trkpt>
      <trkpt lat="44.5571" lon="7.15353">
        <ele>1798.2</ele>
        <time>2022-07-18T11:19:15Z</time>
      </trkpt>
      <trkpt lat="44.55708" lon="7.15351">
        <ele>1798.6</ele>
        <time>2022-07-18T11:19:16Z</time>
      </trkpt>
      <trkpt lat="44.55707" lon="7.1535">
        <ele>1798.6</ele>
        <time>2022-07-18T11:19:17Z</time>
      </trkpt>
      <trkpt lat="44.55705" lon="7.15348">
        <ele>1799</ele>
        <time>2022-07-18T11:19:18Z</time>
      </trkpt>
      <trkpt lat="44.55704" lon="7.15347">
        <ele>1799</ele>
        <time>2022-07-18T11:19:19Z</time>
      </trkpt>
      <trkpt lat="44.55702" lon="7.15346">
        <ele>1799.4</ele>
        <time>2022-07-18T11:19:20Z</time>
      </trkpt>
      <trkpt lat="44.55701" lon="7.15344">
        <ele>1799.4</ele>
        <time>2022-07-18T11:19:21Z</time>
      </trkpt>
      <trkpt lat="44.55699" lon="7.15343">
        <ele>1799.6</ele>
        <time>2022-07-18T11:19:22Z</time>
      </trkpt>
      <trkpt lat="44.55697" lon="7.15341">
        <ele>1799.6</ele>
        <time>2022-07-18T11:19:23Z</time>
      </trkpt>
      <trkpt lat="44.55695" lon="7.1534">
        <ele>1800</ele>
        <time>2022-07-18T11:19:24Z</time>
      </trkpt>
      <trkpt lat="44.55694" lon="7.15338">
        <ele>1800</ele>
        <time>2022-07-18T11:19:25Z</time>
      </trkpt>
      <trkpt lat="44.55692" lon="7.15336">
        <ele>1800.4</ele>
        <time>2022-07-18T11:19:26Z</time>
      </trkpt>
      <trkpt lat="44.55691" lon="7.15334">
        <ele>1800.6</ele>
        <time>2022-07-18T11:19:27Z</time>
      </trkpt>
      <trkpt lat="44.5569" lon="7.15332">
        <ele>1800.8</ele>
        <time>2022-07-18T11:19:28Z</time>
      </trkpt>
      <trkpt lat="44.55688" lon="7.15329">
        <ele>1800.8</ele>
        <time>2022-07-18T11:19:29Z</time>
      </trkpt>
      <trkpt lat="44.55687" lon="7.15327">
        <ele>1801.2</ele>
        <time>2022-07-18T11:19:30Z</time>
      </trkpt>
      <trkpt lat="44.55686" lon="7.15325">
        <ele>1801.4</ele>
        <time>2022-07-18T11:19:31Z</time>
      </trkpt>
      <trkpt lat="44.55684" lon="7.15323">
        <ele>1801.4</ele>
        <time>2022-07-18T11:19:32Z</time>
      </trkpt>
      <trkpt lat="44.55683" lon="7.15321">
        <ele>1801.6</ele>
        <time>2022-07-18T11:19:33Z</time>
      </trkpt>
      <trkpt lat="44.55681" lon="7.15319">
        <ele>1801.6</ele>
        <time>2022-07-18T11:19:34Z</time>
      </trkpt>
      <trkpt lat="44.5568" lon="7.15317">
        <ele>1802</ele>
        <time>2022-07-18T11:19:35Z</time>
      </trkpt>
      <trkpt lat="44.55679" lon="7.15315">
        <ele>1802</ele>
        <time>2022-07-18T11:19:36Z</time>
      </trkpt>
      <trkpt lat="44.55677" lon="7.15313">
        <ele>1802.4</ele>
        <time>2022-07-18T11:19:37Z</time>
      </trkpt>
      <trkpt lat="44.55676" lon="7.15312">
        <ele>1802.6</ele>
        <time>2022-07-18T11:19:38Z</time>
      </trkpt>
      <trkpt lat="44.55674" lon="7.1531">
        <ele>1802.6</ele>
        <time>2022-07-18T11:19:39Z</time>
      </trkpt>
      <trkpt lat="44.55672" lon="7.15308">
        <ele>1803</ele>
        <time>2022-07-18T11:19:40Z</time>
      </trkpt>
      <trkpt lat="44.5567" lon="7.15306">
        <ele>1803.2</ele>
        <time>2022-07-18T11:19:41Z</time>
      </trkpt>
      <trkpt lat="44.55668" lon="7.15304">
        <ele>1803.2</ele>
        <time>2022-07-18T11:19:42Z</time>
      </trkpt>
      <trkpt lat="44.55667" lon="7.15302">
        <ele>1803.6</ele>
        <time>2022-07-18T11:19:43Z</time>
      </trkpt>
      <trkpt lat="44.55665" lon="7.153">
        <ele>1803.6</ele>
        <time>2022-07-18T11:19:44Z</time>
      </trkpt>
      <trkpt lat="44.55664" lon="7.15298">
        <ele>1803.8</ele>
        <time>2022-07-18T11:19:45Z</time>
      </trkpt>
      <trkpt lat="44.55662" lon="7.15296">
        <ele>1804.2</ele>
        <time>2022-07-18T11:19:46Z</time>
      </trkpt>
      <trkpt lat="44.55661" lon="7.15295">
        <ele>1804.2</ele>
        <time>2022-07-18T11:19:47Z</time>
      </trkpt>
      <trkpt lat="44.55659" lon="7.15294">
        <ele>1804.4</ele>
        <time>2022-07-18T11:19:48Z</time>
      </trkpt>
      <trkpt lat="44.55657" lon="7.15293">
        <ele>1804.4</ele>
        <time>2022-07-18T11:19:49Z</time>
      </trkpt>
      <trkpt lat="44.55656" lon="7.15292">
        <ele>1804.6</ele>
        <time>2022-07-18T11:19:50Z</time>
      </trkpt>
      <trkpt lat="44.55654" lon="7.15291">
        <ele>1805</ele>
        <time>2022-07-18T11:19:51Z</time>
      </trkpt>
      <trkpt lat="44.55653" lon="7.1529">
        <ele>1805</ele>
        <time>2022-07-18T11:19:52Z</time>
      </trkpt>
      <trkpt lat="44.55652" lon="7.15289">
        <ele>1805.2</ele>
        <time>2022-07-18T11:19:53Z</time>
      </trkpt>
      <trkpt lat="44.5565" lon="7.15287">
        <ele>1805.4</ele>
        <time>2022-07-18T11:19:54Z</time>
      </trkpt>
      <trkpt lat="44.55649" lon="7.15286">
        <ele>1805.6</ele>
        <time>2022-07-18T11:19:55Z</time>
      </trkpt>
      <trkpt lat="44.55648" lon="7.15285">
        <ele>1805.6</ele>
        <time>2022-07-18T11:19:56Z</time>
      </trkpt>
      <trkpt lat="44.55647" lon="7.15283">
        <ele>1806</ele>
        <time>2022-07-18T11:19:57Z</time>
      </trkpt>
      <trkpt lat="44.55645" lon="7.15282">
        <ele>1806</ele>
        <time>2022-07-18T11:19:58Z</time>
      </trkpt>
      <trkpt lat="44.55643" lon="7.15281">
        <ele>1806.4</ele>
        <time>2022-07-18T11:19:59Z</time>
      </trkpt>
      <trkpt lat="44.55641" lon="7.1528">
        <ele>1806.4</ele>
        <time>2022-07-18T11:20:00Z</time>
      </trkpt>
      <trkpt lat="44.55639" lon="7.15279">
        <ele>1806.8</ele>
        <time>2022-07-18T11:20:01Z</time>
      </trkpt>
      <trkpt lat="44.55638" lon="7.15277">
        <ele>1807</ele>
        <time>2022-07-18T11:20:02Z</time>
      </trkpt>
      <trkpt lat="44.55636" lon="7.15276">
        <ele>1807</ele>
        <time>2022-07-18T11:20:03Z</time>
      </trkpt>
      <trkpt lat="44.55634" lon="7.15274">
        <ele>1807.2</ele>
        <time>2022-07-18T11:20:04Z</time>
      </trkpt>
      <trkpt lat="44.55632" lon="7.15272">
        <ele>1807.4</ele>
        <time>2022-07-18T11:20:05Z</time>
      </trkpt>
      <trkpt lat="44.5563" lon="7.15271">
        <ele>1807.4</ele>
        <time>2022-07-18T11:20:06Z</time>
      </trkpt>
      <trkpt lat="44.55628" lon="7.15269">
        <ele>1807.8</ele>
        <time>2022-07-18T11:20:07Z</time>
      </trkpt>
      <trkpt lat="44.55626" lon="7.15268">
        <ele>1807.8</ele>
        <time>2022-07-18T11:20:08Z</time>
      </trkpt>
      <trkpt lat="44.55624" lon="7.15267">
        <ele>1808</ele>
        <time>2022-07-18T11:20:09Z</time>
      </trkpt>
      <trkpt lat="44.55622" lon="7.15266">
        <ele>1808</ele>
        <time>2022-07-18T11:20:10Z</time>
      </trkpt>
      <trkpt lat="44.5562" lon="7.15264">
        <ele>1808.2</ele>
        <time>2022-07-18T11:20:11Z</time>
      </trkpt>
      <trkpt lat="44.55619" lon="7.15262">
        <ele>1808.2</ele>
        <time>2022-07-18T11:20:12Z</time>
      </trkpt>
      <trkpt lat="44.55617" lon="7.15261">
        <ele>1808.6</ele>
        <time>2022-07-18T11:20:13Z</time>
      </trkpt>
      <trkpt lat="44.55615" lon="7.1526">
        <ele>1808.6</ele>
        <time>2022-07-18T11:20:14Z</time>
      </trkpt>
      <trkpt lat="44.55614" lon="7.15258">
        <ele>1809</ele>
        <time>2022-07-18T11:20:15Z</time>
      </trkpt>
      <trkpt lat="44.55612" lon="7.15257">
        <ele>1809.2</ele>
        <time>2022-07-18T11:20:16Z</time>
      </trkpt>
      <trkpt lat="44.5561" lon="7.15256">
        <ele>1809.2</ele>
        <time>2022-07-18T11:20:17Z</time>
      </trkpt>
      <trkpt lat="44.55608" lon="7.15255">
        <ele>1809.4</ele>
        <time>2022-07-18T11:20:18Z</time>
      </trkpt>
      <trkpt lat="44.55606" lon="7.15254">
        <ele>1809.4</ele>
        <time>2022-07-18T11:20:19Z</time>
      </trkpt>
      <trkpt lat="44.55604" lon="7.15253">
        <ele>1809.8</ele>
        <time>2022-07-18T11:20:20Z</time>
      </trkpt>
      <trkpt lat="44.55602" lon="7.15252">
        <ele>1809.8</ele>
        <time>2022-07-18T11:20:21Z</time>
      </trkpt>
      <trkpt lat="44.556" lon="7.15251">
        <ele>1810</ele>
        <time>2022-07-18T11:20:22Z</time>
      </trkpt>
      <trkpt lat="44.55599" lon="7.1525">
        <ele>1810</ele>
        <time>2022-07-18T11:20:23Z</time>
      </trkpt>
      <trkpt lat="44.55597" lon="7.15249">
        <ele>1810.2</ele>
        <time>2022-07-18T11:20:24Z</time>
      </trkpt>
      <trkpt lat="44.55594" lon="7.15248">
        <ele>1810.2</ele>
        <time>2022-07-18T11:20:25Z</time>
      </trkpt>
      <trkpt lat="44.55592" lon="7.15247">
        <ele>1810.6</ele>
        <time>2022-07-18T11:20:26Z</time>
      </trkpt>
      <trkpt lat="44.5559" lon="7.15247">
        <ele>1810.6</ele>
        <time>2022-07-18T11:20:27Z</time>
      </trkpt>
      <trkpt lat="44.55588" lon="7.15247">
        <ele>1810.8</ele>
        <time>2022-07-18T11:20:28Z</time>
      </trkpt>
      <trkpt lat="44.55586" lon="7.15247">
        <ele>1810.8</ele>
        <time>2022-07-18T11:20:29Z</time>
      </trkpt>
      <trkpt lat="44.55584" lon="7.15246">
        <ele>1811.2</ele>
        <time>2022-07-18T11:20:30Z</time>
      </trkpt>
      <trkpt lat="44.55582" lon="7.15246">
        <ele>1811.2</ele>
        <time>2022-07-18T11:20:31Z</time>
      </trkpt>
      <trkpt lat="44.5558" lon="7.15246">
        <ele>1811.6</ele>
        <time>2022-07-18T11:20:32Z</time>
      </trkpt>
      <trkpt lat="44.55579" lon="7.15246">
        <ele>1811.6</ele>
        <time>2022-07-18T11:20:33Z</time>
      </trkpt>
      <trkpt lat="44.55577" lon="7.15246">
        <ele>1811.8</ele>
        <time>2022-07-18T11:20:34Z</time>
      </trkpt>
      <trkpt lat="44.55575" lon="7.15246">
        <ele>1811.8</ele>
        <time>2022-07-18T11:20:35Z</time>
      </trkpt>
      <trkpt lat="44.55573" lon="7.15246">
        <ele>1812.2</ele>
        <time>2022-07-18T11:20:36Z</time>
      </trkpt>
      <trkpt lat="44.55571" lon="7.15246">
        <ele>1812.2</ele>
        <time>2022-07-18T11:20:37Z</time>
      </trkpt>
      <trkpt lat="44.55569" lon="7.15245">
        <ele>1812.6</ele>
        <time>2022-07-18T11:20:38Z</time>
      </trkpt>
      <trkpt lat="44.55568" lon="7.15245">
        <ele>1812.6</ele>
        <time>2022-07-18T11:20:39Z</time>
      </trkpt>
      <trkpt lat="44.55566" lon="7.15245">
        <ele>1813</ele>
        <time>2022-07-18T11:20:40Z</time>
      </trkpt>
      <trkpt lat="44.55563" lon="7.15245">
        <ele>1813</ele>
        <time>2022-07-18T11:20:41Z</time>
      </trkpt>
      <trkpt lat="44.55561" lon="7.15245">
        <ele>1813.2</ele>
        <time>2022-07-18T11:20:42Z</time>
      </trkpt>
      <trkpt lat="44.55559" lon="7.15245">
        <ele>1813.2</ele>
        <time>2022-07-18T11:20:43Z</time>
      </trkpt>
      <trkpt lat="44.55557" lon="7.15246">
        <ele>1813.4</ele>
        <time>2022-07-18T11:20:44Z</time>
      </trkpt>
      <trkpt lat="44.55556" lon="7.15246">
        <ele>1813.6</ele>
        <time>2022-07-18T11:20:45Z</time>
      </trkpt>
      <trkpt lat="44.55554" lon="7.15246">
        <ele>1813.6</ele>
        <time>2022-07-18T11:20:46Z</time>
      </trkpt>
      <trkpt lat="44.55552" lon="7.15246">
        <ele>1814</ele>
        <time>2022-07-18T11:20:47Z</time>
      </trkpt>
      <trkpt lat="44.5555" lon="7.15246">
        <ele>1814.2</ele>
        <time>2022-07-18T11:20:48Z</time>
      </trkpt>
      <trkpt lat="44.55548" lon="7.15246">
        <ele>1814.4</ele>
        <time>2022-07-18T11:20:49Z</time>
      </trkpt>
      <trkpt lat="44.55546" lon="7.15246">
        <ele>1814.4</ele>
        <time>2022-07-18T11:20:50Z</time>
      </trkpt>
      <trkpt lat="44.55544" lon="7.15246">
        <ele>1814.8</ele>
        <time>2022-07-18T11:20:51Z</time>
      </trkpt>
      <trkpt lat="44.55543" lon="7.15246">
        <ele>1814.8</ele>
        <time>2022-07-18T11:20:52Z</time>
      </trkpt>
      <trkpt lat="44.55541" lon="7.15246">
        <ele>1815</ele>
        <time>2022-07-18T11:20:53Z</time>
      </trkpt>
      <trkpt lat="44.55539" lon="7.15245">
        <ele>1815</ele>
        <time>2022-07-18T11:20:54Z</time>
      </trkpt>
      <trkpt lat="44.55537" lon="7.15245">
        <ele>1815.4</ele>
        <time>2022-07-18T11:20:55Z</time>
      </trkpt>
      <trkpt lat="44.55536" lon="7.15246">
        <ele>1815.4</ele>
        <time>2022-07-18T11:20:56Z</time>
      </trkpt>
      <trkpt lat="44.55534" lon="7.15246">
        <ele>1815.8</ele>
        <time>2022-07-18T11:20:57Z</time>
      </trkpt>
      <trkpt lat="44.55532" lon="7.15247">
        <ele>1815.8</ele>
        <time>2022-07-18T11:20:58Z</time>
      </trkpt>
      <trkpt lat="44.5553" lon="7.15247">
        <ele>1816</ele>
        <time>2022-07-18T11:20:59Z</time>
      </trkpt>
      <trkpt lat="44.55528" lon="7.15248">
        <ele>1816</ele>
        <time>2022-07-18T11:21:00Z</time>
      </trkpt>
      <trkpt lat="44.55527" lon="7.15249">
        <ele>1816.4</ele>
        <time>2022-07-18T11:21:01Z</time>
      </trkpt>
      <trkpt lat="44.55525" lon="7.15249">
        <ele>1816.4</ele>
        <time>2022-07-18T11:21:02Z</time>
      </trkpt>
      <trkpt lat="44.55524" lon="7.1525">
        <ele>1816.8</ele>
        <time>2022-07-18T11:21:03Z</time>
      </trkpt>
      <trkpt lat="44.55522" lon="7.15251">
        <ele>1816.8</ele>
        <time>2022-07-18T11:21:04Z</time>
      </trkpt>
      <trkpt lat="44.55521" lon="7.15252">
        <ele>1817</ele>
        <time>2022-07-18T11:21:05Z</time>
      </trkpt>
      <trkpt lat="44.55519" lon="7.15252">
        <ele>1817</ele>
        <time>2022-07-18T11:21:06Z</time>
      </trkpt>
      <trkpt lat="44.55517" lon="7.15253">
        <ele>1817.2</ele>
        <time>2022-07-18T11:21:07Z</time>
      </trkpt>
      <trkpt lat="44.55516" lon="7.15254">
        <ele>1817.2</ele>
        <time>2022-07-18T11:21:08Z</time>
      </trkpt>
      <trkpt lat="44.55515" lon="7.15254">
        <ele>1817.6</ele>
        <time>2022-07-18T11:21:09Z</time>
      </trkpt>
      <trkpt lat="44.55513" lon="7.15255">
        <ele>1817.6</ele>
        <time>2022-07-18T11:21:10Z</time>
      </trkpt>
      <trkpt lat="44.55512" lon="7.15256">
        <ele>1817.8</ele>
        <time>2022-07-18T11:21:11Z</time>
      </trkpt>
      <trkpt lat="44.5551" lon="7.15257">
        <ele>1817.8</ele>
        <time>2022-07-18T11:21:12Z</time>
      </trkpt>
      <trkpt lat="44.55509" lon="7.15258">
        <ele>1818.2</ele>
        <time>2022-07-18T11:21:13Z</time>
      </trkpt>
      <trkpt lat="44.55507" lon="7.15259">
        <ele>1818.2</ele>
        <time>2022-07-18T11:21:14Z</time>
      </trkpt>
      <trkpt lat="44.55506" lon="7.15259">
        <ele>1818.6</ele>
        <time>2022-07-18T11:21:15Z</time>
      </trkpt>
      <trkpt lat="44.55504" lon="7.1526">
        <ele>1818.6</ele>
        <time>2022-07-18T11:21:16Z</time>
      </trkpt>
      <trkpt lat="44.55503" lon="7.15261">
        <ele>1819</ele>
        <time>2022-07-18T11:21:17Z</time>
      </trkpt>
      <trkpt lat="44.55501" lon="7.15262">
        <ele>1819</ele>
        <time>2022-07-18T11:21:18Z</time>
      </trkpt>
      <trkpt lat="44.555" lon="7.15263">
        <ele>1819.2</ele>
        <time>2022-07-18T11:21:19Z</time>
      </trkpt>
      <trkpt lat="44.55498" lon="7.15263">
        <ele>1819.2</ele>
        <time>2022-07-18T11:21:20Z</time>
      </trkpt>
      <trkpt lat="44.55497" lon="7.15264">
        <ele>1819.4</ele>
        <time>2022-07-18T11:21:21Z</time>
      </trkpt>
      <trkpt lat="44.55495" lon="7.15264">
        <ele>1819.4</ele>
        <time>2022-07-18T11:21:22Z</time>
      </trkpt>
      <trkpt lat="44.55493" lon="7.15263">
        <ele>1819.8</ele>
        <time>2022-07-18T11:21:23Z</time>
      </trkpt>
      <trkpt lat="44.55492" lon="7.15263">
        <ele>1819.8</ele>
        <time>2022-07-18T11:21:24Z</time>
      </trkpt>
      <trkpt lat="44.55491" lon="7.15263">
        <ele>1820</ele>
        <time>2022-07-18T11:21:25Z</time>
      </trkpt>
      <trkpt lat="44.55489" lon="7.15262">
        <ele>1820</ele>
        <time>2022-07-18T11:21:26Z</time>
      </trkpt>
      <trkpt lat="44.55488" lon="7.15263">
        <ele>1820.4</ele>
        <time>2022-07-18T11:21:27Z</time>
      </trkpt>
      <trkpt lat="44.55486" lon="7.15262">
        <ele>1820.4</ele>
        <time>2022-07-18T11:21:28Z</time>
      </trkpt>
      <trkpt lat="44.55484" lon="7.15262">
        <ele>1820.6</ele>
        <time>2022-07-18T11:21:29Z</time>
      </trkpt>
      <trkpt lat="44.55483" lon="7.15262">
        <ele>1820.6</ele>
        <time>2022-07-18T11:21:30Z</time>
      </trkpt>
      <trkpt lat="44.55481" lon="7.15262">
        <ele>1820.6</ele>
        <time>2022-07-18T11:21:31Z</time>
      </trkpt>
      <trkpt lat="44.55479" lon="7.15262">
        <ele>1821</ele>
        <time>2022-07-18T11:21:32Z</time>
      </trkpt>
      <trkpt lat="44.55477" lon="7.15262">
        <ele>1821</ele>
        <time>2022-07-18T11:21:33Z</time>
      </trkpt>
      <trkpt lat="44.55476" lon="7.15262">
        <ele>1821.2</ele>
        <time>2022-07-18T11:21:34Z</time>
      </trkpt>
      <trkpt lat="44.55474" lon="7.15262">
        <ele>1821.2</ele>
        <time>2022-07-18T11:21:35Z</time>
      </trkpt>
      <trkpt lat="44.55473" lon="7.15262">
        <ele>1821.4</ele>
        <time>2022-07-18T11:21:36Z</time>
      </trkpt>
      <trkpt lat="44.55471" lon="7.15262">
        <ele>1821.4</ele>
        <time>2022-07-18T11:21:37Z</time>
      </trkpt>
      <trkpt lat="44.55469" lon="7.15262">
        <ele>1821.8</ele>
        <time>2022-07-18T11:21:38Z</time>
      </trkpt>
      <trkpt lat="44.55467" lon="7.15262">
        <ele>1821.8</ele>
        <time>2022-07-18T11:21:39Z</time>
      </trkpt>
      <trkpt lat="44.55466" lon="7.15262">
        <ele>1822</ele>
        <time>2022-07-18T11:21:40Z</time>
      </trkpt>
      <trkpt lat="44.55464" lon="7.15262">
        <ele>1822</ele>
        <time>2022-07-18T11:21:41Z</time>
      </trkpt>
      <trkpt lat="44.55463" lon="7.15262">
        <ele>1822.2</ele>
        <time>2022-07-18T11:21:42Z</time>
      </trkpt>
      <trkpt lat="44.55461" lon="7.15262">
        <ele>1822.2</ele>
        <time>2022-07-18T11:21:43Z</time>
      </trkpt>
      <trkpt lat="44.5546" lon="7.15262">
        <ele>1822.6</ele>
        <time>2022-07-18T11:21:44Z</time>
      </trkpt>
      <trkpt lat="44.55458" lon="7.15262">
        <ele>1822.6</ele>
        <time>2022-07-18T11:21:45Z</time>
      </trkpt>
      <trkpt lat="44.55456" lon="7.15262">
        <ele>1822.8</ele>
        <time>2022-07-18T11:21:46Z</time>
      </trkpt>
      <trkpt lat="44.55455" lon="7.15261">
        <ele>1822.8</ele>
        <time>2022-07-18T11:21:47Z</time>
      </trkpt>
      <trkpt lat="44.55453" lon="7.15261">
        <ele>1822.8</ele>
        <time>2022-07-18T11:21:48Z</time>
      </trkpt>
      <trkpt lat="44.55452" lon="7.15261">
        <ele>1823.2</ele>
        <time>2022-07-18T11:21:49Z</time>
      </trkpt>
      <trkpt lat="44.55451" lon="7.15261">
        <ele>1823.2</ele>
        <time>2022-07-18T11:21:50Z</time>
      </trkpt>
      <trkpt lat="44.55449" lon="7.15262">
        <ele>1823.4</ele>
        <time>2022-07-18T11:21:51Z</time>
      </trkpt>
      <trkpt lat="44.55448" lon="7.15262">
        <ele>1823.4</ele>
        <time>2022-07-18T11:21:52Z</time>
      </trkpt>
      <trkpt lat="44.55446" lon="7.15263">
        <ele>1823.4</ele>
        <time>2022-07-18T11:21:53Z</time>
      </trkpt>
      <trkpt lat="44.55445" lon="7.15262">
        <ele>1823.8</ele>
        <time>2022-07-18T11:21:54Z</time>
      </trkpt>
      <trkpt lat="44.55443" lon="7.15262">
        <ele>1823.8</ele>
        <time>2022-07-18T11:21:55Z</time>
      </trkpt>
      <trkpt lat="44.55441" lon="7.15262">
        <ele>1824.2</ele>
        <time>2022-07-18T11:21:56Z</time>
      </trkpt>
      <trkpt lat="44.55439" lon="7.15262">
        <ele>1824.2</ele>
        <time>2022-07-18T11:21:57Z</time>
      </trkpt>
      <trkpt lat="44.55438" lon="7.15262">
        <ele>1824.6</ele>
        <time>2022-07-18T11:21:58Z</time>
      </trkpt>
      <trkpt lat="44.55436" lon="7.15263">
        <ele>1824.8</ele>
        <time>2022-07-18T11:21:59Z</time>
      </trkpt>
      <trkpt lat="44.55435" lon="7.15263">
        <ele>1825</ele>
        <time>2022-07-18T11:22:00Z</time>
      </trkpt>
      <trkpt lat="44.55433" lon="7.15263">
        <ele>1825.2</ele>
        <time>2022-07-18T11:22:01Z</time>
      </trkpt>
      <trkpt lat="44.55432" lon="7.15264">
        <ele>1825.2</ele>
        <time>2022-07-18T11:22:02Z</time>
      </trkpt>
      <trkpt lat="44.5543" lon="7.15265">
        <ele>1825.6</ele>
        <time>2022-07-18T11:22:03Z</time>
      </trkpt>
      <trkpt lat="44.55429" lon="7.15265">
        <ele>1825.6</ele>
        <time>2022-07-18T11:22:04Z</time>
      </trkpt>
      <trkpt lat="44.55427" lon="7.15265">
        <ele>1826</ele>
        <time>2022-07-18T11:22:05Z</time>
      </trkpt>
      <trkpt lat="44.55425" lon="7.15266">
        <ele>1826</ele>
        <time>2022-07-18T11:22:06Z</time>
      </trkpt>
      <trkpt lat="44.55424" lon="7.15266">
        <ele>1826.2</ele>
        <time>2022-07-18T11:22:07Z</time>
      </trkpt>
      <trkpt lat="44.55422" lon="7.15267">
        <ele>1826.2</ele>
        <time>2022-07-18T11:22:08Z</time>
      </trkpt>
      <trkpt lat="44.5542" lon="7.15268">
        <ele>1826.6</ele>
        <time>2022-07-18T11:22:09Z</time>
      </trkpt>
      <trkpt lat="44.55419" lon="7.15268">
        <ele>1826.6</ele>
        <time>2022-07-18T11:22:10Z</time>
      </trkpt>
      <trkpt lat="44.55417" lon="7.15269">
        <ele>1826.8</ele>
        <time>2022-07-18T11:22:11Z</time>
      </trkpt>
      <trkpt lat="44.55416" lon="7.1527">
        <ele>1826.8</ele>
        <time>2022-07-18T11:22:12Z</time>
      </trkpt>
      <trkpt lat="44.55414" lon="7.1527">
        <ele>1827</ele>
        <time>2022-07-18T11:22:13Z</time>
      </trkpt>
      <trkpt lat="44.55413" lon="7.15271">
        <ele>1827</ele>
        <time>2022-07-18T11:22:14Z</time>
      </trkpt>
      <trkpt lat="44.55411" lon="7.15272">
        <ele>1827.4</ele>
        <time>2022-07-18T11:22:15Z</time>
      </trkpt>
      <trkpt lat="44.5541" lon="7.15272">
        <ele>1827.4</ele>
        <time>2022-07-18T11:22:16Z</time>
      </trkpt>
      <trkpt lat="44.55408" lon="7.15273">
        <ele>1827.6</ele>
        <time>2022-07-18T11:22:17Z</time>
      </trkpt>
      <trkpt lat="44.55407" lon="7.15273">
        <ele>1827.6</ele>
        <time>2022-07-18T11:22:18Z</time>
      </trkpt>
      <trkpt lat="44.55405" lon="7.15273">
        <ele>1828</ele>
        <time>2022-07-18T11:22:19Z</time>
      </trkpt>
      <trkpt lat="44.55404" lon="7.15274">
        <ele>1828</ele>
        <time>2022-07-18T11:22:20Z</time>
      </trkpt>
      <trkpt lat="44.55403" lon="7.15275">
        <ele>1828.2</ele>
        <time>2022-07-18T11:22:21Z</time>
      </trkpt>
      <trkpt lat="44.55401" lon="7.15276">
        <ele>1828.2</ele>
        <time>2022-07-18T11:22:22Z</time>
      </trkpt>
      <trkpt lat="44.554" lon="7.15277">
        <ele>1828.4</ele>
        <time>2022-07-18T11:22:23Z</time>
      </trkpt>
      <trkpt lat="44.55399" lon="7.15277">
        <ele>1828.4</ele>
        <time>2022-07-18T11:22:24Z</time>
      </trkpt>
      <trkpt lat="44.55397" lon="7.15278">
        <ele>1828.6</ele>
        <time>2022-07-18T11:22:25Z</time>
      </trkpt>
      <trkpt lat="44.55396" lon="7.15278">
        <ele>1828.8</ele>
        <time>2022-07-18T11:22:26Z</time>
      </trkpt>
      <trkpt lat="44.55395" lon="7.15278">
        <ele>1828.8</ele>
        <time>2022-07-18T11:22:27Z</time>
      </trkpt>
      <trkpt lat="44.55393" lon="7.15278">
        <ele>1829.2</ele>
        <time>2022-07-18T11:22:28Z</time>
      </trkpt>
      <trkpt lat="44.55392" lon="7.15279">
        <ele>1829.2</ele>
        <time>2022-07-18T11:22:29Z</time>
      </trkpt>
      <trkpt lat="44.5539" lon="7.15279">
        <ele>1829.4</ele>
        <time>2022-07-18T11:22:30Z</time>
      </trkpt>
      <trkpt lat="44.55389" lon="7.1528">
        <ele>1829.8</ele>
        <time>2022-07-18T11:22:31Z</time>
      </trkpt>
      <trkpt lat="44.55387" lon="7.15281">
        <ele>1829.8</ele>
        <time>2022-07-18T11:22:32Z</time>
      </trkpt>
      <trkpt lat="44.55386" lon="7.15281">
        <ele>1830</ele>
        <time>2022-07-18T11:22:33Z</time>
      </trkpt>
      <trkpt lat="44.55384" lon="7.15282">
        <ele>1830</ele>
        <time>2022-07-18T11:22:34Z</time>
      </trkpt>
      <trkpt lat="44.55383" lon="7.15282">
        <ele>1830.2</ele>
        <time>2022-07-18T11:22:35Z</time>
      </trkpt>
      <trkpt lat="44.55381" lon="7.15283">
        <ele>1830.2</ele>
        <time>2022-07-18T11:22:36Z</time>
      </trkpt>
      <trkpt lat="44.55379" lon="7.15283">
        <ele>1830.6</ele>
        <time>2022-07-18T11:22:37Z</time>
      </trkpt>
      <trkpt lat="44.55377" lon="7.15283">
        <ele>1830.6</ele>
        <time>2022-07-18T11:22:38Z</time>
      </trkpt>
      <trkpt lat="44.55376" lon="7.15284">
        <ele>1830.6</ele>
        <time>2022-07-18T11:22:39Z</time>
      </trkpt>
      <trkpt lat="44.55374" lon="7.15285">
        <ele>1831</ele>
        <time>2022-07-18T11:22:40Z</time>
      </trkpt>
      <trkpt lat="44.55373" lon="7.15286">
        <ele>1831</ele>
        <time>2022-07-18T11:22:41Z</time>
      </trkpt>
      <trkpt lat="44.55372" lon="7.15287">
        <ele>1831.2</ele>
        <time>2022-07-18T11:22:42Z</time>
      </trkpt>
      <trkpt lat="44.5537" lon="7.15287">
        <ele>1831.2</ele>
        <time>2022-07-18T11:22:43Z</time>
      </trkpt>
      <trkpt lat="44.55369" lon="7.15288">
        <ele>1831.4</ele>
        <time>2022-07-18T11:22:44Z</time>
      </trkpt>
      <trkpt lat="44.55367" lon="7.15288">
        <ele>1831.4</ele>
        <time>2022-07-18T11:22:45Z</time>
      </trkpt>
      <trkpt lat="44.55365" lon="7.15288">
        <ele>1831.8</ele>
        <time>2022-07-18T11:22:46Z</time>
      </trkpt>
      <trkpt lat="44.55364" lon="7.15288">
        <ele>1831.8</ele>
        <time>2022-07-18T11:22:47Z</time>
      </trkpt>
      <trkpt lat="44.55362" lon="7.15288">
        <ele>1832</ele>
        <time>2022-07-18T11:22:48Z</time>
      </trkpt>
      <trkpt lat="44.5536" lon="7.15288">
        <ele>1832</ele>
        <time>2022-07-18T11:22:49Z</time>
      </trkpt>
      <trkpt lat="44.55359" lon="7.15288">
        <ele>1832.4</ele>
        <time>2022-07-18T11:22:50Z</time>
      </trkpt>
      <trkpt lat="44.55357" lon="7.15288">
        <ele>1832.4</ele>
        <time>2022-07-18T11:22:51Z</time>
      </trkpt>
      <trkpt lat="44.55356" lon="7.15289">
        <ele>1832.6</ele>
        <time>2022-07-18T11:22:52Z</time>
      </trkpt>
      <trkpt lat="44.55354" lon="7.15289">
        <ele>1832.6</ele>
        <time>2022-07-18T11:22:53Z</time>
      </trkpt>
      <trkpt lat="44.55353" lon="7.15289">
        <ele>1833</ele>
        <time>2022-07-18T11:22:54Z</time>
      </trkpt>
      <trkpt lat="44.55351" lon="7.1529">
        <ele>1833.4</ele>
        <time>2022-07-18T11:22:56Z</time>
      </trkpt>
      <trkpt lat="44.5535" lon="7.1529">
        <ele>1833.4</ele>
        <time>2022-07-18T11:22:57Z</time>
      </trkpt>
      <trkpt lat="44.55349" lon="7.1529">
        <ele>1833.4</ele>
        <time>2022-07-18T11:22:58Z</time>
      </trkpt>
      <trkpt lat="44.55347" lon="7.15291">
        <ele>1833.6</ele>
        <time>2022-07-18T11:22:59Z</time>
      </trkpt>
      <trkpt lat="44.55346" lon="7.15292">
        <ele>1833.6</ele>
        <time>2022-07-18T11:23:00Z</time>
      </trkpt>
      <trkpt lat="44.55345" lon="7.15294">
        <ele>1834</ele>
        <time>2022-07-18T11:23:01Z</time>
      </trkpt>
      <trkpt lat="44.55343" lon="7.15294">
        <ele>1834</ele>
        <time>2022-07-18T11:23:02Z</time>
      </trkpt>
      <trkpt lat="44.55342" lon="7.15295">
        <ele>1834.2</ele>
        <time>2022-07-18T11:23:03Z</time>
      </trkpt>
      <trkpt lat="44.5534" lon="7.15295">
        <ele>1834.2</ele>
        <time>2022-07-18T11:23:04Z</time>
      </trkpt>
      <trkpt lat="44.55339" lon="7.15296">
        <ele>1834.4</ele>
        <time>2022-07-18T11:23:05Z</time>
      </trkpt>
      <trkpt lat="44.55337" lon="7.15297">
        <ele>1834.4</ele>
        <time>2022-07-18T11:23:06Z</time>
      </trkpt>
      <trkpt lat="44.55336" lon="7.15298">
        <ele>1834.8</ele>
        <time>2022-07-18T11:23:07Z</time>
      </trkpt>
      <trkpt lat="44.55335" lon="7.15299">
        <ele>1834.8</ele>
        <time>2022-07-18T11:23:08Z</time>
      </trkpt>
      <trkpt lat="44.55334" lon="7.153">
        <ele>1835</ele>
        <time>2022-07-18T11:23:09Z</time>
      </trkpt>
      <trkpt lat="44.55333" lon="7.15301">
        <ele>1835</ele>
        <time>2022-07-18T11:23:10Z</time>
      </trkpt>
      <trkpt lat="44.55331" lon="7.15302">
        <ele>1835.4</ele>
        <time>2022-07-18T11:23:11Z</time>
      </trkpt>
      <trkpt lat="44.5533" lon="7.15303">
        <ele>1835.4</ele>
        <time>2022-07-18T11:23:12Z</time>
      </trkpt>
      <trkpt lat="44.55328" lon="7.15303">
        <ele>1835.8</ele>
        <time>2022-07-18T11:23:13Z</time>
      </trkpt>
      <trkpt lat="44.55327" lon="7.15304">
        <ele>1835.8</ele>
        <time>2022-07-18T11:23:14Z</time>
      </trkpt>
      <trkpt lat="44.55326" lon="7.15305">
        <ele>1836.2</ele>
        <time>2022-07-18T11:23:15Z</time>
      </trkpt>
      <trkpt lat="44.55324" lon="7.15306">
        <ele>1836.2</ele>
        <time>2022-07-18T11:23:16Z</time>
      </trkpt>
      <trkpt lat="44.55323" lon="7.15307">
        <ele>1836.4</ele>
        <time>2022-07-18T11:23:17Z</time>
      </trkpt>
      <trkpt lat="44.55322" lon="7.15308">
        <ele>1836.4</ele>
        <time>2022-07-18T11:23:18Z</time>
      </trkpt>
      <trkpt lat="44.55321" lon="7.15309">
        <ele>1836.8</ele>
        <time>2022-07-18T11:23:19Z</time>
      </trkpt>
      <trkpt lat="44.55319" lon="7.15309">
        <ele>1836.8</ele>
        <time>2022-07-18T11:23:20Z</time>
      </trkpt>
      <trkpt lat="44.55318" lon="7.1531">
        <ele>1837</ele>
        <time>2022-07-18T11:23:21Z</time>
      </trkpt>
      <trkpt lat="44.55317" lon="7.1531">
        <ele>1837</ele>
        <time>2022-07-18T11:23:22Z</time>
      </trkpt>
      <trkpt lat="44.55315" lon="7.15311">
        <ele>1837.2</ele>
        <time>2022-07-18T11:23:23Z</time>
      </trkpt>
      <trkpt lat="44.55314" lon="7.15312">
        <ele>1837.2</ele>
        <time>2022-07-18T11:23:24Z</time>
      </trkpt>
      <trkpt lat="44.55313" lon="7.15313">
        <ele>1837.2</ele>
        <time>2022-07-18T11:23:25Z</time>
      </trkpt>
      <trkpt lat="44.55312" lon="7.15314">
        <ele>1837.6</ele>
        <time>2022-07-18T11:23:26Z</time>
      </trkpt>
      <trkpt lat="44.5531" lon="7.15314">
        <ele>1837.6</ele>
        <time>2022-07-18T11:23:27Z</time>
      </trkpt>
      <trkpt lat="44.55309" lon="7.15315">
        <ele>1837.8</ele>
        <time>2022-07-18T11:23:28Z</time>
      </trkpt>
      <trkpt lat="44.55307" lon="7.15315">
        <ele>1837.8</ele>
        <time>2022-07-18T11:23:29Z</time>
      </trkpt>
      <trkpt lat="44.55306" lon="7.15315">
        <ele>1838.2</ele>
        <time>2022-07-18T11:23:30Z</time>
      </trkpt>
      <trkpt lat="44.55304" lon="7.15315">
        <ele>1838.2</ele>
        <time>2022-07-18T11:23:31Z</time>
      </trkpt>
      <trkpt lat="44.55303" lon="7.15315">
        <ele>1838.4</ele>
        <time>2022-07-18T11:23:32Z</time>
      </trkpt>
      <trkpt lat="44.55301" lon="7.15314">
        <ele>1838.6</ele>
        <time>2022-07-18T11:23:33Z</time>
      </trkpt>
      <trkpt lat="44.553" lon="7.15315">
        <ele>1838.8</ele>
        <time>2022-07-18T11:23:34Z</time>
      </trkpt>
      <trkpt lat="44.55298" lon="7.15315">
        <ele>1838.8</ele>
        <time>2022-07-18T11:23:35Z</time>
      </trkpt>
      <trkpt lat="44.55297" lon="7.15316">
        <ele>1838.8</ele>
        <time>2022-07-18T11:23:36Z</time>
      </trkpt>
      <trkpt lat="44.55295" lon="7.15316">
        <ele>1839.2</ele>
        <time>2022-07-18T11:23:37Z</time>
      </trkpt>
      <trkpt lat="44.55293" lon="7.15317">
        <ele>1839.2</ele>
        <time>2022-07-18T11:23:38Z</time>
      </trkpt>
      <trkpt lat="44.55292" lon="7.15317">
        <ele>1839.4</ele>
        <time>2022-07-18T11:23:39Z</time>
      </trkpt>
      <trkpt lat="44.5529" lon="7.15318">
        <ele>1839.4</ele>
        <time>2022-07-18T11:23:40Z</time>
      </trkpt>
      <trkpt lat="44.55289" lon="7.15319">
        <ele>1839.8</ele>
        <time>2022-07-18T11:23:41Z</time>
      </trkpt>
      <trkpt lat="44.55287" lon="7.15319">
        <ele>1839.8</ele>
        <time>2022-07-18T11:23:42Z</time>
      </trkpt>
      <trkpt lat="44.55286" lon="7.1532">
        <ele>1840</ele>
        <time>2022-07-18T11:23:43Z</time>
      </trkpt>
      <trkpt lat="44.55284" lon="7.1532">
        <ele>1840</ele>
        <time>2022-07-18T11:23:44Z</time>
      </trkpt>
      <trkpt lat="44.55283" lon="7.15321">
        <ele>1840.4</ele>
        <time>2022-07-18T11:23:45Z</time>
      </trkpt>
      <trkpt lat="44.55282" lon="7.15321">
        <ele>1840.6</ele>
        <time>2022-07-18T11:23:46Z</time>
      </trkpt>
      <trkpt lat="44.5528" lon="7.15321">
        <ele>1840.6</ele>
        <time>2022-07-18T11:23:47Z</time>
      </trkpt>
      <trkpt lat="44.55278" lon="7.15322">
        <ele>1840.6</ele>
        <time>2022-07-18T11:23:48Z</time>
      </trkpt>
      <trkpt lat="44.55277" lon="7.15322">
        <ele>1840.8</ele>
        <time>2022-07-18T11:23:49Z</time>
      </trkpt>
      <trkpt lat="44.55276" lon="7.15323">
        <ele>1841</ele>
        <time>2022-07-18T11:23:50Z</time>
      </trkpt>
      <trkpt lat="44.55274" lon="7.15323">
        <ele>1841</ele>
        <time>2022-07-18T11:23:51Z</time>
      </trkpt>
      <trkpt lat="44.55272" lon="7.15324">
        <ele>1841.4</ele>
        <time>2022-07-18T11:23:52Z</time>
      </trkpt>
      <trkpt lat="44.55271" lon="7.15324">
        <ele>1841.6</ele>
        <time>2022-07-18T11:23:53Z</time>
      </trkpt>
      <trkpt lat="44.55269" lon="7.15324">
        <ele>1841.6</ele>
        <time>2022-07-18T11:23:54Z</time>
      </trkpt>
      <trkpt lat="44.55267" lon="7.15325">
        <ele>1842</ele>
        <time>2022-07-18T11:23:55Z</time>
      </trkpt>
      <trkpt lat="44.55265" lon="7.15325">
        <ele>1842</ele>
        <time>2022-07-18T11:23:56Z</time>
      </trkpt>
      <trkpt lat="44.55264" lon="7.15326">
        <ele>1842.2</ele>
        <time>2022-07-18T11:23:57Z</time>
      </trkpt>
      <trkpt lat="44.55262" lon="7.15327">
        <ele>1842.2</ele>
        <time>2022-07-18T11:23:58Z</time>
      </trkpt>
      <trkpt lat="44.5526" lon="7.15327">
        <ele>1842.6</ele>
        <time>2022-07-18T11:23:59Z</time>
      </trkpt>
      <trkpt lat="44.55259" lon="7.15327">
        <ele>1842.6</ele>
        <time>2022-07-18T11:24:00Z</time>
      </trkpt>
      <trkpt lat="44.55257" lon="7.15327">
        <ele>1843</ele>
        <time>2022-07-18T11:24:01Z</time>
      </trkpt>
      <trkpt lat="44.55255" lon="7.15328">
        <ele>1843</ele>
        <time>2022-07-18T11:24:02Z</time>
      </trkpt>
      <trkpt lat="44.55253" lon="7.15328">
        <ele>1843.2</ele>
        <time>2022-07-18T11:24:03Z</time>
      </trkpt>
      <trkpt lat="44.55251" lon="7.15329">
        <ele>1843.2</ele>
        <time>2022-07-18T11:24:04Z</time>
      </trkpt>
      <trkpt lat="44.5525" lon="7.15329">
        <ele>1843.4</ele>
        <time>2022-07-18T11:24:05Z</time>
      </trkpt>
      <trkpt lat="44.55248" lon="7.1533">
        <ele>1843.6</ele>
        <time>2022-07-18T11:24:06Z</time>
      </trkpt>
      <trkpt lat="44.55247" lon="7.1533">
        <ele>1843.6</ele>
        <time>2022-07-18T11:24:07Z</time>
      </trkpt>
      <trkpt lat="44.55245" lon="7.1533">
        <ele>1844</ele>
        <time>2022-07-18T11:24:08Z</time>
      </trkpt>
      <trkpt lat="44.55244" lon="7.15331">
        <ele>1844.2</ele>
        <time>2022-07-18T11:24:09Z</time>
      </trkpt>
      <trkpt lat="44.55242" lon="7.15331">
        <ele>1844.2</ele>
        <time>2022-07-18T11:24:10Z</time>
      </trkpt>
      <trkpt lat="44.5524" lon="7.15331">
        <ele>1844.6</ele>
        <time>2022-07-18T11:24:11Z</time>
      </trkpt>
      <trkpt lat="44.55239" lon="7.15332">
        <ele>1844.8</ele>
        <time>2022-07-18T11:24:12Z</time>
      </trkpt>
      <trkpt lat="44.55238" lon="7.15332">
        <ele>1844.8</ele>
        <time>2022-07-18T11:24:13Z</time>
      </trkpt>
      <trkpt lat="44.55236" lon="7.15332">
        <ele>1845</ele>
        <time>2022-07-18T11:24:14Z</time>
      </trkpt>
      <trkpt lat="44.55235" lon="7.15331">
        <ele>1845</ele>
        <time>2022-07-18T11:24:15Z</time>
      </trkpt>
      <trkpt lat="44.55233" lon="7.15331">
        <ele>1845.4</ele>
        <time>2022-07-18T11:24:16Z</time>
      </trkpt>
      <trkpt lat="44.55232" lon="7.15332">
        <ele>1845.6</ele>
        <time>2022-07-18T11:24:17Z</time>
      </trkpt>
      <trkpt lat="44.5523" lon="7.15332">
        <ele>1845.6</ele>
        <time>2022-07-18T11:24:18Z</time>
      </trkpt>
      <trkpt lat="44.55229" lon="7.15332">
        <ele>1846</ele>
        <time>2022-07-18T11:24:19Z</time>
      </trkpt>
      <trkpt lat="44.55227" lon="7.15333">
        <ele>1846.2</ele>
        <time>2022-07-18T11:24:20Z</time>
      </trkpt>
      <trkpt lat="44.55225" lon="7.15333">
        <ele>1846.4</ele>
        <time>2022-07-18T11:24:21Z</time>
      </trkpt>
      <trkpt lat="44.55223" lon="7.15333">
        <ele>1846.4</ele>
        <time>2022-07-18T11:24:22Z</time>
      </trkpt>
      <trkpt lat="44.55221" lon="7.15333">
        <ele>1846.8</ele>
        <time>2022-07-18T11:24:23Z</time>
      </trkpt>
      <trkpt lat="44.5522" lon="7.15332">
        <ele>1846.8</ele>
        <time>2022-07-18T11:24:24Z</time>
      </trkpt>
      <trkpt lat="44.55218" lon="7.15331">
        <ele>1847</ele>
        <time>2022-07-18T11:24:25Z</time>
      </trkpt>
      <trkpt lat="44.55216" lon="7.15331">
        <ele>1847</ele>
        <time>2022-07-18T11:24:26Z</time>
      </trkpt>
      <trkpt lat="44.55215" lon="7.1533">
        <ele>1847.4</ele>
        <time>2022-07-18T11:24:27Z</time>
      </trkpt>
      <trkpt lat="44.55213" lon="7.1533">
        <ele>1847.4</ele>
        <time>2022-07-18T11:24:28Z</time>
      </trkpt>
      <trkpt lat="44.55211" lon="7.1533">
        <ele>1847.6</ele>
        <time>2022-07-18T11:24:29Z</time>
      </trkpt>
      <trkpt lat="44.55209" lon="7.15329">
        <ele>1847.6</ele>
        <time>2022-07-18T11:24:30Z</time>
      </trkpt>
      <trkpt lat="44.55207" lon="7.15329">
        <ele>1848</ele>
        <time>2022-07-18T11:24:31Z</time>
      </trkpt>
      <trkpt lat="44.55206" lon="7.15328">
        <ele>1848</ele>
        <time>2022-07-18T11:24:32Z</time>
      </trkpt>
      <trkpt lat="44.55204" lon="7.15327">
        <ele>1848.4</ele>
        <time>2022-07-18T11:24:33Z</time>
      </trkpt>
      <trkpt lat="44.55202" lon="7.15326">
        <ele>1848.4</ele>
        <time>2022-07-18T11:24:34Z</time>
      </trkpt>
      <trkpt lat="44.55201" lon="7.15326">
        <ele>1848.8</ele>
        <time>2022-07-18T11:24:35Z</time>
      </trkpt>
      <trkpt lat="44.55199" lon="7.15325">
        <ele>1848.8</ele>
        <time>2022-07-18T11:24:36Z</time>
      </trkpt>
      <trkpt lat="44.55198" lon="7.15325">
        <ele>1849</ele>
        <time>2022-07-18T11:24:37Z</time>
      </trkpt>
      <trkpt lat="44.55196" lon="7.15324">
        <ele>1849</ele>
        <time>2022-07-18T11:24:38Z</time>
      </trkpt>
      <trkpt lat="44.55194" lon="7.15323">
        <ele>1849.2</ele>
        <time>2022-07-18T11:24:39Z</time>
      </trkpt>
      <trkpt lat="44.55193" lon="7.15323">
        <ele>1849.2</ele>
        <time>2022-07-18T11:24:40Z</time>
      </trkpt>
      <trkpt lat="44.55191" lon="7.15322">
        <ele>1849.6</ele>
        <time>2022-07-18T11:24:41Z</time>
      </trkpt>
      <trkpt lat="44.55189" lon="7.15321">
        <ele>1849.6</ele>
        <time>2022-07-18T11:24:42Z</time>
      </trkpt>
      <trkpt lat="44.55188" lon="7.1532">
        <ele>1849.8</ele>
        <time>2022-07-18T11:24:43Z</time>
      </trkpt>
      <trkpt lat="44.55186" lon="7.1532">
        <ele>1849.8</ele>
        <time>2022-07-18T11:24:44Z</time>
      </trkpt>
      <trkpt lat="44.55184" lon="7.1532">
        <ele>1850.2</ele>
        <time>2022-07-18T11:24:45Z</time>
      </trkpt>
      <trkpt lat="44.55183" lon="7.15321">
        <ele>1850.2</ele>
        <time>2022-07-18T11:24:46Z</time>
      </trkpt>
      <trkpt lat="44.55181" lon="7.15322">
        <ele>1850.4</ele>
        <time>2022-07-18T11:24:47Z</time>
      </trkpt>
      <trkpt lat="44.5518" lon="7.15322">
        <ele>1850.4</ele>
        <time>2022-07-18T11:24:48Z</time>
      </trkpt>
      <trkpt lat="44.55179" lon="7.15322">
        <ele>1850.6</ele>
        <time>2022-07-18T11:24:49Z</time>
      </trkpt>
      <trkpt lat="44.55177" lon="7.15322">
        <ele>1850.8</ele>
        <time>2022-07-18T11:24:50Z</time>
      </trkpt>
      <trkpt lat="44.55176" lon="7.15322">
        <ele>1850.8</ele>
        <time>2022-07-18T11:24:51Z</time>
      </trkpt>
      <trkpt lat="44.55174" lon="7.15321">
        <ele>1851.2</ele>
        <time>2022-07-18T11:24:52Z</time>
      </trkpt>
      <trkpt lat="44.55173" lon="7.15321">
        <ele>1851.2</ele>
        <time>2022-07-18T11:24:53Z</time>
      </trkpt>
      <trkpt lat="44.55171" lon="7.1532">
        <ele>1851.4</ele>
        <time>2022-07-18T11:24:54Z</time>
      </trkpt>
      <trkpt lat="44.55169" lon="7.15319">
        <ele>1851.4</ele>
        <time>2022-07-18T11:24:55Z</time>
      </trkpt>
      <trkpt lat="44.55168" lon="7.15319">
        <ele>1851.8</ele>
        <time>2022-07-18T11:24:56Z</time>
      </trkpt>
      <trkpt lat="44.55166" lon="7.1532">
        <ele>1852</ele>
        <time>2022-07-18T11:24:57Z</time>
      </trkpt>
      <trkpt lat="44.55165" lon="7.15319">
        <ele>1852</ele>
        <time>2022-07-18T11:24:58Z</time>
      </trkpt>
      <trkpt lat="44.55163" lon="7.15319">
        <ele>1852.2</ele>
        <time>2022-07-18T11:24:59Z</time>
      </trkpt>
      <trkpt lat="44.55161" lon="7.15318">
        <ele>1852.2</ele>
        <time>2022-07-18T11:25:00Z</time>
      </trkpt>
      <trkpt lat="44.5516" lon="7.15318">
        <ele>1852.6</ele>
        <time>2022-07-18T11:25:01Z</time>
      </trkpt>
      <trkpt lat="44.55158" lon="7.15318">
        <ele>1852.8</ele>
        <time>2022-07-18T11:25:02Z</time>
      </trkpt>
      <trkpt lat="44.55157" lon="7.15317">
        <ele>1852.8</ele>
        <time>2022-07-18T11:25:03Z</time>
      </trkpt>
      <trkpt lat="44.55155" lon="7.15317">
        <ele>1853.2</ele>
        <time>2022-07-18T11:25:04Z</time>
      </trkpt>
      <trkpt lat="44.55153" lon="7.15316">
        <ele>1853.2</ele>
        <time>2022-07-18T11:25:05Z</time>
      </trkpt>
      <trkpt lat="44.55151" lon="7.15316">
        <ele>1853.6</ele>
        <time>2022-07-18T11:25:06Z</time>
      </trkpt>
      <trkpt lat="44.5515" lon="7.15316">
        <ele>1853.6</ele>
        <time>2022-07-18T11:25:07Z</time>
      </trkpt>
      <trkpt lat="44.55148" lon="7.15315">
        <ele>1853.6</ele>
        <time>2022-07-18T11:25:08Z</time>
      </trkpt>
      <trkpt lat="44.55146" lon="7.15314">
        <ele>1854</ele>
        <time>2022-07-18T11:25:09Z</time>
      </trkpt>
      <trkpt lat="44.55145" lon="7.15314">
        <ele>1854</ele>
        <time>2022-07-18T11:25:10Z</time>
      </trkpt>
      <trkpt lat="44.55143" lon="7.15313">
        <ele>1854.4</ele>
        <time>2022-07-18T11:25:11Z</time>
      </trkpt>
      <trkpt lat="44.55142" lon="7.15312">
        <ele>1854.4</ele>
        <time>2022-07-18T11:25:12Z</time>
      </trkpt>
      <trkpt lat="44.5514" lon="7.15311">
        <ele>1854.6</ele>
        <time>2022-07-18T11:25:13Z</time>
      </trkpt>
      <trkpt lat="44.55139" lon="7.15311">
        <ele>1854.6</ele>
        <time>2022-07-18T11:25:14Z</time>
      </trkpt>
      <trkpt lat="44.55137" lon="7.15311">
        <ele>1855</ele>
        <time>2022-07-18T11:25:15Z</time>
      </trkpt>
      <trkpt lat="44.55136" lon="7.1531">
        <ele>1855</ele>
        <time>2022-07-18T11:25:16Z</time>
      </trkpt>
      <trkpt lat="44.55134" lon="7.1531">
        <ele>1855.4</ele>
        <time>2022-07-18T11:25:17Z</time>
      </trkpt>
      <trkpt lat="44.55133" lon="7.1531">
        <ele>1855.4</ele>
        <time>2022-07-18T11:25:18Z</time>
      </trkpt>
      <trkpt lat="44.55131" lon="7.15309">
        <ele>1855.6</ele>
        <time>2022-07-18T11:25:19Z</time>
      </trkpt>
      <trkpt lat="44.5513" lon="7.15309">
        <ele>1855.6</ele>
        <time>2022-07-18T11:25:20Z</time>
      </trkpt>
      <trkpt lat="44.55128" lon="7.15309">
        <ele>1856</ele>
        <time>2022-07-18T11:25:21Z</time>
      </trkpt>
      <trkpt lat="44.55126" lon="7.15309">
        <ele>1856</ele>
        <time>2022-07-18T11:25:22Z</time>
      </trkpt>
      <trkpt lat="44.55125" lon="7.15309">
        <ele>1856.2</ele>
        <time>2022-07-18T11:25:23Z</time>
      </trkpt>
      <trkpt lat="44.55123" lon="7.15309">
        <ele>1856.2</ele>
        <time>2022-07-18T11:25:24Z</time>
      </trkpt>
      <trkpt lat="44.55121" lon="7.15309">
        <ele>1856.6</ele>
        <time>2022-07-18T11:25:25Z</time>
      </trkpt>
      <trkpt lat="44.5512" lon="7.15309">
        <ele>1856.8</ele>
        <time>2022-07-18T11:25:26Z</time>
      </trkpt>
      <trkpt lat="44.55118" lon="7.15309">
        <ele>1857</ele>
        <time>2022-07-18T11:25:27Z</time>
      </trkpt>
      <trkpt lat="44.55116" lon="7.15309">
        <ele>1857</ele>
        <time>2022-07-18T11:25:28Z</time>
      </trkpt>
      <trkpt lat="44.55115" lon="7.15308">
        <ele>1857.4</ele>
        <time>2022-07-18T11:25:29Z</time>
      </trkpt>
      <trkpt lat="44.55113" lon="7.15308">
        <ele>1857.4</ele>
        <time>2022-07-18T11:25:30Z</time>
      </trkpt>
      <trkpt lat="44.55112" lon="7.15308">
        <ele>1857.6</ele>
        <time>2022-07-18T11:25:31Z</time>
      </trkpt>
      <trkpt lat="44.5511" lon="7.15308">
        <ele>1857.6</ele>
        <time>2022-07-18T11:25:32Z</time>
      </trkpt>
      <trkpt lat="44.55108" lon="7.15307">
        <ele>1858</ele>
        <time>2022-07-18T11:25:33Z</time>
      </trkpt>
      <trkpt lat="44.55107" lon="7.15307">
        <ele>1858</ele>
        <time>2022-07-18T11:25:34Z</time>
      </trkpt>
      <trkpt lat="44.55105" lon="7.15307">
        <ele>1858.2</ele>
        <time>2022-07-18T11:25:35Z</time>
      </trkpt>
      <trkpt lat="44.55104" lon="7.15306">
        <ele>1858.2</ele>
        <time>2022-07-18T11:25:36Z</time>
      </trkpt>
      <trkpt lat="44.55103" lon="7.15306">
        <ele>1858.2</ele>
        <time>2022-07-18T11:25:37Z</time>
      </trkpt>
      <trkpt lat="44.55101" lon="7.15306">
        <ele>1858.6</ele>
        <time>2022-07-18T11:25:38Z</time>
      </trkpt>
      <trkpt lat="44.551" lon="7.15306">
        <ele>1858.8</ele>
        <time>2022-07-18T11:25:39Z</time>
      </trkpt>
      <trkpt lat="44.55098" lon="7.15306">
        <ele>1858.8</ele>
        <time>2022-07-18T11:25:40Z</time>
      </trkpt>
      <trkpt lat="44.55096" lon="7.15305">
        <ele>1859.2</ele>
        <time>2022-07-18T11:25:41Z</time>
      </trkpt>
      <trkpt lat="44.55094" lon="7.15305">
        <ele>1859.2</ele>
        <time>2022-07-18T11:25:42Z</time>
      </trkpt>
      <trkpt lat="44.55092" lon="7.15305">
        <ele>1859.4</ele>
        <time>2022-07-18T11:25:43Z</time>
      </trkpt>
      <trkpt lat="44.55091" lon="7.15305">
        <ele>1859.4</ele>
        <time>2022-07-18T11:25:44Z</time>
      </trkpt>
      <trkpt lat="44.55089" lon="7.15305">
        <ele>1859.8</ele>
        <time>2022-07-18T11:25:45Z</time>
      </trkpt>
      <trkpt lat="44.55087" lon="7.15305">
        <ele>1859.8</ele>
        <time>2022-07-18T11:25:46Z</time>
      </trkpt>
      <trkpt lat="44.55086" lon="7.15305">
        <ele>1860</ele>
        <time>2022-07-18T11:25:47Z</time>
      </trkpt>
      <trkpt lat="44.55084" lon="7.15305">
        <ele>1860</ele>
        <time>2022-07-18T11:25:48Z</time>
      </trkpt>
      <trkpt lat="44.55083" lon="7.15304">
        <ele>1860.4</ele>
        <time>2022-07-18T11:25:49Z</time>
      </trkpt>
      <trkpt lat="44.55081" lon="7.15305">
        <ele>1860.4</ele>
        <time>2022-07-18T11:25:50Z</time>
      </trkpt>
      <trkpt lat="44.5508" lon="7.15305">
        <ele>1860.6</ele>
        <time>2022-07-18T11:25:51Z</time>
      </trkpt>
      <trkpt lat="44.55078" lon="7.15305">
        <ele>1860.6</ele>
        <time>2022-07-18T11:25:52Z</time>
      </trkpt>
      <trkpt lat="44.55077" lon="7.15305">
        <ele>1860.8</ele>
        <time>2022-07-18T11:25:53Z</time>
      </trkpt>
      <trkpt lat="44.55076" lon="7.15305">
        <ele>1860.8</ele>
        <time>2022-07-18T11:25:54Z</time>
      </trkpt>
      <trkpt lat="44.55074" lon="7.15305">
        <ele>1861.2</ele>
        <time>2022-07-18T11:25:55Z</time>
      </trkpt>
      <trkpt lat="44.55072" lon="7.15305">
        <ele>1861.2</ele>
        <time>2022-07-18T11:25:56Z</time>
      </trkpt>
      <trkpt lat="44.55071" lon="7.15305">
        <ele>1861.4</ele>
        <time>2022-07-18T11:25:57Z</time>
      </trkpt>
      <trkpt lat="44.55069" lon="7.15305">
        <ele>1861.4</ele>
        <time>2022-07-18T11:25:58Z</time>
      </trkpt>
      <trkpt lat="44.55068" lon="7.15305">
        <ele>1861.8</ele>
        <time>2022-07-18T11:25:59Z</time>
      </trkpt>
      <trkpt lat="44.55066" lon="7.15305">
        <ele>1861.8</ele>
        <time>2022-07-18T11:26:00Z</time>
      </trkpt>
      <trkpt lat="44.55064" lon="7.15305">
        <ele>1862</ele>
        <time>2022-07-18T11:26:01Z</time>
      </trkpt>
      <trkpt lat="44.55063" lon="7.15305">
        <ele>1862</ele>
        <time>2022-07-18T11:26:02Z</time>
      </trkpt>
      <trkpt lat="44.55061" lon="7.15305">
        <ele>1862.4</ele>
        <time>2022-07-18T11:26:03Z</time>
      </trkpt>
      <trkpt lat="44.55059" lon="7.15305">
        <ele>1862.4</ele>
        <time>2022-07-18T11:26:04Z</time>
      </trkpt>
      <trkpt lat="44.55058" lon="7.15306">
        <ele>1862.6</ele>
        <time>2022-07-18T11:26:05Z</time>
      </trkpt>
      <trkpt lat="44.55056" lon="7.15306">
        <ele>1862.8</ele>
        <time>2022-07-18T11:26:06Z</time>
      </trkpt>
      <trkpt lat="44.55054" lon="7.15306">
        <ele>1862.8</ele>
        <time>2022-07-18T11:26:07Z</time>
      </trkpt>
      <trkpt lat="44.55053" lon="7.15306">
        <ele>1863.2</ele>
        <time>2022-07-18T11:26:08Z</time>
      </trkpt>
      <trkpt lat="44.55052" lon="7.15307">
        <ele>1863.2</ele>
        <time>2022-07-18T11:26:09Z</time>
      </trkpt>
      <trkpt lat="44.5505" lon="7.15307">
        <ele>1863.4</ele>
        <time>2022-07-18T11:26:10Z</time>
      </trkpt>
      <trkpt lat="44.55049" lon="7.15307">
        <ele>1863.4</ele>
        <time>2022-07-18T11:26:11Z</time>
      </trkpt>
      <trkpt lat="44.55047" lon="7.15307">
        <ele>1863.6</ele>
        <time>2022-07-18T11:26:12Z</time>
      </trkpt>
      <trkpt lat="44.55046" lon="7.15307">
        <ele>1863.6</ele>
        <time>2022-07-18T11:26:13Z</time>
      </trkpt>
      <trkpt lat="44.55044" lon="7.15307">
        <ele>1863.6</ele>
        <time>2022-07-18T11:26:14Z</time>
      </trkpt>
      <trkpt lat="44.55042" lon="7.15307">
        <ele>1863.8</ele>
        <time>2022-07-18T11:26:15Z</time>
      </trkpt>
      <trkpt lat="44.55041" lon="7.15307">
        <ele>1863.8</ele>
        <time>2022-07-18T11:26:16Z</time>
      </trkpt>
      <trkpt lat="44.55039" lon="7.15308">
        <ele>1864.2</ele>
        <time>2022-07-18T11:26:17Z</time>
      </trkpt>
      <trkpt lat="44.55037" lon="7.15309">
        <ele>1864.2</ele>
        <time>2022-07-18T11:26:18Z</time>
      </trkpt>
      <trkpt lat="44.55036" lon="7.15309">
        <ele>1864.4</ele>
        <time>2022-07-18T11:26:19Z</time>
      </trkpt>
      <trkpt lat="44.55034" lon="7.15309">
        <ele>1864.4</ele>
        <time>2022-07-18T11:26:20Z</time>
      </trkpt>
      <trkpt lat="44.55033" lon="7.15309">
        <ele>1864.8</ele>
        <time>2022-07-18T11:26:21Z</time>
      </trkpt>
      <trkpt lat="44.55031" lon="7.1531">
        <ele>1864.8</ele>
        <time>2022-07-18T11:26:22Z</time>
      </trkpt>
      <trkpt lat="44.5503" lon="7.1531">
        <ele>1865</ele>
        <time>2022-07-18T11:26:23Z</time>
      </trkpt>
      <trkpt lat="44.55028" lon="7.1531">
        <ele>1865</ele>
        <time>2022-07-18T11:26:24Z</time>
      </trkpt>
      <trkpt lat="44.55026" lon="7.15311">
        <ele>1865.4</ele>
        <time>2022-07-18T11:26:25Z</time>
      </trkpt>
      <trkpt lat="44.55024" lon="7.15311">
        <ele>1865.4</ele>
        <time>2022-07-18T11:26:26Z</time>
      </trkpt>
      <trkpt lat="44.55022" lon="7.15311">
        <ele>1865.4</ele>
        <time>2022-07-18T11:26:27Z</time>
      </trkpt>
      <trkpt lat="44.5502" lon="7.15311">
        <ele>1865.6</ele>
        <time>2022-07-18T11:26:28Z</time>
      </trkpt>
      <trkpt lat="44.55019" lon="7.15312">
        <ele>1865.6</ele>
        <time>2022-07-18T11:26:29Z</time>
      </trkpt>
      <trkpt lat="44.55017" lon="7.15312">
        <ele>1866</ele>
        <time>2022-07-18T11:26:30Z</time>
      </trkpt>
      <trkpt lat="44.55015" lon="7.15312">
        <ele>1866</ele>
        <time>2022-07-18T11:26:31Z</time>
      </trkpt>
      <trkpt lat="44.55013" lon="7.15313">
        <ele>1866.4</ele>
        <time>2022-07-18T11:26:32Z</time>
      </trkpt>
      <trkpt lat="44.55012" lon="7.15313">
        <ele>1866.4</ele>
        <time>2022-07-18T11:26:33Z</time>
      </trkpt>
      <trkpt lat="44.5501" lon="7.15314">
        <ele>1866.6</ele>
        <time>2022-07-18T11:26:34Z</time>
      </trkpt>
      <trkpt lat="44.55008" lon="7.15315">
        <ele>1866.8</ele>
        <time>2022-07-18T11:26:35Z</time>
      </trkpt>
      <trkpt lat="44.55006" lon="7.15315">
        <ele>1866.8</ele>
        <time>2022-07-18T11:26:36Z</time>
      </trkpt>
      <trkpt lat="44.55004" lon="7.15316">
        <ele>1867.2</ele>
        <time>2022-07-18T11:26:37Z</time>
      </trkpt>
      <trkpt lat="44.55002" lon="7.15317">
        <ele>1867.2</ele>
        <time>2022-07-18T11:26:38Z</time>
      </trkpt>
      <trkpt lat="44.55" lon="7.15317">
        <ele>1867.6</ele>
        <time>2022-07-18T11:26:39Z</time>
      </trkpt>
      <trkpt lat="44.54998" lon="7.15318">
        <ele>1867.6</ele>
        <time>2022-07-18T11:26:40Z</time>
      </trkpt>
      <trkpt lat="44.54996" lon="7.15318">
        <ele>1867.8</ele>
        <time>2022-07-18T11:26:41Z</time>
      </trkpt>
      <trkpt lat="44.54994" lon="7.15319">
        <ele>1867.8</ele>
        <time>2022-07-18T11:26:42Z</time>
      </trkpt>
      <trkpt lat="44.54992" lon="7.15321">
        <ele>1867.8</ele>
        <time>2022-07-18T11:26:43Z</time>
      </trkpt>
      <trkpt lat="44.5499" lon="7.15322">
        <ele>1868.2</ele>
        <time>2022-07-18T11:26:44Z</time>
      </trkpt>
      <trkpt lat="44.54988" lon="7.15323">
        <ele>1868.2</ele>
        <time>2022-07-18T11:26:45Z</time>
      </trkpt>
      <trkpt lat="44.54986" lon="7.15324">
        <ele>1868.4</ele>
        <time>2022-07-18T11:26:46Z</time>
      </trkpt>
      <trkpt lat="44.54985" lon="7.15325">
        <ele>1868.4</ele>
        <time>2022-07-18T11:26:47Z</time>
      </trkpt>
      <trkpt lat="44.54983" lon="7.15325">
        <ele>1868.8</ele>
        <time>2022-07-18T11:26:48Z</time>
      </trkpt>
      <trkpt lat="44.54981" lon="7.15326">
        <ele>1868.8</ele>
        <time>2022-07-18T11:26:49Z</time>
      </trkpt>
      <trkpt lat="44.54979" lon="7.15327">
        <ele>1869</ele>
        <time>2022-07-18T11:26:50Z</time>
      </trkpt>
      <trkpt lat="44.54978" lon="7.15328">
        <ele>1869</ele>
        <time>2022-07-18T11:26:51Z</time>
      </trkpt>
      <trkpt lat="44.54977" lon="7.1533">
        <ele>1869.4</ele>
        <time>2022-07-18T11:26:52Z</time>
      </trkpt>
      <trkpt lat="44.54975" lon="7.15331">
        <ele>1869.4</ele>
        <time>2022-07-18T11:26:53Z</time>
      </trkpt>
      <trkpt lat="44.54973" lon="7.15333">
        <ele>1869.6</ele>
        <time>2022-07-18T11:26:54Z</time>
      </trkpt>
      <trkpt lat="44.54972" lon="7.15335">
        <ele>1869.6</ele>
        <time>2022-07-18T11:26:55Z</time>
      </trkpt>
      <trkpt lat="44.5497" lon="7.15337">
        <ele>1870</ele>
        <time>2022-07-18T11:26:56Z</time>
      </trkpt>
      <trkpt lat="44.54969" lon="7.15339">
        <ele>1870</ele>
        <time>2022-07-18T11:26:57Z</time>
      </trkpt>
      <trkpt lat="44.54967" lon="7.15342">
        <ele>1870.2</ele>
        <time>2022-07-18T11:26:58Z</time>
      </trkpt>
      <trkpt lat="44.54966" lon="7.15344">
        <ele>1870.2</ele>
        <time>2022-07-18T11:26:59Z</time>
      </trkpt>
      <trkpt lat="44.54965" lon="7.15347">
        <ele>1870.4</ele>
        <time>2022-07-18T11:27:00Z</time>
      </trkpt>
      <trkpt lat="44.54964" lon="7.15352">
        <ele>1870.4</ele>
        <time>2022-07-18T11:27:01Z</time>
      </trkpt>
      <trkpt lat="44.54963" lon="7.15355">
        <ele>1870.6</ele>
        <time>2022-07-18T11:27:02Z</time>
      </trkpt>
      <trkpt lat="44.54962" lon="7.15357">
        <ele>1870.6</ele>
        <time>2022-07-18T11:27:03Z</time>
      </trkpt>
      <trkpt lat="44.54959" lon="7.15359">
        <ele>1870.6</ele>
        <time>2022-07-18T11:27:04Z</time>
      </trkpt>
      <trkpt lat="44.54957" lon="7.1536">
        <ele>1871</ele>
        <time>2022-07-18T11:27:05Z</time>
      </trkpt>
      <trkpt lat="44.54955" lon="7.15359">
        <ele>1871</ele>
        <time>2022-07-18T11:27:06Z</time>
      </trkpt>
      <trkpt lat="44.54954" lon="7.15358">
        <ele>1871.2</ele>
        <time>2022-07-18T11:27:07Z</time>
      </trkpt>
      <trkpt lat="44.54953" lon="7.15356">
        <ele>1871.2</ele>
        <time>2022-07-18T11:27:08Z</time>
      </trkpt>
      <trkpt lat="44.54952" lon="7.15353">
        <ele>1871.6</ele>
        <time>2022-07-18T11:27:09Z</time>
      </trkpt>
      <trkpt lat="44.54952" lon="7.1535">
        <ele>1871.6</ele>
        <time>2022-07-18T11:27:10Z</time>
      </trkpt>
      <trkpt lat="44.54953" lon="7.15347">
        <ele>1871.8</ele>
        <time>2022-07-18T11:27:11Z</time>
      </trkpt>
      <trkpt lat="44.54954" lon="7.15345">
        <ele>1871.8</ele>
        <time>2022-07-18T11:27:12Z</time>
      </trkpt>
      <trkpt lat="44.54955" lon="7.15342">
        <ele>1871.8</ele>
        <time>2022-07-18T11:27:13Z</time>
      </trkpt>
      <trkpt lat="44.54956" lon="7.15339">
        <ele>1872</ele>
        <time>2022-07-18T11:27:14Z</time>
      </trkpt>
      <trkpt lat="44.54957" lon="7.15338">
        <ele>1872</ele>
        <time>2022-07-18T11:27:15Z</time>
      </trkpt>
      <trkpt lat="44.5496" lon="7.15337">
        <ele>1872.2</ele>
        <time>2022-07-18T11:27:16Z</time>
      </trkpt>
      <trkpt lat="44.5496" lon="7.15336">
        <ele>1872.2</ele>
        <time>2022-07-18T11:27:17Z</time>
      </trkpt>
      <trkpt lat="44.54961" lon="7.15335">
        <ele>1872.6</ele>
        <time>2022-07-18T11:27:18Z</time>
      </trkpt>
      <trkpt lat="44.54962" lon="7.15334">
        <ele>1872.6</ele>
        <time>2022-07-18T11:27:19Z</time>
      </trkpt>
      <trkpt lat="44.54963" lon="7.15333">
        <ele>1872.6</ele>
        <time>2022-07-18T11:27:20Z</time>
      </trkpt>
      <trkpt lat="44.54965" lon="7.15331">
        <ele>1872.8</ele>
        <time>2022-07-18T11:27:21Z</time>
      </trkpt>
      <trkpt lat="44.54966" lon="7.15329">
        <ele>1872.8</ele>
        <time>2022-07-18T11:27:22Z</time>
      </trkpt>
      <trkpt lat="44.54968" lon="7.15327">
        <ele>1872.8</ele>
        <time>2022-07-18T11:27:23Z</time>
      </trkpt>
      <trkpt lat="44.5497" lon="7.15326">
        <ele>1873</ele>
        <time>2022-07-18T11:27:24Z</time>
      </trkpt>
      <trkpt lat="44.54971" lon="7.15324">
        <ele>1873</ele>
        <time>2022-07-18T11:27:25Z</time>
      </trkpt>
      <trkpt lat="44.54973" lon="7.15323">
        <ele>1873.4</ele>
        <time>2022-07-18T11:27:26Z</time>
      </trkpt>
      <trkpt lat="44.54975" lon="7.15322">
        <ele>1873.4</ele>
        <time>2022-07-18T11:27:27Z</time>
      </trkpt>
      <trkpt lat="44.54976" lon="7.1532">
        <ele>1873.6</ele>
        <time>2022-07-18T11:27:28Z</time>
      </trkpt>
      <trkpt lat="44.54978" lon="7.15319">
        <ele>1873.6</ele>
        <time>2022-07-18T11:27:29Z</time>
      </trkpt>
      <trkpt lat="44.5498" lon="7.15317">
        <ele>1874</ele>
        <time>2022-07-18T11:27:30Z</time>
      </trkpt>
      <trkpt lat="44.54981" lon="7.15315">
        <ele>1874</ele>
        <time>2022-07-18T11:27:31Z</time>
      </trkpt>
      <trkpt lat="44.54983" lon="7.15314">
        <ele>1874.2</ele>
        <time>2022-07-18T11:27:32Z</time>
      </trkpt>
      <trkpt lat="44.54985" lon="7.15312">
        <ele>1874.2</ele>
        <time>2022-07-18T11:27:33Z</time>
      </trkpt>
      <trkpt lat="44.54987" lon="7.15311">
        <ele>1874.6</ele>
        <time>2022-07-18T11:27:34Z</time>
      </trkpt>
      <trkpt lat="44.54988" lon="7.15309">
        <ele>1874.6</ele>
        <time>2022-07-18T11:27:35Z</time>
      </trkpt>
      <trkpt lat="44.5499" lon="7.15308">
        <ele>1874.8</ele>
        <time>2022-07-18T11:27:36Z</time>
      </trkpt>
      <trkpt lat="44.54991" lon="7.15306">
        <ele>1875</ele>
        <time>2022-07-18T11:27:37Z</time>
      </trkpt>
      <trkpt lat="44.54993" lon="7.15305">
        <ele>1875</ele>
        <time>2022-07-18T11:27:38Z</time>
      </trkpt>
      <trkpt lat="44.54994" lon="7.15303">
        <ele>1875.4</ele>
        <time>2022-07-18T11:27:39Z</time>
      </trkpt>
      <trkpt lat="44.54996" lon="7.15302">
        <ele>1875.4</ele>
        <time>2022-07-18T11:27:40Z</time>
      </trkpt>
      <trkpt lat="44.54998" lon="7.153">
        <ele>1875.8</ele>
        <time>2022-07-18T11:27:41Z</time>
      </trkpt>
      <trkpt lat="44.55" lon="7.15299">
        <ele>1875.8</ele>
        <time>2022-07-18T11:27:42Z</time>
      </trkpt>
      <trkpt lat="44.55002" lon="7.15297">
        <ele>1876.2</ele>
        <time>2022-07-18T11:27:43Z</time>
      </trkpt>
      <trkpt lat="44.55004" lon="7.15295">
        <ele>1876.4</ele>
        <time>2022-07-18T11:27:44Z</time>
      </trkpt>
      <trkpt lat="44.55006" lon="7.15294">
        <ele>1876.6</ele>
        <time>2022-07-18T11:27:45Z</time>
      </trkpt>
      <trkpt lat="44.55007" lon="7.15292">
        <ele>1876.6</ele>
        <time>2022-07-18T11:27:46Z</time>
      </trkpt>
      <trkpt lat="44.55009" lon="7.1529">
        <ele>1876.8</ele>
        <time>2022-07-18T11:27:47Z</time>
      </trkpt>
      <trkpt lat="44.55011" lon="7.15289">
        <ele>1877</ele>
        <time>2022-07-18T11:27:48Z</time>
      </trkpt>
      <trkpt lat="44.55012" lon="7.15287">
        <ele>1877</ele>
        <time>2022-07-18T11:27:49Z</time>
      </trkpt>
      <trkpt lat="44.55014" lon="7.15286">
        <ele>1877.4</ele>
        <time>2022-07-18T11:27:50Z</time>
      </trkpt>
      <trkpt lat="44.55015" lon="7.15284">
        <ele>1877.4</ele>
        <time>2022-07-18T11:27:51Z</time>
      </trkpt>
      <trkpt lat="44.55017" lon="7.15283">
        <ele>1877.8</ele>
        <time>2022-07-18T11:27:52Z</time>
      </trkpt>
      <trkpt lat="44.55018" lon="7.15282">
        <ele>1877.8</ele>
        <time>2022-07-18T11:27:53Z</time>
      </trkpt>
      <trkpt lat="44.5502" lon="7.15281">
        <ele>1878.2</ele>
        <time>2022-07-18T11:27:54Z</time>
      </trkpt>
      <trkpt lat="44.55021" lon="7.1528">
        <ele>1878.2</ele>
        <time>2022-07-18T11:27:55Z</time>
      </trkpt>
      <trkpt lat="44.55023" lon="7.1528">
        <ele>1878.6</ele>
        <time>2022-07-18T11:27:56Z</time>
      </trkpt>
      <trkpt lat="44.55025" lon="7.15279">
        <ele>1878.6</ele>
        <time>2022-07-18T11:27:57Z</time>
      </trkpt>
      <trkpt lat="44.55027" lon="7.15278">
        <ele>1878.8</ele>
        <time>2022-07-18T11:27:58Z</time>
      </trkpt>
      <trkpt lat="44.55028" lon="7.15277">
        <ele>1878.8</ele>
        <time>2022-07-18T11:27:59Z</time>
      </trkpt>
      <trkpt lat="44.5503" lon="7.15275">
        <ele>1879.2</ele>
        <time>2022-07-18T11:28:00Z</time>
      </trkpt>
      <trkpt lat="44.55031" lon="7.15274">
        <ele>1879.4</ele>
        <time>2022-07-18T11:28:01Z</time>
      </trkpt>
      <trkpt lat="44.55033" lon="7.15272">
        <ele>1879.4</ele>
        <time>2022-07-18T11:28:02Z</time>
      </trkpt>
      <trkpt lat="44.55034" lon="7.15272">
        <ele>1879.6</ele>
        <time>2022-07-18T11:28:03Z</time>
      </trkpt>
      <trkpt lat="44.55036" lon="7.15271">
        <ele>1879.6</ele>
        <time>2022-07-18T11:28:04Z</time>
      </trkpt>
      <trkpt lat="44.55038" lon="7.1527">
        <ele>1880</ele>
        <time>2022-07-18T11:28:05Z</time>
      </trkpt>
      <trkpt lat="44.55039" lon="7.15269">
        <ele>1880</ele>
        <time>2022-07-18T11:28:06Z</time>
      </trkpt>
      <trkpt lat="44.55041" lon="7.15268">
        <ele>1880.2</ele>
        <time>2022-07-18T11:28:07Z</time>
      </trkpt>
      <trkpt lat="44.55043" lon="7.15268">
        <ele>1880.2</ele>
        <time>2022-07-18T11:28:08Z</time>
      </trkpt>
      <trkpt lat="44.55044" lon="7.15267">
        <ele>1880.6</ele>
        <time>2022-07-18T11:28:09Z</time>
      </trkpt>
      <trkpt lat="44.55046" lon="7.15266">
        <ele>1880.6</ele>
        <time>2022-07-18T11:28:10Z</time>
      </trkpt>
      <trkpt lat="44.55048" lon="7.15265">
        <ele>1881</ele>
        <time>2022-07-18T11:28:11Z</time>
      </trkpt>
      <trkpt lat="44.5505" lon="7.15265">
        <ele>1881</ele>
        <time>2022-07-18T11:28:12Z</time>
      </trkpt>
      <trkpt lat="44.55051" lon="7.15264">
        <ele>1881.2</ele>
        <time>2022-07-18T11:28:13Z</time>
      </trkpt>
      <trkpt lat="44.55053" lon="7.15263">
        <ele>1881.2</ele>
        <time>2022-07-18T11:28:14Z</time>
      </trkpt>
      <trkpt lat="44.55055" lon="7.15262">
        <ele>1881.6</ele>
        <time>2022-07-18T11:28:15Z</time>
      </trkpt>
      <trkpt lat="44.55057" lon="7.15261">
        <ele>1881.6</ele>
        <time>2022-07-18T11:28:16Z</time>
      </trkpt>
      <trkpt lat="44.55058" lon="7.1526">
        <ele>1881.8</ele>
        <time>2022-07-18T11:28:17Z</time>
      </trkpt>
      <trkpt lat="44.55059" lon="7.15259">
        <ele>1882</ele>
        <time>2022-07-18T11:28:18Z</time>
      </trkpt>
      <trkpt lat="44.55061" lon="7.15258">
        <ele>1882</ele>
        <time>2022-07-18T11:28:19Z</time>
      </trkpt>
      <trkpt lat="44.55063" lon="7.15257">
        <ele>1882.2</ele>
        <time>2022-07-18T11:28:20Z</time>
      </trkpt>
      <trkpt lat="44.55064" lon="7.15256">
        <ele>1882.2</ele>
        <time>2022-07-18T11:28:21Z</time>
      </trkpt>
      <trkpt lat="44.55065" lon="7.15255">
        <ele>1882.6</ele>
        <time>2022-07-18T11:28:22Z</time>
      </trkpt>
      <trkpt lat="44.55067" lon="7.15254">
        <ele>1882.6</ele>
        <time>2022-07-18T11:28:23Z</time>
      </trkpt>
      <trkpt lat="44.55069" lon="7.15253">
        <ele>1882.8</ele>
        <time>2022-07-18T11:28:24Z</time>
      </trkpt>
      <trkpt lat="44.5507" lon="7.15252">
        <ele>1882.8</ele>
        <time>2022-07-18T11:28:25Z</time>
      </trkpt>
      <trkpt lat="44.55072" lon="7.15251">
        <ele>1883</ele>
        <time>2022-07-18T11:28:26Z</time>
      </trkpt>
      <trkpt lat="44.55073" lon="7.15251">
        <ele>1883.2</ele>
        <time>2022-07-18T11:28:27Z</time>
      </trkpt>
      <trkpt lat="44.55075" lon="7.1525">
        <ele>1883.2</ele>
        <time>2022-07-18T11:28:28Z</time>
      </trkpt>
      <trkpt lat="44.55076" lon="7.1525">
        <ele>1883.4</ele>
        <time>2022-07-18T11:28:29Z</time>
      </trkpt>
      <trkpt lat="44.55078" lon="7.1525">
        <ele>1883.4</ele>
        <time>2022-07-18T11:28:30Z</time>
      </trkpt>
      <trkpt lat="44.5508" lon="7.15249">
        <ele>1883.8</ele>
        <time>2022-07-18T11:28:31Z</time>
      </trkpt>
      <trkpt lat="44.55081" lon="7.15248">
        <ele>1883.8</ele>
        <time>2022-07-18T11:28:32Z</time>
      </trkpt>
      <trkpt lat="44.55083" lon="7.15247">
        <ele>1884.2</ele>
        <time>2022-07-18T11:28:33Z</time>
      </trkpt>
      <trkpt lat="44.55084" lon="7.15246">
        <ele>1884.2</ele>
        <time>2022-07-18T11:28:34Z</time>
      </trkpt>
      <trkpt lat="44.55086" lon="7.15245">
        <ele>1884.4</ele>
        <time>2022-07-18T11:28:35Z</time>
      </trkpt>
      <trkpt lat="44.55087" lon="7.15244">
        <ele>1884.4</ele>
        <time>2022-07-18T11:28:36Z</time>
      </trkpt>
      <trkpt lat="44.55089" lon="7.15244">
        <ele>1884.8</ele>
        <time>2022-07-18T11:28:37Z</time>
      </trkpt>
      <trkpt lat="44.5509" lon="7.15243">
        <ele>1884.8</ele>
        <time>2022-07-18T11:28:38Z</time>
      </trkpt>
      <trkpt lat="44.55092" lon="7.15243">
        <ele>1885</ele>
        <time>2022-07-18T11:28:39Z</time>
      </trkpt>
      <trkpt lat="44.55094" lon="7.15244">
        <ele>1885</ele>
        <time>2022-07-18T11:28:40Z</time>
      </trkpt>
      <trkpt lat="44.55095" lon="7.15243">
        <ele>1885.4</ele>
        <time>2022-07-18T11:28:41Z</time>
      </trkpt>
      <trkpt lat="44.55097" lon="7.15243">
        <ele>1885.4</ele>
        <time>2022-07-18T11:28:42Z</time>
      </trkpt>
      <trkpt lat="44.55099" lon="7.15242">
        <ele>1885.6</ele>
        <time>2022-07-18T11:28:43Z</time>
      </trkpt>
      <trkpt lat="44.55101" lon="7.15242">
        <ele>1885.6</ele>
        <time>2022-07-18T11:28:44Z</time>
      </trkpt>
      <trkpt lat="44.55103" lon="7.15242">
        <ele>1886</ele>
        <time>2022-07-18T11:28:45Z</time>
      </trkpt>
      <trkpt lat="44.55105" lon="7.15241">
        <ele>1886</ele>
        <time>2022-07-18T11:28:46Z</time>
      </trkpt>
      <trkpt lat="44.55107" lon="7.15241">
        <ele>1886.2</ele>
        <time>2022-07-18T11:28:47Z</time>
      </trkpt>
      <trkpt lat="44.55109" lon="7.15241">
        <ele>1886.2</ele>
        <time>2022-07-18T11:28:48Z</time>
      </trkpt>
      <trkpt lat="44.55111" lon="7.15241">
        <ele>1886.6</ele>
        <time>2022-07-18T11:28:49Z</time>
      </trkpt>
      <trkpt lat="44.55113" lon="7.15241">
        <ele>1886.6</ele>
        <time>2022-07-18T11:28:50Z</time>
      </trkpt>
      <trkpt lat="44.55114" lon="7.15241">
        <ele>1886.8</ele>
        <time>2022-07-18T11:28:51Z</time>
      </trkpt>
      <trkpt lat="44.55116" lon="7.15241">
        <ele>1886.8</ele>
        <time>2022-07-18T11:28:52Z</time>
      </trkpt>
      <trkpt lat="44.55118" lon="7.15241">
        <ele>1887.2</ele>
        <time>2022-07-18T11:28:53Z</time>
      </trkpt>
      <trkpt lat="44.5512" lon="7.15241">
        <ele>1887.2</ele>
        <time>2022-07-18T11:28:54Z</time>
      </trkpt>
      <trkpt lat="44.55122" lon="7.15241">
        <ele>1887.6</ele>
        <time>2022-07-18T11:28:55Z</time>
      </trkpt>
      <trkpt lat="44.55124" lon="7.15241">
        <ele>1887.6</ele>
        <time>2022-07-18T11:28:56Z</time>
      </trkpt>
      <trkpt lat="44.55126" lon="7.15241">
        <ele>1887.8</ele>
        <time>2022-07-18T11:28:57Z</time>
      </trkpt>
      <trkpt lat="44.55128" lon="7.15241">
        <ele>1887.8</ele>
        <time>2022-07-18T11:28:58Z</time>
      </trkpt>
      <trkpt lat="44.55129" lon="7.15242">
        <ele>1888</ele>
        <time>2022-07-18T11:28:59Z</time>
      </trkpt>
      <trkpt lat="44.55131" lon="7.15242">
        <ele>1888</ele>
        <time>2022-07-18T11:29:00Z</time>
      </trkpt>
      <trkpt lat="44.55132" lon="7.15242">
        <ele>1888.2</ele>
        <time>2022-07-18T11:29:01Z</time>
      </trkpt>
      <trkpt lat="44.55134" lon="7.15242">
        <ele>1888.2</ele>
        <time>2022-07-18T11:29:02Z</time>
      </trkpt>
      <trkpt lat="44.55135" lon="7.15242">
        <ele>1888.6</ele>
        <time>2022-07-18T11:29:03Z</time>
      </trkpt>
      <trkpt lat="44.55137" lon="7.15242">
        <ele>1888.6</ele>
        <time>2022-07-18T11:29:04Z</time>
      </trkpt>
      <trkpt lat="44.55139" lon="7.15242">
        <ele>1888.6</ele>
        <time>2022-07-18T11:29:05Z</time>
      </trkpt>
      <trkpt lat="44.5514" lon="7.15243">
        <ele>1889</ele>
        <time>2022-07-18T11:29:06Z</time>
      </trkpt>
      <trkpt lat="44.55142" lon="7.15243">
        <ele>1889</ele>
        <time>2022-07-18T11:29:07Z</time>
      </trkpt>
      <trkpt lat="44.55143" lon="7.15243">
        <ele>1889.2</ele>
        <time>2022-07-18T11:29:08Z</time>
      </trkpt>
      <trkpt lat="44.55145" lon="7.15243">
        <ele>1889.2</ele>
        <time>2022-07-18T11:29:09Z</time>
      </trkpt>
      <trkpt lat="44.55147" lon="7.15242">
        <ele>1889.4</ele>
        <time>2022-07-18T11:29:10Z</time>
      </trkpt>
      <trkpt lat="44.55149" lon="7.15243">
        <ele>1889.4</ele>
        <time>2022-07-18T11:29:11Z</time>
      </trkpt>
      <trkpt lat="44.55151" lon="7.15242">
        <ele>1889.8</ele>
        <time>2022-07-18T11:29:12Z</time>
      </trkpt>
      <trkpt lat="44.55153" lon="7.15243">
        <ele>1890</ele>
        <time>2022-07-18T11:29:13Z</time>
      </trkpt>
      <trkpt lat="44.55155" lon="7.15243">
        <ele>1890</ele>
        <time>2022-07-18T11:29:14Z</time>
      </trkpt>
      <trkpt lat="44.55157" lon="7.15244">
        <ele>1890.2</ele>
        <time>2022-07-18T11:29:15Z</time>
      </trkpt>
      <trkpt lat="44.55159" lon="7.15245">
        <ele>1890.2</ele>
        <time>2022-07-18T11:29:16Z</time>
      </trkpt>
      <trkpt lat="44.55161" lon="7.15245">
        <ele>1890.2</ele>
        <time>2022-07-18T11:29:17Z</time>
      </trkpt>
      <trkpt lat="44.55163" lon="7.15245">
        <ele>1890.6</ele>
        <time>2022-07-18T11:29:18Z</time>
      </trkpt>
      <trkpt lat="44.55165" lon="7.15246">
        <ele>1890.6</ele>
        <time>2022-07-18T11:29:19Z</time>
      </trkpt>
      <trkpt lat="44.55167" lon="7.15246">
        <ele>1890.8</ele>
        <time>2022-07-18T11:29:20Z</time>
      </trkpt>
      <trkpt lat="44.55169" lon="7.15247">
        <ele>1890.8</ele>
        <time>2022-07-18T11:29:21Z</time>
      </trkpt>
      <trkpt lat="44.55171" lon="7.15247">
        <ele>1891</ele>
        <time>2022-07-18T11:29:22Z</time>
      </trkpt>
      <trkpt lat="44.55173" lon="7.15247">
        <ele>1891</ele>
        <time>2022-07-18T11:29:23Z</time>
      </trkpt>
      <trkpt lat="44.55175" lon="7.15247">
        <ele>1891.4</ele>
        <time>2022-07-18T11:29:24Z</time>
      </trkpt>
      <trkpt lat="44.55177" lon="7.15247">
        <ele>1891.4</ele>
        <time>2022-07-18T11:29:25Z</time>
      </trkpt>
      <trkpt lat="44.55179" lon="7.15247">
        <ele>1891.6</ele>
        <time>2022-07-18T11:29:26Z</time>
      </trkpt>
      <trkpt lat="44.55181" lon="7.15248">
        <ele>1891.6</ele>
        <time>2022-07-18T11:29:27Z</time>
      </trkpt>
      <trkpt lat="44.55184" lon="7.15248">
        <ele>1892</ele>
        <time>2022-07-18T11:29:28Z</time>
      </trkpt>
      <trkpt lat="44.55186" lon="7.15249">
        <ele>1892</ele>
        <time>2022-07-18T11:29:29Z</time>
      </trkpt>
      <trkpt lat="44.55191" lon="7.15249">
        <ele>1892.2</ele>
        <time>2022-07-18T11:29:30Z</time>
      </trkpt>
      <trkpt lat="44.55193" lon="7.15248">
        <ele>1892.2</ele>
        <time>2022-07-18T11:29:31Z</time>
      </trkpt>
      <trkpt lat="44.55196" lon="7.15247">
        <ele>1892.6</ele>
        <time>2022-07-18T11:29:32Z</time>
      </trkpt>
      <trkpt lat="44.55198" lon="7.15247">
        <ele>1892.6</ele>
        <time>2022-07-18T11:29:33Z</time>
      </trkpt>
      <trkpt lat="44.552" lon="7.15245">
        <ele>1892.8</ele>
        <time>2022-07-18T11:29:34Z</time>
      </trkpt>
      <trkpt lat="44.55202" lon="7.15244">
        <ele>1892.8</ele>
        <time>2022-07-18T11:29:35Z</time>
      </trkpt>
      <trkpt lat="44.55203" lon="7.15242">
        <ele>1893</ele>
        <time>2022-07-18T11:29:36Z</time>
      </trkpt>
      <trkpt lat="44.55205" lon="7.1524">
        <ele>1893</ele>
        <time>2022-07-18T11:29:37Z</time>
      </trkpt>
      <trkpt lat="44.55206" lon="7.15238">
        <ele>1893.4</ele>
        <time>2022-07-18T11:29:38Z</time>
      </trkpt>
      <trkpt lat="44.55208" lon="7.15236">
        <ele>1893.4</ele>
        <time>2022-07-18T11:29:39Z</time>
      </trkpt>
      <trkpt lat="44.55209" lon="7.15233">
        <ele>1893.6</ele>
        <time>2022-07-18T11:29:40Z</time>
      </trkpt>
      <trkpt lat="44.5521" lon="7.15231">
        <ele>1894</ele>
        <time>2022-07-18T11:29:41Z</time>
      </trkpt>
      <trkpt lat="44.55211" lon="7.15228">
        <ele>1894</ele>
        <time>2022-07-18T11:29:42Z</time>
      </trkpt>
      <trkpt lat="44.55212" lon="7.15226">
        <ele>1894.2</ele>
        <time>2022-07-18T11:29:43Z</time>
      </trkpt>
      <trkpt lat="44.55214" lon="7.15224">
        <ele>1894.2</ele>
        <time>2022-07-18T11:29:44Z</time>
      </trkpt>
      <trkpt lat="44.55215" lon="7.15222">
        <ele>1894.4</ele>
        <time>2022-07-18T11:29:45Z</time>
      </trkpt>
      <trkpt lat="44.55216" lon="7.1522">
        <ele>1894.4</ele>
        <time>2022-07-18T11:29:46Z</time>
      </trkpt>
      <trkpt lat="44.55218" lon="7.15218">
        <ele>1894.8</ele>
        <time>2022-07-18T11:29:47Z</time>
      </trkpt>
      <trkpt lat="44.55219" lon="7.15216">
        <ele>1894.8</ele>
        <time>2022-07-18T11:29:48Z</time>
      </trkpt>
      <trkpt lat="44.5522" lon="7.15214">
        <ele>1895</ele>
        <time>2022-07-18T11:29:49Z</time>
      </trkpt>
      <trkpt lat="44.55221" lon="7.15212">
        <ele>1895</ele>
        <time>2022-07-18T11:29:50Z</time>
      </trkpt>
      <trkpt lat="44.55222" lon="7.15209">
        <ele>1895.2</ele>
        <time>2022-07-18T11:29:51Z</time>
      </trkpt>
      <trkpt lat="44.55223" lon="7.15207">
        <ele>1895.2</ele>
        <time>2022-07-18T11:29:52Z</time>
      </trkpt>
      <trkpt lat="44.55224" lon="7.15204">
        <ele>1895.6</ele>
        <time>2022-07-18T11:29:53Z</time>
      </trkpt>
      <trkpt lat="44.55225" lon="7.15202">
        <ele>1895.6</ele>
        <time>2022-07-18T11:29:54Z</time>
      </trkpt>
      <trkpt lat="44.55226" lon="7.15199">
        <ele>1896</ele>
        <time>2022-07-18T11:29:55Z</time>
      </trkpt>
      <trkpt lat="44.55227" lon="7.15197">
        <ele>1896</ele>
        <time>2022-07-18T11:29:56Z</time>
      </trkpt>
      <trkpt lat="44.55228" lon="7.15195">
        <ele>1896.2</ele>
        <time>2022-07-18T11:29:57Z</time>
      </trkpt>
      <trkpt lat="44.55229" lon="7.15192">
        <ele>1896.2</ele>
        <time>2022-07-18T11:29:58Z</time>
      </trkpt>
      <trkpt lat="44.5523" lon="7.1519">
        <ele>1896.4</ele>
        <time>2022-07-18T11:29:59Z</time>
      </trkpt>
      <trkpt lat="44.55231" lon="7.15187">
        <ele>1896.4</ele>
        <time>2022-07-18T11:30:00Z</time>
      </trkpt>
      <trkpt lat="44.55232" lon="7.15184">
        <ele>1896.8</ele>
        <time>2022-07-18T11:30:01Z</time>
      </trkpt>
      <trkpt lat="44.55233" lon="7.15182">
        <ele>1896.8</ele>
        <time>2022-07-18T11:30:02Z</time>
      </trkpt>
      <trkpt lat="44.55234" lon="7.15179">
        <ele>1897.2</ele>
        <time>2022-07-18T11:30:03Z</time>
      </trkpt>
      <trkpt lat="44.55234" lon="7.15176">
        <ele>1897.2</ele>
        <time>2022-07-18T11:30:04Z</time>
      </trkpt>
      <trkpt lat="44.55235" lon="7.15173">
        <ele>1897.4</ele>
        <time>2022-07-18T11:30:05Z</time>
      </trkpt>
      <trkpt lat="44.55236" lon="7.15171">
        <ele>1897.4</ele>
        <time>2022-07-18T11:30:06Z</time>
      </trkpt>
      <trkpt lat="44.55237" lon="7.15168">
        <ele>1897.8</ele>
        <time>2022-07-18T11:30:07Z</time>
      </trkpt>
      <trkpt lat="44.55238" lon="7.15165">
        <ele>1897.8</ele>
        <time>2022-07-18T11:30:08Z</time>
      </trkpt>
      <trkpt lat="44.55239" lon="7.15163">
        <ele>1898.2</ele>
        <time>2022-07-18T11:30:09Z</time>
      </trkpt>
      <trkpt lat="44.55241" lon="7.1516">
        <ele>1898.2</ele>
        <time>2022-07-18T11:30:10Z</time>
      </trkpt>
      <trkpt lat="44.55242" lon="7.15157">
        <ele>1898.4</ele>
        <time>2022-07-18T11:30:11Z</time>
      </trkpt>
      <trkpt lat="44.55243" lon="7.15155">
        <ele>1898.4</ele>
        <time>2022-07-18T11:30:12Z</time>
      </trkpt>
      <trkpt lat="44.55244" lon="7.15152">
        <ele>1898.8</ele>
        <time>2022-07-18T11:30:13Z</time>
      </trkpt>
      <trkpt lat="44.55245" lon="7.1515">
        <ele>1898.8</ele>
        <time>2022-07-18T11:30:14Z</time>
      </trkpt>
      <trkpt lat="44.55247" lon="7.15148">
        <ele>1899.2</ele>
        <time>2022-07-18T11:30:15Z</time>
      </trkpt>
      <trkpt lat="44.55248" lon="7.15146">
        <ele>1899.2</ele>
        <time>2022-07-18T11:30:16Z</time>
      </trkpt>
      <trkpt lat="44.5525" lon="7.15144">
        <ele>1899.4</ele>
        <time>2022-07-18T11:30:17Z</time>
      </trkpt>
      <trkpt lat="44.55251" lon="7.15142">
        <ele>1899.4</ele>
        <time>2022-07-18T11:30:18Z</time>
      </trkpt>
      <trkpt lat="44.55253" lon="7.15139">
        <ele>1899.8</ele>
        <time>2022-07-18T11:30:19Z</time>
      </trkpt>
      <trkpt lat="44.55254" lon="7.15137">
        <ele>1899.8</ele>
        <time>2022-07-18T11:30:20Z</time>
      </trkpt>
      <trkpt lat="44.55255" lon="7.15134">
        <ele>1900</ele>
        <time>2022-07-18T11:30:21Z</time>
      </trkpt>
      <trkpt lat="44.55257" lon="7.15132">
        <ele>1900</ele>
        <time>2022-07-18T11:30:22Z</time>
      </trkpt>
      <trkpt lat="44.55258" lon="7.1513">
        <ele>1900.4</ele>
        <time>2022-07-18T11:30:23Z</time>
      </trkpt>
      <trkpt lat="44.5526" lon="7.15128">
        <ele>1900.4</ele>
        <time>2022-07-18T11:30:24Z</time>
      </trkpt>
      <trkpt lat="44.55262" lon="7.15126">
        <ele>1900.6</ele>
        <time>2022-07-18T11:30:25Z</time>
      </trkpt>
      <trkpt lat="44.55263" lon="7.15124">
        <ele>1900.6</ele>
        <time>2022-07-18T11:30:26Z</time>
      </trkpt>
      <trkpt lat="44.55265" lon="7.15122">
        <ele>1901</ele>
        <time>2022-07-18T11:30:27Z</time>
      </trkpt>
      <trkpt lat="44.55267" lon="7.1512">
        <ele>1901.2</ele>
        <time>2022-07-18T11:30:28Z</time>
      </trkpt>
      <trkpt lat="44.55268" lon="7.15118">
        <ele>1901.2</ele>
        <time>2022-07-18T11:30:29Z</time>
      </trkpt>
      <trkpt lat="44.5527" lon="7.15115">
        <ele>1901.4</ele>
        <time>2022-07-18T11:30:30Z</time>
      </trkpt>
      <trkpt lat="44.55272" lon="7.15113">
        <ele>1901.4</ele>
        <time>2022-07-18T11:30:31Z</time>
      </trkpt>
      <trkpt lat="44.55273" lon="7.15111">
        <ele>1901.8</ele>
        <time>2022-07-18T11:30:32Z</time>
      </trkpt>
      <trkpt lat="44.55274" lon="7.15109">
        <ele>1902</ele>
        <time>2022-07-18T11:30:33Z</time>
      </trkpt>
      <trkpt lat="44.55276" lon="7.15108">
        <ele>1902</ele>
        <time>2022-07-18T11:30:34Z</time>
      </trkpt>
      <trkpt lat="44.55277" lon="7.15107">
        <ele>1902.4</ele>
        <time>2022-07-18T11:30:35Z</time>
      </trkpt>
      <trkpt lat="44.55279" lon="7.15106">
        <ele>1902.4</ele>
        <time>2022-07-18T11:30:36Z</time>
      </trkpt>
      <trkpt lat="44.5528" lon="7.15105">
        <ele>1902.8</ele>
        <time>2022-07-18T11:30:37Z</time>
      </trkpt>
      <trkpt lat="44.55282" lon="7.15104">
        <ele>1902.8</ele>
        <time>2022-07-18T11:30:38Z</time>
      </trkpt>
      <trkpt lat="44.55284" lon="7.15102">
        <ele>1903.2</ele>
        <time>2022-07-18T11:30:39Z</time>
      </trkpt>
      <trkpt lat="44.55285" lon="7.15101">
        <ele>1903.2</ele>
        <time>2022-07-18T11:30:40Z</time>
      </trkpt>
      <trkpt lat="44.55287" lon="7.15099">
        <ele>1903.2</ele>
        <time>2022-07-18T11:30:41Z</time>
      </trkpt>
      <trkpt lat="44.55289" lon="7.15098">
        <ele>1903.2</ele>
        <time>2022-07-18T11:30:42Z</time>
      </trkpt>
      <trkpt lat="44.55291" lon="7.15097">
        <ele>1903.6</ele>
        <time>2022-07-18T11:30:43Z</time>
      </trkpt>
      <trkpt lat="44.55294" lon="7.15097">
        <ele>1903.6</ele>
        <time>2022-07-18T11:30:44Z</time>
      </trkpt>
      <trkpt lat="44.55296" lon="7.15098">
        <ele>1903.8</ele>
        <time>2022-07-18T11:30:45Z</time>
      </trkpt>
      <trkpt lat="44.55298" lon="7.15098">
        <ele>1904</ele>
        <time>2022-07-18T11:30:46Z</time>
      </trkpt>
      <trkpt lat="44.553" lon="7.15098">
        <ele>1904.2</ele>
        <time>2022-07-18T11:30:47Z</time>
      </trkpt>
      <trkpt lat="44.55302" lon="7.15098">
        <ele>1904.4</ele>
        <time>2022-07-18T11:30:48Z</time>
      </trkpt>
      <trkpt lat="44.55304" lon="7.15098">
        <ele>1904.4</ele>
        <time>2022-07-18T11:30:49Z</time>
      </trkpt>
      <trkpt lat="44.55306" lon="7.15097">
        <ele>1904.8</ele>
        <time>2022-07-18T11:30:50Z</time>
      </trkpt>
      <trkpt lat="44.55308" lon="7.15097">
        <ele>1905</ele>
        <time>2022-07-18T11:30:51Z</time>
      </trkpt>
      <trkpt lat="44.5531" lon="7.15098">
        <ele>1905</ele>
        <time>2022-07-18T11:30:52Z</time>
      </trkpt>
      <trkpt lat="44.55311" lon="7.15098">
        <ele>1905.2</ele>
        <time>2022-07-18T11:30:53Z</time>
      </trkpt>
      <trkpt lat="44.55313" lon="7.15099">
        <ele>1905.2</ele>
        <time>2022-07-18T11:30:54Z</time>
      </trkpt>
      <trkpt lat="44.55315" lon="7.15099">
        <ele>1905.6</ele>
        <time>2022-07-18T11:30:55Z</time>
      </trkpt>
      <trkpt lat="44.55317" lon="7.15099">
        <ele>1905.6</ele>
        <time>2022-07-18T11:30:56Z</time>
      </trkpt>
      <trkpt lat="44.55319" lon="7.15099">
        <ele>1906</ele>
        <time>2022-07-18T11:30:57Z</time>
      </trkpt>
      <trkpt lat="44.5532" lon="7.15099">
        <ele>1906</ele>
        <time>2022-07-18T11:30:58Z</time>
      </trkpt>
      <trkpt lat="44.55322" lon="7.15099">
        <ele>1906.2</ele>
        <time>2022-07-18T11:30:59Z</time>
      </trkpt>
      <trkpt lat="44.55324" lon="7.15099">
        <ele>1906.2</ele>
        <time>2022-07-18T11:31:00Z</time>
      </trkpt>
      <trkpt lat="44.55326" lon="7.15099">
        <ele>1906.6</ele>
        <time>2022-07-18T11:31:01Z</time>
      </trkpt>
      <trkpt lat="44.55327" lon="7.15099">
        <ele>1906.6</ele>
        <time>2022-07-18T11:31:02Z</time>
      </trkpt>
      <trkpt lat="44.55329" lon="7.15099">
        <ele>1907</ele>
        <time>2022-07-18T11:31:03Z</time>
      </trkpt>
      <trkpt lat="44.55331" lon="7.15098">
        <ele>1907</ele>
        <time>2022-07-18T11:31:04Z</time>
      </trkpt>
      <trkpt lat="44.55333" lon="7.15097">
        <ele>1907.2</ele>
        <time>2022-07-18T11:31:05Z</time>
      </trkpt>
      <trkpt lat="44.55335" lon="7.15097">
        <ele>1907.2</ele>
        <time>2022-07-18T11:31:06Z</time>
      </trkpt>
      <trkpt lat="44.55337" lon="7.15096">
        <ele>1907.4</ele>
        <time>2022-07-18T11:31:07Z</time>
      </trkpt>
      <trkpt lat="44.55339" lon="7.15095">
        <ele>1907.4</ele>
        <time>2022-07-18T11:31:08Z</time>
      </trkpt>
      <trkpt lat="44.55341" lon="7.15095">
        <ele>1907.8</ele>
        <time>2022-07-18T11:31:09Z</time>
      </trkpt>
      <trkpt lat="44.55343" lon="7.15093">
        <ele>1907.8</ele>
        <time>2022-07-18T11:31:10Z</time>
      </trkpt>
      <trkpt lat="44.55345" lon="7.15092">
        <ele>1908</ele>
        <time>2022-07-18T11:31:11Z</time>
      </trkpt>
      <trkpt lat="44.55347" lon="7.15092">
        <ele>1908</ele>
        <time>2022-07-18T11:31:12Z</time>
      </trkpt>
      <trkpt lat="44.55349" lon="7.15091">
        <ele>1908.4</ele>
        <time>2022-07-18T11:31:13Z</time>
      </trkpt>
      <trkpt lat="44.5535" lon="7.1509">
        <ele>1908.4</ele>
        <time>2022-07-18T11:31:14Z</time>
      </trkpt>
      <trkpt lat="44.55352" lon="7.15089">
        <ele>1908.8</ele>
        <time>2022-07-18T11:31:15Z</time>
      </trkpt>
      <trkpt lat="44.55354" lon="7.15087">
        <ele>1908.8</ele>
        <time>2022-07-18T11:31:16Z</time>
      </trkpt>
      <trkpt lat="44.55355" lon="7.15087">
        <ele>1909</ele>
        <time>2022-07-18T11:31:17Z</time>
      </trkpt>
      <trkpt lat="44.55357" lon="7.15086">
        <ele>1909</ele>
        <time>2022-07-18T11:31:18Z</time>
      </trkpt>
      <trkpt lat="44.55358" lon="7.15085">
        <ele>1909.4</ele>
        <time>2022-07-18T11:31:19Z</time>
      </trkpt>
      <trkpt lat="44.5536" lon="7.15083">
        <ele>1909.4</ele>
        <time>2022-07-18T11:31:20Z</time>
      </trkpt>
      <trkpt lat="44.55361" lon="7.15081">
        <ele>1909.6</ele>
        <time>2022-07-18T11:31:21Z</time>
      </trkpt>
      <trkpt lat="44.55363" lon="7.1508">
        <ele>1909.6</ele>
        <time>2022-07-18T11:31:22Z</time>
      </trkpt>
      <trkpt lat="44.55365" lon="7.15078">
        <ele>1910</ele>
        <time>2022-07-18T11:31:23Z</time>
      </trkpt>
      <trkpt lat="44.55366" lon="7.15076">
        <ele>1910</ele>
        <time>2022-07-18T11:31:24Z</time>
      </trkpt>
      <trkpt lat="44.55368" lon="7.15075">
        <ele>1910.2</ele>
        <time>2022-07-18T11:31:25Z</time>
      </trkpt>
      <trkpt lat="44.55369" lon="7.15073">
        <ele>1910.2</ele>
        <time>2022-07-18T11:31:26Z</time>
      </trkpt>
      <trkpt lat="44.55371" lon="7.15071">
        <ele>1910.6</ele>
        <time>2022-07-18T11:31:27Z</time>
      </trkpt>
      <trkpt lat="44.55372" lon="7.15069">
        <ele>1910.6</ele>
        <time>2022-07-18T11:31:28Z</time>
      </trkpt>
      <trkpt lat="44.55374" lon="7.15066">
        <ele>1911</ele>
        <time>2022-07-18T11:31:29Z</time>
      </trkpt>
      <trkpt lat="44.55375" lon="7.15064">
        <ele>1911</ele>
        <time>2022-07-18T11:31:30Z</time>
      </trkpt>
      <trkpt lat="44.55376" lon="7.15062">
        <ele>1911.2</ele>
        <time>2022-07-18T11:31:31Z</time>
      </trkpt>
      <trkpt lat="44.55378" lon="7.1506">
        <ele>1911.2</ele>
        <time>2022-07-18T11:31:32Z</time>
      </trkpt>
      <trkpt lat="44.55379" lon="7.15058">
        <ele>1911.4</ele>
        <time>2022-07-18T11:31:33Z</time>
      </trkpt>
      <trkpt lat="44.55381" lon="7.15057">
        <ele>1911.4</ele>
        <time>2022-07-18T11:31:34Z</time>
      </trkpt>
      <trkpt lat="44.55382" lon="7.15055">
        <ele>1911.8</ele>
        <time>2022-07-18T11:31:35Z</time>
      </trkpt>
      <trkpt lat="44.55384" lon="7.15053">
        <ele>1911.8</ele>
        <time>2022-07-18T11:31:36Z</time>
      </trkpt>
      <trkpt lat="44.55385" lon="7.15051">
        <ele>1912</ele>
        <time>2022-07-18T11:31:37Z</time>
      </trkpt>
      <trkpt lat="44.55387" lon="7.15049">
        <ele>1912</ele>
        <time>2022-07-18T11:31:38Z</time>
      </trkpt>
      <trkpt lat="44.55388" lon="7.15047">
        <ele>1912.2</ele>
        <time>2022-07-18T11:31:39Z</time>
      </trkpt>
      <trkpt lat="44.55389" lon="7.15045">
        <ele>1912.2</ele>
        <time>2022-07-18T11:31:40Z</time>
      </trkpt>
      <trkpt lat="44.5539" lon="7.15043">
        <ele>1912.6</ele>
        <time>2022-07-18T11:31:41Z</time>
      </trkpt>
      <trkpt lat="44.55392" lon="7.15041">
        <ele>1912.6</ele>
        <time>2022-07-18T11:31:42Z</time>
      </trkpt>
      <trkpt lat="44.55393" lon="7.15039">
        <ele>1913</ele>
        <time>2022-07-18T11:31:43Z</time>
      </trkpt>
      <trkpt lat="44.55394" lon="7.15038">
        <ele>1913</ele>
        <time>2022-07-18T11:31:44Z</time>
      </trkpt>
      <trkpt lat="44.55395" lon="7.15036">
        <ele>1913.2</ele>
        <time>2022-07-18T11:31:45Z</time>
      </trkpt>
      <trkpt lat="44.55396" lon="7.15034">
        <ele>1913.2</ele>
        <time>2022-07-18T11:31:46Z</time>
      </trkpt>
      <trkpt lat="44.55398" lon="7.15033">
        <ele>1913.4</ele>
        <time>2022-07-18T11:31:47Z</time>
      </trkpt>
      <trkpt lat="44.55399" lon="7.15031">
        <ele>1913.4</ele>
        <time>2022-07-18T11:31:48Z</time>
      </trkpt>
      <trkpt lat="44.554" lon="7.1503">
        <ele>1913.8</ele>
        <time>2022-07-18T11:31:49Z</time>
      </trkpt>
      <trkpt lat="44.55401" lon="7.15028">
        <ele>1913.8</ele>
        <time>2022-07-18T11:31:50Z</time>
      </trkpt>
      <trkpt lat="44.55402" lon="7.15026">
        <ele>1914</ele>
        <time>2022-07-18T11:31:51Z</time>
      </trkpt>
      <trkpt lat="44.55404" lon="7.15025">
        <ele>1914</ele>
        <time>2022-07-18T11:31:52Z</time>
      </trkpt>
      <trkpt lat="44.55405" lon="7.15023">
        <ele>1914.4</ele>
        <time>2022-07-18T11:31:53Z</time>
      </trkpt>
      <trkpt lat="44.55407" lon="7.15022">
        <ele>1914.6</ele>
        <time>2022-07-18T11:31:54Z</time>
      </trkpt>
      <trkpt lat="44.55408" lon="7.1502">
        <ele>1914.6</ele>
        <time>2022-07-18T11:31:55Z</time>
      </trkpt>
      <trkpt lat="44.5541" lon="7.15018">
        <ele>1915</ele>
        <time>2022-07-18T11:31:56Z</time>
      </trkpt>
      <trkpt lat="44.55411" lon="7.15017">
        <ele>1915.2</ele>
        <time>2022-07-18T11:31:57Z</time>
      </trkpt>
      <trkpt lat="44.55412" lon="7.15015">
        <ele>1915.2</ele>
        <time>2022-07-18T11:31:58Z</time>
      </trkpt>
      <trkpt lat="44.55414" lon="7.15014">
        <ele>1915.6</ele>
        <time>2022-07-18T11:31:59Z</time>
      </trkpt>
      <trkpt lat="44.55415" lon="7.15012">
        <ele>1915.8</ele>
        <time>2022-07-18T11:32:00Z</time>
      </trkpt>
      <trkpt lat="44.55417" lon="7.15011">
        <ele>1916</ele>
        <time>2022-07-18T11:32:01Z</time>
      </trkpt>
      <trkpt lat="44.55418" lon="7.1501">
        <ele>1916</ele>
        <time>2022-07-18T11:32:02Z</time>
      </trkpt>
      <trkpt lat="44.55419" lon="7.15009">
        <ele>1916.4</ele>
        <time>2022-07-18T11:32:03Z</time>
      </trkpt>
      <trkpt lat="44.55421" lon="7.15008">
        <ele>1916.4</ele>
        <time>2022-07-18T11:32:04Z</time>
      </trkpt>
      <trkpt lat="44.55422" lon="7.15007">
        <ele>1916.8</ele>
        <time>2022-07-18T11:32:05Z</time>
      </trkpt>
      <trkpt lat="44.55424" lon="7.15005">
        <ele>1917</ele>
        <time>2022-07-18T11:32:06Z</time>
      </trkpt>
      <trkpt lat="44.55425" lon="7.15004">
        <ele>1917</ele>
        <time>2022-07-18T11:32:07Z</time>
      </trkpt>
      <trkpt lat="44.55427" lon="7.15003">
        <ele>1917.4</ele>
        <time>2022-07-18T11:32:08Z</time>
      </trkpt>
      <trkpt lat="44.55429" lon="7.15002">
        <ele>1917.4</ele>
        <time>2022-07-18T11:32:09Z</time>
      </trkpt>
      <trkpt lat="44.5543" lon="7.15001">
        <ele>1917.6</ele>
        <time>2022-07-18T11:32:10Z</time>
      </trkpt>
      <trkpt lat="44.55432" lon="7.15">
        <ele>1917.6</ele>
        <time>2022-07-18T11:32:11Z</time>
      </trkpt>
      <trkpt lat="44.55434" lon="7.14998">
        <ele>1918</ele>
        <time>2022-07-18T11:32:12Z</time>
      </trkpt>
      <trkpt lat="44.55436" lon="7.14997">
        <ele>1918.2</ele>
        <time>2022-07-18T11:32:13Z</time>
      </trkpt>
      <trkpt lat="44.55438" lon="7.14996">
        <ele>1918.2</ele>
        <time>2022-07-18T11:32:14Z</time>
      </trkpt>
      <trkpt lat="44.55439" lon="7.14994">
        <ele>1918.4</ele>
        <time>2022-07-18T11:32:15Z</time>
      </trkpt>
      <trkpt lat="44.55441" lon="7.14993">
        <ele>1918.4</ele>
        <time>2022-07-18T11:32:16Z</time>
      </trkpt>
      <trkpt lat="44.55443" lon="7.14992">
        <ele>1918.6</ele>
        <time>2022-07-18T11:32:17Z</time>
      </trkpt>
      <trkpt lat="44.55445" lon="7.14991">
        <ele>1918.6</ele>
        <time>2022-07-18T11:32:18Z</time>
      </trkpt>
      <trkpt lat="44.55447" lon="7.1499">
        <ele>1919</ele>
        <time>2022-07-18T11:32:19Z</time>
      </trkpt>
      <trkpt lat="44.55448" lon="7.14989">
        <ele>1919</ele>
        <time>2022-07-18T11:32:20Z</time>
      </trkpt>
      <trkpt lat="44.5545" lon="7.14988">
        <ele>1919.4</ele>
        <time>2022-07-18T11:32:21Z</time>
      </trkpt>
      <trkpt lat="44.55452" lon="7.14987">
        <ele>1919.4</ele>
        <time>2022-07-18T11:32:22Z</time>
      </trkpt>
      <trkpt lat="44.55453" lon="7.14986">
        <ele>1919.6</ele>
        <time>2022-07-18T11:32:23Z</time>
      </trkpt>
      <trkpt lat="44.55455" lon="7.14985">
        <ele>1919.6</ele>
        <time>2022-07-18T11:32:24Z</time>
      </trkpt>
      <trkpt lat="44.55457" lon="7.14985">
        <ele>1920</ele>
        <time>2022-07-18T11:32:25Z</time>
      </trkpt>
      <trkpt lat="44.55459" lon="7.14984">
        <ele>1920</ele>
        <time>2022-07-18T11:32:26Z</time>
      </trkpt>
      <trkpt lat="44.55461" lon="7.14982">
        <ele>1920.4</ele>
        <time>2022-07-18T11:32:27Z</time>
      </trkpt>
      <trkpt lat="44.55462" lon="7.14981">
        <ele>1920.4</ele>
        <time>2022-07-18T11:32:28Z</time>
      </trkpt>
      <trkpt lat="44.55464" lon="7.1498">
        <ele>1920.6</ele>
        <time>2022-07-18T11:32:29Z</time>
      </trkpt>
      <trkpt lat="44.55466" lon="7.14979">
        <ele>1920.6</ele>
        <time>2022-07-18T11:32:30Z</time>
      </trkpt>
      <trkpt lat="44.55467" lon="7.14978">
        <ele>1921.2</ele>
        <time>2022-07-18T11:32:31Z</time>
      </trkpt>
      <trkpt lat="44.55469" lon="7.14977">
        <ele>1921.2</ele>
        <time>2022-07-18T11:32:32Z</time>
      </trkpt>
      <trkpt lat="44.55471" lon="7.14976">
        <ele>1921.6</ele>
        <time>2022-07-18T11:32:33Z</time>
      </trkpt>
      <trkpt lat="44.55472" lon="7.14976">
        <ele>1921.8</ele>
        <time>2022-07-18T11:32:34Z</time>
      </trkpt>
      <trkpt lat="44.55474" lon="7.14975">
        <ele>1921.8</ele>
        <time>2022-07-18T11:32:35Z</time>
      </trkpt>
      <trkpt lat="44.55476" lon="7.14974">
        <ele>1922.2</ele>
        <time>2022-07-18T11:32:36Z</time>
      </trkpt>
      <trkpt lat="44.55478" lon="7.14973">
        <ele>1922.2</ele>
        <time>2022-07-18T11:32:37Z</time>
      </trkpt>
      <trkpt lat="44.5548" lon="7.14972">
        <ele>1922.4</ele>
        <time>2022-07-18T11:32:38Z</time>
      </trkpt>
      <trkpt lat="44.55482" lon="7.1497">
        <ele>1922.4</ele>
        <time>2022-07-18T11:32:39Z</time>
      </trkpt>
      <trkpt lat="44.55484" lon="7.14969">
        <ele>1922.8</ele>
        <time>2022-07-18T11:32:40Z</time>
      </trkpt>
      <trkpt lat="44.55486" lon="7.14969">
        <ele>1922.8</ele>
        <time>2022-07-18T11:32:41Z</time>
      </trkpt>
      <trkpt lat="44.55488" lon="7.14968">
        <ele>1923</ele>
        <time>2022-07-18T11:32:42Z</time>
      </trkpt>
      <trkpt lat="44.55489" lon="7.14967">
        <ele>1923</ele>
        <time>2022-07-18T11:32:43Z</time>
      </trkpt>
      <trkpt lat="44.55491" lon="7.14967">
        <ele>1923.2</ele>
        <time>2022-07-18T11:32:44Z</time>
      </trkpt>
      <trkpt lat="44.55493" lon="7.14966">
        <ele>1923.2</ele>
        <time>2022-07-18T11:32:45Z</time>
      </trkpt>
      <trkpt lat="44.55495" lon="7.14965">
        <ele>1923.6</ele>
        <time>2022-07-18T11:32:46Z</time>
      </trkpt>
      <trkpt lat="44.55497" lon="7.14965">
        <ele>1923.6</ele>
        <time>2022-07-18T11:32:47Z</time>
      </trkpt>
      <trkpt lat="44.55499" lon="7.14965">
        <ele>1924</ele>
        <time>2022-07-18T11:32:48Z</time>
      </trkpt>
      <trkpt lat="44.55501" lon="7.14965">
        <ele>1924</ele>
        <time>2022-07-18T11:32:49Z</time>
      </trkpt>
      <trkpt lat="44.55504" lon="7.14965">
        <ele>1924.2</ele>
        <time>2022-07-18T11:32:50Z</time>
      </trkpt>
      <trkpt lat="44.55506" lon="7.14965">
        <ele>1924.2</ele>
        <time>2022-07-18T11:32:51Z</time>
      </trkpt>
      <trkpt lat="44.55509" lon="7.14965">
        <ele>1924.4</ele>
        <time>2022-07-18T11:32:52Z</time>
      </trkpt>
      <trkpt lat="44.55511" lon="7.14965">
        <ele>1924.6</ele>
        <time>2022-07-18T11:32:53Z</time>
      </trkpt>
      <trkpt lat="44.55513" lon="7.14964">
        <ele>1924.6</ele>
        <time>2022-07-18T11:32:54Z</time>
      </trkpt>
      <trkpt lat="44.55515" lon="7.14964">
        <ele>1924.8</ele>
        <time>2022-07-18T11:32:55Z</time>
      </trkpt>
      <trkpt lat="44.55518" lon="7.14964">
        <ele>1924.8</ele>
        <time>2022-07-18T11:32:56Z</time>
      </trkpt>
      <trkpt lat="44.5552" lon="7.14964">
        <ele>1925</ele>
        <time>2022-07-18T11:32:57Z</time>
      </trkpt>
      <trkpt lat="44.55523" lon="7.14964">
        <ele>1925</ele>
        <time>2022-07-18T11:32:58Z</time>
      </trkpt>
      <trkpt lat="44.55525" lon="7.14963">
        <ele>1925.4</ele>
        <time>2022-07-18T11:32:59Z</time>
      </trkpt>
      <trkpt lat="44.55527" lon="7.14962">
        <ele>1925.4</ele>
        <time>2022-07-18T11:33:00Z</time>
      </trkpt>
      <trkpt lat="44.5553" lon="7.14962">
        <ele>1925.6</ele>
        <time>2022-07-18T11:33:01Z</time>
      </trkpt>
      <trkpt lat="44.55531" lon="7.14961">
        <ele>1925.6</ele>
        <time>2022-07-18T11:33:02Z</time>
      </trkpt>
      <trkpt lat="44.55533" lon="7.14959">
        <ele>1926</ele>
        <time>2022-07-18T11:33:03Z</time>
      </trkpt>
      <trkpt lat="44.55535" lon="7.14957">
        <ele>1926</ele>
        <time>2022-07-18T11:33:04Z</time>
      </trkpt>
      <trkpt lat="44.55536" lon="7.14955">
        <ele>1926</ele>
        <time>2022-07-18T11:33:05Z</time>
      </trkpt>
      <trkpt lat="44.55537" lon="7.14953">
        <ele>1926.2</ele>
        <time>2022-07-18T11:33:06Z</time>
      </trkpt>
      <trkpt lat="44.55538" lon="7.1495">
        <ele>1926.2</ele>
        <time>2022-07-18T11:33:07Z</time>
      </trkpt>
      <trkpt lat="44.55538" lon="7.14947">
        <ele>1926.2</ele>
        <time>2022-07-18T11:33:08Z</time>
      </trkpt>
      <trkpt lat="44.55537" lon="7.14944">
        <ele>1926.6</ele>
        <time>2022-07-18T11:33:09Z</time>
      </trkpt>
      <trkpt lat="44.55536" lon="7.14941">
        <ele>1926.6</ele>
        <time>2022-07-18T11:33:10Z</time>
      </trkpt>
      <trkpt lat="44.55535" lon="7.14939">
        <ele>1926.6</ele>
        <time>2022-07-18T11:33:11Z</time>
      </trkpt>
      <trkpt lat="44.55533" lon="7.14937">
        <ele>1926.8</ele>
        <time>2022-07-18T11:33:12Z</time>
      </trkpt>
      <trkpt lat="44.55532" lon="7.14935">
        <ele>1926.8</ele>
        <time>2022-07-18T11:33:13Z</time>
      </trkpt>
      <trkpt lat="44.55531" lon="7.14934">
        <ele>1927.2</ele>
        <time>2022-07-18T11:33:14Z</time>
      </trkpt>
      <trkpt lat="44.55529" lon="7.14932">
        <ele>1927.2</ele>
        <time>2022-07-18T11:33:15Z</time>
      </trkpt>
      <trkpt lat="44.55527" lon="7.1493">
        <ele>1927.4</ele>
        <time>2022-07-18T11:33:16Z</time>
      </trkpt>
      <trkpt lat="44.55525" lon="7.14929">
        <ele>1927.4</ele>
        <time>2022-07-18T11:33:17Z</time>
      </trkpt>
      <trkpt lat="44.55523" lon="7.14928">
        <ele>1927.6</ele>
        <time>2022-07-18T11:33:18Z</time>
      </trkpt>
      <trkpt lat="44.55522" lon="7.14928">
        <ele>1927.6</ele>
        <time>2022-07-18T11:33:19Z</time>
      </trkpt>
      <trkpt lat="44.5552" lon="7.14926">
        <ele>1928</ele>
        <time>2022-07-18T11:33:20Z</time>
      </trkpt>
      <trkpt lat="44.55518" lon="7.14925">
        <ele>1928</ele>
        <time>2022-07-18T11:33:21Z</time>
      </trkpt>
      <trkpt lat="44.55517" lon="7.14923">
        <ele>1928.4</ele>
        <time>2022-07-18T11:33:22Z</time>
      </trkpt>
      <trkpt lat="44.55516" lon="7.14922">
        <ele>1928.4</ele>
        <time>2022-07-18T11:33:23Z</time>
      </trkpt>
      <trkpt lat="44.55515" lon="7.1492">
        <ele>1928.6</ele>
        <time>2022-07-18T11:33:24Z</time>
      </trkpt>
      <trkpt lat="44.55513" lon="7.14919">
        <ele>1928.6</ele>
        <time>2022-07-18T11:33:25Z</time>
      </trkpt>
      <trkpt lat="44.55512" lon="7.14918">
        <ele>1928.8</ele>
        <time>2022-07-18T11:33:26Z</time>
      </trkpt>
      <trkpt lat="44.55511" lon="7.14916">
        <ele>1928.8</ele>
        <time>2022-07-18T11:33:27Z</time>
      </trkpt>
      <trkpt lat="44.55509" lon="7.14915">
        <ele>1929.2</ele>
        <time>2022-07-18T11:33:28Z</time>
      </trkpt>
      <trkpt lat="44.55508" lon="7.14914">
        <ele>1929.2</ele>
        <time>2022-07-18T11:33:29Z</time>
      </trkpt>
      <trkpt lat="44.55507" lon="7.14912">
        <ele>1929.4</ele>
        <time>2022-07-18T11:33:30Z</time>
      </trkpt>
      <trkpt lat="44.55506" lon="7.1491">
        <ele>1929.4</ele>
        <time>2022-07-18T11:33:31Z</time>
      </trkpt>
      <trkpt lat="44.55504" lon="7.14908">
        <ele>1929.6</ele>
        <time>2022-07-18T11:33:32Z</time>
      </trkpt>
      <trkpt lat="44.55503" lon="7.14906">
        <ele>1929.6</ele>
        <time>2022-07-18T11:33:33Z</time>
      </trkpt>
      <trkpt lat="44.55501" lon="7.14905">
        <ele>1930</ele>
        <time>2022-07-18T11:33:34Z</time>
      </trkpt>
      <trkpt lat="44.555" lon="7.14903">
        <ele>1930</ele>
        <time>2022-07-18T11:33:35Z</time>
      </trkpt>
      <trkpt lat="44.55499" lon="7.14901">
        <ele>1930.4</ele>
        <time>2022-07-18T11:33:36Z</time>
      </trkpt>
      <trkpt lat="44.55498" lon="7.14899">
        <ele>1930.4</ele>
        <time>2022-07-18T11:33:37Z</time>
      </trkpt>
      <trkpt lat="44.55497" lon="7.14896">
        <ele>1930.6</ele>
        <time>2022-07-18T11:33:38Z</time>
      </trkpt>
      <trkpt lat="44.55496" lon="7.14894">
        <ele>1930.6</ele>
        <time>2022-07-18T11:33:39Z</time>
      </trkpt>
      <trkpt lat="44.55494" lon="7.14891">
        <ele>1930.8</ele>
        <time>2022-07-18T11:33:40Z</time>
      </trkpt>
      <trkpt lat="44.55493" lon="7.14889">
        <ele>1930.8</ele>
        <time>2022-07-18T11:33:41Z</time>
      </trkpt>
      <trkpt lat="44.55492" lon="7.14887">
        <ele>1931.2</ele>
        <time>2022-07-18T11:33:42Z</time>
      </trkpt>
      <trkpt lat="44.55491" lon="7.14885">
        <ele>1931.6</ele>
        <time>2022-07-18T11:33:43Z</time>
      </trkpt>
      <trkpt lat="44.5549" lon="7.14882">
        <ele>1931.6</ele>
        <time>2022-07-18T11:33:44Z</time>
      </trkpt>
      <trkpt lat="44.55489" lon="7.1488">
        <ele>1931.8</ele>
        <time>2022-07-18T11:33:45Z</time>
      </trkpt>
      <trkpt lat="44.55488" lon="7.14878">
        <ele>1931.8</ele>
        <time>2022-07-18T11:33:46Z</time>
      </trkpt>
      <trkpt lat="44.55487" lon="7.14876">
        <ele>1932</ele>
        <time>2022-07-18T11:33:47Z</time>
      </trkpt>
      <trkpt lat="44.55486" lon="7.14873">
        <ele>1932</ele>
        <time>2022-07-18T11:33:48Z</time>
      </trkpt>
      <trkpt lat="44.55485" lon="7.14871">
        <ele>1932.4</ele>
        <time>2022-07-18T11:33:49Z</time>
      </trkpt>
      <trkpt lat="44.55484" lon="7.14869">
        <ele>1932.4</ele>
        <time>2022-07-18T11:33:50Z</time>
      </trkpt>
      <trkpt lat="44.55483" lon="7.14866">
        <ele>1932.8</ele>
        <time>2022-07-18T11:33:51Z</time>
      </trkpt>
      <trkpt lat="44.55482" lon="7.14864">
        <ele>1932.8</ele>
        <time>2022-07-18T11:33:52Z</time>
      </trkpt>
      <trkpt lat="44.55481" lon="7.14863">
        <ele>1933</ele>
        <time>2022-07-18T11:33:53Z</time>
      </trkpt>
      <trkpt lat="44.55481" lon="7.14861">
        <ele>1933</ele>
        <time>2022-07-18T11:33:54Z</time>
      </trkpt>
      <trkpt lat="44.5548" lon="7.14859">
        <ele>1933</ele>
        <time>2022-07-18T11:33:55Z</time>
      </trkpt>
      <trkpt lat="44.5548" lon="7.14856">
        <ele>1933.4</ele>
        <time>2022-07-18T11:33:56Z</time>
      </trkpt>
      <trkpt lat="44.55479" lon="7.14854">
        <ele>1933.4</ele>
        <time>2022-07-18T11:33:57Z</time>
      </trkpt>
      <trkpt lat="44.55478" lon="7.14852">
        <ele>1933.6</ele>
        <time>2022-07-18T11:33:58Z</time>
      </trkpt>
      <trkpt lat="44.55477" lon="7.1485">
        <ele>1933.6</ele>
        <time>2022-07-18T11:33:59Z</time>
      </trkpt>
      <trkpt lat="44.55476" lon="7.14848">
        <ele>1933.8</ele>
        <time>2022-07-18T11:34:00Z</time>
      </trkpt>
      <trkpt lat="44.55475" lon="7.14846">
        <ele>1934.2</ele>
        <time>2022-07-18T11:34:01Z</time>
      </trkpt>
      <trkpt lat="44.55474" lon="7.14844">
        <ele>1934.4</ele>
        <time>2022-07-18T11:34:02Z</time>
      </trkpt>
      <trkpt lat="44.55474" lon="7.14842">
        <ele>1934.6</ele>
        <time>2022-07-18T11:34:03Z</time>
      </trkpt>
      <trkpt lat="44.55473" lon="7.1484">
        <ele>1934.6</ele>
        <time>2022-07-18T11:34:04Z</time>
      </trkpt>
      <trkpt lat="44.55472" lon="7.14839">
        <ele>1935</ele>
        <time>2022-07-18T11:34:05Z</time>
      </trkpt>
      <trkpt lat="44.55472" lon="7.14836">
        <ele>1935.2</ele>
        <time>2022-07-18T11:34:06Z</time>
      </trkpt>
      <trkpt lat="44.55471" lon="7.14834">
        <ele>1935.4</ele>
        <time>2022-07-18T11:34:07Z</time>
      </trkpt>
      <trkpt lat="44.5547" lon="7.14831">
        <ele>1935.4</ele>
        <time>2022-07-18T11:34:08Z</time>
      </trkpt>
      <trkpt lat="44.55469" lon="7.14829">
        <ele>1935.8</ele>
        <time>2022-07-18T11:34:09Z</time>
      </trkpt>
      <trkpt lat="44.55469" lon="7.14826">
        <ele>1936</ele>
        <time>2022-07-18T11:34:10Z</time>
      </trkpt>
      <trkpt lat="44.55468" lon="7.14823">
        <ele>1936</ele>
        <time>2022-07-18T11:34:11Z</time>
      </trkpt>
      <trkpt lat="44.55467" lon="7.14821">
        <ele>1936.2</ele>
        <time>2022-07-18T11:34:12Z</time>
      </trkpt>
      <trkpt lat="44.55466" lon="7.14818">
        <ele>1936.6</ele>
        <time>2022-07-18T11:34:13Z</time>
      </trkpt>
      <trkpt lat="44.55465" lon="7.14815">
        <ele>1936.6</ele>
        <time>2022-07-18T11:34:14Z</time>
      </trkpt>
      <trkpt lat="44.55464" lon="7.14813">
        <ele>1936.8</ele>
        <time>2022-07-18T11:34:15Z</time>
      </trkpt>
      <trkpt lat="44.55462" lon="7.1481">
        <ele>1936.8</ele>
        <time>2022-07-18T11:34:16Z</time>
      </trkpt>
      <trkpt lat="44.55461" lon="7.14807">
        <ele>1937.2</ele>
        <time>2022-07-18T11:34:17Z</time>
      </trkpt>
      <trkpt lat="44.5546" lon="7.14805">
        <ele>1937.2</ele>
        <time>2022-07-18T11:34:18Z</time>
      </trkpt>
      <trkpt lat="44.55459" lon="7.14802">
        <ele>1937.6</ele>
        <time>2022-07-18T11:34:19Z</time>
      </trkpt>
      <trkpt lat="44.55458" lon="7.14799">
        <ele>1937.8</ele>
        <time>2022-07-18T11:34:20Z</time>
      </trkpt>
      <trkpt lat="44.55457" lon="7.14796">
        <ele>1937.8</ele>
        <time>2022-07-18T11:34:21Z</time>
      </trkpt>
      <trkpt lat="44.55456" lon="7.14794">
        <ele>1938.2</ele>
        <time>2022-07-18T11:34:22Z</time>
      </trkpt>
      <trkpt lat="44.55455" lon="7.14791">
        <ele>1938.2</ele>
        <time>2022-07-18T11:34:23Z</time>
      </trkpt>
      <trkpt lat="44.55454" lon="7.14788">
        <ele>1938.4</ele>
        <time>2022-07-18T11:34:24Z</time>
      </trkpt>
      <trkpt lat="44.55454" lon="7.14785">
        <ele>1938.6</ele>
        <time>2022-07-18T11:34:25Z</time>
      </trkpt>
      <trkpt lat="44.55453" lon="7.14782">
        <ele>1938.8</ele>
        <time>2022-07-18T11:34:26Z</time>
      </trkpt>
      <trkpt lat="44.55452" lon="7.14779">
        <ele>1938.8</ele>
        <time>2022-07-18T11:34:27Z</time>
      </trkpt>
      <trkpt lat="44.55452" lon="7.14776">
        <ele>1939.2</ele>
        <time>2022-07-18T11:34:28Z</time>
      </trkpt>
      <trkpt lat="44.55451" lon="7.14773">
        <ele>1939.2</ele>
        <time>2022-07-18T11:34:29Z</time>
      </trkpt>
      <trkpt lat="44.55451" lon="7.1477">
        <ele>1939.4</ele>
        <time>2022-07-18T11:34:30Z</time>
      </trkpt>
      <trkpt lat="44.5545" lon="7.14768">
        <ele>1939.4</ele>
        <time>2022-07-18T11:34:31Z</time>
      </trkpt>
      <trkpt lat="44.55449" lon="7.14765">
        <ele>1939.8</ele>
        <time>2022-07-18T11:34:32Z</time>
      </trkpt>
      <trkpt lat="44.55449" lon="7.14762">
        <ele>1939.8</ele>
        <time>2022-07-18T11:34:33Z</time>
      </trkpt>
      <trkpt lat="44.55448" lon="7.14759">
        <ele>1940</ele>
        <time>2022-07-18T11:34:34Z</time>
      </trkpt>
      <trkpt lat="44.55448" lon="7.14757">
        <ele>1940</ele>
        <time>2022-07-18T11:34:35Z</time>
      </trkpt>
      <trkpt lat="44.55447" lon="7.14754">
        <ele>1940.4</ele>
        <time>2022-07-18T11:34:36Z</time>
      </trkpt>
      <trkpt lat="44.55446" lon="7.14751">
        <ele>1940.4</ele>
        <time>2022-07-18T11:34:37Z</time>
      </trkpt>
      <trkpt lat="44.55446" lon="7.14748">
        <ele>1940.6</ele>
        <time>2022-07-18T11:34:38Z</time>
      </trkpt>
      <trkpt lat="44.55446" lon="7.14746">
        <ele>1940.6</ele>
        <time>2022-07-18T11:34:39Z</time>
      </trkpt>
      <trkpt lat="44.55445" lon="7.14743">
        <ele>1941</ele>
        <time>2022-07-18T11:34:40Z</time>
      </trkpt>
      <trkpt lat="44.55445" lon="7.1474">
        <ele>1941.2</ele>
        <time>2022-07-18T11:34:41Z</time>
      </trkpt>
      <trkpt lat="44.55444" lon="7.14738">
        <ele>1941.2</ele>
        <time>2022-07-18T11:34:42Z</time>
      </trkpt>
      <trkpt lat="44.55444" lon="7.14736">
        <ele>1941.6</ele>
        <time>2022-07-18T11:34:43Z</time>
      </trkpt>
      <trkpt lat="44.55443" lon="7.14734">
        <ele>1941.6</ele>
        <time>2022-07-18T11:34:44Z</time>
      </trkpt>
      <trkpt lat="44.55443" lon="7.14732">
        <ele>1942</ele>
        <time>2022-07-18T11:34:45Z</time>
      </trkpt>
      <trkpt lat="44.55442" lon="7.14729">
        <ele>1942</ele>
        <time>2022-07-18T11:34:46Z</time>
      </trkpt>
      <trkpt lat="44.55442" lon="7.14727">
        <ele>1942.4</ele>
        <time>2022-07-18T11:34:48Z</time>
      </trkpt>
      <trkpt lat="44.55442" lon="7.14725">
        <ele>1942.4</ele>
        <time>2022-07-18T11:34:49Z</time>
      </trkpt>
      <trkpt lat="44.55441" lon="7.14723">
        <ele>1942.6</ele>
        <time>2022-07-18T11:34:50Z</time>
      </trkpt>
      <trkpt lat="44.55441" lon="7.14721">
        <ele>1942.6</ele>
        <time>2022-07-18T11:34:51Z</time>
      </trkpt>
      <trkpt lat="44.5544" lon="7.14719">
        <ele>1943</ele>
        <time>2022-07-18T11:34:52Z</time>
      </trkpt>
      <trkpt lat="44.5544" lon="7.14717">
        <ele>1943</ele>
        <time>2022-07-18T11:34:53Z</time>
      </trkpt>
      <trkpt lat="44.55439" lon="7.14715">
        <ele>1943.2</ele>
        <time>2022-07-18T11:34:54Z</time>
      </trkpt>
      <trkpt lat="44.55439" lon="7.14712">
        <ele>1943.2</ele>
        <time>2022-07-18T11:34:55Z</time>
      </trkpt>
      <trkpt lat="44.55438" lon="7.1471">
        <ele>1943.4</ele>
        <time>2022-07-18T11:34:56Z</time>
      </trkpt>
      <trkpt lat="44.55438" lon="7.14708">
        <ele>1943.4</ele>
        <time>2022-07-18T11:34:57Z</time>
      </trkpt>
      <trkpt lat="44.55437" lon="7.14705">
        <ele>1943.8</ele>
        <time>2022-07-18T11:34:58Z</time>
      </trkpt>
      <trkpt lat="44.55436" lon="7.14703">
        <ele>1943.8</ele>
        <time>2022-07-18T11:34:59Z</time>
      </trkpt>
      <trkpt lat="44.55436" lon="7.14701">
        <ele>1944</ele>
        <time>2022-07-18T11:35:00Z</time>
      </trkpt>
      <trkpt lat="44.55435" lon="7.14699">
        <ele>1944</ele>
        <time>2022-07-18T11:35:01Z</time>
      </trkpt>
      <trkpt lat="44.55434" lon="7.14696">
        <ele>1944.4</ele>
        <time>2022-07-18T11:35:02Z</time>
      </trkpt>
      <trkpt lat="44.55433" lon="7.14694">
        <ele>1944.4</ele>
        <time>2022-07-18T11:35:03Z</time>
      </trkpt>
      <trkpt lat="44.55432" lon="7.14692">
        <ele>1944.6</ele>
        <time>2022-07-18T11:35:04Z</time>
      </trkpt>
      <trkpt lat="44.55432" lon="7.1469">
        <ele>1944.6</ele>
        <time>2022-07-18T11:35:05Z</time>
      </trkpt>
      <trkpt lat="44.55431" lon="7.14689">
        <ele>1944.8</ele>
        <time>2022-07-18T11:35:06Z</time>
      </trkpt>
      <trkpt lat="44.5543" lon="7.14687">
        <ele>1944.8</ele>
        <time>2022-07-18T11:35:07Z</time>
      </trkpt>
      <trkpt lat="44.5543" lon="7.14685">
        <ele>1945.2</ele>
        <time>2022-07-18T11:35:08Z</time>
      </trkpt>
      <trkpt lat="44.55429" lon="7.14684">
        <ele>1945.2</ele>
        <time>2022-07-18T11:35:09Z</time>
      </trkpt>
      <trkpt lat="44.55428" lon="7.14682">
        <ele>1945.4</ele>
        <time>2022-07-18T11:35:10Z</time>
      </trkpt>
      <trkpt lat="44.55427" lon="7.14681">
        <ele>1945.4</ele>
        <time>2022-07-18T11:35:11Z</time>
      </trkpt>
      <trkpt lat="44.55426" lon="7.14679">
        <ele>1945.8</ele>
        <time>2022-07-18T11:35:12Z</time>
      </trkpt>
      <trkpt lat="44.55425" lon="7.14677">
        <ele>1945.8</ele>
        <time>2022-07-18T11:35:13Z</time>
      </trkpt>
      <trkpt lat="44.55424" lon="7.14675">
        <ele>1946</ele>
        <time>2022-07-18T11:35:14Z</time>
      </trkpt>
      <trkpt lat="44.55423" lon="7.14673">
        <ele>1946.2</ele>
        <time>2022-07-18T11:35:15Z</time>
      </trkpt>
      <trkpt lat="44.55422" lon="7.14671">
        <ele>1946.2</ele>
        <time>2022-07-18T11:35:16Z</time>
      </trkpt>
      <trkpt lat="44.55421" lon="7.14669">
        <ele>1946.6</ele>
        <time>2022-07-18T11:35:17Z</time>
      </trkpt>
      <trkpt lat="44.5542" lon="7.14667">
        <ele>1946.6</ele>
        <time>2022-07-18T11:35:18Z</time>
      </trkpt>
      <trkpt lat="44.55419" lon="7.14664">
        <ele>1946.8</ele>
        <time>2022-07-18T11:35:19Z</time>
      </trkpt>
      <trkpt lat="44.55418" lon="7.14662">
        <ele>1946.8</ele>
        <time>2022-07-18T11:35:20Z</time>
      </trkpt>
      <trkpt lat="44.55417" lon="7.1466">
        <ele>1947.2</ele>
        <time>2022-07-18T11:35:21Z</time>
      </trkpt>
      <trkpt lat="44.55416" lon="7.14657">
        <ele>1947.2</ele>
        <time>2022-07-18T11:35:22Z</time>
      </trkpt>
      <trkpt lat="44.55415" lon="7.14655">
        <ele>1947.6</ele>
        <time>2022-07-18T11:35:23Z</time>
      </trkpt>
      <trkpt lat="44.55414" lon="7.14653">
        <ele>1947.6</ele>
        <time>2022-07-18T11:35:24Z</time>
      </trkpt>
      <trkpt lat="44.55412" lon="7.1465">
        <ele>1947.6</ele>
        <time>2022-07-18T11:35:25Z</time>
      </trkpt>
      <trkpt lat="44.55411" lon="7.14648">
        <ele>1947.8</ele>
        <time>2022-07-18T11:35:26Z</time>
      </trkpt>
      <trkpt lat="44.5541" lon="7.14647">
        <ele>1947.8</ele>
        <time>2022-07-18T11:35:27Z</time>
      </trkpt>
      <trkpt lat="44.55408" lon="7.14645">
        <ele>1948.2</ele>
        <time>2022-07-18T11:35:28Z</time>
      </trkpt>
      <trkpt lat="44.55407" lon="7.14643">
        <ele>1948.2</ele>
        <time>2022-07-18T11:35:29Z</time>
      </trkpt>
      <trkpt lat="44.55406" lon="7.14641">
        <ele>1948.6</ele>
        <time>2022-07-18T11:35:30Z</time>
      </trkpt>
      <trkpt lat="44.55405" lon="7.14639">
        <ele>1948.6</ele>
        <time>2022-07-18T11:35:31Z</time>
      </trkpt>
      <trkpt lat="44.55404" lon="7.14637">
        <ele>1948.8</ele>
        <time>2022-07-18T11:35:32Z</time>
      </trkpt>
      <trkpt lat="44.55404" lon="7.14635">
        <ele>1948.8</ele>
        <time>2022-07-18T11:35:33Z</time>
      </trkpt>
      <trkpt lat="44.55403" lon="7.14632">
        <ele>1949.2</ele>
        <time>2022-07-18T11:35:34Z</time>
      </trkpt>
      <trkpt lat="44.55402" lon="7.1463">
        <ele>1949.2</ele>
        <time>2022-07-18T11:35:35Z</time>
      </trkpt>
      <trkpt lat="44.55401" lon="7.14628">
        <ele>1949.4</ele>
        <time>2022-07-18T11:35:36Z</time>
      </trkpt>
      <trkpt lat="44.554" lon="7.14626">
        <ele>1949.4</ele>
        <time>2022-07-18T11:35:37Z</time>
      </trkpt>
      <trkpt lat="44.55399" lon="7.14624">
        <ele>1949.8</ele>
        <time>2022-07-18T11:35:38Z</time>
      </trkpt>
      <trkpt lat="44.55398" lon="7.14621">
        <ele>1949.8</ele>
        <time>2022-07-18T11:35:39Z</time>
      </trkpt>
      <trkpt lat="44.55397" lon="7.14619">
        <ele>1950.2</ele>
        <time>2022-07-18T11:35:40Z</time>
      </trkpt>
      <trkpt lat="44.55396" lon="7.14616">
        <ele>1950.2</ele>
        <time>2022-07-18T11:35:41Z</time>
      </trkpt>
      <trkpt lat="44.55395" lon="7.14614">
        <ele>1950.4</ele>
        <time>2022-07-18T11:35:42Z</time>
      </trkpt>
      <trkpt lat="44.55394" lon="7.14611">
        <ele>1950.4</ele>
        <time>2022-07-18T11:35:43Z</time>
      </trkpt>
      <trkpt lat="44.55394" lon="7.14609">
        <ele>1950.6</ele>
        <time>2022-07-18T11:35:44Z</time>
      </trkpt>
      <trkpt lat="44.55393" lon="7.14606">
        <ele>1950.6</ele>
        <time>2022-07-18T11:35:45Z</time>
      </trkpt>
      <trkpt lat="44.55392" lon="7.14603">
        <ele>1951</ele>
        <time>2022-07-18T11:35:46Z</time>
      </trkpt>
      <trkpt lat="44.55392" lon="7.146">
        <ele>1951.2</ele>
        <time>2022-07-18T11:35:47Z</time>
      </trkpt>
      <trkpt lat="44.55391" lon="7.14598">
        <ele>1951.2</ele>
        <time>2022-07-18T11:35:48Z</time>
      </trkpt>
      <trkpt lat="44.55391" lon="7.14595">
        <ele>1951.4</ele>
        <time>2022-07-18T11:35:49Z</time>
      </trkpt>
      <trkpt lat="44.5539" lon="7.14592">
        <ele>1951.4</ele>
        <time>2022-07-18T11:35:50Z</time>
      </trkpt>
      <trkpt lat="44.55389" lon="7.1459">
        <ele>1951.6</ele>
        <time>2022-07-18T11:35:51Z</time>
      </trkpt>
      <trkpt lat="44.55389" lon="7.14587">
        <ele>1952</ele>
        <time>2022-07-18T11:35:52Z</time>
      </trkpt>
      <trkpt lat="44.55389" lon="7.14584">
        <ele>1952</ele>
        <time>2022-07-18T11:35:53Z</time>
      </trkpt>
      <trkpt lat="44.55388" lon="7.14582">
        <ele>1952.2</ele>
        <time>2022-07-18T11:35:54Z</time>
      </trkpt>
      <trkpt lat="44.55388" lon="7.14579">
        <ele>1952.4</ele>
        <time>2022-07-18T11:35:55Z</time>
      </trkpt>
      <trkpt lat="44.55387" lon="7.14576">
        <ele>1952.4</ele>
        <time>2022-07-18T11:35:56Z</time>
      </trkpt>
      <trkpt lat="44.55387" lon="7.14574">
        <ele>1952.8</ele>
        <time>2022-07-18T11:35:57Z</time>
      </trkpt>
      <trkpt lat="44.55386" lon="7.14571">
        <ele>1953</ele>
        <time>2022-07-18T11:35:58Z</time>
      </trkpt>
      <trkpt lat="44.55386" lon="7.14569">
        <ele>1953.2</ele>
        <time>2022-07-18T11:35:59Z</time>
      </trkpt>
      <trkpt lat="44.55386" lon="7.14564">
        <ele>1953.4</ele>
        <time>2022-07-18T11:36:00Z</time>
      </trkpt>
      <trkpt lat="44.55386" lon="7.14562">
        <ele>1953.4</ele>
        <time>2022-07-18T11:36:01Z</time>
      </trkpt>
      <trkpt lat="44.55386" lon="7.14559">
        <ele>1953.8</ele>
        <time>2022-07-18T11:36:02Z</time>
      </trkpt>
      <trkpt lat="44.55387" lon="7.14557">
        <ele>1953.8</ele>
        <time>2022-07-18T11:36:03Z</time>
      </trkpt>
      <trkpt lat="44.55387" lon="7.14555">
        <ele>1954.2</ele>
        <time>2022-07-18T11:36:04Z</time>
      </trkpt>
      <trkpt lat="44.55386" lon="7.14553">
        <ele>1954.4</ele>
        <time>2022-07-18T11:36:05Z</time>
      </trkpt>
      <trkpt lat="44.55386" lon="7.1455">
        <ele>1954.4</ele>
        <time>2022-07-18T11:36:06Z</time>
      </trkpt>
      <trkpt lat="44.55386" lon="7.14548">
        <ele>1954.6</ele>
        <time>2022-07-18T11:36:07Z</time>
      </trkpt>
      <trkpt lat="44.55386" lon="7.14546">
        <ele>1954.6</ele>
        <time>2022-07-18T11:36:08Z</time>
      </trkpt>
      <trkpt lat="44.55387" lon="7.14544">
        <ele>1954.8</ele>
        <time>2022-07-18T11:36:09Z</time>
      </trkpt>
      <trkpt lat="44.55387" lon="7.14541">
        <ele>1954.8</ele>
        <time>2022-07-18T11:36:10Z</time>
      </trkpt>
      <trkpt lat="44.55387" lon="7.14539">
        <ele>1955.2</ele>
        <time>2022-07-18T11:36:11Z</time>
      </trkpt>
      <trkpt lat="44.55387" lon="7.14537">
        <ele>1955.2</ele>
        <time>2022-07-18T11:36:12Z</time>
      </trkpt>
      <trkpt lat="44.55387" lon="7.14534">
        <ele>1955.6</ele>
        <time>2022-07-18T11:36:13Z</time>
      </trkpt>
      <trkpt lat="44.55387" lon="7.14532">
        <ele>1955.6</ele>
        <time>2022-07-18T11:36:14Z</time>
      </trkpt>
      <trkpt lat="44.55387" lon="7.1453">
        <ele>1955.8</ele>
        <time>2022-07-18T11:36:15Z</time>
      </trkpt>
      <trkpt lat="44.55387" lon="7.14527">
        <ele>1955.8</ele>
        <time>2022-07-18T11:36:16Z</time>
      </trkpt>
      <trkpt lat="44.55388" lon="7.14526">
        <ele>1956.2</ele>
        <time>2022-07-18T11:36:17Z</time>
      </trkpt>
      <trkpt lat="44.55388" lon="7.14524">
        <ele>1956.2</ele>
        <time>2022-07-18T11:36:18Z</time>
      </trkpt>
      <trkpt lat="44.55387" lon="7.14522">
        <ele>1956.6</ele>
        <time>2022-07-18T11:36:19Z</time>
      </trkpt>
      <trkpt lat="44.55387" lon="7.1452">
        <ele>1956.6</ele>
        <time>2022-07-18T11:36:20Z</time>
      </trkpt>
      <trkpt lat="44.55387" lon="7.14517">
        <ele>1956.8</ele>
        <time>2022-07-18T11:36:21Z</time>
      </trkpt>
      <trkpt lat="44.55386" lon="7.14515">
        <ele>1956.8</ele>
        <time>2022-07-18T11:36:22Z</time>
      </trkpt>
      <trkpt lat="44.55386" lon="7.14513">
        <ele>1957.2</ele>
        <time>2022-07-18T11:36:23Z</time>
      </trkpt>
      <trkpt lat="44.55385" lon="7.1451">
        <ele>1957.2</ele>
        <time>2022-07-18T11:36:24Z</time>
      </trkpt>
      <trkpt lat="44.55385" lon="7.14508">
        <ele>1957.4</ele>
        <time>2022-07-18T11:36:25Z</time>
      </trkpt>
      <trkpt lat="44.55385" lon="7.14506">
        <ele>1957.6</ele>
        <time>2022-07-18T11:36:26Z</time>
      </trkpt>
      <trkpt lat="44.55384" lon="7.14503">
        <ele>1957.6</ele>
        <time>2022-07-18T11:36:27Z</time>
      </trkpt>
      <trkpt lat="44.55384" lon="7.14501">
        <ele>1958</ele>
        <time>2022-07-18T11:36:28Z</time>
      </trkpt>
      <trkpt lat="44.55383" lon="7.14499">
        <ele>1958</ele>
        <time>2022-07-18T11:36:29Z</time>
      </trkpt>
      <trkpt lat="44.55383" lon="7.14496">
        <ele>1958.2</ele>
        <time>2022-07-18T11:36:30Z</time>
      </trkpt>
      <trkpt lat="44.55383" lon="7.14494">
        <ele>1958.2</ele>
        <time>2022-07-18T11:36:31Z</time>
      </trkpt>
      <trkpt lat="44.55382" lon="7.14491">
        <ele>1958.4</ele>
        <time>2022-07-18T11:36:32Z</time>
      </trkpt>
      <trkpt lat="44.55382" lon="7.14489">
        <ele>1958.4</ele>
        <time>2022-07-18T11:36:33Z</time>
      </trkpt>
      <trkpt lat="44.55381" lon="7.14486">
        <ele>1958.6</ele>
        <time>2022-07-18T11:36:34Z</time>
      </trkpt>
      <trkpt lat="44.55381" lon="7.14483">
        <ele>1958.6</ele>
        <time>2022-07-18T11:36:35Z</time>
      </trkpt>
      <trkpt lat="44.5538" lon="7.14481">
        <ele>1959</ele>
        <time>2022-07-18T11:36:36Z</time>
      </trkpt>
      <trkpt lat="44.5538" lon="7.14478">
        <ele>1959</ele>
        <time>2022-07-18T11:36:37Z</time>
      </trkpt>
      <trkpt lat="44.55379" lon="7.14476">
        <ele>1959.2</ele>
        <time>2022-07-18T11:36:38Z</time>
      </trkpt>
      <trkpt lat="44.55379" lon="7.14473">
        <ele>1959.4</ele>
        <time>2022-07-18T11:36:39Z</time>
      </trkpt>
      <trkpt lat="44.55379" lon="7.14471">
        <ele>1959.4</ele>
        <time>2022-07-18T11:36:40Z</time>
      </trkpt>
      <trkpt lat="44.55379" lon="7.14469">
        <ele>1959.4</ele>
        <time>2022-07-18T11:36:41Z</time>
      </trkpt>
      <trkpt lat="44.55379" lon="7.14466">
        <ele>1959.8</ele>
        <time>2022-07-18T11:36:42Z</time>
      </trkpt>
      <trkpt lat="44.55379" lon="7.14464">
        <ele>1959.8</ele>
        <time>2022-07-18T11:36:43Z</time>
      </trkpt>
      <trkpt lat="44.55378" lon="7.1446">
        <ele>1960</ele>
        <time>2022-07-18T11:36:44Z</time>
      </trkpt>
      <trkpt lat="44.55378" lon="7.14458">
        <ele>1960</ele>
        <time>2022-07-18T11:36:45Z</time>
      </trkpt>
      <trkpt lat="44.55378" lon="7.14455">
        <ele>1960.2</ele>
        <time>2022-07-18T11:36:46Z</time>
      </trkpt>
      <trkpt lat="44.55378" lon="7.14452">
        <ele>1960.2</ele>
        <time>2022-07-18T11:36:47Z</time>
      </trkpt>
      <trkpt lat="44.55378" lon="7.14449">
        <ele>1960.6</ele>
        <time>2022-07-18T11:36:48Z</time>
      </trkpt>
      <trkpt lat="44.55378" lon="7.14446">
        <ele>1960.6</ele>
        <time>2022-07-18T11:36:49Z</time>
      </trkpt>
      <trkpt lat="44.55377" lon="7.14443">
        <ele>1960.8</ele>
        <time>2022-07-18T11:36:50Z</time>
      </trkpt>
      <trkpt lat="44.55377" lon="7.1444">
        <ele>1960.8</ele>
        <time>2022-07-18T11:36:51Z</time>
      </trkpt>
      <trkpt lat="44.55377" lon="7.14437">
        <ele>1961</ele>
        <time>2022-07-18T11:36:52Z</time>
      </trkpt>
      <trkpt lat="44.55376" lon="7.14434">
        <ele>1961</ele>
        <time>2022-07-18T11:36:53Z</time>
      </trkpt>
      <trkpt lat="44.55376" lon="7.14431">
        <ele>1961.4</ele>
        <time>2022-07-18T11:36:54Z</time>
      </trkpt>
      <trkpt lat="44.55375" lon="7.14428">
        <ele>1961.4</ele>
        <time>2022-07-18T11:36:55Z</time>
      </trkpt>
      <trkpt lat="44.55374" lon="7.14425">
        <ele>1961.8</ele>
        <time>2022-07-18T11:36:56Z</time>
      </trkpt>
      <trkpt lat="44.55373" lon="7.14423">
        <ele>1962</ele>
        <time>2022-07-18T11:36:57Z</time>
      </trkpt>
      <trkpt lat="44.55372" lon="7.1442">
        <ele>1962.2</ele>
        <time>2022-07-18T11:36:58Z</time>
      </trkpt>
      <trkpt lat="44.55371" lon="7.14418">
        <ele>1962.2</ele>
        <time>2022-07-18T11:36:59Z</time>
      </trkpt>
      <trkpt lat="44.5537" lon="7.14415">
        <ele>1962.6</ele>
        <time>2022-07-18T11:37:00Z</time>
      </trkpt>
      <trkpt lat="44.55369" lon="7.14413">
        <ele>1962.8</ele>
        <time>2022-07-18T11:37:01Z</time>
      </trkpt>
      <trkpt lat="44.55367" lon="7.1441">
        <ele>1962.8</ele>
        <time>2022-07-18T11:37:02Z</time>
      </trkpt>
      <trkpt lat="44.55366" lon="7.14408">
        <ele>1963.2</ele>
        <time>2022-07-18T11:37:03Z</time>
      </trkpt>
      <trkpt lat="44.55364" lon="7.14406">
        <ele>1963.2</ele>
        <time>2022-07-18T11:37:04Z</time>
      </trkpt>
      <trkpt lat="44.55363" lon="7.14403">
        <ele>1963.6</ele>
        <time>2022-07-18T11:37:05Z</time>
      </trkpt>
      <trkpt lat="44.55362" lon="7.144">
        <ele>1963.8</ele>
        <time>2022-07-18T11:37:06Z</time>
      </trkpt>
      <trkpt lat="44.5536" lon="7.14398">
        <ele>1964</ele>
        <time>2022-07-18T11:37:07Z</time>
      </trkpt>
      <trkpt lat="44.55359" lon="7.14395">
        <ele>1964.2</ele>
        <time>2022-07-18T11:37:08Z</time>
      </trkpt>
      <trkpt lat="44.55358" lon="7.14393">
        <ele>1964.4</ele>
        <time>2022-07-18T11:37:09Z</time>
      </trkpt>
      <trkpt lat="44.55357" lon="7.1439">
        <ele>1964.8</ele>
        <time>2022-07-18T11:37:10Z</time>
      </trkpt>
      <trkpt lat="44.55355" lon="7.14388">
        <ele>1965</ele>
        <time>2022-07-18T11:37:11Z</time>
      </trkpt>
      <trkpt lat="44.55354" lon="7.14385">
        <ele>1965.2</ele>
        <time>2022-07-18T11:37:12Z</time>
      </trkpt>
      <trkpt lat="44.55353" lon="7.14383">
        <ele>1965.2</ele>
        <time>2022-07-18T11:37:13Z</time>
      </trkpt>
      <trkpt lat="44.55352" lon="7.1438">
        <ele>1965.6</ele>
        <time>2022-07-18T11:37:14Z</time>
      </trkpt>
      <trkpt lat="44.55351" lon="7.14377">
        <ele>1965.8</ele>
        <time>2022-07-18T11:37:15Z</time>
      </trkpt>
      <trkpt lat="44.5535" lon="7.14375">
        <ele>1966</ele>
        <time>2022-07-18T11:37:16Z</time>
      </trkpt>
      <trkpt lat="44.55349" lon="7.14372">
        <ele>1966.4</ele>
        <time>2022-07-18T11:37:17Z</time>
      </trkpt>
      <trkpt lat="44.55348" lon="7.1437">
        <ele>1966.6</ele>
        <time>2022-07-18T11:37:18Z</time>
      </trkpt>
      <trkpt lat="44.55347" lon="7.14367">
        <ele>1966.6</ele>
        <time>2022-07-18T11:37:19Z</time>
      </trkpt>
      <trkpt lat="44.55346" lon="7.14365">
        <ele>1966.8</ele>
        <time>2022-07-18T11:37:20Z</time>
      </trkpt>
      <trkpt lat="44.55345" lon="7.14362">
        <ele>1966.8</ele>
        <time>2022-07-18T11:37:21Z</time>
      </trkpt>
      <trkpt lat="44.55344" lon="7.14359">
        <ele>1967.2</ele>
        <time>2022-07-18T11:37:22Z</time>
      </trkpt>
      <trkpt lat="44.55343" lon="7.14356">
        <ele>1967.4</ele>
        <time>2022-07-18T11:37:23Z</time>
      </trkpt>
      <trkpt lat="44.55343" lon="7.14353">
        <ele>1967.4</ele>
        <time>2022-07-18T11:37:24Z</time>
      </trkpt>
      <trkpt lat="44.55342" lon="7.1435">
        <ele>1967.8</ele>
        <time>2022-07-18T11:37:25Z</time>
      </trkpt>
      <trkpt lat="44.55342" lon="7.14347">
        <ele>1968</ele>
        <time>2022-07-18T11:37:26Z</time>
      </trkpt>
      <trkpt lat="44.55342" lon="7.14344">
        <ele>1968.2</ele>
        <time>2022-07-18T11:37:27Z</time>
      </trkpt>
      <trkpt lat="44.55342" lon="7.14341">
        <ele>1968.4</ele>
        <time>2022-07-18T11:37:28Z</time>
      </trkpt>
      <trkpt lat="44.55343" lon="7.14339">
        <ele>1968.4</ele>
        <time>2022-07-18T11:37:29Z</time>
      </trkpt>
      <trkpt lat="44.55343" lon="7.14336">
        <ele>1968.8</ele>
        <time>2022-07-18T11:37:30Z</time>
      </trkpt>
      <trkpt lat="44.55343" lon="7.14334">
        <ele>1969</ele>
        <time>2022-07-18T11:37:31Z</time>
      </trkpt>
      <trkpt lat="44.55344" lon="7.14331">
        <ele>1969.2</ele>
        <time>2022-07-18T11:37:32Z</time>
      </trkpt>
      <trkpt lat="44.55345" lon="7.14329">
        <ele>1969.4</ele>
        <time>2022-07-18T11:37:33Z</time>
      </trkpt>
      <trkpt lat="44.55346" lon="7.14326">
        <ele>1969.4</ele>
        <time>2022-07-18T11:37:34Z</time>
      </trkpt>
      <trkpt lat="44.55346" lon="7.14324">
        <ele>1969.8</ele>
        <time>2022-07-18T11:37:35Z</time>
      </trkpt>
      <trkpt lat="44.55347" lon="7.14322">
        <ele>1970</ele>
        <time>2022-07-18T11:37:36Z</time>
      </trkpt>
      <trkpt lat="44.55348" lon="7.1432">
        <ele>1970</ele>
        <time>2022-07-18T11:37:37Z</time>
      </trkpt>
      <trkpt lat="44.55349" lon="7.14317">
        <ele>1970.4</ele>
        <time>2022-07-18T11:37:38Z</time>
      </trkpt>
      <trkpt lat="44.5535" lon="7.14315">
        <ele>1970.4</ele>
        <time>2022-07-18T11:37:39Z</time>
      </trkpt>
      <trkpt lat="44.55352" lon="7.1431">
        <ele>1970.6</ele>
        <time>2022-07-18T11:37:40Z</time>
      </trkpt>
      <trkpt lat="44.55353" lon="7.14307">
        <ele>1970.6</ele>
        <time>2022-07-18T11:37:41Z</time>
      </trkpt>
      <trkpt lat="44.55354" lon="7.14304">
        <ele>1970.8</ele>
        <time>2022-07-18T11:37:42Z</time>
      </trkpt>
      <trkpt lat="44.55355" lon="7.14302">
        <ele>1971</ele>
        <time>2022-07-18T11:37:43Z</time>
      </trkpt>
      <trkpt lat="44.55356" lon="7.143">
        <ele>1971</ele>
        <time>2022-07-18T11:37:44Z</time>
      </trkpt>
      <trkpt lat="44.55357" lon="7.14297">
        <ele>1971.4</ele>
        <time>2022-07-18T11:37:45Z</time>
      </trkpt>
      <trkpt lat="44.55358" lon="7.14295">
        <ele>1971.6</ele>
        <time>2022-07-18T11:37:46Z</time>
      </trkpt>
      <trkpt lat="44.55359" lon="7.14293">
        <ele>1971.8</ele>
        <time>2022-07-18T11:37:47Z</time>
      </trkpt>
      <trkpt lat="44.55361" lon="7.1429">
        <ele>1971.8</ele>
        <time>2022-07-18T11:37:48Z</time>
      </trkpt>
      <trkpt lat="44.55362" lon="7.14288">
        <ele>1972</ele>
        <time>2022-07-18T11:37:49Z</time>
      </trkpt>
      <trkpt lat="44.55363" lon="7.14285">
        <ele>1972</ele>
        <time>2022-07-18T11:37:50Z</time>
      </trkpt>
      <trkpt lat="44.55365" lon="7.14283">
        <ele>1972.4</ele>
        <time>2022-07-18T11:37:51Z</time>
      </trkpt>
      <trkpt lat="44.55366" lon="7.14281">
        <ele>1972.4</ele>
        <time>2022-07-18T11:37:52Z</time>
      </trkpt>
      <trkpt lat="44.55368" lon="7.14278">
        <ele>1972.6</ele>
        <time>2022-07-18T11:37:53Z</time>
      </trkpt>
      <trkpt lat="44.55369" lon="7.14275">
        <ele>1972.8</ele>
        <time>2022-07-18T11:37:54Z</time>
      </trkpt>
      <trkpt lat="44.5537" lon="7.14273">
        <ele>1972.8</ele>
        <time>2022-07-18T11:37:55Z</time>
      </trkpt>
      <trkpt lat="44.55372" lon="7.14271">
        <ele>1973.2</ele>
        <time>2022-07-18T11:37:56Z</time>
      </trkpt>
      <trkpt lat="44.55373" lon="7.14269">
        <ele>1973.2</ele>
        <time>2022-07-18T11:37:57Z</time>
      </trkpt>
      <trkpt lat="44.55374" lon="7.14266">
        <ele>1973.4</ele>
        <time>2022-07-18T11:37:58Z</time>
      </trkpt>
      <trkpt lat="44.55374" lon="7.14265">
        <ele>1973.4</ele>
        <time>2022-07-18T11:37:59Z</time>
      </trkpt>
      <trkpt lat="44.55375" lon="7.14263">
        <ele>1973.6</ele>
        <time>2022-07-18T11:38:00Z</time>
      </trkpt>
      <trkpt lat="44.55375" lon="7.1426">
        <ele>1973.6</ele>
        <time>2022-07-18T11:38:01Z</time>
      </trkpt>
      <trkpt lat="44.55375" lon="7.14257">
        <ele>1974</ele>
        <time>2022-07-18T11:38:02Z</time>
      </trkpt>
      <trkpt lat="44.55375" lon="7.14254">
        <ele>1974</ele>
        <time>2022-07-18T11:38:03Z</time>
      </trkpt>
      <trkpt lat="44.55375" lon="7.1425">
        <ele>1974.2</ele>
        <time>2022-07-18T11:38:04Z</time>
      </trkpt>
      <trkpt lat="44.55375" lon="7.14247">
        <ele>1974.2</ele>
        <time>2022-07-18T11:38:05Z</time>
      </trkpt>
      <trkpt lat="44.55374" lon="7.14244">
        <ele>1974.6</ele>
        <time>2022-07-18T11:38:06Z</time>
      </trkpt>
      <trkpt lat="44.55372" lon="7.14241">
        <ele>1974.6</ele>
        <time>2022-07-18T11:38:07Z</time>
      </trkpt>
      <trkpt lat="44.55371" lon="7.14238">
        <ele>1974.8</ele>
        <time>2022-07-18T11:38:08Z</time>
      </trkpt>
      <trkpt lat="44.5537" lon="7.14236">
        <ele>1974.8</ele>
        <time>2022-07-18T11:38:09Z</time>
      </trkpt>
      <trkpt lat="44.55368" lon="7.14233">
        <ele>1975</ele>
        <time>2022-07-18T11:38:10Z</time>
      </trkpt>
      <trkpt lat="44.55367" lon="7.1423">
        <ele>1975</ele>
        <time>2022-07-18T11:38:11Z</time>
      </trkpt>
      <trkpt lat="44.55365" lon="7.14228">
        <ele>1975.4</ele>
        <time>2022-07-18T11:38:12Z</time>
      </trkpt>
      <trkpt lat="44.55363" lon="7.14226">
        <ele>1975.4</ele>
        <time>2022-07-18T11:38:13Z</time>
      </trkpt>
      <trkpt lat="44.55362" lon="7.14224">
        <ele>1975.8</ele>
        <time>2022-07-18T11:38:14Z</time>
      </trkpt>
      <trkpt lat="44.5536" lon="7.14222">
        <ele>1975.8</ele>
        <time>2022-07-18T11:38:15Z</time>
      </trkpt>
      <trkpt lat="44.55359" lon="7.14219">
        <ele>1976</ele>
        <time>2022-07-18T11:38:16Z</time>
      </trkpt>
      <trkpt lat="44.55358" lon="7.14217">
        <ele>1976.2</ele>
        <time>2022-07-18T11:38:17Z</time>
      </trkpt>
      <trkpt lat="44.55357" lon="7.14215">
        <ele>1976.4</ele>
        <time>2022-07-18T11:38:18Z</time>
      </trkpt>
      <trkpt lat="44.55355" lon="7.14213">
        <ele>1976.4</ele>
        <time>2022-07-18T11:38:19Z</time>
      </trkpt>
      <trkpt lat="44.55354" lon="7.14211">
        <ele>1976.8</ele>
        <time>2022-07-18T11:38:20Z</time>
      </trkpt>
      <trkpt lat="44.55353" lon="7.1421">
        <ele>1976.8</ele>
        <time>2022-07-18T11:38:21Z</time>
      </trkpt>
      <trkpt lat="44.55352" lon="7.14208">
        <ele>1977.2</ele>
        <time>2022-07-18T11:38:22Z</time>
      </trkpt>
      <trkpt lat="44.5535" lon="7.14207">
        <ele>1977.4</ele>
        <time>2022-07-18T11:38:23Z</time>
      </trkpt>
      <trkpt lat="44.55349" lon="7.14205">
        <ele>1977.4</ele>
        <time>2022-07-18T11:38:24Z</time>
      </trkpt>
      <trkpt lat="44.55348" lon="7.14203">
        <ele>1977.8</ele>
        <time>2022-07-18T11:38:25Z</time>
      </trkpt>
      <trkpt lat="44.55346" lon="7.14201">
        <ele>1977.8</ele>
        <time>2022-07-18T11:38:26Z</time>
      </trkpt>
      <trkpt lat="44.55345" lon="7.142">
        <ele>1978.2</ele>
        <time>2022-07-18T11:38:27Z</time>
      </trkpt>
      <trkpt lat="44.55344" lon="7.14198">
        <ele>1978.2</ele>
        <time>2022-07-18T11:38:28Z</time>
      </trkpt>
      <trkpt lat="44.55342" lon="7.14197">
        <ele>1978.6</ele>
        <time>2022-07-18T11:38:29Z</time>
      </trkpt>
      <trkpt lat="44.55341" lon="7.14195">
        <ele>1978.8</ele>
        <time>2022-07-18T11:38:30Z</time>
      </trkpt>
      <trkpt lat="44.5534" lon="7.14194">
        <ele>1978.8</ele>
        <time>2022-07-18T11:38:31Z</time>
      </trkpt>
      <trkpt lat="44.55339" lon="7.14192">
        <ele>1979</ele>
        <time>2022-07-18T11:38:32Z</time>
      </trkpt>
      <trkpt lat="44.55338" lon="7.14191">
        <ele>1979</ele>
        <time>2022-07-18T11:38:33Z</time>
      </trkpt>
      <trkpt lat="44.55336" lon="7.14189">
        <ele>1979.4</ele>
        <time>2022-07-18T11:38:34Z</time>
      </trkpt>
      <trkpt lat="44.55335" lon="7.14188">
        <ele>1979.4</ele>
        <time>2022-07-18T11:38:35Z</time>
      </trkpt>
      <trkpt lat="44.55333" lon="7.14187">
        <ele>1979.6</ele>
        <time>2022-07-18T11:38:36Z</time>
      </trkpt>
      <trkpt lat="44.55331" lon="7.14186">
        <ele>1979.6</ele>
        <time>2022-07-18T11:38:37Z</time>
      </trkpt>
      <trkpt lat="44.5533" lon="7.14185">
        <ele>1980</ele>
        <time>2022-07-18T11:38:38Z</time>
      </trkpt>
      <trkpt lat="44.55328" lon="7.14183">
        <ele>1980</ele>
        <time>2022-07-18T11:38:39Z</time>
      </trkpt>
      <trkpt lat="44.55327" lon="7.14182">
        <ele>1980.2</ele>
        <time>2022-07-18T11:38:40Z</time>
      </trkpt>
      <trkpt lat="44.55325" lon="7.1418">
        <ele>1980.2</ele>
        <time>2022-07-18T11:38:41Z</time>
      </trkpt>
      <trkpt lat="44.55324" lon="7.14179">
        <ele>1980.6</ele>
        <time>2022-07-18T11:38:42Z</time>
      </trkpt>
      <trkpt lat="44.55322" lon="7.14178">
        <ele>1980.6</ele>
        <time>2022-07-18T11:38:43Z</time>
      </trkpt>
      <trkpt lat="44.5532" lon="7.14177">
        <ele>1981</ele>
        <time>2022-07-18T11:38:44Z</time>
      </trkpt>
      <trkpt lat="44.55318" lon="7.14176">
        <ele>1981</ele>
        <time>2022-07-18T11:38:45Z</time>
      </trkpt>
      <trkpt lat="44.55316" lon="7.14175">
        <ele>1981.2</ele>
        <time>2022-07-18T11:38:46Z</time>
      </trkpt>
      <trkpt lat="44.55315" lon="7.14175">
        <ele>1981.2</ele>
        <time>2022-07-18T11:38:47Z</time>
      </trkpt>
      <trkpt lat="44.55313" lon="7.14174">
        <ele>1981.6</ele>
        <time>2022-07-18T11:38:48Z</time>
      </trkpt>
      <trkpt lat="44.55311" lon="7.14173">
        <ele>1982</ele>
        <time>2022-07-18T11:38:49Z</time>
      </trkpt>
      <trkpt lat="44.5531" lon="7.14172">
        <ele>1982.2</ele>
        <time>2022-07-18T11:38:50Z</time>
      </trkpt>
      <trkpt lat="44.55309" lon="7.14171">
        <ele>1982.4</ele>
        <time>2022-07-18T11:38:51Z</time>
      </trkpt>
      <trkpt lat="44.55307" lon="7.1417">
        <ele>1982.6</ele>
        <time>2022-07-18T11:38:52Z</time>
      </trkpt>
      <trkpt lat="44.55306" lon="7.14169">
        <ele>1982.6</ele>
        <time>2022-07-18T11:38:53Z</time>
      </trkpt>
      <trkpt lat="44.55304" lon="7.14168">
        <ele>1982.8</ele>
        <time>2022-07-18T11:38:54Z</time>
      </trkpt>
      <trkpt lat="44.55303" lon="7.14168">
        <ele>1982.8</ele>
        <time>2022-07-18T11:38:55Z</time>
      </trkpt>
      <trkpt lat="44.55302" lon="7.14166">
        <ele>1982.8</ele>
        <time>2022-07-18T11:38:56Z</time>
      </trkpt>
      <trkpt lat="44.553" lon="7.14165">
        <ele>1983.2</ele>
        <time>2022-07-18T11:38:57Z</time>
      </trkpt>
      <trkpt lat="44.55299" lon="7.14164">
        <ele>1983.2</ele>
        <time>2022-07-18T11:38:58Z</time>
      </trkpt>
      <trkpt lat="44.55297" lon="7.14163">
        <ele>1983.4</ele>
        <time>2022-07-18T11:38:59Z</time>
      </trkpt>
      <trkpt lat="44.55295" lon="7.14162">
        <ele>1983.4</ele>
        <time>2022-07-18T11:39:00Z</time>
      </trkpt>
      <trkpt lat="44.55293" lon="7.1416">
        <ele>1983.8</ele>
        <time>2022-07-18T11:39:01Z</time>
      </trkpt>
      <trkpt lat="44.55292" lon="7.14159">
        <ele>1984</ele>
        <time>2022-07-18T11:39:02Z</time>
      </trkpt>
      <trkpt lat="44.5529" lon="7.14158">
        <ele>1984</ele>
        <time>2022-07-18T11:39:03Z</time>
      </trkpt>
      <trkpt lat="44.55288" lon="7.14157">
        <ele>1984.2</ele>
        <time>2022-07-18T11:39:04Z</time>
      </trkpt>
      <trkpt lat="44.55287" lon="7.14155">
        <ele>1984.4</ele>
        <time>2022-07-18T11:39:05Z</time>
      </trkpt>
      <trkpt lat="44.55285" lon="7.14154">
        <ele>1984.4</ele>
        <time>2022-07-18T11:39:06Z</time>
      </trkpt>
      <trkpt lat="44.55285" lon="7.14153">
        <ele>1984.8</ele>
        <time>2022-07-18T11:39:07Z</time>
      </trkpt>
      <trkpt lat="44.55284" lon="7.14153">
        <ele>1984.8</ele>
        <time>2022-07-18T11:39:08Z</time>
      </trkpt>
      <trkpt lat="44.55284" lon="7.14153">
        <ele>1985</ele>
        <time>2022-07-18T11:39:09Z</time>
      </trkpt>
      <trkpt lat="44.55279" lon="7.14148">
        <ele>1985.6</ele>
        <time>2022-07-18T11:39:17Z</time>
      </trkpt>
      <trkpt lat="44.55278" lon="7.14147">
        <ele>1985.6</ele>
        <time>2022-07-18T11:39:18Z</time>
      </trkpt>
      <trkpt lat="44.55277" lon="7.14146">
        <ele>1986</ele>
        <time>2022-07-18T11:39:19Z</time>
      </trkpt>
      <trkpt lat="44.55276" lon="7.14145">
        <ele>1986</ele>
        <time>2022-07-18T11:39:20Z</time>
      </trkpt>
      <trkpt lat="44.55276" lon="7.14143">
        <ele>1986</ele>
        <time>2022-07-18T11:39:21Z</time>
      </trkpt>
      <trkpt lat="44.55275" lon="7.14142">
        <ele>1986.2</ele>
        <time>2022-07-18T11:39:22Z</time>
      </trkpt>
      <trkpt lat="44.55274" lon="7.14141">
        <ele>1986.2</ele>
        <time>2022-07-18T11:39:23Z</time>
      </trkpt>
      <trkpt lat="44.55273" lon="7.1414">
        <ele>1986.4</ele>
        <time>2022-07-18T11:39:24Z</time>
      </trkpt>
      <trkpt lat="44.55272" lon="7.1414">
        <ele>1986.4</ele>
        <time>2022-07-18T11:39:25Z</time>
      </trkpt>
      <trkpt lat="44.55271" lon="7.14139">
        <ele>1986.4</ele>
        <time>2022-07-18T11:39:26Z</time>
      </trkpt>
      <trkpt lat="44.5527" lon="7.14138">
        <ele>1986.4</ele>
        <time>2022-07-18T11:39:27Z</time>
      </trkpt>
      <trkpt lat="44.5527" lon="7.14137">
        <ele>1986.6</ele>
        <time>2022-07-18T11:39:28Z</time>
      </trkpt>
      <trkpt lat="44.55269" lon="7.14136">
        <ele>1986.6</ele>
        <time>2022-07-18T11:39:29Z</time>
      </trkpt>
      <trkpt lat="44.55267" lon="7.14133">
        <ele>1986.8</ele>
        <time>2022-07-18T11:39:32Z</time>
      </trkpt>
      <trkpt lat="44.55266" lon="7.14133">
        <ele>1986.8</ele>
        <time>2022-07-18T11:39:33Z</time>
      </trkpt>
      <trkpt lat="44.55265" lon="7.14132">
        <ele>1987.2</ele>
        <time>2022-07-18T11:39:34Z</time>
      </trkpt>
      <trkpt lat="44.55264" lon="7.14131">
        <ele>1987.2</ele>
        <time>2022-07-18T11:39:35Z</time>
      </trkpt>
      <trkpt lat="44.55263" lon="7.1413">
        <ele>1987.2</ele>
        <time>2022-07-18T11:39:36Z</time>
      </trkpt>
      <trkpt lat="44.55263" lon="7.14128">
        <ele>1987.4</ele>
        <time>2022-07-18T11:39:37Z</time>
      </trkpt>
      <trkpt lat="44.55262" lon="7.14128">
        <ele>1987.4</ele>
        <time>2022-07-18T11:39:38Z</time>
      </trkpt>
      <trkpt lat="44.55261" lon="7.14126">
        <ele>1987.4</ele>
        <time>2022-07-18T11:39:39Z</time>
      </trkpt>
      <trkpt lat="44.5526" lon="7.14126">
        <ele>1987.8</ele>
        <time>2022-07-18T11:39:40Z</time>
      </trkpt>
      <trkpt lat="44.55259" lon="7.14124">
        <ele>1987.8</ele>
        <time>2022-07-18T11:39:41Z</time>
      </trkpt>
      <trkpt lat="44.55259" lon="7.14123">
        <ele>1987.8</ele>
        <time>2022-07-18T11:39:42Z</time>
      </trkpt>
      <trkpt lat="44.55258" lon="7.14122">
        <ele>1988</ele>
        <time>2022-07-18T11:39:43Z</time>
      </trkpt>
      <trkpt lat="44.55257" lon="7.14121">
        <ele>1988</ele>
        <time>2022-07-18T11:39:44Z</time>
      </trkpt>
      <trkpt lat="44.55256" lon="7.1412">
        <ele>1988.2</ele>
        <time>2022-07-18T11:39:45Z</time>
      </trkpt>
      <trkpt lat="44.55255" lon="7.14119">
        <ele>1988.2</ele>
        <time>2022-07-18T11:39:46Z</time>
      </trkpt>
      <trkpt lat="44.55254" lon="7.14118">
        <ele>1988.4</ele>
        <time>2022-07-18T11:39:47Z</time>
      </trkpt>
      <trkpt lat="44.55254" lon="7.14117">
        <ele>1988.4</ele>
        <time>2022-07-18T11:39:48Z</time>
      </trkpt>
      <trkpt lat="44.55253" lon="7.14116">
        <ele>1988.6</ele>
        <time>2022-07-18T11:39:49Z</time>
      </trkpt>
      <trkpt lat="44.55252" lon="7.14114">
        <ele>1988.6</ele>
        <time>2022-07-18T11:39:50Z</time>
      </trkpt>
      <trkpt lat="44.55251" lon="7.14113">
        <ele>1989</ele>
        <time>2022-07-18T11:39:51Z</time>
      </trkpt>
      <trkpt lat="44.5525" lon="7.14112">
        <ele>1989</ele>
        <time>2022-07-18T11:39:52Z</time>
      </trkpt>
      <trkpt lat="44.55249" lon="7.14111">
        <ele>1989</ele>
        <time>2022-07-18T11:39:53Z</time>
      </trkpt>
      <trkpt lat="44.55249" lon="7.1411">
        <ele>1989.2</ele>
        <time>2022-07-18T11:39:54Z</time>
      </trkpt>
      <trkpt lat="44.55248" lon="7.14109">
        <ele>1989.2</ele>
        <time>2022-07-18T11:39:55Z</time>
      </trkpt>
      <trkpt lat="44.55247" lon="7.14109">
        <ele>1989.2</ele>
        <time>2022-07-18T11:39:56Z</time>
      </trkpt>
      <trkpt lat="44.55246" lon="7.14108">
        <ele>1989.4</ele>
        <time>2022-07-18T11:39:57Z</time>
      </trkpt>
      <trkpt lat="44.55245" lon="7.14107">
        <ele>1989.4</ele>
        <time>2022-07-18T11:39:58Z</time>
      </trkpt>
      <trkpt lat="44.55244" lon="7.14106">
        <ele>1989.8</ele>
        <time>2022-07-18T11:39:59Z</time>
      </trkpt>
      <trkpt lat="44.55243" lon="7.14105">
        <ele>1989.8</ele>
        <time>2022-07-18T11:40:00Z</time>
      </trkpt>
      <trkpt lat="44.55242" lon="7.14104">
        <ele>1990</ele>
        <time>2022-07-18T11:40:01Z</time>
      </trkpt>
      <trkpt lat="44.55241" lon="7.14103">
        <ele>1990</ele>
        <time>2022-07-18T11:40:02Z</time>
      </trkpt>
      <trkpt lat="44.5524" lon="7.14103">
        <ele>1990.2</ele>
        <time>2022-07-18T11:40:03Z</time>
      </trkpt>
      <trkpt lat="44.55239" lon="7.14102">
        <ele>1990.2</ele>
        <time>2022-07-18T11:40:04Z</time>
      </trkpt>
      <trkpt lat="44.55237" lon="7.141">
        <ele>1990.6</ele>
        <time>2022-07-18T11:40:05Z</time>
      </trkpt>
      <trkpt lat="44.55236" lon="7.141">
        <ele>1990.6</ele>
        <time>2022-07-18T11:40:06Z</time>
      </trkpt>
      <trkpt lat="44.55235" lon="7.14099">
        <ele>1990.8</ele>
        <time>2022-07-18T11:40:07Z</time>
      </trkpt>
      <trkpt lat="44.55234" lon="7.14099">
        <ele>1990.8</ele>
        <time>2022-07-18T11:40:08Z</time>
      </trkpt>
      <trkpt lat="44.55233" lon="7.14098">
        <ele>1990.8</ele>
        <time>2022-07-18T11:40:09Z</time>
      </trkpt>
      <trkpt lat="44.55232" lon="7.14098">
        <ele>1991.2</ele>
        <time>2022-07-18T11:40:10Z</time>
      </trkpt>
      <trkpt lat="44.55231" lon="7.14097">
        <ele>1991.2</ele>
        <time>2022-07-18T11:40:11Z</time>
      </trkpt>
      <trkpt lat="44.55231" lon="7.14097">
        <ele>1991.2</ele>
        <time>2022-07-18T11:40:12Z</time>
      </trkpt>
      <trkpt lat="44.55229" lon="7.14096">
        <ele>1991.4</ele>
        <time>2022-07-18T11:40:14Z</time>
      </trkpt>
      <trkpt lat="44.55228" lon="7.14095">
        <ele>1991.4</ele>
        <time>2022-07-18T11:40:16Z</time>
      </trkpt>
      <trkpt lat="44.55226" lon="7.14095">
        <ele>1991.6</ele>
        <time>2022-07-18T11:40:17Z</time>
      </trkpt>
      <trkpt lat="44.55225" lon="7.14094">
        <ele>1991.6</ele>
        <time>2022-07-18T11:40:18Z</time>
      </trkpt>
      <trkpt lat="44.55224" lon="7.14094">
        <ele>1991.8</ele>
        <time>2022-07-18T11:40:19Z</time>
      </trkpt>
      <trkpt lat="44.55223" lon="7.14094">
        <ele>1991.8</ele>
        <time>2022-07-18T11:40:20Z</time>
      </trkpt>
      <trkpt lat="44.55222" lon="7.14094">
        <ele>1991.8</ele>
        <time>2022-07-18T11:40:21Z</time>
      </trkpt>
      <trkpt lat="44.55221" lon="7.14094">
        <ele>1992.2</ele>
        <time>2022-07-18T11:40:22Z</time>
      </trkpt>
      <trkpt lat="44.5522" lon="7.14094">
        <ele>1992.2</ele>
        <time>2022-07-18T11:40:23Z</time>
      </trkpt>
      <trkpt lat="44.55219" lon="7.14094">
        <ele>1992.4</ele>
        <time>2022-07-18T11:40:24Z</time>
      </trkpt>
      <trkpt lat="44.55218" lon="7.14093">
        <ele>1992.4</ele>
        <time>2022-07-18T11:40:25Z</time>
      </trkpt>
      <trkpt lat="44.55218" lon="7.14093">
        <ele>1992.6</ele>
        <time>2022-07-18T11:40:26Z</time>
      </trkpt>
      <trkpt lat="44.55217" lon="7.14093">
        <ele>1992.6</ele>
        <time>2022-07-18T11:40:27Z</time>
      </trkpt>
      <trkpt lat="44.55216" lon="7.14093">
        <ele>1992.8</ele>
        <time>2022-07-18T11:40:28Z</time>
      </trkpt>
      <trkpt lat="44.55214" lon="7.14092">
        <ele>1992.8</ele>
        <time>2022-07-18T11:40:29Z</time>
      </trkpt>
      <trkpt lat="44.55213" lon="7.14092">
        <ele>1992.8</ele>
        <time>2022-07-18T11:40:30Z</time>
      </trkpt>
      <trkpt lat="44.55212" lon="7.14092">
        <ele>1992.8</ele>
        <time>2022-07-18T11:40:31Z</time>
      </trkpt>
      <trkpt lat="44.55211" lon="7.14092">
        <ele>1993.2</ele>
        <time>2022-07-18T11:40:32Z</time>
      </trkpt>
      <trkpt lat="44.5521" lon="7.14092">
        <ele>1993.2</ele>
        <time>2022-07-18T11:40:33Z</time>
      </trkpt>
      <trkpt lat="44.55209" lon="7.14092">
        <ele>1993.2</ele>
        <time>2022-07-18T11:40:34Z</time>
      </trkpt>
      <trkpt lat="44.55208" lon="7.14092">
        <ele>1993.4</ele>
        <time>2022-07-18T11:40:35Z</time>
      </trkpt>
      <trkpt lat="44.55207" lon="7.14092">
        <ele>1993.4</ele>
        <time>2022-07-18T11:40:36Z</time>
      </trkpt>
      <trkpt lat="44.55205" lon="7.14091">
        <ele>1993.4</ele>
        <time>2022-07-18T11:40:37Z</time>
      </trkpt>
      <trkpt lat="44.55204" lon="7.14091">
        <ele>1993.6</ele>
        <time>2022-07-18T11:40:38Z</time>
      </trkpt>
      <trkpt lat="44.55203" lon="7.14091">
        <ele>1993.6</ele>
        <time>2022-07-18T11:40:39Z</time>
      </trkpt>
      <trkpt lat="44.55202" lon="7.1409">
        <ele>1993.8</ele>
        <time>2022-07-18T11:40:40Z</time>
      </trkpt>
      <trkpt lat="44.55201" lon="7.1409">
        <ele>1993.8</ele>
        <time>2022-07-18T11:40:41Z</time>
      </trkpt>
      <trkpt lat="44.552" lon="7.1409">
        <ele>1993.8</ele>
        <time>2022-07-18T11:40:42Z</time>
      </trkpt>
      <trkpt lat="44.55199" lon="7.1409">
        <ele>1993.8</ele>
        <time>2022-07-18T11:40:43Z</time>
      </trkpt>
      <trkpt lat="44.55198" lon="7.1409">
        <ele>1994.2</ele>
        <time>2022-07-18T11:40:44Z</time>
      </trkpt>
      <trkpt lat="44.55197" lon="7.1409">
        <ele>1994.2</ele>
        <time>2022-07-18T11:40:45Z</time>
      </trkpt>
      <trkpt lat="44.55196" lon="7.1409">
        <ele>1994.4</ele>
        <time>2022-07-18T11:40:46Z</time>
      </trkpt>
      <trkpt lat="44.55195" lon="7.1409">
        <ele>1994.4</ele>
        <time>2022-07-18T11:40:47Z</time>
      </trkpt>
      <trkpt lat="44.55194" lon="7.1409">
        <ele>1994.6</ele>
        <time>2022-07-18T11:40:48Z</time>
      </trkpt>
      <trkpt lat="44.55194" lon="7.1409">
        <ele>1994.6</ele>
        <time>2022-07-18T11:40:49Z</time>
      </trkpt>
      <trkpt lat="44.55194" lon="7.1409">
        <ele>1994.8</ele>
        <time>2022-07-18T11:40:53Z</time>
      </trkpt>
      <trkpt lat="44.55194" lon="7.1409">
        <ele>1994.8</ele>
        <time>2022-07-18T11:40:57Z</time>
      </trkpt>
      <trkpt lat="44.55192" lon="7.14089">
        <ele>1994.8</ele>
        <time>2022-07-18T11:41:04Z</time>
      </trkpt>
      <trkpt lat="44.55191" lon="7.14089">
        <ele>1995</ele>
        <time>2022-07-18T11:41:05Z</time>
      </trkpt>
      <trkpt lat="44.5519" lon="7.14089">
        <ele>1995</ele>
        <time>2022-07-18T11:41:06Z</time>
      </trkpt>
      <trkpt lat="44.55189" lon="7.14089">
        <ele>1995</ele>
        <time>2022-07-18T11:41:07Z</time>
      </trkpt>
      <trkpt lat="44.55188" lon="7.14089">
        <ele>1995.4</ele>
        <time>2022-07-18T11:41:08Z</time>
      </trkpt>
      <trkpt lat="44.55187" lon="7.14089">
        <ele>1995.4</ele>
        <time>2022-07-18T11:41:09Z</time>
      </trkpt>
      <trkpt lat="44.55186" lon="7.14089">
        <ele>1995.6</ele>
        <time>2022-07-18T11:41:10Z</time>
      </trkpt>
      <trkpt lat="44.55185" lon="7.14088">
        <ele>1995.6</ele>
        <time>2022-07-18T11:41:11Z</time>
      </trkpt>
      <trkpt lat="44.55184" lon="7.14088">
        <ele>1995.8</ele>
        <time>2022-07-18T11:41:12Z</time>
      </trkpt>
      <trkpt lat="44.55183" lon="7.14088">
        <ele>1995.8</ele>
        <time>2022-07-18T11:41:13Z</time>
      </trkpt>
      <trkpt lat="44.55182" lon="7.14087">
        <ele>1995.8</ele>
        <time>2022-07-18T11:41:14Z</time>
      </trkpt>
      <trkpt lat="44.55181" lon="7.14087">
        <ele>1996</ele>
        <time>2022-07-18T11:41:15Z</time>
      </trkpt>
      <trkpt lat="44.5518" lon="7.14087">
        <ele>1996</ele>
        <time>2022-07-18T11:41:16Z</time>
      </trkpt>
      <trkpt lat="44.55179" lon="7.14086">
        <ele>1996.2</ele>
        <time>2022-07-18T11:41:17Z</time>
      </trkpt>
      <trkpt lat="44.55177" lon="7.14086">
        <ele>1996.2</ele>
        <time>2022-07-18T11:41:18Z</time>
      </trkpt>
      <trkpt lat="44.55176" lon="7.14086">
        <ele>1996.2</ele>
        <time>2022-07-18T11:41:19Z</time>
      </trkpt>
      <trkpt lat="44.55175" lon="7.14086">
        <ele>1996.6</ele>
        <time>2022-07-18T11:41:20Z</time>
      </trkpt>
      <trkpt lat="44.55174" lon="7.14086">
        <ele>1996.6</ele>
        <time>2022-07-18T11:41:21Z</time>
      </trkpt>
      <trkpt lat="44.55173" lon="7.14086">
        <ele>1996.6</ele>
        <time>2022-07-18T11:41:22Z</time>
      </trkpt>
      <trkpt lat="44.55172" lon="7.14085">
        <ele>1996.8</ele>
        <time>2022-07-18T11:41:23Z</time>
      </trkpt>
      <trkpt lat="44.55171" lon="7.14085">
        <ele>1996.8</ele>
        <time>2022-07-18T11:41:24Z</time>
      </trkpt>
      <trkpt lat="44.55169" lon="7.14085">
        <ele>1997.2</ele>
        <time>2022-07-18T11:41:25Z</time>
      </trkpt>
      <trkpt lat="44.55168" lon="7.14084">
        <ele>1997.2</ele>
        <time>2022-07-18T11:41:26Z</time>
      </trkpt>
      <trkpt lat="44.55167" lon="7.14084">
        <ele>1997.2</ele>
        <time>2022-07-18T11:41:27Z</time>
      </trkpt>
      <trkpt lat="44.55166" lon="7.14083">
        <ele>1997.4</ele>
        <time>2022-07-18T11:41:28Z</time>
      </trkpt>
      <trkpt lat="44.55165" lon="7.14083">
        <ele>1997.4</ele>
        <time>2022-07-18T11:41:29Z</time>
      </trkpt>
      <trkpt lat="44.55164" lon="7.14082">
        <ele>1997.6</ele>
        <time>2022-07-18T11:41:30Z</time>
      </trkpt>
      <trkpt lat="44.55162" lon="7.14082">
        <ele>1997.6</ele>
        <time>2022-07-18T11:41:31Z</time>
      </trkpt>
      <trkpt lat="44.55161" lon="7.14082">
        <ele>1997.6</ele>
        <time>2022-07-18T11:41:32Z</time>
      </trkpt>
      <trkpt lat="44.5516" lon="7.14081">
        <ele>1997.8</ele>
        <time>2022-07-18T11:41:33Z</time>
      </trkpt>
      <trkpt lat="44.55159" lon="7.14081">
        <ele>1997.8</ele>
        <time>2022-07-18T11:41:34Z</time>
      </trkpt>
      <trkpt lat="44.55158" lon="7.1408">
        <ele>1998.2</ele>
        <time>2022-07-18T11:41:35Z</time>
      </trkpt>
      <trkpt lat="44.55157" lon="7.1408">
        <ele>1998.2</ele>
        <time>2022-07-18T11:41:36Z</time>
      </trkpt>
      <trkpt lat="44.55156" lon="7.14079">
        <ele>1998.4</ele>
        <time>2022-07-18T11:41:37Z</time>
      </trkpt>
      <trkpt lat="44.55156" lon="7.14079">
        <ele>1998.4</ele>
        <time>2022-07-18T11:41:38Z</time>
      </trkpt>
      <trkpt lat="44.55155" lon="7.14078">
        <ele>1998.8</ele>
        <time>2022-07-18T11:41:39Z</time>
      </trkpt>
      <trkpt lat="44.55154" lon="7.14078">
        <ele>1998.8</ele>
        <time>2022-07-18T11:41:40Z</time>
      </trkpt>
      <trkpt lat="44.55152" lon="7.14077">
        <ele>1999</ele>
        <time>2022-07-18T11:41:41Z</time>
      </trkpt>
      <trkpt lat="44.55151" lon="7.14076">
        <ele>1999.2</ele>
        <time>2022-07-18T11:41:43Z</time>
      </trkpt>
      <trkpt lat="44.5515" lon="7.14076">
        <ele>1999.4</ele>
        <time>2022-07-18T11:41:44Z</time>
      </trkpt>
      <trkpt lat="44.5515" lon="7.14075">
        <ele>1999.4</ele>
        <time>2022-07-18T11:41:45Z</time>
      </trkpt>
      <trkpt lat="44.55149" lon="7.14074">
        <ele>1999.8</ele>
        <time>2022-07-18T11:41:46Z</time>
      </trkpt>
      <trkpt lat="44.55148" lon="7.14074">
        <ele>1999.8</ele>
        <time>2022-07-18T11:41:47Z</time>
      </trkpt>
      <trkpt lat="44.55146" lon="7.14073">
        <ele>1999.8</ele>
        <time>2022-07-18T11:41:48Z</time>
      </trkpt>
      <trkpt lat="44.55146" lon="7.14072">
        <ele>2000</ele>
        <time>2022-07-18T11:41:49Z</time>
      </trkpt>
      <trkpt lat="44.55145" lon="7.14072">
        <ele>2000</ele>
        <time>2022-07-18T11:41:50Z</time>
      </trkpt>
      <trkpt lat="44.55144" lon="7.14071">
        <ele>2000.4</ele>
        <time>2022-07-18T11:41:51Z</time>
      </trkpt>
      <trkpt lat="44.55142" lon="7.1407">
        <ele>2000.4</ele>
        <time>2022-07-18T11:41:52Z</time>
      </trkpt>
      <trkpt lat="44.55141" lon="7.14069">
        <ele>2000.4</ele>
        <time>2022-07-18T11:41:53Z</time>
      </trkpt>
      <trkpt lat="44.55141" lon="7.14068">
        <ele>2000.6</ele>
        <time>2022-07-18T11:41:54Z</time>
      </trkpt>
      <trkpt lat="44.5514" lon="7.14068">
        <ele>2000.6</ele>
        <time>2022-07-18T11:41:55Z</time>
      </trkpt>
      <trkpt lat="44.55139" lon="7.14067">
        <ele>2000.8</ele>
        <time>2022-07-18T11:41:56Z</time>
      </trkpt>
      <trkpt lat="44.55138" lon="7.14066">
        <ele>2000.8</ele>
        <time>2022-07-18T11:41:57Z</time>
      </trkpt>
      <trkpt lat="44.55137" lon="7.14064">
        <ele>2001</ele>
        <time>2022-07-18T11:41:58Z</time>
      </trkpt>
      <trkpt lat="44.55136" lon="7.14063">
        <ele>2001</ele>
        <time>2022-07-18T11:41:59Z</time>
      </trkpt>
      <trkpt lat="44.55135" lon="7.14062">
        <ele>2001</ele>
        <time>2022-07-18T11:42:00Z</time>
      </trkpt>
      <trkpt lat="44.55135" lon="7.14061">
        <ele>2001.2</ele>
        <time>2022-07-18T11:42:01Z</time>
      </trkpt>
      <trkpt lat="44.55134" lon="7.1406">
        <ele>2001.2</ele>
        <time>2022-07-18T11:42:02Z</time>
      </trkpt>
      <trkpt lat="44.55134" lon="7.14059">
        <ele>2001.6</ele>
        <time>2022-07-18T11:42:03Z</time>
      </trkpt>
      <trkpt lat="44.55133" lon="7.14058">
        <ele>2001.6</ele>
        <time>2022-07-18T11:42:04Z</time>
      </trkpt>
      <trkpt lat="44.55133" lon="7.14057">
        <ele>2001.8</ele>
        <time>2022-07-18T11:42:05Z</time>
      </trkpt>
      <trkpt lat="44.55133" lon="7.14055">
        <ele>2001.8</ele>
        <time>2022-07-18T11:42:06Z</time>
      </trkpt>
      <trkpt lat="44.55133" lon="7.14054">
        <ele>2001.8</ele>
        <time>2022-07-18T11:42:07Z</time>
      </trkpt>
      <trkpt lat="44.55133" lon="7.14052">
        <ele>2002.2</ele>
        <time>2022-07-18T11:42:08Z</time>
      </trkpt>
      <trkpt lat="44.55133" lon="7.14051">
        <ele>2002.2</ele>
        <time>2022-07-18T11:42:09Z</time>
      </trkpt>
      <trkpt lat="44.55134" lon="7.14049">
        <ele>2002.4</ele>
        <time>2022-07-18T11:42:10Z</time>
      </trkpt>
      <trkpt lat="44.55134" lon="7.14048">
        <ele>2002.4</ele>
        <time>2022-07-18T11:42:11Z</time>
      </trkpt>
      <trkpt lat="44.55134" lon="7.14046">
        <ele>2002.6</ele>
        <time>2022-07-18T11:42:12Z</time>
      </trkpt>
      <trkpt lat="44.55134" lon="7.14045">
        <ele>2002.6</ele>
        <time>2022-07-18T11:42:13Z</time>
      </trkpt>
      <trkpt lat="44.55135" lon="7.14044">
        <ele>2002.6</ele>
        <time>2022-07-18T11:42:14Z</time>
      </trkpt>
      <trkpt lat="44.55135" lon="7.14042">
        <ele>2002.8</ele>
        <time>2022-07-18T11:42:15Z</time>
      </trkpt>
      <trkpt lat="44.55135" lon="7.14041">
        <ele>2002.8</ele>
        <time>2022-07-18T11:42:16Z</time>
      </trkpt>
      <trkpt lat="44.55135" lon="7.14039">
        <ele>2003</ele>
        <time>2022-07-18T11:42:17Z</time>
      </trkpt>
      <trkpt lat="44.55135" lon="7.14038">
        <ele>2003</ele>
        <time>2022-07-18T11:42:18Z</time>
      </trkpt>
      <trkpt lat="44.55135" lon="7.14036">
        <ele>2003.4</ele>
        <time>2022-07-18T11:42:19Z</time>
      </trkpt>
      <trkpt lat="44.55135" lon="7.14035">
        <ele>2003.4</ele>
        <time>2022-07-18T11:42:20Z</time>
      </trkpt>
      <trkpt lat="44.55135" lon="7.14033">
        <ele>2003.4</ele>
        <time>2022-07-18T11:42:21Z</time>
      </trkpt>
      <trkpt lat="44.55135" lon="7.14031">
        <ele>2003.6</ele>
        <time>2022-07-18T11:42:22Z</time>
      </trkpt>
      <trkpt lat="44.55136" lon="7.1403">
        <ele>2003.6</ele>
        <time>2022-07-18T11:42:23Z</time>
      </trkpt>
      <trkpt lat="44.55136" lon="7.14029">
        <ele>2004</ele>
        <time>2022-07-18T11:42:24Z</time>
      </trkpt>
      <trkpt lat="44.55136" lon="7.14027">
        <ele>2004</ele>
        <time>2022-07-18T11:42:25Z</time>
      </trkpt>
      <trkpt lat="44.55136" lon="7.14025">
        <ele>2004.2</ele>
        <time>2022-07-18T11:42:26Z</time>
      </trkpt>
      <trkpt lat="44.55136" lon="7.14024">
        <ele>2004.2</ele>
        <time>2022-07-18T11:42:27Z</time>
      </trkpt>
      <trkpt lat="44.55137" lon="7.14023">
        <ele>2004.4</ele>
        <time>2022-07-18T11:42:28Z</time>
      </trkpt>
      <trkpt lat="44.55137" lon="7.14021">
        <ele>2004.4</ele>
        <time>2022-07-18T11:42:29Z</time>
      </trkpt>
      <trkpt lat="44.55137" lon="7.14018">
        <ele>2004.8</ele>
        <time>2022-07-18T11:42:31Z</time>
      </trkpt>
      <trkpt lat="44.55137" lon="7.14017">
        <ele>2004.8</ele>
        <time>2022-07-18T11:42:32Z</time>
      </trkpt>
      <trkpt lat="44.55137" lon="7.14015">
        <ele>2005</ele>
        <time>2022-07-18T11:42:33Z</time>
      </trkpt>
      <trkpt lat="44.55137" lon="7.14014">
        <ele>2005</ele>
        <time>2022-07-18T11:42:34Z</time>
      </trkpt>
      <trkpt lat="44.55137" lon="7.14012">
        <ele>2005</ele>
        <time>2022-07-18T11:42:35Z</time>
      </trkpt>
      <trkpt lat="44.55136" lon="7.14009">
        <ele>2005.4</ele>
        <time>2022-07-18T11:42:37Z</time>
      </trkpt>
      <trkpt lat="44.55136" lon="7.14007">
        <ele>2005.4</ele>
        <time>2022-07-18T11:42:38Z</time>
      </trkpt>
      <trkpt lat="44.55136" lon="7.14006">
        <ele>2005.6</ele>
        <time>2022-07-18T11:42:39Z</time>
      </trkpt>
      <trkpt lat="44.55136" lon="7.14004">
        <ele>2005.6</ele>
        <time>2022-07-18T11:42:40Z</time>
      </trkpt>
      <trkpt lat="44.55136" lon="7.14002">
        <ele>2005.6</ele>
        <time>2022-07-18T11:42:41Z</time>
      </trkpt>
      <trkpt lat="44.55135" lon="7.14001">
        <ele>2005.8</ele>
        <time>2022-07-18T11:42:42Z</time>
      </trkpt>
      <trkpt lat="44.55135" lon="7.13999">
        <ele>2005.8</ele>
        <time>2022-07-18T11:42:43Z</time>
      </trkpt>
      <trkpt lat="44.55135" lon="7.13998">
        <ele>2006.2</ele>
        <time>2022-07-18T11:42:44Z</time>
      </trkpt>
      <trkpt lat="44.55135" lon="7.13996">
        <ele>2006.2</ele>
        <time>2022-07-18T11:42:45Z</time>
      </trkpt>
      <trkpt lat="44.55135" lon="7.13995">
        <ele>2006.2</ele>
        <time>2022-07-18T11:42:46Z</time>
      </trkpt>
      <trkpt lat="44.55135" lon="7.13993">
        <ele>2006.4</ele>
        <time>2022-07-18T11:42:47Z</time>
      </trkpt>
      <trkpt lat="44.55135" lon="7.13992">
        <ele>2006.4</ele>
        <time>2022-07-18T11:42:48Z</time>
      </trkpt>
      <trkpt lat="44.55135" lon="7.1399">
        <ele>2006.6</ele>
        <time>2022-07-18T11:42:49Z</time>
      </trkpt>
      <trkpt lat="44.55135" lon="7.13989">
        <ele>2006.6</ele>
        <time>2022-07-18T11:42:50Z</time>
      </trkpt>
      <trkpt lat="44.55135" lon="7.13987">
        <ele>2006.8</ele>
        <time>2022-07-18T11:42:51Z</time>
      </trkpt>
      <trkpt lat="44.55135" lon="7.13986">
        <ele>2006.8</ele>
        <time>2022-07-18T11:42:52Z</time>
      </trkpt>
      <trkpt lat="44.55135" lon="7.13985">
        <ele>2007</ele>
        <time>2022-07-18T11:42:53Z</time>
      </trkpt>
      <trkpt lat="44.55134" lon="7.13983">
        <ele>2007</ele>
        <time>2022-07-18T11:42:54Z</time>
      </trkpt>
      <trkpt lat="44.55134" lon="7.13982">
        <ele>2007</ele>
        <time>2022-07-18T11:42:55Z</time>
      </trkpt>
      <trkpt lat="44.55134" lon="7.13981">
        <ele>2007.2</ele>
        <time>2022-07-18T11:42:56Z</time>
      </trkpt>
      <trkpt lat="44.55134" lon="7.13979">
        <ele>2007.2</ele>
        <time>2022-07-18T11:42:57Z</time>
      </trkpt>
      <trkpt lat="44.55134" lon="7.13978">
        <ele>2007.6</ele>
        <time>2022-07-18T11:42:58Z</time>
      </trkpt>
      <trkpt lat="44.55134" lon="7.13976">
        <ele>2007.6</ele>
        <time>2022-07-18T11:42:59Z</time>
      </trkpt>
      <trkpt lat="44.55134" lon="7.13975">
        <ele>2007.6</ele>
        <time>2022-07-18T11:43:00Z</time>
      </trkpt>
      <trkpt lat="44.55134" lon="7.13974">
        <ele>2007.6</ele>
        <time>2022-07-18T11:43:01Z</time>
      </trkpt>
      <trkpt lat="44.55134" lon="7.13972">
        <ele>2007.8</ele>
        <time>2022-07-18T11:43:02Z</time>
      </trkpt>
      <trkpt lat="44.55134" lon="7.1397">
        <ele>2007.8</ele>
        <time>2022-07-18T11:43:03Z</time>
      </trkpt>
      <trkpt lat="44.55133" lon="7.13969">
        <ele>2008</ele>
        <time>2022-07-18T11:43:04Z</time>
      </trkpt>
      <trkpt lat="44.55133" lon="7.13967">
        <ele>2008.2</ele>
        <time>2022-07-18T11:43:05Z</time>
      </trkpt>
      <trkpt lat="44.55132" lon="7.13966">
        <ele>2008.2</ele>
        <time>2022-07-18T11:43:06Z</time>
      </trkpt>
      <trkpt lat="44.55132" lon="7.13964">
        <ele>2008.4</ele>
        <time>2022-07-18T11:43:07Z</time>
      </trkpt>
      <trkpt lat="44.55132" lon="7.13963">
        <ele>2008.4</ele>
        <time>2022-07-18T11:43:08Z</time>
      </trkpt>
      <trkpt lat="44.55131" lon="7.13962">
        <ele>2008.8</ele>
        <time>2022-07-18T11:43:09Z</time>
      </trkpt>
      <trkpt lat="44.55131" lon="7.1396">
        <ele>2008.8</ele>
        <time>2022-07-18T11:43:10Z</time>
      </trkpt>
      <trkpt lat="44.55131" lon="7.13959">
        <ele>2009</ele>
        <time>2022-07-18T11:43:11Z</time>
      </trkpt>
      <trkpt lat="44.5513" lon="7.13957">
        <ele>2009</ele>
        <time>2022-07-18T11:43:12Z</time>
      </trkpt>
      <trkpt lat="44.5513" lon="7.13956">
        <ele>2009.2</ele>
        <time>2022-07-18T11:43:13Z</time>
      </trkpt>
      <trkpt lat="44.55129" lon="7.13954">
        <ele>2009.2</ele>
        <time>2022-07-18T11:43:14Z</time>
      </trkpt>
      <trkpt lat="44.55129" lon="7.13953">
        <ele>2009.4</ele>
        <time>2022-07-18T11:43:15Z</time>
      </trkpt>
      <trkpt lat="44.55128" lon="7.13951">
        <ele>2009.4</ele>
        <time>2022-07-18T11:43:16Z</time>
      </trkpt>
      <trkpt lat="44.55128" lon="7.1395">
        <ele>2009.6</ele>
        <time>2022-07-18T11:43:17Z</time>
      </trkpt>
      <trkpt lat="44.55127" lon="7.13949">
        <ele>2009.6</ele>
        <time>2022-07-18T11:43:18Z</time>
      </trkpt>
      <trkpt lat="44.55126" lon="7.13948">
        <ele>2009.6</ele>
        <time>2022-07-18T11:43:19Z</time>
      </trkpt>
      <trkpt lat="44.55126" lon="7.13946">
        <ele>2009.8</ele>
        <time>2022-07-18T11:43:20Z</time>
      </trkpt>
      <trkpt lat="44.55125" lon="7.13945">
        <ele>2009.8</ele>
        <time>2022-07-18T11:43:21Z</time>
      </trkpt>
      <trkpt lat="44.55125" lon="7.13944">
        <ele>2009.8</ele>
        <time>2022-07-18T11:43:22Z</time>
      </trkpt>
      <trkpt lat="44.55124" lon="7.13942">
        <ele>2010.2</ele>
        <time>2022-07-18T11:43:23Z</time>
      </trkpt>
      <trkpt lat="44.55123" lon="7.13941">
        <ele>2010.2</ele>
        <time>2022-07-18T11:43:24Z</time>
      </trkpt>
      <trkpt lat="44.55123" lon="7.1394">
        <ele>2010.2</ele>
        <time>2022-07-18T11:43:25Z</time>
      </trkpt>
      <trkpt lat="44.55122" lon="7.13939">
        <ele>2010.2</ele>
        <time>2022-07-18T11:43:26Z</time>
      </trkpt>
      <trkpt lat="44.55121" lon="7.13937">
        <ele>2010.4</ele>
        <time>2022-07-18T11:43:27Z</time>
      </trkpt>
      <trkpt lat="44.55121" lon="7.13936">
        <ele>2010.4</ele>
        <time>2022-07-18T11:43:28Z</time>
      </trkpt>
      <trkpt lat="44.5512" lon="7.13935">
        <ele>2010.6</ele>
        <time>2022-07-18T11:43:29Z</time>
      </trkpt>
      <trkpt lat="44.55119" lon="7.13934">
        <ele>2010.6</ele>
        <time>2022-07-18T11:43:30Z</time>
      </trkpt>
      <trkpt lat="44.55119" lon="7.13933">
        <ele>2010.8</ele>
        <time>2022-07-18T11:43:31Z</time>
      </trkpt>
      <trkpt lat="44.55118" lon="7.13931">
        <ele>2010.8</ele>
        <time>2022-07-18T11:43:32Z</time>
      </trkpt>
      <trkpt lat="44.55117" lon="7.1393">
        <ele>2010.8</ele>
        <time>2022-07-18T11:43:33Z</time>
      </trkpt>
      <trkpt lat="44.55117" lon="7.13929">
        <ele>2011.2</ele>
        <time>2022-07-18T11:43:34Z</time>
      </trkpt>
      <trkpt lat="44.55116" lon="7.13928">
        <ele>2011.2</ele>
        <time>2022-07-18T11:43:35Z</time>
      </trkpt>
      <trkpt lat="44.55115" lon="7.13927">
        <ele>2011.2</ele>
        <time>2022-07-18T11:43:36Z</time>
      </trkpt>
      <trkpt lat="44.55114" lon="7.13926">
        <ele>2011.4</ele>
        <time>2022-07-18T11:43:37Z</time>
      </trkpt>
      <trkpt lat="44.55114" lon="7.13925">
        <ele>2011.4</ele>
        <time>2022-07-18T11:43:38Z</time>
      </trkpt>
      <trkpt lat="44.55113" lon="7.13924">
        <ele>2011.4</ele>
        <time>2022-07-18T11:43:39Z</time>
      </trkpt>
      <trkpt lat="44.55112" lon="7.13923">
        <ele>2011.8</ele>
        <time>2022-07-18T11:43:40Z</time>
      </trkpt>
      <trkpt lat="44.55111" lon="7.13922">
        <ele>2011.8</ele>
        <time>2022-07-18T11:43:41Z</time>
      </trkpt>
      <trkpt lat="44.55111" lon="7.1392">
        <ele>2012</ele>
        <time>2022-07-18T11:43:42Z</time>
      </trkpt>
      <trkpt lat="44.5511" lon="7.13919">
        <ele>2012</ele>
        <time>2022-07-18T11:43:43Z</time>
      </trkpt>
      <trkpt lat="44.55109" lon="7.13918">
        <ele>2012</ele>
        <time>2022-07-18T11:43:44Z</time>
      </trkpt>
      <trkpt lat="44.55109" lon="7.13917">
        <ele>2012.4</ele>
        <time>2022-07-18T11:43:45Z</time>
      </trkpt>
      <trkpt lat="44.55108" lon="7.13916">
        <ele>2012.4</ele>
        <time>2022-07-18T11:43:46Z</time>
      </trkpt>
      <trkpt lat="44.55107" lon="7.13915">
        <ele>2012.6</ele>
        <time>2022-07-18T11:43:47Z</time>
      </trkpt>
      <trkpt lat="44.55107" lon="7.13914">
        <ele>2012.6</ele>
        <time>2022-07-18T11:43:48Z</time>
      </trkpt>
      <trkpt lat="44.55106" lon="7.13913">
        <ele>2012.6</ele>
        <time>2022-07-18T11:43:49Z</time>
      </trkpt>
      <trkpt lat="44.55106" lon="7.13912">
        <ele>2012.6</ele>
        <time>2022-07-18T11:43:50Z</time>
      </trkpt>
      <trkpt lat="44.55105" lon="7.1391">
        <ele>2013</ele>
        <time>2022-07-18T11:43:51Z</time>
      </trkpt>
      <trkpt lat="44.55105" lon="7.13909">
        <ele>2013</ele>
        <time>2022-07-18T11:43:52Z</time>
      </trkpt>
      <trkpt lat="44.55104" lon="7.13908">
        <ele>2013</ele>
        <time>2022-07-18T11:43:53Z</time>
      </trkpt>
      <trkpt lat="44.55103" lon="7.13907">
        <ele>2013.2</ele>
        <time>2022-07-18T11:43:54Z</time>
      </trkpt>
      <trkpt lat="44.55103" lon="7.13905">
        <ele>2013.2</ele>
        <time>2022-07-18T11:43:55Z</time>
      </trkpt>
      <trkpt lat="44.55102" lon="7.13904">
        <ele>2013.2</ele>
        <time>2022-07-18T11:43:56Z</time>
      </trkpt>
      <trkpt lat="44.55101" lon="7.13903">
        <ele>2013.4</ele>
        <time>2022-07-18T11:43:57Z</time>
      </trkpt>
      <trkpt lat="44.55101" lon="7.13902">
        <ele>2013.4</ele>
        <time>2022-07-18T11:43:58Z</time>
      </trkpt>
      <trkpt lat="44.551" lon="7.13901">
        <ele>2013.4</ele>
        <time>2022-07-18T11:43:59Z</time>
      </trkpt>
      <trkpt lat="44.55099" lon="7.139">
        <ele>2013.8</ele>
        <time>2022-07-18T11:44:00Z</time>
      </trkpt>
      <trkpt lat="44.55099" lon="7.13899">
        <ele>2013.8</ele>
        <time>2022-07-18T11:44:01Z</time>
      </trkpt>
      <trkpt lat="44.55098" lon="7.13898">
        <ele>2013.8</ele>
        <time>2022-07-18T11:44:02Z</time>
      </trkpt>
      <trkpt lat="44.55097" lon="7.13897">
        <ele>2014</ele>
        <time>2022-07-18T11:44:03Z</time>
      </trkpt>
      <trkpt lat="44.55097" lon="7.13895">
        <ele>2014</ele>
        <time>2022-07-18T11:44:04Z</time>
      </trkpt>
      <trkpt lat="44.55096" lon="7.13894">
        <ele>2014</ele>
        <time>2022-07-18T11:44:05Z</time>
      </trkpt>
      <trkpt lat="44.55095" lon="7.13893">
        <ele>2014.4</ele>
        <time>2022-07-18T11:44:06Z</time>
      </trkpt>
      <trkpt lat="44.55095" lon="7.13892">
        <ele>2014.4</ele>
        <time>2022-07-18T11:44:07Z</time>
      </trkpt>
      <trkpt lat="44.55094" lon="7.13891">
        <ele>2014.6</ele>
        <time>2022-07-18T11:44:08Z</time>
      </trkpt>
      <trkpt lat="44.55093" lon="7.1389">
        <ele>2014.6</ele>
        <time>2022-07-18T11:44:09Z</time>
      </trkpt>
      <trkpt lat="44.55093" lon="7.13889">
        <ele>2014.8</ele>
        <time>2022-07-18T11:44:10Z</time>
      </trkpt>
      <trkpt lat="44.55092" lon="7.13887">
        <ele>2014.8</ele>
        <time>2022-07-18T11:44:11Z</time>
      </trkpt>
      <trkpt lat="44.55092" lon="7.13886">
        <ele>2015</ele>
        <time>2022-07-18T11:44:12Z</time>
      </trkpt>
      <trkpt lat="44.55091" lon="7.13885">
        <ele>2015</ele>
        <time>2022-07-18T11:44:13Z</time>
      </trkpt>
      <trkpt lat="44.5509" lon="7.13884">
        <ele>2015</ele>
        <time>2022-07-18T11:44:14Z</time>
      </trkpt>
      <trkpt lat="44.5509" lon="7.13882">
        <ele>2015.2</ele>
        <time>2022-07-18T11:44:15Z</time>
      </trkpt>
      <trkpt lat="44.55089" lon="7.13881">
        <ele>2015.2</ele>
        <time>2022-07-18T11:44:16Z</time>
      </trkpt>
      <trkpt lat="44.55089" lon="7.13879">
        <ele>2015.2</ele>
        <time>2022-07-18T11:44:17Z</time>
      </trkpt>
      <trkpt lat="44.55088" lon="7.13878">
        <ele>2015.6</ele>
        <time>2022-07-18T11:44:18Z</time>
      </trkpt>
      <trkpt lat="44.55088" lon="7.13876">
        <ele>2015.6</ele>
        <time>2022-07-18T11:44:19Z</time>
      </trkpt>
      <trkpt lat="44.55087" lon="7.13875">
        <ele>2015.8</ele>
        <time>2022-07-18T11:44:20Z</time>
      </trkpt>
      <trkpt lat="44.55087" lon="7.13874">
        <ele>2015.8</ele>
        <time>2022-07-18T11:44:21Z</time>
      </trkpt>
      <trkpt lat="44.55086" lon="7.13872">
        <ele>2016</ele>
        <time>2022-07-18T11:44:22Z</time>
      </trkpt>
      <trkpt lat="44.55085" lon="7.13871">
        <ele>2016</ele>
        <time>2022-07-18T11:44:23Z</time>
      </trkpt>
      <trkpt lat="44.55085" lon="7.13869">
        <ele>2016</ele>
        <time>2022-07-18T11:44:24Z</time>
      </trkpt>
      <trkpt lat="44.55084" lon="7.13868">
        <ele>2016.4</ele>
        <time>2022-07-18T11:44:25Z</time>
      </trkpt>
      <trkpt lat="44.55084" lon="7.13866">
        <ele>2016.4</ele>
        <time>2022-07-18T11:44:26Z</time>
      </trkpt>
      <trkpt lat="44.55084" lon="7.13865">
        <ele>2016.6</ele>
        <time>2022-07-18T11:44:27Z</time>
      </trkpt>
      <trkpt lat="44.55084" lon="7.13864">
        <ele>2016.6</ele>
        <time>2022-07-18T11:44:28Z</time>
      </trkpt>
      <trkpt lat="44.55083" lon="7.13862">
        <ele>2016.8</ele>
        <time>2022-07-18T11:44:29Z</time>
      </trkpt>
      <trkpt lat="44.55082" lon="7.1386">
        <ele>2016.8</ele>
        <time>2022-07-18T11:44:30Z</time>
      </trkpt>
      <trkpt lat="44.55082" lon="7.13859">
        <ele>2016.8</ele>
        <time>2022-07-18T11:44:31Z</time>
      </trkpt>
      <trkpt lat="44.55081" lon="7.13857">
        <ele>2017.2</ele>
        <time>2022-07-18T11:44:32Z</time>
      </trkpt>
      <trkpt lat="44.55081" lon="7.13856">
        <ele>2017.2</ele>
        <time>2022-07-18T11:44:33Z</time>
      </trkpt>
      <trkpt lat="44.55081" lon="7.13854">
        <ele>2017.4</ele>
        <time>2022-07-18T11:44:34Z</time>
      </trkpt>
      <trkpt lat="44.5508" lon="7.13853">
        <ele>2017.4</ele>
        <time>2022-07-18T11:44:35Z</time>
      </trkpt>
      <trkpt lat="44.5508" lon="7.13851">
        <ele>2017.4</ele>
        <time>2022-07-18T11:44:36Z</time>
      </trkpt>
      <trkpt lat="44.5508" lon="7.1385">
        <ele>2017.6</ele>
        <time>2022-07-18T11:44:37Z</time>
      </trkpt>
      <trkpt lat="44.55079" lon="7.13848">
        <ele>2017.6</ele>
        <time>2022-07-18T11:44:38Z</time>
      </trkpt>
      <trkpt lat="44.55079" lon="7.13846">
        <ele>2017.8</ele>
        <time>2022-07-18T11:44:39Z</time>
      </trkpt>
      <trkpt lat="44.55079" lon="7.13844">
        <ele>2017.8</ele>
        <time>2022-07-18T11:44:40Z</time>
      </trkpt>
      <trkpt lat="44.55078" lon="7.13842">
        <ele>2017.8</ele>
        <time>2022-07-18T11:44:41Z</time>
      </trkpt>
      <trkpt lat="44.55078" lon="7.13841">
        <ele>2018.2</ele>
        <time>2022-07-18T11:44:42Z</time>
      </trkpt>
      <trkpt lat="44.55077" lon="7.1384">
        <ele>2018.2</ele>
        <time>2022-07-18T11:44:43Z</time>
      </trkpt>
      <trkpt lat="44.55077" lon="7.13839">
        <ele>2018.2</ele>
        <time>2022-07-18T11:44:44Z</time>
      </trkpt>
      <trkpt lat="44.55075" lon="7.13829">
        <ele>2019</ele>
        <time>2022-07-18T11:44:51Z</time>
      </trkpt>
      <trkpt lat="44.55074" lon="7.13828">
        <ele>2019.2</ele>
        <time>2022-07-18T11:44:52Z</time>
      </trkpt>
      <trkpt lat="44.55074" lon="7.13826">
        <ele>2019.2</ele>
        <time>2022-07-18T11:44:53Z</time>
      </trkpt>
      <trkpt lat="44.55073" lon="7.13825">
        <ele>2019.2</ele>
        <time>2022-07-18T11:44:54Z</time>
      </trkpt>
      <trkpt lat="44.55073" lon="7.13824">
        <ele>2019.6</ele>
        <time>2022-07-18T11:44:55Z</time>
      </trkpt>
      <trkpt lat="44.55072" lon="7.13823">
        <ele>2019.8</ele>
        <time>2022-07-18T11:44:56Z</time>
      </trkpt>
      <trkpt lat="44.55072" lon="7.13822">
        <ele>2019.8</ele>
        <time>2022-07-18T11:44:57Z</time>
      </trkpt>
      <trkpt lat="44.55071" lon="7.13817">
        <ele>2020</ele>
        <time>2022-07-18T11:45:00Z</time>
      </trkpt>
      <trkpt lat="44.55071" lon="7.13816">
        <ele>2020</ele>
        <time>2022-07-18T11:45:01Z</time>
      </trkpt>
      <trkpt lat="44.55071" lon="7.13815">
        <ele>2020.2</ele>
        <time>2022-07-18T11:45:02Z</time>
      </trkpt>
      <trkpt lat="44.55071" lon="7.13813">
        <ele>2020.2</ele>
        <time>2022-07-18T11:45:03Z</time>
      </trkpt>
      <trkpt lat="44.5507" lon="7.13812">
        <ele>2020.2</ele>
        <time>2022-07-18T11:45:04Z</time>
      </trkpt>
      <trkpt lat="44.5507" lon="7.13811">
        <ele>2020.4</ele>
        <time>2022-07-18T11:45:05Z</time>
      </trkpt>
      <trkpt lat="44.55065" lon="7.13799">
        <ele>2021.2</ele>
        <time>2022-07-18T11:45:15Z</time>
      </trkpt>
      <trkpt lat="44.55064" lon="7.13797">
        <ele>2021.6</ele>
        <time>2022-07-18T11:45:16Z</time>
      </trkpt>
      <trkpt lat="44.55064" lon="7.13796">
        <ele>2021.6</ele>
        <time>2022-07-18T11:45:17Z</time>
      </trkpt>
      <trkpt lat="44.55063" lon="7.13795">
        <ele>2021.6</ele>
        <time>2022-07-18T11:45:18Z</time>
      </trkpt>
      <trkpt lat="44.55063" lon="7.13794">
        <ele>2021.8</ele>
        <time>2022-07-18T11:45:19Z</time>
      </trkpt>
      <trkpt lat="44.55062" lon="7.13793">
        <ele>2021.8</ele>
        <time>2022-07-18T11:45:20Z</time>
      </trkpt>
      <trkpt lat="44.55061" lon="7.13793">
        <ele>2021.8</ele>
        <time>2022-07-18T11:45:21Z</time>
      </trkpt>
      <trkpt lat="44.55061" lon="7.13792">
        <ele>2022.2</ele>
        <time>2022-07-18T11:45:22Z</time>
      </trkpt>
      <trkpt lat="44.5506" lon="7.13791">
        <ele>2022.2</ele>
        <time>2022-07-18T11:45:23Z</time>
      </trkpt>
      <trkpt lat="44.5506" lon="7.1379">
        <ele>2022.4</ele>
        <time>2022-07-18T11:45:24Z</time>
      </trkpt>
      <trkpt lat="44.55059" lon="7.13789">
        <ele>2022.4</ele>
        <time>2022-07-18T11:45:25Z</time>
      </trkpt>
      <trkpt lat="44.55058" lon="7.13788">
        <ele>2022.6</ele>
        <time>2022-07-18T11:45:26Z</time>
      </trkpt>
      <trkpt lat="44.55058" lon="7.13787">
        <ele>2022.6</ele>
        <time>2022-07-18T11:45:27Z</time>
      </trkpt>
      <trkpt lat="44.55057" lon="7.13787">
        <ele>2022.6</ele>
        <time>2022-07-18T11:45:28Z</time>
      </trkpt>
      <trkpt lat="44.55057" lon="7.13786">
        <ele>2022.8</ele>
        <time>2022-07-18T11:45:29Z</time>
      </trkpt>
      <trkpt lat="44.55056" lon="7.13785">
        <ele>2022.8</ele>
        <time>2022-07-18T11:45:30Z</time>
      </trkpt>
      <trkpt lat="44.55056" lon="7.13784">
        <ele>2023</ele>
        <time>2022-07-18T11:45:31Z</time>
      </trkpt>
      <trkpt lat="44.55055" lon="7.13783">
        <ele>2023</ele>
        <time>2022-07-18T11:45:32Z</time>
      </trkpt>
      <trkpt lat="44.55054" lon="7.13782">
        <ele>2023.2</ele>
        <time>2022-07-18T11:45:33Z</time>
      </trkpt>
      <trkpt lat="44.55054" lon="7.13781">
        <ele>2023.2</ele>
        <time>2022-07-18T11:45:34Z</time>
      </trkpt>
      <trkpt lat="44.55053" lon="7.13781">
        <ele>2023.6</ele>
        <time>2022-07-18T11:45:35Z</time>
      </trkpt>
      <trkpt lat="44.55053" lon="7.1378">
        <ele>2023.6</ele>
        <time>2022-07-18T11:45:36Z</time>
      </trkpt>
      <trkpt lat="44.55052" lon="7.13779">
        <ele>2023.8</ele>
        <time>2022-07-18T11:45:37Z</time>
      </trkpt>
      <trkpt lat="44.55051" lon="7.13778">
        <ele>2023.8</ele>
        <time>2022-07-18T11:45:38Z</time>
      </trkpt>
      <trkpt lat="44.55051" lon="7.13777">
        <ele>2023.8</ele>
        <time>2022-07-18T11:45:39Z</time>
      </trkpt>
      <trkpt lat="44.5505" lon="7.13776">
        <ele>2024.2</ele>
        <time>2022-07-18T11:45:40Z</time>
      </trkpt>
      <trkpt lat="44.5505" lon="7.13775">
        <ele>2024.2</ele>
        <time>2022-07-18T11:45:41Z</time>
      </trkpt>
      <trkpt lat="44.55049" lon="7.13775">
        <ele>2024.4</ele>
        <time>2022-07-18T11:45:42Z</time>
      </trkpt>
      <trkpt lat="44.55048" lon="7.13774">
        <ele>2024.4</ele>
        <time>2022-07-18T11:45:43Z</time>
      </trkpt>
      <trkpt lat="44.55048" lon="7.13773">
        <ele>2024.6</ele>
        <time>2022-07-18T11:45:44Z</time>
      </trkpt>
      <trkpt lat="44.55047" lon="7.13772">
        <ele>2024.6</ele>
        <time>2022-07-18T11:45:45Z</time>
      </trkpt>
      <trkpt lat="44.55047" lon="7.13771">
        <ele>2024.8</ele>
        <time>2022-07-18T11:45:46Z</time>
      </trkpt>
      <trkpt lat="44.55046" lon="7.1377">
        <ele>2024.8</ele>
        <time>2022-07-18T11:45:47Z</time>
      </trkpt>
      <trkpt lat="44.55046" lon="7.13769">
        <ele>2025.2</ele>
        <time>2022-07-18T11:45:48Z</time>
      </trkpt>
      <trkpt lat="44.55045" lon="7.13769">
        <ele>2025.2</ele>
        <time>2022-07-18T11:45:49Z</time>
      </trkpt>
      <trkpt lat="44.55044" lon="7.13768">
        <ele>2025.4</ele>
        <time>2022-07-18T11:45:50Z</time>
      </trkpt>
      <trkpt lat="44.55044" lon="7.13767">
        <ele>2025.4</ele>
        <time>2022-07-18T11:45:51Z</time>
      </trkpt>
      <trkpt lat="44.55043" lon="7.13766">
        <ele>2025.6</ele>
        <time>2022-07-18T11:45:52Z</time>
      </trkpt>
      <trkpt lat="44.55043" lon="7.13765">
        <ele>2025.6</ele>
        <time>2022-07-18T11:45:53Z</time>
      </trkpt>
      <trkpt lat="44.55042" lon="7.13764">
        <ele>2025.6</ele>
        <time>2022-07-18T11:45:54Z</time>
      </trkpt>
      <trkpt lat="44.55041" lon="7.13763">
        <ele>2026</ele>
        <time>2022-07-18T11:45:55Z</time>
      </trkpt>
      <trkpt lat="44.55041" lon="7.13763">
        <ele>2026</ele>
        <time>2022-07-18T11:45:56Z</time>
      </trkpt>
      <trkpt lat="44.5504" lon="7.13762">
        <ele>2026</ele>
        <time>2022-07-18T11:45:57Z</time>
      </trkpt>
      <trkpt lat="44.5504" lon="7.13761">
        <ele>2026.2</ele>
        <time>2022-07-18T11:45:58Z</time>
      </trkpt>
      <trkpt lat="44.55039" lon="7.1376">
        <ele>2026.2</ele>
        <time>2022-07-18T11:45:59Z</time>
      </trkpt>
      <trkpt lat="44.55039" lon="7.13759">
        <ele>2026.2</ele>
        <time>2022-07-18T11:46:00Z</time>
      </trkpt>
      <trkpt lat="44.55038" lon="7.13758">
        <ele>2026.4</ele>
        <time>2022-07-18T11:46:01Z</time>
      </trkpt>
      <trkpt lat="44.55037" lon="7.13757">
        <ele>2026.4</ele>
        <time>2022-07-18T11:46:02Z</time>
      </trkpt>
      <trkpt lat="44.55037" lon="7.13757">
        <ele>2026.8</ele>
        <time>2022-07-18T11:46:03Z</time>
      </trkpt>
      <trkpt lat="44.55036" lon="7.13756">
        <ele>2026.8</ele>
        <time>2022-07-18T11:46:04Z</time>
      </trkpt>
      <trkpt lat="44.55036" lon="7.13755">
        <ele>2027</ele>
        <time>2022-07-18T11:46:05Z</time>
      </trkpt>
      <trkpt lat="44.55035" lon="7.13754">
        <ele>2027</ele>
        <time>2022-07-18T11:46:06Z</time>
      </trkpt>
      <trkpt lat="44.55034" lon="7.13753">
        <ele>2027.2</ele>
        <time>2022-07-18T11:46:07Z</time>
      </trkpt>
      <trkpt lat="44.55034" lon="7.13752">
        <ele>2027.2</ele>
        <time>2022-07-18T11:46:08Z</time>
      </trkpt>
      <trkpt lat="44.55033" lon="7.13751">
        <ele>2027.2</ele>
        <time>2022-07-18T11:46:09Z</time>
      </trkpt>
      <trkpt lat="44.55033" lon="7.13751">
        <ele>2027.4</ele>
        <time>2022-07-18T11:46:10Z</time>
      </trkpt>
      <trkpt lat="44.55032" lon="7.1375">
        <ele>2027.4</ele>
        <time>2022-07-18T11:46:12Z</time>
      </trkpt>
      <trkpt lat="44.55031" lon="7.13749">
        <ele>2027.4</ele>
        <time>2022-07-18T11:46:13Z</time>
      </trkpt>
      <trkpt lat="44.55031" lon="7.13748">
        <ele>2027.4</ele>
        <time>2022-07-18T11:46:14Z</time>
      </trkpt>
      <trkpt lat="44.5503" lon="7.13747">
        <ele>2027.4</ele>
        <time>2022-07-18T11:46:15Z</time>
      </trkpt>
      <trkpt lat="44.5503" lon="7.13746">
        <ele>2027.4</ele>
        <time>2022-07-18T11:46:16Z</time>
      </trkpt>
      <trkpt lat="44.55029" lon="7.13745">
        <ele>2027.4</ele>
        <time>2022-07-18T11:46:17Z</time>
      </trkpt>
      <trkpt lat="44.55029" lon="7.13745">
        <ele>2027.4</ele>
        <time>2022-07-18T11:46:18Z</time>
      </trkpt>
      <trkpt lat="44.55028" lon="7.13744">
        <ele>2027.4</ele>
        <time>2022-07-18T11:46:19Z</time>
      </trkpt>
      <trkpt lat="44.55027" lon="7.13743">
        <ele>2027.4</ele>
        <time>2022-07-18T11:46:20Z</time>
      </trkpt>
      <trkpt lat="44.55027" lon="7.13742">
        <ele>2027.4</ele>
        <time>2022-07-18T11:46:21Z</time>
      </trkpt>
      <trkpt lat="44.55026" lon="7.13741">
        <ele>2027.4</ele>
        <time>2022-07-18T11:46:22Z</time>
      </trkpt>
      <trkpt lat="44.55026" lon="7.1374">
        <ele>2027.4</ele>
        <time>2022-07-18T11:46:23Z</time>
      </trkpt>
      <trkpt lat="44.55025" lon="7.13739">
        <ele>2027.4</ele>
        <time>2022-07-18T11:46:24Z</time>
      </trkpt>
      <trkpt lat="44.55024" lon="7.13739">
        <ele>2027.6</ele>
        <time>2022-07-18T11:46:25Z</time>
      </trkpt>
      <trkpt lat="44.55024" lon="7.13738">
        <ele>2027.6</ele>
        <time>2022-07-18T11:46:26Z</time>
      </trkpt>
      <trkpt lat="44.55022" lon="7.13738">
        <ele>2027.6</ele>
        <time>2022-07-18T11:46:27Z</time>
      </trkpt>
      <trkpt lat="44.55021" lon="7.13738">
        <ele>2028</ele>
        <time>2022-07-18T11:46:28Z</time>
      </trkpt>
      <trkpt lat="44.55019" lon="7.13738">
        <ele>2028</ele>
        <time>2022-07-18T11:46:29Z</time>
      </trkpt>
      <trkpt lat="44.55017" lon="7.13738">
        <ele>2028</ele>
        <time>2022-07-18T11:46:30Z</time>
      </trkpt>
      <trkpt lat="44.55015" lon="7.13738">
        <ele>2028.2</ele>
        <time>2022-07-18T11:46:31Z</time>
      </trkpt>
      <trkpt lat="44.55014" lon="7.13737">
        <ele>2028.2</ele>
        <time>2022-07-18T11:46:32Z</time>
      </trkpt>
      <trkpt lat="44.55012" lon="7.13737">
        <ele>2028.6</ele>
        <time>2022-07-18T11:46:33Z</time>
      </trkpt>
      <trkpt lat="44.5501" lon="7.13737">
        <ele>2028.6</ele>
        <time>2022-07-18T11:46:34Z</time>
      </trkpt>
      <trkpt lat="44.55009" lon="7.13737">
        <ele>2028.8</ele>
        <time>2022-07-18T11:46:35Z</time>
      </trkpt>
      <trkpt lat="44.55007" lon="7.13737">
        <ele>2028.8</ele>
        <time>2022-07-18T11:46:36Z</time>
      </trkpt>
      <trkpt lat="44.55005" lon="7.13737">
        <ele>2029.2</ele>
        <time>2022-07-18T11:46:37Z</time>
      </trkpt>
      <trkpt lat="44.55004" lon="7.13738">
        <ele>2029.2</ele>
        <time>2022-07-18T11:46:38Z</time>
      </trkpt>
      <trkpt lat="44.55002" lon="7.13738">
        <ele>2029.4</ele>
        <time>2022-07-18T11:46:39Z</time>
      </trkpt>
      <trkpt lat="44.55001" lon="7.13738">
        <ele>2029.4</ele>
        <time>2022-07-18T11:46:40Z</time>
      </trkpt>
      <trkpt lat="44.54999" lon="7.13738">
        <ele>2029.8</ele>
        <time>2022-07-18T11:46:41Z</time>
      </trkpt>
      <trkpt lat="44.54998" lon="7.13739">
        <ele>2029.8</ele>
        <time>2022-07-18T11:46:42Z</time>
      </trkpt>
      <trkpt lat="44.54996" lon="7.1374">
        <ele>2030</ele>
        <time>2022-07-18T11:46:43Z</time>
      </trkpt>
      <trkpt lat="44.54995" lon="7.13741">
        <ele>2030</ele>
        <time>2022-07-18T11:46:44Z</time>
      </trkpt>
      <trkpt lat="44.54993" lon="7.13741">
        <ele>2030.4</ele>
        <time>2022-07-18T11:46:45Z</time>
      </trkpt>
      <trkpt lat="44.54991" lon="7.1374">
        <ele>2030.4</ele>
        <time>2022-07-18T11:46:46Z</time>
      </trkpt>
      <trkpt lat="44.5499" lon="7.1374">
        <ele>2030.6</ele>
        <time>2022-07-18T11:46:47Z</time>
      </trkpt>
      <trkpt lat="44.54988" lon="7.1374">
        <ele>2030.6</ele>
        <time>2022-07-18T11:46:48Z</time>
      </trkpt>
      <trkpt lat="44.54986" lon="7.1374">
        <ele>2030.8</ele>
        <time>2022-07-18T11:46:49Z</time>
      </trkpt>
      <trkpt lat="44.54985" lon="7.1374">
        <ele>2030.8</ele>
        <time>2022-07-18T11:46:50Z</time>
      </trkpt>
      <trkpt lat="44.54983" lon="7.1374">
        <ele>2030.8</ele>
        <time>2022-07-18T11:46:51Z</time>
      </trkpt>
      <trkpt lat="44.54981" lon="7.1374">
        <ele>2031.2</ele>
        <time>2022-07-18T11:46:52Z</time>
      </trkpt>
      <trkpt lat="44.5498" lon="7.13741">
        <ele>2031.2</ele>
        <time>2022-07-18T11:46:53Z</time>
      </trkpt>
      <trkpt lat="44.54978" lon="7.13741">
        <ele>2031.2</ele>
        <time>2022-07-18T11:46:54Z</time>
      </trkpt>
      <trkpt lat="44.54977" lon="7.13741">
        <ele>2031.6</ele>
        <time>2022-07-18T11:46:55Z</time>
      </trkpt>
      <trkpt lat="44.54975" lon="7.13741">
        <ele>2031.6</ele>
        <time>2022-07-18T11:46:56Z</time>
      </trkpt>
      <trkpt lat="44.54974" lon="7.1374">
        <ele>2032</ele>
        <time>2022-07-18T11:46:57Z</time>
      </trkpt>
      <trkpt lat="44.54972" lon="7.1374">
        <ele>2032</ele>
        <time>2022-07-18T11:46:58Z</time>
      </trkpt>
      <trkpt lat="44.54971" lon="7.1374">
        <ele>2032.4</ele>
        <time>2022-07-18T11:46:59Z</time>
      </trkpt>
      <trkpt lat="44.54969" lon="7.1374">
        <ele>2032.4</ele>
        <time>2022-07-18T11:47:00Z</time>
      </trkpt>
      <trkpt lat="44.54968" lon="7.1374">
        <ele>2032.8</ele>
        <time>2022-07-18T11:47:01Z</time>
      </trkpt>
      <trkpt lat="44.54966" lon="7.13739">
        <ele>2032.8</ele>
        <time>2022-07-18T11:47:02Z</time>
      </trkpt>
      <trkpt lat="44.54965" lon="7.13739">
        <ele>2033</ele>
        <time>2022-07-18T11:47:03Z</time>
      </trkpt>
      <trkpt lat="44.54963" lon="7.13738">
        <ele>2033.2</ele>
        <time>2022-07-18T11:47:04Z</time>
      </trkpt>
      <trkpt lat="44.54962" lon="7.13736">
        <ele>2033.4</ele>
        <time>2022-07-18T11:47:05Z</time>
      </trkpt>
      <trkpt lat="44.54961" lon="7.13735">
        <ele>2033.4</ele>
        <time>2022-07-18T11:47:06Z</time>
      </trkpt>
      <trkpt lat="44.5496" lon="7.13733">
        <ele>2033.4</ele>
        <time>2022-07-18T11:47:07Z</time>
      </trkpt>
      <trkpt lat="44.54959" lon="7.13732">
        <ele>2033.8</ele>
        <time>2022-07-18T11:47:08Z</time>
      </trkpt>
      <trkpt lat="44.54958" lon="7.13731">
        <ele>2033.8</ele>
        <time>2022-07-18T11:47:09Z</time>
      </trkpt>
      <trkpt lat="44.54956" lon="7.13729">
        <ele>2034</ele>
        <time>2022-07-18T11:47:10Z</time>
      </trkpt>
      <trkpt lat="44.54955" lon="7.13728">
        <ele>2034</ele>
        <time>2022-07-18T11:47:11Z</time>
      </trkpt>
      <trkpt lat="44.54954" lon="7.13727">
        <ele>2034.4</ele>
        <time>2022-07-18T11:47:12Z</time>
      </trkpt>
      <trkpt lat="44.54953" lon="7.13726">
        <ele>2034.4</ele>
        <time>2022-07-18T11:47:13Z</time>
      </trkpt>
      <trkpt lat="44.54951" lon="7.13726">
        <ele>2034.6</ele>
        <time>2022-07-18T11:47:14Z</time>
      </trkpt>
      <trkpt lat="44.5495" lon="7.13725">
        <ele>2034.6</ele>
        <time>2022-07-18T11:47:15Z</time>
      </trkpt>
      <trkpt lat="44.54948" lon="7.13724">
        <ele>2034.8</ele>
        <time>2022-07-18T11:47:16Z</time>
      </trkpt>
      <trkpt lat="44.54947" lon="7.13722">
        <ele>2034.8</ele>
        <time>2022-07-18T11:47:17Z</time>
      </trkpt>
      <trkpt lat="44.54946" lon="7.13721">
        <ele>2035.4</ele>
        <time>2022-07-18T11:47:18Z</time>
      </trkpt>
      <trkpt lat="44.54944" lon="7.13719">
        <ele>2035.4</ele>
        <time>2022-07-18T11:47:19Z</time>
      </trkpt>
      <trkpt lat="44.54943" lon="7.13718">
        <ele>2035.6</ele>
        <time>2022-07-18T11:47:20Z</time>
      </trkpt>
      <trkpt lat="44.54942" lon="7.13716">
        <ele>2035.6</ele>
        <time>2022-07-18T11:47:21Z</time>
      </trkpt>
      <trkpt lat="44.54941" lon="7.13715">
        <ele>2036</ele>
        <time>2022-07-18T11:47:22Z</time>
      </trkpt>
      <trkpt lat="44.5494" lon="7.13713">
        <ele>2036</ele>
        <time>2022-07-18T11:47:23Z</time>
      </trkpt>
      <trkpt lat="44.54939" lon="7.13711">
        <ele>2036</ele>
        <time>2022-07-18T11:47:24Z</time>
      </trkpt>
      <trkpt lat="44.54938" lon="7.13709">
        <ele>2036.2</ele>
        <time>2022-07-18T11:47:25Z</time>
      </trkpt>
      <trkpt lat="44.54938" lon="7.13707">
        <ele>2036.2</ele>
        <time>2022-07-18T11:47:26Z</time>
      </trkpt>
      <trkpt lat="44.54937" lon="7.13705">
        <ele>2036.6</ele>
        <time>2022-07-18T11:47:27Z</time>
      </trkpt>
      <trkpt lat="44.54936" lon="7.13703">
        <ele>2036.6</ele>
        <time>2022-07-18T11:47:28Z</time>
      </trkpt>
      <trkpt lat="44.54936" lon="7.13701">
        <ele>2036.8</ele>
        <time>2022-07-18T11:47:29Z</time>
      </trkpt>
      <trkpt lat="44.54935" lon="7.13699">
        <ele>2036.8</ele>
        <time>2022-07-18T11:47:30Z</time>
      </trkpt>
      <trkpt lat="44.54935" lon="7.13696">
        <ele>2037</ele>
        <time>2022-07-18T11:47:31Z</time>
      </trkpt>
      <trkpt lat="44.54934" lon="7.13694">
        <ele>2037</ele>
        <time>2022-07-18T11:47:32Z</time>
      </trkpt>
      <trkpt lat="44.54934" lon="7.13692">
        <ele>2037.2</ele>
        <time>2022-07-18T11:47:33Z</time>
      </trkpt>
      <trkpt lat="44.54934" lon="7.1369">
        <ele>2037.2</ele>
        <time>2022-07-18T11:47:34Z</time>
      </trkpt>
      <trkpt lat="44.54933" lon="7.13687">
        <ele>2037.6</ele>
        <time>2022-07-18T11:47:35Z</time>
      </trkpt>
      <trkpt lat="44.54933" lon="7.13685">
        <ele>2037.6</ele>
        <time>2022-07-18T11:47:36Z</time>
      </trkpt>
      <trkpt lat="44.54932" lon="7.13683">
        <ele>2037.8</ele>
        <time>2022-07-18T11:47:37Z</time>
      </trkpt>
      <trkpt lat="44.54932" lon="7.1368">
        <ele>2037.8</ele>
        <time>2022-07-18T11:47:38Z</time>
      </trkpt>
      <trkpt lat="44.54931" lon="7.13678">
        <ele>2038.2</ele>
        <time>2022-07-18T11:47:39Z</time>
      </trkpt>
      <trkpt lat="44.54931" lon="7.13676">
        <ele>2038.2</ele>
        <time>2022-07-18T11:47:40Z</time>
      </trkpt>
      <trkpt lat="44.5493" lon="7.13674">
        <ele>2038.4</ele>
        <time>2022-07-18T11:47:41Z</time>
      </trkpt>
      <trkpt lat="44.5493" lon="7.13671">
        <ele>2038.6</ele>
        <time>2022-07-18T11:47:42Z</time>
      </trkpt>
      <trkpt lat="44.54929" lon="7.13669">
        <ele>2038.6</ele>
        <time>2022-07-18T11:47:43Z</time>
      </trkpt>
      <trkpt lat="44.54928" lon="7.13667">
        <ele>2039</ele>
        <time>2022-07-18T11:47:44Z</time>
      </trkpt>
      <trkpt lat="44.54927" lon="7.13665">
        <ele>2039</ele>
        <time>2022-07-18T11:47:45Z</time>
      </trkpt>
      <trkpt lat="44.54926" lon="7.13664">
        <ele>2039.4</ele>
        <time>2022-07-18T11:47:46Z</time>
      </trkpt>
      <trkpt lat="44.54925" lon="7.13662">
        <ele>2039.4</ele>
        <time>2022-07-18T11:47:47Z</time>
      </trkpt>
      <trkpt lat="44.54924" lon="7.1366">
        <ele>2039.6</ele>
        <time>2022-07-18T11:47:48Z</time>
      </trkpt>
      <trkpt lat="44.54923" lon="7.13658">
        <ele>2039.6</ele>
        <time>2022-07-18T11:47:49Z</time>
      </trkpt>
      <trkpt lat="44.54922" lon="7.13657">
        <ele>2040</ele>
        <time>2022-07-18T11:47:50Z</time>
      </trkpt>
      <trkpt lat="44.54921" lon="7.13656">
        <ele>2040</ele>
        <time>2022-07-18T11:47:51Z</time>
      </trkpt>
      <trkpt lat="44.54919" lon="7.13655">
        <ele>2040.2</ele>
        <time>2022-07-18T11:47:52Z</time>
      </trkpt>
      <trkpt lat="44.54918" lon="7.13654">
        <ele>2040.4</ele>
        <time>2022-07-18T11:47:53Z</time>
      </trkpt>
      <trkpt lat="44.54916" lon="7.13653">
        <ele>2040.4</ele>
        <time>2022-07-18T11:47:54Z</time>
      </trkpt>
      <trkpt lat="44.54915" lon="7.13652">
        <ele>2040.8</ele>
        <time>2022-07-18T11:47:55Z</time>
      </trkpt>
      <trkpt lat="44.54913" lon="7.13652">
        <ele>2040.8</ele>
        <time>2022-07-18T11:47:56Z</time>
      </trkpt>
      <trkpt lat="44.54912" lon="7.13652">
        <ele>2041</ele>
        <time>2022-07-18T11:47:57Z</time>
      </trkpt>
      <trkpt lat="44.5491" lon="7.13651">
        <ele>2041</ele>
        <time>2022-07-18T11:47:58Z</time>
      </trkpt>
      <trkpt lat="44.54909" lon="7.13651">
        <ele>2041.4</ele>
        <time>2022-07-18T11:47:59Z</time>
      </trkpt>
      <trkpt lat="44.54907" lon="7.13652">
        <ele>2041.4</ele>
        <time>2022-07-18T11:48:00Z</time>
      </trkpt>
      <trkpt lat="44.54906" lon="7.13651">
        <ele>2041.6</ele>
        <time>2022-07-18T11:48:01Z</time>
      </trkpt>
      <trkpt lat="44.54904" lon="7.13651">
        <ele>2041.6</ele>
        <time>2022-07-18T11:48:02Z</time>
      </trkpt>
      <trkpt lat="44.54902" lon="7.1365">
        <ele>2042</ele>
        <time>2022-07-18T11:48:03Z</time>
      </trkpt>
      <trkpt lat="44.54901" lon="7.13649">
        <ele>2042</ele>
        <time>2022-07-18T11:48:04Z</time>
      </trkpt>
      <trkpt lat="44.54899" lon="7.13649">
        <ele>2042.4</ele>
        <time>2022-07-18T11:48:05Z</time>
      </trkpt>
      <trkpt lat="44.54898" lon="7.13649">
        <ele>2042.4</ele>
        <time>2022-07-18T11:48:06Z</time>
      </trkpt>
      <trkpt lat="44.54896" lon="7.13649">
        <ele>2042.8</ele>
        <time>2022-07-18T11:48:07Z</time>
      </trkpt>
      <trkpt lat="44.54894" lon="7.13649">
        <ele>2042.8</ele>
        <time>2022-07-18T11:48:08Z</time>
      </trkpt>
      <trkpt lat="44.54893" lon="7.13649">
        <ele>2043.2</ele>
        <time>2022-07-18T11:48:09Z</time>
      </trkpt>
      <trkpt lat="44.54891" lon="7.13648">
        <ele>2043.2</ele>
        <time>2022-07-18T11:48:10Z</time>
      </trkpt>
      <trkpt lat="44.54889" lon="7.13648">
        <ele>2043.4</ele>
        <time>2022-07-18T11:48:11Z</time>
      </trkpt>
      <trkpt lat="44.54888" lon="7.13648">
        <ele>2043.4</ele>
        <time>2022-07-18T11:48:12Z</time>
      </trkpt>
      <trkpt lat="44.54886" lon="7.13648">
        <ele>2043.6</ele>
        <time>2022-07-18T11:48:13Z</time>
      </trkpt>
      <trkpt lat="44.54884" lon="7.13648">
        <ele>2043.6</ele>
        <time>2022-07-18T11:48:14Z</time>
      </trkpt>
      <trkpt lat="44.54883" lon="7.13647">
        <ele>2043.6</ele>
        <time>2022-07-18T11:48:15Z</time>
      </trkpt>
      <trkpt lat="44.54881" lon="7.13647">
        <ele>2044</ele>
        <time>2022-07-18T11:48:16Z</time>
      </trkpt>
      <trkpt lat="44.54879" lon="7.13647">
        <ele>2044</ele>
        <time>2022-07-18T11:48:17Z</time>
      </trkpt>
      <trkpt lat="44.54877" lon="7.13647">
        <ele>2044.2</ele>
        <time>2022-07-18T11:48:18Z</time>
      </trkpt>
      <trkpt lat="44.54876" lon="7.13647">
        <ele>2044.2</ele>
        <time>2022-07-18T11:48:19Z</time>
      </trkpt>
      <trkpt lat="44.54874" lon="7.13647">
        <ele>2044.6</ele>
        <time>2022-07-18T11:48:20Z</time>
      </trkpt>
      <trkpt lat="44.54873" lon="7.13646">
        <ele>2044.6</ele>
        <time>2022-07-18T11:48:21Z</time>
      </trkpt>
      <trkpt lat="44.54871" lon="7.13646">
        <ele>2045</ele>
        <time>2022-07-18T11:48:22Z</time>
      </trkpt>
      <trkpt lat="44.5487" lon="7.13646">
        <ele>2045</ele>
        <time>2022-07-18T11:48:23Z</time>
      </trkpt>
      <trkpt lat="44.54868" lon="7.13646">
        <ele>2045.4</ele>
        <time>2022-07-18T11:48:24Z</time>
      </trkpt>
      <trkpt lat="44.54866" lon="7.13646">
        <ele>2045.4</ele>
        <time>2022-07-18T11:48:25Z</time>
      </trkpt>
      <trkpt lat="44.54864" lon="7.13646">
        <ele>2045.4</ele>
        <time>2022-07-18T11:48:26Z</time>
      </trkpt>
      <trkpt lat="44.54863" lon="7.13646">
        <ele>2045.6</ele>
        <time>2022-07-18T11:48:27Z</time>
      </trkpt>
      <trkpt lat="44.54861" lon="7.13646">
        <ele>2045.6</ele>
        <time>2022-07-18T11:48:28Z</time>
      </trkpt>
      <trkpt lat="44.54859" lon="7.13645">
        <ele>2046</ele>
        <time>2022-07-18T11:48:29Z</time>
      </trkpt>
      <trkpt lat="44.54858" lon="7.13645">
        <ele>2046.2</ele>
        <time>2022-07-18T11:48:30Z</time>
      </trkpt>
      <trkpt lat="44.54856" lon="7.13644">
        <ele>2046.2</ele>
        <time>2022-07-18T11:48:31Z</time>
      </trkpt>
      <trkpt lat="44.54855" lon="7.13644">
        <ele>2046.4</ele>
        <time>2022-07-18T11:48:32Z</time>
      </trkpt>
      <trkpt lat="44.54853" lon="7.13643">
        <ele>2046.4</ele>
        <time>2022-07-18T11:48:33Z</time>
      </trkpt>
      <trkpt lat="44.54851" lon="7.13642">
        <ele>2046.8</ele>
        <time>2022-07-18T11:48:34Z</time>
      </trkpt>
      <trkpt lat="44.5485" lon="7.13641">
        <ele>2046.8</ele>
        <time>2022-07-18T11:48:35Z</time>
      </trkpt>
      <trkpt lat="44.54849" lon="7.1364">
        <ele>2047</ele>
        <time>2022-07-18T11:48:36Z</time>
      </trkpt>
      <trkpt lat="44.54847" lon="7.13639">
        <ele>2047</ele>
        <time>2022-07-18T11:48:37Z</time>
      </trkpt>
      <trkpt lat="44.54846" lon="7.13638">
        <ele>2047.2</ele>
        <time>2022-07-18T11:48:38Z</time>
      </trkpt>
      <trkpt lat="44.54844" lon="7.13637">
        <ele>2047.4</ele>
        <time>2022-07-18T11:48:39Z</time>
      </trkpt>
      <trkpt lat="44.54843" lon="7.13635">
        <ele>2047.4</ele>
        <time>2022-07-18T11:48:40Z</time>
      </trkpt>
      <trkpt lat="44.54841" lon="7.13634">
        <ele>2047.8</ele>
        <time>2022-07-18T11:48:41Z</time>
      </trkpt>
      <trkpt lat="44.5484" lon="7.13633">
        <ele>2047.8</ele>
        <time>2022-07-18T11:48:42Z</time>
      </trkpt>
      <trkpt lat="44.54839" lon="7.13631">
        <ele>2048.2</ele>
        <time>2022-07-18T11:48:43Z</time>
      </trkpt>
      <trkpt lat="44.54838" lon="7.1363">
        <ele>2048.2</ele>
        <time>2022-07-18T11:48:44Z</time>
      </trkpt>
      <trkpt lat="44.54836" lon="7.13628">
        <ele>2048.6</ele>
        <time>2022-07-18T11:48:45Z</time>
      </trkpt>
      <trkpt lat="44.54835" lon="7.13627">
        <ele>2048.6</ele>
        <time>2022-07-18T11:48:46Z</time>
      </trkpt>
      <trkpt lat="44.54834" lon="7.13625">
        <ele>2048.8</ele>
        <time>2022-07-18T11:48:47Z</time>
      </trkpt>
      <trkpt lat="44.54832" lon="7.13624">
        <ele>2048.8</ele>
        <time>2022-07-18T11:48:48Z</time>
      </trkpt>
      <trkpt lat="44.54831" lon="7.13622">
        <ele>2049.2</ele>
        <time>2022-07-18T11:48:49Z</time>
      </trkpt>
      <trkpt lat="44.54829" lon="7.13621">
        <ele>2049.2</ele>
        <time>2022-07-18T11:48:50Z</time>
      </trkpt>
      <trkpt lat="44.54828" lon="7.1362">
        <ele>2049.4</ele>
        <time>2022-07-18T11:48:51Z</time>
      </trkpt>
      <trkpt lat="44.54827" lon="7.13618">
        <ele>2049.4</ele>
        <time>2022-07-18T11:48:52Z</time>
      </trkpt>
      <trkpt lat="44.54825" lon="7.13617">
        <ele>2049.8</ele>
        <time>2022-07-18T11:48:53Z</time>
      </trkpt>
      <trkpt lat="44.54824" lon="7.13615">
        <ele>2049.8</ele>
        <time>2022-07-18T11:48:54Z</time>
      </trkpt>
      <trkpt lat="44.54823" lon="7.13613">
        <ele>2050</ele>
        <time>2022-07-18T11:48:55Z</time>
      </trkpt>
      <trkpt lat="44.54822" lon="7.13612">
        <ele>2050</ele>
        <time>2022-07-18T11:48:56Z</time>
      </trkpt>
      <trkpt lat="44.54821" lon="7.1361">
        <ele>2050.4</ele>
        <time>2022-07-18T11:48:57Z</time>
      </trkpt>
      <trkpt lat="44.5482" lon="7.13608">
        <ele>2050.4</ele>
        <time>2022-07-18T11:48:58Z</time>
      </trkpt>
      <trkpt lat="44.54818" lon="7.13607">
        <ele>2050.6</ele>
        <time>2022-07-18T11:48:59Z</time>
      </trkpt>
      <trkpt lat="44.54817" lon="7.13605">
        <ele>2050.6</ele>
        <time>2022-07-18T11:49:00Z</time>
      </trkpt>
      <trkpt lat="44.54816" lon="7.13604">
        <ele>2051</ele>
        <time>2022-07-18T11:49:01Z</time>
      </trkpt>
      <trkpt lat="44.54814" lon="7.13603">
        <ele>2051</ele>
        <time>2022-07-18T11:49:02Z</time>
      </trkpt>
      <trkpt lat="44.54813" lon="7.13602">
        <ele>2051.2</ele>
        <time>2022-07-18T11:49:03Z</time>
      </trkpt>
      <trkpt lat="44.54812" lon="7.13601">
        <ele>2051.2</ele>
        <time>2022-07-18T11:49:04Z</time>
      </trkpt>
      <trkpt lat="44.5481" lon="7.13599">
        <ele>2051.6</ele>
        <time>2022-07-18T11:49:05Z</time>
      </trkpt>
      <trkpt lat="44.54809" lon="7.13597">
        <ele>2051.6</ele>
        <time>2022-07-18T11:49:06Z</time>
      </trkpt>
      <trkpt lat="44.54808" lon="7.13596">
        <ele>2052</ele>
        <time>2022-07-18T11:49:07Z</time>
      </trkpt>
      <trkpt lat="44.54807" lon="7.13595">
        <ele>2052</ele>
        <time>2022-07-18T11:49:08Z</time>
      </trkpt>
      <trkpt lat="44.54806" lon="7.13594">
        <ele>2052.2</ele>
        <time>2022-07-18T11:49:09Z</time>
      </trkpt>
      <trkpt lat="44.54805" lon="7.13593">
        <ele>2052.2</ele>
        <time>2022-07-18T11:49:10Z</time>
      </trkpt>
      <trkpt lat="44.54804" lon="7.13591">
        <ele>2052.4</ele>
        <time>2022-07-18T11:49:11Z</time>
      </trkpt>
      <trkpt lat="44.54803" lon="7.13589">
        <ele>2052.4</ele>
        <time>2022-07-18T11:49:12Z</time>
      </trkpt>
      <trkpt lat="44.54802" lon="7.13588">
        <ele>2052.8</ele>
        <time>2022-07-18T11:49:13Z</time>
      </trkpt>
      <trkpt lat="44.54801" lon="7.13587">
        <ele>2052.8</ele>
        <time>2022-07-18T11:49:14Z</time>
      </trkpt>
      <trkpt lat="44.54801" lon="7.13586">
        <ele>2053</ele>
        <time>2022-07-18T11:49:15Z</time>
      </trkpt>
      <trkpt lat="44.548" lon="7.13584">
        <ele>2053</ele>
        <time>2022-07-18T11:49:16Z</time>
      </trkpt>
      <trkpt lat="44.54799" lon="7.13583">
        <ele>2053.4</ele>
        <time>2022-07-18T11:49:17Z</time>
      </trkpt>
      <trkpt lat="44.54798" lon="7.13582">
        <ele>2053.4</ele>
        <time>2022-07-18T11:49:18Z</time>
      </trkpt>
      <trkpt lat="44.54797" lon="7.13581">
        <ele>2053.6</ele>
        <time>2022-07-18T11:49:19Z</time>
      </trkpt>
      <trkpt lat="44.54795" lon="7.13579">
        <ele>2053.6</ele>
        <time>2022-07-18T11:49:20Z</time>
      </trkpt>
      <trkpt lat="44.54794" lon="7.13577">
        <ele>2053.8</ele>
        <time>2022-07-18T11:49:21Z</time>
      </trkpt>
      <trkpt lat="44.54793" lon="7.13575">
        <ele>2053.8</ele>
        <time>2022-07-18T11:49:22Z</time>
      </trkpt>
      <trkpt lat="44.54792" lon="7.13573">
        <ele>2054.2</ele>
        <time>2022-07-18T11:49:23Z</time>
      </trkpt>
      <trkpt lat="44.54791" lon="7.13571">
        <ele>2054.2</ele>
        <time>2022-07-18T11:49:24Z</time>
      </trkpt>
      <trkpt lat="44.54791" lon="7.1357">
        <ele>2054.6</ele>
        <time>2022-07-18T11:49:25Z</time>
      </trkpt>
      <trkpt lat="44.5479" lon="7.13568">
        <ele>2054.6</ele>
        <time>2022-07-18T11:49:26Z</time>
      </trkpt>
      <trkpt lat="44.54788" lon="7.13566">
        <ele>2054.8</ele>
        <time>2022-07-18T11:49:27Z</time>
      </trkpt>
      <trkpt lat="44.54787" lon="7.13564">
        <ele>2054.8</ele>
        <time>2022-07-18T11:49:28Z</time>
      </trkpt>
      <trkpt lat="44.54787" lon="7.13563">
        <ele>2055</ele>
        <time>2022-07-18T11:49:29Z</time>
      </trkpt>
      <trkpt lat="44.54786" lon="7.13561">
        <ele>2055.2</ele>
        <time>2022-07-18T11:49:30Z</time>
      </trkpt>
      <trkpt lat="44.54785" lon="7.13559">
        <ele>2055.2</ele>
        <time>2022-07-18T11:49:31Z</time>
      </trkpt>
      <trkpt lat="44.54784" lon="7.13557">
        <ele>2055.6</ele>
        <time>2022-07-18T11:49:32Z</time>
      </trkpt>
      <trkpt lat="44.54784" lon="7.13555">
        <ele>2055.8</ele>
        <time>2022-07-18T11:49:33Z</time>
      </trkpt>
      <trkpt lat="44.54783" lon="7.13553">
        <ele>2056.2</ele>
        <time>2022-07-18T11:49:34Z</time>
      </trkpt>
      <trkpt lat="44.54783" lon="7.13551">
        <ele>2056.2</ele>
        <time>2022-07-18T11:49:35Z</time>
      </trkpt>
      <trkpt lat="44.54782" lon="7.13549">
        <ele>2056.4</ele>
        <time>2022-07-18T11:49:36Z</time>
      </trkpt>
      <trkpt lat="44.54781" lon="7.13547">
        <ele>2056.4</ele>
        <time>2022-07-18T11:49:37Z</time>
      </trkpt>
      <trkpt lat="44.54781" lon="7.13545">
        <ele>2056.8</ele>
        <time>2022-07-18T11:49:38Z</time>
      </trkpt>
      <trkpt lat="44.54781" lon="7.13543">
        <ele>2057</ele>
        <time>2022-07-18T11:49:39Z</time>
      </trkpt>
      <trkpt lat="44.5478" lon="7.1354">
        <ele>2057</ele>
        <time>2022-07-18T11:49:40Z</time>
      </trkpt>
      <trkpt lat="44.5478" lon="7.13539">
        <ele>2057.2</ele>
        <time>2022-07-18T11:49:41Z</time>
      </trkpt>
      <trkpt lat="44.5478" lon="7.13537">
        <ele>2057.2</ele>
        <time>2022-07-18T11:49:42Z</time>
      </trkpt>
      <trkpt lat="44.54779" lon="7.13535">
        <ele>2057.6</ele>
        <time>2022-07-18T11:49:43Z</time>
      </trkpt>
      <trkpt lat="44.54778" lon="7.13532">
        <ele>2057.8</ele>
        <time>2022-07-18T11:49:44Z</time>
      </trkpt>
      <trkpt lat="44.54778" lon="7.1353">
        <ele>2057.8</ele>
        <time>2022-07-18T11:49:45Z</time>
      </trkpt>
      <trkpt lat="44.54777" lon="7.13528">
        <ele>2058</ele>
        <time>2022-07-18T11:49:46Z</time>
      </trkpt>
      <trkpt lat="44.54777" lon="7.13526">
        <ele>2058</ele>
        <time>2022-07-18T11:49:47Z</time>
      </trkpt>
      <trkpt lat="44.54777" lon="7.13524">
        <ele>2058.4</ele>
        <time>2022-07-18T11:49:48Z</time>
      </trkpt>
      <trkpt lat="44.54776" lon="7.13522">
        <ele>2058.4</ele>
        <time>2022-07-18T11:49:49Z</time>
      </trkpt>
      <trkpt lat="44.54776" lon="7.13519">
        <ele>2058.6</ele>
        <time>2022-07-18T11:49:50Z</time>
      </trkpt>
      <trkpt lat="44.54776" lon="7.13517">
        <ele>2058.6</ele>
        <time>2022-07-18T11:49:51Z</time>
      </trkpt>
      <trkpt lat="44.54775" lon="7.13515">
        <ele>2059</ele>
        <time>2022-07-18T11:49:52Z</time>
      </trkpt>
      <trkpt lat="44.54775" lon="7.13513">
        <ele>2059</ele>
        <time>2022-07-18T11:49:53Z</time>
      </trkpt>
      <trkpt lat="44.54774" lon="7.1351">
        <ele>2059.4</ele>
        <time>2022-07-18T11:49:54Z</time>
      </trkpt>
      <trkpt lat="44.54774" lon="7.13508">
        <ele>2059.4</ele>
        <time>2022-07-18T11:49:55Z</time>
      </trkpt>
      <trkpt lat="44.54774" lon="7.13506">
        <ele>2059.6</ele>
        <time>2022-07-18T11:49:56Z</time>
      </trkpt>
      <trkpt lat="44.54774" lon="7.13504">
        <ele>2059.6</ele>
        <time>2022-07-18T11:49:57Z</time>
      </trkpt>
      <trkpt lat="44.54773" lon="7.13501">
        <ele>2059.8</ele>
        <time>2022-07-18T11:49:58Z</time>
      </trkpt>
      <trkpt lat="44.54773" lon="7.13499">
        <ele>2059.8</ele>
        <time>2022-07-18T11:49:59Z</time>
      </trkpt>
      <trkpt lat="44.54773" lon="7.13497">
        <ele>2060.2</ele>
        <time>2022-07-18T11:50:00Z</time>
      </trkpt>
      <trkpt lat="44.54772" lon="7.13495">
        <ele>2060.2</ele>
        <time>2022-07-18T11:50:01Z</time>
      </trkpt>
      <trkpt lat="44.54772" lon="7.13492">
        <ele>2060.4</ele>
        <time>2022-07-18T11:50:02Z</time>
      </trkpt>
      <trkpt lat="44.54772" lon="7.1349">
        <ele>2060.4</ele>
        <time>2022-07-18T11:50:03Z</time>
      </trkpt>
      <trkpt lat="44.54772" lon="7.13487">
        <ele>2060.6</ele>
        <time>2022-07-18T11:50:04Z</time>
      </trkpt>
      <trkpt lat="44.54772" lon="7.13485">
        <ele>2060.6</ele>
        <time>2022-07-18T11:50:05Z</time>
      </trkpt>
      <trkpt lat="44.54772" lon="7.13483">
        <ele>2060.8</ele>
        <time>2022-07-18T11:50:06Z</time>
      </trkpt>
      <trkpt lat="44.54772" lon="7.1348">
        <ele>2060.8</ele>
        <time>2022-07-18T11:50:07Z</time>
      </trkpt>
      <trkpt lat="44.54772" lon="7.13478">
        <ele>2061.2</ele>
        <time>2022-07-18T11:50:08Z</time>
      </trkpt>
      <trkpt lat="44.54772" lon="7.13475">
        <ele>2061.2</ele>
        <time>2022-07-18T11:50:09Z</time>
      </trkpt>
      <trkpt lat="44.54772" lon="7.13473">
        <ele>2061.4</ele>
        <time>2022-07-18T11:50:10Z</time>
      </trkpt>
      <trkpt lat="44.54772" lon="7.13471">
        <ele>2061.4</ele>
        <time>2022-07-18T11:50:11Z</time>
      </trkpt>
      <trkpt lat="44.54772" lon="7.13469">
        <ele>2061.4</ele>
        <time>2022-07-18T11:50:12Z</time>
      </trkpt>
      <trkpt lat="44.54772" lon="7.13467">
        <ele>2061.8</ele>
        <time>2022-07-18T11:50:13Z</time>
      </trkpt>
      <trkpt lat="44.54772" lon="7.13464">
        <ele>2061.8</ele>
        <time>2022-07-18T11:50:14Z</time>
      </trkpt>
      <trkpt lat="44.54772" lon="7.13462">
        <ele>2061.8</ele>
        <time>2022-07-18T11:50:15Z</time>
      </trkpt>
      <trkpt lat="44.54772" lon="7.1346">
        <ele>2062.2</ele>
        <time>2022-07-18T11:50:16Z</time>
      </trkpt>
      <trkpt lat="44.54772" lon="7.13458">
        <ele>2062.2</ele>
        <time>2022-07-18T11:50:17Z</time>
      </trkpt>
      <trkpt lat="44.54772" lon="7.13456">
        <ele>2062.4</ele>
        <time>2022-07-18T11:50:18Z</time>
      </trkpt>
      <trkpt lat="44.54772" lon="7.13454">
        <ele>2062.4</ele>
        <time>2022-07-18T11:50:19Z</time>
      </trkpt>
      <trkpt lat="44.54772" lon="7.13452">
        <ele>2062.6</ele>
        <time>2022-07-18T11:50:20Z</time>
      </trkpt>
      <trkpt lat="44.54773" lon="7.1345">
        <ele>2062.6</ele>
        <time>2022-07-18T11:50:21Z</time>
      </trkpt>
      <trkpt lat="44.54773" lon="7.13448">
        <ele>2063</ele>
        <time>2022-07-18T11:50:22Z</time>
      </trkpt>
      <trkpt lat="44.54773" lon="7.13446">
        <ele>2063</ele>
        <time>2022-07-18T11:50:23Z</time>
      </trkpt>
      <trkpt lat="44.54773" lon="7.13444">
        <ele>2063</ele>
        <time>2022-07-18T11:50:24Z</time>
      </trkpt>
      <trkpt lat="44.54773" lon="7.13442">
        <ele>2063.2</ele>
        <time>2022-07-18T11:50:25Z</time>
      </trkpt>
      <trkpt lat="44.54774" lon="7.1344">
        <ele>2063.2</ele>
        <time>2022-07-18T11:50:26Z</time>
      </trkpt>
      <trkpt lat="44.54774" lon="7.13438">
        <ele>2063.6</ele>
        <time>2022-07-18T11:50:27Z</time>
      </trkpt>
      <trkpt lat="44.54774" lon="7.13436">
        <ele>2063.6</ele>
        <time>2022-07-18T11:50:28Z</time>
      </trkpt>
      <trkpt lat="44.54774" lon="7.13433">
        <ele>2063.8</ele>
        <time>2022-07-18T11:50:29Z</time>
      </trkpt>
      <trkpt lat="44.54773" lon="7.13432">
        <ele>2063.8</ele>
        <time>2022-07-18T11:50:30Z</time>
      </trkpt>
      <trkpt lat="44.54773" lon="7.1343">
        <ele>2064.2</ele>
        <time>2022-07-18T11:50:31Z</time>
      </trkpt>
      <trkpt lat="44.54774" lon="7.13428">
        <ele>2064.2</ele>
        <time>2022-07-18T11:50:32Z</time>
      </trkpt>
      <trkpt lat="44.54774" lon="7.13426">
        <ele>2064.4</ele>
        <time>2022-07-18T11:50:33Z</time>
      </trkpt>
      <trkpt lat="44.54774" lon="7.13424">
        <ele>2064.4</ele>
        <time>2022-07-18T11:50:34Z</time>
      </trkpt>
      <trkpt lat="44.54774" lon="7.13422">
        <ele>2064.8</ele>
        <time>2022-07-18T11:50:35Z</time>
      </trkpt>
      <trkpt lat="44.54774" lon="7.13419">
        <ele>2065</ele>
        <time>2022-07-18T11:50:36Z</time>
      </trkpt>
      <trkpt lat="44.54774" lon="7.13417">
        <ele>2065.2</ele>
        <time>2022-07-18T11:50:37Z</time>
      </trkpt>
      <trkpt lat="44.54774" lon="7.13415">
        <ele>2065.4</ele>
        <time>2022-07-18T11:50:38Z</time>
      </trkpt>
      <trkpt lat="44.54775" lon="7.13413">
        <ele>2065.4</ele>
        <time>2022-07-18T11:50:39Z</time>
      </trkpt>
      <trkpt lat="44.54775" lon="7.13411">
        <ele>2065.6</ele>
        <time>2022-07-18T11:50:40Z</time>
      </trkpt>
      <trkpt lat="44.54775" lon="7.13409">
        <ele>2065.6</ele>
        <time>2022-07-18T11:50:41Z</time>
      </trkpt>
      <trkpt lat="44.54775" lon="7.13407">
        <ele>2066</ele>
        <time>2022-07-18T11:50:42Z</time>
      </trkpt>
      <trkpt lat="44.54775" lon="7.13405">
        <ele>2066</ele>
        <time>2022-07-18T11:50:43Z</time>
      </trkpt>
      <trkpt lat="44.54775" lon="7.13402">
        <ele>2066.2</ele>
        <time>2022-07-18T11:50:44Z</time>
      </trkpt>
      <trkpt lat="44.54775" lon="7.134">
        <ele>2066.2</ele>
        <time>2022-07-18T11:50:45Z</time>
      </trkpt>
      <trkpt lat="44.54775" lon="7.13397">
        <ele>2066.6</ele>
        <time>2022-07-18T11:50:46Z</time>
      </trkpt>
      <trkpt lat="44.54775" lon="7.13395">
        <ele>2066.6</ele>
        <time>2022-07-18T11:50:47Z</time>
      </trkpt>
      <trkpt lat="44.54775" lon="7.13393">
        <ele>2066.8</ele>
        <time>2022-07-18T11:50:48Z</time>
      </trkpt>
      <trkpt lat="44.54775" lon="7.1339">
        <ele>2066.8</ele>
        <time>2022-07-18T11:50:49Z</time>
      </trkpt>
      <trkpt lat="44.54775" lon="7.13388">
        <ele>2067</ele>
        <time>2022-07-18T11:50:50Z</time>
      </trkpt>
      <trkpt lat="44.54775" lon="7.13386">
        <ele>2067.2</ele>
        <time>2022-07-18T11:50:51Z</time>
      </trkpt>
      <trkpt lat="44.54775" lon="7.13383">
        <ele>2067.2</ele>
        <time>2022-07-18T11:50:52Z</time>
      </trkpt>
      <trkpt lat="44.54775" lon="7.1338">
        <ele>2067.6</ele>
        <time>2022-07-18T11:50:53Z</time>
      </trkpt>
      <trkpt lat="44.54775" lon="7.13377">
        <ele>2067.6</ele>
        <time>2022-07-18T11:50:54Z</time>
      </trkpt>
      <trkpt lat="44.54775" lon="7.13375">
        <ele>2067.8</ele>
        <time>2022-07-18T11:50:55Z</time>
      </trkpt>
      <trkpt lat="44.54775" lon="7.13372">
        <ele>2067.8</ele>
        <time>2022-07-18T11:50:56Z</time>
      </trkpt>
      <trkpt lat="44.54775" lon="7.1337">
        <ele>2068.2</ele>
        <time>2022-07-18T11:50:57Z</time>
      </trkpt>
      <trkpt lat="44.54775" lon="7.13368">
        <ele>2068.4</ele>
        <time>2022-07-18T11:50:58Z</time>
      </trkpt>
      <trkpt lat="44.54775" lon="7.13366">
        <ele>2068.4</ele>
        <time>2022-07-18T11:50:59Z</time>
      </trkpt>
      <trkpt lat="44.54775" lon="7.13364">
        <ele>2068.8</ele>
        <time>2022-07-18T11:51:00Z</time>
      </trkpt>
      <trkpt lat="44.54775" lon="7.13362">
        <ele>2068.8</ele>
        <time>2022-07-18T11:51:01Z</time>
      </trkpt>
      <trkpt lat="44.54776" lon="7.1336">
        <ele>2069</ele>
        <time>2022-07-18T11:51:02Z</time>
      </trkpt>
      <trkpt lat="44.54776" lon="7.13358">
        <ele>2069</ele>
        <time>2022-07-18T11:51:03Z</time>
      </trkpt>
      <trkpt lat="44.54776" lon="7.13356">
        <ele>2069</ele>
        <time>2022-07-18T11:51:04Z</time>
      </trkpt>
      <trkpt lat="44.54776" lon="7.13354">
        <ele>2069.4</ele>
        <time>2022-07-18T11:51:05Z</time>
      </trkpt>
      <trkpt lat="44.54777" lon="7.13352">
        <ele>2069.4</ele>
        <time>2022-07-18T11:51:06Z</time>
      </trkpt>
      <trkpt lat="44.54777" lon="7.1335">
        <ele>2069.6</ele>
        <time>2022-07-18T11:51:07Z</time>
      </trkpt>
      <trkpt lat="44.54777" lon="7.13347">
        <ele>2069.6</ele>
        <time>2022-07-18T11:51:08Z</time>
      </trkpt>
      <trkpt lat="44.54777" lon="7.13345">
        <ele>2069.8</ele>
        <time>2022-07-18T11:51:09Z</time>
      </trkpt>
      <trkpt lat="44.54777" lon="7.13342">
        <ele>2069.8</ele>
        <time>2022-07-18T11:51:10Z</time>
      </trkpt>
      <trkpt lat="44.54777" lon="7.13339">
        <ele>2070.2</ele>
        <time>2022-07-18T11:51:11Z</time>
      </trkpt>
      <trkpt lat="44.54777" lon="7.13337">
        <ele>2070.2</ele>
        <time>2022-07-18T11:51:12Z</time>
      </trkpt>
      <trkpt lat="44.54778" lon="7.13334">
        <ele>2070.4</ele>
        <time>2022-07-18T11:51:13Z</time>
      </trkpt>
      <trkpt lat="44.54778" lon="7.13332">
        <ele>2070.4</ele>
        <time>2022-07-18T11:51:14Z</time>
      </trkpt>
      <trkpt lat="44.54778" lon="7.13329">
        <ele>2071</ele>
        <time>2022-07-18T11:51:15Z</time>
      </trkpt>
      <trkpt lat="44.54778" lon="7.13327">
        <ele>2071</ele>
        <time>2022-07-18T11:51:16Z</time>
      </trkpt>
      <trkpt lat="44.54778" lon="7.13325">
        <ele>2071.2</ele>
        <time>2022-07-18T11:51:17Z</time>
      </trkpt>
      <trkpt lat="44.54779" lon="7.13322">
        <ele>2071.4</ele>
        <time>2022-07-18T11:51:18Z</time>
      </trkpt>
      <trkpt lat="44.54779" lon="7.1332">
        <ele>2071.4</ele>
        <time>2022-07-18T11:51:19Z</time>
      </trkpt>
      <trkpt lat="44.5478" lon="7.13317">
        <ele>2071.8</ele>
        <time>2022-07-18T11:51:20Z</time>
      </trkpt>
      <trkpt lat="44.5478" lon="7.13315">
        <ele>2071.8</ele>
        <time>2022-07-18T11:51:21Z</time>
      </trkpt>
      <trkpt lat="44.5478" lon="7.13312">
        <ele>2072</ele>
        <time>2022-07-18T11:51:22Z</time>
      </trkpt>
      <trkpt lat="44.54781" lon="7.1331">
        <ele>2072.2</ele>
        <time>2022-07-18T11:51:23Z</time>
      </trkpt>
      <trkpt lat="44.54781" lon="7.13308">
        <ele>2072.2</ele>
        <time>2022-07-18T11:51:24Z</time>
      </trkpt>
      <trkpt lat="44.54782" lon="7.13305">
        <ele>2072.6</ele>
        <time>2022-07-18T11:51:25Z</time>
      </trkpt>
      <trkpt lat="44.54782" lon="7.13303">
        <ele>2072.6</ele>
        <time>2022-07-18T11:51:26Z</time>
      </trkpt>
      <trkpt lat="44.54782" lon="7.13301">
        <ele>2073</ele>
        <time>2022-07-18T11:51:27Z</time>
      </trkpt>
      <trkpt lat="44.54783" lon="7.13299">
        <ele>2073</ele>
        <time>2022-07-18T11:51:28Z</time>
      </trkpt>
      <trkpt lat="44.54783" lon="7.13297">
        <ele>2073.2</ele>
        <time>2022-07-18T11:51:29Z</time>
      </trkpt>
      <trkpt lat="44.54784" lon="7.13295">
        <ele>2073.2</ele>
        <time>2022-07-18T11:51:30Z</time>
      </trkpt>
      <trkpt lat="44.54784" lon="7.13292">
        <ele>2073.6</ele>
        <time>2022-07-18T11:51:31Z</time>
      </trkpt>
      <trkpt lat="44.54784" lon="7.1329">
        <ele>2073.6</ele>
        <time>2022-07-18T11:51:32Z</time>
      </trkpt>
      <trkpt lat="44.54785" lon="7.13288">
        <ele>2073.8</ele>
        <time>2022-07-18T11:51:33Z</time>
      </trkpt>
      <trkpt lat="44.54785" lon="7.13285">
        <ele>2073.8</ele>
        <time>2022-07-18T11:51:34Z</time>
      </trkpt>
      <trkpt lat="44.54786" lon="7.13283">
        <ele>2074.2</ele>
        <time>2022-07-18T11:51:35Z</time>
      </trkpt>
      <trkpt lat="44.54786" lon="7.13281">
        <ele>2074.2</ele>
        <time>2022-07-18T11:51:36Z</time>
      </trkpt>
      <trkpt lat="44.54786" lon="7.13279">
        <ele>2074.2</ele>
        <time>2022-07-18T11:51:37Z</time>
      </trkpt>
      <trkpt lat="44.54787" lon="7.13277">
        <ele>2074.6</ele>
        <time>2022-07-18T11:51:38Z</time>
      </trkpt>
      <trkpt lat="44.54787" lon="7.13275">
        <ele>2074.6</ele>
        <time>2022-07-18T11:51:39Z</time>
      </trkpt>
      <trkpt lat="44.54787" lon="7.13273">
        <ele>2074.8</ele>
        <time>2022-07-18T11:51:40Z</time>
      </trkpt>
      <trkpt lat="44.54787" lon="7.13271">
        <ele>2074.8</ele>
        <time>2022-07-18T11:51:41Z</time>
      </trkpt>
      <trkpt lat="44.54786" lon="7.13268">
        <ele>2075.2</ele>
        <time>2022-07-18T11:51:42Z</time>
      </trkpt>
      <trkpt lat="44.54786" lon="7.13266">
        <ele>2075.2</ele>
        <time>2022-07-18T11:51:43Z</time>
      </trkpt>
      <trkpt lat="44.54785" lon="7.13263">
        <ele>2075.2</ele>
        <time>2022-07-18T11:51:44Z</time>
      </trkpt>
      <trkpt lat="44.54784" lon="7.13261">
        <ele>2075.6</ele>
        <time>2022-07-18T11:51:45Z</time>
      </trkpt>
      <trkpt lat="44.54784" lon="7.13259">
        <ele>2075.6</ele>
        <time>2022-07-18T11:51:46Z</time>
      </trkpt>
      <trkpt lat="44.54783" lon="7.13256">
        <ele>2075.8</ele>
        <time>2022-07-18T11:51:47Z</time>
      </trkpt>
      <trkpt lat="44.54781" lon="7.13254">
        <ele>2075.8</ele>
        <time>2022-07-18T11:51:48Z</time>
      </trkpt>
      <trkpt lat="44.5478" lon="7.13252">
        <ele>2076</ele>
        <time>2022-07-18T11:51:49Z</time>
      </trkpt>
      <trkpt lat="44.54779" lon="7.1325">
        <ele>2076</ele>
        <time>2022-07-18T11:51:50Z</time>
      </trkpt>
      <trkpt lat="44.54778" lon="7.13248">
        <ele>2076.4</ele>
        <time>2022-07-18T11:51:51Z</time>
      </trkpt>
      <trkpt lat="44.54778" lon="7.13246">
        <ele>2076.4</ele>
        <time>2022-07-18T11:51:52Z</time>
      </trkpt>
      <trkpt lat="44.54777" lon="7.13244">
        <ele>2076.6</ele>
        <time>2022-07-18T11:51:53Z</time>
      </trkpt>
      <trkpt lat="44.54776" lon="7.13241">
        <ele>2076.6</ele>
        <time>2022-07-18T11:51:54Z</time>
      </trkpt>
      <trkpt lat="44.54776" lon="7.13238">
        <ele>2076.8</ele>
        <time>2022-07-18T11:51:55Z</time>
      </trkpt>
      <trkpt lat="44.54775" lon="7.13236">
        <ele>2076.8</ele>
        <time>2022-07-18T11:51:56Z</time>
      </trkpt>
      <trkpt lat="44.54775" lon="7.13234">
        <ele>2077.2</ele>
        <time>2022-07-18T11:51:57Z</time>
      </trkpt>
      <trkpt lat="44.54774" lon="7.13231">
        <ele>2077.2</ele>
        <time>2022-07-18T11:51:58Z</time>
      </trkpt>
      <trkpt lat="44.54774" lon="7.13228">
        <ele>2077.6</ele>
        <time>2022-07-18T11:51:59Z</time>
      </trkpt>
      <trkpt lat="44.54774" lon="7.13225">
        <ele>2077.8</ele>
        <time>2022-07-18T11:52:00Z</time>
      </trkpt>
      <trkpt lat="44.54774" lon="7.13222">
        <ele>2077.8</ele>
        <time>2022-07-18T11:52:01Z</time>
      </trkpt>
      <trkpt lat="44.54774" lon="7.1322">
        <ele>2078</ele>
        <time>2022-07-18T11:52:02Z</time>
      </trkpt>
      <trkpt lat="44.54775" lon="7.13217">
        <ele>2078</ele>
        <time>2022-07-18T11:52:03Z</time>
      </trkpt>
      <trkpt lat="44.54775" lon="7.13215">
        <ele>2078.4</ele>
        <time>2022-07-18T11:52:04Z</time>
      </trkpt>
      <trkpt lat="44.54775" lon="7.13212">
        <ele>2078.6</ele>
        <time>2022-07-18T11:52:05Z</time>
      </trkpt>
      <trkpt lat="44.54775" lon="7.1321">
        <ele>2078.8</ele>
        <time>2022-07-18T11:52:06Z</time>
      </trkpt>
      <trkpt lat="44.54774" lon="7.13207">
        <ele>2078.8</ele>
        <time>2022-07-18T11:52:07Z</time>
      </trkpt>
      <trkpt lat="44.54773" lon="7.13205">
        <ele>2079.2</ele>
        <time>2022-07-18T11:52:08Z</time>
      </trkpt>
      <trkpt lat="44.54772" lon="7.13203">
        <ele>2079.2</ele>
        <time>2022-07-18T11:52:09Z</time>
      </trkpt>
      <trkpt lat="44.54771" lon="7.132">
        <ele>2079.4</ele>
        <time>2022-07-18T11:52:10Z</time>
      </trkpt>
      <trkpt lat="44.5477" lon="7.13198">
        <ele>2079.4</ele>
        <time>2022-07-18T11:52:11Z</time>
      </trkpt>
      <trkpt lat="44.54769" lon="7.13195">
        <ele>2079.8</ele>
        <time>2022-07-18T11:52:12Z</time>
      </trkpt>
      <trkpt lat="44.54768" lon="7.13193">
        <ele>2079.8</ele>
        <time>2022-07-18T11:52:13Z</time>
      </trkpt>
      <trkpt lat="44.54767" lon="7.13191">
        <ele>2080</ele>
        <time>2022-07-18T11:52:14Z</time>
      </trkpt>
      <trkpt lat="44.54765" lon="7.13189">
        <ele>2080</ele>
        <time>2022-07-18T11:52:15Z</time>
      </trkpt>
      <trkpt lat="44.54764" lon="7.13187">
        <ele>2080.4</ele>
        <time>2022-07-18T11:52:16Z</time>
      </trkpt>
      <trkpt lat="44.54763" lon="7.13186">
        <ele>2080.6</ele>
        <time>2022-07-18T11:52:17Z</time>
      </trkpt>
      <trkpt lat="44.54761" lon="7.13184">
        <ele>2080.8</ele>
        <time>2022-07-18T11:52:18Z</time>
      </trkpt>
      <trkpt lat="44.5476" lon="7.13182">
        <ele>2080.8</ele>
        <time>2022-07-18T11:52:19Z</time>
      </trkpt>
      <trkpt lat="44.54758" lon="7.1318">
        <ele>2081.2</ele>
        <time>2022-07-18T11:52:20Z</time>
      </trkpt>
      <trkpt lat="44.54757" lon="7.13178">
        <ele>2081.2</ele>
        <time>2022-07-18T11:52:21Z</time>
      </trkpt>
      <trkpt lat="44.54756" lon="7.13175">
        <ele>2081.4</ele>
        <time>2022-07-18T11:52:22Z</time>
      </trkpt>
      <trkpt lat="44.54754" lon="7.13173">
        <ele>2081.6</ele>
        <time>2022-07-18T11:52:23Z</time>
      </trkpt>
      <trkpt lat="44.54753" lon="7.13171">
        <ele>2081.8</ele>
        <time>2022-07-18T11:52:24Z</time>
      </trkpt>
      <trkpt lat="44.54752" lon="7.13168">
        <ele>2081.8</ele>
        <time>2022-07-18T11:52:25Z</time>
      </trkpt>
      <trkpt lat="44.54752" lon="7.13165">
        <ele>2082.2</ele>
        <time>2022-07-18T11:52:26Z</time>
      </trkpt>
      <trkpt lat="44.54752" lon="7.13162">
        <ele>2082.6</ele>
        <time>2022-07-18T11:52:27Z</time>
      </trkpt>
      <trkpt lat="44.54751" lon="7.1316">
        <ele>2082.6</ele>
        <time>2022-07-18T11:52:28Z</time>
      </trkpt>
      <trkpt lat="44.54751" lon="7.13157">
        <ele>2083</ele>
        <time>2022-07-18T11:52:29Z</time>
      </trkpt>
      <trkpt lat="44.54751" lon="7.13154">
        <ele>2083.2</ele>
        <time>2022-07-18T11:52:30Z</time>
      </trkpt>
      <trkpt lat="44.54751" lon="7.13151">
        <ele>2083.2</ele>
        <time>2022-07-18T11:52:31Z</time>
      </trkpt>
      <trkpt lat="44.54751" lon="7.13149">
        <ele>2083.6</ele>
        <time>2022-07-18T11:52:32Z</time>
      </trkpt>
      <trkpt lat="44.54751" lon="7.13146">
        <ele>2083.8</ele>
        <time>2022-07-18T11:52:33Z</time>
      </trkpt>
      <trkpt lat="44.54751" lon="7.13143">
        <ele>2084</ele>
        <time>2022-07-18T11:52:34Z</time>
      </trkpt>
      <trkpt lat="44.54752" lon="7.13141">
        <ele>2084</ele>
        <time>2022-07-18T11:52:35Z</time>
      </trkpt>
      <trkpt lat="44.54752" lon="7.13138">
        <ele>2084.2</ele>
        <time>2022-07-18T11:52:36Z</time>
      </trkpt>
      <trkpt lat="44.54752" lon="7.13136">
        <ele>2084.2</ele>
        <time>2022-07-18T11:52:37Z</time>
      </trkpt>
      <trkpt lat="44.54752" lon="7.13133">
        <ele>2084.4</ele>
        <time>2022-07-18T11:52:38Z</time>
      </trkpt>
      <trkpt lat="44.54753" lon="7.13131">
        <ele>2084.8</ele>
        <time>2022-07-18T11:52:39Z</time>
      </trkpt>
      <trkpt lat="44.54752" lon="7.13128">
        <ele>2085</ele>
        <time>2022-07-18T11:52:40Z</time>
      </trkpt>
      <trkpt lat="44.54752" lon="7.13125">
        <ele>2085.2</ele>
        <time>2022-07-18T11:52:41Z</time>
      </trkpt>
      <trkpt lat="44.54753" lon="7.13123">
        <ele>2085.2</ele>
        <time>2022-07-18T11:52:42Z</time>
      </trkpt>
      <trkpt lat="44.54753" lon="7.1312">
        <ele>2085.6</ele>
        <time>2022-07-18T11:52:43Z</time>
      </trkpt>
      <trkpt lat="44.54754" lon="7.13118">
        <ele>2085.6</ele>
        <time>2022-07-18T11:52:44Z</time>
      </trkpt>
      <trkpt lat="44.54755" lon="7.13115">
        <ele>2085.8</ele>
        <time>2022-07-18T11:52:45Z</time>
      </trkpt>
      <trkpt lat="44.54755" lon="7.13113">
        <ele>2085.8</ele>
        <time>2022-07-18T11:52:46Z</time>
      </trkpt>
      <trkpt lat="44.54755" lon="7.1311">
        <ele>2086</ele>
        <time>2022-07-18T11:52:47Z</time>
      </trkpt>
      <trkpt lat="44.54756" lon="7.13107">
        <ele>2086</ele>
        <time>2022-07-18T11:52:48Z</time>
      </trkpt>
      <trkpt lat="44.54756" lon="7.13105">
        <ele>2086.4</ele>
        <time>2022-07-18T11:52:49Z</time>
      </trkpt>
      <trkpt lat="44.54757" lon="7.13102">
        <ele>2086.4</ele>
        <time>2022-07-18T11:52:50Z</time>
      </trkpt>
      <trkpt lat="44.54757" lon="7.13099">
        <ele>2086.6</ele>
        <time>2022-07-18T11:52:51Z</time>
      </trkpt>
      <trkpt lat="44.54757" lon="7.13096">
        <ele>2086.6</ele>
        <time>2022-07-18T11:52:52Z</time>
      </trkpt>
      <trkpt lat="44.54758" lon="7.13094">
        <ele>2086.8</ele>
        <time>2022-07-18T11:52:53Z</time>
      </trkpt>
      <trkpt lat="44.54758" lon="7.13091">
        <ele>2087.2</ele>
        <time>2022-07-18T11:52:54Z</time>
      </trkpt>
      <trkpt lat="44.54759" lon="7.13089">
        <ele>2087.2</ele>
        <time>2022-07-18T11:52:55Z</time>
      </trkpt>
      <trkpt lat="44.54759" lon="7.13086">
        <ele>2087.4</ele>
        <time>2022-07-18T11:52:56Z</time>
      </trkpt>
      <trkpt lat="44.54759" lon="7.13084">
        <ele>2087.4</ele>
        <time>2022-07-18T11:52:57Z</time>
      </trkpt>
      <trkpt lat="44.5476" lon="7.13082">
        <ele>2087.8</ele>
        <time>2022-07-18T11:52:58Z</time>
      </trkpt>
      <trkpt lat="44.54761" lon="7.13079">
        <ele>2087.8</ele>
        <time>2022-07-18T11:52:59Z</time>
      </trkpt>
      <trkpt lat="44.54761" lon="7.13077">
        <ele>2088</ele>
        <time>2022-07-18T11:53:00Z</time>
      </trkpt>
      <trkpt lat="44.54762" lon="7.13075">
        <ele>2088.2</ele>
        <time>2022-07-18T11:53:01Z</time>
      </trkpt>
      <trkpt lat="44.54763" lon="7.13073">
        <ele>2088.2</ele>
        <time>2022-07-18T11:53:02Z</time>
      </trkpt>
      <trkpt lat="44.54764" lon="7.13071">
        <ele>2088.6</ele>
        <time>2022-07-18T11:53:03Z</time>
      </trkpt>
      <trkpt lat="44.54765" lon="7.13069">
        <ele>2088.6</ele>
        <time>2022-07-18T11:53:04Z</time>
      </trkpt>
      <trkpt lat="44.54765" lon="7.13067">
        <ele>2088.8</ele>
        <time>2022-07-18T11:53:05Z</time>
      </trkpt>
      <trkpt lat="44.54766" lon="7.13065">
        <ele>2088.8</ele>
        <time>2022-07-18T11:53:06Z</time>
      </trkpt>
      <trkpt lat="44.54767" lon="7.13063">
        <ele>2089.2</ele>
        <time>2022-07-18T11:53:07Z</time>
      </trkpt>
      <trkpt lat="44.54768" lon="7.13061">
        <ele>2089.2</ele>
        <time>2022-07-18T11:53:08Z</time>
      </trkpt>
      <trkpt lat="44.54769" lon="7.13059">
        <ele>2089.6</ele>
        <time>2022-07-18T11:53:09Z</time>
      </trkpt>
      <trkpt lat="44.5477" lon="7.13057">
        <ele>2089.6</ele>
        <time>2022-07-18T11:53:10Z</time>
      </trkpt>
      <trkpt lat="44.54771" lon="7.13055">
        <ele>2090.2</ele>
        <time>2022-07-18T11:53:12Z</time>
      </trkpt>
      <trkpt lat="44.54772" lon="7.13053">
        <ele>2090.2</ele>
        <time>2022-07-18T11:53:13Z</time>
      </trkpt>
      <trkpt lat="44.54774" lon="7.13051">
        <ele>2090.4</ele>
        <time>2022-07-18T11:53:14Z</time>
      </trkpt>
      <trkpt lat="44.54775" lon="7.1305">
        <ele>2090.4</ele>
        <time>2022-07-18T11:53:15Z</time>
      </trkpt>
      <trkpt lat="44.54776" lon="7.13048">
        <ele>2090.8</ele>
        <time>2022-07-18T11:53:16Z</time>
      </trkpt>
      <trkpt lat="44.54778" lon="7.13044">
        <ele>2091.2</ele>
        <time>2022-07-18T11:53:17Z</time>
      </trkpt>
      <trkpt lat="44.54779" lon="7.13042">
        <ele>2091.2</ele>
        <time>2022-07-18T11:53:18Z</time>
      </trkpt>
      <trkpt lat="44.5478" lon="7.13039">
        <ele>2091.4</ele>
        <time>2022-07-18T11:53:19Z</time>
      </trkpt>
      <trkpt lat="44.5478" lon="7.13037">
        <ele>2091.4</ele>
        <time>2022-07-18T11:53:20Z</time>
      </trkpt>
      <trkpt lat="44.54781" lon="7.13035">
        <ele>2091.8</ele>
        <time>2022-07-18T11:53:21Z</time>
      </trkpt>
      <trkpt lat="44.54781" lon="7.13033">
        <ele>2091.8</ele>
        <time>2022-07-18T11:53:22Z</time>
      </trkpt>
      <trkpt lat="44.54781" lon="7.1303">
        <ele>2092.2</ele>
        <time>2022-07-18T11:53:23Z</time>
      </trkpt>
      <trkpt lat="44.54781" lon="7.13028">
        <ele>2092.4</ele>
        <time>2022-07-18T11:53:24Z</time>
      </trkpt>
      <trkpt lat="44.54781" lon="7.13025">
        <ele>2092.6</ele>
        <time>2022-07-18T11:53:25Z</time>
      </trkpt>
      <trkpt lat="44.54781" lon="7.13023">
        <ele>2092.6</ele>
        <time>2022-07-18T11:53:26Z</time>
      </trkpt>
      <trkpt lat="44.54781" lon="7.1302">
        <ele>2093</ele>
        <time>2022-07-18T11:53:27Z</time>
      </trkpt>
      <trkpt lat="44.54781" lon="7.13018">
        <ele>2093.2</ele>
        <time>2022-07-18T11:53:28Z</time>
      </trkpt>
      <trkpt lat="44.54781" lon="7.13016">
        <ele>2093.2</ele>
        <time>2022-07-18T11:53:29Z</time>
      </trkpt>
      <trkpt lat="44.54781" lon="7.13014">
        <ele>2093.6</ele>
        <time>2022-07-18T11:53:30Z</time>
      </trkpt>
      <trkpt lat="44.54781" lon="7.13011">
        <ele>2093.6</ele>
        <time>2022-07-18T11:53:31Z</time>
      </trkpt>
      <trkpt lat="44.5478" lon="7.13008">
        <ele>2093.8</ele>
        <time>2022-07-18T11:53:32Z</time>
      </trkpt>
      <trkpt lat="44.5478" lon="7.13006">
        <ele>2093.8</ele>
        <time>2022-07-18T11:53:33Z</time>
      </trkpt>
      <trkpt lat="44.54779" lon="7.13003">
        <ele>2094.2</ele>
        <time>2022-07-18T11:53:34Z</time>
      </trkpt>
      <trkpt lat="44.54779" lon="7.13001">
        <ele>2094.2</ele>
        <time>2022-07-18T11:53:35Z</time>
      </trkpt>
      <trkpt lat="44.54779" lon="7.12998">
        <ele>2094.4</ele>
        <time>2022-07-18T11:53:36Z</time>
      </trkpt>
      <trkpt lat="44.54778" lon="7.12995">
        <ele>2094.4</ele>
        <time>2022-07-18T11:53:37Z</time>
      </trkpt>
      <trkpt lat="44.54778" lon="7.12993">
        <ele>2094.8</ele>
        <time>2022-07-18T11:53:38Z</time>
      </trkpt>
      <trkpt lat="44.54778" lon="7.1299">
        <ele>2094.8</ele>
        <time>2022-07-18T11:53:39Z</time>
      </trkpt>
      <trkpt lat="44.54778" lon="7.12988">
        <ele>2095</ele>
        <time>2022-07-18T11:53:40Z</time>
      </trkpt>
      <trkpt lat="44.54777" lon="7.12985">
        <ele>2095</ele>
        <time>2022-07-18T11:53:41Z</time>
      </trkpt>
      <trkpt lat="44.54778" lon="7.12983">
        <ele>2095.4</ele>
        <time>2022-07-18T11:53:42Z</time>
      </trkpt>
      <trkpt lat="44.54778" lon="7.1298">
        <ele>2095.4</ele>
        <time>2022-07-18T11:53:43Z</time>
      </trkpt>
      <trkpt lat="44.54778" lon="7.12978">
        <ele>2095.8</ele>
        <time>2022-07-18T11:53:44Z</time>
      </trkpt>
      <trkpt lat="44.54779" lon="7.12976">
        <ele>2095.8</ele>
        <time>2022-07-18T11:53:45Z</time>
      </trkpt>
      <trkpt lat="44.54779" lon="7.12974">
        <ele>2096.2</ele>
        <time>2022-07-18T11:53:46Z</time>
      </trkpt>
      <trkpt lat="44.5478" lon="7.12972">
        <ele>2096.2</ele>
        <time>2022-07-18T11:53:47Z</time>
      </trkpt>
      <trkpt lat="44.5478" lon="7.12969">
        <ele>2096.4</ele>
        <time>2022-07-18T11:53:48Z</time>
      </trkpt>
      <trkpt lat="44.54781" lon="7.12967">
        <ele>2096.4</ele>
        <time>2022-07-18T11:53:49Z</time>
      </trkpt>
      <trkpt lat="44.54782" lon="7.12965">
        <ele>2096.8</ele>
        <time>2022-07-18T11:53:50Z</time>
      </trkpt>
      <trkpt lat="44.54782" lon="7.12962">
        <ele>2096.8</ele>
        <time>2022-07-18T11:53:51Z</time>
      </trkpt>
      <trkpt lat="44.54783" lon="7.1296">
        <ele>2097</ele>
        <time>2022-07-18T11:53:52Z</time>
      </trkpt>
      <trkpt lat="44.54783" lon="7.12958">
        <ele>2097</ele>
        <time>2022-07-18T11:53:53Z</time>
      </trkpt>
      <trkpt lat="44.54784" lon="7.12956">
        <ele>2097.4</ele>
        <time>2022-07-18T11:53:54Z</time>
      </trkpt>
      <trkpt lat="44.54785" lon="7.12954">
        <ele>2097.6</ele>
        <time>2022-07-18T11:53:55Z</time>
      </trkpt>
      <trkpt lat="44.54786" lon="7.12952">
        <ele>2097.6</ele>
        <time>2022-07-18T11:53:56Z</time>
      </trkpt>
      <trkpt lat="44.54786" lon="7.1295">
        <ele>2097.8</ele>
        <time>2022-07-18T11:53:57Z</time>
      </trkpt>
      <trkpt lat="44.54787" lon="7.12948">
        <ele>2097.8</ele>
        <time>2022-07-18T11:53:58Z</time>
      </trkpt>
      <trkpt lat="44.54788" lon="7.12946">
        <ele>2098</ele>
        <time>2022-07-18T11:53:59Z</time>
      </trkpt>
      <trkpt lat="44.54788" lon="7.12945">
        <ele>2098</ele>
        <time>2022-07-18T11:54:00Z</time>
      </trkpt>
      <trkpt lat="44.54789" lon="7.12943">
        <ele>2098.4</ele>
        <time>2022-07-18T11:54:01Z</time>
      </trkpt>
      <trkpt lat="44.5479" lon="7.12941">
        <ele>2098.4</ele>
        <time>2022-07-18T11:54:02Z</time>
      </trkpt>
      <trkpt lat="44.54791" lon="7.12939">
        <ele>2098.8</ele>
        <time>2022-07-18T11:54:03Z</time>
      </trkpt>
      <trkpt lat="44.54792" lon="7.12937">
        <ele>2099</ele>
        <time>2022-07-18T11:54:04Z</time>
      </trkpt>
      <trkpt lat="44.54792" lon="7.12935">
        <ele>2099</ele>
        <time>2022-07-18T11:54:05Z</time>
      </trkpt>
      <trkpt lat="44.54793" lon="7.12933">
        <ele>2099.4</ele>
        <time>2022-07-18T11:54:06Z</time>
      </trkpt>
      <trkpt lat="44.54794" lon="7.12931">
        <ele>2099.4</ele>
        <time>2022-07-18T11:54:07Z</time>
      </trkpt>
      <trkpt lat="44.54794" lon="7.12929">
        <ele>2099.6</ele>
        <time>2022-07-18T11:54:08Z</time>
      </trkpt>
      <trkpt lat="44.54795" lon="7.12926">
        <ele>2099.8</ele>
        <time>2022-07-18T11:54:09Z</time>
      </trkpt>
      <trkpt lat="44.54795" lon="7.12924">
        <ele>2100</ele>
        <time>2022-07-18T11:54:10Z</time>
      </trkpt>
      <trkpt lat="44.54796" lon="7.12921">
        <ele>2100</ele>
        <time>2022-07-18T11:54:11Z</time>
      </trkpt>
      <trkpt lat="44.54796" lon="7.12919">
        <ele>2100.4</ele>
        <time>2022-07-18T11:54:12Z</time>
      </trkpt>
      <trkpt lat="44.54797" lon="7.12917">
        <ele>2100.4</ele>
        <time>2022-07-18T11:54:13Z</time>
      </trkpt>
      <trkpt lat="44.54798" lon="7.12914">
        <ele>2100.4</ele>
        <time>2022-07-18T11:54:14Z</time>
      </trkpt>
      <trkpt lat="44.54798" lon="7.12912">
        <ele>2100.8</ele>
        <time>2022-07-18T11:54:15Z</time>
      </trkpt>
      <trkpt lat="44.54799" lon="7.12909">
        <ele>2100.8</ele>
        <time>2022-07-18T11:54:16Z</time>
      </trkpt>
      <trkpt lat="44.54799" lon="7.12907">
        <ele>2101</ele>
        <time>2022-07-18T11:54:17Z</time>
      </trkpt>
      <trkpt lat="44.54799" lon="7.12905">
        <ele>2101</ele>
        <time>2022-07-18T11:54:18Z</time>
      </trkpt>
      <trkpt lat="44.548" lon="7.12902">
        <ele>2101.4</ele>
        <time>2022-07-18T11:54:19Z</time>
      </trkpt>
      <trkpt lat="44.548" lon="7.129">
        <ele>2101.4</ele>
        <time>2022-07-18T11:54:20Z</time>
      </trkpt>
      <trkpt lat="44.548" lon="7.12897">
        <ele>2101.6</ele>
        <time>2022-07-18T11:54:21Z</time>
      </trkpt>
      <trkpt lat="44.54801" lon="7.12895">
        <ele>2101.6</ele>
        <time>2022-07-18T11:54:22Z</time>
      </trkpt>
      <trkpt lat="44.54801" lon="7.12892">
        <ele>2101.8</ele>
        <time>2022-07-18T11:54:23Z</time>
      </trkpt>
      <trkpt lat="44.54801" lon="7.1289">
        <ele>2102</ele>
        <time>2022-07-18T11:54:24Z</time>
      </trkpt>
      <trkpt lat="44.54802" lon="7.12887">
        <ele>2102</ele>
        <time>2022-07-18T11:54:25Z</time>
      </trkpt>
      <trkpt lat="44.54802" lon="7.12885">
        <ele>2102.4</ele>
        <time>2022-07-18T11:54:26Z</time>
      </trkpt>
      <trkpt lat="44.54803" lon="7.12883">
        <ele>2102.4</ele>
        <time>2022-07-18T11:54:27Z</time>
      </trkpt>
      <trkpt lat="44.54803" lon="7.1288">
        <ele>2102.8</ele>
        <time>2022-07-18T11:54:28Z</time>
      </trkpt>
      <trkpt lat="44.54804" lon="7.12878">
        <ele>2103</ele>
        <time>2022-07-18T11:54:29Z</time>
      </trkpt>
      <trkpt lat="44.54805" lon="7.12876">
        <ele>2103</ele>
        <time>2022-07-18T11:54:30Z</time>
      </trkpt>
      <trkpt lat="44.54805" lon="7.12874">
        <ele>2103.4</ele>
        <time>2022-07-18T11:54:31Z</time>
      </trkpt>
      <trkpt lat="44.54806" lon="7.12871">
        <ele>2103.4</ele>
        <time>2022-07-18T11:54:32Z</time>
      </trkpt>
      <trkpt lat="44.54807" lon="7.12869">
        <ele>2103.6</ele>
        <time>2022-07-18T11:54:33Z</time>
      </trkpt>
      <trkpt lat="44.54807" lon="7.12867">
        <ele>2103.6</ele>
        <time>2022-07-18T11:54:34Z</time>
      </trkpt>
      <trkpt lat="44.54808" lon="7.12865">
        <ele>2104</ele>
        <time>2022-07-18T11:54:35Z</time>
      </trkpt>
      <trkpt lat="44.54809" lon="7.12863">
        <ele>2104</ele>
        <time>2022-07-18T11:54:36Z</time>
      </trkpt>
      <trkpt lat="44.5481" lon="7.12861">
        <ele>2104.4</ele>
        <time>2022-07-18T11:54:37Z</time>
      </trkpt>
      <trkpt lat="44.54811" lon="7.12859">
        <ele>2104.4</ele>
        <time>2022-07-18T11:54:38Z</time>
      </trkpt>
      <trkpt lat="44.54812" lon="7.12857">
        <ele>2104.6</ele>
        <time>2022-07-18T11:54:39Z</time>
      </trkpt>
      <trkpt lat="44.54813" lon="7.12855">
        <ele>2104.6</ele>
        <time>2022-07-18T11:54:40Z</time>
      </trkpt>
      <trkpt lat="44.54813" lon="7.12853">
        <ele>2104.8</ele>
        <time>2022-07-18T11:54:41Z</time>
      </trkpt>
      <trkpt lat="44.54814" lon="7.1285">
        <ele>2104.8</ele>
        <time>2022-07-18T11:54:42Z</time>
      </trkpt>
      <trkpt lat="44.54815" lon="7.12848">
        <ele>2105.2</ele>
        <time>2022-07-18T11:54:43Z</time>
      </trkpt>
      <trkpt lat="44.54816" lon="7.12846">
        <ele>2105.2</ele>
        <time>2022-07-18T11:54:44Z</time>
      </trkpt>
      <trkpt lat="44.54817" lon="7.12844">
        <ele>2105.6</ele>
        <time>2022-07-18T11:54:45Z</time>
      </trkpt>
      <trkpt lat="44.54817" lon="7.12841">
        <ele>2105.6</ele>
        <time>2022-07-18T11:54:46Z</time>
      </trkpt>
      <trkpt lat="44.54818" lon="7.12839">
        <ele>2105.8</ele>
        <time>2022-07-18T11:54:47Z</time>
      </trkpt>
      <trkpt lat="44.54818" lon="7.12837">
        <ele>2106</ele>
        <time>2022-07-18T11:54:48Z</time>
      </trkpt>
      <trkpt lat="44.54819" lon="7.12835">
        <ele>2106.2</ele>
        <time>2022-07-18T11:54:49Z</time>
      </trkpt>
      <trkpt lat="44.5482" lon="7.12833">
        <ele>2106.2</ele>
        <time>2022-07-18T11:54:50Z</time>
      </trkpt>
      <trkpt lat="44.54821" lon="7.12831">
        <ele>2106.4</ele>
        <time>2022-07-18T11:54:51Z</time>
      </trkpt>
      <trkpt lat="44.54822" lon="7.12828">
        <ele>2106.4</ele>
        <time>2022-07-18T11:54:52Z</time>
      </trkpt>
      <trkpt lat="44.54823" lon="7.12826">
        <ele>2106.8</ele>
        <time>2022-07-18T11:54:53Z</time>
      </trkpt>
      <trkpt lat="44.54823" lon="7.12824">
        <ele>2107</ele>
        <time>2022-07-18T11:54:54Z</time>
      </trkpt>
      <trkpt lat="44.54824" lon="7.12821">
        <ele>2107</ele>
        <time>2022-07-18T11:54:55Z</time>
      </trkpt>
      <trkpt lat="44.54824" lon="7.12819">
        <ele>2107.4</ele>
        <time>2022-07-18T11:54:56Z</time>
      </trkpt>
      <trkpt lat="44.54825" lon="7.12817">
        <ele>2107.4</ele>
        <time>2022-07-18T11:54:57Z</time>
      </trkpt>
      <trkpt lat="44.54826" lon="7.12814">
        <ele>2107.8</ele>
        <time>2022-07-18T11:54:58Z</time>
      </trkpt>
      <trkpt lat="44.54826" lon="7.12812">
        <ele>2108</ele>
        <time>2022-07-18T11:54:59Z</time>
      </trkpt>
      <trkpt lat="44.54827" lon="7.1281">
        <ele>2108</ele>
        <time>2022-07-18T11:55:00Z</time>
      </trkpt>
      <trkpt lat="44.54828" lon="7.12807">
        <ele>2108.2</ele>
        <time>2022-07-18T11:55:01Z</time>
      </trkpt>
      <trkpt lat="44.54829" lon="7.12805">
        <ele>2108.2</ele>
        <time>2022-07-18T11:55:02Z</time>
      </trkpt>
      <trkpt lat="44.5483" lon="7.12803">
        <ele>2108.6</ele>
        <time>2022-07-18T11:55:03Z</time>
      </trkpt>
      <trkpt lat="44.5483" lon="7.12801">
        <ele>2108.6</ele>
        <time>2022-07-18T11:55:04Z</time>
      </trkpt>
      <trkpt lat="44.54831" lon="7.12799">
        <ele>2108.8</ele>
        <time>2022-07-18T11:55:05Z</time>
      </trkpt>
      <trkpt lat="44.54832" lon="7.12797">
        <ele>2108.8</ele>
        <time>2022-07-18T11:55:06Z</time>
      </trkpt>
      <trkpt lat="44.54833" lon="7.12795">
        <ele>2109.2</ele>
        <time>2022-07-18T11:55:07Z</time>
      </trkpt>
      <trkpt lat="44.54834" lon="7.12793">
        <ele>2109.4</ele>
        <time>2022-07-18T11:55:08Z</time>
      </trkpt>
      <trkpt lat="44.54835" lon="7.12791">
        <ele>2109.6</ele>
        <time>2022-07-18T11:55:09Z</time>
      </trkpt>
      <trkpt lat="44.54836" lon="7.12788">
        <ele>2109.6</ele>
        <time>2022-07-18T11:55:10Z</time>
      </trkpt>
      <trkpt lat="44.54837" lon="7.12786">
        <ele>2110</ele>
        <time>2022-07-18T11:55:11Z</time>
      </trkpt>
      <trkpt lat="44.54838" lon="7.12784">
        <ele>2110</ele>
        <time>2022-07-18T11:55:12Z</time>
      </trkpt>
      <trkpt lat="44.54839" lon="7.12782">
        <ele>2110.4</ele>
        <time>2022-07-18T11:55:13Z</time>
      </trkpt>
      <trkpt lat="44.5484" lon="7.1278">
        <ele>2110.4</ele>
        <time>2022-07-18T11:55:14Z</time>
      </trkpt>
      <trkpt lat="44.54841" lon="7.12779">
        <ele>2110.6</ele>
        <time>2022-07-18T11:55:15Z</time>
      </trkpt>
      <trkpt lat="44.54842" lon="7.12777">
        <ele>2110.6</ele>
        <time>2022-07-18T11:55:16Z</time>
      </trkpt>
      <trkpt lat="44.54842" lon="7.12775">
        <ele>2111</ele>
        <time>2022-07-18T11:55:17Z</time>
      </trkpt>
      <trkpt lat="44.54843" lon="7.12773">
        <ele>2111.2</ele>
        <time>2022-07-18T11:55:18Z</time>
      </trkpt>
      <trkpt lat="44.54844" lon="7.12771">
        <ele>2111.2</ele>
        <time>2022-07-18T11:55:19Z</time>
      </trkpt>
      <trkpt lat="44.54845" lon="7.12769">
        <ele>2111.4</ele>
        <time>2022-07-18T11:55:20Z</time>
      </trkpt>
      <trkpt lat="44.54846" lon="7.12767">
        <ele>2111.4</ele>
        <time>2022-07-18T11:55:21Z</time>
      </trkpt>
      <trkpt lat="44.54847" lon="7.12765">
        <ele>2111.8</ele>
        <time>2022-07-18T11:55:22Z</time>
      </trkpt>
      <trkpt lat="44.54848" lon="7.12763">
        <ele>2111.8</ele>
        <time>2022-07-18T11:55:23Z</time>
      </trkpt>
      <trkpt lat="44.54849" lon="7.12761">
        <ele>2112.2</ele>
        <time>2022-07-18T11:55:24Z</time>
      </trkpt>
      <trkpt lat="44.5485" lon="7.12759">
        <ele>2112.2</ele>
        <time>2022-07-18T11:55:25Z</time>
      </trkpt>
      <trkpt lat="44.54851" lon="7.12758">
        <ele>2112.4</ele>
        <time>2022-07-18T11:55:26Z</time>
      </trkpt>
      <trkpt lat="44.54852" lon="7.12756">
        <ele>2112.4</ele>
        <time>2022-07-18T11:55:27Z</time>
      </trkpt>
      <trkpt lat="44.54854" lon="7.12754">
        <ele>2112.8</ele>
        <time>2022-07-18T11:55:28Z</time>
      </trkpt>
      <trkpt lat="44.54855" lon="7.12752">
        <ele>2112.8</ele>
        <time>2022-07-18T11:55:29Z</time>
      </trkpt>
      <trkpt lat="44.54856" lon="7.1275">
        <ele>2113.2</ele>
        <time>2022-07-18T11:55:30Z</time>
      </trkpt>
      <trkpt lat="44.54857" lon="7.12748">
        <ele>2113.2</ele>
        <time>2022-07-18T11:55:31Z</time>
      </trkpt>
      <trkpt lat="44.54859" lon="7.12746">
        <ele>2113.4</ele>
        <time>2022-07-18T11:55:32Z</time>
      </trkpt>
      <trkpt lat="44.5486" lon="7.12744">
        <ele>2113.8</ele>
        <time>2022-07-18T11:55:33Z</time>
      </trkpt>
      <trkpt lat="44.54861" lon="7.12742">
        <ele>2113.8</ele>
        <time>2022-07-18T11:55:34Z</time>
      </trkpt>
      <trkpt lat="44.54862" lon="7.1274">
        <ele>2114.2</ele>
        <time>2022-07-18T11:55:35Z</time>
      </trkpt>
      <trkpt lat="44.54863" lon="7.12738">
        <ele>2114.4</ele>
        <time>2022-07-18T11:55:36Z</time>
      </trkpt>
      <trkpt lat="44.54865" lon="7.12737">
        <ele>2114.4</ele>
        <time>2022-07-18T11:55:37Z</time>
      </trkpt>
      <trkpt lat="44.54866" lon="7.12735">
        <ele>2114.8</ele>
        <time>2022-07-18T11:55:38Z</time>
      </trkpt>
      <trkpt lat="44.54868" lon="7.12734">
        <ele>2114.8</ele>
        <time>2022-07-18T11:55:39Z</time>
      </trkpt>
      <trkpt lat="44.54869" lon="7.12732">
        <ele>2115.2</ele>
        <time>2022-07-18T11:55:40Z</time>
      </trkpt>
      <trkpt lat="44.5487" lon="7.12731">
        <ele>2115.4</ele>
        <time>2022-07-18T11:55:41Z</time>
      </trkpt>
      <trkpt lat="44.54871" lon="7.12729">
        <ele>2115.4</ele>
        <time>2022-07-18T11:55:42Z</time>
      </trkpt>
      <trkpt lat="44.54873" lon="7.12727">
        <ele>2115.8</ele>
        <time>2022-07-18T11:55:43Z</time>
      </trkpt>
      <trkpt lat="44.54874" lon="7.12725">
        <ele>2115.8</ele>
        <time>2022-07-18T11:55:44Z</time>
      </trkpt>
      <trkpt lat="44.54875" lon="7.12723">
        <ele>2116</ele>
        <time>2022-07-18T11:55:45Z</time>
      </trkpt>
      <trkpt lat="44.54877" lon="7.12721">
        <ele>2116.2</ele>
        <time>2022-07-18T11:55:46Z</time>
      </trkpt>
      <trkpt lat="44.54878" lon="7.12719">
        <ele>2116.2</ele>
        <time>2022-07-18T11:55:47Z</time>
      </trkpt>
      <trkpt lat="44.5488" lon="7.12718">
        <ele>2116.6</ele>
        <time>2022-07-18T11:55:48Z</time>
      </trkpt>
      <trkpt lat="44.54881" lon="7.12716">
        <ele>2116.8</ele>
        <time>2022-07-18T11:55:49Z</time>
      </trkpt>
      <trkpt lat="44.54883" lon="7.12715">
        <ele>2117</ele>
        <time>2022-07-18T11:55:50Z</time>
      </trkpt>
      <trkpt lat="44.54884" lon="7.12713">
        <ele>2117.6</ele>
        <time>2022-07-18T11:55:51Z</time>
      </trkpt>
      <trkpt lat="44.54885" lon="7.12711">
        <ele>2117.6</ele>
        <time>2022-07-18T11:55:52Z</time>
      </trkpt>
      <trkpt lat="44.54887" lon="7.12709">
        <ele>2117.8</ele>
        <time>2022-07-18T11:55:53Z</time>
      </trkpt>
      <trkpt lat="44.54888" lon="7.12708">
        <ele>2117.8</ele>
        <time>2022-07-18T11:55:54Z</time>
      </trkpt>
      <trkpt lat="44.54889" lon="7.12706">
        <ele>2118</ele>
        <time>2022-07-18T11:55:55Z</time>
      </trkpt>
      <trkpt lat="44.5489" lon="7.12705">
        <ele>2118.2</ele>
        <time>2022-07-18T11:55:56Z</time>
      </trkpt>
      <trkpt lat="44.54892" lon="7.12704">
        <ele>2118.2</ele>
        <time>2022-07-18T11:55:57Z</time>
      </trkpt>
      <trkpt lat="44.54894" lon="7.12702">
        <ele>2118.6</ele>
        <time>2022-07-18T11:55:58Z</time>
      </trkpt>
      <trkpt lat="44.54895" lon="7.12701">
        <ele>2118.6</ele>
        <time>2022-07-18T11:55:59Z</time>
      </trkpt>
      <trkpt lat="44.54897" lon="7.127">
        <ele>2119</ele>
        <time>2022-07-18T11:56:00Z</time>
      </trkpt>
      <trkpt lat="44.54898" lon="7.12698">
        <ele>2119</ele>
        <time>2022-07-18T11:56:01Z</time>
      </trkpt>
      <trkpt lat="44.54899" lon="7.12696">
        <ele>2119.2</ele>
        <time>2022-07-18T11:56:02Z</time>
      </trkpt>
      <trkpt lat="44.54901" lon="7.12695">
        <ele>2119.6</ele>
        <time>2022-07-18T11:56:03Z</time>
      </trkpt>
      <trkpt lat="44.54902" lon="7.12693">
        <ele>2119.6</ele>
        <time>2022-07-18T11:56:04Z</time>
      </trkpt>
      <trkpt lat="44.54904" lon="7.12691">
        <ele>2120</ele>
        <time>2022-07-18T11:56:05Z</time>
      </trkpt>
      <trkpt lat="44.54905" lon="7.1269">
        <ele>2120</ele>
        <time>2022-07-18T11:56:06Z</time>
      </trkpt>
      <trkpt lat="44.54907" lon="7.12689">
        <ele>2120.2</ele>
        <time>2022-07-18T11:56:07Z</time>
      </trkpt>
      <trkpt lat="44.54909" lon="7.12687">
        <ele>2120.2</ele>
        <time>2022-07-18T11:56:08Z</time>
      </trkpt>
      <trkpt lat="44.5491" lon="7.12686">
        <ele>2120.6</ele>
        <time>2022-07-18T11:56:09Z</time>
      </trkpt>
      <trkpt lat="44.54912" lon="7.12685">
        <ele>2120.6</ele>
        <time>2022-07-18T11:56:10Z</time>
      </trkpt>
      <trkpt lat="44.54913" lon="7.12683">
        <ele>2120.8</ele>
        <time>2022-07-18T11:56:11Z</time>
      </trkpt>
      <trkpt lat="44.54914" lon="7.12682">
        <ele>2121</ele>
        <time>2022-07-18T11:56:12Z</time>
      </trkpt>
      <trkpt lat="44.54916" lon="7.12681">
        <ele>2121</ele>
        <time>2022-07-18T11:56:13Z</time>
      </trkpt>
      <trkpt lat="44.54918" lon="7.12679">
        <ele>2121.4</ele>
        <time>2022-07-18T11:56:14Z</time>
      </trkpt>
      <trkpt lat="44.54919" lon="7.12679">
        <ele>2121.4</ele>
        <time>2022-07-18T11:56:15Z</time>
      </trkpt>
      <trkpt lat="44.54921" lon="7.12678">
        <ele>2121.8</ele>
        <time>2022-07-18T11:56:16Z</time>
      </trkpt>
      <trkpt lat="44.54923" lon="7.12677">
        <ele>2121.8</ele>
        <time>2022-07-18T11:56:17Z</time>
      </trkpt>
      <trkpt lat="44.54924" lon="7.12676">
        <ele>2122.2</ele>
        <time>2022-07-18T11:56:18Z</time>
      </trkpt>
      <trkpt lat="44.54926" lon="7.12675">
        <ele>2122.2</ele>
        <time>2022-07-18T11:56:19Z</time>
      </trkpt>
      <trkpt lat="44.54927" lon="7.12675">
        <ele>2122.4</ele>
        <time>2022-07-18T11:56:20Z</time>
      </trkpt>
      <trkpt lat="44.54929" lon="7.12675">
        <ele>2122.4</ele>
        <time>2022-07-18T11:56:21Z</time>
      </trkpt>
      <trkpt lat="44.54931" lon="7.12675">
        <ele>2122.8</ele>
        <time>2022-07-18T11:56:22Z</time>
      </trkpt>
      <trkpt lat="44.54933" lon="7.12674">
        <ele>2122.8</ele>
        <time>2022-07-18T11:56:23Z</time>
      </trkpt>
      <trkpt lat="44.54934" lon="7.12674">
        <ele>2123.2</ele>
        <time>2022-07-18T11:56:24Z</time>
      </trkpt>
      <trkpt lat="44.54936" lon="7.12674">
        <ele>2123.2</ele>
        <time>2022-07-18T11:56:25Z</time>
      </trkpt>
      <trkpt lat="44.54938" lon="7.12674">
        <ele>2123.6</ele>
        <time>2022-07-18T11:56:26Z</time>
      </trkpt>
      <trkpt lat="44.54939" lon="7.12674">
        <ele>2123.8</ele>
        <time>2022-07-18T11:56:27Z</time>
      </trkpt>
      <trkpt lat="44.54941" lon="7.12674">
        <ele>2123.8</ele>
        <time>2022-07-18T11:56:28Z</time>
      </trkpt>
      <trkpt lat="44.54942" lon="7.12674">
        <ele>2124</ele>
        <time>2022-07-18T11:56:29Z</time>
      </trkpt>
      <trkpt lat="44.54944" lon="7.12674">
        <ele>2124</ele>
        <time>2022-07-18T11:56:30Z</time>
      </trkpt>
      <trkpt lat="44.54946" lon="7.12674">
        <ele>2124.4</ele>
        <time>2022-07-18T11:56:31Z</time>
      </trkpt>
      <trkpt lat="44.54947" lon="7.12674">
        <ele>2124.4</ele>
        <time>2022-07-18T11:56:32Z</time>
      </trkpt>
      <trkpt lat="44.54949" lon="7.12674">
        <ele>2124.6</ele>
        <time>2022-07-18T11:56:33Z</time>
      </trkpt>
      <trkpt lat="44.5495" lon="7.12674">
        <ele>2125</ele>
        <time>2022-07-18T11:56:34Z</time>
      </trkpt>
      <trkpt lat="44.54952" lon="7.12674">
        <ele>2125</ele>
        <time>2022-07-18T11:56:35Z</time>
      </trkpt>
      <trkpt lat="44.54953" lon="7.12674">
        <ele>2125.2</ele>
        <time>2022-07-18T11:56:36Z</time>
      </trkpt>
      <trkpt lat="44.54954" lon="7.12674">
        <ele>2125.2</ele>
        <time>2022-07-18T11:56:37Z</time>
      </trkpt>
      <trkpt lat="44.54956" lon="7.12674">
        <ele>2125.6</ele>
        <time>2022-07-18T11:56:38Z</time>
      </trkpt>
      <trkpt lat="44.54958" lon="7.12675">
        <ele>2125.6</ele>
        <time>2022-07-18T11:56:39Z</time>
      </trkpt>
      <trkpt lat="44.54959" lon="7.12675">
        <ele>2125.8</ele>
        <time>2022-07-18T11:56:40Z</time>
      </trkpt>
      <trkpt lat="44.54961" lon="7.12675">
        <ele>2125.8</ele>
        <time>2022-07-18T11:56:41Z</time>
      </trkpt>
      <trkpt lat="44.54962" lon="7.12675">
        <ele>2126</ele>
        <time>2022-07-18T11:56:42Z</time>
      </trkpt>
      <trkpt lat="44.54964" lon="7.12675">
        <ele>2126.4</ele>
        <time>2022-07-18T11:56:43Z</time>
      </trkpt>
      <trkpt lat="44.54965" lon="7.12675">
        <ele>2126.4</ele>
        <time>2022-07-18T11:56:44Z</time>
      </trkpt>
      <trkpt lat="44.54967" lon="7.12676">
        <ele>2126.6</ele>
        <time>2022-07-18T11:56:45Z</time>
      </trkpt>
      <trkpt lat="44.54969" lon="7.12676">
        <ele>2126.6</ele>
        <time>2022-07-18T11:56:46Z</time>
      </trkpt>
      <trkpt lat="44.54971" lon="7.12676">
        <ele>2127</ele>
        <time>2022-07-18T11:56:47Z</time>
      </trkpt>
      <trkpt lat="44.54972" lon="7.12676">
        <ele>2127</ele>
        <time>2022-07-18T11:56:48Z</time>
      </trkpt>
      <trkpt lat="44.54974" lon="7.12676">
        <ele>2127.2</ele>
        <time>2022-07-18T11:56:49Z</time>
      </trkpt>
      <trkpt lat="44.54976" lon="7.12676">
        <ele>2127.4</ele>
        <time>2022-07-18T11:56:50Z</time>
      </trkpt>
      <trkpt lat="44.54978" lon="7.12676">
        <ele>2127.4</ele>
        <time>2022-07-18T11:56:51Z</time>
      </trkpt>
      <trkpt lat="44.54979" lon="7.12676">
        <ele>2127.8</ele>
        <time>2022-07-18T11:56:52Z</time>
      </trkpt>
      <trkpt lat="44.54981" lon="7.12676">
        <ele>2127.8</ele>
        <time>2022-07-18T11:56:53Z</time>
      </trkpt>
      <trkpt lat="44.54983" lon="7.12676">
        <ele>2128</ele>
        <time>2022-07-18T11:56:54Z</time>
      </trkpt>
      <trkpt lat="44.54985" lon="7.12675">
        <ele>2128</ele>
        <time>2022-07-18T11:56:55Z</time>
      </trkpt>
      <trkpt lat="44.54986" lon="7.12675">
        <ele>2128.2</ele>
        <time>2022-07-18T11:56:56Z</time>
      </trkpt>
      <trkpt lat="44.54988" lon="7.12675">
        <ele>2128.2</ele>
        <time>2022-07-18T11:56:57Z</time>
      </trkpt>
      <trkpt lat="44.5499" lon="7.12674">
        <ele>2128.6</ele>
        <time>2022-07-18T11:56:58Z</time>
      </trkpt>
      <trkpt lat="44.54991" lon="7.12674">
        <ele>2128.6</ele>
        <time>2022-07-18T11:56:59Z</time>
      </trkpt>
      <trkpt lat="44.54993" lon="7.12674">
        <ele>2128.8</ele>
        <time>2022-07-18T11:57:00Z</time>
      </trkpt>
      <trkpt lat="44.54994" lon="7.12673">
        <ele>2128.8</ele>
        <time>2022-07-18T11:57:01Z</time>
      </trkpt>
      <trkpt lat="44.54996" lon="7.12672">
        <ele>2129.2</ele>
        <time>2022-07-18T11:57:02Z</time>
      </trkpt>
      <trkpt lat="44.54997" lon="7.12672">
        <ele>2129.2</ele>
        <time>2022-07-18T11:57:03Z</time>
      </trkpt>
      <trkpt lat="44.54999" lon="7.12672">
        <ele>2129.6</ele>
        <time>2022-07-18T11:57:04Z</time>
      </trkpt>
      <trkpt lat="44.55" lon="7.12671">
        <ele>2129.6</ele>
        <time>2022-07-18T11:57:05Z</time>
      </trkpt>
      <trkpt lat="44.55002" lon="7.12671">
        <ele>2129.8</ele>
        <time>2022-07-18T11:57:06Z</time>
      </trkpt>
      <trkpt lat="44.55003" lon="7.1267">
        <ele>2130</ele>
        <time>2022-07-18T11:57:07Z</time>
      </trkpt>
      <trkpt lat="44.55005" lon="7.1267">
        <ele>2130</ele>
        <time>2022-07-18T11:57:08Z</time>
      </trkpt>
      <trkpt lat="44.55006" lon="7.1267">
        <ele>2130.4</ele>
        <time>2022-07-18T11:57:09Z</time>
      </trkpt>
      <trkpt lat="44.55008" lon="7.1267">
        <ele>2130.6</ele>
        <time>2022-07-18T11:57:10Z</time>
      </trkpt>
      <trkpt lat="44.55009" lon="7.1267">
        <ele>2130.6</ele>
        <time>2022-07-18T11:57:11Z</time>
      </trkpt>
      <trkpt lat="44.55011" lon="7.1267">
        <ele>2130.8</ele>
        <time>2022-07-18T11:57:12Z</time>
      </trkpt>
      <trkpt lat="44.55013" lon="7.12671">
        <ele>2130.8</ele>
        <time>2022-07-18T11:57:13Z</time>
      </trkpt>
      <trkpt lat="44.55014" lon="7.12671">
        <ele>2131.2</ele>
        <time>2022-07-18T11:57:14Z</time>
      </trkpt>
      <trkpt lat="44.55016" lon="7.12671">
        <ele>2131.2</ele>
        <time>2022-07-18T11:57:15Z</time>
      </trkpt>
      <trkpt lat="44.55017" lon="7.12671">
        <ele>2131.4</ele>
        <time>2022-07-18T11:57:16Z</time>
      </trkpt>
      <trkpt lat="44.55019" lon="7.12672">
        <ele>2131.4</ele>
        <time>2022-07-18T11:57:17Z</time>
      </trkpt>
      <trkpt lat="44.5502" lon="7.12672">
        <ele>2131.8</ele>
        <time>2022-07-18T11:57:18Z</time>
      </trkpt>
      <trkpt lat="44.55022" lon="7.12673">
        <ele>2132</ele>
        <time>2022-07-18T11:57:19Z</time>
      </trkpt>
      <trkpt lat="44.55024" lon="7.12674">
        <ele>2132.2</ele>
        <time>2022-07-18T11:57:20Z</time>
      </trkpt>
      <trkpt lat="44.55025" lon="7.12674">
        <ele>2132.2</ele>
        <time>2022-07-18T11:57:21Z</time>
      </trkpt>
      <trkpt lat="44.55027" lon="7.12675">
        <ele>2132.6</ele>
        <time>2022-07-18T11:57:22Z</time>
      </trkpt>
      <trkpt lat="44.55029" lon="7.12675">
        <ele>2132.6</ele>
        <time>2022-07-18T11:57:23Z</time>
      </trkpt>
      <trkpt lat="44.5503" lon="7.12675">
        <ele>2132.8</ele>
        <time>2022-07-18T11:57:24Z</time>
      </trkpt>
      <trkpt lat="44.55032" lon="7.12675">
        <ele>2132.8</ele>
        <time>2022-07-18T11:57:25Z</time>
      </trkpt>
      <trkpt lat="44.55034" lon="7.12676">
        <ele>2133.2</ele>
        <time>2022-07-18T11:57:26Z</time>
      </trkpt>
      <trkpt lat="44.55035" lon="7.12676">
        <ele>2133.2</ele>
        <time>2022-07-18T11:57:27Z</time>
      </trkpt>
      <trkpt lat="44.55037" lon="7.12676">
        <ele>2133.6</ele>
        <time>2022-07-18T11:57:28Z</time>
      </trkpt>
      <trkpt lat="44.55039" lon="7.12676">
        <ele>2133.6</ele>
        <time>2022-07-18T11:57:29Z</time>
      </trkpt>
      <trkpt lat="44.5504" lon="7.12676">
        <ele>2133.8</ele>
        <time>2022-07-18T11:57:30Z</time>
      </trkpt>
      <trkpt lat="44.55042" lon="7.12676">
        <ele>2133.8</ele>
        <time>2022-07-18T11:57:31Z</time>
      </trkpt>
      <trkpt lat="44.55043" lon="7.12675">
        <ele>2134.2</ele>
        <time>2022-07-18T11:57:32Z</time>
      </trkpt>
      <trkpt lat="44.55045" lon="7.12675">
        <ele>2134.2</ele>
        <time>2022-07-18T11:57:33Z</time>
      </trkpt>
      <trkpt lat="44.55046" lon="7.12674">
        <ele>2134.4</ele>
        <time>2022-07-18T11:57:34Z</time>
      </trkpt>
      <trkpt lat="44.55048" lon="7.12674">
        <ele>2134.6</ele>
        <time>2022-07-18T11:57:35Z</time>
      </trkpt>
      <trkpt lat="44.55049" lon="7.12673">
        <ele>2134.6</ele>
        <time>2022-07-18T11:57:36Z</time>
      </trkpt>
      <trkpt lat="44.55051" lon="7.12672">
        <ele>2135</ele>
        <time>2022-07-18T11:57:37Z</time>
      </trkpt>
      <trkpt lat="44.55052" lon="7.12671">
        <ele>2135</ele>
        <time>2022-07-18T11:57:38Z</time>
      </trkpt>
      <trkpt lat="44.55054" lon="7.1267">
        <ele>2135.4</ele>
        <time>2022-07-18T11:57:39Z</time>
      </trkpt>
      <trkpt lat="44.55056" lon="7.12669">
        <ele>2135.4</ele>
        <time>2022-07-18T11:57:40Z</time>
      </trkpt>
      <trkpt lat="44.55057" lon="7.12668">
        <ele>2135.6</ele>
        <time>2022-07-18T11:57:41Z</time>
      </trkpt>
      <trkpt lat="44.55059" lon="7.12667">
        <ele>2135.6</ele>
        <time>2022-07-18T11:57:42Z</time>
      </trkpt>
      <trkpt lat="44.5506" lon="7.12666">
        <ele>2135.8</ele>
        <time>2022-07-18T11:57:43Z</time>
      </trkpt>
      <trkpt lat="44.55062" lon="7.12666">
        <ele>2135.8</ele>
        <time>2022-07-18T11:57:44Z</time>
      </trkpt>
      <trkpt lat="44.55063" lon="7.12665">
        <ele>2136.2</ele>
        <time>2022-07-18T11:57:45Z</time>
      </trkpt>
      <trkpt lat="44.55065" lon="7.12665">
        <ele>2136.2</ele>
        <time>2022-07-18T11:57:46Z</time>
      </trkpt>
      <trkpt lat="44.55067" lon="7.12664">
        <ele>2136.4</ele>
        <time>2022-07-18T11:57:47Z</time>
      </trkpt>
      <trkpt lat="44.55068" lon="7.12663">
        <ele>2136.4</ele>
        <time>2022-07-18T11:57:48Z</time>
      </trkpt>
      <trkpt lat="44.5507" lon="7.12662">
        <ele>2136.8</ele>
        <time>2022-07-18T11:57:49Z</time>
      </trkpt>
      <trkpt lat="44.55071" lon="7.1266">
        <ele>2136.8</ele>
        <time>2022-07-18T11:57:50Z</time>
      </trkpt>
      <trkpt lat="44.55073" lon="7.12659">
        <ele>2137</ele>
        <time>2022-07-18T11:57:51Z</time>
      </trkpt>
      <trkpt lat="44.55075" lon="7.12658">
        <ele>2137</ele>
        <time>2022-07-18T11:57:52Z</time>
      </trkpt>
      <trkpt lat="44.55076" lon="7.12657">
        <ele>2137.2</ele>
        <time>2022-07-18T11:57:53Z</time>
      </trkpt>
      <trkpt lat="44.55078" lon="7.12656">
        <ele>2137.2</ele>
        <time>2022-07-18T11:57:54Z</time>
      </trkpt>
      <trkpt lat="44.5508" lon="7.12655">
        <ele>2137.6</ele>
        <time>2022-07-18T11:57:55Z</time>
      </trkpt>
      <trkpt lat="44.55081" lon="7.12653">
        <ele>2137.6</ele>
        <time>2022-07-18T11:57:56Z</time>
      </trkpt>
      <trkpt lat="44.55083" lon="7.12652">
        <ele>2137.8</ele>
        <time>2022-07-18T11:57:57Z</time>
      </trkpt>
      <trkpt lat="44.55085" lon="7.12651">
        <ele>2137.8</ele>
        <time>2022-07-18T11:57:58Z</time>
      </trkpt>
      <trkpt lat="44.55086" lon="7.1265">
        <ele>2138.2</ele>
        <time>2022-07-18T11:57:59Z</time>
      </trkpt>
      <trkpt lat="44.55087" lon="7.12649">
        <ele>2138.4</ele>
        <time>2022-07-18T11:58:00Z</time>
      </trkpt>
      <trkpt lat="44.55089" lon="7.12647">
        <ele>2138.4</ele>
        <time>2022-07-18T11:58:01Z</time>
      </trkpt>
      <trkpt lat="44.5509" lon="7.12646">
        <ele>2138.8</ele>
        <time>2022-07-18T11:58:02Z</time>
      </trkpt>
      <trkpt lat="44.55092" lon="7.12645">
        <ele>2139</ele>
        <time>2022-07-18T11:58:03Z</time>
      </trkpt>
      <trkpt lat="44.55094" lon="7.12644">
        <ele>2139</ele>
        <time>2022-07-18T11:58:04Z</time>
      </trkpt>
      <trkpt lat="44.55095" lon="7.12643">
        <ele>2139.4</ele>
        <time>2022-07-18T11:58:05Z</time>
      </trkpt>
      <trkpt lat="44.55097" lon="7.12642">
        <ele>2139.4</ele>
        <time>2022-07-18T11:58:06Z</time>
      </trkpt>
      <trkpt lat="44.55098" lon="7.12641">
        <ele>2139.6</ele>
        <time>2022-07-18T11:58:07Z</time>
      </trkpt>
      <trkpt lat="44.551" lon="7.1264">
        <ele>2139.6</ele>
        <time>2022-07-18T11:58:08Z</time>
      </trkpt>
      <trkpt lat="44.55101" lon="7.12638">
        <ele>2140</ele>
        <time>2022-07-18T11:58:09Z</time>
      </trkpt>
      <trkpt lat="44.55103" lon="7.12637">
        <ele>2140.2</ele>
        <time>2022-07-18T11:58:10Z</time>
      </trkpt>
      <trkpt lat="44.55104" lon="7.12635">
        <ele>2140.2</ele>
        <time>2022-07-18T11:58:11Z</time>
      </trkpt>
      <trkpt lat="44.55105" lon="7.12634">
        <ele>2140.4</ele>
        <time>2022-07-18T11:58:12Z</time>
      </trkpt>
      <trkpt lat="44.55106" lon="7.12632">
        <ele>2140.4</ele>
        <time>2022-07-18T11:58:13Z</time>
      </trkpt>
      <trkpt lat="44.55108" lon="7.12631">
        <ele>2140.8</ele>
        <time>2022-07-18T11:58:14Z</time>
      </trkpt>
      <trkpt lat="44.55109" lon="7.12629">
        <ele>2140.8</ele>
        <time>2022-07-18T11:58:15Z</time>
      </trkpt>
      <trkpt lat="44.5511" lon="7.12627">
        <ele>2141.2</ele>
        <time>2022-07-18T11:58:16Z</time>
      </trkpt>
      <trkpt lat="44.55112" lon="7.12625">
        <ele>2141.2</ele>
        <time>2022-07-18T11:58:17Z</time>
      </trkpt>
      <trkpt lat="44.55113" lon="7.12624">
        <ele>2141.4</ele>
        <time>2022-07-18T11:58:18Z</time>
      </trkpt>
      <trkpt lat="44.55114" lon="7.12621">
        <ele>2141.4</ele>
        <time>2022-07-18T11:58:19Z</time>
      </trkpt>
      <trkpt lat="44.55115" lon="7.1262">
        <ele>2141.8</ele>
        <time>2022-07-18T11:58:20Z</time>
      </trkpt>
      <trkpt lat="44.55116" lon="7.12618">
        <ele>2141.8</ele>
        <time>2022-07-18T11:58:21Z</time>
      </trkpt>
      <trkpt lat="44.55118" lon="7.12617">
        <ele>2142</ele>
        <time>2022-07-18T11:58:22Z</time>
      </trkpt>
      <trkpt lat="44.55119" lon="7.12615">
        <ele>2142</ele>
        <time>2022-07-18T11:58:23Z</time>
      </trkpt>
      <trkpt lat="44.5512" lon="7.12615">
        <ele>2142.4</ele>
        <time>2022-07-18T11:58:24Z</time>
      </trkpt>
      <trkpt lat="44.55121" lon="7.12613">
        <ele>2142.4</ele>
        <time>2022-07-18T11:58:25Z</time>
      </trkpt>
      <trkpt lat="44.55122" lon="7.12611">
        <ele>2142.6</ele>
        <time>2022-07-18T11:58:26Z</time>
      </trkpt>
      <trkpt lat="44.55123" lon="7.12609">
        <ele>2142.6</ele>
        <time>2022-07-18T11:58:27Z</time>
      </trkpt>
      <trkpt lat="44.55124" lon="7.12608">
        <ele>2143</ele>
        <time>2022-07-18T11:58:28Z</time>
      </trkpt>
      <trkpt lat="44.55125" lon="7.12606">
        <ele>2143</ele>
        <time>2022-07-18T11:58:29Z</time>
      </trkpt>
      <trkpt lat="44.55126" lon="7.12605">
        <ele>2143.4</ele>
        <time>2022-07-18T11:58:30Z</time>
      </trkpt>
      <trkpt lat="44.55127" lon="7.12603">
        <ele>2143.4</ele>
        <time>2022-07-18T11:58:31Z</time>
      </trkpt>
      <trkpt lat="44.55128" lon="7.12601">
        <ele>2143.6</ele>
        <time>2022-07-18T11:58:32Z</time>
      </trkpt>
      <trkpt lat="44.55129" lon="7.126">
        <ele>2143.6</ele>
        <time>2022-07-18T11:58:33Z</time>
      </trkpt>
      <trkpt lat="44.55129" lon="7.12598">
        <ele>2144</ele>
        <time>2022-07-18T11:58:34Z</time>
      </trkpt>
      <trkpt lat="44.5513" lon="7.12597">
        <ele>2144.2</ele>
        <time>2022-07-18T11:58:35Z</time>
      </trkpt>
      <trkpt lat="44.55131" lon="7.12595">
        <ele>2144.2</ele>
        <time>2022-07-18T11:58:36Z</time>
      </trkpt>
      <trkpt lat="44.55132" lon="7.12593">
        <ele>2144.6</ele>
        <time>2022-07-18T11:58:37Z</time>
      </trkpt>
      <trkpt lat="44.55134" lon="7.12591">
        <ele>2144.6</ele>
        <time>2022-07-18T11:58:38Z</time>
      </trkpt>
      <trkpt lat="44.55135" lon="7.1259">
        <ele>2144.8</ele>
        <time>2022-07-18T11:58:39Z</time>
      </trkpt>
      <trkpt lat="44.55136" lon="7.12589">
        <ele>2144.8</ele>
        <time>2022-07-18T11:58:40Z</time>
      </trkpt>
      <trkpt lat="44.55137" lon="7.12587">
        <ele>2145.2</ele>
        <time>2022-07-18T11:58:41Z</time>
      </trkpt>
      <trkpt lat="44.55138" lon="7.12585">
        <ele>2145.2</ele>
        <time>2022-07-18T11:58:42Z</time>
      </trkpt>
      <trkpt lat="44.55139" lon="7.12584">
        <ele>2145.4</ele>
        <time>2022-07-18T11:58:43Z</time>
      </trkpt>
      <trkpt lat="44.5514" lon="7.12582">
        <ele>2145.4</ele>
        <time>2022-07-18T11:58:44Z</time>
      </trkpt>
      <trkpt lat="44.55141" lon="7.1258">
        <ele>2145.8</ele>
        <time>2022-07-18T11:58:45Z</time>
      </trkpt>
      <trkpt lat="44.55142" lon="7.12578">
        <ele>2145.8</ele>
        <time>2022-07-18T11:58:46Z</time>
      </trkpt>
      <trkpt lat="44.55143" lon="7.12577">
        <ele>2146.2</ele>
        <time>2022-07-18T11:58:47Z</time>
      </trkpt>
      <trkpt lat="44.55145" lon="7.12575">
        <ele>2146.2</ele>
        <time>2022-07-18T11:58:48Z</time>
      </trkpt>
      <trkpt lat="44.55146" lon="7.12574">
        <ele>2146.2</ele>
        <time>2022-07-18T11:58:49Z</time>
      </trkpt>
      <trkpt lat="44.55147" lon="7.12572">
        <ele>2146.4</ele>
        <time>2022-07-18T11:58:50Z</time>
      </trkpt>
      <trkpt lat="44.55148" lon="7.1257">
        <ele>2146.4</ele>
        <time>2022-07-18T11:58:51Z</time>
      </trkpt>
      <trkpt lat="44.55149" lon="7.12568">
        <ele>2146.8</ele>
        <time>2022-07-18T11:58:52Z</time>
      </trkpt>
      <trkpt lat="44.5515" lon="7.12567">
        <ele>2146.8</ele>
        <time>2022-07-18T11:58:53Z</time>
      </trkpt>
      <trkpt lat="44.55151" lon="7.12565">
        <ele>2147</ele>
        <time>2022-07-18T11:58:54Z</time>
      </trkpt>
      <trkpt lat="44.55152" lon="7.12564">
        <ele>2147</ele>
        <time>2022-07-18T11:58:55Z</time>
      </trkpt>
      <trkpt lat="44.55152" lon="7.12562">
        <ele>2147.4</ele>
        <time>2022-07-18T11:58:56Z</time>
      </trkpt>
      <trkpt lat="44.55153" lon="7.1256">
        <ele>2147.4</ele>
        <time>2022-07-18T11:58:57Z</time>
      </trkpt>
      <trkpt lat="44.55154" lon="7.12558">
        <ele>2147.6</ele>
        <time>2022-07-18T11:58:58Z</time>
      </trkpt>
      <trkpt lat="44.55155" lon="7.12556">
        <ele>2147.6</ele>
        <time>2022-07-18T11:58:59Z</time>
      </trkpt>
      <trkpt lat="44.55156" lon="7.12555">
        <ele>2148</ele>
        <time>2022-07-18T11:59:00Z</time>
      </trkpt>
      <trkpt lat="44.55158" lon="7.12553">
        <ele>2148</ele>
        <time>2022-07-18T11:59:01Z</time>
      </trkpt>
      <trkpt lat="44.55159" lon="7.12551">
        <ele>2148.4</ele>
        <time>2022-07-18T11:59:02Z</time>
      </trkpt>
      <trkpt lat="44.5516" lon="7.12549">
        <ele>2148.6</ele>
        <time>2022-07-18T11:59:03Z</time>
      </trkpt>
      <trkpt lat="44.5516" lon="7.12547">
        <ele>2148.8</ele>
        <time>2022-07-18T11:59:04Z</time>
      </trkpt>
      <trkpt lat="44.55161" lon="7.12545">
        <ele>2148.8</ele>
        <time>2022-07-18T11:59:05Z</time>
      </trkpt>
      <trkpt lat="44.55162" lon="7.12543">
        <ele>2149</ele>
        <time>2022-07-18T11:59:06Z</time>
      </trkpt>
      <trkpt lat="44.55163" lon="7.12542">
        <ele>2149</ele>
        <time>2022-07-18T11:59:07Z</time>
      </trkpt>
      <trkpt lat="44.55164" lon="7.1254">
        <ele>2149.4</ele>
        <time>2022-07-18T11:59:08Z</time>
      </trkpt>
      <trkpt lat="44.55164" lon="7.12538">
        <ele>2149.4</ele>
        <time>2022-07-18T11:59:09Z</time>
      </trkpt>
      <trkpt lat="44.55165" lon="7.12536">
        <ele>2149.6</ele>
        <time>2022-07-18T11:59:10Z</time>
      </trkpt>
      <trkpt lat="44.55166" lon="7.12534">
        <ele>2149.6</ele>
        <time>2022-07-18T11:59:11Z</time>
      </trkpt>
      <trkpt lat="44.55166" lon="7.12532">
        <ele>2150</ele>
        <time>2022-07-18T11:59:12Z</time>
      </trkpt>
      <trkpt lat="44.55167" lon="7.1253">
        <ele>2150</ele>
        <time>2022-07-18T11:59:13Z</time>
      </trkpt>
      <trkpt lat="44.55167" lon="7.12528">
        <ele>2150.4</ele>
        <time>2022-07-18T11:59:14Z</time>
      </trkpt>
      <trkpt lat="44.55168" lon="7.12526">
        <ele>2150.4</ele>
        <time>2022-07-18T11:59:15Z</time>
      </trkpt>
      <trkpt lat="44.55169" lon="7.12524">
        <ele>2150.8</ele>
        <time>2022-07-18T11:59:16Z</time>
      </trkpt>
      <trkpt lat="44.55169" lon="7.12522">
        <ele>2150.8</ele>
        <time>2022-07-18T11:59:17Z</time>
      </trkpt>
      <trkpt lat="44.5517" lon="7.12521">
        <ele>2151.2</ele>
        <time>2022-07-18T11:59:18Z</time>
      </trkpt>
      <trkpt lat="44.55171" lon="7.12519">
        <ele>2151.2</ele>
        <time>2022-07-18T11:59:19Z</time>
      </trkpt>
      <trkpt lat="44.55172" lon="7.12517">
        <ele>2151.4</ele>
        <time>2022-07-18T11:59:20Z</time>
      </trkpt>
      <trkpt lat="44.55173" lon="7.12515">
        <ele>2151.6</ele>
        <time>2022-07-18T11:59:21Z</time>
      </trkpt>
      <trkpt lat="44.55173" lon="7.12512">
        <ele>2151.6</ele>
        <time>2022-07-18T11:59:22Z</time>
      </trkpt>
      <trkpt lat="44.55174" lon="7.1251">
        <ele>2151.8</ele>
        <time>2022-07-18T11:59:23Z</time>
      </trkpt>
      <trkpt lat="44.55175" lon="7.12508">
        <ele>2151.8</ele>
        <time>2022-07-18T11:59:24Z</time>
      </trkpt>
      <trkpt lat="44.55176" lon="7.12506">
        <ele>2152.2</ele>
        <time>2022-07-18T11:59:25Z</time>
      </trkpt>
      <trkpt lat="44.55176" lon="7.12504">
        <ele>2152.4</ele>
        <time>2022-07-18T11:59:26Z</time>
      </trkpt>
      <trkpt lat="44.55177" lon="7.12502">
        <ele>2152.4</ele>
        <time>2022-07-18T11:59:27Z</time>
      </trkpt>
      <trkpt lat="44.55178" lon="7.125">
        <ele>2152.8</ele>
        <time>2022-07-18T11:59:28Z</time>
      </trkpt>
      <trkpt lat="44.55179" lon="7.12498">
        <ele>2152.8</ele>
        <time>2022-07-18T11:59:29Z</time>
      </trkpt>
      <trkpt lat="44.5518" lon="7.12495">
        <ele>2153</ele>
        <time>2022-07-18T11:59:30Z</time>
      </trkpt>
      <trkpt lat="44.5518" lon="7.12493">
        <ele>2153</ele>
        <time>2022-07-18T11:59:31Z</time>
      </trkpt>
      <trkpt lat="44.55181" lon="7.1249">
        <ele>2153.4</ele>
        <time>2022-07-18T11:59:32Z</time>
      </trkpt>
      <trkpt lat="44.55181" lon="7.12488">
        <ele>2153.6</ele>
        <time>2022-07-18T11:59:33Z</time>
      </trkpt>
      <trkpt lat="44.55181" lon="7.12485">
        <ele>2153.8</ele>
        <time>2022-07-18T11:59:34Z</time>
      </trkpt>
      <trkpt lat="44.55181" lon="7.12483">
        <ele>2153.8</ele>
        <time>2022-07-18T11:59:35Z</time>
      </trkpt>
      <trkpt lat="44.55181" lon="7.1248">
        <ele>2154</ele>
        <time>2022-07-18T11:59:36Z</time>
      </trkpt>
      <trkpt lat="44.55182" lon="7.12477">
        <ele>2154</ele>
        <time>2022-07-18T11:59:37Z</time>
      </trkpt>
      <trkpt lat="44.55182" lon="7.12474">
        <ele>2154.4</ele>
        <time>2022-07-18T11:59:38Z</time>
      </trkpt>
      <trkpt lat="44.55182" lon="7.12471">
        <ele>2154.4</ele>
        <time>2022-07-18T11:59:39Z</time>
      </trkpt>
      <trkpt lat="44.55182" lon="7.12468">
        <ele>2154.8</ele>
        <time>2022-07-18T11:59:40Z</time>
      </trkpt>
      <trkpt lat="44.55182" lon="7.12465">
        <ele>2154.8</ele>
        <time>2022-07-18T11:59:41Z</time>
      </trkpt>
      <trkpt lat="44.55182" lon="7.12462">
        <ele>2155</ele>
        <time>2022-07-18T11:59:42Z</time>
      </trkpt>
      <trkpt lat="44.55182" lon="7.12459">
        <ele>2155</ele>
        <time>2022-07-18T11:59:43Z</time>
      </trkpt>
      <trkpt lat="44.55181" lon="7.12456">
        <ele>2155.4</ele>
        <time>2022-07-18T11:59:44Z</time>
      </trkpt>
      <trkpt lat="44.55181" lon="7.12453">
        <ele>2155.6</ele>
        <time>2022-07-18T11:59:45Z</time>
      </trkpt>
      <trkpt lat="44.5518" lon="7.12451">
        <ele>2155.6</ele>
        <time>2022-07-18T11:59:46Z</time>
      </trkpt>
      <trkpt lat="44.5518" lon="7.12448">
        <ele>2156</ele>
        <time>2022-07-18T11:59:47Z</time>
      </trkpt>
      <trkpt lat="44.55179" lon="7.12445">
        <ele>2156.2</ele>
        <time>2022-07-18T11:59:48Z</time>
      </trkpt>
      <trkpt lat="44.55179" lon="7.12442">
        <ele>2156.2</ele>
        <time>2022-07-18T11:59:49Z</time>
      </trkpt>
      <trkpt lat="44.55178" lon="7.12439">
        <ele>2156.6</ele>
        <time>2022-07-18T11:59:50Z</time>
      </trkpt>
      <trkpt lat="44.55178" lon="7.12436">
        <ele>2156.8</ele>
        <time>2022-07-18T11:59:51Z</time>
      </trkpt>
      <trkpt lat="44.55177" lon="7.12433">
        <ele>2157</ele>
        <time>2022-07-18T11:59:52Z</time>
      </trkpt>
      <trkpt lat="44.55177" lon="7.12431">
        <ele>2157</ele>
        <time>2022-07-18T11:59:53Z</time>
      </trkpt>
      <trkpt lat="44.55176" lon="7.12428">
        <ele>2157.2</ele>
        <time>2022-07-18T11:59:54Z</time>
      </trkpt>
      <trkpt lat="44.55176" lon="7.12425">
        <ele>2157.2</ele>
        <time>2022-07-18T11:59:55Z</time>
      </trkpt>
      <trkpt lat="44.55175" lon="7.12422">
        <ele>2157.6</ele>
        <time>2022-07-18T11:59:56Z</time>
      </trkpt>
      <trkpt lat="44.55175" lon="7.1242">
        <ele>2157.6</ele>
        <time>2022-07-18T11:59:57Z</time>
      </trkpt>
      <trkpt lat="44.55174" lon="7.12417">
        <ele>2158</ele>
        <time>2022-07-18T11:59:58Z</time>
      </trkpt>
      <trkpt lat="44.55174" lon="7.12414">
        <ele>2158</ele>
        <time>2022-07-18T11:59:59Z</time>
      </trkpt>
      <trkpt lat="44.55173" lon="7.12411">
        <ele>2158.2</ele>
        <time>2022-07-18T12:00:00Z</time>
      </trkpt>
      <trkpt lat="44.55173" lon="7.12408">
        <ele>2158.2</ele>
        <time>2022-07-18T12:00:01Z</time>
      </trkpt>
      <trkpt lat="44.55172" lon="7.12406">
        <ele>2158.6</ele>
        <time>2022-07-18T12:00:02Z</time>
      </trkpt>
      <trkpt lat="44.55171" lon="7.12403">
        <ele>2158.6</ele>
        <time>2022-07-18T12:00:03Z</time>
      </trkpt>
      <trkpt lat="44.55171" lon="7.124">
        <ele>2159</ele>
        <time>2022-07-18T12:00:04Z</time>
      </trkpt>
      <trkpt lat="44.5517" lon="7.12397">
        <ele>2159</ele>
        <time>2022-07-18T12:00:05Z</time>
      </trkpt>
      <trkpt lat="44.55169" lon="7.12394">
        <ele>2159.2</ele>
        <time>2022-07-18T12:00:06Z</time>
      </trkpt>
      <trkpt lat="44.55168" lon="7.12392">
        <ele>2159.6</ele>
        <time>2022-07-18T12:00:07Z</time>
      </trkpt>
      <trkpt lat="44.55167" lon="7.12389">
        <ele>2159.8</ele>
        <time>2022-07-18T12:00:08Z</time>
      </trkpt>
      <trkpt lat="44.55166" lon="7.12386">
        <ele>2160</ele>
        <time>2022-07-18T12:00:09Z</time>
      </trkpt>
      <trkpt lat="44.55166" lon="7.12383">
        <ele>2160</ele>
        <time>2022-07-18T12:00:10Z</time>
      </trkpt>
      <trkpt lat="44.55165" lon="7.12381">
        <ele>2160.4</ele>
        <time>2022-07-18T12:00:11Z</time>
      </trkpt>
      <trkpt lat="44.55164" lon="7.12378">
        <ele>2160.4</ele>
        <time>2022-07-18T12:00:12Z</time>
      </trkpt>
      <trkpt lat="44.55163" lon="7.12375">
        <ele>2160.8</ele>
        <time>2022-07-18T12:00:13Z</time>
      </trkpt>
      <trkpt lat="44.55162" lon="7.12372">
        <ele>2160.8</ele>
        <time>2022-07-18T12:00:14Z</time>
      </trkpt>
      <trkpt lat="44.55161" lon="7.12369">
        <ele>2161.2</ele>
        <time>2022-07-18T12:00:15Z</time>
      </trkpt>
      <trkpt lat="44.5516" lon="7.12366">
        <ele>2161.2</ele>
        <time>2022-07-18T12:00:16Z</time>
      </trkpt>
      <trkpt lat="44.55159" lon="7.12364">
        <ele>2161.6</ele>
        <time>2022-07-18T12:00:17Z</time>
      </trkpt>
      <trkpt lat="44.55158" lon="7.12361">
        <ele>2161.6</ele>
        <time>2022-07-18T12:00:18Z</time>
      </trkpt>
      <trkpt lat="44.55157" lon="7.12359">
        <ele>2162</ele>
        <time>2022-07-18T12:00:19Z</time>
      </trkpt>
      <trkpt lat="44.55156" lon="7.12356">
        <ele>2162</ele>
        <time>2022-07-18T12:00:20Z</time>
      </trkpt>
      <trkpt lat="44.55156" lon="7.12353">
        <ele>2162.4</ele>
        <time>2022-07-18T12:00:21Z</time>
      </trkpt>
      <trkpt lat="44.55155" lon="7.12351">
        <ele>2162.6</ele>
        <time>2022-07-18T12:00:22Z</time>
      </trkpt>
      <trkpt lat="44.55154" lon="7.12348">
        <ele>2162.8</ele>
        <time>2022-07-18T12:00:23Z</time>
      </trkpt>
      <trkpt lat="44.55153" lon="7.12346">
        <ele>2163</ele>
        <time>2022-07-18T12:00:24Z</time>
      </trkpt>
      <trkpt lat="44.55152" lon="7.12344">
        <ele>2163</ele>
        <time>2022-07-18T12:00:25Z</time>
      </trkpt>
      <trkpt lat="44.5515" lon="7.12342">
        <ele>2163.4</ele>
        <time>2022-07-18T12:00:26Z</time>
      </trkpt>
      <trkpt lat="44.55149" lon="7.1234">
        <ele>2163.4</ele>
        <time>2022-07-18T12:00:27Z</time>
      </trkpt>
      <trkpt lat="44.55148" lon="7.12338">
        <ele>2163.6</ele>
        <time>2022-07-18T12:00:28Z</time>
      </trkpt>
      <trkpt lat="44.55147" lon="7.12336">
        <ele>2163.6</ele>
        <time>2022-07-18T12:00:29Z</time>
      </trkpt>
      <trkpt lat="44.55146" lon="7.12334">
        <ele>2163.8</ele>
        <time>2022-07-18T12:00:30Z</time>
      </trkpt>
      <trkpt lat="44.55145" lon="7.12332">
        <ele>2163.8</ele>
        <time>2022-07-18T12:00:31Z</time>
      </trkpt>
      <trkpt lat="44.55144" lon="7.1233">
        <ele>2164.2</ele>
        <time>2022-07-18T12:00:32Z</time>
      </trkpt>
      <trkpt lat="44.55143" lon="7.12327">
        <ele>2164.2</ele>
        <time>2022-07-18T12:00:33Z</time>
      </trkpt>
      <trkpt lat="44.55142" lon="7.12325">
        <ele>2164.4</ele>
        <time>2022-07-18T12:00:34Z</time>
      </trkpt>
      <trkpt lat="44.55141" lon="7.12323">
        <ele>2164.4</ele>
        <time>2022-07-18T12:00:35Z</time>
      </trkpt>
      <trkpt lat="44.5514" lon="7.12321">
        <ele>2164.8</ele>
        <time>2022-07-18T12:00:36Z</time>
      </trkpt>
      <trkpt lat="44.55139" lon="7.12319">
        <ele>2164.8</ele>
        <time>2022-07-18T12:00:37Z</time>
      </trkpt>
      <trkpt lat="44.55138" lon="7.12317">
        <ele>2165</ele>
        <time>2022-07-18T12:00:38Z</time>
      </trkpt>
      <trkpt lat="44.55137" lon="7.12315">
        <ele>2165</ele>
        <time>2022-07-18T12:00:39Z</time>
      </trkpt>
      <trkpt lat="44.55136" lon="7.12313">
        <ele>2165.2</ele>
        <time>2022-07-18T12:00:40Z</time>
      </trkpt>
      <trkpt lat="44.55135" lon="7.1231">
        <ele>2165.2</ele>
        <time>2022-07-18T12:00:41Z</time>
      </trkpt>
      <trkpt lat="44.55134" lon="7.12308">
        <ele>2165.6</ele>
        <time>2022-07-18T12:00:42Z</time>
      </trkpt>
      <trkpt lat="44.55133" lon="7.12306">
        <ele>2165.6</ele>
        <time>2022-07-18T12:00:43Z</time>
      </trkpt>
      <trkpt lat="44.55132" lon="7.12304">
        <ele>2166</ele>
        <time>2022-07-18T12:00:44Z</time>
      </trkpt>
      <trkpt lat="44.55132" lon="7.12301">
        <ele>2166</ele>
        <time>2022-07-18T12:00:45Z</time>
      </trkpt>
      <trkpt lat="44.55131" lon="7.12298">
        <ele>2166.2</ele>
        <time>2022-07-18T12:00:46Z</time>
      </trkpt>
      <trkpt lat="44.5513" lon="7.12296">
        <ele>2166.2</ele>
        <time>2022-07-18T12:00:47Z</time>
      </trkpt>
      <trkpt lat="44.55129" lon="7.12293">
        <ele>2166.2</ele>
        <time>2022-07-18T12:00:48Z</time>
      </trkpt>
      <trkpt lat="44.55129" lon="7.1229">
        <ele>2166.4</ele>
        <time>2022-07-18T12:00:49Z</time>
      </trkpt>
      <trkpt lat="44.55128" lon="7.12287">
        <ele>2166.4</ele>
        <time>2022-07-18T12:00:50Z</time>
      </trkpt>
      <trkpt lat="44.55127" lon="7.12284">
        <ele>2166.8</ele>
        <time>2022-07-18T12:00:51Z</time>
      </trkpt>
      <trkpt lat="44.55127" lon="7.12281">
        <ele>2166.8</ele>
        <time>2022-07-18T12:00:52Z</time>
      </trkpt>
      <trkpt lat="44.55127" lon="7.12278">
        <ele>2167</ele>
        <time>2022-07-18T12:00:53Z</time>
      </trkpt>
      <trkpt lat="44.55126" lon="7.12276">
        <ele>2167.2</ele>
        <time>2022-07-18T12:00:54Z</time>
      </trkpt>
      <trkpt lat="44.55126" lon="7.12273">
        <ele>2167.6</ele>
        <time>2022-07-18T12:00:55Z</time>
      </trkpt>
      <trkpt lat="44.55125" lon="7.1227">
        <ele>2167.8</ele>
        <time>2022-07-18T12:00:56Z</time>
      </trkpt>
      <trkpt lat="44.55125" lon="7.12267">
        <ele>2167.8</ele>
        <time>2022-07-18T12:00:57Z</time>
      </trkpt>
      <trkpt lat="44.55124" lon="7.12264">
        <ele>2168</ele>
        <time>2022-07-18T12:00:59Z</time>
      </trkpt>
      <trkpt lat="44.55124" lon="7.12261">
        <ele>2168.2</ele>
        <time>2022-07-18T12:01:00Z</time>
      </trkpt>
      <trkpt lat="44.55123" lon="7.12258">
        <ele>2168.2</ele>
        <time>2022-07-18T12:01:01Z</time>
      </trkpt>
      <trkpt lat="44.55123" lon="7.12256">
        <ele>2168.6</ele>
        <time>2022-07-18T12:01:02Z</time>
      </trkpt>
      <trkpt lat="44.55121" lon="7.1225">
        <ele>2168.6</ele>
        <time>2022-07-18T12:01:03Z</time>
      </trkpt>
      <trkpt lat="44.5512" lon="7.12248">
        <ele>2168.8</ele>
        <time>2022-07-18T12:01:04Z</time>
      </trkpt>
      <trkpt lat="44.5512" lon="7.12245">
        <ele>2168.8</ele>
        <time>2022-07-18T12:01:05Z</time>
      </trkpt>
      <trkpt lat="44.55119" lon="7.12242">
        <ele>2169.2</ele>
        <time>2022-07-18T12:01:06Z</time>
      </trkpt>
      <trkpt lat="44.55118" lon="7.12239">
        <ele>2169.2</ele>
        <time>2022-07-18T12:01:07Z</time>
      </trkpt>
      <trkpt lat="44.55117" lon="7.12236">
        <ele>2169.4</ele>
        <time>2022-07-18T12:01:08Z</time>
      </trkpt>
      <trkpt lat="44.55117" lon="7.12234">
        <ele>2169.4</ele>
        <time>2022-07-18T12:01:09Z</time>
      </trkpt>
      <trkpt lat="44.55116" lon="7.12231">
        <ele>2169.6</ele>
        <time>2022-07-18T12:01:10Z</time>
      </trkpt>
      <trkpt lat="44.55115" lon="7.12229">
        <ele>2169.8</ele>
        <time>2022-07-18T12:01:11Z</time>
      </trkpt>
      <trkpt lat="44.55114" lon="7.12226">
        <ele>2169.8</ele>
        <time>2022-07-18T12:01:12Z</time>
      </trkpt>
      <trkpt lat="44.55113" lon="7.12223">
        <ele>2170.2</ele>
        <time>2022-07-18T12:01:13Z</time>
      </trkpt>
      <trkpt lat="44.55113" lon="7.12221">
        <ele>2170.2</ele>
        <time>2022-07-18T12:01:14Z</time>
      </trkpt>
      <trkpt lat="44.55112" lon="7.12218">
        <ele>2170.4</ele>
        <time>2022-07-18T12:01:15Z</time>
      </trkpt>
      <trkpt lat="44.55111" lon="7.12216">
        <ele>2170.4</ele>
        <time>2022-07-18T12:01:16Z</time>
      </trkpt>
      <trkpt lat="44.5511" lon="7.12214">
        <ele>2170.6</ele>
        <time>2022-07-18T12:01:17Z</time>
      </trkpt>
      <trkpt lat="44.55109" lon="7.12211">
        <ele>2170.6</ele>
        <time>2022-07-18T12:01:18Z</time>
      </trkpt>
      <trkpt lat="44.55108" lon="7.12208">
        <ele>2171</ele>
        <time>2022-07-18T12:01:19Z</time>
      </trkpt>
      <trkpt lat="44.55107" lon="7.12206">
        <ele>2171</ele>
        <time>2022-07-18T12:01:20Z</time>
      </trkpt>
      <trkpt lat="44.55106" lon="7.12203">
        <ele>2171.4</ele>
        <time>2022-07-18T12:01:21Z</time>
      </trkpt>
      <trkpt lat="44.55105" lon="7.12201">
        <ele>2171.4</ele>
        <time>2022-07-18T12:01:22Z</time>
      </trkpt>
      <trkpt lat="44.55104" lon="7.12198">
        <ele>2171.6</ele>
        <time>2022-07-18T12:01:23Z</time>
      </trkpt>
      <trkpt lat="44.55103" lon="7.12196">
        <ele>2171.6</ele>
        <time>2022-07-18T12:01:24Z</time>
      </trkpt>
      <trkpt lat="44.55102" lon="7.12193">
        <ele>2172</ele>
        <time>2022-07-18T12:01:25Z</time>
      </trkpt>
      <trkpt lat="44.551" lon="7.12191">
        <ele>2172</ele>
        <time>2022-07-18T12:01:26Z</time>
      </trkpt>
      <trkpt lat="44.55099" lon="7.12189">
        <ele>2172.4</ele>
        <time>2022-07-18T12:01:27Z</time>
      </trkpt>
      <trkpt lat="44.55098" lon="7.12187">
        <ele>2172.4</ele>
        <time>2022-07-18T12:01:28Z</time>
      </trkpt>
      <trkpt lat="44.55096" lon="7.12184">
        <ele>2172.6</ele>
        <time>2022-07-18T12:01:29Z</time>
      </trkpt>
      <trkpt lat="44.55095" lon="7.12182">
        <ele>2172.6</ele>
        <time>2022-07-18T12:01:30Z</time>
      </trkpt>
      <trkpt lat="44.55094" lon="7.12179">
        <ele>2172.8</ele>
        <time>2022-07-18T12:01:31Z</time>
      </trkpt>
      <trkpt lat="44.55094" lon="7.12177">
        <ele>2172.8</ele>
        <time>2022-07-18T12:01:32Z</time>
      </trkpt>
      <trkpt lat="44.55093" lon="7.12174">
        <ele>2173.2</ele>
        <time>2022-07-18T12:01:33Z</time>
      </trkpt>
      <trkpt lat="44.55092" lon="7.12171">
        <ele>2173.2</ele>
        <time>2022-07-18T12:01:34Z</time>
      </trkpt>
      <trkpt lat="44.5509" lon="7.12168">
        <ele>2173.4</ele>
        <time>2022-07-18T12:01:35Z</time>
      </trkpt>
      <trkpt lat="44.55089" lon="7.12166">
        <ele>2173.4</ele>
        <time>2022-07-18T12:01:36Z</time>
      </trkpt>
      <trkpt lat="44.55088" lon="7.12163">
        <ele>2173.8</ele>
        <time>2022-07-18T12:01:37Z</time>
      </trkpt>
      <trkpt lat="44.55088" lon="7.1216">
        <ele>2173.8</ele>
        <time>2022-07-18T12:01:38Z</time>
      </trkpt>
      <trkpt lat="44.55087" lon="7.12157">
        <ele>2174.2</ele>
        <time>2022-07-18T12:01:39Z</time>
      </trkpt>
      <trkpt lat="44.55086" lon="7.12155">
        <ele>2174.2</ele>
        <time>2022-07-18T12:01:40Z</time>
      </trkpt>
      <trkpt lat="44.55085" lon="7.12152">
        <ele>2174.4</ele>
        <time>2022-07-18T12:01:41Z</time>
      </trkpt>
      <trkpt lat="44.55085" lon="7.12149">
        <ele>2174.4</ele>
        <time>2022-07-18T12:01:42Z</time>
      </trkpt>
      <trkpt lat="44.55084" lon="7.12145">
        <ele>2174.8</ele>
        <time>2022-07-18T12:01:43Z</time>
      </trkpt>
      <trkpt lat="44.55084" lon="7.12142">
        <ele>2174.8</ele>
        <time>2022-07-18T12:01:44Z</time>
      </trkpt>
      <trkpt lat="44.55084" lon="7.12139">
        <ele>2175</ele>
        <time>2022-07-18T12:01:45Z</time>
      </trkpt>
      <trkpt lat="44.55084" lon="7.12136">
        <ele>2175</ele>
        <time>2022-07-18T12:01:46Z</time>
      </trkpt>
      <trkpt lat="44.55084" lon="7.12133">
        <ele>2175.2</ele>
        <time>2022-07-18T12:01:47Z</time>
      </trkpt>
      <trkpt lat="44.55084" lon="7.12129">
        <ele>2175.2</ele>
        <time>2022-07-18T12:01:48Z</time>
      </trkpt>
      <trkpt lat="44.55084" lon="7.12126">
        <ele>2175.2</ele>
        <time>2022-07-18T12:01:49Z</time>
      </trkpt>
      <trkpt lat="44.55084" lon="7.12123">
        <ele>2175.6</ele>
        <time>2022-07-18T12:01:50Z</time>
      </trkpt>
      <trkpt lat="44.55084" lon="7.1212">
        <ele>2175.6</ele>
        <time>2022-07-18T12:01:51Z</time>
      </trkpt>
      <trkpt lat="44.55084" lon="7.12117">
        <ele>2175.8</ele>
        <time>2022-07-18T12:01:52Z</time>
      </trkpt>
      <trkpt lat="44.55084" lon="7.12113">
        <ele>2175.8</ele>
        <time>2022-07-18T12:01:53Z</time>
      </trkpt>
      <trkpt lat="44.55084" lon="7.1211">
        <ele>2176.2</ele>
        <time>2022-07-18T12:01:54Z</time>
      </trkpt>
      <trkpt lat="44.55084" lon="7.12107">
        <ele>2176.2</ele>
        <time>2022-07-18T12:01:55Z</time>
      </trkpt>
      <trkpt lat="44.55084" lon="7.12104">
        <ele>2176.4</ele>
        <time>2022-07-18T12:01:56Z</time>
      </trkpt>
      <trkpt lat="44.55084" lon="7.121">
        <ele>2176.4</ele>
        <time>2022-07-18T12:01:57Z</time>
      </trkpt>
      <trkpt lat="44.55085" lon="7.12097">
        <ele>2176.6</ele>
        <time>2022-07-18T12:01:58Z</time>
      </trkpt>
      <trkpt lat="44.55085" lon="7.12094">
        <ele>2176.8</ele>
        <time>2022-07-18T12:01:59Z</time>
      </trkpt>
      <trkpt lat="44.55085" lon="7.1209">
        <ele>2176.8</ele>
        <time>2022-07-18T12:02:00Z</time>
      </trkpt>
      <trkpt lat="44.55085" lon="7.12086">
        <ele>2177.2</ele>
        <time>2022-07-18T12:02:01Z</time>
      </trkpt>
      <trkpt lat="44.55085" lon="7.12083">
        <ele>2177.2</ele>
        <time>2022-07-18T12:02:02Z</time>
      </trkpt>
      <trkpt lat="44.55086" lon="7.12079">
        <ele>2177.4</ele>
        <time>2022-07-18T12:02:03Z</time>
      </trkpt>
      <trkpt lat="44.55086" lon="7.12076">
        <ele>2177.4</ele>
        <time>2022-07-18T12:02:04Z</time>
      </trkpt>
      <trkpt lat="44.55086" lon="7.12072">
        <ele>2177.4</ele>
        <time>2022-07-18T12:02:05Z</time>
      </trkpt>
      <trkpt lat="44.55086" lon="7.12069">
        <ele>2177.8</ele>
        <time>2022-07-18T12:02:06Z</time>
      </trkpt>
      <trkpt lat="44.55086" lon="7.12065">
        <ele>2177.8</ele>
        <time>2022-07-18T12:02:07Z</time>
      </trkpt>
      <trkpt lat="44.55086" lon="7.12062">
        <ele>2178</ele>
        <time>2022-07-18T12:02:08Z</time>
      </trkpt>
      <trkpt lat="44.55086" lon="7.12058">
        <ele>2178</ele>
        <time>2022-07-18T12:02:09Z</time>
      </trkpt>
      <trkpt lat="44.55086" lon="7.12055">
        <ele>2178.4</ele>
        <time>2022-07-18T12:02:10Z</time>
      </trkpt>
      <trkpt lat="44.55087" lon="7.12051">
        <ele>2178.4</ele>
        <time>2022-07-18T12:02:11Z</time>
      </trkpt>
      <trkpt lat="44.55087" lon="7.12048">
        <ele>2178.6</ele>
        <time>2022-07-18T12:02:12Z</time>
      </trkpt>
      <trkpt lat="44.55087" lon="7.12045">
        <ele>2178.6</ele>
        <time>2022-07-18T12:02:13Z</time>
      </trkpt>
      <trkpt lat="44.55088" lon="7.12042">
        <ele>2179</ele>
        <time>2022-07-18T12:02:14Z</time>
      </trkpt>
      <trkpt lat="44.55088" lon="7.12039">
        <ele>2179</ele>
        <time>2022-07-18T12:02:15Z</time>
      </trkpt>
      <trkpt lat="44.55088" lon="7.12035">
        <ele>2179.2</ele>
        <time>2022-07-18T12:02:16Z</time>
      </trkpt>
      <trkpt lat="44.55088" lon="7.12032">
        <ele>2179.2</ele>
        <time>2022-07-18T12:02:17Z</time>
      </trkpt>
      <trkpt lat="44.55089" lon="7.12029">
        <ele>2179.4</ele>
        <time>2022-07-18T12:02:18Z</time>
      </trkpt>
      <trkpt lat="44.55089" lon="7.12025">
        <ele>2179.4</ele>
        <time>2022-07-18T12:02:19Z</time>
      </trkpt>
      <trkpt lat="44.55089" lon="7.12022">
        <ele>2179.6</ele>
        <time>2022-07-18T12:02:20Z</time>
      </trkpt>
      <trkpt lat="44.5509" lon="7.12019">
        <ele>2179.8</ele>
        <time>2022-07-18T12:02:21Z</time>
      </trkpt>
      <trkpt lat="44.5509" lon="7.12016">
        <ele>2179.8</ele>
        <time>2022-07-18T12:02:22Z</time>
      </trkpt>
      <trkpt lat="44.55091" lon="7.12013">
        <ele>2180.2</ele>
        <time>2022-07-18T12:02:23Z</time>
      </trkpt>
      <trkpt lat="44.55091" lon="7.1201">
        <ele>2180.2</ele>
        <time>2022-07-18T12:02:24Z</time>
      </trkpt>
      <trkpt lat="44.55091" lon="7.12006">
        <ele>2180.6</ele>
        <time>2022-07-18T12:02:25Z</time>
      </trkpt>
      <trkpt lat="44.55091" lon="7.12003">
        <ele>2180.6</ele>
        <time>2022-07-18T12:02:26Z</time>
      </trkpt>
      <trkpt lat="44.55092" lon="7.12">
        <ele>2180.8</ele>
        <time>2022-07-18T12:02:27Z</time>
      </trkpt>
      <trkpt lat="44.55092" lon="7.11997">
        <ele>2180.8</ele>
        <time>2022-07-18T12:02:28Z</time>
      </trkpt>
      <trkpt lat="44.55093" lon="7.11995">
        <ele>2181.2</ele>
        <time>2022-07-18T12:02:29Z</time>
      </trkpt>
      <trkpt lat="44.55093" lon="7.11992">
        <ele>2181.2</ele>
        <time>2022-07-18T12:02:30Z</time>
      </trkpt>
      <trkpt lat="44.55094" lon="7.11989">
        <ele>2181.6</ele>
        <time>2022-07-18T12:02:31Z</time>
      </trkpt>
      <trkpt lat="44.55094" lon="7.11986">
        <ele>2181.6</ele>
        <time>2022-07-18T12:02:32Z</time>
      </trkpt>
      <trkpt lat="44.55094" lon="7.11983">
        <ele>2181.8</ele>
        <time>2022-07-18T12:02:33Z</time>
      </trkpt>
      <trkpt lat="44.55094" lon="7.1198">
        <ele>2182</ele>
        <time>2022-07-18T12:02:34Z</time>
      </trkpt>
      <trkpt lat="44.55094" lon="7.11977">
        <ele>2182</ele>
        <time>2022-07-18T12:02:35Z</time>
      </trkpt>
      <trkpt lat="44.55094" lon="7.11974">
        <ele>2182.2</ele>
        <time>2022-07-18T12:02:36Z</time>
      </trkpt>
      <trkpt lat="44.55095" lon="7.11971">
        <ele>2182.2</ele>
        <time>2022-07-18T12:02:37Z</time>
      </trkpt>
      <trkpt lat="44.55095" lon="7.11967">
        <ele>2182.6</ele>
        <time>2022-07-18T12:02:38Z</time>
      </trkpt>
      <trkpt lat="44.55096" lon="7.11964">
        <ele>2182.6</ele>
        <time>2022-07-18T12:02:39Z</time>
      </trkpt>
      <trkpt lat="44.55097" lon="7.11962">
        <ele>2182.8</ele>
        <time>2022-07-18T12:02:40Z</time>
      </trkpt>
      <trkpt lat="44.55098" lon="7.11959">
        <ele>2182.8</ele>
        <time>2022-07-18T12:02:41Z</time>
      </trkpt>
      <trkpt lat="44.55099" lon="7.11957">
        <ele>2182.8</ele>
        <time>2022-07-18T12:02:42Z</time>
      </trkpt>
      <trkpt lat="44.55101" lon="7.11956">
        <ele>2182.8</ele>
        <time>2022-07-18T12:02:43Z</time>
      </trkpt>
      <trkpt lat="44.55103" lon="7.11953">
        <ele>2183</ele>
        <time>2022-07-18T12:02:44Z</time>
      </trkpt>
      <trkpt lat="44.55105" lon="7.11951">
        <ele>2183</ele>
        <time>2022-07-18T12:02:45Z</time>
      </trkpt>
      <trkpt lat="44.55107" lon="7.11948">
        <ele>2183</ele>
        <time>2022-07-18T12:02:46Z</time>
      </trkpt>
      <trkpt lat="44.55109" lon="7.11946">
        <ele>2183</ele>
        <time>2022-07-18T12:02:47Z</time>
      </trkpt>
      <trkpt lat="44.55111" lon="7.11943">
        <ele>2183</ele>
        <time>2022-07-18T12:02:48Z</time>
      </trkpt>
      <trkpt lat="44.55112" lon="7.11941">
        <ele>2183</ele>
        <time>2022-07-18T12:02:49Z</time>
      </trkpt>
      <trkpt lat="44.55114" lon="7.11939">
        <ele>2183</ele>
        <time>2022-07-18T12:02:50Z</time>
      </trkpt>
      <trkpt lat="44.55116" lon="7.11937">
        <ele>2183</ele>
        <time>2022-07-18T12:02:51Z</time>
      </trkpt>
      <trkpt lat="44.55118" lon="7.11934">
        <ele>2183</ele>
        <time>2022-07-18T12:02:52Z</time>
      </trkpt>
      <trkpt lat="44.55119" lon="7.11932">
        <ele>2183</ele>
        <time>2022-07-18T12:02:53Z</time>
      </trkpt>
      <trkpt lat="44.55121" lon="7.1193">
        <ele>2183</ele>
        <time>2022-07-18T12:02:54Z</time>
      </trkpt>
      <trkpt lat="44.55122" lon="7.11927">
        <ele>2183</ele>
        <time>2022-07-18T12:02:55Z</time>
      </trkpt>
      <trkpt lat="44.55123" lon="7.11925">
        <ele>2182.6</ele>
        <time>2022-07-18T12:02:56Z</time>
      </trkpt>
      <trkpt lat="44.55124" lon="7.11922">
        <ele>2182.6</ele>
        <time>2022-07-18T12:02:57Z</time>
      </trkpt>
      <trkpt lat="44.55126" lon="7.1192">
        <ele>2182.6</ele>
        <time>2022-07-18T12:02:58Z</time>
      </trkpt>
      <trkpt lat="44.55127" lon="7.11917">
        <ele>2182.6</ele>
        <time>2022-07-18T12:02:59Z</time>
      </trkpt>
      <trkpt lat="44.55128" lon="7.11915">
        <ele>2182.6</ele>
        <time>2022-07-18T12:03:00Z</time>
      </trkpt>
      <trkpt lat="44.55129" lon="7.11912">
        <ele>2182.6</ele>
        <time>2022-07-18T12:03:01Z</time>
      </trkpt>
      <trkpt lat="44.5513" lon="7.11909">
        <ele>2182.6</ele>
        <time>2022-07-18T12:03:02Z</time>
      </trkpt>
      <trkpt lat="44.55131" lon="7.11907">
        <ele>2182.6</ele>
        <time>2022-07-18T12:03:03Z</time>
      </trkpt>
      <trkpt lat="44.55131" lon="7.11907">
        <ele>2182.6</ele>
        <time>2022-07-18T12:03:04Z</time>
      </trkpt>
      <trkpt lat="44.55131" lon="7.11908">
        <ele>2182.6</ele>
        <time>2022-07-18T12:03:05Z</time>
      </trkpt>
      <trkpt lat="44.55131" lon="7.11908">
        <ele>2182.6</ele>
        <time>2022-07-18T12:03:06Z</time>
      </trkpt>
      <trkpt lat="44.55131" lon="7.11908">
        <ele>2182.6</ele>
        <time>2022-07-18T12:03:07Z</time>
      </trkpt>
      <trkpt lat="44.55131" lon="7.11908">
        <ele>2182.6</ele>
        <time>2022-07-18T12:03:08Z</time>
      </trkpt>
      <trkpt lat="44.55131" lon="7.11909">
        <ele>2182.6</ele>
        <time>2022-07-18T12:03:09Z</time>
      </trkpt>
      <trkpt lat="44.55131" lon="7.11909">
        <ele>2182.6</ele>
        <time>2022-07-18T12:03:10Z</time>
      </trkpt>
      <trkpt lat="44.55131" lon="7.11909">
        <ele>2182.6</ele>
        <time>2022-07-18T12:03:11Z</time>
      </trkpt>
      <trkpt lat="44.55131" lon="7.11909">
        <ele>2182.6</ele>
        <time>2022-07-18T12:03:12Z</time>
      </trkpt>
      <trkpt lat="44.55131" lon="7.11909">
        <ele>2182.6</ele>
        <time>2022-07-18T12:03:13Z</time>
      </trkpt>
      <trkpt lat="44.55131" lon="7.1191">
        <ele>2182.4</ele>
        <time>2022-07-18T12:03:14Z</time>
      </trkpt>
      <trkpt lat="44.5513" lon="7.1191">
        <ele>2182.4</ele>
        <time>2022-07-18T12:03:18Z</time>
      </trkpt>
      <trkpt lat="44.5513" lon="7.1191">
        <ele>2182.4</ele>
        <time>2022-07-18T12:03:19Z</time>
      </trkpt>
      <trkpt lat="44.5513" lon="7.1191">
        <ele>2182.4</ele>
        <time>2022-07-18T12:03:21Z</time>
      </trkpt>
      <trkpt lat="44.5513" lon="7.1191">
        <ele>2182.4</ele>
        <time>2022-07-18T12:03:22Z</time>
      </trkpt>
      <trkpt lat="44.5513" lon="7.11911">
        <ele>2182.4</ele>
        <time>2022-07-18T12:03:25Z</time>
      </trkpt>
      <trkpt lat="44.5513" lon="7.11911">
        <ele>2182.4</ele>
        <time>2022-07-18T12:03:26Z</time>
      </trkpt>
      <trkpt lat="44.5513" lon="7.11911">
        <ele>2182.4</ele>
        <time>2022-07-18T12:03:27Z</time>
      </trkpt>
      <trkpt lat="44.5513" lon="7.11911">
        <ele>2182.4</ele>
        <time>2022-07-18T12:03:28Z</time>
      </trkpt>
      <trkpt lat="44.5513" lon="7.11912">
        <ele>2182.4</ele>
        <time>2022-07-18T12:03:29Z</time>
      </trkpt>
      <trkpt lat="44.5513" lon="7.11912">
        <ele>2182.4</ele>
        <time>2022-07-18T12:03:30Z</time>
      </trkpt>
      <trkpt lat="44.5513" lon="7.11912">
        <ele>2184</ele>
        <time>2022-07-18T12:14:30Z</time>
      </trkpt>
      <trkpt lat="44.5513" lon="7.11912">
        <ele>2184</ele>
        <time>2022-07-18T12:14:31Z</time>
      </trkpt>
      <trkpt lat="44.5513" lon="7.11912">
        <ele>2184</ele>
        <time>2022-07-18T12:14:33Z</time>
      </trkpt>
      <trkpt lat="44.5513" lon="7.11913">
        <ele>2184</ele>
        <time>2022-07-18T12:14:34Z</time>
      </trkpt>
      <trkpt lat="44.5513" lon="7.11913">
        <ele>2184</ele>
        <time>2022-07-18T12:14:35Z</time>
      </trkpt>
      <trkpt lat="44.5513" lon="7.11913">
        <ele>2184</ele>
        <time>2022-07-18T12:14:36Z</time>
      </trkpt>
      <trkpt lat="44.5513" lon="7.11913">
        <ele>2184</ele>
        <time>2022-07-18T12:14:37Z</time>
      </trkpt>
      <trkpt lat="44.5513" lon="7.11913">
        <ele>2184</ele>
        <time>2022-07-18T12:14:38Z</time>
      </trkpt>
      <trkpt lat="44.5513" lon="7.11914">
        <ele>2184</ele>
        <time>2022-07-18T12:14:39Z</time>
      </trkpt>
      <trkpt lat="44.55129" lon="7.11916">
        <ele>2184</ele>
        <time>2022-07-18T12:14:40Z</time>
      </trkpt>
      <trkpt lat="44.55129" lon="7.11916">
        <ele>2184</ele>
        <time>2022-07-18T12:14:41Z</time>
      </trkpt>
      <trkpt lat="44.55128" lon="7.11917">
        <ele>2184</ele>
        <time>2022-07-18T12:14:42Z</time>
      </trkpt>
      <trkpt lat="44.55128" lon="7.11917">
        <ele>2184</ele>
        <time>2022-07-18T12:14:43Z</time>
      </trkpt>
      <trkpt lat="44.55128" lon="7.11918">
        <ele>2184</ele>
        <time>2022-07-18T12:14:44Z</time>
      </trkpt>
      <trkpt lat="44.55128" lon="7.11918">
        <ele>2184</ele>
        <time>2022-07-18T12:14:45Z</time>
      </trkpt>
      <trkpt lat="44.55127" lon="7.11919">
        <ele>2184</ele>
        <time>2022-07-18T12:14:46Z</time>
      </trkpt>
      <trkpt lat="44.55127" lon="7.11919">
        <ele>2184</ele>
        <time>2022-07-18T12:14:47Z</time>
      </trkpt>
      <trkpt lat="44.55127" lon="7.1192">
        <ele>2184</ele>
        <time>2022-07-18T12:14:48Z</time>
      </trkpt>
      <trkpt lat="44.55127" lon="7.1192">
        <ele>2184</ele>
        <time>2022-07-18T12:14:49Z</time>
      </trkpt>
      <trkpt lat="44.55126" lon="7.11921">
        <ele>2184</ele>
        <time>2022-07-18T12:14:50Z</time>
      </trkpt>
      <trkpt lat="44.55126" lon="7.11921">
        <ele>2184</ele>
        <time>2022-07-18T12:14:51Z</time>
      </trkpt>
      <trkpt lat="44.55126" lon="7.11922">
        <ele>2184</ele>
        <time>2022-07-18T12:14:52Z</time>
      </trkpt>
      <trkpt lat="44.55126" lon="7.11923">
        <ele>2184</ele>
        <time>2022-07-18T12:14:53Z</time>
      </trkpt>
      <trkpt lat="44.55125" lon="7.11923">
        <ele>2184</ele>
        <time>2022-07-18T12:14:54Z</time>
      </trkpt>
      <trkpt lat="44.55125" lon="7.11924">
        <ele>2184</ele>
        <time>2022-07-18T12:14:55Z</time>
      </trkpt>
      <trkpt lat="44.55125" lon="7.11924">
        <ele>2184</ele>
        <time>2022-07-18T12:14:56Z</time>
      </trkpt>
      <trkpt lat="44.55125" lon="7.11925">
        <ele>2184</ele>
        <time>2022-07-18T12:14:57Z</time>
      </trkpt>
      <trkpt lat="44.55124" lon="7.11925">
        <ele>2184</ele>
        <time>2022-07-18T12:14:58Z</time>
      </trkpt>
      <trkpt lat="44.55124" lon="7.11926">
        <ele>2184</ele>
        <time>2022-07-18T12:14:59Z</time>
      </trkpt>
      <trkpt lat="44.55124" lon="7.11926">
        <ele>2184</ele>
        <time>2022-07-18T12:15:00Z</time>
      </trkpt>
      <trkpt lat="44.55123" lon="7.11927">
        <ele>2184</ele>
        <time>2022-07-18T12:15:01Z</time>
      </trkpt>
      <trkpt lat="44.55123" lon="7.11927">
        <ele>2184</ele>
        <time>2022-07-18T12:15:02Z</time>
      </trkpt>
      <trkpt lat="44.55123" lon="7.11928">
        <ele>2184</ele>
        <time>2022-07-18T12:15:03Z</time>
      </trkpt>
      <trkpt lat="44.55123" lon="7.11928">
        <ele>2184</ele>
        <time>2022-07-18T12:15:04Z</time>
      </trkpt>
      <trkpt lat="44.55122" lon="7.11929">
        <ele>2184</ele>
        <time>2022-07-18T12:15:05Z</time>
      </trkpt>
      <trkpt lat="44.55122" lon="7.1193">
        <ele>2184</ele>
        <time>2022-07-18T12:15:06Z</time>
      </trkpt>
      <trkpt lat="44.55122" lon="7.1193">
        <ele>2184</ele>
        <time>2022-07-18T12:15:07Z</time>
      </trkpt>
      <trkpt lat="44.55122" lon="7.11931">
        <ele>2184</ele>
        <time>2022-07-18T12:15:08Z</time>
      </trkpt>
      <trkpt lat="44.55121" lon="7.11931">
        <ele>2184</ele>
        <time>2022-07-18T12:15:09Z</time>
      </trkpt>
      <trkpt lat="44.55121" lon="7.11932">
        <ele>2184</ele>
        <time>2022-07-18T12:15:10Z</time>
      </trkpt>
      <trkpt lat="44.55121" lon="7.11932">
        <ele>2184</ele>
        <time>2022-07-18T12:15:11Z</time>
      </trkpt>
      <trkpt lat="44.55121" lon="7.11933">
        <ele>2184.2</ele>
        <time>2022-07-18T12:15:12Z</time>
      </trkpt>
      <trkpt lat="44.5512" lon="7.11933">
        <ele>2184.2</ele>
        <time>2022-07-18T12:15:13Z</time>
      </trkpt>
      <trkpt lat="44.5512" lon="7.11934">
        <ele>2184.2</ele>
        <time>2022-07-18T12:15:14Z</time>
      </trkpt>
      <trkpt lat="44.5512" lon="7.11934">
        <ele>2184.2</ele>
        <time>2022-07-18T12:15:16Z</time>
      </trkpt>
      <trkpt lat="44.5512" lon="7.11935">
        <ele>2184.2</ele>
        <time>2022-07-18T12:15:17Z</time>
      </trkpt>
      <trkpt lat="44.55119" lon="7.11935">
        <ele>2184.6</ele>
        <time>2022-07-18T12:17:46Z</time>
      </trkpt>
      <trkpt lat="44.55119" lon="7.11936">
        <ele>2184.6</ele>
        <time>2022-07-18T12:17:47Z</time>
      </trkpt>
      <trkpt lat="44.55119" lon="7.11936">
        <ele>2184.6</ele>
        <time>2022-07-18T12:17:48Z</time>
      </trkpt>
      <trkpt lat="44.55118" lon="7.11937">
        <ele>2184.6</ele>
        <time>2022-07-18T12:17:49Z</time>
      </trkpt>
      <trkpt lat="44.55118" lon="7.11938">
        <ele>2184.6</ele>
        <time>2022-07-18T12:17:50Z</time>
      </trkpt>
      <trkpt lat="44.55118" lon="7.11938">
        <ele>2184.6</ele>
        <time>2022-07-18T12:17:51Z</time>
      </trkpt>
      <trkpt lat="44.55118" lon="7.11939">
        <ele>2184.6</ele>
        <time>2022-07-18T12:17:52Z</time>
      </trkpt>
      <trkpt lat="44.55117" lon="7.11939">
        <ele>2184.6</ele>
        <time>2022-07-18T12:17:53Z</time>
      </trkpt>
      <trkpt lat="44.55117" lon="7.1194">
        <ele>2184.6</ele>
        <time>2022-07-18T12:18:01Z</time>
      </trkpt>
      <trkpt lat="44.55117" lon="7.1194">
        <ele>2184.6</ele>
        <time>2022-07-18T12:18:02Z</time>
      </trkpt>
      <trkpt lat="44.55117" lon="7.11941">
        <ele>2184.6</ele>
        <time>2022-07-18T12:18:03Z</time>
      </trkpt>
      <trkpt lat="44.55116" lon="7.11941">
        <ele>2184.6</ele>
        <time>2022-07-18T12:18:04Z</time>
      </trkpt>
      <trkpt lat="44.55116" lon="7.11942">
        <ele>2184.6</ele>
        <time>2022-07-18T12:18:05Z</time>
      </trkpt>
      <trkpt lat="44.55116" lon="7.11942">
        <ele>2184.6</ele>
        <time>2022-07-18T12:18:06Z</time>
      </trkpt>
      <trkpt lat="44.55116" lon="7.11943">
        <ele>2184.6</ele>
        <time>2022-07-18T12:18:07Z</time>
      </trkpt>
      <trkpt lat="44.55115" lon="7.11943">
        <ele>2184.6</ele>
        <time>2022-07-18T12:18:08Z</time>
      </trkpt>
      <trkpt lat="44.55115" lon="7.11944">
        <ele>2184.6</ele>
        <time>2022-07-18T12:18:10Z</time>
      </trkpt>
      <trkpt lat="44.55115" lon="7.11945">
        <ele>2184.6</ele>
        <time>2022-07-18T12:18:11Z</time>
      </trkpt>
      <trkpt lat="44.55115" lon="7.11945">
        <ele>2184.6</ele>
        <time>2022-07-18T12:18:12Z</time>
      </trkpt>
      <trkpt lat="44.55114" lon="7.11944">
        <ele>2184.6</ele>
        <time>2022-07-18T12:18:13Z</time>
      </trkpt>
      <trkpt lat="44.55112" lon="7.11943">
        <ele>2184.6</ele>
        <time>2022-07-18T12:18:14Z</time>
      </trkpt>
      <trkpt lat="44.55111" lon="7.11942">
        <ele>2184.6</ele>
        <time>2022-07-18T12:18:15Z</time>
      </trkpt>
      <trkpt lat="44.5511" lon="7.11942">
        <ele>2184.6</ele>
        <time>2022-07-18T12:18:16Z</time>
      </trkpt>
      <trkpt lat="44.5511" lon="7.11941">
        <ele>2184.6</ele>
        <time>2022-07-18T12:18:17Z</time>
      </trkpt>
      <trkpt lat="44.55109" lon="7.1194">
        <ele>2184.4</ele>
        <time>2022-07-18T12:18:18Z</time>
      </trkpt>
      <trkpt lat="44.55109" lon="7.11938">
        <ele>2184.4</ele>
        <time>2022-07-18T12:18:19Z</time>
      </trkpt>
      <trkpt lat="44.5511" lon="7.11936">
        <ele>2184.4</ele>
        <time>2022-07-18T12:18:20Z</time>
      </trkpt>
      <trkpt lat="44.55111" lon="7.11933">
        <ele>2184.4</ele>
        <time>2022-07-18T12:18:21Z</time>
      </trkpt>
      <trkpt lat="44.55113" lon="7.11931">
        <ele>2184.4</ele>
        <time>2022-07-18T12:18:22Z</time>
      </trkpt>
      <trkpt lat="44.55115" lon="7.11928">
        <ele>2184.4</ele>
        <time>2022-07-18T12:18:23Z</time>
      </trkpt>
      <trkpt lat="44.55117" lon="7.11925">
        <ele>2184.2</ele>
        <time>2022-07-18T12:18:24Z</time>
      </trkpt>
      <trkpt lat="44.55119" lon="7.11923">
        <ele>2184.2</ele>
        <time>2022-07-18T12:18:25Z</time>
      </trkpt>
      <trkpt lat="44.55121" lon="7.11919">
        <ele>2184</ele>
        <time>2022-07-18T12:18:26Z</time>
      </trkpt>
      <trkpt lat="44.55123" lon="7.11915">
        <ele>2184</ele>
        <time>2022-07-18T12:18:27Z</time>
      </trkpt>
      <trkpt lat="44.55123" lon="7.1191">
        <ele>2183.6</ele>
        <time>2022-07-18T12:18:28Z</time>
      </trkpt>
      <trkpt lat="44.55122" lon="7.11907">
        <ele>2183.4</ele>
        <time>2022-07-18T12:18:29Z</time>
      </trkpt>
      <trkpt lat="44.55118" lon="7.11904">
        <ele>2183.2</ele>
        <time>2022-07-18T12:18:30Z</time>
      </trkpt>
      <trkpt lat="44.55114" lon="7.11904">
        <ele>2182.8</ele>
        <time>2022-07-18T12:18:31Z</time>
      </trkpt>
      <trkpt lat="44.55108" lon="7.11906">
        <ele>2182.4</ele>
        <time>2022-07-18T12:18:32Z</time>
      </trkpt>
      <trkpt lat="44.55103" lon="7.1191">
        <ele>2181.8</ele>
        <time>2022-07-18T12:18:33Z</time>
      </trkpt>
      <trkpt lat="44.55096" lon="7.11913">
        <ele>2181.4</ele>
        <time>2022-07-18T12:18:34Z</time>
      </trkpt>
      <trkpt lat="44.5509" lon="7.11917">
        <ele>2180.8</ele>
        <time>2022-07-18T12:18:35Z</time>
      </trkpt>
      <trkpt lat="44.55082" lon="7.11919">
        <ele>2180.2</ele>
        <time>2022-07-18T12:18:36Z</time>
      </trkpt>
      <trkpt lat="44.55074" lon="7.1192">
        <ele>2179.6</ele>
        <time>2022-07-18T12:18:37Z</time>
      </trkpt>
      <trkpt lat="44.55066" lon="7.11918">
        <ele>2179</ele>
        <time>2022-07-18T12:18:38Z</time>
      </trkpt>
      <trkpt lat="44.55057" lon="7.11916">
        <ele>2178.2</ele>
        <time>2022-07-18T12:18:39Z</time>
      </trkpt>
      <trkpt lat="44.55048" lon="7.11915">
        <ele>2177.4</ele>
        <time>2022-07-18T12:18:40Z</time>
      </trkpt>
      <trkpt lat="44.5504" lon="7.11915">
        <ele>2176.6</ele>
        <time>2022-07-18T12:18:41Z</time>
      </trkpt>
      <trkpt lat="44.55031" lon="7.11916">
        <ele>2176</ele>
        <time>2022-07-18T12:18:42Z</time>
      </trkpt>
      <trkpt lat="44.55022" lon="7.11919">
        <ele>2175.2</ele>
        <time>2022-07-18T12:18:43Z</time>
      </trkpt>
      <trkpt lat="44.55015" lon="7.11925">
        <ele>2174.6</ele>
        <time>2022-07-18T12:18:44Z</time>
      </trkpt>
      <trkpt lat="44.55007" lon="7.11932">
        <ele>2174</ele>
        <time>2022-07-18T12:18:45Z</time>
      </trkpt>
      <trkpt lat="44.55" lon="7.11939">
        <ele>2173.6</ele>
        <time>2022-07-18T12:18:46Z</time>
      </trkpt>
      <trkpt lat="44.54993" lon="7.11948">
        <ele>2173</ele>
        <time>2022-07-18T12:18:47Z</time>
      </trkpt>
      <trkpt lat="44.54984" lon="7.11955">
        <ele>2172.2</ele>
        <time>2022-07-18T12:18:48Z</time>
      </trkpt>
      <trkpt lat="44.54974" lon="7.11961">
        <ele>2171.6</ele>
        <time>2022-07-18T12:18:49Z</time>
      </trkpt>
      <trkpt lat="44.54965" lon="7.11967">
        <ele>2170.8</ele>
        <time>2022-07-18T12:18:50Z</time>
      </trkpt>
      <trkpt lat="44.54955" lon="7.11973">
        <ele>2170</ele>
        <time>2022-07-18T12:18:51Z</time>
      </trkpt>
      <trkpt lat="44.54946" lon="7.1198">
        <ele>2169</ele>
        <time>2022-07-18T12:18:52Z</time>
      </trkpt>
      <trkpt lat="44.54937" lon="7.11986">
        <ele>2168.2</ele>
        <time>2022-07-18T12:18:53Z</time>
      </trkpt>
      <trkpt lat="44.54928" lon="7.11992">
        <ele>2167.2</ele>
        <time>2022-07-18T12:18:54Z</time>
      </trkpt>
      <trkpt lat="44.54919" lon="7.12001">
        <ele>2166.4</ele>
        <time>2022-07-18T12:18:55Z</time>
      </trkpt>
      <trkpt lat="44.54912" lon="7.1201">
        <ele>2165.6</ele>
        <time>2022-07-18T12:18:56Z</time>
      </trkpt>
      <trkpt lat="44.54905" lon="7.1202">
        <ele>2164.8</ele>
        <time>2022-07-18T12:18:57Z</time>
      </trkpt>
      <trkpt lat="44.54899" lon="7.12027">
        <ele>2164.2</ele>
        <time>2022-07-18T12:18:58Z</time>
      </trkpt>
      <trkpt lat="44.54891" lon="7.12034">
        <ele>2163.4</ele>
        <time>2022-07-18T12:18:59Z</time>
      </trkpt>
      <trkpt lat="44.54883" lon="7.12039">
        <ele>2162.8</ele>
        <time>2022-07-18T12:19:00Z</time>
      </trkpt>
      <trkpt lat="44.54874" lon="7.12042">
        <ele>2162.2</ele>
        <time>2022-07-18T12:19:01Z</time>
      </trkpt>
      <trkpt lat="44.54865" lon="7.12045">
        <ele>2161.4</ele>
        <time>2022-07-18T12:19:02Z</time>
      </trkpt>
      <trkpt lat="44.54857" lon="7.12049">
        <ele>2160.6</ele>
        <time>2022-07-18T12:19:03Z</time>
      </trkpt>
      <trkpt lat="44.54848" lon="7.12055">
        <ele>2159.8</ele>
        <time>2022-07-18T12:19:04Z</time>
      </trkpt>
      <trkpt lat="44.5484" lon="7.12063">
        <ele>2159.2</ele>
        <time>2022-07-18T12:19:05Z</time>
      </trkpt>
      <trkpt lat="44.54832" lon="7.12072">
        <ele>2158.4</ele>
        <time>2022-07-18T12:19:06Z</time>
      </trkpt>
      <trkpt lat="44.54824" lon="7.12079">
        <ele>2157.8</ele>
        <time>2022-07-18T12:19:07Z</time>
      </trkpt>
      <trkpt lat="44.54816" lon="7.12085">
        <ele>2157</ele>
        <time>2022-07-18T12:19:08Z</time>
      </trkpt>
      <trkpt lat="44.54806" lon="7.12087">
        <ele>2156.2</ele>
        <time>2022-07-18T12:19:09Z</time>
      </trkpt>
      <trkpt lat="44.54796" lon="7.12088">
        <ele>2155.4</ele>
        <time>2022-07-18T12:19:10Z</time>
      </trkpt>
      <trkpt lat="44.54785" lon="7.12089">
        <ele>2154.6</ele>
        <time>2022-07-18T12:19:11Z</time>
      </trkpt>
      <trkpt lat="44.54774" lon="7.12091">
        <ele>2153.6</ele>
        <time>2022-07-18T12:19:12Z</time>
      </trkpt>
      <trkpt lat="44.54763" lon="7.12093">
        <ele>2152.6</ele>
        <time>2022-07-18T12:19:13Z</time>
      </trkpt>
      <trkpt lat="44.54752" lon="7.12096">
        <ele>2151.8</ele>
        <time>2022-07-18T12:19:14Z</time>
      </trkpt>
      <trkpt lat="44.54741" lon="7.12099">
        <ele>2151</ele>
        <time>2022-07-18T12:19:15Z</time>
      </trkpt>
      <trkpt lat="44.54731" lon="7.12103">
        <ele>2150.2</ele>
        <time>2022-07-18T12:19:16Z</time>
      </trkpt>
      <trkpt lat="44.54721" lon="7.12108">
        <ele>2149.4</ele>
        <time>2022-07-18T12:19:17Z</time>
      </trkpt>
      <trkpt lat="44.54713" lon="7.12115">
        <ele>2148.8</ele>
        <time>2022-07-18T12:19:18Z</time>
      </trkpt>
      <trkpt lat="44.54704" lon="7.12121">
        <ele>2148.2</ele>
        <time>2022-07-18T12:19:19Z</time>
      </trkpt>
      <trkpt lat="44.54696" lon="7.12127">
        <ele>2147.4</ele>
        <time>2022-07-18T12:19:20Z</time>
      </trkpt>
      <trkpt lat="44.54688" lon="7.12129">
        <ele>2146.8</ele>
        <time>2022-07-18T12:19:21Z</time>
      </trkpt>
      <trkpt lat="44.54678" lon="7.12129">
        <ele>2146</ele>
        <time>2022-07-18T12:19:22Z</time>
      </trkpt>
      <trkpt lat="44.54667" lon="7.12127">
        <ele>2145.2</ele>
        <time>2022-07-18T12:19:23Z</time>
      </trkpt>
      <trkpt lat="44.54657" lon="7.12126">
        <ele>2144.2</ele>
        <time>2022-07-18T12:19:24Z</time>
      </trkpt>
      <trkpt lat="44.54647" lon="7.12126">
        <ele>2143.4</ele>
        <time>2022-07-18T12:19:25Z</time>
      </trkpt>
      <trkpt lat="44.54637" lon="7.12125">
        <ele>2142.6</ele>
        <time>2022-07-18T12:19:26Z</time>
      </trkpt>
      <trkpt lat="44.54628" lon="7.12123">
        <ele>2141.8</ele>
        <time>2022-07-18T12:19:27Z</time>
      </trkpt>
      <trkpt lat="44.5462" lon="7.12121">
        <ele>2141</ele>
        <time>2022-07-18T12:19:28Z</time>
      </trkpt>
      <trkpt lat="44.54613" lon="7.12117">
        <ele>2140.4</ele>
        <time>2022-07-18T12:19:29Z</time>
      </trkpt>
      <trkpt lat="44.54606" lon="7.12111">
        <ele>2140</ele>
        <time>2022-07-18T12:19:30Z</time>
      </trkpt>
      <trkpt lat="44.546" lon="7.12103">
        <ele>2139.4</ele>
        <time>2022-07-18T12:19:31Z</time>
      </trkpt>
      <trkpt lat="44.54596" lon="7.12094">
        <ele>2138.8</ele>
        <time>2022-07-18T12:19:32Z</time>
      </trkpt>
      <trkpt lat="44.54594" lon="7.12083">
        <ele>2138.2</ele>
        <time>2022-07-18T12:19:33Z</time>
      </trkpt>
      <trkpt lat="44.54593" lon="7.12071">
        <ele>2137.6</ele>
        <time>2022-07-18T12:19:34Z</time>
      </trkpt>
      <trkpt lat="44.54592" lon="7.12058">
        <ele>2136.8</ele>
        <time>2022-07-18T12:19:35Z</time>
      </trkpt>
      <trkpt lat="44.54591" lon="7.12045">
        <ele>2136</ele>
        <time>2022-07-18T12:19:36Z</time>
      </trkpt>
      <trkpt lat="44.54591" lon="7.12031">
        <ele>2135.2</ele>
        <time>2022-07-18T12:19:37Z</time>
      </trkpt>
      <trkpt lat="44.54589" lon="7.12016">
        <ele>2134.4</ele>
        <time>2022-07-18T12:19:38Z</time>
      </trkpt>
      <trkpt lat="44.54587" lon="7.12002">
        <ele>2133.6</ele>
        <time>2022-07-18T12:19:39Z</time>
      </trkpt>
      <trkpt lat="44.54585" lon="7.11989">
        <ele>2133</ele>
        <time>2022-07-18T12:19:40Z</time>
      </trkpt>
      <trkpt lat="44.54582" lon="7.11976">
        <ele>2132.2</ele>
        <time>2022-07-18T12:19:41Z</time>
      </trkpt>
      <trkpt lat="44.54579" lon="7.11963">
        <ele>2131.4</ele>
        <time>2022-07-18T12:19:42Z</time>
      </trkpt>
      <trkpt lat="44.54576" lon="7.11951">
        <ele>2130.6</ele>
        <time>2022-07-18T12:19:43Z</time>
      </trkpt>
      <trkpt lat="44.54573" lon="7.11938">
        <ele>2129.8</ele>
        <time>2022-07-18T12:19:44Z</time>
      </trkpt>
      <trkpt lat="44.5457" lon="7.11925">
        <ele>2129</ele>
        <time>2022-07-18T12:19:45Z</time>
      </trkpt>
      <trkpt lat="44.54567" lon="7.11914">
        <ele>2128.4</ele>
        <time>2022-07-18T12:19:46Z</time>
      </trkpt>
      <trkpt lat="44.54564" lon="7.11903">
        <ele>2127.8</ele>
        <time>2022-07-18T12:19:47Z</time>
      </trkpt>
      <trkpt lat="44.54561" lon="7.11892">
        <ele>2127.2</ele>
        <time>2022-07-18T12:19:48Z</time>
      </trkpt>
      <trkpt lat="44.54558" lon="7.11882">
        <ele>2126.4</ele>
        <time>2022-07-18T12:19:49Z</time>
      </trkpt>
      <trkpt lat="44.54554" lon="7.11872">
        <ele>2125.8</ele>
        <time>2022-07-18T12:19:50Z</time>
      </trkpt>
      <trkpt lat="44.5455" lon="7.11863">
        <ele>2125.2</ele>
        <time>2022-07-18T12:19:51Z</time>
      </trkpt>
      <trkpt lat="44.54544" lon="7.11855">
        <ele>2124.6</ele>
        <time>2022-07-18T12:19:52Z</time>
      </trkpt>
      <trkpt lat="44.54538" lon="7.11848">
        <ele>2124</ele>
        <time>2022-07-18T12:19:53Z</time>
      </trkpt>
      <trkpt lat="44.54532" lon="7.11842">
        <ele>2123.4</ele>
        <time>2022-07-18T12:19:54Z</time>
      </trkpt>
      <trkpt lat="44.54526" lon="7.11836">
        <ele>2122.8</ele>
        <time>2022-07-18T12:19:55Z</time>
      </trkpt>
      <trkpt lat="44.54519" lon="7.11832">
        <ele>2122</ele>
        <time>2022-07-18T12:19:56Z</time>
      </trkpt>
      <trkpt lat="44.54512" lon="7.11828">
        <ele>2121.4</ele>
        <time>2022-07-18T12:19:57Z</time>
      </trkpt>
      <trkpt lat="44.54504" lon="7.11826">
        <ele>2120.6</ele>
        <time>2022-07-18T12:19:58Z</time>
      </trkpt>
      <trkpt lat="44.54496" lon="7.11824">
        <ele>2120</ele>
        <time>2022-07-18T12:19:59Z</time>
      </trkpt>
      <trkpt lat="44.54487" lon="7.11823">
        <ele>2119.2</ele>
        <time>2022-07-18T12:20:00Z</time>
      </trkpt>
      <trkpt lat="44.54479" lon="7.11822">
        <ele>2118.4</ele>
        <time>2022-07-18T12:20:01Z</time>
      </trkpt>
      <trkpt lat="44.54471" lon="7.11822">
        <ele>2117.6</ele>
        <time>2022-07-18T12:20:02Z</time>
      </trkpt>
      <trkpt lat="44.54463" lon="7.11822">
        <ele>2116.8</ele>
        <time>2022-07-18T12:20:03Z</time>
      </trkpt>
      <trkpt lat="44.54455" lon="7.11824">
        <ele>2116.2</ele>
        <time>2022-07-18T12:20:04Z</time>
      </trkpt>
      <trkpt lat="44.54446" lon="7.11827">
        <ele>2115.4</ele>
        <time>2022-07-18T12:20:05Z</time>
      </trkpt>
      <trkpt lat="44.54436" lon="7.11832">
        <ele>2114.6</ele>
        <time>2022-07-18T12:20:06Z</time>
      </trkpt>
      <trkpt lat="44.54427" lon="7.11836">
        <ele>2113.8</ele>
        <time>2022-07-18T12:20:07Z</time>
      </trkpt>
      <trkpt lat="44.54417" lon="7.11839">
        <ele>2112.8</ele>
        <time>2022-07-18T12:20:08Z</time>
      </trkpt>
      <trkpt lat="44.54408" lon="7.11841">
        <ele>2111.8</ele>
        <time>2022-07-18T12:20:09Z</time>
      </trkpt>
      <trkpt lat="44.54399" lon="7.11841">
        <ele>2110.8</ele>
        <time>2022-07-18T12:20:10Z</time>
      </trkpt>
      <trkpt lat="44.5439" lon="7.11842">
        <ele>2110</ele>
        <time>2022-07-18T12:20:11Z</time>
      </trkpt>
      <trkpt lat="44.54382" lon="7.11845">
        <ele>2109</ele>
        <time>2022-07-18T12:20:12Z</time>
      </trkpt>
      <trkpt lat="44.54373" lon="7.11849">
        <ele>2108</ele>
        <time>2022-07-18T12:20:13Z</time>
      </trkpt>
      <trkpt lat="44.54365" lon="7.11854">
        <ele>2107.2</ele>
        <time>2022-07-18T12:20:14Z</time>
      </trkpt>
      <trkpt lat="44.54358" lon="7.11861">
        <ele>2106.2</ele>
        <time>2022-07-18T12:20:15Z</time>
      </trkpt>
      <trkpt lat="44.54352" lon="7.11869">
        <ele>2105.2</ele>
        <time>2022-07-18T12:20:16Z</time>
      </trkpt>
      <trkpt lat="44.54346" lon="7.1188">
        <ele>2104.4</ele>
        <time>2022-07-18T12:20:17Z</time>
      </trkpt>
      <trkpt lat="44.54342" lon="7.11891">
        <ele>2103.4</ele>
        <time>2022-07-18T12:20:18Z</time>
      </trkpt>
      <trkpt lat="44.54337" lon="7.11903">
        <ele>2102.6</ele>
        <time>2022-07-18T12:20:19Z</time>
      </trkpt>
      <trkpt lat="44.54331" lon="7.11914">
        <ele>2101.6</ele>
        <time>2022-07-18T12:20:20Z</time>
      </trkpt>
      <trkpt lat="44.54324" lon="7.11923">
        <ele>2100.6</ele>
        <time>2022-07-18T12:20:21Z</time>
      </trkpt>
      <trkpt lat="44.54318" lon="7.11932">
        <ele>2099.8</ele>
        <time>2022-07-18T12:20:22Z</time>
      </trkpt>
      <trkpt lat="44.54311" lon="7.11938">
        <ele>2099</ele>
        <time>2022-07-18T12:20:23Z</time>
      </trkpt>
      <trkpt lat="44.54302" lon="7.11941">
        <ele>2098.4</ele>
        <time>2022-07-18T12:20:24Z</time>
      </trkpt>
      <trkpt lat="44.54294" lon="7.11942">
        <ele>2097.6</ele>
        <time>2022-07-18T12:20:25Z</time>
      </trkpt>
      <trkpt lat="44.54285" lon="7.11941">
        <ele>2096.8</ele>
        <time>2022-07-18T12:20:26Z</time>
      </trkpt>
      <trkpt lat="44.54275" lon="7.1194">
        <ele>2096</ele>
        <time>2022-07-18T12:20:27Z</time>
      </trkpt>
      <trkpt lat="44.54266" lon="7.1194">
        <ele>2095.2</ele>
        <time>2022-07-18T12:20:28Z</time>
      </trkpt>
      <trkpt lat="44.54257" lon="7.11939">
        <ele>2094.2</ele>
        <time>2022-07-18T12:20:29Z</time>
      </trkpt>
      <trkpt lat="44.54247" lon="7.11938">
        <ele>2093.4</ele>
        <time>2022-07-18T12:20:30Z</time>
      </trkpt>
      <trkpt lat="44.54236" lon="7.11937">
        <ele>2092.4</ele>
        <time>2022-07-18T12:20:31Z</time>
      </trkpt>
      <trkpt lat="44.54225" lon="7.11934">
        <ele>2091.4</ele>
        <time>2022-07-18T12:20:32Z</time>
      </trkpt>
      <trkpt lat="44.54216" lon="7.11931">
        <ele>2090.2</ele>
        <time>2022-07-18T12:20:33Z</time>
      </trkpt>
      <trkpt lat="44.54208" lon="7.11924">
        <ele>2089.2</ele>
        <time>2022-07-18T12:20:34Z</time>
      </trkpt>
      <trkpt lat="44.542" lon="7.11916">
        <ele>2088.2</ele>
        <time>2022-07-18T12:20:35Z</time>
      </trkpt>
      <trkpt lat="44.54192" lon="7.11906">
        <ele>2087.2</ele>
        <time>2022-07-18T12:20:36Z</time>
      </trkpt>
      <trkpt lat="44.54185" lon="7.11898">
        <ele>2087.2</ele>
        <time>2022-07-18T12:20:37Z</time>
      </trkpt>
      <trkpt lat="44.54178" lon="7.1189">
        <ele>2086.2</ele>
        <time>2022-07-18T12:20:38Z</time>
      </trkpt>
      <trkpt lat="44.54171" lon="7.11882">
        <ele>2085.2</ele>
        <time>2022-07-18T12:20:39Z</time>
      </trkpt>
      <trkpt lat="44.54165" lon="7.11876">
        <ele>2084.4</ele>
        <time>2022-07-18T12:20:40Z</time>
      </trkpt>
      <trkpt lat="44.54159" lon="7.11871">
        <ele>2083.6</ele>
        <time>2022-07-18T12:20:41Z</time>
      </trkpt>
      <trkpt lat="44.54153" lon="7.11869">
        <ele>2083</ele>
        <time>2022-07-18T12:20:42Z</time>
      </trkpt>
      <trkpt lat="44.54144" lon="7.11869">
        <ele>2082.4</ele>
        <time>2022-07-18T12:20:43Z</time>
      </trkpt>
      <trkpt lat="44.54136" lon="7.11869">
        <ele>2081.6</ele>
        <time>2022-07-18T12:20:44Z</time>
      </trkpt>
      <trkpt lat="44.54127" lon="7.11869">
        <ele>2081</ele>
        <time>2022-07-18T12:20:45Z</time>
      </trkpt>
      <trkpt lat="44.54117" lon="7.11869">
        <ele>2080.4</ele>
        <time>2022-07-18T12:20:46Z</time>
      </trkpt>
      <trkpt lat="44.54106" lon="7.11868">
        <ele>2079.6</ele>
        <time>2022-07-18T12:20:47Z</time>
      </trkpt>
      <trkpt lat="44.54096" lon="7.11866">
        <ele>2079</ele>
        <time>2022-07-18T12:20:48Z</time>
      </trkpt>
      <trkpt lat="44.54086" lon="7.11865">
        <ele>2078.2</ele>
        <time>2022-07-18T12:20:49Z</time>
      </trkpt>
      <trkpt lat="44.54076" lon="7.11863">
        <ele>2077.4</ele>
        <time>2022-07-18T12:20:50Z</time>
      </trkpt>
      <trkpt lat="44.54067" lon="7.11861">
        <ele>2076.8</ele>
        <time>2022-07-18T12:20:51Z</time>
      </trkpt>
      <trkpt lat="44.54057" lon="7.11859">
        <ele>2076</ele>
        <time>2022-07-18T12:20:52Z</time>
      </trkpt>
      <trkpt lat="44.54048" lon="7.11856">
        <ele>2075</ele>
        <time>2022-07-18T12:20:53Z</time>
      </trkpt>
      <trkpt lat="44.54038" lon="7.11854">
        <ele>2074</ele>
        <time>2022-07-18T12:20:54Z</time>
      </trkpt>
      <trkpt lat="44.54029" lon="7.11852">
        <ele>2073.4</ele>
        <time>2022-07-18T12:20:55Z</time>
      </trkpt>
      <trkpt lat="44.54019" lon="7.11851">
        <ele>2072.4</ele>
        <time>2022-07-18T12:20:56Z</time>
      </trkpt>
      <trkpt lat="44.54009" lon="7.11851">
        <ele>2071.6</ele>
        <time>2022-07-18T12:20:57Z</time>
      </trkpt>
      <trkpt lat="44.53999" lon="7.1185">
        <ele>2070.6</ele>
        <time>2022-07-18T12:20:58Z</time>
      </trkpt>
      <trkpt lat="44.5399" lon="7.11852">
        <ele>2069.8</ele>
        <time>2022-07-18T12:20:59Z</time>
      </trkpt>
      <trkpt lat="44.53979" lon="7.11854">
        <ele>2067.8</ele>
        <time>2022-07-18T12:21:01Z</time>
      </trkpt>
      <trkpt lat="44.53968" lon="7.11852">
        <ele>2066.6</ele>
        <time>2022-07-18T12:21:02Z</time>
      </trkpt>
      <trkpt lat="44.53956" lon="7.1185">
        <ele>2065.6</ele>
        <time>2022-07-18T12:21:03Z</time>
      </trkpt>
      <trkpt lat="44.53932" lon="7.11842">
        <ele>2064.6</ele>
        <time>2022-07-18T12:21:04Z</time>
      </trkpt>
      <trkpt lat="44.53921" lon="7.11838">
        <ele>2063.6</ele>
        <time>2022-07-18T12:21:05Z</time>
      </trkpt>
      <trkpt lat="44.53909" lon="7.11835">
        <ele>2062.2</ele>
        <time>2022-07-18T12:21:06Z</time>
      </trkpt>
      <trkpt lat="44.53897" lon="7.11831">
        <ele>2061</ele>
        <time>2022-07-18T12:21:07Z</time>
      </trkpt>
      <trkpt lat="44.53886" lon="7.11828">
        <ele>2059.6</ele>
        <time>2022-07-18T12:21:08Z</time>
      </trkpt>
      <trkpt lat="44.53875" lon="7.11825">
        <ele>2058.4</ele>
        <time>2022-07-18T12:21:09Z</time>
      </trkpt>
      <trkpt lat="44.53865" lon="7.11822">
        <ele>2057.4</ele>
        <time>2022-07-18T12:21:10Z</time>
      </trkpt>
      <trkpt lat="44.53854" lon="7.1182">
        <ele>2056.2</ele>
        <time>2022-07-18T12:21:11Z</time>
      </trkpt>
      <trkpt lat="44.53844" lon="7.11817">
        <ele>2055.2</ele>
        <time>2022-07-18T12:21:12Z</time>
      </trkpt>
      <trkpt lat="44.53834" lon="7.11815">
        <ele>2054</ele>
        <time>2022-07-18T12:21:13Z</time>
      </trkpt>
      <trkpt lat="44.53824" lon="7.11813">
        <ele>2053</ele>
        <time>2022-07-18T12:21:14Z</time>
      </trkpt>
      <trkpt lat="44.53814" lon="7.11811">
        <ele>2051.8</ele>
        <time>2022-07-18T12:21:15Z</time>
      </trkpt>
      <trkpt lat="44.53804" lon="7.11809">
        <ele>2050.8</ele>
        <time>2022-07-18T12:21:16Z</time>
      </trkpt>
      <trkpt lat="44.53794" lon="7.11806">
        <ele>2049.6</ele>
        <time>2022-07-18T12:21:17Z</time>
      </trkpt>
      <trkpt lat="44.53784" lon="7.11804">
        <ele>2048.4</ele>
        <time>2022-07-18T12:21:18Z</time>
      </trkpt>
      <trkpt lat="44.53774" lon="7.118">
        <ele>2047.2</ele>
        <time>2022-07-18T12:21:19Z</time>
      </trkpt>
      <trkpt lat="44.53765" lon="7.11795">
        <ele>2046</ele>
        <time>2022-07-18T12:21:20Z</time>
      </trkpt>
      <trkpt lat="44.53756" lon="7.1179">
        <ele>2045</ele>
        <time>2022-07-18T12:21:21Z</time>
      </trkpt>
      <trkpt lat="44.53747" lon="7.11784">
        <ele>2044</ele>
        <time>2022-07-18T12:21:22Z</time>
      </trkpt>
      <trkpt lat="44.53737" lon="7.11777">
        <ele>2042.8</ele>
        <time>2022-07-18T12:21:23Z</time>
      </trkpt>
      <trkpt lat="44.53728" lon="7.11771">
        <ele>2042</ele>
        <time>2022-07-18T12:21:24Z</time>
      </trkpt>
      <trkpt lat="44.53719" lon="7.11764">
        <ele>2041.2</ele>
        <time>2022-07-18T12:21:25Z</time>
      </trkpt>
      <trkpt lat="44.5371" lon="7.11759">
        <ele>2040.4</ele>
        <time>2022-07-18T12:21:26Z</time>
      </trkpt>
      <trkpt lat="44.53701" lon="7.11753">
        <ele>2039.6</ele>
        <time>2022-07-18T12:21:27Z</time>
      </trkpt>
      <trkpt lat="44.53694" lon="7.11745">
        <ele>2038.4</ele>
        <time>2022-07-18T12:21:28Z</time>
      </trkpt>
      <trkpt lat="44.53687" lon="7.11736">
        <ele>2037.6</ele>
        <time>2022-07-18T12:21:29Z</time>
      </trkpt>
      <trkpt lat="44.53681" lon="7.1173">
        <ele>2036.6</ele>
        <time>2022-07-18T12:21:30Z</time>
      </trkpt>
      <trkpt lat="44.53676" lon="7.11723">
        <ele>2035.8</ele>
        <time>2022-07-18T12:21:31Z</time>
      </trkpt>
      <trkpt lat="44.5367" lon="7.11716">
        <ele>2035</ele>
        <time>2022-07-18T12:21:32Z</time>
      </trkpt>
      <trkpt lat="44.53666" lon="7.11706">
        <ele>2034.2</ele>
        <time>2022-07-18T12:21:33Z</time>
      </trkpt>
      <trkpt lat="44.53662" lon="7.11696">
        <ele>2033.2</ele>
        <time>2022-07-18T12:21:34Z</time>
      </trkpt>
      <trkpt lat="44.53659" lon="7.11686">
        <ele>2032.4</ele>
        <time>2022-07-18T12:21:35Z</time>
      </trkpt>
      <trkpt lat="44.53655" lon="7.11675">
        <ele>2031.6</ele>
        <time>2022-07-18T12:21:36Z</time>
      </trkpt>
      <trkpt lat="44.53651" lon="7.11665">
        <ele>2031</ele>
        <time>2022-07-18T12:21:37Z</time>
      </trkpt>
      <trkpt lat="44.53647" lon="7.11654">
        <ele>2030</ele>
        <time>2022-07-18T12:21:38Z</time>
      </trkpt>
      <trkpt lat="44.53642" lon="7.11643">
        <ele>2029</ele>
        <time>2022-07-18T12:21:39Z</time>
      </trkpt>
      <trkpt lat="44.53638" lon="7.11633">
        <ele>2028.2</ele>
        <time>2022-07-18T12:21:40Z</time>
      </trkpt>
      <trkpt lat="44.53634" lon="7.11623">
        <ele>2027.4</ele>
        <time>2022-07-18T12:21:41Z</time>
      </trkpt>
      <trkpt lat="44.5363" lon="7.11613">
        <ele>2026.6</ele>
        <time>2022-07-18T12:21:42Z</time>
      </trkpt>
      <trkpt lat="44.53625" lon="7.11604">
        <ele>2025.6</ele>
        <time>2022-07-18T12:21:43Z</time>
      </trkpt>
      <trkpt lat="44.5362" lon="7.11594">
        <ele>2024.8</ele>
        <time>2022-07-18T12:21:44Z</time>
      </trkpt>
      <trkpt lat="44.53616" lon="7.11585">
        <ele>2024</ele>
        <time>2022-07-18T12:21:45Z</time>
      </trkpt>
      <trkpt lat="44.53611" lon="7.11576">
        <ele>2023.2</ele>
        <time>2022-07-18T12:21:46Z</time>
      </trkpt>
      <trkpt lat="44.53606" lon="7.11566">
        <ele>2022.2</ele>
        <time>2022-07-18T12:21:47Z</time>
      </trkpt>
      <trkpt lat="44.53603" lon="7.11557">
        <ele>2021.2</ele>
        <time>2022-07-18T12:21:48Z</time>
      </trkpt>
      <trkpt lat="44.53599" lon="7.11549">
        <ele>2020.2</ele>
        <time>2022-07-18T12:21:49Z</time>
      </trkpt>
      <trkpt lat="44.53594" lon="7.1154">
        <ele>2019.4</ele>
        <time>2022-07-18T12:21:50Z</time>
      </trkpt>
      <trkpt lat="44.5359" lon="7.11532">
        <ele>2018.4</ele>
        <time>2022-07-18T12:21:51Z</time>
      </trkpt>
      <trkpt lat="44.53584" lon="7.11523">
        <ele>2017.6</ele>
        <time>2022-07-18T12:21:52Z</time>
      </trkpt>
      <trkpt lat="44.53579" lon="7.11514">
        <ele>2016.8</ele>
        <time>2022-07-18T12:21:53Z</time>
      </trkpt>
      <trkpt lat="44.53574" lon="7.11505">
        <ele>2016.2</ele>
        <time>2022-07-18T12:21:54Z</time>
      </trkpt>
      <trkpt lat="44.53569" lon="7.11496">
        <ele>2015.4</ele>
        <time>2022-07-18T12:21:55Z</time>
      </trkpt>
      <trkpt lat="44.53564" lon="7.11488">
        <ele>2014.4</ele>
        <time>2022-07-18T12:21:56Z</time>
      </trkpt>
      <trkpt lat="44.53559" lon="7.1148">
        <ele>2013.6</ele>
        <time>2022-07-18T12:21:57Z</time>
      </trkpt>
      <trkpt lat="44.53554" lon="7.11472">
        <ele>2012.6</ele>
        <time>2022-07-18T12:21:58Z</time>
      </trkpt>
      <trkpt lat="44.53548" lon="7.11465">
        <ele>2011.8</ele>
        <time>2022-07-18T12:21:59Z</time>
      </trkpt>
      <trkpt lat="44.53541" lon="7.11459">
        <ele>2011</ele>
        <time>2022-07-18T12:22:00Z</time>
      </trkpt>
      <trkpt lat="44.53533" lon="7.11452">
        <ele>2010</ele>
        <time>2022-07-18T12:22:01Z</time>
      </trkpt>
      <trkpt lat="44.53525" lon="7.11447">
        <ele>2009.2</ele>
        <time>2022-07-18T12:22:02Z</time>
      </trkpt>
      <trkpt lat="44.53516" lon="7.11441">
        <ele>2008</ele>
        <time>2022-07-18T12:22:03Z</time>
      </trkpt>
      <trkpt lat="44.53509" lon="7.11436">
        <ele>2007.2</ele>
        <time>2022-07-18T12:22:04Z</time>
      </trkpt>
      <trkpt lat="44.535" lon="7.11431">
        <ele>2006</ele>
        <time>2022-07-18T12:22:05Z</time>
      </trkpt>
      <trkpt lat="44.53492" lon="7.11427">
        <ele>2005</ele>
        <time>2022-07-18T12:22:06Z</time>
      </trkpt>
      <trkpt lat="44.53483" lon="7.11424">
        <ele>2004</ele>
        <time>2022-07-18T12:22:07Z</time>
      </trkpt>
      <trkpt lat="44.53475" lon="7.11421">
        <ele>2003</ele>
        <time>2022-07-18T12:22:08Z</time>
      </trkpt>
      <trkpt lat="44.53465" lon="7.11419">
        <ele>2002</ele>
        <time>2022-07-18T12:22:09Z</time>
      </trkpt>
      <trkpt lat="44.53455" lon="7.11417">
        <ele>2001.2</ele>
        <time>2022-07-18T12:22:10Z</time>
      </trkpt>
      <trkpt lat="44.53446" lon="7.11415">
        <ele>2000.2</ele>
        <time>2022-07-18T12:22:11Z</time>
      </trkpt>
      <trkpt lat="44.53436" lon="7.11414">
        <ele>1999.2</ele>
        <time>2022-07-18T12:22:12Z</time>
      </trkpt>
      <trkpt lat="44.53426" lon="7.11413">
        <ele>1998.2</ele>
        <time>2022-07-18T12:22:13Z</time>
      </trkpt>
      <trkpt lat="44.53416" lon="7.1141">
        <ele>1997.2</ele>
        <time>2022-07-18T12:22:14Z</time>
      </trkpt>
      <trkpt lat="44.53406" lon="7.11406">
        <ele>1996.2</ele>
        <time>2022-07-18T12:22:15Z</time>
      </trkpt>
      <trkpt lat="44.53397" lon="7.11402">
        <ele>1995.2</ele>
        <time>2022-07-18T12:22:16Z</time>
      </trkpt>
      <trkpt lat="44.53387" lon="7.11398">
        <ele>1994.2</ele>
        <time>2022-07-18T12:22:17Z</time>
      </trkpt>
      <trkpt lat="44.53378" lon="7.11395">
        <ele>1993.4</ele>
        <time>2022-07-18T12:22:18Z</time>
      </trkpt>
      <trkpt lat="44.5337" lon="7.11392">
        <ele>1992.4</ele>
        <time>2022-07-18T12:22:19Z</time>
      </trkpt>
      <trkpt lat="44.53361" lon="7.11391">
        <ele>1991.4</ele>
        <time>2022-07-18T12:22:20Z</time>
      </trkpt>
      <trkpt lat="44.53353" lon="7.1139">
        <ele>1990.2</ele>
        <time>2022-07-18T12:22:21Z</time>
      </trkpt>
      <trkpt lat="44.53345" lon="7.1139">
        <ele>1989.2</ele>
        <time>2022-07-18T12:22:22Z</time>
      </trkpt>
      <trkpt lat="44.53336" lon="7.11392">
        <ele>1988.2</ele>
        <time>2022-07-18T12:22:23Z</time>
      </trkpt>
      <trkpt lat="44.53327" lon="7.11395">
        <ele>1987.2</ele>
        <time>2022-07-18T12:22:24Z</time>
      </trkpt>
      <trkpt lat="44.53317" lon="7.11398">
        <ele>1986.2</ele>
        <time>2022-07-18T12:22:25Z</time>
      </trkpt>
      <trkpt lat="44.53307" lon="7.11403">
        <ele>1985.2</ele>
        <time>2022-07-18T12:22:26Z</time>
      </trkpt>
      <trkpt lat="44.53297" lon="7.11408">
        <ele>1984</ele>
        <time>2022-07-18T12:22:27Z</time>
      </trkpt>
      <trkpt lat="44.53286" lon="7.11411">
        <ele>1982.8</ele>
        <time>2022-07-18T12:22:28Z</time>
      </trkpt>
      <trkpt lat="44.53275" lon="7.11414">
        <ele>1981.6</ele>
        <time>2022-07-18T12:22:29Z</time>
      </trkpt>
      <trkpt lat="44.53264" lon="7.11416">
        <ele>1980.2</ele>
        <time>2022-07-18T12:22:30Z</time>
      </trkpt>
      <trkpt lat="44.53253" lon="7.11418">
        <ele>1978.8</ele>
        <time>2022-07-18T12:22:31Z</time>
      </trkpt>
      <trkpt lat="44.53243" lon="7.11419">
        <ele>1977.6</ele>
        <time>2022-07-18T12:22:32Z</time>
      </trkpt>
      <trkpt lat="44.53233" lon="7.11421">
        <ele>1976.6</ele>
        <time>2022-07-18T12:22:33Z</time>
      </trkpt>
      <trkpt lat="44.53223" lon="7.11423">
        <ele>1975.4</ele>
        <time>2022-07-18T12:22:34Z</time>
      </trkpt>
      <trkpt lat="44.53213" lon="7.11425">
        <ele>1974</ele>
        <time>2022-07-18T12:22:35Z</time>
      </trkpt>
      <trkpt lat="44.53204" lon="7.11427">
        <ele>1972.8</ele>
        <time>2022-07-18T12:22:36Z</time>
      </trkpt>
      <trkpt lat="44.53194" lon="7.11429">
        <ele>1971.8</ele>
        <time>2022-07-18T12:22:37Z</time>
      </trkpt>
      <trkpt lat="44.53184" lon="7.1143">
        <ele>1970.6</ele>
        <time>2022-07-18T12:22:38Z</time>
      </trkpt>
      <trkpt lat="44.53174" lon="7.11432">
        <ele>1969.4</ele>
        <time>2022-07-18T12:22:39Z</time>
      </trkpt>
      <trkpt lat="44.53164" lon="7.11434">
        <ele>1968.4</ele>
        <time>2022-07-18T12:22:40Z</time>
      </trkpt>
      <trkpt lat="44.53154" lon="7.11435">
        <ele>1967.2</ele>
        <time>2022-07-18T12:22:41Z</time>
      </trkpt>
      <trkpt lat="44.53144" lon="7.11434">
        <ele>1966.2</ele>
        <time>2022-07-18T12:22:42Z</time>
      </trkpt>
      <trkpt lat="44.53134" lon="7.1143">
        <ele>1965</ele>
        <time>2022-07-18T12:22:43Z</time>
      </trkpt>
      <trkpt lat="44.53124" lon="7.11424">
        <ele>1964</ele>
        <time>2022-07-18T12:22:44Z</time>
      </trkpt>
      <trkpt lat="44.53114" lon="7.11418">
        <ele>1963</ele>
        <time>2022-07-18T12:22:45Z</time>
      </trkpt>
      <trkpt lat="44.53105" lon="7.11411">
        <ele>1962.2</ele>
        <time>2022-07-18T12:22:46Z</time>
      </trkpt>
      <trkpt lat="44.53095" lon="7.11404">
        <ele>1961.2</ele>
        <time>2022-07-18T12:22:47Z</time>
      </trkpt>
      <trkpt lat="44.53087" lon="7.11397">
        <ele>1960.2</ele>
        <time>2022-07-18T12:22:48Z</time>
      </trkpt>
      <trkpt lat="44.53078" lon="7.11389">
        <ele>1959.2</ele>
        <time>2022-07-18T12:22:49Z</time>
      </trkpt>
      <trkpt lat="44.53071" lon="7.1138">
        <ele>1958.2</ele>
        <time>2022-07-18T12:22:50Z</time>
      </trkpt>
      <trkpt lat="44.53064" lon="7.11369">
        <ele>1957.2</ele>
        <time>2022-07-18T12:22:51Z</time>
      </trkpt>
      <trkpt lat="44.53056" lon="7.11359">
        <ele>1956</ele>
        <time>2022-07-18T12:22:52Z</time>
      </trkpt>
      <trkpt lat="44.5305" lon="7.11348">
        <ele>1954.8</ele>
        <time>2022-07-18T12:22:53Z</time>
      </trkpt>
      <trkpt lat="44.53043" lon="7.11336">
        <ele>1953.8</ele>
        <time>2022-07-18T12:22:54Z</time>
      </trkpt>
      <trkpt lat="44.53035" lon="7.11324">
        <ele>1952.4</ele>
        <time>2022-07-18T12:22:55Z</time>
      </trkpt>
      <trkpt lat="44.53028" lon="7.11313">
        <ele>1951.2</ele>
        <time>2022-07-18T12:22:56Z</time>
      </trkpt>
      <trkpt lat="44.53021" lon="7.11301">
        <ele>1949.8</ele>
        <time>2022-07-18T12:22:57Z</time>
      </trkpt>
      <trkpt lat="44.53014" lon="7.11288">
        <ele>1948.4</ele>
        <time>2022-07-18T12:22:58Z</time>
      </trkpt>
      <trkpt lat="44.53008" lon="7.11276">
        <ele>1946.8</ele>
        <time>2022-07-18T12:22:59Z</time>
      </trkpt>
      <trkpt lat="44.53002" lon="7.11264">
        <ele>1945.6</ele>
        <time>2022-07-18T12:23:00Z</time>
      </trkpt>
      <trkpt lat="44.52997" lon="7.11252">
        <ele>1944.4</ele>
        <time>2022-07-18T12:23:01Z</time>
      </trkpt>
      <trkpt lat="44.52992" lon="7.1124">
        <ele>1943</ele>
        <time>2022-07-18T12:23:02Z</time>
      </trkpt>
      <trkpt lat="44.52987" lon="7.11229">
        <ele>1942</ele>
        <time>2022-07-18T12:23:03Z</time>
      </trkpt>
      <trkpt lat="44.52983" lon="7.11217">
        <ele>1941</ele>
        <time>2022-07-18T12:23:04Z</time>
      </trkpt>
      <trkpt lat="44.52978" lon="7.11205">
        <ele>1940</ele>
        <time>2022-07-18T12:23:05Z</time>
      </trkpt>
      <trkpt lat="44.52974" lon="7.11193">
        <ele>1939</ele>
        <time>2022-07-18T12:23:06Z</time>
      </trkpt>
      <trkpt lat="44.52969" lon="7.1118">
        <ele>1938</ele>
        <time>2022-07-18T12:23:07Z</time>
      </trkpt>
      <trkpt lat="44.52965" lon="7.11168">
        <ele>1937</ele>
        <time>2022-07-18T12:23:08Z</time>
      </trkpt>
      <trkpt lat="44.52962" lon="7.11155">
        <ele>1936</ele>
        <time>2022-07-18T12:23:09Z</time>
      </trkpt>
      <trkpt lat="44.52958" lon="7.11142">
        <ele>1935</ele>
        <time>2022-07-18T12:23:10Z</time>
      </trkpt>
      <trkpt lat="44.52954" lon="7.1113">
        <ele>1934</ele>
        <time>2022-07-18T12:23:11Z</time>
      </trkpt>
      <trkpt lat="44.5295" lon="7.11118">
        <ele>1933</ele>
        <time>2022-07-18T12:23:12Z</time>
      </trkpt>
      <trkpt lat="44.52945" lon="7.11107">
        <ele>1932</ele>
        <time>2022-07-18T12:23:13Z</time>
      </trkpt>
      <trkpt lat="44.52941" lon="7.11097">
        <ele>1931.2</ele>
        <time>2022-07-18T12:23:14Z</time>
      </trkpt>
      <trkpt lat="44.52937" lon="7.11087">
        <ele>1930.4</ele>
        <time>2022-07-18T12:23:15Z</time>
      </trkpt>
      <trkpt lat="44.52933" lon="7.11077">
        <ele>1929.6</ele>
        <time>2022-07-18T12:23:16Z</time>
      </trkpt>
      <trkpt lat="44.52929" lon="7.11068">
        <ele>1928.6</ele>
        <time>2022-07-18T12:23:17Z</time>
      </trkpt>
      <trkpt lat="44.52925" lon="7.11059">
        <ele>1927.8</ele>
        <time>2022-07-18T12:23:18Z</time>
      </trkpt>
      <trkpt lat="44.5292" lon="7.11051">
        <ele>1927</ele>
        <time>2022-07-18T12:23:19Z</time>
      </trkpt>
      <trkpt lat="44.52915" lon="7.11043">
        <ele>1926.2</ele>
        <time>2022-07-18T12:23:20Z</time>
      </trkpt>
      <trkpt lat="44.52909" lon="7.11035">
        <ele>1925.4</ele>
        <time>2022-07-18T12:23:21Z</time>
      </trkpt>
      <trkpt lat="44.52901" lon="7.11027">
        <ele>1924.4</ele>
        <time>2022-07-18T12:23:22Z</time>
      </trkpt>
      <trkpt lat="44.52893" lon="7.11019">
        <ele>1923.4</ele>
        <time>2022-07-18T12:23:23Z</time>
      </trkpt>
      <trkpt lat="44.52884" lon="7.11012">
        <ele>1922.4</ele>
        <time>2022-07-18T12:23:24Z</time>
      </trkpt>
      <trkpt lat="44.52875" lon="7.11005">
        <ele>1921.4</ele>
        <time>2022-07-18T12:23:25Z</time>
      </trkpt>
      <trkpt lat="44.52866" lon="7.10999">
        <ele>1920.6</ele>
        <time>2022-07-18T12:23:26Z</time>
      </trkpt>
      <trkpt lat="44.52857" lon="7.10992">
        <ele>1919.4</ele>
        <time>2022-07-18T12:23:27Z</time>
      </trkpt>
      <trkpt lat="44.52848" lon="7.10983">
        <ele>1918.8</ele>
        <time>2022-07-18T12:23:28Z</time>
      </trkpt>
      <trkpt lat="44.5284" lon="7.10972">
        <ele>1918</ele>
        <time>2022-07-18T12:23:29Z</time>
      </trkpt>
      <trkpt lat="44.52831" lon="7.10962">
        <ele>1917</ele>
        <time>2022-07-18T12:23:30Z</time>
      </trkpt>
      <trkpt lat="44.52824" lon="7.1095">
        <ele>1916.4</ele>
        <time>2022-07-18T12:23:31Z</time>
      </trkpt>
      <trkpt lat="44.52816" lon="7.1094">
        <ele>1915.6</ele>
        <time>2022-07-18T12:23:32Z</time>
      </trkpt>
      <trkpt lat="44.52807" lon="7.10928">
        <ele>1914.4</ele>
        <time>2022-07-18T12:23:33Z</time>
      </trkpt>
      <trkpt lat="44.52799" lon="7.10916">
        <ele>1913.4</ele>
        <time>2022-07-18T12:23:34Z</time>
      </trkpt>
      <trkpt lat="44.52791" lon="7.10906">
        <ele>1912.4</ele>
        <time>2022-07-18T12:23:35Z</time>
      </trkpt>
      <trkpt lat="44.52783" lon="7.10896">
        <ele>1911.4</ele>
        <time>2022-07-18T12:23:36Z</time>
      </trkpt>
      <trkpt lat="44.52774" lon="7.10886">
        <ele>1910.4</ele>
        <time>2022-07-18T12:23:37Z</time>
      </trkpt>
      <trkpt lat="44.52767" lon="7.10877">
        <ele>1909.8</ele>
        <time>2022-07-18T12:23:38Z</time>
      </trkpt>
      <trkpt lat="44.52759" lon="7.10868">
        <ele>1909</ele>
        <time>2022-07-18T12:23:39Z</time>
      </trkpt>
      <trkpt lat="44.52752" lon="7.10858">
        <ele>1908</ele>
        <time>2022-07-18T12:23:40Z</time>
      </trkpt>
      <trkpt lat="44.52745" lon="7.10847">
        <ele>1907.2</ele>
        <time>2022-07-18T12:23:41Z</time>
      </trkpt>
      <trkpt lat="44.52739" lon="7.10836">
        <ele>1906.4</ele>
        <time>2022-07-18T12:23:42Z</time>
      </trkpt>
      <trkpt lat="44.52735" lon="7.10823">
        <ele>1905.6</ele>
        <time>2022-07-18T12:23:43Z</time>
      </trkpt>
      <trkpt lat="44.52731" lon="7.1081">
        <ele>1904.6</ele>
        <time>2022-07-18T12:23:44Z</time>
      </trkpt>
      <trkpt lat="44.52728" lon="7.10799">
        <ele>1903.8</ele>
        <time>2022-07-18T12:23:45Z</time>
      </trkpt>
      <trkpt lat="44.52724" lon="7.10789">
        <ele>1902.4</ele>
        <time>2022-07-18T12:23:46Z</time>
      </trkpt>
      <trkpt lat="44.5272" lon="7.10778">
        <ele>1901.2</ele>
        <time>2022-07-18T12:23:47Z</time>
      </trkpt>
      <trkpt lat="44.52715" lon="7.10768">
        <ele>1900.4</ele>
        <time>2022-07-18T12:23:48Z</time>
      </trkpt>
      <trkpt lat="44.52711" lon="7.10758">
        <ele>1899.6</ele>
        <time>2022-07-18T12:23:49Z</time>
      </trkpt>
      <trkpt lat="44.52705" lon="7.10748">
        <ele>1899</ele>
        <time>2022-07-18T12:23:50Z</time>
      </trkpt>
      <trkpt lat="44.527" lon="7.10738">
        <ele>1898.4</ele>
        <time>2022-07-18T12:23:51Z</time>
      </trkpt>
      <trkpt lat="44.52694" lon="7.10728">
        <ele>1897.6</ele>
        <time>2022-07-18T12:23:52Z</time>
      </trkpt>
      <trkpt lat="44.52688" lon="7.10718">
        <ele>1896.8</ele>
        <time>2022-07-18T12:23:53Z</time>
      </trkpt>
      <trkpt lat="44.52683" lon="7.10708">
        <ele>1896</ele>
        <time>2022-07-18T12:23:54Z</time>
      </trkpt>
      <trkpt lat="44.52678" lon="7.10698">
        <ele>1895.2</ele>
        <time>2022-07-18T12:23:55Z</time>
      </trkpt>
      <trkpt lat="44.52672" lon="7.10688">
        <ele>1894.4</ele>
        <time>2022-07-18T12:23:56Z</time>
      </trkpt>
      <trkpt lat="44.52666" lon="7.10679">
        <ele>1893.8</ele>
        <time>2022-07-18T12:23:57Z</time>
      </trkpt>
      <trkpt lat="44.5266" lon="7.10669">
        <ele>1893.2</ele>
        <time>2022-07-18T12:23:58Z</time>
      </trkpt>
      <trkpt lat="44.52655" lon="7.10658">
        <ele>1892.4</ele>
        <time>2022-07-18T12:23:59Z</time>
      </trkpt>
      <trkpt lat="44.52649" lon="7.10648">
        <ele>1891.6</ele>
        <time>2022-07-18T12:24:00Z</time>
      </trkpt>
      <trkpt lat="44.52644" lon="7.10635">
        <ele>1890.8</ele>
        <time>2022-07-18T12:24:01Z</time>
      </trkpt>
      <trkpt lat="44.52639" lon="7.10621">
        <ele>1889.8</ele>
        <time>2022-07-18T12:24:02Z</time>
      </trkpt>
      <trkpt lat="44.52635" lon="7.10607">
        <ele>1889</ele>
        <time>2022-07-18T12:24:03Z</time>
      </trkpt>
      <trkpt lat="44.52631" lon="7.10593">
        <ele>1888.2</ele>
        <time>2022-07-18T12:24:04Z</time>
      </trkpt>
      <trkpt lat="44.52628" lon="7.10578">
        <ele>1887.2</ele>
        <time>2022-07-18T12:24:05Z</time>
      </trkpt>
      <trkpt lat="44.52625" lon="7.10565">
        <ele>1886</ele>
        <time>2022-07-18T12:24:06Z</time>
      </trkpt>
      <trkpt lat="44.52622" lon="7.10552">
        <ele>1885</ele>
        <time>2022-07-18T12:24:07Z</time>
      </trkpt>
      <trkpt lat="44.52619" lon="7.10537">
        <ele>1884</ele>
        <time>2022-07-18T12:24:08Z</time>
      </trkpt>
      <trkpt lat="44.52616" lon="7.10525">
        <ele>1883</ele>
        <time>2022-07-18T12:24:09Z</time>
      </trkpt>
      <trkpt lat="44.52614" lon="7.10512">
        <ele>1882</ele>
        <time>2022-07-18T12:24:10Z</time>
      </trkpt>
      <trkpt lat="44.5261" lon="7.10499">
        <ele>1881</ele>
        <time>2022-07-18T12:24:11Z</time>
      </trkpt>
      <trkpt lat="44.52606" lon="7.10486">
        <ele>1880</ele>
        <time>2022-07-18T12:24:12Z</time>
      </trkpt>
      <trkpt lat="44.52603" lon="7.10475">
        <ele>1879</ele>
        <time>2022-07-18T12:24:13Z</time>
      </trkpt>
      <trkpt lat="44.52599" lon="7.10464">
        <ele>1878.2</ele>
        <time>2022-07-18T12:24:14Z</time>
      </trkpt>
      <trkpt lat="44.52595" lon="7.10453">
        <ele>1877.4</ele>
        <time>2022-07-18T12:24:15Z</time>
      </trkpt>
      <trkpt lat="44.52592" lon="7.10442">
        <ele>1876.6</ele>
        <time>2022-07-18T12:24:16Z</time>
      </trkpt>
      <trkpt lat="44.52588" lon="7.10432">
        <ele>1875.8</ele>
        <time>2022-07-18T12:24:17Z</time>
      </trkpt>
      <trkpt lat="44.52585" lon="7.10422">
        <ele>1875</ele>
        <time>2022-07-18T12:24:18Z</time>
      </trkpt>
      <trkpt lat="44.52581" lon="7.10414">
        <ele>1874.4</ele>
        <time>2022-07-18T12:24:19Z</time>
      </trkpt>
      <trkpt lat="44.52578" lon="7.10407">
        <ele>1873.8</ele>
        <time>2022-07-18T12:24:20Z</time>
      </trkpt>
      <trkpt lat="44.52576" lon="7.104">
        <ele>1873.2</ele>
        <time>2022-07-18T12:24:21Z</time>
      </trkpt>
      <trkpt lat="44.52575" lon="7.10393">
        <ele>1872.6</ele>
        <time>2022-07-18T12:24:22Z</time>
      </trkpt>
      <trkpt lat="44.52577" lon="7.10387">
        <ele>1872.2</ele>
        <time>2022-07-18T12:24:23Z</time>
      </trkpt>
      <trkpt lat="44.5258" lon="7.10381">
        <ele>1871.8</ele>
        <time>2022-07-18T12:24:24Z</time>
      </trkpt>
      <trkpt lat="44.52585" lon="7.10377">
        <ele>1871.2</ele>
        <time>2022-07-18T12:24:25Z</time>
      </trkpt>
      <trkpt lat="44.52591" lon="7.10375">
        <ele>1870.6</ele>
        <time>2022-07-18T12:24:26Z</time>
      </trkpt>
      <trkpt lat="44.52598" lon="7.10375">
        <ele>1870</ele>
        <time>2022-07-18T12:24:27Z</time>
      </trkpt>
      <trkpt lat="44.52605" lon="7.10376">
        <ele>1869.4</ele>
        <time>2022-07-18T12:24:28Z</time>
      </trkpt>
      <trkpt lat="44.52612" lon="7.10377">
        <ele>1868.8</ele>
        <time>2022-07-18T12:24:29Z</time>
      </trkpt>
      <trkpt lat="44.5262" lon="7.10378">
        <ele>1868.2</ele>
        <time>2022-07-18T12:24:30Z</time>
      </trkpt>
      <trkpt lat="44.52627" lon="7.1038">
        <ele>1867.6</ele>
        <time>2022-07-18T12:24:31Z</time>
      </trkpt>
      <trkpt lat="44.52635" lon="7.10381">
        <ele>1866.8</ele>
        <time>2022-07-18T12:24:32Z</time>
      </trkpt>
      <trkpt lat="44.52643" lon="7.10383">
        <ele>1866.2</ele>
        <time>2022-07-18T12:24:33Z</time>
      </trkpt>
      <trkpt lat="44.5265" lon="7.10384">
        <ele>1865.6</ele>
        <time>2022-07-18T12:24:34Z</time>
      </trkpt>
      <trkpt lat="44.52658" lon="7.10386">
        <ele>1865.2</ele>
        <time>2022-07-18T12:24:35Z</time>
      </trkpt>
      <trkpt lat="44.52665" lon="7.10387">
        <ele>1864.6</ele>
        <time>2022-07-18T12:24:36Z</time>
      </trkpt>
      <trkpt lat="44.52671" lon="7.10389">
        <ele>1863.8</ele>
        <time>2022-07-18T12:24:37Z</time>
      </trkpt>
      <trkpt lat="44.52677" lon="7.10391">
        <ele>1863.2</ele>
        <time>2022-07-18T12:24:38Z</time>
      </trkpt>
      <trkpt lat="44.52683" lon="7.10394">
        <ele>1862.6</ele>
        <time>2022-07-18T12:24:39Z</time>
      </trkpt>
      <trkpt lat="44.52688" lon="7.10396">
        <ele>1862</ele>
        <time>2022-07-18T12:24:40Z</time>
      </trkpt>
      <trkpt lat="44.52692" lon="7.10397">
        <ele>1861.4</ele>
        <time>2022-07-18T12:24:41Z</time>
      </trkpt>
      <trkpt lat="44.52695" lon="7.10398">
        <ele>1860.8</ele>
        <time>2022-07-18T12:24:42Z</time>
      </trkpt>
      <trkpt lat="44.52698" lon="7.10397">
        <ele>1860.2</ele>
        <time>2022-07-18T12:24:43Z</time>
      </trkpt>
      <trkpt lat="44.52699" lon="7.10395">
        <ele>1859.8</ele>
        <time>2022-07-18T12:24:44Z</time>
      </trkpt>
      <trkpt lat="44.527" lon="7.10392">
        <ele>1859.4</ele>
        <time>2022-07-18T12:24:45Z</time>
      </trkpt>
      <trkpt lat="44.52698" lon="7.1039">
        <ele>1859.2</ele>
        <time>2022-07-18T12:24:46Z</time>
      </trkpt>
      <trkpt lat="44.52696" lon="7.10388">
        <ele>1858.8</ele>
        <time>2022-07-18T12:24:47Z</time>
      </trkpt>
      <trkpt lat="44.52693" lon="7.10386">
        <ele>1858.6</ele>
        <time>2022-07-18T12:24:48Z</time>
      </trkpt>
      <trkpt lat="44.5269" lon="7.10383">
        <ele>1858.4</ele>
        <time>2022-07-18T12:24:49Z</time>
      </trkpt>
      <trkpt lat="44.52687" lon="7.1038">
        <ele>1858.4</ele>
        <time>2022-07-18T12:24:50Z</time>
      </trkpt>
      <trkpt lat="44.52684" lon="7.10377">
        <ele>1858.2</ele>
        <time>2022-07-18T12:24:51Z</time>
      </trkpt>
      <trkpt lat="44.52681" lon="7.10373">
        <ele>1858.2</ele>
        <time>2022-07-18T12:24:52Z</time>
      </trkpt>
      <trkpt lat="44.52678" lon="7.10369">
        <ele>1858.2</ele>
        <time>2022-07-18T12:24:53Z</time>
      </trkpt>
      <trkpt lat="44.52674" lon="7.10365">
        <ele>1858.2</ele>
        <time>2022-07-18T12:24:54Z</time>
      </trkpt>
      <trkpt lat="44.52671" lon="7.1036">
        <ele>1857.8</ele>
        <time>2022-07-18T12:24:55Z</time>
      </trkpt>
      <trkpt lat="44.52668" lon="7.10356">
        <ele>1857.8</ele>
        <time>2022-07-18T12:24:56Z</time>
      </trkpt>
      <trkpt lat="44.52664" lon="7.10351">
        <ele>1857.6</ele>
        <time>2022-07-18T12:24:57Z</time>
      </trkpt>
      <trkpt lat="44.5266" lon="7.10346">
        <ele>1857.6</ele>
        <time>2022-07-18T12:24:58Z</time>
      </trkpt>
      <trkpt lat="44.52657" lon="7.10341">
        <ele>1857.4</ele>
        <time>2022-07-18T12:24:59Z</time>
      </trkpt>
      <trkpt lat="44.52654" lon="7.10336">
        <ele>1857.4</ele>
        <time>2022-07-18T12:25:00Z</time>
      </trkpt>
      <trkpt lat="44.5265" lon="7.1033">
        <ele>1857.2</ele>
        <time>2022-07-18T12:25:01Z</time>
      </trkpt>
      <trkpt lat="44.52646" lon="7.10325">
        <ele>1857.2</ele>
        <time>2022-07-18T12:25:02Z</time>
      </trkpt>
      <trkpt lat="44.52642" lon="7.1032">
        <ele>1857</ele>
        <time>2022-07-18T12:25:03Z</time>
      </trkpt>
      <trkpt lat="44.52638" lon="7.10314">
        <ele>1857</ele>
        <time>2022-07-18T12:25:04Z</time>
      </trkpt>
      <trkpt lat="44.52634" lon="7.10308">
        <ele>1857</ele>
        <time>2022-07-18T12:25:05Z</time>
      </trkpt>
      <trkpt lat="44.5263" lon="7.10301">
        <ele>1856.6</ele>
        <time>2022-07-18T12:25:06Z</time>
      </trkpt>
      <trkpt lat="44.52626" lon="7.10295">
        <ele>1856.6</ele>
        <time>2022-07-18T12:25:07Z</time>
      </trkpt>
      <trkpt lat="44.52622" lon="7.10289">
        <ele>1856.6</ele>
        <time>2022-07-18T12:25:08Z</time>
      </trkpt>
      <trkpt lat="44.52618" lon="7.10283">
        <ele>1856.6</ele>
        <time>2022-07-18T12:25:09Z</time>
      </trkpt>
      <trkpt lat="44.52614" lon="7.10277">
        <ele>1856.4</ele>
        <time>2022-07-18T12:25:10Z</time>
      </trkpt>
      <trkpt lat="44.52609" lon="7.10271">
        <ele>1856.4</ele>
        <time>2022-07-18T12:25:11Z</time>
      </trkpt>
      <trkpt lat="44.52605" lon="7.10265">
        <ele>1856.2</ele>
        <time>2022-07-18T12:25:12Z</time>
      </trkpt>
      <trkpt lat="44.526" lon="7.10259">
        <ele>1856.2</ele>
        <time>2022-07-18T12:25:13Z</time>
      </trkpt>
      <trkpt lat="44.52595" lon="7.10253">
        <ele>1856.2</ele>
        <time>2022-07-18T12:25:14Z</time>
      </trkpt>
      <trkpt lat="44.52591" lon="7.10248">
        <ele>1855.8</ele>
        <time>2022-07-18T12:25:15Z</time>
      </trkpt>
      <trkpt lat="44.52587" lon="7.10242">
        <ele>1855.8</ele>
        <time>2022-07-18T12:25:16Z</time>
      </trkpt>
      <trkpt lat="44.52582" lon="7.10237">
        <ele>1855.6</ele>
        <time>2022-07-18T12:25:17Z</time>
      </trkpt>
      <trkpt lat="44.52578" lon="7.10233">
        <ele>1855.6</ele>
        <time>2022-07-18T12:25:18Z</time>
      </trkpt>
      <trkpt lat="44.52574" lon="7.10229">
        <ele>1855.4</ele>
        <time>2022-07-18T12:25:19Z</time>
      </trkpt>
      <trkpt lat="44.52569" lon="7.10228">
        <ele>1855.4</ele>
        <time>2022-07-18T12:25:20Z</time>
      </trkpt>
      <trkpt lat="44.52564" lon="7.10228">
        <ele>1855</ele>
        <time>2022-07-18T12:25:21Z</time>
      </trkpt>
      <trkpt lat="44.5256" lon="7.10231">
        <ele>1854.8</ele>
        <time>2022-07-18T12:25:22Z</time>
      </trkpt>
      <trkpt lat="44.52557" lon="7.10237">
        <ele>1854.6</ele>
        <time>2022-07-18T12:25:23Z</time>
      </trkpt>
      <trkpt lat="44.52555" lon="7.10244">
        <ele>1854.2</ele>
        <time>2022-07-18T12:25:24Z</time>
      </trkpt>
      <trkpt lat="44.52552" lon="7.10253">
        <ele>1853.8</ele>
        <time>2022-07-18T12:25:25Z</time>
      </trkpt>
      <trkpt lat="44.52549" lon="7.10262">
        <ele>1853.2</ele>
        <time>2022-07-18T12:25:26Z</time>
      </trkpt>
      <trkpt lat="44.52546" lon="7.10272">
        <ele>1852.6</ele>
        <time>2022-07-18T12:25:27Z</time>
      </trkpt>
      <trkpt lat="44.52543" lon="7.10284">
        <ele>1851.8</ele>
        <time>2022-07-18T12:25:28Z</time>
      </trkpt>
      <trkpt lat="44.52539" lon="7.10296">
        <ele>1851</ele>
        <time>2022-07-18T12:25:29Z</time>
      </trkpt>
      <trkpt lat="44.52535" lon="7.10311">
        <ele>1850.2</ele>
        <time>2022-07-18T12:25:30Z</time>
      </trkpt>
      <trkpt lat="44.52529" lon="7.10325">
        <ele>1849.4</ele>
        <time>2022-07-18T12:25:31Z</time>
      </trkpt>
      <trkpt lat="44.52523" lon="7.10337">
        <ele>1848.6</ele>
        <time>2022-07-18T12:25:32Z</time>
      </trkpt>
      <trkpt lat="44.52516" lon="7.10348">
        <ele>1847.8</ele>
        <time>2022-07-18T12:25:33Z</time>
      </trkpt>
      <trkpt lat="44.5251" lon="7.10358">
        <ele>1847</ele>
        <time>2022-07-18T12:25:34Z</time>
      </trkpt>
      <trkpt lat="44.52504" lon="7.10367">
        <ele>1846</ele>
        <time>2022-07-18T12:25:35Z</time>
      </trkpt>
      <trkpt lat="44.52496" lon="7.10375">
        <ele>1844.8</ele>
        <time>2022-07-18T12:25:36Z</time>
      </trkpt>
      <trkpt lat="44.52488" lon="7.10381">
        <ele>1843.8</ele>
        <time>2022-07-18T12:25:37Z</time>
      </trkpt>
      <trkpt lat="44.52479" lon="7.10384">
        <ele>1842.8</ele>
        <time>2022-07-18T12:25:38Z</time>
      </trkpt>
      <trkpt lat="44.52469" lon="7.10384">
        <ele>1841.6</ele>
        <time>2022-07-18T12:25:39Z</time>
      </trkpt>
      <trkpt lat="44.5246" lon="7.10387">
        <ele>1840.6</ele>
        <time>2022-07-18T12:25:40Z</time>
      </trkpt>
      <trkpt lat="44.52451" lon="7.10388">
        <ele>1839.6</ele>
        <time>2022-07-18T12:25:41Z</time>
      </trkpt>
      <trkpt lat="44.52442" lon="7.10389">
        <ele>1838.4</ele>
        <time>2022-07-18T12:25:42Z</time>
      </trkpt>
      <trkpt lat="44.52433" lon="7.10391">
        <ele>1837.2</ele>
        <time>2022-07-18T12:25:43Z</time>
      </trkpt>
      <trkpt lat="44.52426" lon="7.10392">
        <ele>1836.2</ele>
        <time>2022-07-18T12:25:44Z</time>
      </trkpt>
      <trkpt lat="44.52419" lon="7.10395">
        <ele>1835.2</ele>
        <time>2022-07-18T12:25:45Z</time>
      </trkpt>
      <trkpt lat="44.52413" lon="7.104">
        <ele>1834.4</ele>
        <time>2022-07-18T12:25:46Z</time>
      </trkpt>
      <trkpt lat="44.52407" lon="7.10407">
        <ele>1833.4</ele>
        <time>2022-07-18T12:25:47Z</time>
      </trkpt>
      <trkpt lat="44.52402" lon="7.10417">
        <ele>1832.6</ele>
        <time>2022-07-18T12:25:48Z</time>
      </trkpt>
      <trkpt lat="44.52397" lon="7.10426">
        <ele>1831.8</ele>
        <time>2022-07-18T12:25:49Z</time>
      </trkpt>
      <trkpt lat="44.52391" lon="7.10435">
        <ele>1830.8</ele>
        <time>2022-07-18T12:25:50Z</time>
      </trkpt>
      <trkpt lat="44.52385" lon="7.10444">
        <ele>1830</ele>
        <time>2022-07-18T12:25:51Z</time>
      </trkpt>
      <trkpt lat="44.52378" lon="7.10453">
        <ele>1829</ele>
        <time>2022-07-18T12:25:52Z</time>
      </trkpt>
      <trkpt lat="44.52371" lon="7.10463">
        <ele>1828</ele>
        <time>2022-07-18T12:25:53Z</time>
      </trkpt>
      <trkpt lat="44.52363" lon="7.10471">
        <ele>1827</ele>
        <time>2022-07-18T12:25:54Z</time>
      </trkpt>
      <trkpt lat="44.52355" lon="7.10479">
        <ele>1825.8</ele>
        <time>2022-07-18T12:25:55Z</time>
      </trkpt>
      <trkpt lat="44.52348" lon="7.10486">
        <ele>1824.8</ele>
        <time>2022-07-18T12:25:56Z</time>
      </trkpt>
      <trkpt lat="44.5234" lon="7.10492">
        <ele>1823.8</ele>
        <time>2022-07-18T12:25:57Z</time>
      </trkpt>
      <trkpt lat="44.52333" lon="7.10497">
        <ele>1823</ele>
        <time>2022-07-18T12:25:58Z</time>
      </trkpt>
      <trkpt lat="44.52326" lon="7.10501">
        <ele>1822.2</ele>
        <time>2022-07-18T12:25:59Z</time>
      </trkpt>
      <trkpt lat="44.5232" lon="7.10506">
        <ele>1821.2</ele>
        <time>2022-07-18T12:26:00Z</time>
      </trkpt>
      <trkpt lat="44.52314" lon="7.10512">
        <ele>1820.4</ele>
        <time>2022-07-18T12:26:01Z</time>
      </trkpt>
      <trkpt lat="44.52309" lon="7.10518">
        <ele>1819.6</ele>
        <time>2022-07-18T12:26:02Z</time>
      </trkpt>
      <trkpt lat="44.52303" lon="7.10525">
        <ele>1818.8</ele>
        <time>2022-07-18T12:26:03Z</time>
      </trkpt>
      <trkpt lat="44.52298" lon="7.1053">
        <ele>1817.8</ele>
        <time>2022-07-18T12:26:04Z</time>
      </trkpt>
      <trkpt lat="44.52294" lon="7.10535">
        <ele>1817</ele>
        <time>2022-07-18T12:26:05Z</time>
      </trkpt>
      <trkpt lat="44.52291" lon="7.1054">
        <ele>1816.2</ele>
        <time>2022-07-18T12:26:06Z</time>
      </trkpt>
      <trkpt lat="44.5229" lon="7.10548">
        <ele>1815.6</ele>
        <time>2022-07-18T12:26:07Z</time>
      </trkpt>
      <trkpt lat="44.52291" lon="7.10556">
        <ele>1814.8</ele>
        <time>2022-07-18T12:26:08Z</time>
      </trkpt>
      <trkpt lat="44.52294" lon="7.10565">
        <ele>1814.2</ele>
        <time>2022-07-18T12:26:09Z</time>
      </trkpt>
      <trkpt lat="44.52298" lon="7.10574">
        <ele>1813.6</ele>
        <time>2022-07-18T12:26:10Z</time>
      </trkpt>
      <trkpt lat="44.52302" lon="7.10584">
        <ele>1813</ele>
        <time>2022-07-18T12:26:11Z</time>
      </trkpt>
      <trkpt lat="44.52306" lon="7.10594">
        <ele>1812.2</ele>
        <time>2022-07-18T12:26:12Z</time>
      </trkpt>
      <trkpt lat="44.52311" lon="7.10605">
        <ele>1811.6</ele>
        <time>2022-07-18T12:26:13Z</time>
      </trkpt>
      <trkpt lat="44.52315" lon="7.10616">
        <ele>1811</ele>
        <time>2022-07-18T12:26:14Z</time>
      </trkpt>
      <trkpt lat="44.52319" lon="7.10628">
        <ele>1810</ele>
        <time>2022-07-18T12:26:15Z</time>
      </trkpt>
      <trkpt lat="44.52323" lon="7.1064">
        <ele>1809.2</ele>
        <time>2022-07-18T12:26:16Z</time>
      </trkpt>
      <trkpt lat="44.52328" lon="7.10651">
        <ele>1808.4</ele>
        <time>2022-07-18T12:26:17Z</time>
      </trkpt>
      <trkpt lat="44.52332" lon="7.10661">
        <ele>1807.6</ele>
        <time>2022-07-18T12:26:18Z</time>
      </trkpt>
      <trkpt lat="44.52336" lon="7.1067">
        <ele>1806.8</ele>
        <time>2022-07-18T12:26:19Z</time>
      </trkpt>
      <trkpt lat="44.5234" lon="7.10677">
        <ele>1806</ele>
        <time>2022-07-18T12:26:20Z</time>
      </trkpt>
      <trkpt lat="44.52342" lon="7.10682">
        <ele>1805.4</ele>
        <time>2022-07-18T12:26:21Z</time>
      </trkpt>
      <trkpt lat="44.52342" lon="7.10687">
        <ele>1804.8</ele>
        <time>2022-07-18T12:26:22Z</time>
      </trkpt>
      <trkpt lat="44.52341" lon="7.10691">
        <ele>1804.4</ele>
        <time>2022-07-18T12:26:23Z</time>
      </trkpt>
      <trkpt lat="44.52337" lon="7.10693">
        <ele>1803.8</ele>
        <time>2022-07-18T12:26:24Z</time>
      </trkpt>
      <trkpt lat="44.52334" lon="7.1069">
        <ele>1803.4</ele>
        <time>2022-07-18T12:26:25Z</time>
      </trkpt>
      <trkpt lat="44.52332" lon="7.10685">
        <ele>1802.8</ele>
        <time>2022-07-18T12:26:26Z</time>
      </trkpt>
      <trkpt lat="44.5233" lon="7.10678">
        <ele>1802.4</ele>
        <time>2022-07-18T12:26:27Z</time>
      </trkpt>
      <trkpt lat="44.52326" lon="7.10671">
        <ele>1801.8</ele>
        <time>2022-07-18T12:26:28Z</time>
      </trkpt>
      <trkpt lat="44.5232" lon="7.10663">
        <ele>1801.2</ele>
        <time>2022-07-18T12:26:29Z</time>
      </trkpt>
      <trkpt lat="44.52314" lon="7.10654">
        <ele>1800.4</ele>
        <time>2022-07-18T12:26:30Z</time>
      </trkpt>
      <trkpt lat="44.52307" lon="7.10645">
        <ele>1799.8</ele>
        <time>2022-07-18T12:26:31Z</time>
      </trkpt>
      <trkpt lat="44.52301" lon="7.10636">
        <ele>1799</ele>
        <time>2022-07-18T12:26:32Z</time>
      </trkpt>
      <trkpt lat="44.52293" lon="7.10625">
        <ele>1798</ele>
        <time>2022-07-18T12:26:33Z</time>
      </trkpt>
      <trkpt lat="44.52284" lon="7.10615">
        <ele>1797.2</ele>
        <time>2022-07-18T12:26:34Z</time>
      </trkpt>
      <trkpt lat="44.52274" lon="7.10604">
        <ele>1796.4</ele>
        <time>2022-07-18T12:26:35Z</time>
      </trkpt>
      <trkpt lat="44.52265" lon="7.10595">
        <ele>1795.4</ele>
        <time>2022-07-18T12:26:36Z</time>
      </trkpt>
      <trkpt lat="44.52256" lon="7.10586">
        <ele>1794.6</ele>
        <time>2022-07-18T12:26:37Z</time>
      </trkpt>
      <trkpt lat="44.52247" lon="7.10579">
        <ele>1793.6</ele>
        <time>2022-07-18T12:26:38Z</time>
      </trkpt>
      <trkpt lat="44.52241" lon="7.10572">
        <ele>1792.8</ele>
        <time>2022-07-18T12:26:39Z</time>
      </trkpt>
      <trkpt lat="44.52233" lon="7.10565">
        <ele>1792</ele>
        <time>2022-07-18T12:26:40Z</time>
      </trkpt>
      <trkpt lat="44.52224" lon="7.10559">
        <ele>1791.2</ele>
        <time>2022-07-18T12:26:41Z</time>
      </trkpt>
      <trkpt lat="44.52216" lon="7.10555">
        <ele>1790.4</ele>
        <time>2022-07-18T12:26:42Z</time>
      </trkpt>
      <trkpt lat="44.52208" lon="7.10551">
        <ele>1789.4</ele>
        <time>2022-07-18T12:26:43Z</time>
      </trkpt>
      <trkpt lat="44.52199" lon="7.10548">
        <ele>1789</ele>
        <time>2022-07-18T12:26:44Z</time>
      </trkpt>
      <trkpt lat="44.52191" lon="7.10544">
        <ele>1788.2</ele>
        <time>2022-07-18T12:26:45Z</time>
      </trkpt>
      <trkpt lat="44.52183" lon="7.10541">
        <ele>1787.6</ele>
        <time>2022-07-18T12:26:46Z</time>
      </trkpt>
      <trkpt lat="44.52175" lon="7.10539">
        <ele>1787</ele>
        <time>2022-07-18T12:26:47Z</time>
      </trkpt>
      <trkpt lat="44.52166" lon="7.10538">
        <ele>1786.2</ele>
        <time>2022-07-18T12:26:48Z</time>
      </trkpt>
      <trkpt lat="44.52157" lon="7.10538">
        <ele>1785.4</ele>
        <time>2022-07-18T12:26:49Z</time>
      </trkpt>
      <trkpt lat="44.52148" lon="7.10538">
        <ele>1784.6</ele>
        <time>2022-07-18T12:26:50Z</time>
      </trkpt>
      <trkpt lat="44.52137" lon="7.10536">
        <ele>1784</ele>
        <time>2022-07-18T12:26:51Z</time>
      </trkpt>
      <trkpt lat="44.52128" lon="7.10535">
        <ele>1783.2</ele>
        <time>2022-07-18T12:26:52Z</time>
      </trkpt>
      <trkpt lat="44.52117" lon="7.10532">
        <ele>1782.6</ele>
        <time>2022-07-18T12:26:53Z</time>
      </trkpt>
      <trkpt lat="44.52107" lon="7.10529">
        <ele>1781.8</ele>
        <time>2022-07-18T12:26:54Z</time>
      </trkpt>
      <trkpt lat="44.52098" lon="7.10528">
        <ele>1781.2</ele>
        <time>2022-07-18T12:26:55Z</time>
      </trkpt>
      <trkpt lat="44.5209" lon="7.10527">
        <ele>1780.6</ele>
        <time>2022-07-18T12:26:56Z</time>
      </trkpt>
      <trkpt lat="44.52082" lon="7.10526">
        <ele>1780</ele>
        <time>2022-07-18T12:26:57Z</time>
      </trkpt>
      <trkpt lat="44.52074" lon="7.10527">
        <ele>1779.4</ele>
        <time>2022-07-18T12:26:58Z</time>
      </trkpt>
      <trkpt lat="44.52066" lon="7.10528">
        <ele>1778.8</ele>
        <time>2022-07-18T12:26:59Z</time>
      </trkpt>
      <trkpt lat="44.52059" lon="7.1053">
        <ele>1778.2</ele>
        <time>2022-07-18T12:27:00Z</time>
      </trkpt>
      <trkpt lat="44.52051" lon="7.10531">
        <ele>1777.4</ele>
        <time>2022-07-18T12:27:01Z</time>
      </trkpt>
      <trkpt lat="44.52043" lon="7.10532">
        <ele>1776.6</ele>
        <time>2022-07-18T12:27:02Z</time>
      </trkpt>
      <trkpt lat="44.52036" lon="7.10533">
        <ele>1775.8</ele>
        <time>2022-07-18T12:27:03Z</time>
      </trkpt>
      <trkpt lat="44.52029" lon="7.10534">
        <ele>1774.6</ele>
        <time>2022-07-18T12:27:04Z</time>
      </trkpt>
      <trkpt lat="44.52022" lon="7.10534">
        <ele>1773.6</ele>
        <time>2022-07-18T12:27:05Z</time>
      </trkpt>
      <trkpt lat="44.52016" lon="7.10534">
        <ele>1772.6</ele>
        <time>2022-07-18T12:27:06Z</time>
      </trkpt>
      <trkpt lat="44.52008" lon="7.10534">
        <ele>1771.4</ele>
        <time>2022-07-18T12:27:07Z</time>
      </trkpt>
      <trkpt lat="44.52" lon="7.10535">
        <ele>1770.4</ele>
        <time>2022-07-18T12:27:08Z</time>
      </trkpt>
      <trkpt lat="44.51991" lon="7.10536">
        <ele>1769.2</ele>
        <time>2022-07-18T12:27:09Z</time>
      </trkpt>
      <trkpt lat="44.51981" lon="7.10537">
        <ele>1768</ele>
        <time>2022-07-18T12:27:10Z</time>
      </trkpt>
      <trkpt lat="44.5197" lon="7.10537">
        <ele>1766.8</ele>
        <time>2022-07-18T12:27:11Z</time>
      </trkpt>
      <trkpt lat="44.5196" lon="7.10534">
        <ele>1765.4</ele>
        <time>2022-07-18T12:27:12Z</time>
      </trkpt>
      <trkpt lat="44.5195" lon="7.10531">
        <ele>1764</ele>
        <time>2022-07-18T12:27:13Z</time>
      </trkpt>
      <trkpt lat="44.5194" lon="7.10527">
        <ele>1762.8</ele>
        <time>2022-07-18T12:27:14Z</time>
      </trkpt>
      <trkpt lat="44.5193" lon="7.10523">
        <ele>1761.6</ele>
        <time>2022-07-18T12:27:15Z</time>
      </trkpt>
      <trkpt lat="44.5192" lon="7.10519">
        <ele>1760.4</ele>
        <time>2022-07-18T12:27:16Z</time>
      </trkpt>
      <trkpt lat="44.51911" lon="7.10516">
        <ele>1759</ele>
        <time>2022-07-18T12:27:17Z</time>
      </trkpt>
      <trkpt lat="44.51901" lon="7.10514">
        <ele>1757.8</ele>
        <time>2022-07-18T12:27:18Z</time>
      </trkpt>
      <trkpt lat="44.5189" lon="7.10512">
        <ele>1756.4</ele>
        <time>2022-07-18T12:27:19Z</time>
      </trkpt>
      <trkpt lat="44.51879" lon="7.1051">
        <ele>1755.2</ele>
        <time>2022-07-18T12:27:20Z</time>
      </trkpt>
      <trkpt lat="44.5187" lon="7.10507">
        <ele>1754</ele>
        <time>2022-07-18T12:27:21Z</time>
      </trkpt>
      <trkpt lat="44.5186" lon="7.10503">
        <ele>1752.8</ele>
        <time>2022-07-18T12:27:22Z</time>
      </trkpt>
      <trkpt lat="44.51852" lon="7.10498">
        <ele>1751.4</ele>
        <time>2022-07-18T12:27:23Z</time>
      </trkpt>
      <trkpt lat="44.51843" lon="7.1049">
        <ele>1750.4</ele>
        <time>2022-07-18T12:27:24Z</time>
      </trkpt>
      <trkpt lat="44.51833" lon="7.10482">
        <ele>1749.2</ele>
        <time>2022-07-18T12:27:25Z</time>
      </trkpt>
      <trkpt lat="44.51826" lon="7.10473">
        <ele>1748</ele>
        <time>2022-07-18T12:27:26Z</time>
      </trkpt>
      <trkpt lat="44.51817" lon="7.10465">
        <ele>1747</ele>
        <time>2022-07-18T12:27:27Z</time>
      </trkpt>
      <trkpt lat="44.51809" lon="7.10457">
        <ele>1745.8</ele>
        <time>2022-07-18T12:27:28Z</time>
      </trkpt>
      <trkpt lat="44.51801" lon="7.1045">
        <ele>1744.6</ele>
        <time>2022-07-18T12:27:29Z</time>
      </trkpt>
      <trkpt lat="44.51792" lon="7.10444">
        <ele>1743.6</ele>
        <time>2022-07-18T12:27:30Z</time>
      </trkpt>
      <trkpt lat="44.51782" lon="7.10438">
        <ele>1742.4</ele>
        <time>2022-07-18T12:27:31Z</time>
      </trkpt>
      <trkpt lat="44.51773" lon="7.10433">
        <ele>1741.2</ele>
        <time>2022-07-18T12:27:32Z</time>
      </trkpt>
      <trkpt lat="44.51763" lon="7.10429">
        <ele>1740.2</ele>
        <time>2022-07-18T12:27:33Z</time>
      </trkpt>
      <trkpt lat="44.51753" lon="7.10426">
        <ele>1739</ele>
        <time>2022-07-18T12:27:34Z</time>
      </trkpt>
      <trkpt lat="44.51743" lon="7.10425">
        <ele>1737.8</ele>
        <time>2022-07-18T12:27:35Z</time>
      </trkpt>
      <trkpt lat="44.51733" lon="7.10425">
        <ele>1736.6</ele>
        <time>2022-07-18T12:27:36Z</time>
      </trkpt>
      <trkpt lat="44.51722" lon="7.10426">
        <ele>1735.4</ele>
        <time>2022-07-18T12:27:37Z</time>
      </trkpt>
      <trkpt lat="44.51712" lon="7.10428">
        <ele>1734.2</ele>
        <time>2022-07-18T12:27:38Z</time>
      </trkpt>
      <trkpt lat="44.51703" lon="7.10428">
        <ele>1733</ele>
        <time>2022-07-18T12:27:39Z</time>
      </trkpt>
      <trkpt lat="44.51694" lon="7.10427">
        <ele>1731.8</ele>
        <time>2022-07-18T12:27:40Z</time>
      </trkpt>
      <trkpt lat="44.51686" lon="7.10427">
        <ele>1730.8</ele>
        <time>2022-07-18T12:27:41Z</time>
      </trkpt>
      <trkpt lat="44.5168" lon="7.10426">
        <ele>1729.8</ele>
        <time>2022-07-18T12:27:42Z</time>
      </trkpt>
      <trkpt lat="44.51675" lon="7.10426">
        <ele>1728.8</ele>
        <time>2022-07-18T12:27:43Z</time>
      </trkpt>
      <trkpt lat="44.51672" lon="7.10428">
        <ele>1727.4</ele>
        <time>2022-07-18T12:27:44Z</time>
      </trkpt>
      <trkpt lat="44.51671" lon="7.10434">
        <ele>1726.8</ele>
        <time>2022-07-18T12:27:45Z</time>
      </trkpt>
      <trkpt lat="44.51672" lon="7.10439">
        <ele>1726.2</ele>
        <time>2022-07-18T12:27:46Z</time>
      </trkpt>
      <trkpt lat="44.51674" lon="7.10445">
        <ele>1725.6</ele>
        <time>2022-07-18T12:27:47Z</time>
      </trkpt>
      <trkpt lat="44.51677" lon="7.1045">
        <ele>1725</ele>
        <time>2022-07-18T12:27:48Z</time>
      </trkpt>
      <trkpt lat="44.51681" lon="7.10455">
        <ele>1724.6</ele>
        <time>2022-07-18T12:27:49Z</time>
      </trkpt>
      <trkpt lat="44.51686" lon="7.10462">
        <ele>1723.8</ele>
        <time>2022-07-18T12:27:50Z</time>
      </trkpt>
      <trkpt lat="44.51692" lon="7.10468">
        <ele>1723</ele>
        <time>2022-07-18T12:27:51Z</time>
      </trkpt>
      <trkpt lat="44.51698" lon="7.10474">
        <ele>1722.2</ele>
        <time>2022-07-18T12:27:52Z</time>
      </trkpt>
      <trkpt lat="44.51706" lon="7.10481">
        <ele>1721.2</ele>
        <time>2022-07-18T12:27:53Z</time>
      </trkpt>
      <trkpt lat="44.51713" lon="7.1049">
        <ele>1720.2</ele>
        <time>2022-07-18T12:27:54Z</time>
      </trkpt>
      <trkpt lat="44.51721" lon="7.10499">
        <ele>1719</ele>
        <time>2022-07-18T12:27:55Z</time>
      </trkpt>
      <trkpt lat="44.51731" lon="7.10511">
        <ele>1718</ele>
        <time>2022-07-18T12:27:56Z</time>
      </trkpt>
      <trkpt lat="44.5174" lon="7.1052">
        <ele>1717</ele>
        <time>2022-07-18T12:27:57Z</time>
      </trkpt>
      <trkpt lat="44.51747" lon="7.10532">
        <ele>1716</ele>
        <time>2022-07-18T12:27:58Z</time>
      </trkpt>
      <trkpt lat="44.51752" lon="7.10543">
        <ele>1715</ele>
        <time>2022-07-18T12:27:59Z</time>
      </trkpt>
      <trkpt lat="44.51757" lon="7.10555">
        <ele>1714</ele>
        <time>2022-07-18T12:28:00Z</time>
      </trkpt>
      <trkpt lat="44.51762" lon="7.10565">
        <ele>1713</ele>
        <time>2022-07-18T12:28:01Z</time>
      </trkpt>
      <trkpt lat="44.51767" lon="7.10574">
        <ele>1712</ele>
        <time>2022-07-18T12:28:02Z</time>
      </trkpt>
      <trkpt lat="44.51772" lon="7.10582">
        <ele>1711.2</ele>
        <time>2022-07-18T12:28:03Z</time>
      </trkpt>
      <trkpt lat="44.51778" lon="7.10589">
        <ele>1710.2</ele>
        <time>2022-07-18T12:28:04Z</time>
      </trkpt>
      <trkpt lat="44.51784" lon="7.10596">
        <ele>1709.4</ele>
        <time>2022-07-18T12:28:05Z</time>
      </trkpt>
      <trkpt lat="44.51792" lon="7.10602">
        <ele>1708.4</ele>
        <time>2022-07-18T12:28:06Z</time>
      </trkpt>
      <trkpt lat="44.518" lon="7.10608">
        <ele>1707.6</ele>
        <time>2022-07-18T12:28:07Z</time>
      </trkpt>
      <trkpt lat="44.51808" lon="7.10614">
        <ele>1706.6</ele>
        <time>2022-07-18T12:28:08Z</time>
      </trkpt>
      <trkpt lat="44.51816" lon="7.10621">
        <ele>1705.6</ele>
        <time>2022-07-18T12:28:09Z</time>
      </trkpt>
      <trkpt lat="44.51823" lon="7.10627">
        <ele>1704.6</ele>
        <time>2022-07-18T12:28:10Z</time>
      </trkpt>
      <trkpt lat="44.51831" lon="7.10632">
        <ele>1703.6</ele>
        <time>2022-07-18T12:28:11Z</time>
      </trkpt>
      <trkpt lat="44.51839" lon="7.10635">
        <ele>1702.6</ele>
        <time>2022-07-18T12:28:12Z</time>
      </trkpt>
      <trkpt lat="44.51845" lon="7.10637">
        <ele>1701.8</ele>
        <time>2022-07-18T12:28:13Z</time>
      </trkpt>
      <trkpt lat="44.51851" lon="7.10639">
        <ele>1701</ele>
        <time>2022-07-18T12:28:14Z</time>
      </trkpt>
      <trkpt lat="44.51855" lon="7.10642">
        <ele>1700.2</ele>
        <time>2022-07-18T12:28:15Z</time>
      </trkpt>
      <trkpt lat="44.51857" lon="7.10647">
        <ele>1699.6</ele>
        <time>2022-07-18T12:28:16Z</time>
      </trkpt>
      <trkpt lat="44.51856" lon="7.10651">
        <ele>1699</ele>
        <time>2022-07-18T12:28:17Z</time>
      </trkpt>
      <trkpt lat="44.51853" lon="7.10655">
        <ele>1698.2</ele>
        <time>2022-07-18T12:28:18Z</time>
      </trkpt>
      <trkpt lat="44.51849" lon="7.10658">
        <ele>1697.8</ele>
        <time>2022-07-18T12:28:19Z</time>
      </trkpt>
      <trkpt lat="44.51843" lon="7.10657">
        <ele>1697.2</ele>
        <time>2022-07-18T12:28:20Z</time>
      </trkpt>
      <trkpt lat="44.51838" lon="7.10655">
        <ele>1696.6</ele>
        <time>2022-07-18T12:28:21Z</time>
      </trkpt>
      <trkpt lat="44.51831" lon="7.10654">
        <ele>1696</ele>
        <time>2022-07-18T12:28:22Z</time>
      </trkpt>
      <trkpt lat="44.51824" lon="7.10652">
        <ele>1695.4</ele>
        <time>2022-07-18T12:28:23Z</time>
      </trkpt>
      <trkpt lat="44.51816" lon="7.10652">
        <ele>1694.6</ele>
        <time>2022-07-18T12:28:24Z</time>
      </trkpt>
      <trkpt lat="44.51807" lon="7.10651">
        <ele>1693.6</ele>
        <time>2022-07-18T12:28:25Z</time>
      </trkpt>
      <trkpt lat="44.51798" lon="7.10651">
        <ele>1692.6</ele>
        <time>2022-07-18T12:28:26Z</time>
      </trkpt>
      <trkpt lat="44.51789" lon="7.10652">
        <ele>1691.6</ele>
        <time>2022-07-18T12:28:27Z</time>
      </trkpt>
      <trkpt lat="44.5178" lon="7.10653">
        <ele>1690.6</ele>
        <time>2022-07-18T12:28:28Z</time>
      </trkpt>
      <trkpt lat="44.51771" lon="7.10653">
        <ele>1689.8</ele>
        <time>2022-07-18T12:28:29Z</time>
      </trkpt>
      <trkpt lat="44.51763" lon="7.10653">
        <ele>1688.8</ele>
        <time>2022-07-18T12:28:30Z</time>
      </trkpt>
      <trkpt lat="44.51755" lon="7.1065">
        <ele>1688</ele>
        <time>2022-07-18T12:28:31Z</time>
      </trkpt>
      <trkpt lat="44.51746" lon="7.10646">
        <ele>1687</ele>
        <time>2022-07-18T12:28:32Z</time>
      </trkpt>
      <trkpt lat="44.51737" lon="7.10639">
        <ele>1686</ele>
        <time>2022-07-18T12:28:33Z</time>
      </trkpt>
      <trkpt lat="44.51727" lon="7.10632">
        <ele>1685</ele>
        <time>2022-07-18T12:28:34Z</time>
      </trkpt>
      <trkpt lat="44.51718" lon="7.10624">
        <ele>1683.8</ele>
        <time>2022-07-18T12:28:35Z</time>
      </trkpt>
      <trkpt lat="44.51709" lon="7.10616">
        <ele>1682.8</ele>
        <time>2022-07-18T12:28:36Z</time>
      </trkpt>
      <trkpt lat="44.51699" lon="7.10607">
        <ele>1681.6</ele>
        <time>2022-07-18T12:28:37Z</time>
      </trkpt>
      <trkpt lat="44.5169" lon="7.106">
        <ele>1680.6</ele>
        <time>2022-07-18T12:28:38Z</time>
      </trkpt>
      <trkpt lat="44.51681" lon="7.10593">
        <ele>1679.6</ele>
        <time>2022-07-18T12:28:39Z</time>
      </trkpt>
      <trkpt lat="44.51671" lon="7.10585">
        <ele>1678.6</ele>
        <time>2022-07-18T12:28:40Z</time>
      </trkpt>
      <trkpt lat="44.51661" lon="7.10577">
        <ele>1677.6</ele>
        <time>2022-07-18T12:28:41Z</time>
      </trkpt>
      <trkpt lat="44.51652" lon="7.10571">
        <ele>1676.6</ele>
        <time>2022-07-18T12:28:42Z</time>
      </trkpt>
      <trkpt lat="44.51643" lon="7.10564">
        <ele>1675.6</ele>
        <time>2022-07-18T12:28:43Z</time>
      </trkpt>
      <trkpt lat="44.51634" lon="7.10558">
        <ele>1674.6</ele>
        <time>2022-07-18T12:28:44Z</time>
      </trkpt>
      <trkpt lat="44.51625" lon="7.10553">
        <ele>1673.8</ele>
        <time>2022-07-18T12:28:45Z</time>
      </trkpt>
      <trkpt lat="44.51616" lon="7.10547">
        <ele>1672.8</ele>
        <time>2022-07-18T12:28:46Z</time>
      </trkpt>
      <trkpt lat="44.51606" lon="7.10543">
        <ele>1672</ele>
        <time>2022-07-18T12:28:47Z</time>
      </trkpt>
      <trkpt lat="44.51597" lon="7.10539">
        <ele>1671.2</ele>
        <time>2022-07-18T12:28:48Z</time>
      </trkpt>
      <trkpt lat="44.51587" lon="7.10537">
        <ele>1670.2</ele>
        <time>2022-07-18T12:28:49Z</time>
      </trkpt>
      <trkpt lat="44.51577" lon="7.10536">
        <ele>1669.2</ele>
        <time>2022-07-18T12:28:50Z</time>
      </trkpt>
      <trkpt lat="44.51567" lon="7.10535">
        <ele>1668.2</ele>
        <time>2022-07-18T12:28:51Z</time>
      </trkpt>
      <trkpt lat="44.51556" lon="7.10535">
        <ele>1667.2</ele>
        <time>2022-07-18T12:28:52Z</time>
      </trkpt>
      <trkpt lat="44.51546" lon="7.10535">
        <ele>1666.2</ele>
        <time>2022-07-18T12:28:53Z</time>
      </trkpt>
      <trkpt lat="44.51536" lon="7.10534">
        <ele>1665.2</ele>
        <time>2022-07-18T12:28:54Z</time>
      </trkpt>
      <trkpt lat="44.51527" lon="7.10534">
        <ele>1664.4</ele>
        <time>2022-07-18T12:28:55Z</time>
      </trkpt>
      <trkpt lat="44.51519" lon="7.10533">
        <ele>1663.4</ele>
        <time>2022-07-18T12:28:56Z</time>
      </trkpt>
      <trkpt lat="44.51512" lon="7.1053">
        <ele>1662.8</ele>
        <time>2022-07-18T12:28:57Z</time>
      </trkpt>
      <trkpt lat="44.51507" lon="7.10526">
        <ele>1662</ele>
        <time>2022-07-18T12:28:58Z</time>
      </trkpt>
      <trkpt lat="44.51502" lon="7.10522">
        <ele>1661.4</ele>
        <time>2022-07-18T12:28:59Z</time>
      </trkpt>
      <trkpt lat="44.51499" lon="7.10521">
        <ele>1661</ele>
        <time>2022-07-18T12:29:00Z</time>
      </trkpt>
      <trkpt lat="44.51495" lon="7.10521">
        <ele>1660.6</ele>
        <time>2022-07-18T12:29:01Z</time>
      </trkpt>
      <trkpt lat="44.51494" lon="7.10525">
        <ele>1660.2</ele>
        <time>2022-07-18T12:29:02Z</time>
      </trkpt>
      <trkpt lat="44.51494" lon="7.1053">
        <ele>1659.8</ele>
        <time>2022-07-18T12:29:03Z</time>
      </trkpt>
      <trkpt lat="44.51496" lon="7.10535">
        <ele>1659.4</ele>
        <time>2022-07-18T12:29:04Z</time>
      </trkpt>
      <trkpt lat="44.515" lon="7.10539">
        <ele>1659</ele>
        <time>2022-07-18T12:29:05Z</time>
      </trkpt>
      <trkpt lat="44.51506" lon="7.10542">
        <ele>1658.6</ele>
        <time>2022-07-18T12:29:06Z</time>
      </trkpt>
      <trkpt lat="44.51512" lon="7.10545">
        <ele>1658.2</ele>
        <time>2022-07-18T12:29:07Z</time>
      </trkpt>
      <trkpt lat="44.51519" lon="7.10548">
        <ele>1657.6</ele>
        <time>2022-07-18T12:29:08Z</time>
      </trkpt>
      <trkpt lat="44.51526" lon="7.10551">
        <ele>1657.2</ele>
        <time>2022-07-18T12:29:09Z</time>
      </trkpt>
      <trkpt lat="44.51533" lon="7.10554">
        <ele>1656.6</ele>
        <time>2022-07-18T12:29:10Z</time>
      </trkpt>
      <trkpt lat="44.51542" lon="7.10557">
        <ele>1656</ele>
        <time>2022-07-18T12:29:11Z</time>
      </trkpt>
      <trkpt lat="44.5155" lon="7.10561">
        <ele>1655.4</ele>
        <time>2022-07-18T12:29:12Z</time>
      </trkpt>
      <trkpt lat="44.51559" lon="7.10564">
        <ele>1654.6</ele>
        <time>2022-07-18T12:29:13Z</time>
      </trkpt>
      <trkpt lat="44.51567" lon="7.10567">
        <ele>1653.8</ele>
        <time>2022-07-18T12:29:14Z</time>
      </trkpt>
      <trkpt lat="44.51575" lon="7.10572">
        <ele>1653.2</ele>
        <time>2022-07-18T12:29:15Z</time>
      </trkpt>
      <trkpt lat="44.51582" lon="7.1058">
        <ele>1652.4</ele>
        <time>2022-07-18T12:29:16Z</time>
      </trkpt>
      <trkpt lat="44.51588" lon="7.10591">
        <ele>1651.6</ele>
        <time>2022-07-18T12:29:17Z</time>
      </trkpt>
      <trkpt lat="44.51595" lon="7.10602">
        <ele>1650.8</ele>
        <time>2022-07-18T12:29:18Z</time>
      </trkpt>
      <trkpt lat="44.51602" lon="7.10612">
        <ele>1649.8</ele>
        <time>2022-07-18T12:29:19Z</time>
      </trkpt>
      <trkpt lat="44.51609" lon="7.10622">
        <ele>1649</ele>
        <time>2022-07-18T12:29:20Z</time>
      </trkpt>
      <trkpt lat="44.51616" lon="7.10632">
        <ele>1648</ele>
        <time>2022-07-18T12:29:21Z</time>
      </trkpt>
      <trkpt lat="44.51623" lon="7.10641">
        <ele>1647</ele>
        <time>2022-07-18T12:29:22Z</time>
      </trkpt>
      <trkpt lat="44.51629" lon="7.10651">
        <ele>1646</ele>
        <time>2022-07-18T12:29:23Z</time>
      </trkpt>
      <trkpt lat="44.51634" lon="7.10661">
        <ele>1645</ele>
        <time>2022-07-18T12:29:24Z</time>
      </trkpt>
      <trkpt lat="44.51639" lon="7.1067">
        <ele>1644.2</ele>
        <time>2022-07-18T12:29:25Z</time>
      </trkpt>
      <trkpt lat="44.51645" lon="7.10678">
        <ele>1643.4</ele>
        <time>2022-07-18T12:29:26Z</time>
      </trkpt>
      <trkpt lat="44.51652" lon="7.10685">
        <ele>1642.4</ele>
        <time>2022-07-18T12:29:27Z</time>
      </trkpt>
      <trkpt lat="44.5166" lon="7.1069">
        <ele>1641.8</ele>
        <time>2022-07-18T12:29:28Z</time>
      </trkpt>
      <trkpt lat="44.51667" lon="7.10696">
        <ele>1640.8</ele>
        <time>2022-07-18T12:29:29Z</time>
      </trkpt>
      <trkpt lat="44.51674" lon="7.10704">
        <ele>1640</ele>
        <time>2022-07-18T12:29:30Z</time>
      </trkpt>
      <trkpt lat="44.51679" lon="7.10715">
        <ele>1639.4</ele>
        <time>2022-07-18T12:29:31Z</time>
      </trkpt>
      <trkpt lat="44.51683" lon="7.10725">
        <ele>1637.8</ele>
        <time>2022-07-18T12:29:33Z</time>
      </trkpt>
      <trkpt lat="44.51686" lon="7.10736">
        <ele>1637</ele>
        <time>2022-07-18T12:29:34Z</time>
      </trkpt>
      <trkpt lat="44.51691" lon="7.10746">
        <ele>1636.2</ele>
        <time>2022-07-18T12:29:35Z</time>
      </trkpt>
      <trkpt lat="44.51696" lon="7.10756">
        <ele>1635.2</ele>
        <time>2022-07-18T12:29:36Z</time>
      </trkpt>
      <trkpt lat="44.51702" lon="7.10765">
        <ele>1634.4</ele>
        <time>2022-07-18T12:29:37Z</time>
      </trkpt>
      <trkpt lat="44.51718" lon="7.10782">
        <ele>1633.4</ele>
        <time>2022-07-18T12:29:38Z</time>
      </trkpt>
      <trkpt lat="44.51727" lon="7.1079">
        <ele>1632.4</ele>
        <time>2022-07-18T12:29:39Z</time>
      </trkpt>
      <trkpt lat="44.51736" lon="7.10798">
        <ele>1631.4</ele>
        <time>2022-07-18T12:29:40Z</time>
      </trkpt>
      <trkpt lat="44.51746" lon="7.10805">
        <ele>1630.2</ele>
        <time>2022-07-18T12:29:41Z</time>
      </trkpt>
      <trkpt lat="44.51756" lon="7.10813">
        <ele>1629.2</ele>
        <time>2022-07-18T12:29:42Z</time>
      </trkpt>
      <trkpt lat="44.51765" lon="7.10822">
        <ele>1628.2</ele>
        <time>2022-07-18T12:29:43Z</time>
      </trkpt>
      <trkpt lat="44.51773" lon="7.10831">
        <ele>1627.2</ele>
        <time>2022-07-18T12:29:44Z</time>
      </trkpt>
      <trkpt lat="44.51782" lon="7.10841">
        <ele>1626</ele>
        <time>2022-07-18T12:29:45Z</time>
      </trkpt>
      <trkpt lat="44.5179" lon="7.10851">
        <ele>1625</ele>
        <time>2022-07-18T12:29:46Z</time>
      </trkpt>
      <trkpt lat="44.51798" lon="7.1086">
        <ele>1623.8</ele>
        <time>2022-07-18T12:29:47Z</time>
      </trkpt>
      <trkpt lat="44.51805" lon="7.10869">
        <ele>1622.8</ele>
        <time>2022-07-18T12:29:48Z</time>
      </trkpt>
      <trkpt lat="44.51812" lon="7.10875">
        <ele>1621.8</ele>
        <time>2022-07-18T12:29:49Z</time>
      </trkpt>
      <trkpt lat="44.51818" lon="7.10881">
        <ele>1621</ele>
        <time>2022-07-18T12:29:50Z</time>
      </trkpt>
      <trkpt lat="44.51824" lon="7.10884">
        <ele>1620.2</ele>
        <time>2022-07-18T12:29:51Z</time>
      </trkpt>
      <trkpt lat="44.51829" lon="7.10888">
        <ele>1619.6</ele>
        <time>2022-07-18T12:29:52Z</time>
      </trkpt>
      <trkpt lat="44.51831" lon="7.10893">
        <ele>1619</ele>
        <time>2022-07-18T12:29:53Z</time>
      </trkpt>
      <trkpt lat="44.51831" lon="7.10897">
        <ele>1618.4</ele>
        <time>2022-07-18T12:29:54Z</time>
      </trkpt>
      <trkpt lat="44.51827" lon="7.109">
        <ele>1617.8</ele>
        <time>2022-07-18T12:29:55Z</time>
      </trkpt>
      <trkpt lat="44.51822" lon="7.109">
        <ele>1617.2</ele>
        <time>2022-07-18T12:29:56Z</time>
      </trkpt>
      <trkpt lat="44.51816" lon="7.10897">
        <ele>1616.8</ele>
        <time>2022-07-18T12:29:57Z</time>
      </trkpt>
      <trkpt lat="44.5181" lon="7.10892">
        <ele>1616.2</ele>
        <time>2022-07-18T12:29:58Z</time>
      </trkpt>
      <trkpt lat="44.51803" lon="7.10888">
        <ele>1615.6</ele>
        <time>2022-07-18T12:29:59Z</time>
      </trkpt>
      <trkpt lat="44.51797" lon="7.10884">
        <ele>1614.8</ele>
        <time>2022-07-18T12:30:00Z</time>
      </trkpt>
      <trkpt lat="44.51789" lon="7.1088">
        <ele>1614.2</ele>
        <time>2022-07-18T12:30:01Z</time>
      </trkpt>
      <trkpt lat="44.51781" lon="7.10877">
        <ele>1613.4</ele>
        <time>2022-07-18T12:30:02Z</time>
      </trkpt>
      <trkpt lat="44.51772" lon="7.10874">
        <ele>1612.4</ele>
        <time>2022-07-18T12:30:03Z</time>
      </trkpt>
      <trkpt lat="44.51763" lon="7.10868">
        <ele>1611.6</ele>
        <time>2022-07-18T12:30:04Z</time>
      </trkpt>
      <trkpt lat="44.51754" lon="7.10863">
        <ele>1610.6</ele>
        <time>2022-07-18T12:30:05Z</time>
      </trkpt>
      <trkpt lat="44.51744" lon="7.10858">
        <ele>1609.6</ele>
        <time>2022-07-18T12:30:06Z</time>
      </trkpt>
      <trkpt lat="44.51734" lon="7.10853">
        <ele>1608.4</ele>
        <time>2022-07-18T12:30:07Z</time>
      </trkpt>
      <trkpt lat="44.51725" lon="7.1085">
        <ele>1607.4</ele>
        <time>2022-07-18T12:30:08Z</time>
      </trkpt>
      <trkpt lat="44.51715" lon="7.10847">
        <ele>1606.6</ele>
        <time>2022-07-18T12:30:09Z</time>
      </trkpt>
      <trkpt lat="44.51705" lon="7.10845">
        <ele>1605.4</ele>
        <time>2022-07-18T12:30:10Z</time>
      </trkpt>
      <trkpt lat="44.51696" lon="7.10842">
        <ele>1604.6</ele>
        <time>2022-07-18T12:30:11Z</time>
      </trkpt>
      <trkpt lat="44.51687" lon="7.10837">
        <ele>1603.6</ele>
        <time>2022-07-18T12:30:12Z</time>
      </trkpt>
      <trkpt lat="44.51678" lon="7.10831">
        <ele>1602.6</ele>
        <time>2022-07-18T12:30:13Z</time>
      </trkpt>
      <trkpt lat="44.51669" lon="7.10825">
        <ele>1601.8</ele>
        <time>2022-07-18T12:30:14Z</time>
      </trkpt>
      <trkpt lat="44.5166" lon="7.10819">
        <ele>1601</ele>
        <time>2022-07-18T12:30:15Z</time>
      </trkpt>
      <trkpt lat="44.51651" lon="7.10815">
        <ele>1600.2</ele>
        <time>2022-07-18T12:30:16Z</time>
      </trkpt>
      <trkpt lat="44.51642" lon="7.1081">
        <ele>1599.2</ele>
        <time>2022-07-18T12:30:17Z</time>
      </trkpt>
      <trkpt lat="44.51633" lon="7.10804">
        <ele>1598.4</ele>
        <time>2022-07-18T12:30:18Z</time>
      </trkpt>
      <trkpt lat="44.51624" lon="7.10799">
        <ele>1597.4</ele>
        <time>2022-07-18T12:30:19Z</time>
      </trkpt>
      <trkpt lat="44.51615" lon="7.10795">
        <ele>1596.6</ele>
        <time>2022-07-18T12:30:20Z</time>
      </trkpt>
      <trkpt lat="44.51606" lon="7.10792">
        <ele>1595.6</ele>
        <time>2022-07-18T12:30:21Z</time>
      </trkpt>
      <trkpt lat="44.51597" lon="7.1079">
        <ele>1594.6</ele>
        <time>2022-07-18T12:30:22Z</time>
      </trkpt>
      <trkpt lat="44.51588" lon="7.1079">
        <ele>1593.8</ele>
        <time>2022-07-18T12:30:23Z</time>
      </trkpt>
      <trkpt lat="44.51579" lon="7.10791">
        <ele>1593</ele>
        <time>2022-07-18T12:30:24Z</time>
      </trkpt>
      <trkpt lat="44.51569" lon="7.10792">
        <ele>1592.2</ele>
        <time>2022-07-18T12:30:25Z</time>
      </trkpt>
      <trkpt lat="44.5156" lon="7.10792">
        <ele>1591.4</ele>
        <time>2022-07-18T12:30:26Z</time>
      </trkpt>
      <trkpt lat="44.51551" lon="7.10791">
        <ele>1590.6</ele>
        <time>2022-07-18T12:30:27Z</time>
      </trkpt>
      <trkpt lat="44.51542" lon="7.1079">
        <ele>1589.8</ele>
        <time>2022-07-18T12:30:28Z</time>
      </trkpt>
      <trkpt lat="44.51533" lon="7.10789">
        <ele>1589</ele>
        <time>2022-07-18T12:30:29Z</time>
      </trkpt>
      <trkpt lat="44.51525" lon="7.10788">
        <ele>1588.4</ele>
        <time>2022-07-18T12:30:30Z</time>
      </trkpt>
      <trkpt lat="44.51516" lon="7.10785">
        <ele>1587.6</ele>
        <time>2022-07-18T12:30:31Z</time>
      </trkpt>
      <trkpt lat="44.51507" lon="7.10781">
        <ele>1586.8</ele>
        <time>2022-07-18T12:30:32Z</time>
      </trkpt>
      <trkpt lat="44.51498" lon="7.10777">
        <ele>1586</ele>
        <time>2022-07-18T12:30:33Z</time>
      </trkpt>
      <trkpt lat="44.51489" lon="7.10773">
        <ele>1585.4</ele>
        <time>2022-07-18T12:30:34Z</time>
      </trkpt>
      <trkpt lat="44.5148" lon="7.10767">
        <ele>1584.6</ele>
        <time>2022-07-18T12:30:35Z</time>
      </trkpt>
      <trkpt lat="44.51471" lon="7.10763">
        <ele>1584</ele>
        <time>2022-07-18T12:30:36Z</time>
      </trkpt>
      <trkpt lat="44.51463" lon="7.10757">
        <ele>1583.2</ele>
        <time>2022-07-18T12:30:37Z</time>
      </trkpt>
      <trkpt lat="44.51455" lon="7.10751">
        <ele>1582.4</ele>
        <time>2022-07-18T12:30:38Z</time>
      </trkpt>
      <trkpt lat="44.51447" lon="7.10747">
        <ele>1581.6</ele>
        <time>2022-07-18T12:30:39Z</time>
      </trkpt>
      <trkpt lat="44.51438" lon="7.10745">
        <ele>1581</ele>
        <time>2022-07-18T12:30:40Z</time>
      </trkpt>
      <trkpt lat="44.51429" lon="7.10746">
        <ele>1580.2</ele>
        <time>2022-07-18T12:30:41Z</time>
      </trkpt>
      <trkpt lat="44.51419" lon="7.10747">
        <ele>1579.4</ele>
        <time>2022-07-18T12:30:42Z</time>
      </trkpt>
      <trkpt lat="44.51408" lon="7.1075">
        <ele>1578.4</ele>
        <time>2022-07-18T12:30:43Z</time>
      </trkpt>
      <trkpt lat="44.51398" lon="7.10752">
        <ele>1577.6</ele>
        <time>2022-07-18T12:30:44Z</time>
      </trkpt>
      <trkpt lat="44.51387" lon="7.10755">
        <ele>1576.8</ele>
        <time>2022-07-18T12:30:45Z</time>
      </trkpt>
      <trkpt lat="44.51377" lon="7.10757">
        <ele>1576</ele>
        <time>2022-07-18T12:30:46Z</time>
      </trkpt>
      <trkpt lat="44.51367" lon="7.1076">
        <ele>1575.2</ele>
        <time>2022-07-18T12:30:47Z</time>
      </trkpt>
      <trkpt lat="44.51357" lon="7.10763">
        <ele>1574.6</ele>
        <time>2022-07-18T12:30:48Z</time>
      </trkpt>
      <trkpt lat="44.51348" lon="7.10767">
        <ele>1573.8</ele>
        <time>2022-07-18T12:30:49Z</time>
      </trkpt>
      <trkpt lat="44.51339" lon="7.10771">
        <ele>1573.2</ele>
        <time>2022-07-18T12:30:50Z</time>
      </trkpt>
      <trkpt lat="44.5133" lon="7.10775">
        <ele>1572.4</ele>
        <time>2022-07-18T12:30:51Z</time>
      </trkpt>
      <trkpt lat="44.51321" lon="7.1078">
        <ele>1571.6</ele>
        <time>2022-07-18T12:30:52Z</time>
      </trkpt>
      <trkpt lat="44.51312" lon="7.10788">
        <ele>1570.8</ele>
        <time>2022-07-18T12:30:53Z</time>
      </trkpt>
      <trkpt lat="44.51303" lon="7.10796">
        <ele>1570</ele>
        <time>2022-07-18T12:30:54Z</time>
      </trkpt>
      <trkpt lat="44.51295" lon="7.10803">
        <ele>1569.2</ele>
        <time>2022-07-18T12:30:55Z</time>
      </trkpt>
      <trkpt lat="44.51286" lon="7.1081">
        <ele>1568.4</ele>
        <time>2022-07-18T12:30:56Z</time>
      </trkpt>
      <trkpt lat="44.51277" lon="7.10818">
        <ele>1567.6</ele>
        <time>2022-07-18T12:30:57Z</time>
      </trkpt>
      <trkpt lat="44.51267" lon="7.10828">
        <ele>1566.6</ele>
        <time>2022-07-18T12:30:58Z</time>
      </trkpt>
      <trkpt lat="44.51257" lon="7.10837">
        <ele>1565.2</ele>
        <time>2022-07-18T12:30:59Z</time>
      </trkpt>
      <trkpt lat="44.51247" lon="7.10845">
        <ele>1564.2</ele>
        <time>2022-07-18T12:31:00Z</time>
      </trkpt>
      <trkpt lat="44.51237" lon="7.10852">
        <ele>1564.2</ele>
        <time>2022-07-18T12:31:01Z</time>
      </trkpt>
      <trkpt lat="44.51227" lon="7.1086">
        <ele>1563</ele>
        <time>2022-07-18T12:31:02Z</time>
      </trkpt>
      <trkpt lat="44.51218" lon="7.10868">
        <ele>1562</ele>
        <time>2022-07-18T12:31:03Z</time>
      </trkpt>
      <trkpt lat="44.51208" lon="7.10877">
        <ele>1560.8</ele>
        <time>2022-07-18T12:31:04Z</time>
      </trkpt>
      <trkpt lat="44.51199" lon="7.10887">
        <ele>1559.6</ele>
        <time>2022-07-18T12:31:05Z</time>
      </trkpt>
      <trkpt lat="44.51189" lon="7.10897">
        <ele>1558.4</ele>
        <time>2022-07-18T12:31:06Z</time>
      </trkpt>
      <trkpt lat="44.5118" lon="7.10907">
        <ele>1557.2</ele>
        <time>2022-07-18T12:31:07Z</time>
      </trkpt>
      <trkpt lat="44.51172" lon="7.10918">
        <ele>1556</ele>
        <time>2022-07-18T12:31:08Z</time>
      </trkpt>
      <trkpt lat="44.51163" lon="7.10929">
        <ele>1554.8</ele>
        <time>2022-07-18T12:31:09Z</time>
      </trkpt>
      <trkpt lat="44.51155" lon="7.10939">
        <ele>1553.6</ele>
        <time>2022-07-18T12:31:10Z</time>
      </trkpt>
      <trkpt lat="44.51145" lon="7.10948">
        <ele>1552.4</ele>
        <time>2022-07-18T12:31:11Z</time>
      </trkpt>
      <trkpt lat="44.51136" lon="7.10957">
        <ele>1551.2</ele>
        <time>2022-07-18T12:31:12Z</time>
      </trkpt>
      <trkpt lat="44.51127" lon="7.10965">
        <ele>1550</ele>
        <time>2022-07-18T12:31:13Z</time>
      </trkpt>
      <trkpt lat="44.51118" lon="7.10974">
        <ele>1548.8</ele>
        <time>2022-07-18T12:31:14Z</time>
      </trkpt>
      <trkpt lat="44.5111" lon="7.10984">
        <ele>1547.6</ele>
        <time>2022-07-18T12:31:15Z</time>
      </trkpt>
      <trkpt lat="44.51102" lon="7.10992">
        <ele>1546.6</ele>
        <time>2022-07-18T12:31:16Z</time>
      </trkpt>
      <trkpt lat="44.51094" lon="7.11">
        <ele>1545.6</ele>
        <time>2022-07-18T12:31:17Z</time>
      </trkpt>
      <trkpt lat="44.51086" lon="7.11007">
        <ele>1544.6</ele>
        <time>2022-07-18T12:31:18Z</time>
      </trkpt>
      <trkpt lat="44.51077" lon="7.11012">
        <ele>1543.6</ele>
        <time>2022-07-18T12:31:19Z</time>
      </trkpt>
      <trkpt lat="44.51068" lon="7.11018">
        <ele>1542.6</ele>
        <time>2022-07-18T12:31:20Z</time>
      </trkpt>
      <trkpt lat="44.51059" lon="7.11022">
        <ele>1541.4</ele>
        <time>2022-07-18T12:31:21Z</time>
      </trkpt>
      <trkpt lat="44.51049" lon="7.11026">
        <ele>1540.6</ele>
        <time>2022-07-18T12:31:22Z</time>
      </trkpt>
      <trkpt lat="44.51039" lon="7.11031">
        <ele>1539.6</ele>
        <time>2022-07-18T12:31:23Z</time>
      </trkpt>
      <trkpt lat="44.51029" lon="7.11035">
        <ele>1538.6</ele>
        <time>2022-07-18T12:31:24Z</time>
      </trkpt>
      <trkpt lat="44.5102" lon="7.11039">
        <ele>1537.6</ele>
        <time>2022-07-18T12:31:25Z</time>
      </trkpt>
      <trkpt lat="44.51012" lon="7.11043">
        <ele>1536.8</ele>
        <time>2022-07-18T12:31:26Z</time>
      </trkpt>
      <trkpt lat="44.51005" lon="7.11045">
        <ele>1536</ele>
        <time>2022-07-18T12:31:27Z</time>
      </trkpt>
      <trkpt lat="44.50997" lon="7.11046">
        <ele>1535.2</ele>
        <time>2022-07-18T12:31:28Z</time>
      </trkpt>
      <trkpt lat="44.50991" lon="7.11045">
        <ele>1534.4</ele>
        <time>2022-07-18T12:31:29Z</time>
      </trkpt>
      <trkpt lat="44.50986" lon="7.11043">
        <ele>1533.8</ele>
        <time>2022-07-18T12:31:30Z</time>
      </trkpt>
      <trkpt lat="44.50982" lon="7.11043">
        <ele>1533.2</ele>
        <time>2022-07-18T12:31:31Z</time>
      </trkpt>
      <trkpt lat="44.50978" lon="7.11045">
        <ele>1532.6</ele>
        <time>2022-07-18T12:31:32Z</time>
      </trkpt>
      <trkpt lat="44.50977" lon="7.11049">
        <ele>1532</ele>
        <time>2022-07-18T12:31:33Z</time>
      </trkpt>
      <trkpt lat="44.50977" lon="7.11054">
        <ele>1531.6</ele>
        <time>2022-07-18T12:31:34Z</time>
      </trkpt>
      <trkpt lat="44.50981" lon="7.11057">
        <ele>1531</ele>
        <time>2022-07-18T12:31:35Z</time>
      </trkpt>
      <trkpt lat="44.50985" lon="7.11059">
        <ele>1530.6</ele>
        <time>2022-07-18T12:31:36Z</time>
      </trkpt>
      <trkpt lat="44.50991" lon="7.11058">
        <ele>1530.2</ele>
        <time>2022-07-18T12:31:37Z</time>
      </trkpt>
      <trkpt lat="44.50997" lon="7.11058">
        <ele>1529.6</ele>
        <time>2022-07-18T12:31:38Z</time>
      </trkpt>
      <trkpt lat="44.51004" lon="7.11058">
        <ele>1529</ele>
        <time>2022-07-18T12:31:39Z</time>
      </trkpt>
      <trkpt lat="44.51011" lon="7.11058">
        <ele>1528.4</ele>
        <time>2022-07-18T12:31:40Z</time>
      </trkpt>
      <trkpt lat="44.51019" lon="7.11057">
        <ele>1527.8</ele>
        <time>2022-07-18T12:31:41Z</time>
      </trkpt>
      <trkpt lat="44.51027" lon="7.11057">
        <ele>1527.2</ele>
        <time>2022-07-18T12:31:42Z</time>
      </trkpt>
      <trkpt lat="44.51036" lon="7.11057">
        <ele>1526.6</ele>
        <time>2022-07-18T12:31:43Z</time>
      </trkpt>
      <trkpt lat="44.51044" lon="7.11056">
        <ele>1526</ele>
        <time>2022-07-18T12:31:44Z</time>
      </trkpt>
      <trkpt lat="44.51054" lon="7.11056">
        <ele>1525.4</ele>
        <time>2022-07-18T12:31:45Z</time>
      </trkpt>
      <trkpt lat="44.51063" lon="7.11055">
        <ele>1524.6</ele>
        <time>2022-07-18T12:31:46Z</time>
      </trkpt>
      <trkpt lat="44.51073" lon="7.11053">
        <ele>1523.8</ele>
        <time>2022-07-18T12:31:47Z</time>
      </trkpt>
      <trkpt lat="44.51083" lon="7.11051">
        <ele>1522.8</ele>
        <time>2022-07-18T12:31:48Z</time>
      </trkpt>
      <trkpt lat="44.51091" lon="7.11048">
        <ele>1522</ele>
        <time>2022-07-18T12:31:49Z</time>
      </trkpt>
      <trkpt lat="44.51099" lon="7.11044">
        <ele>1521</ele>
        <time>2022-07-18T12:31:50Z</time>
      </trkpt>
      <trkpt lat="44.51106" lon="7.1104">
        <ele>1520.4</ele>
        <time>2022-07-18T12:31:51Z</time>
      </trkpt>
      <trkpt lat="44.51111" lon="7.11036">
        <ele>1519.6</ele>
        <time>2022-07-18T12:31:52Z</time>
      </trkpt>
      <trkpt lat="44.51116" lon="7.11032">
        <ele>1518.8</ele>
        <time>2022-07-18T12:31:53Z</time>
      </trkpt>
      <trkpt lat="44.5112" lon="7.11031">
        <ele>1518.2</ele>
        <time>2022-07-18T12:31:54Z</time>
      </trkpt>
      <trkpt lat="44.51123" lon="7.11033">
        <ele>1517.8</ele>
        <time>2022-07-18T12:31:55Z</time>
      </trkpt>
      <trkpt lat="44.51124" lon="7.11038">
        <ele>1517</ele>
        <time>2022-07-18T12:31:56Z</time>
      </trkpt>
      <trkpt lat="44.51124" lon="7.11044">
        <ele>1516.6</ele>
        <time>2022-07-18T12:31:57Z</time>
      </trkpt>
      <trkpt lat="44.5112" lon="7.11049">
        <ele>1516</ele>
        <time>2022-07-18T12:31:58Z</time>
      </trkpt>
      <trkpt lat="44.51114" lon="7.11053">
        <ele>1515.4</ele>
        <time>2022-07-18T12:31:59Z</time>
      </trkpt>
      <trkpt lat="44.51107" lon="7.11057">
        <ele>1514.8</ele>
        <time>2022-07-18T12:32:00Z</time>
      </trkpt>
      <trkpt lat="44.511" lon="7.11062">
        <ele>1514.2</ele>
        <time>2022-07-18T12:32:01Z</time>
      </trkpt>
      <trkpt lat="44.51093" lon="7.11068">
        <ele>1513.6</ele>
        <time>2022-07-18T12:32:02Z</time>
      </trkpt>
      <trkpt lat="44.51085" lon="7.11073">
        <ele>1512.8</ele>
        <time>2022-07-18T12:32:03Z</time>
      </trkpt>
      <trkpt lat="44.51077" lon="7.11078">
        <ele>1512.2</ele>
        <time>2022-07-18T12:32:04Z</time>
      </trkpt>
      <trkpt lat="44.51067" lon="7.11082">
        <ele>1511.6</ele>
        <time>2022-07-18T12:32:05Z</time>
      </trkpt>
      <trkpt lat="44.51057" lon="7.11086">
        <ele>1511</ele>
        <time>2022-07-18T12:32:06Z</time>
      </trkpt>
      <trkpt lat="44.51046" lon="7.1109">
        <ele>1510</ele>
        <time>2022-07-18T12:32:07Z</time>
      </trkpt>
      <trkpt lat="44.51035" lon="7.11094">
        <ele>1509.2</ele>
        <time>2022-07-18T12:32:08Z</time>
      </trkpt>
      <trkpt lat="44.51025" lon="7.11099">
        <ele>1508.2</ele>
        <time>2022-07-18T12:32:09Z</time>
      </trkpt>
      <trkpt lat="44.51014" lon="7.11103">
        <ele>1507.2</ele>
        <time>2022-07-18T12:32:10Z</time>
      </trkpt>
      <trkpt lat="44.51003" lon="7.11107">
        <ele>1506.4</ele>
        <time>2022-07-18T12:32:11Z</time>
      </trkpt>
      <trkpt lat="44.50993" lon="7.11112">
        <ele>1505.4</ele>
        <time>2022-07-18T12:32:12Z</time>
      </trkpt>
      <trkpt lat="44.50983" lon="7.11117">
        <ele>1504.4</ele>
        <time>2022-07-18T12:32:13Z</time>
      </trkpt>
      <trkpt lat="44.50973" lon="7.11123">
        <ele>1503.6</ele>
        <time>2022-07-18T12:32:14Z</time>
      </trkpt>
      <trkpt lat="44.50963" lon="7.11128">
        <ele>1502.4</ele>
        <time>2022-07-18T12:32:15Z</time>
      </trkpt>
      <trkpt lat="44.50953" lon="7.11132">
        <ele>1501.2</ele>
        <time>2022-07-18T12:32:16Z</time>
      </trkpt>
      <trkpt lat="44.50944" lon="7.11136">
        <ele>1500</ele>
        <time>2022-07-18T12:32:17Z</time>
      </trkpt>
      <trkpt lat="44.50935" lon="7.11139">
        <ele>1498.8</ele>
        <time>2022-07-18T12:32:18Z</time>
      </trkpt>
      <trkpt lat="44.50928" lon="7.11142">
        <ele>1497.8</ele>
        <time>2022-07-18T12:32:19Z</time>
      </trkpt>
      <trkpt lat="44.50921" lon="7.11145">
        <ele>1497</ele>
        <time>2022-07-18T12:32:20Z</time>
      </trkpt>
      <trkpt lat="44.50914" lon="7.11145">
        <ele>1496.2</ele>
        <time>2022-07-18T12:32:21Z</time>
      </trkpt>
      <trkpt lat="44.50909" lon="7.11142">
        <ele>1495.4</ele>
        <time>2022-07-18T12:32:22Z</time>
      </trkpt>
      <trkpt lat="44.50905" lon="7.11137">
        <ele>1494.8</ele>
        <time>2022-07-18T12:32:23Z</time>
      </trkpt>
      <trkpt lat="44.50902" lon="7.1113">
        <ele>1494.4</ele>
        <time>2022-07-18T12:32:24Z</time>
      </trkpt>
      <trkpt lat="44.509" lon="7.11121">
        <ele>1494</ele>
        <time>2022-07-18T12:32:25Z</time>
      </trkpt>
      <trkpt lat="44.50899" lon="7.11111">
        <ele>1493.4</ele>
        <time>2022-07-18T12:32:26Z</time>
      </trkpt>
      <trkpt lat="44.50899" lon="7.111">
        <ele>1492.8</ele>
        <time>2022-07-18T12:32:27Z</time>
      </trkpt>
      <trkpt lat="44.50899" lon="7.11089">
        <ele>1492.2</ele>
        <time>2022-07-18T12:32:28Z</time>
      </trkpt>
      <trkpt lat="44.50898" lon="7.11076">
        <ele>1491.6</ele>
        <time>2022-07-18T12:32:29Z</time>
      </trkpt>
      <trkpt lat="44.50899" lon="7.11064">
        <ele>1490.8</ele>
        <time>2022-07-18T12:32:30Z</time>
      </trkpt>
      <trkpt lat="44.509" lon="7.11051">
        <ele>1490</ele>
        <time>2022-07-18T12:32:31Z</time>
      </trkpt>
      <trkpt lat="44.50903" lon="7.11036">
        <ele>1489.2</ele>
        <time>2022-07-18T12:32:32Z</time>
      </trkpt>
      <trkpt lat="44.50905" lon="7.11024">
        <ele>1488.2</ele>
        <time>2022-07-18T12:32:33Z</time>
      </trkpt>
      <trkpt lat="44.50906" lon="7.1101">
        <ele>1487.2</ele>
        <time>2022-07-18T12:32:34Z</time>
      </trkpt>
      <trkpt lat="44.50905" lon="7.10996">
        <ele>1486.2</ele>
        <time>2022-07-18T12:32:35Z</time>
      </trkpt>
      <trkpt lat="44.50902" lon="7.1098">
        <ele>1485.2</ele>
        <time>2022-07-18T12:32:36Z</time>
      </trkpt>
      <trkpt lat="44.50899" lon="7.10965">
        <ele>1484.2</ele>
        <time>2022-07-18T12:32:37Z</time>
      </trkpt>
      <trkpt lat="44.50896" lon="7.10949">
        <ele>1483.2</ele>
        <time>2022-07-18T12:32:38Z</time>
      </trkpt>
      <trkpt lat="44.50893" lon="7.10934">
        <ele>1482</ele>
        <time>2022-07-18T12:32:39Z</time>
      </trkpt>
      <trkpt lat="44.50891" lon="7.10919">
        <ele>1480.8</ele>
        <time>2022-07-18T12:32:40Z</time>
      </trkpt>
      <trkpt lat="44.50889" lon="7.10904">
        <ele>1479.8</ele>
        <time>2022-07-18T12:32:41Z</time>
      </trkpt>
      <trkpt lat="44.50887" lon="7.1089">
        <ele>1478.4</ele>
        <time>2022-07-18T12:32:42Z</time>
      </trkpt>
      <trkpt lat="44.50885" lon="7.10875">
        <ele>1477.2</ele>
        <time>2022-07-18T12:32:43Z</time>
      </trkpt>
      <trkpt lat="44.50883" lon="7.1086">
        <ele>1475.8</ele>
        <time>2022-07-18T12:32:44Z</time>
      </trkpt>
      <trkpt lat="44.5088" lon="7.10845">
        <ele>1474.6</ele>
        <time>2022-07-18T12:32:45Z</time>
      </trkpt>
      <trkpt lat="44.50877" lon="7.1083">
        <ele>1473.2</ele>
        <time>2022-07-18T12:32:46Z</time>
      </trkpt>
      <trkpt lat="44.50874" lon="7.10816">
        <ele>1471.8</ele>
        <time>2022-07-18T12:32:47Z</time>
      </trkpt>
      <trkpt lat="44.50872" lon="7.108">
        <ele>1470.6</ele>
        <time>2022-07-18T12:32:48Z</time>
      </trkpt>
      <trkpt lat="44.5087" lon="7.10785">
        <ele>1469</ele>
        <time>2022-07-18T12:32:49Z</time>
      </trkpt>
      <trkpt lat="44.50867" lon="7.1077">
        <ele>1467.8</ele>
        <time>2022-07-18T12:32:50Z</time>
      </trkpt>
      <trkpt lat="44.50865" lon="7.10754">
        <ele>1466.6</ele>
        <time>2022-07-18T12:32:51Z</time>
      </trkpt>
      <trkpt lat="44.50862" lon="7.1074">
        <ele>1465.4</ele>
        <time>2022-07-18T12:32:52Z</time>
      </trkpt>
      <trkpt lat="44.50859" lon="7.10725">
        <ele>1464.2</ele>
        <time>2022-07-18T12:32:53Z</time>
      </trkpt>
      <trkpt lat="44.50855" lon="7.10712">
        <ele>1463</ele>
        <time>2022-07-18T12:32:54Z</time>
      </trkpt>
      <trkpt lat="44.50851" lon="7.10698">
        <ele>1462</ele>
        <time>2022-07-18T12:32:55Z</time>
      </trkpt>
      <trkpt lat="44.50846" lon="7.10686">
        <ele>1461</ele>
        <time>2022-07-18T12:32:56Z</time>
      </trkpt>
      <trkpt lat="44.5084" lon="7.10673">
        <ele>1460</ele>
        <time>2022-07-18T12:32:57Z</time>
      </trkpt>
      <trkpt lat="44.50833" lon="7.1066">
        <ele>1459.2</ele>
        <time>2022-07-18T12:32:58Z</time>
      </trkpt>
      <trkpt lat="44.50827" lon="7.10647">
        <ele>1458</ele>
        <time>2022-07-18T12:32:59Z</time>
      </trkpt>
      <trkpt lat="44.5082" lon="7.10636">
        <ele>1456.8</ele>
        <time>2022-07-18T12:33:00Z</time>
      </trkpt>
      <trkpt lat="44.50814" lon="7.10625">
        <ele>1455.8</ele>
        <time>2022-07-18T12:33:01Z</time>
      </trkpt>
      <trkpt lat="44.50807" lon="7.10614">
        <ele>1454.6</ele>
        <time>2022-07-18T12:33:02Z</time>
      </trkpt>
      <trkpt lat="44.50801" lon="7.10604">
        <ele>1453.6</ele>
        <time>2022-07-18T12:33:03Z</time>
      </trkpt>
      <trkpt lat="44.50796" lon="7.10594">
        <ele>1452.4</ele>
        <time>2022-07-18T12:33:04Z</time>
      </trkpt>
      <trkpt lat="44.50791" lon="7.10583">
        <ele>1451.2</ele>
        <time>2022-07-18T12:33:05Z</time>
      </trkpt>
      <trkpt lat="44.50786" lon="7.10574">
        <ele>1450.2</ele>
        <time>2022-07-18T12:33:06Z</time>
      </trkpt>
      <trkpt lat="44.50783" lon="7.10564">
        <ele>1449.4</ele>
        <time>2022-07-18T12:33:07Z</time>
      </trkpt>
      <trkpt lat="44.5078" lon="7.10555">
        <ele>1448.6</ele>
        <time>2022-07-18T12:33:08Z</time>
      </trkpt>
      <trkpt lat="44.50778" lon="7.10546">
        <ele>1447.8</ele>
        <time>2022-07-18T12:33:09Z</time>
      </trkpt>
      <trkpt lat="44.50776" lon="7.10538">
        <ele>1447</ele>
        <time>2022-07-18T12:33:10Z</time>
      </trkpt>
      <trkpt lat="44.50774" lon="7.10534">
        <ele>1446.4</ele>
        <time>2022-07-18T12:33:11Z</time>
      </trkpt>
      <trkpt lat="44.50771" lon="7.10532">
        <ele>1446</ele>
        <time>2022-07-18T12:33:12Z</time>
      </trkpt>
      <trkpt lat="44.50768" lon="7.10534">
        <ele>1445.4</ele>
        <time>2022-07-18T12:33:13Z</time>
      </trkpt>
      <trkpt lat="44.50767" lon="7.10541">
        <ele>1445</ele>
        <time>2022-07-18T12:33:14Z</time>
      </trkpt>
      <trkpt lat="44.50767" lon="7.10549">
        <ele>1444.6</ele>
        <time>2022-07-18T12:33:15Z</time>
      </trkpt>
      <trkpt lat="44.50767" lon="7.10559">
        <ele>1444</ele>
        <time>2022-07-18T12:33:16Z</time>
      </trkpt>
      <trkpt lat="44.50766" lon="7.1057">
        <ele>1443.2</ele>
        <time>2022-07-18T12:33:17Z</time>
      </trkpt>
      <trkpt lat="44.50765" lon="7.10582">
        <ele>1442.4</ele>
        <time>2022-07-18T12:33:18Z</time>
      </trkpt>
      <trkpt lat="44.50764" lon="7.10594">
        <ele>1441.6</ele>
        <time>2022-07-18T12:33:19Z</time>
      </trkpt>
      <trkpt lat="44.50763" lon="7.10607">
        <ele>1440.8</ele>
        <time>2022-07-18T12:33:20Z</time>
      </trkpt>
      <trkpt lat="44.50762" lon="7.1062">
        <ele>1439.8</ele>
        <time>2022-07-18T12:33:21Z</time>
      </trkpt>
      <trkpt lat="44.50761" lon="7.10635">
        <ele>1439</ele>
        <time>2022-07-18T12:33:22Z</time>
      </trkpt>
      <trkpt lat="44.5076" lon="7.1065">
        <ele>1438.2</ele>
        <time>2022-07-18T12:33:23Z</time>
      </trkpt>
      <trkpt lat="44.50759" lon="7.10665">
        <ele>1437</ele>
        <time>2022-07-18T12:33:24Z</time>
      </trkpt>
      <trkpt lat="44.50758" lon="7.1068">
        <ele>1436</ele>
        <time>2022-07-18T12:33:25Z</time>
      </trkpt>
      <trkpt lat="44.50757" lon="7.10695">
        <ele>1434.8</ele>
        <time>2022-07-18T12:33:26Z</time>
      </trkpt>
      <trkpt lat="44.50755" lon="7.10711">
        <ele>1433.4</ele>
        <time>2022-07-18T12:33:27Z</time>
      </trkpt>
      <trkpt lat="44.50754" lon="7.10725">
        <ele>1432.2</ele>
        <time>2022-07-18T12:33:28Z</time>
      </trkpt>
      <trkpt lat="44.50751" lon="7.1074">
        <ele>1431</ele>
        <time>2022-07-18T12:33:29Z</time>
      </trkpt>
      <trkpt lat="44.50748" lon="7.10754">
        <ele>1430</ele>
        <time>2022-07-18T12:33:30Z</time>
      </trkpt>
      <trkpt lat="44.50744" lon="7.10767">
        <ele>1428.8</ele>
        <time>2022-07-18T12:33:31Z</time>
      </trkpt>
      <trkpt lat="44.50738" lon="7.10779">
        <ele>1427.8</ele>
        <time>2022-07-18T12:33:32Z</time>
      </trkpt>
      <trkpt lat="44.50732" lon="7.1079">
        <ele>1427</ele>
        <time>2022-07-18T12:33:33Z</time>
      </trkpt>
      <trkpt lat="44.50726" lon="7.108">
        <ele>1426.2</ele>
        <time>2022-07-18T12:33:34Z</time>
      </trkpt>
      <trkpt lat="44.5072" lon="7.10808">
        <ele>1425.4</ele>
        <time>2022-07-18T12:33:35Z</time>
      </trkpt>
      <trkpt lat="44.50714" lon="7.10815">
        <ele>1424.6</ele>
        <time>2022-07-18T12:33:36Z</time>
      </trkpt>
      <trkpt lat="44.50709" lon="7.10822">
        <ele>1424</ele>
        <time>2022-07-18T12:33:37Z</time>
      </trkpt>
      <trkpt lat="44.50704" lon="7.10829">
        <ele>1423.4</ele>
        <time>2022-07-18T12:33:38Z</time>
      </trkpt>
      <trkpt lat="44.507" lon="7.10836">
        <ele>1422.6</ele>
        <time>2022-07-18T12:33:39Z</time>
      </trkpt>
      <trkpt lat="44.50697" lon="7.10844">
        <ele>1422</ele>
        <time>2022-07-18T12:33:40Z</time>
      </trkpt>
      <trkpt lat="44.50695" lon="7.10853">
        <ele>1421.2</ele>
        <time>2022-07-18T12:33:41Z</time>
      </trkpt>
      <trkpt lat="44.50695" lon="7.10863">
        <ele>1420.4</ele>
        <time>2022-07-18T12:33:42Z</time>
      </trkpt>
      <trkpt lat="44.50696" lon="7.10874">
        <ele>1419.6</ele>
        <time>2022-07-18T12:33:43Z</time>
      </trkpt>
      <trkpt lat="44.50697" lon="7.10886">
        <ele>1418.6</ele>
        <time>2022-07-18T12:33:44Z</time>
      </trkpt>
      <trkpt lat="44.50697" lon="7.10898">
        <ele>1417.6</ele>
        <time>2022-07-18T12:33:45Z</time>
      </trkpt>
      <trkpt lat="44.50697" lon="7.10911">
        <ele>1416.6</ele>
        <time>2022-07-18T12:33:46Z</time>
      </trkpt>
      <trkpt lat="44.50695" lon="7.10924">
        <ele>1415.4</ele>
        <time>2022-07-18T12:33:47Z</time>
      </trkpt>
      <trkpt lat="44.50692" lon="7.10938">
        <ele>1414.2</ele>
        <time>2022-07-18T12:33:48Z</time>
      </trkpt>
      <trkpt lat="44.50689" lon="7.10951">
        <ele>1413</ele>
        <time>2022-07-18T12:33:49Z</time>
      </trkpt>
      <trkpt lat="44.50685" lon="7.10965">
        <ele>1412</ele>
        <time>2022-07-18T12:33:50Z</time>
      </trkpt>
      <trkpt lat="44.50681" lon="7.10978">
        <ele>1411</ele>
        <time>2022-07-18T12:33:51Z</time>
      </trkpt>
      <trkpt lat="44.50679" lon="7.10991">
        <ele>1410</ele>
        <time>2022-07-18T12:33:52Z</time>
      </trkpt>
      <trkpt lat="44.50676" lon="7.11004">
        <ele>1409</ele>
        <time>2022-07-18T12:33:53Z</time>
      </trkpt>
      <trkpt lat="44.50674" lon="7.11016">
        <ele>1408.2</ele>
        <time>2022-07-18T12:33:54Z</time>
      </trkpt>
      <trkpt lat="44.50672" lon="7.11027">
        <ele>1407.8</ele>
        <time>2022-07-18T12:33:55Z</time>
      </trkpt>
      <trkpt lat="44.50671" lon="7.11036">
        <ele>1407</ele>
        <time>2022-07-18T12:33:56Z</time>
      </trkpt>
      <trkpt lat="44.50672" lon="7.11045">
        <ele>1406.4</ele>
        <time>2022-07-18T12:33:57Z</time>
      </trkpt>
      <trkpt lat="44.50674" lon="7.11053">
        <ele>1405.8</ele>
        <time>2022-07-18T12:33:58Z</time>
      </trkpt>
      <trkpt lat="44.50678" lon="7.11061">
        <ele>1405.2</ele>
        <time>2022-07-18T12:33:59Z</time>
      </trkpt>
      <trkpt lat="44.50682" lon="7.11067">
        <ele>1404.8</ele>
        <time>2022-07-18T12:34:00Z</time>
      </trkpt>
      <trkpt lat="44.50687" lon="7.11074">
        <ele>1404.2</ele>
        <time>2022-07-18T12:34:01Z</time>
      </trkpt>
      <trkpt lat="44.50693" lon="7.1108">
        <ele>1403.8</ele>
        <time>2022-07-18T12:34:02Z</time>
      </trkpt>
      <trkpt lat="44.50699" lon="7.11086">
        <ele>1403.4</ele>
        <time>2022-07-18T12:34:03Z</time>
      </trkpt>
      <trkpt lat="44.50705" lon="7.11093">
        <ele>1402.8</ele>
        <time>2022-07-18T12:34:04Z</time>
      </trkpt>
      <trkpt lat="44.50712" lon="7.11101">
        <ele>1402.4</ele>
        <time>2022-07-18T12:34:05Z</time>
      </trkpt>
      <trkpt lat="44.50718" lon="7.11112">
        <ele>1401.8</ele>
        <time>2022-07-18T12:34:06Z</time>
      </trkpt>
      <trkpt lat="44.50723" lon="7.11123">
        <ele>1401.6</ele>
        <time>2022-07-18T12:34:07Z</time>
      </trkpt>
      <trkpt lat="44.50727" lon="7.11133">
        <ele>1401.2</ele>
        <time>2022-07-18T12:34:08Z</time>
      </trkpt>
      <trkpt lat="44.50731" lon="7.11143">
        <ele>1401.2</ele>
        <time>2022-07-18T12:34:09Z</time>
      </trkpt>
      <trkpt lat="44.50736" lon="7.11153">
        <ele>1401.2</ele>
        <time>2022-07-18T12:34:10Z</time>
      </trkpt>
      <trkpt lat="44.50741" lon="7.11162">
        <ele>1401</ele>
        <time>2022-07-18T12:34:11Z</time>
      </trkpt>
      <trkpt lat="44.50746" lon="7.11171">
        <ele>1401</ele>
        <time>2022-07-18T12:34:12Z</time>
      </trkpt>
      <trkpt lat="44.50752" lon="7.1118">
        <ele>1400.6</ele>
        <time>2022-07-18T12:34:13Z</time>
      </trkpt>
      <trkpt lat="44.50756" lon="7.11191">
        <ele>1400.4</ele>
        <time>2022-07-18T12:34:14Z</time>
      </trkpt>
      <trkpt lat="44.50761" lon="7.11201">
        <ele>1400.2</ele>
        <time>2022-07-18T12:34:15Z</time>
      </trkpt>
      <trkpt lat="44.50765" lon="7.11211">
        <ele>1400.2</ele>
        <time>2022-07-18T12:34:16Z</time>
      </trkpt>
      <trkpt lat="44.50768" lon="7.11222">
        <ele>1400.2</ele>
        <time>2022-07-18T12:34:17Z</time>
      </trkpt>
      <trkpt lat="44.5077" lon="7.11232">
        <ele>1399.8</ele>
        <time>2022-07-18T12:34:18Z</time>
      </trkpt>
      <trkpt lat="44.50772" lon="7.11242">
        <ele>1399.8</ele>
        <time>2022-07-18T12:34:19Z</time>
      </trkpt>
      <trkpt lat="44.50774" lon="7.11252">
        <ele>1400</ele>
        <time>2022-07-18T12:34:20Z</time>
      </trkpt>
      <trkpt lat="44.50775" lon="7.11261">
        <ele>1400</ele>
        <time>2022-07-18T12:34:21Z</time>
      </trkpt>
      <trkpt lat="44.50777" lon="7.1127">
        <ele>1400.4</ele>
        <time>2022-07-18T12:34:22Z</time>
      </trkpt>
      <trkpt lat="44.50778" lon="7.11278">
        <ele>1400.6</ele>
        <time>2022-07-18T12:34:23Z</time>
      </trkpt>
      <trkpt lat="44.50779" lon="7.11286">
        <ele>1400.6</ele>
        <time>2022-07-18T12:34:24Z</time>
      </trkpt>
      <trkpt lat="44.50779" lon="7.11294">
        <ele>1401</ele>
        <time>2022-07-18T12:34:25Z</time>
      </trkpt>
      <trkpt lat="44.50779" lon="7.11301">
        <ele>1401.2</ele>
        <time>2022-07-18T12:34:26Z</time>
      </trkpt>
      <trkpt lat="44.50779" lon="7.11308">
        <ele>1401.2</ele>
        <time>2022-07-18T12:34:27Z</time>
      </trkpt>
      <trkpt lat="44.5078" lon="7.11315">
        <ele>1401.6</ele>
        <time>2022-07-18T12:34:28Z</time>
      </trkpt>
      <trkpt lat="44.50781" lon="7.11322">
        <ele>1401.8</ele>
        <time>2022-07-18T12:34:29Z</time>
      </trkpt>
      <trkpt lat="44.50781" lon="7.11329">
        <ele>1402</ele>
        <time>2022-07-18T12:34:30Z</time>
      </trkpt>
      <trkpt lat="44.50781" lon="7.11336">
        <ele>1402</ele>
        <time>2022-07-18T12:34:31Z</time>
      </trkpt>
      <trkpt lat="44.50782" lon="7.11342">
        <ele>1402.4</ele>
        <time>2022-07-18T12:34:32Z</time>
      </trkpt>
      <trkpt lat="44.50782" lon="7.11349">
        <ele>1402.4</ele>
        <time>2022-07-18T12:34:33Z</time>
      </trkpt>
      <trkpt lat="44.50782" lon="7.11356">
        <ele>1402.8</ele>
        <time>2022-07-18T12:34:34Z</time>
      </trkpt>
      <trkpt lat="44.50782" lon="7.11363">
        <ele>1402.8</ele>
        <time>2022-07-18T12:34:35Z</time>
      </trkpt>
      <trkpt lat="44.50782" lon="7.11369">
        <ele>1403</ele>
        <time>2022-07-18T12:34:36Z</time>
      </trkpt>
      <trkpt lat="44.50782" lon="7.11375">
        <ele>1403</ele>
        <time>2022-07-18T12:34:37Z</time>
      </trkpt>
      <trkpt lat="44.50781" lon="7.11381">
        <ele>1403.2</ele>
        <time>2022-07-18T12:34:38Z</time>
      </trkpt>
      <trkpt lat="44.50781" lon="7.11387">
        <ele>1403.2</ele>
        <time>2022-07-18T12:34:39Z</time>
      </trkpt>
      <trkpt lat="44.50781" lon="7.11393">
        <ele>1403.4</ele>
        <time>2022-07-18T12:34:40Z</time>
      </trkpt>
      <trkpt lat="44.50781" lon="7.114">
        <ele>1403.4</ele>
        <time>2022-07-18T12:34:41Z</time>
      </trkpt>
      <trkpt lat="44.50781" lon="7.11406">
        <ele>1403.4</ele>
        <time>2022-07-18T12:34:42Z</time>
      </trkpt>
      <trkpt lat="44.50781" lon="7.11413">
        <ele>1403.4</ele>
        <time>2022-07-18T12:34:43Z</time>
      </trkpt>
      <trkpt lat="44.50782" lon="7.11419">
        <ele>1403.4</ele>
        <time>2022-07-18T12:34:44Z</time>
      </trkpt>
      <trkpt lat="44.50782" lon="7.11425">
        <ele>1403.4</ele>
        <time>2022-07-18T12:34:45Z</time>
      </trkpt>
      <trkpt lat="44.50783" lon="7.1143">
        <ele>1403.4</ele>
        <time>2022-07-18T12:34:46Z</time>
      </trkpt>
      <trkpt lat="44.50785" lon="7.11436">
        <ele>1403.4</ele>
        <time>2022-07-18T12:34:47Z</time>
      </trkpt>
      <trkpt lat="44.50786" lon="7.11441">
        <ele>1403.4</ele>
        <time>2022-07-18T12:34:48Z</time>
      </trkpt>
      <trkpt lat="44.50788" lon="7.11446">
        <ele>1403.6</ele>
        <time>2022-07-18T12:34:49Z</time>
      </trkpt>
      <trkpt lat="44.5079" lon="7.11452">
        <ele>1403.6</ele>
        <time>2022-07-18T12:34:50Z</time>
      </trkpt>
      <trkpt lat="44.50792" lon="7.11457">
        <ele>1403.6</ele>
        <time>2022-07-18T12:34:51Z</time>
      </trkpt>
      <trkpt lat="44.50795" lon="7.11461">
        <ele>1403.6</ele>
        <time>2022-07-18T12:34:52Z</time>
      </trkpt>
      <trkpt lat="44.50798" lon="7.11465">
        <ele>1403.6</ele>
        <time>2022-07-18T12:34:53Z</time>
      </trkpt>
      <trkpt lat="44.50801" lon="7.11469">
        <ele>1403.6</ele>
        <time>2022-07-18T12:34:54Z</time>
      </trkpt>
      <trkpt lat="44.50805" lon="7.11472">
        <ele>1403.6</ele>
        <time>2022-07-18T12:34:55Z</time>
      </trkpt>
      <trkpt lat="44.5081" lon="7.11474">
        <ele>1403.6</ele>
        <time>2022-07-18T12:34:56Z</time>
      </trkpt>
      <trkpt lat="44.50814" lon="7.11474">
        <ele>1403.4</ele>
        <time>2022-07-18T12:34:57Z</time>
      </trkpt>
      <trkpt lat="44.50819" lon="7.11473">
        <ele>1403.4</ele>
        <time>2022-07-18T12:34:58Z</time>
      </trkpt>
      <trkpt lat="44.50824" lon="7.11471">
        <ele>1403.4</ele>
        <time>2022-07-18T12:34:59Z</time>
      </trkpt>
      <trkpt lat="44.50828" lon="7.11468">
        <ele>1403.4</ele>
        <time>2022-07-18T12:35:00Z</time>
      </trkpt>
      <trkpt lat="44.50833" lon="7.11465">
        <ele>1403</ele>
        <time>2022-07-18T12:35:01Z</time>
      </trkpt>
      <trkpt lat="44.50837" lon="7.11461">
        <ele>1403</ele>
        <time>2022-07-18T12:35:02Z</time>
      </trkpt>
      <trkpt lat="44.50841" lon="7.11456">
        <ele>1403</ele>
        <time>2022-07-18T12:35:03Z</time>
      </trkpt>
      <trkpt lat="44.50846" lon="7.11452">
        <ele>1403</ele>
        <time>2022-07-18T12:35:04Z</time>
      </trkpt>
      <trkpt lat="44.50849" lon="7.11447">
        <ele>1402.8</ele>
        <time>2022-07-18T12:35:05Z</time>
      </trkpt>
      <trkpt lat="44.50853" lon="7.11442">
        <ele>1402.8</ele>
        <time>2022-07-18T12:35:06Z</time>
      </trkpt>
      <trkpt lat="44.50857" lon="7.11438">
        <ele>1402.8</ele>
        <time>2022-07-18T12:35:07Z</time>
      </trkpt>
      <trkpt lat="44.5086" lon="7.11434">
        <ele>1402.6</ele>
        <time>2022-07-18T12:35:08Z</time>
      </trkpt>
      <trkpt lat="44.50864" lon="7.11429">
        <ele>1402.6</ele>
        <time>2022-07-18T12:35:09Z</time>
      </trkpt>
      <trkpt lat="44.50867" lon="7.11425">
        <ele>1402.6</ele>
        <time>2022-07-18T12:35:10Z</time>
      </trkpt>
      <trkpt lat="44.50871" lon="7.11421">
        <ele>1402.6</ele>
        <time>2022-07-18T12:35:11Z</time>
      </trkpt>
      <trkpt lat="44.50874" lon="7.11417">
        <ele>1402.6</ele>
        <time>2022-07-18T12:35:12Z</time>
      </trkpt>
      <trkpt lat="44.50878" lon="7.11413">
        <ele>1402.6</ele>
        <time>2022-07-18T12:35:13Z</time>
      </trkpt>
      <trkpt lat="44.50881" lon="7.11409">
        <ele>1402.2</ele>
        <time>2022-07-18T12:35:14Z</time>
      </trkpt>
      <trkpt lat="44.50885" lon="7.11405">
        <ele>1402.2</ele>
        <time>2022-07-18T12:35:15Z</time>
      </trkpt>
      <trkpt lat="44.50889" lon="7.114">
        <ele>1402.2</ele>
        <time>2022-07-18T12:35:16Z</time>
      </trkpt>
      <trkpt lat="44.50892" lon="7.11396">
        <ele>1402.2</ele>
        <time>2022-07-18T12:35:17Z</time>
      </trkpt>
      <trkpt lat="44.50896" lon="7.11392">
        <ele>1402.2</ele>
        <time>2022-07-18T12:35:18Z</time>
      </trkpt>
      <trkpt lat="44.50899" lon="7.11388">
        <ele>1402.2</ele>
        <time>2022-07-18T12:35:19Z</time>
      </trkpt>
      <trkpt lat="44.50903" lon="7.11385">
        <ele>1402.2</ele>
        <time>2022-07-18T12:35:20Z</time>
      </trkpt>
      <trkpt lat="44.50906" lon="7.11381">
        <ele>1402.2</ele>
        <time>2022-07-18T12:35:21Z</time>
      </trkpt>
      <trkpt lat="44.50909" lon="7.11376">
        <ele>1402.4</ele>
        <time>2022-07-18T12:35:22Z</time>
      </trkpt>
      <trkpt lat="44.50912" lon="7.11371">
        <ele>1402.4</ele>
        <time>2022-07-18T12:35:23Z</time>
      </trkpt>
      <trkpt lat="44.50915" lon="7.11366">
        <ele>1402.4</ele>
        <time>2022-07-18T12:35:24Z</time>
      </trkpt>
      <trkpt lat="44.50919" lon="7.11363">
        <ele>1402.4</ele>
        <time>2022-07-18T12:35:25Z</time>
      </trkpt>
      <trkpt lat="44.50922" lon="7.1136">
        <ele>1402.8</ele>
        <time>2022-07-18T12:35:26Z</time>
      </trkpt>
      <trkpt lat="44.50925" lon="7.11356">
        <ele>1402.8</ele>
        <time>2022-07-18T12:35:27Z</time>
      </trkpt>
      <trkpt lat="44.50929" lon="7.11353">
        <ele>1402.8</ele>
        <time>2022-07-18T12:35:28Z</time>
      </trkpt>
      <trkpt lat="44.50933" lon="7.11349">
        <ele>1402.8</ele>
        <time>2022-07-18T12:35:29Z</time>
      </trkpt>
      <trkpt lat="44.50936" lon="7.11346">
        <ele>1403</ele>
        <time>2022-07-18T12:35:30Z</time>
      </trkpt>
      <trkpt lat="44.50939" lon="7.11342">
        <ele>1403</ele>
        <time>2022-07-18T12:35:31Z</time>
      </trkpt>
      <trkpt lat="44.50942" lon="7.11339">
        <ele>1403</ele>
        <time>2022-07-18T12:35:32Z</time>
      </trkpt>
      <trkpt lat="44.50945" lon="7.11337">
        <ele>1403</ele>
        <time>2022-07-18T12:35:33Z</time>
      </trkpt>
      <trkpt lat="44.50949" lon="7.11334">
        <ele>1403</ele>
        <time>2022-07-18T12:35:34Z</time>
      </trkpt>
      <trkpt lat="44.50953" lon="7.11331">
        <ele>1403.2</ele>
        <time>2022-07-18T12:35:35Z</time>
      </trkpt>
      <trkpt lat="44.50957" lon="7.11328">
        <ele>1403.2</ele>
        <time>2022-07-18T12:35:36Z</time>
      </trkpt>
      <trkpt lat="44.50962" lon="7.11325">
        <ele>1403.2</ele>
        <time>2022-07-18T12:35:37Z</time>
      </trkpt>
      <trkpt lat="44.50967" lon="7.11322">
        <ele>1403.2</ele>
        <time>2022-07-18T12:35:38Z</time>
      </trkpt>
      <trkpt lat="44.50972" lon="7.1132">
        <ele>1403.2</ele>
        <time>2022-07-18T12:35:39Z</time>
      </trkpt>
      <trkpt lat="44.50977" lon="7.11318">
        <ele>1403.2</ele>
        <time>2022-07-18T12:35:40Z</time>
      </trkpt>
      <trkpt lat="44.50981" lon="7.11316">
        <ele>1403.2</ele>
        <time>2022-07-18T12:35:41Z</time>
      </trkpt>
      <trkpt lat="44.50986" lon="7.11315">
        <ele>1403</ele>
        <time>2022-07-18T12:35:42Z</time>
      </trkpt>
      <trkpt lat="44.50991" lon="7.11313">
        <ele>1403</ele>
        <time>2022-07-18T12:35:43Z</time>
      </trkpt>
      <trkpt lat="44.50996" lon="7.1131">
        <ele>1402.8</ele>
        <time>2022-07-18T12:35:44Z</time>
      </trkpt>
      <trkpt lat="44.51001" lon="7.11309">
        <ele>1402.8</ele>
        <time>2022-07-18T12:35:45Z</time>
      </trkpt>
      <trkpt lat="44.51007" lon="7.11307">
        <ele>1402.4</ele>
        <time>2022-07-18T12:35:46Z</time>
      </trkpt>
      <trkpt lat="44.51013" lon="7.11305">
        <ele>1402.4</ele>
        <time>2022-07-18T12:35:47Z</time>
      </trkpt>
      <trkpt lat="44.51018" lon="7.11304">
        <ele>1402</ele>
        <time>2022-07-18T12:35:48Z</time>
      </trkpt>
      <trkpt lat="44.51025" lon="7.11302">
        <ele>1401.8</ele>
        <time>2022-07-18T12:35:49Z</time>
      </trkpt>
      <trkpt lat="44.51032" lon="7.11301">
        <ele>1401.6</ele>
        <time>2022-07-18T12:35:50Z</time>
      </trkpt>
      <trkpt lat="44.51038" lon="7.11298">
        <ele>1401.6</ele>
        <time>2022-07-18T12:35:51Z</time>
      </trkpt>
      <trkpt lat="44.51045" lon="7.11296">
        <ele>1401.2</ele>
        <time>2022-07-18T12:35:52Z</time>
      </trkpt>
      <trkpt lat="44.5105" lon="7.11295">
        <ele>1401</ele>
        <time>2022-07-18T12:35:53Z</time>
      </trkpt>
      <trkpt lat="44.51056" lon="7.11294">
        <ele>1400.6</ele>
        <time>2022-07-18T12:35:54Z</time>
      </trkpt>
      <trkpt lat="44.51062" lon="7.11293">
        <ele>1400.2</ele>
        <time>2022-07-18T12:35:55Z</time>
      </trkpt>
      <trkpt lat="44.51068" lon="7.11293">
        <ele>1400</ele>
        <time>2022-07-18T12:35:56Z</time>
      </trkpt>
      <trkpt lat="44.51074" lon="7.11294">
        <ele>1399.8</ele>
        <time>2022-07-18T12:35:57Z</time>
      </trkpt>
      <trkpt lat="44.5108" lon="7.11295">
        <ele>1399.4</ele>
        <time>2022-07-18T12:35:58Z</time>
      </trkpt>
      <trkpt lat="44.51086" lon="7.11296">
        <ele>1399</ele>
        <time>2022-07-18T12:35:59Z</time>
      </trkpt>
      <trkpt lat="44.51092" lon="7.11297">
        <ele>1398.4</ele>
        <time>2022-07-18T12:36:00Z</time>
      </trkpt>
      <trkpt lat="44.51098" lon="7.11297">
        <ele>1398</ele>
        <time>2022-07-18T12:36:01Z</time>
      </trkpt>
      <trkpt lat="44.51104" lon="7.11297">
        <ele>1397.6</ele>
        <time>2022-07-18T12:36:02Z</time>
      </trkpt>
      <trkpt lat="44.5111" lon="7.11298">
        <ele>1397</ele>
        <time>2022-07-18T12:36:03Z</time>
      </trkpt>
      <trkpt lat="44.51116" lon="7.11301">
        <ele>1396.6</ele>
        <time>2022-07-18T12:36:04Z</time>
      </trkpt>
      <trkpt lat="44.51122" lon="7.11304">
        <ele>1396</ele>
        <time>2022-07-18T12:36:05Z</time>
      </trkpt>
      <trkpt lat="44.51128" lon="7.11308">
        <ele>1395.6</ele>
        <time>2022-07-18T12:36:06Z</time>
      </trkpt>
      <trkpt lat="44.51136" lon="7.11312">
        <ele>1395.2</ele>
        <time>2022-07-18T12:36:07Z</time>
      </trkpt>
      <trkpt lat="44.51142" lon="7.11315">
        <ele>1394.8</ele>
        <time>2022-07-18T12:36:08Z</time>
      </trkpt>
      <trkpt lat="44.51148" lon="7.11317">
        <ele>1394.6</ele>
        <time>2022-07-18T12:36:09Z</time>
      </trkpt>
      <trkpt lat="44.51154" lon="7.11316">
        <ele>1394.4</ele>
        <time>2022-07-18T12:36:10Z</time>
      </trkpt>
      <trkpt lat="44.51159" lon="7.11314">
        <ele>1394</ele>
        <time>2022-07-18T12:36:11Z</time>
      </trkpt>
      <trkpt lat="44.51163" lon="7.1131">
        <ele>1393.8</ele>
        <time>2022-07-18T12:36:12Z</time>
      </trkpt>
      <trkpt lat="44.51166" lon="7.11306">
        <ele>1393.6</ele>
        <time>2022-07-18T12:36:13Z</time>
      </trkpt>
      <trkpt lat="44.51169" lon="7.11302">
        <ele>1393.2</ele>
        <time>2022-07-18T12:36:14Z</time>
      </trkpt>
      <trkpt lat="44.51172" lon="7.11298">
        <ele>1392.8</ele>
        <time>2022-07-18T12:36:15Z</time>
      </trkpt>
      <trkpt lat="44.51174" lon="7.11294">
        <ele>1392.4</ele>
        <time>2022-07-18T12:36:16Z</time>
      </trkpt>
      <trkpt lat="44.51176" lon="7.1129">
        <ele>1392</ele>
        <time>2022-07-18T12:36:17Z</time>
      </trkpt>
      <trkpt lat="44.51178" lon="7.11285">
        <ele>1391.6</ele>
        <time>2022-07-18T12:36:18Z</time>
      </trkpt>
      <trkpt lat="44.51182" lon="7.1128">
        <ele>1391.2</ele>
        <time>2022-07-18T12:36:19Z</time>
      </trkpt>
      <trkpt lat="44.51185" lon="7.11275">
        <ele>1390.8</ele>
        <time>2022-07-18T12:36:20Z</time>
      </trkpt>
      <trkpt lat="44.51189" lon="7.11272">
        <ele>1390.2</ele>
        <time>2022-07-18T12:36:21Z</time>
      </trkpt>
      <trkpt lat="44.51194" lon="7.11268">
        <ele>1389.8</ele>
        <time>2022-07-18T12:36:22Z</time>
      </trkpt>
      <trkpt lat="44.51199" lon="7.11262">
        <ele>1389.2</ele>
        <time>2022-07-18T12:36:23Z</time>
      </trkpt>
      <trkpt lat="44.51204" lon="7.11257">
        <ele>1388.6</ele>
        <time>2022-07-18T12:36:24Z</time>
      </trkpt>
      <trkpt lat="44.5121" lon="7.11253">
        <ele>1388</ele>
        <time>2022-07-18T12:36:25Z</time>
      </trkpt>
      <trkpt lat="44.51216" lon="7.1125">
        <ele>1387.4</ele>
        <time>2022-07-18T12:36:26Z</time>
      </trkpt>
      <trkpt lat="44.51224" lon="7.11248">
        <ele>1386.8</ele>
        <time>2022-07-18T12:36:27Z</time>
      </trkpt>
      <trkpt lat="44.51232" lon="7.11245">
        <ele>1386.2</ele>
        <time>2022-07-18T12:36:28Z</time>
      </trkpt>
      <trkpt lat="44.51239" lon="7.11242">
        <ele>1385.4</ele>
        <time>2022-07-18T12:36:29Z</time>
      </trkpt>
      <trkpt lat="44.51246" lon="7.11238">
        <ele>1384.8</ele>
        <time>2022-07-18T12:36:30Z</time>
      </trkpt>
      <trkpt lat="44.51253" lon="7.11235">
        <ele>1384.2</ele>
        <time>2022-07-18T12:36:31Z</time>
      </trkpt>
      <trkpt lat="44.5126" lon="7.11233">
        <ele>1383.6</ele>
        <time>2022-07-18T12:36:32Z</time>
      </trkpt>
      <trkpt lat="44.51266" lon="7.11234">
        <ele>1383</ele>
        <time>2022-07-18T12:36:33Z</time>
      </trkpt>
      <trkpt lat="44.51272" lon="7.11234">
        <ele>1382.6</ele>
        <time>2022-07-18T12:36:34Z</time>
      </trkpt>
      <trkpt lat="44.51278" lon="7.11234">
        <ele>1382</ele>
        <time>2022-07-18T12:36:35Z</time>
      </trkpt>
      <trkpt lat="44.51284" lon="7.1123">
        <ele>1381.4</ele>
        <time>2022-07-18T12:36:36Z</time>
      </trkpt>
      <trkpt lat="44.51289" lon="7.11225">
        <ele>1381.2</ele>
        <time>2022-07-18T12:36:37Z</time>
      </trkpt>
      <trkpt lat="44.51294" lon="7.1122">
        <ele>1380.6</ele>
        <time>2022-07-18T12:36:38Z</time>
      </trkpt>
      <trkpt lat="44.51299" lon="7.11217">
        <ele>1380.2</ele>
        <time>2022-07-18T12:36:39Z</time>
      </trkpt>
      <trkpt lat="44.51303" lon="7.1122">
        <ele>1379.8</ele>
        <time>2022-07-18T12:36:40Z</time>
      </trkpt>
      <trkpt lat="44.51307" lon="7.11224">
        <ele>1379.6</ele>
        <time>2022-07-18T12:36:41Z</time>
      </trkpt>
      <trkpt lat="44.5131" lon="7.1123">
        <ele>1379.2</ele>
        <time>2022-07-18T12:36:42Z</time>
      </trkpt>
      <trkpt lat="44.51312" lon="7.11236">
        <ele>1379.2</ele>
        <time>2022-07-18T12:36:43Z</time>
      </trkpt>
      <trkpt lat="44.51313" lon="7.11243">
        <ele>1379</ele>
        <time>2022-07-18T12:36:44Z</time>
      </trkpt>
      <trkpt lat="44.51314" lon="7.11251">
        <ele>1378.6</ele>
        <time>2022-07-18T12:36:45Z</time>
      </trkpt>
      <trkpt lat="44.51315" lon="7.11258">
        <ele>1378.4</ele>
        <time>2022-07-18T12:36:46Z</time>
      </trkpt>
      <trkpt lat="44.51317" lon="7.11266">
        <ele>1378.2</ele>
        <time>2022-07-18T12:36:47Z</time>
      </trkpt>
      <trkpt lat="44.51319" lon="7.11274">
        <ele>1377.8</ele>
        <time>2022-07-18T12:36:48Z</time>
      </trkpt>
      <trkpt lat="44.51322" lon="7.11283">
        <ele>1377.6</ele>
        <time>2022-07-18T12:36:49Z</time>
      </trkpt>
      <trkpt lat="44.51325" lon="7.11291">
        <ele>1377.4</ele>
        <time>2022-07-18T12:36:50Z</time>
      </trkpt>
      <trkpt lat="44.51328" lon="7.11299">
        <ele>1377.2</ele>
        <time>2022-07-18T12:36:51Z</time>
      </trkpt>
      <trkpt lat="44.51332" lon="7.11307">
        <ele>1376.8</ele>
        <time>2022-07-18T12:36:52Z</time>
      </trkpt>
      <trkpt lat="44.51337" lon="7.11315">
        <ele>1376.6</ele>
        <time>2022-07-18T12:36:53Z</time>
      </trkpt>
      <trkpt lat="44.51341" lon="7.11323">
        <ele>1376.2</ele>
        <time>2022-07-18T12:36:54Z</time>
      </trkpt>
      <trkpt lat="44.51346" lon="7.11332">
        <ele>1376</ele>
        <time>2022-07-18T12:36:55Z</time>
      </trkpt>
      <trkpt lat="44.5135" lon="7.11341">
        <ele>1375.8</ele>
        <time>2022-07-18T12:36:56Z</time>
      </trkpt>
      <trkpt lat="44.51353" lon="7.1135">
        <ele>1375.6</ele>
        <time>2022-07-18T12:36:57Z</time>
      </trkpt>
      <trkpt lat="44.51356" lon="7.1136">
        <ele>1375.6</ele>
        <time>2022-07-18T12:36:58Z</time>
      </trkpt>
      <trkpt lat="44.51359" lon="7.1137">
        <ele>1375.2</ele>
        <time>2022-07-18T12:36:59Z</time>
      </trkpt>
      <trkpt lat="44.51361" lon="7.11379">
        <ele>1375.2</ele>
        <time>2022-07-18T12:37:00Z</time>
      </trkpt>
      <trkpt lat="44.51363" lon="7.1139">
        <ele>1375</ele>
        <time>2022-07-18T12:37:01Z</time>
      </trkpt>
      <trkpt lat="44.51365" lon="7.114">
        <ele>1375</ele>
        <time>2022-07-18T12:37:02Z</time>
      </trkpt>
      <trkpt lat="44.51367" lon="7.11409">
        <ele>1375</ele>
        <time>2022-07-18T12:37:03Z</time>
      </trkpt>
      <trkpt lat="44.51368" lon="7.11419">
        <ele>1375</ele>
        <time>2022-07-18T12:37:04Z</time>
      </trkpt>
      <trkpt lat="44.5137" lon="7.11429">
        <ele>1375</ele>
        <time>2022-07-18T12:37:05Z</time>
      </trkpt>
      <trkpt lat="44.51372" lon="7.11438">
        <ele>1375</ele>
        <time>2022-07-18T12:37:06Z</time>
      </trkpt>
      <trkpt lat="44.51374" lon="7.11447">
        <ele>1375</ele>
        <time>2022-07-18T12:37:07Z</time>
      </trkpt>
      <trkpt lat="44.51376" lon="7.11456">
        <ele>1375</ele>
        <time>2022-07-18T12:37:08Z</time>
      </trkpt>
      <trkpt lat="44.51378" lon="7.11464">
        <ele>1375</ele>
        <time>2022-07-18T12:37:09Z</time>
      </trkpt>
      <trkpt lat="44.51381" lon="7.11473">
        <ele>1375.2</ele>
        <time>2022-07-18T12:37:10Z</time>
      </trkpt>
      <trkpt lat="44.51384" lon="7.1148">
        <ele>1375.2</ele>
        <time>2022-07-18T12:37:11Z</time>
      </trkpt>
      <trkpt lat="44.51388" lon="7.11486">
        <ele>1375.2</ele>
        <time>2022-07-18T12:37:12Z</time>
      </trkpt>
      <trkpt lat="44.51391" lon="7.11491">
        <ele>1375.4</ele>
        <time>2022-07-18T12:37:13Z</time>
      </trkpt>
      <trkpt lat="44.51395" lon="7.11496">
        <ele>1375.4</ele>
        <time>2022-07-18T12:37:14Z</time>
      </trkpt>
      <trkpt lat="44.51399" lon="7.11502">
        <ele>1375.4</ele>
        <time>2022-07-18T12:37:15Z</time>
      </trkpt>
      <trkpt lat="44.51402" lon="7.11508">
        <ele>1375.8</ele>
        <time>2022-07-18T12:37:16Z</time>
      </trkpt>
      <trkpt lat="44.51405" lon="7.11515">
        <ele>1375.8</ele>
        <time>2022-07-18T12:37:17Z</time>
      </trkpt>
      <trkpt lat="44.51407" lon="7.11523">
        <ele>1375.8</ele>
        <time>2022-07-18T12:37:18Z</time>
      </trkpt>
      <trkpt lat="44.51409" lon="7.11531">
        <ele>1375.4</ele>
        <time>2022-07-18T12:37:19Z</time>
      </trkpt>
      <trkpt lat="44.51411" lon="7.1154">
        <ele>1375.4</ele>
        <time>2022-07-18T12:37:20Z</time>
      </trkpt>
      <trkpt lat="44.51412" lon="7.11548">
        <ele>1375.2</ele>
        <time>2022-07-18T12:37:21Z</time>
      </trkpt>
      <trkpt lat="44.51414" lon="7.11557">
        <ele>1375.2</ele>
        <time>2022-07-18T12:37:22Z</time>
      </trkpt>
      <trkpt lat="44.51415" lon="7.11566">
        <ele>1375</ele>
        <time>2022-07-18T12:37:23Z</time>
      </trkpt>
      <trkpt lat="44.51417" lon="7.11574">
        <ele>1375</ele>
        <time>2022-07-18T12:37:24Z</time>
      </trkpt>
      <trkpt lat="44.51419" lon="7.11582">
        <ele>1375</ele>
        <time>2022-07-18T12:37:25Z</time>
      </trkpt>
      <trkpt lat="44.51422" lon="7.11589">
        <ele>1374.6</ele>
        <time>2022-07-18T12:37:26Z</time>
      </trkpt>
      <trkpt lat="44.51426" lon="7.11595">
        <ele>1374.6</ele>
        <time>2022-07-18T12:37:27Z</time>
      </trkpt>
      <trkpt lat="44.5143" lon="7.11598">
        <ele>1374.2</ele>
        <time>2022-07-18T12:37:28Z</time>
      </trkpt>
      <trkpt lat="44.51435" lon="7.11599">
        <ele>1374</ele>
        <time>2022-07-18T12:37:29Z</time>
      </trkpt>
      <trkpt lat="44.5144" lon="7.11596">
        <ele>1373.8</ele>
        <time>2022-07-18T12:37:30Z</time>
      </trkpt>
      <trkpt lat="44.51444" lon="7.11592">
        <ele>1373.6</ele>
        <time>2022-07-18T12:37:31Z</time>
      </trkpt>
      <trkpt lat="44.51449" lon="7.11587">
        <ele>1373.2</ele>
        <time>2022-07-18T12:37:32Z</time>
      </trkpt>
      <trkpt lat="44.51454" lon="7.11581">
        <ele>1373</ele>
        <time>2022-07-18T12:37:33Z</time>
      </trkpt>
      <trkpt lat="44.51459" lon="7.11576">
        <ele>1372.6</ele>
        <time>2022-07-18T12:37:34Z</time>
      </trkpt>
      <trkpt lat="44.51464" lon="7.1157">
        <ele>1372.2</ele>
        <time>2022-07-18T12:37:35Z</time>
      </trkpt>
      <trkpt lat="44.51469" lon="7.11564">
        <ele>1372</ele>
        <time>2022-07-18T12:37:36Z</time>
      </trkpt>
      <trkpt lat="44.51473" lon="7.11559">
        <ele>1371.6</ele>
        <time>2022-07-18T12:37:37Z</time>
      </trkpt>
      <trkpt lat="44.51477" lon="7.11554">
        <ele>1371.2</ele>
        <time>2022-07-18T12:37:38Z</time>
      </trkpt>
      <trkpt lat="44.51482" lon="7.11547">
        <ele>1370.6</ele>
        <time>2022-07-18T12:37:39Z</time>
      </trkpt>
      <trkpt lat="44.51487" lon="7.11541">
        <ele>1370.2</ele>
        <time>2022-07-18T12:37:40Z</time>
      </trkpt>
      <trkpt lat="44.51491" lon="7.11535">
        <ele>1369.8</ele>
        <time>2022-07-18T12:37:41Z</time>
      </trkpt>
      <trkpt lat="44.51495" lon="7.11529">
        <ele>1369.2</ele>
        <time>2022-07-18T12:37:42Z</time>
      </trkpt>
      <trkpt lat="44.51499" lon="7.11523">
        <ele>1368.8</ele>
        <time>2022-07-18T12:37:43Z</time>
      </trkpt>
      <trkpt lat="44.51502" lon="7.11516">
        <ele>1368.2</ele>
        <time>2022-07-18T12:37:44Z</time>
      </trkpt>
      <trkpt lat="44.51505" lon="7.11509">
        <ele>1367.6</ele>
        <time>2022-07-18T12:37:45Z</time>
      </trkpt>
      <trkpt lat="44.51508" lon="7.11502">
        <ele>1367</ele>
        <time>2022-07-18T12:37:46Z</time>
      </trkpt>
      <trkpt lat="44.51511" lon="7.11495">
        <ele>1366.4</ele>
        <time>2022-07-18T12:37:47Z</time>
      </trkpt>
      <trkpt lat="44.51513" lon="7.11488">
        <ele>1365.8</ele>
        <time>2022-07-18T12:37:48Z</time>
      </trkpt>
      <trkpt lat="44.51517" lon="7.11482">
        <ele>1365</ele>
        <time>2022-07-18T12:37:49Z</time>
      </trkpt>
      <trkpt lat="44.51522" lon="7.11477">
        <ele>1363.8</ele>
        <time>2022-07-18T12:37:51Z</time>
      </trkpt>
      <trkpt lat="44.51527" lon="7.11472">
        <ele>1363.4</ele>
        <time>2022-07-18T12:37:52Z</time>
      </trkpt>
      <trkpt lat="44.51535" lon="7.11471">
        <ele>1362.8</ele>
        <time>2022-07-18T12:37:53Z</time>
      </trkpt>
      <trkpt lat="44.51541" lon="7.1147">
        <ele>1362.2</ele>
        <time>2022-07-18T12:37:54Z</time>
      </trkpt>
      <trkpt lat="44.51546" lon="7.11469">
        <ele>1361.6</ele>
        <time>2022-07-18T12:37:55Z</time>
      </trkpt>
      <trkpt lat="44.51552" lon="7.11467">
        <ele>1361</ele>
        <time>2022-07-18T12:37:56Z</time>
      </trkpt>
      <trkpt lat="44.51557" lon="7.11463">
        <ele>1360.4</ele>
        <time>2022-07-18T12:37:57Z</time>
      </trkpt>
      <trkpt lat="44.51567" lon="7.11457">
        <ele>1359.8</ele>
        <time>2022-07-18T12:37:58Z</time>
      </trkpt>
      <trkpt lat="44.51572" lon="7.11455">
        <ele>1359.2</ele>
        <time>2022-07-18T12:37:59Z</time>
      </trkpt>
      <trkpt lat="44.51577" lon="7.1145">
        <ele>1358.8</ele>
        <time>2022-07-18T12:38:00Z</time>
      </trkpt>
      <trkpt lat="44.51582" lon="7.11444">
        <ele>1358.4</ele>
        <time>2022-07-18T12:38:01Z</time>
      </trkpt>
      <trkpt lat="44.51586" lon="7.11436">
        <ele>1357.8</ele>
        <time>2022-07-18T12:38:02Z</time>
      </trkpt>
      <trkpt lat="44.51591" lon="7.11429">
        <ele>1357.4</ele>
        <time>2022-07-18T12:38:03Z</time>
      </trkpt>
      <trkpt lat="44.51596" lon="7.11423">
        <ele>1357</ele>
        <time>2022-07-18T12:38:04Z</time>
      </trkpt>
      <trkpt lat="44.51602" lon="7.11419">
        <ele>1356.8</ele>
        <time>2022-07-18T12:38:05Z</time>
      </trkpt>
      <trkpt lat="44.51607" lon="7.11417">
        <ele>1356.6</ele>
        <time>2022-07-18T12:38:06Z</time>
      </trkpt>
      <trkpt lat="44.51614" lon="7.11418">
        <ele>1356.6</ele>
        <time>2022-07-18T12:38:07Z</time>
      </trkpt>
      <trkpt lat="44.51619" lon="7.11422">
        <ele>1356.4</ele>
        <time>2022-07-18T12:38:08Z</time>
      </trkpt>
      <trkpt lat="44.51623" lon="7.11428">
        <ele>1356.4</ele>
        <time>2022-07-18T12:38:09Z</time>
      </trkpt>
      <trkpt lat="44.51626" lon="7.11436">
        <ele>1356.4</ele>
        <time>2022-07-18T12:38:10Z</time>
      </trkpt>
      <trkpt lat="44.51627" lon="7.11444">
        <ele>1356.4</ele>
        <time>2022-07-18T12:38:11Z</time>
      </trkpt>
      <trkpt lat="44.51629" lon="7.11453">
        <ele>1356.4</ele>
        <time>2022-07-18T12:38:12Z</time>
      </trkpt>
      <trkpt lat="44.5163" lon="7.11462">
        <ele>1356.4</ele>
        <time>2022-07-18T12:38:13Z</time>
      </trkpt>
      <trkpt lat="44.51631" lon="7.1147">
        <ele>1356.4</ele>
        <time>2022-07-18T12:38:14Z</time>
      </trkpt>
      <trkpt lat="44.51631" lon="7.11479">
        <ele>1356.4</ele>
        <time>2022-07-18T12:38:15Z</time>
      </trkpt>
      <trkpt lat="44.51632" lon="7.11488">
        <ele>1356</ele>
        <time>2022-07-18T12:38:16Z</time>
      </trkpt>
      <trkpt lat="44.51633" lon="7.11497">
        <ele>1356</ele>
        <time>2022-07-18T12:38:17Z</time>
      </trkpt>
      <trkpt lat="44.51633" lon="7.11506">
        <ele>1355.6</ele>
        <time>2022-07-18T12:38:18Z</time>
      </trkpt>
      <trkpt lat="44.51634" lon="7.11515">
        <ele>1355.6</ele>
        <time>2022-07-18T12:38:19Z</time>
      </trkpt>
      <trkpt lat="44.51635" lon="7.11524">
        <ele>1355.2</ele>
        <time>2022-07-18T12:38:20Z</time>
      </trkpt>
      <trkpt lat="44.51636" lon="7.11533">
        <ele>1355</ele>
        <time>2022-07-18T12:38:21Z</time>
      </trkpt>
      <trkpt lat="44.51636" lon="7.11542">
        <ele>1354.6</ele>
        <time>2022-07-18T12:38:22Z</time>
      </trkpt>
      <trkpt lat="44.51637" lon="7.11552">
        <ele>1354.4</ele>
        <time>2022-07-18T12:38:23Z</time>
      </trkpt>
      <trkpt lat="44.51638" lon="7.11561">
        <ele>1354</ele>
        <time>2022-07-18T12:38:24Z</time>
      </trkpt>
      <trkpt lat="44.51639" lon="7.1157">
        <ele>1353.6</ele>
        <time>2022-07-18T12:38:25Z</time>
      </trkpt>
      <trkpt lat="44.5164" lon="7.11578">
        <ele>1353.2</ele>
        <time>2022-07-18T12:38:26Z</time>
      </trkpt>
      <trkpt lat="44.51641" lon="7.11586">
        <ele>1353</ele>
        <time>2022-07-18T12:38:27Z</time>
      </trkpt>
      <trkpt lat="44.51643" lon="7.11593">
        <ele>1352.6</ele>
        <time>2022-07-18T12:38:28Z</time>
      </trkpt>
      <trkpt lat="44.51646" lon="7.116">
        <ele>1352.2</ele>
        <time>2022-07-18T12:38:29Z</time>
      </trkpt>
      <trkpt lat="44.51649" lon="7.11606">
        <ele>1351.8</ele>
        <time>2022-07-18T12:38:30Z</time>
      </trkpt>
      <trkpt lat="44.51654" lon="7.1161">
        <ele>1351.4</ele>
        <time>2022-07-18T12:38:31Z</time>
      </trkpt>
      <trkpt lat="44.51659" lon="7.11612">
        <ele>1351.2</ele>
        <time>2022-07-18T12:38:32Z</time>
      </trkpt>
      <trkpt lat="44.51665" lon="7.11613">
        <ele>1351.2</ele>
        <time>2022-07-18T12:38:33Z</time>
      </trkpt>
      <trkpt lat="44.51671" lon="7.11613">
        <ele>1351</ele>
        <time>2022-07-18T12:38:34Z</time>
      </trkpt>
      <trkpt lat="44.51676" lon="7.11612">
        <ele>1351</ele>
        <time>2022-07-18T12:38:35Z</time>
      </trkpt>
      <trkpt lat="44.51682" lon="7.1161">
        <ele>1350.6</ele>
        <time>2022-07-18T12:38:36Z</time>
      </trkpt>
      <trkpt lat="44.51687" lon="7.11607">
        <ele>1350.6</ele>
        <time>2022-07-18T12:38:37Z</time>
      </trkpt>
      <trkpt lat="44.51693" lon="7.11603">
        <ele>1350.6</ele>
        <time>2022-07-18T12:38:38Z</time>
      </trkpt>
      <trkpt lat="44.51698" lon="7.11599">
        <ele>1350.6</ele>
        <time>2022-07-18T12:38:39Z</time>
      </trkpt>
      <trkpt lat="44.51704" lon="7.11595">
        <ele>1350.6</ele>
        <time>2022-07-18T12:38:40Z</time>
      </trkpt>
      <trkpt lat="44.51709" lon="7.11592">
        <ele>1350.6</ele>
        <time>2022-07-18T12:38:41Z</time>
      </trkpt>
      <trkpt lat="44.51715" lon="7.11591">
        <ele>1350.6</ele>
        <time>2022-07-18T12:38:42Z</time>
      </trkpt>
      <trkpt lat="44.5172" lon="7.1159">
        <ele>1350.6</ele>
        <time>2022-07-18T12:38:43Z</time>
      </trkpt>
      <trkpt lat="44.51726" lon="7.1159">
        <ele>1350.6</ele>
        <time>2022-07-18T12:38:44Z</time>
      </trkpt>
      <trkpt lat="44.51731" lon="7.11589">
        <ele>1351</ele>
        <time>2022-07-18T12:38:45Z</time>
      </trkpt>
      <trkpt lat="44.51736" lon="7.1159">
        <ele>1351</ele>
        <time>2022-07-18T12:38:46Z</time>
      </trkpt>
      <trkpt lat="44.51741" lon="7.1159">
        <ele>1351</ele>
        <time>2022-07-18T12:38:47Z</time>
      </trkpt>
      <trkpt lat="44.51747" lon="7.1159">
        <ele>1351</ele>
        <time>2022-07-18T12:38:48Z</time>
      </trkpt>
      <trkpt lat="44.51752" lon="7.11591">
        <ele>1351</ele>
        <time>2022-07-18T12:38:49Z</time>
      </trkpt>
      <trkpt lat="44.51758" lon="7.11593">
        <ele>1351</ele>
        <time>2022-07-18T12:38:50Z</time>
      </trkpt>
      <trkpt lat="44.51764" lon="7.11596">
        <ele>1351</ele>
        <time>2022-07-18T12:38:51Z</time>
      </trkpt>
      <trkpt lat="44.51769" lon="7.11598">
        <ele>1351</ele>
        <time>2022-07-18T12:38:52Z</time>
      </trkpt>
      <trkpt lat="44.51775" lon="7.116">
        <ele>1351</ele>
        <time>2022-07-18T12:38:53Z</time>
      </trkpt>
      <trkpt lat="44.5178" lon="7.116">
        <ele>1351</ele>
        <time>2022-07-18T12:38:54Z</time>
      </trkpt>
      <trkpt lat="44.51785" lon="7.11599">
        <ele>1351</ele>
        <time>2022-07-18T12:38:55Z</time>
      </trkpt>
      <trkpt lat="44.5179" lon="7.11596">
        <ele>1350.6</ele>
        <time>2022-07-18T12:38:56Z</time>
      </trkpt>
      <trkpt lat="44.51795" lon="7.11593">
        <ele>1350.6</ele>
        <time>2022-07-18T12:38:57Z</time>
      </trkpt>
      <trkpt lat="44.51801" lon="7.11593">
        <ele>1350.4</ele>
        <time>2022-07-18T12:38:58Z</time>
      </trkpt>
      <trkpt lat="44.51807" lon="7.11593">
        <ele>1350.2</ele>
        <time>2022-07-18T12:38:59Z</time>
      </trkpt>
      <trkpt lat="44.51812" lon="7.11594">
        <ele>1349.8</ele>
        <time>2022-07-18T12:39:00Z</time>
      </trkpt>
      <trkpt lat="44.51818" lon="7.11596">
        <ele>1349.6</ele>
        <time>2022-07-18T12:39:01Z</time>
      </trkpt>
      <trkpt lat="44.51824" lon="7.11598">
        <ele>1349.6</ele>
        <time>2022-07-18T12:39:02Z</time>
      </trkpt>
      <trkpt lat="44.5183" lon="7.11599">
        <ele>1349.4</ele>
        <time>2022-07-18T12:39:03Z</time>
      </trkpt>
      <trkpt lat="44.51836" lon="7.11598">
        <ele>1349.4</ele>
        <time>2022-07-18T12:39:04Z</time>
      </trkpt>
      <trkpt lat="44.51843" lon="7.11596">
        <ele>1349</ele>
        <time>2022-07-18T12:39:05Z</time>
      </trkpt>
      <trkpt lat="44.51849" lon="7.11592">
        <ele>1349</ele>
        <time>2022-07-18T12:39:06Z</time>
      </trkpt>
      <trkpt lat="44.51854" lon="7.11588">
        <ele>1349</ele>
        <time>2022-07-18T12:39:07Z</time>
      </trkpt>
      <trkpt lat="44.5186" lon="7.11584">
        <ele>1349</ele>
        <time>2022-07-18T12:39:08Z</time>
      </trkpt>
      <trkpt lat="44.51865" lon="7.11579">
        <ele>1349</ele>
        <time>2022-07-18T12:39:09Z</time>
      </trkpt>
      <trkpt lat="44.5187" lon="7.11575">
        <ele>1349</ele>
        <time>2022-07-18T12:39:10Z</time>
      </trkpt>
      <trkpt lat="44.51876" lon="7.11571">
        <ele>1349</ele>
        <time>2022-07-18T12:39:11Z</time>
      </trkpt>
      <trkpt lat="44.51882" lon="7.11568">
        <ele>1349</ele>
        <time>2022-07-18T12:39:12Z</time>
      </trkpt>
      <trkpt lat="44.51888" lon="7.11566">
        <ele>1349</ele>
        <time>2022-07-18T12:39:13Z</time>
      </trkpt>
      <trkpt lat="44.51894" lon="7.11565">
        <ele>1349</ele>
        <time>2022-07-18T12:39:14Z</time>
      </trkpt>
      <trkpt lat="44.519" lon="7.11565">
        <ele>1349</ele>
        <time>2022-07-18T12:39:15Z</time>
      </trkpt>
      <trkpt lat="44.51906" lon="7.11566">
        <ele>1349</ele>
        <time>2022-07-18T12:39:16Z</time>
      </trkpt>
      <trkpt lat="44.51912" lon="7.11565">
        <ele>1349</ele>
        <time>2022-07-18T12:39:17Z</time>
      </trkpt>
      <trkpt lat="44.51918" lon="7.11564">
        <ele>1349</ele>
        <time>2022-07-18T12:39:18Z</time>
      </trkpt>
      <trkpt lat="44.51924" lon="7.1156">
        <ele>1349</ele>
        <time>2022-07-18T12:39:19Z</time>
      </trkpt>
      <trkpt lat="44.51928" lon="7.11555">
        <ele>1349</ele>
        <time>2022-07-18T12:39:20Z</time>
      </trkpt>
      <trkpt lat="44.51932" lon="7.1155">
        <ele>1349</ele>
        <time>2022-07-18T12:39:21Z</time>
      </trkpt>
      <trkpt lat="44.51935" lon="7.11545">
        <ele>1349</ele>
        <time>2022-07-18T12:39:22Z</time>
      </trkpt>
      <trkpt lat="44.51939" lon="7.11539">
        <ele>1349</ele>
        <time>2022-07-18T12:39:23Z</time>
      </trkpt>
      <trkpt lat="44.51942" lon="7.11534">
        <ele>1349</ele>
        <time>2022-07-18T12:39:24Z</time>
      </trkpt>
      <trkpt lat="44.51946" lon="7.11529">
        <ele>1348.8</ele>
        <time>2022-07-18T12:39:25Z</time>
      </trkpt>
      <trkpt lat="44.5195" lon="7.11525">
        <ele>1348.8</ele>
        <time>2022-07-18T12:39:26Z</time>
      </trkpt>
      <trkpt lat="44.51955" lon="7.11523">
        <ele>1348.6</ele>
        <time>2022-07-18T12:39:27Z</time>
      </trkpt>
      <trkpt lat="44.5196" lon="7.11525">
        <ele>1348.6</ele>
        <time>2022-07-18T12:39:28Z</time>
      </trkpt>
      <trkpt lat="44.51964" lon="7.11529">
        <ele>1348.8</ele>
        <time>2022-07-18T12:39:29Z</time>
      </trkpt>
      <trkpt lat="44.51967" lon="7.11534">
        <ele>1348.8</ele>
        <time>2022-07-18T12:39:30Z</time>
      </trkpt>
      <trkpt lat="44.51969" lon="7.1154">
        <ele>1349.2</ele>
        <time>2022-07-18T12:39:31Z</time>
      </trkpt>
      <trkpt lat="44.51971" lon="7.11547">
        <ele>1349.4</ele>
        <time>2022-07-18T12:39:32Z</time>
      </trkpt>
      <trkpt lat="44.51972" lon="7.11552">
        <ele>1349.8</ele>
        <time>2022-07-18T12:39:33Z</time>
      </trkpt>
      <trkpt lat="44.51973" lon="7.11558">
        <ele>1349.8</ele>
        <time>2022-07-18T12:39:34Z</time>
      </trkpt>
      <trkpt lat="44.51974" lon="7.11563">
        <ele>1350</ele>
        <time>2022-07-18T12:39:35Z</time>
      </trkpt>
      <trkpt lat="44.51974" lon="7.11569">
        <ele>1350</ele>
        <time>2022-07-18T12:39:36Z</time>
      </trkpt>
      <trkpt lat="44.51975" lon="7.11574">
        <ele>1350.2</ele>
        <time>2022-07-18T12:39:37Z</time>
      </trkpt>
      <trkpt lat="44.51976" lon="7.1158">
        <ele>1350.2</ele>
        <time>2022-07-18T12:39:38Z</time>
      </trkpt>
      <trkpt lat="44.51977" lon="7.11585">
        <ele>1350.6</ele>
        <time>2022-07-18T12:39:39Z</time>
      </trkpt>
      <trkpt lat="44.51977" lon="7.1159">
        <ele>1350.6</ele>
        <time>2022-07-18T12:39:40Z</time>
      </trkpt>
      <trkpt lat="44.51977" lon="7.11596">
        <ele>1350.8</ele>
        <time>2022-07-18T12:39:41Z</time>
      </trkpt>
      <trkpt lat="44.51977" lon="7.11601">
        <ele>1350.8</ele>
        <time>2022-07-18T12:39:42Z</time>
      </trkpt>
      <trkpt lat="44.51978" lon="7.11607">
        <ele>1351.2</ele>
        <time>2022-07-18T12:39:43Z</time>
      </trkpt>
      <trkpt lat="44.5198" lon="7.11611">
        <ele>1351.2</ele>
        <time>2022-07-18T12:39:44Z</time>
      </trkpt>
      <trkpt lat="44.51982" lon="7.11615">
        <ele>1351.4</ele>
        <time>2022-07-18T12:39:45Z</time>
      </trkpt>
      <trkpt lat="44.51985" lon="7.11617">
        <ele>1351.4</ele>
        <time>2022-07-18T12:39:46Z</time>
      </trkpt>
      <trkpt lat="44.51988" lon="7.11617">
        <ele>1351.6</ele>
        <time>2022-07-18T12:39:47Z</time>
      </trkpt>
      <trkpt lat="44.51992" lon="7.11617">
        <ele>1351.6</ele>
        <time>2022-07-18T12:39:48Z</time>
      </trkpt>
      <trkpt lat="44.51996" lon="7.11616">
        <ele>1352</ele>
        <time>2022-07-18T12:39:49Z</time>
      </trkpt>
      <trkpt lat="44.51999" lon="7.11616">
        <ele>1352</ele>
        <time>2022-07-18T12:39:50Z</time>
      </trkpt>
      <trkpt lat="44.52003" lon="7.11616">
        <ele>1352</ele>
        <time>2022-07-18T12:39:51Z</time>
      </trkpt>
      <trkpt lat="44.52006" lon="7.11615">
        <ele>1352.4</ele>
        <time>2022-07-18T12:39:52Z</time>
      </trkpt>
      <trkpt lat="44.5201" lon="7.11615">
        <ele>1352.4</ele>
        <time>2022-07-18T12:39:53Z</time>
      </trkpt>
      <trkpt lat="44.52014" lon="7.11615">
        <ele>1352.6</ele>
        <time>2022-07-18T12:39:54Z</time>
      </trkpt>
      <trkpt lat="44.52018" lon="7.11615">
        <ele>1352.6</ele>
        <time>2022-07-18T12:39:55Z</time>
      </trkpt>
      <trkpt lat="44.52021" lon="7.11615">
        <ele>1352.6</ele>
        <time>2022-07-18T12:39:56Z</time>
      </trkpt>
      <trkpt lat="44.52025" lon="7.11614">
        <ele>1353</ele>
        <time>2022-07-18T12:39:57Z</time>
      </trkpt>
      <trkpt lat="44.52029" lon="7.11613">
        <ele>1353</ele>
        <time>2022-07-18T12:39:58Z</time>
      </trkpt>
      <trkpt lat="44.52033" lon="7.11613">
        <ele>1353.2</ele>
        <time>2022-07-18T12:39:59Z</time>
      </trkpt>
      <trkpt lat="44.52037" lon="7.11615">
        <ele>1353.2</ele>
        <time>2022-07-18T12:40:00Z</time>
      </trkpt>
      <trkpt lat="44.52041" lon="7.11618">
        <ele>1353.2</ele>
        <time>2022-07-18T12:40:01Z</time>
      </trkpt>
      <trkpt lat="44.52044" lon="7.11623">
        <ele>1353.2</ele>
        <time>2022-07-18T12:40:02Z</time>
      </trkpt>
      <trkpt lat="44.52045" lon="7.11628">
        <ele>1353.6</ele>
        <time>2022-07-18T12:40:03Z</time>
      </trkpt>
      <trkpt lat="44.52045" lon="7.11635">
        <ele>1353.6</ele>
        <time>2022-07-18T12:40:04Z</time>
      </trkpt>
      <trkpt lat="44.52043" lon="7.11641">
        <ele>1353.6</ele>
        <time>2022-07-18T12:40:05Z</time>
      </trkpt>
      <trkpt lat="44.52041" lon="7.11647">
        <ele>1353.6</ele>
        <time>2022-07-18T12:40:06Z</time>
      </trkpt>
      <trkpt lat="44.52038" lon="7.11653">
        <ele>1353.4</ele>
        <time>2022-07-18T12:40:07Z</time>
      </trkpt>
      <trkpt lat="44.52036" lon="7.1166">
        <ele>1353.4</ele>
        <time>2022-07-18T12:40:08Z</time>
      </trkpt>
      <trkpt lat="44.52033" lon="7.11666">
        <ele>1353</ele>
        <time>2022-07-18T12:40:09Z</time>
      </trkpt>
      <trkpt lat="44.5203" lon="7.11672">
        <ele>1353</ele>
        <time>2022-07-18T12:40:10Z</time>
      </trkpt>
      <trkpt lat="44.52026" lon="7.11679">
        <ele>1353</ele>
        <time>2022-07-18T12:40:11Z</time>
      </trkpt>
      <trkpt lat="44.52023" lon="7.11684">
        <ele>1352.8</ele>
        <time>2022-07-18T12:40:12Z</time>
      </trkpt>
      <trkpt lat="44.52019" lon="7.11691">
        <ele>1352.8</ele>
        <time>2022-07-18T12:40:13Z</time>
      </trkpt>
      <trkpt lat="44.52015" lon="7.11697">
        <ele>1352.4</ele>
        <time>2022-07-18T12:40:14Z</time>
      </trkpt>
      <trkpt lat="44.52012" lon="7.11704">
        <ele>1352.4</ele>
        <time>2022-07-18T12:40:15Z</time>
      </trkpt>
      <trkpt lat="44.52008" lon="7.11711">
        <ele>1352.2</ele>
        <time>2022-07-18T12:40:16Z</time>
      </trkpt>
      <trkpt lat="44.52005" lon="7.11718">
        <ele>1352.2</ele>
        <time>2022-07-18T12:40:17Z</time>
      </trkpt>
      <trkpt lat="44.52002" lon="7.11726">
        <ele>1351.8</ele>
        <time>2022-07-18T12:40:18Z</time>
      </trkpt>
      <trkpt lat="44.51999" lon="7.11733">
        <ele>1351.4</ele>
        <time>2022-07-18T12:40:19Z</time>
      </trkpt>
      <trkpt lat="44.51996" lon="7.11742">
        <ele>1351.2</ele>
        <time>2022-07-18T12:40:20Z</time>
      </trkpt>
      <trkpt lat="44.51992" lon="7.1175">
        <ele>1350.8</ele>
        <time>2022-07-18T12:40:21Z</time>
      </trkpt>
      <trkpt lat="44.51989" lon="7.11758">
        <ele>1350.8</ele>
        <time>2022-07-18T12:40:22Z</time>
      </trkpt>
      <trkpt lat="44.51985" lon="7.11766">
        <ele>1350.6</ele>
        <time>2022-07-18T12:40:23Z</time>
      </trkpt>
      <trkpt lat="44.51981" lon="7.11773">
        <ele>1350.6</ele>
        <time>2022-07-18T12:40:24Z</time>
      </trkpt>
      <trkpt lat="44.51976" lon="7.1178">
        <ele>1350.2</ele>
        <time>2022-07-18T12:40:25Z</time>
      </trkpt>
      <trkpt lat="44.51971" lon="7.11788">
        <ele>1350.2</ele>
        <time>2022-07-18T12:40:26Z</time>
      </trkpt>
      <trkpt lat="44.51965" lon="7.11794">
        <ele>1349.8</ele>
        <time>2022-07-18T12:40:27Z</time>
      </trkpt>
      <trkpt lat="44.51959" lon="7.11801">
        <ele>1349.8</ele>
        <time>2022-07-18T12:40:28Z</time>
      </trkpt>
      <trkpt lat="44.51953" lon="7.11808">
        <ele>1349.4</ele>
        <time>2022-07-18T12:40:29Z</time>
      </trkpt>
      <trkpt lat="44.51948" lon="7.11815">
        <ele>1349.2</ele>
        <time>2022-07-18T12:40:30Z</time>
      </trkpt>
      <trkpt lat="44.51943" lon="7.11823">
        <ele>1349.2</ele>
        <time>2022-07-18T12:40:31Z</time>
      </trkpt>
      <trkpt lat="44.51938" lon="7.11831">
        <ele>1348.8</ele>
        <time>2022-07-18T12:40:32Z</time>
      </trkpt>
      <trkpt lat="44.51934" lon="7.1184">
        <ele>1348.8</ele>
        <time>2022-07-18T12:40:33Z</time>
      </trkpt>
      <trkpt lat="44.5193" lon="7.11848">
        <ele>1348.4</ele>
        <time>2022-07-18T12:40:34Z</time>
      </trkpt>
      <trkpt lat="44.51926" lon="7.11857">
        <ele>1348.4</ele>
        <time>2022-07-18T12:40:35Z</time>
      </trkpt>
      <trkpt lat="44.51921" lon="7.11865">
        <ele>1348.2</ele>
        <time>2022-07-18T12:40:36Z</time>
      </trkpt>
      <trkpt lat="44.51916" lon="7.11873">
        <ele>1347.8</ele>
        <time>2022-07-18T12:40:37Z</time>
      </trkpt>
      <trkpt lat="44.51911" lon="7.11881">
        <ele>1347.8</ele>
        <time>2022-07-18T12:40:38Z</time>
      </trkpt>
      <trkpt lat="44.51905" lon="7.11888">
        <ele>1347.4</ele>
        <time>2022-07-18T12:40:39Z</time>
      </trkpt>
      <trkpt lat="44.519" lon="7.11896">
        <ele>1347.2</ele>
        <time>2022-07-18T12:40:40Z</time>
      </trkpt>
      <trkpt lat="44.51894" lon="7.11904">
        <ele>1347</ele>
        <time>2022-07-18T12:40:41Z</time>
      </trkpt>
      <trkpt lat="44.51889" lon="7.11912">
        <ele>1346.6</ele>
        <time>2022-07-18T12:40:42Z</time>
      </trkpt>
      <trkpt lat="44.51883" lon="7.11919">
        <ele>1346.4</ele>
        <time>2022-07-18T12:40:43Z</time>
      </trkpt>
      <trkpt lat="44.51877" lon="7.11925">
        <ele>1346</ele>
        <time>2022-07-18T12:40:44Z</time>
      </trkpt>
      <trkpt lat="44.51871" lon="7.1193">
        <ele>1345.6</ele>
        <time>2022-07-18T12:40:45Z</time>
      </trkpt>
      <trkpt lat="44.51865" lon="7.11934">
        <ele>1345.4</ele>
        <time>2022-07-18T12:40:46Z</time>
      </trkpt>
      <trkpt lat="44.51859" lon="7.11938">
        <ele>1345</ele>
        <time>2022-07-18T12:40:47Z</time>
      </trkpt>
      <trkpt lat="44.51854" lon="7.11943">
        <ele>1344.8</ele>
        <time>2022-07-18T12:40:48Z</time>
      </trkpt>
      <trkpt lat="44.5185" lon="7.11949">
        <ele>1344.6</ele>
        <time>2022-07-18T12:40:49Z</time>
      </trkpt>
      <trkpt lat="44.51848" lon="7.11956">
        <ele>1344.6</ele>
        <time>2022-07-18T12:40:50Z</time>
      </trkpt>
      <trkpt lat="44.51846" lon="7.11964">
        <ele>1344.2</ele>
        <time>2022-07-18T12:40:51Z</time>
      </trkpt>
      <trkpt lat="44.51845" lon="7.11972">
        <ele>1344</ele>
        <time>2022-07-18T12:40:52Z</time>
      </trkpt>
      <trkpt lat="44.51843" lon="7.11979">
        <ele>1343.8</ele>
        <time>2022-07-18T12:40:53Z</time>
      </trkpt>
      <trkpt lat="44.51842" lon="7.11986">
        <ele>1343.8</ele>
        <time>2022-07-18T12:40:54Z</time>
      </trkpt>
      <trkpt lat="44.51841" lon="7.11991">
        <ele>1343.6</ele>
        <time>2022-07-18T12:40:55Z</time>
      </trkpt>
      <trkpt lat="44.5184" lon="7.11996">
        <ele>1343.6</ele>
        <time>2022-07-18T12:40:56Z</time>
      </trkpt>
      <trkpt lat="44.51838" lon="7.12">
        <ele>1343.6</ele>
        <time>2022-07-18T12:40:57Z</time>
      </trkpt>
      <trkpt lat="44.51837" lon="7.12003">
        <ele>1343.6</ele>
        <time>2022-07-18T12:40:58Z</time>
      </trkpt>
      <trkpt lat="44.51837" lon="7.12005">
        <ele>1343.6</ele>
        <time>2022-07-18T12:40:59Z</time>
      </trkpt>
      <trkpt lat="44.51836" lon="7.12008">
        <ele>1343.6</ele>
        <time>2022-07-18T12:41:00Z</time>
      </trkpt>
      <trkpt lat="44.51835" lon="7.12009">
        <ele>1343.6</ele>
        <time>2022-07-18T12:41:01Z</time>
      </trkpt>
      <trkpt lat="44.51835" lon="7.1201">
        <ele>1343.6</ele>
        <time>2022-07-18T12:41:02Z</time>
      </trkpt>
      <trkpt lat="44.51835" lon="7.1201">
        <ele>1343.6</ele>
        <time>2022-07-18T12:41:03Z</time>
      </trkpt>
      <trkpt lat="44.51835" lon="7.1201">
        <ele>1343.6</ele>
        <time>2022-07-18T12:41:07Z</time>
      </trkpt>
      <trkpt lat="44.51835" lon="7.1201">
        <ele>1343.6</ele>
        <time>2022-07-18T12:41:12Z</time>
      </trkpt>
      <trkpt lat="44.51835" lon="7.1201">
        <ele>1343.6</ele>
        <time>2022-07-18T12:41:26Z</time>
      </trkpt>
      <trkpt lat="44.51835" lon="7.1201">
        <ele>1343.4</ele>
        <time>2022-07-18T12:41:50Z</time>
      </trkpt>
      <trkpt lat="44.51835" lon="7.1201">
        <ele>1343.8</ele>
        <time>2022-07-18T12:41:54Z</time>
      </trkpt>
      <trkpt lat="44.51835" lon="7.12013">
        <ele>1343.8</ele>
        <time>2022-07-18T12:41:56Z</time>
      </trkpt>
      <trkpt lat="44.51836" lon="7.12015">
        <ele>1343.8</ele>
        <time>2022-07-18T12:41:57Z</time>
      </trkpt>
      <trkpt lat="44.51836" lon="7.12018">
        <ele>1343.8</ele>
        <time>2022-07-18T12:41:58Z</time>
      </trkpt>
      <trkpt lat="44.51836" lon="7.12021">
        <ele>1343.8</ele>
        <time>2022-07-18T12:41:59Z</time>
      </trkpt>
      <trkpt lat="44.51837" lon="7.12023">
        <ele>1343.8</ele>
        <time>2022-07-18T12:42:00Z</time>
      </trkpt>
      <trkpt lat="44.51838" lon="7.12026">
        <ele>1343.8</ele>
        <time>2022-07-18T12:42:01Z</time>
      </trkpt>
      <trkpt lat="44.51839" lon="7.12028">
        <ele>1343.8</ele>
        <time>2022-07-18T12:42:02Z</time>
      </trkpt>
      <trkpt lat="44.5184" lon="7.1203">
        <ele>1343.8</ele>
        <time>2022-07-18T12:42:03Z</time>
      </trkpt>
      <trkpt lat="44.51842" lon="7.12031">
        <ele>1343.8</ele>
        <time>2022-07-18T12:42:04Z</time>
      </trkpt>
      <trkpt lat="44.51844" lon="7.12032">
        <ele>1343.8</ele>
        <time>2022-07-18T12:42:05Z</time>
      </trkpt>
      <trkpt lat="44.51847" lon="7.12033">
        <ele>1343.8</ele>
        <time>2022-07-18T12:42:06Z</time>
      </trkpt>
      <trkpt lat="44.51849" lon="7.12033">
        <ele>1343.8</ele>
        <time>2022-07-18T12:42:07Z</time>
      </trkpt>
      <trkpt lat="44.51851" lon="7.12033">
        <ele>1343.8</ele>
        <time>2022-07-18T12:42:08Z</time>
      </trkpt>
      <trkpt lat="44.51854" lon="7.12033">
        <ele>1343.8</ele>
        <time>2022-07-18T12:42:09Z</time>
      </trkpt>
      <trkpt lat="44.51857" lon="7.12034">
        <ele>1343.8</ele>
        <time>2022-07-18T12:42:10Z</time>
      </trkpt>
      <trkpt lat="44.5186" lon="7.12034">
        <ele>1343.8</ele>
        <time>2022-07-18T12:42:11Z</time>
      </trkpt>
      <trkpt lat="44.51863" lon="7.12033">
        <ele>1343.4</ele>
        <time>2022-07-18T12:42:12Z</time>
      </trkpt>
      <trkpt lat="44.51866" lon="7.12033">
        <ele>1343.4</ele>
        <time>2022-07-18T12:42:13Z</time>
      </trkpt>
      <trkpt lat="44.5187" lon="7.12032">
        <ele>1343.2</ele>
        <time>2022-07-18T12:42:14Z</time>
      </trkpt>
      <trkpt lat="44.51874" lon="7.12032">
        <ele>1343</ele>
        <time>2022-07-18T12:42:15Z</time>
      </trkpt>
      <trkpt lat="44.51878" lon="7.12032">
        <ele>1342.8</ele>
        <time>2022-07-18T12:42:16Z</time>
      </trkpt>
      <trkpt lat="44.51882" lon="7.12031">
        <ele>1342.8</ele>
        <time>2022-07-18T12:42:17Z</time>
      </trkpt>
      <trkpt lat="44.51886" lon="7.1203">
        <ele>1342.4</ele>
        <time>2022-07-18T12:42:18Z</time>
      </trkpt>
      <trkpt lat="44.5189" lon="7.12028">
        <ele>1342.2</ele>
        <time>2022-07-18T12:42:19Z</time>
      </trkpt>
      <trkpt lat="44.51895" lon="7.12026">
        <ele>1342</ele>
        <time>2022-07-18T12:42:20Z</time>
      </trkpt>
      <trkpt lat="44.519" lon="7.12024">
        <ele>1342</ele>
        <time>2022-07-18T12:42:21Z</time>
      </trkpt>
      <trkpt lat="44.51904" lon="7.12022">
        <ele>1341.4</ele>
        <time>2022-07-18T12:42:22Z</time>
      </trkpt>
      <trkpt lat="44.51909" lon="7.1202">
        <ele>1341.2</ele>
        <time>2022-07-18T12:42:23Z</time>
      </trkpt>
      <trkpt lat="44.51914" lon="7.1202">
        <ele>1340.8</ele>
        <time>2022-07-18T12:42:24Z</time>
      </trkpt>
      <trkpt lat="44.5192" lon="7.1202">
        <ele>1340.6</ele>
        <time>2022-07-18T12:42:25Z</time>
      </trkpt>
      <trkpt lat="44.51926" lon="7.12019">
        <ele>1340.2</ele>
        <time>2022-07-18T12:42:26Z</time>
      </trkpt>
      <trkpt lat="44.51931" lon="7.12019">
        <ele>1340</ele>
        <time>2022-07-18T12:42:27Z</time>
      </trkpt>
      <trkpt lat="44.51936" lon="7.12019">
        <ele>1339.6</ele>
        <time>2022-07-18T12:42:28Z</time>
      </trkpt>
      <trkpt lat="44.51943" lon="7.1202">
        <ele>1339.4</ele>
        <time>2022-07-18T12:42:29Z</time>
      </trkpt>
      <trkpt lat="44.51948" lon="7.1202">
        <ele>1339</ele>
        <time>2022-07-18T12:42:30Z</time>
      </trkpt>
      <trkpt lat="44.51954" lon="7.12021">
        <ele>1338.8</ele>
        <time>2022-07-18T12:42:31Z</time>
      </trkpt>
      <trkpt lat="44.5196" lon="7.12022">
        <ele>1338.6</ele>
        <time>2022-07-18T12:42:32Z</time>
      </trkpt>
      <trkpt lat="44.51966" lon="7.12024">
        <ele>1338.4</ele>
        <time>2022-07-18T12:42:33Z</time>
      </trkpt>
      <trkpt lat="44.51973" lon="7.12026">
        <ele>1338</ele>
        <time>2022-07-18T12:42:34Z</time>
      </trkpt>
      <trkpt lat="44.51981" lon="7.12029">
        <ele>1337.6</ele>
        <time>2022-07-18T12:42:35Z</time>
      </trkpt>
      <trkpt lat="44.51987" lon="7.12033">
        <ele>1337.4</ele>
        <time>2022-07-18T12:42:36Z</time>
      </trkpt>
      <trkpt lat="44.51994" lon="7.12038">
        <ele>1337.2</ele>
        <time>2022-07-18T12:42:37Z</time>
      </trkpt>
      <trkpt lat="44.51999" lon="7.12045">
        <ele>1336.8</ele>
        <time>2022-07-18T12:42:38Z</time>
      </trkpt>
      <trkpt lat="44.52003" lon="7.1205">
        <ele>1336.6</ele>
        <time>2022-07-18T12:42:39Z</time>
      </trkpt>
      <trkpt lat="44.52009" lon="7.12054">
        <ele>1336.4</ele>
        <time>2022-07-18T12:42:40Z</time>
      </trkpt>
      <trkpt lat="44.52015" lon="7.12057">
        <ele>1336</ele>
        <time>2022-07-18T12:42:41Z</time>
      </trkpt>
      <trkpt lat="44.52022" lon="7.12058">
        <ele>1335.6</ele>
        <time>2022-07-18T12:42:42Z</time>
      </trkpt>
      <trkpt lat="44.52029" lon="7.12059">
        <ele>1335.2</ele>
        <time>2022-07-18T12:42:43Z</time>
      </trkpt>
      <trkpt lat="44.52036" lon="7.12062">
        <ele>1334.6</ele>
        <time>2022-07-18T12:42:44Z</time>
      </trkpt>
      <trkpt lat="44.52042" lon="7.12067">
        <ele>1334.2</ele>
        <time>2022-07-18T12:42:45Z</time>
      </trkpt>
      <trkpt lat="44.52048" lon="7.12074">
        <ele>1333.8</ele>
        <time>2022-07-18T12:42:46Z</time>
      </trkpt>
      <trkpt lat="44.52053" lon="7.12081">
        <ele>1333.4</ele>
        <time>2022-07-18T12:42:47Z</time>
      </trkpt>
      <trkpt lat="44.52058" lon="7.12089">
        <ele>1333.2</ele>
        <time>2022-07-18T12:42:48Z</time>
      </trkpt>
      <trkpt lat="44.52062" lon="7.12097">
        <ele>1333.2</ele>
        <time>2022-07-18T12:42:49Z</time>
      </trkpt>
      <trkpt lat="44.52067" lon="7.12104">
        <ele>1332.8</ele>
        <time>2022-07-18T12:42:50Z</time>
      </trkpt>
      <trkpt lat="44.52071" lon="7.12112">
        <ele>1332.8</ele>
        <time>2022-07-18T12:42:51Z</time>
      </trkpt>
      <trkpt lat="44.52075" lon="7.12119">
        <ele>1332.6</ele>
        <time>2022-07-18T12:42:52Z</time>
      </trkpt>
      <trkpt lat="44.52079" lon="7.12127">
        <ele>1332.6</ele>
        <time>2022-07-18T12:42:53Z</time>
      </trkpt>
      <trkpt lat="44.52083" lon="7.12135">
        <ele>1332.4</ele>
        <time>2022-07-18T12:42:54Z</time>
      </trkpt>
      <trkpt lat="44.52088" lon="7.12143">
        <ele>1332.4</ele>
        <time>2022-07-18T12:42:55Z</time>
      </trkpt>
      <trkpt lat="44.52092" lon="7.12151">
        <ele>1332</ele>
        <time>2022-07-18T12:42:56Z</time>
      </trkpt>
      <trkpt lat="44.52096" lon="7.12159">
        <ele>1331.8</ele>
        <time>2022-07-18T12:42:57Z</time>
      </trkpt>
      <trkpt lat="44.52101" lon="7.12168">
        <ele>1331.6</ele>
        <time>2022-07-18T12:42:58Z</time>
      </trkpt>
      <trkpt lat="44.52105" lon="7.12175">
        <ele>1331.4</ele>
        <time>2022-07-18T12:42:59Z</time>
      </trkpt>
      <trkpt lat="44.52111" lon="7.12182">
        <ele>1331</ele>
        <time>2022-07-18T12:43:00Z</time>
      </trkpt>
      <trkpt lat="44.52116" lon="7.12188">
        <ele>1330.8</ele>
        <time>2022-07-18T12:43:01Z</time>
      </trkpt>
      <trkpt lat="44.52121" lon="7.12194">
        <ele>1330.6</ele>
        <time>2022-07-18T12:43:02Z</time>
      </trkpt>
      <trkpt lat="44.52126" lon="7.12201">
        <ele>1330.6</ele>
        <time>2022-07-18T12:43:03Z</time>
      </trkpt>
      <trkpt lat="44.52131" lon="7.12208">
        <ele>1330.2</ele>
        <time>2022-07-18T12:43:04Z</time>
      </trkpt>
      <trkpt lat="44.52136" lon="7.12215">
        <ele>1330.2</ele>
        <time>2022-07-18T12:43:05Z</time>
      </trkpt>
      <trkpt lat="44.52141" lon="7.12222">
        <ele>1329.8</ele>
        <time>2022-07-18T12:43:06Z</time>
      </trkpt>
      <trkpt lat="44.52144" lon="7.1223">
        <ele>1329.8</ele>
        <time>2022-07-18T12:43:07Z</time>
      </trkpt>
      <trkpt lat="44.52147" lon="7.12239">
        <ele>1329.4</ele>
        <time>2022-07-18T12:43:08Z</time>
      </trkpt>
      <trkpt lat="44.52149" lon="7.12248">
        <ele>1329.4</ele>
        <time>2022-07-18T12:43:09Z</time>
      </trkpt>
      <trkpt lat="44.52151" lon="7.12257">
        <ele>1329.2</ele>
        <time>2022-07-18T12:43:10Z</time>
      </trkpt>
      <trkpt lat="44.52154" lon="7.12266">
        <ele>1329.2</ele>
        <time>2022-07-18T12:43:11Z</time>
      </trkpt>
      <trkpt lat="44.52156" lon="7.12275">
        <ele>1329</ele>
        <time>2022-07-18T12:43:12Z</time>
      </trkpt>
      <trkpt lat="44.52159" lon="7.12284">
        <ele>1329</ele>
        <time>2022-07-18T12:43:13Z</time>
      </trkpt>
      <trkpt lat="44.52163" lon="7.12293">
        <ele>1328.8</ele>
        <time>2022-07-18T12:43:14Z</time>
      </trkpt>
      <trkpt lat="44.52166" lon="7.12302">
        <ele>1328.8</ele>
        <time>2022-07-18T12:43:15Z</time>
      </trkpt>
      <trkpt lat="44.5217" lon="7.12309">
        <ele>1328.4</ele>
        <time>2022-07-18T12:43:16Z</time>
      </trkpt>
      <trkpt lat="44.52174" lon="7.12316">
        <ele>1328.4</ele>
        <time>2022-07-18T12:43:17Z</time>
      </trkpt>
      <trkpt lat="44.52179" lon="7.12323">
        <ele>1328</ele>
        <time>2022-07-18T12:43:18Z</time>
      </trkpt>
      <trkpt lat="44.52185" lon="7.12329">
        <ele>1327.6</ele>
        <time>2022-07-18T12:43:19Z</time>
      </trkpt>
      <trkpt lat="44.52191" lon="7.12336">
        <ele>1327.2</ele>
        <time>2022-07-18T12:43:20Z</time>
      </trkpt>
      <trkpt lat="44.52198" lon="7.12343">
        <ele>1326.8</ele>
        <time>2022-07-18T12:43:21Z</time>
      </trkpt>
      <trkpt lat="44.52205" lon="7.1235">
        <ele>1326.2</ele>
        <time>2022-07-18T12:43:22Z</time>
      </trkpt>
      <trkpt lat="44.52212" lon="7.12358">
        <ele>1325.6</ele>
        <time>2022-07-18T12:43:23Z</time>
      </trkpt>
      <trkpt lat="44.52218" lon="7.12367">
        <ele>1325</ele>
        <time>2022-07-18T12:43:24Z</time>
      </trkpt>
      <trkpt lat="44.52223" lon="7.12377">
        <ele>1324.2</ele>
        <time>2022-07-18T12:43:25Z</time>
      </trkpt>
      <trkpt lat="44.52228" lon="7.12386">
        <ele>1323.4</ele>
        <time>2022-07-18T12:43:26Z</time>
      </trkpt>
      <trkpt lat="44.52232" lon="7.12395">
        <ele>1322.8</ele>
        <time>2022-07-18T12:43:27Z</time>
      </trkpt>
      <trkpt lat="44.52236" lon="7.12405">
        <ele>1322.2</ele>
        <time>2022-07-18T12:43:28Z</time>
      </trkpt>
      <trkpt lat="44.52239" lon="7.12414">
        <ele>1321.6</ele>
        <time>2022-07-18T12:43:29Z</time>
      </trkpt>
      <trkpt lat="44.52237" lon="7.1242">
        <ele>1321.2</ele>
        <time>2022-07-18T12:43:30Z</time>
      </trkpt>
      <trkpt lat="44.52235" lon="7.12426">
        <ele>1321</ele>
        <time>2022-07-18T12:43:31Z</time>
      </trkpt>
      <trkpt lat="44.5223" lon="7.1243">
        <ele>1321</ele>
        <time>2022-07-18T12:43:32Z</time>
      </trkpt>
      <trkpt lat="44.52226" lon="7.12432">
        <ele>1320.6</ele>
        <time>2022-07-18T12:43:33Z</time>
      </trkpt>
      <trkpt lat="44.52222" lon="7.12434">
        <ele>1320.6</ele>
        <time>2022-07-18T12:43:34Z</time>
      </trkpt>
      <trkpt lat="44.52218" lon="7.12435">
        <ele>1320.6</ele>
        <time>2022-07-18T12:43:35Z</time>
      </trkpt>
      <trkpt lat="44.52213" lon="7.12434">
        <ele>1320.6</ele>
        <time>2022-07-18T12:43:36Z</time>
      </trkpt>
      <trkpt lat="44.52208" lon="7.12433">
        <ele>1320.6</ele>
        <time>2022-07-18T12:43:37Z</time>
      </trkpt>
      <trkpt lat="44.52204" lon="7.12431">
        <ele>1320.6</ele>
        <time>2022-07-18T12:43:38Z</time>
      </trkpt>
      <trkpt lat="44.522" lon="7.12431">
        <ele>1320.6</ele>
        <time>2022-07-18T12:43:39Z</time>
      </trkpt>
      <trkpt lat="44.52195" lon="7.12431">
        <ele>1320.8</ele>
        <time>2022-07-18T12:43:40Z</time>
      </trkpt>
      <trkpt lat="44.52191" lon="7.12431">
        <ele>1321.2</ele>
        <time>2022-07-18T12:43:41Z</time>
      </trkpt>
      <trkpt lat="44.52187" lon="7.12431">
        <ele>1321.4</ele>
        <time>2022-07-18T12:43:42Z</time>
      </trkpt>
      <trkpt lat="44.52184" lon="7.12431">
        <ele>1321.4</ele>
        <time>2022-07-18T12:43:43Z</time>
      </trkpt>
      <trkpt lat="44.52181" lon="7.1243">
        <ele>1321.8</ele>
        <time>2022-07-18T12:43:44Z</time>
      </trkpt>
      <trkpt lat="44.52178" lon="7.12429">
        <ele>1322</ele>
        <time>2022-07-18T12:43:45Z</time>
      </trkpt>
      <trkpt lat="44.52176" lon="7.12428">
        <ele>1322</ele>
        <time>2022-07-18T12:43:46Z</time>
      </trkpt>
      <trkpt lat="44.52173" lon="7.12428">
        <ele>1322.4</ele>
        <time>2022-07-18T12:43:47Z</time>
      </trkpt>
      <trkpt lat="44.5217" lon="7.12428">
        <ele>1322.4</ele>
        <time>2022-07-18T12:43:48Z</time>
      </trkpt>
      <trkpt lat="44.52167" lon="7.12429">
        <ele>1322.8</ele>
        <time>2022-07-18T12:43:49Z</time>
      </trkpt>
      <trkpt lat="44.52165" lon="7.12428">
        <ele>1323</ele>
        <time>2022-07-18T12:43:50Z</time>
      </trkpt>
      <trkpt lat="44.52162" lon="7.12427">
        <ele>1323</ele>
        <time>2022-07-18T12:43:51Z</time>
      </trkpt>
      <trkpt lat="44.5216" lon="7.12427">
        <ele>1323.4</ele>
        <time>2022-07-18T12:43:52Z</time>
      </trkpt>
      <trkpt lat="44.52158" lon="7.12427">
        <ele>1323.6</ele>
        <time>2022-07-18T12:43:53Z</time>
      </trkpt>
      <trkpt lat="44.52156" lon="7.12426">
        <ele>1323.6</ele>
        <time>2022-07-18T12:43:54Z</time>
      </trkpt>
      <trkpt lat="44.52155" lon="7.12426">
        <ele>1324</ele>
        <time>2022-07-18T12:43:55Z</time>
      </trkpt>
      <trkpt lat="44.52153" lon="7.12426">
        <ele>1324.2</ele>
        <time>2022-07-18T12:43:56Z</time>
      </trkpt>
      <trkpt lat="44.52151" lon="7.12426">
        <ele>1324.4</ele>
        <time>2022-07-18T12:43:57Z</time>
      </trkpt>
      <trkpt lat="44.52149" lon="7.12426">
        <ele>1324.6</ele>
        <time>2022-07-18T12:43:58Z</time>
      </trkpt>
      <trkpt lat="44.52146" lon="7.12426">
        <ele>1325</ele>
        <time>2022-07-18T12:43:59Z</time>
      </trkpt>
      <trkpt lat="44.52144" lon="7.12426">
        <ele>1325.2</ele>
        <time>2022-07-18T12:44:00Z</time>
      </trkpt>
      <trkpt lat="44.52142" lon="7.12426">
        <ele>1325.2</ele>
        <time>2022-07-18T12:44:01Z</time>
      </trkpt>
      <trkpt lat="44.5214" lon="7.12426">
        <ele>1325.6</ele>
        <time>2022-07-18T12:44:02Z</time>
      </trkpt>
      <trkpt lat="44.52138" lon="7.12427">
        <ele>1325.8</ele>
        <time>2022-07-18T12:44:03Z</time>
      </trkpt>
      <trkpt lat="44.52135" lon="7.12427">
        <ele>1326.2</ele>
        <time>2022-07-18T12:44:04Z</time>
      </trkpt>
      <trkpt lat="44.52133" lon="7.12428">
        <ele>1326.4</ele>
        <time>2022-07-18T12:44:05Z</time>
      </trkpt>
      <trkpt lat="44.5213" lon="7.12429">
        <ele>1326.6</ele>
        <time>2022-07-18T12:44:06Z</time>
      </trkpt>
      <trkpt lat="44.52127" lon="7.12429">
        <ele>1326.6</ele>
        <time>2022-07-18T12:44:07Z</time>
      </trkpt>
      <trkpt lat="44.52125" lon="7.1243">
        <ele>1327</ele>
        <time>2022-07-18T12:44:08Z</time>
      </trkpt>
      <trkpt lat="44.52122" lon="7.12431">
        <ele>1327</ele>
        <time>2022-07-18T12:44:09Z</time>
      </trkpt>
      <trkpt lat="44.5212" lon="7.12433">
        <ele>1327.4</ele>
        <time>2022-07-18T12:44:10Z</time>
      </trkpt>
      <trkpt lat="44.52118" lon="7.12434">
        <ele>1327.4</ele>
        <time>2022-07-18T12:44:11Z</time>
      </trkpt>
      <trkpt lat="44.52115" lon="7.12436">
        <ele>1327.8</ele>
        <time>2022-07-18T12:44:12Z</time>
      </trkpt>
      <trkpt lat="44.52113" lon="7.12438">
        <ele>1327.8</ele>
        <time>2022-07-18T12:44:13Z</time>
      </trkpt>
      <trkpt lat="44.52111" lon="7.1244">
        <ele>1328.2</ele>
        <time>2022-07-18T12:44:14Z</time>
      </trkpt>
      <trkpt lat="44.52108" lon="7.12441">
        <ele>1328.2</ele>
        <time>2022-07-18T12:44:15Z</time>
      </trkpt>
      <trkpt lat="44.52106" lon="7.12443">
        <ele>1328.4</ele>
        <time>2022-07-18T12:44:16Z</time>
      </trkpt>
      <trkpt lat="44.52105" lon="7.12445">
        <ele>1328.4</ele>
        <time>2022-07-18T12:44:17Z</time>
      </trkpt>
      <trkpt lat="44.52103" lon="7.12447">
        <ele>1328.4</ele>
        <time>2022-07-18T12:44:18Z</time>
      </trkpt>
      <trkpt lat="44.52101" lon="7.12449">
        <ele>1328.6</ele>
        <time>2022-07-18T12:44:19Z</time>
      </trkpt>
      <trkpt lat="44.52099" lon="7.12451">
        <ele>1328.6</ele>
        <time>2022-07-18T12:44:20Z</time>
      </trkpt>
      <trkpt lat="44.52097" lon="7.12454">
        <ele>1329</ele>
        <time>2022-07-18T12:44:21Z</time>
      </trkpt>
      <trkpt lat="44.52096" lon="7.12456">
        <ele>1329</ele>
        <time>2022-07-18T12:44:22Z</time>
      </trkpt>
      <trkpt lat="44.52094" lon="7.1246">
        <ele>1329.2</ele>
        <time>2022-07-18T12:44:23Z</time>
      </trkpt>
      <trkpt lat="44.52092" lon="7.12463">
        <ele>1329.2</ele>
        <time>2022-07-18T12:44:24Z</time>
      </trkpt>
      <trkpt lat="44.52091" lon="7.12466">
        <ele>1329.2</ele>
        <time>2022-07-18T12:44:25Z</time>
      </trkpt>
      <trkpt lat="44.52089" lon="7.1247">
        <ele>1329.2</ele>
        <time>2022-07-18T12:44:26Z</time>
      </trkpt>
      <trkpt lat="44.52087" lon="7.12472">
        <ele>1329.6</ele>
        <time>2022-07-18T12:44:27Z</time>
      </trkpt>
      <trkpt lat="44.52085" lon="7.12475">
        <ele>1329.6</ele>
        <time>2022-07-18T12:44:28Z</time>
      </trkpt>
      <trkpt lat="44.52082" lon="7.12478">
        <ele>1329.6</ele>
        <time>2022-07-18T12:44:29Z</time>
      </trkpt>
      <trkpt lat="44.52081" lon="7.12481">
        <ele>1329.8</ele>
        <time>2022-07-18T12:44:30Z</time>
      </trkpt>
      <trkpt lat="44.52079" lon="7.12484">
        <ele>1329.8</ele>
        <time>2022-07-18T12:44:31Z</time>
      </trkpt>
      <trkpt lat="44.52077" lon="7.12487">
        <ele>1329.8</ele>
        <time>2022-07-18T12:44:32Z</time>
      </trkpt>
      <trkpt lat="44.52075" lon="7.1249">
        <ele>1330</ele>
        <time>2022-07-18T12:44:33Z</time>
      </trkpt>
      <trkpt lat="44.52073" lon="7.12493">
        <ele>1330</ele>
        <time>2022-07-18T12:44:34Z</time>
      </trkpt>
      <trkpt lat="44.52071" lon="7.12496">
        <ele>1330</ele>
        <time>2022-07-18T12:44:35Z</time>
      </trkpt>
      <trkpt lat="44.52068" lon="7.12499">
        <ele>1330</ele>
        <time>2022-07-18T12:44:36Z</time>
      </trkpt>
      <trkpt lat="44.52065" lon="7.12502">
        <ele>1330</ele>
        <time>2022-07-18T12:44:37Z</time>
      </trkpt>
      <trkpt lat="44.52063" lon="7.12504">
        <ele>1330</ele>
        <time>2022-07-18T12:44:38Z</time>
      </trkpt>
      <trkpt lat="44.52059" lon="7.12506">
        <ele>1330</ele>
        <time>2022-07-18T12:44:39Z</time>
      </trkpt>
      <trkpt lat="44.52056" lon="7.12508">
        <ele>1330.2</ele>
        <time>2022-07-18T12:44:40Z</time>
      </trkpt>
      <trkpt lat="44.52053" lon="7.1251">
        <ele>1330.2</ele>
        <time>2022-07-18T12:44:41Z</time>
      </trkpt>
      <trkpt lat="44.5205" lon="7.12511">
        <ele>1330.6</ele>
        <time>2022-07-18T12:44:42Z</time>
      </trkpt>
      <trkpt lat="44.52047" lon="7.12512">
        <ele>1330.8</ele>
        <time>2022-07-18T12:44:43Z</time>
      </trkpt>
      <trkpt lat="44.52045" lon="7.12513">
        <ele>1330.8</ele>
        <time>2022-07-18T12:44:44Z</time>
      </trkpt>
      <trkpt lat="44.52042" lon="7.12514">
        <ele>1331</ele>
        <time>2022-07-18T12:44:45Z</time>
      </trkpt>
      <trkpt lat="44.5204" lon="7.12516">
        <ele>1331</ele>
        <time>2022-07-18T12:44:46Z</time>
      </trkpt>
      <trkpt lat="44.52038" lon="7.12519">
        <ele>1331</ele>
        <time>2022-07-18T12:44:47Z</time>
      </trkpt>
      <trkpt lat="44.52038" lon="7.12522">
        <ele>1331</ele>
        <time>2022-07-18T12:44:48Z</time>
      </trkpt>
      <trkpt lat="44.52039" lon="7.12526">
        <ele>1331</ele>
        <time>2022-07-18T12:44:49Z</time>
      </trkpt>
      <trkpt lat="44.5204" lon="7.1253">
        <ele>1331</ele>
        <time>2022-07-18T12:44:50Z</time>
      </trkpt>
      <trkpt lat="44.52042" lon="7.12535">
        <ele>1331</ele>
        <time>2022-07-18T12:44:51Z</time>
      </trkpt>
      <trkpt lat="44.52044" lon="7.12539">
        <ele>1331</ele>
        <time>2022-07-18T12:44:52Z</time>
      </trkpt>
      <trkpt lat="44.52046" lon="7.12543">
        <ele>1330.8</ele>
        <time>2022-07-18T12:44:53Z</time>
      </trkpt>
      <trkpt lat="44.52048" lon="7.12547">
        <ele>1330.8</ele>
        <time>2022-07-18T12:44:54Z</time>
      </trkpt>
      <trkpt lat="44.5205" lon="7.1255">
        <ele>1330.8</ele>
        <time>2022-07-18T12:44:55Z</time>
      </trkpt>
      <trkpt lat="44.52052" lon="7.12553">
        <ele>1330.8</ele>
        <time>2022-07-18T12:44:56Z</time>
      </trkpt>
      <trkpt lat="44.52054" lon="7.12555">
        <ele>1330.8</ele>
        <time>2022-07-18T12:44:57Z</time>
      </trkpt>
      <trkpt lat="44.52056" lon="7.12557">
        <ele>1330.8</ele>
        <time>2022-07-18T12:44:58Z</time>
      </trkpt>
      <trkpt lat="44.52058" lon="7.1256">
        <ele>1331</ele>
        <time>2022-07-18T12:44:59Z</time>
      </trkpt>
      <trkpt lat="44.5206" lon="7.12562">
        <ele>1331</ele>
        <time>2022-07-18T12:45:00Z</time>
      </trkpt>
      <trkpt lat="44.52062" lon="7.12564">
        <ele>1331.4</ele>
        <time>2022-07-18T12:45:01Z</time>
      </trkpt>
      <trkpt lat="44.52064" lon="7.12567">
        <ele>1331.6</ele>
        <time>2022-07-18T12:45:02Z</time>
      </trkpt>
      <trkpt lat="44.52065" lon="7.12569">
        <ele>1331.8</ele>
        <time>2022-07-18T12:45:03Z</time>
      </trkpt>
      <trkpt lat="44.52067" lon="7.12571">
        <ele>1332</ele>
        <time>2022-07-18T12:45:04Z</time>
      </trkpt>
      <trkpt lat="44.52068" lon="7.12574">
        <ele>1332</ele>
        <time>2022-07-18T12:45:05Z</time>
      </trkpt>
      <trkpt lat="44.5207" lon="7.12577">
        <ele>1332.4</ele>
        <time>2022-07-18T12:45:06Z</time>
      </trkpt>
      <trkpt lat="44.52071" lon="7.1258">
        <ele>1332.6</ele>
        <time>2022-07-18T12:45:07Z</time>
      </trkpt>
      <trkpt lat="44.52072" lon="7.12583">
        <ele>1333</ele>
        <time>2022-07-18T12:45:08Z</time>
      </trkpt>
      <trkpt lat="44.52073" lon="7.12585">
        <ele>1333.2</ele>
        <time>2022-07-18T12:45:09Z</time>
      </trkpt>
      <trkpt lat="44.52074" lon="7.12588">
        <ele>1333.6</ele>
        <time>2022-07-18T12:45:10Z</time>
      </trkpt>
      <trkpt lat="44.52076" lon="7.1259">
        <ele>1333.8</ele>
        <time>2022-07-18T12:45:11Z</time>
      </trkpt>
      <trkpt lat="44.52077" lon="7.12593">
        <ele>1334.2</ele>
        <time>2022-07-18T12:45:12Z</time>
      </trkpt>
      <trkpt lat="44.52078" lon="7.12595">
        <ele>1334.4</ele>
        <time>2022-07-18T12:45:13Z</time>
      </trkpt>
      <trkpt lat="44.52079" lon="7.12597">
        <ele>1334.6</ele>
        <time>2022-07-18T12:45:14Z</time>
      </trkpt>
      <trkpt lat="44.52081" lon="7.126">
        <ele>1335</ele>
        <time>2022-07-18T12:45:15Z</time>
      </trkpt>
      <trkpt lat="44.52082" lon="7.12603">
        <ele>1335.2</ele>
        <time>2022-07-18T12:45:16Z</time>
      </trkpt>
      <trkpt lat="44.52083" lon="7.12607">
        <ele>1335.4</ele>
        <time>2022-07-18T12:45:17Z</time>
      </trkpt>
      <trkpt lat="44.52084" lon="7.1261">
        <ele>1335.6</ele>
        <time>2022-07-18T12:45:18Z</time>
      </trkpt>
      <trkpt lat="44.52086" lon="7.12613">
        <ele>1335.8</ele>
        <time>2022-07-18T12:45:19Z</time>
      </trkpt>
      <trkpt lat="44.52087" lon="7.12616">
        <ele>1335.8</ele>
        <time>2022-07-18T12:45:20Z</time>
      </trkpt>
      <trkpt lat="44.52088" lon="7.1262">
        <ele>1336.2</ele>
        <time>2022-07-18T12:45:21Z</time>
      </trkpt>
      <trkpt lat="44.5209" lon="7.12624">
        <ele>1336.4</ele>
        <time>2022-07-18T12:45:22Z</time>
      </trkpt>
      <trkpt lat="44.52091" lon="7.12627">
        <ele>1336.8</ele>
        <time>2022-07-18T12:45:23Z</time>
      </trkpt>
      <trkpt lat="44.52092" lon="7.12631">
        <ele>1337</ele>
        <time>2022-07-18T12:45:24Z</time>
      </trkpt>
      <trkpt lat="44.52093" lon="7.12633">
        <ele>1337.4</ele>
        <time>2022-07-18T12:45:25Z</time>
      </trkpt>
      <trkpt lat="44.52094" lon="7.12636">
        <ele>1337.6</ele>
        <time>2022-07-18T12:45:26Z</time>
      </trkpt>
      <trkpt lat="44.52094" lon="7.12639">
        <ele>1337.8</ele>
        <time>2022-07-18T12:45:27Z</time>
      </trkpt>
      <trkpt lat="44.52095" lon="7.12642">
        <ele>1338</ele>
        <time>2022-07-18T12:45:28Z</time>
      </trkpt>
      <trkpt lat="44.52096" lon="7.12644">
        <ele>1338.4</ele>
        <time>2022-07-18T12:45:29Z</time>
      </trkpt>
      <trkpt lat="44.52097" lon="7.12647">
        <ele>1338.4</ele>
        <time>2022-07-18T12:45:30Z</time>
      </trkpt>
      <trkpt lat="44.52098" lon="7.1265">
        <ele>1338.8</ele>
        <time>2022-07-18T12:45:31Z</time>
      </trkpt>
      <trkpt lat="44.52099" lon="7.12653">
        <ele>1339</ele>
        <time>2022-07-18T12:45:32Z</time>
      </trkpt>
      <trkpt lat="44.521" lon="7.12656">
        <ele>1339.4</ele>
        <time>2022-07-18T12:45:33Z</time>
      </trkpt>
      <trkpt lat="44.52101" lon="7.1266">
        <ele>1339.6</ele>
        <time>2022-07-18T12:45:34Z</time>
      </trkpt>
      <trkpt lat="44.52102" lon="7.12663">
        <ele>1340</ele>
        <time>2022-07-18T12:45:35Z</time>
      </trkpt>
      <trkpt lat="44.52103" lon="7.12666">
        <ele>1340.2</ele>
        <time>2022-07-18T12:45:36Z</time>
      </trkpt>
      <trkpt lat="44.52104" lon="7.12669">
        <ele>1340.6</ele>
        <time>2022-07-18T12:45:37Z</time>
      </trkpt>
      <trkpt lat="44.52105" lon="7.12672">
        <ele>1340.8</ele>
        <time>2022-07-18T12:45:38Z</time>
      </trkpt>
      <trkpt lat="44.52106" lon="7.12675">
        <ele>1341</ele>
        <time>2022-07-18T12:45:39Z</time>
      </trkpt>
      <trkpt lat="44.52108" lon="7.12678">
        <ele>1341</ele>
        <time>2022-07-18T12:45:40Z</time>
      </trkpt>
      <trkpt lat="44.52109" lon="7.12681">
        <ele>1341.4</ele>
        <time>2022-07-18T12:45:41Z</time>
      </trkpt>
      <trkpt lat="44.52111" lon="7.12684">
        <ele>1341.4</ele>
        <time>2022-07-18T12:45:42Z</time>
      </trkpt>
      <trkpt lat="44.52112" lon="7.12688">
        <ele>1341.4</ele>
        <time>2022-07-18T12:45:43Z</time>
      </trkpt>
      <trkpt lat="44.52113" lon="7.12692">
        <ele>1341.4</ele>
        <time>2022-07-18T12:45:44Z</time>
      </trkpt>
      <trkpt lat="44.52115" lon="7.12697">
        <ele>1341.4</ele>
        <time>2022-07-18T12:45:45Z</time>
      </trkpt>
      <trkpt lat="44.52117" lon="7.12702">
        <ele>1341</ele>
        <time>2022-07-18T12:45:46Z</time>
      </trkpt>
      <trkpt lat="44.52119" lon="7.12708">
        <ele>1340.8</ele>
        <time>2022-07-18T12:45:47Z</time>
      </trkpt>
      <trkpt lat="44.52122" lon="7.12714">
        <ele>1340.6</ele>
        <time>2022-07-18T12:45:48Z</time>
      </trkpt>
      <trkpt lat="44.52124" lon="7.12722">
        <ele>1340.2</ele>
        <time>2022-07-18T12:45:49Z</time>
      </trkpt>
      <trkpt lat="44.52126" lon="7.12732">
        <ele>1339.8</ele>
        <time>2022-07-18T12:45:50Z</time>
      </trkpt>
      <trkpt lat="44.52127" lon="7.12742">
        <ele>1339.4</ele>
        <time>2022-07-18T12:45:51Z</time>
      </trkpt>
      <trkpt lat="44.52127" lon="7.12752">
        <ele>1338.8</ele>
        <time>2022-07-18T12:45:52Z</time>
      </trkpt>
      <trkpt lat="44.52127" lon="7.12763">
        <ele>1338.2</ele>
        <time>2022-07-18T12:45:53Z</time>
      </trkpt>
      <trkpt lat="44.52127" lon="7.12773">
        <ele>1337.8</ele>
        <time>2022-07-18T12:45:54Z</time>
      </trkpt>
      <trkpt lat="44.52128" lon="7.12783">
        <ele>1337.2</ele>
        <time>2022-07-18T12:45:55Z</time>
      </trkpt>
      <trkpt lat="44.5213" lon="7.12791">
        <ele>1336.6</ele>
        <time>2022-07-18T12:45:56Z</time>
      </trkpt>
      <trkpt lat="44.52131" lon="7.128">
        <ele>1336</ele>
        <time>2022-07-18T12:45:57Z</time>
      </trkpt>
      <trkpt lat="44.52131" lon="7.12808">
        <ele>1335.6</ele>
        <time>2022-07-18T12:45:58Z</time>
      </trkpt>
      <trkpt lat="44.5213" lon="7.12816">
        <ele>1335.2</ele>
        <time>2022-07-18T12:45:59Z</time>
      </trkpt>
      <trkpt lat="44.52127" lon="7.12824">
        <ele>1334.8</ele>
        <time>2022-07-18T12:46:00Z</time>
      </trkpt>
      <trkpt lat="44.52122" lon="7.12831">
        <ele>1334.4</ele>
        <time>2022-07-18T12:46:01Z</time>
      </trkpt>
      <trkpt lat="44.52117" lon="7.12838">
        <ele>1334</ele>
        <time>2022-07-18T12:46:02Z</time>
      </trkpt>
      <trkpt lat="44.52111" lon="7.12843">
        <ele>1333.6</ele>
        <time>2022-07-18T12:46:03Z</time>
      </trkpt>
      <trkpt lat="44.52105" lon="7.12847">
        <ele>1333.4</ele>
        <time>2022-07-18T12:46:04Z</time>
      </trkpt>
      <trkpt lat="44.52098" lon="7.1285">
        <ele>1333</ele>
        <time>2022-07-18T12:46:05Z</time>
      </trkpt>
      <trkpt lat="44.52091" lon="7.12852">
        <ele>1332.6</ele>
        <time>2022-07-18T12:46:06Z</time>
      </trkpt>
      <trkpt lat="44.52083" lon="7.12852">
        <ele>1332.2</ele>
        <time>2022-07-18T12:46:07Z</time>
      </trkpt>
      <trkpt lat="44.52075" lon="7.12852">
        <ele>1331.8</ele>
        <time>2022-07-18T12:46:08Z</time>
      </trkpt>
      <trkpt lat="44.52066" lon="7.12851">
        <ele>1331.4</ele>
        <time>2022-07-18T12:46:09Z</time>
      </trkpt>
      <trkpt lat="44.52058" lon="7.12849">
        <ele>1330.8</ele>
        <time>2022-07-18T12:46:10Z</time>
      </trkpt>
      <trkpt lat="44.52048" lon="7.12849">
        <ele>1330</ele>
        <time>2022-07-18T12:46:11Z</time>
      </trkpt>
      <trkpt lat="44.52039" lon="7.12849">
        <ele>1329.4</ele>
        <time>2022-07-18T12:46:12Z</time>
      </trkpt>
      <trkpt lat="44.5203" lon="7.12849">
        <ele>1328.6</ele>
        <time>2022-07-18T12:46:13Z</time>
      </trkpt>
      <trkpt lat="44.52021" lon="7.12849">
        <ele>1327.8</ele>
        <time>2022-07-18T12:46:14Z</time>
      </trkpt>
      <trkpt lat="44.52012" lon="7.1285">
        <ele>1327</ele>
        <time>2022-07-18T12:46:15Z</time>
      </trkpt>
      <trkpt lat="44.52003" lon="7.12851">
        <ele>1326</ele>
        <time>2022-07-18T12:46:16Z</time>
      </trkpt>
      <trkpt lat="44.51995" lon="7.12852">
        <ele>1325.2</ele>
        <time>2022-07-18T12:46:17Z</time>
      </trkpt>
      <trkpt lat="44.51986" lon="7.12853">
        <ele>1324.4</ele>
        <time>2022-07-18T12:46:18Z</time>
      </trkpt>
      <trkpt lat="44.51978" lon="7.12854">
        <ele>1323.6</ele>
        <time>2022-07-18T12:46:19Z</time>
      </trkpt>
      <trkpt lat="44.51971" lon="7.12855">
        <ele>1322.8</ele>
        <time>2022-07-18T12:46:20Z</time>
      </trkpt>
      <trkpt lat="44.51964" lon="7.12856">
        <ele>1321.8</ele>
        <time>2022-07-18T12:46:21Z</time>
      </trkpt>
      <trkpt lat="44.51957" lon="7.12858">
        <ele>1321</ele>
        <time>2022-07-18T12:46:22Z</time>
      </trkpt>
      <trkpt lat="44.5195" lon="7.12861">
        <ele>1320.2</ele>
        <time>2022-07-18T12:46:23Z</time>
      </trkpt>
      <trkpt lat="44.51943" lon="7.12863">
        <ele>1319.4</ele>
        <time>2022-07-18T12:46:24Z</time>
      </trkpt>
      <trkpt lat="44.51934" lon="7.12866">
        <ele>1318.4</ele>
        <time>2022-07-18T12:46:25Z</time>
      </trkpt>
      <trkpt lat="44.51926" lon="7.12866">
        <ele>1317.8</ele>
        <time>2022-07-18T12:46:26Z</time>
      </trkpt>
      <trkpt lat="44.51917" lon="7.12867">
        <ele>1317</ele>
        <time>2022-07-18T12:46:27Z</time>
      </trkpt>
      <trkpt lat="44.51907" lon="7.12868">
        <ele>1316.2</ele>
        <time>2022-07-18T12:46:28Z</time>
      </trkpt>
      <trkpt lat="44.51899" lon="7.12868">
        <ele>1315.2</ele>
        <time>2022-07-18T12:46:29Z</time>
      </trkpt>
      <trkpt lat="44.5189" lon="7.12869">
        <ele>1314.6</ele>
        <time>2022-07-18T12:46:30Z</time>
      </trkpt>
      <trkpt lat="44.51881" lon="7.12871">
        <ele>1313.8</ele>
        <time>2022-07-18T12:46:31Z</time>
      </trkpt>
      <trkpt lat="44.51873" lon="7.12873">
        <ele>1313</ele>
        <time>2022-07-18T12:46:32Z</time>
      </trkpt>
      <trkpt lat="44.51864" lon="7.12875">
        <ele>1312.2</ele>
        <time>2022-07-18T12:46:33Z</time>
      </trkpt>
      <trkpt lat="44.51856" lon="7.12877">
        <ele>1311.6</ele>
        <time>2022-07-18T12:46:34Z</time>
      </trkpt>
      <trkpt lat="44.51848" lon="7.12877">
        <ele>1311</ele>
        <time>2022-07-18T12:46:35Z</time>
      </trkpt>
      <trkpt lat="44.51841" lon="7.12876">
        <ele>1310.4</ele>
        <time>2022-07-18T12:46:36Z</time>
      </trkpt>
      <trkpt lat="44.51833" lon="7.12875">
        <ele>1309.6</ele>
        <time>2022-07-18T12:46:37Z</time>
      </trkpt>
      <trkpt lat="44.51825" lon="7.12872">
        <ele>1309</ele>
        <time>2022-07-18T12:46:38Z</time>
      </trkpt>
      <trkpt lat="44.51816" lon="7.12869">
        <ele>1308.2</ele>
        <time>2022-07-18T12:46:39Z</time>
      </trkpt>
      <trkpt lat="44.51808" lon="7.12867">
        <ele>1307.4</ele>
        <time>2022-07-18T12:46:40Z</time>
      </trkpt>
      <trkpt lat="44.518" lon="7.12866">
        <ele>1306.6</ele>
        <time>2022-07-18T12:46:41Z</time>
      </trkpt>
      <trkpt lat="44.51791" lon="7.12868">
        <ele>1305.8</ele>
        <time>2022-07-18T12:46:42Z</time>
      </trkpt>
      <trkpt lat="44.51782" lon="7.1287">
        <ele>1305</ele>
        <time>2022-07-18T12:46:43Z</time>
      </trkpt>
      <trkpt lat="44.51772" lon="7.12871">
        <ele>1304</ele>
        <time>2022-07-18T12:46:44Z</time>
      </trkpt>
      <trkpt lat="44.51762" lon="7.12872">
        <ele>1303.2</ele>
        <time>2022-07-18T12:46:45Z</time>
      </trkpt>
      <trkpt lat="44.51752" lon="7.12873">
        <ele>1302.2</ele>
        <time>2022-07-18T12:46:46Z</time>
      </trkpt>
      <trkpt lat="44.51741" lon="7.12874">
        <ele>1301.4</ele>
        <time>2022-07-18T12:46:47Z</time>
      </trkpt>
      <trkpt lat="44.51731" lon="7.12875">
        <ele>1300.6</ele>
        <time>2022-07-18T12:46:48Z</time>
      </trkpt>
      <trkpt lat="44.51721" lon="7.12876">
        <ele>1299.6</ele>
        <time>2022-07-18T12:46:49Z</time>
      </trkpt>
      <trkpt lat="44.51711" lon="7.12876">
        <ele>1298.6</ele>
        <time>2022-07-18T12:46:50Z</time>
      </trkpt>
      <trkpt lat="44.51701" lon="7.12876">
        <ele>1297.8</ele>
        <time>2022-07-18T12:46:51Z</time>
      </trkpt>
      <trkpt lat="44.51691" lon="7.12876">
        <ele>1296.8</ele>
        <time>2022-07-18T12:46:52Z</time>
      </trkpt>
      <trkpt lat="44.51681" lon="7.12876">
        <ele>1296</ele>
        <time>2022-07-18T12:46:53Z</time>
      </trkpt>
      <trkpt lat="44.51672" lon="7.12876">
        <ele>1295.2</ele>
        <time>2022-07-18T12:46:54Z</time>
      </trkpt>
      <trkpt lat="44.51663" lon="7.12876">
        <ele>1294.4</ele>
        <time>2022-07-18T12:46:55Z</time>
      </trkpt>
      <trkpt lat="44.51654" lon="7.12875">
        <ele>1293.6</ele>
        <time>2022-07-18T12:46:56Z</time>
      </trkpt>
      <trkpt lat="44.51646" lon="7.12875">
        <ele>1292.8</ele>
        <time>2022-07-18T12:46:57Z</time>
      </trkpt>
      <trkpt lat="44.51639" lon="7.12876">
        <ele>1292</ele>
        <time>2022-07-18T12:46:58Z</time>
      </trkpt>
      <trkpt lat="44.51633" lon="7.12878">
        <ele>1291</ele>
        <time>2022-07-18T12:46:59Z</time>
      </trkpt>
      <trkpt lat="44.51628" lon="7.12881">
        <ele>1290.2</ele>
        <time>2022-07-18T12:47:00Z</time>
      </trkpt>
      <trkpt lat="44.51624" lon="7.12888">
        <ele>1289.4</ele>
        <time>2022-07-18T12:47:01Z</time>
      </trkpt>
      <trkpt lat="44.5162" lon="7.12895">
        <ele>1288.8</ele>
        <time>2022-07-18T12:47:02Z</time>
      </trkpt>
      <trkpt lat="44.51616" lon="7.12903">
        <ele>1288.2</ele>
        <time>2022-07-18T12:47:03Z</time>
      </trkpt>
      <trkpt lat="44.51612" lon="7.12911">
        <ele>1287.6</ele>
        <time>2022-07-18T12:47:04Z</time>
      </trkpt>
      <trkpt lat="44.51607" lon="7.12917">
        <ele>1286.8</ele>
        <time>2022-07-18T12:47:05Z</time>
      </trkpt>
      <trkpt lat="44.51603" lon="7.12923">
        <ele>1286.2</ele>
        <time>2022-07-18T12:47:06Z</time>
      </trkpt>
      <trkpt lat="44.516" lon="7.12929">
        <ele>1285.8</ele>
        <time>2022-07-18T12:47:07Z</time>
      </trkpt>
      <trkpt lat="44.51598" lon="7.12933">
        <ele>1285.2</ele>
        <time>2022-07-18T12:47:08Z</time>
      </trkpt>
      <trkpt lat="44.51595" lon="7.12939">
        <ele>1284.6</ele>
        <time>2022-07-18T12:47:09Z</time>
      </trkpt>
      <trkpt lat="44.51592" lon="7.12944">
        <ele>1284</ele>
        <time>2022-07-18T12:47:10Z</time>
      </trkpt>
      <trkpt lat="44.51589" lon="7.12951">
        <ele>1283.4</ele>
        <time>2022-07-18T12:47:11Z</time>
      </trkpt>
      <trkpt lat="44.51586" lon="7.12958">
        <ele>1282.8</ele>
        <time>2022-07-18T12:47:12Z</time>
      </trkpt>
      <trkpt lat="44.51582" lon="7.12964">
        <ele>1282.2</ele>
        <time>2022-07-18T12:47:13Z</time>
      </trkpt>
      <trkpt lat="44.51578" lon="7.12969">
        <ele>1281.6</ele>
        <time>2022-07-18T12:47:14Z</time>
      </trkpt>
      <trkpt lat="44.51572" lon="7.12974">
        <ele>1280.8</ele>
        <time>2022-07-18T12:47:15Z</time>
      </trkpt>
      <trkpt lat="44.51565" lon="7.12977">
        <ele>1280.2</ele>
        <time>2022-07-18T12:47:16Z</time>
      </trkpt>
      <trkpt lat="44.51558" lon="7.1298">
        <ele>1279.4</ele>
        <time>2022-07-18T12:47:17Z</time>
      </trkpt>
      <trkpt lat="44.51551" lon="7.12981">
        <ele>1278.8</ele>
        <time>2022-07-18T12:47:18Z</time>
      </trkpt>
      <trkpt lat="44.51543" lon="7.1298">
        <ele>1278.2</ele>
        <time>2022-07-18T12:47:19Z</time>
      </trkpt>
      <trkpt lat="44.51534" lon="7.12979">
        <ele>1277.4</ele>
        <time>2022-07-18T12:47:20Z</time>
      </trkpt>
      <trkpt lat="44.51525" lon="7.12978">
        <ele>1276.6</ele>
        <time>2022-07-18T12:47:21Z</time>
      </trkpt>
      <trkpt lat="44.51516" lon="7.12978">
        <ele>1275.8</ele>
        <time>2022-07-18T12:47:22Z</time>
      </trkpt>
      <trkpt lat="44.51507" lon="7.12978">
        <ele>1275</ele>
        <time>2022-07-18T12:47:23Z</time>
      </trkpt>
      <trkpt lat="44.51498" lon="7.12977">
        <ele>1274</ele>
        <time>2022-07-18T12:47:24Z</time>
      </trkpt>
      <trkpt lat="44.5149" lon="7.12975">
        <ele>1273.2</ele>
        <time>2022-07-18T12:47:25Z</time>
      </trkpt>
      <trkpt lat="44.51482" lon="7.12972">
        <ele>1272.4</ele>
        <time>2022-07-18T12:47:26Z</time>
      </trkpt>
      <trkpt lat="44.51475" lon="7.12969">
        <ele>1271.4</ele>
        <time>2022-07-18T12:47:27Z</time>
      </trkpt>
      <trkpt lat="44.51467" lon="7.12966">
        <ele>1270.6</ele>
        <time>2022-07-18T12:47:28Z</time>
      </trkpt>
      <trkpt lat="44.51459" lon="7.12965">
        <ele>1269.8</ele>
        <time>2022-07-18T12:47:29Z</time>
      </trkpt>
      <trkpt lat="44.51451" lon="7.12965">
        <ele>1269.2</ele>
        <time>2022-07-18T12:47:30Z</time>
      </trkpt>
      <trkpt lat="44.51444" lon="7.12965">
        <ele>1268.4</ele>
        <time>2022-07-18T12:47:31Z</time>
      </trkpt>
      <trkpt lat="44.51437" lon="7.12963">
        <ele>1267.8</ele>
        <time>2022-07-18T12:47:32Z</time>
      </trkpt>
      <trkpt lat="44.51431" lon="7.12961">
        <ele>1267</ele>
        <time>2022-07-18T12:47:33Z</time>
      </trkpt>
      <trkpt lat="44.51426" lon="7.12956">
        <ele>1266.2</ele>
        <time>2022-07-18T12:47:34Z</time>
      </trkpt>
      <trkpt lat="44.5142" lon="7.1295">
        <ele>1265.4</ele>
        <time>2022-07-18T12:47:35Z</time>
      </trkpt>
      <trkpt lat="44.51414" lon="7.12945">
        <ele>1264.6</ele>
        <time>2022-07-18T12:47:36Z</time>
      </trkpt>
      <trkpt lat="44.51406" lon="7.12941">
        <ele>1263.8</ele>
        <time>2022-07-18T12:47:37Z</time>
      </trkpt>
      <trkpt lat="44.51397" lon="7.12939">
        <ele>1263</ele>
        <time>2022-07-18T12:47:38Z</time>
      </trkpt>
      <trkpt lat="44.51389" lon="7.12938">
        <ele>1262</ele>
        <time>2022-07-18T12:47:39Z</time>
      </trkpt>
      <trkpt lat="44.5138" lon="7.12938">
        <ele>1261.2</ele>
        <time>2022-07-18T12:47:40Z</time>
      </trkpt>
      <trkpt lat="44.51372" lon="7.12937">
        <ele>1260.6</ele>
        <time>2022-07-18T12:47:41Z</time>
      </trkpt>
      <trkpt lat="44.51365" lon="7.12936">
        <ele>1259.8</ele>
        <time>2022-07-18T12:47:42Z</time>
      </trkpt>
      <trkpt lat="44.51356" lon="7.12933">
        <ele>1258.8</ele>
        <time>2022-07-18T12:47:43Z</time>
      </trkpt>
      <trkpt lat="44.51347" lon="7.1293">
        <ele>1257.8</ele>
        <time>2022-07-18T12:47:44Z</time>
      </trkpt>
      <trkpt lat="44.51338" lon="7.12927">
        <ele>1256.8</ele>
        <time>2022-07-18T12:47:45Z</time>
      </trkpt>
      <trkpt lat="44.51328" lon="7.12924">
        <ele>1255.8</ele>
        <time>2022-07-18T12:47:46Z</time>
      </trkpt>
      <trkpt lat="44.51317" lon="7.12921">
        <ele>1253.8</ele>
        <time>2022-07-18T12:47:47Z</time>
      </trkpt>
      <trkpt lat="44.51306" lon="7.12918">
        <ele>1252.8</ele>
        <time>2022-07-18T12:47:48Z</time>
      </trkpt>
      <trkpt lat="44.51295" lon="7.12914">
        <ele>1251.6</ele>
        <time>2022-07-18T12:47:49Z</time>
      </trkpt>
      <trkpt lat="44.51285" lon="7.1291">
        <ele>1250.4</ele>
        <time>2022-07-18T12:47:50Z</time>
      </trkpt>
      <trkpt lat="44.51276" lon="7.12905">
        <ele>1249.4</ele>
        <time>2022-07-18T12:47:51Z</time>
      </trkpt>
      <trkpt lat="44.51267" lon="7.12899">
        <ele>1248.2</ele>
        <time>2022-07-18T12:47:52Z</time>
      </trkpt>
      <trkpt lat="44.51258" lon="7.12894">
        <ele>1247.2</ele>
        <time>2022-07-18T12:47:53Z</time>
      </trkpt>
      <trkpt lat="44.5125" lon="7.12891">
        <ele>1246.2</ele>
        <time>2022-07-18T12:47:54Z</time>
      </trkpt>
      <trkpt lat="44.5124" lon="7.1289">
        <ele>1245.2</ele>
        <time>2022-07-18T12:47:55Z</time>
      </trkpt>
      <trkpt lat="44.51231" lon="7.12889">
        <ele>1244</ele>
        <time>2022-07-18T12:47:56Z</time>
      </trkpt>
      <trkpt lat="44.5122" lon="7.12889">
        <ele>1243</ele>
        <time>2022-07-18T12:47:57Z</time>
      </trkpt>
      <trkpt lat="44.5121" lon="7.12888">
        <ele>1242</ele>
        <time>2022-07-18T12:47:58Z</time>
      </trkpt>
      <trkpt lat="44.512" lon="7.12885">
        <ele>1240.8</ele>
        <time>2022-07-18T12:47:59Z</time>
      </trkpt>
      <trkpt lat="44.51192" lon="7.12883">
        <ele>1239.6</ele>
        <time>2022-07-18T12:48:00Z</time>
      </trkpt>
      <trkpt lat="44.51183" lon="7.1288">
        <ele>1238.6</ele>
        <time>2022-07-18T12:48:01Z</time>
      </trkpt>
      <trkpt lat="44.51174" lon="7.12879">
        <ele>1237.6</ele>
        <time>2022-07-18T12:48:02Z</time>
      </trkpt>
      <trkpt lat="44.51164" lon="7.12878">
        <ele>1236.6</ele>
        <time>2022-07-18T12:48:03Z</time>
      </trkpt>
      <trkpt lat="44.51154" lon="7.1288">
        <ele>1235.6</ele>
        <time>2022-07-18T12:48:04Z</time>
      </trkpt>
      <trkpt lat="44.51143" lon="7.12879">
        <ele>1234.6</ele>
        <time>2022-07-18T12:48:05Z</time>
      </trkpt>
      <trkpt lat="44.51132" lon="7.12879">
        <ele>1233.6</ele>
        <time>2022-07-18T12:48:06Z</time>
      </trkpt>
      <trkpt lat="44.51122" lon="7.12876">
        <ele>1232.4</ele>
        <time>2022-07-18T12:48:07Z</time>
      </trkpt>
      <trkpt lat="44.51111" lon="7.12871">
        <ele>1231.4</ele>
        <time>2022-07-18T12:48:08Z</time>
      </trkpt>
      <trkpt lat="44.51101" lon="7.12866">
        <ele>1230.4</ele>
        <time>2022-07-18T12:48:09Z</time>
      </trkpt>
      <trkpt lat="44.5109" lon="7.12863">
        <ele>1229.2</ele>
        <time>2022-07-18T12:48:10Z</time>
      </trkpt>
      <trkpt lat="44.51078" lon="7.12861">
        <ele>1228</ele>
        <time>2022-07-18T12:48:11Z</time>
      </trkpt>
      <trkpt lat="44.51068" lon="7.12858">
        <ele>1226.8</ele>
        <time>2022-07-18T12:48:12Z</time>
      </trkpt>
      <trkpt lat="44.51059" lon="7.12855">
        <ele>1225.8</ele>
        <time>2022-07-18T12:48:13Z</time>
      </trkpt>
      <trkpt lat="44.51051" lon="7.12855">
        <ele>1224.6</ele>
        <time>2022-07-18T12:48:14Z</time>
      </trkpt>
      <trkpt lat="44.51045" lon="7.12857">
        <ele>1223.6</ele>
        <time>2022-07-18T12:48:15Z</time>
      </trkpt>
      <trkpt lat="44.5104" lon="7.12862">
        <ele>1222.8</ele>
        <time>2022-07-18T12:48:16Z</time>
      </trkpt>
      <trkpt lat="44.51035" lon="7.1287">
        <ele>1222</ele>
        <time>2022-07-18T12:48:17Z</time>
      </trkpt>
      <trkpt lat="44.51032" lon="7.12881">
        <ele>1221</ele>
        <time>2022-07-18T12:48:18Z</time>
      </trkpt>
      <trkpt lat="44.51029" lon="7.12891">
        <ele>1220.4</ele>
        <time>2022-07-18T12:48:19Z</time>
      </trkpt>
      <trkpt lat="44.51024" lon="7.129">
        <ele>1219.6</ele>
        <time>2022-07-18T12:48:20Z</time>
      </trkpt>
      <trkpt lat="44.51018" lon="7.12907">
        <ele>1219</ele>
        <time>2022-07-18T12:48:21Z</time>
      </trkpt>
      <trkpt lat="44.5101" lon="7.12912">
        <ele>1218.4</ele>
        <time>2022-07-18T12:48:22Z</time>
      </trkpt>
      <trkpt lat="44.51001" lon="7.12914">
        <ele>1217.6</ele>
        <time>2022-07-18T12:48:23Z</time>
      </trkpt>
      <trkpt lat="44.50992" lon="7.12916">
        <ele>1217</ele>
        <time>2022-07-18T12:48:24Z</time>
      </trkpt>
      <trkpt lat="44.50983" lon="7.12918">
        <ele>1216.2</ele>
        <time>2022-07-18T12:48:25Z</time>
      </trkpt>
      <trkpt lat="44.50974" lon="7.1292">
        <ele>1215.4</ele>
        <time>2022-07-18T12:48:26Z</time>
      </trkpt>
      <trkpt lat="44.50965" lon="7.12921">
        <ele>1214.6</ele>
        <time>2022-07-18T12:48:27Z</time>
      </trkpt>
      <trkpt lat="44.50956" lon="7.12918">
        <ele>1213.6</ele>
        <time>2022-07-18T12:48:28Z</time>
      </trkpt>
      <trkpt lat="44.50947" lon="7.12915">
        <ele>1212.6</ele>
        <time>2022-07-18T12:48:29Z</time>
      </trkpt>
      <trkpt lat="44.50938" lon="7.1291">
        <ele>1211.6</ele>
        <time>2022-07-18T12:48:30Z</time>
      </trkpt>
      <trkpt lat="44.5093" lon="7.12906">
        <ele>1210.6</ele>
        <time>2022-07-18T12:48:31Z</time>
      </trkpt>
      <trkpt lat="44.50923" lon="7.12902">
        <ele>1209.6</ele>
        <time>2022-07-18T12:48:32Z</time>
      </trkpt>
      <trkpt lat="44.50917" lon="7.12899">
        <ele>1208.6</ele>
        <time>2022-07-18T12:48:33Z</time>
      </trkpt>
      <trkpt lat="44.5091" lon="7.12898">
        <ele>1207.6</ele>
        <time>2022-07-18T12:48:34Z</time>
      </trkpt>
      <trkpt lat="44.50903" lon="7.12898">
        <ele>1206.8</ele>
        <time>2022-07-18T12:48:35Z</time>
      </trkpt>
      <trkpt lat="44.50896" lon="7.12901">
        <ele>1206</ele>
        <time>2022-07-18T12:48:36Z</time>
      </trkpt>
      <trkpt lat="44.50888" lon="7.12905">
        <ele>1205</ele>
        <time>2022-07-18T12:48:37Z</time>
      </trkpt>
      <trkpt lat="44.50879" lon="7.12908">
        <ele>1204.2</ele>
        <time>2022-07-18T12:48:38Z</time>
      </trkpt>
      <trkpt lat="44.50871" lon="7.1291">
        <ele>1203.4</ele>
        <time>2022-07-18T12:48:39Z</time>
      </trkpt>
      <trkpt lat="44.50863" lon="7.12913">
        <ele>1202.6</ele>
        <time>2022-07-18T12:48:40Z</time>
      </trkpt>
      <trkpt lat="44.50855" lon="7.12914">
        <ele>1201.8</ele>
        <time>2022-07-18T12:48:41Z</time>
      </trkpt>
      <trkpt lat="44.50848" lon="7.12915">
        <ele>1201</ele>
        <time>2022-07-18T12:48:42Z</time>
      </trkpt>
      <trkpt lat="44.50841" lon="7.12916">
        <ele>1200.6</ele>
        <time>2022-07-18T12:48:43Z</time>
      </trkpt>
      <trkpt lat="44.50836" lon="7.12916">
        <ele>1200</ele>
        <time>2022-07-18T12:48:44Z</time>
      </trkpt>
      <trkpt lat="44.50832" lon="7.12914">
        <ele>1199.6</ele>
        <time>2022-07-18T12:48:45Z</time>
      </trkpt>
      <trkpt lat="44.50829" lon="7.12911">
        <ele>1199.2</ele>
        <time>2022-07-18T12:48:46Z</time>
      </trkpt>
      <trkpt lat="44.50829" lon="7.12905">
        <ele>1198.6</ele>
        <time>2022-07-18T12:48:47Z</time>
      </trkpt>
      <trkpt lat="44.50831" lon="7.129">
        <ele>1198.2</ele>
        <time>2022-07-18T12:48:48Z</time>
      </trkpt>
      <trkpt lat="44.50833" lon="7.12896">
        <ele>1197.8</ele>
        <time>2022-07-18T12:48:49Z</time>
      </trkpt>
      <trkpt lat="44.50838" lon="7.12894">
        <ele>1197.2</ele>
        <time>2022-07-18T12:48:50Z</time>
      </trkpt>
      <trkpt lat="44.50845" lon="7.12892">
        <ele>1196.6</ele>
        <time>2022-07-18T12:48:51Z</time>
      </trkpt>
      <trkpt lat="44.50852" lon="7.12889">
        <ele>1196</ele>
        <time>2022-07-18T12:48:52Z</time>
      </trkpt>
      <trkpt lat="44.5086" lon="7.12887">
        <ele>1195.4</ele>
        <time>2022-07-18T12:48:53Z</time>
      </trkpt>
      <trkpt lat="44.50867" lon="7.12882">
        <ele>1194.8</ele>
        <time>2022-07-18T12:48:54Z</time>
      </trkpt>
      <trkpt lat="44.50875" lon="7.12877">
        <ele>1194</ele>
        <time>2022-07-18T12:48:55Z</time>
      </trkpt>
      <trkpt lat="44.50882" lon="7.12869">
        <ele>1193.2</ele>
        <time>2022-07-18T12:48:56Z</time>
      </trkpt>
      <trkpt lat="44.50888" lon="7.12863">
        <ele>1192.2</ele>
        <time>2022-07-18T12:48:57Z</time>
      </trkpt>
      <trkpt lat="44.50894" lon="7.12857">
        <ele>1191.4</ele>
        <time>2022-07-18T12:48:58Z</time>
      </trkpt>
      <trkpt lat="44.50902" lon="7.12855">
        <ele>1190.6</ele>
        <time>2022-07-18T12:48:59Z</time>
      </trkpt>
      <trkpt lat="44.50909" lon="7.12855">
        <ele>1189.8</ele>
        <time>2022-07-18T12:49:00Z</time>
      </trkpt>
      <trkpt lat="44.50917" lon="7.12854">
        <ele>1189</ele>
        <time>2022-07-18T12:49:01Z</time>
      </trkpt>
      <trkpt lat="44.50926" lon="7.12856">
        <ele>1188.2</ele>
        <time>2022-07-18T12:49:02Z</time>
      </trkpt>
      <trkpt lat="44.50934" lon="7.12856">
        <ele>1187.4</ele>
        <time>2022-07-18T12:49:03Z</time>
      </trkpt>
      <trkpt lat="44.50942" lon="7.12855">
        <ele>1186.6</ele>
        <time>2022-07-18T12:49:04Z</time>
      </trkpt>
      <trkpt lat="44.50951" lon="7.12851">
        <ele>1185.8</ele>
        <time>2022-07-18T12:49:05Z</time>
      </trkpt>
      <trkpt lat="44.5096" lon="7.12846">
        <ele>1184.8</ele>
        <time>2022-07-18T12:49:06Z</time>
      </trkpt>
      <trkpt lat="44.50968" lon="7.1284">
        <ele>1183.8</ele>
        <time>2022-07-18T12:49:07Z</time>
      </trkpt>
      <trkpt lat="44.50975" lon="7.12831">
        <ele>1183</ele>
        <time>2022-07-18T12:49:08Z</time>
      </trkpt>
      <trkpt lat="44.50982" lon="7.1282">
        <ele>1182</ele>
        <time>2022-07-18T12:49:09Z</time>
      </trkpt>
      <trkpt lat="44.50989" lon="7.12809">
        <ele>1181</ele>
        <time>2022-07-18T12:49:10Z</time>
      </trkpt>
      <trkpt lat="44.50995" lon="7.12797">
        <ele>1180</ele>
        <time>2022-07-18T12:49:11Z</time>
      </trkpt>
      <trkpt lat="44.51001" lon="7.12786">
        <ele>1179.2</ele>
        <time>2022-07-18T12:49:12Z</time>
      </trkpt>
      <trkpt lat="44.51006" lon="7.12777">
        <ele>1178.2</ele>
        <time>2022-07-18T12:49:13Z</time>
      </trkpt>
      <trkpt lat="44.51011" lon="7.12768">
        <ele>1177.4</ele>
        <time>2022-07-18T12:49:14Z</time>
      </trkpt>
      <trkpt lat="44.51017" lon="7.12762">
        <ele>1176.4</ele>
        <time>2022-07-18T12:49:15Z</time>
      </trkpt>
      <trkpt lat="44.51028" lon="7.12758">
        <ele>1175.4</ele>
        <time>2022-07-18T12:49:16Z</time>
      </trkpt>
      <trkpt lat="44.51037" lon="7.12754">
        <ele>1174.6</ele>
        <time>2022-07-18T12:49:17Z</time>
      </trkpt>
      <trkpt lat="44.51046" lon="7.12747">
        <ele>1173.6</ele>
        <time>2022-07-18T12:49:18Z</time>
      </trkpt>
      <trkpt lat="44.51055" lon="7.12739">
        <ele>1172.4</ele>
        <time>2022-07-18T12:49:19Z</time>
      </trkpt>
      <trkpt lat="44.51065" lon="7.12733">
        <ele>1171.4</ele>
        <time>2022-07-18T12:49:20Z</time>
      </trkpt>
      <trkpt lat="44.51074" lon="7.12727">
        <ele>1170.2</ele>
        <time>2022-07-18T12:49:21Z</time>
      </trkpt>
      <trkpt lat="44.51084" lon="7.12722">
        <ele>1169.2</ele>
        <time>2022-07-18T12:49:22Z</time>
      </trkpt>
      <trkpt lat="44.51094" lon="7.12719">
        <ele>1168</ele>
        <time>2022-07-18T12:49:23Z</time>
      </trkpt>
      <trkpt lat="44.51104" lon="7.12716">
        <ele>1167</ele>
        <time>2022-07-18T12:49:24Z</time>
      </trkpt>
      <trkpt lat="44.51113" lon="7.12713">
        <ele>1166.2</ele>
        <time>2022-07-18T12:49:25Z</time>
      </trkpt>
      <trkpt lat="44.51123" lon="7.12711">
        <ele>1165</ele>
        <time>2022-07-18T12:49:26Z</time>
      </trkpt>
      <trkpt lat="44.51132" lon="7.12711">
        <ele>1164</ele>
        <time>2022-07-18T12:49:27Z</time>
      </trkpt>
      <trkpt lat="44.51141" lon="7.12713">
        <ele>1162.8</ele>
        <time>2022-07-18T12:49:28Z</time>
      </trkpt>
      <trkpt lat="44.5115" lon="7.12715">
        <ele>1161.8</ele>
        <time>2022-07-18T12:49:29Z</time>
      </trkpt>
      <trkpt lat="44.5116" lon="7.12716">
        <ele>1160.8</ele>
        <time>2022-07-18T12:49:30Z</time>
      </trkpt>
      <trkpt lat="44.5117" lon="7.12715">
        <ele>1159.8</ele>
        <time>2022-07-18T12:49:31Z</time>
      </trkpt>
      <trkpt lat="44.5118" lon="7.12713">
        <ele>1158.6</ele>
        <time>2022-07-18T12:49:32Z</time>
      </trkpt>
      <trkpt lat="44.5119" lon="7.1271">
        <ele>1157.6</ele>
        <time>2022-07-18T12:49:33Z</time>
      </trkpt>
      <trkpt lat="44.512" lon="7.12705">
        <ele>1156.4</ele>
        <time>2022-07-18T12:49:34Z</time>
      </trkpt>
      <trkpt lat="44.51209" lon="7.12698">
        <ele>1155.4</ele>
        <time>2022-07-18T12:49:35Z</time>
      </trkpt>
      <trkpt lat="44.51219" lon="7.12692">
        <ele>1154.4</ele>
        <time>2022-07-18T12:49:36Z</time>
      </trkpt>
      <trkpt lat="44.5123" lon="7.12687">
        <ele>1153.4</ele>
        <time>2022-07-18T12:49:37Z</time>
      </trkpt>
      <trkpt lat="44.51242" lon="7.12684">
        <ele>1152.2</ele>
        <time>2022-07-18T12:49:38Z</time>
      </trkpt>
      <trkpt lat="44.51254" lon="7.12681">
        <ele>1151</ele>
        <time>2022-07-18T12:49:39Z</time>
      </trkpt>
      <trkpt lat="44.51266" lon="7.12678">
        <ele>1150</ele>
        <time>2022-07-18T12:49:40Z</time>
      </trkpt>
      <trkpt lat="44.51277" lon="7.12675">
        <ele>1148.8</ele>
        <time>2022-07-18T12:49:41Z</time>
      </trkpt>
      <trkpt lat="44.51288" lon="7.12671">
        <ele>1147.6</ele>
        <time>2022-07-18T12:49:42Z</time>
      </trkpt>
      <trkpt lat="44.51297" lon="7.12668">
        <ele>1146.6</ele>
        <time>2022-07-18T12:49:43Z</time>
      </trkpt>
      <trkpt lat="44.51305" lon="7.12666">
        <ele>1145.6</ele>
        <time>2022-07-18T12:49:44Z</time>
      </trkpt>
      <trkpt lat="44.51311" lon="7.12663">
        <ele>1144.6</ele>
        <time>2022-07-18T12:49:45Z</time>
      </trkpt>
      <trkpt lat="44.51317" lon="7.12658">
        <ele>1144</ele>
        <time>2022-07-18T12:49:46Z</time>
      </trkpt>
      <trkpt lat="44.51322" lon="7.1265">
        <ele>1143</ele>
        <time>2022-07-18T12:49:47Z</time>
      </trkpt>
      <trkpt lat="44.51327" lon="7.12642">
        <ele>1142.2</ele>
        <time>2022-07-18T12:49:48Z</time>
      </trkpt>
      <trkpt lat="44.51332" lon="7.12635">
        <ele>1141.2</ele>
        <time>2022-07-18T12:49:49Z</time>
      </trkpt>
      <trkpt lat="44.51339" lon="7.12629">
        <ele>1140.4</ele>
        <time>2022-07-18T12:49:50Z</time>
      </trkpt>
      <trkpt lat="44.51345" lon="7.12623">
        <ele>1139.2</ele>
        <time>2022-07-18T12:49:51Z</time>
      </trkpt>
      <trkpt lat="44.51352" lon="7.12619">
        <ele>1138.2</ele>
        <time>2022-07-18T12:49:52Z</time>
      </trkpt>
      <trkpt lat="44.51359" lon="7.12616">
        <ele>1137.2</ele>
        <time>2022-07-18T12:49:53Z</time>
      </trkpt>
      <trkpt lat="44.51365" lon="7.12613">
        <ele>1136.4</ele>
        <time>2022-07-18T12:49:54Z</time>
      </trkpt>
      <trkpt lat="44.51369" lon="7.12612">
        <ele>1135.8</ele>
        <time>2022-07-18T12:49:55Z</time>
      </trkpt>
      <trkpt lat="44.51371" lon="7.12608">
        <ele>1135.2</ele>
        <time>2022-07-18T12:49:56Z</time>
      </trkpt>
      <trkpt lat="44.51372" lon="7.12604">
        <ele>1134.6</ele>
        <time>2022-07-18T12:49:57Z</time>
      </trkpt>
      <trkpt lat="44.51371" lon="7.12599">
        <ele>1134</ele>
        <time>2022-07-18T12:49:58Z</time>
      </trkpt>
      <trkpt lat="44.51367" lon="7.12596">
        <ele>1133.6</ele>
        <time>2022-07-18T12:49:59Z</time>
      </trkpt>
      <trkpt lat="44.51363" lon="7.12594">
        <ele>1133.2</ele>
        <time>2022-07-18T12:50:00Z</time>
      </trkpt>
      <trkpt lat="44.51359" lon="7.12595">
        <ele>1132.8</ele>
        <time>2022-07-18T12:50:01Z</time>
      </trkpt>
      <trkpt lat="44.51353" lon="7.12601">
        <ele>1132.4</ele>
        <time>2022-07-18T12:50:02Z</time>
      </trkpt>
      <trkpt lat="44.51348" lon="7.12608">
        <ele>1131.8</ele>
        <time>2022-07-18T12:50:03Z</time>
      </trkpt>
      <trkpt lat="44.51341" lon="7.12614">
        <ele>1131.4</ele>
        <time>2022-07-18T12:50:04Z</time>
      </trkpt>
      <trkpt lat="44.51333" lon="7.12619">
        <ele>1130.8</ele>
        <time>2022-07-18T12:50:05Z</time>
      </trkpt>
      <trkpt lat="44.51325" lon="7.12623">
        <ele>1130.2</ele>
        <time>2022-07-18T12:50:06Z</time>
      </trkpt>
      <trkpt lat="44.51318" lon="7.12629">
        <ele>1129.4</ele>
        <time>2022-07-18T12:50:07Z</time>
      </trkpt>
      <trkpt lat="44.5131" lon="7.12634">
        <ele>1128.8</ele>
        <time>2022-07-18T12:50:08Z</time>
      </trkpt>
      <trkpt lat="44.51303" lon="7.12639">
        <ele>1128</ele>
        <time>2022-07-18T12:50:09Z</time>
      </trkpt>
      <trkpt lat="44.51296" lon="7.12642">
        <ele>1127.4</ele>
        <time>2022-07-18T12:50:10Z</time>
      </trkpt>
      <trkpt lat="44.51289" lon="7.12643">
        <ele>1126.8</ele>
        <time>2022-07-18T12:50:11Z</time>
      </trkpt>
      <trkpt lat="44.51281" lon="7.12641">
        <ele>1126</ele>
        <time>2022-07-18T12:50:12Z</time>
      </trkpt>
      <trkpt lat="44.51273" lon="7.12639">
        <ele>1125.2</ele>
        <time>2022-07-18T12:50:13Z</time>
      </trkpt>
      <trkpt lat="44.51265" lon="7.12637">
        <ele>1124.2</ele>
        <time>2022-07-18T12:50:14Z</time>
      </trkpt>
      <trkpt lat="44.51256" lon="7.12635">
        <ele>1123.4</ele>
        <time>2022-07-18T12:50:15Z</time>
      </trkpt>
      <trkpt lat="44.51248" lon="7.12634">
        <ele>1122.6</ele>
        <time>2022-07-18T12:50:16Z</time>
      </trkpt>
      <trkpt lat="44.51239" lon="7.12632">
        <ele>1120.8</ele>
        <time>2022-07-18T12:50:18Z</time>
      </trkpt>
      <trkpt lat="44.51231" lon="7.12632">
        <ele>1119.8</ele>
        <time>2022-07-18T12:50:19Z</time>
      </trkpt>
      <trkpt lat="44.51221" lon="7.12632">
        <ele>1118.8</ele>
        <time>2022-07-18T12:50:20Z</time>
      </trkpt>
      <trkpt lat="44.51212" lon="7.12632">
        <ele>1117.8</ele>
        <time>2022-07-18T12:50:21Z</time>
      </trkpt>
      <trkpt lat="44.51202" lon="7.12633">
        <ele>1116.8</ele>
        <time>2022-07-18T12:50:22Z</time>
      </trkpt>
      <trkpt lat="44.51193" lon="7.12632">
        <ele>1115.8</ele>
        <time>2022-07-18T12:50:23Z</time>
      </trkpt>
      <trkpt lat="44.51184" lon="7.12631">
        <ele>1115</ele>
        <time>2022-07-18T12:50:24Z</time>
      </trkpt>
      <trkpt lat="44.51174" lon="7.12629">
        <ele>1114</ele>
        <time>2022-07-18T12:50:25Z</time>
      </trkpt>
      <trkpt lat="44.51157" lon="7.12623">
        <ele>1113</ele>
        <time>2022-07-18T12:50:26Z</time>
      </trkpt>
      <trkpt lat="44.51149" lon="7.1262">
        <ele>1112</ele>
        <time>2022-07-18T12:50:27Z</time>
      </trkpt>
      <trkpt lat="44.51141" lon="7.12617">
        <ele>1111</ele>
        <time>2022-07-18T12:50:28Z</time>
      </trkpt>
      <trkpt lat="44.51133" lon="7.12614">
        <ele>1110</ele>
        <time>2022-07-18T12:50:29Z</time>
      </trkpt>
      <trkpt lat="44.51126" lon="7.1261">
        <ele>1109</ele>
        <time>2022-07-18T12:50:30Z</time>
      </trkpt>
      <trkpt lat="44.51119" lon="7.12606">
        <ele>1108.2</ele>
        <time>2022-07-18T12:50:31Z</time>
      </trkpt>
      <trkpt lat="44.51113" lon="7.12601">
        <ele>1107.2</ele>
        <time>2022-07-18T12:50:32Z</time>
      </trkpt>
      <trkpt lat="44.51106" lon="7.12596">
        <ele>1106.4</ele>
        <time>2022-07-18T12:50:33Z</time>
      </trkpt>
      <trkpt lat="44.51099" lon="7.12593">
        <ele>1105.6</ele>
        <time>2022-07-18T12:50:34Z</time>
      </trkpt>
      <trkpt lat="44.51091" lon="7.1259">
        <ele>1104.8</ele>
        <time>2022-07-18T12:50:35Z</time>
      </trkpt>
      <trkpt lat="44.51083" lon="7.1259">
        <ele>1104.2</ele>
        <time>2022-07-18T12:50:36Z</time>
      </trkpt>
      <trkpt lat="44.51076" lon="7.12588">
        <ele>1103.4</ele>
        <time>2022-07-18T12:50:37Z</time>
      </trkpt>
      <trkpt lat="44.51069" lon="7.12586">
        <ele>1102.6</ele>
        <time>2022-07-18T12:50:38Z</time>
      </trkpt>
      <trkpt lat="44.51062" lon="7.12582">
        <ele>1101.8</ele>
        <time>2022-07-18T12:50:39Z</time>
      </trkpt>
      <trkpt lat="44.51055" lon="7.12577">
        <ele>1101.2</ele>
        <time>2022-07-18T12:50:40Z</time>
      </trkpt>
      <trkpt lat="44.51049" lon="7.12572">
        <ele>1100.2</ele>
        <time>2022-07-18T12:50:41Z</time>
      </trkpt>
      <trkpt lat="44.51043" lon="7.12567">
        <ele>1099.4</ele>
        <time>2022-07-18T12:50:42Z</time>
      </trkpt>
      <trkpt lat="44.51037" lon="7.12561">
        <ele>1098.6</ele>
        <time>2022-07-18T12:50:43Z</time>
      </trkpt>
      <trkpt lat="44.51032" lon="7.12554">
        <ele>1097.8</ele>
        <time>2022-07-18T12:50:44Z</time>
      </trkpt>
      <trkpt lat="44.51025" lon="7.12547">
        <ele>1097</ele>
        <time>2022-07-18T12:50:45Z</time>
      </trkpt>
      <trkpt lat="44.51019" lon="7.1254">
        <ele>1096.4</ele>
        <time>2022-07-18T12:50:46Z</time>
      </trkpt>
      <trkpt lat="44.51012" lon="7.12533">
        <ele>1095.6</ele>
        <time>2022-07-18T12:50:47Z</time>
      </trkpt>
      <trkpt lat="44.51004" lon="7.12529">
        <ele>1094.8</ele>
        <time>2022-07-18T12:50:48Z</time>
      </trkpt>
      <trkpt lat="44.50996" lon="7.12526">
        <ele>1094.2</ele>
        <time>2022-07-18T12:50:49Z</time>
      </trkpt>
      <trkpt lat="44.50989" lon="7.12524">
        <ele>1093.4</ele>
        <time>2022-07-18T12:50:50Z</time>
      </trkpt>
      <trkpt lat="44.50981" lon="7.12523">
        <ele>1092.6</ele>
        <time>2022-07-18T12:50:51Z</time>
      </trkpt>
      <trkpt lat="44.50974" lon="7.12522">
        <ele>1092</ele>
        <time>2022-07-18T12:50:52Z</time>
      </trkpt>
      <trkpt lat="44.50965" lon="7.12522">
        <ele>1091</ele>
        <time>2022-07-18T12:50:53Z</time>
      </trkpt>
      <trkpt lat="44.50956" lon="7.12524">
        <ele>1090.2</ele>
        <time>2022-07-18T12:50:54Z</time>
      </trkpt>
      <trkpt lat="44.50948" lon="7.12526">
        <ele>1089.4</ele>
        <time>2022-07-18T12:50:55Z</time>
      </trkpt>
      <trkpt lat="44.50939" lon="7.12529">
        <ele>1088.6</ele>
        <time>2022-07-18T12:50:56Z</time>
      </trkpt>
      <trkpt lat="44.5093" lon="7.12532">
        <ele>1087.8</ele>
        <time>2022-07-18T12:50:57Z</time>
      </trkpt>
      <trkpt lat="44.50922" lon="7.12534">
        <ele>1087</ele>
        <time>2022-07-18T12:50:58Z</time>
      </trkpt>
      <trkpt lat="44.50913" lon="7.12534">
        <ele>1086</ele>
        <time>2022-07-18T12:50:59Z</time>
      </trkpt>
      <trkpt lat="44.50904" lon="7.12533">
        <ele>1085.2</ele>
        <time>2022-07-18T12:51:00Z</time>
      </trkpt>
      <trkpt lat="44.50896" lon="7.12531">
        <ele>1084.4</ele>
        <time>2022-07-18T12:51:01Z</time>
      </trkpt>
      <trkpt lat="44.50889" lon="7.1253">
        <ele>1083.8</ele>
        <time>2022-07-18T12:51:02Z</time>
      </trkpt>
      <trkpt lat="44.50882" lon="7.12531">
        <ele>1083</ele>
        <time>2022-07-18T12:51:03Z</time>
      </trkpt>
      <trkpt lat="44.50876" lon="7.12533">
        <ele>1082.4</ele>
        <time>2022-07-18T12:51:04Z</time>
      </trkpt>
      <trkpt lat="44.5087" lon="7.12537">
        <ele>1081.8</ele>
        <time>2022-07-18T12:51:05Z</time>
      </trkpt>
      <trkpt lat="44.50864" lon="7.12543">
        <ele>1081.8</ele>
        <time>2022-07-18T12:51:06Z</time>
      </trkpt>
      <trkpt lat="44.50858" lon="7.12551">
        <ele>1081</ele>
        <time>2022-07-18T12:51:07Z</time>
      </trkpt>
      <trkpt lat="44.50853" lon="7.1256">
        <ele>1080.4</ele>
        <time>2022-07-18T12:51:08Z</time>
      </trkpt>
      <trkpt lat="44.50848" lon="7.12569">
        <ele>1079.8</ele>
        <time>2022-07-18T12:51:09Z</time>
      </trkpt>
      <trkpt lat="44.50843" lon="7.12576">
        <ele>1079</ele>
        <time>2022-07-18T12:51:10Z</time>
      </trkpt>
      <trkpt lat="44.50837" lon="7.12582">
        <ele>1078.4</ele>
        <time>2022-07-18T12:51:11Z</time>
      </trkpt>
      <trkpt lat="44.5083" lon="7.12587">
        <ele>1077.8</ele>
        <time>2022-07-18T12:51:12Z</time>
      </trkpt>
      <trkpt lat="44.50823" lon="7.12592">
        <ele>1077.2</ele>
        <time>2022-07-18T12:51:13Z</time>
      </trkpt>
      <trkpt lat="44.50816" lon="7.12598">
        <ele>1076.4</ele>
        <time>2022-07-18T12:51:14Z</time>
      </trkpt>
      <trkpt lat="44.5081" lon="7.12603">
        <ele>1075.6</ele>
        <time>2022-07-18T12:51:15Z</time>
      </trkpt>
      <trkpt lat="44.50804" lon="7.12609">
        <ele>1075</ele>
        <time>2022-07-18T12:51:16Z</time>
      </trkpt>
      <trkpt lat="44.50798" lon="7.12613">
        <ele>1074.2</ele>
        <time>2022-07-18T12:51:17Z</time>
      </trkpt>
      <trkpt lat="44.50791" lon="7.12616">
        <ele>1073.6</ele>
        <time>2022-07-18T12:51:18Z</time>
      </trkpt>
      <trkpt lat="44.50782" lon="7.12619">
        <ele>1072.8</ele>
        <time>2022-07-18T12:51:19Z</time>
      </trkpt>
      <trkpt lat="44.50774" lon="7.1262">
        <ele>1072.2</ele>
        <time>2022-07-18T12:51:20Z</time>
      </trkpt>
      <trkpt lat="44.50765" lon="7.12622">
        <ele>1071.6</ele>
        <time>2022-07-18T12:51:21Z</time>
      </trkpt>
      <trkpt lat="44.50757" lon="7.12622">
        <ele>1070.8</ele>
        <time>2022-07-18T12:51:22Z</time>
      </trkpt>
      <trkpt lat="44.50749" lon="7.12622">
        <ele>1070.2</ele>
        <time>2022-07-18T12:51:23Z</time>
      </trkpt>
      <trkpt lat="44.50741" lon="7.1262">
        <ele>1069.4</ele>
        <time>2022-07-18T12:51:24Z</time>
      </trkpt>
      <trkpt lat="44.50734" lon="7.12618">
        <ele>1068.6</ele>
        <time>2022-07-18T12:51:25Z</time>
      </trkpt>
      <trkpt lat="44.50726" lon="7.12615">
        <ele>1068</ele>
        <time>2022-07-18T12:51:26Z</time>
      </trkpt>
      <trkpt lat="44.50718" lon="7.12615">
        <ele>1067.4</ele>
        <time>2022-07-18T12:51:27Z</time>
      </trkpt>
      <trkpt lat="44.50709" lon="7.12617">
        <ele>1066.6</ele>
        <time>2022-07-18T12:51:28Z</time>
      </trkpt>
      <trkpt lat="44.507" lon="7.12619">
        <ele>1065.8</ele>
        <time>2022-07-18T12:51:29Z</time>
      </trkpt>
      <trkpt lat="44.50691" lon="7.12621">
        <ele>1065.2</ele>
        <time>2022-07-18T12:51:30Z</time>
      </trkpt>
      <trkpt lat="44.50682" lon="7.12621">
        <ele>1064.4</ele>
        <time>2022-07-18T12:51:31Z</time>
      </trkpt>
      <trkpt lat="44.50673" lon="7.12621">
        <ele>1063.6</ele>
        <time>2022-07-18T12:51:32Z</time>
      </trkpt>
      <trkpt lat="44.50664" lon="7.1262">
        <ele>1062.8</ele>
        <time>2022-07-18T12:51:33Z</time>
      </trkpt>
      <trkpt lat="44.50654" lon="7.12618">
        <ele>1062</ele>
        <time>2022-07-18T12:51:34Z</time>
      </trkpt>
      <trkpt lat="44.50644" lon="7.12617">
        <ele>1061.2</ele>
        <time>2022-07-18T12:51:35Z</time>
      </trkpt>
      <trkpt lat="44.50634" lon="7.12617">
        <ele>1060.4</ele>
        <time>2022-07-18T12:51:36Z</time>
      </trkpt>
      <trkpt lat="44.50626" lon="7.12618">
        <ele>1059.6</ele>
        <time>2022-07-18T12:51:37Z</time>
      </trkpt>
      <trkpt lat="44.50619" lon="7.1262">
        <ele>1059.2</ele>
        <time>2022-07-18T12:51:38Z</time>
      </trkpt>
      <trkpt lat="44.50613" lon="7.12619">
        <ele>1058.8</ele>
        <time>2022-07-18T12:51:39Z</time>
      </trkpt>
      <trkpt lat="44.50608" lon="7.12616">
        <ele>1058.6</ele>
        <time>2022-07-18T12:51:40Z</time>
      </trkpt>
      <trkpt lat="44.50603" lon="7.12611">
        <ele>1058.2</ele>
        <time>2022-07-18T12:51:41Z</time>
      </trkpt>
      <trkpt lat="44.506" lon="7.12605">
        <ele>1057.8</ele>
        <time>2022-07-18T12:51:42Z</time>
      </trkpt>
      <trkpt lat="44.50599" lon="7.12598">
        <ele>1057.4</ele>
        <time>2022-07-18T12:51:43Z</time>
      </trkpt>
      <trkpt lat="44.50603" lon="7.1259">
        <ele>1056.8</ele>
        <time>2022-07-18T12:51:44Z</time>
      </trkpt>
      <trkpt lat="44.5061" lon="7.12584">
        <ele>1056</ele>
        <time>2022-07-18T12:51:45Z</time>
      </trkpt>
      <trkpt lat="44.50618" lon="7.12579">
        <ele>1055.2</ele>
        <time>2022-07-18T12:51:46Z</time>
      </trkpt>
      <trkpt lat="44.50627" lon="7.12576">
        <ele>1054.4</ele>
        <time>2022-07-18T12:51:47Z</time>
      </trkpt>
      <trkpt lat="44.50637" lon="7.12575">
        <ele>1053.6</ele>
        <time>2022-07-18T12:51:48Z</time>
      </trkpt>
      <trkpt lat="44.50647" lon="7.12573">
        <ele>1052.6</ele>
        <time>2022-07-18T12:51:49Z</time>
      </trkpt>
      <trkpt lat="44.50658" lon="7.12569">
        <ele>1051.6</ele>
        <time>2022-07-18T12:51:50Z</time>
      </trkpt>
      <trkpt lat="44.50669" lon="7.12564">
        <ele>1050.4</ele>
        <time>2022-07-18T12:51:51Z</time>
      </trkpt>
      <trkpt lat="44.5068" lon="7.12558">
        <ele>1049.2</ele>
        <time>2022-07-18T12:51:52Z</time>
      </trkpt>
      <trkpt lat="44.50691" lon="7.12551">
        <ele>1048.2</ele>
        <time>2022-07-18T12:51:53Z</time>
      </trkpt>
      <trkpt lat="44.50701" lon="7.12544">
        <ele>1047.2</ele>
        <time>2022-07-18T12:51:54Z</time>
      </trkpt>
      <trkpt lat="44.50712" lon="7.12536">
        <ele>1046</ele>
        <time>2022-07-18T12:51:55Z</time>
      </trkpt>
      <trkpt lat="44.50721" lon="7.12528">
        <ele>1044.8</ele>
        <time>2022-07-18T12:51:56Z</time>
      </trkpt>
      <trkpt lat="44.5073" lon="7.12518">
        <ele>1043.6</ele>
        <time>2022-07-18T12:51:57Z</time>
      </trkpt>
      <trkpt lat="44.50739" lon="7.12508">
        <ele>1042.4</ele>
        <time>2022-07-18T12:51:58Z</time>
      </trkpt>
      <trkpt lat="44.50747" lon="7.12498">
        <ele>1041</ele>
        <time>2022-07-18T12:51:59Z</time>
      </trkpt>
      <trkpt lat="44.50755" lon="7.12487">
        <ele>1039.8</ele>
        <time>2022-07-18T12:52:00Z</time>
      </trkpt>
      <trkpt lat="44.50761" lon="7.12476">
        <ele>1038.6</ele>
        <time>2022-07-18T12:52:01Z</time>
      </trkpt>
      <trkpt lat="44.50768" lon="7.12466">
        <ele>1037.4</ele>
        <time>2022-07-18T12:52:02Z</time>
      </trkpt>
      <trkpt lat="44.50775" lon="7.12456">
        <ele>1036.4</ele>
        <time>2022-07-18T12:52:03Z</time>
      </trkpt>
      <trkpt lat="44.50783" lon="7.12448">
        <ele>1035.4</ele>
        <time>2022-07-18T12:52:04Z</time>
      </trkpt>
      <trkpt lat="44.50791" lon="7.12442">
        <ele>1034.4</ele>
        <time>2022-07-18T12:52:05Z</time>
      </trkpt>
      <trkpt lat="44.50799" lon="7.12439">
        <ele>1033.4</ele>
        <time>2022-07-18T12:52:06Z</time>
      </trkpt>
      <trkpt lat="44.50806" lon="7.12435">
        <ele>1032.4</ele>
        <time>2022-07-18T12:52:07Z</time>
      </trkpt>
      <trkpt lat="44.5081" lon="7.12434">
        <ele>1031.6</ele>
        <time>2022-07-18T12:52:08Z</time>
      </trkpt>
      <trkpt lat="44.50812" lon="7.12427">
        <ele>1031</ele>
        <time>2022-07-18T12:52:09Z</time>
      </trkpt>
      <trkpt lat="44.50814" lon="7.12421">
        <ele>1030.6</ele>
        <time>2022-07-18T12:52:10Z</time>
      </trkpt>
      <trkpt lat="44.50813" lon="7.12417">
        <ele>1030</ele>
        <time>2022-07-18T12:52:11Z</time>
      </trkpt>
      <trkpt lat="44.50808" lon="7.12413">
        <ele>1029.4</ele>
        <time>2022-07-18T12:52:12Z</time>
      </trkpt>
      <trkpt lat="44.508" lon="7.12412">
        <ele>1029</ele>
        <time>2022-07-18T12:52:13Z</time>
      </trkpt>
      <trkpt lat="44.50793" lon="7.12414">
        <ele>1028.4</ele>
        <time>2022-07-18T12:52:14Z</time>
      </trkpt>
      <trkpt lat="44.50786" lon="7.12417">
        <ele>1028</ele>
        <time>2022-07-18T12:52:15Z</time>
      </trkpt>
      <trkpt lat="44.50779" lon="7.12421">
        <ele>1027.6</ele>
        <time>2022-07-18T12:52:16Z</time>
      </trkpt>
      <trkpt lat="44.50771" lon="7.12426">
        <ele>1027</ele>
        <time>2022-07-18T12:52:17Z</time>
      </trkpt>
      <trkpt lat="44.50763" lon="7.12432">
        <ele>1026.4</ele>
        <time>2022-07-18T12:52:18Z</time>
      </trkpt>
      <trkpt lat="44.50755" lon="7.12437">
        <ele>1025.8</ele>
        <time>2022-07-18T12:52:19Z</time>
      </trkpt>
      <trkpt lat="44.50746" lon="7.12443">
        <ele>1025.2</ele>
        <time>2022-07-18T12:52:20Z</time>
      </trkpt>
      <trkpt lat="44.50737" lon="7.12448">
        <ele>1024.6</ele>
        <time>2022-07-18T12:52:21Z</time>
      </trkpt>
      <trkpt lat="44.50728" lon="7.12454">
        <ele>1023.8</ele>
        <time>2022-07-18T12:52:22Z</time>
      </trkpt>
      <trkpt lat="44.50719" lon="7.12459">
        <ele>1023</ele>
        <time>2022-07-18T12:52:23Z</time>
      </trkpt>
      <trkpt lat="44.5071" lon="7.12465">
        <ele>1022.2</ele>
        <time>2022-07-18T12:52:24Z</time>
      </trkpt>
      <trkpt lat="44.507" lon="7.1247">
        <ele>1021.4</ele>
        <time>2022-07-18T12:52:25Z</time>
      </trkpt>
      <trkpt lat="44.50691" lon="7.12473">
        <ele>1020.6</ele>
        <time>2022-07-18T12:52:26Z</time>
      </trkpt>
      <trkpt lat="44.5068" lon="7.12474">
        <ele>1019.6</ele>
        <time>2022-07-18T12:52:27Z</time>
      </trkpt>
      <trkpt lat="44.5067" lon="7.12474">
        <ele>1018.6</ele>
        <time>2022-07-18T12:52:28Z</time>
      </trkpt>
      <trkpt lat="44.5066" lon="7.12473">
        <ele>1017.8</ele>
        <time>2022-07-18T12:52:29Z</time>
      </trkpt>
      <trkpt lat="44.50649" lon="7.12471">
        <ele>1016.8</ele>
        <time>2022-07-18T12:52:30Z</time>
      </trkpt>
      <trkpt lat="44.5064" lon="7.12469">
        <ele>1015.8</ele>
        <time>2022-07-18T12:52:31Z</time>
      </trkpt>
      <trkpt lat="44.50631" lon="7.12467">
        <ele>1014.8</ele>
        <time>2022-07-18T12:52:32Z</time>
      </trkpt>
      <trkpt lat="44.50621" lon="7.12467">
        <ele>1013.8</ele>
        <time>2022-07-18T12:52:33Z</time>
      </trkpt>
      <trkpt lat="44.50612" lon="7.1247">
        <ele>1013</ele>
        <time>2022-07-18T12:52:34Z</time>
      </trkpt>
      <trkpt lat="44.50603" lon="7.12475">
        <ele>1012.2</ele>
        <time>2022-07-18T12:52:35Z</time>
      </trkpt>
      <trkpt lat="44.50594" lon="7.12482">
        <ele>1011.4</ele>
        <time>2022-07-18T12:52:36Z</time>
      </trkpt>
      <trkpt lat="44.50586" lon="7.12488">
        <ele>1010.4</ele>
        <time>2022-07-18T12:52:37Z</time>
      </trkpt>
      <trkpt lat="44.50577" lon="7.12493">
        <ele>1009.6</ele>
        <time>2022-07-18T12:52:38Z</time>
      </trkpt>
      <trkpt lat="44.50567" lon="7.12494">
        <ele>1008.8</ele>
        <time>2022-07-18T12:52:39Z</time>
      </trkpt>
      <trkpt lat="44.50557" lon="7.12495">
        <ele>1007.8</ele>
        <time>2022-07-18T12:52:40Z</time>
      </trkpt>
      <trkpt lat="44.50547" lon="7.12494">
        <ele>1007</ele>
        <time>2022-07-18T12:52:41Z</time>
      </trkpt>
      <trkpt lat="44.50536" lon="7.12492">
        <ele>1006.2</ele>
        <time>2022-07-18T12:52:42Z</time>
      </trkpt>
      <trkpt lat="44.50524" lon="7.12488">
        <ele>1005.2</ele>
        <time>2022-07-18T12:52:43Z</time>
      </trkpt>
      <trkpt lat="44.50513" lon="7.12486">
        <ele>1004.2</ele>
        <time>2022-07-18T12:52:44Z</time>
      </trkpt>
      <trkpt lat="44.50501" lon="7.12486">
        <ele>1003.2</ele>
        <time>2022-07-18T12:52:45Z</time>
      </trkpt>
      <trkpt lat="44.5049" lon="7.12487">
        <ele>1002.2</ele>
        <time>2022-07-18T12:52:46Z</time>
      </trkpt>
      <trkpt lat="44.50479" lon="7.12489">
        <ele>1001.2</ele>
        <time>2022-07-18T12:52:47Z</time>
      </trkpt>
      <trkpt lat="44.50468" lon="7.12492">
        <ele>1000.4</ele>
        <time>2022-07-18T12:52:48Z</time>
      </trkpt>
      <trkpt lat="44.50457" lon="7.12496">
        <ele>999.4</ele>
        <time>2022-07-18T12:52:49Z</time>
      </trkpt>
      <trkpt lat="44.50447" lon="7.12502">
        <ele>998.4</ele>
        <time>2022-07-18T12:52:50Z</time>
      </trkpt>
      <trkpt lat="44.50438" lon="7.12508">
        <ele>997.4</ele>
        <time>2022-07-18T12:52:51Z</time>
      </trkpt>
      <trkpt lat="44.50429" lon="7.12515">
        <ele>996.4</ele>
        <time>2022-07-18T12:52:52Z</time>
      </trkpt>
      <trkpt lat="44.50422" lon="7.12522">
        <ele>995.6</ele>
        <time>2022-07-18T12:52:53Z</time>
      </trkpt>
      <trkpt lat="44.50416" lon="7.12529">
        <ele>994.6</ele>
        <time>2022-07-18T12:52:54Z</time>
      </trkpt>
      <trkpt lat="44.5041" lon="7.12537">
        <ele>993.6</ele>
        <time>2022-07-18T12:52:55Z</time>
      </trkpt>
      <trkpt lat="44.50406" lon="7.12547">
        <ele>992.6</ele>
        <time>2022-07-18T12:52:56Z</time>
      </trkpt>
      <trkpt lat="44.50406" lon="7.12557">
        <ele>991.8</ele>
        <time>2022-07-18T12:52:57Z</time>
      </trkpt>
      <trkpt lat="44.50408" lon="7.12568">
        <ele>991.2</ele>
        <time>2022-07-18T12:52:58Z</time>
      </trkpt>
      <trkpt lat="44.50412" lon="7.12578">
        <ele>990.4</ele>
        <time>2022-07-18T12:52:59Z</time>
      </trkpt>
      <trkpt lat="44.50417" lon="7.12588">
        <ele>989.6</ele>
        <time>2022-07-18T12:53:00Z</time>
      </trkpt>
      <trkpt lat="44.50422" lon="7.12598">
        <ele>988.6</ele>
        <time>2022-07-18T12:53:01Z</time>
      </trkpt>
      <trkpt lat="44.50427" lon="7.12609">
        <ele>988</ele>
        <time>2022-07-18T12:53:02Z</time>
      </trkpt>
      <trkpt lat="44.50433" lon="7.12621">
        <ele>987.2</ele>
        <time>2022-07-18T12:53:03Z</time>
      </trkpt>
      <trkpt lat="44.50438" lon="7.12634">
        <ele>986</ele>
        <time>2022-07-18T12:53:04Z</time>
      </trkpt>
      <trkpt lat="44.50443" lon="7.12648">
        <ele>985</ele>
        <time>2022-07-18T12:53:05Z</time>
      </trkpt>
      <trkpt lat="44.50449" lon="7.12662">
        <ele>984</ele>
        <time>2022-07-18T12:53:06Z</time>
      </trkpt>
      <trkpt lat="44.50455" lon="7.12676">
        <ele>983</ele>
        <time>2022-07-18T12:53:07Z</time>
      </trkpt>
      <trkpt lat="44.50461" lon="7.12689">
        <ele>982</ele>
        <time>2022-07-18T12:53:08Z</time>
      </trkpt>
      <trkpt lat="44.50465" lon="7.12703">
        <ele>981.2</ele>
        <time>2022-07-18T12:53:09Z</time>
      </trkpt>
      <trkpt lat="44.50468" lon="7.12715">
        <ele>980.2</ele>
        <time>2022-07-18T12:53:10Z</time>
      </trkpt>
      <trkpt lat="44.50469" lon="7.12726">
        <ele>979.4</ele>
        <time>2022-07-18T12:53:11Z</time>
      </trkpt>
      <trkpt lat="44.50467" lon="7.12736">
        <ele>978.6</ele>
        <time>2022-07-18T12:53:12Z</time>
      </trkpt>
      <trkpt lat="44.50462" lon="7.12746">
        <ele>977.8</ele>
        <time>2022-07-18T12:53:13Z</time>
      </trkpt>
      <trkpt lat="44.50455" lon="7.12755">
        <ele>977</ele>
        <time>2022-07-18T12:53:14Z</time>
      </trkpt>
      <trkpt lat="44.50447" lon="7.12764">
        <ele>976</ele>
        <time>2022-07-18T12:53:15Z</time>
      </trkpt>
      <trkpt lat="44.50441" lon="7.12772">
        <ele>975.2</ele>
        <time>2022-07-18T12:53:16Z</time>
      </trkpt>
      <trkpt lat="44.50437" lon="7.12781">
        <ele>974.4</ele>
        <time>2022-07-18T12:53:17Z</time>
      </trkpt>
      <trkpt lat="44.50433" lon="7.12791">
        <ele>973.6</ele>
        <time>2022-07-18T12:53:18Z</time>
      </trkpt>
      <trkpt lat="44.5043" lon="7.12802">
        <ele>972.8</ele>
        <time>2022-07-18T12:53:19Z</time>
      </trkpt>
      <trkpt lat="44.50428" lon="7.12815">
        <ele>971.8</ele>
        <time>2022-07-18T12:53:20Z</time>
      </trkpt>
      <trkpt lat="44.50427" lon="7.12828">
        <ele>971</ele>
        <time>2022-07-18T12:53:21Z</time>
      </trkpt>
      <trkpt lat="44.50428" lon="7.12843">
        <ele>970</ele>
        <time>2022-07-18T12:53:22Z</time>
      </trkpt>
      <trkpt lat="44.50428" lon="7.12858">
        <ele>969</ele>
        <time>2022-07-18T12:53:23Z</time>
      </trkpt>
      <trkpt lat="44.50428" lon="7.12873">
        <ele>968</ele>
        <time>2022-07-18T12:53:24Z</time>
      </trkpt>
      <trkpt lat="44.50426" lon="7.12888">
        <ele>967</ele>
        <time>2022-07-18T12:53:25Z</time>
      </trkpt>
      <trkpt lat="44.50424" lon="7.12903">
        <ele>965.8</ele>
        <time>2022-07-18T12:53:26Z</time>
      </trkpt>
      <trkpt lat="44.50419" lon="7.12918">
        <ele>964.8</ele>
        <time>2022-07-18T12:53:27Z</time>
      </trkpt>
      <trkpt lat="44.50415" lon="7.12931">
        <ele>963.6</ele>
        <time>2022-07-18T12:53:28Z</time>
      </trkpt>
      <trkpt lat="44.50412" lon="7.12945">
        <ele>962.4</ele>
        <time>2022-07-18T12:53:29Z</time>
      </trkpt>
      <trkpt lat="44.50409" lon="7.1296">
        <ele>961.4</ele>
        <time>2022-07-18T12:53:30Z</time>
      </trkpt>
      <trkpt lat="44.50408" lon="7.12975">
        <ele>960.2</ele>
        <time>2022-07-18T12:53:31Z</time>
      </trkpt>
      <trkpt lat="44.50409" lon="7.12991">
        <ele>958.8</ele>
        <time>2022-07-18T12:53:32Z</time>
      </trkpt>
      <trkpt lat="44.5041" lon="7.13007">
        <ele>957.8</ele>
        <time>2022-07-18T12:53:33Z</time>
      </trkpt>
      <trkpt lat="44.5041" lon="7.13022">
        <ele>956.8</ele>
        <time>2022-07-18T12:53:34Z</time>
      </trkpt>
      <trkpt lat="44.50408" lon="7.13036">
        <ele>955.6</ele>
        <time>2022-07-18T12:53:35Z</time>
      </trkpt>
      <trkpt lat="44.50406" lon="7.1305">
        <ele>954.6</ele>
        <time>2022-07-18T12:53:36Z</time>
      </trkpt>
      <trkpt lat="44.50403" lon="7.13064">
        <ele>953.6</ele>
        <time>2022-07-18T12:53:37Z</time>
      </trkpt>
      <trkpt lat="44.50399" lon="7.13078">
        <ele>952.8</ele>
        <time>2022-07-18T12:53:38Z</time>
      </trkpt>
      <trkpt lat="44.50393" lon="7.13089">
        <ele>951.8</ele>
        <time>2022-07-18T12:53:39Z</time>
      </trkpt>
      <trkpt lat="44.50387" lon="7.13101">
        <ele>950.8</ele>
        <time>2022-07-18T12:53:40Z</time>
      </trkpt>
      <trkpt lat="44.50383" lon="7.13113">
        <ele>949.8</ele>
        <time>2022-07-18T12:53:41Z</time>
      </trkpt>
      <trkpt lat="44.50379" lon="7.13127">
        <ele>948.8</ele>
        <time>2022-07-18T12:53:42Z</time>
      </trkpt>
      <trkpt lat="44.50377" lon="7.13143">
        <ele>947.8</ele>
        <time>2022-07-18T12:53:43Z</time>
      </trkpt>
      <trkpt lat="44.50374" lon="7.13158">
        <ele>947</ele>
        <time>2022-07-18T12:53:44Z</time>
      </trkpt>
      <trkpt lat="44.50371" lon="7.13174">
        <ele>945.8</ele>
        <time>2022-07-18T12:53:45Z</time>
      </trkpt>
      <trkpt lat="44.50369" lon="7.13192">
        <ele>944.6</ele>
        <time>2022-07-18T12:53:46Z</time>
      </trkpt>
      <trkpt lat="44.50367" lon="7.13209">
        <ele>943.4</ele>
        <time>2022-07-18T12:53:47Z</time>
      </trkpt>
      <trkpt lat="44.50364" lon="7.13227">
        <ele>942</ele>
        <time>2022-07-18T12:53:48Z</time>
      </trkpt>
      <trkpt lat="44.50362" lon="7.13246">
        <ele>940.8</ele>
        <time>2022-07-18T12:53:49Z</time>
      </trkpt>
      <trkpt lat="44.5036" lon="7.13265">
        <ele>939.4</ele>
        <time>2022-07-18T12:53:50Z</time>
      </trkpt>
      <trkpt lat="44.50357" lon="7.13284">
        <ele>938</ele>
        <time>2022-07-18T12:53:51Z</time>
      </trkpt>
      <trkpt lat="44.50355" lon="7.13301">
        <ele>936.6</ele>
        <time>2022-07-18T12:53:52Z</time>
      </trkpt>
      <trkpt lat="44.50352" lon="7.13318">
        <ele>935.2</ele>
        <time>2022-07-18T12:53:53Z</time>
      </trkpt>
      <trkpt lat="44.50348" lon="7.13334">
        <ele>934</ele>
        <time>2022-07-18T12:53:54Z</time>
      </trkpt>
      <trkpt lat="44.50343" lon="7.13348">
        <ele>932.6</ele>
        <time>2022-07-18T12:53:55Z</time>
      </trkpt>
      <trkpt lat="44.50338" lon="7.13362">
        <ele>931.6</ele>
        <time>2022-07-18T12:53:56Z</time>
      </trkpt>
      <trkpt lat="44.50333" lon="7.13374">
        <ele>930.4</ele>
        <time>2022-07-18T12:53:57Z</time>
      </trkpt>
      <trkpt lat="44.50328" lon="7.13385">
        <ele>929.4</ele>
        <time>2022-07-18T12:53:58Z</time>
      </trkpt>
      <trkpt lat="44.50324" lon="7.13397">
        <ele>928.2</ele>
        <time>2022-07-18T12:53:59Z</time>
      </trkpt>
      <trkpt lat="44.50321" lon="7.13409">
        <ele>927.2</ele>
        <time>2022-07-18T12:54:00Z</time>
      </trkpt>
      <trkpt lat="44.50319" lon="7.1342">
        <ele>926</ele>
        <time>2022-07-18T12:54:01Z</time>
      </trkpt>
      <trkpt lat="44.50318" lon="7.13432">
        <ele>924.8</ele>
        <time>2022-07-18T12:54:02Z</time>
      </trkpt>
      <trkpt lat="44.50318" lon="7.13444">
        <ele>923.8</ele>
        <time>2022-07-18T12:54:03Z</time>
      </trkpt>
      <trkpt lat="44.50318" lon="7.13456">
        <ele>923</ele>
        <time>2022-07-18T12:54:04Z</time>
      </trkpt>
      <trkpt lat="44.50318" lon="7.13466">
        <ele>922</ele>
        <time>2022-07-18T12:54:05Z</time>
      </trkpt>
      <trkpt lat="44.50319" lon="7.13477">
        <ele>921</ele>
        <time>2022-07-18T12:54:06Z</time>
      </trkpt>
      <trkpt lat="44.5032" lon="7.13487">
        <ele>920.2</ele>
        <time>2022-07-18T12:54:07Z</time>
      </trkpt>
      <trkpt lat="44.50321" lon="7.13497">
        <ele>919.4</ele>
        <time>2022-07-18T12:54:08Z</time>
      </trkpt>
      <trkpt lat="44.50322" lon="7.13506">
        <ele>918.8</ele>
        <time>2022-07-18T12:54:09Z</time>
      </trkpt>
      <trkpt lat="44.50324" lon="7.13513">
        <ele>918</ele>
        <time>2022-07-18T12:54:10Z</time>
      </trkpt>
      <trkpt lat="44.50327" lon="7.1352">
        <ele>917.4</ele>
        <time>2022-07-18T12:54:11Z</time>
      </trkpt>
      <trkpt lat="44.50328" lon="7.13525">
        <ele>916.8</ele>
        <time>2022-07-18T12:54:12Z</time>
      </trkpt>
      <trkpt lat="44.50326" lon="7.13529">
        <ele>916.2</ele>
        <time>2022-07-18T12:54:13Z</time>
      </trkpt>
      <trkpt lat="44.50323" lon="7.13532">
        <ele>915.8</ele>
        <time>2022-07-18T12:54:14Z</time>
      </trkpt>
      <trkpt lat="44.50319" lon="7.13532">
        <ele>915.4</ele>
        <time>2022-07-18T12:54:15Z</time>
      </trkpt>
      <trkpt lat="44.50316" lon="7.13531">
        <ele>915</ele>
        <time>2022-07-18T12:54:16Z</time>
      </trkpt>
      <trkpt lat="44.50314" lon="7.13528">
        <ele>914.6</ele>
        <time>2022-07-18T12:54:17Z</time>
      </trkpt>
      <trkpt lat="44.50313" lon="7.13524">
        <ele>914.6</ele>
        <time>2022-07-18T12:54:18Z</time>
      </trkpt>
      <trkpt lat="44.50312" lon="7.13519">
        <ele>914.2</ele>
        <time>2022-07-18T12:54:19Z</time>
      </trkpt>
      <trkpt lat="44.50312" lon="7.13514">
        <ele>914.2</ele>
        <time>2022-07-18T12:54:20Z</time>
      </trkpt>
      <trkpt lat="44.50312" lon="7.13508">
        <ele>914.2</ele>
        <time>2022-07-18T12:54:21Z</time>
      </trkpt>
      <trkpt lat="44.50312" lon="7.13503">
        <ele>914.2</ele>
        <time>2022-07-18T12:54:22Z</time>
      </trkpt>
      <trkpt lat="44.50312" lon="7.13497">
        <ele>913.8</ele>
        <time>2022-07-18T12:54:23Z</time>
      </trkpt>
      <trkpt lat="44.50312" lon="7.13492">
        <ele>913.8</ele>
        <time>2022-07-18T12:54:24Z</time>
      </trkpt>
      <trkpt lat="44.50311" lon="7.13486">
        <ele>913.8</ele>
        <time>2022-07-18T12:54:25Z</time>
      </trkpt>
      <trkpt lat="44.50311" lon="7.13481">
        <ele>913.8</ele>
        <time>2022-07-18T12:54:26Z</time>
      </trkpt>
      <trkpt lat="44.5031" lon="7.13475">
        <ele>913.8</ele>
        <time>2022-07-18T12:54:27Z</time>
      </trkpt>
      <trkpt lat="44.5031" lon="7.1347">
        <ele>914.2</ele>
        <time>2022-07-18T12:54:28Z</time>
      </trkpt>
      <trkpt lat="44.50309" lon="7.13466">
        <ele>914.2</ele>
        <time>2022-07-18T12:54:29Z</time>
      </trkpt>
      <trkpt lat="44.50309" lon="7.13462">
        <ele>914.2</ele>
        <time>2022-07-18T12:54:30Z</time>
      </trkpt>
      <trkpt lat="44.50308" lon="7.13457">
        <ele>914.2</ele>
        <time>2022-07-18T12:54:31Z</time>
      </trkpt>
      <trkpt lat="44.50308" lon="7.13452">
        <ele>914.4</ele>
        <time>2022-07-18T12:54:32Z</time>
      </trkpt>
      <trkpt lat="44.50307" lon="7.13448">
        <ele>914.4</ele>
        <time>2022-07-18T12:54:33Z</time>
      </trkpt>
      <trkpt lat="44.50306" lon="7.13442">
        <ele>914.4</ele>
        <time>2022-07-18T12:54:34Z</time>
      </trkpt>
      <trkpt lat="44.50305" lon="7.13437">
        <ele>914.6</ele>
        <time>2022-07-18T12:54:35Z</time>
      </trkpt>
      <trkpt lat="44.50304" lon="7.13431">
        <ele>914.6</ele>
        <time>2022-07-18T12:54:36Z</time>
      </trkpt>
      <trkpt lat="44.50303" lon="7.13424">
        <ele>914.6</ele>
        <time>2022-07-18T12:54:37Z</time>
      </trkpt>
      <trkpt lat="44.50303" lon="7.13418">
        <ele>914.8</ele>
        <time>2022-07-18T12:54:38Z</time>
      </trkpt>
      <trkpt lat="44.50302" lon="7.13412">
        <ele>914.8</ele>
        <time>2022-07-18T12:54:39Z</time>
      </trkpt>
      <trkpt lat="44.503" lon="7.13406">
        <ele>914.8</ele>
        <time>2022-07-18T12:54:40Z</time>
      </trkpt>
      <trkpt lat="44.50299" lon="7.13402">
        <ele>914.8</ele>
        <time>2022-07-18T12:54:41Z</time>
      </trkpt>
      <trkpt lat="44.50299" lon="7.13397">
        <ele>914.8</ele>
        <time>2022-07-18T12:54:42Z</time>
      </trkpt>
      <trkpt lat="44.50299" lon="7.13392">
        <ele>914.8</ele>
        <time>2022-07-18T12:54:43Z</time>
      </trkpt>
      <trkpt lat="44.50299" lon="7.13387">
        <ele>914.8</ele>
        <time>2022-07-18T12:54:44Z</time>
      </trkpt>
      <trkpt lat="44.50299" lon="7.13382">
        <ele>914.8</ele>
        <time>2022-07-18T12:54:45Z</time>
      </trkpt>
      <trkpt lat="44.503" lon="7.13377">
        <ele>915.2</ele>
        <time>2022-07-18T12:54:46Z</time>
      </trkpt>
      <trkpt lat="44.503" lon="7.13374">
        <ele>915.2</ele>
        <time>2022-07-18T12:54:47Z</time>
      </trkpt>
      <trkpt lat="44.503" lon="7.1337">
        <ele>915.2</ele>
        <time>2022-07-18T12:54:48Z</time>
      </trkpt>
      <trkpt lat="44.50299" lon="7.13366">
        <ele>915.2</ele>
        <time>2022-07-18T12:54:49Z</time>
      </trkpt>
      <trkpt lat="44.50299" lon="7.13363">
        <ele>915.2</ele>
        <time>2022-07-18T12:54:50Z</time>
      </trkpt>
      <trkpt lat="44.50299" lon="7.1336">
        <ele>915.2</ele>
        <time>2022-07-18T12:54:51Z</time>
      </trkpt>
      <trkpt lat="44.50298" lon="7.13358">
        <ele>915.2</ele>
        <time>2022-07-18T12:54:52Z</time>
      </trkpt>
      <trkpt lat="44.50298" lon="7.13358">
        <ele>915.2</ele>
        <time>2022-07-18T12:54:53Z</time>
      </trkpt>
      <trkpt lat="44.50298" lon="7.13358">
        <ele>915.2</ele>
        <time>2022-07-18T12:54:54Z</time>
      </trkpt>
      <trkpt lat="44.50298" lon="7.13358">
        <ele>915.4</ele>
        <time>2022-07-18T12:54:55Z</time>
      </trkpt>
      <trkpt lat="44.50299" lon="7.13358">
        <ele>915.4</ele>
        <time>2022-07-18T12:54:56Z</time>
      </trkpt>
      <trkpt lat="44.50299" lon="7.13358">
        <ele>915.4</ele>
        <time>2022-07-18T12:54:59Z</time>
      </trkpt>
      <trkpt lat="44.50299" lon="7.13358">
        <ele>915.4</ele>
        <time>2022-07-18T12:55:00Z</time>
      </trkpt>
      <trkpt lat="44.50299" lon="7.13358">
        <ele>915.6</ele>
        <time>2022-07-18T12:55:04Z</time>
      </trkpt>
      <trkpt lat="44.50299" lon="7.13358">
        <ele>915.6</ele>
        <time>2022-07-18T12:55:05Z</time>
      </trkpt>
      <trkpt lat="44.50299" lon="7.13358">
        <ele>915.6</ele>
        <time>2022-07-18T12:55:09Z</time>
      </trkpt>
      <trkpt lat="44.50299" lon="7.13358">
        <ele>915.6</ele>
        <time>2022-07-18T12:55:10Z</time>
      </trkpt>
      <trkpt lat="44.50299" lon="7.13358">
        <ele>915.6</ele>
        <time>2022-07-18T12:55:13Z</time>
      </trkpt>
      <trkpt lat="44.50299" lon="7.13358">
        <ele>915.6</ele>
        <time>2022-07-18T12:55:14Z</time>
      </trkpt>
      <trkpt lat="44.50299" lon="7.13358">
        <ele>915.6</ele>
        <time>2022-07-18T12:55:15Z</time>
      </trkpt>
      <trkpt lat="44.503" lon="7.13358">
        <ele>915.6</ele>
        <time>2022-07-18T12:55:16Z</time>
      </trkpt>
      <trkpt lat="44.503" lon="7.13359">
        <ele>915.6</ele>
        <time>2022-07-18T12:55:24Z</time>
      </trkpt>
      <trkpt lat="44.503" lon="7.13359">
        <ele>915.6</ele>
        <time>2022-07-18T12:55:25Z</time>
      </trkpt>
      <trkpt lat="44.503" lon="7.13359">
        <ele>915.6</ele>
        <time>2022-07-18T12:55:28Z</time>
      </trkpt>
      <trkpt lat="44.503" lon="7.13359">
        <ele>915.6</ele>
        <time>2022-07-18T12:55:29Z</time>
      </trkpt>
      <trkpt lat="44.503" lon="7.13359">
        <ele>915.6</ele>
        <time>2022-07-18T12:55:36Z</time>
      </trkpt>
      <trkpt lat="44.503" lon="7.13359">
        <ele>915.6</ele>
        <time>2022-07-18T12:55:37Z</time>
      </trkpt>
      <trkpt lat="44.503" lon="7.13359">
        <ele>915.2</ele>
        <time>2022-07-18T12:55:38Z</time>
      </trkpt>
      <trkpt lat="44.503" lon="7.13359">
        <ele>915.2</ele>
        <time>2022-07-18T12:55:39Z</time>
      </trkpt>
      <trkpt lat="44.503" lon="7.13359">
        <ele>915.2</ele>
        <time>2022-07-18T12:55:40Z</time>
      </trkpt>
      <trkpt lat="44.50301" lon="7.13359">
        <ele>915.2</ele>
        <time>2022-07-18T12:55:41Z</time>
      </trkpt>
      <trkpt lat="44.50301" lon="7.13359">
        <ele>915.2</ele>
        <time>2022-07-18T12:55:43Z</time>
      </trkpt>
      <trkpt lat="44.50301" lon="7.13359">
        <ele>915.2</ele>
        <time>2022-07-18T12:55:44Z</time>
      </trkpt>
      <trkpt lat="44.50301" lon="7.13359">
        <ele>915.2</ele>
        <time>2022-07-18T12:55:45Z</time>
      </trkpt>
      <trkpt lat="44.50301" lon="7.13359">
        <ele>915.2</ele>
        <time>2022-07-18T12:55:46Z</time>
      </trkpt>
      <trkpt lat="44.50301" lon="7.13359">
        <ele>915.2</ele>
        <time>2022-07-18T12:55:47Z</time>
      </trkpt>
      <trkpt lat="44.50303" lon="7.1336">
        <ele>915.2</ele>
        <time>2022-07-18T12:55:48Z</time>
      </trkpt>
      <trkpt lat="44.50305" lon="7.1336">
        <ele>915.2</ele>
        <time>2022-07-18T12:55:49Z</time>
      </trkpt>
      <trkpt lat="44.50308" lon="7.1336">
        <ele>915.2</ele>
        <time>2022-07-18T12:55:50Z</time>
      </trkpt>
      <trkpt lat="44.5031" lon="7.1336">
        <ele>915.2</ele>
        <time>2022-07-18T12:55:51Z</time>
      </trkpt>
      <trkpt lat="44.50313" lon="7.13357">
        <ele>915.2</ele>
        <time>2022-07-18T12:55:52Z</time>
      </trkpt>
      <trkpt lat="44.50314" lon="7.13353">
        <ele>915.2</ele>
        <time>2022-07-18T12:55:53Z</time>
      </trkpt>
      <trkpt lat="44.50316" lon="7.13349">
        <ele>915.2</ele>
        <time>2022-07-18T12:55:54Z</time>
      </trkpt>
      <trkpt lat="44.50317" lon="7.13345">
        <ele>915.2</ele>
        <time>2022-07-18T12:55:55Z</time>
      </trkpt>
      <trkpt lat="44.50319" lon="7.1334">
        <ele>915.2</ele>
        <time>2022-07-18T12:55:56Z</time>
      </trkpt>
      <trkpt lat="44.5032" lon="7.13336">
        <ele>915.2</ele>
        <time>2022-07-18T12:55:57Z</time>
      </trkpt>
      <trkpt lat="44.50322" lon="7.13331">
        <ele>915.2</ele>
        <time>2022-07-18T12:55:58Z</time>
      </trkpt>
      <trkpt lat="44.50324" lon="7.13327">
        <ele>915.4</ele>
        <time>2022-07-18T12:55:59Z</time>
      </trkpt>
      <trkpt lat="44.50325" lon="7.13322">
        <ele>915.4</ele>
        <time>2022-07-18T12:56:00Z</time>
      </trkpt>
      <trkpt lat="44.50326" lon="7.13317">
        <ele>915.4</ele>
        <time>2022-07-18T12:56:01Z</time>
      </trkpt>
      <trkpt lat="44.50327" lon="7.13312">
        <ele>915.4</ele>
        <time>2022-07-18T12:56:02Z</time>
      </trkpt>
      <trkpt lat="44.50327" lon="7.13306">
        <ele>915.4</ele>
        <time>2022-07-18T12:56:03Z</time>
      </trkpt>
      <trkpt lat="44.50328" lon="7.13301">
        <ele>915.4</ele>
        <time>2022-07-18T12:56:04Z</time>
      </trkpt>
      <trkpt lat="44.50329" lon="7.13296">
        <ele>915.4</ele>
        <time>2022-07-18T12:56:05Z</time>
      </trkpt>
      <trkpt lat="44.50329" lon="7.13289">
        <ele>915.4</ele>
        <time>2022-07-18T12:56:06Z</time>
      </trkpt>
      <trkpt lat="44.50329" lon="7.13283">
        <ele>915.2</ele>
        <time>2022-07-18T12:56:07Z</time>
      </trkpt>
      <trkpt lat="44.5033" lon="7.13276">
        <ele>915.2</ele>
        <time>2022-07-18T12:56:08Z</time>
      </trkpt>
      <trkpt lat="44.5033" lon="7.13269">
        <ele>915.2</ele>
        <time>2022-07-18T12:56:09Z</time>
      </trkpt>
      <trkpt lat="44.50331" lon="7.13262">
        <ele>915.2</ele>
        <time>2022-07-18T12:56:10Z</time>
      </trkpt>
      <trkpt lat="44.50332" lon="7.13255">
        <ele>915.2</ele>
        <time>2022-07-18T12:56:11Z</time>
      </trkpt>
      <trkpt lat="44.50334" lon="7.13248">
        <ele>915.2</ele>
        <time>2022-07-18T12:56:12Z</time>
      </trkpt>
      <trkpt lat="44.50336" lon="7.1324">
        <ele>915.2</ele>
        <time>2022-07-18T12:56:13Z</time>
      </trkpt>
      <trkpt lat="44.50337" lon="7.13232">
        <ele>915.2</ele>
        <time>2022-07-18T12:56:14Z</time>
      </trkpt>
      <trkpt lat="44.50338" lon="7.13224">
        <ele>915.2</ele>
        <time>2022-07-18T12:56:15Z</time>
      </trkpt>
      <trkpt lat="44.50339" lon="7.13216">
        <ele>915.2</ele>
        <time>2022-07-18T12:56:16Z</time>
      </trkpt>
      <trkpt lat="44.5034" lon="7.13208">
        <ele>915.2</ele>
        <time>2022-07-18T12:56:17Z</time>
      </trkpt>
      <trkpt lat="44.50341" lon="7.13201">
        <ele>915.2</ele>
        <time>2022-07-18T12:56:18Z</time>
      </trkpt>
      <trkpt lat="44.50343" lon="7.13194">
        <ele>915.2</ele>
        <time>2022-07-18T12:56:19Z</time>
      </trkpt>
      <trkpt lat="44.50344" lon="7.13186">
        <ele>915.2</ele>
        <time>2022-07-18T12:56:20Z</time>
      </trkpt>
      <trkpt lat="44.50345" lon="7.13178">
        <ele>915.2</ele>
        <time>2022-07-18T12:56:21Z</time>
      </trkpt>
      <trkpt lat="44.50346" lon="7.1317">
        <ele>915</ele>
        <time>2022-07-18T12:56:22Z</time>
      </trkpt>
      <trkpt lat="44.50347" lon="7.13162">
        <ele>915</ele>
        <time>2022-07-18T12:56:23Z</time>
      </trkpt>
      <trkpt lat="44.50348" lon="7.13154">
        <ele>915</ele>
        <time>2022-07-18T12:56:24Z</time>
      </trkpt>
      <trkpt lat="44.50349" lon="7.13146">
        <ele>914.8</ele>
        <time>2022-07-18T12:56:25Z</time>
      </trkpt>
      <trkpt lat="44.5035" lon="7.13137">
        <ele>914.8</ele>
        <time>2022-07-18T12:56:26Z</time>
      </trkpt>
      <trkpt lat="44.50351" lon="7.13129">
        <ele>914.8</ele>
        <time>2022-07-18T12:56:27Z</time>
      </trkpt>
      <trkpt lat="44.50353" lon="7.13121">
        <ele>914.8</ele>
        <time>2022-07-18T12:56:28Z</time>
      </trkpt>
      <trkpt lat="44.50354" lon="7.13112">
        <ele>914.6</ele>
        <time>2022-07-18T12:56:29Z</time>
      </trkpt>
      <trkpt lat="44.50354" lon="7.13104">
        <ele>914.6</ele>
        <time>2022-07-18T12:56:30Z</time>
      </trkpt>
      <trkpt lat="44.50355" lon="7.13095">
        <ele>914.6</ele>
        <time>2022-07-18T12:56:31Z</time>
      </trkpt>
      <trkpt lat="44.50356" lon="7.13087">
        <ele>914.6</ele>
        <time>2022-07-18T12:56:32Z</time>
      </trkpt>
      <trkpt lat="44.50357" lon="7.13078">
        <ele>914.6</ele>
        <time>2022-07-18T12:56:33Z</time>
      </trkpt>
      <trkpt lat="44.50358" lon="7.1307">
        <ele>914.6</ele>
        <time>2022-07-18T12:56:34Z</time>
      </trkpt>
      <trkpt lat="44.50359" lon="7.13061">
        <ele>914.6</ele>
        <time>2022-07-18T12:56:35Z</time>
      </trkpt>
      <trkpt lat="44.50359" lon="7.13053">
        <ele>914.6</ele>
        <time>2022-07-18T12:56:36Z</time>
      </trkpt>
      <trkpt lat="44.50359" lon="7.13044">
        <ele>914.6</ele>
        <time>2022-07-18T12:56:37Z</time>
      </trkpt>
      <trkpt lat="44.50358" lon="7.13036">
        <ele>914.6</ele>
        <time>2022-07-18T12:56:38Z</time>
      </trkpt>
      <trkpt lat="44.50355" lon="7.13029">
        <ele>914.8</ele>
        <time>2022-07-18T12:56:39Z</time>
      </trkpt>
      <trkpt lat="44.5035" lon="7.13022">
        <ele>914.8</ele>
        <time>2022-07-18T12:56:40Z</time>
      </trkpt>
      <trkpt lat="44.50345" lon="7.13015">
        <ele>914.8</ele>
        <time>2022-07-18T12:56:41Z</time>
      </trkpt>
      <trkpt lat="44.50341" lon="7.13008">
        <ele>914.8</ele>
        <time>2022-07-18T12:56:42Z</time>
      </trkpt>
      <trkpt lat="44.50336" lon="7.13002">
        <ele>914.8</ele>
        <time>2022-07-18T12:56:43Z</time>
      </trkpt>
      <trkpt lat="44.50332" lon="7.12995">
        <ele>914.8</ele>
        <time>2022-07-18T12:56:44Z</time>
      </trkpt>
      <trkpt lat="44.50328" lon="7.12989">
        <ele>914.8</ele>
        <time>2022-07-18T12:56:45Z</time>
      </trkpt>
      <trkpt lat="44.50324" lon="7.12982">
        <ele>914.4</ele>
        <time>2022-07-18T12:56:46Z</time>
      </trkpt>
      <trkpt lat="44.50321" lon="7.12975">
        <ele>914.4</ele>
        <time>2022-07-18T12:56:47Z</time>
      </trkpt>
      <trkpt lat="44.50319" lon="7.12968">
        <ele>914.4</ele>
        <time>2022-07-18T12:56:48Z</time>
      </trkpt>
      <trkpt lat="44.50318" lon="7.12959">
        <ele>914.4</ele>
        <time>2022-07-18T12:56:49Z</time>
      </trkpt>
      <trkpt lat="44.50317" lon="7.12951">
        <ele>914.4</ele>
        <time>2022-07-18T12:56:50Z</time>
      </trkpt>
      <trkpt lat="44.50316" lon="7.12943">
        <ele>914.4</ele>
        <time>2022-07-18T12:56:51Z</time>
      </trkpt>
      <trkpt lat="44.50314" lon="7.12935">
        <ele>914.4</ele>
        <time>2022-07-18T12:56:52Z</time>
      </trkpt>
      <trkpt lat="44.50311" lon="7.12927">
        <ele>914.8</ele>
        <time>2022-07-18T12:56:53Z</time>
      </trkpt>
      <trkpt lat="44.50308" lon="7.12919">
        <ele>914.8</ele>
        <time>2022-07-18T12:56:54Z</time>
      </trkpt>
      <trkpt lat="44.50304" lon="7.12911">
        <ele>914.8</ele>
        <time>2022-07-18T12:56:55Z</time>
      </trkpt>
      <trkpt lat="44.503" lon="7.12904">
        <ele>914.8</ele>
        <time>2022-07-18T12:56:56Z</time>
      </trkpt>
      <trkpt lat="44.50296" lon="7.12895">
        <ele>914.4</ele>
        <time>2022-07-18T12:56:57Z</time>
      </trkpt>
      <trkpt lat="44.50293" lon="7.12886">
        <ele>914.4</ele>
        <time>2022-07-18T12:56:58Z</time>
      </trkpt>
      <trkpt lat="44.50292" lon="7.12876">
        <ele>914.2</ele>
        <time>2022-07-18T12:56:59Z</time>
      </trkpt>
      <trkpt lat="44.50291" lon="7.12866">
        <ele>914</ele>
        <time>2022-07-18T12:57:00Z</time>
      </trkpt>
      <trkpt lat="44.50291" lon="7.12855">
        <ele>914</ele>
        <time>2022-07-18T12:57:01Z</time>
      </trkpt>
      <trkpt lat="44.50292" lon="7.12845">
        <ele>913.6</ele>
        <time>2022-07-18T12:57:02Z</time>
      </trkpt>
      <trkpt lat="44.50293" lon="7.12836">
        <ele>913.6</ele>
        <time>2022-07-18T12:57:03Z</time>
      </trkpt>
      <trkpt lat="44.50295" lon="7.12827">
        <ele>913.2</ele>
        <time>2022-07-18T12:57:04Z</time>
      </trkpt>
      <trkpt lat="44.50297" lon="7.12818">
        <ele>913</ele>
        <time>2022-07-18T12:57:05Z</time>
      </trkpt>
      <trkpt lat="44.50297" lon="7.1281">
        <ele>913</ele>
        <time>2022-07-18T12:57:06Z</time>
      </trkpt>
      <trkpt lat="44.50297" lon="7.12801">
        <ele>912.6</ele>
        <time>2022-07-18T12:57:07Z</time>
      </trkpt>
      <trkpt lat="44.50297" lon="7.12792">
        <ele>912.4</ele>
        <time>2022-07-18T12:57:08Z</time>
      </trkpt>
      <trkpt lat="44.50297" lon="7.12783">
        <ele>912.4</ele>
        <time>2022-07-18T12:57:09Z</time>
      </trkpt>
      <trkpt lat="44.50297" lon="7.12774">
        <ele>912.2</ele>
        <time>2022-07-18T12:57:10Z</time>
      </trkpt>
      <trkpt lat="44.50296" lon="7.12766">
        <ele>912.2</ele>
        <time>2022-07-18T12:57:11Z</time>
      </trkpt>
      <trkpt lat="44.50295" lon="7.12758">
        <ele>911.8</ele>
        <time>2022-07-18T12:57:12Z</time>
      </trkpt>
      <trkpt lat="44.50294" lon="7.1275">
        <ele>911.8</ele>
        <time>2022-07-18T12:57:13Z</time>
      </trkpt>
      <trkpt lat="44.50292" lon="7.12742">
        <ele>911.6</ele>
        <time>2022-07-18T12:57:14Z</time>
      </trkpt>
      <trkpt lat="44.50291" lon="7.12735">
        <ele>911.2</ele>
        <time>2022-07-18T12:57:15Z</time>
      </trkpt>
      <trkpt lat="44.5029" lon="7.12728">
        <ele>911.2</ele>
        <time>2022-07-18T12:57:16Z</time>
      </trkpt>
      <trkpt lat="44.50289" lon="7.1272">
        <ele>911</ele>
        <time>2022-07-18T12:57:17Z</time>
      </trkpt>
      <trkpt lat="44.50289" lon="7.12712">
        <ele>911</ele>
        <time>2022-07-18T12:57:18Z</time>
      </trkpt>
      <trkpt lat="44.5029" lon="7.12705">
        <ele>910.6</ele>
        <time>2022-07-18T12:57:19Z</time>
      </trkpt>
      <trkpt lat="44.5029" lon="7.12699">
        <ele>910.6</ele>
        <time>2022-07-18T12:57:20Z</time>
      </trkpt>
      <trkpt lat="44.50291" lon="7.12694">
        <ele>910.2</ele>
        <time>2022-07-18T12:57:21Z</time>
      </trkpt>
      <trkpt lat="44.50291" lon="7.1269">
        <ele>910.2</ele>
        <time>2022-07-18T12:57:22Z</time>
      </trkpt>
      <trkpt lat="44.50292" lon="7.12687">
        <ele>910</ele>
        <time>2022-07-18T12:57:23Z</time>
      </trkpt>
      <trkpt lat="44.50292" lon="7.12684">
        <ele>910</ele>
        <time>2022-07-18T12:57:24Z</time>
      </trkpt>
      <trkpt lat="44.50292" lon="7.12684">
        <ele>910</ele>
        <time>2022-07-18T12:57:25Z</time>
      </trkpt>
      <trkpt lat="44.50292" lon="7.12684">
        <ele>909.6</ele>
        <time>2022-07-18T12:57:26Z</time>
      </trkpt>
      <trkpt lat="44.50292" lon="7.12684">
        <ele>909.6</ele>
        <time>2022-07-18T12:57:27Z</time>
      </trkpt>
      <trkpt lat="44.50292" lon="7.12684">
        <ele>909.6</ele>
        <time>2022-07-18T12:57:28Z</time>
      </trkpt>
      <trkpt lat="44.50292" lon="7.12684">
        <ele>909.6</ele>
        <time>2022-07-18T12:57:29Z</time>
      </trkpt>
      <trkpt lat="44.50292" lon="7.12684">
        <ele>909.6</ele>
        <time>2022-07-18T12:57:30Z</time>
      </trkpt>
      <trkpt lat="44.50292" lon="7.12683">
        <ele>909.6</ele>
        <time>2022-07-18T12:57:31Z</time>
      </trkpt>
      <trkpt lat="44.50292" lon="7.12683">
        <ele>909.6</ele>
        <time>2022-07-18T12:57:32Z</time>
      </trkpt>
      <trkpt lat="44.50292" lon="7.12683">
        <ele>910</ele>
        <time>2022-07-18T12:57:36Z</time>
      </trkpt>
      <trkpt lat="44.50292" lon="7.12683">
        <ele>910</ele>
        <time>2022-07-18T12:57:37Z</time>
      </trkpt>
      <trkpt lat="44.50292" lon="7.12683">
        <ele>910</ele>
        <time>2022-07-18T12:57:38Z</time>
      </trkpt>
      <trkpt lat="44.50292" lon="7.12683">
        <ele>910</ele>
        <time>2022-07-18T12:57:39Z</time>
      </trkpt>
      <trkpt lat="44.50292" lon="7.12683">
        <ele>910</ele>
        <time>2022-07-18T12:57:40Z</time>
      </trkpt>
      <trkpt lat="44.50292" lon="7.12683">
        <ele>910</ele>
        <time>2022-07-18T12:57:41Z</time>
      </trkpt>
      <trkpt lat="44.50292" lon="7.12683">
        <ele>910</ele>
        <time>2022-07-18T12:57:42Z</time>
      </trkpt>
      <trkpt lat="44.50292" lon="7.12683">
        <ele>909.8</ele>
        <time>2022-07-18T12:57:44Z</time>
      </trkpt>
      <trkpt lat="44.50292" lon="7.12682">
        <ele>909.8</ele>
        <time>2022-07-18T12:57:45Z</time>
      </trkpt>
      <trkpt lat="44.50292" lon="7.12682">
        <ele>910</ele>
        <time>2022-07-18T12:58:01Z</time>
      </trkpt>
      <trkpt lat="44.50292" lon="7.12682">
        <ele>910</ele>
        <time>2022-07-18T12:58:02Z</time>
      </trkpt>
      <trkpt lat="44.50292" lon="7.12682">
        <ele>910</ele>
        <time>2022-07-18T12:58:04Z</time>
      </trkpt>
      <trkpt lat="44.50292" lon="7.12682">
        <ele>910</ele>
        <time>2022-07-18T12:58:05Z</time>
      </trkpt>
      <trkpt lat="44.50292" lon="7.12682">
        <ele>910</ele>
        <time>2022-07-18T12:58:06Z</time>
      </trkpt>
      <trkpt lat="44.50292" lon="7.12682">
        <ele>910</ele>
        <time>2022-07-18T12:58:07Z</time>
      </trkpt>
      <trkpt lat="44.50292" lon="7.12682">
        <ele>909.8</ele>
        <time>2022-07-18T12:58:10Z</time>
      </trkpt>
      <trkpt lat="44.50292" lon="7.12682">
        <ele>909.8</ele>
        <time>2022-07-18T12:58:11Z</time>
      </trkpt>
      <trkpt lat="44.50292" lon="7.12682">
        <ele>909.8</ele>
        <time>2022-07-18T12:58:12Z</time>
      </trkpt>
      <trkpt lat="44.50292" lon="7.12681">
        <ele>909.4</ele>
        <time>2022-07-18T12:58:13Z</time>
      </trkpt>
      <trkpt lat="44.50292" lon="7.12681">
        <ele>909.4</ele>
        <time>2022-07-18T12:58:14Z</time>
      </trkpt>
      <trkpt lat="44.50292" lon="7.12681">
        <ele>909.4</ele>
        <time>2022-07-18T12:58:15Z</time>
      </trkpt>
      <trkpt lat="44.50292" lon="7.12681">
        <ele>909.4</ele>
        <time>2022-07-18T12:58:17Z</time>
      </trkpt>
      <trkpt lat="44.50292" lon="7.12681">
        <ele>909.4</ele>
        <time>2022-07-18T12:58:19Z</time>
      </trkpt>
      <trkpt lat="44.50292" lon="7.12681">
        <ele>909.4</ele>
        <time>2022-07-18T12:58:20Z</time>
      </trkpt>
      <trkpt lat="44.50292" lon="7.12681">
        <ele>909.6</ele>
        <time>2022-07-18T12:58:22Z</time>
      </trkpt>
      <trkpt lat="44.50292" lon="7.12681">
        <ele>909.6</ele>
        <time>2022-07-18T12:58:23Z</time>
      </trkpt>
      <trkpt lat="44.50292" lon="7.12681">
        <ele>909.6</ele>
        <time>2022-07-18T12:58:24Z</time>
      </trkpt>
      <trkpt lat="44.50292" lon="7.12681">
        <ele>909.6</ele>
        <time>2022-07-18T12:58:25Z</time>
      </trkpt>
      <trkpt lat="44.50292" lon="7.1268">
        <ele>909.6</ele>
        <time>2022-07-18T12:58:26Z</time>
      </trkpt>
      <trkpt lat="44.50292" lon="7.1268">
        <ele>909.6</ele>
        <time>2022-07-18T12:58:27Z</time>
      </trkpt>
      <trkpt lat="44.50292" lon="7.1268">
        <ele>909.6</ele>
        <time>2022-07-18T12:58:28Z</time>
      </trkpt>
      <trkpt lat="44.50292" lon="7.1268">
        <ele>910</ele>
        <time>2022-07-18T12:58:32Z</time>
      </trkpt>
      <trkpt lat="44.50292" lon="7.1268">
        <ele>910</ele>
        <time>2022-07-18T12:58:34Z</time>
      </trkpt>
      <trkpt lat="44.50292" lon="7.1268">
        <ele>910</ele>
        <time>2022-07-18T12:58:35Z</time>
      </trkpt>
      <trkpt lat="44.50292" lon="7.1268">
        <ele>910</ele>
        <time>2022-07-18T12:58:36Z</time>
      </trkpt>
      <trkpt lat="44.50292" lon="7.1268">
        <ele>910</ele>
        <time>2022-07-18T12:58:37Z</time>
      </trkpt>
      <trkpt lat="44.50292" lon="7.1268">
        <ele>910</ele>
        <time>2022-07-18T12:58:38Z</time>
      </trkpt>
      <trkpt lat="44.50292" lon="7.1268">
        <ele>910</ele>
        <time>2022-07-18T12:58:43Z</time>
      </trkpt>
      <trkpt lat="44.50292" lon="7.12679">
        <ele>910</ele>
        <time>2022-07-18T12:58:44Z</time>
      </trkpt>
      <trkpt lat="44.50292" lon="7.12679">
        <ele>910</ele>
        <time>2022-07-18T12:58:45Z</time>
      </trkpt>
      <trkpt lat="44.50292" lon="7.12679">
        <ele>910</ele>
        <time>2022-07-18T12:58:46Z</time>
      </trkpt>
      <trkpt lat="44.50292" lon="7.12679">
        <ele>910</ele>
        <time>2022-07-18T12:58:47Z</time>
      </trkpt>
      <trkpt lat="44.50292" lon="7.12679">
        <ele>910</ele>
        <time>2022-07-18T12:58:48Z</time>
      </trkpt>
      <trkpt lat="44.50292" lon="7.12679">
        <ele>910</ele>
        <time>2022-07-18T12:58:50Z</time>
      </trkpt>
      <trkpt lat="44.50292" lon="7.12679">
        <ele>910</ele>
        <time>2022-07-18T12:58:51Z</time>
      </trkpt>
      <trkpt lat="44.50292" lon="7.12679">
        <ele>910</ele>
        <time>2022-07-18T12:58:52Z</time>
      </trkpt>
      <trkpt lat="44.50292" lon="7.12679">
        <ele>910</ele>
        <time>2022-07-18T12:58:53Z</time>
      </trkpt>
      <trkpt lat="44.50292" lon="7.12679">
        <ele>910</ele>
        <time>2022-07-18T12:58:54Z</time>
      </trkpt>
      <trkpt lat="44.50292" lon="7.12678">
        <ele>910</ele>
        <time>2022-07-18T12:58:55Z</time>
      </trkpt>
      <trkpt lat="44.50292" lon="7.12678">
        <ele>910</ele>
        <time>2022-07-18T12:58:56Z</time>
      </trkpt>
      <trkpt lat="44.50292" lon="7.12678">
        <ele>910</ele>
        <time>2022-07-18T12:59:05Z</time>
      </trkpt>
      <trkpt lat="44.50292" lon="7.12678">
        <ele>910</ele>
        <time>2022-07-18T12:59:06Z</time>
      </trkpt>
      <trkpt lat="44.50292" lon="7.12678">
        <ele>910</ele>
        <time>2022-07-18T12:59:07Z</time>
      </trkpt>
      <trkpt lat="44.50292" lon="7.12678">
        <ele>910</ele>
        <time>2022-07-18T12:59:08Z</time>
      </trkpt>
      <trkpt lat="44.50292" lon="7.12678">
        <ele>910</ele>
        <time>2022-07-18T12:59:09Z</time>
      </trkpt>
      <trkpt lat="44.50292" lon="7.12678">
        <ele>910</ele>
        <time>2022-07-18T12:59:10Z</time>
      </trkpt>
      <trkpt lat="44.50292" lon="7.12678">
        <ele>910</ele>
        <time>2022-07-18T12:59:11Z</time>
      </trkpt>
      <trkpt lat="44.50292" lon="7.12678">
        <ele>910</ele>
        <time>2022-07-18T12:59:12Z</time>
      </trkpt>
      <trkpt lat="44.50292" lon="7.12678">
        <ele>910</ele>
        <time>2022-07-18T12:59:13Z</time>
      </trkpt>
      <trkpt lat="44.50293" lon="7.12675">
        <ele>910</ele>
        <time>2022-07-18T12:59:14Z</time>
      </trkpt>
      <trkpt lat="44.50294" lon="7.12672">
        <ele>910</ele>
        <time>2022-07-18T12:59:15Z</time>
      </trkpt>
      <trkpt lat="44.50295" lon="7.12668">
        <ele>910</ele>
        <time>2022-07-18T12:59:16Z</time>
      </trkpt>
      <trkpt lat="44.50296" lon="7.12664">
        <ele>910</ele>
        <time>2022-07-18T12:59:17Z</time>
      </trkpt>
      <trkpt lat="44.50297" lon="7.12659">
        <ele>909.8</ele>
        <time>2022-07-18T12:59:18Z</time>
      </trkpt>
      <trkpt lat="44.50298" lon="7.12653">
        <ele>909.8</ele>
        <time>2022-07-18T12:59:19Z</time>
      </trkpt>
      <trkpt lat="44.50299" lon="7.12648">
        <ele>909.8</ele>
        <time>2022-07-18T12:59:20Z</time>
      </trkpt>
      <trkpt lat="44.503" lon="7.12642">
        <ele>909.4</ele>
        <time>2022-07-18T12:59:21Z</time>
      </trkpt>
      <trkpt lat="44.503" lon="7.12636">
        <ele>909.4</ele>
        <time>2022-07-18T12:59:22Z</time>
      </trkpt>
      <trkpt lat="44.503" lon="7.12631">
        <ele>909.2</ele>
        <time>2022-07-18T12:59:23Z</time>
      </trkpt>
      <trkpt lat="44.503" lon="7.12625">
        <ele>909.2</ele>
        <time>2022-07-18T12:59:24Z</time>
      </trkpt>
      <trkpt lat="44.503" lon="7.1262">
        <ele>909.2</ele>
        <time>2022-07-18T12:59:25Z</time>
      </trkpt>
      <trkpt lat="44.50299" lon="7.12614">
        <ele>908.8</ele>
        <time>2022-07-18T12:59:26Z</time>
      </trkpt>
      <trkpt lat="44.50298" lon="7.12608">
        <ele>908.8</ele>
        <time>2022-07-18T12:59:27Z</time>
      </trkpt>
      <trkpt lat="44.50297" lon="7.12602">
        <ele>908.6</ele>
        <time>2022-07-18T12:59:28Z</time>
      </trkpt>
      <trkpt lat="44.50295" lon="7.12597">
        <ele>908.6</ele>
        <time>2022-07-18T12:59:29Z</time>
      </trkpt>
      <trkpt lat="44.50294" lon="7.12591">
        <ele>908.4</ele>
        <time>2022-07-18T12:59:30Z</time>
      </trkpt>
      <trkpt lat="44.50292" lon="7.12586">
        <ele>908.4</ele>
        <time>2022-07-18T12:59:31Z</time>
      </trkpt>
      <trkpt lat="44.5029" lon="7.12581">
        <ele>908</ele>
        <time>2022-07-18T12:59:32Z</time>
      </trkpt>
      <trkpt lat="44.50288" lon="7.12576">
        <ele>908</ele>
        <time>2022-07-18T12:59:33Z</time>
      </trkpt>
      <trkpt lat="44.50286" lon="7.12571">
        <ele>907.6</ele>
        <time>2022-07-18T12:59:34Z</time>
      </trkpt>
      <trkpt lat="44.50284" lon="7.12566">
        <ele>907.4</ele>
        <time>2022-07-18T12:59:35Z</time>
      </trkpt>
      <trkpt lat="44.50282" lon="7.12563">
        <ele>907.4</ele>
        <time>2022-07-18T12:59:36Z</time>
      </trkpt>
      <trkpt lat="44.5028" lon="7.12559">
        <ele>907.2</ele>
        <time>2022-07-18T12:59:37Z</time>
      </trkpt>
      <trkpt lat="44.50278" lon="7.12556">
        <ele>907.2</ele>
        <time>2022-07-18T12:59:38Z</time>
      </trkpt>
      <trkpt lat="44.50276" lon="7.12553">
        <ele>907</ele>
        <time>2022-07-18T12:59:39Z</time>
      </trkpt>
      <trkpt lat="44.50275" lon="7.12549">
        <ele>907</ele>
        <time>2022-07-18T12:59:40Z</time>
      </trkpt>
      <trkpt lat="44.50274" lon="7.12545">
        <ele>907</ele>
        <time>2022-07-18T12:59:41Z</time>
      </trkpt>
      <trkpt lat="44.50272" lon="7.1254">
        <ele>907</ele>
        <time>2022-07-18T12:59:42Z</time>
      </trkpt>
      <trkpt lat="44.5027" lon="7.12534">
        <ele>907</ele>
        <time>2022-07-18T12:59:43Z</time>
      </trkpt>
      <trkpt lat="44.50268" lon="7.12529">
        <ele>906.8</ele>
        <time>2022-07-18T12:59:44Z</time>
      </trkpt>
      <trkpt lat="44.50266" lon="7.12523">
        <ele>906.8</ele>
        <time>2022-07-18T12:59:45Z</time>
      </trkpt>
      <trkpt lat="44.50264" lon="7.12517">
        <ele>906.4</ele>
        <time>2022-07-18T12:59:46Z</time>
      </trkpt>
      <trkpt lat="44.50262" lon="7.12511">
        <ele>906.4</ele>
        <time>2022-07-18T12:59:47Z</time>
      </trkpt>
      <trkpt lat="44.50259" lon="7.12504">
        <ele>906.2</ele>
        <time>2022-07-18T12:59:48Z</time>
      </trkpt>
      <trkpt lat="44.50257" lon="7.12497">
        <ele>906.2</ele>
        <time>2022-07-18T12:59:49Z</time>
      </trkpt>
      <trkpt lat="44.50256" lon="7.1249">
        <ele>905.8</ele>
        <time>2022-07-18T12:59:50Z</time>
      </trkpt>
      <trkpt lat="44.50255" lon="7.12483">
        <ele>905.6</ele>
        <time>2022-07-18T12:59:51Z</time>
      </trkpt>
      <trkpt lat="44.50254" lon="7.12475">
        <ele>905.4</ele>
        <time>2022-07-18T12:59:52Z</time>
      </trkpt>
      <trkpt lat="44.50255" lon="7.12467">
        <ele>905.2</ele>
        <time>2022-07-18T12:59:53Z</time>
      </trkpt>
      <trkpt lat="44.50256" lon="7.12459">
        <ele>904.8</ele>
        <time>2022-07-18T12:59:54Z</time>
      </trkpt>
      <trkpt lat="44.50256" lon="7.1245">
        <ele>904.6</ele>
        <time>2022-07-18T12:59:55Z</time>
      </trkpt>
      <trkpt lat="44.50257" lon="7.12441">
        <ele>904.6</ele>
        <time>2022-07-18T12:59:56Z</time>
      </trkpt>
      <trkpt lat="44.50259" lon="7.12432">
        <ele>904.2</ele>
        <time>2022-07-18T12:59:57Z</time>
      </trkpt>
      <trkpt lat="44.5026" lon="7.12424">
        <ele>904.2</ele>
        <time>2022-07-18T12:59:58Z</time>
      </trkpt>
      <trkpt lat="44.50261" lon="7.12418">
        <ele>903.8</ele>
        <time>2022-07-18T12:59:59Z</time>
      </trkpt>
      <trkpt lat="44.50265" lon="7.12412">
        <ele>903.8</ele>
        <time>2022-07-18T13:00:00Z</time>
      </trkpt>
      <trkpt lat="44.5027" lon="7.12407">
        <ele>903.4</ele>
        <time>2022-07-18T13:00:01Z</time>
      </trkpt>
      <trkpt lat="44.50276" lon="7.12405">
        <ele>903.2</ele>
        <time>2022-07-18T13:00:02Z</time>
      </trkpt>
      <trkpt lat="44.50282" lon="7.12403">
        <ele>902.8</ele>
        <time>2022-07-18T13:00:03Z</time>
      </trkpt>
      <trkpt lat="44.50289" lon="7.12401">
        <ele>902.8</ele>
        <time>2022-07-18T13:00:04Z</time>
      </trkpt>
      <trkpt lat="44.50296" lon="7.12398">
        <ele>902.4</ele>
        <time>2022-07-18T13:00:05Z</time>
      </trkpt>
      <trkpt lat="44.50303" lon="7.12394">
        <ele>902.2</ele>
        <time>2022-07-18T13:00:06Z</time>
      </trkpt>
      <trkpt lat="44.50309" lon="7.12389">
        <ele>902.2</ele>
        <time>2022-07-18T13:00:07Z</time>
      </trkpt>
      <trkpt lat="44.50315" lon="7.12383">
        <ele>901.8</ele>
        <time>2022-07-18T13:00:08Z</time>
      </trkpt>
      <trkpt lat="44.50322" lon="7.12377">
        <ele>901.8</ele>
        <time>2022-07-18T13:00:09Z</time>
      </trkpt>
      <trkpt lat="44.50328" lon="7.12371">
        <ele>901.4</ele>
        <time>2022-07-18T13:00:10Z</time>
      </trkpt>
      <trkpt lat="44.50335" lon="7.12364">
        <ele>901</ele>
        <time>2022-07-18T13:00:11Z</time>
      </trkpt>
      <trkpt lat="44.50342" lon="7.12358">
        <ele>900.6</ele>
        <time>2022-07-18T13:00:12Z</time>
      </trkpt>
      <trkpt lat="44.50349" lon="7.12351">
        <ele>900.4</ele>
        <time>2022-07-18T13:00:13Z</time>
      </trkpt>
      <trkpt lat="44.50356" lon="7.12344">
        <ele>900.2</ele>
        <time>2022-07-18T13:00:14Z</time>
      </trkpt>
      <trkpt lat="44.50362" lon="7.12336">
        <ele>899.8</ele>
        <time>2022-07-18T13:00:15Z</time>
      </trkpt>
      <trkpt lat="44.50368" lon="7.12329">
        <ele>899.6</ele>
        <time>2022-07-18T13:00:16Z</time>
      </trkpt>
      <trkpt lat="44.50375" lon="7.12322">
        <ele>899.6</ele>
        <time>2022-07-18T13:00:17Z</time>
      </trkpt>
      <trkpt lat="44.50381" lon="7.12316">
        <ele>899.2</ele>
        <time>2022-07-18T13:00:18Z</time>
      </trkpt>
      <trkpt lat="44.50386" lon="7.1231">
        <ele>899.2</ele>
        <time>2022-07-18T13:00:19Z</time>
      </trkpt>
      <trkpt lat="44.5039" lon="7.12303">
        <ele>898.8</ele>
        <time>2022-07-18T13:00:20Z</time>
      </trkpt>
      <trkpt lat="44.50393" lon="7.12296">
        <ele>898.6</ele>
        <time>2022-07-18T13:00:21Z</time>
      </trkpt>
      <trkpt lat="44.50396" lon="7.12288">
        <ele>898.6</ele>
        <time>2022-07-18T13:00:22Z</time>
      </trkpt>
      <trkpt lat="44.50398" lon="7.1228">
        <ele>898.6</ele>
        <time>2022-07-18T13:00:23Z</time>
      </trkpt>
      <trkpt lat="44.50399" lon="7.1227">
        <ele>898.2</ele>
        <time>2022-07-18T13:00:24Z</time>
      </trkpt>
      <trkpt lat="44.50398" lon="7.12261">
        <ele>898.2</ele>
        <time>2022-07-18T13:00:25Z</time>
      </trkpt>
      <trkpt lat="44.50397" lon="7.12253">
        <ele>898</ele>
        <time>2022-07-18T13:00:26Z</time>
      </trkpt>
      <trkpt lat="44.50393" lon="7.12245">
        <ele>898</ele>
        <time>2022-07-18T13:00:27Z</time>
      </trkpt>
      <trkpt lat="44.50386" lon="7.12239">
        <ele>898</ele>
        <time>2022-07-18T13:00:28Z</time>
      </trkpt>
      <trkpt lat="44.5038" lon="7.12236">
        <ele>898</ele>
        <time>2022-07-18T13:00:29Z</time>
      </trkpt>
      <trkpt lat="44.50374" lon="7.12233">
        <ele>898</ele>
        <time>2022-07-18T13:00:30Z</time>
      </trkpt>
      <trkpt lat="44.50368" lon="7.12229">
        <ele>897.8</ele>
        <time>2022-07-18T13:00:31Z</time>
      </trkpt>
      <trkpt lat="44.50362" lon="7.12226">
        <ele>897.8</ele>
        <time>2022-07-18T13:00:32Z</time>
      </trkpt>
      <trkpt lat="44.50356" lon="7.12225">
        <ele>897.8</ele>
        <time>2022-07-18T13:00:33Z</time>
      </trkpt>
      <trkpt lat="44.5035" lon="7.12224">
        <ele>897.6</ele>
        <time>2022-07-18T13:00:34Z</time>
      </trkpt>
      <trkpt lat="44.50345" lon="7.12223">
        <ele>897.6</ele>
        <time>2022-07-18T13:00:35Z</time>
      </trkpt>
      <trkpt lat="44.50339" lon="7.12222">
        <ele>897.6</ele>
        <time>2022-07-18T13:00:36Z</time>
      </trkpt>
      <trkpt lat="44.50334" lon="7.12222">
        <ele>897.6</ele>
        <time>2022-07-18T13:00:37Z</time>
      </trkpt>
      <trkpt lat="44.50328" lon="7.12222">
        <ele>897.6</ele>
        <time>2022-07-18T13:00:38Z</time>
      </trkpt>
      <trkpt lat="44.50322" lon="7.12221">
        <ele>897.6</ele>
        <time>2022-07-18T13:00:39Z</time>
      </trkpt>
      <trkpt lat="44.50316" lon="7.12221">
        <ele>897.6</ele>
        <time>2022-07-18T13:00:40Z</time>
      </trkpt>
      <trkpt lat="44.50311" lon="7.12221">
        <ele>897.6</ele>
        <time>2022-07-18T13:00:41Z</time>
      </trkpt>
      <trkpt lat="44.50306" lon="7.12222">
        <ele>897.6</ele>
        <time>2022-07-18T13:00:42Z</time>
      </trkpt>
      <trkpt lat="44.503" lon="7.12222">
        <ele>897.6</ele>
        <time>2022-07-18T13:00:43Z</time>
      </trkpt>
      <trkpt lat="44.50294" lon="7.12222">
        <ele>897.6</ele>
        <time>2022-07-18T13:00:44Z</time>
      </trkpt>
      <trkpt lat="44.50289" lon="7.12222">
        <ele>897.4</ele>
        <time>2022-07-18T13:00:45Z</time>
      </trkpt>
      <trkpt lat="44.50283" lon="7.12222">
        <ele>897.4</ele>
        <time>2022-07-18T13:00:46Z</time>
      </trkpt>
      <trkpt lat="44.50278" lon="7.12222">
        <ele>897.4</ele>
        <time>2022-07-18T13:00:47Z</time>
      </trkpt>
      <trkpt lat="44.50272" lon="7.12222">
        <ele>897</ele>
        <time>2022-07-18T13:00:48Z</time>
      </trkpt>
      <trkpt lat="44.50267" lon="7.12222">
        <ele>897</ele>
        <time>2022-07-18T13:00:49Z</time>
      </trkpt>
      <trkpt lat="44.50261" lon="7.12223">
        <ele>897</ele>
        <time>2022-07-18T13:00:50Z</time>
      </trkpt>
      <trkpt lat="44.50255" lon="7.12222">
        <ele>897</ele>
        <time>2022-07-18T13:00:51Z</time>
      </trkpt>
      <trkpt lat="44.50249" lon="7.12221">
        <ele>897</ele>
        <time>2022-07-18T13:00:52Z</time>
      </trkpt>
      <trkpt lat="44.50243" lon="7.1222">
        <ele>897</ele>
        <time>2022-07-18T13:00:53Z</time>
      </trkpt>
      <trkpt lat="44.50238" lon="7.12217">
        <ele>897</ele>
        <time>2022-07-18T13:00:54Z</time>
      </trkpt>
      <trkpt lat="44.50232" lon="7.12214">
        <ele>897</ele>
        <time>2022-07-18T13:00:55Z</time>
      </trkpt>
      <trkpt lat="44.50227" lon="7.12211">
        <ele>896.8</ele>
        <time>2022-07-18T13:00:56Z</time>
      </trkpt>
      <trkpt lat="44.50222" lon="7.12208">
        <ele>896.8</ele>
        <time>2022-07-18T13:00:57Z</time>
      </trkpt>
      <trkpt lat="44.50216" lon="7.12205">
        <ele>896.6</ele>
        <time>2022-07-18T13:00:58Z</time>
      </trkpt>
      <trkpt lat="44.5021" lon="7.12202">
        <ele>896.6</ele>
        <time>2022-07-18T13:00:59Z</time>
      </trkpt>
      <trkpt lat="44.50204" lon="7.12198">
        <ele>896.6</ele>
        <time>2022-07-18T13:01:00Z</time>
      </trkpt>
      <trkpt lat="44.50199" lon="7.12193">
        <ele>897</ele>
        <time>2022-07-18T13:01:01Z</time>
      </trkpt>
      <trkpt lat="44.50195" lon="7.12187">
        <ele>897</ele>
        <time>2022-07-18T13:01:02Z</time>
      </trkpt>
      <trkpt lat="44.50191" lon="7.12179">
        <ele>897.4</ele>
        <time>2022-07-18T13:01:03Z</time>
      </trkpt>
      <trkpt lat="44.50189" lon="7.12171">
        <ele>897.4</ele>
        <time>2022-07-18T13:01:04Z</time>
      </trkpt>
      <trkpt lat="44.50187" lon="7.12163">
        <ele>897.6</ele>
        <time>2022-07-18T13:01:05Z</time>
      </trkpt>
      <trkpt lat="44.50185" lon="7.12154">
        <ele>897.6</ele>
        <time>2022-07-18T13:01:06Z</time>
      </trkpt>
      <trkpt lat="44.50184" lon="7.12145">
        <ele>897.6</ele>
        <time>2022-07-18T13:01:07Z</time>
      </trkpt>
      <trkpt lat="44.50183" lon="7.12137">
        <ele>897.8</ele>
        <time>2022-07-18T13:01:08Z</time>
      </trkpt>
      <trkpt lat="44.50182" lon="7.12127">
        <ele>897.8</ele>
        <time>2022-07-18T13:01:09Z</time>
      </trkpt>
      <trkpt lat="44.50181" lon="7.12118">
        <ele>897.8</ele>
        <time>2022-07-18T13:01:10Z</time>
      </trkpt>
      <trkpt lat="44.50181" lon="7.12109">
        <ele>897.8</ele>
        <time>2022-07-18T13:01:11Z</time>
      </trkpt>
      <trkpt lat="44.5018" lon="7.12099">
        <ele>897.8</ele>
        <time>2022-07-18T13:01:12Z</time>
      </trkpt>
      <trkpt lat="44.50179" lon="7.1209">
        <ele>897.8</ele>
        <time>2022-07-18T13:01:13Z</time>
      </trkpt>
      <trkpt lat="44.50177" lon="7.12081">
        <ele>897.8</ele>
        <time>2022-07-18T13:01:14Z</time>
      </trkpt>
      <trkpt lat="44.50174" lon="7.12072">
        <ele>897.8</ele>
        <time>2022-07-18T13:01:15Z</time>
      </trkpt>
      <trkpt lat="44.5017" lon="7.12064">
        <ele>897.6</ele>
        <time>2022-07-18T13:01:16Z</time>
      </trkpt>
      <trkpt lat="44.50166" lon="7.12057">
        <ele>897.6</ele>
        <time>2022-07-18T13:01:17Z</time>
      </trkpt>
      <trkpt lat="44.50162" lon="7.12051">
        <ele>897.6</ele>
        <time>2022-07-18T13:01:18Z</time>
      </trkpt>
      <trkpt lat="44.50158" lon="7.12044">
        <ele>897.6</ele>
        <time>2022-07-18T13:01:19Z</time>
      </trkpt>
      <trkpt lat="44.50154" lon="7.12038">
        <ele>897.6</ele>
        <time>2022-07-18T13:01:20Z</time>
      </trkpt>
      <trkpt lat="44.5015" lon="7.12031">
        <ele>897.6</ele>
        <time>2022-07-18T13:01:21Z</time>
      </trkpt>
      <trkpt lat="44.50146" lon="7.12025">
        <ele>897.4</ele>
        <time>2022-07-18T13:01:22Z</time>
      </trkpt>
      <trkpt lat="44.50142" lon="7.12018">
        <ele>897.4</ele>
        <time>2022-07-18T13:01:23Z</time>
      </trkpt>
      <trkpt lat="44.50137" lon="7.12013">
        <ele>897.4</ele>
        <time>2022-07-18T13:01:24Z</time>
      </trkpt>
      <trkpt lat="44.50132" lon="7.12008">
        <ele>897.4</ele>
        <time>2022-07-18T13:01:25Z</time>
      </trkpt>
      <trkpt lat="44.50127" lon="7.12004">
        <ele>897.4</ele>
        <time>2022-07-18T13:01:26Z</time>
      </trkpt>
      <trkpt lat="44.50122" lon="7.12001">
        <ele>897.4</ele>
        <time>2022-07-18T13:01:27Z</time>
      </trkpt>
      <trkpt lat="44.50116" lon="7.11998">
        <ele>897.4</ele>
        <time>2022-07-18T13:01:28Z</time>
      </trkpt>
      <trkpt lat="44.50111" lon="7.11995">
        <ele>897.4</ele>
        <time>2022-07-18T13:01:29Z</time>
      </trkpt>
      <trkpt lat="44.50105" lon="7.11992">
        <ele>897.4</ele>
        <time>2022-07-18T13:01:30Z</time>
      </trkpt>
      <trkpt lat="44.501" lon="7.11989">
        <ele>897.4</ele>
        <time>2022-07-18T13:01:31Z</time>
      </trkpt>
      <trkpt lat="44.50094" lon="7.11986">
        <ele>897.4</ele>
        <time>2022-07-18T13:01:32Z</time>
      </trkpt>
      <trkpt lat="44.50088" lon="7.11983">
        <ele>897.6</ele>
        <time>2022-07-18T13:01:33Z</time>
      </trkpt>
      <trkpt lat="44.50083" lon="7.11981">
        <ele>897.6</ele>
        <time>2022-07-18T13:01:34Z</time>
      </trkpt>
      <trkpt lat="44.50077" lon="7.11978">
        <ele>898</ele>
        <time>2022-07-18T13:01:35Z</time>
      </trkpt>
      <trkpt lat="44.50072" lon="7.11975">
        <ele>898</ele>
        <time>2022-07-18T13:01:36Z</time>
      </trkpt>
      <trkpt lat="44.50067" lon="7.11972">
        <ele>898.2</ele>
        <time>2022-07-18T13:01:37Z</time>
      </trkpt>
      <trkpt lat="44.50063" lon="7.11969">
        <ele>898.2</ele>
        <time>2022-07-18T13:01:38Z</time>
      </trkpt>
      <trkpt lat="44.50058" lon="7.11965">
        <ele>898.4</ele>
        <time>2022-07-18T13:01:39Z</time>
      </trkpt>
      <trkpt lat="44.50054" lon="7.11961">
        <ele>898.4</ele>
        <time>2022-07-18T13:01:40Z</time>
      </trkpt>
      <trkpt lat="44.5005" lon="7.11956">
        <ele>898.8</ele>
        <time>2022-07-18T13:01:41Z</time>
      </trkpt>
      <trkpt lat="44.50046" lon="7.1195">
        <ele>898.8</ele>
        <time>2022-07-18T13:01:42Z</time>
      </trkpt>
      <trkpt lat="44.50043" lon="7.11943">
        <ele>899</ele>
        <time>2022-07-18T13:01:43Z</time>
      </trkpt>
      <trkpt lat="44.5004" lon="7.11936">
        <ele>899</ele>
        <time>2022-07-18T13:01:44Z</time>
      </trkpt>
      <trkpt lat="44.50037" lon="7.11928">
        <ele>899.2</ele>
        <time>2022-07-18T13:01:45Z</time>
      </trkpt>
      <trkpt lat="44.50034" lon="7.1192">
        <ele>899.2</ele>
        <time>2022-07-18T13:01:46Z</time>
      </trkpt>
      <trkpt lat="44.50032" lon="7.11911">
        <ele>899.6</ele>
        <time>2022-07-18T13:01:47Z</time>
      </trkpt>
      <trkpt lat="44.50031" lon="7.11902">
        <ele>899.6</ele>
        <time>2022-07-18T13:01:48Z</time>
      </trkpt>
      <trkpt lat="44.50032" lon="7.11893">
        <ele>900</ele>
        <time>2022-07-18T13:01:49Z</time>
      </trkpt>
      <trkpt lat="44.50034" lon="7.11883">
        <ele>900</ele>
        <time>2022-07-18T13:01:50Z</time>
      </trkpt>
      <trkpt lat="44.50036" lon="7.11874">
        <ele>900</ele>
        <time>2022-07-18T13:01:51Z</time>
      </trkpt>
      <trkpt lat="44.50038" lon="7.11864">
        <ele>900</ele>
        <time>2022-07-18T13:01:52Z</time>
      </trkpt>
      <trkpt lat="44.50039" lon="7.11854">
        <ele>900</ele>
        <time>2022-07-18T13:01:53Z</time>
      </trkpt>
      <trkpt lat="44.5004" lon="7.11844">
        <ele>900</ele>
        <time>2022-07-18T13:01:54Z</time>
      </trkpt>
      <trkpt lat="44.5004" lon="7.11834">
        <ele>899.8</ele>
        <time>2022-07-18T13:01:55Z</time>
      </trkpt>
      <trkpt lat="44.5004" lon="7.11824">
        <ele>899.8</ele>
        <time>2022-07-18T13:01:56Z</time>
      </trkpt>
      <trkpt lat="44.5004" lon="7.11814">
        <ele>899.4</ele>
        <time>2022-07-18T13:01:57Z</time>
      </trkpt>
      <trkpt lat="44.5004" lon="7.11804">
        <ele>899.4</ele>
        <time>2022-07-18T13:01:58Z</time>
      </trkpt>
      <trkpt lat="44.50039" lon="7.11793">
        <ele>899.4</ele>
        <time>2022-07-18T13:01:59Z</time>
      </trkpt>
      <trkpt lat="44.50039" lon="7.11784">
        <ele>899.4</ele>
        <time>2022-07-18T13:02:00Z</time>
      </trkpt>
      <trkpt lat="44.50039" lon="7.11773">
        <ele>899.4</ele>
        <time>2022-07-18T13:02:01Z</time>
      </trkpt>
      <trkpt lat="44.50039" lon="7.11763">
        <ele>899.4</ele>
        <time>2022-07-18T13:02:02Z</time>
      </trkpt>
      <trkpt lat="44.50039" lon="7.11753">
        <ele>899.2</ele>
        <time>2022-07-18T13:02:03Z</time>
      </trkpt>
      <trkpt lat="44.50038" lon="7.11743">
        <ele>899.2</ele>
        <time>2022-07-18T13:02:04Z</time>
      </trkpt>
      <trkpt lat="44.50038" lon="7.11733">
        <ele>899</ele>
        <time>2022-07-18T13:02:05Z</time>
      </trkpt>
      <trkpt lat="44.50038" lon="7.11724">
        <ele>899</ele>
        <time>2022-07-18T13:02:06Z</time>
      </trkpt>
      <trkpt lat="44.50038" lon="7.11715">
        <ele>899</ele>
        <time>2022-07-18T13:02:07Z</time>
      </trkpt>
      <trkpt lat="44.50037" lon="7.11706">
        <ele>899</ele>
        <time>2022-07-18T13:02:08Z</time>
      </trkpt>
      <trkpt lat="44.50035" lon="7.11697">
        <ele>899</ele>
        <time>2022-07-18T13:02:09Z</time>
      </trkpt>
      <trkpt lat="44.50032" lon="7.11689">
        <ele>899</ele>
        <time>2022-07-18T13:02:10Z</time>
      </trkpt>
      <trkpt lat="44.50028" lon="7.11683">
        <ele>899.2</ele>
        <time>2022-07-18T13:02:11Z</time>
      </trkpt>
      <trkpt lat="44.50023" lon="7.11677">
        <ele>899.2</ele>
        <time>2022-07-18T13:02:12Z</time>
      </trkpt>
      <trkpt lat="44.50019" lon="7.11671">
        <ele>899.2</ele>
        <time>2022-07-18T13:02:13Z</time>
      </trkpt>
      <trkpt lat="44.50014" lon="7.11665">
        <ele>899.2</ele>
        <time>2022-07-18T13:02:14Z</time>
      </trkpt>
      <trkpt lat="44.50009" lon="7.1166">
        <ele>899.2</ele>
        <time>2022-07-18T13:02:15Z</time>
      </trkpt>
      <trkpt lat="44.50004" lon="7.11655">
        <ele>899.4</ele>
        <time>2022-07-18T13:02:16Z</time>
      </trkpt>
      <trkpt lat="44.49999" lon="7.1165">
        <ele>899.4</ele>
        <time>2022-07-18T13:02:17Z</time>
      </trkpt>
      <trkpt lat="44.49995" lon="7.11644">
        <ele>899.4</ele>
        <time>2022-07-18T13:02:18Z</time>
      </trkpt>
      <trkpt lat="44.49991" lon="7.11639">
        <ele>899.4</ele>
        <time>2022-07-18T13:02:19Z</time>
      </trkpt>
      <trkpt lat="44.49986" lon="7.11633">
        <ele>899.4</ele>
        <time>2022-07-18T13:02:20Z</time>
      </trkpt>
      <trkpt lat="44.49982" lon="7.11628">
        <ele>899.4</ele>
        <time>2022-07-18T13:02:21Z</time>
      </trkpt>
      <trkpt lat="44.49978" lon="7.11622">
        <ele>899.4</ele>
        <time>2022-07-18T13:02:22Z</time>
      </trkpt>
      <trkpt lat="44.49974" lon="7.11616">
        <ele>899.4</ele>
        <time>2022-07-18T13:02:23Z</time>
      </trkpt>
      <trkpt lat="44.49969" lon="7.1161">
        <ele>899.4</ele>
        <time>2022-07-18T13:02:24Z</time>
      </trkpt>
      <trkpt lat="44.49965" lon="7.11605">
        <ele>899.4</ele>
        <time>2022-07-18T13:02:25Z</time>
      </trkpt>
      <trkpt lat="44.49961" lon="7.11599">
        <ele>899.4</ele>
        <time>2022-07-18T13:02:26Z</time>
      </trkpt>
      <trkpt lat="44.49956" lon="7.11593">
        <ele>899.4</ele>
        <time>2022-07-18T13:02:27Z</time>
      </trkpt>
      <trkpt lat="44.49952" lon="7.11587">
        <ele>899.4</ele>
        <time>2022-07-18T13:02:28Z</time>
      </trkpt>
      <trkpt lat="44.49948" lon="7.11582">
        <ele>899.4</ele>
        <time>2022-07-18T13:02:29Z</time>
      </trkpt>
      <trkpt lat="44.49944" lon="7.11576">
        <ele>899.6</ele>
        <time>2022-07-18T13:02:30Z</time>
      </trkpt>
      <trkpt lat="44.4994" lon="7.11571">
        <ele>899.6</ele>
        <time>2022-07-18T13:02:31Z</time>
      </trkpt>
      <trkpt lat="44.49935" lon="7.11567">
        <ele>899.6</ele>
        <time>2022-07-18T13:02:32Z</time>
      </trkpt>
      <trkpt lat="44.4993" lon="7.11564">
        <ele>899.6</ele>
        <time>2022-07-18T13:02:33Z</time>
      </trkpt>
      <trkpt lat="44.49925" lon="7.11562">
        <ele>899.8</ele>
        <time>2022-07-18T13:02:34Z</time>
      </trkpt>
      <trkpt lat="44.4992" lon="7.1156">
        <ele>899.8</ele>
        <time>2022-07-18T13:02:35Z</time>
      </trkpt>
      <trkpt lat="44.49914" lon="7.11557">
        <ele>899.8</ele>
        <time>2022-07-18T13:02:36Z</time>
      </trkpt>
      <trkpt lat="44.49909" lon="7.11552">
        <ele>900.2</ele>
        <time>2022-07-18T13:02:37Z</time>
      </trkpt>
      <trkpt lat="44.49906" lon="7.11545">
        <ele>900.2</ele>
        <time>2022-07-18T13:02:38Z</time>
      </trkpt>
      <trkpt lat="44.49903" lon="7.11537">
        <ele>900.4</ele>
        <time>2022-07-18T13:02:39Z</time>
      </trkpt>
      <trkpt lat="44.49902" lon="7.11529">
        <ele>900.4</ele>
        <time>2022-07-18T13:02:40Z</time>
      </trkpt>
      <trkpt lat="44.49901" lon="7.11521">
        <ele>900.4</ele>
        <time>2022-07-18T13:02:41Z</time>
      </trkpt>
      <trkpt lat="44.499" lon="7.11513">
        <ele>900.8</ele>
        <time>2022-07-18T13:02:42Z</time>
      </trkpt>
      <trkpt lat="44.49899" lon="7.11503">
        <ele>900.8</ele>
        <time>2022-07-18T13:02:43Z</time>
      </trkpt>
      <trkpt lat="44.49898" lon="7.11494">
        <ele>901</ele>
        <time>2022-07-18T13:02:44Z</time>
      </trkpt>
      <trkpt lat="44.49897" lon="7.11486">
        <ele>901</ele>
        <time>2022-07-18T13:02:45Z</time>
      </trkpt>
      <trkpt lat="44.49897" lon="7.11477">
        <ele>901.2</ele>
        <time>2022-07-18T13:02:46Z</time>
      </trkpt>
      <trkpt lat="44.49897" lon="7.11469">
        <ele>901.2</ele>
        <time>2022-07-18T13:02:47Z</time>
      </trkpt>
      <trkpt lat="44.49897" lon="7.11461">
        <ele>901.2</ele>
        <time>2022-07-18T13:02:48Z</time>
      </trkpt>
      <trkpt lat="44.49897" lon="7.11453">
        <ele>901.2</ele>
        <time>2022-07-18T13:02:49Z</time>
      </trkpt>
      <trkpt lat="44.49898" lon="7.11445">
        <ele>901.2</ele>
        <time>2022-07-18T13:02:50Z</time>
      </trkpt>
      <trkpt lat="44.49899" lon="7.11436">
        <ele>901.2</ele>
        <time>2022-07-18T13:02:51Z</time>
      </trkpt>
      <trkpt lat="44.49901" lon="7.11428">
        <ele>901.4</ele>
        <time>2022-07-18T13:02:52Z</time>
      </trkpt>
      <trkpt lat="44.49903" lon="7.1142">
        <ele>901.6</ele>
        <time>2022-07-18T13:02:53Z</time>
      </trkpt>
      <trkpt lat="44.49904" lon="7.11412">
        <ele>902</ele>
        <time>2022-07-18T13:02:54Z</time>
      </trkpt>
      <trkpt lat="44.49904" lon="7.11405">
        <ele>902</ele>
        <time>2022-07-18T13:02:55Z</time>
      </trkpt>
      <trkpt lat="44.49904" lon="7.11397">
        <ele>902</ele>
        <time>2022-07-18T13:02:56Z</time>
      </trkpt>
      <trkpt lat="44.49903" lon="7.1139">
        <ele>902</ele>
        <time>2022-07-18T13:02:57Z</time>
      </trkpt>
      <trkpt lat="44.49901" lon="7.11383">
        <ele>902</ele>
        <time>2022-07-18T13:02:58Z</time>
      </trkpt>
      <trkpt lat="44.49898" lon="7.11377">
        <ele>902</ele>
        <time>2022-07-18T13:02:59Z</time>
      </trkpt>
      <trkpt lat="44.49894" lon="7.11371">
        <ele>902</ele>
        <time>2022-07-18T13:03:00Z</time>
      </trkpt>
      <trkpt lat="44.4989" lon="7.11366">
        <ele>902</ele>
        <time>2022-07-18T13:03:01Z</time>
      </trkpt>
      <trkpt lat="44.49885" lon="7.11362">
        <ele>902</ele>
        <time>2022-07-18T13:03:02Z</time>
      </trkpt>
      <trkpt lat="44.49881" lon="7.11357">
        <ele>902</ele>
        <time>2022-07-18T13:03:03Z</time>
      </trkpt>
      <trkpt lat="44.49877" lon="7.11351">
        <ele>901.6</ele>
        <time>2022-07-18T13:03:04Z</time>
      </trkpt>
      <trkpt lat="44.49874" lon="7.11344">
        <ele>901.4</ele>
        <time>2022-07-18T13:03:05Z</time>
      </trkpt>
      <trkpt lat="44.49871" lon="7.11336">
        <ele>901.4</ele>
        <time>2022-07-18T13:03:06Z</time>
      </trkpt>
      <trkpt lat="44.49869" lon="7.11328">
        <ele>901.4</ele>
        <time>2022-07-18T13:03:07Z</time>
      </trkpt>
      <trkpt lat="44.49867" lon="7.11319">
        <ele>901</ele>
        <time>2022-07-18T13:03:08Z</time>
      </trkpt>
      <trkpt lat="44.49867" lon="7.11311">
        <ele>901</ele>
        <time>2022-07-18T13:03:09Z</time>
      </trkpt>
      <trkpt lat="44.49866" lon="7.11302">
        <ele>901</ele>
        <time>2022-07-18T13:03:10Z</time>
      </trkpt>
      <trkpt lat="44.49864" lon="7.11294">
        <ele>901</ele>
        <time>2022-07-18T13:03:11Z</time>
      </trkpt>
      <trkpt lat="44.49863" lon="7.11286">
        <ele>901</ele>
        <time>2022-07-18T13:03:12Z</time>
      </trkpt>
      <trkpt lat="44.49861" lon="7.11279">
        <ele>901</ele>
        <time>2022-07-18T13:03:13Z</time>
      </trkpt>
      <trkpt lat="44.49859" lon="7.11272">
        <ele>901</ele>
        <time>2022-07-18T13:03:14Z</time>
      </trkpt>
      <trkpt lat="44.49856" lon="7.11265">
        <ele>900.8</ele>
        <time>2022-07-18T13:03:15Z</time>
      </trkpt>
      <trkpt lat="44.49852" lon="7.11258">
        <ele>900.8</ele>
        <time>2022-07-18T13:03:16Z</time>
      </trkpt>
      <trkpt lat="44.49849" lon="7.11252">
        <ele>900.8</ele>
        <time>2022-07-18T13:03:17Z</time>
      </trkpt>
      <trkpt lat="44.49845" lon="7.11246">
        <ele>900.6</ele>
        <time>2022-07-18T13:03:18Z</time>
      </trkpt>
      <trkpt lat="44.49842" lon="7.11239">
        <ele>900.6</ele>
        <time>2022-07-18T13:03:19Z</time>
      </trkpt>
      <trkpt lat="44.49838" lon="7.11234">
        <ele>900.6</ele>
        <time>2022-07-18T13:03:20Z</time>
      </trkpt>
      <trkpt lat="44.49834" lon="7.11229">
        <ele>900.6</ele>
        <time>2022-07-18T13:03:21Z</time>
      </trkpt>
      <trkpt lat="44.49829" lon="7.11224">
        <ele>900.6</ele>
        <time>2022-07-18T13:03:22Z</time>
      </trkpt>
      <trkpt lat="44.49825" lon="7.11219">
        <ele>900.6</ele>
        <time>2022-07-18T13:03:23Z</time>
      </trkpt>
      <trkpt lat="44.49821" lon="7.11213">
        <ele>900.6</ele>
        <time>2022-07-18T13:03:24Z</time>
      </trkpt>
      <trkpt lat="44.49818" lon="7.11206">
        <ele>900.6</ele>
        <time>2022-07-18T13:03:25Z</time>
      </trkpt>
      <trkpt lat="44.49815" lon="7.11199">
        <ele>900.6</ele>
        <time>2022-07-18T13:03:26Z</time>
      </trkpt>
      <trkpt lat="44.49812" lon="7.11192">
        <ele>900.6</ele>
        <time>2022-07-18T13:03:27Z</time>
      </trkpt>
      <trkpt lat="44.4981" lon="7.11185">
        <ele>900.6</ele>
        <time>2022-07-18T13:03:28Z</time>
      </trkpt>
      <trkpt lat="44.49808" lon="7.11179">
        <ele>900.4</ele>
        <time>2022-07-18T13:03:29Z</time>
      </trkpt>
      <trkpt lat="44.49805" lon="7.11173">
        <ele>900.4</ele>
        <time>2022-07-18T13:03:30Z</time>
      </trkpt>
      <trkpt lat="44.49802" lon="7.11167">
        <ele>900.4</ele>
        <time>2022-07-18T13:03:31Z</time>
      </trkpt>
      <trkpt lat="44.49798" lon="7.11161">
        <ele>900.4</ele>
        <time>2022-07-18T13:03:32Z</time>
      </trkpt>
      <trkpt lat="44.49795" lon="7.11155">
        <ele>900.4</ele>
        <time>2022-07-18T13:03:33Z</time>
      </trkpt>
      <trkpt lat="44.49791" lon="7.1115">
        <ele>900.4</ele>
        <time>2022-07-18T13:03:34Z</time>
      </trkpt>
      <trkpt lat="44.49788" lon="7.11144">
        <ele>900.4</ele>
        <time>2022-07-18T13:03:35Z</time>
      </trkpt>
      <trkpt lat="44.49785" lon="7.11137">
        <ele>900.4</ele>
        <time>2022-07-18T13:03:36Z</time>
      </trkpt>
      <trkpt lat="44.49783" lon="7.1113">
        <ele>900.4</ele>
        <time>2022-07-18T13:03:37Z</time>
      </trkpt>
      <trkpt lat="44.49782" lon="7.11123">
        <ele>900.4</ele>
        <time>2022-07-18T13:03:38Z</time>
      </trkpt>
      <trkpt lat="44.49781" lon="7.11116">
        <ele>900.4</ele>
        <time>2022-07-18T13:03:39Z</time>
      </trkpt>
      <trkpt lat="44.4978" lon="7.11107">
        <ele>900.8</ele>
        <time>2022-07-18T13:03:40Z</time>
      </trkpt>
      <trkpt lat="44.4978" lon="7.11099">
        <ele>900.8</ele>
        <time>2022-07-18T13:03:41Z</time>
      </trkpt>
      <trkpt lat="44.49782" lon="7.1109">
        <ele>901</ele>
        <time>2022-07-18T13:03:42Z</time>
      </trkpt>
      <trkpt lat="44.49784" lon="7.11081">
        <ele>901</ele>
        <time>2022-07-18T13:03:43Z</time>
      </trkpt>
      <trkpt lat="44.49786" lon="7.11073">
        <ele>901</ele>
        <time>2022-07-18T13:03:44Z</time>
      </trkpt>
      <trkpt lat="44.49788" lon="7.11065">
        <ele>901</ele>
        <time>2022-07-18T13:03:45Z</time>
      </trkpt>
      <trkpt lat="44.49789" lon="7.11057">
        <ele>901</ele>
        <time>2022-07-18T13:03:46Z</time>
      </trkpt>
      <trkpt lat="44.49789" lon="7.11049">
        <ele>901</ele>
        <time>2022-07-18T13:03:47Z</time>
      </trkpt>
      <trkpt lat="44.4979" lon="7.11041">
        <ele>901.2</ele>
        <time>2022-07-18T13:03:48Z</time>
      </trkpt>
      <trkpt lat="44.4979" lon="7.11033">
        <ele>901.2</ele>
        <time>2022-07-18T13:03:49Z</time>
      </trkpt>
      <trkpt lat="44.49789" lon="7.11025">
        <ele>901.2</ele>
        <time>2022-07-18T13:03:50Z</time>
      </trkpt>
      <trkpt lat="44.49787" lon="7.11016">
        <ele>901.2</ele>
        <time>2022-07-18T13:03:51Z</time>
      </trkpt>
      <trkpt lat="44.49785" lon="7.11008">
        <ele>901.4</ele>
        <time>2022-07-18T13:03:52Z</time>
      </trkpt>
      <trkpt lat="44.49781" lon="7.11001">
        <ele>901.4</ele>
        <time>2022-07-18T13:03:53Z</time>
      </trkpt>
      <trkpt lat="44.49777" lon="7.10994">
        <ele>901.6</ele>
        <time>2022-07-18T13:03:54Z</time>
      </trkpt>
      <trkpt lat="44.49773" lon="7.10988">
        <ele>901.6</ele>
        <time>2022-07-18T13:03:55Z</time>
      </trkpt>
      <trkpt lat="44.49769" lon="7.10981">
        <ele>901.6</ele>
        <time>2022-07-18T13:03:56Z</time>
      </trkpt>
      <trkpt lat="44.49766" lon="7.10975">
        <ele>901.6</ele>
        <time>2022-07-18T13:03:57Z</time>
      </trkpt>
      <trkpt lat="44.49762" lon="7.10968">
        <ele>901.6</ele>
        <time>2022-07-18T13:03:58Z</time>
      </trkpt>
      <trkpt lat="44.49759" lon="7.10962">
        <ele>901.6</ele>
        <time>2022-07-18T13:03:59Z</time>
      </trkpt>
      <trkpt lat="44.49756" lon="7.10955">
        <ele>901.6</ele>
        <time>2022-07-18T13:04:00Z</time>
      </trkpt>
      <trkpt lat="44.49754" lon="7.10948">
        <ele>901.8</ele>
        <time>2022-07-18T13:04:01Z</time>
      </trkpt>
      <trkpt lat="44.49752" lon="7.1094">
        <ele>901.8</ele>
        <time>2022-07-18T13:04:02Z</time>
      </trkpt>
      <trkpt lat="44.4975" lon="7.10933">
        <ele>901.8</ele>
        <time>2022-07-18T13:04:03Z</time>
      </trkpt>
      <trkpt lat="44.49749" lon="7.10925">
        <ele>901.8</ele>
        <time>2022-07-18T13:04:04Z</time>
      </trkpt>
      <trkpt lat="44.49747" lon="7.10917">
        <ele>901.8</ele>
        <time>2022-07-18T13:04:05Z</time>
      </trkpt>
      <trkpt lat="44.49746" lon="7.10909">
        <ele>902</ele>
        <time>2022-07-18T13:04:06Z</time>
      </trkpt>
      <trkpt lat="44.49745" lon="7.109">
        <ele>902</ele>
        <time>2022-07-18T13:04:07Z</time>
      </trkpt>
      <trkpt lat="44.49743" lon="7.10892">
        <ele>902</ele>
        <time>2022-07-18T13:04:08Z</time>
      </trkpt>
      <trkpt lat="44.4974" lon="7.10884">
        <ele>902</ele>
        <time>2022-07-18T13:04:09Z</time>
      </trkpt>
      <trkpt lat="44.49738" lon="7.10876">
        <ele>902</ele>
        <time>2022-07-18T13:04:10Z</time>
      </trkpt>
      <trkpt lat="44.49735" lon="7.10868">
        <ele>902</ele>
        <time>2022-07-18T13:04:11Z</time>
      </trkpt>
      <trkpt lat="44.49733" lon="7.10861">
        <ele>902.4</ele>
        <time>2022-07-18T13:04:12Z</time>
      </trkpt>
      <trkpt lat="44.49731" lon="7.10853">
        <ele>902.4</ele>
        <time>2022-07-18T13:04:13Z</time>
      </trkpt>
      <trkpt lat="44.49729" lon="7.10846">
        <ele>902.4</ele>
        <time>2022-07-18T13:04:14Z</time>
      </trkpt>
      <trkpt lat="44.49727" lon="7.10838">
        <ele>902.6</ele>
        <time>2022-07-18T13:04:15Z</time>
      </trkpt>
      <trkpt lat="44.49725" lon="7.1083">
        <ele>902.6</ele>
        <time>2022-07-18T13:04:16Z</time>
      </trkpt>
      <trkpt lat="44.49724" lon="7.10822">
        <ele>902.6</ele>
        <time>2022-07-18T13:04:17Z</time>
      </trkpt>
      <trkpt lat="44.49723" lon="7.10814">
        <ele>902.6</ele>
        <time>2022-07-18T13:04:18Z</time>
      </trkpt>
      <trkpt lat="44.49722" lon="7.10807">
        <ele>902.6</ele>
        <time>2022-07-18T13:04:19Z</time>
      </trkpt>
      <trkpt lat="44.49721" lon="7.10799">
        <ele>902.8</ele>
        <time>2022-07-18T13:04:20Z</time>
      </trkpt>
      <trkpt lat="44.49719" lon="7.10791">
        <ele>902.8</ele>
        <time>2022-07-18T13:04:21Z</time>
      </trkpt>
      <trkpt lat="44.49717" lon="7.10784">
        <ele>902.8</ele>
        <time>2022-07-18T13:04:22Z</time>
      </trkpt>
      <trkpt lat="44.49715" lon="7.10777">
        <ele>902.8</ele>
        <time>2022-07-18T13:04:23Z</time>
      </trkpt>
      <trkpt lat="44.49712" lon="7.10769">
        <ele>902.8</ele>
        <time>2022-07-18T13:04:24Z</time>
      </trkpt>
      <trkpt lat="44.49708" lon="7.10762">
        <ele>902.8</ele>
        <time>2022-07-18T13:04:25Z</time>
      </trkpt>
      <trkpt lat="44.49705" lon="7.10754">
        <ele>902.8</ele>
        <time>2022-07-18T13:04:26Z</time>
      </trkpt>
      <trkpt lat="44.49701" lon="7.10746">
        <ele>902.8</ele>
        <time>2022-07-18T13:04:27Z</time>
      </trkpt>
      <trkpt lat="44.49697" lon="7.10738">
        <ele>902.6</ele>
        <time>2022-07-18T13:04:28Z</time>
      </trkpt>
      <trkpt lat="44.49694" lon="7.10731">
        <ele>902.6</ele>
        <time>2022-07-18T13:04:29Z</time>
      </trkpt>
      <trkpt lat="44.4969" lon="7.10725">
        <ele>902.4</ele>
        <time>2022-07-18T13:04:30Z</time>
      </trkpt>
      <trkpt lat="44.49686" lon="7.10718">
        <ele>902.4</ele>
        <time>2022-07-18T13:04:31Z</time>
      </trkpt>
      <trkpt lat="44.49682" lon="7.10712">
        <ele>902.4</ele>
        <time>2022-07-18T13:04:32Z</time>
      </trkpt>
      <trkpt lat="44.49678" lon="7.10706">
        <ele>902</ele>
        <time>2022-07-18T13:04:33Z</time>
      </trkpt>
      <trkpt lat="44.49674" lon="7.107">
        <ele>902</ele>
        <time>2022-07-18T13:04:34Z</time>
      </trkpt>
      <trkpt lat="44.4967" lon="7.10693">
        <ele>902</ele>
        <time>2022-07-18T13:04:35Z</time>
      </trkpt>
      <trkpt lat="44.49667" lon="7.10685">
        <ele>902.2</ele>
        <time>2022-07-18T13:04:36Z</time>
      </trkpt>
      <trkpt lat="44.49664" lon="7.10677">
        <ele>902.2</ele>
        <time>2022-07-18T13:04:37Z</time>
      </trkpt>
      <trkpt lat="44.49663" lon="7.10668">
        <ele>902.2</ele>
        <time>2022-07-18T13:04:38Z</time>
      </trkpt>
      <trkpt lat="44.49664" lon="7.1066">
        <ele>902.4</ele>
        <time>2022-07-18T13:04:39Z</time>
      </trkpt>
      <trkpt lat="44.49665" lon="7.10651">
        <ele>902.4</ele>
        <time>2022-07-18T13:04:40Z</time>
      </trkpt>
      <trkpt lat="44.49667" lon="7.10643">
        <ele>902.4</ele>
        <time>2022-07-18T13:04:41Z</time>
      </trkpt>
      <trkpt lat="44.49668" lon="7.10634">
        <ele>902.4</ele>
        <time>2022-07-18T13:04:42Z</time>
      </trkpt>
      <trkpt lat="44.49669" lon="7.10626">
        <ele>902.4</ele>
        <time>2022-07-18T13:04:43Z</time>
      </trkpt>
      <trkpt lat="44.4967" lon="7.10618">
        <ele>902.4</ele>
        <time>2022-07-18T13:04:44Z</time>
      </trkpt>
      <trkpt lat="44.49671" lon="7.10609">
        <ele>902.4</ele>
        <time>2022-07-18T13:04:45Z</time>
      </trkpt>
      <trkpt lat="44.49672" lon="7.10602">
        <ele>902.4</ele>
        <time>2022-07-18T13:04:46Z</time>
      </trkpt>
      <trkpt lat="44.49674" lon="7.10594">
        <ele>902.8</ele>
        <time>2022-07-18T13:04:47Z</time>
      </trkpt>
      <trkpt lat="44.49676" lon="7.10585">
        <ele>902.8</ele>
        <time>2022-07-18T13:04:48Z</time>
      </trkpt>
      <trkpt lat="44.49678" lon="7.10575">
        <ele>902.8</ele>
        <time>2022-07-18T13:04:49Z</time>
      </trkpt>
      <trkpt lat="44.49678" lon="7.10567">
        <ele>902.8</ele>
        <time>2022-07-18T13:04:50Z</time>
      </trkpt>
      <trkpt lat="44.49678" lon="7.10558">
        <ele>903</ele>
        <time>2022-07-18T13:04:51Z</time>
      </trkpt>
      <trkpt lat="44.49679" lon="7.10549">
        <ele>903</ele>
        <time>2022-07-18T13:04:52Z</time>
      </trkpt>
      <trkpt lat="44.49679" lon="7.10541">
        <ele>903</ele>
        <time>2022-07-18T13:04:53Z</time>
      </trkpt>
      <trkpt lat="44.49679" lon="7.10533">
        <ele>903</ele>
        <time>2022-07-18T13:04:54Z</time>
      </trkpt>
      <trkpt lat="44.49679" lon="7.10524">
        <ele>903</ele>
        <time>2022-07-18T13:04:55Z</time>
      </trkpt>
      <trkpt lat="44.49678" lon="7.10516">
        <ele>903</ele>
        <time>2022-07-18T13:04:56Z</time>
      </trkpt>
      <trkpt lat="44.49677" lon="7.10508">
        <ele>903</ele>
        <time>2022-07-18T13:04:57Z</time>
      </trkpt>
      <trkpt lat="44.49677" lon="7.105">
        <ele>902.8</ele>
        <time>2022-07-18T13:04:58Z</time>
      </trkpt>
      <trkpt lat="44.49676" lon="7.10492">
        <ele>902.8</ele>
        <time>2022-07-18T13:04:59Z</time>
      </trkpt>
      <trkpt lat="44.49674" lon="7.10484">
        <ele>902.8</ele>
        <time>2022-07-18T13:05:00Z</time>
      </trkpt>
      <trkpt lat="44.49672" lon="7.10477">
        <ele>902.8</ele>
        <time>2022-07-18T13:05:01Z</time>
      </trkpt>
      <trkpt lat="44.49669" lon="7.1047">
        <ele>902.8</ele>
        <time>2022-07-18T13:05:02Z</time>
      </trkpt>
      <trkpt lat="44.49666" lon="7.10463">
        <ele>902.8</ele>
        <time>2022-07-18T13:05:03Z</time>
      </trkpt>
      <trkpt lat="44.49663" lon="7.10456">
        <ele>902.8</ele>
        <time>2022-07-18T13:05:04Z</time>
      </trkpt>
      <trkpt lat="44.49659" lon="7.1045">
        <ele>902.6</ele>
        <time>2022-07-18T13:05:05Z</time>
      </trkpt>
      <trkpt lat="44.49656" lon="7.10443">
        <ele>902.6</ele>
        <time>2022-07-18T13:05:06Z</time>
      </trkpt>
      <trkpt lat="44.49652" lon="7.10437">
        <ele>902.6</ele>
        <time>2022-07-18T13:05:07Z</time>
      </trkpt>
      <trkpt lat="44.49645" lon="7.10431">
        <ele>902.6</ele>
        <time>2022-07-18T13:05:08Z</time>
      </trkpt>
      <trkpt lat="44.49638" lon="7.10425">
        <ele>902.6</ele>
        <time>2022-07-18T13:05:09Z</time>
      </trkpt>
      <trkpt lat="44.49631" lon="7.1042">
        <ele>902.6</ele>
        <time>2022-07-18T13:05:10Z</time>
      </trkpt>
      <trkpt lat="44.49625" lon="7.10415">
        <ele>902.6</ele>
        <time>2022-07-18T13:05:11Z</time>
      </trkpt>
      <trkpt lat="44.49619" lon="7.10411">
        <ele>902.6</ele>
        <time>2022-07-18T13:05:12Z</time>
      </trkpt>
      <trkpt lat="44.49615" lon="7.10405">
        <ele>902.6</ele>
        <time>2022-07-18T13:05:13Z</time>
      </trkpt>
      <trkpt lat="44.4961" lon="7.104">
        <ele>902.6</ele>
        <time>2022-07-18T13:05:14Z</time>
      </trkpt>
      <trkpt lat="44.49604" lon="7.10395">
        <ele>902.6</ele>
        <time>2022-07-18T13:05:15Z</time>
      </trkpt>
      <trkpt lat="44.49599" lon="7.10391">
        <ele>902.6</ele>
        <time>2022-07-18T13:05:16Z</time>
      </trkpt>
      <trkpt lat="44.49594" lon="7.10388">
        <ele>902.6</ele>
        <time>2022-07-18T13:05:17Z</time>
      </trkpt>
      <trkpt lat="44.49589" lon="7.10384">
        <ele>902.6</ele>
        <time>2022-07-18T13:05:18Z</time>
      </trkpt>
      <trkpt lat="44.49585" lon="7.1038">
        <ele>903</ele>
        <time>2022-07-18T13:05:19Z</time>
      </trkpt>
      <trkpt lat="44.4958" lon="7.10376">
        <ele>903</ele>
        <time>2022-07-18T13:05:20Z</time>
      </trkpt>
      <trkpt lat="44.49576" lon="7.10371">
        <ele>903</ele>
        <time>2022-07-18T13:05:21Z</time>
      </trkpt>
      <trkpt lat="44.4957" lon="7.10371">
        <ele>903</ele>
        <time>2022-07-18T13:05:22Z</time>
      </trkpt>
      <trkpt lat="44.49565" lon="7.10368">
        <ele>903.2</ele>
        <time>2022-07-18T13:05:23Z</time>
      </trkpt>
      <trkpt lat="44.4956" lon="7.10365">
        <ele>903.2</ele>
        <time>2022-07-18T13:05:24Z</time>
      </trkpt>
      <trkpt lat="44.49556" lon="7.1036">
        <ele>903.2</ele>
        <time>2022-07-18T13:05:25Z</time>
      </trkpt>
      <trkpt lat="44.49552" lon="7.10355">
        <ele>903.4</ele>
        <time>2022-07-18T13:05:26Z</time>
      </trkpt>
      <trkpt lat="44.49548" lon="7.10349">
        <ele>903.8</ele>
        <time>2022-07-18T13:05:27Z</time>
      </trkpt>
      <trkpt lat="44.49543" lon="7.10344">
        <ele>904</ele>
        <time>2022-07-18T13:05:28Z</time>
      </trkpt>
      <trkpt lat="44.49539" lon="7.10339">
        <ele>904.2</ele>
        <time>2022-07-18T13:05:29Z</time>
      </trkpt>
      <trkpt lat="44.49534" lon="7.10335">
        <ele>904.2</ele>
        <time>2022-07-18T13:05:30Z</time>
      </trkpt>
      <trkpt lat="44.49529" lon="7.10331">
        <ele>904.2</ele>
        <time>2022-07-18T13:05:31Z</time>
      </trkpt>
      <trkpt lat="44.49524" lon="7.10326">
        <ele>904.4</ele>
        <time>2022-07-18T13:05:32Z</time>
      </trkpt>
      <trkpt lat="44.4952" lon="7.1032">
        <ele>904.6</ele>
        <time>2022-07-18T13:05:33Z</time>
      </trkpt>
      <trkpt lat="44.49516" lon="7.10315">
        <ele>904.8</ele>
        <time>2022-07-18T13:05:34Z</time>
      </trkpt>
      <trkpt lat="44.49512" lon="7.1031">
        <ele>904.8</ele>
        <time>2022-07-18T13:05:35Z</time>
      </trkpt>
      <trkpt lat="44.49508" lon="7.10304">
        <ele>905.2</ele>
        <time>2022-07-18T13:05:36Z</time>
      </trkpt>
      <trkpt lat="44.49505" lon="7.10297">
        <ele>905.2</ele>
        <time>2022-07-18T13:05:37Z</time>
      </trkpt>
      <trkpt lat="44.49503" lon="7.1029">
        <ele>905.4</ele>
        <time>2022-07-18T13:05:38Z</time>
      </trkpt>
      <trkpt lat="44.49501" lon="7.10283">
        <ele>905.4</ele>
        <time>2022-07-18T13:05:39Z</time>
      </trkpt>
      <trkpt lat="44.49499" lon="7.10276">
        <ele>905.4</ele>
        <time>2022-07-18T13:05:40Z</time>
      </trkpt>
      <trkpt lat="44.49497" lon="7.10269">
        <ele>905.4</ele>
        <time>2022-07-18T13:05:41Z</time>
      </trkpt>
      <trkpt lat="44.49495" lon="7.10263">
        <ele>905.8</ele>
        <time>2022-07-18T13:05:42Z</time>
      </trkpt>
      <trkpt lat="44.49494" lon="7.10257">
        <ele>905.8</ele>
        <time>2022-07-18T13:05:43Z</time>
      </trkpt>
      <trkpt lat="44.49492" lon="7.10251">
        <ele>906</ele>
        <time>2022-07-18T13:05:44Z</time>
      </trkpt>
      <trkpt lat="44.49491" lon="7.10244">
        <ele>906</ele>
        <time>2022-07-18T13:05:45Z</time>
      </trkpt>
      <trkpt lat="44.4949" lon="7.10238">
        <ele>906.2</ele>
        <time>2022-07-18T13:05:46Z</time>
      </trkpt>
      <trkpt lat="44.49488" lon="7.10233">
        <ele>906.2</ele>
        <time>2022-07-18T13:05:47Z</time>
      </trkpt>
      <trkpt lat="44.49487" lon="7.10227">
        <ele>906.6</ele>
        <time>2022-07-18T13:05:48Z</time>
      </trkpt>
      <trkpt lat="44.49486" lon="7.1022">
        <ele>906.6</ele>
        <time>2022-07-18T13:05:49Z</time>
      </trkpt>
      <trkpt lat="44.49485" lon="7.10213">
        <ele>907</ele>
        <time>2022-07-18T13:05:50Z</time>
      </trkpt>
      <trkpt lat="44.49485" lon="7.10206">
        <ele>907</ele>
        <time>2022-07-18T13:05:51Z</time>
      </trkpt>
      <trkpt lat="44.49484" lon="7.102">
        <ele>907.2</ele>
        <time>2022-07-18T13:05:52Z</time>
      </trkpt>
      <trkpt lat="44.49484" lon="7.10193">
        <ele>907.2</ele>
        <time>2022-07-18T13:05:53Z</time>
      </trkpt>
      <trkpt lat="44.49484" lon="7.10187">
        <ele>907.6</ele>
        <time>2022-07-18T13:05:54Z</time>
      </trkpt>
      <trkpt lat="44.49484" lon="7.10181">
        <ele>907.6</ele>
        <time>2022-07-18T13:05:55Z</time>
      </trkpt>
      <trkpt lat="44.49485" lon="7.10175">
        <ele>907.8</ele>
        <time>2022-07-18T13:05:56Z</time>
      </trkpt>
      <trkpt lat="44.49481" lon="7.10171">
        <ele>907.8</ele>
        <time>2022-07-18T13:05:57Z</time>
      </trkpt>
      <trkpt lat="44.49479" lon="7.10167">
        <ele>908.2</ele>
        <time>2022-07-18T13:05:58Z</time>
      </trkpt>
      <trkpt lat="44.49476" lon="7.10162">
        <ele>908.4</ele>
        <time>2022-07-18T13:05:59Z</time>
      </trkpt>
      <trkpt lat="44.49474" lon="7.10157">
        <ele>908.6</ele>
        <time>2022-07-18T13:06:00Z</time>
      </trkpt>
      <trkpt lat="44.49471" lon="7.10153">
        <ele>908.6</ele>
        <time>2022-07-18T13:06:01Z</time>
      </trkpt>
      <trkpt lat="44.49468" lon="7.10148">
        <ele>909</ele>
        <time>2022-07-18T13:06:02Z</time>
      </trkpt>
      <trkpt lat="44.49465" lon="7.10143">
        <ele>909</ele>
        <time>2022-07-18T13:06:03Z</time>
      </trkpt>
      <trkpt lat="44.49463" lon="7.10138">
        <ele>909.2</ele>
        <time>2022-07-18T13:06:04Z</time>
      </trkpt>
      <trkpt lat="44.4946" lon="7.10132">
        <ele>909.2</ele>
        <time>2022-07-18T13:06:05Z</time>
      </trkpt>
      <trkpt lat="44.49457" lon="7.10127">
        <ele>909.4</ele>
        <time>2022-07-18T13:06:06Z</time>
      </trkpt>
      <trkpt lat="44.49455" lon="7.10122">
        <ele>909.4</ele>
        <time>2022-07-18T13:06:07Z</time>
      </trkpt>
      <trkpt lat="44.49452" lon="7.10117">
        <ele>909.8</ele>
        <time>2022-07-18T13:06:08Z</time>
      </trkpt>
      <trkpt lat="44.4945" lon="7.10112">
        <ele>909.8</ele>
        <time>2022-07-18T13:06:09Z</time>
      </trkpt>
      <trkpt lat="44.49447" lon="7.10107">
        <ele>910</ele>
        <time>2022-07-18T13:06:10Z</time>
      </trkpt>
      <trkpt lat="44.49445" lon="7.10102">
        <ele>910</ele>
        <time>2022-07-18T13:06:11Z</time>
      </trkpt>
      <trkpt lat="44.49442" lon="7.10097">
        <ele>910</ele>
        <time>2022-07-18T13:06:12Z</time>
      </trkpt>
      <trkpt lat="44.4944" lon="7.10091">
        <ele>910.2</ele>
        <time>2022-07-18T13:06:13Z</time>
      </trkpt>
      <trkpt lat="44.49437" lon="7.10086">
        <ele>910.2</ele>
        <time>2022-07-18T13:06:14Z</time>
      </trkpt>
      <trkpt lat="44.49435" lon="7.10081">
        <ele>910.6</ele>
        <time>2022-07-18T13:06:15Z</time>
      </trkpt>
      <trkpt lat="44.49434" lon="7.10076">
        <ele>910.6</ele>
        <time>2022-07-18T13:06:16Z</time>
      </trkpt>
      <trkpt lat="44.49433" lon="7.1007">
        <ele>911</ele>
        <time>2022-07-18T13:06:17Z</time>
      </trkpt>
      <trkpt lat="44.49432" lon="7.10065">
        <ele>911</ele>
        <time>2022-07-18T13:06:18Z</time>
      </trkpt>
      <trkpt lat="44.49432" lon="7.10059">
        <ele>911.2</ele>
        <time>2022-07-18T13:06:19Z</time>
      </trkpt>
      <trkpt lat="44.49432" lon="7.10053">
        <ele>911.2</ele>
        <time>2022-07-18T13:06:20Z</time>
      </trkpt>
      <trkpt lat="44.49433" lon="7.10048">
        <ele>911.4</ele>
        <time>2022-07-18T13:06:21Z</time>
      </trkpt>
      <trkpt lat="44.49434" lon="7.10042">
        <ele>911.4</ele>
        <time>2022-07-18T13:06:22Z</time>
      </trkpt>
      <trkpt lat="44.49435" lon="7.10036">
        <ele>911.6</ele>
        <time>2022-07-18T13:06:23Z</time>
      </trkpt>
      <trkpt lat="44.49436" lon="7.10032">
        <ele>911.6</ele>
        <time>2022-07-18T13:06:24Z</time>
      </trkpt>
      <trkpt lat="44.49438" lon="7.10026">
        <ele>911.6</ele>
        <time>2022-07-18T13:06:25Z</time>
      </trkpt>
      <trkpt lat="44.49439" lon="7.10021">
        <ele>912</ele>
        <time>2022-07-18T13:06:26Z</time>
      </trkpt>
      <trkpt lat="44.4944" lon="7.10016">
        <ele>912</ele>
        <time>2022-07-18T13:06:27Z</time>
      </trkpt>
      <trkpt lat="44.49442" lon="7.1001">
        <ele>912</ele>
        <time>2022-07-18T13:06:28Z</time>
      </trkpt>
      <trkpt lat="44.49443" lon="7.10004">
        <ele>912.2</ele>
        <time>2022-07-18T13:06:29Z</time>
      </trkpt>
      <trkpt lat="44.49444" lon="7.09998">
        <ele>912.2</ele>
        <time>2022-07-18T13:06:30Z</time>
      </trkpt>
      <trkpt lat="44.49445" lon="7.09993">
        <ele>912.2</ele>
        <time>2022-07-18T13:06:31Z</time>
      </trkpt>
      <trkpt lat="44.49445" lon="7.09987">
        <ele>912.4</ele>
        <time>2022-07-18T13:06:32Z</time>
      </trkpt>
      <trkpt lat="44.49445" lon="7.09982">
        <ele>912.4</ele>
        <time>2022-07-18T13:06:33Z</time>
      </trkpt>
      <trkpt lat="44.49445" lon="7.09977">
        <ele>912.4</ele>
        <time>2022-07-18T13:06:34Z</time>
      </trkpt>
      <trkpt lat="44.49444" lon="7.09971">
        <ele>912.8</ele>
        <time>2022-07-18T13:06:35Z</time>
      </trkpt>
      <trkpt lat="44.49444" lon="7.09965">
        <ele>912.8</ele>
        <time>2022-07-18T13:06:36Z</time>
      </trkpt>
      <trkpt lat="44.49442" lon="7.0996">
        <ele>912.8</ele>
        <time>2022-07-18T13:06:37Z</time>
      </trkpt>
      <trkpt lat="44.49442" lon="7.09955">
        <ele>913</ele>
        <time>2022-07-18T13:06:38Z</time>
      </trkpt>
      <trkpt lat="44.49441" lon="7.0995">
        <ele>913</ele>
        <time>2022-07-18T13:06:39Z</time>
      </trkpt>
      <trkpt lat="44.4944" lon="7.09945">
        <ele>913</ele>
        <time>2022-07-18T13:06:40Z</time>
      </trkpt>
      <trkpt lat="44.4944" lon="7.09939">
        <ele>913</ele>
        <time>2022-07-18T13:06:41Z</time>
      </trkpt>
      <trkpt lat="44.4944" lon="7.09932">
        <ele>913.2</ele>
        <time>2022-07-18T13:06:42Z</time>
      </trkpt>
      <trkpt lat="44.4944" lon="7.09925">
        <ele>913.2</ele>
        <time>2022-07-18T13:06:43Z</time>
      </trkpt>
      <trkpt lat="44.49438" lon="7.0992">
        <ele>913.2</ele>
        <time>2022-07-18T13:06:44Z</time>
      </trkpt>
      <trkpt lat="44.49435" lon="7.09914">
        <ele>913.2</ele>
        <time>2022-07-18T13:06:45Z</time>
      </trkpt>
      <trkpt lat="44.46024" lon="7.09168">
        <ele>1133.6</ele>
        <time>2022-07-18T13:33:01Z</time>
      </trkpt>
      <trkpt lat="44.46023" lon="7.09167">
        <ele>1133.6</ele>
        <time>2022-07-18T13:33:02Z</time>
      </trkpt>
      <trkpt lat="44.46021" lon="7.09166">
        <ele>1134</ele>
        <time>2022-07-18T13:33:03Z</time>
      </trkpt>
      <trkpt lat="44.46019" lon="7.09164">
        <ele>1134.2</ele>
        <time>2022-07-18T13:33:04Z</time>
      </trkpt>
      <trkpt lat="44.46017" lon="7.09162">
        <ele>1134.2</ele>
        <time>2022-07-18T13:33:05Z</time>
      </trkpt>
      <trkpt lat="44.46016" lon="7.09161">
        <ele>1134.4</ele>
        <time>2022-07-18T13:33:06Z</time>
      </trkpt>
      <trkpt lat="44.46014" lon="7.09159">
        <ele>1134.8</ele>
        <time>2022-07-18T13:33:07Z</time>
      </trkpt>
      <trkpt lat="44.46012" lon="7.09157">
        <ele>1135</ele>
        <time>2022-07-18T13:33:08Z</time>
      </trkpt>
      <trkpt lat="44.46011" lon="7.09155">
        <ele>1135</ele>
        <time>2022-07-18T13:33:09Z</time>
      </trkpt>
      <trkpt lat="44.46009" lon="7.09153">
        <ele>1135.2</ele>
        <time>2022-07-18T13:33:10Z</time>
      </trkpt>
      <trkpt lat="44.46008" lon="7.09151">
        <ele>1135.2</ele>
        <time>2022-07-18T13:33:11Z</time>
      </trkpt>
      <trkpt lat="44.46006" lon="7.09149">
        <ele>1135.6</ele>
        <time>2022-07-18T13:33:12Z</time>
      </trkpt>
      <trkpt lat="44.46005" lon="7.09147">
        <ele>1135.8</ele>
        <time>2022-07-18T13:33:13Z</time>
      </trkpt>
      <trkpt lat="44.46004" lon="7.09145">
        <ele>1136</ele>
        <time>2022-07-18T13:33:14Z</time>
      </trkpt>
      <trkpt lat="44.46002" lon="7.09144">
        <ele>1136.4</ele>
        <time>2022-07-18T13:33:15Z</time>
      </trkpt>
      <trkpt lat="44.46001" lon="7.09142">
        <ele>1136.4</ele>
        <time>2022-07-18T13:33:16Z</time>
      </trkpt>
      <trkpt lat="44.45999" lon="7.0914">
        <ele>1136.8</ele>
        <time>2022-07-18T13:33:17Z</time>
      </trkpt>
      <trkpt lat="44.45997" lon="7.09139">
        <ele>1137</ele>
        <time>2022-07-18T13:33:18Z</time>
      </trkpt>
      <trkpt lat="44.45996" lon="7.09136">
        <ele>1137</ele>
        <time>2022-07-18T13:33:19Z</time>
      </trkpt>
      <trkpt lat="44.45993" lon="7.09135">
        <ele>1137.4</ele>
        <time>2022-07-18T13:33:20Z</time>
      </trkpt>
      <trkpt lat="44.45991" lon="7.09133">
        <ele>1137.4</ele>
        <time>2022-07-18T13:33:21Z</time>
      </trkpt>
      <trkpt lat="44.45989" lon="7.09132">
        <ele>1137.8</ele>
        <time>2022-07-18T13:33:22Z</time>
      </trkpt>
      <trkpt lat="44.45986" lon="7.0913">
        <ele>1137.8</ele>
        <time>2022-07-18T13:33:23Z</time>
      </trkpt>
      <trkpt lat="44.45984" lon="7.09129">
        <ele>1138.2</ele>
        <time>2022-07-18T13:33:24Z</time>
      </trkpt>
      <trkpt lat="44.45982" lon="7.09128">
        <ele>1138.2</ele>
        <time>2022-07-18T13:33:25Z</time>
      </trkpt>
      <trkpt lat="44.45979" lon="7.09128">
        <ele>1138.4</ele>
        <time>2022-07-18T13:33:26Z</time>
      </trkpt>
      <trkpt lat="44.45977" lon="7.09128">
        <ele>1138.4</ele>
        <time>2022-07-18T13:33:27Z</time>
      </trkpt>
      <trkpt lat="44.45975" lon="7.09128">
        <ele>1138.8</ele>
        <time>2022-07-18T13:33:28Z</time>
      </trkpt>
      <trkpt lat="44.45973" lon="7.09129">
        <ele>1139</ele>
        <time>2022-07-18T13:33:29Z</time>
      </trkpt>
      <trkpt lat="44.45971" lon="7.09129">
        <ele>1139</ele>
        <time>2022-07-18T13:33:30Z</time>
      </trkpt>
      <trkpt lat="44.45969" lon="7.0913">
        <ele>1139.4</ele>
        <time>2022-07-18T13:33:31Z</time>
      </trkpt>
      <trkpt lat="44.45967" lon="7.09131">
        <ele>1139.6</ele>
        <time>2022-07-18T13:33:32Z</time>
      </trkpt>
      <trkpt lat="44.45964" lon="7.09132">
        <ele>1139.6</ele>
        <time>2022-07-18T13:33:33Z</time>
      </trkpt>
      <trkpt lat="44.45962" lon="7.09133">
        <ele>1139.8</ele>
        <time>2022-07-18T13:33:34Z</time>
      </trkpt>
      <trkpt lat="44.4596" lon="7.09134">
        <ele>1139.8</ele>
        <time>2022-07-18T13:33:35Z</time>
      </trkpt>
      <trkpt lat="44.45959" lon="7.09134">
        <ele>1140.2</ele>
        <time>2022-07-18T13:33:36Z</time>
      </trkpt>
      <trkpt lat="44.45957" lon="7.09136">
        <ele>1140.2</ele>
        <time>2022-07-18T13:33:37Z</time>
      </trkpt>
      <trkpt lat="44.45955" lon="7.09137">
        <ele>1140.4</ele>
        <time>2022-07-18T13:33:38Z</time>
      </trkpt>
      <trkpt lat="44.45953" lon="7.09139">
        <ele>1140.4</ele>
        <time>2022-07-18T13:33:39Z</time>
      </trkpt>
      <trkpt lat="44.45951" lon="7.09139">
        <ele>1140.8</ele>
        <time>2022-07-18T13:33:40Z</time>
      </trkpt>
      <trkpt lat="44.45949" lon="7.0914">
        <ele>1141</ele>
        <time>2022-07-18T13:33:41Z</time>
      </trkpt>
      <trkpt lat="44.45947" lon="7.0914">
        <ele>1141</ele>
        <time>2022-07-18T13:33:42Z</time>
      </trkpt>
      <trkpt lat="44.45945" lon="7.0914">
        <ele>1141.4</ele>
        <time>2022-07-18T13:33:43Z</time>
      </trkpt>
      <trkpt lat="44.45943" lon="7.09141">
        <ele>1141.4</ele>
        <time>2022-07-18T13:33:44Z</time>
      </trkpt>
      <trkpt lat="44.45941" lon="7.09142">
        <ele>1141.8</ele>
        <time>2022-07-18T13:33:45Z</time>
      </trkpt>
      <trkpt lat="44.45939" lon="7.09142">
        <ele>1141.8</ele>
        <time>2022-07-18T13:33:46Z</time>
      </trkpt>
      <trkpt lat="44.45938" lon="7.09143">
        <ele>1142</ele>
        <time>2022-07-18T13:33:47Z</time>
      </trkpt>
      <trkpt lat="44.45936" lon="7.09142">
        <ele>1142</ele>
        <time>2022-07-18T13:33:48Z</time>
      </trkpt>
      <trkpt lat="44.45935" lon="7.09143">
        <ele>1142.4</ele>
        <time>2022-07-18T13:33:49Z</time>
      </trkpt>
      <trkpt lat="44.45933" lon="7.09143">
        <ele>1142.4</ele>
        <time>2022-07-18T13:33:50Z</time>
      </trkpt>
      <trkpt lat="44.45932" lon="7.09144">
        <ele>1142.8</ele>
        <time>2022-07-18T13:33:51Z</time>
      </trkpt>
      <trkpt lat="44.4593" lon="7.09144">
        <ele>1142.8</ele>
        <time>2022-07-18T13:33:52Z</time>
      </trkpt>
      <trkpt lat="44.45928" lon="7.09145">
        <ele>1143.2</ele>
        <time>2022-07-18T13:33:53Z</time>
      </trkpt>
      <trkpt lat="44.45927" lon="7.09145">
        <ele>1143.2</ele>
        <time>2022-07-18T13:33:54Z</time>
      </trkpt>
      <trkpt lat="44.45924" lon="7.09145">
        <ele>1143.6</ele>
        <time>2022-07-18T13:33:55Z</time>
      </trkpt>
      <trkpt lat="44.45923" lon="7.09146">
        <ele>1143.8</ele>
        <time>2022-07-18T13:33:56Z</time>
      </trkpt>
      <trkpt lat="44.45921" lon="7.09147">
        <ele>1143.8</ele>
        <time>2022-07-18T13:33:57Z</time>
      </trkpt>
      <trkpt lat="44.45919" lon="7.09147">
        <ele>1144.2</ele>
        <time>2022-07-18T13:33:58Z</time>
      </trkpt>
      <trkpt lat="44.45918" lon="7.09146">
        <ele>1144.2</ele>
        <time>2022-07-18T13:33:59Z</time>
      </trkpt>
      <trkpt lat="44.45916" lon="7.09147">
        <ele>1144.6</ele>
        <time>2022-07-18T13:34:00Z</time>
      </trkpt>
      <trkpt lat="44.45915" lon="7.09148">
        <ele>1144.6</ele>
        <time>2022-07-18T13:34:01Z</time>
      </trkpt>
      <trkpt lat="44.45913" lon="7.0915">
        <ele>1144.8</ele>
        <time>2022-07-18T13:34:02Z</time>
      </trkpt>
      <trkpt lat="44.45911" lon="7.09152">
        <ele>1144.8</ele>
        <time>2022-07-18T13:34:03Z</time>
      </trkpt>
      <trkpt lat="44.4591" lon="7.09154">
        <ele>1145</ele>
        <time>2022-07-18T13:34:04Z</time>
      </trkpt>
      <trkpt lat="44.45908" lon="7.09156">
        <ele>1145.2</ele>
        <time>2022-07-18T13:34:05Z</time>
      </trkpt>
      <trkpt lat="44.45907" lon="7.09158">
        <ele>1145.6</ele>
        <time>2022-07-18T13:34:06Z</time>
      </trkpt>
      <trkpt lat="44.45905" lon="7.09159">
        <ele>1145.6</ele>
        <time>2022-07-18T13:34:07Z</time>
      </trkpt>
      <trkpt lat="44.45904" lon="7.09161">
        <ele>1145.8</ele>
        <time>2022-07-18T13:34:08Z</time>
      </trkpt>
      <trkpt lat="44.45902" lon="7.09163">
        <ele>1145.8</ele>
        <time>2022-07-18T13:34:09Z</time>
      </trkpt>
      <trkpt lat="44.459" lon="7.09164">
        <ele>1146.2</ele>
        <time>2022-07-18T13:34:10Z</time>
      </trkpt>
      <trkpt lat="44.45898" lon="7.09165">
        <ele>1146.2</ele>
        <time>2022-07-18T13:34:11Z</time>
      </trkpt>
      <trkpt lat="44.45897" lon="7.09166">
        <ele>1146.2</ele>
        <time>2022-07-18T13:34:12Z</time>
      </trkpt>
      <trkpt lat="44.45896" lon="7.09168">
        <ele>1146.4</ele>
        <time>2022-07-18T13:34:13Z</time>
      </trkpt>
      <trkpt lat="44.45894" lon="7.09169">
        <ele>1146.4</ele>
        <time>2022-07-18T13:34:14Z</time>
      </trkpt>
      <trkpt lat="44.45892" lon="7.0917">
        <ele>1146.8</ele>
        <time>2022-07-18T13:34:15Z</time>
      </trkpt>
      <trkpt lat="44.45891" lon="7.09171">
        <ele>1147</ele>
        <time>2022-07-18T13:34:16Z</time>
      </trkpt>
      <trkpt lat="44.4589" lon="7.09172">
        <ele>1147</ele>
        <time>2022-07-18T13:34:17Z</time>
      </trkpt>
      <trkpt lat="44.45888" lon="7.09173">
        <ele>1147.4</ele>
        <time>2022-07-18T13:34:18Z</time>
      </trkpt>
      <trkpt lat="44.45887" lon="7.09175">
        <ele>1147.4</ele>
        <time>2022-07-18T13:34:19Z</time>
      </trkpt>
      <trkpt lat="44.45886" lon="7.09175">
        <ele>1147.6</ele>
        <time>2022-07-18T13:34:20Z</time>
      </trkpt>
      <trkpt lat="44.45884" lon="7.09176">
        <ele>1147.6</ele>
        <time>2022-07-18T13:34:21Z</time>
      </trkpt>
      <trkpt lat="44.45882" lon="7.09177">
        <ele>1148</ele>
        <time>2022-07-18T13:34:22Z</time>
      </trkpt>
      <trkpt lat="44.45881" lon="7.09178">
        <ele>1148</ele>
        <time>2022-07-18T13:34:23Z</time>
      </trkpt>
      <trkpt lat="44.4588" lon="7.09179">
        <ele>1148.4</ele>
        <time>2022-07-18T13:34:24Z</time>
      </trkpt>
      <trkpt lat="44.45879" lon="7.0918">
        <ele>1148.4</ele>
        <time>2022-07-18T13:34:25Z</time>
      </trkpt>
      <trkpt lat="44.45877" lon="7.09181">
        <ele>1148.8</ele>
        <time>2022-07-18T13:34:26Z</time>
      </trkpt>
      <trkpt lat="44.45876" lon="7.09182">
        <ele>1149</ele>
        <time>2022-07-18T13:34:27Z</time>
      </trkpt>
      <trkpt lat="44.45875" lon="7.09183">
        <ele>1149</ele>
        <time>2022-07-18T13:34:28Z</time>
      </trkpt>
      <trkpt lat="44.45873" lon="7.09184">
        <ele>1149.2</ele>
        <time>2022-07-18T13:34:29Z</time>
      </trkpt>
      <trkpt lat="44.45872" lon="7.09185">
        <ele>1149.2</ele>
        <time>2022-07-18T13:34:30Z</time>
      </trkpt>
      <trkpt lat="44.45871" lon="7.09186">
        <ele>1149.8</ele>
        <time>2022-07-18T13:34:31Z</time>
      </trkpt>
      <trkpt lat="44.45869" lon="7.09187">
        <ele>1150</ele>
        <time>2022-07-18T13:34:32Z</time>
      </trkpt>
      <trkpt lat="44.45868" lon="7.09188">
        <ele>1150</ele>
        <time>2022-07-18T13:34:33Z</time>
      </trkpt>
      <trkpt lat="44.45866" lon="7.09189">
        <ele>1150.2</ele>
        <time>2022-07-18T13:34:34Z</time>
      </trkpt>
      <trkpt lat="44.45865" lon="7.09189">
        <ele>1150.2</ele>
        <time>2022-07-18T13:34:35Z</time>
      </trkpt>
      <trkpt lat="44.45864" lon="7.0919">
        <ele>1150.6</ele>
        <time>2022-07-18T13:34:36Z</time>
      </trkpt>
      <trkpt lat="44.45863" lon="7.09191">
        <ele>1150.6</ele>
        <time>2022-07-18T13:34:37Z</time>
      </trkpt>
      <trkpt lat="44.45862" lon="7.09191">
        <ele>1151</ele>
        <time>2022-07-18T13:34:38Z</time>
      </trkpt>
      <trkpt lat="44.4586" lon="7.09192">
        <ele>1151</ele>
        <time>2022-07-18T13:34:39Z</time>
      </trkpt>
      <trkpt lat="44.45859" lon="7.09193">
        <ele>1151.2</ele>
        <time>2022-07-18T13:34:40Z</time>
      </trkpt>
      <trkpt lat="44.45857" lon="7.09194">
        <ele>1151.2</ele>
        <time>2022-07-18T13:34:41Z</time>
      </trkpt>
      <trkpt lat="44.45855" lon="7.09195">
        <ele>1151.6</ele>
        <time>2022-07-18T13:34:42Z</time>
      </trkpt>
      <trkpt lat="44.45853" lon="7.09197">
        <ele>1151.6</ele>
        <time>2022-07-18T13:34:43Z</time>
      </trkpt>
      <trkpt lat="44.45851" lon="7.09198">
        <ele>1152</ele>
        <time>2022-07-18T13:34:44Z</time>
      </trkpt>
      <trkpt lat="44.45849" lon="7.092">
        <ele>1152</ele>
        <time>2022-07-18T13:34:45Z</time>
      </trkpt>
      <trkpt lat="44.45847" lon="7.09202">
        <ele>1152.4</ele>
        <time>2022-07-18T13:34:46Z</time>
      </trkpt>
      <trkpt lat="44.45846" lon="7.09203">
        <ele>1152.4</ele>
        <time>2022-07-18T13:34:47Z</time>
      </trkpt>
      <trkpt lat="44.45844" lon="7.09205">
        <ele>1152.6</ele>
        <time>2022-07-18T13:34:48Z</time>
      </trkpt>
      <trkpt lat="44.45842" lon="7.09206">
        <ele>1152.6</ele>
        <time>2022-07-18T13:34:49Z</time>
      </trkpt>
      <trkpt lat="44.4584" lon="7.09208">
        <ele>1153</ele>
        <time>2022-07-18T13:34:50Z</time>
      </trkpt>
      <trkpt lat="44.45839" lon="7.09209">
        <ele>1153</ele>
        <time>2022-07-18T13:34:51Z</time>
      </trkpt>
      <trkpt lat="44.45837" lon="7.0921">
        <ele>1153.2</ele>
        <time>2022-07-18T13:34:52Z</time>
      </trkpt>
      <trkpt lat="44.45835" lon="7.09211">
        <ele>1153.2</ele>
        <time>2022-07-18T13:34:53Z</time>
      </trkpt>
      <trkpt lat="44.45833" lon="7.09212">
        <ele>1153.6</ele>
        <time>2022-07-18T13:34:54Z</time>
      </trkpt>
      <trkpt lat="44.45832" lon="7.09213">
        <ele>1153.8</ele>
        <time>2022-07-18T13:34:55Z</time>
      </trkpt>
      <trkpt lat="44.4583" lon="7.09215">
        <ele>1153.8</ele>
        <time>2022-07-18T13:34:56Z</time>
      </trkpt>
      <trkpt lat="44.45829" lon="7.09216">
        <ele>1154.2</ele>
        <time>2022-07-18T13:34:57Z</time>
      </trkpt>
      <trkpt lat="44.45828" lon="7.09217">
        <ele>1154.4</ele>
        <time>2022-07-18T13:34:58Z</time>
      </trkpt>
      <trkpt lat="44.45826" lon="7.09219">
        <ele>1154.4</ele>
        <time>2022-07-18T13:34:59Z</time>
      </trkpt>
      <trkpt lat="44.45824" lon="7.09221">
        <ele>1154.8</ele>
        <time>2022-07-18T13:35:00Z</time>
      </trkpt>
      <trkpt lat="44.45823" lon="7.09222">
        <ele>1155</ele>
        <time>2022-07-18T13:35:01Z</time>
      </trkpt>
      <trkpt lat="44.45821" lon="7.09223">
        <ele>1155</ele>
        <time>2022-07-18T13:35:02Z</time>
      </trkpt>
      <trkpt lat="44.4582" lon="7.09224">
        <ele>1155.2</ele>
        <time>2022-07-18T13:35:03Z</time>
      </trkpt>
      <trkpt lat="44.45818" lon="7.09226">
        <ele>1155.2</ele>
        <time>2022-07-18T13:35:04Z</time>
      </trkpt>
      <trkpt lat="44.45817" lon="7.09227">
        <ele>1155.6</ele>
        <time>2022-07-18T13:35:05Z</time>
      </trkpt>
      <trkpt lat="44.45815" lon="7.09228">
        <ele>1155.8</ele>
        <time>2022-07-18T13:35:06Z</time>
      </trkpt>
      <trkpt lat="44.45813" lon="7.09229">
        <ele>1155.8</ele>
        <time>2022-07-18T13:35:07Z</time>
      </trkpt>
      <trkpt lat="44.45812" lon="7.0923">
        <ele>1156.2</ele>
        <time>2022-07-18T13:35:08Z</time>
      </trkpt>
      <trkpt lat="44.4581" lon="7.09232">
        <ele>1156.2</ele>
        <time>2022-07-18T13:35:09Z</time>
      </trkpt>
      <trkpt lat="44.45809" lon="7.09233">
        <ele>1156.6</ele>
        <time>2022-07-18T13:35:10Z</time>
      </trkpt>
      <trkpt lat="44.45809" lon="7.09235">
        <ele>1156.8</ele>
        <time>2022-07-18T13:35:11Z</time>
      </trkpt>
      <trkpt lat="44.45808" lon="7.09237">
        <ele>1156.8</ele>
        <time>2022-07-18T13:35:12Z</time>
      </trkpt>
      <trkpt lat="44.45807" lon="7.09238">
        <ele>1157.2</ele>
        <time>2022-07-18T13:35:13Z</time>
      </trkpt>
      <trkpt lat="44.45806" lon="7.09239">
        <ele>1157.2</ele>
        <time>2022-07-18T13:35:14Z</time>
      </trkpt>
      <trkpt lat="44.45804" lon="7.09241">
        <ele>1157.6</ele>
        <time>2022-07-18T13:35:15Z</time>
      </trkpt>
      <trkpt lat="44.45803" lon="7.09241">
        <ele>1157.6</ele>
        <time>2022-07-18T13:35:16Z</time>
      </trkpt>
      <trkpt lat="44.45801" lon="7.09243">
        <ele>1158</ele>
        <time>2022-07-18T13:35:17Z</time>
      </trkpt>
      <trkpt lat="44.458" lon="7.09244">
        <ele>1158</ele>
        <time>2022-07-18T13:35:18Z</time>
      </trkpt>
      <trkpt lat="44.45799" lon="7.09245">
        <ele>1158.4</ele>
        <time>2022-07-18T13:35:19Z</time>
      </trkpt>
      <trkpt lat="44.45798" lon="7.09247">
        <ele>1158.4</ele>
        <time>2022-07-18T13:35:20Z</time>
      </trkpt>
      <trkpt lat="44.45796" lon="7.09248">
        <ele>1158.6</ele>
        <time>2022-07-18T13:35:21Z</time>
      </trkpt>
      <trkpt lat="44.45794" lon="7.0925">
        <ele>1158.6</ele>
        <time>2022-07-18T13:35:22Z</time>
      </trkpt>
      <trkpt lat="44.45792" lon="7.09252">
        <ele>1159</ele>
        <time>2022-07-18T13:35:23Z</time>
      </trkpt>
      <trkpt lat="44.4579" lon="7.09253">
        <ele>1159.2</ele>
        <time>2022-07-18T13:35:24Z</time>
      </trkpt>
      <trkpt lat="44.45788" lon="7.09254">
        <ele>1159.2</ele>
        <time>2022-07-18T13:35:25Z</time>
      </trkpt>
      <trkpt lat="44.45787" lon="7.09255">
        <ele>1159.6</ele>
        <time>2022-07-18T13:35:26Z</time>
      </trkpt>
      <trkpt lat="44.45785" lon="7.09257">
        <ele>1159.6</ele>
        <time>2022-07-18T13:35:27Z</time>
      </trkpt>
      <trkpt lat="44.45783" lon="7.09258">
        <ele>1159.8</ele>
        <time>2022-07-18T13:35:28Z</time>
      </trkpt>
      <trkpt lat="44.45781" lon="7.0926">
        <ele>1159.8</ele>
        <time>2022-07-18T13:35:29Z</time>
      </trkpt>
      <trkpt lat="44.4578" lon="7.09261">
        <ele>1159.8</ele>
        <time>2022-07-18T13:35:30Z</time>
      </trkpt>
      <trkpt lat="44.45777" lon="7.09263">
        <ele>1160.2</ele>
        <time>2022-07-18T13:35:31Z</time>
      </trkpt>
      <trkpt lat="44.45775" lon="7.09265">
        <ele>1160.2</ele>
        <time>2022-07-18T13:35:32Z</time>
      </trkpt>
      <trkpt lat="44.45773" lon="7.09266">
        <ele>1160.2</ele>
        <time>2022-07-18T13:35:33Z</time>
      </trkpt>
      <trkpt lat="44.45771" lon="7.09268">
        <ele>1160.4</ele>
        <time>2022-07-18T13:35:34Z</time>
      </trkpt>
      <trkpt lat="44.45769" lon="7.09269">
        <ele>1160.4</ele>
        <time>2022-07-18T13:35:35Z</time>
      </trkpt>
      <trkpt lat="44.45767" lon="7.09271">
        <ele>1160.8</ele>
        <time>2022-07-18T13:35:36Z</time>
      </trkpt>
      <trkpt lat="44.45766" lon="7.09273">
        <ele>1160.8</ele>
        <time>2022-07-18T13:35:37Z</time>
      </trkpt>
      <trkpt lat="44.45764" lon="7.09274">
        <ele>1160.8</ele>
        <time>2022-07-18T13:35:38Z</time>
      </trkpt>
      <trkpt lat="44.45763" lon="7.09276">
        <ele>1161</ele>
        <time>2022-07-18T13:35:39Z</time>
      </trkpt>
      <trkpt lat="44.45761" lon="7.09278">
        <ele>1161</ele>
        <time>2022-07-18T13:35:40Z</time>
      </trkpt>
      <trkpt lat="44.4576" lon="7.0928">
        <ele>1161.4</ele>
        <time>2022-07-18T13:35:41Z</time>
      </trkpt>
      <trkpt lat="44.45759" lon="7.09281">
        <ele>1161.4</ele>
        <time>2022-07-18T13:35:42Z</time>
      </trkpt>
      <trkpt lat="44.45757" lon="7.09283">
        <ele>1161.6</ele>
        <time>2022-07-18T13:35:43Z</time>
      </trkpt>
      <trkpt lat="44.45756" lon="7.09285">
        <ele>1161.6</ele>
        <time>2022-07-18T13:35:44Z</time>
      </trkpt>
      <trkpt lat="44.45755" lon="7.09287">
        <ele>1162</ele>
        <time>2022-07-18T13:35:45Z</time>
      </trkpt>
      <trkpt lat="44.45754" lon="7.09289">
        <ele>1162</ele>
        <time>2022-07-18T13:35:46Z</time>
      </trkpt>
      <trkpt lat="44.45753" lon="7.09291">
        <ele>1162.2</ele>
        <time>2022-07-18T13:35:47Z</time>
      </trkpt>
      <trkpt lat="44.45752" lon="7.09293">
        <ele>1162.2</ele>
        <time>2022-07-18T13:35:48Z</time>
      </trkpt>
      <trkpt lat="44.4575" lon="7.09295">
        <ele>1162.6</ele>
        <time>2022-07-18T13:35:49Z</time>
      </trkpt>
      <trkpt lat="44.45749" lon="7.09297">
        <ele>1162.6</ele>
        <time>2022-07-18T13:35:50Z</time>
      </trkpt>
      <trkpt lat="44.45747" lon="7.09299">
        <ele>1163</ele>
        <time>2022-07-18T13:35:51Z</time>
      </trkpt>
      <trkpt lat="44.45746" lon="7.09301">
        <ele>1163.2</ele>
        <time>2022-07-18T13:35:52Z</time>
      </trkpt>
      <trkpt lat="44.45745" lon="7.09303">
        <ele>1163.4</ele>
        <time>2022-07-18T13:35:53Z</time>
      </trkpt>
      <trkpt lat="44.45743" lon="7.09305">
        <ele>1163.4</ele>
        <time>2022-07-18T13:35:54Z</time>
      </trkpt>
      <trkpt lat="44.45742" lon="7.09308">
        <ele>1163.8</ele>
        <time>2022-07-18T13:35:55Z</time>
      </trkpt>
      <trkpt lat="44.45741" lon="7.0931">
        <ele>1163.8</ele>
        <time>2022-07-18T13:35:56Z</time>
      </trkpt>
      <trkpt lat="44.4574" lon="7.09313">
        <ele>1164.2</ele>
        <time>2022-07-18T13:35:57Z</time>
      </trkpt>
      <trkpt lat="44.45739" lon="7.09315">
        <ele>1164.2</ele>
        <time>2022-07-18T13:35:58Z</time>
      </trkpt>
      <trkpt lat="44.45737" lon="7.09318">
        <ele>1164.6</ele>
        <time>2022-07-18T13:35:59Z</time>
      </trkpt>
      <trkpt lat="44.45736" lon="7.0932">
        <ele>1164.6</ele>
        <time>2022-07-18T13:36:00Z</time>
      </trkpt>
      <trkpt lat="44.45736" lon="7.09322">
        <ele>1164.8</ele>
        <time>2022-07-18T13:36:01Z</time>
      </trkpt>
      <trkpt lat="44.45735" lon="7.09325">
        <ele>1164.8</ele>
        <time>2022-07-18T13:36:02Z</time>
      </trkpt>
      <trkpt lat="44.45736" lon="7.09327">
        <ele>1165.2</ele>
        <time>2022-07-18T13:36:03Z</time>
      </trkpt>
      <trkpt lat="44.45736" lon="7.09329">
        <ele>1165.2</ele>
        <time>2022-07-18T13:36:04Z</time>
      </trkpt>
      <trkpt lat="44.45737" lon="7.0933">
        <ele>1165.4</ele>
        <time>2022-07-18T13:36:05Z</time>
      </trkpt>
      <trkpt lat="44.45738" lon="7.09332">
        <ele>1165.4</ele>
        <time>2022-07-18T13:36:06Z</time>
      </trkpt>
      <trkpt lat="44.4574" lon="7.09333">
        <ele>1165.8</ele>
        <time>2022-07-18T13:36:07Z</time>
      </trkpt>
      <trkpt lat="44.45743" lon="7.09334">
        <ele>1165.8</ele>
        <time>2022-07-18T13:36:08Z</time>
      </trkpt>
      <trkpt lat="44.45745" lon="7.09335">
        <ele>1166</ele>
        <time>2022-07-18T13:36:09Z</time>
      </trkpt>
      <trkpt lat="44.45747" lon="7.09335">
        <ele>1166</ele>
        <time>2022-07-18T13:36:10Z</time>
      </trkpt>
      <trkpt lat="44.45749" lon="7.09334">
        <ele>1166.2</ele>
        <time>2022-07-18T13:36:11Z</time>
      </trkpt>
      <trkpt lat="44.45751" lon="7.09333">
        <ele>1166.2</ele>
        <time>2022-07-18T13:36:12Z</time>
      </trkpt>
      <trkpt lat="44.45753" lon="7.09331">
        <ele>1166.2</ele>
        <time>2022-07-18T13:36:13Z</time>
      </trkpt>
      <trkpt lat="44.45754" lon="7.09329">
        <ele>1166.6</ele>
        <time>2022-07-18T13:36:14Z</time>
      </trkpt>
      <trkpt lat="44.45756" lon="7.09328">
        <ele>1166.6</ele>
        <time>2022-07-18T13:36:15Z</time>
      </trkpt>
      <trkpt lat="44.45757" lon="7.09325">
        <ele>1166.6</ele>
        <time>2022-07-18T13:36:16Z</time>
      </trkpt>
      <trkpt lat="44.45759" lon="7.09324">
        <ele>1166.8</ele>
        <time>2022-07-18T13:36:17Z</time>
      </trkpt>
      <trkpt lat="44.45761" lon="7.09323">
        <ele>1166.8</ele>
        <time>2022-07-18T13:36:18Z</time>
      </trkpt>
      <trkpt lat="44.45762" lon="7.09321">
        <ele>1167.2</ele>
        <time>2022-07-18T13:36:19Z</time>
      </trkpt>
      <trkpt lat="44.45764" lon="7.0932">
        <ele>1167.2</ele>
        <time>2022-07-18T13:36:20Z</time>
      </trkpt>
      <trkpt lat="44.45765" lon="7.09318">
        <ele>1167.4</ele>
        <time>2022-07-18T13:36:21Z</time>
      </trkpt>
      <trkpt lat="44.45767" lon="7.09317">
        <ele>1167.4</ele>
        <time>2022-07-18T13:36:22Z</time>
      </trkpt>
      <trkpt lat="44.45769" lon="7.09316">
        <ele>1167.8</ele>
        <time>2022-07-18T13:36:23Z</time>
      </trkpt>
      <trkpt lat="44.4577" lon="7.09315">
        <ele>1167.8</ele>
        <time>2022-07-18T13:36:24Z</time>
      </trkpt>
      <trkpt lat="44.45772" lon="7.09313">
        <ele>1168</ele>
        <time>2022-07-18T13:36:25Z</time>
      </trkpt>
      <trkpt lat="44.45773" lon="7.09312">
        <ele>1168</ele>
        <time>2022-07-18T13:36:26Z</time>
      </trkpt>
      <trkpt lat="44.45774" lon="7.09311">
        <ele>1168.4</ele>
        <time>2022-07-18T13:36:27Z</time>
      </trkpt>
      <trkpt lat="44.45776" lon="7.0931">
        <ele>1168.4</ele>
        <time>2022-07-18T13:36:28Z</time>
      </trkpt>
      <trkpt lat="44.45777" lon="7.09308">
        <ele>1168.6</ele>
        <time>2022-07-18T13:36:29Z</time>
      </trkpt>
      <trkpt lat="44.45779" lon="7.09307">
        <ele>1168.6</ele>
        <time>2022-07-18T13:36:30Z</time>
      </trkpt>
      <trkpt lat="44.4578" lon="7.09305">
        <ele>1169</ele>
        <time>2022-07-18T13:36:31Z</time>
      </trkpt>
      <trkpt lat="44.45782" lon="7.09303">
        <ele>1169</ele>
        <time>2022-07-18T13:36:32Z</time>
      </trkpt>
      <trkpt lat="44.45783" lon="7.09301">
        <ele>1169.2</ele>
        <time>2022-07-18T13:36:33Z</time>
      </trkpt>
      <trkpt lat="44.45785" lon="7.093">
        <ele>1169.4</ele>
        <time>2022-07-18T13:36:34Z</time>
      </trkpt>
      <trkpt lat="44.45786" lon="7.09299">
        <ele>1169.4</ele>
        <time>2022-07-18T13:36:35Z</time>
      </trkpt>
      <trkpt lat="44.45787" lon="7.09298">
        <ele>1169.8</ele>
        <time>2022-07-18T13:36:36Z</time>
      </trkpt>
      <trkpt lat="44.45788" lon="7.09297">
        <ele>1170</ele>
        <time>2022-07-18T13:36:37Z</time>
      </trkpt>
      <trkpt lat="44.4579" lon="7.09295">
        <ele>1170</ele>
        <time>2022-07-18T13:36:38Z</time>
      </trkpt>
      <trkpt lat="44.45791" lon="7.09294">
        <ele>1170.4</ele>
        <time>2022-07-18T13:36:39Z</time>
      </trkpt>
      <trkpt lat="44.45792" lon="7.09293">
        <ele>1170.4</ele>
        <time>2022-07-18T13:36:40Z</time>
      </trkpt>
      <trkpt lat="44.45793" lon="7.09292">
        <ele>1170.6</ele>
        <time>2022-07-18T13:36:41Z</time>
      </trkpt>
      <trkpt lat="44.45794" lon="7.09291">
        <ele>1170.6</ele>
        <time>2022-07-18T13:36:42Z</time>
      </trkpt>
      <trkpt lat="44.45795" lon="7.09289">
        <ele>1170.8</ele>
        <time>2022-07-18T13:36:43Z</time>
      </trkpt>
      <trkpt lat="44.45796" lon="7.09289">
        <ele>1170.8</ele>
        <time>2022-07-18T13:36:44Z</time>
      </trkpt>
      <trkpt lat="44.45797" lon="7.09288">
        <ele>1171.2</ele>
        <time>2022-07-18T13:36:45Z</time>
      </trkpt>
      <trkpt lat="44.45798" lon="7.09287">
        <ele>1171.2</ele>
        <time>2022-07-18T13:36:46Z</time>
      </trkpt>
      <trkpt lat="44.45799" lon="7.09287">
        <ele>1171.6</ele>
        <time>2022-07-18T13:36:47Z</time>
      </trkpt>
      <trkpt lat="44.45799" lon="7.09286">
        <ele>1171.6</ele>
        <time>2022-07-18T13:36:48Z</time>
      </trkpt>
      <trkpt lat="44.458" lon="7.09285">
        <ele>1171.8</ele>
        <time>2022-07-18T13:36:49Z</time>
      </trkpt>
      <trkpt lat="44.45801" lon="7.09284">
        <ele>1171.8</ele>
        <time>2022-07-18T13:36:50Z</time>
      </trkpt>
      <trkpt lat="44.45802" lon="7.09284">
        <ele>1172.2</ele>
        <time>2022-07-18T13:36:51Z</time>
      </trkpt>
      <trkpt lat="44.45803" lon="7.09283">
        <ele>1172.2</ele>
        <time>2022-07-18T13:36:52Z</time>
      </trkpt>
      <trkpt lat="44.45805" lon="7.09283">
        <ele>1172.6</ele>
        <time>2022-07-18T13:36:53Z</time>
      </trkpt>
      <trkpt lat="44.45806" lon="7.09282">
        <ele>1172.6</ele>
        <time>2022-07-18T13:36:54Z</time>
      </trkpt>
      <trkpt lat="44.45809" lon="7.09282">
        <ele>1172.8</ele>
        <time>2022-07-18T13:36:55Z</time>
      </trkpt>
      <trkpt lat="44.45811" lon="7.09282">
        <ele>1172.8</ele>
        <time>2022-07-18T13:36:56Z</time>
      </trkpt>
      <trkpt lat="44.45814" lon="7.09281">
        <ele>1173.2</ele>
        <time>2022-07-18T13:36:57Z</time>
      </trkpt>
      <trkpt lat="44.45816" lon="7.09281">
        <ele>1173.2</ele>
        <time>2022-07-18T13:36:58Z</time>
      </trkpt>
      <trkpt lat="44.45817" lon="7.09281">
        <ele>1173.6</ele>
        <time>2022-07-18T13:36:59Z</time>
      </trkpt>
      <trkpt lat="44.45819" lon="7.09281">
        <ele>1173.6</ele>
        <time>2022-07-18T13:37:00Z</time>
      </trkpt>
      <trkpt lat="44.4582" lon="7.09282">
        <ele>1173.8</ele>
        <time>2022-07-18T13:37:01Z</time>
      </trkpt>
      <trkpt lat="44.45822" lon="7.09282">
        <ele>1174</ele>
        <time>2022-07-18T13:37:02Z</time>
      </trkpt>
      <trkpt lat="44.45824" lon="7.09283">
        <ele>1174</ele>
        <time>2022-07-18T13:37:03Z</time>
      </trkpt>
      <trkpt lat="44.45826" lon="7.09283">
        <ele>1174.4</ele>
        <time>2022-07-18T13:37:04Z</time>
      </trkpt>
      <trkpt lat="44.45828" lon="7.09283">
        <ele>1174.6</ele>
        <time>2022-07-18T13:37:05Z</time>
      </trkpt>
      <trkpt lat="44.45831" lon="7.09284">
        <ele>1174.8</ele>
        <time>2022-07-18T13:37:06Z</time>
      </trkpt>
      <trkpt lat="44.45833" lon="7.09285">
        <ele>1174.8</ele>
        <time>2022-07-18T13:37:07Z</time>
      </trkpt>
      <trkpt lat="44.45836" lon="7.09287">
        <ele>1175.2</ele>
        <time>2022-07-18T13:37:08Z</time>
      </trkpt>
      <trkpt lat="44.45838" lon="7.09288">
        <ele>1175.2</ele>
        <time>2022-07-18T13:37:09Z</time>
      </trkpt>
      <trkpt lat="44.4584" lon="7.09289">
        <ele>1175.6</ele>
        <time>2022-07-18T13:37:10Z</time>
      </trkpt>
      <trkpt lat="44.45842" lon="7.0929">
        <ele>1175.8</ele>
        <time>2022-07-18T13:37:11Z</time>
      </trkpt>
      <trkpt lat="44.45844" lon="7.09292">
        <ele>1176</ele>
        <time>2022-07-18T13:37:12Z</time>
      </trkpt>
      <trkpt lat="44.45846" lon="7.09293">
        <ele>1176.2</ele>
        <time>2022-07-18T13:37:13Z</time>
      </trkpt>
      <trkpt lat="44.45848" lon="7.09295">
        <ele>1176.2</ele>
        <time>2022-07-18T13:37:14Z</time>
      </trkpt>
      <trkpt lat="44.45849" lon="7.09296">
        <ele>1176.6</ele>
        <time>2022-07-18T13:37:15Z</time>
      </trkpt>
      <trkpt lat="44.45851" lon="7.09297">
        <ele>1176.8</ele>
        <time>2022-07-18T13:37:16Z</time>
      </trkpt>
      <trkpt lat="44.45852" lon="7.09299">
        <ele>1176.8</ele>
        <time>2022-07-18T13:37:17Z</time>
      </trkpt>
      <trkpt lat="44.45854" lon="7.093">
        <ele>1177</ele>
        <time>2022-07-18T13:37:18Z</time>
      </trkpt>
      <trkpt lat="44.45855" lon="7.09302">
        <ele>1177.2</ele>
        <time>2022-07-18T13:37:19Z</time>
      </trkpt>
      <trkpt lat="44.45857" lon="7.09303">
        <ele>1177.2</ele>
        <time>2022-07-18T13:37:20Z</time>
      </trkpt>
      <trkpt lat="44.45859" lon="7.09305">
        <ele>1177.6</ele>
        <time>2022-07-18T13:37:21Z</time>
      </trkpt>
      <trkpt lat="44.45861" lon="7.09306">
        <ele>1177.8</ele>
        <time>2022-07-18T13:37:22Z</time>
      </trkpt>
      <trkpt lat="44.45862" lon="7.09307">
        <ele>1177.8</ele>
        <time>2022-07-18T13:37:23Z</time>
      </trkpt>
      <trkpt lat="44.45864" lon="7.09308">
        <ele>1178</ele>
        <time>2022-07-18T13:37:24Z</time>
      </trkpt>
      <trkpt lat="44.45866" lon="7.0931">
        <ele>1178</ele>
        <time>2022-07-18T13:37:25Z</time>
      </trkpt>
      <trkpt lat="44.45867" lon="7.09311">
        <ele>1178.4</ele>
        <time>2022-07-18T13:37:26Z</time>
      </trkpt>
      <trkpt lat="44.45869" lon="7.09313">
        <ele>1178.4</ele>
        <time>2022-07-18T13:37:27Z</time>
      </trkpt>
      <trkpt lat="44.45871" lon="7.09314">
        <ele>1178.6</ele>
        <time>2022-07-18T13:37:28Z</time>
      </trkpt>
      <trkpt lat="44.45872" lon="7.09315">
        <ele>1178.6</ele>
        <time>2022-07-18T13:37:29Z</time>
      </trkpt>
      <trkpt lat="44.45873" lon="7.09316">
        <ele>1179</ele>
        <time>2022-07-18T13:37:30Z</time>
      </trkpt>
      <trkpt lat="44.45875" lon="7.09318">
        <ele>1179</ele>
        <time>2022-07-18T13:37:31Z</time>
      </trkpt>
      <trkpt lat="44.45876" lon="7.0932">
        <ele>1179.4</ele>
        <time>2022-07-18T13:37:32Z</time>
      </trkpt>
      <trkpt lat="44.45878" lon="7.09321">
        <ele>1179.4</ele>
        <time>2022-07-18T13:37:33Z</time>
      </trkpt>
      <trkpt lat="44.45879" lon="7.09323">
        <ele>1179.6</ele>
        <time>2022-07-18T13:37:34Z</time>
      </trkpt>
      <trkpt lat="44.45881" lon="7.09324">
        <ele>1179.6</ele>
        <time>2022-07-18T13:37:35Z</time>
      </trkpt>
      <trkpt lat="44.45883" lon="7.09326">
        <ele>1180</ele>
        <time>2022-07-18T13:37:36Z</time>
      </trkpt>
      <trkpt lat="44.45885" lon="7.09327">
        <ele>1180</ele>
        <time>2022-07-18T13:37:37Z</time>
      </trkpt>
      <trkpt lat="44.45886" lon="7.09329">
        <ele>1180.2</ele>
        <time>2022-07-18T13:37:38Z</time>
      </trkpt>
      <trkpt lat="44.45888" lon="7.0933">
        <ele>1180.2</ele>
        <time>2022-07-18T13:37:39Z</time>
      </trkpt>
      <trkpt lat="44.45889" lon="7.09331">
        <ele>1180.6</ele>
        <time>2022-07-18T13:37:40Z</time>
      </trkpt>
      <trkpt lat="44.45891" lon="7.09332">
        <ele>1180.6</ele>
        <time>2022-07-18T13:37:41Z</time>
      </trkpt>
      <trkpt lat="44.45892" lon="7.09333">
        <ele>1180.8</ele>
        <time>2022-07-18T13:37:42Z</time>
      </trkpt>
      <trkpt lat="44.45894" lon="7.09334">
        <ele>1181</ele>
        <time>2022-07-18T13:37:43Z</time>
      </trkpt>
      <trkpt lat="44.45895" lon="7.09335">
        <ele>1181</ele>
        <time>2022-07-18T13:37:44Z</time>
      </trkpt>
      <trkpt lat="44.45897" lon="7.09336">
        <ele>1181.4</ele>
        <time>2022-07-18T13:37:45Z</time>
      </trkpt>
      <trkpt lat="44.45899" lon="7.09337">
        <ele>1181.4</ele>
        <time>2022-07-18T13:37:46Z</time>
      </trkpt>
      <trkpt lat="44.459" lon="7.09338">
        <ele>1181.8</ele>
        <time>2022-07-18T13:37:47Z</time>
      </trkpt>
      <trkpt lat="44.45902" lon="7.09338">
        <ele>1181.8</ele>
        <time>2022-07-18T13:37:48Z</time>
      </trkpt>
      <trkpt lat="44.45904" lon="7.09339">
        <ele>1182</ele>
        <time>2022-07-18T13:37:49Z</time>
      </trkpt>
      <trkpt lat="44.45906" lon="7.09339">
        <ele>1182</ele>
        <time>2022-07-18T13:37:50Z</time>
      </trkpt>
      <trkpt lat="44.45907" lon="7.0934">
        <ele>1182.4</ele>
        <time>2022-07-18T13:37:51Z</time>
      </trkpt>
      <trkpt lat="44.45909" lon="7.09341">
        <ele>1182.4</ele>
        <time>2022-07-18T13:37:52Z</time>
      </trkpt>
      <trkpt lat="44.45911" lon="7.09341">
        <ele>1182.6</ele>
        <time>2022-07-18T13:37:53Z</time>
      </trkpt>
      <trkpt lat="44.45912" lon="7.09342">
        <ele>1182.6</ele>
        <time>2022-07-18T13:37:54Z</time>
      </trkpt>
      <trkpt lat="44.45914" lon="7.09343">
        <ele>1183</ele>
        <time>2022-07-18T13:37:55Z</time>
      </trkpt>
      <trkpt lat="44.45916" lon="7.09344">
        <ele>1183</ele>
        <time>2022-07-18T13:37:56Z</time>
      </trkpt>
      <trkpt lat="44.45918" lon="7.09344">
        <ele>1183.4</ele>
        <time>2022-07-18T13:37:57Z</time>
      </trkpt>
      <trkpt lat="44.4592" lon="7.09345">
        <ele>1183.6</ele>
        <time>2022-07-18T13:37:59Z</time>
      </trkpt>
      <trkpt lat="44.45922" lon="7.09345">
        <ele>1183.6</ele>
        <time>2022-07-18T13:38:00Z</time>
      </trkpt>
      <trkpt lat="44.45924" lon="7.09346">
        <ele>1183.8</ele>
        <time>2022-07-18T13:38:01Z</time>
      </trkpt>
      <trkpt lat="44.45926" lon="7.09346">
        <ele>1183.8</ele>
        <time>2022-07-18T13:38:02Z</time>
      </trkpt>
      <trkpt lat="44.4593" lon="7.09347">
        <ele>1184.2</ele>
        <time>2022-07-18T13:38:03Z</time>
      </trkpt>
      <trkpt lat="44.45932" lon="7.09347">
        <ele>1184.2</ele>
        <time>2022-07-18T13:38:04Z</time>
      </trkpt>
      <trkpt lat="44.45934" lon="7.09347">
        <ele>1184.4</ele>
        <time>2022-07-18T13:38:05Z</time>
      </trkpt>
      <trkpt lat="44.45936" lon="7.09348">
        <ele>1184.4</ele>
        <time>2022-07-18T13:38:06Z</time>
      </trkpt>
      <trkpt lat="44.45938" lon="7.09349">
        <ele>1184.8</ele>
        <time>2022-07-18T13:38:07Z</time>
      </trkpt>
      <trkpt lat="44.4594" lon="7.0935">
        <ele>1184.8</ele>
        <time>2022-07-18T13:38:08Z</time>
      </trkpt>
      <trkpt lat="44.45942" lon="7.09351">
        <ele>1185</ele>
        <time>2022-07-18T13:38:09Z</time>
      </trkpt>
      <trkpt lat="44.45944" lon="7.09353">
        <ele>1185</ele>
        <time>2022-07-18T13:38:10Z</time>
      </trkpt>
      <trkpt lat="44.45945" lon="7.09356">
        <ele>1185.4</ele>
        <time>2022-07-18T13:38:11Z</time>
      </trkpt>
      <trkpt lat="44.45946" lon="7.09359">
        <ele>1185.4</ele>
        <time>2022-07-18T13:38:12Z</time>
      </trkpt>
      <trkpt lat="44.45946" lon="7.09362">
        <ele>1185.6</ele>
        <time>2022-07-18T13:38:13Z</time>
      </trkpt>
      <trkpt lat="44.45945" lon="7.09365">
        <ele>1185.6</ele>
        <time>2022-07-18T13:38:14Z</time>
      </trkpt>
      <trkpt lat="44.45943" lon="7.09367">
        <ele>1185.6</ele>
        <time>2022-07-18T13:38:15Z</time>
      </trkpt>
      <trkpt lat="44.45942" lon="7.09369">
        <ele>1185.8</ele>
        <time>2022-07-18T13:38:16Z</time>
      </trkpt>
      <trkpt lat="44.4594" lon="7.0937">
        <ele>1185.8</ele>
        <time>2022-07-18T13:38:17Z</time>
      </trkpt>
      <trkpt lat="44.45938" lon="7.0937">
        <ele>1186.2</ele>
        <time>2022-07-18T13:38:18Z</time>
      </trkpt>
      <trkpt lat="44.45936" lon="7.09369">
        <ele>1186.2</ele>
        <time>2022-07-18T13:38:19Z</time>
      </trkpt>
      <trkpt lat="44.45934" lon="7.09369">
        <ele>1186.4</ele>
        <time>2022-07-18T13:38:20Z</time>
      </trkpt>
      <trkpt lat="44.45932" lon="7.09368">
        <ele>1186.4</ele>
        <time>2022-07-18T13:38:21Z</time>
      </trkpt>
      <trkpt lat="44.4593" lon="7.09367">
        <ele>1186.4</ele>
        <time>2022-07-18T13:38:22Z</time>
      </trkpt>
      <trkpt lat="44.45928" lon="7.09367">
        <ele>1186.8</ele>
        <time>2022-07-18T13:38:23Z</time>
      </trkpt>
      <trkpt lat="44.45926" lon="7.09366">
        <ele>1186.8</ele>
        <time>2022-07-18T13:38:24Z</time>
      </trkpt>
      <trkpt lat="44.45924" lon="7.09366">
        <ele>1187</ele>
        <time>2022-07-18T13:38:25Z</time>
      </trkpt>
      <trkpt lat="44.45922" lon="7.09366">
        <ele>1187</ele>
        <time>2022-07-18T13:38:26Z</time>
      </trkpt>
      <trkpt lat="44.4592" lon="7.09366">
        <ele>1187.4</ele>
        <time>2022-07-18T13:38:27Z</time>
      </trkpt>
      <trkpt lat="44.45918" lon="7.09366">
        <ele>1187.4</ele>
        <time>2022-07-18T13:38:28Z</time>
      </trkpt>
      <trkpt lat="44.45916" lon="7.09366">
        <ele>1187.6</ele>
        <time>2022-07-18T13:38:29Z</time>
      </trkpt>
      <trkpt lat="44.45914" lon="7.09366">
        <ele>1187.8</ele>
        <time>2022-07-18T13:38:30Z</time>
      </trkpt>
      <trkpt lat="44.45912" lon="7.09366">
        <ele>1188</ele>
        <time>2022-07-18T13:38:31Z</time>
      </trkpt>
      <trkpt lat="44.4591" lon="7.09366">
        <ele>1188</ele>
        <time>2022-07-18T13:38:32Z</time>
      </trkpt>
      <trkpt lat="44.45908" lon="7.09366">
        <ele>1188.4</ele>
        <time>2022-07-18T13:38:33Z</time>
      </trkpt>
      <trkpt lat="44.45906" lon="7.09365">
        <ele>1188.6</ele>
        <time>2022-07-18T13:38:34Z</time>
      </trkpt>
      <trkpt lat="44.45904" lon="7.09365">
        <ele>1188.8</ele>
        <time>2022-07-18T13:38:35Z</time>
      </trkpt>
      <trkpt lat="44.45902" lon="7.09365">
        <ele>1188.8</ele>
        <time>2022-07-18T13:38:36Z</time>
      </trkpt>
      <trkpt lat="44.459" lon="7.09366">
        <ele>1189.2</ele>
        <time>2022-07-18T13:38:37Z</time>
      </trkpt>
      <trkpt lat="44.45898" lon="7.09366">
        <ele>1189.2</ele>
        <time>2022-07-18T13:38:38Z</time>
      </trkpt>
      <trkpt lat="44.45896" lon="7.09367">
        <ele>1189.4</ele>
        <time>2022-07-18T13:38:39Z</time>
      </trkpt>
      <trkpt lat="44.45895" lon="7.09368">
        <ele>1189.4</ele>
        <time>2022-07-18T13:38:40Z</time>
      </trkpt>
      <trkpt lat="44.45893" lon="7.09369">
        <ele>1189.8</ele>
        <time>2022-07-18T13:38:41Z</time>
      </trkpt>
      <trkpt lat="44.45891" lon="7.0937">
        <ele>1189.8</ele>
        <time>2022-07-18T13:38:42Z</time>
      </trkpt>
      <trkpt lat="44.4589" lon="7.09371">
        <ele>1190.2</ele>
        <time>2022-07-18T13:38:43Z</time>
      </trkpt>
      <trkpt lat="44.45888" lon="7.09372">
        <ele>1190.2</ele>
        <time>2022-07-18T13:38:44Z</time>
      </trkpt>
      <trkpt lat="44.45886" lon="7.09372">
        <ele>1190.4</ele>
        <time>2022-07-18T13:38:45Z</time>
      </trkpt>
      <trkpt lat="44.45884" lon="7.09373">
        <ele>1190.4</ele>
        <time>2022-07-18T13:38:46Z</time>
      </trkpt>
      <trkpt lat="44.45883" lon="7.09373">
        <ele>1190.6</ele>
        <time>2022-07-18T13:38:47Z</time>
      </trkpt>
      <trkpt lat="44.45881" lon="7.09373">
        <ele>1190.6</ele>
        <time>2022-07-18T13:38:48Z</time>
      </trkpt>
      <trkpt lat="44.45879" lon="7.09374">
        <ele>1191</ele>
        <time>2022-07-18T13:38:49Z</time>
      </trkpt>
      <trkpt lat="44.45878" lon="7.09374">
        <ele>1191</ele>
        <time>2022-07-18T13:38:50Z</time>
      </trkpt>
      <trkpt lat="44.45876" lon="7.09374">
        <ele>1191.4</ele>
        <time>2022-07-18T13:38:51Z</time>
      </trkpt>
      <trkpt lat="44.45874" lon="7.09375">
        <ele>1191.4</ele>
        <time>2022-07-18T13:38:52Z</time>
      </trkpt>
      <trkpt lat="44.45872" lon="7.09376">
        <ele>1191.6</ele>
        <time>2022-07-18T13:38:53Z</time>
      </trkpt>
      <trkpt lat="44.45871" lon="7.09377">
        <ele>1191.6</ele>
        <time>2022-07-18T13:38:54Z</time>
      </trkpt>
      <trkpt lat="44.45869" lon="7.09378">
        <ele>1192</ele>
        <time>2022-07-18T13:38:55Z</time>
      </trkpt>
      <trkpt lat="44.45868" lon="7.09378">
        <ele>1192</ele>
        <time>2022-07-18T13:38:56Z</time>
      </trkpt>
      <trkpt lat="44.45866" lon="7.09379">
        <ele>1192.2</ele>
        <time>2022-07-18T13:38:57Z</time>
      </trkpt>
      <trkpt lat="44.45865" lon="7.0938">
        <ele>1192.2</ele>
        <time>2022-07-18T13:38:58Z</time>
      </trkpt>
      <trkpt lat="44.45863" lon="7.09381">
        <ele>1192.6</ele>
        <time>2022-07-18T13:38:59Z</time>
      </trkpt>
      <trkpt lat="44.45862" lon="7.09382">
        <ele>1192.6</ele>
        <time>2022-07-18T13:39:00Z</time>
      </trkpt>
      <trkpt lat="44.4586" lon="7.09383">
        <ele>1192.8</ele>
        <time>2022-07-18T13:39:01Z</time>
      </trkpt>
      <trkpt lat="44.45858" lon="7.09384">
        <ele>1192.8</ele>
        <time>2022-07-18T13:39:02Z</time>
      </trkpt>
      <trkpt lat="44.45857" lon="7.09385">
        <ele>1193.2</ele>
        <time>2022-07-18T13:39:03Z</time>
      </trkpt>
      <trkpt lat="44.45855" lon="7.09386">
        <ele>1193.2</ele>
        <time>2022-07-18T13:39:04Z</time>
      </trkpt>
      <trkpt lat="44.45854" lon="7.09387">
        <ele>1193.4</ele>
        <time>2022-07-18T13:39:05Z</time>
      </trkpt>
      <trkpt lat="44.45852" lon="7.09388">
        <ele>1193.4</ele>
        <time>2022-07-18T13:39:06Z</time>
      </trkpt>
      <trkpt lat="44.45851" lon="7.09389">
        <ele>1193.4</ele>
        <time>2022-07-18T13:39:07Z</time>
      </trkpt>
      <trkpt lat="44.45849" lon="7.0939">
        <ele>1193.6</ele>
        <time>2022-07-18T13:39:08Z</time>
      </trkpt>
      <trkpt lat="44.45847" lon="7.09391">
        <ele>1193.6</ele>
        <time>2022-07-18T13:39:09Z</time>
      </trkpt>
      <trkpt lat="44.45845" lon="7.09393">
        <ele>1193.8</ele>
        <time>2022-07-18T13:39:10Z</time>
      </trkpt>
      <trkpt lat="44.45844" lon="7.09394">
        <ele>1193.8</ele>
        <time>2022-07-18T13:39:11Z</time>
      </trkpt>
      <trkpt lat="44.45842" lon="7.09395">
        <ele>1194.2</ele>
        <time>2022-07-18T13:39:12Z</time>
      </trkpt>
      <trkpt lat="44.4584" lon="7.09396">
        <ele>1194.2</ele>
        <time>2022-07-18T13:39:13Z</time>
      </trkpt>
      <trkpt lat="44.45838" lon="7.09397">
        <ele>1194.2</ele>
        <time>2022-07-18T13:39:14Z</time>
      </trkpt>
      <trkpt lat="44.45837" lon="7.09397">
        <ele>1194.4</ele>
        <time>2022-07-18T13:39:15Z</time>
      </trkpt>
      <trkpt lat="44.45837" lon="7.09397">
        <ele>1194.4</ele>
        <time>2022-07-18T13:39:16Z</time>
      </trkpt>
      <trkpt lat="44.45837" lon="7.09397">
        <ele>1194.4</ele>
        <time>2022-07-18T13:39:17Z</time>
      </trkpt>
      <trkpt lat="44.45836" lon="7.09397">
        <ele>1194.4</ele>
        <time>2022-07-18T13:39:18Z</time>
      </trkpt>
      <trkpt lat="44.45836" lon="7.09397">
        <ele>1194.6</ele>
        <time>2022-07-18T13:39:19Z</time>
      </trkpt>
      <trkpt lat="44.45835" lon="7.09397">
        <ele>1194.6</ele>
        <time>2022-07-18T13:39:20Z</time>
      </trkpt>
      <trkpt lat="44.45835" lon="7.09397">
        <ele>1194.6</ele>
        <time>2022-07-18T13:39:21Z</time>
      </trkpt>
      <trkpt lat="44.45835" lon="7.09398">
        <ele>1194.6</ele>
        <time>2022-07-18T13:39:22Z</time>
      </trkpt>
      <trkpt lat="44.45834" lon="7.09398">
        <ele>1194.6</ele>
        <time>2022-07-18T13:39:23Z</time>
      </trkpt>
      <trkpt lat="44.45834" lon="7.09398">
        <ele>1194.6</ele>
        <time>2022-07-18T13:39:24Z</time>
      </trkpt>
      <trkpt lat="44.45833" lon="7.09398">
        <ele>1194.6</ele>
        <time>2022-07-18T13:39:25Z</time>
      </trkpt>
      <trkpt lat="44.45833" lon="7.09398">
        <ele>1194.6</ele>
        <time>2022-07-18T13:39:26Z</time>
      </trkpt>
      <trkpt lat="44.45833" lon="7.09398">
        <ele>1194.6</ele>
        <time>2022-07-18T13:39:27Z</time>
      </trkpt>
      <trkpt lat="44.45832" lon="7.09398">
        <ele>1194.6</ele>
        <time>2022-07-18T13:39:28Z</time>
      </trkpt>
      <trkpt lat="44.45832" lon="7.09398">
        <ele>1194.6</ele>
        <time>2022-07-18T13:39:29Z</time>
      </trkpt>
      <trkpt lat="44.45832" lon="7.09398">
        <ele>1194.6</ele>
        <time>2022-07-18T13:39:30Z</time>
      </trkpt>
      <trkpt lat="44.45831" lon="7.09399">
        <ele>1194.6</ele>
        <time>2022-07-18T13:39:31Z</time>
      </trkpt>
      <trkpt lat="44.45831" lon="7.09399">
        <ele>1194.8</ele>
        <time>2022-07-18T13:39:42Z</time>
      </trkpt>
      <trkpt lat="44.4583" lon="7.09399">
        <ele>1194.8</ele>
        <time>2022-07-18T13:39:43Z</time>
      </trkpt>
      <trkpt lat="44.4583" lon="7.09399">
        <ele>1194.8</ele>
        <time>2022-07-18T13:39:44Z</time>
      </trkpt>
      <trkpt lat="44.4583" lon="7.09399">
        <ele>1194.8</ele>
        <time>2022-07-18T13:39:45Z</time>
      </trkpt>
      <trkpt lat="44.45829" lon="7.09399">
        <ele>1194.8</ele>
        <time>2022-07-18T13:39:46Z</time>
      </trkpt>
      <trkpt lat="44.45828" lon="7.094">
        <ele>1194.8</ele>
        <time>2022-07-18T13:39:47Z</time>
      </trkpt>
      <trkpt lat="44.45826" lon="7.09401">
        <ele>1195</ele>
        <time>2022-07-18T13:39:48Z</time>
      </trkpt>
      <trkpt lat="44.45824" lon="7.09402">
        <ele>1195</ele>
        <time>2022-07-18T13:39:49Z</time>
      </trkpt>
      <trkpt lat="44.45821" lon="7.09402">
        <ele>1195</ele>
        <time>2022-07-18T13:39:50Z</time>
      </trkpt>
      <trkpt lat="44.45819" lon="7.09403">
        <ele>1195</ele>
        <time>2022-07-18T13:39:51Z</time>
      </trkpt>
      <trkpt lat="44.45816" lon="7.09404">
        <ele>1195</ele>
        <time>2022-07-18T13:39:52Z</time>
      </trkpt>
      <trkpt lat="44.45814" lon="7.09405">
        <ele>1195.4</ele>
        <time>2022-07-18T13:39:53Z</time>
      </trkpt>
      <trkpt lat="44.45812" lon="7.09406">
        <ele>1195.4</ele>
        <time>2022-07-18T13:39:54Z</time>
      </trkpt>
      <trkpt lat="44.4581" lon="7.09408">
        <ele>1195.4</ele>
        <time>2022-07-18T13:39:55Z</time>
      </trkpt>
      <trkpt lat="44.45808" lon="7.09409">
        <ele>1195.4</ele>
        <time>2022-07-18T13:39:56Z</time>
      </trkpt>
      <trkpt lat="44.45806" lon="7.0941">
        <ele>1195.4</ele>
        <time>2022-07-18T13:39:57Z</time>
      </trkpt>
      <trkpt lat="44.45804" lon="7.09411">
        <ele>1195.6</ele>
        <time>2022-07-18T13:39:58Z</time>
      </trkpt>
      <trkpt lat="44.45801" lon="7.09412">
        <ele>1195.6</ele>
        <time>2022-07-18T13:39:59Z</time>
      </trkpt>
      <trkpt lat="44.45799" lon="7.09413">
        <ele>1195.6</ele>
        <time>2022-07-18T13:40:00Z</time>
      </trkpt>
      <trkpt lat="44.45797" lon="7.09414">
        <ele>1195.6</ele>
        <time>2022-07-18T13:40:01Z</time>
      </trkpt>
      <trkpt lat="44.45796" lon="7.09415">
        <ele>1195.6</ele>
        <time>2022-07-18T13:40:02Z</time>
      </trkpt>
      <trkpt lat="44.45794" lon="7.09416">
        <ele>1195.6</ele>
        <time>2022-07-18T13:40:03Z</time>
      </trkpt>
      <trkpt lat="44.45791" lon="7.09417">
        <ele>1195.6</ele>
        <time>2022-07-18T13:40:04Z</time>
      </trkpt>
      <trkpt lat="44.45789" lon="7.0942">
        <ele>1195.6</ele>
        <time>2022-07-18T13:40:05Z</time>
      </trkpt>
      <trkpt lat="44.45787" lon="7.09422">
        <ele>1195.6</ele>
        <time>2022-07-18T13:40:06Z</time>
      </trkpt>
      <trkpt lat="44.45785" lon="7.09425">
        <ele>1195.6</ele>
        <time>2022-07-18T13:40:07Z</time>
      </trkpt>
      <trkpt lat="44.45783" lon="7.09427">
        <ele>1195.6</ele>
        <time>2022-07-18T13:40:08Z</time>
      </trkpt>
      <trkpt lat="44.45781" lon="7.09429">
        <ele>1195.6</ele>
        <time>2022-07-18T13:40:09Z</time>
      </trkpt>
      <trkpt lat="44.45779" lon="7.09431">
        <ele>1195.6</ele>
        <time>2022-07-18T13:40:10Z</time>
      </trkpt>
      <trkpt lat="44.45778" lon="7.09432">
        <ele>1195.6</ele>
        <time>2022-07-18T13:40:11Z</time>
      </trkpt>
      <trkpt lat="44.45777" lon="7.09434">
        <ele>1195.8</ele>
        <time>2022-07-18T13:40:12Z</time>
      </trkpt>
      <trkpt lat="44.45775" lon="7.09437">
        <ele>1195.8</ele>
        <time>2022-07-18T13:40:13Z</time>
      </trkpt>
      <trkpt lat="44.45774" lon="7.09439">
        <ele>1196</ele>
        <time>2022-07-18T13:40:14Z</time>
      </trkpt>
      <trkpt lat="44.45773" lon="7.09442">
        <ele>1196</ele>
        <time>2022-07-18T13:40:15Z</time>
      </trkpt>
      <trkpt lat="44.45772" lon="7.09444">
        <ele>1196.4</ele>
        <time>2022-07-18T13:40:16Z</time>
      </trkpt>
      <trkpt lat="44.45771" lon="7.09446">
        <ele>1196.4</ele>
        <time>2022-07-18T13:40:17Z</time>
      </trkpt>
      <trkpt lat="44.45771" lon="7.09446">
        <ele>1196.6</ele>
        <time>2022-07-18T13:40:18Z</time>
      </trkpt>
      <trkpt lat="44.45771" lon="7.09446">
        <ele>1196.6</ele>
        <time>2022-07-18T13:40:20Z</time>
      </trkpt>
      <trkpt lat="44.45771" lon="7.09446">
        <ele>1196.6</ele>
        <time>2022-07-18T13:40:21Z</time>
      </trkpt>
      <trkpt lat="44.45771" lon="7.09446">
        <ele>1197</ele>
        <time>2022-07-18T13:40:31Z</time>
      </trkpt>
      <trkpt lat="44.45771" lon="7.09446">
        <ele>1197</ele>
        <time>2022-07-18T13:40:33Z</time>
      </trkpt>
      <trkpt lat="44.45771" lon="7.09446">
        <ele>1197.2</ele>
        <time>2022-07-18T13:40:38Z</time>
      </trkpt>
      <trkpt lat="44.45771" lon="7.09446">
        <ele>1197.2</ele>
        <time>2022-07-18T13:40:41Z</time>
      </trkpt>
      <trkpt lat="44.45771" lon="7.09446">
        <ele>1197.2</ele>
        <time>2022-07-18T13:40:42Z</time>
      </trkpt>
      <trkpt lat="44.4577" lon="7.09446">
        <ele>1197.2</ele>
        <time>2022-07-18T13:40:44Z</time>
      </trkpt>
      <trkpt lat="44.4577" lon="7.09446">
        <ele>1197.2</ele>
        <time>2022-07-18T13:40:46Z</time>
      </trkpt>
      <trkpt lat="44.4577" lon="7.09446">
        <ele>1197.2</ele>
        <time>2022-07-18T13:40:48Z</time>
      </trkpt>
      <trkpt lat="44.4577" lon="7.09446">
        <ele>1197.2</ele>
        <time>2022-07-18T13:40:53Z</time>
      </trkpt>
      <trkpt lat="44.4577" lon="7.09446">
        <ele>1197.2</ele>
        <time>2022-07-18T13:40:54Z</time>
      </trkpt>
      <trkpt lat="44.4577" lon="7.09446">
        <ele>1197.2</ele>
        <time>2022-07-18T13:41:10Z</time>
      </trkpt>
      <trkpt lat="44.4577" lon="7.09446">
        <ele>1197.2</ele>
        <time>2022-07-18T13:41:31Z</time>
      </trkpt>
      <trkpt lat="44.4577" lon="7.09446">
        <ele>1197.2</ele>
        <time>2022-07-18T13:41:32Z</time>
      </trkpt>
      <trkpt lat="44.4577" lon="7.09446">
        <ele>1197.2</ele>
        <time>2022-07-18T13:41:34Z</time>
      </trkpt>
      <trkpt lat="44.4577" lon="7.09446">
        <ele>1197.2</ele>
        <time>2022-07-18T13:41:37Z</time>
      </trkpt>
      <trkpt lat="44.4577" lon="7.09446">
        <ele>1197.2</ele>
        <time>2022-07-18T13:41:38Z</time>
      </trkpt>
      <trkpt lat="44.4577" lon="7.09446">
        <ele>1197.2</ele>
        <time>2022-07-18T13:41:42Z</time>
      </trkpt>
      <trkpt lat="44.4577" lon="7.09446">
        <ele>1197.2</ele>
        <time>2022-07-18T13:41:43Z</time>
      </trkpt>
      <trkpt lat="44.4577" lon="7.09446">
        <ele>1197.2</ele>
        <time>2022-07-18T13:41:45Z</time>
      </trkpt>
      <trkpt lat="44.4577" lon="7.09446">
        <ele>1197.2</ele>
        <time>2022-07-18T13:41:53Z</time>
      </trkpt>
      <trkpt lat="44.4577" lon="7.09446">
        <ele>1197.2</ele>
        <time>2022-07-18T13:41:54Z</time>
      </trkpt>
      <trkpt lat="44.45769" lon="7.09446">
        <ele>1197.2</ele>
        <time>2022-07-18T13:41:56Z</time>
      </trkpt>
      <trkpt lat="44.45769" lon="7.09446">
        <ele>1197.2</ele>
        <time>2022-07-18T13:41:59Z</time>
      </trkpt>
      <trkpt lat="44.45769" lon="7.09446">
        <ele>1197.2</ele>
        <time>2022-07-18T13:42:01Z</time>
      </trkpt>
      <trkpt lat="44.45769" lon="7.09446">
        <ele>1197.2</ele>
        <time>2022-07-18T13:42:04Z</time>
      </trkpt>
      <trkpt lat="44.45769" lon="7.09446">
        <ele>1197.2</ele>
        <time>2022-07-18T13:42:05Z</time>
      </trkpt>
      <trkpt lat="44.45769" lon="7.09446">
        <ele>1197.2</ele>
        <time>2022-07-18T13:42:10Z</time>
      </trkpt>
      <trkpt lat="44.45769" lon="7.09446">
        <ele>1197.2</ele>
        <time>2022-07-18T13:42:14Z</time>
      </trkpt>
      <trkpt lat="44.45769" lon="7.09446">
        <ele>1197.2</ele>
        <time>2022-07-18T13:42:15Z</time>
      </trkpt>
      <trkpt lat="44.45769" lon="7.09446">
        <ele>1197.2</ele>
        <time>2022-07-18T13:42:17Z</time>
      </trkpt>
      <trkpt lat="44.45769" lon="7.09446">
        <ele>1197.2</ele>
        <time>2022-07-18T13:42:20Z</time>
      </trkpt>
      <trkpt lat="44.45769" lon="7.09446">
        <ele>1197.2</ele>
        <time>2022-07-18T13:42:22Z</time>
      </trkpt>
      <trkpt lat="44.45769" lon="7.09446">
        <ele>1197.4</ele>
        <time>2022-07-18T13:42:25Z</time>
      </trkpt>
      <trkpt lat="44.45769" lon="7.09446">
        <ele>1197.4</ele>
        <time>2022-07-18T13:42:26Z</time>
      </trkpt>
      <trkpt lat="44.45769" lon="7.09447">
        <ele>1197.4</ele>
        <time>2022-07-18T13:42:27Z</time>
      </trkpt>
      <trkpt lat="44.45769" lon="7.09447">
        <ele>1197.4</ele>
        <time>2022-07-18T13:42:29Z</time>
      </trkpt>
      <trkpt lat="44.45769" lon="7.09447">
        <ele>1197.4</ele>
        <time>2022-07-18T13:42:45Z</time>
      </trkpt>
      <trkpt lat="44.45769" lon="7.09447">
        <ele>1197.4</ele>
        <time>2022-07-18T13:42:48Z</time>
      </trkpt>
      <trkpt lat="44.45768" lon="7.09447">
        <ele>1197.4</ele>
        <time>2022-07-18T13:42:49Z</time>
      </trkpt>
      <trkpt lat="44.45768" lon="7.09447">
        <ele>1197.4</ele>
        <time>2022-07-18T13:42:50Z</time>
      </trkpt>
      <trkpt lat="44.45768" lon="7.09447">
        <ele>1197.4</ele>
        <time>2022-07-18T13:42:53Z</time>
      </trkpt>
      <trkpt lat="44.45768" lon="7.09447">
        <ele>1197.4</ele>
        <time>2022-07-18T13:42:56Z</time>
      </trkpt>
      <trkpt lat="44.45768" lon="7.09447">
        <ele>1197.4</ele>
        <time>2022-07-18T13:42:57Z</time>
      </trkpt>
      <trkpt lat="44.45768" lon="7.09447">
        <ele>1197.4</ele>
        <time>2022-07-18T13:42:59Z</time>
      </trkpt>
      <trkpt lat="44.45768" lon="7.09447">
        <ele>1197.4</ele>
        <time>2022-07-18T13:43:08Z</time>
      </trkpt>
      <trkpt lat="44.45768" lon="7.09447">
        <ele>1197.4</ele>
        <time>2022-07-18T13:43:13Z</time>
      </trkpt>
      <trkpt lat="44.45768" lon="7.09447">
        <ele>1197.4</ele>
        <time>2022-07-18T13:43:15Z</time>
      </trkpt>
      <trkpt lat="44.45768" lon="7.09447">
        <ele>1197.4</ele>
        <time>2022-07-18T13:43:17Z</time>
      </trkpt>
      <trkpt lat="44.45768" lon="7.09447">
        <ele>1197.4</ele>
        <time>2022-07-18T13:43:23Z</time>
      </trkpt>
      <trkpt lat="44.45768" lon="7.09447">
        <ele>1197.4</ele>
        <time>2022-07-18T13:43:24Z</time>
      </trkpt>
      <trkpt lat="44.45768" lon="7.09447">
        <ele>1197.4</ele>
        <time>2022-07-18T13:43:26Z</time>
      </trkpt>
      <trkpt lat="44.45768" lon="7.09447">
        <ele>1197.8</ele>
        <time>2022-07-18T13:43:31Z</time>
      </trkpt>
      <trkpt lat="44.45768" lon="7.09447">
        <ele>1197.8</ele>
        <time>2022-07-18T13:43:32Z</time>
      </trkpt>
      <trkpt lat="44.45768" lon="7.09447">
        <ele>1197.8</ele>
        <time>2022-07-18T13:43:35Z</time>
      </trkpt>
      <trkpt lat="44.45768" lon="7.09447">
        <ele>1197.8</ele>
        <time>2022-07-18T13:43:40Z</time>
      </trkpt>
      <trkpt lat="44.45767" lon="7.09447">
        <ele>1197.8</ele>
        <time>2022-07-18T13:43:44Z</time>
      </trkpt>
      <trkpt lat="44.45767" lon="7.09447">
        <ele>1197.8</ele>
        <time>2022-07-18T13:43:53Z</time>
      </trkpt>
      <trkpt lat="44.45767" lon="7.09447">
        <ele>1197.8</ele>
        <time>2022-07-18T13:43:59Z</time>
      </trkpt>
      <trkpt lat="44.45767" lon="7.09447">
        <ele>1197.8</ele>
        <time>2022-07-18T13:44:07Z</time>
      </trkpt>
      <trkpt lat="44.45767" lon="7.09447">
        <ele>1198</ele>
        <time>2022-07-18T13:44:44Z</time>
      </trkpt>
      <trkpt lat="44.45767" lon="7.09447">
        <ele>1198</ele>
        <time>2022-07-18T13:44:45Z</time>
      </trkpt>
      <trkpt lat="44.45767" lon="7.09447">
        <ele>1198</ele>
        <time>2022-07-18T13:45:22Z</time>
      </trkpt>
      <trkpt lat="44.45767" lon="7.09447">
        <ele>1198</ele>
        <time>2022-07-18T13:45:23Z</time>
      </trkpt>
      <trkpt lat="44.45767" lon="7.09447">
        <ele>1198</ele>
        <time>2022-07-18T13:45:25Z</time>
      </trkpt>
      <trkpt lat="44.45767" lon="7.09447">
        <ele>1198</ele>
        <time>2022-07-18T13:45:28Z</time>
      </trkpt>
      <trkpt lat="44.45767" lon="7.09447">
        <ele>1198</ele>
        <time>2022-07-18T13:45:29Z</time>
      </trkpt>
      <trkpt lat="44.45767" lon="7.09447">
        <ele>1198</ele>
        <time>2022-07-18T13:45:32Z</time>
      </trkpt>
      <trkpt lat="44.45767" lon="7.09447">
        <ele>1198.2</ele>
        <time>2022-07-18T13:45:39Z</time>
      </trkpt>
      <trkpt lat="44.45767" lon="7.09447">
        <ele>1198.2</ele>
        <time>2022-07-18T13:45:40Z</time>
      </trkpt>
      <trkpt lat="44.45767" lon="7.09447">
        <ele>1198.4</ele>
        <time>2022-07-18T13:45:52Z</time>
      </trkpt>
      <trkpt lat="44.45767" lon="7.09447">
        <ele>1198.2</ele>
        <time>2022-07-18T13:46:12Z</time>
      </trkpt>
      <trkpt lat="44.45767" lon="7.09447">
        <ele>1198.2</ele>
        <time>2022-07-18T13:46:13Z</time>
      </trkpt>
      <trkpt lat="44.45766" lon="7.09447">
        <ele>1198.2</ele>
        <time>2022-07-18T13:46:14Z</time>
      </trkpt>
      <trkpt lat="44.45766" lon="7.09447">
        <ele>1198.2</ele>
        <time>2022-07-18T13:46:17Z</time>
      </trkpt>
      <trkpt lat="44.45766" lon="7.09447">
        <ele>1198.4</ele>
        <time>2022-07-18T13:46:32Z</time>
      </trkpt>
      <trkpt lat="44.45766" lon="7.09447">
        <ele>1198.4</ele>
        <time>2022-07-18T13:46:33Z</time>
      </trkpt>
      <trkpt lat="44.45766" lon="7.09448">
        <ele>1198.4</ele>
        <time>2022-07-18T13:46:36Z</time>
      </trkpt>
      <trkpt lat="44.45766" lon="7.09448">
        <ele>1198.4</ele>
        <time>2022-07-18T13:46:44Z</time>
      </trkpt>
      <trkpt lat="44.45766" lon="7.09448">
        <ele>1198.4</ele>
        <time>2022-07-18T13:46:57Z</time>
      </trkpt>
      <trkpt lat="44.45766" lon="7.09448">
        <ele>1198.4</ele>
        <time>2022-07-18T13:47:04Z</time>
      </trkpt>
      <trkpt lat="44.45766" lon="7.09448">
        <ele>1198.4</ele>
        <time>2022-07-18T13:47:16Z</time>
      </trkpt>
      <trkpt lat="44.45766" lon="7.09448">
        <ele>1198.4</ele>
        <time>2022-07-18T13:47:17Z</time>
      </trkpt>
      <trkpt lat="44.45766" lon="7.09448">
        <ele>1198.4</ele>
        <time>2022-07-18T13:47:54Z</time>
      </trkpt>
      <trkpt lat="44.45766" lon="7.09448">
        <ele>1198.4</ele>
        <time>2022-07-18T13:48:02Z</time>
      </trkpt>
      <trkpt lat="44.45766" lon="7.09448">
        <ele>1198.4</ele>
        <time>2022-07-18T13:48:03Z</time>
      </trkpt>
      <trkpt lat="44.45766" lon="7.09448">
        <ele>1198.4</ele>
        <time>2022-07-18T13:48:06Z</time>
      </trkpt>
      <trkpt lat="44.45766" lon="7.09448">
        <ele>1198.4</ele>
        <time>2022-07-18T13:48:15Z</time>
      </trkpt>
      <trkpt lat="44.45766" lon="7.09448">
        <ele>1198.4</ele>
        <time>2022-07-18T13:48:27Z</time>
      </trkpt>
      <trkpt lat="44.45766" lon="7.09448">
        <ele>1198.2</ele>
        <time>2022-07-18T13:49:02Z</time>
      </trkpt>
      <trkpt lat="44.45766" lon="7.09448">
        <ele>1198.2</ele>
        <time>2022-07-18T13:49:11Z</time>
      </trkpt>
      <trkpt lat="44.45765" lon="7.09448">
        <ele>1198.2</ele>
        <time>2022-07-18T13:49:12Z</time>
      </trkpt>
      <trkpt lat="44.45765" lon="7.09448">
        <ele>1198.4</ele>
        <time>2022-07-18T13:49:31Z</time>
      </trkpt>
      <trkpt lat="44.45765" lon="7.09448">
        <ele>1198.4</ele>
        <time>2022-07-18T13:49:38Z</time>
      </trkpt>
      <trkpt lat="44.45765" lon="7.09448">
        <ele>1198.4</ele>
        <time>2022-07-18T13:49:39Z</time>
      </trkpt>
      <trkpt lat="44.45765" lon="7.09448">
        <ele>1198.4</ele>
        <time>2022-07-18T13:49:42Z</time>
      </trkpt>
      <trkpt lat="44.45765" lon="7.09448">
        <ele>1198.2</ele>
        <time>2022-07-18T13:50:05Z</time>
      </trkpt>
      <trkpt lat="44.45765" lon="7.09448">
        <ele>1198.2</ele>
        <time>2022-07-18T13:50:10Z</time>
      </trkpt>
      <trkpt lat="44.45765" lon="7.09448">
        <ele>1198.2</ele>
        <time>2022-07-18T13:50:16Z</time>
      </trkpt>
      <trkpt lat="44.45765" lon="7.09448">
        <ele>1198.2</ele>
        <time>2022-07-18T13:50:24Z</time>
      </trkpt>
      <trkpt lat="44.45765" lon="7.09448">
        <ele>1198.2</ele>
        <time>2022-07-18T13:50:25Z</time>
      </trkpt>
      <trkpt lat="44.45765" lon="7.09448">
        <ele>1198.2</ele>
        <time>2022-07-18T13:51:01Z</time>
      </trkpt>
      <trkpt lat="44.45765" lon="7.09448">
        <ele>1198.2</ele>
        <time>2022-07-18T13:51:12Z</time>
      </trkpt>
      <trkpt lat="44.45765" lon="7.09448">
        <ele>1198.2</ele>
        <time>2022-07-18T13:51:20Z</time>
      </trkpt>
      <trkpt lat="44.45765" lon="7.09448">
        <ele>1198.2</ele>
        <time>2022-07-18T13:51:28Z</time>
      </trkpt>
      <trkpt lat="44.45765" lon="7.09448">
        <ele>1197.8</ele>
        <time>2022-07-18T13:51:51Z</time>
      </trkpt>
      <trkpt lat="44.45765" lon="7.09448">
        <ele>1197.8</ele>
        <time>2022-07-18T13:51:58Z</time>
      </trkpt>
      <trkpt lat="44.45765" lon="7.09448">
        <ele>1197.8</ele>
        <time>2022-07-18T13:53:10Z</time>
      </trkpt>
      <trkpt lat="44.45764" lon="7.09448">
        <ele>1197.8</ele>
        <time>2022-07-18T13:53:11Z</time>
      </trkpt>
      <trkpt lat="44.45764" lon="7.09448">
        <ele>1197</ele>
        <time>2022-07-18T13:54:26Z</time>
      </trkpt>
      <trkpt lat="44.45764" lon="7.09448">
        <ele>1196.8</ele>
        <time>2022-07-18T13:54:30Z</time>
      </trkpt>
      <trkpt lat="44.45764" lon="7.09448">
        <ele>1196.8</ele>
        <time>2022-07-18T13:54:31Z</time>
      </trkpt>
      <trkpt lat="44.45764" lon="7.09448">
        <ele>1196.4</ele>
        <time>2022-07-18T13:55:16Z</time>
      </trkpt>
      <trkpt lat="44.45764" lon="7.09448">
        <ele>1196.4</ele>
        <time>2022-07-18T13:55:21Z</time>
      </trkpt>
      <trkpt lat="44.45764" lon="7.09448">
        <ele>1195</ele>
        <time>2022-07-18T13:57:10Z</time>
      </trkpt>
      <trkpt lat="44.45764" lon="7.09448">
        <ele>1195</ele>
        <time>2022-07-18T13:57:13Z</time>
      </trkpt>
      <trkpt lat="44.45764" lon="7.09448">
        <ele>1195</ele>
        <time>2022-07-18T13:57:14Z</time>
      </trkpt>
      <trkpt lat="44.45764" lon="7.09448">
        <ele>1194</ele>
        <time>2022-07-18T14:01:37Z</time>
      </trkpt>
      <trkpt lat="44.45764" lon="7.09448">
        <ele>1194</ele>
        <time>2022-07-18T14:01:40Z</time>
      </trkpt>
      <trkpt lat="44.45764" lon="7.09448">
        <ele>1194</ele>
        <time>2022-07-18T14:01:41Z</time>
      </trkpt>
      <trkpt lat="44.45764" lon="7.09449">
        <ele>1194</ele>
        <time>2022-07-18T14:01:43Z</time>
      </trkpt>
      <trkpt lat="44.45764" lon="7.09449">
        <ele>1194</ele>
        <time>2022-07-18T14:01:44Z</time>
      </trkpt>
      <trkpt lat="44.45765" lon="7.09449">
        <ele>1194</ele>
        <time>2022-07-18T14:01:47Z</time>
      </trkpt>
      <trkpt lat="44.45766" lon="7.09449">
        <ele>1194</ele>
        <time>2022-07-18T14:01:48Z</time>
      </trkpt>
      <trkpt lat="44.45767" lon="7.09447">
        <ele>1194</ele>
        <time>2022-07-18T14:01:49Z</time>
      </trkpt>
      <trkpt lat="44.45769" lon="7.09446">
        <ele>1194</ele>
        <time>2022-07-18T14:01:50Z</time>
      </trkpt>
      <trkpt lat="44.4577" lon="7.09445">
        <ele>1194</ele>
        <time>2022-07-18T14:01:51Z</time>
      </trkpt>
      <trkpt lat="44.45771" lon="7.09444">
        <ele>1194</ele>
        <time>2022-07-18T14:01:52Z</time>
      </trkpt>
      <trkpt lat="44.45773" lon="7.09442">
        <ele>1193.6</ele>
        <time>2022-07-18T14:01:53Z</time>
      </trkpt>
      <trkpt lat="44.45774" lon="7.0944">
        <ele>1193.4</ele>
        <time>2022-07-18T14:01:54Z</time>
      </trkpt>
      <trkpt lat="44.45776" lon="7.09437">
        <ele>1193.2</ele>
        <time>2022-07-18T14:01:55Z</time>
      </trkpt>
      <trkpt lat="44.45779" lon="7.09434">
        <ele>1193.2</ele>
        <time>2022-07-18T14:01:56Z</time>
      </trkpt>
      <trkpt lat="44.45781" lon="7.09431">
        <ele>1192.8</ele>
        <time>2022-07-18T14:01:57Z</time>
      </trkpt>
      <trkpt lat="44.45785" lon="7.09428">
        <ele>1192.8</ele>
        <time>2022-07-18T14:01:58Z</time>
      </trkpt>
      <trkpt lat="44.45788" lon="7.09426">
        <ele>1192.6</ele>
        <time>2022-07-18T14:01:59Z</time>
      </trkpt>
      <trkpt lat="44.45792" lon="7.09424">
        <ele>1192.6</ele>
        <time>2022-07-18T14:02:00Z</time>
      </trkpt>
      <trkpt lat="44.45796" lon="7.09421">
        <ele>1192.6</ele>
        <time>2022-07-18T14:02:01Z</time>
      </trkpt>
      <trkpt lat="44.45799" lon="7.0942">
        <ele>1192.6</ele>
        <time>2022-07-18T14:02:02Z</time>
      </trkpt>
      <trkpt lat="44.45802" lon="7.09418">
        <ele>1192.6</ele>
        <time>2022-07-18T14:02:03Z</time>
      </trkpt>
      <trkpt lat="44.45805" lon="7.09416">
        <ele>1192.6</ele>
        <time>2022-07-18T14:02:04Z</time>
      </trkpt>
      <trkpt lat="44.45808" lon="7.09415">
        <ele>1192.6</ele>
        <time>2022-07-18T14:02:05Z</time>
      </trkpt>
      <trkpt lat="44.45811" lon="7.09414">
        <ele>1192.6</ele>
        <time>2022-07-18T14:02:06Z</time>
      </trkpt>
      <trkpt lat="44.45814" lon="7.09414">
        <ele>1192.6</ele>
        <time>2022-07-18T14:02:07Z</time>
      </trkpt>
      <trkpt lat="44.45816" lon="7.09415">
        <ele>1192.6</ele>
        <time>2022-07-18T14:02:08Z</time>
      </trkpt>
      <trkpt lat="44.45819" lon="7.09416">
        <ele>1192.6</ele>
        <time>2022-07-18T14:02:09Z</time>
      </trkpt>
      <trkpt lat="44.45821" lon="7.09416">
        <ele>1192.6</ele>
        <time>2022-07-18T14:02:10Z</time>
      </trkpt>
      <trkpt lat="44.45823" lon="7.09416">
        <ele>1192.8</ele>
        <time>2022-07-18T14:02:11Z</time>
      </trkpt>
      <trkpt lat="44.45825" lon="7.09415">
        <ele>1192.8</ele>
        <time>2022-07-18T14:02:12Z</time>
      </trkpt>
      <trkpt lat="44.45827" lon="7.09415">
        <ele>1193</ele>
        <time>2022-07-18T14:02:13Z</time>
      </trkpt>
      <trkpt lat="44.45828" lon="7.09414">
        <ele>1193.4</ele>
        <time>2022-07-18T14:02:14Z</time>
      </trkpt>
      <trkpt lat="44.4583" lon="7.09413">
        <ele>1193.6</ele>
        <time>2022-07-18T14:02:15Z</time>
      </trkpt>
      <trkpt lat="44.45833" lon="7.09413">
        <ele>1193.8</ele>
        <time>2022-07-18T14:02:16Z</time>
      </trkpt>
      <trkpt lat="44.45835" lon="7.09413">
        <ele>1193.8</ele>
        <time>2022-07-18T14:02:17Z</time>
      </trkpt>
      <trkpt lat="44.45837" lon="7.09413">
        <ele>1194.2</ele>
        <time>2022-07-18T14:02:18Z</time>
      </trkpt>
      <trkpt lat="44.45839" lon="7.09413">
        <ele>1194.2</ele>
        <time>2022-07-18T14:02:19Z</time>
      </trkpt>
      <trkpt lat="44.45841" lon="7.09412">
        <ele>1194.4</ele>
        <time>2022-07-18T14:02:20Z</time>
      </trkpt>
      <trkpt lat="44.45843" lon="7.09412">
        <ele>1194.6</ele>
        <time>2022-07-18T14:02:21Z</time>
      </trkpt>
      <trkpt lat="44.45846" lon="7.09412">
        <ele>1194.6</ele>
        <time>2022-07-18T14:02:22Z</time>
      </trkpt>
      <trkpt lat="44.45848" lon="7.09412">
        <ele>1195</ele>
        <time>2022-07-18T14:02:23Z</time>
      </trkpt>
      <trkpt lat="44.4585" lon="7.09412">
        <ele>1195</ele>
        <time>2022-07-18T14:02:24Z</time>
      </trkpt>
      <trkpt lat="44.45852" lon="7.09411">
        <ele>1195.4</ele>
        <time>2022-07-18T14:02:25Z</time>
      </trkpt>
      <trkpt lat="44.45854" lon="7.09411">
        <ele>1195.4</ele>
        <time>2022-07-18T14:02:26Z</time>
      </trkpt>
      <trkpt lat="44.45856" lon="7.09411">
        <ele>1195.8</ele>
        <time>2022-07-18T14:02:27Z</time>
      </trkpt>
      <trkpt lat="44.45859" lon="7.09411">
        <ele>1196</ele>
        <time>2022-07-18T14:02:28Z</time>
      </trkpt>
      <trkpt lat="44.45861" lon="7.09411">
        <ele>1196</ele>
        <time>2022-07-18T14:02:29Z</time>
      </trkpt>
      <trkpt lat="44.45862" lon="7.09411">
        <ele>1196.2</ele>
        <time>2022-07-18T14:02:30Z</time>
      </trkpt>
      <trkpt lat="44.45864" lon="7.0941">
        <ele>1196.2</ele>
        <time>2022-07-18T14:02:31Z</time>
      </trkpt>
      <trkpt lat="44.45866" lon="7.0941">
        <ele>1196.6</ele>
        <time>2022-07-18T14:02:32Z</time>
      </trkpt>
      <trkpt lat="44.45867" lon="7.09409">
        <ele>1196.8</ele>
        <time>2022-07-18T14:02:33Z</time>
      </trkpt>
      <trkpt lat="44.45869" lon="7.09409">
        <ele>1196.8</ele>
        <time>2022-07-18T14:02:34Z</time>
      </trkpt>
      <trkpt lat="44.45871" lon="7.09408">
        <ele>1197.2</ele>
        <time>2022-07-18T14:02:35Z</time>
      </trkpt>
      <trkpt lat="44.45873" lon="7.09408">
        <ele>1197.2</ele>
        <time>2022-07-18T14:02:36Z</time>
      </trkpt>
      <trkpt lat="44.45874" lon="7.09408">
        <ele>1197.6</ele>
        <time>2022-07-18T14:02:37Z</time>
      </trkpt>
      <trkpt lat="44.45876" lon="7.09408">
        <ele>1197.6</ele>
        <time>2022-07-18T14:02:38Z</time>
      </trkpt>
      <trkpt lat="44.45877" lon="7.09408">
        <ele>1197.8</ele>
        <time>2022-07-18T14:02:39Z</time>
      </trkpt>
      <trkpt lat="44.45879" lon="7.09408">
        <ele>1198</ele>
        <time>2022-07-18T14:02:40Z</time>
      </trkpt>
      <trkpt lat="44.4588" lon="7.09408">
        <ele>1198</ele>
        <time>2022-07-18T14:02:41Z</time>
      </trkpt>
      <trkpt lat="44.45882" lon="7.09409">
        <ele>1198.4</ele>
        <time>2022-07-18T14:02:42Z</time>
      </trkpt>
      <trkpt lat="44.45884" lon="7.09409">
        <ele>1198.4</ele>
        <time>2022-07-18T14:02:43Z</time>
      </trkpt>
      <trkpt lat="44.45885" lon="7.09409">
        <ele>1198.6</ele>
        <time>2022-07-18T14:02:44Z</time>
      </trkpt>
      <trkpt lat="44.45887" lon="7.09409">
        <ele>1198.6</ele>
        <time>2022-07-18T14:02:45Z</time>
      </trkpt>
      <trkpt lat="44.45889" lon="7.09409">
        <ele>1199</ele>
        <time>2022-07-18T14:02:46Z</time>
      </trkpt>
      <trkpt lat="44.45891" lon="7.0941">
        <ele>1199</ele>
        <time>2022-07-18T14:02:47Z</time>
      </trkpt>
      <trkpt lat="44.45893" lon="7.09411">
        <ele>1199.4</ele>
        <time>2022-07-18T14:02:48Z</time>
      </trkpt>
      <trkpt lat="44.45895" lon="7.09412">
        <ele>1199.6</ele>
        <time>2022-07-18T14:02:49Z</time>
      </trkpt>
      <trkpt lat="44.45897" lon="7.09412">
        <ele>1199.6</ele>
        <time>2022-07-18T14:02:50Z</time>
      </trkpt>
      <trkpt lat="44.45899" lon="7.09413">
        <ele>1199.8</ele>
        <time>2022-07-18T14:02:51Z</time>
      </trkpt>
      <trkpt lat="44.459" lon="7.09413">
        <ele>1200.2</ele>
        <time>2022-07-18T14:02:52Z</time>
      </trkpt>
      <trkpt lat="44.45902" lon="7.09414">
        <ele>1200.2</ele>
        <time>2022-07-18T14:02:53Z</time>
      </trkpt>
      <trkpt lat="44.45904" lon="7.09414">
        <ele>1200.4</ele>
        <time>2022-07-18T14:02:54Z</time>
      </trkpt>
      <trkpt lat="44.45906" lon="7.09415">
        <ele>1200.4</ele>
        <time>2022-07-18T14:02:55Z</time>
      </trkpt>
      <trkpt lat="44.45907" lon="7.09415">
        <ele>1200.8</ele>
        <time>2022-07-18T14:02:56Z</time>
      </trkpt>
      <trkpt lat="44.45909" lon="7.09416">
        <ele>1200.8</ele>
        <time>2022-07-18T14:02:57Z</time>
      </trkpt>
      <trkpt lat="44.45911" lon="7.09416">
        <ele>1201</ele>
        <time>2022-07-18T14:02:58Z</time>
      </trkpt>
      <trkpt lat="44.45913" lon="7.09417">
        <ele>1201</ele>
        <time>2022-07-18T14:02:59Z</time>
      </trkpt>
      <trkpt lat="44.45915" lon="7.09418">
        <ele>1201.4</ele>
        <time>2022-07-18T14:03:00Z</time>
      </trkpt>
      <trkpt lat="44.45916" lon="7.09419">
        <ele>1201.4</ele>
        <time>2022-07-18T14:03:01Z</time>
      </trkpt>
      <trkpt lat="44.45918" lon="7.0942">
        <ele>1201.8</ele>
        <time>2022-07-18T14:03:02Z</time>
      </trkpt>
      <trkpt lat="44.45919" lon="7.09421">
        <ele>1201.8</ele>
        <time>2022-07-18T14:03:03Z</time>
      </trkpt>
      <trkpt lat="44.45921" lon="7.09422">
        <ele>1202</ele>
        <time>2022-07-18T14:03:04Z</time>
      </trkpt>
      <trkpt lat="44.45922" lon="7.09423">
        <ele>1202.2</ele>
        <time>2022-07-18T14:03:05Z</time>
      </trkpt>
      <trkpt lat="44.45924" lon="7.09424">
        <ele>1202.2</ele>
        <time>2022-07-18T14:03:06Z</time>
      </trkpt>
      <trkpt lat="44.45925" lon="7.09425">
        <ele>1202.6</ele>
        <time>2022-07-18T14:03:07Z</time>
      </trkpt>
      <trkpt lat="44.45926" lon="7.09426">
        <ele>1202.8</ele>
        <time>2022-07-18T14:03:08Z</time>
      </trkpt>
      <trkpt lat="44.45927" lon="7.09427">
        <ele>1203</ele>
        <time>2022-07-18T14:03:09Z</time>
      </trkpt>
      <trkpt lat="44.45929" lon="7.09428">
        <ele>1203</ele>
        <time>2022-07-18T14:03:10Z</time>
      </trkpt>
      <trkpt lat="44.4593" lon="7.09429">
        <ele>1203.4</ele>
        <time>2022-07-18T14:03:11Z</time>
      </trkpt>
      <trkpt lat="44.45931" lon="7.0943">
        <ele>1203.4</ele>
        <time>2022-07-18T14:03:12Z</time>
      </trkpt>
      <trkpt lat="44.45933" lon="7.09431">
        <ele>1203.6</ele>
        <time>2022-07-18T14:03:13Z</time>
      </trkpt>
      <trkpt lat="44.45934" lon="7.09432">
        <ele>1203.6</ele>
        <time>2022-07-18T14:03:14Z</time>
      </trkpt>
      <trkpt lat="44.45936" lon="7.09432">
        <ele>1204</ele>
        <time>2022-07-18T14:03:15Z</time>
      </trkpt>
      <trkpt lat="44.45937" lon="7.09434">
        <ele>1204</ele>
        <time>2022-07-18T14:03:16Z</time>
      </trkpt>
      <trkpt lat="44.45938" lon="7.09435">
        <ele>1204.4</ele>
        <time>2022-07-18T14:03:17Z</time>
      </trkpt>
      <trkpt lat="44.4594" lon="7.09436">
        <ele>1204.4</ele>
        <time>2022-07-18T14:03:18Z</time>
      </trkpt>
      <trkpt lat="44.45941" lon="7.09437">
        <ele>1204.6</ele>
        <time>2022-07-18T14:03:19Z</time>
      </trkpt>
      <trkpt lat="44.45942" lon="7.09438">
        <ele>1204.6</ele>
        <time>2022-07-18T14:03:20Z</time>
      </trkpt>
      <trkpt lat="44.45944" lon="7.09438">
        <ele>1205</ele>
        <time>2022-07-18T14:03:21Z</time>
      </trkpt>
      <trkpt lat="44.45945" lon="7.09439">
        <ele>1205.2</ele>
        <time>2022-07-18T14:03:22Z</time>
      </trkpt>
      <trkpt lat="44.45947" lon="7.0944">
        <ele>1205.2</ele>
        <time>2022-07-18T14:03:23Z</time>
      </trkpt>
      <trkpt lat="44.45948" lon="7.0944">
        <ele>1205.4</ele>
        <time>2022-07-18T14:03:24Z</time>
      </trkpt>
      <trkpt lat="44.45949" lon="7.09441">
        <ele>1205.4</ele>
        <time>2022-07-18T14:03:25Z</time>
      </trkpt>
      <trkpt lat="44.45951" lon="7.09441">
        <ele>1205.8</ele>
        <time>2022-07-18T14:03:26Z</time>
      </trkpt>
      <trkpt lat="44.45952" lon="7.09442">
        <ele>1205.8</ele>
        <time>2022-07-18T14:03:27Z</time>
      </trkpt>
      <trkpt lat="44.45954" lon="7.09442">
        <ele>1206</ele>
        <time>2022-07-18T14:03:28Z</time>
      </trkpt>
      <trkpt lat="44.45955" lon="7.09443">
        <ele>1206</ele>
        <time>2022-07-18T14:03:29Z</time>
      </trkpt>
      <trkpt lat="44.45956" lon="7.09443">
        <ele>1206.4</ele>
        <time>2022-07-18T14:03:30Z</time>
      </trkpt>
      <trkpt lat="44.45958" lon="7.09443">
        <ele>1206.4</ele>
        <time>2022-07-18T14:03:31Z</time>
      </trkpt>
      <trkpt lat="44.45959" lon="7.09443">
        <ele>1206.6</ele>
        <time>2022-07-18T14:03:32Z</time>
      </trkpt>
      <trkpt lat="44.45961" lon="7.09444">
        <ele>1206.6</ele>
        <time>2022-07-18T14:03:33Z</time>
      </trkpt>
      <trkpt lat="44.45962" lon="7.09443">
        <ele>1206.8</ele>
        <time>2022-07-18T14:03:34Z</time>
      </trkpt>
      <trkpt lat="44.45964" lon="7.09443">
        <ele>1206.8</ele>
        <time>2022-07-18T14:03:35Z</time>
      </trkpt>
      <trkpt lat="44.45966" lon="7.09443">
        <ele>1207.2</ele>
        <time>2022-07-18T14:03:36Z</time>
      </trkpt>
      <trkpt lat="44.45967" lon="7.09443">
        <ele>1207.4</ele>
        <time>2022-07-18T14:03:37Z</time>
      </trkpt>
      <trkpt lat="44.45968" lon="7.09443">
        <ele>1207.4</ele>
        <time>2022-07-18T14:03:38Z</time>
      </trkpt>
      <trkpt lat="44.45969" lon="7.09442">
        <ele>1207.6</ele>
        <time>2022-07-18T14:03:39Z</time>
      </trkpt>
      <trkpt lat="44.45971" lon="7.09442">
        <ele>1207.6</ele>
        <time>2022-07-18T14:03:40Z</time>
      </trkpt>
      <trkpt lat="44.45972" lon="7.09441">
        <ele>1208</ele>
        <time>2022-07-18T14:03:41Z</time>
      </trkpt>
      <trkpt lat="44.45973" lon="7.09441">
        <ele>1208</ele>
        <time>2022-07-18T14:03:42Z</time>
      </trkpt>
      <trkpt lat="44.45975" lon="7.09441">
        <ele>1208.4</ele>
        <time>2022-07-18T14:03:43Z</time>
      </trkpt>
      <trkpt lat="44.45977" lon="7.09442">
        <ele>1208.4</ele>
        <time>2022-07-18T14:03:44Z</time>
      </trkpt>
      <trkpt lat="44.45979" lon="7.09442">
        <ele>1208.6</ele>
        <time>2022-07-18T14:03:45Z</time>
      </trkpt>
      <trkpt lat="44.4598" lon="7.09443">
        <ele>1208.6</ele>
        <time>2022-07-18T14:03:46Z</time>
      </trkpt>
      <trkpt lat="44.45982" lon="7.09443">
        <ele>1209</ele>
        <time>2022-07-18T14:03:47Z</time>
      </trkpt>
      <trkpt lat="44.45983" lon="7.09444">
        <ele>1209</ele>
        <time>2022-07-18T14:03:48Z</time>
      </trkpt>
      <trkpt lat="44.45985" lon="7.09445">
        <ele>1209.4</ele>
        <time>2022-07-18T14:03:49Z</time>
      </trkpt>
      <trkpt lat="44.45987" lon="7.09445">
        <ele>1209.4</ele>
        <time>2022-07-18T14:03:50Z</time>
      </trkpt>
      <trkpt lat="44.45989" lon="7.09446">
        <ele>1209.6</ele>
        <time>2022-07-18T14:03:51Z</time>
      </trkpt>
      <trkpt lat="44.4599" lon="7.09447">
        <ele>1209.6</ele>
        <time>2022-07-18T14:03:52Z</time>
      </trkpt>
      <trkpt lat="44.45992" lon="7.09448">
        <ele>1210</ele>
        <time>2022-07-18T14:03:53Z</time>
      </trkpt>
      <trkpt lat="44.45994" lon="7.09449">
        <ele>1210.2</ele>
        <time>2022-07-18T14:03:54Z</time>
      </trkpt>
      <trkpt lat="44.45995" lon="7.0945">
        <ele>1210.2</ele>
        <time>2022-07-18T14:03:55Z</time>
      </trkpt>
      <trkpt lat="44.45997" lon="7.09451">
        <ele>1210.4</ele>
        <time>2022-07-18T14:03:56Z</time>
      </trkpt>
      <trkpt lat="44.45999" lon="7.09452">
        <ele>1210.4</ele>
        <time>2022-07-18T14:03:57Z</time>
      </trkpt>
      <trkpt lat="44.46" lon="7.09453">
        <ele>1210.8</ele>
        <time>2022-07-18T14:03:58Z</time>
      </trkpt>
      <trkpt lat="44.46002" lon="7.09454">
        <ele>1210.8</ele>
        <time>2022-07-18T14:03:59Z</time>
      </trkpt>
      <trkpt lat="44.46004" lon="7.09454">
        <ele>1211.2</ele>
        <time>2022-07-18T14:04:00Z</time>
      </trkpt>
      <trkpt lat="44.46005" lon="7.09455">
        <ele>1211.2</ele>
        <time>2022-07-18T14:04:01Z</time>
      </trkpt>
      <trkpt lat="44.46006" lon="7.09456">
        <ele>1211.4</ele>
        <time>2022-07-18T14:04:02Z</time>
      </trkpt>
      <trkpt lat="44.46008" lon="7.09458">
        <ele>1211.6</ele>
        <time>2022-07-18T14:04:03Z</time>
      </trkpt>
      <trkpt lat="44.4601" lon="7.09459">
        <ele>1211.6</ele>
        <time>2022-07-18T14:04:04Z</time>
      </trkpt>
      <trkpt lat="44.46012" lon="7.0946">
        <ele>1212</ele>
        <time>2022-07-18T14:04:05Z</time>
      </trkpt>
      <trkpt lat="44.46014" lon="7.09461">
        <ele>1212</ele>
        <time>2022-07-18T14:04:06Z</time>
      </trkpt>
      <trkpt lat="44.46015" lon="7.09462">
        <ele>1212.2</ele>
        <time>2022-07-18T14:04:07Z</time>
      </trkpt>
      <trkpt lat="44.46017" lon="7.09462">
        <ele>1212.2</ele>
        <time>2022-07-18T14:04:08Z</time>
      </trkpt>
      <trkpt lat="44.46018" lon="7.09463">
        <ele>1212.6</ele>
        <time>2022-07-18T14:04:09Z</time>
      </trkpt>
      <trkpt lat="44.4602" lon="7.09463">
        <ele>1212.6</ele>
        <time>2022-07-18T14:04:10Z</time>
      </trkpt>
      <trkpt lat="44.46022" lon="7.09464">
        <ele>1212.8</ele>
        <time>2022-07-18T14:04:11Z</time>
      </trkpt>
      <trkpt lat="44.46023" lon="7.09465">
        <ele>1212.8</ele>
        <time>2022-07-18T14:04:12Z</time>
      </trkpt>
      <trkpt lat="44.46025" lon="7.09466">
        <ele>1212.8</ele>
        <time>2022-07-18T14:04:13Z</time>
      </trkpt>
      <trkpt lat="44.46026" lon="7.09466">
        <ele>1213.2</ele>
        <time>2022-07-18T14:04:14Z</time>
      </trkpt>
      <trkpt lat="44.46028" lon="7.09466">
        <ele>1213.2</ele>
        <time>2022-07-18T14:04:15Z</time>
      </trkpt>
      <trkpt lat="44.46029" lon="7.09467">
        <ele>1213.6</ele>
        <time>2022-07-18T14:04:16Z</time>
      </trkpt>
      <trkpt lat="44.46031" lon="7.09467">
        <ele>1213.6</ele>
        <time>2022-07-18T14:04:17Z</time>
      </trkpt>
      <trkpt lat="44.46033" lon="7.09468">
        <ele>1214</ele>
        <time>2022-07-18T14:04:18Z</time>
      </trkpt>
      <trkpt lat="44.46034" lon="7.09468">
        <ele>1214</ele>
        <time>2022-07-18T14:04:19Z</time>
      </trkpt>
      <trkpt lat="44.46036" lon="7.09468">
        <ele>1214.2</ele>
        <time>2022-07-18T14:04:20Z</time>
      </trkpt>
      <trkpt lat="44.46037" lon="7.09469">
        <ele>1214.2</ele>
        <time>2022-07-18T14:04:21Z</time>
      </trkpt>
      <trkpt lat="44.46039" lon="7.0947">
        <ele>1214.6</ele>
        <time>2022-07-18T14:04:22Z</time>
      </trkpt>
      <trkpt lat="44.46041" lon="7.09471">
        <ele>1214.8</ele>
        <time>2022-07-18T14:04:23Z</time>
      </trkpt>
      <trkpt lat="44.46043" lon="7.09471">
        <ele>1214.8</ele>
        <time>2022-07-18T14:04:24Z</time>
      </trkpt>
      <trkpt lat="44.46044" lon="7.09471">
        <ele>1215.2</ele>
        <time>2022-07-18T14:04:25Z</time>
      </trkpt>
      <trkpt lat="44.46046" lon="7.09471">
        <ele>1215.4</ele>
        <time>2022-07-18T14:04:26Z</time>
      </trkpt>
      <trkpt lat="44.46048" lon="7.09471">
        <ele>1215.4</ele>
        <time>2022-07-18T14:04:27Z</time>
      </trkpt>
      <trkpt lat="44.46049" lon="7.09472">
        <ele>1215.8</ele>
        <time>2022-07-18T14:04:28Z</time>
      </trkpt>
      <trkpt lat="44.4605" lon="7.09472">
        <ele>1215.8</ele>
        <time>2022-07-18T14:04:29Z</time>
      </trkpt>
      <trkpt lat="44.46052" lon="7.09472">
        <ele>1216</ele>
        <time>2022-07-18T14:04:30Z</time>
      </trkpt>
      <trkpt lat="44.46054" lon="7.09473">
        <ele>1216</ele>
        <time>2022-07-18T14:04:31Z</time>
      </trkpt>
      <trkpt lat="44.46056" lon="7.09473">
        <ele>1216.2</ele>
        <time>2022-07-18T14:04:32Z</time>
      </trkpt>
      <trkpt lat="44.46058" lon="7.09474">
        <ele>1216.2</ele>
        <time>2022-07-18T14:04:33Z</time>
      </trkpt>
      <trkpt lat="44.46059" lon="7.09475">
        <ele>1216.6</ele>
        <time>2022-07-18T14:04:34Z</time>
      </trkpt>
      <trkpt lat="44.46061" lon="7.09476">
        <ele>1216.6</ele>
        <time>2022-07-18T14:04:35Z</time>
      </trkpt>
      <trkpt lat="44.46063" lon="7.09477">
        <ele>1217</ele>
        <time>2022-07-18T14:04:36Z</time>
      </trkpt>
      <trkpt lat="44.46064" lon="7.09478">
        <ele>1217</ele>
        <time>2022-07-18T14:04:37Z</time>
      </trkpt>
      <trkpt lat="44.46066" lon="7.09479">
        <ele>1217.4</ele>
        <time>2022-07-18T14:04:38Z</time>
      </trkpt>
      <trkpt lat="44.46067" lon="7.0948">
        <ele>1217.4</ele>
        <time>2022-07-18T14:04:39Z</time>
      </trkpt>
      <trkpt lat="44.46069" lon="7.09482">
        <ele>1217.6</ele>
        <time>2022-07-18T14:04:40Z</time>
      </trkpt>
      <trkpt lat="44.4607" lon="7.09483">
        <ele>1217.6</ele>
        <time>2022-07-18T14:04:41Z</time>
      </trkpt>
      <trkpt lat="44.46072" lon="7.09484">
        <ele>1218</ele>
        <time>2022-07-18T14:04:42Z</time>
      </trkpt>
      <trkpt lat="44.46073" lon="7.09486">
        <ele>1218</ele>
        <time>2022-07-18T14:04:43Z</time>
      </trkpt>
      <trkpt lat="44.46074" lon="7.09488">
        <ele>1218.4</ele>
        <time>2022-07-18T14:04:44Z</time>
      </trkpt>
      <trkpt lat="44.46074" lon="7.0949">
        <ele>1218.4</ele>
        <time>2022-07-18T14:04:45Z</time>
      </trkpt>
      <trkpt lat="44.46074" lon="7.09493">
        <ele>1218.8</ele>
        <time>2022-07-18T14:04:46Z</time>
      </trkpt>
      <trkpt lat="44.46075" lon="7.09496">
        <ele>1219</ele>
        <time>2022-07-18T14:04:47Z</time>
      </trkpt>
      <trkpt lat="44.46076" lon="7.09499">
        <ele>1219.2</ele>
        <time>2022-07-18T14:04:48Z</time>
      </trkpt>
      <trkpt lat="44.46076" lon="7.09501">
        <ele>1219.2</ele>
        <time>2022-07-18T14:04:49Z</time>
      </trkpt>
      <trkpt lat="44.46076" lon="7.09504">
        <ele>1219.6</ele>
        <time>2022-07-18T14:04:50Z</time>
      </trkpt>
      <trkpt lat="44.46076" lon="7.09506">
        <ele>1219.6</ele>
        <time>2022-07-18T14:04:51Z</time>
      </trkpt>
      <trkpt lat="44.46076" lon="7.09509">
        <ele>1219.8</ele>
        <time>2022-07-18T14:04:52Z</time>
      </trkpt>
      <trkpt lat="44.46077" lon="7.09511">
        <ele>1219.8</ele>
        <time>2022-07-18T14:04:53Z</time>
      </trkpt>
      <trkpt lat="44.46078" lon="7.09514">
        <ele>1220.2</ele>
        <time>2022-07-18T14:04:54Z</time>
      </trkpt>
      <trkpt lat="44.46079" lon="7.09516">
        <ele>1220.4</ele>
        <time>2022-07-18T14:04:55Z</time>
      </trkpt>
      <trkpt lat="44.46081" lon="7.09517">
        <ele>1220.6</ele>
        <time>2022-07-18T14:04:56Z</time>
      </trkpt>
      <trkpt lat="44.46082" lon="7.09518">
        <ele>1220.6</ele>
        <time>2022-07-18T14:04:57Z</time>
      </trkpt>
      <trkpt lat="44.46083" lon="7.09519">
        <ele>1221</ele>
        <time>2022-07-18T14:04:58Z</time>
      </trkpt>
      <trkpt lat="44.46085" lon="7.0952">
        <ele>1221</ele>
        <time>2022-07-18T14:04:59Z</time>
      </trkpt>
      <trkpt lat="44.46087" lon="7.0952">
        <ele>1221.2</ele>
        <time>2022-07-18T14:05:00Z</time>
      </trkpt>
      <trkpt lat="44.46089" lon="7.09521">
        <ele>1221.2</ele>
        <time>2022-07-18T14:05:01Z</time>
      </trkpt>
      <trkpt lat="44.4609" lon="7.09521">
        <ele>1221.6</ele>
        <time>2022-07-18T14:05:02Z</time>
      </trkpt>
      <trkpt lat="44.46092" lon="7.09521">
        <ele>1221.6</ele>
        <time>2022-07-18T14:05:03Z</time>
      </trkpt>
      <trkpt lat="44.46094" lon="7.09521">
        <ele>1221.8</ele>
        <time>2022-07-18T14:05:04Z</time>
      </trkpt>
      <trkpt lat="44.46095" lon="7.09521">
        <ele>1221.8</ele>
        <time>2022-07-18T14:05:05Z</time>
      </trkpt>
      <trkpt lat="44.46097" lon="7.09521">
        <ele>1222.2</ele>
        <time>2022-07-18T14:05:06Z</time>
      </trkpt>
      <trkpt lat="44.46099" lon="7.09521">
        <ele>1222.2</ele>
        <time>2022-07-18T14:05:07Z</time>
      </trkpt>
      <trkpt lat="44.461" lon="7.09521">
        <ele>1222.6</ele>
        <time>2022-07-18T14:05:08Z</time>
      </trkpt>
      <trkpt lat="44.46101" lon="7.09521">
        <ele>1222.6</ele>
        <time>2022-07-18T14:05:09Z</time>
      </trkpt>
      <trkpt lat="44.46102" lon="7.09521">
        <ele>1222.8</ele>
        <time>2022-07-18T14:05:10Z</time>
      </trkpt>
      <trkpt lat="44.46104" lon="7.09521">
        <ele>1222.8</ele>
        <time>2022-07-18T14:05:11Z</time>
      </trkpt>
      <trkpt lat="44.46105" lon="7.09522">
        <ele>1223.2</ele>
        <time>2022-07-18T14:05:12Z</time>
      </trkpt>
      <trkpt lat="44.46107" lon="7.09523">
        <ele>1223.2</ele>
        <time>2022-07-18T14:05:13Z</time>
      </trkpt>
      <trkpt lat="44.46109" lon="7.09524">
        <ele>1223.6</ele>
        <time>2022-07-18T14:05:14Z</time>
      </trkpt>
      <trkpt lat="44.4611" lon="7.09525">
        <ele>1223.8</ele>
        <time>2022-07-18T14:05:15Z</time>
      </trkpt>
      <trkpt lat="44.46112" lon="7.09527">
        <ele>1223.8</ele>
        <time>2022-07-18T14:05:16Z</time>
      </trkpt>
      <trkpt lat="44.46113" lon="7.09528">
        <ele>1224</ele>
        <time>2022-07-18T14:05:17Z</time>
      </trkpt>
      <trkpt lat="44.46115" lon="7.09529">
        <ele>1224.2</ele>
        <time>2022-07-18T14:05:18Z</time>
      </trkpt>
      <trkpt lat="44.46116" lon="7.09531">
        <ele>1224.2</ele>
        <time>2022-07-18T14:05:19Z</time>
      </trkpt>
      <trkpt lat="44.46118" lon="7.09532">
        <ele>1224.4</ele>
        <time>2022-07-18T14:05:20Z</time>
      </trkpt>
      <trkpt lat="44.4612" lon="7.09534">
        <ele>1224.4</ele>
        <time>2022-07-18T14:05:21Z</time>
      </trkpt>
      <trkpt lat="44.46121" lon="7.09536">
        <ele>1224.8</ele>
        <time>2022-07-18T14:05:22Z</time>
      </trkpt>
      <trkpt lat="44.46123" lon="7.09537">
        <ele>1224.8</ele>
        <time>2022-07-18T14:05:23Z</time>
      </trkpt>
      <trkpt lat="44.46124" lon="7.09539">
        <ele>1225</ele>
        <time>2022-07-18T14:05:24Z</time>
      </trkpt>
      <trkpt lat="44.46125" lon="7.0954">
        <ele>1225</ele>
        <time>2022-07-18T14:05:25Z</time>
      </trkpt>
      <trkpt lat="44.46126" lon="7.09542">
        <ele>1225.4</ele>
        <time>2022-07-18T14:05:26Z</time>
      </trkpt>
      <trkpt lat="44.46127" lon="7.09543">
        <ele>1225.4</ele>
        <time>2022-07-18T14:05:27Z</time>
      </trkpt>
      <trkpt lat="44.46128" lon="7.09545">
        <ele>1225.8</ele>
        <time>2022-07-18T14:05:28Z</time>
      </trkpt>
      <trkpt lat="44.46129" lon="7.09547">
        <ele>1225.8</ele>
        <time>2022-07-18T14:05:29Z</time>
      </trkpt>
      <trkpt lat="44.4613" lon="7.09548">
        <ele>1226</ele>
        <time>2022-07-18T14:05:30Z</time>
      </trkpt>
      <trkpt lat="44.4613" lon="7.0955">
        <ele>1226</ele>
        <time>2022-07-18T14:05:31Z</time>
      </trkpt>
      <trkpt lat="44.46131" lon="7.09552">
        <ele>1226.4</ele>
        <time>2022-07-18T14:05:32Z</time>
      </trkpt>
      <trkpt lat="44.46132" lon="7.09554">
        <ele>1226.4</ele>
        <time>2022-07-18T14:05:33Z</time>
      </trkpt>
      <trkpt lat="44.46132" lon="7.09556">
        <ele>1226.6</ele>
        <time>2022-07-18T14:05:34Z</time>
      </trkpt>
      <trkpt lat="44.46133" lon="7.09557">
        <ele>1226.6</ele>
        <time>2022-07-18T14:05:35Z</time>
      </trkpt>
      <trkpt lat="44.46133" lon="7.09559">
        <ele>1227</ele>
        <time>2022-07-18T14:05:36Z</time>
      </trkpt>
      <trkpt lat="44.46134" lon="7.09561">
        <ele>1227</ele>
        <time>2022-07-18T14:05:37Z</time>
      </trkpt>
      <trkpt lat="44.46135" lon="7.09562">
        <ele>1227.2</ele>
        <time>2022-07-18T14:05:38Z</time>
      </trkpt>
      <trkpt lat="44.46135" lon="7.09564">
        <ele>1227.4</ele>
        <time>2022-07-18T14:05:39Z</time>
      </trkpt>
      <trkpt lat="44.46136" lon="7.09566">
        <ele>1227.4</ele>
        <time>2022-07-18T14:05:40Z</time>
      </trkpt>
      <trkpt lat="44.46136" lon="7.09567">
        <ele>1227.8</ele>
        <time>2022-07-18T14:05:41Z</time>
      </trkpt>
      <trkpt lat="44.46137" lon="7.09568">
        <ele>1228</ele>
        <time>2022-07-18T14:05:42Z</time>
      </trkpt>
      <trkpt lat="44.46138" lon="7.0957">
        <ele>1228.2</ele>
        <time>2022-07-18T14:05:43Z</time>
      </trkpt>
      <trkpt lat="44.46139" lon="7.09571">
        <ele>1228.2</ele>
        <time>2022-07-18T14:05:44Z</time>
      </trkpt>
      <trkpt lat="44.4614" lon="7.09573">
        <ele>1228.8</ele>
        <time>2022-07-18T14:05:45Z</time>
      </trkpt>
      <trkpt lat="44.46141" lon="7.09574">
        <ele>1228.8</ele>
        <time>2022-07-18T14:05:46Z</time>
      </trkpt>
      <trkpt lat="44.46143" lon="7.09575">
        <ele>1229.2</ele>
        <time>2022-07-18T14:05:47Z</time>
      </trkpt>
      <trkpt lat="44.46145" lon="7.09576">
        <ele>1229.2</ele>
        <time>2022-07-18T14:05:48Z</time>
      </trkpt>
      <trkpt lat="44.46146" lon="7.09577">
        <ele>1229.4</ele>
        <time>2022-07-18T14:05:49Z</time>
      </trkpt>
      <trkpt lat="44.46148" lon="7.09577">
        <ele>1229.6</ele>
        <time>2022-07-18T14:05:50Z</time>
      </trkpt>
      <trkpt lat="44.46149" lon="7.09577">
        <ele>1229.6</ele>
        <time>2022-07-18T14:05:51Z</time>
      </trkpt>
      <trkpt lat="44.46151" lon="7.09577">
        <ele>1230</ele>
        <time>2022-07-18T14:05:52Z</time>
      </trkpt>
      <trkpt lat="44.46152" lon="7.09576">
        <ele>1230</ele>
        <time>2022-07-18T14:05:53Z</time>
      </trkpt>
      <trkpt lat="44.46153" lon="7.09575">
        <ele>1230.2</ele>
        <time>2022-07-18T14:05:54Z</time>
      </trkpt>
      <trkpt lat="44.46154" lon="7.09574">
        <ele>1230.4</ele>
        <time>2022-07-18T14:05:55Z</time>
      </trkpt>
      <trkpt lat="44.46154" lon="7.09573">
        <ele>1230.4</ele>
        <time>2022-07-18T14:05:56Z</time>
      </trkpt>
      <trkpt lat="44.46155" lon="7.09571">
        <ele>1230.8</ele>
        <time>2022-07-18T14:05:57Z</time>
      </trkpt>
      <trkpt lat="44.46156" lon="7.09571">
        <ele>1231</ele>
        <time>2022-07-18T14:05:58Z</time>
      </trkpt>
      <trkpt lat="44.46157" lon="7.0957">
        <ele>1231</ele>
        <time>2022-07-18T14:05:59Z</time>
      </trkpt>
      <trkpt lat="44.46158" lon="7.0957">
        <ele>1231.2</ele>
        <time>2022-07-18T14:06:00Z</time>
      </trkpt>
      <trkpt lat="44.4616" lon="7.09569">
        <ele>1231.2</ele>
        <time>2022-07-18T14:06:01Z</time>
      </trkpt>
      <trkpt lat="44.46161" lon="7.09569">
        <ele>1231.6</ele>
        <time>2022-07-18T14:06:02Z</time>
      </trkpt>
      <trkpt lat="44.46163" lon="7.09569">
        <ele>1231.6</ele>
        <time>2022-07-18T14:06:03Z</time>
      </trkpt>
      <trkpt lat="44.46165" lon="7.09569">
        <ele>1231.6</ele>
        <time>2022-07-18T14:06:04Z</time>
      </trkpt>
      <trkpt lat="44.46166" lon="7.09569">
        <ele>1232</ele>
        <time>2022-07-18T14:06:05Z</time>
      </trkpt>
      <trkpt lat="44.46168" lon="7.09569">
        <ele>1232</ele>
        <time>2022-07-18T14:06:06Z</time>
      </trkpt>
      <trkpt lat="44.46169" lon="7.09569">
        <ele>1232.4</ele>
        <time>2022-07-18T14:06:07Z</time>
      </trkpt>
      <trkpt lat="44.46171" lon="7.09568">
        <ele>1232.4</ele>
        <time>2022-07-18T14:06:08Z</time>
      </trkpt>
      <trkpt lat="44.46172" lon="7.09568">
        <ele>1232.6</ele>
        <time>2022-07-18T14:06:09Z</time>
      </trkpt>
      <trkpt lat="44.46174" lon="7.09568">
        <ele>1232.6</ele>
        <time>2022-07-18T14:06:10Z</time>
      </trkpt>
      <trkpt lat="44.46176" lon="7.09569">
        <ele>1233</ele>
        <time>2022-07-18T14:06:11Z</time>
      </trkpt>
      <trkpt lat="44.46178" lon="7.09569">
        <ele>1233</ele>
        <time>2022-07-18T14:06:12Z</time>
      </trkpt>
      <trkpt lat="44.46179" lon="7.0957">
        <ele>1233.4</ele>
        <time>2022-07-18T14:06:13Z</time>
      </trkpt>
      <trkpt lat="44.46181" lon="7.0957">
        <ele>1233.6</ele>
        <time>2022-07-18T14:06:14Z</time>
      </trkpt>
      <trkpt lat="44.46183" lon="7.09571">
        <ele>1233.8</ele>
        <time>2022-07-18T14:06:15Z</time>
      </trkpt>
      <trkpt lat="44.46185" lon="7.09571">
        <ele>1234</ele>
        <time>2022-07-18T14:06:16Z</time>
      </trkpt>
      <trkpt lat="44.46187" lon="7.09572">
        <ele>1234</ele>
        <time>2022-07-18T14:06:17Z</time>
      </trkpt>
      <trkpt lat="44.46188" lon="7.09572">
        <ele>1234.4</ele>
        <time>2022-07-18T14:06:18Z</time>
      </trkpt>
      <trkpt lat="44.4619" lon="7.09573">
        <ele>1234.8</ele>
        <time>2022-07-18T14:06:20Z</time>
      </trkpt>
      <trkpt lat="44.46191" lon="7.09574">
        <ele>1235</ele>
        <time>2022-07-18T14:06:21Z</time>
      </trkpt>
      <trkpt lat="44.46195" lon="7.09576">
        <ele>1235</ele>
        <time>2022-07-18T14:06:22Z</time>
      </trkpt>
      <trkpt lat="44.46196" lon="7.09576">
        <ele>1235.2</ele>
        <time>2022-07-18T14:06:23Z</time>
      </trkpt>
      <trkpt lat="44.46198" lon="7.09577">
        <ele>1235.2</ele>
        <time>2022-07-18T14:06:24Z</time>
      </trkpt>
      <trkpt lat="44.462" lon="7.09578">
        <ele>1235.6</ele>
        <time>2022-07-18T14:06:25Z</time>
      </trkpt>
      <trkpt lat="44.46202" lon="7.09579">
        <ele>1235.6</ele>
        <time>2022-07-18T14:06:26Z</time>
      </trkpt>
      <trkpt lat="44.46204" lon="7.0958">
        <ele>1235.8</ele>
        <time>2022-07-18T14:06:27Z</time>
      </trkpt>
      <trkpt lat="44.46206" lon="7.09581">
        <ele>1235.8</ele>
        <time>2022-07-18T14:06:28Z</time>
      </trkpt>
      <trkpt lat="44.46208" lon="7.09582">
        <ele>1236.2</ele>
        <time>2022-07-18T14:06:29Z</time>
      </trkpt>
      <trkpt lat="44.46209" lon="7.09582">
        <ele>1236.4</ele>
        <time>2022-07-18T14:06:30Z</time>
      </trkpt>
      <trkpt lat="44.46211" lon="7.09582">
        <ele>1236.6</ele>
        <time>2022-07-18T14:06:31Z</time>
      </trkpt>
      <trkpt lat="44.46213" lon="7.09582">
        <ele>1237</ele>
        <time>2022-07-18T14:06:32Z</time>
      </trkpt>
      <trkpt lat="44.46214" lon="7.09582">
        <ele>1237.2</ele>
        <time>2022-07-18T14:06:33Z</time>
      </trkpt>
      <trkpt lat="44.46216" lon="7.09582">
        <ele>1237.2</ele>
        <time>2022-07-18T14:06:34Z</time>
      </trkpt>
      <trkpt lat="44.46217" lon="7.09582">
        <ele>1237.4</ele>
        <time>2022-07-18T14:06:35Z</time>
      </trkpt>
      <trkpt lat="44.46219" lon="7.09583">
        <ele>1237.8</ele>
        <time>2022-07-18T14:06:36Z</time>
      </trkpt>
      <trkpt lat="44.4622" lon="7.09584">
        <ele>1238</ele>
        <time>2022-07-18T14:06:37Z</time>
      </trkpt>
      <trkpt lat="44.46222" lon="7.09584">
        <ele>1238.2</ele>
        <time>2022-07-18T14:06:38Z</time>
      </trkpt>
      <trkpt lat="44.46223" lon="7.09585">
        <ele>1238.4</ele>
        <time>2022-07-18T14:06:39Z</time>
      </trkpt>
      <trkpt lat="44.46224" lon="7.09584">
        <ele>1238.6</ele>
        <time>2022-07-18T14:06:40Z</time>
      </trkpt>
      <trkpt lat="44.46226" lon="7.09584">
        <ele>1238.8</ele>
        <time>2022-07-18T14:06:41Z</time>
      </trkpt>
      <trkpt lat="44.46228" lon="7.09585">
        <ele>1239</ele>
        <time>2022-07-18T14:06:42Z</time>
      </trkpt>
      <trkpt lat="44.46229" lon="7.09585">
        <ele>1239.4</ele>
        <time>2022-07-18T14:06:43Z</time>
      </trkpt>
      <trkpt lat="44.46231" lon="7.09586">
        <ele>1239.6</ele>
        <time>2022-07-18T14:06:44Z</time>
      </trkpt>
      <trkpt lat="44.46233" lon="7.09587">
        <ele>1239.6</ele>
        <time>2022-07-18T14:06:45Z</time>
      </trkpt>
      <trkpt lat="44.46234" lon="7.09588">
        <ele>1239.8</ele>
        <time>2022-07-18T14:06:46Z</time>
      </trkpt>
      <trkpt lat="44.46236" lon="7.09588">
        <ele>1239.8</ele>
        <time>2022-07-18T14:06:47Z</time>
      </trkpt>
      <trkpt lat="44.46238" lon="7.09589">
        <ele>1240.2</ele>
        <time>2022-07-18T14:06:48Z</time>
      </trkpt>
      <trkpt lat="44.4624" lon="7.0959">
        <ele>1240.2</ele>
        <time>2022-07-18T14:06:49Z</time>
      </trkpt>
      <trkpt lat="44.46242" lon="7.09591">
        <ele>1240.4</ele>
        <time>2022-07-18T14:06:50Z</time>
      </trkpt>
      <trkpt lat="44.46244" lon="7.09592">
        <ele>1240.6</ele>
        <time>2022-07-18T14:06:51Z</time>
      </trkpt>
      <trkpt lat="44.46246" lon="7.09593">
        <ele>1240.6</ele>
        <time>2022-07-18T14:06:52Z</time>
      </trkpt>
      <trkpt lat="44.46248" lon="7.09594">
        <ele>1240.8</ele>
        <time>2022-07-18T14:06:53Z</time>
      </trkpt>
      <trkpt lat="44.4625" lon="7.09594">
        <ele>1240.8</ele>
        <time>2022-07-18T14:06:54Z</time>
      </trkpt>
      <trkpt lat="44.46252" lon="7.09594">
        <ele>1241.2</ele>
        <time>2022-07-18T14:06:55Z</time>
      </trkpt>
      <trkpt lat="44.46254" lon="7.09595">
        <ele>1241.2</ele>
        <time>2022-07-18T14:06:56Z</time>
      </trkpt>
      <trkpt lat="44.46256" lon="7.09596">
        <ele>1241.4</ele>
        <time>2022-07-18T14:06:57Z</time>
      </trkpt>
      <trkpt lat="44.46258" lon="7.09596">
        <ele>1241.4</ele>
        <time>2022-07-18T14:06:58Z</time>
      </trkpt>
      <trkpt lat="44.4626" lon="7.09597">
        <ele>1241.6</ele>
        <time>2022-07-18T14:06:59Z</time>
      </trkpt>
      <trkpt lat="44.46262" lon="7.09597">
        <ele>1241.6</ele>
        <time>2022-07-18T14:07:00Z</time>
      </trkpt>
      <trkpt lat="44.46263" lon="7.09598">
        <ele>1242</ele>
        <time>2022-07-18T14:07:01Z</time>
      </trkpt>
      <trkpt lat="44.46265" lon="7.09599">
        <ele>1242</ele>
        <time>2022-07-18T14:07:02Z</time>
      </trkpt>
      <trkpt lat="44.46267" lon="7.096">
        <ele>1242.2</ele>
        <time>2022-07-18T14:07:03Z</time>
      </trkpt>
      <trkpt lat="44.46268" lon="7.09602">
        <ele>1242.2</ele>
        <time>2022-07-18T14:07:04Z</time>
      </trkpt>
      <trkpt lat="44.46268" lon="7.09604">
        <ele>1242.6</ele>
        <time>2022-07-18T14:07:05Z</time>
      </trkpt>
      <trkpt lat="44.46268" lon="7.09606">
        <ele>1242.6</ele>
        <time>2022-07-18T14:07:06Z</time>
      </trkpt>
      <trkpt lat="44.46268" lon="7.09609">
        <ele>1243</ele>
        <time>2022-07-18T14:07:07Z</time>
      </trkpt>
      <trkpt lat="44.46267" lon="7.09611">
        <ele>1243</ele>
        <time>2022-07-18T14:07:08Z</time>
      </trkpt>
      <trkpt lat="44.46266" lon="7.09612">
        <ele>1243.2</ele>
        <time>2022-07-18T14:07:09Z</time>
      </trkpt>
      <trkpt lat="44.46264" lon="7.09614">
        <ele>1243.2</ele>
        <time>2022-07-18T14:07:10Z</time>
      </trkpt>
      <trkpt lat="44.46262" lon="7.09614">
        <ele>1243.6</ele>
        <time>2022-07-18T14:07:11Z</time>
      </trkpt>
      <trkpt lat="44.4626" lon="7.09614">
        <ele>1243.6</ele>
        <time>2022-07-18T14:07:12Z</time>
      </trkpt>
      <trkpt lat="44.46258" lon="7.09614">
        <ele>1243.8</ele>
        <time>2022-07-18T14:07:13Z</time>
      </trkpt>
      <trkpt lat="44.46256" lon="7.09614">
        <ele>1243.8</ele>
        <time>2022-07-18T14:07:14Z</time>
      </trkpt>
      <trkpt lat="44.46253" lon="7.09613">
        <ele>1244</ele>
        <time>2022-07-18T14:07:15Z</time>
      </trkpt>
      <trkpt lat="44.46251" lon="7.09612">
        <ele>1244</ele>
        <time>2022-07-18T14:07:16Z</time>
      </trkpt>
      <trkpt lat="44.46249" lon="7.09612">
        <ele>1244.2</ele>
        <time>2022-07-18T14:07:17Z</time>
      </trkpt>
      <trkpt lat="44.46247" lon="7.09611">
        <ele>1244.2</ele>
        <time>2022-07-18T14:07:18Z</time>
      </trkpt>
      <trkpt lat="44.46245" lon="7.09611">
        <ele>1244.6</ele>
        <time>2022-07-18T14:07:19Z</time>
      </trkpt>
      <trkpt lat="44.46242" lon="7.09611">
        <ele>1244.6</ele>
        <time>2022-07-18T14:07:20Z</time>
      </trkpt>
      <trkpt lat="44.4624" lon="7.09611">
        <ele>1244.8</ele>
        <time>2022-07-18T14:07:21Z</time>
      </trkpt>
      <trkpt lat="44.46238" lon="7.09611">
        <ele>1244.8</ele>
        <time>2022-07-18T14:07:22Z</time>
      </trkpt>
      <trkpt lat="44.46235" lon="7.09611">
        <ele>1245.2</ele>
        <time>2022-07-18T14:07:23Z</time>
      </trkpt>
      <trkpt lat="44.46233" lon="7.0961">
        <ele>1245.2</ele>
        <time>2022-07-18T14:07:24Z</time>
      </trkpt>
      <trkpt lat="44.46231" lon="7.0961">
        <ele>1245.4</ele>
        <time>2022-07-18T14:07:25Z</time>
      </trkpt>
      <trkpt lat="44.46228" lon="7.0961">
        <ele>1245.4</ele>
        <time>2022-07-18T14:07:26Z</time>
      </trkpt>
      <trkpt lat="44.46226" lon="7.0961">
        <ele>1245.4</ele>
        <time>2022-07-18T14:07:27Z</time>
      </trkpt>
      <trkpt lat="44.46223" lon="7.0961">
        <ele>1245.6</ele>
        <time>2022-07-18T14:07:28Z</time>
      </trkpt>
      <trkpt lat="44.46221" lon="7.09611">
        <ele>1245.6</ele>
        <time>2022-07-18T14:07:29Z</time>
      </trkpt>
      <trkpt lat="44.46219" lon="7.09611">
        <ele>1246</ele>
        <time>2022-07-18T14:07:30Z</time>
      </trkpt>
      <trkpt lat="44.46217" lon="7.09612">
        <ele>1246</ele>
        <time>2022-07-18T14:07:31Z</time>
      </trkpt>
      <trkpt lat="44.46215" lon="7.09612">
        <ele>1246.4</ele>
        <time>2022-07-18T14:07:32Z</time>
      </trkpt>
      <trkpt lat="44.46212" lon="7.09612">
        <ele>1246.4</ele>
        <time>2022-07-18T14:07:33Z</time>
      </trkpt>
      <trkpt lat="44.4621" lon="7.09612">
        <ele>1246.6</ele>
        <time>2022-07-18T14:07:34Z</time>
      </trkpt>
      <trkpt lat="44.46208" lon="7.09612">
        <ele>1246.6</ele>
        <time>2022-07-18T14:07:35Z</time>
      </trkpt>
      <trkpt lat="44.46206" lon="7.09613">
        <ele>1247</ele>
        <time>2022-07-18T14:07:36Z</time>
      </trkpt>
      <trkpt lat="44.46204" lon="7.09613">
        <ele>1247</ele>
        <time>2022-07-18T14:07:37Z</time>
      </trkpt>
      <trkpt lat="44.46202" lon="7.09613">
        <ele>1247.4</ele>
        <time>2022-07-18T14:07:38Z</time>
      </trkpt>
      <trkpt lat="44.462" lon="7.09613">
        <ele>1247.4</ele>
        <time>2022-07-18T14:07:39Z</time>
      </trkpt>
      <trkpt lat="44.46198" lon="7.09613">
        <ele>1247.6</ele>
        <time>2022-07-18T14:07:40Z</time>
      </trkpt>
      <trkpt lat="44.46196" lon="7.09613">
        <ele>1247.6</ele>
        <time>2022-07-18T14:07:41Z</time>
      </trkpt>
      <trkpt lat="44.46194" lon="7.09613">
        <ele>1248</ele>
        <time>2022-07-18T14:07:42Z</time>
      </trkpt>
      <trkpt lat="44.46192" lon="7.09613">
        <ele>1248</ele>
        <time>2022-07-18T14:07:43Z</time>
      </trkpt>
      <trkpt lat="44.4619" lon="7.09613">
        <ele>1248.2</ele>
        <time>2022-07-18T14:07:44Z</time>
      </trkpt>
      <trkpt lat="44.46188" lon="7.09613">
        <ele>1248.2</ele>
        <time>2022-07-18T14:07:45Z</time>
      </trkpt>
      <trkpt lat="44.46186" lon="7.09613">
        <ele>1248.6</ele>
        <time>2022-07-18T14:07:46Z</time>
      </trkpt>
      <trkpt lat="44.46184" lon="7.09613">
        <ele>1248.6</ele>
        <time>2022-07-18T14:07:47Z</time>
      </trkpt>
      <trkpt lat="44.46183" lon="7.09613">
        <ele>1248.8</ele>
        <time>2022-07-18T14:07:48Z</time>
      </trkpt>
      <trkpt lat="44.46181" lon="7.09613">
        <ele>1248.8</ele>
        <time>2022-07-18T14:07:49Z</time>
      </trkpt>
      <trkpt lat="44.46179" lon="7.09613">
        <ele>1249.2</ele>
        <time>2022-07-18T14:07:50Z</time>
      </trkpt>
      <trkpt lat="44.46177" lon="7.09613">
        <ele>1249.4</ele>
        <time>2022-07-18T14:07:51Z</time>
      </trkpt>
      <trkpt lat="44.46176" lon="7.09614">
        <ele>1249.4</ele>
        <time>2022-07-18T14:07:52Z</time>
      </trkpt>
      <trkpt lat="44.46175" lon="7.09615">
        <ele>1249.8</ele>
        <time>2022-07-18T14:07:53Z</time>
      </trkpt>
      <trkpt lat="44.46173" lon="7.09616">
        <ele>1249.8</ele>
        <time>2022-07-18T14:07:54Z</time>
      </trkpt>
      <trkpt lat="44.46172" lon="7.09617">
        <ele>1250</ele>
        <time>2022-07-18T14:07:55Z</time>
      </trkpt>
      <trkpt lat="44.46171" lon="7.09618">
        <ele>1250</ele>
        <time>2022-07-18T14:07:56Z</time>
      </trkpt>
      <trkpt lat="44.4617" lon="7.09619">
        <ele>1250.4</ele>
        <time>2022-07-18T14:07:57Z</time>
      </trkpt>
      <trkpt lat="44.46169" lon="7.09621">
        <ele>1250.4</ele>
        <time>2022-07-18T14:07:58Z</time>
      </trkpt>
      <trkpt lat="44.46168" lon="7.09624">
        <ele>1250.4</ele>
        <time>2022-07-18T14:07:59Z</time>
      </trkpt>
      <trkpt lat="44.46167" lon="7.09625">
        <ele>1250.6</ele>
        <time>2022-07-18T14:08:00Z</time>
      </trkpt>
      <trkpt lat="44.46166" lon="7.09627">
        <ele>1250.6</ele>
        <time>2022-07-18T14:08:01Z</time>
      </trkpt>
      <trkpt lat="44.46165" lon="7.09629">
        <ele>1251</ele>
        <time>2022-07-18T14:08:02Z</time>
      </trkpt>
      <trkpt lat="44.46164" lon="7.09632">
        <ele>1251</ele>
        <time>2022-07-18T14:08:03Z</time>
      </trkpt>
      <trkpt lat="44.46163" lon="7.09634">
        <ele>1251.2</ele>
        <time>2022-07-18T14:08:04Z</time>
      </trkpt>
      <trkpt lat="44.46162" lon="7.09636">
        <ele>1251.2</ele>
        <time>2022-07-18T14:08:05Z</time>
      </trkpt>
      <trkpt lat="44.46161" lon="7.09638">
        <ele>1251.6</ele>
        <time>2022-07-18T14:08:06Z</time>
      </trkpt>
      <trkpt lat="44.4616" lon="7.0964">
        <ele>1252</ele>
        <time>2022-07-18T14:08:07Z</time>
      </trkpt>
      <trkpt lat="44.46159" lon="7.09641">
        <ele>1252.2</ele>
        <time>2022-07-18T14:08:08Z</time>
      </trkpt>
      <trkpt lat="44.46157" lon="7.09643">
        <ele>1252.4</ele>
        <time>2022-07-18T14:08:09Z</time>
      </trkpt>
      <trkpt lat="44.46156" lon="7.09644">
        <ele>1252.4</ele>
        <time>2022-07-18T14:08:10Z</time>
      </trkpt>
      <trkpt lat="44.46154" lon="7.09645">
        <ele>1252.6</ele>
        <time>2022-07-18T14:08:11Z</time>
      </trkpt>
      <trkpt lat="44.46152" lon="7.09646">
        <ele>1252.6</ele>
        <time>2022-07-18T14:08:12Z</time>
      </trkpt>
      <trkpt lat="44.4615" lon="7.09646">
        <ele>1253</ele>
        <time>2022-07-18T14:08:13Z</time>
      </trkpt>
      <trkpt lat="44.46148" lon="7.09645">
        <ele>1253.2</ele>
        <time>2022-07-18T14:08:14Z</time>
      </trkpt>
      <trkpt lat="44.46146" lon="7.09645">
        <ele>1253.2</ele>
        <time>2022-07-18T14:08:15Z</time>
      </trkpt>
      <trkpt lat="44.46144" lon="7.09644">
        <ele>1253.4</ele>
        <time>2022-07-18T14:08:16Z</time>
      </trkpt>
      <trkpt lat="44.46142" lon="7.09643">
        <ele>1253.4</ele>
        <time>2022-07-18T14:08:17Z</time>
      </trkpt>
      <trkpt lat="44.4614" lon="7.09641">
        <ele>1253.6</ele>
        <time>2022-07-18T14:08:18Z</time>
      </trkpt>
      <trkpt lat="44.46139" lon="7.09639">
        <ele>1253.6</ele>
        <time>2022-07-18T14:08:19Z</time>
      </trkpt>
      <trkpt lat="44.46138" lon="7.09637">
        <ele>1254</ele>
        <time>2022-07-18T14:08:20Z</time>
      </trkpt>
      <trkpt lat="44.46137" lon="7.09635">
        <ele>1254</ele>
        <time>2022-07-18T14:08:21Z</time>
      </trkpt>
      <trkpt lat="44.46135" lon="7.09634">
        <ele>1254.2</ele>
        <time>2022-07-18T14:08:22Z</time>
      </trkpt>
      <trkpt lat="44.46133" lon="7.09633">
        <ele>1254.2</ele>
        <time>2022-07-18T14:08:23Z</time>
      </trkpt>
      <trkpt lat="44.46131" lon="7.09632">
        <ele>1254.6</ele>
        <time>2022-07-18T14:08:24Z</time>
      </trkpt>
      <trkpt lat="44.46128" lon="7.09632">
        <ele>1254.6</ele>
        <time>2022-07-18T14:08:25Z</time>
      </trkpt>
      <trkpt lat="44.46126" lon="7.09631">
        <ele>1254.8</ele>
        <time>2022-07-18T14:08:26Z</time>
      </trkpt>
      <trkpt lat="44.46123" lon="7.09631">
        <ele>1254.8</ele>
        <time>2022-07-18T14:08:27Z</time>
      </trkpt>
      <trkpt lat="44.46121" lon="7.0963">
        <ele>1255</ele>
        <time>2022-07-18T14:08:28Z</time>
      </trkpt>
      <trkpt lat="44.46119" lon="7.0963">
        <ele>1255</ele>
        <time>2022-07-18T14:08:29Z</time>
      </trkpt>
      <trkpt lat="44.46117" lon="7.09629">
        <ele>1255.4</ele>
        <time>2022-07-18T14:08:30Z</time>
      </trkpt>
      <trkpt lat="44.46114" lon="7.0963">
        <ele>1255.4</ele>
        <time>2022-07-18T14:08:31Z</time>
      </trkpt>
      <trkpt lat="44.46112" lon="7.0963">
        <ele>1255.6</ele>
        <time>2022-07-18T14:08:32Z</time>
      </trkpt>
      <trkpt lat="44.4611" lon="7.0963">
        <ele>1255.6</ele>
        <time>2022-07-18T14:08:33Z</time>
      </trkpt>
      <trkpt lat="44.46108" lon="7.09631">
        <ele>1256</ele>
        <time>2022-07-18T14:08:34Z</time>
      </trkpt>
      <trkpt lat="44.46106" lon="7.09631">
        <ele>1256</ele>
        <time>2022-07-18T14:08:35Z</time>
      </trkpt>
      <trkpt lat="44.46105" lon="7.09631">
        <ele>1256.4</ele>
        <time>2022-07-18T14:08:36Z</time>
      </trkpt>
      <trkpt lat="44.46103" lon="7.09631">
        <ele>1256.4</ele>
        <time>2022-07-18T14:08:37Z</time>
      </trkpt>
      <trkpt lat="44.46101" lon="7.09631">
        <ele>1256.6</ele>
        <time>2022-07-18T14:08:38Z</time>
      </trkpt>
      <trkpt lat="44.461" lon="7.09632">
        <ele>1256.6</ele>
        <time>2022-07-18T14:08:39Z</time>
      </trkpt>
      <trkpt lat="44.46098" lon="7.09632">
        <ele>1256.8</ele>
        <time>2022-07-18T14:08:40Z</time>
      </trkpt>
      <trkpt lat="44.46096" lon="7.09633">
        <ele>1256.8</ele>
        <time>2022-07-18T14:08:41Z</time>
      </trkpt>
      <trkpt lat="44.46094" lon="7.09634">
        <ele>1257.2</ele>
        <time>2022-07-18T14:08:42Z</time>
      </trkpt>
      <trkpt lat="44.46092" lon="7.09634">
        <ele>1257.4</ele>
        <time>2022-07-18T14:08:43Z</time>
      </trkpt>
      <trkpt lat="44.46091" lon="7.09635">
        <ele>1257.4</ele>
        <time>2022-07-18T14:08:44Z</time>
      </trkpt>
      <trkpt lat="44.46089" lon="7.09636">
        <ele>1257.6</ele>
        <time>2022-07-18T14:08:45Z</time>
      </trkpt>
      <trkpt lat="44.46087" lon="7.09636">
        <ele>1257.6</ele>
        <time>2022-07-18T14:08:46Z</time>
      </trkpt>
      <trkpt lat="44.46086" lon="7.09637">
        <ele>1258</ele>
        <time>2022-07-18T14:08:47Z</time>
      </trkpt>
      <trkpt lat="44.46085" lon="7.09638">
        <ele>1258.2</ele>
        <time>2022-07-18T14:08:48Z</time>
      </trkpt>
      <trkpt lat="44.46082" lon="7.09639">
        <ele>1258.4</ele>
        <time>2022-07-18T14:08:49Z</time>
      </trkpt>
      <trkpt lat="44.4608" lon="7.0964">
        <ele>1258.4</ele>
        <time>2022-07-18T14:08:50Z</time>
      </trkpt>
      <trkpt lat="44.46078" lon="7.0964">
        <ele>1258.8</ele>
        <time>2022-07-18T14:08:51Z</time>
      </trkpt>
      <trkpt lat="44.46076" lon="7.0964">
        <ele>1258.8</ele>
        <time>2022-07-18T14:08:52Z</time>
      </trkpt>
      <trkpt lat="44.46074" lon="7.09639">
        <ele>1259</ele>
        <time>2022-07-18T14:08:53Z</time>
      </trkpt>
      <trkpt lat="44.46072" lon="7.09639">
        <ele>1259</ele>
        <time>2022-07-18T14:08:54Z</time>
      </trkpt>
      <trkpt lat="44.46069" lon="7.09638">
        <ele>1259.2</ele>
        <time>2022-07-18T14:08:55Z</time>
      </trkpt>
      <trkpt lat="44.46068" lon="7.09638">
        <ele>1259.2</ele>
        <time>2022-07-18T14:08:56Z</time>
      </trkpt>
      <trkpt lat="44.46066" lon="7.09638">
        <ele>1259.6</ele>
        <time>2022-07-18T14:08:57Z</time>
      </trkpt>
      <trkpt lat="44.46064" lon="7.09638">
        <ele>1259.6</ele>
        <time>2022-07-18T14:08:58Z</time>
      </trkpt>
      <trkpt lat="44.46063" lon="7.09638">
        <ele>1260</ele>
        <time>2022-07-18T14:08:59Z</time>
      </trkpt>
      <trkpt lat="44.46062" lon="7.09637">
        <ele>1260</ele>
        <time>2022-07-18T14:09:00Z</time>
      </trkpt>
      <trkpt lat="44.46061" lon="7.09636">
        <ele>1260.2</ele>
        <time>2022-07-18T14:09:01Z</time>
      </trkpt>
      <trkpt lat="44.46059" lon="7.09635">
        <ele>1260.4</ele>
        <time>2022-07-18T14:09:02Z</time>
      </trkpt>
      <trkpt lat="44.46057" lon="7.09634">
        <ele>1260.6</ele>
        <time>2022-07-18T14:09:03Z</time>
      </trkpt>
      <trkpt lat="44.46055" lon="7.09633">
        <ele>1260.6</ele>
        <time>2022-07-18T14:09:04Z</time>
      </trkpt>
      <trkpt lat="44.46053" lon="7.09632">
        <ele>1261</ele>
        <time>2022-07-18T14:09:05Z</time>
      </trkpt>
      <trkpt lat="44.46051" lon="7.09631">
        <ele>1261.2</ele>
        <time>2022-07-18T14:09:06Z</time>
      </trkpt>
      <trkpt lat="44.46049" lon="7.0963">
        <ele>1261.2</ele>
        <time>2022-07-18T14:09:07Z</time>
      </trkpt>
      <trkpt lat="44.46047" lon="7.09628">
        <ele>1261.6</ele>
        <time>2022-07-18T14:09:08Z</time>
      </trkpt>
      <trkpt lat="44.46046" lon="7.09626">
        <ele>1261.6</ele>
        <time>2022-07-18T14:09:09Z</time>
      </trkpt>
      <trkpt lat="44.46044" lon="7.09625">
        <ele>1261.8</ele>
        <time>2022-07-18T14:09:10Z</time>
      </trkpt>
      <trkpt lat="44.46042" lon="7.09623">
        <ele>1261.8</ele>
        <time>2022-07-18T14:09:11Z</time>
      </trkpt>
      <trkpt lat="44.46041" lon="7.09621">
        <ele>1262.2</ele>
        <time>2022-07-18T14:09:12Z</time>
      </trkpt>
      <trkpt lat="44.46039" lon="7.09619">
        <ele>1262.2</ele>
        <time>2022-07-18T14:09:13Z</time>
      </trkpt>
      <trkpt lat="44.46038" lon="7.09618">
        <ele>1262.6</ele>
        <time>2022-07-18T14:09:14Z</time>
      </trkpt>
      <trkpt lat="44.46036" lon="7.09617">
        <ele>1262.6</ele>
        <time>2022-07-18T14:09:15Z</time>
      </trkpt>
      <trkpt lat="44.46035" lon="7.09616">
        <ele>1262.8</ele>
        <time>2022-07-18T14:09:16Z</time>
      </trkpt>
      <trkpt lat="44.46034" lon="7.09615">
        <ele>1263</ele>
        <time>2022-07-18T14:09:17Z</time>
      </trkpt>
      <trkpt lat="44.46032" lon="7.09614">
        <ele>1263.2</ele>
        <time>2022-07-18T14:09:18Z</time>
      </trkpt>
      <trkpt lat="44.46031" lon="7.09614">
        <ele>1263.2</ele>
        <time>2022-07-18T14:09:19Z</time>
      </trkpt>
      <trkpt lat="44.46029" lon="7.09613">
        <ele>1263.6</ele>
        <time>2022-07-18T14:09:20Z</time>
      </trkpt>
      <trkpt lat="44.46028" lon="7.09612">
        <ele>1263.8</ele>
        <time>2022-07-18T14:09:21Z</time>
      </trkpt>
      <trkpt lat="44.46027" lon="7.09611">
        <ele>1264</ele>
        <time>2022-07-18T14:09:22Z</time>
      </trkpt>
      <trkpt lat="44.46025" lon="7.0961">
        <ele>1264</ele>
        <time>2022-07-18T14:09:23Z</time>
      </trkpt>
      <trkpt lat="44.46023" lon="7.09609">
        <ele>1264.4</ele>
        <time>2022-07-18T14:09:24Z</time>
      </trkpt>
      <trkpt lat="44.46021" lon="7.09608">
        <ele>1264.4</ele>
        <time>2022-07-18T14:09:25Z</time>
      </trkpt>
      <trkpt lat="44.4602" lon="7.09607">
        <ele>1264.6</ele>
        <time>2022-07-18T14:09:26Z</time>
      </trkpt>
      <trkpt lat="44.46018" lon="7.09607">
        <ele>1264.6</ele>
        <time>2022-07-18T14:09:27Z</time>
      </trkpt>
      <trkpt lat="44.46016" lon="7.09606">
        <ele>1265</ele>
        <time>2022-07-18T14:09:28Z</time>
      </trkpt>
      <trkpt lat="44.46014" lon="7.09606">
        <ele>1265</ele>
        <time>2022-07-18T14:09:29Z</time>
      </trkpt>
      <trkpt lat="44.46013" lon="7.09604">
        <ele>1265.4</ele>
        <time>2022-07-18T14:09:30Z</time>
      </trkpt>
      <trkpt lat="44.46011" lon="7.09603">
        <ele>1265.4</ele>
        <time>2022-07-18T14:09:31Z</time>
      </trkpt>
      <trkpt lat="44.46009" lon="7.09602">
        <ele>1265.6</ele>
        <time>2022-07-18T14:09:32Z</time>
      </trkpt>
      <trkpt lat="44.46007" lon="7.09602">
        <ele>1265.6</ele>
        <time>2022-07-18T14:09:33Z</time>
      </trkpt>
      <trkpt lat="44.46005" lon="7.09602">
        <ele>1266</ele>
        <time>2022-07-18T14:09:34Z</time>
      </trkpt>
      <trkpt lat="44.46004" lon="7.09602">
        <ele>1266.2</ele>
        <time>2022-07-18T14:09:35Z</time>
      </trkpt>
      <trkpt lat="44.46003" lon="7.09601">
        <ele>1266.2</ele>
        <time>2022-07-18T14:09:36Z</time>
      </trkpt>
      <trkpt lat="44.46002" lon="7.09601">
        <ele>1266.6</ele>
        <time>2022-07-18T14:09:37Z</time>
      </trkpt>
      <trkpt lat="44.46" lon="7.096">
        <ele>1266.6</ele>
        <time>2022-07-18T14:09:38Z</time>
      </trkpt>
      <trkpt lat="44.45999" lon="7.096">
        <ele>1267</ele>
        <time>2022-07-18T14:09:39Z</time>
      </trkpt>
      <trkpt lat="44.45998" lon="7.096">
        <ele>1267.2</ele>
        <time>2022-07-18T14:09:40Z</time>
      </trkpt>
      <trkpt lat="44.45996" lon="7.09599">
        <ele>1267.4</ele>
        <time>2022-07-18T14:09:41Z</time>
      </trkpt>
      <trkpt lat="44.45995" lon="7.09598">
        <ele>1267.6</ele>
        <time>2022-07-18T14:09:42Z</time>
      </trkpt>
      <trkpt lat="44.45994" lon="7.09598">
        <ele>1267.8</ele>
        <time>2022-07-18T14:09:43Z</time>
      </trkpt>
      <trkpt lat="44.45992" lon="7.09597">
        <ele>1267.8</ele>
        <time>2022-07-18T14:09:44Z</time>
      </trkpt>
      <trkpt lat="44.45991" lon="7.09597">
        <ele>1268.2</ele>
        <time>2022-07-18T14:09:45Z</time>
      </trkpt>
      <trkpt lat="44.45989" lon="7.09597">
        <ele>1268.4</ele>
        <time>2022-07-18T14:09:46Z</time>
      </trkpt>
      <trkpt lat="44.45987" lon="7.09597">
        <ele>1268.4</ele>
        <time>2022-07-18T14:09:47Z</time>
      </trkpt>
      <trkpt lat="44.45985" lon="7.09598">
        <ele>1268.8</ele>
        <time>2022-07-18T14:09:48Z</time>
      </trkpt>
      <trkpt lat="44.45983" lon="7.09598">
        <ele>1268.8</ele>
        <time>2022-07-18T14:09:49Z</time>
      </trkpt>
      <trkpt lat="44.45982" lon="7.09599">
        <ele>1269</ele>
        <time>2022-07-18T14:09:50Z</time>
      </trkpt>
      <trkpt lat="44.4598" lon="7.09599">
        <ele>1269</ele>
        <time>2022-07-18T14:09:51Z</time>
      </trkpt>
      <trkpt lat="44.45978" lon="7.096">
        <ele>1269.4</ele>
        <time>2022-07-18T14:09:52Z</time>
      </trkpt>
      <trkpt lat="44.45976" lon="7.096">
        <ele>1269.6</ele>
        <time>2022-07-18T14:09:53Z</time>
      </trkpt>
      <trkpt lat="44.45974" lon="7.09601">
        <ele>1269.6</ele>
        <time>2022-07-18T14:09:54Z</time>
      </trkpt>
      <trkpt lat="44.45973" lon="7.09602">
        <ele>1269.8</ele>
        <time>2022-07-18T14:09:55Z</time>
      </trkpt>
      <trkpt lat="44.45971" lon="7.09603">
        <ele>1269.8</ele>
        <time>2022-07-18T14:09:56Z</time>
      </trkpt>
      <trkpt lat="44.4597" lon="7.09604">
        <ele>1270.2</ele>
        <time>2022-07-18T14:09:57Z</time>
      </trkpt>
      <trkpt lat="44.45968" lon="7.09605">
        <ele>1270.2</ele>
        <time>2022-07-18T14:09:58Z</time>
      </trkpt>
      <trkpt lat="44.45967" lon="7.09606">
        <ele>1270.4</ele>
        <time>2022-07-18T14:09:59Z</time>
      </trkpt>
      <trkpt lat="44.45965" lon="7.09607">
        <ele>1270.4</ele>
        <time>2022-07-18T14:10:00Z</time>
      </trkpt>
      <trkpt lat="44.45964" lon="7.09608">
        <ele>1270.6</ele>
        <time>2022-07-18T14:10:01Z</time>
      </trkpt>
      <trkpt lat="44.45962" lon="7.0961">
        <ele>1270.6</ele>
        <time>2022-07-18T14:10:02Z</time>
      </trkpt>
      <trkpt lat="44.45961" lon="7.09611">
        <ele>1271</ele>
        <time>2022-07-18T14:10:03Z</time>
      </trkpt>
      <trkpt lat="44.4596" lon="7.09612">
        <ele>1271</ele>
        <time>2022-07-18T14:10:04Z</time>
      </trkpt>
      <trkpt lat="44.45959" lon="7.09614">
        <ele>1271.4</ele>
        <time>2022-07-18T14:10:05Z</time>
      </trkpt>
      <trkpt lat="44.45958" lon="7.09615">
        <ele>1271.4</ele>
        <time>2022-07-18T14:10:06Z</time>
      </trkpt>
      <trkpt lat="44.45956" lon="7.09617">
        <ele>1271.8</ele>
        <time>2022-07-18T14:10:07Z</time>
      </trkpt>
      <trkpt lat="44.45955" lon="7.09618">
        <ele>1271.8</ele>
        <time>2022-07-18T14:10:08Z</time>
      </trkpt>
      <trkpt lat="44.45954" lon="7.0962">
        <ele>1272</ele>
        <time>2022-07-18T14:10:09Z</time>
      </trkpt>
      <trkpt lat="44.45952" lon="7.09621">
        <ele>1272.2</ele>
        <time>2022-07-18T14:10:10Z</time>
      </trkpt>
      <trkpt lat="44.45951" lon="7.09622">
        <ele>1272.2</ele>
        <time>2022-07-18T14:10:11Z</time>
      </trkpt>
      <trkpt lat="44.4595" lon="7.09623">
        <ele>1272.4</ele>
        <time>2022-07-18T14:10:12Z</time>
      </trkpt>
      <trkpt lat="44.45948" lon="7.09624">
        <ele>1272.4</ele>
        <time>2022-07-18T14:10:13Z</time>
      </trkpt>
      <trkpt lat="44.45947" lon="7.09625">
        <ele>1272.8</ele>
        <time>2022-07-18T14:10:14Z</time>
      </trkpt>
      <trkpt lat="44.45945" lon="7.09626">
        <ele>1272.8</ele>
        <time>2022-07-18T14:10:15Z</time>
      </trkpt>
      <trkpt lat="44.45944" lon="7.09628">
        <ele>1273.2</ele>
        <time>2022-07-18T14:10:16Z</time>
      </trkpt>
      <trkpt lat="44.45942" lon="7.09629">
        <ele>1273.2</ele>
        <time>2022-07-18T14:10:17Z</time>
      </trkpt>
      <trkpt lat="44.4594" lon="7.0963">
        <ele>1273.4</ele>
        <time>2022-07-18T14:10:18Z</time>
      </trkpt>
      <trkpt lat="44.45939" lon="7.09631">
        <ele>1273.4</ele>
        <time>2022-07-18T14:10:19Z</time>
      </trkpt>
      <trkpt lat="44.45937" lon="7.09632">
        <ele>1273.8</ele>
        <time>2022-07-18T14:10:20Z</time>
      </trkpt>
      <trkpt lat="44.45935" lon="7.09633">
        <ele>1273.8</ele>
        <time>2022-07-18T14:10:21Z</time>
      </trkpt>
      <trkpt lat="44.45934" lon="7.09634">
        <ele>1274</ele>
        <time>2022-07-18T14:10:22Z</time>
      </trkpt>
      <trkpt lat="44.45932" lon="7.09635">
        <ele>1274</ele>
        <time>2022-07-18T14:10:23Z</time>
      </trkpt>
      <trkpt lat="44.4593" lon="7.09635">
        <ele>1274.4</ele>
        <time>2022-07-18T14:10:24Z</time>
      </trkpt>
      <trkpt lat="44.45929" lon="7.09636">
        <ele>1274.4</ele>
        <time>2022-07-18T14:10:25Z</time>
      </trkpt>
      <trkpt lat="44.45927" lon="7.09637">
        <ele>1274.8</ele>
        <time>2022-07-18T14:10:26Z</time>
      </trkpt>
      <trkpt lat="44.45925" lon="7.09637">
        <ele>1275</ele>
        <time>2022-07-18T14:10:27Z</time>
      </trkpt>
      <trkpt lat="44.45924" lon="7.09638">
        <ele>1275</ele>
        <time>2022-07-18T14:10:28Z</time>
      </trkpt>
      <trkpt lat="44.45922" lon="7.09639">
        <ele>1275.4</ele>
        <time>2022-07-18T14:10:29Z</time>
      </trkpt>
      <trkpt lat="44.4592" lon="7.09639">
        <ele>1275.4</ele>
        <time>2022-07-18T14:10:30Z</time>
      </trkpt>
      <trkpt lat="44.45919" lon="7.0964">
        <ele>1275.6</ele>
        <time>2022-07-18T14:10:31Z</time>
      </trkpt>
      <trkpt lat="44.45917" lon="7.0964">
        <ele>1275.6</ele>
        <time>2022-07-18T14:10:32Z</time>
      </trkpt>
      <trkpt lat="44.45915" lon="7.09641">
        <ele>1276</ele>
        <time>2022-07-18T14:10:33Z</time>
      </trkpt>
      <trkpt lat="44.45913" lon="7.09641">
        <ele>1276</ele>
        <time>2022-07-18T14:10:34Z</time>
      </trkpt>
      <trkpt lat="44.45912" lon="7.09642">
        <ele>1276.2</ele>
        <time>2022-07-18T14:10:35Z</time>
      </trkpt>
      <trkpt lat="44.4591" lon="7.09642">
        <ele>1276.2</ele>
        <time>2022-07-18T14:10:36Z</time>
      </trkpt>
      <trkpt lat="44.45909" lon="7.09643">
        <ele>1276.6</ele>
        <time>2022-07-18T14:10:37Z</time>
      </trkpt>
      <trkpt lat="44.45907" lon="7.09644">
        <ele>1276.6</ele>
        <time>2022-07-18T14:10:38Z</time>
      </trkpt>
      <trkpt lat="44.45906" lon="7.09645">
        <ele>1276.8</ele>
        <time>2022-07-18T14:10:39Z</time>
      </trkpt>
      <trkpt lat="44.45905" lon="7.09647">
        <ele>1276.8</ele>
        <time>2022-07-18T14:10:40Z</time>
      </trkpt>
      <trkpt lat="44.45903" lon="7.09648">
        <ele>1277.2</ele>
        <time>2022-07-18T14:10:41Z</time>
      </trkpt>
      <trkpt lat="44.45902" lon="7.09649">
        <ele>1277.2</ele>
        <time>2022-07-18T14:10:42Z</time>
      </trkpt>
      <trkpt lat="44.459" lon="7.0965">
        <ele>1277.6</ele>
        <time>2022-07-18T14:10:43Z</time>
      </trkpt>
      <trkpt lat="44.45899" lon="7.09652">
        <ele>1277.8</ele>
        <time>2022-07-18T14:10:44Z</time>
      </trkpt>
      <trkpt lat="44.45897" lon="7.09653">
        <ele>1278</ele>
        <time>2022-07-18T14:10:45Z</time>
      </trkpt>
      <trkpt lat="44.45896" lon="7.09654">
        <ele>1278.4</ele>
        <time>2022-07-18T14:10:46Z</time>
      </trkpt>
      <trkpt lat="44.45895" lon="7.09656">
        <ele>1278.4</ele>
        <time>2022-07-18T14:10:47Z</time>
      </trkpt>
      <trkpt lat="44.45894" lon="7.09658">
        <ele>1278.8</ele>
        <time>2022-07-18T14:10:48Z</time>
      </trkpt>
      <trkpt lat="44.45893" lon="7.0966">
        <ele>1279</ele>
        <time>2022-07-18T14:10:49Z</time>
      </trkpt>
      <trkpt lat="44.45891" lon="7.09662">
        <ele>1279.2</ele>
        <time>2022-07-18T14:10:50Z</time>
      </trkpt>
      <trkpt lat="44.4589" lon="7.09664">
        <ele>1279.2</ele>
        <time>2022-07-18T14:10:51Z</time>
      </trkpt>
      <trkpt lat="44.45889" lon="7.09666">
        <ele>1279.6</ele>
        <time>2022-07-18T14:10:52Z</time>
      </trkpt>
      <trkpt lat="44.45888" lon="7.09668">
        <ele>1279.6</ele>
        <time>2022-07-18T14:10:53Z</time>
      </trkpt>
      <trkpt lat="44.45887" lon="7.0967">
        <ele>1279.8</ele>
        <time>2022-07-18T14:10:54Z</time>
      </trkpt>
      <trkpt lat="44.45885" lon="7.09672">
        <ele>1279.8</ele>
        <time>2022-07-18T14:10:55Z</time>
      </trkpt>
      <trkpt lat="44.45884" lon="7.09674">
        <ele>1280.2</ele>
        <time>2022-07-18T14:10:56Z</time>
      </trkpt>
      <trkpt lat="44.45883" lon="7.09676">
        <ele>1280.2</ele>
        <time>2022-07-18T14:10:57Z</time>
      </trkpt>
      <trkpt lat="44.45883" lon="7.09678">
        <ele>1280.4</ele>
        <time>2022-07-18T14:10:58Z</time>
      </trkpt>
      <trkpt lat="44.45882" lon="7.09681">
        <ele>1280.6</ele>
        <time>2022-07-18T14:10:59Z</time>
      </trkpt>
      <trkpt lat="44.45881" lon="7.09683">
        <ele>1280.6</ele>
        <time>2022-07-18T14:11:00Z</time>
      </trkpt>
      <trkpt lat="44.45879" lon="7.09685">
        <ele>1281</ele>
        <time>2022-07-18T14:11:01Z</time>
      </trkpt>
      <trkpt lat="44.45878" lon="7.09686">
        <ele>1281</ele>
        <time>2022-07-18T14:11:02Z</time>
      </trkpt>
      <trkpt lat="44.45876" lon="7.09687">
        <ele>1281.4</ele>
        <time>2022-07-18T14:11:03Z</time>
      </trkpt>
      <trkpt lat="44.45875" lon="7.09689">
        <ele>1281.4</ele>
        <time>2022-07-18T14:11:04Z</time>
      </trkpt>
      <trkpt lat="44.45874" lon="7.09691">
        <ele>1281.6</ele>
        <time>2022-07-18T14:11:05Z</time>
      </trkpt>
      <trkpt lat="44.45872" lon="7.09693">
        <ele>1281.6</ele>
        <time>2022-07-18T14:11:06Z</time>
      </trkpt>
      <trkpt lat="44.45871" lon="7.09694">
        <ele>1282</ele>
        <time>2022-07-18T14:11:07Z</time>
      </trkpt>
      <trkpt lat="44.4587" lon="7.09696">
        <ele>1282</ele>
        <time>2022-07-18T14:11:08Z</time>
      </trkpt>
      <trkpt lat="44.45869" lon="7.09697">
        <ele>1282.2</ele>
        <time>2022-07-18T14:11:09Z</time>
      </trkpt>
      <trkpt lat="44.45868" lon="7.09699">
        <ele>1282.4</ele>
        <time>2022-07-18T14:11:10Z</time>
      </trkpt>
      <trkpt lat="44.45867" lon="7.09701">
        <ele>1282.4</ele>
        <time>2022-07-18T14:11:11Z</time>
      </trkpt>
      <trkpt lat="44.45866" lon="7.09703">
        <ele>1282.8</ele>
        <time>2022-07-18T14:11:12Z</time>
      </trkpt>
      <trkpt lat="44.45865" lon="7.09704">
        <ele>1283</ele>
        <time>2022-07-18T14:11:13Z</time>
      </trkpt>
      <trkpt lat="44.45863" lon="7.09706">
        <ele>1283</ele>
        <time>2022-07-18T14:11:14Z</time>
      </trkpt>
      <trkpt lat="44.45862" lon="7.09708">
        <ele>1283.4</ele>
        <time>2022-07-18T14:11:15Z</time>
      </trkpt>
      <trkpt lat="44.45861" lon="7.09711">
        <ele>1283.4</ele>
        <time>2022-07-18T14:11:16Z</time>
      </trkpt>
      <trkpt lat="44.4586" lon="7.09713">
        <ele>1283.6</ele>
        <time>2022-07-18T14:11:17Z</time>
      </trkpt>
      <trkpt lat="44.45859" lon="7.09715">
        <ele>1283.6</ele>
        <time>2022-07-18T14:11:18Z</time>
      </trkpt>
      <trkpt lat="44.45858" lon="7.09717">
        <ele>1284</ele>
        <time>2022-07-18T14:11:19Z</time>
      </trkpt>
      <trkpt lat="44.45857" lon="7.09719">
        <ele>1284</ele>
        <time>2022-07-18T14:11:20Z</time>
      </trkpt>
      <trkpt lat="44.45856" lon="7.09721">
        <ele>1284.4</ele>
        <time>2022-07-18T14:11:21Z</time>
      </trkpt>
      <trkpt lat="44.45854" lon="7.09722">
        <ele>1284.4</ele>
        <time>2022-07-18T14:11:22Z</time>
      </trkpt>
      <trkpt lat="44.45853" lon="7.09724">
        <ele>1284.6</ele>
        <time>2022-07-18T14:11:23Z</time>
      </trkpt>
      <trkpt lat="44.45851" lon="7.09725">
        <ele>1284.6</ele>
        <time>2022-07-18T14:11:24Z</time>
      </trkpt>
      <trkpt lat="44.4585" lon="7.09727">
        <ele>1285</ele>
        <time>2022-07-18T14:11:25Z</time>
      </trkpt>
      <trkpt lat="44.45848" lon="7.09729">
        <ele>1285</ele>
        <time>2022-07-18T14:11:26Z</time>
      </trkpt>
      <trkpt lat="44.45847" lon="7.0973">
        <ele>1285.2</ele>
        <time>2022-07-18T14:11:27Z</time>
      </trkpt>
      <trkpt lat="44.45846" lon="7.09732">
        <ele>1285.2</ele>
        <time>2022-07-18T14:11:28Z</time>
      </trkpt>
      <trkpt lat="44.45844" lon="7.09734">
        <ele>1285.4</ele>
        <time>2022-07-18T14:11:29Z</time>
      </trkpt>
      <trkpt lat="44.45843" lon="7.09735">
        <ele>1285.4</ele>
        <time>2022-07-18T14:11:30Z</time>
      </trkpt>
      <trkpt lat="44.45842" lon="7.09737">
        <ele>1285.6</ele>
        <time>2022-07-18T14:11:31Z</time>
      </trkpt>
      <trkpt lat="44.45841" lon="7.09738">
        <ele>1286</ele>
        <time>2022-07-18T14:11:32Z</time>
      </trkpt>
      <trkpt lat="44.4584" lon="7.0974">
        <ele>1286</ele>
        <time>2022-07-18T14:11:33Z</time>
      </trkpt>
      <trkpt lat="44.45839" lon="7.09741">
        <ele>1286.4</ele>
        <time>2022-07-18T14:11:34Z</time>
      </trkpt>
      <trkpt lat="44.45838" lon="7.09743">
        <ele>1286.6</ele>
        <time>2022-07-18T14:11:35Z</time>
      </trkpt>
      <trkpt lat="44.45837" lon="7.09745">
        <ele>1286.6</ele>
        <time>2022-07-18T14:11:36Z</time>
      </trkpt>
      <trkpt lat="44.45836" lon="7.09747">
        <ele>1287</ele>
        <time>2022-07-18T14:11:37Z</time>
      </trkpt>
      <trkpt lat="44.45835" lon="7.09749">
        <ele>1287</ele>
        <time>2022-07-18T14:11:38Z</time>
      </trkpt>
      <trkpt lat="44.45834" lon="7.09752">
        <ele>1287.2</ele>
        <time>2022-07-18T14:11:39Z</time>
      </trkpt>
      <trkpt lat="44.45833" lon="7.09754">
        <ele>1287.2</ele>
        <time>2022-07-18T14:11:40Z</time>
      </trkpt>
      <trkpt lat="44.45832" lon="7.09756">
        <ele>1287.6</ele>
        <time>2022-07-18T14:11:41Z</time>
      </trkpt>
      <trkpt lat="44.45831" lon="7.09757">
        <ele>1287.6</ele>
        <time>2022-07-18T14:11:42Z</time>
      </trkpt>
      <trkpt lat="44.4583" lon="7.09759">
        <ele>1287.8</ele>
        <time>2022-07-18T14:11:43Z</time>
      </trkpt>
      <trkpt lat="44.45829" lon="7.09761">
        <ele>1287.8</ele>
        <time>2022-07-18T14:11:44Z</time>
      </trkpt>
      <trkpt lat="44.45828" lon="7.09763">
        <ele>1288.2</ele>
        <time>2022-07-18T14:11:45Z</time>
      </trkpt>
      <trkpt lat="44.45827" lon="7.09765">
        <ele>1288.2</ele>
        <time>2022-07-18T14:11:46Z</time>
      </trkpt>
      <trkpt lat="44.45826" lon="7.09766">
        <ele>1288.4</ele>
        <time>2022-07-18T14:11:47Z</time>
      </trkpt>
      <trkpt lat="44.45826" lon="7.09768">
        <ele>1288.4</ele>
        <time>2022-07-18T14:11:48Z</time>
      </trkpt>
      <trkpt lat="44.45825" lon="7.09771">
        <ele>1288.8</ele>
        <time>2022-07-18T14:11:49Z</time>
      </trkpt>
      <trkpt lat="44.45825" lon="7.09773">
        <ele>1288.8</ele>
        <time>2022-07-18T14:11:50Z</time>
      </trkpt>
      <trkpt lat="44.45824" lon="7.09775">
        <ele>1289.2</ele>
        <time>2022-07-18T14:11:51Z</time>
      </trkpt>
      <trkpt lat="44.45823" lon="7.09777">
        <ele>1289.2</ele>
        <time>2022-07-18T14:11:52Z</time>
      </trkpt>
      <trkpt lat="44.45822" lon="7.09779">
        <ele>1289.4</ele>
        <time>2022-07-18T14:11:53Z</time>
      </trkpt>
      <trkpt lat="44.45822" lon="7.09781">
        <ele>1289.4</ele>
        <time>2022-07-18T14:11:54Z</time>
      </trkpt>
      <trkpt lat="44.45821" lon="7.09783">
        <ele>1289.8</ele>
        <time>2022-07-18T14:11:55Z</time>
      </trkpt>
      <trkpt lat="44.45821" lon="7.09785">
        <ele>1289.8</ele>
        <time>2022-07-18T14:11:56Z</time>
      </trkpt>
      <trkpt lat="44.4582" lon="7.09787">
        <ele>1290</ele>
        <time>2022-07-18T14:11:57Z</time>
      </trkpt>
      <trkpt lat="44.4582" lon="7.09789">
        <ele>1290</ele>
        <time>2022-07-18T14:11:58Z</time>
      </trkpt>
      <trkpt lat="44.4582" lon="7.09791">
        <ele>1290.4</ele>
        <time>2022-07-18T14:11:59Z</time>
      </trkpt>
      <trkpt lat="44.4582" lon="7.09793">
        <ele>1290.6</ele>
        <time>2022-07-18T14:12:00Z</time>
      </trkpt>
      <trkpt lat="44.4582" lon="7.09796">
        <ele>1290.8</ele>
        <time>2022-07-18T14:12:01Z</time>
      </trkpt>
      <trkpt lat="44.4582" lon="7.09798">
        <ele>1290.8</ele>
        <time>2022-07-18T14:12:02Z</time>
      </trkpt>
      <trkpt lat="44.45819" lon="7.098">
        <ele>1291.2</ele>
        <time>2022-07-18T14:12:03Z</time>
      </trkpt>
      <trkpt lat="44.45819" lon="7.09802">
        <ele>1291.2</ele>
        <time>2022-07-18T14:12:04Z</time>
      </trkpt>
      <trkpt lat="44.45819" lon="7.09804">
        <ele>1291.4</ele>
        <time>2022-07-18T14:12:05Z</time>
      </trkpt>
      <trkpt lat="44.45819" lon="7.09806">
        <ele>1291.4</ele>
        <time>2022-07-18T14:12:06Z</time>
      </trkpt>
      <trkpt lat="44.45819" lon="7.09808">
        <ele>1291.6</ele>
        <time>2022-07-18T14:12:07Z</time>
      </trkpt>
      <trkpt lat="44.45819" lon="7.0981">
        <ele>1291.6</ele>
        <time>2022-07-18T14:12:08Z</time>
      </trkpt>
      <trkpt lat="44.45819" lon="7.09811">
        <ele>1292</ele>
        <time>2022-07-18T14:12:09Z</time>
      </trkpt>
      <trkpt lat="44.45819" lon="7.09813">
        <ele>1292</ele>
        <time>2022-07-18T14:12:10Z</time>
      </trkpt>
      <trkpt lat="44.4582" lon="7.09815">
        <ele>1292.4</ele>
        <time>2022-07-18T14:12:11Z</time>
      </trkpt>
      <trkpt lat="44.4582" lon="7.09817">
        <ele>1292.4</ele>
        <time>2022-07-18T14:12:12Z</time>
      </trkpt>
      <trkpt lat="44.4582" lon="7.09819">
        <ele>1292.8</ele>
        <time>2022-07-18T14:12:13Z</time>
      </trkpt>
      <trkpt lat="44.4582" lon="7.09821">
        <ele>1292.8</ele>
        <time>2022-07-18T14:12:14Z</time>
      </trkpt>
      <trkpt lat="44.4582" lon="7.09823">
        <ele>1293.2</ele>
        <time>2022-07-18T14:12:15Z</time>
      </trkpt>
      <trkpt lat="44.4582" lon="7.09825">
        <ele>1293.4</ele>
        <time>2022-07-18T14:12:16Z</time>
      </trkpt>
      <trkpt lat="44.4582" lon="7.09827">
        <ele>1293.4</ele>
        <time>2022-07-18T14:12:17Z</time>
      </trkpt>
      <trkpt lat="44.4582" lon="7.09828">
        <ele>1293.8</ele>
        <time>2022-07-18T14:12:18Z</time>
      </trkpt>
      <trkpt lat="44.4582" lon="7.0983">
        <ele>1293.8</ele>
        <time>2022-07-18T14:12:19Z</time>
      </trkpt>
      <trkpt lat="44.45821" lon="7.09832">
        <ele>1294</ele>
        <time>2022-07-18T14:12:20Z</time>
      </trkpt>
      <trkpt lat="44.45821" lon="7.09834">
        <ele>1294.4</ele>
        <time>2022-07-18T14:12:21Z</time>
      </trkpt>
      <trkpt lat="44.45822" lon="7.09836">
        <ele>1294.4</ele>
        <time>2022-07-18T14:12:22Z</time>
      </trkpt>
      <trkpt lat="44.45822" lon="7.09837">
        <ele>1294.6</ele>
        <time>2022-07-18T14:12:23Z</time>
      </trkpt>
      <trkpt lat="44.45821" lon="7.09839">
        <ele>1294.8</ele>
        <time>2022-07-18T14:12:24Z</time>
      </trkpt>
      <trkpt lat="44.45821" lon="7.0984">
        <ele>1294.8</ele>
        <time>2022-07-18T14:12:25Z</time>
      </trkpt>
      <trkpt lat="44.45821" lon="7.09843">
        <ele>1295.2</ele>
        <time>2022-07-18T14:12:26Z</time>
      </trkpt>
      <trkpt lat="44.45821" lon="7.09845">
        <ele>1295.2</ele>
        <time>2022-07-18T14:12:27Z</time>
      </trkpt>
      <trkpt lat="44.45821" lon="7.09847">
        <ele>1295.4</ele>
        <time>2022-07-18T14:12:28Z</time>
      </trkpt>
      <trkpt lat="44.45821" lon="7.0985">
        <ele>1295.4</ele>
        <time>2022-07-18T14:12:29Z</time>
      </trkpt>
      <trkpt lat="44.45821" lon="7.09852">
        <ele>1295.8</ele>
        <time>2022-07-18T14:12:30Z</time>
      </trkpt>
      <trkpt lat="44.45821" lon="7.09854">
        <ele>1295.8</ele>
        <time>2022-07-18T14:12:31Z</time>
      </trkpt>
      <trkpt lat="44.45821" lon="7.09857">
        <ele>1296.2</ele>
        <time>2022-07-18T14:12:32Z</time>
      </trkpt>
      <trkpt lat="44.45821" lon="7.09859">
        <ele>1296.2</ele>
        <time>2022-07-18T14:12:33Z</time>
      </trkpt>
      <trkpt lat="44.45821" lon="7.09861">
        <ele>1296.6</ele>
        <time>2022-07-18T14:12:34Z</time>
      </trkpt>
      <trkpt lat="44.45822" lon="7.09863">
        <ele>1296.6</ele>
        <time>2022-07-18T14:12:35Z</time>
      </trkpt>
      <trkpt lat="44.45822" lon="7.09865">
        <ele>1296.8</ele>
        <time>2022-07-18T14:12:36Z</time>
      </trkpt>
      <trkpt lat="44.45822" lon="7.09867">
        <ele>1296.8</ele>
        <time>2022-07-18T14:12:37Z</time>
      </trkpt>
      <trkpt lat="44.45821" lon="7.09869">
        <ele>1297.2</ele>
        <time>2022-07-18T14:12:38Z</time>
      </trkpt>
      <trkpt lat="44.45821" lon="7.09871">
        <ele>1297.2</ele>
        <time>2022-07-18T14:12:39Z</time>
      </trkpt>
      <trkpt lat="44.45821" lon="7.09874">
        <ele>1297.4</ele>
        <time>2022-07-18T14:12:40Z</time>
      </trkpt>
      <trkpt lat="44.45821" lon="7.09877">
        <ele>1297.4</ele>
        <time>2022-07-18T14:12:41Z</time>
      </trkpt>
      <trkpt lat="44.45821" lon="7.0988">
        <ele>1297.8</ele>
        <time>2022-07-18T14:12:42Z</time>
      </trkpt>
      <trkpt lat="44.45821" lon="7.09882">
        <ele>1297.8</ele>
        <time>2022-07-18T14:12:43Z</time>
      </trkpt>
      <trkpt lat="44.45821" lon="7.09884">
        <ele>1298</ele>
        <time>2022-07-18T14:12:44Z</time>
      </trkpt>
      <trkpt lat="44.45821" lon="7.09886">
        <ele>1298.2</ele>
        <time>2022-07-18T14:12:45Z</time>
      </trkpt>
      <trkpt lat="44.45821" lon="7.09888">
        <ele>1298.2</ele>
        <time>2022-07-18T14:12:46Z</time>
      </trkpt>
      <trkpt lat="44.45821" lon="7.0989">
        <ele>1298.6</ele>
        <time>2022-07-18T14:12:47Z</time>
      </trkpt>
      <trkpt lat="44.45821" lon="7.09892">
        <ele>1298.6</ele>
        <time>2022-07-18T14:12:48Z</time>
      </trkpt>
      <trkpt lat="44.45821" lon="7.09894">
        <ele>1298.8</ele>
        <time>2022-07-18T14:12:49Z</time>
      </trkpt>
      <trkpt lat="44.45821" lon="7.09896">
        <ele>1298.8</ele>
        <time>2022-07-18T14:12:50Z</time>
      </trkpt>
      <trkpt lat="44.45821" lon="7.09898">
        <ele>1299.2</ele>
        <time>2022-07-18T14:12:51Z</time>
      </trkpt>
      <trkpt lat="44.45821" lon="7.099">
        <ele>1299.4</ele>
        <time>2022-07-18T14:12:52Z</time>
      </trkpt>
      <trkpt lat="44.4582" lon="7.09902">
        <ele>1299.4</ele>
        <time>2022-07-18T14:12:53Z</time>
      </trkpt>
      <trkpt lat="44.4582" lon="7.09904">
        <ele>1299.8</ele>
        <time>2022-07-18T14:12:54Z</time>
      </trkpt>
      <trkpt lat="44.45821" lon="7.09906">
        <ele>1299.8</ele>
        <time>2022-07-18T14:12:55Z</time>
      </trkpt>
      <trkpt lat="44.45821" lon="7.09907">
        <ele>1300.2</ele>
        <time>2022-07-18T14:12:56Z</time>
      </trkpt>
      <trkpt lat="44.45821" lon="7.09909">
        <ele>1300.4</ele>
        <time>2022-07-18T14:12:57Z</time>
      </trkpt>
      <trkpt lat="44.4582" lon="7.09911">
        <ele>1300.4</ele>
        <time>2022-07-18T14:12:58Z</time>
      </trkpt>
      <trkpt lat="44.4582" lon="7.09913">
        <ele>1300.6</ele>
        <time>2022-07-18T14:12:59Z</time>
      </trkpt>
      <trkpt lat="44.4582" lon="7.09914">
        <ele>1300.8</ele>
        <time>2022-07-18T14:13:00Z</time>
      </trkpt>
      <trkpt lat="44.4582" lon="7.09916">
        <ele>1301</ele>
        <time>2022-07-18T14:13:01Z</time>
      </trkpt>
      <trkpt lat="44.4582" lon="7.09919">
        <ele>1301</ele>
        <time>2022-07-18T14:13:02Z</time>
      </trkpt>
      <trkpt lat="44.45821" lon="7.09921">
        <ele>1301.4</ele>
        <time>2022-07-18T14:13:03Z</time>
      </trkpt>
      <trkpt lat="44.45821" lon="7.09923">
        <ele>1301.4</ele>
        <time>2022-07-18T14:13:04Z</time>
      </trkpt>
      <trkpt lat="44.45822" lon="7.09925">
        <ele>1301.4</ele>
        <time>2022-07-18T14:13:05Z</time>
      </trkpt>
      <trkpt lat="44.45822" lon="7.09927">
        <ele>1301.6</ele>
        <time>2022-07-18T14:13:06Z</time>
      </trkpt>
      <trkpt lat="44.45822" lon="7.09929">
        <ele>1301.6</ele>
        <time>2022-07-18T14:13:07Z</time>
      </trkpt>
      <trkpt lat="44.45823" lon="7.09932">
        <ele>1302</ele>
        <time>2022-07-18T14:13:08Z</time>
      </trkpt>
      <trkpt lat="44.45823" lon="7.09934">
        <ele>1302</ele>
        <time>2022-07-18T14:13:09Z</time>
      </trkpt>
      <trkpt lat="44.45823" lon="7.09937">
        <ele>1302.4</ele>
        <time>2022-07-18T14:13:10Z</time>
      </trkpt>
      <trkpt lat="44.45823" lon="7.0994">
        <ele>1302.6</ele>
        <time>2022-07-18T14:13:11Z</time>
      </trkpt>
      <trkpt lat="44.45823" lon="7.09942">
        <ele>1302.8</ele>
        <time>2022-07-18T14:13:12Z</time>
      </trkpt>
      <trkpt lat="44.45822" lon="7.09944">
        <ele>1302.8</ele>
        <time>2022-07-18T14:13:13Z</time>
      </trkpt>
      <trkpt lat="44.45822" lon="7.09946">
        <ele>1303</ele>
        <time>2022-07-18T14:13:14Z</time>
      </trkpt>
      <trkpt lat="44.45821" lon="7.09948">
        <ele>1303</ele>
        <time>2022-07-18T14:13:15Z</time>
      </trkpt>
      <trkpt lat="44.4582" lon="7.09949">
        <ele>1303.4</ele>
        <time>2022-07-18T14:13:16Z</time>
      </trkpt>
      <trkpt lat="44.45819" lon="7.0995">
        <ele>1303.4</ele>
        <time>2022-07-18T14:13:17Z</time>
      </trkpt>
      <trkpt lat="44.45818" lon="7.09951">
        <ele>1303.6</ele>
        <time>2022-07-18T14:13:18Z</time>
      </trkpt>
      <trkpt lat="44.45817" lon="7.09952">
        <ele>1303.6</ele>
        <time>2022-07-18T14:13:19Z</time>
      </trkpt>
      <trkpt lat="44.45815" lon="7.09952">
        <ele>1304</ele>
        <time>2022-07-18T14:13:20Z</time>
      </trkpt>
      <trkpt lat="44.45814" lon="7.09953">
        <ele>1304</ele>
        <time>2022-07-18T14:13:21Z</time>
      </trkpt>
      <trkpt lat="44.45812" lon="7.09953">
        <ele>1304.4</ele>
        <time>2022-07-18T14:13:22Z</time>
      </trkpt>
      <trkpt lat="44.45811" lon="7.09953">
        <ele>1304.4</ele>
        <time>2022-07-18T14:13:23Z</time>
      </trkpt>
      <trkpt lat="44.4581" lon="7.09953">
        <ele>1304.4</ele>
        <time>2022-07-18T14:13:24Z</time>
      </trkpt>
      <trkpt lat="44.45809" lon="7.09953">
        <ele>1304.6</ele>
        <time>2022-07-18T14:13:25Z</time>
      </trkpt>
      <trkpt lat="44.45808" lon="7.09953">
        <ele>1304.8</ele>
        <time>2022-07-18T14:13:26Z</time>
      </trkpt>
      <trkpt lat="44.45806" lon="7.09952">
        <ele>1304.8</ele>
        <time>2022-07-18T14:13:27Z</time>
      </trkpt>
      <trkpt lat="44.45805" lon="7.09951">
        <ele>1305</ele>
        <time>2022-07-18T14:13:28Z</time>
      </trkpt>
      <trkpt lat="44.45803" lon="7.0995">
        <ele>1305</ele>
        <time>2022-07-18T14:13:29Z</time>
      </trkpt>
      <trkpt lat="44.45802" lon="7.09949">
        <ele>1305.4</ele>
        <time>2022-07-18T14:13:30Z</time>
      </trkpt>
      <trkpt lat="44.458" lon="7.09948">
        <ele>1305.4</ele>
        <time>2022-07-18T14:13:31Z</time>
      </trkpt>
      <trkpt lat="44.45798" lon="7.09947">
        <ele>1305.6</ele>
        <time>2022-07-18T14:13:32Z</time>
      </trkpt>
      <trkpt lat="44.45797" lon="7.09945">
        <ele>1305.6</ele>
        <time>2022-07-18T14:13:33Z</time>
      </trkpt>
      <trkpt lat="44.45795" lon="7.09945">
        <ele>1306</ele>
        <time>2022-07-18T14:13:34Z</time>
      </trkpt>
      <trkpt lat="44.45794" lon="7.09943">
        <ele>1306</ele>
        <time>2022-07-18T14:13:35Z</time>
      </trkpt>
      <trkpt lat="44.45792" lon="7.09942">
        <ele>1306.2</ele>
        <time>2022-07-18T14:13:36Z</time>
      </trkpt>
      <trkpt lat="44.4579" lon="7.09941">
        <ele>1306.2</ele>
        <time>2022-07-18T14:13:37Z</time>
      </trkpt>
      <trkpt lat="44.45788" lon="7.0994">
        <ele>1306.6</ele>
        <time>2022-07-18T14:13:38Z</time>
      </trkpt>
      <trkpt lat="44.45786" lon="7.09939">
        <ele>1306.8</ele>
        <time>2022-07-18T14:13:39Z</time>
      </trkpt>
      <trkpt lat="44.45784" lon="7.09939">
        <ele>1306.8</ele>
        <time>2022-07-18T14:13:40Z</time>
      </trkpt>
      <trkpt lat="44.45782" lon="7.09938">
        <ele>1307</ele>
        <time>2022-07-18T14:13:41Z</time>
      </trkpt>
      <trkpt lat="44.4578" lon="7.09938">
        <ele>1307</ele>
        <time>2022-07-18T14:13:42Z</time>
      </trkpt>
      <trkpt lat="44.45778" lon="7.09938">
        <ele>1307.4</ele>
        <time>2022-07-18T14:13:43Z</time>
      </trkpt>
      <trkpt lat="44.45776" lon="7.09938">
        <ele>1307.6</ele>
        <time>2022-07-18T14:13:44Z</time>
      </trkpt>
      <trkpt lat="44.45774" lon="7.09939">
        <ele>1307.6</ele>
        <time>2022-07-18T14:13:45Z</time>
      </trkpt>
      <trkpt lat="44.45772" lon="7.09939">
        <ele>1307.8</ele>
        <time>2022-07-18T14:13:46Z</time>
      </trkpt>
      <trkpt lat="44.4577" lon="7.0994">
        <ele>1307.8</ele>
        <time>2022-07-18T14:13:47Z</time>
      </trkpt>
      <trkpt lat="44.45768" lon="7.0994">
        <ele>1308.2</ele>
        <time>2022-07-18T14:13:48Z</time>
      </trkpt>
      <trkpt lat="44.45766" lon="7.0994">
        <ele>1308.2</ele>
        <time>2022-07-18T14:13:49Z</time>
      </trkpt>
      <trkpt lat="44.45764" lon="7.09941">
        <ele>1308.4</ele>
        <time>2022-07-18T14:13:50Z</time>
      </trkpt>
      <trkpt lat="44.45762" lon="7.09941">
        <ele>1308.4</ele>
        <time>2022-07-18T14:13:51Z</time>
      </trkpt>
      <trkpt lat="44.45761" lon="7.09942">
        <ele>1308.8</ele>
        <time>2022-07-18T14:13:52Z</time>
      </trkpt>
      <trkpt lat="44.45759" lon="7.09942">
        <ele>1308.8</ele>
        <time>2022-07-18T14:13:53Z</time>
      </trkpt>
      <trkpt lat="44.45758" lon="7.09943">
        <ele>1309</ele>
        <time>2022-07-18T14:13:54Z</time>
      </trkpt>
      <trkpt lat="44.45756" lon="7.09944">
        <ele>1309</ele>
        <time>2022-07-18T14:13:55Z</time>
      </trkpt>
      <trkpt lat="44.45755" lon="7.09944">
        <ele>1309.4</ele>
        <time>2022-07-18T14:13:56Z</time>
      </trkpt>
      <trkpt lat="44.45754" lon="7.09945">
        <ele>1309.4</ele>
        <time>2022-07-18T14:13:57Z</time>
      </trkpt>
      <trkpt lat="44.45752" lon="7.09946">
        <ele>1309.8</ele>
        <time>2022-07-18T14:13:58Z</time>
      </trkpt>
      <trkpt lat="44.4575" lon="7.09946">
        <ele>1309.8</ele>
        <time>2022-07-18T14:13:59Z</time>
      </trkpt>
      <trkpt lat="44.45749" lon="7.09947">
        <ele>1310.2</ele>
        <time>2022-07-18T14:14:00Z</time>
      </trkpt>
      <trkpt lat="44.45747" lon="7.09948">
        <ele>1310.2</ele>
        <time>2022-07-18T14:14:01Z</time>
      </trkpt>
      <trkpt lat="44.45745" lon="7.09949">
        <ele>1310.6</ele>
        <time>2022-07-18T14:14:02Z</time>
      </trkpt>
      <trkpt lat="44.45744" lon="7.0995">
        <ele>1310.6</ele>
        <time>2022-07-18T14:14:03Z</time>
      </trkpt>
      <trkpt lat="44.45742" lon="7.09951">
        <ele>1310.8</ele>
        <time>2022-07-18T14:14:04Z</time>
      </trkpt>
      <trkpt lat="44.4574" lon="7.09951">
        <ele>1310.8</ele>
        <time>2022-07-18T14:14:05Z</time>
      </trkpt>
      <trkpt lat="44.45739" lon="7.09952">
        <ele>1311.2</ele>
        <time>2022-07-18T14:14:06Z</time>
      </trkpt>
      <trkpt lat="44.45737" lon="7.09953">
        <ele>1311.2</ele>
        <time>2022-07-18T14:14:07Z</time>
      </trkpt>
      <trkpt lat="44.45735" lon="7.09954">
        <ele>1311.6</ele>
        <time>2022-07-18T14:14:08Z</time>
      </trkpt>
      <trkpt lat="44.45733" lon="7.09956">
        <ele>1311.8</ele>
        <time>2022-07-18T14:14:09Z</time>
      </trkpt>
      <trkpt lat="44.45731" lon="7.09956">
        <ele>1311.8</ele>
        <time>2022-07-18T14:14:10Z</time>
      </trkpt>
      <trkpt lat="44.45729" lon="7.09957">
        <ele>1312</ele>
        <time>2022-07-18T14:14:11Z</time>
      </trkpt>
      <trkpt lat="44.45727" lon="7.09958">
        <ele>1312.4</ele>
        <time>2022-07-18T14:14:12Z</time>
      </trkpt>
      <trkpt lat="44.45726" lon="7.09959">
        <ele>1312.4</ele>
        <time>2022-07-18T14:14:13Z</time>
      </trkpt>
      <trkpt lat="44.45724" lon="7.0996">
        <ele>1312.8</ele>
        <time>2022-07-18T14:14:14Z</time>
      </trkpt>
      <trkpt lat="44.45722" lon="7.0996">
        <ele>1313</ele>
        <time>2022-07-18T14:14:15Z</time>
      </trkpt>
      <trkpt lat="44.4572" lon="7.09961">
        <ele>1313</ele>
        <time>2022-07-18T14:14:16Z</time>
      </trkpt>
      <trkpt lat="44.45719" lon="7.09961">
        <ele>1313.4</ele>
        <time>2022-07-18T14:14:17Z</time>
      </trkpt>
      <trkpt lat="44.45717" lon="7.09962">
        <ele>1313.4</ele>
        <time>2022-07-18T14:14:18Z</time>
      </trkpt>
      <trkpt lat="44.45715" lon="7.09962">
        <ele>1313.6</ele>
        <time>2022-07-18T14:14:19Z</time>
      </trkpt>
      <trkpt lat="44.45714" lon="7.09964">
        <ele>1313.6</ele>
        <time>2022-07-18T14:14:20Z</time>
      </trkpt>
      <trkpt lat="44.45712" lon="7.09965">
        <ele>1314</ele>
        <time>2022-07-18T14:14:21Z</time>
      </trkpt>
      <trkpt lat="44.4571" lon="7.09966">
        <ele>1314.2</ele>
        <time>2022-07-18T14:14:22Z</time>
      </trkpt>
      <trkpt lat="44.45708" lon="7.09967">
        <ele>1314.4</ele>
        <time>2022-07-18T14:14:23Z</time>
      </trkpt>
      <trkpt lat="44.45706" lon="7.09968">
        <ele>1314.6</ele>
        <time>2022-07-18T14:14:24Z</time>
      </trkpt>
      <trkpt lat="44.45704" lon="7.09968">
        <ele>1314.6</ele>
        <time>2022-07-18T14:14:25Z</time>
      </trkpt>
      <trkpt lat="44.45702" lon="7.09969">
        <ele>1315</ele>
        <time>2022-07-18T14:14:26Z</time>
      </trkpt>
      <trkpt lat="44.457" lon="7.0997">
        <ele>1315</ele>
        <time>2022-07-18T14:14:27Z</time>
      </trkpt>
      <trkpt lat="44.45698" lon="7.09971">
        <ele>1315.2</ele>
        <time>2022-07-18T14:14:28Z</time>
      </trkpt>
      <trkpt lat="44.45696" lon="7.09972">
        <ele>1315.2</ele>
        <time>2022-07-18T14:14:29Z</time>
      </trkpt>
      <trkpt lat="44.45694" lon="7.09973">
        <ele>1315.6</ele>
        <time>2022-07-18T14:14:30Z</time>
      </trkpt>
      <trkpt lat="44.45692" lon="7.09973">
        <ele>1316</ele>
        <time>2022-07-18T14:14:31Z</time>
      </trkpt>
      <trkpt lat="44.45691" lon="7.09975">
        <ele>1316.2</ele>
        <time>2022-07-18T14:14:32Z</time>
      </trkpt>
      <trkpt lat="44.45689" lon="7.09976">
        <ele>1316.2</ele>
        <time>2022-07-18T14:14:33Z</time>
      </trkpt>
      <trkpt lat="44.45687" lon="7.09977">
        <ele>1316.4</ele>
        <time>2022-07-18T14:14:34Z</time>
      </trkpt>
      <trkpt lat="44.45686" lon="7.09979">
        <ele>1316.4</ele>
        <time>2022-07-18T14:14:35Z</time>
      </trkpt>
      <trkpt lat="44.45684" lon="7.09981">
        <ele>1316.6</ele>
        <time>2022-07-18T14:14:36Z</time>
      </trkpt>
      <trkpt lat="44.45682" lon="7.09983">
        <ele>1316.6</ele>
        <time>2022-07-18T14:14:37Z</time>
      </trkpt>
      <trkpt lat="44.4568" lon="7.09985">
        <ele>1316.6</ele>
        <time>2022-07-18T14:14:38Z</time>
      </trkpt>
      <trkpt lat="44.45679" lon="7.09987">
        <ele>1316.6</ele>
        <time>2022-07-18T14:14:39Z</time>
      </trkpt>
      <trkpt lat="44.45677" lon="7.09989">
        <ele>1317</ele>
        <time>2022-07-18T14:14:40Z</time>
      </trkpt>
      <trkpt lat="44.45675" lon="7.09991">
        <ele>1317</ele>
        <time>2022-07-18T14:14:41Z</time>
      </trkpt>
      <trkpt lat="44.45672" lon="7.09994">
        <ele>1317</ele>
        <time>2022-07-18T14:14:42Z</time>
      </trkpt>
      <trkpt lat="44.4567" lon="7.09996">
        <ele>1317</ele>
        <time>2022-07-18T14:14:43Z</time>
      </trkpt>
      <trkpt lat="44.45667" lon="7.09999">
        <ele>1317</ele>
        <time>2022-07-18T14:14:44Z</time>
      </trkpt>
      <trkpt lat="44.45665" lon="7.10002">
        <ele>1317.2</ele>
        <time>2022-07-18T14:14:45Z</time>
      </trkpt>
      <trkpt lat="44.45662" lon="7.10004">
        <ele>1317.2</ele>
        <time>2022-07-18T14:14:46Z</time>
      </trkpt>
      <trkpt lat="44.4566" lon="7.10007">
        <ele>1317.2</ele>
        <time>2022-07-18T14:14:47Z</time>
      </trkpt>
      <trkpt lat="44.45657" lon="7.1001">
        <ele>1317.2</ele>
        <time>2022-07-18T14:14:48Z</time>
      </trkpt>
      <trkpt lat="44.45654" lon="7.10013">
        <ele>1317.2</ele>
        <time>2022-07-18T14:14:49Z</time>
      </trkpt>
      <trkpt lat="44.45652" lon="7.10017">
        <ele>1317.2</ele>
        <time>2022-07-18T14:14:50Z</time>
      </trkpt>
      <trkpt lat="44.45649" lon="7.1002">
        <ele>1317.2</ele>
        <time>2022-07-18T14:14:51Z</time>
      </trkpt>
      <trkpt lat="44.45647" lon="7.10024">
        <ele>1317.2</ele>
        <time>2022-07-18T14:14:52Z</time>
      </trkpt>
      <trkpt lat="44.45644" lon="7.10027">
        <ele>1317.2</ele>
        <time>2022-07-18T14:14:53Z</time>
      </trkpt>
      <trkpt lat="44.45641" lon="7.10031">
        <ele>1317.2</ele>
        <time>2022-07-18T14:14:54Z</time>
      </trkpt>
      <trkpt lat="44.45638" lon="7.10035">
        <ele>1317.4</ele>
        <time>2022-07-18T14:14:55Z</time>
      </trkpt>
      <trkpt lat="44.45636" lon="7.10038">
        <ele>1317.4</ele>
        <time>2022-07-18T14:14:56Z</time>
      </trkpt>
      <trkpt lat="44.45632" lon="7.10042">
        <ele>1317.4</ele>
        <time>2022-07-18T14:14:57Z</time>
      </trkpt>
      <trkpt lat="44.45629" lon="7.10045">
        <ele>1317.4</ele>
        <time>2022-07-18T14:14:58Z</time>
      </trkpt>
      <trkpt lat="44.45626" lon="7.10049">
        <ele>1317.4</ele>
        <time>2022-07-18T14:14:59Z</time>
      </trkpt>
      <trkpt lat="44.45623" lon="7.10052">
        <ele>1317.4</ele>
        <time>2022-07-18T14:15:00Z</time>
      </trkpt>
      <trkpt lat="44.45621" lon="7.10055">
        <ele>1317.6</ele>
        <time>2022-07-18T14:15:02Z</time>
      </trkpt>
      <trkpt lat="44.45617" lon="7.10058">
        <ele>1317.6</ele>
        <time>2022-07-18T14:15:03Z</time>
      </trkpt>
      <trkpt lat="44.45611" lon="7.10064">
        <ele>1317.6</ele>
        <time>2022-07-18T14:15:04Z</time>
      </trkpt>
      <trkpt lat="44.45607" lon="7.10066">
        <ele>1317.6</ele>
        <time>2022-07-18T14:15:05Z</time>
      </trkpt>
      <trkpt lat="44.45604" lon="7.10068">
        <ele>1317.6</ele>
        <time>2022-07-18T14:15:06Z</time>
      </trkpt>
      <trkpt lat="44.456" lon="7.10071">
        <ele>1317.6</ele>
        <time>2022-07-18T14:15:07Z</time>
      </trkpt>
      <trkpt lat="44.45597" lon="7.10073">
        <ele>1317.8</ele>
        <time>2022-07-18T14:15:08Z</time>
      </trkpt>
      <trkpt lat="44.45593" lon="7.10076">
        <ele>1317.8</ele>
        <time>2022-07-18T14:15:09Z</time>
      </trkpt>
      <trkpt lat="44.45589" lon="7.10078">
        <ele>1317.8</ele>
        <time>2022-07-18T14:15:10Z</time>
      </trkpt>
      <trkpt lat="44.45586" lon="7.1008">
        <ele>1317.8</ele>
        <time>2022-07-18T14:15:11Z</time>
      </trkpt>
      <trkpt lat="44.45582" lon="7.10082">
        <ele>1317.8</ele>
        <time>2022-07-18T14:15:12Z</time>
      </trkpt>
      <trkpt lat="44.45579" lon="7.10084">
        <ele>1317.8</ele>
        <time>2022-07-18T14:15:13Z</time>
      </trkpt>
      <trkpt lat="44.45575" lon="7.10086">
        <ele>1317.8</ele>
        <time>2022-07-18T14:15:14Z</time>
      </trkpt>
      <trkpt lat="44.45571" lon="7.10089">
        <ele>1318</ele>
        <time>2022-07-18T14:15:15Z</time>
      </trkpt>
      <trkpt lat="44.45568" lon="7.10092">
        <ele>1318</ele>
        <time>2022-07-18T14:15:16Z</time>
      </trkpt>
      <trkpt lat="44.45564" lon="7.10095">
        <ele>1318</ele>
        <time>2022-07-18T14:15:17Z</time>
      </trkpt>
      <trkpt lat="44.45561" lon="7.10099">
        <ele>1318</ele>
        <time>2022-07-18T14:15:18Z</time>
      </trkpt>
      <trkpt lat="44.45557" lon="7.10102">
        <ele>1318</ele>
        <time>2022-07-18T14:15:19Z</time>
      </trkpt>
      <trkpt lat="44.45554" lon="7.10105">
        <ele>1318</ele>
        <time>2022-07-18T14:15:20Z</time>
      </trkpt>
      <trkpt lat="44.45551" lon="7.10108">
        <ele>1318.2</ele>
        <time>2022-07-18T14:15:21Z</time>
      </trkpt>
      <trkpt lat="44.45548" lon="7.10112">
        <ele>1318.2</ele>
        <time>2022-07-18T14:15:22Z</time>
      </trkpt>
      <trkpt lat="44.45545" lon="7.10115">
        <ele>1318.2</ele>
        <time>2022-07-18T14:15:23Z</time>
      </trkpt>
      <trkpt lat="44.45542" lon="7.10118">
        <ele>1318.2</ele>
        <time>2022-07-18T14:15:24Z</time>
      </trkpt>
      <trkpt lat="44.45539" lon="7.1012">
        <ele>1318.2</ele>
        <time>2022-07-18T14:15:25Z</time>
      </trkpt>
      <trkpt lat="44.45535" lon="7.10122">
        <ele>1318.2</ele>
        <time>2022-07-18T14:15:26Z</time>
      </trkpt>
      <trkpt lat="44.45532" lon="7.10124">
        <ele>1318.2</ele>
        <time>2022-07-18T14:15:27Z</time>
      </trkpt>
      <trkpt lat="44.45529" lon="7.10126">
        <ele>1318.2</ele>
        <time>2022-07-18T14:15:28Z</time>
      </trkpt>
      <trkpt lat="44.45527" lon="7.10128">
        <ele>1318.2</ele>
        <time>2022-07-18T14:15:29Z</time>
      </trkpt>
      <trkpt lat="44.45524" lon="7.1013">
        <ele>1318.2</ele>
        <time>2022-07-18T14:15:30Z</time>
      </trkpt>
      <trkpt lat="44.45521" lon="7.10131">
        <ele>1318.2</ele>
        <time>2022-07-18T14:15:31Z</time>
      </trkpt>
      <trkpt lat="44.45518" lon="7.10132">
        <ele>1318.2</ele>
        <time>2022-07-18T14:15:32Z</time>
      </trkpt>
      <trkpt lat="44.45516" lon="7.10134">
        <ele>1318.2</ele>
        <time>2022-07-18T14:15:33Z</time>
      </trkpt>
      <trkpt lat="44.45512" lon="7.10135">
        <ele>1318.2</ele>
        <time>2022-07-18T14:15:34Z</time>
      </trkpt>
      <trkpt lat="44.45509" lon="7.10138">
        <ele>1318.2</ele>
        <time>2022-07-18T14:15:35Z</time>
      </trkpt>
      <trkpt lat="44.45506" lon="7.1014">
        <ele>1318.2</ele>
        <time>2022-07-18T14:15:36Z</time>
      </trkpt>
      <trkpt lat="44.45503" lon="7.10142">
        <ele>1318.6</ele>
        <time>2022-07-18T14:15:37Z</time>
      </trkpt>
      <trkpt lat="44.45499" lon="7.10144">
        <ele>1318.6</ele>
        <time>2022-07-18T14:15:38Z</time>
      </trkpt>
      <trkpt lat="44.45496" lon="7.10146">
        <ele>1318.6</ele>
        <time>2022-07-18T14:15:39Z</time>
      </trkpt>
      <trkpt lat="44.45493" lon="7.10148">
        <ele>1318.6</ele>
        <time>2022-07-18T14:15:40Z</time>
      </trkpt>
      <trkpt lat="44.45489" lon="7.10152">
        <ele>1318.6</ele>
        <time>2022-07-18T14:15:41Z</time>
      </trkpt>
      <trkpt lat="44.45486" lon="7.10155">
        <ele>1318.8</ele>
        <time>2022-07-18T14:15:42Z</time>
      </trkpt>
      <trkpt lat="44.45483" lon="7.10159">
        <ele>1318.8</ele>
        <time>2022-07-18T14:15:43Z</time>
      </trkpt>
      <trkpt lat="44.45479" lon="7.10162">
        <ele>1318.8</ele>
        <time>2022-07-18T14:15:44Z</time>
      </trkpt>
      <trkpt lat="44.45476" lon="7.10165">
        <ele>1318.8</ele>
        <time>2022-07-18T14:15:45Z</time>
      </trkpt>
      <trkpt lat="44.45473" lon="7.10169">
        <ele>1318.8</ele>
        <time>2022-07-18T14:15:46Z</time>
      </trkpt>
      <trkpt lat="44.4547" lon="7.10173">
        <ele>1318.8</ele>
        <time>2022-07-18T14:15:47Z</time>
      </trkpt>
      <trkpt lat="44.45466" lon="7.10176">
        <ele>1318.8</ele>
        <time>2022-07-18T14:15:48Z</time>
      </trkpt>
      <trkpt lat="44.45462" lon="7.10179">
        <ele>1318.8</ele>
        <time>2022-07-18T14:15:49Z</time>
      </trkpt>
      <trkpt lat="44.45457" lon="7.10182">
        <ele>1318.8</ele>
        <time>2022-07-18T14:15:50Z</time>
      </trkpt>
      <trkpt lat="44.45453" lon="7.10183">
        <ele>1318.8</ele>
        <time>2022-07-18T14:15:51Z</time>
      </trkpt>
      <trkpt lat="44.45448" lon="7.10185">
        <ele>1318.8</ele>
        <time>2022-07-18T14:15:52Z</time>
      </trkpt>
      <trkpt lat="44.45444" lon="7.10186">
        <ele>1318.8</ele>
        <time>2022-07-18T14:15:53Z</time>
      </trkpt>
      <trkpt lat="44.45439" lon="7.10187">
        <ele>1318.8</ele>
        <time>2022-07-18T14:15:54Z</time>
      </trkpt>
      <trkpt lat="44.45435" lon="7.10188">
        <ele>1318.8</ele>
        <time>2022-07-18T14:15:55Z</time>
      </trkpt>
      <trkpt lat="44.45431" lon="7.10189">
        <ele>1318.8</ele>
        <time>2022-07-18T14:15:56Z</time>
      </trkpt>
      <trkpt lat="44.45426" lon="7.1019">
        <ele>1318.8</ele>
        <time>2022-07-18T14:15:57Z</time>
      </trkpt>
      <trkpt lat="44.45422" lon="7.10191">
        <ele>1318.8</ele>
        <time>2022-07-18T14:15:58Z</time>
      </trkpt>
      <trkpt lat="44.45417" lon="7.10192">
        <ele>1318.8</ele>
        <time>2022-07-18T14:15:59Z</time>
      </trkpt>
      <trkpt lat="44.45412" lon="7.10194">
        <ele>1318.8</ele>
        <time>2022-07-18T14:16:00Z</time>
      </trkpt>
      <trkpt lat="44.45408" lon="7.10196">
        <ele>1318.8</ele>
        <time>2022-07-18T14:16:01Z</time>
      </trkpt>
      <trkpt lat="44.45403" lon="7.10199">
        <ele>1318.8</ele>
        <time>2022-07-18T14:16:02Z</time>
      </trkpt>
      <trkpt lat="44.45399" lon="7.10201">
        <ele>1318.8</ele>
        <time>2022-07-18T14:16:03Z</time>
      </trkpt>
      <trkpt lat="44.45395" lon="7.10203">
        <ele>1318.8</ele>
        <time>2022-07-18T14:16:04Z</time>
      </trkpt>
      <trkpt lat="44.45392" lon="7.10205">
        <ele>1318.8</ele>
        <time>2022-07-18T14:16:05Z</time>
      </trkpt>
      <trkpt lat="44.45388" lon="7.10208">
        <ele>1318.8</ele>
        <time>2022-07-18T14:16:06Z</time>
      </trkpt>
      <trkpt lat="44.45385" lon="7.10212">
        <ele>1318.8</ele>
        <time>2022-07-18T14:16:07Z</time>
      </trkpt>
      <trkpt lat="44.45381" lon="7.10216">
        <ele>1318.8</ele>
        <time>2022-07-18T14:16:08Z</time>
      </trkpt>
      <trkpt lat="44.45377" lon="7.10219">
        <ele>1318.8</ele>
        <time>2022-07-18T14:16:09Z</time>
      </trkpt>
      <trkpt lat="44.45374" lon="7.10222">
        <ele>1318.8</ele>
        <time>2022-07-18T14:16:10Z</time>
      </trkpt>
      <trkpt lat="44.4537" lon="7.10225">
        <ele>1318.8</ele>
        <time>2022-07-18T14:16:11Z</time>
      </trkpt>
      <trkpt lat="44.45367" lon="7.10229">
        <ele>1318.8</ele>
        <time>2022-07-18T14:16:12Z</time>
      </trkpt>
      <trkpt lat="44.45363" lon="7.10233">
        <ele>1319</ele>
        <time>2022-07-18T14:16:13Z</time>
      </trkpt>
      <trkpt lat="44.4536" lon="7.10238">
        <ele>1319</ele>
        <time>2022-07-18T14:16:14Z</time>
      </trkpt>
      <trkpt lat="44.45357" lon="7.10242">
        <ele>1319</ele>
        <time>2022-07-18T14:16:15Z</time>
      </trkpt>
      <trkpt lat="44.45354" lon="7.10248">
        <ele>1319</ele>
        <time>2022-07-18T14:16:16Z</time>
      </trkpt>
      <trkpt lat="44.45352" lon="7.10254">
        <ele>1319</ele>
        <time>2022-07-18T14:16:17Z</time>
      </trkpt>
      <trkpt lat="44.45351" lon="7.10259">
        <ele>1319</ele>
        <time>2022-07-18T14:16:18Z</time>
      </trkpt>
      <trkpt lat="44.4535" lon="7.10265">
        <ele>1319</ele>
        <time>2022-07-18T14:16:19Z</time>
      </trkpt>
      <trkpt lat="44.4535" lon="7.1027">
        <ele>1319</ele>
        <time>2022-07-18T14:16:20Z</time>
      </trkpt>
      <trkpt lat="44.45349" lon="7.10276">
        <ele>1319</ele>
        <time>2022-07-18T14:16:21Z</time>
      </trkpt>
      <trkpt lat="44.45348" lon="7.10282">
        <ele>1319</ele>
        <time>2022-07-18T14:16:22Z</time>
      </trkpt>
      <trkpt lat="44.45347" lon="7.10288">
        <ele>1319</ele>
        <time>2022-07-18T14:16:23Z</time>
      </trkpt>
      <trkpt lat="44.45344" lon="7.10294">
        <ele>1319</ele>
        <time>2022-07-18T14:16:24Z</time>
      </trkpt>
      <trkpt lat="44.45342" lon="7.103">
        <ele>1319</ele>
        <time>2022-07-18T14:16:25Z</time>
      </trkpt>
      <trkpt lat="44.45339" lon="7.10305">
        <ele>1319</ele>
        <time>2022-07-18T14:16:26Z</time>
      </trkpt>
      <trkpt lat="44.45335" lon="7.1031">
        <ele>1319</ele>
        <time>2022-07-18T14:16:27Z</time>
      </trkpt>
      <trkpt lat="44.45332" lon="7.10314">
        <ele>1319</ele>
        <time>2022-07-18T14:16:28Z</time>
      </trkpt>
      <trkpt lat="44.45329" lon="7.10319">
        <ele>1319</ele>
        <time>2022-07-18T14:16:29Z</time>
      </trkpt>
      <trkpt lat="44.45326" lon="7.10323">
        <ele>1319</ele>
        <time>2022-07-18T14:16:30Z</time>
      </trkpt>
      <trkpt lat="44.45324" lon="7.10326">
        <ele>1319</ele>
        <time>2022-07-18T14:16:31Z</time>
      </trkpt>
      <trkpt lat="44.45322" lon="7.1033">
        <ele>1319.2</ele>
        <time>2022-07-18T14:16:32Z</time>
      </trkpt>
      <trkpt lat="44.45319" lon="7.10333">
        <ele>1319.2</ele>
        <time>2022-07-18T14:16:33Z</time>
      </trkpt>
      <trkpt lat="44.45317" lon="7.10336">
        <ele>1319.2</ele>
        <time>2022-07-18T14:16:34Z</time>
      </trkpt>
      <trkpt lat="44.45314" lon="7.10339">
        <ele>1319.2</ele>
        <time>2022-07-18T14:16:35Z</time>
      </trkpt>
      <trkpt lat="44.45312" lon="7.10342">
        <ele>1319.2</ele>
        <time>2022-07-18T14:16:36Z</time>
      </trkpt>
      <trkpt lat="44.45309" lon="7.10346">
        <ele>1319.2</ele>
        <time>2022-07-18T14:16:37Z</time>
      </trkpt>
      <trkpt lat="44.45306" lon="7.1035">
        <ele>1319.2</ele>
        <time>2022-07-18T14:16:38Z</time>
      </trkpt>
      <trkpt lat="44.45303" lon="7.10354">
        <ele>1319.6</ele>
        <time>2022-07-18T14:16:39Z</time>
      </trkpt>
      <trkpt lat="44.453" lon="7.10356">
        <ele>1319.6</ele>
        <time>2022-07-18T14:16:40Z</time>
      </trkpt>
      <trkpt lat="44.45296" lon="7.10359">
        <ele>1319.6</ele>
        <time>2022-07-18T14:16:41Z</time>
      </trkpt>
      <trkpt lat="44.45292" lon="7.10362">
        <ele>1319.6</ele>
        <time>2022-07-18T14:16:42Z</time>
      </trkpt>
      <trkpt lat="44.45289" lon="7.10366">
        <ele>1319.6</ele>
        <time>2022-07-18T14:16:43Z</time>
      </trkpt>
      <trkpt lat="44.45287" lon="7.10371">
        <ele>1319.6</ele>
        <time>2022-07-18T14:16:44Z</time>
      </trkpt>
      <trkpt lat="44.45284" lon="7.10376">
        <ele>1319.6</ele>
        <time>2022-07-18T14:16:45Z</time>
      </trkpt>
      <trkpt lat="44.45281" lon="7.10382">
        <ele>1319.6</ele>
        <time>2022-07-18T14:16:46Z</time>
      </trkpt>
      <trkpt lat="44.45279" lon="7.10389">
        <ele>1319.6</ele>
        <time>2022-07-18T14:16:47Z</time>
      </trkpt>
      <trkpt lat="44.45278" lon="7.10395">
        <ele>1319.6</ele>
        <time>2022-07-18T14:16:48Z</time>
      </trkpt>
      <trkpt lat="44.45276" lon="7.10401">
        <ele>1319.6</ele>
        <time>2022-07-18T14:16:49Z</time>
      </trkpt>
      <trkpt lat="44.45275" lon="7.10407">
        <ele>1319.6</ele>
        <time>2022-07-18T14:16:50Z</time>
      </trkpt>
      <trkpt lat="44.45274" lon="7.10413">
        <ele>1319.6</ele>
        <time>2022-07-18T14:16:51Z</time>
      </trkpt>
      <trkpt lat="44.45273" lon="7.10419">
        <ele>1319.6</ele>
        <time>2022-07-18T14:16:52Z</time>
      </trkpt>
      <trkpt lat="44.45271" lon="7.10424">
        <ele>1319.8</ele>
        <time>2022-07-18T14:16:53Z</time>
      </trkpt>
      <trkpt lat="44.4527" lon="7.10429">
        <ele>1319.8</ele>
        <time>2022-07-18T14:16:54Z</time>
      </trkpt>
      <trkpt lat="44.45269" lon="7.10434">
        <ele>1319.8</ele>
        <time>2022-07-18T14:16:55Z</time>
      </trkpt>
      <trkpt lat="44.45268" lon="7.1044">
        <ele>1319.8</ele>
        <time>2022-07-18T14:16:56Z</time>
      </trkpt>
      <trkpt lat="44.45266" lon="7.10446">
        <ele>1320</ele>
        <time>2022-07-18T14:16:57Z</time>
      </trkpt>
      <trkpt lat="44.45264" lon="7.10451">
        <ele>1320</ele>
        <time>2022-07-18T14:16:58Z</time>
      </trkpt>
      <trkpt lat="44.45262" lon="7.10457">
        <ele>1320</ele>
        <time>2022-07-18T14:16:59Z</time>
      </trkpt>
      <trkpt lat="44.4526" lon="7.10463">
        <ele>1320</ele>
        <time>2022-07-18T14:17:00Z</time>
      </trkpt>
      <trkpt lat="44.45258" lon="7.10467">
        <ele>1320.2</ele>
        <time>2022-07-18T14:17:01Z</time>
      </trkpt>
      <trkpt lat="44.45256" lon="7.10472">
        <ele>1320.2</ele>
        <time>2022-07-18T14:17:02Z</time>
      </trkpt>
      <trkpt lat="44.45254" lon="7.10477">
        <ele>1320.2</ele>
        <time>2022-07-18T14:17:03Z</time>
      </trkpt>
      <trkpt lat="44.45252" lon="7.10483">
        <ele>1320.2</ele>
        <time>2022-07-18T14:17:04Z</time>
      </trkpt>
      <trkpt lat="44.4525" lon="7.10488">
        <ele>1320.2</ele>
        <time>2022-07-18T14:17:05Z</time>
      </trkpt>
      <trkpt lat="44.45248" lon="7.10493">
        <ele>1320.2</ele>
        <time>2022-07-18T14:17:06Z</time>
      </trkpt>
      <trkpt lat="44.45246" lon="7.10498">
        <ele>1320.2</ele>
        <time>2022-07-18T14:17:07Z</time>
      </trkpt>
      <trkpt lat="44.45244" lon="7.10503">
        <ele>1320.4</ele>
        <time>2022-07-18T14:17:08Z</time>
      </trkpt>
      <trkpt lat="44.45242" lon="7.10508">
        <ele>1320.4</ele>
        <time>2022-07-18T14:17:09Z</time>
      </trkpt>
      <trkpt lat="44.4524" lon="7.10513">
        <ele>1320.6</ele>
        <time>2022-07-18T14:17:10Z</time>
      </trkpt>
      <trkpt lat="44.45237" lon="7.10518">
        <ele>1320.6</ele>
        <time>2022-07-18T14:17:11Z</time>
      </trkpt>
      <trkpt lat="44.45235" lon="7.10523">
        <ele>1320.6</ele>
        <time>2022-07-18T14:17:12Z</time>
      </trkpt>
      <trkpt lat="44.45232" lon="7.10528">
        <ele>1320.6</ele>
        <time>2022-07-18T14:17:13Z</time>
      </trkpt>
      <trkpt lat="44.4523" lon="7.10532">
        <ele>1320.6</ele>
        <time>2022-07-18T14:17:14Z</time>
      </trkpt>
      <trkpt lat="44.45228" lon="7.10537">
        <ele>1320.6</ele>
        <time>2022-07-18T14:17:15Z</time>
      </trkpt>
      <trkpt lat="44.45226" lon="7.10542">
        <ele>1320.6</ele>
        <time>2022-07-18T14:17:16Z</time>
      </trkpt>
      <trkpt lat="44.45225" lon="7.10547">
        <ele>1320.6</ele>
        <time>2022-07-18T14:17:17Z</time>
      </trkpt>
      <trkpt lat="44.45223" lon="7.10552">
        <ele>1320.6</ele>
        <time>2022-07-18T14:17:18Z</time>
      </trkpt>
      <trkpt lat="44.45223" lon="7.10559">
        <ele>1320.6</ele>
        <time>2022-07-18T14:17:19Z</time>
      </trkpt>
      <trkpt lat="44.45223" lon="7.10566">
        <ele>1320.6</ele>
        <time>2022-07-18T14:17:20Z</time>
      </trkpt>
      <trkpt lat="44.45223" lon="7.10572">
        <ele>1320.6</ele>
        <time>2022-07-18T14:17:21Z</time>
      </trkpt>
      <trkpt lat="44.45222" lon="7.10578">
        <ele>1320.6</ele>
        <time>2022-07-18T14:17:22Z</time>
      </trkpt>
      <trkpt lat="44.45221" lon="7.10583">
        <ele>1320.6</ele>
        <time>2022-07-18T14:17:23Z</time>
      </trkpt>
      <trkpt lat="44.45221" lon="7.10588">
        <ele>1320.6</ele>
        <time>2022-07-18T14:17:24Z</time>
      </trkpt>
      <trkpt lat="44.4522" lon="7.10594">
        <ele>1320.6</ele>
        <time>2022-07-18T14:17:25Z</time>
      </trkpt>
      <trkpt lat="44.45219" lon="7.10599">
        <ele>1320.6</ele>
        <time>2022-07-18T14:17:26Z</time>
      </trkpt>
      <trkpt lat="44.45218" lon="7.10605">
        <ele>1320.8</ele>
        <time>2022-07-18T14:17:27Z</time>
      </trkpt>
      <trkpt lat="44.45217" lon="7.1061">
        <ele>1320.8</ele>
        <time>2022-07-18T14:17:28Z</time>
      </trkpt>
      <trkpt lat="44.45215" lon="7.10615">
        <ele>1320.8</ele>
        <time>2022-07-18T14:17:29Z</time>
      </trkpt>
      <trkpt lat="44.45214" lon="7.1062">
        <ele>1320.8</ele>
        <time>2022-07-18T14:17:30Z</time>
      </trkpt>
      <trkpt lat="44.45213" lon="7.10625">
        <ele>1320.8</ele>
        <time>2022-07-18T14:17:31Z</time>
      </trkpt>
      <trkpt lat="44.4521" lon="7.10629">
        <ele>1320.8</ele>
        <time>2022-07-18T14:17:32Z</time>
      </trkpt>
      <trkpt lat="44.45206" lon="7.10632">
        <ele>1320.8</ele>
        <time>2022-07-18T14:17:33Z</time>
      </trkpt>
      <trkpt lat="44.45202" lon="7.10634">
        <ele>1320.8</ele>
        <time>2022-07-18T14:17:34Z</time>
      </trkpt>
      <trkpt lat="44.45197" lon="7.10635">
        <ele>1321</ele>
        <time>2022-07-18T14:17:35Z</time>
      </trkpt>
      <trkpt lat="44.45193" lon="7.10634">
        <ele>1321</ele>
        <time>2022-07-18T14:17:36Z</time>
      </trkpt>
      <trkpt lat="44.45189" lon="7.1063">
        <ele>1321</ele>
        <time>2022-07-18T14:17:37Z</time>
      </trkpt>
      <trkpt lat="44.45187" lon="7.10625">
        <ele>1321.2</ele>
        <time>2022-07-18T14:17:38Z</time>
      </trkpt>
      <trkpt lat="44.45185" lon="7.1062">
        <ele>1321.2</ele>
        <time>2022-07-18T14:17:39Z</time>
      </trkpt>
      <trkpt lat="44.45183" lon="7.10616">
        <ele>1321.6</ele>
        <time>2022-07-18T14:17:40Z</time>
      </trkpt>
      <trkpt lat="44.4518" lon="7.10612">
        <ele>1321.6</ele>
        <time>2022-07-18T14:17:41Z</time>
      </trkpt>
      <trkpt lat="44.45178" lon="7.10608">
        <ele>1321.8</ele>
        <time>2022-07-18T14:17:42Z</time>
      </trkpt>
      <trkpt lat="44.45176" lon="7.10604">
        <ele>1321.8</ele>
        <time>2022-07-18T14:17:43Z</time>
      </trkpt>
      <trkpt lat="44.45174" lon="7.106">
        <ele>1322</ele>
        <time>2022-07-18T14:17:44Z</time>
      </trkpt>
      <trkpt lat="44.45172" lon="7.10595">
        <ele>1322</ele>
        <time>2022-07-18T14:17:45Z</time>
      </trkpt>
      <trkpt lat="44.4517" lon="7.1059">
        <ele>1322.2</ele>
        <time>2022-07-18T14:17:46Z</time>
      </trkpt>
      <trkpt lat="44.45168" lon="7.10585">
        <ele>1322.6</ele>
        <time>2022-07-18T14:17:47Z</time>
      </trkpt>
      <trkpt lat="44.45167" lon="7.1058">
        <ele>1322.6</ele>
        <time>2022-07-18T14:17:48Z</time>
      </trkpt>
      <trkpt lat="44.45166" lon="7.10576">
        <ele>1322.8</ele>
        <time>2022-07-18T14:17:49Z</time>
      </trkpt>
      <trkpt lat="44.45165" lon="7.10572">
        <ele>1322.8</ele>
        <time>2022-07-18T14:17:50Z</time>
      </trkpt>
      <trkpt lat="44.45163" lon="7.10568">
        <ele>1323.2</ele>
        <time>2022-07-18T14:17:51Z</time>
      </trkpt>
      <trkpt lat="44.45162" lon="7.10565">
        <ele>1323.2</ele>
        <time>2022-07-18T14:17:52Z</time>
      </trkpt>
      <trkpt lat="44.45161" lon="7.10561">
        <ele>1323.4</ele>
        <time>2022-07-18T14:17:53Z</time>
      </trkpt>
      <trkpt lat="44.4516" lon="7.10558">
        <ele>1323.4</ele>
        <time>2022-07-18T14:17:54Z</time>
      </trkpt>
      <trkpt lat="44.45159" lon="7.10555">
        <ele>1323.8</ele>
        <time>2022-07-18T14:17:55Z</time>
      </trkpt>
      <trkpt lat="44.45159" lon="7.10553">
        <ele>1323.8</ele>
        <time>2022-07-18T14:17:56Z</time>
      </trkpt>
      <trkpt lat="44.45158" lon="7.1055">
        <ele>1324</ele>
        <time>2022-07-18T14:17:57Z</time>
      </trkpt>
      <trkpt lat="44.45157" lon="7.10547">
        <ele>1324</ele>
        <time>2022-07-18T14:17:58Z</time>
      </trkpt>
      <trkpt lat="44.45156" lon="7.10544">
        <ele>1324.4</ele>
        <time>2022-07-18T14:17:59Z</time>
      </trkpt>
      <trkpt lat="44.45156" lon="7.10542">
        <ele>1324.4</ele>
        <time>2022-07-18T14:18:00Z</time>
      </trkpt>
      <trkpt lat="44.45155" lon="7.10539">
        <ele>1324.6</ele>
        <time>2022-07-18T14:18:01Z</time>
      </trkpt>
      <trkpt lat="44.45154" lon="7.10536">
        <ele>1324.6</ele>
        <time>2022-07-18T14:18:02Z</time>
      </trkpt>
      <trkpt lat="44.45154" lon="7.10534">
        <ele>1324.8</ele>
        <time>2022-07-18T14:18:03Z</time>
      </trkpt>
      <trkpt lat="44.45153" lon="7.10532">
        <ele>1324.8</ele>
        <time>2022-07-18T14:18:04Z</time>
      </trkpt>
      <trkpt lat="44.45153" lon="7.10528">
        <ele>1325.2</ele>
        <time>2022-07-18T14:18:05Z</time>
      </trkpt>
      <trkpt lat="44.45152" lon="7.10524">
        <ele>1325.2</ele>
        <time>2022-07-18T14:18:06Z</time>
      </trkpt>
      <trkpt lat="44.45152" lon="7.1052">
        <ele>1325.4</ele>
        <time>2022-07-18T14:18:07Z</time>
      </trkpt>
      <trkpt lat="44.45152" lon="7.10517">
        <ele>1325.4</ele>
        <time>2022-07-18T14:18:08Z</time>
      </trkpt>
      <trkpt lat="44.45151" lon="7.10513">
        <ele>1325.6</ele>
        <time>2022-07-18T14:18:09Z</time>
      </trkpt>
      <trkpt lat="44.45151" lon="7.1051">
        <ele>1325.6</ele>
        <time>2022-07-18T14:18:10Z</time>
      </trkpt>
      <trkpt lat="44.4515" lon="7.10507">
        <ele>1326</ele>
        <time>2022-07-18T14:18:11Z</time>
      </trkpt>
      <trkpt lat="44.4515" lon="7.10503">
        <ele>1326</ele>
        <time>2022-07-18T14:18:12Z</time>
      </trkpt>
      <trkpt lat="44.45149" lon="7.10499">
        <ele>1326.4</ele>
        <time>2022-07-18T14:18:13Z</time>
      </trkpt>
      <trkpt lat="44.45149" lon="7.10495">
        <ele>1326.4</ele>
        <time>2022-07-18T14:18:14Z</time>
      </trkpt>
      <trkpt lat="44.45148" lon="7.10491">
        <ele>1326.6</ele>
        <time>2022-07-18T14:18:15Z</time>
      </trkpt>
      <trkpt lat="44.45148" lon="7.10488">
        <ele>1326.6</ele>
        <time>2022-07-18T14:18:16Z</time>
      </trkpt>
      <trkpt lat="44.45148" lon="7.10484">
        <ele>1326.6</ele>
        <time>2022-07-18T14:18:17Z</time>
      </trkpt>
      <trkpt lat="44.45148" lon="7.1048">
        <ele>1326.8</ele>
        <time>2022-07-18T14:18:18Z</time>
      </trkpt>
      <trkpt lat="44.45148" lon="7.10475">
        <ele>1326.8</ele>
        <time>2022-07-18T14:18:19Z</time>
      </trkpt>
      <trkpt lat="44.45147" lon="7.10471">
        <ele>1327</ele>
        <time>2022-07-18T14:18:20Z</time>
      </trkpt>
      <trkpt lat="44.45147" lon="7.10467">
        <ele>1327</ele>
        <time>2022-07-18T14:18:21Z</time>
      </trkpt>
      <trkpt lat="44.45147" lon="7.10464">
        <ele>1327.4</ele>
        <time>2022-07-18T14:18:22Z</time>
      </trkpt>
      <trkpt lat="44.45146" lon="7.1046">
        <ele>1327.4</ele>
        <time>2022-07-18T14:18:23Z</time>
      </trkpt>
      <trkpt lat="44.45146" lon="7.10456">
        <ele>1327.4</ele>
        <time>2022-07-18T14:18:24Z</time>
      </trkpt>
      <trkpt lat="44.45145" lon="7.10452">
        <ele>1327.6</ele>
        <time>2022-07-18T14:18:25Z</time>
      </trkpt>
      <trkpt lat="44.45145" lon="7.10448">
        <ele>1327.6</ele>
        <time>2022-07-18T14:18:26Z</time>
      </trkpt>
      <trkpt lat="44.45144" lon="7.10444">
        <ele>1327.8</ele>
        <time>2022-07-18T14:18:27Z</time>
      </trkpt>
      <trkpt lat="44.45144" lon="7.1044">
        <ele>1327.8</ele>
        <time>2022-07-18T14:18:28Z</time>
      </trkpt>
      <trkpt lat="44.45144" lon="7.10436">
        <ele>1328.2</ele>
        <time>2022-07-18T14:18:29Z</time>
      </trkpt>
      <trkpt lat="44.45144" lon="7.10432">
        <ele>1328.2</ele>
        <time>2022-07-18T14:18:30Z</time>
      </trkpt>
      <trkpt lat="44.45144" lon="7.10428">
        <ele>1328.6</ele>
        <time>2022-07-18T14:18:31Z</time>
      </trkpt>
      <trkpt lat="44.45144" lon="7.10425">
        <ele>1328.6</ele>
        <time>2022-07-18T14:18:32Z</time>
      </trkpt>
      <trkpt lat="44.45144" lon="7.10422">
        <ele>1328.8</ele>
        <time>2022-07-18T14:18:33Z</time>
      </trkpt>
      <trkpt lat="44.45144" lon="7.10418">
        <ele>1328.8</ele>
        <time>2022-07-18T14:18:34Z</time>
      </trkpt>
      <trkpt lat="44.45144" lon="7.10414">
        <ele>1329</ele>
        <time>2022-07-18T14:18:35Z</time>
      </trkpt>
      <trkpt lat="44.45143" lon="7.1041">
        <ele>1329.4</ele>
        <time>2022-07-18T14:18:36Z</time>
      </trkpt>
      <trkpt lat="44.45143" lon="7.10407">
        <ele>1329.6</ele>
        <time>2022-07-18T14:18:37Z</time>
      </trkpt>
      <trkpt lat="44.45143" lon="7.10403">
        <ele>1329.6</ele>
        <time>2022-07-18T14:18:38Z</time>
      </trkpt>
      <trkpt lat="44.45143" lon="7.104">
        <ele>1329.8</ele>
        <time>2022-07-18T14:18:39Z</time>
      </trkpt>
      <trkpt lat="44.45142" lon="7.10396">
        <ele>1329.8</ele>
        <time>2022-07-18T14:18:40Z</time>
      </trkpt>
      <trkpt lat="44.45141" lon="7.10392">
        <ele>1330</ele>
        <time>2022-07-18T14:18:41Z</time>
      </trkpt>
      <trkpt lat="44.4514" lon="7.10388">
        <ele>1330</ele>
        <time>2022-07-18T14:18:42Z</time>
      </trkpt>
      <trkpt lat="44.4514" lon="7.10384">
        <ele>1330.4</ele>
        <time>2022-07-18T14:18:43Z</time>
      </trkpt>
      <trkpt lat="44.45139" lon="7.1038">
        <ele>1330.4</ele>
        <time>2022-07-18T14:18:44Z</time>
      </trkpt>
      <trkpt lat="44.4514" lon="7.10376">
        <ele>1330.4</ele>
        <time>2022-07-18T14:18:45Z</time>
      </trkpt>
      <trkpt lat="44.4514" lon="7.10372">
        <ele>1330.8</ele>
        <time>2022-07-18T14:18:46Z</time>
      </trkpt>
      <trkpt lat="44.4514" lon="7.10368">
        <ele>1330.8</ele>
        <time>2022-07-18T14:18:47Z</time>
      </trkpt>
      <trkpt lat="44.4514" lon="7.10364">
        <ele>1331</ele>
        <time>2022-07-18T14:18:48Z</time>
      </trkpt>
      <trkpt lat="44.45141" lon="7.1036">
        <ele>1331</ele>
        <time>2022-07-18T14:18:49Z</time>
      </trkpt>
      <trkpt lat="44.45142" lon="7.10356">
        <ele>1331</ele>
        <time>2022-07-18T14:18:50Z</time>
      </trkpt>
      <trkpt lat="44.45143" lon="7.10352">
        <ele>1331.2</ele>
        <time>2022-07-18T14:18:51Z</time>
      </trkpt>
      <trkpt lat="44.45144" lon="7.10348">
        <ele>1331.2</ele>
        <time>2022-07-18T14:18:52Z</time>
      </trkpt>
      <trkpt lat="44.45144" lon="7.10344">
        <ele>1331.6</ele>
        <time>2022-07-18T14:18:53Z</time>
      </trkpt>
      <trkpt lat="44.45145" lon="7.1034">
        <ele>1331.6</ele>
        <time>2022-07-18T14:18:54Z</time>
      </trkpt>
      <trkpt lat="44.45146" lon="7.10337">
        <ele>1331.8</ele>
        <time>2022-07-18T14:18:55Z</time>
      </trkpt>
      <trkpt lat="44.45146" lon="7.10334">
        <ele>1332</ele>
        <time>2022-07-18T14:18:56Z</time>
      </trkpt>
      <trkpt lat="44.45147" lon="7.10331">
        <ele>1332</ele>
        <time>2022-07-18T14:18:57Z</time>
      </trkpt>
      <trkpt lat="44.45147" lon="7.10328">
        <ele>1332.4</ele>
        <time>2022-07-18T14:18:58Z</time>
      </trkpt>
      <trkpt lat="44.45148" lon="7.10325">
        <ele>1332.4</ele>
        <time>2022-07-18T14:18:59Z</time>
      </trkpt>
      <trkpt lat="44.45148" lon="7.10322">
        <ele>1332.6</ele>
        <time>2022-07-18T14:19:00Z</time>
      </trkpt>
      <trkpt lat="44.45149" lon="7.10319">
        <ele>1332.6</ele>
        <time>2022-07-18T14:19:01Z</time>
      </trkpt>
      <trkpt lat="44.45149" lon="7.10316">
        <ele>1332.6</ele>
        <time>2022-07-18T14:19:02Z</time>
      </trkpt>
      <trkpt lat="44.4515" lon="7.10312">
        <ele>1333</ele>
        <time>2022-07-18T14:19:03Z</time>
      </trkpt>
      <trkpt lat="44.45151" lon="7.10309">
        <ele>1333</ele>
        <time>2022-07-18T14:19:04Z</time>
      </trkpt>
      <trkpt lat="44.45151" lon="7.10305">
        <ele>1333.4</ele>
        <time>2022-07-18T14:19:05Z</time>
      </trkpt>
      <trkpt lat="44.45152" lon="7.10302">
        <ele>1333.6</ele>
        <time>2022-07-18T14:19:06Z</time>
      </trkpt>
      <trkpt lat="44.45153" lon="7.10299">
        <ele>1333.6</ele>
        <time>2022-07-18T14:19:07Z</time>
      </trkpt>
      <trkpt lat="44.45154" lon="7.10295">
        <ele>1333.6</ele>
        <time>2022-07-18T14:19:08Z</time>
      </trkpt>
      <trkpt lat="44.45154" lon="7.10292">
        <ele>1333.8</ele>
        <time>2022-07-18T14:19:09Z</time>
      </trkpt>
      <trkpt lat="44.45155" lon="7.10289">
        <ele>1333.8</ele>
        <time>2022-07-18T14:19:10Z</time>
      </trkpt>
      <trkpt lat="44.45155" lon="7.10285">
        <ele>1334</ele>
        <time>2022-07-18T14:19:11Z</time>
      </trkpt>
      <trkpt lat="44.45155" lon="7.10282">
        <ele>1334</ele>
        <time>2022-07-18T14:19:12Z</time>
      </trkpt>
      <trkpt lat="44.45155" lon="7.10278">
        <ele>1334.4</ele>
        <time>2022-07-18T14:19:13Z</time>
      </trkpt>
      <trkpt lat="44.45155" lon="7.10275">
        <ele>1334.4</ele>
        <time>2022-07-18T14:19:14Z</time>
      </trkpt>
      <trkpt lat="44.45155" lon="7.10272">
        <ele>1334.6</ele>
        <time>2022-07-18T14:19:15Z</time>
      </trkpt>
      <trkpt lat="44.45155" lon="7.10268">
        <ele>1334.6</ele>
        <time>2022-07-18T14:19:16Z</time>
      </trkpt>
      <trkpt lat="44.45154" lon="7.10265">
        <ele>1334.8</ele>
        <time>2022-07-18T14:19:17Z</time>
      </trkpt>
      <trkpt lat="44.45153" lon="7.10262">
        <ele>1334.8</ele>
        <time>2022-07-18T14:19:18Z</time>
      </trkpt>
      <trkpt lat="44.45151" lon="7.10259">
        <ele>1335</ele>
        <time>2022-07-18T14:19:19Z</time>
      </trkpt>
      <trkpt lat="44.4515" lon="7.10256">
        <ele>1335</ele>
        <time>2022-07-18T14:19:20Z</time>
      </trkpt>
      <trkpt lat="44.45149" lon="7.10253">
        <ele>1335.2</ele>
        <time>2022-07-18T14:19:21Z</time>
      </trkpt>
      <trkpt lat="44.45147" lon="7.10251">
        <ele>1335.2</ele>
        <time>2022-07-18T14:19:22Z</time>
      </trkpt>
      <trkpt lat="44.45145" lon="7.10248">
        <ele>1335.6</ele>
        <time>2022-07-18T14:19:23Z</time>
      </trkpt>
      <trkpt lat="44.45143" lon="7.10246">
        <ele>1335.6</ele>
        <time>2022-07-18T14:19:24Z</time>
      </trkpt>
      <trkpt lat="44.45141" lon="7.10244">
        <ele>1335.8</ele>
        <time>2022-07-18T14:19:25Z</time>
      </trkpt>
      <trkpt lat="44.45138" lon="7.10243">
        <ele>1335.8</ele>
        <time>2022-07-18T14:19:26Z</time>
      </trkpt>
      <trkpt lat="44.45136" lon="7.10242">
        <ele>1336.2</ele>
        <time>2022-07-18T14:19:27Z</time>
      </trkpt>
      <trkpt lat="44.45133" lon="7.10241">
        <ele>1336.2</ele>
        <time>2022-07-18T14:19:28Z</time>
      </trkpt>
      <trkpt lat="44.45131" lon="7.10241">
        <ele>1336.6</ele>
        <time>2022-07-18T14:19:29Z</time>
      </trkpt>
      <trkpt lat="44.45128" lon="7.1024">
        <ele>1336.6</ele>
        <time>2022-07-18T14:19:30Z</time>
      </trkpt>
      <trkpt lat="44.45125" lon="7.1024">
        <ele>1336.8</ele>
        <time>2022-07-18T14:19:31Z</time>
      </trkpt>
      <trkpt lat="44.45122" lon="7.10241">
        <ele>1336.8</ele>
        <time>2022-07-18T14:19:32Z</time>
      </trkpt>
      <trkpt lat="44.4512" lon="7.10242">
        <ele>1336.8</ele>
        <time>2022-07-18T14:19:33Z</time>
      </trkpt>
      <trkpt lat="44.45118" lon="7.10243">
        <ele>1336.8</ele>
        <time>2022-07-18T14:19:34Z</time>
      </trkpt>
      <trkpt lat="44.45115" lon="7.10243">
        <ele>1337</ele>
        <time>2022-07-18T14:19:35Z</time>
      </trkpt>
      <trkpt lat="44.45112" lon="7.10244">
        <ele>1337</ele>
        <time>2022-07-18T14:19:36Z</time>
      </trkpt>
      <trkpt lat="44.45109" lon="7.10245">
        <ele>1337.4</ele>
        <time>2022-07-18T14:19:37Z</time>
      </trkpt>
      <trkpt lat="44.45106" lon="7.10245">
        <ele>1337.4</ele>
        <time>2022-07-18T14:19:38Z</time>
      </trkpt>
      <trkpt lat="44.45104" lon="7.10246">
        <ele>1337.6</ele>
        <time>2022-07-18T14:19:39Z</time>
      </trkpt>
      <trkpt lat="44.45101" lon="7.10246">
        <ele>1337.6</ele>
        <time>2022-07-18T14:19:40Z</time>
      </trkpt>
      <trkpt lat="44.45099" lon="7.10247">
        <ele>1337.8</ele>
        <time>2022-07-18T14:19:41Z</time>
      </trkpt>
      <trkpt lat="44.45096" lon="7.10247">
        <ele>1337.8</ele>
        <time>2022-07-18T14:19:42Z</time>
      </trkpt>
      <trkpt lat="44.45094" lon="7.10248">
        <ele>1338.2</ele>
        <time>2022-07-18T14:19:43Z</time>
      </trkpt>
      <trkpt lat="44.45091" lon="7.10248">
        <ele>1338.2</ele>
        <time>2022-07-18T14:19:44Z</time>
      </trkpt>
      <trkpt lat="44.45089" lon="7.10249">
        <ele>1338.2</ele>
        <time>2022-07-18T14:19:45Z</time>
      </trkpt>
      <trkpt lat="44.45086" lon="7.10249">
        <ele>1338.2</ele>
        <time>2022-07-18T14:19:46Z</time>
      </trkpt>
      <trkpt lat="44.45084" lon="7.1025">
        <ele>1338.2</ele>
        <time>2022-07-18T14:19:47Z</time>
      </trkpt>
      <trkpt lat="44.45081" lon="7.10252">
        <ele>1338.2</ele>
        <time>2022-07-18T14:19:48Z</time>
      </trkpt>
      <trkpt lat="44.45078" lon="7.10253">
        <ele>1338.4</ele>
        <time>2022-07-18T14:19:49Z</time>
      </trkpt>
      <trkpt lat="44.45076" lon="7.10254">
        <ele>1338.4</ele>
        <time>2022-07-18T14:19:50Z</time>
      </trkpt>
      <trkpt lat="44.45073" lon="7.10256">
        <ele>1338.6</ele>
        <time>2022-07-18T14:19:51Z</time>
      </trkpt>
      <trkpt lat="44.45071" lon="7.10257">
        <ele>1338.6</ele>
        <time>2022-07-18T14:19:52Z</time>
      </trkpt>
      <trkpt lat="44.45068" lon="7.10259">
        <ele>1339</ele>
        <time>2022-07-18T14:19:53Z</time>
      </trkpt>
      <trkpt lat="44.45066" lon="7.10261">
        <ele>1339</ele>
        <time>2022-07-18T14:19:54Z</time>
      </trkpt>
      <trkpt lat="44.45064" lon="7.10263">
        <ele>1339.2</ele>
        <time>2022-07-18T14:19:55Z</time>
      </trkpt>
      <trkpt lat="44.45062" lon="7.10265">
        <ele>1339.2</ele>
        <time>2022-07-18T14:19:56Z</time>
      </trkpt>
      <trkpt lat="44.4506" lon="7.10268">
        <ele>1339.6</ele>
        <time>2022-07-18T14:19:57Z</time>
      </trkpt>
      <trkpt lat="44.45058" lon="7.1027">
        <ele>1339.6</ele>
        <time>2022-07-18T14:19:58Z</time>
      </trkpt>
      <trkpt lat="44.45056" lon="7.10272">
        <ele>1339.8</ele>
        <time>2022-07-18T14:19:59Z</time>
      </trkpt>
      <trkpt lat="44.45053" lon="7.10273">
        <ele>1340</ele>
        <time>2022-07-18T14:20:00Z</time>
      </trkpt>
      <trkpt lat="44.45051" lon="7.10275">
        <ele>1340</ele>
        <time>2022-07-18T14:20:01Z</time>
      </trkpt>
      <trkpt lat="44.45049" lon="7.10277">
        <ele>1340.4</ele>
        <time>2022-07-18T14:20:02Z</time>
      </trkpt>
      <trkpt lat="44.45047" lon="7.10279">
        <ele>1340.4</ele>
        <time>2022-07-18T14:20:03Z</time>
      </trkpt>
      <trkpt lat="44.45046" lon="7.10281">
        <ele>1340.6</ele>
        <time>2022-07-18T14:20:04Z</time>
      </trkpt>
      <trkpt lat="44.45044" lon="7.10283">
        <ele>1340.8</ele>
        <time>2022-07-18T14:20:05Z</time>
      </trkpt>
      <trkpt lat="44.45042" lon="7.10284">
        <ele>1341</ele>
        <time>2022-07-18T14:20:06Z</time>
      </trkpt>
      <trkpt lat="44.4504" lon="7.10286">
        <ele>1341</ele>
        <time>2022-07-18T14:20:07Z</time>
      </trkpt>
      <trkpt lat="44.45038" lon="7.10287">
        <ele>1341.4</ele>
        <time>2022-07-18T14:20:08Z</time>
      </trkpt>
      <trkpt lat="44.45036" lon="7.10289">
        <ele>1341.4</ele>
        <time>2022-07-18T14:20:09Z</time>
      </trkpt>
      <trkpt lat="44.45034" lon="7.1029">
        <ele>1341.8</ele>
        <time>2022-07-18T14:20:10Z</time>
      </trkpt>
      <trkpt lat="44.45032" lon="7.10292">
        <ele>1341.8</ele>
        <time>2022-07-18T14:20:11Z</time>
      </trkpt>
      <trkpt lat="44.45031" lon="7.10294">
        <ele>1342</ele>
        <time>2022-07-18T14:20:12Z</time>
      </trkpt>
      <trkpt lat="44.45029" lon="7.10295">
        <ele>1342</ele>
        <time>2022-07-18T14:20:13Z</time>
      </trkpt>
      <trkpt lat="44.45027" lon="7.10297">
        <ele>1342.4</ele>
        <time>2022-07-18T14:20:14Z</time>
      </trkpt>
      <trkpt lat="44.45026" lon="7.10298">
        <ele>1342.4</ele>
        <time>2022-07-18T14:20:15Z</time>
      </trkpt>
      <trkpt lat="44.45024" lon="7.103">
        <ele>1342.6</ele>
        <time>2022-07-18T14:20:16Z</time>
      </trkpt>
      <trkpt lat="44.45022" lon="7.10302">
        <ele>1342.6</ele>
        <time>2022-07-18T14:20:17Z</time>
      </trkpt>
      <trkpt lat="44.4502" lon="7.10304">
        <ele>1343</ele>
        <time>2022-07-18T14:20:18Z</time>
      </trkpt>
      <trkpt lat="44.45018" lon="7.10305">
        <ele>1343</ele>
        <time>2022-07-18T14:20:19Z</time>
      </trkpt>
      <trkpt lat="44.45017" lon="7.10307">
        <ele>1343.4</ele>
        <time>2022-07-18T14:20:20Z</time>
      </trkpt>
      <trkpt lat="44.45015" lon="7.10308">
        <ele>1343.4</ele>
        <time>2022-07-18T14:20:21Z</time>
      </trkpt>
      <trkpt lat="44.45013" lon="7.1031">
        <ele>1343.8</ele>
        <time>2022-07-18T14:20:22Z</time>
      </trkpt>
      <trkpt lat="44.45011" lon="7.10311">
        <ele>1343.8</ele>
        <time>2022-07-18T14:20:23Z</time>
      </trkpt>
      <trkpt lat="44.45009" lon="7.10312">
        <ele>1344</ele>
        <time>2022-07-18T14:20:24Z</time>
      </trkpt>
      <trkpt lat="44.45007" lon="7.10313">
        <ele>1344.2</ele>
        <time>2022-07-18T14:20:25Z</time>
      </trkpt>
      <trkpt lat="44.45005" lon="7.10315">
        <ele>1344.2</ele>
        <time>2022-07-18T14:20:26Z</time>
      </trkpt>
      <trkpt lat="44.45004" lon="7.10317">
        <ele>1344.6</ele>
        <time>2022-07-18T14:20:27Z</time>
      </trkpt>
      <trkpt lat="44.45002" lon="7.10319">
        <ele>1344.8</ele>
        <time>2022-07-18T14:20:28Z</time>
      </trkpt>
      <trkpt lat="44.45" lon="7.10321">
        <ele>1344.8</ele>
        <time>2022-07-18T14:20:29Z</time>
      </trkpt>
      <trkpt lat="44.44999" lon="7.10324">
        <ele>1345.2</ele>
        <time>2022-07-18T14:20:30Z</time>
      </trkpt>
      <trkpt lat="44.44997" lon="7.10325">
        <ele>1345.2</ele>
        <time>2022-07-18T14:20:31Z</time>
      </trkpt>
      <trkpt lat="44.44996" lon="7.10326">
        <ele>1345.6</ele>
        <time>2022-07-18T14:20:32Z</time>
      </trkpt>
      <trkpt lat="44.44994" lon="7.10328">
        <ele>1345.6</ele>
        <time>2022-07-18T14:20:33Z</time>
      </trkpt>
      <trkpt lat="44.44993" lon="7.1033">
        <ele>1346</ele>
        <time>2022-07-18T14:20:34Z</time>
      </trkpt>
      <trkpt lat="44.44991" lon="7.10332">
        <ele>1346</ele>
        <time>2022-07-18T14:20:35Z</time>
      </trkpt>
      <trkpt lat="44.4499" lon="7.10334">
        <ele>1346.2</ele>
        <time>2022-07-18T14:20:36Z</time>
      </trkpt>
      <trkpt lat="44.44988" lon="7.10336">
        <ele>1346.2</ele>
        <time>2022-07-18T14:20:37Z</time>
      </trkpt>
      <trkpt lat="44.44986" lon="7.10338">
        <ele>1346.4</ele>
        <time>2022-07-18T14:20:38Z</time>
      </trkpt>
      <trkpt lat="44.44985" lon="7.1034">
        <ele>1346.4</ele>
        <time>2022-07-18T14:20:39Z</time>
      </trkpt>
      <trkpt lat="44.44983" lon="7.10341">
        <ele>1346.8</ele>
        <time>2022-07-18T14:20:40Z</time>
      </trkpt>
      <trkpt lat="44.44982" lon="7.10343">
        <ele>1346.8</ele>
        <time>2022-07-18T14:20:41Z</time>
      </trkpt>
      <trkpt lat="44.4498" lon="7.10344">
        <ele>1347.2</ele>
        <time>2022-07-18T14:20:42Z</time>
      </trkpt>
      <trkpt lat="44.44979" lon="7.10346">
        <ele>1347.2</ele>
        <time>2022-07-18T14:20:43Z</time>
      </trkpt>
      <trkpt lat="44.44977" lon="7.10347">
        <ele>1347.4</ele>
        <time>2022-07-18T14:20:44Z</time>
      </trkpt>
      <trkpt lat="44.44975" lon="7.10348">
        <ele>1347.4</ele>
        <time>2022-07-18T14:20:45Z</time>
      </trkpt>
      <trkpt lat="44.44974" lon="7.1035">
        <ele>1347.6</ele>
        <time>2022-07-18T14:20:46Z</time>
      </trkpt>
      <trkpt lat="44.44972" lon="7.10352">
        <ele>1347.6</ele>
        <time>2022-07-18T14:20:47Z</time>
      </trkpt>
      <trkpt lat="44.44971" lon="7.10353">
        <ele>1348</ele>
        <time>2022-07-18T14:20:48Z</time>
      </trkpt>
      <trkpt lat="44.44969" lon="7.10355">
        <ele>1348.2</ele>
        <time>2022-07-18T14:20:49Z</time>
      </trkpt>
      <trkpt lat="44.44968" lon="7.10357">
        <ele>1348.2</ele>
        <time>2022-07-18T14:20:50Z</time>
      </trkpt>
      <trkpt lat="44.44966" lon="7.10358">
        <ele>1348.6</ele>
        <time>2022-07-18T14:20:51Z</time>
      </trkpt>
      <trkpt lat="44.44965" lon="7.1036">
        <ele>1348.6</ele>
        <time>2022-07-18T14:20:52Z</time>
      </trkpt>
      <trkpt lat="44.44963" lon="7.10362">
        <ele>1348.8</ele>
        <time>2022-07-18T14:20:53Z</time>
      </trkpt>
      <trkpt lat="44.44961" lon="7.10363">
        <ele>1348.8</ele>
        <time>2022-07-18T14:20:54Z</time>
      </trkpt>
      <trkpt lat="44.4496" lon="7.10364">
        <ele>1349.2</ele>
        <time>2022-07-18T14:20:55Z</time>
      </trkpt>
      <trkpt lat="44.44958" lon="7.10366">
        <ele>1349.4</ele>
        <time>2022-07-18T14:20:56Z</time>
      </trkpt>
      <trkpt lat="44.44956" lon="7.10368">
        <ele>1349.4</ele>
        <time>2022-07-18T14:20:57Z</time>
      </trkpt>
      <trkpt lat="44.44955" lon="7.1037">
        <ele>1349.8</ele>
        <time>2022-07-18T14:20:58Z</time>
      </trkpt>
      <trkpt lat="44.44953" lon="7.10372">
        <ele>1349.8</ele>
        <time>2022-07-18T14:20:59Z</time>
      </trkpt>
      <trkpt lat="44.44951" lon="7.10374">
        <ele>1350</ele>
        <time>2022-07-18T14:21:00Z</time>
      </trkpt>
      <trkpt lat="44.4495" lon="7.10376">
        <ele>1350</ele>
        <time>2022-07-18T14:21:01Z</time>
      </trkpt>
      <trkpt lat="44.44948" lon="7.10377">
        <ele>1350.4</ele>
        <time>2022-07-18T14:21:02Z</time>
      </trkpt>
      <trkpt lat="44.44946" lon="7.10379">
        <ele>1350.4</ele>
        <time>2022-07-18T14:21:03Z</time>
      </trkpt>
      <trkpt lat="44.44944" lon="7.1038">
        <ele>1350.6</ele>
        <time>2022-07-18T14:21:04Z</time>
      </trkpt>
      <trkpt lat="44.44942" lon="7.10381">
        <ele>1350.6</ele>
        <time>2022-07-18T14:21:05Z</time>
      </trkpt>
      <trkpt lat="44.44941" lon="7.10383">
        <ele>1351</ele>
        <time>2022-07-18T14:21:06Z</time>
      </trkpt>
      <trkpt lat="44.44939" lon="7.10384">
        <ele>1351</ele>
        <time>2022-07-18T14:21:07Z</time>
      </trkpt>
      <trkpt lat="44.44937" lon="7.10386">
        <ele>1351.4</ele>
        <time>2022-07-18T14:21:08Z</time>
      </trkpt>
      <trkpt lat="44.44935" lon="7.10388">
        <ele>1351.4</ele>
        <time>2022-07-18T14:21:09Z</time>
      </trkpt>
      <trkpt lat="44.44933" lon="7.10389">
        <ele>1351.8</ele>
        <time>2022-07-18T14:21:10Z</time>
      </trkpt>
      <trkpt lat="44.44931" lon="7.10391">
        <ele>1351.8</ele>
        <time>2022-07-18T14:21:11Z</time>
      </trkpt>
      <trkpt lat="44.44929" lon="7.10392">
        <ele>1352</ele>
        <time>2022-07-18T14:21:12Z</time>
      </trkpt>
      <trkpt lat="44.44927" lon="7.10393">
        <ele>1352</ele>
        <time>2022-07-18T14:21:13Z</time>
      </trkpt>
      <trkpt lat="44.44925" lon="7.10395">
        <ele>1352.2</ele>
        <time>2022-07-18T14:21:14Z</time>
      </trkpt>
      <trkpt lat="44.44924" lon="7.10396">
        <ele>1352.2</ele>
        <time>2022-07-18T14:21:15Z</time>
      </trkpt>
      <trkpt lat="44.44922" lon="7.10397">
        <ele>1352.6</ele>
        <time>2022-07-18T14:21:16Z</time>
      </trkpt>
      <trkpt lat="44.4492" lon="7.10399">
        <ele>1352.6</ele>
        <time>2022-07-18T14:21:17Z</time>
      </trkpt>
      <trkpt lat="44.44918" lon="7.104">
        <ele>1352.8</ele>
        <time>2022-07-18T14:21:18Z</time>
      </trkpt>
      <trkpt lat="44.44916" lon="7.10401">
        <ele>1353</ele>
        <time>2022-07-18T14:21:19Z</time>
      </trkpt>
      <trkpt lat="44.44914" lon="7.10402">
        <ele>1353.2</ele>
        <time>2022-07-18T14:21:20Z</time>
      </trkpt>
      <trkpt lat="44.44913" lon="7.10404">
        <ele>1353.6</ele>
        <time>2022-07-18T14:21:21Z</time>
      </trkpt>
      <trkpt lat="44.44911" lon="7.10405">
        <ele>1353.6</ele>
        <time>2022-07-18T14:21:22Z</time>
      </trkpt>
      <trkpt lat="44.44909" lon="7.10407">
        <ele>1353.8</ele>
        <time>2022-07-18T14:21:23Z</time>
      </trkpt>
      <trkpt lat="44.44907" lon="7.10408">
        <ele>1353.8</ele>
        <time>2022-07-18T14:21:24Z</time>
      </trkpt>
      <trkpt lat="44.44905" lon="7.10409">
        <ele>1354</ele>
        <time>2022-07-18T14:21:25Z</time>
      </trkpt>
      <trkpt lat="44.44903" lon="7.1041">
        <ele>1354</ele>
        <time>2022-07-18T14:21:26Z</time>
      </trkpt>
      <trkpt lat="44.44901" lon="7.10412">
        <ele>1354</ele>
        <time>2022-07-18T14:21:27Z</time>
      </trkpt>
      <trkpt lat="44.44899" lon="7.10413">
        <ele>1354.4</ele>
        <time>2022-07-18T14:21:28Z</time>
      </trkpt>
      <trkpt lat="44.44897" lon="7.10414">
        <ele>1354.4</ele>
        <time>2022-07-18T14:21:29Z</time>
      </trkpt>
      <trkpt lat="44.44895" lon="7.10414">
        <ele>1354.6</ele>
        <time>2022-07-18T14:21:30Z</time>
      </trkpt>
      <trkpt lat="44.44893" lon="7.10415">
        <ele>1354.6</ele>
        <time>2022-07-18T14:21:31Z</time>
      </trkpt>
      <trkpt lat="44.4489" lon="7.10415">
        <ele>1354.8</ele>
        <time>2022-07-18T14:21:32Z</time>
      </trkpt>
      <trkpt lat="44.44888" lon="7.10416">
        <ele>1354.8</ele>
        <time>2022-07-18T14:21:33Z</time>
      </trkpt>
      <trkpt lat="44.44886" lon="7.10416">
        <ele>1355.2</ele>
        <time>2022-07-18T14:21:34Z</time>
      </trkpt>
      <trkpt lat="44.44884" lon="7.10416">
        <ele>1355.2</ele>
        <time>2022-07-18T14:21:35Z</time>
      </trkpt>
      <trkpt lat="44.44881" lon="7.10416">
        <ele>1355.6</ele>
        <time>2022-07-18T14:21:36Z</time>
      </trkpt>
      <trkpt lat="44.44879" lon="7.10416">
        <ele>1355.6</ele>
        <time>2022-07-18T14:21:37Z</time>
      </trkpt>
      <trkpt lat="44.44877" lon="7.10416">
        <ele>1355.8</ele>
        <time>2022-07-18T14:21:38Z</time>
      </trkpt>
      <trkpt lat="44.44874" lon="7.10416">
        <ele>1355.8</ele>
        <time>2022-07-18T14:21:39Z</time>
      </trkpt>
      <trkpt lat="44.44872" lon="7.10416">
        <ele>1356</ele>
        <time>2022-07-18T14:21:40Z</time>
      </trkpt>
      <trkpt lat="44.4487" lon="7.10416">
        <ele>1356</ele>
        <time>2022-07-18T14:21:41Z</time>
      </trkpt>
      <trkpt lat="44.44868" lon="7.10416">
        <ele>1356.4</ele>
        <time>2022-07-18T14:21:42Z</time>
      </trkpt>
      <trkpt lat="44.44866" lon="7.10417">
        <ele>1356.4</ele>
        <time>2022-07-18T14:21:43Z</time>
      </trkpt>
      <trkpt lat="44.44864" lon="7.10417">
        <ele>1356.6</ele>
        <time>2022-07-18T14:21:44Z</time>
      </trkpt>
      <trkpt lat="44.44862" lon="7.10418">
        <ele>1356.6</ele>
        <time>2022-07-18T14:21:45Z</time>
      </trkpt>
      <trkpt lat="44.44861" lon="7.1042">
        <ele>1356.8</ele>
        <time>2022-07-18T14:21:46Z</time>
      </trkpt>
      <trkpt lat="44.44859" lon="7.10423">
        <ele>1356.8</ele>
        <time>2022-07-18T14:21:47Z</time>
      </trkpt>
      <trkpt lat="44.44858" lon="7.10425">
        <ele>1357.2</ele>
        <time>2022-07-18T14:21:48Z</time>
      </trkpt>
      <trkpt lat="44.44857" lon="7.10428">
        <ele>1357.2</ele>
        <time>2022-07-18T14:21:49Z</time>
      </trkpt>
      <trkpt lat="44.44856" lon="7.10431">
        <ele>1357.4</ele>
        <time>2022-07-18T14:21:50Z</time>
      </trkpt>
      <trkpt lat="44.44856" lon="7.10433">
        <ele>1357.4</ele>
        <time>2022-07-18T14:21:51Z</time>
      </trkpt>
      <trkpt lat="44.44857" lon="7.10436">
        <ele>1357.8</ele>
        <time>2022-07-18T14:21:52Z</time>
      </trkpt>
      <trkpt lat="44.44857" lon="7.10438">
        <ele>1357.8</ele>
        <time>2022-07-18T14:21:53Z</time>
      </trkpt>
      <trkpt lat="44.44858" lon="7.1044">
        <ele>1358</ele>
        <time>2022-07-18T14:21:54Z</time>
      </trkpt>
      <trkpt lat="44.4486" lon="7.10442">
        <ele>1358</ele>
        <time>2022-07-18T14:21:55Z</time>
      </trkpt>
      <trkpt lat="44.44861" lon="7.10444">
        <ele>1358.4</ele>
        <time>2022-07-18T14:21:56Z</time>
      </trkpt>
      <trkpt lat="44.44863" lon="7.10446">
        <ele>1358.4</ele>
        <time>2022-07-18T14:21:57Z</time>
      </trkpt>
      <trkpt lat="44.44865" lon="7.10447">
        <ele>1358.6</ele>
        <time>2022-07-18T14:21:58Z</time>
      </trkpt>
      <trkpt lat="44.44868" lon="7.10447">
        <ele>1358.6</ele>
        <time>2022-07-18T14:21:59Z</time>
      </trkpt>
      <trkpt lat="44.4487" lon="7.10448">
        <ele>1359</ele>
        <time>2022-07-18T14:22:00Z</time>
      </trkpt>
      <trkpt lat="44.44872" lon="7.10447">
        <ele>1359</ele>
        <time>2022-07-18T14:22:01Z</time>
      </trkpt>
      <trkpt lat="44.44875" lon="7.10447">
        <ele>1359.2</ele>
        <time>2022-07-18T14:22:02Z</time>
      </trkpt>
      <trkpt lat="44.44877" lon="7.10446">
        <ele>1359.2</ele>
        <time>2022-07-18T14:22:03Z</time>
      </trkpt>
      <trkpt lat="44.4488" lon="7.10445">
        <ele>1359.4</ele>
        <time>2022-07-18T14:22:04Z</time>
      </trkpt>
      <trkpt lat="44.44883" lon="7.10445">
        <ele>1359.4</ele>
        <time>2022-07-18T14:22:05Z</time>
      </trkpt>
      <trkpt lat="44.44885" lon="7.10444">
        <ele>1359.8</ele>
        <time>2022-07-18T14:22:06Z</time>
      </trkpt>
      <trkpt lat="44.44888" lon="7.10444">
        <ele>1359.8</ele>
        <time>2022-07-18T14:22:07Z</time>
      </trkpt>
      <trkpt lat="44.44891" lon="7.10443">
        <ele>1360.2</ele>
        <time>2022-07-18T14:22:08Z</time>
      </trkpt>
      <trkpt lat="44.44893" lon="7.10442">
        <ele>1360.2</ele>
        <time>2022-07-18T14:22:09Z</time>
      </trkpt>
      <trkpt lat="44.44896" lon="7.10442">
        <ele>1360.4</ele>
        <time>2022-07-18T14:22:10Z</time>
      </trkpt>
      <trkpt lat="44.44898" lon="7.10441">
        <ele>1360.4</ele>
        <time>2022-07-18T14:22:11Z</time>
      </trkpt>
      <trkpt lat="44.449" lon="7.1044">
        <ele>1360.6</ele>
        <time>2022-07-18T14:22:12Z</time>
      </trkpt>
      <trkpt lat="44.44902" lon="7.1044">
        <ele>1360.6</ele>
        <time>2022-07-18T14:22:13Z</time>
      </trkpt>
      <trkpt lat="44.44904" lon="7.1044">
        <ele>1361</ele>
        <time>2022-07-18T14:22:14Z</time>
      </trkpt>
      <trkpt lat="44.44906" lon="7.10439">
        <ele>1361</ele>
        <time>2022-07-18T14:22:15Z</time>
      </trkpt>
      <trkpt lat="44.44908" lon="7.10439">
        <ele>1361.4</ele>
        <time>2022-07-18T14:22:16Z</time>
      </trkpt>
      <trkpt lat="44.4491" lon="7.10438">
        <ele>1361.4</ele>
        <time>2022-07-18T14:22:17Z</time>
      </trkpt>
      <trkpt lat="44.44911" lon="7.10437">
        <ele>1361.6</ele>
        <time>2022-07-18T14:22:18Z</time>
      </trkpt>
      <trkpt lat="44.44913" lon="7.10436">
        <ele>1361.6</ele>
        <time>2022-07-18T14:22:19Z</time>
      </trkpt>
      <trkpt lat="44.44915" lon="7.10436">
        <ele>1362</ele>
        <time>2022-07-18T14:22:20Z</time>
      </trkpt>
      <trkpt lat="44.44917" lon="7.10435">
        <ele>1362</ele>
        <time>2022-07-18T14:22:21Z</time>
      </trkpt>
      <trkpt lat="44.44919" lon="7.10434">
        <ele>1362.4</ele>
        <time>2022-07-18T14:22:22Z</time>
      </trkpt>
      <trkpt lat="44.44921" lon="7.10434">
        <ele>1362.4</ele>
        <time>2022-07-18T14:22:23Z</time>
      </trkpt>
      <trkpt lat="44.44923" lon="7.10433">
        <ele>1362.6</ele>
        <time>2022-07-18T14:22:24Z</time>
      </trkpt>
      <trkpt lat="44.44925" lon="7.10432">
        <ele>1362.6</ele>
        <time>2022-07-18T14:22:25Z</time>
      </trkpt>
      <trkpt lat="44.44927" lon="7.10431">
        <ele>1363</ele>
        <time>2022-07-18T14:22:26Z</time>
      </trkpt>
      <trkpt lat="44.44929" lon="7.10431">
        <ele>1363.2</ele>
        <time>2022-07-18T14:22:27Z</time>
      </trkpt>
      <trkpt lat="44.44931" lon="7.1043">
        <ele>1363.2</ele>
        <time>2022-07-18T14:22:28Z</time>
      </trkpt>
      <trkpt lat="44.44933" lon="7.1043">
        <ele>1363.4</ele>
        <time>2022-07-18T14:22:29Z</time>
      </trkpt>
      <trkpt lat="44.44935" lon="7.10429">
        <ele>1363.4</ele>
        <time>2022-07-18T14:22:30Z</time>
      </trkpt>
      <trkpt lat="44.44937" lon="7.10429">
        <ele>1363.6</ele>
        <time>2022-07-18T14:22:31Z</time>
      </trkpt>
      <trkpt lat="44.44939" lon="7.10428">
        <ele>1363.6</ele>
        <time>2022-07-18T14:22:32Z</time>
      </trkpt>
      <trkpt lat="44.44941" lon="7.10427">
        <ele>1363.8</ele>
        <time>2022-07-18T14:22:33Z</time>
      </trkpt>
      <trkpt lat="44.44943" lon="7.10426">
        <ele>1363.8</ele>
        <time>2022-07-18T14:22:34Z</time>
      </trkpt>
      <trkpt lat="44.44945" lon="7.10424">
        <ele>1364</ele>
        <time>2022-07-18T14:22:35Z</time>
      </trkpt>
      <trkpt lat="44.44947" lon="7.10423">
        <ele>1364</ele>
        <time>2022-07-18T14:22:36Z</time>
      </trkpt>
      <trkpt lat="44.44949" lon="7.10422">
        <ele>1364.2</ele>
        <time>2022-07-18T14:22:37Z</time>
      </trkpt>
      <trkpt lat="44.44952" lon="7.10422">
        <ele>1364.2</ele>
        <time>2022-07-18T14:22:38Z</time>
      </trkpt>
      <trkpt lat="44.44954" lon="7.10421">
        <ele>1364.2</ele>
        <time>2022-07-18T14:22:39Z</time>
      </trkpt>
      <trkpt lat="44.44956" lon="7.10421">
        <ele>1364.6</ele>
        <time>2022-07-18T14:22:40Z</time>
      </trkpt>
      <trkpt lat="44.44958" lon="7.10421">
        <ele>1364.6</ele>
        <time>2022-07-18T14:22:41Z</time>
      </trkpt>
      <trkpt lat="44.44961" lon="7.1042">
        <ele>1365</ele>
        <time>2022-07-18T14:22:42Z</time>
      </trkpt>
      <trkpt lat="44.44964" lon="7.10419">
        <ele>1365.2</ele>
        <time>2022-07-18T14:22:43Z</time>
      </trkpt>
      <trkpt lat="44.44966" lon="7.10419">
        <ele>1365.2</ele>
        <time>2022-07-18T14:22:44Z</time>
      </trkpt>
      <trkpt lat="44.44968" lon="7.10418">
        <ele>1365.2</ele>
        <time>2022-07-18T14:22:45Z</time>
      </trkpt>
      <trkpt lat="44.44971" lon="7.10417">
        <ele>1365.6</ele>
        <time>2022-07-18T14:22:46Z</time>
      </trkpt>
      <trkpt lat="44.44973" lon="7.10416">
        <ele>1365.6</ele>
        <time>2022-07-18T14:22:47Z</time>
      </trkpt>
      <trkpt lat="44.44976" lon="7.10415">
        <ele>1365.6</ele>
        <time>2022-07-18T14:22:48Z</time>
      </trkpt>
      <trkpt lat="44.44978" lon="7.10414">
        <ele>1365.8</ele>
        <time>2022-07-18T14:22:49Z</time>
      </trkpt>
      <trkpt lat="44.4498" lon="7.10413">
        <ele>1365.8</ele>
        <time>2022-07-18T14:22:50Z</time>
      </trkpt>
      <trkpt lat="44.44983" lon="7.10412">
        <ele>1365.8</ele>
        <time>2022-07-18T14:22:51Z</time>
      </trkpt>
      <trkpt lat="44.44985" lon="7.10411">
        <ele>1366.2</ele>
        <time>2022-07-18T14:22:52Z</time>
      </trkpt>
      <trkpt lat="44.44987" lon="7.1041">
        <ele>1366.2</ele>
        <time>2022-07-18T14:22:53Z</time>
      </trkpt>
      <trkpt lat="44.44989" lon="7.10409">
        <ele>1366.6</ele>
        <time>2022-07-18T14:22:54Z</time>
      </trkpt>
      <trkpt lat="44.44992" lon="7.10409">
        <ele>1366.6</ele>
        <time>2022-07-18T14:22:55Z</time>
      </trkpt>
      <trkpt lat="44.44994" lon="7.10408">
        <ele>1366.8</ele>
        <time>2022-07-18T14:22:56Z</time>
      </trkpt>
      <trkpt lat="44.44996" lon="7.10407">
        <ele>1366.8</ele>
        <time>2022-07-18T14:22:57Z</time>
      </trkpt>
      <trkpt lat="44.44998" lon="7.10406">
        <ele>1366.8</ele>
        <time>2022-07-18T14:22:58Z</time>
      </trkpt>
      <trkpt lat="44.45001" lon="7.10406">
        <ele>1367</ele>
        <time>2022-07-18T14:22:59Z</time>
      </trkpt>
      <trkpt lat="44.45003" lon="7.10405">
        <ele>1367</ele>
        <time>2022-07-18T14:23:00Z</time>
      </trkpt>
      <trkpt lat="44.45005" lon="7.10405">
        <ele>1367.4</ele>
        <time>2022-07-18T14:23:01Z</time>
      </trkpt>
      <trkpt lat="44.45008" lon="7.10404">
        <ele>1367.4</ele>
        <time>2022-07-18T14:23:02Z</time>
      </trkpt>
      <trkpt lat="44.4501" lon="7.10403">
        <ele>1367.6</ele>
        <time>2022-07-18T14:23:03Z</time>
      </trkpt>
      <trkpt lat="44.45012" lon="7.10402">
        <ele>1367.6</ele>
        <time>2022-07-18T14:23:04Z</time>
      </trkpt>
      <trkpt lat="44.45014" lon="7.10401">
        <ele>1367.6</ele>
        <time>2022-07-18T14:23:05Z</time>
      </trkpt>
      <trkpt lat="44.45017" lon="7.104">
        <ele>1368</ele>
        <time>2022-07-18T14:23:06Z</time>
      </trkpt>
      <trkpt lat="44.45019" lon="7.10399">
        <ele>1368</ele>
        <time>2022-07-18T14:23:07Z</time>
      </trkpt>
      <trkpt lat="44.45021" lon="7.10398">
        <ele>1368</ele>
        <time>2022-07-18T14:23:08Z</time>
      </trkpt>
      <trkpt lat="44.45023" lon="7.10398">
        <ele>1368.2</ele>
        <time>2022-07-18T14:23:09Z</time>
      </trkpt>
      <trkpt lat="44.45025" lon="7.10397">
        <ele>1368.4</ele>
        <time>2022-07-18T14:23:10Z</time>
      </trkpt>
      <trkpt lat="44.45027" lon="7.10396">
        <ele>1368.4</ele>
        <time>2022-07-18T14:23:11Z</time>
      </trkpt>
      <trkpt lat="44.4503" lon="7.10395">
        <ele>1368.4</ele>
        <time>2022-07-18T14:23:12Z</time>
      </trkpt>
      <trkpt lat="44.45032" lon="7.10394">
        <ele>1368.8</ele>
        <time>2022-07-18T14:23:13Z</time>
      </trkpt>
      <trkpt lat="44.45034" lon="7.10393">
        <ele>1368.8</ele>
        <time>2022-07-18T14:23:14Z</time>
      </trkpt>
      <trkpt lat="44.45036" lon="7.10392">
        <ele>1368.8</ele>
        <time>2022-07-18T14:23:15Z</time>
      </trkpt>
      <trkpt lat="44.45039" lon="7.10391">
        <ele>1368.8</ele>
        <time>2022-07-18T14:23:16Z</time>
      </trkpt>
      <trkpt lat="44.45041" lon="7.1039">
        <ele>1369.2</ele>
        <time>2022-07-18T14:23:17Z</time>
      </trkpt>
      <trkpt lat="44.45043" lon="7.10389">
        <ele>1369.2</ele>
        <time>2022-07-18T14:23:18Z</time>
      </trkpt>
      <trkpt lat="44.45046" lon="7.10388">
        <ele>1369.4</ele>
        <time>2022-07-18T14:23:19Z</time>
      </trkpt>
      <trkpt lat="44.45048" lon="7.10387">
        <ele>1369.4</ele>
        <time>2022-07-18T14:23:20Z</time>
      </trkpt>
      <trkpt lat="44.4505" lon="7.10387">
        <ele>1369.6</ele>
        <time>2022-07-18T14:23:21Z</time>
      </trkpt>
      <trkpt lat="44.45053" lon="7.10387">
        <ele>1369.6</ele>
        <time>2022-07-18T14:23:22Z</time>
      </trkpt>
      <trkpt lat="44.45055" lon="7.10387">
        <ele>1369.8</ele>
        <time>2022-07-18T14:23:23Z</time>
      </trkpt>
      <trkpt lat="44.45057" lon="7.10387">
        <ele>1369.8</ele>
        <time>2022-07-18T14:23:24Z</time>
      </trkpt>
      <trkpt lat="44.45059" lon="7.10387">
        <ele>1370.2</ele>
        <time>2022-07-18T14:23:25Z</time>
      </trkpt>
      <trkpt lat="44.45061" lon="7.10389">
        <ele>1370.2</ele>
        <time>2022-07-18T14:23:26Z</time>
      </trkpt>
      <trkpt lat="44.45063" lon="7.1039">
        <ele>1370.4</ele>
        <time>2022-07-18T14:23:27Z</time>
      </trkpt>
      <trkpt lat="44.45064" lon="7.10392">
        <ele>1370.6</ele>
        <time>2022-07-18T14:23:28Z</time>
      </trkpt>
      <trkpt lat="44.45066" lon="7.10394">
        <ele>1370.6</ele>
        <time>2022-07-18T14:23:29Z</time>
      </trkpt>
      <trkpt lat="44.45067" lon="7.10397">
        <ele>1371</ele>
        <time>2022-07-18T14:23:30Z</time>
      </trkpt>
      <trkpt lat="44.45067" lon="7.104">
        <ele>1371</ele>
        <time>2022-07-18T14:23:31Z</time>
      </trkpt>
      <trkpt lat="44.45066" lon="7.10403">
        <ele>1371.2</ele>
        <time>2022-07-18T14:23:32Z</time>
      </trkpt>
      <trkpt lat="44.45065" lon="7.10405">
        <ele>1371.2</ele>
        <time>2022-07-18T14:23:33Z</time>
      </trkpt>
      <trkpt lat="44.45064" lon="7.10408">
        <ele>1371.4</ele>
        <time>2022-07-18T14:23:34Z</time>
      </trkpt>
      <trkpt lat="44.45062" lon="7.1041">
        <ele>1371.4</ele>
        <time>2022-07-18T14:23:35Z</time>
      </trkpt>
      <trkpt lat="44.4506" lon="7.10411">
        <ele>1371.8</ele>
        <time>2022-07-18T14:23:36Z</time>
      </trkpt>
      <trkpt lat="44.45059" lon="7.10412">
        <ele>1371.8</ele>
        <time>2022-07-18T14:23:37Z</time>
      </trkpt>
      <trkpt lat="44.45057" lon="7.10413">
        <ele>1372</ele>
        <time>2022-07-18T14:23:38Z</time>
      </trkpt>
      <trkpt lat="44.45055" lon="7.10415">
        <ele>1372</ele>
        <time>2022-07-18T14:23:39Z</time>
      </trkpt>
      <trkpt lat="44.45053" lon="7.10416">
        <ele>1372.4</ele>
        <time>2022-07-18T14:23:40Z</time>
      </trkpt>
      <trkpt lat="44.45051" lon="7.10417">
        <ele>1372.6</ele>
        <time>2022-07-18T14:23:41Z</time>
      </trkpt>
      <trkpt lat="44.45049" lon="7.10417">
        <ele>1372.8</ele>
        <time>2022-07-18T14:23:43Z</time>
      </trkpt>
      <trkpt lat="44.45044" lon="7.10419">
        <ele>1372.8</ele>
        <time>2022-07-18T14:23:44Z</time>
      </trkpt>
      <trkpt lat="44.45042" lon="7.1042">
        <ele>1373.2</ele>
        <time>2022-07-18T14:23:45Z</time>
      </trkpt>
      <trkpt lat="44.4504" lon="7.10421">
        <ele>1373.2</ele>
        <time>2022-07-18T14:23:46Z</time>
      </trkpt>
      <trkpt lat="44.45038" lon="7.10422">
        <ele>1373.4</ele>
        <time>2022-07-18T14:23:47Z</time>
      </trkpt>
      <trkpt lat="44.45036" lon="7.10423">
        <ele>1373.4</ele>
        <time>2022-07-18T14:23:48Z</time>
      </trkpt>
      <trkpt lat="44.45034" lon="7.10424">
        <ele>1373.6</ele>
        <time>2022-07-18T14:23:49Z</time>
      </trkpt>
      <trkpt lat="44.45032" lon="7.10425">
        <ele>1373.6</ele>
        <time>2022-07-18T14:23:50Z</time>
      </trkpt>
      <trkpt lat="44.4503" lon="7.10426">
        <ele>1374</ele>
        <time>2022-07-18T14:23:51Z</time>
      </trkpt>
      <trkpt lat="44.45028" lon="7.10427">
        <ele>1374</ele>
        <time>2022-07-18T14:23:52Z</time>
      </trkpt>
      <trkpt lat="44.45026" lon="7.10428">
        <ele>1374.2</ele>
        <time>2022-07-18T14:23:53Z</time>
      </trkpt>
      <trkpt lat="44.45024" lon="7.10429">
        <ele>1374.4</ele>
        <time>2022-07-18T14:23:54Z</time>
      </trkpt>
      <trkpt lat="44.45022" lon="7.1043">
        <ele>1374.4</ele>
        <time>2022-07-18T14:23:55Z</time>
      </trkpt>
      <trkpt lat="44.4502" lon="7.10431">
        <ele>1374.8</ele>
        <time>2022-07-18T14:23:56Z</time>
      </trkpt>
      <trkpt lat="44.45018" lon="7.10433">
        <ele>1374.8</ele>
        <time>2022-07-18T14:23:57Z</time>
      </trkpt>
      <trkpt lat="44.45016" lon="7.10434">
        <ele>1375</ele>
        <time>2022-07-18T14:23:58Z</time>
      </trkpt>
      <trkpt lat="44.45014" lon="7.10435">
        <ele>1375</ele>
        <time>2022-07-18T14:23:59Z</time>
      </trkpt>
      <trkpt lat="44.45012" lon="7.10436">
        <ele>1375.4</ele>
        <time>2022-07-18T14:24:00Z</time>
      </trkpt>
      <trkpt lat="44.4501" lon="7.10437">
        <ele>1375.4</ele>
        <time>2022-07-18T14:24:01Z</time>
      </trkpt>
      <trkpt lat="44.45008" lon="7.10438">
        <ele>1375.6</ele>
        <time>2022-07-18T14:24:02Z</time>
      </trkpt>
      <trkpt lat="44.45006" lon="7.10438">
        <ele>1375.6</ele>
        <time>2022-07-18T14:24:03Z</time>
      </trkpt>
      <trkpt lat="44.45004" lon="7.10439">
        <ele>1376</ele>
        <time>2022-07-18T14:24:04Z</time>
      </trkpt>
      <trkpt lat="44.45003" lon="7.1044">
        <ele>1376</ele>
        <time>2022-07-18T14:24:05Z</time>
      </trkpt>
      <trkpt lat="44.45001" lon="7.10442">
        <ele>1376.2</ele>
        <time>2022-07-18T14:24:06Z</time>
      </trkpt>
      <trkpt lat="44.45" lon="7.10443">
        <ele>1376.2</ele>
        <time>2022-07-18T14:24:07Z</time>
      </trkpt>
      <trkpt lat="44.44998" lon="7.10444">
        <ele>1376.4</ele>
        <time>2022-07-18T14:24:08Z</time>
      </trkpt>
      <trkpt lat="44.44996" lon="7.10446">
        <ele>1376.6</ele>
        <time>2022-07-18T14:24:09Z</time>
      </trkpt>
      <trkpt lat="44.44995" lon="7.10448">
        <ele>1376.6</ele>
        <time>2022-07-18T14:24:10Z</time>
      </trkpt>
      <trkpt lat="44.44993" lon="7.10449">
        <ele>1376.6</ele>
        <time>2022-07-18T14:24:11Z</time>
      </trkpt>
      <trkpt lat="44.44991" lon="7.1045">
        <ele>1377</ele>
        <time>2022-07-18T14:24:12Z</time>
      </trkpt>
      <trkpt lat="44.44989" lon="7.10451">
        <ele>1377</ele>
        <time>2022-07-18T14:24:13Z</time>
      </trkpt>
      <trkpt lat="44.44987" lon="7.10453">
        <ele>1377.2</ele>
        <time>2022-07-18T14:24:14Z</time>
      </trkpt>
      <trkpt lat="44.44986" lon="7.10454">
        <ele>1377.2</ele>
        <time>2022-07-18T14:24:15Z</time>
      </trkpt>
      <trkpt lat="44.44984" lon="7.10456">
        <ele>1377.6</ele>
        <time>2022-07-18T14:24:16Z</time>
      </trkpt>
      <trkpt lat="44.44982" lon="7.10459">
        <ele>1377.6</ele>
        <time>2022-07-18T14:24:17Z</time>
      </trkpt>
      <trkpt lat="44.44981" lon="7.10461">
        <ele>1377.8</ele>
        <time>2022-07-18T14:24:18Z</time>
      </trkpt>
      <trkpt lat="44.44979" lon="7.10462">
        <ele>1377.8</ele>
        <time>2022-07-18T14:24:19Z</time>
      </trkpt>
      <trkpt lat="44.44977" lon="7.10464">
        <ele>1378.2</ele>
        <time>2022-07-18T14:24:20Z</time>
      </trkpt>
      <trkpt lat="44.44976" lon="7.10466">
        <ele>1378.2</ele>
        <time>2022-07-18T14:24:21Z</time>
      </trkpt>
      <trkpt lat="44.44974" lon="7.10467">
        <ele>1378.2</ele>
        <time>2022-07-18T14:24:22Z</time>
      </trkpt>
      <trkpt lat="44.44973" lon="7.10468">
        <ele>1378.4</ele>
        <time>2022-07-18T14:24:23Z</time>
      </trkpt>
      <trkpt lat="44.44971" lon="7.1047">
        <ele>1378.4</ele>
        <time>2022-07-18T14:24:24Z</time>
      </trkpt>
      <trkpt lat="44.4497" lon="7.10471">
        <ele>1378.8</ele>
        <time>2022-07-18T14:24:25Z</time>
      </trkpt>
      <trkpt lat="44.44968" lon="7.10473">
        <ele>1379</ele>
        <time>2022-07-18T14:24:26Z</time>
      </trkpt>
      <trkpt lat="44.44966" lon="7.10474">
        <ele>1379</ele>
        <time>2022-07-18T14:24:27Z</time>
      </trkpt>
      <trkpt lat="44.44965" lon="7.10475">
        <ele>1379.4</ele>
        <time>2022-07-18T14:24:28Z</time>
      </trkpt>
      <trkpt lat="44.44963" lon="7.10477">
        <ele>1379.6</ele>
        <time>2022-07-18T14:24:29Z</time>
      </trkpt>
      <trkpt lat="44.44961" lon="7.10478">
        <ele>1379.6</ele>
        <time>2022-07-18T14:24:30Z</time>
      </trkpt>
      <trkpt lat="44.44959" lon="7.1048">
        <ele>1380</ele>
        <time>2022-07-18T14:24:31Z</time>
      </trkpt>
      <trkpt lat="44.44958" lon="7.10481">
        <ele>1380</ele>
        <time>2022-07-18T14:24:32Z</time>
      </trkpt>
      <trkpt lat="44.44956" lon="7.10482">
        <ele>1380.2</ele>
        <time>2022-07-18T14:24:33Z</time>
      </trkpt>
      <trkpt lat="44.44954" lon="7.10483">
        <ele>1380.2</ele>
        <time>2022-07-18T14:24:34Z</time>
      </trkpt>
      <trkpt lat="44.44952" lon="7.10485">
        <ele>1380.6</ele>
        <time>2022-07-18T14:24:35Z</time>
      </trkpt>
      <trkpt lat="44.44951" lon="7.10486">
        <ele>1380.6</ele>
        <time>2022-07-18T14:24:36Z</time>
      </trkpt>
      <trkpt lat="44.44949" lon="7.10488">
        <ele>1380.8</ele>
        <time>2022-07-18T14:24:37Z</time>
      </trkpt>
      <trkpt lat="44.44947" lon="7.10489">
        <ele>1380.8</ele>
        <time>2022-07-18T14:24:38Z</time>
      </trkpt>
      <trkpt lat="44.44945" lon="7.10491">
        <ele>1381.2</ele>
        <time>2022-07-18T14:24:39Z</time>
      </trkpt>
      <trkpt lat="44.44943" lon="7.10492">
        <ele>1381.2</ele>
        <time>2022-07-18T14:24:40Z</time>
      </trkpt>
      <trkpt lat="44.44941" lon="7.10493">
        <ele>1381.4</ele>
        <time>2022-07-18T14:24:41Z</time>
      </trkpt>
      <trkpt lat="44.44939" lon="7.10495">
        <ele>1381.4</ele>
        <time>2022-07-18T14:24:42Z</time>
      </trkpt>
      <trkpt lat="44.44938" lon="7.10496">
        <ele>1381.8</ele>
        <time>2022-07-18T14:24:43Z</time>
      </trkpt>
      <trkpt lat="44.44936" lon="7.10497">
        <ele>1381.8</ele>
        <time>2022-07-18T14:24:44Z</time>
      </trkpt>
      <trkpt lat="44.44934" lon="7.10498">
        <ele>1382</ele>
        <time>2022-07-18T14:24:45Z</time>
      </trkpt>
      <trkpt lat="44.44932" lon="7.10499">
        <ele>1382</ele>
        <time>2022-07-18T14:24:46Z</time>
      </trkpt>
      <trkpt lat="44.4493" lon="7.10501">
        <ele>1382.2</ele>
        <time>2022-07-18T14:24:47Z</time>
      </trkpt>
      <trkpt lat="44.44928" lon="7.10502">
        <ele>1382.2</ele>
        <time>2022-07-18T14:24:48Z</time>
      </trkpt>
      <trkpt lat="44.44927" lon="7.10503">
        <ele>1382.6</ele>
        <time>2022-07-18T14:24:49Z</time>
      </trkpt>
      <trkpt lat="44.44925" lon="7.10504">
        <ele>1382.6</ele>
        <time>2022-07-18T14:24:50Z</time>
      </trkpt>
      <trkpt lat="44.44924" lon="7.10505">
        <ele>1382.8</ele>
        <time>2022-07-18T14:24:51Z</time>
      </trkpt>
      <trkpt lat="44.44922" lon="7.10506">
        <ele>1382.8</ele>
        <time>2022-07-18T14:24:52Z</time>
      </trkpt>
      <trkpt lat="44.4492" lon="7.10508">
        <ele>1383.2</ele>
        <time>2022-07-18T14:24:53Z</time>
      </trkpt>
      <trkpt lat="44.44919" lon="7.1051">
        <ele>1383.2</ele>
        <time>2022-07-18T14:24:54Z</time>
      </trkpt>
      <trkpt lat="44.44917" lon="7.10511">
        <ele>1383.4</ele>
        <time>2022-07-18T14:24:55Z</time>
      </trkpt>
      <trkpt lat="44.44915" lon="7.10512">
        <ele>1383.4</ele>
        <time>2022-07-18T14:24:56Z</time>
      </trkpt>
      <trkpt lat="44.44914" lon="7.10513">
        <ele>1383.8</ele>
        <time>2022-07-18T14:24:57Z</time>
      </trkpt>
      <trkpt lat="44.44912" lon="7.10514">
        <ele>1383.8</ele>
        <time>2022-07-18T14:24:58Z</time>
      </trkpt>
      <trkpt lat="44.4491" lon="7.10516">
        <ele>1384</ele>
        <time>2022-07-18T14:24:59Z</time>
      </trkpt>
      <trkpt lat="44.44908" lon="7.10517">
        <ele>1384</ele>
        <time>2022-07-18T14:25:00Z</time>
      </trkpt>
      <trkpt lat="44.44907" lon="7.10518">
        <ele>1384.4</ele>
        <time>2022-07-18T14:25:01Z</time>
      </trkpt>
      <trkpt lat="44.44905" lon="7.10519">
        <ele>1384.4</ele>
        <time>2022-07-18T14:25:02Z</time>
      </trkpt>
      <trkpt lat="44.44903" lon="7.1052">
        <ele>1384.6</ele>
        <time>2022-07-18T14:25:03Z</time>
      </trkpt>
      <trkpt lat="44.44901" lon="7.10521">
        <ele>1384.6</ele>
        <time>2022-07-18T14:25:04Z</time>
      </trkpt>
      <trkpt lat="44.44899" lon="7.10521">
        <ele>1384.8</ele>
        <time>2022-07-18T14:25:05Z</time>
      </trkpt>
      <trkpt lat="44.44897" lon="7.10522">
        <ele>1384.8</ele>
        <time>2022-07-18T14:25:06Z</time>
      </trkpt>
      <trkpt lat="44.44895" lon="7.10523">
        <ele>1384.8</ele>
        <time>2022-07-18T14:25:07Z</time>
      </trkpt>
      <trkpt lat="44.44894" lon="7.10524">
        <ele>1385.2</ele>
        <time>2022-07-18T14:25:08Z</time>
      </trkpt>
      <trkpt lat="44.44892" lon="7.10525">
        <ele>1385.2</ele>
        <time>2022-07-18T14:25:09Z</time>
      </trkpt>
      <trkpt lat="44.4489" lon="7.10527">
        <ele>1385.4</ele>
        <time>2022-07-18T14:25:10Z</time>
      </trkpt>
      <trkpt lat="44.44888" lon="7.10528">
        <ele>1385.6</ele>
        <time>2022-07-18T14:25:11Z</time>
      </trkpt>
      <trkpt lat="44.44886" lon="7.10529">
        <ele>1385.6</ele>
        <time>2022-07-18T14:25:12Z</time>
      </trkpt>
      <trkpt lat="44.44884" lon="7.1053">
        <ele>1385.6</ele>
        <time>2022-07-18T14:25:13Z</time>
      </trkpt>
      <trkpt lat="44.44882" lon="7.10532">
        <ele>1386</ele>
        <time>2022-07-18T14:25:14Z</time>
      </trkpt>
      <trkpt lat="44.4488" lon="7.10534">
        <ele>1386</ele>
        <time>2022-07-18T14:25:15Z</time>
      </trkpt>
      <trkpt lat="44.44878" lon="7.10535">
        <ele>1386.4</ele>
        <time>2022-07-18T14:25:16Z</time>
      </trkpt>
      <trkpt lat="44.44876" lon="7.10537">
        <ele>1386.4</ele>
        <time>2022-07-18T14:25:17Z</time>
      </trkpt>
      <trkpt lat="44.44874" lon="7.10539">
        <ele>1386.8</ele>
        <time>2022-07-18T14:25:18Z</time>
      </trkpt>
      <trkpt lat="44.44872" lon="7.10541">
        <ele>1386.8</ele>
        <time>2022-07-18T14:25:19Z</time>
      </trkpt>
      <trkpt lat="44.4487" lon="7.10542">
        <ele>1387</ele>
        <time>2022-07-18T14:25:20Z</time>
      </trkpt>
      <trkpt lat="44.44868" lon="7.10543">
        <ele>1387</ele>
        <time>2022-07-18T14:25:21Z</time>
      </trkpt>
      <trkpt lat="44.44866" lon="7.10544">
        <ele>1387.4</ele>
        <time>2022-07-18T14:25:22Z</time>
      </trkpt>
      <trkpt lat="44.44864" lon="7.10546">
        <ele>1387.4</ele>
        <time>2022-07-18T14:25:23Z</time>
      </trkpt>
      <trkpt lat="44.44862" lon="7.10547">
        <ele>1387.8</ele>
        <time>2022-07-18T14:25:24Z</time>
      </trkpt>
      <trkpt lat="44.4486" lon="7.10549">
        <ele>1387.8</ele>
        <time>2022-07-18T14:25:25Z</time>
      </trkpt>
      <trkpt lat="44.44858" lon="7.10551">
        <ele>1388.2</ele>
        <time>2022-07-18T14:25:26Z</time>
      </trkpt>
      <trkpt lat="44.44857" lon="7.10553">
        <ele>1388.2</ele>
        <time>2022-07-18T14:25:27Z</time>
      </trkpt>
      <trkpt lat="44.44855" lon="7.10555">
        <ele>1388.4</ele>
        <time>2022-07-18T14:25:28Z</time>
      </trkpt>
      <trkpt lat="44.44853" lon="7.10557">
        <ele>1388.4</ele>
        <time>2022-07-18T14:25:29Z</time>
      </trkpt>
      <trkpt lat="44.44851" lon="7.10558">
        <ele>1388.6</ele>
        <time>2022-07-18T14:25:30Z</time>
      </trkpt>
      <trkpt lat="44.44849" lon="7.1056">
        <ele>1388.6</ele>
        <time>2022-07-18T14:25:31Z</time>
      </trkpt>
      <trkpt lat="44.44847" lon="7.10562">
        <ele>1389</ele>
        <time>2022-07-18T14:25:32Z</time>
      </trkpt>
      <trkpt lat="44.44846" lon="7.10564">
        <ele>1389</ele>
        <time>2022-07-18T14:25:33Z</time>
      </trkpt>
      <trkpt lat="44.44844" lon="7.10565">
        <ele>1389.2</ele>
        <time>2022-07-18T14:25:34Z</time>
      </trkpt>
      <trkpt lat="44.44843" lon="7.10567">
        <ele>1389.2</ele>
        <time>2022-07-18T14:25:35Z</time>
      </trkpt>
      <trkpt lat="44.44841" lon="7.10569">
        <ele>1389.6</ele>
        <time>2022-07-18T14:25:36Z</time>
      </trkpt>
      <trkpt lat="44.44839" lon="7.10571">
        <ele>1389.8</ele>
        <time>2022-07-18T14:25:37Z</time>
      </trkpt>
      <trkpt lat="44.44838" lon="7.10573">
        <ele>1389.8</ele>
        <time>2022-07-18T14:25:38Z</time>
      </trkpt>
      <trkpt lat="44.44836" lon="7.10575">
        <ele>1390</ele>
        <time>2022-07-18T14:25:39Z</time>
      </trkpt>
      <trkpt lat="44.44834" lon="7.10576">
        <ele>1390</ele>
        <time>2022-07-18T14:25:40Z</time>
      </trkpt>
      <trkpt lat="44.44833" lon="7.10578">
        <ele>1390.4</ele>
        <time>2022-07-18T14:25:41Z</time>
      </trkpt>
      <trkpt lat="44.44831" lon="7.10581">
        <ele>1390.4</ele>
        <time>2022-07-18T14:25:42Z</time>
      </trkpt>
      <trkpt lat="44.4483" lon="7.10583">
        <ele>1390.6</ele>
        <time>2022-07-18T14:25:43Z</time>
      </trkpt>
      <trkpt lat="44.44829" lon="7.10585">
        <ele>1390.6</ele>
        <time>2022-07-18T14:25:44Z</time>
      </trkpt>
      <trkpt lat="44.44827" lon="7.10588">
        <ele>1390.8</ele>
        <time>2022-07-18T14:25:45Z</time>
      </trkpt>
      <trkpt lat="44.44826" lon="7.1059">
        <ele>1390.8</ele>
        <time>2022-07-18T14:25:46Z</time>
      </trkpt>
      <trkpt lat="44.44825" lon="7.10592">
        <ele>1391</ele>
        <time>2022-07-18T14:25:47Z</time>
      </trkpt>
      <trkpt lat="44.44823" lon="7.10594">
        <ele>1391</ele>
        <time>2022-07-18T14:25:48Z</time>
      </trkpt>
      <trkpt lat="44.44822" lon="7.10596">
        <ele>1391.4</ele>
        <time>2022-07-18T14:25:49Z</time>
      </trkpt>
      <trkpt lat="44.44821" lon="7.10598">
        <ele>1391.4</ele>
        <time>2022-07-18T14:25:50Z</time>
      </trkpt>
      <trkpt lat="44.4482" lon="7.106">
        <ele>1391.8</ele>
        <time>2022-07-18T14:25:51Z</time>
      </trkpt>
      <trkpt lat="44.44819" lon="7.10603">
        <ele>1391.8</ele>
        <time>2022-07-18T14:25:52Z</time>
      </trkpt>
      <trkpt lat="44.44818" lon="7.10605">
        <ele>1392.2</ele>
        <time>2022-07-18T14:25:53Z</time>
      </trkpt>
      <trkpt lat="44.44817" lon="7.10607">
        <ele>1392.2</ele>
        <time>2022-07-18T14:25:54Z</time>
      </trkpt>
      <trkpt lat="44.44816" lon="7.1061">
        <ele>1392.4</ele>
        <time>2022-07-18T14:25:55Z</time>
      </trkpt>
      <trkpt lat="44.44815" lon="7.10612">
        <ele>1392.4</ele>
        <time>2022-07-18T14:25:56Z</time>
      </trkpt>
      <trkpt lat="44.44815" lon="7.10614">
        <ele>1392.8</ele>
        <time>2022-07-18T14:25:57Z</time>
      </trkpt>
      <trkpt lat="44.44814" lon="7.10617">
        <ele>1392.8</ele>
        <time>2022-07-18T14:25:58Z</time>
      </trkpt>
      <trkpt lat="44.44814" lon="7.1062">
        <ele>1393.2</ele>
        <time>2022-07-18T14:25:59Z</time>
      </trkpt>
      <trkpt lat="44.44813" lon="7.10622">
        <ele>1393.4</ele>
        <time>2022-07-18T14:26:00Z</time>
      </trkpt>
      <trkpt lat="44.44813" lon="7.10625">
        <ele>1393.4</ele>
        <time>2022-07-18T14:26:01Z</time>
      </trkpt>
      <trkpt lat="44.44813" lon="7.10627">
        <ele>1393.6</ele>
        <time>2022-07-18T14:26:02Z</time>
      </trkpt>
      <trkpt lat="44.44812" lon="7.1063">
        <ele>1393.6</ele>
        <time>2022-07-18T14:26:03Z</time>
      </trkpt>
      <trkpt lat="44.44812" lon="7.10633">
        <ele>1393.8</ele>
        <time>2022-07-18T14:26:04Z</time>
      </trkpt>
      <trkpt lat="44.44811" lon="7.10636">
        <ele>1393.8</ele>
        <time>2022-07-18T14:26:05Z</time>
      </trkpt>
      <trkpt lat="44.44811" lon="7.10638">
        <ele>1394</ele>
        <time>2022-07-18T14:26:06Z</time>
      </trkpt>
      <trkpt lat="44.44811" lon="7.1064">
        <ele>1394</ele>
        <time>2022-07-18T14:26:07Z</time>
      </trkpt>
      <trkpt lat="44.4481" lon="7.10643">
        <ele>1394.4</ele>
        <time>2022-07-18T14:26:08Z</time>
      </trkpt>
      <trkpt lat="44.44809" lon="7.10646">
        <ele>1394.4</ele>
        <time>2022-07-18T14:26:09Z</time>
      </trkpt>
      <trkpt lat="44.44809" lon="7.10648">
        <ele>1394.6</ele>
        <time>2022-07-18T14:26:10Z</time>
      </trkpt>
      <trkpt lat="44.44808" lon="7.10651">
        <ele>1394.6</ele>
        <time>2022-07-18T14:26:11Z</time>
      </trkpt>
      <trkpt lat="44.44808" lon="7.10654">
        <ele>1395</ele>
        <time>2022-07-18T14:26:12Z</time>
      </trkpt>
      <trkpt lat="44.44807" lon="7.10656">
        <ele>1395.2</ele>
        <time>2022-07-18T14:26:13Z</time>
      </trkpt>
      <trkpt lat="44.44807" lon="7.10659">
        <ele>1395.2</ele>
        <time>2022-07-18T14:26:14Z</time>
      </trkpt>
      <trkpt lat="44.44806" lon="7.10661">
        <ele>1395.4</ele>
        <time>2022-07-18T14:26:15Z</time>
      </trkpt>
      <trkpt lat="44.44806" lon="7.10664">
        <ele>1395.6</ele>
        <time>2022-07-18T14:26:16Z</time>
      </trkpt>
      <trkpt lat="44.44806" lon="7.10666">
        <ele>1395.6</ele>
        <time>2022-07-18T14:26:17Z</time>
      </trkpt>
      <trkpt lat="44.44806" lon="7.10669">
        <ele>1396</ele>
        <time>2022-07-18T14:26:18Z</time>
      </trkpt>
      <trkpt lat="44.44806" lon="7.10671">
        <ele>1396</ele>
        <time>2022-07-18T14:26:19Z</time>
      </trkpt>
      <trkpt lat="44.44805" lon="7.10674">
        <ele>1396.2</ele>
        <time>2022-07-18T14:26:20Z</time>
      </trkpt>
      <trkpt lat="44.44804" lon="7.10676">
        <ele>1396.4</ele>
        <time>2022-07-18T14:26:21Z</time>
      </trkpt>
      <trkpt lat="44.44804" lon="7.10679">
        <ele>1396.4</ele>
        <time>2022-07-18T14:26:22Z</time>
      </trkpt>
      <trkpt lat="44.44803" lon="7.10681">
        <ele>1396.8</ele>
        <time>2022-07-18T14:26:23Z</time>
      </trkpt>
      <trkpt lat="44.44803" lon="7.10684">
        <ele>1396.8</ele>
        <time>2022-07-18T14:26:24Z</time>
      </trkpt>
      <trkpt lat="44.44803" lon="7.10687">
        <ele>1397</ele>
        <time>2022-07-18T14:26:25Z</time>
      </trkpt>
      <trkpt lat="44.44803" lon="7.10691">
        <ele>1397.2</ele>
        <time>2022-07-18T14:26:26Z</time>
      </trkpt>
      <trkpt lat="44.44803" lon="7.10694">
        <ele>1397.2</ele>
        <time>2022-07-18T14:26:27Z</time>
      </trkpt>
      <trkpt lat="44.44802" lon="7.10697">
        <ele>1397.6</ele>
        <time>2022-07-18T14:26:28Z</time>
      </trkpt>
      <trkpt lat="44.44802" lon="7.10699">
        <ele>1397.6</ele>
        <time>2022-07-18T14:26:29Z</time>
      </trkpt>
      <trkpt lat="44.44801" lon="7.10702">
        <ele>1397.8</ele>
        <time>2022-07-18T14:26:30Z</time>
      </trkpt>
      <trkpt lat="44.44801" lon="7.10704">
        <ele>1397.8</ele>
        <time>2022-07-18T14:26:31Z</time>
      </trkpt>
      <trkpt lat="44.44801" lon="7.10707">
        <ele>1398</ele>
        <time>2022-07-18T14:26:32Z</time>
      </trkpt>
      <trkpt lat="44.448" lon="7.1071">
        <ele>1398</ele>
        <time>2022-07-18T14:26:33Z</time>
      </trkpt>
      <trkpt lat="44.448" lon="7.10714">
        <ele>1398.4</ele>
        <time>2022-07-18T14:26:34Z</time>
      </trkpt>
      <trkpt lat="44.448" lon="7.10717">
        <ele>1398.6</ele>
        <time>2022-07-18T14:26:35Z</time>
      </trkpt>
      <trkpt lat="44.448" lon="7.1072">
        <ele>1398.6</ele>
        <time>2022-07-18T14:26:36Z</time>
      </trkpt>
      <trkpt lat="44.44799" lon="7.10722">
        <ele>1398.8</ele>
        <time>2022-07-18T14:26:37Z</time>
      </trkpt>
      <trkpt lat="44.44799" lon="7.10725">
        <ele>1398.8</ele>
        <time>2022-07-18T14:26:38Z</time>
      </trkpt>
      <trkpt lat="44.44799" lon="7.10728">
        <ele>1399.2</ele>
        <time>2022-07-18T14:26:39Z</time>
      </trkpt>
      <trkpt lat="44.44799" lon="7.1073">
        <ele>1399.2</ele>
        <time>2022-07-18T14:26:40Z</time>
      </trkpt>
      <trkpt lat="44.44798" lon="7.10733">
        <ele>1399.6</ele>
        <time>2022-07-18T14:26:41Z</time>
      </trkpt>
      <trkpt lat="44.44798" lon="7.10736">
        <ele>1399.6</ele>
        <time>2022-07-18T14:26:42Z</time>
      </trkpt>
      <trkpt lat="44.44798" lon="7.10739">
        <ele>1399.8</ele>
        <time>2022-07-18T14:26:43Z</time>
      </trkpt>
      <trkpt lat="44.44798" lon="7.10742">
        <ele>1399.8</ele>
        <time>2022-07-18T14:26:44Z</time>
      </trkpt>
      <trkpt lat="44.44798" lon="7.10744">
        <ele>1400</ele>
        <time>2022-07-18T14:26:45Z</time>
      </trkpt>
      <trkpt lat="44.44798" lon="7.10747">
        <ele>1400.2</ele>
        <time>2022-07-18T14:26:46Z</time>
      </trkpt>
      <trkpt lat="44.44797" lon="7.10749">
        <ele>1400.4</ele>
        <time>2022-07-18T14:26:47Z</time>
      </trkpt>
      <trkpt lat="44.44797" lon="7.10752">
        <ele>1400.4</ele>
        <time>2022-07-18T14:26:48Z</time>
      </trkpt>
      <trkpt lat="44.44797" lon="7.10755">
        <ele>1400.8</ele>
        <time>2022-07-18T14:26:49Z</time>
      </trkpt>
      <trkpt lat="44.44797" lon="7.10757">
        <ele>1400.8</ele>
        <time>2022-07-18T14:26:50Z</time>
      </trkpt>
      <trkpt lat="44.44796" lon="7.1076">
        <ele>1401</ele>
        <time>2022-07-18T14:26:51Z</time>
      </trkpt>
      <trkpt lat="44.44796" lon="7.10763">
        <ele>1401.4</ele>
        <time>2022-07-18T14:26:52Z</time>
      </trkpt>
      <trkpt lat="44.44796" lon="7.10765">
        <ele>1401.4</ele>
        <time>2022-07-18T14:26:53Z</time>
      </trkpt>
      <trkpt lat="44.44796" lon="7.10768">
        <ele>1401.6</ele>
        <time>2022-07-18T14:26:54Z</time>
      </trkpt>
      <trkpt lat="44.44796" lon="7.10771">
        <ele>1401.6</ele>
        <time>2022-07-18T14:26:55Z</time>
      </trkpt>
      <trkpt lat="44.44795" lon="7.10774">
        <ele>1402</ele>
        <time>2022-07-18T14:26:56Z</time>
      </trkpt>
      <trkpt lat="44.44795" lon="7.10776">
        <ele>1402</ele>
        <time>2022-07-18T14:26:57Z</time>
      </trkpt>
      <trkpt lat="44.44795" lon="7.10778">
        <ele>1402.2</ele>
        <time>2022-07-18T14:26:58Z</time>
      </trkpt>
      <trkpt lat="44.44795" lon="7.10781">
        <ele>1402.2</ele>
        <time>2022-07-18T14:26:59Z</time>
      </trkpt>
      <trkpt lat="44.44794" lon="7.10784">
        <ele>1402.6</ele>
        <time>2022-07-18T14:27:00Z</time>
      </trkpt>
      <trkpt lat="44.44793" lon="7.10786">
        <ele>1402.6</ele>
        <time>2022-07-18T14:27:01Z</time>
      </trkpt>
      <trkpt lat="44.44793" lon="7.10789">
        <ele>1402.8</ele>
        <time>2022-07-18T14:27:02Z</time>
      </trkpt>
      <trkpt lat="44.44792" lon="7.10791">
        <ele>1402.8</ele>
        <time>2022-07-18T14:27:03Z</time>
      </trkpt>
      <trkpt lat="44.44791" lon="7.10794">
        <ele>1403.2</ele>
        <time>2022-07-18T14:27:04Z</time>
      </trkpt>
      <trkpt lat="44.44791" lon="7.10797">
        <ele>1403.2</ele>
        <time>2022-07-18T14:27:05Z</time>
      </trkpt>
      <trkpt lat="44.4479" lon="7.108">
        <ele>1403.4</ele>
        <time>2022-07-18T14:27:06Z</time>
      </trkpt>
      <trkpt lat="44.44789" lon="7.10803">
        <ele>1403.4</ele>
        <time>2022-07-18T14:27:07Z</time>
      </trkpt>
      <trkpt lat="44.44788" lon="7.10805">
        <ele>1403.6</ele>
        <time>2022-07-18T14:27:08Z</time>
      </trkpt>
      <trkpt lat="44.44788" lon="7.10808">
        <ele>1403.6</ele>
        <time>2022-07-18T14:27:09Z</time>
      </trkpt>
      <trkpt lat="44.44788" lon="7.10811">
        <ele>1404</ele>
        <time>2022-07-18T14:27:10Z</time>
      </trkpt>
      <trkpt lat="44.44787" lon="7.10813">
        <ele>1404</ele>
        <time>2022-07-18T14:27:11Z</time>
      </trkpt>
      <trkpt lat="44.44786" lon="7.10815">
        <ele>1404.2</ele>
        <time>2022-07-18T14:27:12Z</time>
      </trkpt>
      <trkpt lat="44.44785" lon="7.10818">
        <ele>1404.2</ele>
        <time>2022-07-18T14:27:13Z</time>
      </trkpt>
      <trkpt lat="44.44784" lon="7.1082">
        <ele>1404.6</ele>
        <time>2022-07-18T14:27:14Z</time>
      </trkpt>
      <trkpt lat="44.44783" lon="7.10822">
        <ele>1404.6</ele>
        <time>2022-07-18T14:27:15Z</time>
      </trkpt>
      <trkpt lat="44.44781" lon="7.10824">
        <ele>1404.8</ele>
        <time>2022-07-18T14:27:16Z</time>
      </trkpt>
      <trkpt lat="44.4478" lon="7.10826">
        <ele>1404.8</ele>
        <time>2022-07-18T14:27:17Z</time>
      </trkpt>
      <trkpt lat="44.44779" lon="7.10829">
        <ele>1405</ele>
        <time>2022-07-18T14:27:18Z</time>
      </trkpt>
      <trkpt lat="44.44778" lon="7.10831">
        <ele>1405.2</ele>
        <time>2022-07-18T14:27:19Z</time>
      </trkpt>
      <trkpt lat="44.44777" lon="7.10834">
        <ele>1405.4</ele>
        <time>2022-07-18T14:27:20Z</time>
      </trkpt>
      <trkpt lat="44.44776" lon="7.10836">
        <ele>1405.4</ele>
        <time>2022-07-18T14:27:21Z</time>
      </trkpt>
      <trkpt lat="44.44775" lon="7.10838">
        <ele>1405.8</ele>
        <time>2022-07-18T14:27:22Z</time>
      </trkpt>
      <trkpt lat="44.44775" lon="7.10841">
        <ele>1405.8</ele>
        <time>2022-07-18T14:27:23Z</time>
      </trkpt>
      <trkpt lat="44.44774" lon="7.10844">
        <ele>1406</ele>
        <time>2022-07-18T14:27:24Z</time>
      </trkpt>
      <trkpt lat="44.44773" lon="7.10847">
        <ele>1406</ele>
        <time>2022-07-18T14:27:25Z</time>
      </trkpt>
      <trkpt lat="44.44772" lon="7.10849">
        <ele>1406.4</ele>
        <time>2022-07-18T14:27:26Z</time>
      </trkpt>
      <trkpt lat="44.44771" lon="7.10852">
        <ele>1406.4</ele>
        <time>2022-07-18T14:27:27Z</time>
      </trkpt>
      <trkpt lat="44.4477" lon="7.10854">
        <ele>1406.8</ele>
        <time>2022-07-18T14:27:28Z</time>
      </trkpt>
      <trkpt lat="44.44769" lon="7.10857">
        <ele>1407</ele>
        <time>2022-07-18T14:27:29Z</time>
      </trkpt>
      <trkpt lat="44.44769" lon="7.10859">
        <ele>1407</ele>
        <time>2022-07-18T14:27:30Z</time>
      </trkpt>
      <trkpt lat="44.44768" lon="7.10862">
        <ele>1407.2</ele>
        <time>2022-07-18T14:27:31Z</time>
      </trkpt>
      <trkpt lat="44.44767" lon="7.10864">
        <ele>1407.4</ele>
        <time>2022-07-18T14:27:32Z</time>
      </trkpt>
      <trkpt lat="44.44766" lon="7.10867">
        <ele>1407.8</ele>
        <time>2022-07-18T14:27:33Z</time>
      </trkpt>
      <trkpt lat="44.44765" lon="7.10869">
        <ele>1407.8</ele>
        <time>2022-07-18T14:27:34Z</time>
      </trkpt>
      <trkpt lat="44.44764" lon="7.10871">
        <ele>1408</ele>
        <time>2022-07-18T14:27:35Z</time>
      </trkpt>
      <trkpt lat="44.44763" lon="7.10874">
        <ele>1408.2</ele>
        <time>2022-07-18T14:27:36Z</time>
      </trkpt>
      <trkpt lat="44.44763" lon="7.10876">
        <ele>1408.2</ele>
        <time>2022-07-18T14:27:37Z</time>
      </trkpt>
      <trkpt lat="44.44762" lon="7.10878">
        <ele>1408.6</ele>
        <time>2022-07-18T14:27:38Z</time>
      </trkpt>
      <trkpt lat="44.44761" lon="7.1088">
        <ele>1408.6</ele>
        <time>2022-07-18T14:27:39Z</time>
      </trkpt>
      <trkpt lat="44.4476" lon="7.10883">
        <ele>1408.8</ele>
        <time>2022-07-18T14:27:40Z</time>
      </trkpt>
      <trkpt lat="44.4476" lon="7.10885">
        <ele>1408.8</ele>
        <time>2022-07-18T14:27:41Z</time>
      </trkpt>
      <trkpt lat="44.44759" lon="7.10888">
        <ele>1409</ele>
        <time>2022-07-18T14:27:42Z</time>
      </trkpt>
      <trkpt lat="44.44758" lon="7.10891">
        <ele>1409.4</ele>
        <time>2022-07-18T14:27:43Z</time>
      </trkpt>
      <trkpt lat="44.44757" lon="7.10893">
        <ele>1409.4</ele>
        <time>2022-07-18T14:27:44Z</time>
      </trkpt>
      <trkpt lat="44.44756" lon="7.10895">
        <ele>1409.6</ele>
        <time>2022-07-18T14:27:45Z</time>
      </trkpt>
      <trkpt lat="44.44755" lon="7.10897">
        <ele>1409.8</ele>
        <time>2022-07-18T14:27:46Z</time>
      </trkpt>
      <trkpt lat="44.44754" lon="7.109">
        <ele>1409.8</ele>
        <time>2022-07-18T14:27:47Z</time>
      </trkpt>
      <trkpt lat="44.44753" lon="7.10901">
        <ele>1410.2</ele>
        <time>2022-07-18T14:27:48Z</time>
      </trkpt>
      <trkpt lat="44.44751" lon="7.10904">
        <ele>1410.4</ele>
        <time>2022-07-18T14:27:49Z</time>
      </trkpt>
      <trkpt lat="44.4475" lon="7.10906">
        <ele>1410.6</ele>
        <time>2022-07-18T14:27:50Z</time>
      </trkpt>
      <trkpt lat="44.44749" lon="7.10908">
        <ele>1410.6</ele>
        <time>2022-07-18T14:27:51Z</time>
      </trkpt>
      <trkpt lat="44.44748" lon="7.1091">
        <ele>1411</ele>
        <time>2022-07-18T14:27:52Z</time>
      </trkpt>
      <trkpt lat="44.44747" lon="7.10913">
        <ele>1411</ele>
        <time>2022-07-18T14:27:53Z</time>
      </trkpt>
      <trkpt lat="44.44746" lon="7.10916">
        <ele>1411.4</ele>
        <time>2022-07-18T14:27:54Z</time>
      </trkpt>
      <trkpt lat="44.44745" lon="7.10919">
        <ele>1411.6</ele>
        <time>2022-07-18T14:27:55Z</time>
      </trkpt>
      <trkpt lat="44.44744" lon="7.10921">
        <ele>1411.8</ele>
        <time>2022-07-18T14:27:56Z</time>
      </trkpt>
      <trkpt lat="44.44743" lon="7.10924">
        <ele>1411.8</ele>
        <time>2022-07-18T14:27:57Z</time>
      </trkpt>
      <trkpt lat="44.44741" lon="7.10926">
        <ele>1412.2</ele>
        <time>2022-07-18T14:27:58Z</time>
      </trkpt>
      <trkpt lat="44.4474" lon="7.10928">
        <ele>1412.2</ele>
        <time>2022-07-18T14:27:59Z</time>
      </trkpt>
      <trkpt lat="44.44739" lon="7.1093">
        <ele>1412.4</ele>
        <time>2022-07-18T14:28:00Z</time>
      </trkpt>
      <trkpt lat="44.44738" lon="7.10932">
        <ele>1412.4</ele>
        <time>2022-07-18T14:28:01Z</time>
      </trkpt>
      <trkpt lat="44.44737" lon="7.10933">
        <ele>1412.8</ele>
        <time>2022-07-18T14:28:02Z</time>
      </trkpt>
      <trkpt lat="44.44736" lon="7.10935">
        <ele>1412.8</ele>
        <time>2022-07-18T14:28:03Z</time>
      </trkpt>
      <trkpt lat="44.44735" lon="7.10937">
        <ele>1413</ele>
        <time>2022-07-18T14:28:04Z</time>
      </trkpt>
      <trkpt lat="44.44733" lon="7.10939">
        <ele>1413</ele>
        <time>2022-07-18T14:28:05Z</time>
      </trkpt>
      <trkpt lat="44.44732" lon="7.1094">
        <ele>1413.2</ele>
        <time>2022-07-18T14:28:06Z</time>
      </trkpt>
      <trkpt lat="44.44731" lon="7.10942">
        <ele>1413.2</ele>
        <time>2022-07-18T14:28:07Z</time>
      </trkpt>
      <trkpt lat="44.4473" lon="7.10944">
        <ele>1413.6</ele>
        <time>2022-07-18T14:28:08Z</time>
      </trkpt>
      <trkpt lat="44.44729" lon="7.10946">
        <ele>1413.6</ele>
        <time>2022-07-18T14:28:09Z</time>
      </trkpt>
      <trkpt lat="44.44727" lon="7.10947">
        <ele>1413.8</ele>
        <time>2022-07-18T14:28:10Z</time>
      </trkpt>
      <trkpt lat="44.44725" lon="7.10948">
        <ele>1413.8</ele>
        <time>2022-07-18T14:28:11Z</time>
      </trkpt>
      <trkpt lat="44.44724" lon="7.10949">
        <ele>1414.2</ele>
        <time>2022-07-18T14:28:12Z</time>
      </trkpt>
      <trkpt lat="44.44722" lon="7.10951">
        <ele>1414.4</ele>
        <time>2022-07-18T14:28:13Z</time>
      </trkpt>
      <trkpt lat="44.44721" lon="7.10952">
        <ele>1414.4</ele>
        <time>2022-07-18T14:28:14Z</time>
      </trkpt>
      <trkpt lat="44.44719" lon="7.10954">
        <ele>1414.8</ele>
        <time>2022-07-18T14:28:15Z</time>
      </trkpt>
      <trkpt lat="44.44718" lon="7.10955">
        <ele>1414.8</ele>
        <time>2022-07-18T14:28:16Z</time>
      </trkpt>
      <trkpt lat="44.44716" lon="7.10956">
        <ele>1414.8</ele>
        <time>2022-07-18T14:28:17Z</time>
      </trkpt>
      <trkpt lat="44.44714" lon="7.10957">
        <ele>1415</ele>
        <time>2022-07-18T14:28:18Z</time>
      </trkpt>
      <trkpt lat="44.44712" lon="7.10958">
        <ele>1415</ele>
        <time>2022-07-18T14:28:19Z</time>
      </trkpt>
      <trkpt lat="44.4471" lon="7.10958">
        <ele>1415.2</ele>
        <time>2022-07-18T14:28:20Z</time>
      </trkpt>
      <trkpt lat="44.44708" lon="7.10959">
        <ele>1415.2</ele>
        <time>2022-07-18T14:28:21Z</time>
      </trkpt>
      <trkpt lat="44.44706" lon="7.1096">
        <ele>1415.6</ele>
        <time>2022-07-18T14:28:22Z</time>
      </trkpt>
      <trkpt lat="44.44704" lon="7.1096">
        <ele>1415.8</ele>
        <time>2022-07-18T14:28:23Z</time>
      </trkpt>
      <trkpt lat="44.44702" lon="7.1096">
        <ele>1415.8</ele>
        <time>2022-07-18T14:28:24Z</time>
      </trkpt>
      <trkpt lat="44.447" lon="7.1096">
        <ele>1416</ele>
        <time>2022-07-18T14:28:25Z</time>
      </trkpt>
      <trkpt lat="44.44698" lon="7.1096">
        <ele>1416</ele>
        <time>2022-07-18T14:28:26Z</time>
      </trkpt>
      <trkpt lat="44.44696" lon="7.1096">
        <ele>1416.4</ele>
        <time>2022-07-18T14:28:27Z</time>
      </trkpt>
      <trkpt lat="44.44694" lon="7.10959">
        <ele>1416.4</ele>
        <time>2022-07-18T14:28:28Z</time>
      </trkpt>
      <trkpt lat="44.44693" lon="7.10959">
        <ele>1416.6</ele>
        <time>2022-07-18T14:28:29Z</time>
      </trkpt>
      <trkpt lat="44.44691" lon="7.10958">
        <ele>1416.6</ele>
        <time>2022-07-18T14:28:30Z</time>
      </trkpt>
      <trkpt lat="44.44689" lon="7.10958">
        <ele>1416.6</ele>
        <time>2022-07-18T14:28:31Z</time>
      </trkpt>
      <trkpt lat="44.44688" lon="7.10957">
        <ele>1417</ele>
        <time>2022-07-18T14:28:32Z</time>
      </trkpt>
      <trkpt lat="44.44686" lon="7.10956">
        <ele>1417</ele>
        <time>2022-07-18T14:28:33Z</time>
      </trkpt>
      <trkpt lat="44.44685" lon="7.10955">
        <ele>1417.2</ele>
        <time>2022-07-18T14:28:34Z</time>
      </trkpt>
      <trkpt lat="44.44683" lon="7.10953">
        <ele>1417.2</ele>
        <time>2022-07-18T14:28:35Z</time>
      </trkpt>
      <trkpt lat="44.44682" lon="7.10951">
        <ele>1417.2</ele>
        <time>2022-07-18T14:28:36Z</time>
      </trkpt>
      <trkpt lat="44.44681" lon="7.10949">
        <ele>1417.2</ele>
        <time>2022-07-18T14:28:37Z</time>
      </trkpt>
      <trkpt lat="44.4468" lon="7.10947">
        <ele>1417.4</ele>
        <time>2022-07-18T14:28:38Z</time>
      </trkpt>
      <trkpt lat="44.44678" lon="7.10944">
        <ele>1417.4</ele>
        <time>2022-07-18T14:28:39Z</time>
      </trkpt>
      <trkpt lat="44.44677" lon="7.10942">
        <ele>1417.4</ele>
        <time>2022-07-18T14:28:40Z</time>
      </trkpt>
      <trkpt lat="44.44676" lon="7.10941">
        <ele>1417.8</ele>
        <time>2022-07-18T14:28:41Z</time>
      </trkpt>
      <trkpt lat="44.44675" lon="7.10939">
        <ele>1417.8</ele>
        <time>2022-07-18T14:28:42Z</time>
      </trkpt>
      <trkpt lat="44.44674" lon="7.10936">
        <ele>1417.8</ele>
        <time>2022-07-18T14:28:43Z</time>
      </trkpt>
      <trkpt lat="44.44673" lon="7.10935">
        <ele>1418</ele>
        <time>2022-07-18T14:28:44Z</time>
      </trkpt>
      <trkpt lat="44.44672" lon="7.10932">
        <ele>1418</ele>
        <time>2022-07-18T14:28:45Z</time>
      </trkpt>
      <trkpt lat="44.44672" lon="7.1093">
        <ele>1418.4</ele>
        <time>2022-07-18T14:28:46Z</time>
      </trkpt>
      <trkpt lat="44.44672" lon="7.10928">
        <ele>1418.4</ele>
        <time>2022-07-18T14:28:47Z</time>
      </trkpt>
      <trkpt lat="44.44671" lon="7.10926">
        <ele>1418.6</ele>
        <time>2022-07-18T14:28:48Z</time>
      </trkpt>
      <trkpt lat="44.44671" lon="7.10924">
        <ele>1418.6</ele>
        <time>2022-07-18T14:28:49Z</time>
      </trkpt>
      <trkpt lat="44.44671" lon="7.10921">
        <ele>1418.8</ele>
        <time>2022-07-18T14:28:50Z</time>
      </trkpt>
      <trkpt lat="44.44671" lon="7.10918">
        <ele>1418.8</ele>
        <time>2022-07-18T14:28:51Z</time>
      </trkpt>
      <trkpt lat="44.4467" lon="7.10915">
        <ele>1419.2</ele>
        <time>2022-07-18T14:28:52Z</time>
      </trkpt>
      <trkpt lat="44.4467" lon="7.10911">
        <ele>1419.2</ele>
        <time>2022-07-18T14:28:53Z</time>
      </trkpt>
      <trkpt lat="44.44669" lon="7.10908">
        <ele>1419.4</ele>
        <time>2022-07-18T14:28:54Z</time>
      </trkpt>
      <trkpt lat="44.44668" lon="7.10904">
        <ele>1419.4</ele>
        <time>2022-07-18T14:28:55Z</time>
      </trkpt>
      <trkpt lat="44.44668" lon="7.10901">
        <ele>1419.6</ele>
        <time>2022-07-18T14:28:56Z</time>
      </trkpt>
      <trkpt lat="44.44668" lon="7.10898">
        <ele>1419.6</ele>
        <time>2022-07-18T14:28:57Z</time>
      </trkpt>
      <trkpt lat="44.44667" lon="7.10894">
        <ele>1420</ele>
        <time>2022-07-18T14:28:58Z</time>
      </trkpt>
      <trkpt lat="44.44667" lon="7.10891">
        <ele>1420</ele>
        <time>2022-07-18T14:28:59Z</time>
      </trkpt>
      <trkpt lat="44.44667" lon="7.10888">
        <ele>1420.2</ele>
        <time>2022-07-18T14:29:00Z</time>
      </trkpt>
      <trkpt lat="44.44667" lon="7.10885">
        <ele>1420.2</ele>
        <time>2022-07-18T14:29:01Z</time>
      </trkpt>
      <trkpt lat="44.44666" lon="7.10882">
        <ele>1420.4</ele>
        <time>2022-07-18T14:29:02Z</time>
      </trkpt>
      <trkpt lat="44.44665" lon="7.10878">
        <ele>1420.4</ele>
        <time>2022-07-18T14:29:03Z</time>
      </trkpt>
      <trkpt lat="44.44665" lon="7.10876">
        <ele>1420.6</ele>
        <time>2022-07-18T14:29:04Z</time>
      </trkpt>
      <trkpt lat="44.44664" lon="7.10873">
        <ele>1421</ele>
        <time>2022-07-18T14:29:05Z</time>
      </trkpt>
      <trkpt lat="44.44663" lon="7.1087">
        <ele>1421.2</ele>
        <time>2022-07-18T14:29:06Z</time>
      </trkpt>
      <trkpt lat="44.44662" lon="7.10867">
        <ele>1421.4</ele>
        <time>2022-07-18T14:29:07Z</time>
      </trkpt>
      <trkpt lat="44.44661" lon="7.10864">
        <ele>1421.4</ele>
        <time>2022-07-18T14:29:08Z</time>
      </trkpt>
      <trkpt lat="44.44659" lon="7.10861">
        <ele>1421.8</ele>
        <time>2022-07-18T14:29:09Z</time>
      </trkpt>
      <trkpt lat="44.44659" lon="7.10858">
        <ele>1421.8</ele>
        <time>2022-07-18T14:29:10Z</time>
      </trkpt>
      <trkpt lat="44.44658" lon="7.10855">
        <ele>1422</ele>
        <time>2022-07-18T14:29:11Z</time>
      </trkpt>
      <trkpt lat="44.44656" lon="7.10853">
        <ele>1422</ele>
        <time>2022-07-18T14:29:12Z</time>
      </trkpt>
      <trkpt lat="44.44655" lon="7.10851">
        <ele>1422.4</ele>
        <time>2022-07-18T14:29:13Z</time>
      </trkpt>
      <trkpt lat="44.44653" lon="7.10848">
        <ele>1422.4</ele>
        <time>2022-07-18T14:29:14Z</time>
      </trkpt>
      <trkpt lat="44.44652" lon="7.10846">
        <ele>1422.6</ele>
        <time>2022-07-18T14:29:15Z</time>
      </trkpt>
      <trkpt lat="44.44651" lon="7.10844">
        <ele>1422.6</ele>
        <time>2022-07-18T14:29:16Z</time>
      </trkpt>
      <trkpt lat="44.4465" lon="7.10842">
        <ele>1422.8</ele>
        <time>2022-07-18T14:29:17Z</time>
      </trkpt>
      <trkpt lat="44.44649" lon="7.10839">
        <ele>1422.8</ele>
        <time>2022-07-18T14:29:18Z</time>
      </trkpt>
      <trkpt lat="44.44648" lon="7.10836">
        <ele>1423.2</ele>
        <time>2022-07-18T14:29:19Z</time>
      </trkpt>
      <trkpt lat="44.44647" lon="7.10834">
        <ele>1423.2</ele>
        <time>2022-07-18T14:29:20Z</time>
      </trkpt>
      <trkpt lat="44.44646" lon="7.10831">
        <ele>1423.4</ele>
        <time>2022-07-18T14:29:21Z</time>
      </trkpt>
      <trkpt lat="44.44646" lon="7.10828">
        <ele>1423.4</ele>
        <time>2022-07-18T14:29:22Z</time>
      </trkpt>
      <trkpt lat="44.44645" lon="7.10825">
        <ele>1423.8</ele>
        <time>2022-07-18T14:29:23Z</time>
      </trkpt>
      <trkpt lat="44.44644" lon="7.10822">
        <ele>1424</ele>
        <time>2022-07-18T14:29:24Z</time>
      </trkpt>
      <trkpt lat="44.44643" lon="7.10819">
        <ele>1424</ele>
        <time>2022-07-18T14:29:25Z</time>
      </trkpt>
      <trkpt lat="44.44643" lon="7.10816">
        <ele>1424.4</ele>
        <time>2022-07-18T14:29:26Z</time>
      </trkpt>
      <trkpt lat="44.44641" lon="7.10812">
        <ele>1424.6</ele>
        <time>2022-07-18T14:29:27Z</time>
      </trkpt>
      <trkpt lat="44.4464" lon="7.10809">
        <ele>1424.6</ele>
        <time>2022-07-18T14:29:28Z</time>
      </trkpt>
      <trkpt lat="44.44639" lon="7.10806">
        <ele>1424.8</ele>
        <time>2022-07-18T14:29:29Z</time>
      </trkpt>
      <trkpt lat="44.44639" lon="7.10803">
        <ele>1424.8</ele>
        <time>2022-07-18T14:29:30Z</time>
      </trkpt>
      <trkpt lat="44.44638" lon="7.108">
        <ele>1425.2</ele>
        <time>2022-07-18T14:29:31Z</time>
      </trkpt>
      <trkpt lat="44.44637" lon="7.10797">
        <ele>1425.2</ele>
        <time>2022-07-18T14:29:32Z</time>
      </trkpt>
      <trkpt lat="44.44637" lon="7.10794">
        <ele>1425.4</ele>
        <time>2022-07-18T14:29:33Z</time>
      </trkpt>
      <trkpt lat="44.44636" lon="7.10792">
        <ele>1425.4</ele>
        <time>2022-07-18T14:29:34Z</time>
      </trkpt>
      <trkpt lat="44.44635" lon="7.10789">
        <ele>1425.8</ele>
        <time>2022-07-18T14:29:35Z</time>
      </trkpt>
      <trkpt lat="44.44634" lon="7.10786">
        <ele>1425.8</ele>
        <time>2022-07-18T14:29:36Z</time>
      </trkpt>
      <trkpt lat="44.44633" lon="7.10783">
        <ele>1426.2</ele>
        <time>2022-07-18T14:29:37Z</time>
      </trkpt>
      <trkpt lat="44.44632" lon="7.1078">
        <ele>1426.2</ele>
        <time>2022-07-18T14:29:38Z</time>
      </trkpt>
      <trkpt lat="44.44632" lon="7.10778">
        <ele>1426.4</ele>
        <time>2022-07-18T14:29:39Z</time>
      </trkpt>
      <trkpt lat="44.44632" lon="7.10775">
        <ele>1426.4</ele>
        <time>2022-07-18T14:29:40Z</time>
      </trkpt>
      <trkpt lat="44.44632" lon="7.10772">
        <ele>1426.4</ele>
        <time>2022-07-18T14:29:41Z</time>
      </trkpt>
      <trkpt lat="44.44631" lon="7.10769">
        <ele>1426.8</ele>
        <time>2022-07-18T14:29:42Z</time>
      </trkpt>
      <trkpt lat="44.4463" lon="7.10766">
        <ele>1427</ele>
        <time>2022-07-18T14:29:43Z</time>
      </trkpt>
      <trkpt lat="44.44629" lon="7.10764">
        <ele>1427</ele>
        <time>2022-07-18T14:29:44Z</time>
      </trkpt>
      <trkpt lat="44.44629" lon="7.10761">
        <ele>1427.4</ele>
        <time>2022-07-18T14:29:45Z</time>
      </trkpt>
      <trkpt lat="44.44629" lon="7.10759">
        <ele>1427.6</ele>
        <time>2022-07-18T14:29:46Z</time>
      </trkpt>
      <trkpt lat="44.44629" lon="7.10757">
        <ele>1427.6</ele>
        <time>2022-07-18T14:29:47Z</time>
      </trkpt>
      <trkpt lat="44.44628" lon="7.10755">
        <ele>1427.8</ele>
        <time>2022-07-18T14:29:48Z</time>
      </trkpt>
      <trkpt lat="44.44628" lon="7.10753">
        <ele>1427.8</ele>
        <time>2022-07-18T14:29:49Z</time>
      </trkpt>
      <trkpt lat="44.44627" lon="7.10751">
        <ele>1428.2</ele>
        <time>2022-07-18T14:29:50Z</time>
      </trkpt>
      <trkpt lat="44.44626" lon="7.10748">
        <ele>1428.4</ele>
        <time>2022-07-18T14:29:51Z</time>
      </trkpt>
      <trkpt lat="44.44625" lon="7.10746">
        <ele>1428.4</ele>
        <time>2022-07-18T14:29:52Z</time>
      </trkpt>
      <trkpt lat="44.44625" lon="7.10743">
        <ele>1428.6</ele>
        <time>2022-07-18T14:29:53Z</time>
      </trkpt>
      <trkpt lat="44.44624" lon="7.1074">
        <ele>1428.8</ele>
        <time>2022-07-18T14:29:54Z</time>
      </trkpt>
      <trkpt lat="44.44624" lon="7.10737">
        <ele>1428.8</ele>
        <time>2022-07-18T14:29:55Z</time>
      </trkpt>
      <trkpt lat="44.44624" lon="7.10734">
        <ele>1429.2</ele>
        <time>2022-07-18T14:29:56Z</time>
      </trkpt>
      <trkpt lat="44.44623" lon="7.10731">
        <ele>1429.2</ele>
        <time>2022-07-18T14:29:57Z</time>
      </trkpt>
      <trkpt lat="44.44623" lon="7.10729">
        <ele>1429.6</ele>
        <time>2022-07-18T14:29:58Z</time>
      </trkpt>
      <trkpt lat="44.44622" lon="7.10726">
        <ele>1429.6</ele>
        <time>2022-07-18T14:29:59Z</time>
      </trkpt>
      <trkpt lat="44.44622" lon="7.10724">
        <ele>1429.8</ele>
        <time>2022-07-18T14:30:00Z</time>
      </trkpt>
      <trkpt lat="44.44621" lon="7.10722">
        <ele>1429.8</ele>
        <time>2022-07-18T14:30:01Z</time>
      </trkpt>
      <trkpt lat="44.4462" lon="7.10719">
        <ele>1430.2</ele>
        <time>2022-07-18T14:30:02Z</time>
      </trkpt>
      <trkpt lat="44.44619" lon="7.10717">
        <ele>1430.2</ele>
        <time>2022-07-18T14:30:03Z</time>
      </trkpt>
      <trkpt lat="44.44619" lon="7.10715">
        <ele>1430.4</ele>
        <time>2022-07-18T14:30:04Z</time>
      </trkpt>
      <trkpt lat="44.44618" lon="7.10712">
        <ele>1430.4</ele>
        <time>2022-07-18T14:30:05Z</time>
      </trkpt>
      <trkpt lat="44.44618" lon="7.1071">
        <ele>1430.6</ele>
        <time>2022-07-18T14:30:06Z</time>
      </trkpt>
      <trkpt lat="44.44617" lon="7.10707">
        <ele>1430.6</ele>
        <time>2022-07-18T14:30:07Z</time>
      </trkpt>
      <trkpt lat="44.44616" lon="7.10704">
        <ele>1431</ele>
        <time>2022-07-18T14:30:08Z</time>
      </trkpt>
      <trkpt lat="44.44615" lon="7.10702">
        <ele>1431</ele>
        <time>2022-07-18T14:30:09Z</time>
      </trkpt>
      <trkpt lat="44.44615" lon="7.10699">
        <ele>1431.2</ele>
        <time>2022-07-18T14:30:10Z</time>
      </trkpt>
      <trkpt lat="44.44614" lon="7.10697">
        <ele>1431.2</ele>
        <time>2022-07-18T14:30:11Z</time>
      </trkpt>
      <trkpt lat="44.44613" lon="7.10694">
        <ele>1431.6</ele>
        <time>2022-07-18T14:30:12Z</time>
      </trkpt>
      <trkpt lat="44.44612" lon="7.10691">
        <ele>1431.6</ele>
        <time>2022-07-18T14:30:13Z</time>
      </trkpt>
      <trkpt lat="44.44611" lon="7.10689">
        <ele>1431.8</ele>
        <time>2022-07-18T14:30:14Z</time>
      </trkpt>
      <trkpt lat="44.44611" lon="7.10687">
        <ele>1431.8</ele>
        <time>2022-07-18T14:30:15Z</time>
      </trkpt>
      <trkpt lat="44.4461" lon="7.10685">
        <ele>1432</ele>
        <time>2022-07-18T14:30:16Z</time>
      </trkpt>
      <trkpt lat="44.44609" lon="7.10683">
        <ele>1432</ele>
        <time>2022-07-18T14:30:17Z</time>
      </trkpt>
      <trkpt lat="44.44608" lon="7.10681">
        <ele>1432.4</ele>
        <time>2022-07-18T14:30:18Z</time>
      </trkpt>
      <trkpt lat="44.44607" lon="7.10678">
        <ele>1432.4</ele>
        <time>2022-07-18T14:30:19Z</time>
      </trkpt>
      <trkpt lat="44.44606" lon="7.10676">
        <ele>1432.6</ele>
        <time>2022-07-18T14:30:20Z</time>
      </trkpt>
      <trkpt lat="44.44605" lon="7.10675">
        <ele>1432.8</ele>
        <time>2022-07-18T14:30:21Z</time>
      </trkpt>
      <trkpt lat="44.44604" lon="7.10673">
        <ele>1432.8</ele>
        <time>2022-07-18T14:30:22Z</time>
      </trkpt>
      <trkpt lat="44.44602" lon="7.10671">
        <ele>1433.2</ele>
        <time>2022-07-18T14:30:23Z</time>
      </trkpt>
      <trkpt lat="44.44601" lon="7.1067">
        <ele>1433.2</ele>
        <time>2022-07-18T14:30:24Z</time>
      </trkpt>
      <trkpt lat="44.44599" lon="7.10668">
        <ele>1433.4</ele>
        <time>2022-07-18T14:30:25Z</time>
      </trkpt>
      <trkpt lat="44.44598" lon="7.10666">
        <ele>1433.4</ele>
        <time>2022-07-18T14:30:26Z</time>
      </trkpt>
      <trkpt lat="44.44597" lon="7.10664">
        <ele>1433.8</ele>
        <time>2022-07-18T14:30:27Z</time>
      </trkpt>
      <trkpt lat="44.44595" lon="7.10662">
        <ele>1433.8</ele>
        <time>2022-07-18T14:30:28Z</time>
      </trkpt>
      <trkpt lat="44.44593" lon="7.1066">
        <ele>1434</ele>
        <time>2022-07-18T14:30:29Z</time>
      </trkpt>
      <trkpt lat="44.44592" lon="7.10658">
        <ele>1434</ele>
        <time>2022-07-18T14:30:30Z</time>
      </trkpt>
      <trkpt lat="44.4459" lon="7.10657">
        <ele>1434.4</ele>
        <time>2022-07-18T14:30:31Z</time>
      </trkpt>
      <trkpt lat="44.44588" lon="7.10654">
        <ele>1434.4</ele>
        <time>2022-07-18T14:30:32Z</time>
      </trkpt>
      <trkpt lat="44.44586" lon="7.10652">
        <ele>1434.6</ele>
        <time>2022-07-18T14:30:33Z</time>
      </trkpt>
      <trkpt lat="44.44584" lon="7.10649">
        <ele>1435</ele>
        <time>2022-07-18T14:30:35Z</time>
      </trkpt>
      <trkpt lat="44.44582" lon="7.10647">
        <ele>1435</ele>
        <time>2022-07-18T14:30:36Z</time>
      </trkpt>
      <trkpt lat="44.4458" lon="7.10645">
        <ele>1435.2</ele>
        <time>2022-07-18T14:30:37Z</time>
      </trkpt>
      <trkpt lat="44.44577" lon="7.10641">
        <ele>1435.2</ele>
        <time>2022-07-18T14:30:38Z</time>
      </trkpt>
      <trkpt lat="44.44576" lon="7.10638">
        <ele>1435.6</ele>
        <time>2022-07-18T14:30:39Z</time>
      </trkpt>
      <trkpt lat="44.44575" lon="7.10635">
        <ele>1435.6</ele>
        <time>2022-07-18T14:30:40Z</time>
      </trkpt>
      <trkpt lat="44.44573" lon="7.10632">
        <ele>1435.8</ele>
        <time>2022-07-18T14:30:41Z</time>
      </trkpt>
      <trkpt lat="44.44572" lon="7.10629">
        <ele>1435.8</ele>
        <time>2022-07-18T14:30:42Z</time>
      </trkpt>
      <trkpt lat="44.4457" lon="7.10628">
        <ele>1436</ele>
        <time>2022-07-18T14:30:43Z</time>
      </trkpt>
      <trkpt lat="44.44569" lon="7.10626">
        <ele>1436</ele>
        <time>2022-07-18T14:30:44Z</time>
      </trkpt>
      <trkpt lat="44.44568" lon="7.10624">
        <ele>1436.4</ele>
        <time>2022-07-18T14:30:45Z</time>
      </trkpt>
      <trkpt lat="44.44567" lon="7.10622">
        <ele>1436.4</ele>
        <time>2022-07-18T14:30:46Z</time>
      </trkpt>
      <trkpt lat="44.44567" lon="7.10619">
        <ele>1436.4</ele>
        <time>2022-07-18T14:30:47Z</time>
      </trkpt>
      <trkpt lat="44.44565" lon="7.10617">
        <ele>1436.6</ele>
        <time>2022-07-18T14:30:48Z</time>
      </trkpt>
      <trkpt lat="44.44564" lon="7.10614">
        <ele>1436.6</ele>
        <time>2022-07-18T14:30:49Z</time>
      </trkpt>
      <trkpt lat="44.44562" lon="7.10612">
        <ele>1437</ele>
        <time>2022-07-18T14:30:50Z</time>
      </trkpt>
      <trkpt lat="44.44561" lon="7.10611">
        <ele>1437</ele>
        <time>2022-07-18T14:30:51Z</time>
      </trkpt>
      <trkpt lat="44.44559" lon="7.10609">
        <ele>1437.4</ele>
        <time>2022-07-18T14:30:52Z</time>
      </trkpt>
      <trkpt lat="44.44558" lon="7.10607">
        <ele>1437.4</ele>
        <time>2022-07-18T14:30:53Z</time>
      </trkpt>
      <trkpt lat="44.44555" lon="7.10605">
        <ele>1437.6</ele>
        <time>2022-07-18T14:30:54Z</time>
      </trkpt>
      <trkpt lat="44.44553" lon="7.10603">
        <ele>1437.6</ele>
        <time>2022-07-18T14:30:55Z</time>
      </trkpt>
      <trkpt lat="44.44551" lon="7.106">
        <ele>1437.8</ele>
        <time>2022-07-18T14:30:56Z</time>
      </trkpt>
      <trkpt lat="44.44549" lon="7.10598">
        <ele>1437.8</ele>
        <time>2022-07-18T14:30:57Z</time>
      </trkpt>
      <trkpt lat="44.44547" lon="7.10596">
        <ele>1438.2</ele>
        <time>2022-07-18T14:30:58Z</time>
      </trkpt>
      <trkpt lat="44.44545" lon="7.10594">
        <ele>1438.2</ele>
        <time>2022-07-18T14:30:59Z</time>
      </trkpt>
      <trkpt lat="44.44544" lon="7.10592">
        <ele>1438.6</ele>
        <time>2022-07-18T14:31:00Z</time>
      </trkpt>
      <trkpt lat="44.44541" lon="7.10591">
        <ele>1438.8</ele>
        <time>2022-07-18T14:31:01Z</time>
      </trkpt>
      <trkpt lat="44.4454" lon="7.1059">
        <ele>1438.8</ele>
        <time>2022-07-18T14:31:02Z</time>
      </trkpt>
      <trkpt lat="44.44538" lon="7.10589">
        <ele>1439.2</ele>
        <time>2022-07-18T14:31:03Z</time>
      </trkpt>
      <trkpt lat="44.44536" lon="7.10588">
        <ele>1439.2</ele>
        <time>2022-07-18T14:31:04Z</time>
      </trkpt>
      <trkpt lat="44.44534" lon="7.10586">
        <ele>1439.4</ele>
        <time>2022-07-18T14:31:05Z</time>
      </trkpt>
      <trkpt lat="44.44532" lon="7.10585">
        <ele>1439.6</ele>
        <time>2022-07-18T14:31:06Z</time>
      </trkpt>
      <trkpt lat="44.4453" lon="7.10584">
        <ele>1439.6</ele>
        <time>2022-07-18T14:31:07Z</time>
      </trkpt>
      <trkpt lat="44.44528" lon="7.10584">
        <ele>1440</ele>
        <time>2022-07-18T14:31:08Z</time>
      </trkpt>
      <trkpt lat="44.44525" lon="7.10583">
        <ele>1440</ele>
        <time>2022-07-18T14:31:09Z</time>
      </trkpt>
      <trkpt lat="44.44523" lon="7.10583">
        <ele>1440.4</ele>
        <time>2022-07-18T14:31:10Z</time>
      </trkpt>
      <trkpt lat="44.44521" lon="7.10583">
        <ele>1440.4</ele>
        <time>2022-07-18T14:31:11Z</time>
      </trkpt>
      <trkpt lat="44.44519" lon="7.10582">
        <ele>1440.6</ele>
        <time>2022-07-18T14:31:12Z</time>
      </trkpt>
      <trkpt lat="44.44516" lon="7.10583">
        <ele>1440.6</ele>
        <time>2022-07-18T14:31:13Z</time>
      </trkpt>
      <trkpt lat="44.44514" lon="7.10583">
        <ele>1440.8</ele>
        <time>2022-07-18T14:31:14Z</time>
      </trkpt>
      <trkpt lat="44.44512" lon="7.10583">
        <ele>1440.8</ele>
        <time>2022-07-18T14:31:15Z</time>
      </trkpt>
      <trkpt lat="44.4451" lon="7.10583">
        <ele>1441.2</ele>
        <time>2022-07-18T14:31:16Z</time>
      </trkpt>
      <trkpt lat="44.44508" lon="7.10584">
        <ele>1441.2</ele>
        <time>2022-07-18T14:31:17Z</time>
      </trkpt>
      <trkpt lat="44.44505" lon="7.10585">
        <ele>1441.6</ele>
        <time>2022-07-18T14:31:18Z</time>
      </trkpt>
      <trkpt lat="44.44503" lon="7.10585">
        <ele>1441.6</ele>
        <time>2022-07-18T14:31:19Z</time>
      </trkpt>
      <trkpt lat="44.44501" lon="7.10585">
        <ele>1442</ele>
        <time>2022-07-18T14:31:20Z</time>
      </trkpt>
      <trkpt lat="44.44499" lon="7.10586">
        <ele>1442.2</ele>
        <time>2022-07-18T14:31:21Z</time>
      </trkpt>
      <trkpt lat="44.44497" lon="7.10586">
        <ele>1442.2</ele>
        <time>2022-07-18T14:31:22Z</time>
      </trkpt>
      <trkpt lat="44.44495" lon="7.10586">
        <ele>1442.4</ele>
        <time>2022-07-18T14:31:23Z</time>
      </trkpt>
      <trkpt lat="44.44493" lon="7.10586">
        <ele>1442.6</ele>
        <time>2022-07-18T14:31:24Z</time>
      </trkpt>
      <trkpt lat="44.4449" lon="7.10587">
        <ele>1442.6</ele>
        <time>2022-07-18T14:31:25Z</time>
      </trkpt>
      <trkpt lat="44.44488" lon="7.10587">
        <ele>1443</ele>
        <time>2022-07-18T14:31:26Z</time>
      </trkpt>
      <trkpt lat="44.44486" lon="7.10587">
        <ele>1443</ele>
        <time>2022-07-18T14:31:27Z</time>
      </trkpt>
      <trkpt lat="44.44484" lon="7.10587">
        <ele>1443.4</ele>
        <time>2022-07-18T14:31:28Z</time>
      </trkpt>
      <trkpt lat="44.44482" lon="7.10588">
        <ele>1443.4</ele>
        <time>2022-07-18T14:31:29Z</time>
      </trkpt>
      <trkpt lat="44.4448" lon="7.10589">
        <ele>1443.6</ele>
        <time>2022-07-18T14:31:30Z</time>
      </trkpt>
      <trkpt lat="44.44478" lon="7.10589">
        <ele>1443.8</ele>
        <time>2022-07-18T14:31:31Z</time>
      </trkpt>
      <trkpt lat="44.44476" lon="7.1059">
        <ele>1443.8</ele>
        <time>2022-07-18T14:31:32Z</time>
      </trkpt>
      <trkpt lat="44.44474" lon="7.1059">
        <ele>1444.2</ele>
        <time>2022-07-18T14:31:33Z</time>
      </trkpt>
      <trkpt lat="44.44472" lon="7.1059">
        <ele>1444.2</ele>
        <time>2022-07-18T14:31:34Z</time>
      </trkpt>
      <trkpt lat="44.4447" lon="7.1059">
        <ele>1444.4</ele>
        <time>2022-07-18T14:31:35Z</time>
      </trkpt>
      <trkpt lat="44.44468" lon="7.1059">
        <ele>1444.4</ele>
        <time>2022-07-18T14:31:36Z</time>
      </trkpt>
      <trkpt lat="44.44466" lon="7.10589">
        <ele>1444.8</ele>
        <time>2022-07-18T14:31:37Z</time>
      </trkpt>
      <trkpt lat="44.44464" lon="7.10589">
        <ele>1444.8</ele>
        <time>2022-07-18T14:31:38Z</time>
      </trkpt>
      <trkpt lat="44.44462" lon="7.10589">
        <ele>1445</ele>
        <time>2022-07-18T14:31:39Z</time>
      </trkpt>
      <trkpt lat="44.44461" lon="7.10588">
        <ele>1445</ele>
        <time>2022-07-18T14:31:40Z</time>
      </trkpt>
      <trkpt lat="44.44458" lon="7.10588">
        <ele>1445.2</ele>
        <time>2022-07-18T14:31:41Z</time>
      </trkpt>
      <trkpt lat="44.44456" lon="7.10588">
        <ele>1445.2</ele>
        <time>2022-07-18T14:31:42Z</time>
      </trkpt>
      <trkpt lat="44.44454" lon="7.10588">
        <ele>1445.6</ele>
        <time>2022-07-18T14:31:43Z</time>
      </trkpt>
      <trkpt lat="44.44452" lon="7.10587">
        <ele>1445.6</ele>
        <time>2022-07-18T14:31:44Z</time>
      </trkpt>
      <trkpt lat="44.4445" lon="7.10587">
        <ele>1445.8</ele>
        <time>2022-07-18T14:31:45Z</time>
      </trkpt>
      <trkpt lat="44.44448" lon="7.10586">
        <ele>1445.8</ele>
        <time>2022-07-18T14:31:46Z</time>
      </trkpt>
      <trkpt lat="44.44446" lon="7.10586">
        <ele>1446</ele>
        <time>2022-07-18T14:31:47Z</time>
      </trkpt>
      <trkpt lat="44.44443" lon="7.10586">
        <ele>1446</ele>
        <time>2022-07-18T14:31:48Z</time>
      </trkpt>
      <trkpt lat="44.44441" lon="7.10585">
        <ele>1446</ele>
        <time>2022-07-18T14:31:49Z</time>
      </trkpt>
      <trkpt lat="44.44439" lon="7.10585">
        <ele>1446.2</ele>
        <time>2022-07-18T14:31:50Z</time>
      </trkpt>
      <trkpt lat="44.44437" lon="7.10584">
        <ele>1446.2</ele>
        <time>2022-07-18T14:31:51Z</time>
      </trkpt>
      <trkpt lat="44.44435" lon="7.10584">
        <ele>1446.6</ele>
        <time>2022-07-18T14:31:52Z</time>
      </trkpt>
      <trkpt lat="44.44433" lon="7.10583">
        <ele>1446.6</ele>
        <time>2022-07-18T14:31:53Z</time>
      </trkpt>
      <trkpt lat="44.44431" lon="7.10584">
        <ele>1446.8</ele>
        <time>2022-07-18T14:31:54Z</time>
      </trkpt>
      <trkpt lat="44.44429" lon="7.10585">
        <ele>1446.8</ele>
        <time>2022-07-18T14:31:55Z</time>
      </trkpt>
      <trkpt lat="44.44427" lon="7.10585">
        <ele>1447.2</ele>
        <time>2022-07-18T14:31:56Z</time>
      </trkpt>
      <trkpt lat="44.44425" lon="7.10585">
        <ele>1447.2</ele>
        <time>2022-07-18T14:31:57Z</time>
      </trkpt>
      <trkpt lat="44.44423" lon="7.10585">
        <ele>1447.6</ele>
        <time>2022-07-18T14:31:58Z</time>
      </trkpt>
      <trkpt lat="44.44421" lon="7.10585">
        <ele>1447.6</ele>
        <time>2022-07-18T14:31:59Z</time>
      </trkpt>
      <trkpt lat="44.44419" lon="7.10585">
        <ele>1447.8</ele>
        <time>2022-07-18T14:32:00Z</time>
      </trkpt>
      <trkpt lat="44.44417" lon="7.10585">
        <ele>1447.8</ele>
        <time>2022-07-18T14:32:01Z</time>
      </trkpt>
      <trkpt lat="44.44414" lon="7.10586">
        <ele>1448</ele>
        <time>2022-07-18T14:32:02Z</time>
      </trkpt>
      <trkpt lat="44.44412" lon="7.10586">
        <ele>1448</ele>
        <time>2022-07-18T14:32:03Z</time>
      </trkpt>
      <trkpt lat="44.4441" lon="7.10587">
        <ele>1448.4</ele>
        <time>2022-07-18T14:32:04Z</time>
      </trkpt>
      <trkpt lat="44.44407" lon="7.10587">
        <ele>1448.4</ele>
        <time>2022-07-18T14:32:05Z</time>
      </trkpt>
      <trkpt lat="44.44405" lon="7.10588">
        <ele>1448.8</ele>
        <time>2022-07-18T14:32:06Z</time>
      </trkpt>
      <trkpt lat="44.44403" lon="7.10588">
        <ele>1448.8</ele>
        <time>2022-07-18T14:32:07Z</time>
      </trkpt>
      <trkpt lat="44.44401" lon="7.10588">
        <ele>1448.8</ele>
        <time>2022-07-18T14:32:08Z</time>
      </trkpt>
      <trkpt lat="44.44399" lon="7.10588">
        <ele>1449.2</ele>
        <time>2022-07-18T14:32:09Z</time>
      </trkpt>
      <trkpt lat="44.44397" lon="7.10589">
        <ele>1449.2</ele>
        <time>2022-07-18T14:32:10Z</time>
      </trkpt>
      <trkpt lat="44.44395" lon="7.1059">
        <ele>1449.4</ele>
        <time>2022-07-18T14:32:11Z</time>
      </trkpt>
      <trkpt lat="44.44393" lon="7.10591">
        <ele>1449.4</ele>
        <time>2022-07-18T14:32:12Z</time>
      </trkpt>
      <trkpt lat="44.4439" lon="7.10592">
        <ele>1449.8</ele>
        <time>2022-07-18T14:32:13Z</time>
      </trkpt>
      <trkpt lat="44.44388" lon="7.10593">
        <ele>1450</ele>
        <time>2022-07-18T14:32:14Z</time>
      </trkpt>
      <trkpt lat="44.44386" lon="7.10594">
        <ele>1450</ele>
        <time>2022-07-18T14:32:15Z</time>
      </trkpt>
      <trkpt lat="44.44384" lon="7.10595">
        <ele>1450.2</ele>
        <time>2022-07-18T14:32:16Z</time>
      </trkpt>
      <trkpt lat="44.44381" lon="7.10597">
        <ele>1450.2</ele>
        <time>2022-07-18T14:32:17Z</time>
      </trkpt>
      <trkpt lat="44.44379" lon="7.10599">
        <ele>1450.8</ele>
        <time>2022-07-18T14:32:18Z</time>
      </trkpt>
      <trkpt lat="44.44377" lon="7.10601">
        <ele>1450.8</ele>
        <time>2022-07-18T14:32:19Z</time>
      </trkpt>
      <trkpt lat="44.44375" lon="7.10602">
        <ele>1451</ele>
        <time>2022-07-18T14:32:20Z</time>
      </trkpt>
      <trkpt lat="44.44373" lon="7.10604">
        <ele>1451</ele>
        <time>2022-07-18T14:32:21Z</time>
      </trkpt>
      <trkpt lat="44.44371" lon="7.10606">
        <ele>1451.2</ele>
        <time>2022-07-18T14:32:22Z</time>
      </trkpt>
      <trkpt lat="44.44369" lon="7.10609">
        <ele>1451.2</ele>
        <time>2022-07-18T14:32:23Z</time>
      </trkpt>
      <trkpt lat="44.44366" lon="7.10611">
        <ele>1451.2</ele>
        <time>2022-07-18T14:32:24Z</time>
      </trkpt>
      <trkpt lat="44.44364" lon="7.10614">
        <ele>1451.6</ele>
        <time>2022-07-18T14:32:25Z</time>
      </trkpt>
      <trkpt lat="44.44362" lon="7.10617">
        <ele>1451.6</ele>
        <time>2022-07-18T14:32:26Z</time>
      </trkpt>
      <trkpt lat="44.4436" lon="7.1062">
        <ele>1451.8</ele>
        <time>2022-07-18T14:32:27Z</time>
      </trkpt>
      <trkpt lat="44.44359" lon="7.10623">
        <ele>1451.8</ele>
        <time>2022-07-18T14:32:28Z</time>
      </trkpt>
      <trkpt lat="44.44357" lon="7.10625">
        <ele>1452</ele>
        <time>2022-07-18T14:32:29Z</time>
      </trkpt>
      <trkpt lat="44.44356" lon="7.10628">
        <ele>1452</ele>
        <time>2022-07-18T14:32:30Z</time>
      </trkpt>
      <trkpt lat="44.44354" lon="7.1063">
        <ele>1452.4</ele>
        <time>2022-07-18T14:32:31Z</time>
      </trkpt>
      <trkpt lat="44.44353" lon="7.10633">
        <ele>1452.4</ele>
        <time>2022-07-18T14:32:32Z</time>
      </trkpt>
      <trkpt lat="44.44352" lon="7.10636">
        <ele>1452.8</ele>
        <time>2022-07-18T14:32:33Z</time>
      </trkpt>
      <trkpt lat="44.4435" lon="7.10638">
        <ele>1452.8</ele>
        <time>2022-07-18T14:32:34Z</time>
      </trkpt>
      <trkpt lat="44.44349" lon="7.10641">
        <ele>1453</ele>
        <time>2022-07-18T14:32:35Z</time>
      </trkpt>
      <trkpt lat="44.44348" lon="7.10643">
        <ele>1453</ele>
        <time>2022-07-18T14:32:36Z</time>
      </trkpt>
      <trkpt lat="44.44346" lon="7.10645">
        <ele>1453.4</ele>
        <time>2022-07-18T14:32:37Z</time>
      </trkpt>
      <trkpt lat="44.44345" lon="7.10647">
        <ele>1453.4</ele>
        <time>2022-07-18T14:32:38Z</time>
      </trkpt>
      <trkpt lat="44.44343" lon="7.10649">
        <ele>1453.6</ele>
        <time>2022-07-18T14:32:39Z</time>
      </trkpt>
      <trkpt lat="44.44341" lon="7.10651">
        <ele>1453.6</ele>
        <time>2022-07-18T14:32:40Z</time>
      </trkpt>
      <trkpt lat="44.4434" lon="7.10654">
        <ele>1453.8</ele>
        <time>2022-07-18T14:32:41Z</time>
      </trkpt>
      <trkpt lat="44.44339" lon="7.10656">
        <ele>1453.8</ele>
        <time>2022-07-18T14:32:42Z</time>
      </trkpt>
      <trkpt lat="44.44337" lon="7.10657">
        <ele>1453.8</ele>
        <time>2022-07-18T14:32:43Z</time>
      </trkpt>
      <trkpt lat="44.44336" lon="7.10659">
        <ele>1454.2</ele>
        <time>2022-07-18T14:32:44Z</time>
      </trkpt>
      <trkpt lat="44.44334" lon="7.1066">
        <ele>1454.2</ele>
        <time>2022-07-18T14:32:45Z</time>
      </trkpt>
      <trkpt lat="44.44332" lon="7.10661">
        <ele>1454.4</ele>
        <time>2022-07-18T14:32:46Z</time>
      </trkpt>
      <trkpt lat="44.44331" lon="7.10663">
        <ele>1454.4</ele>
        <time>2022-07-18T14:32:47Z</time>
      </trkpt>
      <trkpt lat="44.44329" lon="7.10664">
        <ele>1454.8</ele>
        <time>2022-07-18T14:32:48Z</time>
      </trkpt>
      <trkpt lat="44.44328" lon="7.10664">
        <ele>1454.8</ele>
        <time>2022-07-18T14:32:49Z</time>
      </trkpt>
      <trkpt lat="44.44326" lon="7.10665">
        <ele>1455</ele>
        <time>2022-07-18T14:32:50Z</time>
      </trkpt>
      <trkpt lat="44.44324" lon="7.10665">
        <ele>1455</ele>
        <time>2022-07-18T14:32:51Z</time>
      </trkpt>
      <trkpt lat="44.44322" lon="7.10666">
        <ele>1455.4</ele>
        <time>2022-07-18T14:32:52Z</time>
      </trkpt>
      <trkpt lat="44.4432" lon="7.10666">
        <ele>1455.4</ele>
        <time>2022-07-18T14:32:53Z</time>
      </trkpt>
      <trkpt lat="44.44319" lon="7.10665">
        <ele>1455.8</ele>
        <time>2022-07-18T14:32:54Z</time>
      </trkpt>
      <trkpt lat="44.44317" lon="7.10665">
        <ele>1455.8</ele>
        <time>2022-07-18T14:32:55Z</time>
      </trkpt>
      <trkpt lat="44.44316" lon="7.10664">
        <ele>1456</ele>
        <time>2022-07-18T14:32:56Z</time>
      </trkpt>
      <trkpt lat="44.44315" lon="7.10663">
        <ele>1456</ele>
        <time>2022-07-18T14:32:57Z</time>
      </trkpt>
      <trkpt lat="44.44313" lon="7.10662">
        <ele>1456.4</ele>
        <time>2022-07-18T14:32:58Z</time>
      </trkpt>
      <trkpt lat="44.44312" lon="7.10661">
        <ele>1456.4</ele>
        <time>2022-07-18T14:32:59Z</time>
      </trkpt>
      <trkpt lat="44.4431" lon="7.10659">
        <ele>1456.6</ele>
        <time>2022-07-18T14:33:00Z</time>
      </trkpt>
      <trkpt lat="44.44309" lon="7.10658">
        <ele>1456.6</ele>
        <time>2022-07-18T14:33:01Z</time>
      </trkpt>
      <trkpt lat="44.44308" lon="7.10656">
        <ele>1456.8</ele>
        <time>2022-07-18T14:33:02Z</time>
      </trkpt>
      <trkpt lat="44.44307" lon="7.10653">
        <ele>1456.8</ele>
        <time>2022-07-18T14:33:03Z</time>
      </trkpt>
      <trkpt lat="44.44306" lon="7.10651">
        <ele>1457.2</ele>
        <time>2022-07-18T14:33:04Z</time>
      </trkpt>
      <trkpt lat="44.44305" lon="7.10649">
        <ele>1457.2</ele>
        <time>2022-07-18T14:33:05Z</time>
      </trkpt>
      <trkpt lat="44.44304" lon="7.10647">
        <ele>1457.2</ele>
        <time>2022-07-18T14:33:06Z</time>
      </trkpt>
      <trkpt lat="44.44303" lon="7.10643">
        <ele>1457.2</ele>
        <time>2022-07-18T14:33:07Z</time>
      </trkpt>
      <trkpt lat="44.44301" lon="7.1064">
        <ele>1457.4</ele>
        <time>2022-07-18T14:33:08Z</time>
      </trkpt>
      <trkpt lat="44.44301" lon="7.10638">
        <ele>1457.4</ele>
        <time>2022-07-18T14:33:09Z</time>
      </trkpt>
      <trkpt lat="44.443" lon="7.10635">
        <ele>1457.6</ele>
        <time>2022-07-18T14:33:10Z</time>
      </trkpt>
      <trkpt lat="44.443" lon="7.10633">
        <ele>1457.6</ele>
        <time>2022-07-18T14:33:11Z</time>
      </trkpt>
      <trkpt lat="44.443" lon="7.10631">
        <ele>1458</ele>
        <time>2022-07-18T14:33:12Z</time>
      </trkpt>
      <trkpt lat="44.44299" lon="7.10628">
        <ele>1458</ele>
        <time>2022-07-18T14:33:13Z</time>
      </trkpt>
      <trkpt lat="44.44299" lon="7.10625">
        <ele>1458.4</ele>
        <time>2022-07-18T14:33:14Z</time>
      </trkpt>
      <trkpt lat="44.443" lon="7.10622">
        <ele>1458.4</ele>
        <time>2022-07-18T14:33:15Z</time>
      </trkpt>
      <trkpt lat="44.44299" lon="7.10619">
        <ele>1458.6</ele>
        <time>2022-07-18T14:33:16Z</time>
      </trkpt>
      <trkpt lat="44.44298" lon="7.10617">
        <ele>1458.6</ele>
        <time>2022-07-18T14:33:17Z</time>
      </trkpt>
      <trkpt lat="44.44298" lon="7.10614">
        <ele>1459</ele>
        <time>2022-07-18T14:33:18Z</time>
      </trkpt>
      <trkpt lat="44.44298" lon="7.10611">
        <ele>1459</ele>
        <time>2022-07-18T14:33:19Z</time>
      </trkpt>
      <trkpt lat="44.44297" lon="7.10609">
        <ele>1459.4</ele>
        <time>2022-07-18T14:33:20Z</time>
      </trkpt>
      <trkpt lat="44.44297" lon="7.10606">
        <ele>1459.8</ele>
        <time>2022-07-18T14:33:21Z</time>
      </trkpt>
      <trkpt lat="44.44297" lon="7.10604">
        <ele>1460</ele>
        <time>2022-07-18T14:33:22Z</time>
      </trkpt>
      <trkpt lat="44.44296" lon="7.10601">
        <ele>1460</ele>
        <time>2022-07-18T14:33:23Z</time>
      </trkpt>
      <trkpt lat="44.44296" lon="7.10598">
        <ele>1460.4</ele>
        <time>2022-07-18T14:33:24Z</time>
      </trkpt>
      <trkpt lat="44.44296" lon="7.10594">
        <ele>1460.6</ele>
        <time>2022-07-18T14:33:25Z</time>
      </trkpt>
      <trkpt lat="44.44296" lon="7.10591">
        <ele>1460.8</ele>
        <time>2022-07-18T14:33:26Z</time>
      </trkpt>
      <trkpt lat="44.44296" lon="7.10588">
        <ele>1461</ele>
        <time>2022-07-18T14:33:27Z</time>
      </trkpt>
      <trkpt lat="44.44296" lon="7.10584">
        <ele>1461.4</ele>
        <time>2022-07-18T14:33:28Z</time>
      </trkpt>
      <trkpt lat="44.44295" lon="7.1058">
        <ele>1461.4</ele>
        <time>2022-07-18T14:33:29Z</time>
      </trkpt>
      <trkpt lat="44.44295" lon="7.10578">
        <ele>1461.6</ele>
        <time>2022-07-18T14:33:30Z</time>
      </trkpt>
      <trkpt lat="44.44295" lon="7.10575">
        <ele>1461.6</ele>
        <time>2022-07-18T14:33:31Z</time>
      </trkpt>
      <trkpt lat="44.44294" lon="7.10573">
        <ele>1462</ele>
        <time>2022-07-18T14:33:32Z</time>
      </trkpt>
      <trkpt lat="44.44294" lon="7.1057">
        <ele>1462</ele>
        <time>2022-07-18T14:33:33Z</time>
      </trkpt>
      <trkpt lat="44.44294" lon="7.10567">
        <ele>1462.4</ele>
        <time>2022-07-18T14:33:34Z</time>
      </trkpt>
      <trkpt lat="44.44293" lon="7.10564">
        <ele>1462.6</ele>
        <time>2022-07-18T14:33:35Z</time>
      </trkpt>
      <trkpt lat="44.44292" lon="7.10562">
        <ele>1462.6</ele>
        <time>2022-07-18T14:33:36Z</time>
      </trkpt>
      <trkpt lat="44.44292" lon="7.10558">
        <ele>1462.8</ele>
        <time>2022-07-18T14:33:37Z</time>
      </trkpt>
      <trkpt lat="44.44291" lon="7.10556">
        <ele>1462.8</ele>
        <time>2022-07-18T14:33:38Z</time>
      </trkpt>
      <trkpt lat="44.4429" lon="7.10554">
        <ele>1463.2</ele>
        <time>2022-07-18T14:33:39Z</time>
      </trkpt>
      <trkpt lat="44.44289" lon="7.10551">
        <ele>1463.2</ele>
        <time>2022-07-18T14:33:40Z</time>
      </trkpt>
      <trkpt lat="44.44287" lon="7.10549">
        <ele>1463.6</ele>
        <time>2022-07-18T14:33:41Z</time>
      </trkpt>
      <trkpt lat="44.44285" lon="7.10548">
        <ele>1463.6</ele>
        <time>2022-07-18T14:33:42Z</time>
      </trkpt>
      <trkpt lat="44.44284" lon="7.10546">
        <ele>1464</ele>
        <time>2022-07-18T14:33:43Z</time>
      </trkpt>
      <trkpt lat="44.44282" lon="7.10544">
        <ele>1464</ele>
        <time>2022-07-18T14:33:44Z</time>
      </trkpt>
      <trkpt lat="44.4428" lon="7.10542">
        <ele>1464</ele>
        <time>2022-07-18T14:33:45Z</time>
      </trkpt>
      <trkpt lat="44.44279" lon="7.1054">
        <ele>1464.4</ele>
        <time>2022-07-18T14:33:46Z</time>
      </trkpt>
      <trkpt lat="44.44277" lon="7.10539">
        <ele>1464.4</ele>
        <time>2022-07-18T14:33:47Z</time>
      </trkpt>
      <trkpt lat="44.44276" lon="7.10537">
        <ele>1464.6</ele>
        <time>2022-07-18T14:33:48Z</time>
      </trkpt>
      <trkpt lat="44.44274" lon="7.10536">
        <ele>1464.8</ele>
        <time>2022-07-18T14:33:49Z</time>
      </trkpt>
      <trkpt lat="44.44273" lon="7.10534">
        <ele>1464.8</ele>
        <time>2022-07-18T14:33:50Z</time>
      </trkpt>
      <trkpt lat="44.44271" lon="7.10532">
        <ele>1465.2</ele>
        <time>2022-07-18T14:33:51Z</time>
      </trkpt>
      <trkpt lat="44.4427" lon="7.1053">
        <ele>1465.2</ele>
        <time>2022-07-18T14:33:52Z</time>
      </trkpt>
      <trkpt lat="44.44268" lon="7.10529">
        <ele>1465.4</ele>
        <time>2022-07-18T14:33:53Z</time>
      </trkpt>
      <trkpt lat="44.44267" lon="7.10527">
        <ele>1465.8</ele>
        <time>2022-07-18T14:33:54Z</time>
      </trkpt>
      <trkpt lat="44.44265" lon="7.10526">
        <ele>1465.8</ele>
        <time>2022-07-18T14:33:55Z</time>
      </trkpt>
      <trkpt lat="44.44263" lon="7.10525">
        <ele>1466</ele>
        <time>2022-07-18T14:33:56Z</time>
      </trkpt>
      <trkpt lat="44.44261" lon="7.10525">
        <ele>1466</ele>
        <time>2022-07-18T14:33:57Z</time>
      </trkpt>
      <trkpt lat="44.4426" lon="7.10524">
        <ele>1466.4</ele>
        <time>2022-07-18T14:33:58Z</time>
      </trkpt>
      <trkpt lat="44.44258" lon="7.10523">
        <ele>1466.4</ele>
        <time>2022-07-18T14:33:59Z</time>
      </trkpt>
      <trkpt lat="44.44256" lon="7.10523">
        <ele>1466.8</ele>
        <time>2022-07-18T14:34:00Z</time>
      </trkpt>
      <trkpt lat="44.44255" lon="7.10523">
        <ele>1466.8</ele>
        <time>2022-07-18T14:34:01Z</time>
      </trkpt>
      <trkpt lat="44.44253" lon="7.10523">
        <ele>1467.2</ele>
        <time>2022-07-18T14:34:02Z</time>
      </trkpt>
      <trkpt lat="44.44252" lon="7.10524">
        <ele>1467.4</ele>
        <time>2022-07-18T14:34:03Z</time>
      </trkpt>
      <trkpt lat="44.4425" lon="7.10524">
        <ele>1467.4</ele>
        <time>2022-07-18T14:34:04Z</time>
      </trkpt>
      <trkpt lat="44.44248" lon="7.10525">
        <ele>1467.8</ele>
        <time>2022-07-18T14:34:05Z</time>
      </trkpt>
      <trkpt lat="44.44246" lon="7.10525">
        <ele>1467.8</ele>
        <time>2022-07-18T14:34:06Z</time>
      </trkpt>
      <trkpt lat="44.44244" lon="7.10526">
        <ele>1468</ele>
        <time>2022-07-18T14:34:07Z</time>
      </trkpt>
      <trkpt lat="44.44241" lon="7.10526">
        <ele>1468.2</ele>
        <time>2022-07-18T14:34:08Z</time>
      </trkpt>
      <trkpt lat="44.44239" lon="7.10526">
        <ele>1468.2</ele>
        <time>2022-07-18T14:34:09Z</time>
      </trkpt>
      <trkpt lat="44.44237" lon="7.10526">
        <ele>1468.6</ele>
        <time>2022-07-18T14:34:10Z</time>
      </trkpt>
      <trkpt lat="44.44235" lon="7.10526">
        <ele>1468.6</ele>
        <time>2022-07-18T14:34:11Z</time>
      </trkpt>
      <trkpt lat="44.44233" lon="7.10524">
        <ele>1468.8</ele>
        <time>2022-07-18T14:34:12Z</time>
      </trkpt>
      <trkpt lat="44.44231" lon="7.10523">
        <ele>1468.8</ele>
        <time>2022-07-18T14:34:13Z</time>
      </trkpt>
      <trkpt lat="44.44229" lon="7.10521">
        <ele>1469.2</ele>
        <time>2022-07-18T14:34:14Z</time>
      </trkpt>
      <trkpt lat="44.44227" lon="7.10519">
        <ele>1469.2</ele>
        <time>2022-07-18T14:34:15Z</time>
      </trkpt>
      <trkpt lat="44.44226" lon="7.10517">
        <ele>1469.4</ele>
        <time>2022-07-18T14:34:16Z</time>
      </trkpt>
      <trkpt lat="44.44225" lon="7.10515">
        <ele>1469.8</ele>
        <time>2022-07-18T14:34:17Z</time>
      </trkpt>
      <trkpt lat="44.44223" lon="7.10513">
        <ele>1469.8</ele>
        <time>2022-07-18T14:34:18Z</time>
      </trkpt>
      <trkpt lat="44.44221" lon="7.10512">
        <ele>1470</ele>
        <time>2022-07-18T14:34:19Z</time>
      </trkpt>
      <trkpt lat="44.4422" lon="7.1051">
        <ele>1470</ele>
        <time>2022-07-18T14:34:20Z</time>
      </trkpt>
      <trkpt lat="44.44218" lon="7.10508">
        <ele>1470.2</ele>
        <time>2022-07-18T14:34:21Z</time>
      </trkpt>
      <trkpt lat="44.44216" lon="7.10507">
        <ele>1470.2</ele>
        <time>2022-07-18T14:34:22Z</time>
      </trkpt>
      <trkpt lat="44.44214" lon="7.10506">
        <ele>1470.6</ele>
        <time>2022-07-18T14:34:23Z</time>
      </trkpt>
      <trkpt lat="44.44212" lon="7.10506">
        <ele>1470.6</ele>
        <time>2022-07-18T14:34:24Z</time>
      </trkpt>
      <trkpt lat="44.4421" lon="7.10505">
        <ele>1471</ele>
        <time>2022-07-18T14:34:25Z</time>
      </trkpt>
      <trkpt lat="44.44208" lon="7.10504">
        <ele>1471</ele>
        <time>2022-07-18T14:34:26Z</time>
      </trkpt>
      <trkpt lat="44.44206" lon="7.10503">
        <ele>1471.2</ele>
        <time>2022-07-18T14:34:27Z</time>
      </trkpt>
      <trkpt lat="44.44203" lon="7.10503">
        <ele>1471.2</ele>
        <time>2022-07-18T14:34:28Z</time>
      </trkpt>
      <trkpt lat="44.44201" lon="7.10503">
        <ele>1471.2</ele>
        <time>2022-07-18T14:34:29Z</time>
      </trkpt>
      <trkpt lat="44.44199" lon="7.10503">
        <ele>1471.6</ele>
        <time>2022-07-18T14:34:30Z</time>
      </trkpt>
      <trkpt lat="44.44197" lon="7.10503">
        <ele>1471.6</ele>
        <time>2022-07-18T14:34:31Z</time>
      </trkpt>
      <trkpt lat="44.44195" lon="7.10503">
        <ele>1471.8</ele>
        <time>2022-07-18T14:34:32Z</time>
      </trkpt>
      <trkpt lat="44.44193" lon="7.10503">
        <ele>1471.8</ele>
        <time>2022-07-18T14:34:33Z</time>
      </trkpt>
      <trkpt lat="44.44191" lon="7.10503">
        <ele>1472.2</ele>
        <time>2022-07-18T14:34:34Z</time>
      </trkpt>
      <trkpt lat="44.44189" lon="7.10503">
        <ele>1472.2</ele>
        <time>2022-07-18T14:34:35Z</time>
      </trkpt>
      <trkpt lat="44.44187" lon="7.10503">
        <ele>1472.4</ele>
        <time>2022-07-18T14:34:36Z</time>
      </trkpt>
      <trkpt lat="44.44185" lon="7.10502">
        <ele>1472.4</ele>
        <time>2022-07-18T14:34:37Z</time>
      </trkpt>
      <trkpt lat="44.44183" lon="7.10501">
        <ele>1472.8</ele>
        <time>2022-07-18T14:34:38Z</time>
      </trkpt>
      <trkpt lat="44.44181" lon="7.105">
        <ele>1472.8</ele>
        <time>2022-07-18T14:34:39Z</time>
      </trkpt>
      <trkpt lat="44.44179" lon="7.10499">
        <ele>1473</ele>
        <time>2022-07-18T14:34:40Z</time>
      </trkpt>
      <trkpt lat="44.44177" lon="7.10498">
        <ele>1473</ele>
        <time>2022-07-18T14:34:41Z</time>
      </trkpt>
      <trkpt lat="44.44175" lon="7.10496">
        <ele>1473.2</ele>
        <time>2022-07-18T14:34:42Z</time>
      </trkpt>
      <trkpt lat="44.44174" lon="7.10494">
        <ele>1473.2</ele>
        <time>2022-07-18T14:34:43Z</time>
      </trkpt>
      <trkpt lat="44.44172" lon="7.10493">
        <ele>1473.4</ele>
        <time>2022-07-18T14:34:44Z</time>
      </trkpt>
      <trkpt lat="44.4417" lon="7.10491">
        <ele>1473.4</ele>
        <time>2022-07-18T14:34:45Z</time>
      </trkpt>
      <trkpt lat="44.44169" lon="7.10489">
        <ele>1473.8</ele>
        <time>2022-07-18T14:34:46Z</time>
      </trkpt>
      <trkpt lat="44.44167" lon="7.10487">
        <ele>1473.8</ele>
        <time>2022-07-18T14:34:47Z</time>
      </trkpt>
      <trkpt lat="44.44166" lon="7.10485">
        <ele>1474.2</ele>
        <time>2022-07-18T14:34:48Z</time>
      </trkpt>
      <trkpt lat="44.44164" lon="7.10482">
        <ele>1474.2</ele>
        <time>2022-07-18T14:34:49Z</time>
      </trkpt>
      <trkpt lat="44.44163" lon="7.1048">
        <ele>1474.4</ele>
        <time>2022-07-18T14:34:50Z</time>
      </trkpt>
      <trkpt lat="44.44161" lon="7.10478">
        <ele>1474.4</ele>
        <time>2022-07-18T14:34:51Z</time>
      </trkpt>
      <trkpt lat="44.4416" lon="7.10476">
        <ele>1474.8</ele>
        <time>2022-07-18T14:34:52Z</time>
      </trkpt>
      <trkpt lat="44.44158" lon="7.10474">
        <ele>1475</ele>
        <time>2022-07-18T14:34:53Z</time>
      </trkpt>
      <trkpt lat="44.44156" lon="7.10472">
        <ele>1475</ele>
        <time>2022-07-18T14:34:54Z</time>
      </trkpt>
      <trkpt lat="44.44154" lon="7.1047">
        <ele>1475.2</ele>
        <time>2022-07-18T14:34:55Z</time>
      </trkpt>
      <trkpt lat="44.44153" lon="7.10468">
        <ele>1475.2</ele>
        <time>2022-07-18T14:34:56Z</time>
      </trkpt>
      <trkpt lat="44.44151" lon="7.10466">
        <ele>1475.4</ele>
        <time>2022-07-18T14:34:57Z</time>
      </trkpt>
      <trkpt lat="44.4415" lon="7.10464">
        <ele>1475.4</ele>
        <time>2022-07-18T14:34:58Z</time>
      </trkpt>
      <trkpt lat="44.44149" lon="7.10462">
        <ele>1475.8</ele>
        <time>2022-07-18T14:34:59Z</time>
      </trkpt>
      <trkpt lat="44.44147" lon="7.1046">
        <ele>1476</ele>
        <time>2022-07-18T14:35:00Z</time>
      </trkpt>
      <trkpt lat="44.44146" lon="7.10458">
        <ele>1476</ele>
        <time>2022-07-18T14:35:01Z</time>
      </trkpt>
      <trkpt lat="44.44144" lon="7.10455">
        <ele>1476.4</ele>
        <time>2022-07-18T14:35:02Z</time>
      </trkpt>
      <trkpt lat="44.44143" lon="7.10453">
        <ele>1476.6</ele>
        <time>2022-07-18T14:35:03Z</time>
      </trkpt>
      <trkpt lat="44.44142" lon="7.10451">
        <ele>1476.8</ele>
        <time>2022-07-18T14:35:04Z</time>
      </trkpt>
      <trkpt lat="44.4414" lon="7.10449">
        <ele>1476.8</ele>
        <time>2022-07-18T14:35:05Z</time>
      </trkpt>
      <trkpt lat="44.44139" lon="7.10447">
        <ele>1477</ele>
        <time>2022-07-18T14:35:06Z</time>
      </trkpt>
      <trkpt lat="44.44137" lon="7.10445">
        <ele>1477.2</ele>
        <time>2022-07-18T14:35:07Z</time>
      </trkpt>
      <trkpt lat="44.44136" lon="7.10443">
        <ele>1477.2</ele>
        <time>2022-07-18T14:35:08Z</time>
      </trkpt>
      <trkpt lat="44.44135" lon="7.10441">
        <ele>1477.6</ele>
        <time>2022-07-18T14:35:09Z</time>
      </trkpt>
      <trkpt lat="44.44134" lon="7.10439">
        <ele>1477.6</ele>
        <time>2022-07-18T14:35:10Z</time>
      </trkpt>
      <trkpt lat="44.44132" lon="7.10438">
        <ele>1478</ele>
        <time>2022-07-18T14:35:11Z</time>
      </trkpt>
      <trkpt lat="44.44131" lon="7.10436">
        <ele>1478.2</ele>
        <time>2022-07-18T14:35:12Z</time>
      </trkpt>
      <trkpt lat="44.44129" lon="7.10435">
        <ele>1478.2</ele>
        <time>2022-07-18T14:35:13Z</time>
      </trkpt>
      <trkpt lat="44.44127" lon="7.10434">
        <ele>1478.4</ele>
        <time>2022-07-18T14:35:14Z</time>
      </trkpt>
      <trkpt lat="44.44126" lon="7.10433">
        <ele>1478.4</ele>
        <time>2022-07-18T14:35:15Z</time>
      </trkpt>
      <trkpt lat="44.44124" lon="7.10432">
        <ele>1478.8</ele>
        <time>2022-07-18T14:35:16Z</time>
      </trkpt>
      <trkpt lat="44.44123" lon="7.1043">
        <ele>1479</ele>
        <time>2022-07-18T14:35:17Z</time>
      </trkpt>
      <trkpt lat="44.44121" lon="7.1043">
        <ele>1479</ele>
        <time>2022-07-18T14:35:18Z</time>
      </trkpt>
      <trkpt lat="44.44119" lon="7.10429">
        <ele>1479.4</ele>
        <time>2022-07-18T14:35:19Z</time>
      </trkpt>
      <trkpt lat="44.44117" lon="7.10429">
        <ele>1479.6</ele>
        <time>2022-07-18T14:35:20Z</time>
      </trkpt>
      <trkpt lat="44.44115" lon="7.10429">
        <ele>1479.8</ele>
        <time>2022-07-18T14:35:21Z</time>
      </trkpt>
      <trkpt lat="44.44114" lon="7.10428">
        <ele>1479.8</ele>
        <time>2022-07-18T14:35:22Z</time>
      </trkpt>
      <trkpt lat="44.44112" lon="7.10428">
        <ele>1480</ele>
        <time>2022-07-18T14:35:23Z</time>
      </trkpt>
      <trkpt lat="44.4411" lon="7.10428">
        <ele>1480.4</ele>
        <time>2022-07-18T14:35:24Z</time>
      </trkpt>
      <trkpt lat="44.44108" lon="7.10427">
        <ele>1480.6</ele>
        <time>2022-07-18T14:35:25Z</time>
      </trkpt>
      <trkpt lat="44.44107" lon="7.10427">
        <ele>1480.8</ele>
        <time>2022-07-18T14:35:26Z</time>
      </trkpt>
      <trkpt lat="44.44105" lon="7.10427">
        <ele>1480.8</ele>
        <time>2022-07-18T14:35:27Z</time>
      </trkpt>
      <trkpt lat="44.44103" lon="7.10427">
        <ele>1481</ele>
        <time>2022-07-18T14:35:28Z</time>
      </trkpt>
      <trkpt lat="44.44101" lon="7.10427">
        <ele>1481.4</ele>
        <time>2022-07-18T14:35:29Z</time>
      </trkpt>
      <trkpt lat="44.44099" lon="7.10427">
        <ele>1481.4</ele>
        <time>2022-07-18T14:35:30Z</time>
      </trkpt>
      <trkpt lat="44.44097" lon="7.10428">
        <ele>1481.4</ele>
        <time>2022-07-18T14:35:31Z</time>
      </trkpt>
      <trkpt lat="44.44095" lon="7.10428">
        <ele>1481.8</ele>
        <time>2022-07-18T14:35:32Z</time>
      </trkpt>
      <trkpt lat="44.44093" lon="7.10429">
        <ele>1481.8</ele>
        <time>2022-07-18T14:35:33Z</time>
      </trkpt>
      <trkpt lat="44.44091" lon="7.10429">
        <ele>1482</ele>
        <time>2022-07-18T14:35:34Z</time>
      </trkpt>
      <trkpt lat="44.44089" lon="7.10429">
        <ele>1482</ele>
        <time>2022-07-18T14:35:35Z</time>
      </trkpt>
      <trkpt lat="44.44087" lon="7.10429">
        <ele>1482.4</ele>
        <time>2022-07-18T14:35:36Z</time>
      </trkpt>
      <trkpt lat="44.44086" lon="7.10429">
        <ele>1482.4</ele>
        <time>2022-07-18T14:35:37Z</time>
      </trkpt>
      <trkpt lat="44.44084" lon="7.10429">
        <ele>1482.8</ele>
        <time>2022-07-18T14:35:38Z</time>
      </trkpt>
      <trkpt lat="44.44082" lon="7.10429">
        <ele>1482.8</ele>
        <time>2022-07-18T14:35:39Z</time>
      </trkpt>
      <trkpt lat="44.4408" lon="7.10429">
        <ele>1483.2</ele>
        <time>2022-07-18T14:35:40Z</time>
      </trkpt>
      <trkpt lat="44.44078" lon="7.10429">
        <ele>1483.4</ele>
        <time>2022-07-18T14:35:41Z</time>
      </trkpt>
      <trkpt lat="44.44076" lon="7.10429">
        <ele>1483.4</ele>
        <time>2022-07-18T14:35:42Z</time>
      </trkpt>
      <trkpt lat="44.44074" lon="7.10429">
        <ele>1483.8</ele>
        <time>2022-07-18T14:35:43Z</time>
      </trkpt>
      <trkpt lat="44.44072" lon="7.10429">
        <ele>1483.8</ele>
        <time>2022-07-18T14:35:44Z</time>
      </trkpt>
      <trkpt lat="44.4407" lon="7.10428">
        <ele>1484</ele>
        <time>2022-07-18T14:35:45Z</time>
      </trkpt>
      <trkpt lat="44.44069" lon="7.10428">
        <ele>1484</ele>
        <time>2022-07-18T14:35:46Z</time>
      </trkpt>
      <trkpt lat="44.44067" lon="7.10427">
        <ele>1484.4</ele>
        <time>2022-07-18T14:35:47Z</time>
      </trkpt>
      <trkpt lat="44.44065" lon="7.10427">
        <ele>1484.4</ele>
        <time>2022-07-18T14:35:48Z</time>
      </trkpt>
      <trkpt lat="44.44063" lon="7.10427">
        <ele>1484.8</ele>
        <time>2022-07-18T14:35:49Z</time>
      </trkpt>
      <trkpt lat="44.44062" lon="7.10426">
        <ele>1485</ele>
        <time>2022-07-18T14:35:50Z</time>
      </trkpt>
      <trkpt lat="44.4406" lon="7.10426">
        <ele>1485.2</ele>
        <time>2022-07-18T14:35:51Z</time>
      </trkpt>
      <trkpt lat="44.44058" lon="7.10425">
        <ele>1485.2</ele>
        <time>2022-07-18T14:35:52Z</time>
      </trkpt>
      <trkpt lat="44.44056" lon="7.10425">
        <ele>1485.4</ele>
        <time>2022-07-18T14:35:53Z</time>
      </trkpt>
      <trkpt lat="44.44054" lon="7.10424">
        <ele>1485.4</ele>
        <time>2022-07-18T14:35:54Z</time>
      </trkpt>
      <trkpt lat="44.44053" lon="7.10424">
        <ele>1485.4</ele>
        <time>2022-07-18T14:35:55Z</time>
      </trkpt>
      <trkpt lat="44.44051" lon="7.10423">
        <ele>1485.8</ele>
        <time>2022-07-18T14:35:56Z</time>
      </trkpt>
      <trkpt lat="44.44049" lon="7.10423">
        <ele>1485.8</ele>
        <time>2022-07-18T14:35:57Z</time>
      </trkpt>
      <trkpt lat="44.44048" lon="7.10423">
        <ele>1486.4</ele>
        <time>2022-07-18T14:35:58Z</time>
      </trkpt>
      <trkpt lat="44.44046" lon="7.10422">
        <ele>1486.6</ele>
        <time>2022-07-18T14:35:59Z</time>
      </trkpt>
      <trkpt lat="44.44044" lon="7.10422">
        <ele>1486.6</ele>
        <time>2022-07-18T14:36:00Z</time>
      </trkpt>
      <trkpt lat="44.44043" lon="7.10422">
        <ele>1486.8</ele>
        <time>2022-07-18T14:36:01Z</time>
      </trkpt>
      <trkpt lat="44.44041" lon="7.10423">
        <ele>1487</ele>
        <time>2022-07-18T14:36:02Z</time>
      </trkpt>
      <trkpt lat="44.44039" lon="7.10423">
        <ele>1487.4</ele>
        <time>2022-07-18T14:36:03Z</time>
      </trkpt>
      <trkpt lat="44.44037" lon="7.10422">
        <ele>1487.4</ele>
        <time>2022-07-18T14:36:04Z</time>
      </trkpt>
      <trkpt lat="44.44035" lon="7.10421">
        <ele>1487.8</ele>
        <time>2022-07-18T14:36:05Z</time>
      </trkpt>
      <trkpt lat="44.44033" lon="7.1042">
        <ele>1487.8</ele>
        <time>2022-07-18T14:36:06Z</time>
      </trkpt>
      <trkpt lat="44.44031" lon="7.10419">
        <ele>1488.2</ele>
        <time>2022-07-18T14:36:07Z</time>
      </trkpt>
      <trkpt lat="44.4403" lon="7.10419">
        <ele>1488.4</ele>
        <time>2022-07-18T14:36:08Z</time>
      </trkpt>
      <trkpt lat="44.44028" lon="7.10419">
        <ele>1488.4</ele>
        <time>2022-07-18T14:36:09Z</time>
      </trkpt>
      <trkpt lat="44.44026" lon="7.10418">
        <ele>1488.6</ele>
        <time>2022-07-18T14:36:10Z</time>
      </trkpt>
      <trkpt lat="44.44024" lon="7.10418">
        <ele>1488.6</ele>
        <time>2022-07-18T14:36:11Z</time>
      </trkpt>
      <trkpt lat="44.44022" lon="7.10418">
        <ele>1489</ele>
        <time>2022-07-18T14:36:12Z</time>
      </trkpt>
      <trkpt lat="44.44019" lon="7.10418">
        <ele>1489.2</ele>
        <time>2022-07-18T14:36:13Z</time>
      </trkpt>
      <trkpt lat="44.44017" lon="7.10417">
        <ele>1489.4</ele>
        <time>2022-07-18T14:36:14Z</time>
      </trkpt>
      <trkpt lat="44.44015" lon="7.10417">
        <ele>1489.4</ele>
        <time>2022-07-18T14:36:15Z</time>
      </trkpt>
      <trkpt lat="44.44013" lon="7.10417">
        <ele>1489.8</ele>
        <time>2022-07-18T14:36:16Z</time>
      </trkpt>
      <trkpt lat="44.44011" lon="7.10417">
        <ele>1490</ele>
        <time>2022-07-18T14:36:17Z</time>
      </trkpt>
      <trkpt lat="44.44009" lon="7.10417">
        <ele>1490</ele>
        <time>2022-07-18T14:36:18Z</time>
      </trkpt>
      <trkpt lat="44.44007" lon="7.10416">
        <ele>1490.4</ele>
        <time>2022-07-18T14:36:19Z</time>
      </trkpt>
      <trkpt lat="44.44004" lon="7.10416">
        <ele>1490.4</ele>
        <time>2022-07-18T14:36:20Z</time>
      </trkpt>
      <trkpt lat="44.44002" lon="7.10415">
        <ele>1490.8</ele>
        <time>2022-07-18T14:36:21Z</time>
      </trkpt>
      <trkpt lat="44.44" lon="7.10415">
        <ele>1490.8</ele>
        <time>2022-07-18T14:36:22Z</time>
      </trkpt>
      <trkpt lat="44.44" lon="7.10415">
        <ele>1491</ele>
        <time>2022-07-18T14:36:23Z</time>
      </trkpt>
      <trkpt lat="44.44" lon="7.10415">
        <ele>1491</ele>
        <time>2022-07-18T14:36:24Z</time>
      </trkpt>
      <trkpt lat="44.44" lon="7.10415">
        <ele>1491.2</ele>
        <time>2022-07-18T14:36:25Z</time>
      </trkpt>
      <trkpt lat="44.44" lon="7.10415">
        <ele>1491.2</ele>
        <time>2022-07-18T14:36:26Z</time>
      </trkpt>
      <trkpt lat="44.44" lon="7.10414">
        <ele>1491.6</ele>
        <time>2022-07-18T14:36:28Z</time>
      </trkpt>
      <trkpt lat="44.44" lon="7.10414">
        <ele>1491.6</ele>
        <time>2022-07-18T14:36:29Z</time>
      </trkpt>
      <trkpt lat="44.44" lon="7.10414">
        <ele>1491.6</ele>
        <time>2022-07-18T14:36:31Z</time>
      </trkpt>
      <trkpt lat="44.44" lon="7.10414">
        <ele>1491.6</ele>
        <time>2022-07-18T14:36:32Z</time>
      </trkpt>
      <trkpt lat="44.44" lon="7.10414">
        <ele>1491.6</ele>
        <time>2022-07-18T14:36:33Z</time>
      </trkpt>
      <trkpt lat="44.44" lon="7.10414">
        <ele>1491.6</ele>
        <time>2022-07-18T14:36:34Z</time>
      </trkpt>
      <trkpt lat="44.43999" lon="7.10414">
        <ele>1491.6</ele>
        <time>2022-07-18T14:36:35Z</time>
      </trkpt>
      <trkpt lat="44.43999" lon="7.10414">
        <ele>1491.6</ele>
        <time>2022-07-18T14:36:36Z</time>
      </trkpt>
      <trkpt lat="44.43999" lon="7.10414">
        <ele>1491.6</ele>
        <time>2022-07-18T14:36:37Z</time>
      </trkpt>
      <trkpt lat="44.43999" lon="7.10414">
        <ele>1491.6</ele>
        <time>2022-07-18T14:36:38Z</time>
      </trkpt>
      <trkpt lat="44.43999" lon="7.10414">
        <ele>1491.6</ele>
        <time>2022-07-18T14:36:39Z</time>
      </trkpt>
      <trkpt lat="44.43999" lon="7.10414">
        <ele>1491.6</ele>
        <time>2022-07-18T14:36:40Z</time>
      </trkpt>
      <trkpt lat="44.43999" lon="7.10414">
        <ele>1491.6</ele>
        <time>2022-07-18T14:36:41Z</time>
      </trkpt>
      <trkpt lat="44.43999" lon="7.10414">
        <ele>1491.6</ele>
        <time>2022-07-18T14:36:42Z</time>
      </trkpt>
      <trkpt lat="44.43999" lon="7.10414">
        <ele>1491.6</ele>
        <time>2022-07-18T14:36:48Z</time>
      </trkpt>
      <trkpt lat="44.43999" lon="7.10414">
        <ele>1491.6</ele>
        <time>2022-07-18T14:36:49Z</time>
      </trkpt>
      <trkpt lat="44.43999" lon="7.10414">
        <ele>1491.8</ele>
        <time>2022-07-18T14:36:50Z</time>
      </trkpt>
      <trkpt lat="44.43999" lon="7.10414">
        <ele>1491.8</ele>
        <time>2022-07-18T14:36:51Z</time>
      </trkpt>
      <trkpt lat="44.43999" lon="7.10414">
        <ele>1491.8</ele>
        <time>2022-07-18T14:36:52Z</time>
      </trkpt>
      <trkpt lat="44.43998" lon="7.10414">
        <ele>1491.8</ele>
        <time>2022-07-18T14:36:53Z</time>
      </trkpt>
      <trkpt lat="44.43998" lon="7.10414">
        <ele>1491.8</ele>
        <time>2022-07-18T14:36:54Z</time>
      </trkpt>
      <trkpt lat="44.43998" lon="7.10414">
        <ele>1491.6</ele>
        <time>2022-07-18T14:36:57Z</time>
      </trkpt>
      <trkpt lat="44.43998" lon="7.10414">
        <ele>1491.6</ele>
        <time>2022-07-18T14:36:58Z</time>
      </trkpt>
      <trkpt lat="44.43998" lon="7.10414">
        <ele>1491.6</ele>
        <time>2022-07-18T14:37:00Z</time>
      </trkpt>
      <trkpt lat="44.43998" lon="7.10414">
        <ele>1491.6</ele>
        <time>2022-07-18T14:37:01Z</time>
      </trkpt>
      <trkpt lat="44.43998" lon="7.10413">
        <ele>1491.6</ele>
        <time>2022-07-18T14:37:02Z</time>
      </trkpt>
      <trkpt lat="44.43998" lon="7.10413">
        <ele>1491.6</ele>
        <time>2022-07-18T14:37:03Z</time>
      </trkpt>
      <trkpt lat="44.43998" lon="7.10413">
        <ele>1491.6</ele>
        <time>2022-07-18T14:37:07Z</time>
      </trkpt>
      <trkpt lat="44.43998" lon="7.10413">
        <ele>1491.6</ele>
        <time>2022-07-18T14:37:08Z</time>
      </trkpt>
      <trkpt lat="44.43998" lon="7.10413">
        <ele>1489.4</ele>
        <time>2022-07-18T14:47:49Z</time>
      </trkpt>
      <trkpt lat="44.43998" lon="7.10413">
        <ele>1489.4</ele>
        <time>2022-07-18T14:47:50Z</time>
      </trkpt>
      <trkpt lat="44.43997" lon="7.10413">
        <ele>1489.4</ele>
        <time>2022-07-18T14:47:51Z</time>
      </trkpt>
      <trkpt lat="44.43997" lon="7.10413">
        <ele>1489.4</ele>
        <time>2022-07-18T14:47:52Z</time>
      </trkpt>
      <trkpt lat="44.43997" lon="7.10413">
        <ele>1489.4</ele>
        <time>2022-07-18T14:47:53Z</time>
      </trkpt>
      <trkpt lat="44.43997" lon="7.10413">
        <ele>1489.4</ele>
        <time>2022-07-18T14:47:54Z</time>
      </trkpt>
      <trkpt lat="44.43997" lon="7.10413">
        <ele>1489.4</ele>
        <time>2022-07-18T14:47:55Z</time>
      </trkpt>
      <trkpt lat="44.43997" lon="7.10413">
        <ele>1489.4</ele>
        <time>2022-07-18T14:47:56Z</time>
      </trkpt>
      <trkpt lat="44.43997" lon="7.10413">
        <ele>1489.4</ele>
        <time>2022-07-18T14:47:57Z</time>
      </trkpt>
      <trkpt lat="44.43997" lon="7.10413">
        <ele>1489.4</ele>
        <time>2022-07-18T14:47:58Z</time>
      </trkpt>
      <trkpt lat="44.43997" lon="7.10413">
        <ele>1489.4</ele>
        <time>2022-07-18T14:47:59Z</time>
      </trkpt>
      <trkpt lat="44.43997" lon="7.10413">
        <ele>1489.4</ele>
        <time>2022-07-18T14:48:00Z</time>
      </trkpt>
      <trkpt lat="44.43997" lon="7.10413">
        <ele>1489.4</ele>
        <time>2022-07-18T14:48:02Z</time>
      </trkpt>
      <trkpt lat="44.43997" lon="7.10413">
        <ele>1489.4</ele>
        <time>2022-07-18T14:48:03Z</time>
      </trkpt>
      <trkpt lat="44.43997" lon="7.10413">
        <ele>1489.4</ele>
        <time>2022-07-18T14:48:04Z</time>
      </trkpt>
      <trkpt lat="44.43996" lon="7.10413">
        <ele>1489.4</ele>
        <time>2022-07-18T14:48:06Z</time>
      </trkpt>
      <trkpt lat="44.43996" lon="7.10413">
        <ele>1489.4</ele>
        <time>2022-07-18T14:48:07Z</time>
      </trkpt>
      <trkpt lat="44.43996" lon="7.10413">
        <ele>1489.4</ele>
        <time>2022-07-18T14:48:08Z</time>
      </trkpt>
      <trkpt lat="44.43996" lon="7.10413">
        <ele>1489.4</ele>
        <time>2022-07-18T14:48:09Z</time>
      </trkpt>
      <trkpt lat="44.43996" lon="7.10413">
        <ele>1489.6</ele>
        <time>2022-07-18T14:48:10Z</time>
      </trkpt>
      <trkpt lat="44.43996" lon="7.10413">
        <ele>1489.6</ele>
        <time>2022-07-18T14:48:11Z</time>
      </trkpt>
      <trkpt lat="44.43996" lon="7.10412">
        <ele>1489.6</ele>
        <time>2022-07-18T14:48:12Z</time>
      </trkpt>
      <trkpt lat="44.43996" lon="7.10412">
        <ele>1489.6</ele>
        <time>2022-07-18T14:48:13Z</time>
      </trkpt>
      <trkpt lat="44.43996" lon="7.10412">
        <ele>1489.6</ele>
        <time>2022-07-18T14:48:14Z</time>
      </trkpt>
      <trkpt lat="44.43996" lon="7.10412">
        <ele>1489.6</ele>
        <time>2022-07-18T14:48:15Z</time>
      </trkpt>
      <trkpt lat="44.43994" lon="7.10412">
        <ele>1489.6</ele>
        <time>2022-07-18T14:48:16Z</time>
      </trkpt>
      <trkpt lat="44.43993" lon="7.10412">
        <ele>1489.8</ele>
        <time>2022-07-18T14:48:17Z</time>
      </trkpt>
      <trkpt lat="44.43991" lon="7.10412">
        <ele>1489.8</ele>
        <time>2022-07-18T14:48:18Z</time>
      </trkpt>
      <trkpt lat="44.4399" lon="7.10412">
        <ele>1489.8</ele>
        <time>2022-07-18T14:48:19Z</time>
      </trkpt>
      <trkpt lat="44.43989" lon="7.10412">
        <ele>1489.8</ele>
        <time>2022-07-18T14:48:20Z</time>
      </trkpt>
      <trkpt lat="44.43987" lon="7.10412">
        <ele>1490</ele>
        <time>2022-07-18T14:48:21Z</time>
      </trkpt>
      <trkpt lat="44.43986" lon="7.10412">
        <ele>1490</ele>
        <time>2022-07-18T14:48:22Z</time>
      </trkpt>
      <trkpt lat="44.43984" lon="7.10412">
        <ele>1490.4</ele>
        <time>2022-07-18T14:48:23Z</time>
      </trkpt>
      <trkpt lat="44.43982" lon="7.10412">
        <ele>1490.4</ele>
        <time>2022-07-18T14:48:24Z</time>
      </trkpt>
      <trkpt lat="44.4398" lon="7.10411">
        <ele>1490.6</ele>
        <time>2022-07-18T14:48:25Z</time>
      </trkpt>
      <trkpt lat="44.43979" lon="7.10411">
        <ele>1490.6</ele>
        <time>2022-07-18T14:48:26Z</time>
      </trkpt>
      <trkpt lat="44.43977" lon="7.10411">
        <ele>1491</ele>
        <time>2022-07-18T14:48:27Z</time>
      </trkpt>
      <trkpt lat="44.43976" lon="7.10411">
        <ele>1491</ele>
        <time>2022-07-18T14:48:28Z</time>
      </trkpt>
      <trkpt lat="44.43974" lon="7.10411">
        <ele>1491.2</ele>
        <time>2022-07-18T14:48:29Z</time>
      </trkpt>
      <trkpt lat="44.43973" lon="7.1041">
        <ele>1491.2</ele>
        <time>2022-07-18T14:48:30Z</time>
      </trkpt>
      <trkpt lat="44.43971" lon="7.1041">
        <ele>1491.4</ele>
        <time>2022-07-18T14:48:31Z</time>
      </trkpt>
      <trkpt lat="44.4397" lon="7.1041">
        <ele>1491.4</ele>
        <time>2022-07-18T14:48:32Z</time>
      </trkpt>
      <trkpt lat="44.43968" lon="7.10409">
        <ele>1491.8</ele>
        <time>2022-07-18T14:48:33Z</time>
      </trkpt>
      <trkpt lat="44.43967" lon="7.10409">
        <ele>1491.8</ele>
        <time>2022-07-18T14:48:34Z</time>
      </trkpt>
      <trkpt lat="44.43965" lon="7.10409">
        <ele>1492</ele>
        <time>2022-07-18T14:48:35Z</time>
      </trkpt>
      <trkpt lat="44.43964" lon="7.10409">
        <ele>1492</ele>
        <time>2022-07-18T14:48:36Z</time>
      </trkpt>
      <trkpt lat="44.43963" lon="7.10408">
        <ele>1492.2</ele>
        <time>2022-07-18T14:48:37Z</time>
      </trkpt>
      <trkpt lat="44.43961" lon="7.10408">
        <ele>1492.2</ele>
        <time>2022-07-18T14:48:38Z</time>
      </trkpt>
      <trkpt lat="44.4396" lon="7.10408">
        <ele>1492.4</ele>
        <time>2022-07-18T14:48:39Z</time>
      </trkpt>
      <trkpt lat="44.43959" lon="7.10407">
        <ele>1492.4</ele>
        <time>2022-07-18T14:48:40Z</time>
      </trkpt>
      <trkpt lat="44.43957" lon="7.10407">
        <ele>1492.6</ele>
        <time>2022-07-18T14:48:41Z</time>
      </trkpt>
      <trkpt lat="44.43956" lon="7.10407">
        <ele>1492.6</ele>
        <time>2022-07-18T14:48:42Z</time>
      </trkpt>
      <trkpt lat="44.43954" lon="7.10407">
        <ele>1492.6</ele>
        <time>2022-07-18T14:48:43Z</time>
      </trkpt>
      <trkpt lat="44.43953" lon="7.10407">
        <ele>1493</ele>
        <time>2022-07-18T14:48:44Z</time>
      </trkpt>
      <trkpt lat="44.43951" lon="7.10406">
        <ele>1493</ele>
        <time>2022-07-18T14:48:45Z</time>
      </trkpt>
      <trkpt lat="44.4395" lon="7.10406">
        <ele>1493.2</ele>
        <time>2022-07-18T14:48:46Z</time>
      </trkpt>
      <trkpt lat="44.43949" lon="7.10405">
        <ele>1493.2</ele>
        <time>2022-07-18T14:48:47Z</time>
      </trkpt>
      <trkpt lat="44.43948" lon="7.10405">
        <ele>1493.4</ele>
        <time>2022-07-18T14:48:48Z</time>
      </trkpt>
      <trkpt lat="44.43946" lon="7.10405">
        <ele>1493.4</ele>
        <time>2022-07-18T14:48:49Z</time>
      </trkpt>
      <trkpt lat="44.43945" lon="7.10404">
        <ele>1493.8</ele>
        <time>2022-07-18T14:48:50Z</time>
      </trkpt>
      <trkpt lat="44.43944" lon="7.10404">
        <ele>1493.8</ele>
        <time>2022-07-18T14:48:51Z</time>
      </trkpt>
      <trkpt lat="44.43942" lon="7.10403">
        <ele>1494</ele>
        <time>2022-07-18T14:48:52Z</time>
      </trkpt>
      <trkpt lat="44.43941" lon="7.10403">
        <ele>1494</ele>
        <time>2022-07-18T14:48:53Z</time>
      </trkpt>
      <trkpt lat="44.4394" lon="7.10403">
        <ele>1494.2</ele>
        <time>2022-07-18T14:48:54Z</time>
      </trkpt>
      <trkpt lat="44.43938" lon="7.10402">
        <ele>1494.2</ele>
        <time>2022-07-18T14:48:55Z</time>
      </trkpt>
      <trkpt lat="44.43937" lon="7.10402">
        <ele>1494.6</ele>
        <time>2022-07-18T14:48:56Z</time>
      </trkpt>
      <trkpt lat="44.43935" lon="7.10402">
        <ele>1494.6</ele>
        <time>2022-07-18T14:48:57Z</time>
      </trkpt>
      <trkpt lat="44.43934" lon="7.10402">
        <ele>1494.8</ele>
        <time>2022-07-18T14:48:58Z</time>
      </trkpt>
      <trkpt lat="44.43932" lon="7.10401">
        <ele>1494.8</ele>
        <time>2022-07-18T14:48:59Z</time>
      </trkpt>
      <trkpt lat="44.4393" lon="7.104">
        <ele>1495.2</ele>
        <time>2022-07-18T14:49:00Z</time>
      </trkpt>
      <trkpt lat="44.43929" lon="7.104">
        <ele>1495.2</ele>
        <time>2022-07-18T14:49:01Z</time>
      </trkpt>
      <trkpt lat="44.43927" lon="7.10399">
        <ele>1495.2</ele>
        <time>2022-07-18T14:49:02Z</time>
      </trkpt>
      <trkpt lat="44.43926" lon="7.10399">
        <ele>1495.6</ele>
        <time>2022-07-18T14:49:03Z</time>
      </trkpt>
      <trkpt lat="44.43925" lon="7.10399">
        <ele>1495.6</ele>
        <time>2022-07-18T14:49:04Z</time>
      </trkpt>
      <trkpt lat="44.43923" lon="7.10399">
        <ele>1495.8</ele>
        <time>2022-07-18T14:49:05Z</time>
      </trkpt>
      <trkpt lat="44.43922" lon="7.10398">
        <ele>1495.8</ele>
        <time>2022-07-18T14:49:06Z</time>
      </trkpt>
      <trkpt lat="44.4392" lon="7.10398">
        <ele>1496</ele>
        <time>2022-07-18T14:49:07Z</time>
      </trkpt>
      <trkpt lat="44.43919" lon="7.10397">
        <ele>1496</ele>
        <time>2022-07-18T14:49:08Z</time>
      </trkpt>
      <trkpt lat="44.43917" lon="7.10397">
        <ele>1496.2</ele>
        <time>2022-07-18T14:49:09Z</time>
      </trkpt>
      <trkpt lat="44.43916" lon="7.10396">
        <ele>1496.2</ele>
        <time>2022-07-18T14:49:10Z</time>
      </trkpt>
      <trkpt lat="44.43914" lon="7.10396">
        <ele>1496.6</ele>
        <time>2022-07-18T14:49:11Z</time>
      </trkpt>
      <trkpt lat="44.43913" lon="7.10396">
        <ele>1496.6</ele>
        <time>2022-07-18T14:49:12Z</time>
      </trkpt>
      <trkpt lat="44.43911" lon="7.10396">
        <ele>1496.8</ele>
        <time>2022-07-18T14:49:13Z</time>
      </trkpt>
      <trkpt lat="44.43909" lon="7.10396">
        <ele>1496.8</ele>
        <time>2022-07-18T14:49:14Z</time>
      </trkpt>
      <trkpt lat="44.43907" lon="7.10395">
        <ele>1497.2</ele>
        <time>2022-07-18T14:49:15Z</time>
      </trkpt>
      <trkpt lat="44.43906" lon="7.10395">
        <ele>1497.2</ele>
        <time>2022-07-18T14:49:16Z</time>
      </trkpt>
      <trkpt lat="44.43904" lon="7.10395">
        <ele>1497.2</ele>
        <time>2022-07-18T14:49:17Z</time>
      </trkpt>
      <trkpt lat="44.43902" lon="7.10394">
        <ele>1497.6</ele>
        <time>2022-07-18T14:49:18Z</time>
      </trkpt>
      <trkpt lat="44.439" lon="7.10393">
        <ele>1497.6</ele>
        <time>2022-07-18T14:49:19Z</time>
      </trkpt>
      <trkpt lat="44.43897" lon="7.10392">
        <ele>1497.8</ele>
        <time>2022-07-18T14:49:20Z</time>
      </trkpt>
      <trkpt lat="44.43895" lon="7.10391">
        <ele>1497.8</ele>
        <time>2022-07-18T14:49:21Z</time>
      </trkpt>
      <trkpt lat="44.43893" lon="7.10391">
        <ele>1498.2</ele>
        <time>2022-07-18T14:49:22Z</time>
      </trkpt>
      <trkpt lat="44.43892" lon="7.1039">
        <ele>1498.2</ele>
        <time>2022-07-18T14:49:23Z</time>
      </trkpt>
      <trkpt lat="44.4389" lon="7.1039">
        <ele>1498.4</ele>
        <time>2022-07-18T14:49:24Z</time>
      </trkpt>
      <trkpt lat="44.43888" lon="7.10389">
        <ele>1498.4</ele>
        <time>2022-07-18T14:49:25Z</time>
      </trkpt>
      <trkpt lat="44.43886" lon="7.10389">
        <ele>1498.8</ele>
        <time>2022-07-18T14:49:26Z</time>
      </trkpt>
      <trkpt lat="44.43884" lon="7.10388">
        <ele>1498.8</ele>
        <time>2022-07-18T14:49:27Z</time>
      </trkpt>
      <trkpt lat="44.43882" lon="7.10388">
        <ele>1499</ele>
        <time>2022-07-18T14:49:28Z</time>
      </trkpt>
      <trkpt lat="44.43881" lon="7.10388">
        <ele>1499</ele>
        <time>2022-07-18T14:49:29Z</time>
      </trkpt>
      <trkpt lat="44.43879" lon="7.10388">
        <ele>1499.4</ele>
        <time>2022-07-18T14:49:30Z</time>
      </trkpt>
      <trkpt lat="44.43877" lon="7.10388">
        <ele>1499.4</ele>
        <time>2022-07-18T14:49:31Z</time>
      </trkpt>
      <trkpt lat="44.43875" lon="7.10387">
        <ele>1499.6</ele>
        <time>2022-07-18T14:49:32Z</time>
      </trkpt>
      <trkpt lat="44.43873" lon="7.10387">
        <ele>1499.6</ele>
        <time>2022-07-18T14:49:33Z</time>
      </trkpt>
      <trkpt lat="44.43871" lon="7.10387">
        <ele>1499.8</ele>
        <time>2022-07-18T14:49:34Z</time>
      </trkpt>
      <trkpt lat="44.43869" lon="7.10386">
        <ele>1499.8</ele>
        <time>2022-07-18T14:49:35Z</time>
      </trkpt>
      <trkpt lat="44.43867" lon="7.10386">
        <ele>1500.2</ele>
        <time>2022-07-18T14:49:36Z</time>
      </trkpt>
      <trkpt lat="44.43865" lon="7.10386">
        <ele>1500.2</ele>
        <time>2022-07-18T14:49:37Z</time>
      </trkpt>
      <trkpt lat="44.43863" lon="7.10386">
        <ele>1500.4</ele>
        <time>2022-07-18T14:49:38Z</time>
      </trkpt>
      <trkpt lat="44.43861" lon="7.10385">
        <ele>1500.6</ele>
        <time>2022-07-18T14:49:39Z</time>
      </trkpt>
      <trkpt lat="44.4386" lon="7.10385">
        <ele>1500.6</ele>
        <time>2022-07-18T14:49:40Z</time>
      </trkpt>
      <trkpt lat="44.43858" lon="7.10385">
        <ele>1501</ele>
        <time>2022-07-18T14:49:41Z</time>
      </trkpt>
      <trkpt lat="44.43856" lon="7.10385">
        <ele>1501</ele>
        <time>2022-07-18T14:49:42Z</time>
      </trkpt>
      <trkpt lat="44.43855" lon="7.10384">
        <ele>1501.2</ele>
        <time>2022-07-18T14:49:43Z</time>
      </trkpt>
      <trkpt lat="44.43853" lon="7.10384">
        <ele>1501.2</ele>
        <time>2022-07-18T14:49:44Z</time>
      </trkpt>
      <trkpt lat="44.43851" lon="7.10383">
        <ele>1501.6</ele>
        <time>2022-07-18T14:49:45Z</time>
      </trkpt>
      <trkpt lat="44.4385" lon="7.10382">
        <ele>1501.6</ele>
        <time>2022-07-18T14:49:46Z</time>
      </trkpt>
      <trkpt lat="44.43848" lon="7.10381">
        <ele>1501.8</ele>
        <time>2022-07-18T14:49:47Z</time>
      </trkpt>
      <trkpt lat="44.43846" lon="7.1038">
        <ele>1501.8</ele>
        <time>2022-07-18T14:49:48Z</time>
      </trkpt>
      <trkpt lat="44.43845" lon="7.10378">
        <ele>1502</ele>
        <time>2022-07-18T14:49:49Z</time>
      </trkpt>
      <trkpt lat="44.43843" lon="7.10377">
        <ele>1502</ele>
        <time>2022-07-18T14:49:50Z</time>
      </trkpt>
      <trkpt lat="44.43841" lon="7.10375">
        <ele>1502.2</ele>
        <time>2022-07-18T14:49:51Z</time>
      </trkpt>
      <trkpt lat="44.4384" lon="7.10374">
        <ele>1502.2</ele>
        <time>2022-07-18T14:49:52Z</time>
      </trkpt>
      <trkpt lat="44.43838" lon="7.10373">
        <ele>1502.6</ele>
        <time>2022-07-18T14:49:53Z</time>
      </trkpt>
      <trkpt lat="44.43837" lon="7.10372">
        <ele>1502.6</ele>
        <time>2022-07-18T14:49:54Z</time>
      </trkpt>
      <trkpt lat="44.43835" lon="7.10371">
        <ele>1502.8</ele>
        <time>2022-07-18T14:49:55Z</time>
      </trkpt>
      <trkpt lat="44.43833" lon="7.1037">
        <ele>1503.2</ele>
        <time>2022-07-18T14:49:56Z</time>
      </trkpt>
      <trkpt lat="44.43832" lon="7.10369">
        <ele>1503.2</ele>
        <time>2022-07-18T14:49:57Z</time>
      </trkpt>
      <trkpt lat="44.43831" lon="7.10368">
        <ele>1503.4</ele>
        <time>2022-07-18T14:49:58Z</time>
      </trkpt>
      <trkpt lat="44.43829" lon="7.10367">
        <ele>1503.4</ele>
        <time>2022-07-18T14:49:59Z</time>
      </trkpt>
      <trkpt lat="44.43828" lon="7.10366">
        <ele>1503.6</ele>
        <time>2022-07-18T14:50:00Z</time>
      </trkpt>
      <trkpt lat="44.43826" lon="7.10365">
        <ele>1503.6</ele>
        <time>2022-07-18T14:50:01Z</time>
      </trkpt>
      <trkpt lat="44.43825" lon="7.10364">
        <ele>1504</ele>
        <time>2022-07-18T14:50:02Z</time>
      </trkpt>
      <trkpt lat="44.43824" lon="7.10363">
        <ele>1504</ele>
        <time>2022-07-18T14:50:03Z</time>
      </trkpt>
      <trkpt lat="44.43822" lon="7.10362">
        <ele>1504.4</ele>
        <time>2022-07-18T14:50:04Z</time>
      </trkpt>
      <trkpt lat="44.43821" lon="7.10361">
        <ele>1504.4</ele>
        <time>2022-07-18T14:50:05Z</time>
      </trkpt>
      <trkpt lat="44.43819" lon="7.1036">
        <ele>1504.4</ele>
        <time>2022-07-18T14:50:06Z</time>
      </trkpt>
      <trkpt lat="44.43817" lon="7.1036">
        <ele>1504.6</ele>
        <time>2022-07-18T14:50:07Z</time>
      </trkpt>
      <trkpt lat="44.43815" lon="7.1036">
        <ele>1504.6</ele>
        <time>2022-07-18T14:50:08Z</time>
      </trkpt>
      <trkpt lat="44.43814" lon="7.1036">
        <ele>1505</ele>
        <time>2022-07-18T14:50:09Z</time>
      </trkpt>
      <trkpt lat="44.43812" lon="7.1036">
        <ele>1505</ele>
        <time>2022-07-18T14:50:10Z</time>
      </trkpt>
      <trkpt lat="44.43811" lon="7.1036">
        <ele>1505.2</ele>
        <time>2022-07-18T14:50:11Z</time>
      </trkpt>
      <trkpt lat="44.43809" lon="7.1036">
        <ele>1505.2</ele>
        <time>2022-07-18T14:50:12Z</time>
      </trkpt>
      <trkpt lat="44.43808" lon="7.1036">
        <ele>1505.4</ele>
        <time>2022-07-18T14:50:13Z</time>
      </trkpt>
      <trkpt lat="44.43806" lon="7.1036">
        <ele>1505.4</ele>
        <time>2022-07-18T14:50:14Z</time>
      </trkpt>
      <trkpt lat="44.43805" lon="7.1036">
        <ele>1505.8</ele>
        <time>2022-07-18T14:50:15Z</time>
      </trkpt>
      <trkpt lat="44.43803" lon="7.1036">
        <ele>1505.8</ele>
        <time>2022-07-18T14:50:16Z</time>
      </trkpt>
      <trkpt lat="44.43802" lon="7.1036">
        <ele>1506</ele>
        <time>2022-07-18T14:50:17Z</time>
      </trkpt>
      <trkpt lat="44.43801" lon="7.10359">
        <ele>1506</ele>
        <time>2022-07-18T14:50:18Z</time>
      </trkpt>
      <trkpt lat="44.43799" lon="7.10359">
        <ele>1506.2</ele>
        <time>2022-07-18T14:50:19Z</time>
      </trkpt>
      <trkpt lat="44.43798" lon="7.10359">
        <ele>1506.2</ele>
        <time>2022-07-18T14:50:20Z</time>
      </trkpt>
      <trkpt lat="44.43797" lon="7.10358">
        <ele>1506.2</ele>
        <time>2022-07-18T14:50:21Z</time>
      </trkpt>
      <trkpt lat="44.43795" lon="7.10358">
        <ele>1506.4</ele>
        <time>2022-07-18T14:50:22Z</time>
      </trkpt>
      <trkpt lat="44.43794" lon="7.10358">
        <ele>1506.4</ele>
        <time>2022-07-18T14:50:23Z</time>
      </trkpt>
      <trkpt lat="44.43792" lon="7.10358">
        <ele>1506.8</ele>
        <time>2022-07-18T14:50:24Z</time>
      </trkpt>
      <trkpt lat="44.4379" lon="7.10357">
        <ele>1506.8</ele>
        <time>2022-07-18T14:50:25Z</time>
      </trkpt>
      <trkpt lat="44.43789" lon="7.10357">
        <ele>1507.2</ele>
        <time>2022-07-18T14:50:26Z</time>
      </trkpt>
      <trkpt lat="44.43787" lon="7.10356">
        <ele>1507.6</ele>
        <time>2022-07-18T14:50:27Z</time>
      </trkpt>
      <trkpt lat="44.43785" lon="7.10356">
        <ele>1507.6</ele>
        <time>2022-07-18T14:50:28Z</time>
      </trkpt>
      <trkpt lat="44.43783" lon="7.10355">
        <ele>1507.8</ele>
        <time>2022-07-18T14:50:29Z</time>
      </trkpt>
      <trkpt lat="44.43781" lon="7.10355">
        <ele>1507.8</ele>
        <time>2022-07-18T14:50:30Z</time>
      </trkpt>
      <trkpt lat="44.43779" lon="7.10354">
        <ele>1508</ele>
        <time>2022-07-18T14:50:31Z</time>
      </trkpt>
      <trkpt lat="44.43777" lon="7.10353">
        <ele>1508</ele>
        <time>2022-07-18T14:50:32Z</time>
      </trkpt>
      <trkpt lat="44.43775" lon="7.10353">
        <ele>1508.2</ele>
        <time>2022-07-18T14:50:33Z</time>
      </trkpt>
      <trkpt lat="44.43774" lon="7.10352">
        <ele>1508.2</ele>
        <time>2022-07-18T14:50:34Z</time>
      </trkpt>
      <trkpt lat="44.43772" lon="7.10352">
        <ele>1508.6</ele>
        <time>2022-07-18T14:50:35Z</time>
      </trkpt>
      <trkpt lat="44.43769" lon="7.10352">
        <ele>1508.6</ele>
        <time>2022-07-18T14:50:36Z</time>
      </trkpt>
      <trkpt lat="44.43767" lon="7.10351">
        <ele>1508.8</ele>
        <time>2022-07-18T14:50:37Z</time>
      </trkpt>
      <trkpt lat="44.43765" lon="7.1035">
        <ele>1508.8</ele>
        <time>2022-07-18T14:50:38Z</time>
      </trkpt>
      <trkpt lat="44.43763" lon="7.10349">
        <ele>1509.2</ele>
        <time>2022-07-18T14:50:39Z</time>
      </trkpt>
      <trkpt lat="44.43761" lon="7.10348">
        <ele>1509.2</ele>
        <time>2022-07-18T14:50:40Z</time>
      </trkpt>
      <trkpt lat="44.43759" lon="7.10348">
        <ele>1509.4</ele>
        <time>2022-07-18T14:50:41Z</time>
      </trkpt>
      <trkpt lat="44.43757" lon="7.10347">
        <ele>1509.4</ele>
        <time>2022-07-18T14:50:42Z</time>
      </trkpt>
      <trkpt lat="44.43755" lon="7.10347">
        <ele>1509.8</ele>
        <time>2022-07-18T14:50:43Z</time>
      </trkpt>
      <trkpt lat="44.43753" lon="7.10347">
        <ele>1509.8</ele>
        <time>2022-07-18T14:50:44Z</time>
      </trkpt>
      <trkpt lat="44.43751" lon="7.10346">
        <ele>1510</ele>
        <time>2022-07-18T14:50:45Z</time>
      </trkpt>
      <trkpt lat="44.43749" lon="7.10345">
        <ele>1510</ele>
        <time>2022-07-18T14:50:46Z</time>
      </trkpt>
      <trkpt lat="44.43747" lon="7.10344">
        <ele>1510.4</ele>
        <time>2022-07-18T14:50:47Z</time>
      </trkpt>
      <trkpt lat="44.43745" lon="7.10343">
        <ele>1510.4</ele>
        <time>2022-07-18T14:50:48Z</time>
      </trkpt>
      <trkpt lat="44.43744" lon="7.10342">
        <ele>1510.6</ele>
        <time>2022-07-18T14:50:49Z</time>
      </trkpt>
      <trkpt lat="44.43742" lon="7.10341">
        <ele>1510.6</ele>
        <time>2022-07-18T14:50:50Z</time>
      </trkpt>
      <trkpt lat="44.4374" lon="7.10341">
        <ele>1510.6</ele>
        <time>2022-07-18T14:50:51Z</time>
      </trkpt>
      <trkpt lat="44.43738" lon="7.1034">
        <ele>1510.8</ele>
        <time>2022-07-18T14:50:52Z</time>
      </trkpt>
      <trkpt lat="44.43736" lon="7.10339">
        <ele>1510.8</ele>
        <time>2022-07-18T14:50:53Z</time>
      </trkpt>
      <trkpt lat="44.43735" lon="7.10338">
        <ele>1511.2</ele>
        <time>2022-07-18T14:50:54Z</time>
      </trkpt>
      <trkpt lat="44.43734" lon="7.10337">
        <ele>1511.2</ele>
        <time>2022-07-18T14:50:55Z</time>
      </trkpt>
      <trkpt lat="44.43732" lon="7.10336">
        <ele>1511.6</ele>
        <time>2022-07-18T14:50:56Z</time>
      </trkpt>
      <trkpt lat="44.43731" lon="7.10334">
        <ele>1511.6</ele>
        <time>2022-07-18T14:50:57Z</time>
      </trkpt>
      <trkpt lat="44.4373" lon="7.10334">
        <ele>1511.8</ele>
        <time>2022-07-18T14:50:58Z</time>
      </trkpt>
      <trkpt lat="44.43728" lon="7.10333">
        <ele>1511.8</ele>
        <time>2022-07-18T14:50:59Z</time>
      </trkpt>
      <trkpt lat="44.43726" lon="7.10332">
        <ele>1512.2</ele>
        <time>2022-07-18T14:51:00Z</time>
      </trkpt>
      <trkpt lat="44.43724" lon="7.10331">
        <ele>1512.2</ele>
        <time>2022-07-18T14:51:01Z</time>
      </trkpt>
      <trkpt lat="44.43723" lon="7.1033">
        <ele>1512.4</ele>
        <time>2022-07-18T14:51:02Z</time>
      </trkpt>
      <trkpt lat="44.43721" lon="7.10329">
        <ele>1512.4</ele>
        <time>2022-07-18T14:51:03Z</time>
      </trkpt>
      <trkpt lat="44.43719" lon="7.10328">
        <ele>1512.6</ele>
        <time>2022-07-18T14:51:04Z</time>
      </trkpt>
      <trkpt lat="44.43717" lon="7.10328">
        <ele>1512.6</ele>
        <time>2022-07-18T14:51:05Z</time>
      </trkpt>
      <trkpt lat="44.43715" lon="7.10327">
        <ele>1512.8</ele>
        <time>2022-07-18T14:51:06Z</time>
      </trkpt>
      <trkpt lat="44.43713" lon="7.10327">
        <ele>1512.8</ele>
        <time>2022-07-18T14:51:07Z</time>
      </trkpt>
      <trkpt lat="44.43711" lon="7.10326">
        <ele>1513</ele>
        <time>2022-07-18T14:51:08Z</time>
      </trkpt>
      <trkpt lat="44.43709" lon="7.10326">
        <ele>1513.2</ele>
        <time>2022-07-18T14:51:09Z</time>
      </trkpt>
      <trkpt lat="44.43708" lon="7.10325">
        <ele>1513.2</ele>
        <time>2022-07-18T14:51:10Z</time>
      </trkpt>
      <trkpt lat="44.43706" lon="7.10324">
        <ele>1513.6</ele>
        <time>2022-07-18T14:51:11Z</time>
      </trkpt>
      <trkpt lat="44.43704" lon="7.10324">
        <ele>1513.6</ele>
        <time>2022-07-18T14:51:12Z</time>
      </trkpt>
      <trkpt lat="44.43702" lon="7.10324">
        <ele>1513.8</ele>
        <time>2022-07-18T14:51:13Z</time>
      </trkpt>
      <trkpt lat="44.43701" lon="7.10324">
        <ele>1513.8</ele>
        <time>2022-07-18T14:51:14Z</time>
      </trkpt>
      <trkpt lat="44.43699" lon="7.10324">
        <ele>1514</ele>
        <time>2022-07-18T14:51:15Z</time>
      </trkpt>
      <trkpt lat="44.43697" lon="7.10323">
        <ele>1514</ele>
        <time>2022-07-18T14:51:16Z</time>
      </trkpt>
      <trkpt lat="44.43695" lon="7.10322">
        <ele>1514.4</ele>
        <time>2022-07-18T14:51:17Z</time>
      </trkpt>
      <trkpt lat="44.43693" lon="7.10322">
        <ele>1514.4</ele>
        <time>2022-07-18T14:51:18Z</time>
      </trkpt>
      <trkpt lat="44.43691" lon="7.10322">
        <ele>1514.6</ele>
        <time>2022-07-18T14:51:19Z</time>
      </trkpt>
      <trkpt lat="44.43688" lon="7.10321">
        <ele>1514.6</ele>
        <time>2022-07-18T14:51:20Z</time>
      </trkpt>
      <trkpt lat="44.43686" lon="7.10321">
        <ele>1514.8</ele>
        <time>2022-07-18T14:51:21Z</time>
      </trkpt>
      <trkpt lat="44.43684" lon="7.1032">
        <ele>1514.8</ele>
        <time>2022-07-18T14:51:22Z</time>
      </trkpt>
      <trkpt lat="44.43682" lon="7.1032">
        <ele>1515.2</ele>
        <time>2022-07-18T14:51:23Z</time>
      </trkpt>
      <trkpt lat="44.4368" lon="7.1032">
        <ele>1515.2</ele>
        <time>2022-07-18T14:51:24Z</time>
      </trkpt>
      <trkpt lat="44.43677" lon="7.1032">
        <ele>1515.4</ele>
        <time>2022-07-18T14:51:25Z</time>
      </trkpt>
      <trkpt lat="44.43675" lon="7.1032">
        <ele>1515.4</ele>
        <time>2022-07-18T14:51:26Z</time>
      </trkpt>
      <trkpt lat="44.43673" lon="7.1032">
        <ele>1515.8</ele>
        <time>2022-07-18T14:51:27Z</time>
      </trkpt>
      <trkpt lat="44.43671" lon="7.10319">
        <ele>1515.8</ele>
        <time>2022-07-18T14:51:28Z</time>
      </trkpt>
      <trkpt lat="44.43669" lon="7.1032">
        <ele>1516</ele>
        <time>2022-07-18T14:51:29Z</time>
      </trkpt>
      <trkpt lat="44.43667" lon="7.1032">
        <ele>1516</ele>
        <time>2022-07-18T14:51:30Z</time>
      </trkpt>
      <trkpt lat="44.43665" lon="7.10319">
        <ele>1516.4</ele>
        <time>2022-07-18T14:51:31Z</time>
      </trkpt>
      <trkpt lat="44.43663" lon="7.10319">
        <ele>1516.4</ele>
        <time>2022-07-18T14:51:32Z</time>
      </trkpt>
      <trkpt lat="44.43661" lon="7.10319">
        <ele>1516.6</ele>
        <time>2022-07-18T14:51:33Z</time>
      </trkpt>
      <trkpt lat="44.43659" lon="7.10319">
        <ele>1516.6</ele>
        <time>2022-07-18T14:51:34Z</time>
      </trkpt>
      <trkpt lat="44.43657" lon="7.10319">
        <ele>1517</ele>
        <time>2022-07-18T14:51:35Z</time>
      </trkpt>
      <trkpt lat="44.43655" lon="7.10319">
        <ele>1517</ele>
        <time>2022-07-18T14:51:36Z</time>
      </trkpt>
      <trkpt lat="44.43653" lon="7.10319">
        <ele>1517.2</ele>
        <time>2022-07-18T14:51:37Z</time>
      </trkpt>
      <trkpt lat="44.43651" lon="7.1032">
        <ele>1517.2</ele>
        <time>2022-07-18T14:51:38Z</time>
      </trkpt>
      <trkpt lat="44.43649" lon="7.1032">
        <ele>1517.6</ele>
        <time>2022-07-18T14:51:39Z</time>
      </trkpt>
      <trkpt lat="44.43647" lon="7.1032">
        <ele>1517.6</ele>
        <time>2022-07-18T14:51:40Z</time>
      </trkpt>
      <trkpt lat="44.43645" lon="7.1032">
        <ele>1517.8</ele>
        <time>2022-07-18T14:51:41Z</time>
      </trkpt>
      <trkpt lat="44.43642" lon="7.1032">
        <ele>1517.8</ele>
        <time>2022-07-18T14:51:42Z</time>
      </trkpt>
      <trkpt lat="44.4364" lon="7.1032">
        <ele>1518</ele>
        <time>2022-07-18T14:51:43Z</time>
      </trkpt>
      <trkpt lat="44.43638" lon="7.10319">
        <ele>1518.4</ele>
        <time>2022-07-18T14:51:44Z</time>
      </trkpt>
      <trkpt lat="44.43636" lon="7.10318">
        <ele>1518.6</ele>
        <time>2022-07-18T14:51:45Z</time>
      </trkpt>
      <trkpt lat="44.43634" lon="7.10317">
        <ele>1518.6</ele>
        <time>2022-07-18T14:51:46Z</time>
      </trkpt>
      <trkpt lat="44.43632" lon="7.10316">
        <ele>1518.8</ele>
        <time>2022-07-18T14:51:47Z</time>
      </trkpt>
      <trkpt lat="44.43629" lon="7.10315">
        <ele>1518.8</ele>
        <time>2022-07-18T14:51:48Z</time>
      </trkpt>
      <trkpt lat="44.43627" lon="7.10315">
        <ele>1519.2</ele>
        <time>2022-07-18T14:51:49Z</time>
      </trkpt>
      <trkpt lat="44.43625" lon="7.10314">
        <ele>1519.2</ele>
        <time>2022-07-18T14:51:50Z</time>
      </trkpt>
      <trkpt lat="44.43623" lon="7.10314">
        <ele>1519.6</ele>
        <time>2022-07-18T14:51:51Z</time>
      </trkpt>
      <trkpt lat="44.43621" lon="7.10313">
        <ele>1519.8</ele>
        <time>2022-07-18T14:51:52Z</time>
      </trkpt>
      <trkpt lat="44.43618" lon="7.10313">
        <ele>1519.8</ele>
        <time>2022-07-18T14:51:53Z</time>
      </trkpt>
      <trkpt lat="44.43616" lon="7.10313">
        <ele>1520.2</ele>
        <time>2022-07-18T14:51:54Z</time>
      </trkpt>
      <trkpt lat="44.43614" lon="7.10313">
        <ele>1520.2</ele>
        <time>2022-07-18T14:51:55Z</time>
      </trkpt>
      <trkpt lat="44.43612" lon="7.10312">
        <ele>1520.4</ele>
        <time>2022-07-18T14:51:56Z</time>
      </trkpt>
      <trkpt lat="44.43609" lon="7.10312">
        <ele>1520.8</ele>
        <time>2022-07-18T14:51:57Z</time>
      </trkpt>
      <trkpt lat="44.43606" lon="7.10312">
        <ele>1520.8</ele>
        <time>2022-07-18T14:51:58Z</time>
      </trkpt>
      <trkpt lat="44.43604" lon="7.10311">
        <ele>1521</ele>
        <time>2022-07-18T14:51:59Z</time>
      </trkpt>
      <trkpt lat="44.43602" lon="7.10311">
        <ele>1521</ele>
        <time>2022-07-18T14:52:00Z</time>
      </trkpt>
      <trkpt lat="44.43599" lon="7.10311">
        <ele>1521.2</ele>
        <time>2022-07-18T14:52:01Z</time>
      </trkpt>
      <trkpt lat="44.43597" lon="7.10311">
        <ele>1521.2</ele>
        <time>2022-07-18T14:52:02Z</time>
      </trkpt>
      <trkpt lat="44.43595" lon="7.10311">
        <ele>1521.6</ele>
        <time>2022-07-18T14:52:03Z</time>
      </trkpt>
      <trkpt lat="44.43593" lon="7.10312">
        <ele>1521.6</ele>
        <time>2022-07-18T14:52:04Z</time>
      </trkpt>
      <trkpt lat="44.43591" lon="7.10312">
        <ele>1521.8</ele>
        <time>2022-07-18T14:52:05Z</time>
      </trkpt>
      <trkpt lat="44.43588" lon="7.10312">
        <ele>1521.8</ele>
        <time>2022-07-18T14:52:06Z</time>
      </trkpt>
      <trkpt lat="44.43586" lon="7.10312">
        <ele>1522</ele>
        <time>2022-07-18T14:52:07Z</time>
      </trkpt>
      <trkpt lat="44.43584" lon="7.10312">
        <ele>1522</ele>
        <time>2022-07-18T14:52:08Z</time>
      </trkpt>
      <trkpt lat="44.43581" lon="7.10313">
        <ele>1522</ele>
        <time>2022-07-18T14:52:09Z</time>
      </trkpt>
      <trkpt lat="44.43579" lon="7.10313">
        <ele>1522.4</ele>
        <time>2022-07-18T14:52:10Z</time>
      </trkpt>
      <trkpt lat="44.43577" lon="7.10313">
        <ele>1522.4</ele>
        <time>2022-07-18T14:52:11Z</time>
      </trkpt>
      <trkpt lat="44.43574" lon="7.10313">
        <ele>1522.6</ele>
        <time>2022-07-18T14:52:12Z</time>
      </trkpt>
      <trkpt lat="44.43572" lon="7.10313">
        <ele>1522.6</ele>
        <time>2022-07-18T14:52:13Z</time>
      </trkpt>
      <trkpt lat="44.4357" lon="7.10312">
        <ele>1522.8</ele>
        <time>2022-07-18T14:52:14Z</time>
      </trkpt>
      <trkpt lat="44.43567" lon="7.10312">
        <ele>1522.8</ele>
        <time>2022-07-18T14:52:15Z</time>
      </trkpt>
      <trkpt lat="44.43565" lon="7.10312">
        <ele>1523.2</ele>
        <time>2022-07-18T14:52:16Z</time>
      </trkpt>
      <trkpt lat="44.43563" lon="7.10312">
        <ele>1523.2</ele>
        <time>2022-07-18T14:52:17Z</time>
      </trkpt>
      <trkpt lat="44.4356" lon="7.10312">
        <ele>1523.2</ele>
        <time>2022-07-18T14:52:18Z</time>
      </trkpt>
      <trkpt lat="44.43558" lon="7.10313">
        <ele>1523.6</ele>
        <time>2022-07-18T14:52:19Z</time>
      </trkpt>
      <trkpt lat="44.43556" lon="7.10313">
        <ele>1523.6</ele>
        <time>2022-07-18T14:52:20Z</time>
      </trkpt>
      <trkpt lat="44.43553" lon="7.10313">
        <ele>1523.8</ele>
        <time>2022-07-18T14:52:21Z</time>
      </trkpt>
      <trkpt lat="44.43551" lon="7.10313">
        <ele>1523.8</ele>
        <time>2022-07-18T14:52:22Z</time>
      </trkpt>
      <trkpt lat="44.43549" lon="7.10314">
        <ele>1524</ele>
        <time>2022-07-18T14:52:23Z</time>
      </trkpt>
      <trkpt lat="44.43547" lon="7.10314">
        <ele>1524</ele>
        <time>2022-07-18T14:52:24Z</time>
      </trkpt>
      <trkpt lat="44.43545" lon="7.10314">
        <ele>1524.4</ele>
        <time>2022-07-18T14:52:25Z</time>
      </trkpt>
      <trkpt lat="44.43543" lon="7.10314">
        <ele>1524.6</ele>
        <time>2022-07-18T14:52:26Z</time>
      </trkpt>
      <trkpt lat="44.43541" lon="7.10315">
        <ele>1524.6</ele>
        <time>2022-07-18T14:52:27Z</time>
      </trkpt>
      <trkpt lat="44.43539" lon="7.10316">
        <ele>1524.8</ele>
        <time>2022-07-18T14:52:28Z</time>
      </trkpt>
      <trkpt lat="44.43537" lon="7.10316">
        <ele>1524.8</ele>
        <time>2022-07-18T14:52:29Z</time>
      </trkpt>
      <trkpt lat="44.43535" lon="7.10317">
        <ele>1525.2</ele>
        <time>2022-07-18T14:52:30Z</time>
      </trkpt>
      <trkpt lat="44.43533" lon="7.10318">
        <ele>1525.2</ele>
        <time>2022-07-18T14:52:31Z</time>
      </trkpt>
      <trkpt lat="44.43531" lon="7.10319">
        <ele>1525.2</ele>
        <time>2022-07-18T14:52:32Z</time>
      </trkpt>
      <trkpt lat="44.43528" lon="7.10319">
        <ele>1525.6</ele>
        <time>2022-07-18T14:52:33Z</time>
      </trkpt>
      <trkpt lat="44.43526" lon="7.1032">
        <ele>1525.6</ele>
        <time>2022-07-18T14:52:34Z</time>
      </trkpt>
      <trkpt lat="44.43524" lon="7.1032">
        <ele>1525.6</ele>
        <time>2022-07-18T14:52:35Z</time>
      </trkpt>
      <trkpt lat="44.43521" lon="7.10321">
        <ele>1525.8</ele>
        <time>2022-07-18T14:52:36Z</time>
      </trkpt>
      <trkpt lat="44.43519" lon="7.10321">
        <ele>1525.8</ele>
        <time>2022-07-18T14:52:37Z</time>
      </trkpt>
      <trkpt lat="44.43517" lon="7.10322">
        <ele>1526.2</ele>
        <time>2022-07-18T14:52:38Z</time>
      </trkpt>
      <trkpt lat="44.43515" lon="7.10323">
        <ele>1526.2</ele>
        <time>2022-07-18T14:52:39Z</time>
      </trkpt>
      <trkpt lat="44.43513" lon="7.10324">
        <ele>1526.4</ele>
        <time>2022-07-18T14:52:40Z</time>
      </trkpt>
      <trkpt lat="44.43511" lon="7.10325">
        <ele>1526.4</ele>
        <time>2022-07-18T14:52:41Z</time>
      </trkpt>
      <trkpt lat="44.43509" lon="7.10325">
        <ele>1526.8</ele>
        <time>2022-07-18T14:52:42Z</time>
      </trkpt>
      <trkpt lat="44.43507" lon="7.10325">
        <ele>1526.8</ele>
        <time>2022-07-18T14:52:43Z</time>
      </trkpt>
      <trkpt lat="44.43504" lon="7.10325">
        <ele>1527</ele>
        <time>2022-07-18T14:52:44Z</time>
      </trkpt>
      <trkpt lat="44.43502" lon="7.10325">
        <ele>1527</ele>
        <time>2022-07-18T14:52:45Z</time>
      </trkpt>
      <trkpt lat="44.435" lon="7.10324">
        <ele>1527.4</ele>
        <time>2022-07-18T14:52:46Z</time>
      </trkpt>
      <trkpt lat="44.43499" lon="7.10324">
        <ele>1527.4</ele>
        <time>2022-07-18T14:52:47Z</time>
      </trkpt>
      <trkpt lat="44.43497" lon="7.10324">
        <ele>1527.6</ele>
        <time>2022-07-18T14:52:48Z</time>
      </trkpt>
      <trkpt lat="44.43495" lon="7.10324">
        <ele>1527.6</ele>
        <time>2022-07-18T14:52:49Z</time>
      </trkpt>
      <trkpt lat="44.43492" lon="7.10323">
        <ele>1527.8</ele>
        <time>2022-07-18T14:52:50Z</time>
      </trkpt>
      <trkpt lat="44.4349" lon="7.10323">
        <ele>1528</ele>
        <time>2022-07-18T14:52:51Z</time>
      </trkpt>
      <trkpt lat="44.43488" lon="7.10322">
        <ele>1528</ele>
        <time>2022-07-18T14:52:52Z</time>
      </trkpt>
      <trkpt lat="44.43486" lon="7.10322">
        <ele>1528.2</ele>
        <time>2022-07-18T14:52:53Z</time>
      </trkpt>
      <trkpt lat="44.43484" lon="7.10322">
        <ele>1528.2</ele>
        <time>2022-07-18T14:52:54Z</time>
      </trkpt>
      <trkpt lat="44.43482" lon="7.10321">
        <ele>1528.4</ele>
        <time>2022-07-18T14:52:55Z</time>
      </trkpt>
      <trkpt lat="44.4348" lon="7.10322">
        <ele>1528.4</ele>
        <time>2022-07-18T14:52:56Z</time>
      </trkpt>
      <trkpt lat="44.43478" lon="7.10321">
        <ele>1528.8</ele>
        <time>2022-07-18T14:52:57Z</time>
      </trkpt>
      <trkpt lat="44.43476" lon="7.10321">
        <ele>1528.8</ele>
        <time>2022-07-18T14:52:58Z</time>
      </trkpt>
      <trkpt lat="44.43473" lon="7.10321">
        <ele>1529</ele>
        <time>2022-07-18T14:52:59Z</time>
      </trkpt>
      <trkpt lat="44.43471" lon="7.1032">
        <ele>1529</ele>
        <time>2022-07-18T14:53:00Z</time>
      </trkpt>
      <trkpt lat="44.43469" lon="7.10321">
        <ele>1529.4</ele>
        <time>2022-07-18T14:53:01Z</time>
      </trkpt>
      <trkpt lat="44.43467" lon="7.10321">
        <ele>1529.6</ele>
        <time>2022-07-18T14:53:02Z</time>
      </trkpt>
      <trkpt lat="44.43465" lon="7.10321">
        <ele>1529.6</ele>
        <time>2022-07-18T14:53:03Z</time>
      </trkpt>
      <trkpt lat="44.43463" lon="7.10322">
        <ele>1529.8</ele>
        <time>2022-07-18T14:53:04Z</time>
      </trkpt>
      <trkpt lat="44.4346" lon="7.10322">
        <ele>1529.8</ele>
        <time>2022-07-18T14:53:05Z</time>
      </trkpt>
      <trkpt lat="44.43458" lon="7.10322">
        <ele>1530</ele>
        <time>2022-07-18T14:53:06Z</time>
      </trkpt>
      <trkpt lat="44.43456" lon="7.10322">
        <ele>1530</ele>
        <time>2022-07-18T14:53:07Z</time>
      </trkpt>
      <trkpt lat="44.43454" lon="7.10322">
        <ele>1530.4</ele>
        <time>2022-07-18T14:53:08Z</time>
      </trkpt>
      <trkpt lat="44.43452" lon="7.10323">
        <ele>1530.4</ele>
        <time>2022-07-18T14:53:09Z</time>
      </trkpt>
      <trkpt lat="44.4345" lon="7.10323">
        <ele>1530.6</ele>
        <time>2022-07-18T14:53:10Z</time>
      </trkpt>
      <trkpt lat="44.43447" lon="7.10324">
        <ele>1530.6</ele>
        <time>2022-07-18T14:53:11Z</time>
      </trkpt>
      <trkpt lat="44.43445" lon="7.10324">
        <ele>1531</ele>
        <time>2022-07-18T14:53:12Z</time>
      </trkpt>
      <trkpt lat="44.43443" lon="7.10325">
        <ele>1531.2</ele>
        <time>2022-07-18T14:53:13Z</time>
      </trkpt>
      <trkpt lat="44.43442" lon="7.10326">
        <ele>1531.4</ele>
        <time>2022-07-18T14:53:14Z</time>
      </trkpt>
      <trkpt lat="44.4344" lon="7.10326">
        <ele>1531.4</ele>
        <time>2022-07-18T14:53:15Z</time>
      </trkpt>
      <trkpt lat="44.43438" lon="7.10326">
        <ele>1531.8</ele>
        <time>2022-07-18T14:53:16Z</time>
      </trkpt>
      <trkpt lat="44.43436" lon="7.10327">
        <ele>1531.8</ele>
        <time>2022-07-18T14:53:17Z</time>
      </trkpt>
      <trkpt lat="44.43434" lon="7.10328">
        <ele>1532.2</ele>
        <time>2022-07-18T14:53:18Z</time>
      </trkpt>
      <trkpt lat="44.43432" lon="7.10328">
        <ele>1532.2</ele>
        <time>2022-07-18T14:53:19Z</time>
      </trkpt>
      <trkpt lat="44.4343" lon="7.10329">
        <ele>1532.4</ele>
        <time>2022-07-18T14:53:20Z</time>
      </trkpt>
      <trkpt lat="44.43428" lon="7.10329">
        <ele>1532.4</ele>
        <time>2022-07-18T14:53:21Z</time>
      </trkpt>
      <trkpt lat="44.43426" lon="7.1033">
        <ele>1532.8</ele>
        <time>2022-07-18T14:53:22Z</time>
      </trkpt>
      <trkpt lat="44.43424" lon="7.10332">
        <ele>1532.8</ele>
        <time>2022-07-18T14:53:23Z</time>
      </trkpt>
      <trkpt lat="44.43422" lon="7.10333">
        <ele>1533</ele>
        <time>2022-07-18T14:53:24Z</time>
      </trkpt>
      <trkpt lat="44.4342" lon="7.10334">
        <ele>1533</ele>
        <time>2022-07-18T14:53:25Z</time>
      </trkpt>
      <trkpt lat="44.43418" lon="7.10335">
        <ele>1533.2</ele>
        <time>2022-07-18T14:53:26Z</time>
      </trkpt>
      <trkpt lat="44.43416" lon="7.10336">
        <ele>1533.2</ele>
        <time>2022-07-18T14:53:27Z</time>
      </trkpt>
      <trkpt lat="44.43414" lon="7.10337">
        <ele>1533.2</ele>
        <time>2022-07-18T14:53:28Z</time>
      </trkpt>
      <trkpt lat="44.43412" lon="7.10338">
        <ele>1533.6</ele>
        <time>2022-07-18T14:53:29Z</time>
      </trkpt>
      <trkpt lat="44.4341" lon="7.10339">
        <ele>1533.6</ele>
        <time>2022-07-18T14:53:30Z</time>
      </trkpt>
      <trkpt lat="44.43409" lon="7.10341">
        <ele>1533.8</ele>
        <time>2022-07-18T14:53:31Z</time>
      </trkpt>
      <trkpt lat="44.43407" lon="7.10342">
        <ele>1533.8</ele>
        <time>2022-07-18T14:53:32Z</time>
      </trkpt>
      <trkpt lat="44.43405" lon="7.10344">
        <ele>1534.2</ele>
        <time>2022-07-18T14:53:33Z</time>
      </trkpt>
      <trkpt lat="44.43403" lon="7.10345">
        <ele>1534.2</ele>
        <time>2022-07-18T14:53:34Z</time>
      </trkpt>
      <trkpt lat="44.43401" lon="7.10347">
        <ele>1534.4</ele>
        <time>2022-07-18T14:53:35Z</time>
      </trkpt>
      <trkpt lat="44.43399" lon="7.10348">
        <ele>1534.6</ele>
        <time>2022-07-18T14:53:36Z</time>
      </trkpt>
      <trkpt lat="44.43396" lon="7.1035">
        <ele>1534.6</ele>
        <time>2022-07-18T14:53:37Z</time>
      </trkpt>
      <trkpt lat="44.43394" lon="7.10351">
        <ele>1535</ele>
        <time>2022-07-18T14:53:38Z</time>
      </trkpt>
      <trkpt lat="44.43392" lon="7.10352">
        <ele>1535.2</ele>
        <time>2022-07-18T14:53:39Z</time>
      </trkpt>
      <trkpt lat="44.4339" lon="7.10353">
        <ele>1535.2</ele>
        <time>2022-07-18T14:53:40Z</time>
      </trkpt>
      <trkpt lat="44.43388" lon="7.10354">
        <ele>1535.4</ele>
        <time>2022-07-18T14:53:41Z</time>
      </trkpt>
      <trkpt lat="44.43386" lon="7.10355">
        <ele>1535.4</ele>
        <time>2022-07-18T14:53:42Z</time>
      </trkpt>
      <trkpt lat="44.43383" lon="7.10356">
        <ele>1535.8</ele>
        <time>2022-07-18T14:53:43Z</time>
      </trkpt>
      <trkpt lat="44.43381" lon="7.10357">
        <ele>1535.8</ele>
        <time>2022-07-18T14:53:44Z</time>
      </trkpt>
      <trkpt lat="44.43378" lon="7.10357">
        <ele>1536</ele>
        <time>2022-07-18T14:53:45Z</time>
      </trkpt>
      <trkpt lat="44.43375" lon="7.10358">
        <ele>1536</ele>
        <time>2022-07-18T14:53:46Z</time>
      </trkpt>
      <trkpt lat="44.43373" lon="7.10359">
        <ele>1536.2</ele>
        <time>2022-07-18T14:53:47Z</time>
      </trkpt>
      <trkpt lat="44.4337" lon="7.10359">
        <ele>1536.2</ele>
        <time>2022-07-18T14:53:48Z</time>
      </trkpt>
      <trkpt lat="44.43367" lon="7.10359">
        <ele>1536.6</ele>
        <time>2022-07-18T14:53:49Z</time>
      </trkpt>
      <trkpt lat="44.43365" lon="7.1036">
        <ele>1536.6</ele>
        <time>2022-07-18T14:53:50Z</time>
      </trkpt>
      <trkpt lat="44.43363" lon="7.10361">
        <ele>1537</ele>
        <time>2022-07-18T14:53:51Z</time>
      </trkpt>
      <trkpt lat="44.43361" lon="7.10362">
        <ele>1537</ele>
        <time>2022-07-18T14:53:52Z</time>
      </trkpt>
      <trkpt lat="44.43358" lon="7.10362">
        <ele>1537.2</ele>
        <time>2022-07-18T14:53:53Z</time>
      </trkpt>
      <trkpt lat="44.43356" lon="7.10363">
        <ele>1537.2</ele>
        <time>2022-07-18T14:53:54Z</time>
      </trkpt>
      <trkpt lat="44.43354" lon="7.10363">
        <ele>1537.4</ele>
        <time>2022-07-18T14:53:55Z</time>
      </trkpt>
      <trkpt lat="44.43351" lon="7.10364">
        <ele>1537.4</ele>
        <time>2022-07-18T14:53:56Z</time>
      </trkpt>
      <trkpt lat="44.43349" lon="7.10365">
        <ele>1537.6</ele>
        <time>2022-07-18T14:53:57Z</time>
      </trkpt>
      <trkpt lat="44.43347" lon="7.10365">
        <ele>1537.6</ele>
        <time>2022-07-18T14:53:58Z</time>
      </trkpt>
      <trkpt lat="44.43344" lon="7.10366">
        <ele>1537.8</ele>
        <time>2022-07-18T14:53:59Z</time>
      </trkpt>
      <trkpt lat="44.43341" lon="7.10366">
        <ele>1537.8</ele>
        <time>2022-07-18T14:54:00Z</time>
      </trkpt>
      <trkpt lat="44.43339" lon="7.10366">
        <ele>1538</ele>
        <time>2022-07-18T14:54:01Z</time>
      </trkpt>
      <trkpt lat="44.43337" lon="7.10366">
        <ele>1538</ele>
        <time>2022-07-18T14:54:02Z</time>
      </trkpt>
      <trkpt lat="44.43334" lon="7.10367">
        <ele>1538.4</ele>
        <time>2022-07-18T14:54:03Z</time>
      </trkpt>
      <trkpt lat="44.43332" lon="7.10367">
        <ele>1538.4</ele>
        <time>2022-07-18T14:54:04Z</time>
      </trkpt>
      <trkpt lat="44.4333" lon="7.10368">
        <ele>1538.6</ele>
        <time>2022-07-18T14:54:05Z</time>
      </trkpt>
      <trkpt lat="44.43328" lon="7.10369">
        <ele>1538.6</ele>
        <time>2022-07-18T14:54:06Z</time>
      </trkpt>
      <trkpt lat="44.43325" lon="7.10369">
        <ele>1539</ele>
        <time>2022-07-18T14:54:07Z</time>
      </trkpt>
      <trkpt lat="44.43322" lon="7.10369">
        <ele>1539</ele>
        <time>2022-07-18T14:54:08Z</time>
      </trkpt>
      <trkpt lat="44.4332" lon="7.10369">
        <ele>1539.2</ele>
        <time>2022-07-18T14:54:09Z</time>
      </trkpt>
      <trkpt lat="44.43317" lon="7.1037">
        <ele>1539.2</ele>
        <time>2022-07-18T14:54:10Z</time>
      </trkpt>
      <trkpt lat="44.43315" lon="7.1037">
        <ele>1539.2</ele>
        <time>2022-07-18T14:54:11Z</time>
      </trkpt>
      <trkpt lat="44.43313" lon="7.10371">
        <ele>1539.6</ele>
        <time>2022-07-18T14:54:12Z</time>
      </trkpt>
      <trkpt lat="44.43311" lon="7.10371">
        <ele>1539.6</ele>
        <time>2022-07-18T14:54:13Z</time>
      </trkpt>
      <trkpt lat="44.43309" lon="7.10371">
        <ele>1539.8</ele>
        <time>2022-07-18T14:54:14Z</time>
      </trkpt>
      <trkpt lat="44.43306" lon="7.10372">
        <ele>1539.8</ele>
        <time>2022-07-18T14:54:15Z</time>
      </trkpt>
      <trkpt lat="44.43304" lon="7.10372">
        <ele>1539.8</ele>
        <time>2022-07-18T14:54:16Z</time>
      </trkpt>
      <trkpt lat="44.43301" lon="7.10373">
        <ele>1540.2</ele>
        <time>2022-07-18T14:54:17Z</time>
      </trkpt>
      <trkpt lat="44.43299" lon="7.10374">
        <ele>1540.2</ele>
        <time>2022-07-18T14:54:18Z</time>
      </trkpt>
      <trkpt lat="44.43297" lon="7.10375">
        <ele>1540.2</ele>
        <time>2022-07-18T14:54:19Z</time>
      </trkpt>
      <trkpt lat="44.43295" lon="7.10376">
        <ele>1540.4</ele>
        <time>2022-07-18T14:54:20Z</time>
      </trkpt>
      <trkpt lat="44.43293" lon="7.10376">
        <ele>1540.4</ele>
        <time>2022-07-18T14:54:21Z</time>
      </trkpt>
      <trkpt lat="44.4329" lon="7.10377">
        <ele>1540.6</ele>
        <time>2022-07-18T14:54:22Z</time>
      </trkpt>
      <trkpt lat="44.43288" lon="7.10377">
        <ele>1540.6</ele>
        <time>2022-07-18T14:54:23Z</time>
      </trkpt>
      <trkpt lat="44.43286" lon="7.10377">
        <ele>1541</ele>
        <time>2022-07-18T14:54:24Z</time>
      </trkpt>
      <trkpt lat="44.43284" lon="7.10378">
        <ele>1541</ele>
        <time>2022-07-18T14:54:25Z</time>
      </trkpt>
      <trkpt lat="44.43281" lon="7.10378">
        <ele>1541.2</ele>
        <time>2022-07-18T14:54:26Z</time>
      </trkpt>
      <trkpt lat="44.43279" lon="7.10379">
        <ele>1541.2</ele>
        <time>2022-07-18T14:54:27Z</time>
      </trkpt>
      <trkpt lat="44.43276" lon="7.10379">
        <ele>1541.6</ele>
        <time>2022-07-18T14:54:28Z</time>
      </trkpt>
      <trkpt lat="44.43274" lon="7.10379">
        <ele>1541.6</ele>
        <time>2022-07-18T14:54:29Z</time>
      </trkpt>
      <trkpt lat="44.43272" lon="7.10379">
        <ele>1541.8</ele>
        <time>2022-07-18T14:54:30Z</time>
      </trkpt>
      <trkpt lat="44.43269" lon="7.10379">
        <ele>1541.8</ele>
        <time>2022-07-18T14:54:31Z</time>
      </trkpt>
      <trkpt lat="44.43267" lon="7.1038">
        <ele>1542</ele>
        <time>2022-07-18T14:54:32Z</time>
      </trkpt>
      <trkpt lat="44.43265" lon="7.1038">
        <ele>1542</ele>
        <time>2022-07-18T14:54:33Z</time>
      </trkpt>
      <trkpt lat="44.43263" lon="7.1038">
        <ele>1542</ele>
        <time>2022-07-18T14:54:34Z</time>
      </trkpt>
      <trkpt lat="44.4326" lon="7.1038">
        <ele>1542.4</ele>
        <time>2022-07-18T14:54:35Z</time>
      </trkpt>
      <trkpt lat="44.43257" lon="7.10379">
        <ele>1542.4</ele>
        <time>2022-07-18T14:54:36Z</time>
      </trkpt>
      <trkpt lat="44.43255" lon="7.10377">
        <ele>1542.4</ele>
        <time>2022-07-18T14:54:37Z</time>
      </trkpt>
      <trkpt lat="44.43253" lon="7.10376">
        <ele>1542.8</ele>
        <time>2022-07-18T14:54:38Z</time>
      </trkpt>
      <trkpt lat="44.43251" lon="7.10373">
        <ele>1542.8</ele>
        <time>2022-07-18T14:54:39Z</time>
      </trkpt>
      <trkpt lat="44.43249" lon="7.1037">
        <ele>1542.8</ele>
        <time>2022-07-18T14:54:40Z</time>
      </trkpt>
      <trkpt lat="44.43247" lon="7.10367">
        <ele>1543</ele>
        <time>2022-07-18T14:54:41Z</time>
      </trkpt>
      <trkpt lat="44.43245" lon="7.10365">
        <ele>1543</ele>
        <time>2022-07-18T14:54:42Z</time>
      </trkpt>
      <trkpt lat="44.43243" lon="7.10362">
        <ele>1543</ele>
        <time>2022-07-18T14:54:43Z</time>
      </trkpt>
      <trkpt lat="44.43241" lon="7.10359">
        <ele>1543</ele>
        <time>2022-07-18T14:54:44Z</time>
      </trkpt>
      <trkpt lat="44.43239" lon="7.10356">
        <ele>1543.2</ele>
        <time>2022-07-18T14:54:45Z</time>
      </trkpt>
      <trkpt lat="44.43237" lon="7.10353">
        <ele>1543.2</ele>
        <time>2022-07-18T14:54:46Z</time>
      </trkpt>
      <trkpt lat="44.43236" lon="7.10349">
        <ele>1543.2</ele>
        <time>2022-07-18T14:54:47Z</time>
      </trkpt>
      <trkpt lat="44.43234" lon="7.10346">
        <ele>1543.2</ele>
        <time>2022-07-18T14:54:48Z</time>
      </trkpt>
      <trkpt lat="44.43233" lon="7.10342">
        <ele>1543.2</ele>
        <time>2022-07-18T14:54:49Z</time>
      </trkpt>
      <trkpt lat="44.43231" lon="7.10339">
        <ele>1543.2</ele>
        <time>2022-07-18T14:54:50Z</time>
      </trkpt>
      <trkpt lat="44.43229" lon="7.10335">
        <ele>1543.2</ele>
        <time>2022-07-18T14:54:51Z</time>
      </trkpt>
      <trkpt lat="44.43227" lon="7.10331">
        <ele>1543.2</ele>
        <time>2022-07-18T14:54:52Z</time>
      </trkpt>
      <trkpt lat="44.43225" lon="7.10327">
        <ele>1542.8</ele>
        <time>2022-07-18T14:54:53Z</time>
      </trkpt>
      <trkpt lat="44.43223" lon="7.10322">
        <ele>1542.8</ele>
        <time>2022-07-18T14:54:54Z</time>
      </trkpt>
      <trkpt lat="44.43221" lon="7.10318">
        <ele>1542.8</ele>
        <time>2022-07-18T14:54:55Z</time>
      </trkpt>
      <trkpt lat="44.43218" lon="7.10314">
        <ele>1542.8</ele>
        <time>2022-07-18T14:54:56Z</time>
      </trkpt>
      <trkpt lat="44.43216" lon="7.10311">
        <ele>1542.8</ele>
        <time>2022-07-18T14:54:57Z</time>
      </trkpt>
      <trkpt lat="44.43214" lon="7.10307">
        <ele>1542.8</ele>
        <time>2022-07-18T14:54:58Z</time>
      </trkpt>
      <trkpt lat="44.43211" lon="7.10304">
        <ele>1542.6</ele>
        <time>2022-07-18T14:54:59Z</time>
      </trkpt>
      <trkpt lat="44.43208" lon="7.10301">
        <ele>1542.6</ele>
        <time>2022-07-18T14:55:00Z</time>
      </trkpt>
      <trkpt lat="44.43205" lon="7.10299">
        <ele>1542.6</ele>
        <time>2022-07-18T14:55:01Z</time>
      </trkpt>
      <trkpt lat="44.43203" lon="7.10297">
        <ele>1543</ele>
        <time>2022-07-18T14:55:02Z</time>
      </trkpt>
      <trkpt lat="44.432" lon="7.10295">
        <ele>1543</ele>
        <time>2022-07-18T14:55:03Z</time>
      </trkpt>
      <trkpt lat="44.43197" lon="7.10293">
        <ele>1543</ele>
        <time>2022-07-18T14:55:04Z</time>
      </trkpt>
      <trkpt lat="44.43195" lon="7.10291">
        <ele>1543</ele>
        <time>2022-07-18T14:55:05Z</time>
      </trkpt>
      <trkpt lat="44.43191" lon="7.10289">
        <ele>1543</ele>
        <time>2022-07-18T14:55:06Z</time>
      </trkpt>
      <trkpt lat="44.43188" lon="7.10288">
        <ele>1543</ele>
        <time>2022-07-18T14:55:07Z</time>
      </trkpt>
      <trkpt lat="44.43186" lon="7.10287">
        <ele>1543.2</ele>
        <time>2022-07-18T14:55:08Z</time>
      </trkpt>
      <trkpt lat="44.43183" lon="7.10287">
        <ele>1543.2</ele>
        <time>2022-07-18T14:55:09Z</time>
      </trkpt>
      <trkpt lat="44.4318" lon="7.10286">
        <ele>1543.4</ele>
        <time>2022-07-18T14:55:10Z</time>
      </trkpt>
      <trkpt lat="44.43177" lon="7.10286">
        <ele>1543.4</ele>
        <time>2022-07-18T14:55:11Z</time>
      </trkpt>
      <trkpt lat="44.43175" lon="7.10286">
        <ele>1543.6</ele>
        <time>2022-07-18T14:55:12Z</time>
      </trkpt>
      <trkpt lat="44.43172" lon="7.10285">
        <ele>1543.6</ele>
        <time>2022-07-18T14:55:13Z</time>
      </trkpt>
      <trkpt lat="44.43169" lon="7.10285">
        <ele>1543.6</ele>
        <time>2022-07-18T14:55:14Z</time>
      </trkpt>
      <trkpt lat="44.43167" lon="7.10285">
        <ele>1543.8</ele>
        <time>2022-07-18T14:55:15Z</time>
      </trkpt>
      <trkpt lat="44.43164" lon="7.10284">
        <ele>1543.8</ele>
        <time>2022-07-18T14:55:16Z</time>
      </trkpt>
      <trkpt lat="44.43162" lon="7.10284">
        <ele>1544.2</ele>
        <time>2022-07-18T14:55:17Z</time>
      </trkpt>
      <trkpt lat="44.43159" lon="7.10283">
        <ele>1544.2</ele>
        <time>2022-07-18T14:55:18Z</time>
      </trkpt>
      <trkpt lat="44.43157" lon="7.10283">
        <ele>1544.2</ele>
        <time>2022-07-18T14:55:19Z</time>
      </trkpt>
      <trkpt lat="44.43155" lon="7.10283">
        <ele>1544.4</ele>
        <time>2022-07-18T14:55:20Z</time>
      </trkpt>
      <trkpt lat="44.43152" lon="7.10283">
        <ele>1544.4</ele>
        <time>2022-07-18T14:55:21Z</time>
      </trkpt>
      <trkpt lat="44.4315" lon="7.10283">
        <ele>1544.8</ele>
        <time>2022-07-18T14:55:22Z</time>
      </trkpt>
      <trkpt lat="44.43148" lon="7.10284">
        <ele>1544.8</ele>
        <time>2022-07-18T14:55:23Z</time>
      </trkpt>
      <trkpt lat="44.43145" lon="7.10284">
        <ele>1545</ele>
        <time>2022-07-18T14:55:24Z</time>
      </trkpt>
      <trkpt lat="44.43143" lon="7.10285">
        <ele>1545</ele>
        <time>2022-07-18T14:55:25Z</time>
      </trkpt>
      <trkpt lat="44.43141" lon="7.10286">
        <ele>1545.4</ele>
        <time>2022-07-18T14:55:26Z</time>
      </trkpt>
      <trkpt lat="44.43139" lon="7.10287">
        <ele>1545.6</ele>
        <time>2022-07-18T14:55:27Z</time>
      </trkpt>
      <trkpt lat="44.43137" lon="7.10287">
        <ele>1545.6</ele>
        <time>2022-07-18T14:55:28Z</time>
      </trkpt>
      <trkpt lat="44.43135" lon="7.10288">
        <ele>1546</ele>
        <time>2022-07-18T14:55:29Z</time>
      </trkpt>
      <trkpt lat="44.43133" lon="7.10289">
        <ele>1546.2</ele>
        <time>2022-07-18T14:55:30Z</time>
      </trkpt>
      <trkpt lat="44.43131" lon="7.1029">
        <ele>1546.2</ele>
        <time>2022-07-18T14:55:31Z</time>
      </trkpt>
      <trkpt lat="44.43129" lon="7.10291">
        <ele>1546.4</ele>
        <time>2022-07-18T14:55:32Z</time>
      </trkpt>
      <trkpt lat="44.43127" lon="7.10293">
        <ele>1546.4</ele>
        <time>2022-07-18T14:55:33Z</time>
      </trkpt>
      <trkpt lat="44.43125" lon="7.10294">
        <ele>1546.8</ele>
        <time>2022-07-18T14:55:34Z</time>
      </trkpt>
      <trkpt lat="44.43123" lon="7.10295">
        <ele>1546.8</ele>
        <time>2022-07-18T14:55:35Z</time>
      </trkpt>
      <trkpt lat="44.43122" lon="7.10296">
        <ele>1547</ele>
        <time>2022-07-18T14:55:36Z</time>
      </trkpt>
      <trkpt lat="44.4312" lon="7.10298">
        <ele>1547</ele>
        <time>2022-07-18T14:55:37Z</time>
      </trkpt>
      <trkpt lat="44.43119" lon="7.103">
        <ele>1547.4</ele>
        <time>2022-07-18T14:55:38Z</time>
      </trkpt>
      <trkpt lat="44.43118" lon="7.10302">
        <ele>1547.6</ele>
        <time>2022-07-18T14:55:39Z</time>
      </trkpt>
      <trkpt lat="44.43117" lon="7.10303">
        <ele>1547.8</ele>
        <time>2022-07-18T14:55:40Z</time>
      </trkpt>
      <trkpt lat="44.43115" lon="7.10306">
        <ele>1548.2</ele>
        <time>2022-07-18T14:55:41Z</time>
      </trkpt>
      <trkpt lat="44.43114" lon="7.10308">
        <ele>1548.4</ele>
        <time>2022-07-18T14:55:42Z</time>
      </trkpt>
      <trkpt lat="44.43113" lon="7.10311">
        <ele>1548.6</ele>
        <time>2022-07-18T14:55:43Z</time>
      </trkpt>
      <trkpt lat="44.43111" lon="7.10313">
        <ele>1549</ele>
        <time>2022-07-18T14:55:44Z</time>
      </trkpt>
      <trkpt lat="44.4311" lon="7.10315">
        <ele>1549.4</ele>
        <time>2022-07-18T14:55:45Z</time>
      </trkpt>
      <trkpt lat="44.43109" lon="7.10317">
        <ele>1549.6</ele>
        <time>2022-07-18T14:55:46Z</time>
      </trkpt>
      <trkpt lat="44.43108" lon="7.1032">
        <ele>1550</ele>
        <time>2022-07-18T14:55:47Z</time>
      </trkpt>
      <trkpt lat="44.43107" lon="7.10322">
        <ele>1550.2</ele>
        <time>2022-07-18T14:55:48Z</time>
      </trkpt>
      <trkpt lat="44.43106" lon="7.10324">
        <ele>1550.6</ele>
        <time>2022-07-18T14:55:49Z</time>
      </trkpt>
      <trkpt lat="44.43104" lon="7.10327">
        <ele>1550.8</ele>
        <time>2022-07-18T14:55:50Z</time>
      </trkpt>
      <trkpt lat="44.43103" lon="7.10329">
        <ele>1551</ele>
        <time>2022-07-18T14:55:51Z</time>
      </trkpt>
      <trkpt lat="44.43102" lon="7.10332">
        <ele>1551</ele>
        <time>2022-07-18T14:55:52Z</time>
      </trkpt>
      <trkpt lat="44.43101" lon="7.10334">
        <ele>1551.4</ele>
        <time>2022-07-18T14:55:53Z</time>
      </trkpt>
      <trkpt lat="44.431" lon="7.10335">
        <ele>1551.4</ele>
        <time>2022-07-18T14:55:54Z</time>
      </trkpt>
      <trkpt lat="44.43098" lon="7.10337">
        <ele>1551.8</ele>
        <time>2022-07-18T14:55:55Z</time>
      </trkpt>
      <trkpt lat="44.43096" lon="7.10338">
        <ele>1551.8</ele>
        <time>2022-07-18T14:55:56Z</time>
      </trkpt>
      <trkpt lat="44.43095" lon="7.1034">
        <ele>1552</ele>
        <time>2022-07-18T14:55:57Z</time>
      </trkpt>
      <trkpt lat="44.43093" lon="7.10342">
        <ele>1552.2</ele>
        <time>2022-07-18T14:55:58Z</time>
      </trkpt>
      <trkpt lat="44.43091" lon="7.10342">
        <ele>1552.2</ele>
        <time>2022-07-18T14:55:59Z</time>
      </trkpt>
      <trkpt lat="44.43089" lon="7.10342">
        <ele>1552.4</ele>
        <time>2022-07-18T14:56:00Z</time>
      </trkpt>
      <trkpt lat="44.43086" lon="7.10342">
        <ele>1552.4</ele>
        <time>2022-07-18T14:56:01Z</time>
      </trkpt>
      <trkpt lat="44.43084" lon="7.10341">
        <ele>1552.6</ele>
        <time>2022-07-18T14:56:02Z</time>
      </trkpt>
      <trkpt lat="44.43081" lon="7.1034">
        <ele>1552.6</ele>
        <time>2022-07-18T14:56:03Z</time>
      </trkpt>
      <trkpt lat="44.43079" lon="7.10338">
        <ele>1553</ele>
        <time>2022-07-18T14:56:04Z</time>
      </trkpt>
      <trkpt lat="44.43076" lon="7.10336">
        <ele>1553</ele>
        <time>2022-07-18T14:56:05Z</time>
      </trkpt>
      <trkpt lat="44.43074" lon="7.10334">
        <ele>1553.2</ele>
        <time>2022-07-18T14:56:06Z</time>
      </trkpt>
      <trkpt lat="44.43071" lon="7.10332">
        <ele>1553.2</ele>
        <time>2022-07-18T14:56:07Z</time>
      </trkpt>
      <trkpt lat="44.43069" lon="7.1033">
        <ele>1553.4</ele>
        <time>2022-07-18T14:56:08Z</time>
      </trkpt>
      <trkpt lat="44.43067" lon="7.10329">
        <ele>1553.4</ele>
        <time>2022-07-18T14:56:09Z</time>
      </trkpt>
      <trkpt lat="44.43065" lon="7.10327">
        <ele>1553.6</ele>
        <time>2022-07-18T14:56:10Z</time>
      </trkpt>
      <trkpt lat="44.43063" lon="7.10325">
        <ele>1553.6</ele>
        <time>2022-07-18T14:56:11Z</time>
      </trkpt>
      <trkpt lat="44.4306" lon="7.10323">
        <ele>1553.6</ele>
        <time>2022-07-18T14:56:12Z</time>
      </trkpt>
      <trkpt lat="44.43058" lon="7.10321">
        <ele>1554</ele>
        <time>2022-07-18T14:56:13Z</time>
      </trkpt>
      <trkpt lat="44.43056" lon="7.1032">
        <ele>1554</ele>
        <time>2022-07-18T14:56:14Z</time>
      </trkpt>
      <trkpt lat="44.43054" lon="7.10318">
        <ele>1554.2</ele>
        <time>2022-07-18T14:56:15Z</time>
      </trkpt>
      <trkpt lat="44.43052" lon="7.10316">
        <ele>1554.2</ele>
        <time>2022-07-18T14:56:16Z</time>
      </trkpt>
      <trkpt lat="44.4305" lon="7.10315">
        <ele>1554.6</ele>
        <time>2022-07-18T14:56:17Z</time>
      </trkpt>
      <trkpt lat="44.43048" lon="7.10313">
        <ele>1554.6</ele>
        <time>2022-07-18T14:56:18Z</time>
      </trkpt>
      <trkpt lat="44.43046" lon="7.10311">
        <ele>1554.6</ele>
        <time>2022-07-18T14:56:19Z</time>
      </trkpt>
      <trkpt lat="44.43043" lon="7.1031">
        <ele>1554.8</ele>
        <time>2022-07-18T14:56:20Z</time>
      </trkpt>
      <trkpt lat="44.43041" lon="7.10308">
        <ele>1554.8</ele>
        <time>2022-07-18T14:56:21Z</time>
      </trkpt>
      <trkpt lat="44.43039" lon="7.10306">
        <ele>1555</ele>
        <time>2022-07-18T14:56:22Z</time>
      </trkpt>
      <trkpt lat="44.43036" lon="7.10305">
        <ele>1555</ele>
        <time>2022-07-18T14:56:23Z</time>
      </trkpt>
      <trkpt lat="44.43034" lon="7.10304">
        <ele>1555.4</ele>
        <time>2022-07-18T14:56:24Z</time>
      </trkpt>
      <trkpt lat="44.43032" lon="7.10302">
        <ele>1555.4</ele>
        <time>2022-07-18T14:56:25Z</time>
      </trkpt>
      <trkpt lat="44.4303" lon="7.10301">
        <ele>1555.6</ele>
        <time>2022-07-18T14:56:26Z</time>
      </trkpt>
      <trkpt lat="44.43028" lon="7.103">
        <ele>1555.6</ele>
        <time>2022-07-18T14:56:27Z</time>
      </trkpt>
      <trkpt lat="44.43026" lon="7.10298">
        <ele>1555.6</ele>
        <time>2022-07-18T14:56:28Z</time>
      </trkpt>
      <trkpt lat="44.43023" lon="7.10296">
        <ele>1555.8</ele>
        <time>2022-07-18T14:56:29Z</time>
      </trkpt>
      <trkpt lat="44.43022" lon="7.10295">
        <ele>1555.8</ele>
        <time>2022-07-18T14:56:30Z</time>
      </trkpt>
      <trkpt lat="44.4302" lon="7.10293">
        <ele>1556</ele>
        <time>2022-07-18T14:56:31Z</time>
      </trkpt>
      <trkpt lat="44.43017" lon="7.10291">
        <ele>1556</ele>
        <time>2022-07-18T14:56:32Z</time>
      </trkpt>
      <trkpt lat="44.43015" lon="7.1029">
        <ele>1556</ele>
        <time>2022-07-18T14:56:33Z</time>
      </trkpt>
      <trkpt lat="44.43013" lon="7.10289">
        <ele>1556.4</ele>
        <time>2022-07-18T14:56:34Z</time>
      </trkpt>
      <trkpt lat="44.43011" lon="7.10287">
        <ele>1556.4</ele>
        <time>2022-07-18T14:56:35Z</time>
      </trkpt>
      <trkpt lat="44.43009" lon="7.10286">
        <ele>1556.8</ele>
        <time>2022-07-18T14:56:36Z</time>
      </trkpt>
      <trkpt lat="44.43007" lon="7.10285">
        <ele>1556.8</ele>
        <time>2022-07-18T14:56:37Z</time>
      </trkpt>
      <trkpt lat="44.43004" lon="7.10284">
        <ele>1557</ele>
        <time>2022-07-18T14:56:38Z</time>
      </trkpt>
      <trkpt lat="44.43002" lon="7.10282">
        <ele>1557</ele>
        <time>2022-07-18T14:56:39Z</time>
      </trkpt>
      <trkpt lat="44.43" lon="7.10281">
        <ele>1557.2</ele>
        <time>2022-07-18T14:56:40Z</time>
      </trkpt>
      <trkpt lat="44.42998" lon="7.1028">
        <ele>1557.2</ele>
        <time>2022-07-18T14:56:41Z</time>
      </trkpt>
      <trkpt lat="44.42996" lon="7.10279">
        <ele>1557.2</ele>
        <time>2022-07-18T14:56:42Z</time>
      </trkpt>
      <trkpt lat="44.42993" lon="7.10278">
        <ele>1557.6</ele>
        <time>2022-07-18T14:56:43Z</time>
      </trkpt>
      <trkpt lat="44.42991" lon="7.10277">
        <ele>1557.6</ele>
        <time>2022-07-18T14:56:44Z</time>
      </trkpt>
      <trkpt lat="44.42989" lon="7.10277">
        <ele>1557.6</ele>
        <time>2022-07-18T14:56:45Z</time>
      </trkpt>
      <trkpt lat="44.42987" lon="7.10276">
        <ele>1558</ele>
        <time>2022-07-18T14:56:46Z</time>
      </trkpt>
      <trkpt lat="44.42985" lon="7.10275">
        <ele>1558.4</ele>
        <time>2022-07-18T14:56:48Z</time>
      </trkpt>
      <trkpt lat="44.42983" lon="7.10275">
        <ele>1558.4</ele>
        <time>2022-07-18T14:56:49Z</time>
      </trkpt>
      <trkpt lat="44.42981" lon="7.10274">
        <ele>1558.6</ele>
        <time>2022-07-18T14:56:50Z</time>
      </trkpt>
      <trkpt lat="44.42978" lon="7.10274">
        <ele>1558.6</ele>
        <time>2022-07-18T14:56:51Z</time>
      </trkpt>
      <trkpt lat="44.42976" lon="7.10273">
        <ele>1559</ele>
        <time>2022-07-18T14:56:52Z</time>
      </trkpt>
      <trkpt lat="44.42972" lon="7.10272">
        <ele>1559</ele>
        <time>2022-07-18T14:56:53Z</time>
      </trkpt>
      <trkpt lat="44.4297" lon="7.10271">
        <ele>1559.2</ele>
        <time>2022-07-18T14:56:54Z</time>
      </trkpt>
      <trkpt lat="44.42968" lon="7.10271">
        <ele>1559.2</ele>
        <time>2022-07-18T14:56:55Z</time>
      </trkpt>
      <trkpt lat="44.42966" lon="7.1027">
        <ele>1559.6</ele>
        <time>2022-07-18T14:56:56Z</time>
      </trkpt>
      <trkpt lat="44.42964" lon="7.1027">
        <ele>1559.6</ele>
        <time>2022-07-18T14:56:57Z</time>
      </trkpt>
      <trkpt lat="44.42962" lon="7.10269">
        <ele>1559.8</ele>
        <time>2022-07-18T14:56:58Z</time>
      </trkpt>
      <trkpt lat="44.42959" lon="7.10269">
        <ele>1559.8</ele>
        <time>2022-07-18T14:56:59Z</time>
      </trkpt>
      <trkpt lat="44.42957" lon="7.10268">
        <ele>1560.2</ele>
        <time>2022-07-18T14:57:00Z</time>
      </trkpt>
      <trkpt lat="44.42955" lon="7.10268">
        <ele>1560.2</ele>
        <time>2022-07-18T14:57:01Z</time>
      </trkpt>
      <trkpt lat="44.42953" lon="7.10267">
        <ele>1560.4</ele>
        <time>2022-07-18T14:57:02Z</time>
      </trkpt>
      <trkpt lat="44.4295" lon="7.10266">
        <ele>1560.4</ele>
        <time>2022-07-18T14:57:03Z</time>
      </trkpt>
      <trkpt lat="44.42948" lon="7.10265">
        <ele>1560.4</ele>
        <time>2022-07-18T14:57:04Z</time>
      </trkpt>
      <trkpt lat="44.42946" lon="7.10264">
        <ele>1560.6</ele>
        <time>2022-07-18T14:57:05Z</time>
      </trkpt>
      <trkpt lat="44.42943" lon="7.10264">
        <ele>1560.8</ele>
        <time>2022-07-18T14:57:06Z</time>
      </trkpt>
      <trkpt lat="44.42941" lon="7.10264">
        <ele>1560.8</ele>
        <time>2022-07-18T14:57:07Z</time>
      </trkpt>
      <trkpt lat="44.42939" lon="7.10264">
        <ele>1561.2</ele>
        <time>2022-07-18T14:57:08Z</time>
      </trkpt>
      <trkpt lat="44.42937" lon="7.10263">
        <ele>1561.2</ele>
        <time>2022-07-18T14:57:09Z</time>
      </trkpt>
      <trkpt lat="44.42935" lon="7.10263">
        <ele>1561.4</ele>
        <time>2022-07-18T14:57:10Z</time>
      </trkpt>
      <trkpt lat="44.42933" lon="7.10262">
        <ele>1561.4</ele>
        <time>2022-07-18T14:57:11Z</time>
      </trkpt>
      <trkpt lat="44.4293" lon="7.10262">
        <ele>1561.6</ele>
        <time>2022-07-18T14:57:12Z</time>
      </trkpt>
      <trkpt lat="44.42928" lon="7.10261">
        <ele>1561.6</ele>
        <time>2022-07-18T14:57:13Z</time>
      </trkpt>
      <trkpt lat="44.42926" lon="7.1026">
        <ele>1561.8</ele>
        <time>2022-07-18T14:57:14Z</time>
      </trkpt>
      <trkpt lat="44.42924" lon="7.1026">
        <ele>1561.8</ele>
        <time>2022-07-18T14:57:15Z</time>
      </trkpt>
      <trkpt lat="44.42922" lon="7.1026">
        <ele>1562</ele>
        <time>2022-07-18T14:57:16Z</time>
      </trkpt>
      <trkpt lat="44.42919" lon="7.1026">
        <ele>1562</ele>
        <time>2022-07-18T14:57:17Z</time>
      </trkpt>
      <trkpt lat="44.42917" lon="7.1026">
        <ele>1562.2</ele>
        <time>2022-07-18T14:57:18Z</time>
      </trkpt>
      <trkpt lat="44.42915" lon="7.10261">
        <ele>1562.2</ele>
        <time>2022-07-18T14:57:19Z</time>
      </trkpt>
      <trkpt lat="44.42913" lon="7.10262">
        <ele>1562.6</ele>
        <time>2022-07-18T14:57:20Z</time>
      </trkpt>
      <trkpt lat="44.42911" lon="7.10263">
        <ele>1562.6</ele>
        <time>2022-07-18T14:57:21Z</time>
      </trkpt>
      <trkpt lat="44.42909" lon="7.10265">
        <ele>1562.8</ele>
        <time>2022-07-18T14:57:22Z</time>
      </trkpt>
      <trkpt lat="44.42907" lon="7.10267">
        <ele>1562.8</ele>
        <time>2022-07-18T14:57:23Z</time>
      </trkpt>
      <trkpt lat="44.42905" lon="7.10269">
        <ele>1563.2</ele>
        <time>2022-07-18T14:57:24Z</time>
      </trkpt>
      <trkpt lat="44.42903" lon="7.1027">
        <ele>1563.2</ele>
        <time>2022-07-18T14:57:25Z</time>
      </trkpt>
      <trkpt lat="44.42901" lon="7.10273">
        <ele>1563.2</ele>
        <time>2022-07-18T14:57:26Z</time>
      </trkpt>
      <trkpt lat="44.42899" lon="7.10274">
        <ele>1563.4</ele>
        <time>2022-07-18T14:57:27Z</time>
      </trkpt>
      <trkpt lat="44.42897" lon="7.10275">
        <ele>1563.4</ele>
        <time>2022-07-18T14:57:28Z</time>
      </trkpt>
      <trkpt lat="44.42895" lon="7.10277">
        <ele>1563.8</ele>
        <time>2022-07-18T14:57:29Z</time>
      </trkpt>
      <trkpt lat="44.42893" lon="7.10279">
        <ele>1563.8</ele>
        <time>2022-07-18T14:57:30Z</time>
      </trkpt>
      <trkpt lat="44.42891" lon="7.1028">
        <ele>1564</ele>
        <time>2022-07-18T14:57:31Z</time>
      </trkpt>
      <trkpt lat="44.42889" lon="7.10282">
        <ele>1564</ele>
        <time>2022-07-18T14:57:32Z</time>
      </trkpt>
      <trkpt lat="44.42887" lon="7.10283">
        <ele>1564.2</ele>
        <time>2022-07-18T14:57:33Z</time>
      </trkpt>
      <trkpt lat="44.42885" lon="7.10284">
        <ele>1564.2</ele>
        <time>2022-07-18T14:57:34Z</time>
      </trkpt>
      <trkpt lat="44.42883" lon="7.10284">
        <ele>1564.4</ele>
        <time>2022-07-18T14:57:35Z</time>
      </trkpt>
      <trkpt lat="44.42881" lon="7.10283">
        <ele>1564.4</ele>
        <time>2022-07-18T14:57:36Z</time>
      </trkpt>
      <trkpt lat="44.42878" lon="7.10282">
        <ele>1564.8</ele>
        <time>2022-07-18T14:57:37Z</time>
      </trkpt>
      <trkpt lat="44.42876" lon="7.1028">
        <ele>1564.8</ele>
        <time>2022-07-18T14:57:38Z</time>
      </trkpt>
      <trkpt lat="44.42874" lon="7.10277">
        <ele>1565</ele>
        <time>2022-07-18T14:57:39Z</time>
      </trkpt>
      <trkpt lat="44.42873" lon="7.10275">
        <ele>1565</ele>
        <time>2022-07-18T14:57:40Z</time>
      </trkpt>
      <trkpt lat="44.42872" lon="7.10272">
        <ele>1565.2</ele>
        <time>2022-07-18T14:57:41Z</time>
      </trkpt>
      <trkpt lat="44.42871" lon="7.10269">
        <ele>1565.2</ele>
        <time>2022-07-18T14:57:42Z</time>
      </trkpt>
      <trkpt lat="44.4287" lon="7.10266">
        <ele>1565.6</ele>
        <time>2022-07-18T14:57:43Z</time>
      </trkpt>
      <trkpt lat="44.42869" lon="7.10263">
        <ele>1565.6</ele>
        <time>2022-07-18T14:57:44Z</time>
      </trkpt>
      <trkpt lat="44.42869" lon="7.1026">
        <ele>1565.8</ele>
        <time>2022-07-18T14:57:45Z</time>
      </trkpt>
      <trkpt lat="44.42867" lon="7.10257">
        <ele>1565.8</ele>
        <time>2022-07-18T14:57:46Z</time>
      </trkpt>
      <trkpt lat="44.42867" lon="7.10255">
        <ele>1566</ele>
        <time>2022-07-18T14:57:47Z</time>
      </trkpt>
      <trkpt lat="44.42865" lon="7.10252">
        <ele>1566</ele>
        <time>2022-07-18T14:57:48Z</time>
      </trkpt>
      <trkpt lat="44.42864" lon="7.1025">
        <ele>1566.4</ele>
        <time>2022-07-18T14:57:49Z</time>
      </trkpt>
      <trkpt lat="44.42862" lon="7.10248">
        <ele>1566.4</ele>
        <time>2022-07-18T14:57:50Z</time>
      </trkpt>
      <trkpt lat="44.4286" lon="7.10246">
        <ele>1566.6</ele>
        <time>2022-07-18T14:57:51Z</time>
      </trkpt>
      <trkpt lat="44.42859" lon="7.10244">
        <ele>1566.6</ele>
        <time>2022-07-18T14:57:52Z</time>
      </trkpt>
      <trkpt lat="44.42857" lon="7.10242">
        <ele>1566.8</ele>
        <time>2022-07-18T14:57:53Z</time>
      </trkpt>
      <trkpt lat="44.42855" lon="7.1024">
        <ele>1566.8</ele>
        <time>2022-07-18T14:57:54Z</time>
      </trkpt>
      <trkpt lat="44.42854" lon="7.10239">
        <ele>1566.8</ele>
        <time>2022-07-18T14:57:55Z</time>
      </trkpt>
      <trkpt lat="44.42852" lon="7.10237">
        <ele>1567.2</ele>
        <time>2022-07-18T14:57:56Z</time>
      </trkpt>
      <trkpt lat="44.4285" lon="7.10235">
        <ele>1567.2</ele>
        <time>2022-07-18T14:57:57Z</time>
      </trkpt>
      <trkpt lat="44.42848" lon="7.10233">
        <ele>1567.4</ele>
        <time>2022-07-18T14:57:58Z</time>
      </trkpt>
      <trkpt lat="44.42847" lon="7.10232">
        <ele>1567.4</ele>
        <time>2022-07-18T14:57:59Z</time>
      </trkpt>
      <trkpt lat="44.42845" lon="7.1023">
        <ele>1567.8</ele>
        <time>2022-07-18T14:58:00Z</time>
      </trkpt>
      <trkpt lat="44.42843" lon="7.10229">
        <ele>1567.8</ele>
        <time>2022-07-18T14:58:01Z</time>
      </trkpt>
      <trkpt lat="44.42841" lon="7.10228">
        <ele>1568.2</ele>
        <time>2022-07-18T14:58:02Z</time>
      </trkpt>
      <trkpt lat="44.42839" lon="7.10226">
        <ele>1568.2</ele>
        <time>2022-07-18T14:58:03Z</time>
      </trkpt>
      <trkpt lat="44.42837" lon="7.10225">
        <ele>1568.6</ele>
        <time>2022-07-18T14:58:04Z</time>
      </trkpt>
      <trkpt lat="44.42834" lon="7.10223">
        <ele>1568.6</ele>
        <time>2022-07-18T14:58:05Z</time>
      </trkpt>
      <trkpt lat="44.42832" lon="7.10222">
        <ele>1568.8</ele>
        <time>2022-07-18T14:58:06Z</time>
      </trkpt>
      <trkpt lat="44.42829" lon="7.10221">
        <ele>1568.8</ele>
        <time>2022-07-18T14:58:07Z</time>
      </trkpt>
      <trkpt lat="44.42827" lon="7.1022">
        <ele>1569</ele>
        <time>2022-07-18T14:58:08Z</time>
      </trkpt>
      <trkpt lat="44.42825" lon="7.10218">
        <ele>1569</ele>
        <time>2022-07-18T14:58:09Z</time>
      </trkpt>
      <trkpt lat="44.42822" lon="7.10217">
        <ele>1569.4</ele>
        <time>2022-07-18T14:58:10Z</time>
      </trkpt>
      <trkpt lat="44.4282" lon="7.10216">
        <ele>1569.4</ele>
        <time>2022-07-18T14:58:11Z</time>
      </trkpt>
      <trkpt lat="44.42818" lon="7.10215">
        <ele>1569.6</ele>
        <time>2022-07-18T14:58:12Z</time>
      </trkpt>
      <trkpt lat="44.42816" lon="7.10213">
        <ele>1569.6</ele>
        <time>2022-07-18T14:58:13Z</time>
      </trkpt>
      <trkpt lat="44.42815" lon="7.10211">
        <ele>1570</ele>
        <time>2022-07-18T14:58:14Z</time>
      </trkpt>
      <trkpt lat="44.42813" lon="7.10209">
        <ele>1570</ele>
        <time>2022-07-18T14:58:15Z</time>
      </trkpt>
      <trkpt lat="44.42812" lon="7.10207">
        <ele>1570.2</ele>
        <time>2022-07-18T14:58:16Z</time>
      </trkpt>
      <trkpt lat="44.42811" lon="7.10204">
        <ele>1570.2</ele>
        <time>2022-07-18T14:58:17Z</time>
      </trkpt>
      <trkpt lat="44.42809" lon="7.10202">
        <ele>1570.4</ele>
        <time>2022-07-18T14:58:18Z</time>
      </trkpt>
      <trkpt lat="44.42807" lon="7.10199">
        <ele>1570.4</ele>
        <time>2022-07-18T14:58:19Z</time>
      </trkpt>
      <trkpt lat="44.42806" lon="7.10197">
        <ele>1570.8</ele>
        <time>2022-07-18T14:58:20Z</time>
      </trkpt>
      <trkpt lat="44.42804" lon="7.10195">
        <ele>1570.8</ele>
        <time>2022-07-18T14:58:21Z</time>
      </trkpt>
      <trkpt lat="44.42802" lon="7.10192">
        <ele>1571</ele>
        <time>2022-07-18T14:58:22Z</time>
      </trkpt>
      <trkpt lat="44.428" lon="7.1019">
        <ele>1571</ele>
        <time>2022-07-18T14:58:23Z</time>
      </trkpt>
      <trkpt lat="44.42799" lon="7.10188">
        <ele>1571</ele>
        <time>2022-07-18T14:58:24Z</time>
      </trkpt>
      <trkpt lat="44.42797" lon="7.10186">
        <ele>1571.2</ele>
        <time>2022-07-18T14:58:25Z</time>
      </trkpt>
      <trkpt lat="44.42795" lon="7.10184">
        <ele>1571.2</ele>
        <time>2022-07-18T14:58:26Z</time>
      </trkpt>
      <trkpt lat="44.42793" lon="7.10182">
        <ele>1571.6</ele>
        <time>2022-07-18T14:58:27Z</time>
      </trkpt>
      <trkpt lat="44.42792" lon="7.1018">
        <ele>1571.6</ele>
        <time>2022-07-18T14:58:28Z</time>
      </trkpt>
      <trkpt lat="44.42789" lon="7.1018">
        <ele>1571.8</ele>
        <time>2022-07-18T14:58:29Z</time>
      </trkpt>
      <trkpt lat="44.42787" lon="7.10179">
        <ele>1571.8</ele>
        <time>2022-07-18T14:58:30Z</time>
      </trkpt>
      <trkpt lat="44.42785" lon="7.10178">
        <ele>1572.2</ele>
        <time>2022-07-18T14:58:31Z</time>
      </trkpt>
      <trkpt lat="44.42784" lon="7.10177">
        <ele>1572.4</ele>
        <time>2022-07-18T14:58:32Z</time>
      </trkpt>
      <trkpt lat="44.42782" lon="7.10177">
        <ele>1572.4</ele>
        <time>2022-07-18T14:58:33Z</time>
      </trkpt>
      <trkpt lat="44.42779" lon="7.10177">
        <ele>1572.8</ele>
        <time>2022-07-18T14:58:34Z</time>
      </trkpt>
      <trkpt lat="44.42777" lon="7.10177">
        <ele>1572.8</ele>
        <time>2022-07-18T14:58:35Z</time>
      </trkpt>
      <trkpt lat="44.42775" lon="7.10178">
        <ele>1573</ele>
        <time>2022-07-18T14:58:36Z</time>
      </trkpt>
      <trkpt lat="44.42773" lon="7.10179">
        <ele>1573</ele>
        <time>2022-07-18T14:58:37Z</time>
      </trkpt>
      <trkpt lat="44.42771" lon="7.1018">
        <ele>1573.2</ele>
        <time>2022-07-18T14:58:38Z</time>
      </trkpt>
      <trkpt lat="44.42769" lon="7.10181">
        <ele>1573.6</ele>
        <time>2022-07-18T14:58:39Z</time>
      </trkpt>
      <trkpt lat="44.42766" lon="7.10182">
        <ele>1573.6</ele>
        <time>2022-07-18T14:58:40Z</time>
      </trkpt>
      <trkpt lat="44.42764" lon="7.10184">
        <ele>1573.8</ele>
        <time>2022-07-18T14:58:41Z</time>
      </trkpt>
      <trkpt lat="44.42762" lon="7.10185">
        <ele>1573.8</ele>
        <time>2022-07-18T14:58:42Z</time>
      </trkpt>
      <trkpt lat="44.4276" lon="7.10186">
        <ele>1574</ele>
        <time>2022-07-18T14:58:43Z</time>
      </trkpt>
      <trkpt lat="44.42758" lon="7.10187">
        <ele>1574</ele>
        <time>2022-07-18T14:58:44Z</time>
      </trkpt>
      <trkpt lat="44.42756" lon="7.10188">
        <ele>1574.2</ele>
        <time>2022-07-18T14:58:45Z</time>
      </trkpt>
      <trkpt lat="44.42754" lon="7.10189">
        <ele>1574.4</ele>
        <time>2022-07-18T14:58:46Z</time>
      </trkpt>
      <trkpt lat="44.42752" lon="7.1019">
        <ele>1574.4</ele>
        <time>2022-07-18T14:58:47Z</time>
      </trkpt>
      <trkpt lat="44.4275" lon="7.10192">
        <ele>1574.8</ele>
        <time>2022-07-18T14:58:48Z</time>
      </trkpt>
      <trkpt lat="44.42748" lon="7.10193">
        <ele>1574.8</ele>
        <time>2022-07-18T14:58:49Z</time>
      </trkpt>
      <trkpt lat="44.42747" lon="7.10194">
        <ele>1575</ele>
        <time>2022-07-18T14:58:50Z</time>
      </trkpt>
      <trkpt lat="44.42745" lon="7.10195">
        <ele>1575</ele>
        <time>2022-07-18T14:58:51Z</time>
      </trkpt>
      <trkpt lat="44.42743" lon="7.10197">
        <ele>1575.4</ele>
        <time>2022-07-18T14:58:52Z</time>
      </trkpt>
      <trkpt lat="44.42741" lon="7.10198">
        <ele>1575.4</ele>
        <time>2022-07-18T14:58:53Z</time>
      </trkpt>
      <trkpt lat="44.42739" lon="7.102">
        <ele>1575.6</ele>
        <time>2022-07-18T14:58:54Z</time>
      </trkpt>
      <trkpt lat="44.42737" lon="7.10201">
        <ele>1575.6</ele>
        <time>2022-07-18T14:58:55Z</time>
      </trkpt>
      <trkpt lat="44.42735" lon="7.10202">
        <ele>1575.8</ele>
        <time>2022-07-18T14:58:56Z</time>
      </trkpt>
      <trkpt lat="44.42733" lon="7.10204">
        <ele>1575.8</ele>
        <time>2022-07-18T14:58:57Z</time>
      </trkpt>
      <trkpt lat="44.42731" lon="7.10205">
        <ele>1576.2</ele>
        <time>2022-07-18T14:58:58Z</time>
      </trkpt>
      <trkpt lat="44.42729" lon="7.10206">
        <ele>1576.2</ele>
        <time>2022-07-18T14:58:59Z</time>
      </trkpt>
      <trkpt lat="44.42727" lon="7.10207">
        <ele>1576.6</ele>
        <time>2022-07-18T14:59:00Z</time>
      </trkpt>
      <trkpt lat="44.42725" lon="7.10208">
        <ele>1576.6</ele>
        <time>2022-07-18T14:59:01Z</time>
      </trkpt>
      <trkpt lat="44.42723" lon="7.1021">
        <ele>1576.8</ele>
        <time>2022-07-18T14:59:02Z</time>
      </trkpt>
      <trkpt lat="44.42721" lon="7.10211">
        <ele>1576.8</ele>
        <time>2022-07-18T14:59:03Z</time>
      </trkpt>
      <trkpt lat="44.42719" lon="7.10213">
        <ele>1577</ele>
        <time>2022-07-18T14:59:04Z</time>
      </trkpt>
      <trkpt lat="44.42717" lon="7.10214">
        <ele>1577</ele>
        <time>2022-07-18T14:59:05Z</time>
      </trkpt>
      <trkpt lat="44.42715" lon="7.10215">
        <ele>1577.2</ele>
        <time>2022-07-18T14:59:06Z</time>
      </trkpt>
      <trkpt lat="44.42713" lon="7.10217">
        <ele>1577.4</ele>
        <time>2022-07-18T14:59:07Z</time>
      </trkpt>
      <trkpt lat="44.42711" lon="7.10218">
        <ele>1577.4</ele>
        <time>2022-07-18T14:59:08Z</time>
      </trkpt>
      <trkpt lat="44.42709" lon="7.10219">
        <ele>1577.8</ele>
        <time>2022-07-18T14:59:09Z</time>
      </trkpt>
      <trkpt lat="44.42707" lon="7.10221">
        <ele>1577.8</ele>
        <time>2022-07-18T14:59:10Z</time>
      </trkpt>
      <trkpt lat="44.42706" lon="7.10223">
        <ele>1578</ele>
        <time>2022-07-18T14:59:11Z</time>
      </trkpt>
      <trkpt lat="44.42704" lon="7.10224">
        <ele>1578.2</ele>
        <time>2022-07-18T14:59:12Z</time>
      </trkpt>
      <trkpt lat="44.42702" lon="7.10225">
        <ele>1578.2</ele>
        <time>2022-07-18T14:59:13Z</time>
      </trkpt>
      <trkpt lat="44.427" lon="7.10227">
        <ele>1578.6</ele>
        <time>2022-07-18T14:59:14Z</time>
      </trkpt>
      <trkpt lat="44.42698" lon="7.10229">
        <ele>1578.6</ele>
        <time>2022-07-18T14:59:15Z</time>
      </trkpt>
      <trkpt lat="44.42696" lon="7.10231">
        <ele>1579</ele>
        <time>2022-07-18T14:59:16Z</time>
      </trkpt>
      <trkpt lat="44.42695" lon="7.10233">
        <ele>1579</ele>
        <time>2022-07-18T14:59:17Z</time>
      </trkpt>
      <trkpt lat="44.42693" lon="7.10235">
        <ele>1579.2</ele>
        <time>2022-07-18T14:59:18Z</time>
      </trkpt>
      <trkpt lat="44.42691" lon="7.10236">
        <ele>1579.2</ele>
        <time>2022-07-18T14:59:19Z</time>
      </trkpt>
      <trkpt lat="44.42689" lon="7.10238">
        <ele>1579.6</ele>
        <time>2022-07-18T14:59:20Z</time>
      </trkpt>
      <trkpt lat="44.42688" lon="7.1024">
        <ele>1579.6</ele>
        <time>2022-07-18T14:59:21Z</time>
      </trkpt>
      <trkpt lat="44.42686" lon="7.10241">
        <ele>1580</ele>
        <time>2022-07-18T14:59:22Z</time>
      </trkpt>
      <trkpt lat="44.42684" lon="7.10243">
        <ele>1580</ele>
        <time>2022-07-18T14:59:23Z</time>
      </trkpt>
      <trkpt lat="44.42682" lon="7.10244">
        <ele>1580.4</ele>
        <time>2022-07-18T14:59:24Z</time>
      </trkpt>
      <trkpt lat="44.4268" lon="7.10245">
        <ele>1580.4</ele>
        <time>2022-07-18T14:59:25Z</time>
      </trkpt>
      <trkpt lat="44.42678" lon="7.10246">
        <ele>1580.6</ele>
        <time>2022-07-18T14:59:26Z</time>
      </trkpt>
      <trkpt lat="44.42676" lon="7.10246">
        <ele>1580.6</ele>
        <time>2022-07-18T14:59:27Z</time>
      </trkpt>
      <trkpt lat="44.42674" lon="7.10246">
        <ele>1580.8</ele>
        <time>2022-07-18T14:59:28Z</time>
      </trkpt>
      <trkpt lat="44.42672" lon="7.10247">
        <ele>1581</ele>
        <time>2022-07-18T14:59:29Z</time>
      </trkpt>
      <trkpt lat="44.42669" lon="7.10247">
        <ele>1581</ele>
        <time>2022-07-18T14:59:30Z</time>
      </trkpt>
      <trkpt lat="44.42668" lon="7.10249">
        <ele>1581.4</ele>
        <time>2022-07-18T14:59:31Z</time>
      </trkpt>
      <trkpt lat="44.42666" lon="7.1025">
        <ele>1581.4</ele>
        <time>2022-07-18T14:59:32Z</time>
      </trkpt>
      <trkpt lat="44.42663" lon="7.10252">
        <ele>1581.4</ele>
        <time>2022-07-18T14:59:33Z</time>
      </trkpt>
      <trkpt lat="44.42662" lon="7.10254">
        <ele>1581.6</ele>
        <time>2022-07-18T14:59:34Z</time>
      </trkpt>
      <trkpt lat="44.4266" lon="7.10256">
        <ele>1581.6</ele>
        <time>2022-07-18T14:59:35Z</time>
      </trkpt>
      <trkpt lat="44.42658" lon="7.10257">
        <ele>1581.8</ele>
        <time>2022-07-18T14:59:36Z</time>
      </trkpt>
      <trkpt lat="44.42656" lon="7.10259">
        <ele>1581.8</ele>
        <time>2022-07-18T14:59:37Z</time>
      </trkpt>
      <trkpt lat="44.42654" lon="7.1026">
        <ele>1581.8</ele>
        <time>2022-07-18T14:59:38Z</time>
      </trkpt>
      <trkpt lat="44.42652" lon="7.10262">
        <ele>1582.2</ele>
        <time>2022-07-18T14:59:39Z</time>
      </trkpt>
      <trkpt lat="44.42649" lon="7.10263">
        <ele>1582.2</ele>
        <time>2022-07-18T14:59:40Z</time>
      </trkpt>
      <trkpt lat="44.42647" lon="7.10265">
        <ele>1582.4</ele>
        <time>2022-07-18T14:59:41Z</time>
      </trkpt>
      <trkpt lat="44.42645" lon="7.10266">
        <ele>1582.4</ele>
        <time>2022-07-18T14:59:42Z</time>
      </trkpt>
      <trkpt lat="44.42643" lon="7.10266">
        <ele>1582.6</ele>
        <time>2022-07-18T14:59:43Z</time>
      </trkpt>
      <trkpt lat="44.42641" lon="7.10267">
        <ele>1582.8</ele>
        <time>2022-07-18T14:59:44Z</time>
      </trkpt>
      <trkpt lat="44.42639" lon="7.10268">
        <ele>1582.8</ele>
        <time>2022-07-18T14:59:45Z</time>
      </trkpt>
      <trkpt lat="44.42637" lon="7.10269">
        <ele>1583.2</ele>
        <time>2022-07-18T14:59:46Z</time>
      </trkpt>
      <trkpt lat="44.42635" lon="7.1027">
        <ele>1583.2</ele>
        <time>2022-07-18T14:59:47Z</time>
      </trkpt>
      <trkpt lat="44.42633" lon="7.10269">
        <ele>1583.4</ele>
        <time>2022-07-18T14:59:48Z</time>
      </trkpt>
      <trkpt lat="44.42631" lon="7.10269">
        <ele>1583.4</ele>
        <time>2022-07-18T14:59:49Z</time>
      </trkpt>
      <trkpt lat="44.42629" lon="7.10268">
        <ele>1583.4</ele>
        <time>2022-07-18T14:59:50Z</time>
      </trkpt>
      <trkpt lat="44.42627" lon="7.10267">
        <ele>1583.6</ele>
        <time>2022-07-18T14:59:51Z</time>
      </trkpt>
      <trkpt lat="44.42625" lon="7.10267">
        <ele>1583.6</ele>
        <time>2022-07-18T14:59:52Z</time>
      </trkpt>
      <trkpt lat="44.42622" lon="7.10266">
        <ele>1584</ele>
        <time>2022-07-18T14:59:53Z</time>
      </trkpt>
      <trkpt lat="44.4262" lon="7.10265">
        <ele>1584</ele>
        <time>2022-07-18T14:59:54Z</time>
      </trkpt>
      <trkpt lat="44.42618" lon="7.10264">
        <ele>1584.4</ele>
        <time>2022-07-18T14:59:55Z</time>
      </trkpt>
      <trkpt lat="44.42615" lon="7.10263">
        <ele>1584.4</ele>
        <time>2022-07-18T14:59:56Z</time>
      </trkpt>
      <trkpt lat="44.42613" lon="7.10262">
        <ele>1584.8</ele>
        <time>2022-07-18T14:59:57Z</time>
      </trkpt>
      <trkpt lat="44.42611" lon="7.10261">
        <ele>1584.8</ele>
        <time>2022-07-18T14:59:58Z</time>
      </trkpt>
      <trkpt lat="44.42609" lon="7.10261">
        <ele>1585.2</ele>
        <time>2022-07-18T14:59:59Z</time>
      </trkpt>
      <trkpt lat="44.42607" lon="7.1026">
        <ele>1585.4</ele>
        <time>2022-07-18T15:00:00Z</time>
      </trkpt>
      <trkpt lat="44.42605" lon="7.1026">
        <ele>1585.4</ele>
        <time>2022-07-18T15:00:01Z</time>
      </trkpt>
      <trkpt lat="44.42603" lon="7.10259">
        <ele>1585.6</ele>
        <time>2022-07-18T15:00:02Z</time>
      </trkpt>
      <trkpt lat="44.42602" lon="7.10258">
        <ele>1585.6</ele>
        <time>2022-07-18T15:00:03Z</time>
      </trkpt>
      <trkpt lat="44.426" lon="7.10258">
        <ele>1586</ele>
        <time>2022-07-18T15:00:04Z</time>
      </trkpt>
      <trkpt lat="44.42598" lon="7.10257">
        <ele>1586</ele>
        <time>2022-07-18T15:00:05Z</time>
      </trkpt>
      <trkpt lat="44.42596" lon="7.10256">
        <ele>1586.4</ele>
        <time>2022-07-18T15:00:06Z</time>
      </trkpt>
      <trkpt lat="44.42594" lon="7.10255">
        <ele>1586.4</ele>
        <time>2022-07-18T15:00:07Z</time>
      </trkpt>
      <trkpt lat="44.42593" lon="7.10254">
        <ele>1586.6</ele>
        <time>2022-07-18T15:00:08Z</time>
      </trkpt>
      <trkpt lat="44.42591" lon="7.10254">
        <ele>1586.6</ele>
        <time>2022-07-18T15:00:09Z</time>
      </trkpt>
      <trkpt lat="44.42589" lon="7.10253">
        <ele>1587</ele>
        <time>2022-07-18T15:00:10Z</time>
      </trkpt>
      <trkpt lat="44.42588" lon="7.10253">
        <ele>1587.2</ele>
        <time>2022-07-18T15:00:11Z</time>
      </trkpt>
      <trkpt lat="44.42586" lon="7.10252">
        <ele>1587.2</ele>
        <time>2022-07-18T15:00:12Z</time>
      </trkpt>
      <trkpt lat="44.42584" lon="7.10251">
        <ele>1587.4</ele>
        <time>2022-07-18T15:00:13Z</time>
      </trkpt>
      <trkpt lat="44.42582" lon="7.1025">
        <ele>1587.6</ele>
        <time>2022-07-18T15:00:14Z</time>
      </trkpt>
      <trkpt lat="44.4258" lon="7.1025">
        <ele>1587.6</ele>
        <time>2022-07-18T15:00:15Z</time>
      </trkpt>
      <trkpt lat="44.42578" lon="7.1025">
        <ele>1588</ele>
        <time>2022-07-18T15:00:16Z</time>
      </trkpt>
      <trkpt lat="44.42577" lon="7.10249">
        <ele>1588</ele>
        <time>2022-07-18T15:00:17Z</time>
      </trkpt>
      <trkpt lat="44.42575" lon="7.10249">
        <ele>1588.2</ele>
        <time>2022-07-18T15:00:18Z</time>
      </trkpt>
      <trkpt lat="44.42573" lon="7.10248">
        <ele>1588.4</ele>
        <time>2022-07-18T15:00:19Z</time>
      </trkpt>
      <trkpt lat="44.42571" lon="7.10248">
        <ele>1588.4</ele>
        <time>2022-07-18T15:00:20Z</time>
      </trkpt>
      <trkpt lat="44.42569" lon="7.10247">
        <ele>1588.8</ele>
        <time>2022-07-18T15:00:21Z</time>
      </trkpt>
      <trkpt lat="44.42567" lon="7.10246">
        <ele>1589</ele>
        <time>2022-07-18T15:00:22Z</time>
      </trkpt>
      <trkpt lat="44.42565" lon="7.10246">
        <ele>1589</ele>
        <time>2022-07-18T15:00:23Z</time>
      </trkpt>
      <trkpt lat="44.42564" lon="7.10246">
        <ele>1589.2</ele>
        <time>2022-07-18T15:00:24Z</time>
      </trkpt>
      <trkpt lat="44.42562" lon="7.10246">
        <ele>1589.2</ele>
        <time>2022-07-18T15:00:25Z</time>
      </trkpt>
      <trkpt lat="44.4256" lon="7.10246">
        <ele>1589.6</ele>
        <time>2022-07-18T15:00:26Z</time>
      </trkpt>
      <trkpt lat="44.42559" lon="7.10246">
        <ele>1589.6</ele>
        <time>2022-07-18T15:00:27Z</time>
      </trkpt>
      <trkpt lat="44.42557" lon="7.10246">
        <ele>1590</ele>
        <time>2022-07-18T15:00:28Z</time>
      </trkpt>
      <trkpt lat="44.42555" lon="7.10246">
        <ele>1590</ele>
        <time>2022-07-18T15:00:29Z</time>
      </trkpt>
      <trkpt lat="44.42553" lon="7.10247">
        <ele>1590.4</ele>
        <time>2022-07-18T15:00:30Z</time>
      </trkpt>
      <trkpt lat="44.42551" lon="7.10247">
        <ele>1590.4</ele>
        <time>2022-07-18T15:00:31Z</time>
      </trkpt>
      <trkpt lat="44.42549" lon="7.10247">
        <ele>1590.6</ele>
        <time>2022-07-18T15:00:32Z</time>
      </trkpt>
      <trkpt lat="44.42547" lon="7.10246">
        <ele>1590.6</ele>
        <time>2022-07-18T15:00:33Z</time>
      </trkpt>
      <trkpt lat="44.42546" lon="7.10246">
        <ele>1591</ele>
        <time>2022-07-18T15:00:34Z</time>
      </trkpt>
      <trkpt lat="44.42544" lon="7.10247">
        <ele>1591</ele>
        <time>2022-07-18T15:00:35Z</time>
      </trkpt>
      <trkpt lat="44.42542" lon="7.10247">
        <ele>1591.4</ele>
        <time>2022-07-18T15:00:36Z</time>
      </trkpt>
      <trkpt lat="44.42541" lon="7.10247">
        <ele>1591.4</ele>
        <time>2022-07-18T15:00:37Z</time>
      </trkpt>
      <trkpt lat="44.4254" lon="7.10247">
        <ele>1591.6</ele>
        <time>2022-07-18T15:00:38Z</time>
      </trkpt>
      <trkpt lat="44.42538" lon="7.10247">
        <ele>1591.6</ele>
        <time>2022-07-18T15:00:39Z</time>
      </trkpt>
      <trkpt lat="44.42536" lon="7.10248">
        <ele>1592</ele>
        <time>2022-07-18T15:00:40Z</time>
      </trkpt>
      <trkpt lat="44.42535" lon="7.10248">
        <ele>1592</ele>
        <time>2022-07-18T15:00:41Z</time>
      </trkpt>
      <trkpt lat="44.42533" lon="7.10248">
        <ele>1592.2</ele>
        <time>2022-07-18T15:00:42Z</time>
      </trkpt>
      <trkpt lat="44.42531" lon="7.10249">
        <ele>1592.2</ele>
        <time>2022-07-18T15:00:43Z</time>
      </trkpt>
      <trkpt lat="44.4253" lon="7.10249">
        <ele>1592.6</ele>
        <time>2022-07-18T15:00:44Z</time>
      </trkpt>
      <trkpt lat="44.42528" lon="7.10249">
        <ele>1592.6</ele>
        <time>2022-07-18T15:00:45Z</time>
      </trkpt>
      <trkpt lat="44.42527" lon="7.10248">
        <ele>1593</ele>
        <time>2022-07-18T15:00:46Z</time>
      </trkpt>
      <trkpt lat="44.42525" lon="7.10248">
        <ele>1593.2</ele>
        <time>2022-07-18T15:00:47Z</time>
      </trkpt>
      <trkpt lat="44.42523" lon="7.10248">
        <ele>1593.2</ele>
        <time>2022-07-18T15:00:48Z</time>
      </trkpt>
      <trkpt lat="44.42521" lon="7.10249">
        <ele>1593.6</ele>
        <time>2022-07-18T15:00:49Z</time>
      </trkpt>
      <trkpt lat="44.42519" lon="7.10249">
        <ele>1593.6</ele>
        <time>2022-07-18T15:00:50Z</time>
      </trkpt>
      <trkpt lat="44.42517" lon="7.10249">
        <ele>1593.8</ele>
        <time>2022-07-18T15:00:51Z</time>
      </trkpt>
      <trkpt lat="44.42515" lon="7.10249">
        <ele>1593.8</ele>
        <time>2022-07-18T15:00:52Z</time>
      </trkpt>
      <trkpt lat="44.42514" lon="7.10249">
        <ele>1594.2</ele>
        <time>2022-07-18T15:00:53Z</time>
      </trkpt>
      <trkpt lat="44.42512" lon="7.10249">
        <ele>1594.2</ele>
        <time>2022-07-18T15:00:54Z</time>
      </trkpt>
      <trkpt lat="44.4251" lon="7.10248">
        <ele>1594.6</ele>
        <time>2022-07-18T15:00:55Z</time>
      </trkpt>
      <trkpt lat="44.42508" lon="7.10248">
        <ele>1594.6</ele>
        <time>2022-07-18T15:00:56Z</time>
      </trkpt>
      <trkpt lat="44.42506" lon="7.10247">
        <ele>1594.8</ele>
        <time>2022-07-18T15:00:57Z</time>
      </trkpt>
      <trkpt lat="44.42504" lon="7.10246">
        <ele>1594.8</ele>
        <time>2022-07-18T15:00:58Z</time>
      </trkpt>
      <trkpt lat="44.42501" lon="7.10245">
        <ele>1595.2</ele>
        <time>2022-07-18T15:00:59Z</time>
      </trkpt>
      <trkpt lat="44.42499" lon="7.10244">
        <ele>1595.2</ele>
        <time>2022-07-18T15:01:00Z</time>
      </trkpt>
      <trkpt lat="44.42497" lon="7.10243">
        <ele>1595.6</ele>
        <time>2022-07-18T15:01:01Z</time>
      </trkpt>
      <trkpt lat="44.42495" lon="7.10241">
        <ele>1595.6</ele>
        <time>2022-07-18T15:01:02Z</time>
      </trkpt>
      <trkpt lat="44.42492" lon="7.1024">
        <ele>1595.8</ele>
        <time>2022-07-18T15:01:03Z</time>
      </trkpt>
      <trkpt lat="44.4249" lon="7.10238">
        <ele>1596</ele>
        <time>2022-07-18T15:01:04Z</time>
      </trkpt>
      <trkpt lat="44.42488" lon="7.10237">
        <ele>1596</ele>
        <time>2022-07-18T15:01:05Z</time>
      </trkpt>
      <trkpt lat="44.42486" lon="7.10235">
        <ele>1596.2</ele>
        <time>2022-07-18T15:01:06Z</time>
      </trkpt>
      <trkpt lat="44.42484" lon="7.10234">
        <ele>1596.2</ele>
        <time>2022-07-18T15:01:07Z</time>
      </trkpt>
      <trkpt lat="44.42482" lon="7.10233">
        <ele>1596.6</ele>
        <time>2022-07-18T15:01:08Z</time>
      </trkpt>
      <trkpt lat="44.4248" lon="7.10233">
        <ele>1596.6</ele>
        <time>2022-07-18T15:01:09Z</time>
      </trkpt>
      <trkpt lat="44.42478" lon="7.10233">
        <ele>1596.8</ele>
        <time>2022-07-18T15:01:10Z</time>
      </trkpt>
      <trkpt lat="44.42476" lon="7.10233">
        <ele>1596.8</ele>
        <time>2022-07-18T15:01:11Z</time>
      </trkpt>
      <trkpt lat="44.42474" lon="7.10234">
        <ele>1597.2</ele>
        <time>2022-07-18T15:01:12Z</time>
      </trkpt>
      <trkpt lat="44.42472" lon="7.10235">
        <ele>1597.2</ele>
        <time>2022-07-18T15:01:13Z</time>
      </trkpt>
      <trkpt lat="44.42471" lon="7.10237">
        <ele>1597.4</ele>
        <time>2022-07-18T15:01:14Z</time>
      </trkpt>
      <trkpt lat="44.4247" lon="7.1024">
        <ele>1597.4</ele>
        <time>2022-07-18T15:01:15Z</time>
      </trkpt>
      <trkpt lat="44.4247" lon="7.10242">
        <ele>1597.6</ele>
        <time>2022-07-18T15:01:16Z</time>
      </trkpt>
      <trkpt lat="44.4247" lon="7.10244">
        <ele>1597.6</ele>
        <time>2022-07-18T15:01:17Z</time>
      </trkpt>
      <trkpt lat="44.42471" lon="7.10246">
        <ele>1598</ele>
        <time>2022-07-18T15:01:18Z</time>
      </trkpt>
      <trkpt lat="44.42472" lon="7.10248">
        <ele>1598</ele>
        <time>2022-07-18T15:01:19Z</time>
      </trkpt>
      <trkpt lat="44.42474" lon="7.1025">
        <ele>1598</ele>
        <time>2022-07-18T15:01:20Z</time>
      </trkpt>
      <trkpt lat="44.42476" lon="7.10251">
        <ele>1598.2</ele>
        <time>2022-07-18T15:01:21Z</time>
      </trkpt>
      <trkpt lat="44.42479" lon="7.10252">
        <ele>1598.2</ele>
        <time>2022-07-18T15:01:22Z</time>
      </trkpt>
      <trkpt lat="44.42481" lon="7.10253">
        <ele>1598.2</ele>
        <time>2022-07-18T15:01:23Z</time>
      </trkpt>
      <trkpt lat="44.42483" lon="7.10254">
        <ele>1598.6</ele>
        <time>2022-07-18T15:01:24Z</time>
      </trkpt>
      <trkpt lat="44.42486" lon="7.10255">
        <ele>1598.6</ele>
        <time>2022-07-18T15:01:25Z</time>
      </trkpt>
      <trkpt lat="44.42488" lon="7.10255">
        <ele>1598.8</ele>
        <time>2022-07-18T15:01:26Z</time>
      </trkpt>
      <trkpt lat="44.4249" lon="7.10256">
        <ele>1598.8</ele>
        <time>2022-07-18T15:01:27Z</time>
      </trkpt>
      <trkpt lat="44.42492" lon="7.10257">
        <ele>1599</ele>
        <time>2022-07-18T15:01:28Z</time>
      </trkpt>
      <trkpt lat="44.42494" lon="7.10258">
        <ele>1599</ele>
        <time>2022-07-18T15:01:29Z</time>
      </trkpt>
      <trkpt lat="44.42496" lon="7.10258">
        <ele>1599</ele>
        <time>2022-07-18T15:01:30Z</time>
      </trkpt>
      <trkpt lat="44.42498" lon="7.10259">
        <ele>1599</ele>
        <time>2022-07-18T15:01:31Z</time>
      </trkpt>
      <trkpt lat="44.42501" lon="7.1026">
        <ele>1599.4</ele>
        <time>2022-07-18T15:01:32Z</time>
      </trkpt>
      <trkpt lat="44.42503" lon="7.10261">
        <ele>1599.4</ele>
        <time>2022-07-18T15:01:33Z</time>
      </trkpt>
      <trkpt lat="44.42505" lon="7.10261">
        <ele>1599.6</ele>
        <time>2022-07-18T15:01:34Z</time>
      </trkpt>
      <trkpt lat="44.42507" lon="7.10262">
        <ele>1599.6</ele>
        <time>2022-07-18T15:01:35Z</time>
      </trkpt>
      <trkpt lat="44.4251" lon="7.10263">
        <ele>1599.6</ele>
        <time>2022-07-18T15:01:36Z</time>
      </trkpt>
      <trkpt lat="44.42512" lon="7.10264">
        <ele>1599.6</ele>
        <time>2022-07-18T15:01:37Z</time>
      </trkpt>
      <trkpt lat="44.42514" lon="7.10264">
        <ele>1599.6</ele>
        <time>2022-07-18T15:01:38Z</time>
      </trkpt>
      <trkpt lat="44.42517" lon="7.10264">
        <ele>1599.6</ele>
        <time>2022-07-18T15:01:39Z</time>
      </trkpt>
      <trkpt lat="44.42519" lon="7.10264">
        <ele>1599.8</ele>
        <time>2022-07-18T15:01:40Z</time>
      </trkpt>
      <trkpt lat="44.42521" lon="7.10264">
        <ele>1599.8</ele>
        <time>2022-07-18T15:01:41Z</time>
      </trkpt>
      <trkpt lat="44.42524" lon="7.10265">
        <ele>1600.2</ele>
        <time>2022-07-18T15:01:42Z</time>
      </trkpt>
      <trkpt lat="44.42526" lon="7.10265">
        <ele>1600.2</ele>
        <time>2022-07-18T15:01:43Z</time>
      </trkpt>
      <trkpt lat="44.42528" lon="7.10265">
        <ele>1600.2</ele>
        <time>2022-07-18T15:01:44Z</time>
      </trkpt>
      <trkpt lat="44.42531" lon="7.10266">
        <ele>1600.6</ele>
        <time>2022-07-18T15:01:45Z</time>
      </trkpt>
      <trkpt lat="44.42533" lon="7.10266">
        <ele>1600.6</ele>
        <time>2022-07-18T15:01:46Z</time>
      </trkpt>
      <trkpt lat="44.42536" lon="7.10267">
        <ele>1600.8</ele>
        <time>2022-07-18T15:01:47Z</time>
      </trkpt>
      <trkpt lat="44.42538" lon="7.10267">
        <ele>1600.8</ele>
        <time>2022-07-18T15:01:48Z</time>
      </trkpt>
      <trkpt lat="44.4254" lon="7.10268">
        <ele>1600.8</ele>
        <time>2022-07-18T15:01:49Z</time>
      </trkpt>
      <trkpt lat="44.42543" lon="7.10268">
        <ele>1600.8</ele>
        <time>2022-07-18T15:01:50Z</time>
      </trkpt>
      <trkpt lat="44.42545" lon="7.10268">
        <ele>1601.2</ele>
        <time>2022-07-18T15:01:51Z</time>
      </trkpt>
      <trkpt lat="44.42547" lon="7.10269">
        <ele>1601.2</ele>
        <time>2022-07-18T15:01:52Z</time>
      </trkpt>
      <trkpt lat="44.4255" lon="7.1027">
        <ele>1601.4</ele>
        <time>2022-07-18T15:01:53Z</time>
      </trkpt>
      <trkpt lat="44.42552" lon="7.10269">
        <ele>1601.4</ele>
        <time>2022-07-18T15:01:54Z</time>
      </trkpt>
      <trkpt lat="44.42554" lon="7.1027">
        <ele>1601.4</ele>
        <time>2022-07-18T15:01:55Z</time>
      </trkpt>
      <trkpt lat="44.42557" lon="7.1027">
        <ele>1601.6</ele>
        <time>2022-07-18T15:01:56Z</time>
      </trkpt>
      <trkpt lat="44.42559" lon="7.10271">
        <ele>1601.6</ele>
        <time>2022-07-18T15:01:57Z</time>
      </trkpt>
      <trkpt lat="44.42561" lon="7.10272">
        <ele>1601.6</ele>
        <time>2022-07-18T15:01:58Z</time>
      </trkpt>
      <trkpt lat="44.42563" lon="7.10272">
        <ele>1602</ele>
        <time>2022-07-18T15:01:59Z</time>
      </trkpt>
      <trkpt lat="44.42565" lon="7.10273">
        <ele>1602</ele>
        <time>2022-07-18T15:02:00Z</time>
      </trkpt>
      <trkpt lat="44.42567" lon="7.10274">
        <ele>1602.2</ele>
        <time>2022-07-18T15:02:01Z</time>
      </trkpt>
      <trkpt lat="44.42569" lon="7.10275">
        <ele>1602.2</ele>
        <time>2022-07-18T15:02:02Z</time>
      </trkpt>
      <trkpt lat="44.4257" lon="7.10276">
        <ele>1602.4</ele>
        <time>2022-07-18T15:02:03Z</time>
      </trkpt>
      <trkpt lat="44.42572" lon="7.10277">
        <ele>1602.4</ele>
        <time>2022-07-18T15:02:04Z</time>
      </trkpt>
      <trkpt lat="44.42573" lon="7.10279">
        <ele>1602.4</ele>
        <time>2022-07-18T15:02:05Z</time>
      </trkpt>
      <trkpt lat="44.42574" lon="7.10281">
        <ele>1602.8</ele>
        <time>2022-07-18T15:02:06Z</time>
      </trkpt>
      <trkpt lat="44.42574" lon="7.10284">
        <ele>1602.8</ele>
        <time>2022-07-18T15:02:07Z</time>
      </trkpt>
      <trkpt lat="44.42573" lon="7.10286">
        <ele>1603</ele>
        <time>2022-07-18T15:02:08Z</time>
      </trkpt>
      <trkpt lat="44.42572" lon="7.10288">
        <ele>1603</ele>
        <time>2022-07-18T15:02:09Z</time>
      </trkpt>
      <trkpt lat="44.4257" lon="7.10289">
        <ele>1603.4</ele>
        <time>2022-07-18T15:02:10Z</time>
      </trkpt>
      <trkpt lat="44.42568" lon="7.1029">
        <ele>1603.4</ele>
        <time>2022-07-18T15:02:11Z</time>
      </trkpt>
      <trkpt lat="44.42566" lon="7.1029">
        <ele>1603.8</ele>
        <time>2022-07-18T15:02:12Z</time>
      </trkpt>
      <trkpt lat="44.42565" lon="7.1029">
        <ele>1603.8</ele>
        <time>2022-07-18T15:02:13Z</time>
      </trkpt>
      <trkpt lat="44.42563" lon="7.10289">
        <ele>1604</ele>
        <time>2022-07-18T15:02:14Z</time>
      </trkpt>
      <trkpt lat="44.42561" lon="7.10289">
        <ele>1604</ele>
        <time>2022-07-18T15:02:15Z</time>
      </trkpt>
      <trkpt lat="44.42559" lon="7.10289">
        <ele>1604.4</ele>
        <time>2022-07-18T15:02:16Z</time>
      </trkpt>
      <trkpt lat="44.42557" lon="7.10288">
        <ele>1604.4</ele>
        <time>2022-07-18T15:02:17Z</time>
      </trkpt>
      <trkpt lat="44.42555" lon="7.10288">
        <ele>1604.8</ele>
        <time>2022-07-18T15:02:18Z</time>
      </trkpt>
      <trkpt lat="44.42554" lon="7.10288">
        <ele>1604.8</ele>
        <time>2022-07-18T15:02:19Z</time>
      </trkpt>
      <trkpt lat="44.42552" lon="7.10288">
        <ele>1605.2</ele>
        <time>2022-07-18T15:02:20Z</time>
      </trkpt>
      <trkpt lat="44.4255" lon="7.10288">
        <ele>1605.4</ele>
        <time>2022-07-18T15:02:21Z</time>
      </trkpt>
      <trkpt lat="44.42548" lon="7.10288">
        <ele>1605.6</ele>
        <time>2022-07-18T15:02:22Z</time>
      </trkpt>
      <trkpt lat="44.42546" lon="7.10288">
        <ele>1605.8</ele>
        <time>2022-07-18T15:02:23Z</time>
      </trkpt>
      <trkpt lat="44.42544" lon="7.10288">
        <ele>1606</ele>
        <time>2022-07-18T15:02:24Z</time>
      </trkpt>
      <trkpt lat="44.42543" lon="7.10288">
        <ele>1606.2</ele>
        <time>2022-07-18T15:02:25Z</time>
      </trkpt>
      <trkpt lat="44.42541" lon="7.10288">
        <ele>1606.4</ele>
        <time>2022-07-18T15:02:26Z</time>
      </trkpt>
      <trkpt lat="44.42539" lon="7.10288">
        <ele>1606.4</ele>
        <time>2022-07-18T15:02:27Z</time>
      </trkpt>
      <trkpt lat="44.42538" lon="7.10289">
        <ele>1606.8</ele>
        <time>2022-07-18T15:02:28Z</time>
      </trkpt>
      <trkpt lat="44.42535" lon="7.10289">
        <ele>1607</ele>
        <time>2022-07-18T15:02:29Z</time>
      </trkpt>
      <trkpt lat="44.42533" lon="7.10289">
        <ele>1607</ele>
        <time>2022-07-18T15:02:30Z</time>
      </trkpt>
      <trkpt lat="44.42532" lon="7.10289">
        <ele>1607.4</ele>
        <time>2022-07-18T15:02:31Z</time>
      </trkpt>
      <trkpt lat="44.4253" lon="7.10289">
        <ele>1607.4</ele>
        <time>2022-07-18T15:02:32Z</time>
      </trkpt>
      <trkpt lat="44.42528" lon="7.1029">
        <ele>1607.8</ele>
        <time>2022-07-18T15:02:33Z</time>
      </trkpt>
      <trkpt lat="44.42526" lon="7.1029">
        <ele>1607.8</ele>
        <time>2022-07-18T15:02:34Z</time>
      </trkpt>
      <trkpt lat="44.42524" lon="7.10291">
        <ele>1608.2</ele>
        <time>2022-07-18T15:02:35Z</time>
      </trkpt>
      <trkpt lat="44.42522" lon="7.10291">
        <ele>1608.2</ele>
        <time>2022-07-18T15:02:36Z</time>
      </trkpt>
      <trkpt lat="44.42521" lon="7.10291">
        <ele>1608.6</ele>
        <time>2022-07-18T15:02:37Z</time>
      </trkpt>
      <trkpt lat="44.42519" lon="7.10291">
        <ele>1608.8</ele>
        <time>2022-07-18T15:02:38Z</time>
      </trkpt>
      <trkpt lat="44.42517" lon="7.10292">
        <ele>1609</ele>
        <time>2022-07-18T15:02:39Z</time>
      </trkpt>
      <trkpt lat="44.42516" lon="7.10292">
        <ele>1609</ele>
        <time>2022-07-18T15:02:40Z</time>
      </trkpt>
      <trkpt lat="44.42514" lon="7.10292">
        <ele>1609.4</ele>
        <time>2022-07-18T15:02:41Z</time>
      </trkpt>
      <trkpt lat="44.42512" lon="7.10293">
        <ele>1609.6</ele>
        <time>2022-07-18T15:02:42Z</time>
      </trkpt>
      <trkpt lat="44.42511" lon="7.10293">
        <ele>1609.6</ele>
        <time>2022-07-18T15:02:43Z</time>
      </trkpt>
      <trkpt lat="44.42509" lon="7.10292">
        <ele>1610</ele>
        <time>2022-07-18T15:02:44Z</time>
      </trkpt>
      <trkpt lat="44.42507" lon="7.10292">
        <ele>1610</ele>
        <time>2022-07-18T15:02:45Z</time>
      </trkpt>
      <trkpt lat="44.42505" lon="7.10292">
        <ele>1610.4</ele>
        <time>2022-07-18T15:02:46Z</time>
      </trkpt>
      <trkpt lat="44.42503" lon="7.10292">
        <ele>1610.4</ele>
        <time>2022-07-18T15:02:47Z</time>
      </trkpt>
      <trkpt lat="44.42502" lon="7.10292">
        <ele>1610.6</ele>
        <time>2022-07-18T15:02:48Z</time>
      </trkpt>
      <trkpt lat="44.42501" lon="7.10292">
        <ele>1610.6</ele>
        <time>2022-07-18T15:02:49Z</time>
      </trkpt>
      <trkpt lat="44.42499" lon="7.10292">
        <ele>1611</ele>
        <time>2022-07-18T15:02:50Z</time>
      </trkpt>
      <trkpt lat="44.42497" lon="7.10292">
        <ele>1611</ele>
        <time>2022-07-18T15:02:51Z</time>
      </trkpt>
      <trkpt lat="44.42495" lon="7.10292">
        <ele>1611.4</ele>
        <time>2022-07-18T15:02:52Z</time>
      </trkpt>
      <trkpt lat="44.42492" lon="7.10292">
        <ele>1611.4</ele>
        <time>2022-07-18T15:02:53Z</time>
      </trkpt>
      <trkpt lat="44.4249" lon="7.10292">
        <ele>1611.8</ele>
        <time>2022-07-18T15:02:54Z</time>
      </trkpt>
      <trkpt lat="44.42488" lon="7.10292">
        <ele>1611.8</ele>
        <time>2022-07-18T15:02:55Z</time>
      </trkpt>
      <trkpt lat="44.42487" lon="7.10292">
        <ele>1612</ele>
        <time>2022-07-18T15:02:56Z</time>
      </trkpt>
      <trkpt lat="44.42485" lon="7.10292">
        <ele>1612.4</ele>
        <time>2022-07-18T15:02:57Z</time>
      </trkpt>
      <trkpt lat="44.42483" lon="7.10292">
        <ele>1612.4</ele>
        <time>2022-07-18T15:02:58Z</time>
      </trkpt>
      <trkpt lat="44.42481" lon="7.10292">
        <ele>1612.6</ele>
        <time>2022-07-18T15:02:59Z</time>
      </trkpt>
      <trkpt lat="44.42479" lon="7.10292">
        <ele>1612.8</ele>
        <time>2022-07-18T15:03:00Z</time>
      </trkpt>
      <trkpt lat="44.42477" lon="7.10291">
        <ele>1612.8</ele>
        <time>2022-07-18T15:03:01Z</time>
      </trkpt>
      <trkpt lat="44.42476" lon="7.10291">
        <ele>1613.2</ele>
        <time>2022-07-18T15:03:02Z</time>
      </trkpt>
      <trkpt lat="44.42474" lon="7.10291">
        <ele>1613.4</ele>
        <time>2022-07-18T15:03:03Z</time>
      </trkpt>
      <trkpt lat="44.42472" lon="7.1029">
        <ele>1613.6</ele>
        <time>2022-07-18T15:03:04Z</time>
      </trkpt>
      <trkpt lat="44.4247" lon="7.1029">
        <ele>1613.6</ele>
        <time>2022-07-18T15:03:05Z</time>
      </trkpt>
      <trkpt lat="44.42469" lon="7.1029">
        <ele>1614</ele>
        <time>2022-07-18T15:03:06Z</time>
      </trkpt>
      <trkpt lat="44.42467" lon="7.1029">
        <ele>1614</ele>
        <time>2022-07-18T15:03:07Z</time>
      </trkpt>
      <trkpt lat="44.42465" lon="7.1029">
        <ele>1614.4</ele>
        <time>2022-07-18T15:03:08Z</time>
      </trkpt>
      <trkpt lat="44.42463" lon="7.1029">
        <ele>1614.6</ele>
        <time>2022-07-18T15:03:09Z</time>
      </trkpt>
      <trkpt lat="44.42461" lon="7.1029">
        <ele>1614.6</ele>
        <time>2022-07-18T15:03:10Z</time>
      </trkpt>
      <trkpt lat="44.4246" lon="7.10291">
        <ele>1614.8</ele>
        <time>2022-07-18T15:03:11Z</time>
      </trkpt>
      <trkpt lat="44.42458" lon="7.10291">
        <ele>1614.8</ele>
        <time>2022-07-18T15:03:12Z</time>
      </trkpt>
      <trkpt lat="44.42456" lon="7.1029">
        <ele>1615.2</ele>
        <time>2022-07-18T15:03:13Z</time>
      </trkpt>
      <trkpt lat="44.42454" lon="7.1029">
        <ele>1615.2</ele>
        <time>2022-07-18T15:03:14Z</time>
      </trkpt>
      <trkpt lat="44.42453" lon="7.10289">
        <ele>1615.4</ele>
        <time>2022-07-18T15:03:15Z</time>
      </trkpt>
      <trkpt lat="44.42451" lon="7.10289">
        <ele>1615.6</ele>
        <time>2022-07-18T15:03:16Z</time>
      </trkpt>
      <trkpt lat="44.42449" lon="7.10288">
        <ele>1615.6</ele>
        <time>2022-07-18T15:03:17Z</time>
      </trkpt>
      <trkpt lat="44.42447" lon="7.10288">
        <ele>1616</ele>
        <time>2022-07-18T15:03:18Z</time>
      </trkpt>
      <trkpt lat="44.42445" lon="7.10287">
        <ele>1616.2</ele>
        <time>2022-07-18T15:03:19Z</time>
      </trkpt>
      <trkpt lat="44.42444" lon="7.10287">
        <ele>1616.4</ele>
        <time>2022-07-18T15:03:20Z</time>
      </trkpt>
      <trkpt lat="44.42442" lon="7.10286">
        <ele>1616.4</ele>
        <time>2022-07-18T15:03:21Z</time>
      </trkpt>
      <trkpt lat="44.4244" lon="7.10286">
        <ele>1616.8</ele>
        <time>2022-07-18T15:03:22Z</time>
      </trkpt>
      <trkpt lat="44.42439" lon="7.10286">
        <ele>1617</ele>
        <time>2022-07-18T15:03:23Z</time>
      </trkpt>
      <trkpt lat="44.42437" lon="7.10285">
        <ele>1617</ele>
        <time>2022-07-18T15:03:24Z</time>
      </trkpt>
      <trkpt lat="44.42436" lon="7.10285">
        <ele>1617.4</ele>
        <time>2022-07-18T15:03:25Z</time>
      </trkpt>
      <trkpt lat="44.42435" lon="7.10285">
        <ele>1617.8</ele>
        <time>2022-07-18T15:03:26Z</time>
      </trkpt>
      <trkpt lat="44.42433" lon="7.10285">
        <ele>1618</ele>
        <time>2022-07-18T15:03:27Z</time>
      </trkpt>
      <trkpt lat="44.42432" lon="7.10285">
        <ele>1618.2</ele>
        <time>2022-07-18T15:03:28Z</time>
      </trkpt>
      <trkpt lat="44.4243" lon="7.10284">
        <ele>1618.2</ele>
        <time>2022-07-18T15:03:29Z</time>
      </trkpt>
      <trkpt lat="44.42429" lon="7.10284">
        <ele>1618.4</ele>
        <time>2022-07-18T15:03:30Z</time>
      </trkpt>
      <trkpt lat="44.42428" lon="7.10284">
        <ele>1618.6</ele>
        <time>2022-07-18T15:03:31Z</time>
      </trkpt>
      <trkpt lat="44.42426" lon="7.10284">
        <ele>1618.6</ele>
        <time>2022-07-18T15:03:32Z</time>
      </trkpt>
      <trkpt lat="44.42425" lon="7.10284">
        <ele>1619</ele>
        <time>2022-07-18T15:03:33Z</time>
      </trkpt>
      <trkpt lat="44.42423" lon="7.10284">
        <ele>1619</ele>
        <time>2022-07-18T15:03:34Z</time>
      </trkpt>
      <trkpt lat="44.42421" lon="7.10284">
        <ele>1619.2</ele>
        <time>2022-07-18T15:03:35Z</time>
      </trkpt>
      <trkpt lat="44.42419" lon="7.10284">
        <ele>1619.2</ele>
        <time>2022-07-18T15:03:36Z</time>
      </trkpt>
      <trkpt lat="44.42418" lon="7.10283">
        <ele>1619.6</ele>
        <time>2022-07-18T15:03:37Z</time>
      </trkpt>
      <trkpt lat="44.42416" lon="7.10283">
        <ele>1619.6</ele>
        <time>2022-07-18T15:03:38Z</time>
      </trkpt>
      <trkpt lat="44.42415" lon="7.10283">
        <ele>1620</ele>
        <time>2022-07-18T15:03:39Z</time>
      </trkpt>
      <trkpt lat="44.42413" lon="7.10283">
        <ele>1620</ele>
        <time>2022-07-18T15:03:40Z</time>
      </trkpt>
      <trkpt lat="44.42412" lon="7.10282">
        <ele>1620.2</ele>
        <time>2022-07-18T15:03:41Z</time>
      </trkpt>
      <trkpt lat="44.4241" lon="7.10281">
        <ele>1620.2</ele>
        <time>2022-07-18T15:03:42Z</time>
      </trkpt>
      <trkpt lat="44.42408" lon="7.10281">
        <ele>1620.6</ele>
        <time>2022-07-18T15:03:43Z</time>
      </trkpt>
      <trkpt lat="44.42406" lon="7.1028">
        <ele>1620.6</ele>
        <time>2022-07-18T15:03:44Z</time>
      </trkpt>
      <trkpt lat="44.42405" lon="7.10279">
        <ele>1621</ele>
        <time>2022-07-18T15:03:45Z</time>
      </trkpt>
      <trkpt lat="44.42403" lon="7.10279">
        <ele>1621</ele>
        <time>2022-07-18T15:03:46Z</time>
      </trkpt>
      <trkpt lat="44.42401" lon="7.10279">
        <ele>1621.2</ele>
        <time>2022-07-18T15:03:47Z</time>
      </trkpt>
      <trkpt lat="44.42399" lon="7.10279">
        <ele>1621.2</ele>
        <time>2022-07-18T15:03:48Z</time>
      </trkpt>
      <trkpt lat="44.42398" lon="7.10279">
        <ele>1621.4</ele>
        <time>2022-07-18T15:03:49Z</time>
      </trkpt>
      <trkpt lat="44.42396" lon="7.10279">
        <ele>1621.4</ele>
        <time>2022-07-18T15:03:50Z</time>
      </trkpt>
      <trkpt lat="44.42394" lon="7.1028">
        <ele>1621.8</ele>
        <time>2022-07-18T15:03:51Z</time>
      </trkpt>
      <trkpt lat="44.42393" lon="7.1028">
        <ele>1621.8</ele>
        <time>2022-07-18T15:03:52Z</time>
      </trkpt>
      <trkpt lat="44.42391" lon="7.1028">
        <ele>1622.2</ele>
        <time>2022-07-18T15:03:53Z</time>
      </trkpt>
      <trkpt lat="44.4239" lon="7.10281">
        <ele>1622.2</ele>
        <time>2022-07-18T15:03:54Z</time>
      </trkpt>
      <trkpt lat="44.42388" lon="7.10281">
        <ele>1622.6</ele>
        <time>2022-07-18T15:03:55Z</time>
      </trkpt>
      <trkpt lat="44.42387" lon="7.10282">
        <ele>1622.6</ele>
        <time>2022-07-18T15:03:56Z</time>
      </trkpt>
      <trkpt lat="44.42385" lon="7.10282">
        <ele>1622.8</ele>
        <time>2022-07-18T15:03:57Z</time>
      </trkpt>
      <trkpt lat="44.42384" lon="7.10283">
        <ele>1623.2</ele>
        <time>2022-07-18T15:03:58Z</time>
      </trkpt>
      <trkpt lat="44.42383" lon="7.10284">
        <ele>1623.2</ele>
        <time>2022-07-18T15:03:59Z</time>
      </trkpt>
      <trkpt lat="44.42382" lon="7.10285">
        <ele>1623.4</ele>
        <time>2022-07-18T15:04:00Z</time>
      </trkpt>
      <trkpt lat="44.42381" lon="7.10287">
        <ele>1623.4</ele>
        <time>2022-07-18T15:04:01Z</time>
      </trkpt>
      <trkpt lat="44.42379" lon="7.10288">
        <ele>1623.6</ele>
        <time>2022-07-18T15:04:02Z</time>
      </trkpt>
      <trkpt lat="44.42378" lon="7.1029">
        <ele>1623.6</ele>
        <time>2022-07-18T15:04:03Z</time>
      </trkpt>
      <trkpt lat="44.42376" lon="7.10291">
        <ele>1624</ele>
        <time>2022-07-18T15:04:04Z</time>
      </trkpt>
      <trkpt lat="44.42374" lon="7.10292">
        <ele>1624</ele>
        <time>2022-07-18T15:04:05Z</time>
      </trkpt>
      <trkpt lat="44.42372" lon="7.10293">
        <ele>1624.4</ele>
        <time>2022-07-18T15:04:06Z</time>
      </trkpt>
      <trkpt lat="44.42371" lon="7.10294">
        <ele>1624.4</ele>
        <time>2022-07-18T15:04:07Z</time>
      </trkpt>
      <trkpt lat="44.4237" lon="7.10294">
        <ele>1624.4</ele>
        <time>2022-07-18T15:04:08Z</time>
      </trkpt>
      <trkpt lat="44.42369" lon="7.10295">
        <ele>1624.4</ele>
        <time>2022-07-18T15:04:09Z</time>
      </trkpt>
      <trkpt lat="44.42368" lon="7.10295">
        <ele>1624.4</ele>
        <time>2022-07-18T15:04:10Z</time>
      </trkpt>
      <trkpt lat="44.42367" lon="7.10295">
        <ele>1625.2</ele>
        <time>2022-07-18T15:04:17Z</time>
      </trkpt>
      <trkpt lat="44.42365" lon="7.10296">
        <ele>1625.4</ele>
        <time>2022-07-18T15:04:18Z</time>
      </trkpt>
      <trkpt lat="44.42364" lon="7.10296">
        <ele>1625.4</ele>
        <time>2022-07-18T15:04:19Z</time>
      </trkpt>
      <trkpt lat="44.42363" lon="7.10297">
        <ele>1625.4</ele>
        <time>2022-07-18T15:04:20Z</time>
      </trkpt>
      <trkpt lat="44.42362" lon="7.10297">
        <ele>1625.8</ele>
        <time>2022-07-18T15:04:21Z</time>
      </trkpt>
      <trkpt lat="44.42361" lon="7.10297">
        <ele>1625.8</ele>
        <time>2022-07-18T15:04:22Z</time>
      </trkpt>
      <trkpt lat="44.4236" lon="7.10298">
        <ele>1625.8</ele>
        <time>2022-07-18T15:04:23Z</time>
      </trkpt>
      <trkpt lat="44.42359" lon="7.10298">
        <ele>1626</ele>
        <time>2022-07-18T15:04:24Z</time>
      </trkpt>
      <trkpt lat="44.42358" lon="7.10299">
        <ele>1626</ele>
        <time>2022-07-18T15:04:25Z</time>
      </trkpt>
      <trkpt lat="44.42356" lon="7.10299">
        <ele>1626.4</ele>
        <time>2022-07-18T15:04:26Z</time>
      </trkpt>
      <trkpt lat="44.42355" lon="7.10299">
        <ele>1626.4</ele>
        <time>2022-07-18T15:04:27Z</time>
      </trkpt>
      <trkpt lat="44.42354" lon="7.103">
        <ele>1626.6</ele>
        <time>2022-07-18T15:04:28Z</time>
      </trkpt>
      <trkpt lat="44.42353" lon="7.103">
        <ele>1626.6</ele>
        <time>2022-07-18T15:04:29Z</time>
      </trkpt>
      <trkpt lat="44.42352" lon="7.10301">
        <ele>1626.8</ele>
        <time>2022-07-18T15:04:30Z</time>
      </trkpt>
      <trkpt lat="44.42351" lon="7.10301">
        <ele>1626.8</ele>
        <time>2022-07-18T15:04:31Z</time>
      </trkpt>
      <trkpt lat="44.4235" lon="7.10301">
        <ele>1627.2</ele>
        <time>2022-07-18T15:04:32Z</time>
      </trkpt>
      <trkpt lat="44.42348" lon="7.10302">
        <ele>1627.2</ele>
        <time>2022-07-18T15:04:33Z</time>
      </trkpt>
      <trkpt lat="44.42347" lon="7.10302">
        <ele>1627.4</ele>
        <time>2022-07-18T15:04:34Z</time>
      </trkpt>
      <trkpt lat="44.42346" lon="7.10303">
        <ele>1627.8</ele>
        <time>2022-07-18T15:04:35Z</time>
      </trkpt>
      <trkpt lat="44.42345" lon="7.10303">
        <ele>1628</ele>
        <time>2022-07-18T15:04:36Z</time>
      </trkpt>
      <trkpt lat="44.42344" lon="7.10303">
        <ele>1628</ele>
        <time>2022-07-18T15:04:37Z</time>
      </trkpt>
      <trkpt lat="44.42343" lon="7.10304">
        <ele>1628.2</ele>
        <time>2022-07-18T15:04:38Z</time>
      </trkpt>
      <trkpt lat="44.42342" lon="7.10304">
        <ele>1629.4</ele>
        <time>2022-07-18T15:04:46Z</time>
      </trkpt>
      <trkpt lat="44.42341" lon="7.10305">
        <ele>1629.6</ele>
        <time>2022-07-18T15:04:47Z</time>
      </trkpt>
      <trkpt lat="44.42339" lon="7.10305">
        <ele>1629.8</ele>
        <time>2022-07-18T15:04:48Z</time>
      </trkpt>
      <trkpt lat="44.42338" lon="7.10305">
        <ele>1629.8</ele>
        <time>2022-07-18T15:04:49Z</time>
      </trkpt>
      <trkpt lat="44.42337" lon="7.10306">
        <ele>1630.2</ele>
        <time>2022-07-18T15:04:50Z</time>
      </trkpt>
      <trkpt lat="44.42336" lon="7.10306">
        <ele>1630.2</ele>
        <time>2022-07-18T15:04:51Z</time>
      </trkpt>
      <trkpt lat="44.42335" lon="7.10307">
        <ele>1630.6</ele>
        <time>2022-07-18T15:04:52Z</time>
      </trkpt>
      <trkpt lat="44.42334" lon="7.10307">
        <ele>1630.6</ele>
        <time>2022-07-18T15:04:53Z</time>
      </trkpt>
      <trkpt lat="44.42333" lon="7.10307">
        <ele>1630.8</ele>
        <time>2022-07-18T15:04:54Z</time>
      </trkpt>
      <trkpt lat="44.42331" lon="7.10308">
        <ele>1630.8</ele>
        <time>2022-07-18T15:04:55Z</time>
      </trkpt>
      <trkpt lat="44.4233" lon="7.10308">
        <ele>1631.4</ele>
        <time>2022-07-18T15:04:58Z</time>
      </trkpt>
      <trkpt lat="44.42329" lon="7.10309">
        <ele>1631.4</ele>
        <time>2022-07-18T15:04:59Z</time>
      </trkpt>
      <trkpt lat="44.42328" lon="7.10309">
        <ele>1631.8</ele>
        <time>2022-07-18T15:05:00Z</time>
      </trkpt>
      <trkpt lat="44.42327" lon="7.10309">
        <ele>1631.8</ele>
        <time>2022-07-18T15:05:01Z</time>
      </trkpt>
      <trkpt lat="44.42326" lon="7.10309">
        <ele>1632.2</ele>
        <time>2022-07-18T15:05:02Z</time>
      </trkpt>
      <trkpt lat="44.42326" lon="7.10309">
        <ele>1632.2</ele>
        <time>2022-07-18T15:05:03Z</time>
      </trkpt>
      <trkpt lat="44.42317" lon="7.10307">
        <ele>1634.2</ele>
        <time>2022-07-18T15:05:15Z</time>
      </trkpt>
      <trkpt lat="44.42316" lon="7.10306">
        <ele>1634.6</ele>
        <time>2022-07-18T15:05:16Z</time>
      </trkpt>
      <trkpt lat="44.42315" lon="7.10306">
        <ele>1634.6</ele>
        <time>2022-07-18T15:05:17Z</time>
      </trkpt>
      <trkpt lat="44.42314" lon="7.10306">
        <ele>1634.8</ele>
        <time>2022-07-18T15:05:18Z</time>
      </trkpt>
      <trkpt lat="44.42305" lon="7.10306">
        <ele>1636.4</ele>
        <time>2022-07-18T15:05:30Z</time>
      </trkpt>
      <trkpt lat="44.42304" lon="7.10306">
        <ele>1636.8</ele>
        <time>2022-07-18T15:05:31Z</time>
      </trkpt>
      <trkpt lat="44.42303" lon="7.10307">
        <ele>1636.8</ele>
        <time>2022-07-18T15:05:32Z</time>
      </trkpt>
      <trkpt lat="44.42302" lon="7.10307">
        <ele>1637.2</ele>
        <time>2022-07-18T15:05:33Z</time>
      </trkpt>
      <trkpt lat="44.42294" lon="7.1031">
        <ele>1639</ele>
        <time>2022-07-18T15:05:44Z</time>
      </trkpt>
      <trkpt lat="44.42293" lon="7.10311">
        <ele>1639</ele>
        <time>2022-07-18T15:05:45Z</time>
      </trkpt>
      <trkpt lat="44.42293" lon="7.10312">
        <ele>1639</ele>
        <time>2022-07-18T15:05:46Z</time>
      </trkpt>
      <trkpt lat="44.42293" lon="7.10314">
        <ele>1639.2</ele>
        <time>2022-07-18T15:05:47Z</time>
      </trkpt>
      <trkpt lat="44.42292" lon="7.10315">
        <ele>1639.2</ele>
        <time>2022-07-18T15:05:48Z</time>
      </trkpt>
      <trkpt lat="44.42292" lon="7.10317">
        <ele>1639.6</ele>
        <time>2022-07-18T15:05:49Z</time>
      </trkpt>
      <trkpt lat="44.42293" lon="7.10318">
        <ele>1639.6</ele>
        <time>2022-07-18T15:05:50Z</time>
      </trkpt>
      <trkpt lat="44.42293" lon="7.10319">
        <ele>1639.8</ele>
        <time>2022-07-18T15:05:51Z</time>
      </trkpt>
      <trkpt lat="44.42293" lon="7.1032">
        <ele>1639.8</ele>
        <time>2022-07-18T15:05:52Z</time>
      </trkpt>
      <trkpt lat="44.42294" lon="7.10321">
        <ele>1640</ele>
        <time>2022-07-18T15:05:53Z</time>
      </trkpt>
      <trkpt lat="44.42295" lon="7.10321">
        <ele>1640</ele>
        <time>2022-07-18T15:05:54Z</time>
      </trkpt>
      <trkpt lat="44.42295" lon="7.10322">
        <ele>1640</ele>
        <time>2022-07-18T15:05:55Z</time>
      </trkpt>
      <trkpt lat="44.42295" lon="7.10322">
        <ele>1640.4</ele>
        <time>2022-07-18T15:05:59Z</time>
      </trkpt>
      <trkpt lat="44.42295" lon="7.10322">
        <ele>1641</ele>
        <time>2022-07-18T15:06:03Z</time>
      </trkpt>
      <trkpt lat="44.42295" lon="7.10322">
        <ele>1641.2</ele>
        <time>2022-07-18T15:06:07Z</time>
      </trkpt>
      <trkpt lat="44.42304" lon="7.10326">
        <ele>1642</ele>
        <time>2022-07-18T15:06:12Z</time>
      </trkpt>
      <trkpt lat="44.42305" lon="7.10326">
        <ele>1642</ele>
        <time>2022-07-18T15:06:13Z</time>
      </trkpt>
      <trkpt lat="44.42306" lon="7.10327">
        <ele>1642.2</ele>
        <time>2022-07-18T15:06:14Z</time>
      </trkpt>
      <trkpt lat="44.42306" lon="7.10327">
        <ele>1642.2</ele>
        <time>2022-07-18T15:06:15Z</time>
      </trkpt>
      <trkpt lat="44.42308" lon="7.10329">
        <ele>1642.6</ele>
        <time>2022-07-18T15:06:17Z</time>
      </trkpt>
      <trkpt lat="44.42309" lon="7.1033">
        <ele>1643</ele>
        <time>2022-07-18T15:06:18Z</time>
      </trkpt>
      <trkpt lat="44.42309" lon="7.1033">
        <ele>1643</ele>
        <time>2022-07-18T15:06:19Z</time>
      </trkpt>
      <trkpt lat="44.4231" lon="7.10331">
        <ele>1643.2</ele>
        <time>2022-07-18T15:06:20Z</time>
      </trkpt>
      <trkpt lat="44.42311" lon="7.10332">
        <ele>1643.2</ele>
        <time>2022-07-18T15:06:21Z</time>
      </trkpt>
      <trkpt lat="44.42312" lon="7.10332">
        <ele>1643.6</ele>
        <time>2022-07-18T15:06:22Z</time>
      </trkpt>
      <trkpt lat="44.42312" lon="7.10333">
        <ele>1643.6</ele>
        <time>2022-07-18T15:06:23Z</time>
      </trkpt>
      <trkpt lat="44.42313" lon="7.10333">
        <ele>1643.8</ele>
        <time>2022-07-18T15:06:24Z</time>
      </trkpt>
      <trkpt lat="44.42314" lon="7.10334">
        <ele>1644</ele>
        <time>2022-07-18T15:06:25Z</time>
      </trkpt>
      <trkpt lat="44.42317" lon="7.10336">
        <ele>1644.6</ele>
        <time>2022-07-18T15:06:29Z</time>
      </trkpt>
      <trkpt lat="44.42318" lon="7.10336">
        <ele>1644.6</ele>
        <time>2022-07-18T15:06:30Z</time>
      </trkpt>
      <trkpt lat="44.42319" lon="7.10337">
        <ele>1645</ele>
        <time>2022-07-18T15:06:31Z</time>
      </trkpt>
      <trkpt lat="44.4232" lon="7.10338">
        <ele>1645</ele>
        <time>2022-07-18T15:06:32Z</time>
      </trkpt>
      <trkpt lat="44.42321" lon="7.10338">
        <ele>1645.2</ele>
        <time>2022-07-18T15:06:33Z</time>
      </trkpt>
      <trkpt lat="44.42321" lon="7.10339">
        <ele>1645.2</ele>
        <time>2022-07-18T15:06:34Z</time>
      </trkpt>
      <trkpt lat="44.42322" lon="7.1034">
        <ele>1645.6</ele>
        <time>2022-07-18T15:06:35Z</time>
      </trkpt>
      <trkpt lat="44.42323" lon="7.1034">
        <ele>1645.6</ele>
        <time>2022-07-18T15:06:36Z</time>
      </trkpt>
      <trkpt lat="44.42325" lon="7.10342">
        <ele>1646</ele>
        <time>2022-07-18T15:06:38Z</time>
      </trkpt>
      <trkpt lat="44.42326" lon="7.10343">
        <ele>1646.2</ele>
        <time>2022-07-18T15:06:39Z</time>
      </trkpt>
      <trkpt lat="44.42326" lon="7.10344">
        <ele>1646.2</ele>
        <time>2022-07-18T15:06:40Z</time>
      </trkpt>
      <trkpt lat="44.42327" lon="7.10344">
        <ele>1646.6</ele>
        <time>2022-07-18T15:06:41Z</time>
      </trkpt>
      <trkpt lat="44.42327" lon="7.10344">
        <ele>1646.6</ele>
        <time>2022-07-18T15:06:42Z</time>
      </trkpt>
      <trkpt lat="44.42328" lon="7.10345">
        <ele>1646.8</ele>
        <time>2022-07-18T15:06:43Z</time>
      </trkpt>
      <trkpt lat="44.42328" lon="7.10345">
        <ele>1646.8</ele>
        <time>2022-07-18T15:06:44Z</time>
      </trkpt>
      <trkpt lat="44.42329" lon="7.10346">
        <ele>1647</ele>
        <time>2022-07-18T15:06:45Z</time>
      </trkpt>
      <trkpt lat="44.4233" lon="7.10346">
        <ele>1647</ele>
        <time>2022-07-18T15:06:46Z</time>
      </trkpt>
      <trkpt lat="44.4233" lon="7.10347">
        <ele>1647.4</ele>
        <time>2022-07-18T15:06:47Z</time>
      </trkpt>
      <trkpt lat="44.42331" lon="7.10347">
        <ele>1647.4</ele>
        <time>2022-07-18T15:06:48Z</time>
      </trkpt>
      <trkpt lat="44.42331" lon="7.10348">
        <ele>1647.4</ele>
        <time>2022-07-18T15:06:49Z</time>
      </trkpt>
      <trkpt lat="44.42332" lon="7.10348">
        <ele>1647.6</ele>
        <time>2022-07-18T15:06:50Z</time>
      </trkpt>
      <trkpt lat="44.42332" lon="7.10348">
        <ele>1647.6</ele>
        <time>2022-07-18T15:06:51Z</time>
      </trkpt>
      <trkpt lat="44.42333" lon="7.10349">
        <ele>1647.6</ele>
        <time>2022-07-18T15:06:52Z</time>
      </trkpt>
      <trkpt lat="44.42333" lon="7.10349">
        <ele>1647.8</ele>
        <time>2022-07-18T15:06:54Z</time>
      </trkpt>
      <trkpt lat="44.42334" lon="7.1035">
        <ele>1647.8</ele>
        <time>2022-07-18T15:06:55Z</time>
      </trkpt>
      <trkpt lat="44.42334" lon="7.1035">
        <ele>1647.8</ele>
        <time>2022-07-18T15:06:56Z</time>
      </trkpt>
      <trkpt lat="44.42335" lon="7.10351">
        <ele>1647.8</ele>
        <time>2022-07-18T15:06:57Z</time>
      </trkpt>
      <trkpt lat="44.42335" lon="7.10351">
        <ele>1648</ele>
        <time>2022-07-18T15:06:59Z</time>
      </trkpt>
      <trkpt lat="44.42336" lon="7.10351">
        <ele>1648</ele>
        <time>2022-07-18T15:07:00Z</time>
      </trkpt>
      <trkpt lat="44.42336" lon="7.10352">
        <ele>1648</ele>
        <time>2022-07-18T15:07:01Z</time>
      </trkpt>
      <trkpt lat="44.42337" lon="7.10352">
        <ele>1648</ele>
        <time>2022-07-18T15:07:02Z</time>
      </trkpt>
      <trkpt lat="44.42337" lon="7.10353">
        <ele>1648</ele>
        <time>2022-07-18T15:07:03Z</time>
      </trkpt>
      <trkpt lat="44.42338" lon="7.10353">
        <ele>1648.2</ele>
        <time>2022-07-18T15:07:04Z</time>
      </trkpt>
      <trkpt lat="44.42338" lon="7.10354">
        <ele>1648.2</ele>
        <time>2022-07-18T15:07:05Z</time>
      </trkpt>
      <trkpt lat="44.42339" lon="7.10354">
        <ele>1648.2</ele>
        <time>2022-07-18T15:07:07Z</time>
      </trkpt>
      <trkpt lat="44.42339" lon="7.10355">
        <ele>1648.2</ele>
        <time>2022-07-18T15:07:08Z</time>
      </trkpt>
      <trkpt lat="44.4234" lon="7.10355">
        <ele>1648.2</ele>
        <time>2022-07-18T15:07:09Z</time>
      </trkpt>
      <trkpt lat="44.4234" lon="7.10355">
        <ele>1648.2</ele>
        <time>2022-07-18T15:07:10Z</time>
      </trkpt>
      <trkpt lat="44.42341" lon="7.10356">
        <ele>1648.2</ele>
        <time>2022-07-18T15:07:11Z</time>
      </trkpt>
      <trkpt lat="44.42342" lon="7.10356">
        <ele>1648.2</ele>
        <time>2022-07-18T15:07:12Z</time>
      </trkpt>
      <trkpt lat="44.42343" lon="7.10357">
        <ele>1648.2</ele>
        <time>2022-07-18T15:07:13Z</time>
      </trkpt>
      <trkpt lat="44.42344" lon="7.10359">
        <ele>1648.6</ele>
        <time>2022-07-18T15:07:14Z</time>
      </trkpt>
      <trkpt lat="44.42345" lon="7.1036">
        <ele>1648.6</ele>
        <time>2022-07-18T15:07:15Z</time>
      </trkpt>
      <trkpt lat="44.42346" lon="7.10361">
        <ele>1648.6</ele>
        <time>2022-07-18T15:07:16Z</time>
      </trkpt>
      <trkpt lat="44.42347" lon="7.10362">
        <ele>1648.6</ele>
        <time>2022-07-18T15:07:17Z</time>
      </trkpt>
      <trkpt lat="44.42348" lon="7.10364">
        <ele>1648.8</ele>
        <time>2022-07-18T15:07:18Z</time>
      </trkpt>
      <trkpt lat="44.42349" lon="7.10365">
        <ele>1648.8</ele>
        <time>2022-07-18T15:07:19Z</time>
      </trkpt>
      <trkpt lat="44.4235" lon="7.10366">
        <ele>1648.8</ele>
        <time>2022-07-18T15:07:20Z</time>
      </trkpt>
      <trkpt lat="44.42352" lon="7.10367">
        <ele>1648.8</ele>
        <time>2022-07-18T15:07:21Z</time>
      </trkpt>
      <trkpt lat="44.42353" lon="7.10368">
        <ele>1649.2</ele>
        <time>2022-07-18T15:07:22Z</time>
      </trkpt>
      <trkpt lat="44.42355" lon="7.10368">
        <ele>1649.2</ele>
        <time>2022-07-18T15:07:23Z</time>
      </trkpt>
      <trkpt lat="44.42357" lon="7.10369">
        <ele>1649.2</ele>
        <time>2022-07-18T15:07:24Z</time>
      </trkpt>
      <trkpt lat="44.42359" lon="7.1037">
        <ele>1649.4</ele>
        <time>2022-07-18T15:07:25Z</time>
      </trkpt>
      <trkpt lat="44.42361" lon="7.1037">
        <ele>1649.4</ele>
        <time>2022-07-18T15:07:26Z</time>
      </trkpt>
      <trkpt lat="44.42362" lon="7.1037">
        <ele>1649.4</ele>
        <time>2022-07-18T15:07:27Z</time>
      </trkpt>
      <trkpt lat="44.42364" lon="7.10371">
        <ele>1649.8</ele>
        <time>2022-07-18T15:07:28Z</time>
      </trkpt>
      <trkpt lat="44.42366" lon="7.10371">
        <ele>1649.8</ele>
        <time>2022-07-18T15:07:29Z</time>
      </trkpt>
      <trkpt lat="44.42369" lon="7.10372">
        <ele>1650</ele>
        <time>2022-07-18T15:07:30Z</time>
      </trkpt>
      <trkpt lat="44.42371" lon="7.10372">
        <ele>1650</ele>
        <time>2022-07-18T15:07:31Z</time>
      </trkpt>
      <trkpt lat="44.42374" lon="7.10372">
        <ele>1650</ele>
        <time>2022-07-18T15:07:32Z</time>
      </trkpt>
      <trkpt lat="44.42376" lon="7.10372">
        <ele>1650.4</ele>
        <time>2022-07-18T15:07:33Z</time>
      </trkpt>
      <trkpt lat="44.42378" lon="7.10372">
        <ele>1650.4</ele>
        <time>2022-07-18T15:07:34Z</time>
      </trkpt>
      <trkpt lat="44.4238" lon="7.10372">
        <ele>1650.4</ele>
        <time>2022-07-18T15:07:35Z</time>
      </trkpt>
      <trkpt lat="44.42383" lon="7.10373">
        <ele>1650.4</ele>
        <time>2022-07-18T15:07:36Z</time>
      </trkpt>
      <trkpt lat="44.42385" lon="7.10373">
        <ele>1650.4</ele>
        <time>2022-07-18T15:07:37Z</time>
      </trkpt>
      <trkpt lat="44.42388" lon="7.10374">
        <ele>1650.6</ele>
        <time>2022-07-18T15:07:38Z</time>
      </trkpt>
      <trkpt lat="44.4239" lon="7.10374">
        <ele>1650.6</ele>
        <time>2022-07-18T15:07:39Z</time>
      </trkpt>
      <trkpt lat="44.42392" lon="7.10374">
        <ele>1650.8</ele>
        <time>2022-07-18T15:07:40Z</time>
      </trkpt>
      <trkpt lat="44.42394" lon="7.10375">
        <ele>1650.8</ele>
        <time>2022-07-18T15:07:41Z</time>
      </trkpt>
      <trkpt lat="44.42395" lon="7.10376">
        <ele>1651.2</ele>
        <time>2022-07-18T15:07:42Z</time>
      </trkpt>
      <trkpt lat="44.42396" lon="7.10377">
        <ele>1651.4</ele>
        <time>2022-07-18T15:07:43Z</time>
      </trkpt>
      <trkpt lat="44.42396" lon="7.10378">
        <ele>1651.6</ele>
        <time>2022-07-18T15:07:44Z</time>
      </trkpt>
      <trkpt lat="44.42396" lon="7.10381">
        <ele>1651.8</ele>
        <time>2022-07-18T15:07:45Z</time>
      </trkpt>
      <trkpt lat="44.42396" lon="7.10384">
        <ele>1652</ele>
        <time>2022-07-18T15:07:46Z</time>
      </trkpt>
      <trkpt lat="44.42396" lon="7.10386">
        <ele>1652</ele>
        <time>2022-07-18T15:07:47Z</time>
      </trkpt>
      <trkpt lat="44.42396" lon="7.10387">
        <ele>1652.4</ele>
        <time>2022-07-18T15:07:48Z</time>
      </trkpt>
      <trkpt lat="44.42395" lon="7.10389">
        <ele>1652.4</ele>
        <time>2022-07-18T15:07:49Z</time>
      </trkpt>
      <trkpt lat="44.42394" lon="7.1039">
        <ele>1652.8</ele>
        <time>2022-07-18T15:07:50Z</time>
      </trkpt>
      <trkpt lat="44.42393" lon="7.10391">
        <ele>1652.8</ele>
        <time>2022-07-18T15:07:51Z</time>
      </trkpt>
      <trkpt lat="44.42391" lon="7.10392">
        <ele>1653</ele>
        <time>2022-07-18T15:07:52Z</time>
      </trkpt>
      <trkpt lat="44.4239" lon="7.10393">
        <ele>1653</ele>
        <time>2022-07-18T15:07:53Z</time>
      </trkpt>
      <trkpt lat="44.42388" lon="7.10394">
        <ele>1653.4</ele>
        <time>2022-07-18T15:07:54Z</time>
      </trkpt>
      <trkpt lat="44.42387" lon="7.10395">
        <ele>1653.6</ele>
        <time>2022-07-18T15:07:55Z</time>
      </trkpt>
      <trkpt lat="44.42385" lon="7.10395">
        <ele>1653.6</ele>
        <time>2022-07-18T15:07:56Z</time>
      </trkpt>
      <trkpt lat="44.42383" lon="7.10395">
        <ele>1654</ele>
        <time>2022-07-18T15:07:57Z</time>
      </trkpt>
      <trkpt lat="44.42381" lon="7.10395">
        <ele>1654</ele>
        <time>2022-07-18T15:07:58Z</time>
      </trkpt>
      <trkpt lat="44.4238" lon="7.10395">
        <ele>1654.4</ele>
        <time>2022-07-18T15:07:59Z</time>
      </trkpt>
      <trkpt lat="44.42378" lon="7.10395">
        <ele>1654.4</ele>
        <time>2022-07-18T15:08:00Z</time>
      </trkpt>
      <trkpt lat="44.42376" lon="7.10395">
        <ele>1654.8</ele>
        <time>2022-07-18T15:08:01Z</time>
      </trkpt>
      <trkpt lat="44.42374" lon="7.10394">
        <ele>1654.8</ele>
        <time>2022-07-18T15:08:02Z</time>
      </trkpt>
      <trkpt lat="44.42373" lon="7.10394">
        <ele>1655</ele>
        <time>2022-07-18T15:08:03Z</time>
      </trkpt>
      <trkpt lat="44.42371" lon="7.10394">
        <ele>1655.2</ele>
        <time>2022-07-18T15:08:04Z</time>
      </trkpt>
      <trkpt lat="44.4237" lon="7.10393">
        <ele>1655.2</ele>
        <time>2022-07-18T15:08:05Z</time>
      </trkpt>
      <trkpt lat="44.42369" lon="7.10393">
        <ele>1655.2</ele>
        <time>2022-07-18T15:08:06Z</time>
      </trkpt>
      <trkpt lat="44.42367" lon="7.10393">
        <ele>1655.6</ele>
        <time>2022-07-18T15:08:07Z</time>
      </trkpt>
      <trkpt lat="44.42366" lon="7.10392">
        <ele>1655.6</ele>
        <time>2022-07-18T15:08:08Z</time>
      </trkpt>
      <trkpt lat="44.42364" lon="7.10392">
        <ele>1655.8</ele>
        <time>2022-07-18T15:08:09Z</time>
      </trkpt>
      <trkpt lat="44.42362" lon="7.10392">
        <ele>1655.8</ele>
        <time>2022-07-18T15:08:10Z</time>
      </trkpt>
      <trkpt lat="44.42361" lon="7.10392">
        <ele>1656</ele>
        <time>2022-07-18T15:08:11Z</time>
      </trkpt>
      <trkpt lat="44.42359" lon="7.10392">
        <ele>1656</ele>
        <time>2022-07-18T15:08:12Z</time>
      </trkpt>
      <trkpt lat="44.42357" lon="7.10392">
        <ele>1656.4</ele>
        <time>2022-07-18T15:08:13Z</time>
      </trkpt>
      <trkpt lat="44.42356" lon="7.10393">
        <ele>1656.6</ele>
        <time>2022-07-18T15:08:14Z</time>
      </trkpt>
      <trkpt lat="44.42354" lon="7.10393">
        <ele>1656.6</ele>
        <time>2022-07-18T15:08:15Z</time>
      </trkpt>
      <trkpt lat="44.42353" lon="7.10393">
        <ele>1656.8</ele>
        <time>2022-07-18T15:08:16Z</time>
      </trkpt>
      <trkpt lat="44.42351" lon="7.10393">
        <ele>1656.8</ele>
        <time>2022-07-18T15:08:17Z</time>
      </trkpt>
      <trkpt lat="44.4235" lon="7.10393">
        <ele>1657</ele>
        <time>2022-07-18T15:08:18Z</time>
      </trkpt>
      <trkpt lat="44.42348" lon="7.10393">
        <ele>1657</ele>
        <time>2022-07-18T15:08:19Z</time>
      </trkpt>
      <trkpt lat="44.42347" lon="7.10393">
        <ele>1657.4</ele>
        <time>2022-07-18T15:08:20Z</time>
      </trkpt>
      <trkpt lat="44.42345" lon="7.10394">
        <ele>1657.4</ele>
        <time>2022-07-18T15:08:21Z</time>
      </trkpt>
      <trkpt lat="44.42343" lon="7.10394">
        <ele>1657.6</ele>
        <time>2022-07-18T15:08:22Z</time>
      </trkpt>
      <trkpt lat="44.42341" lon="7.10394">
        <ele>1657.6</ele>
        <time>2022-07-18T15:08:23Z</time>
      </trkpt>
      <trkpt lat="44.4234" lon="7.10395">
        <ele>1658</ele>
        <time>2022-07-18T15:08:24Z</time>
      </trkpt>
      <trkpt lat="44.42338" lon="7.10396">
        <ele>1658</ele>
        <time>2022-07-18T15:08:25Z</time>
      </trkpt>
      <trkpt lat="44.42337" lon="7.10397">
        <ele>1658.2</ele>
        <time>2022-07-18T15:08:26Z</time>
      </trkpt>
      <trkpt lat="44.42335" lon="7.10397">
        <ele>1658.2</ele>
        <time>2022-07-18T15:08:27Z</time>
      </trkpt>
      <trkpt lat="44.42334" lon="7.10398">
        <ele>1658.4</ele>
        <time>2022-07-18T15:08:28Z</time>
      </trkpt>
      <trkpt lat="44.42332" lon="7.10399">
        <ele>1658.4</ele>
        <time>2022-07-18T15:08:29Z</time>
      </trkpt>
      <trkpt lat="44.4233" lon="7.104">
        <ele>1658.8</ele>
        <time>2022-07-18T15:08:30Z</time>
      </trkpt>
      <trkpt lat="44.42329" lon="7.10401">
        <ele>1658.8</ele>
        <time>2022-07-18T15:08:31Z</time>
      </trkpt>
      <trkpt lat="44.42327" lon="7.10402">
        <ele>1659</ele>
        <time>2022-07-18T15:08:32Z</time>
      </trkpt>
      <trkpt lat="44.42326" lon="7.10403">
        <ele>1659.2</ele>
        <time>2022-07-18T15:08:33Z</time>
      </trkpt>
      <trkpt lat="44.42324" lon="7.10404">
        <ele>1659.2</ele>
        <time>2022-07-18T15:08:34Z</time>
      </trkpt>
      <trkpt lat="44.42322" lon="7.10404">
        <ele>1659.6</ele>
        <time>2022-07-18T15:08:35Z</time>
      </trkpt>
      <trkpt lat="44.42321" lon="7.10405">
        <ele>1659.8</ele>
        <time>2022-07-18T15:08:36Z</time>
      </trkpt>
      <trkpt lat="44.42319" lon="7.10406">
        <ele>1659.8</ele>
        <time>2022-07-18T15:08:37Z</time>
      </trkpt>
      <trkpt lat="44.42318" lon="7.10407">
        <ele>1660.2</ele>
        <time>2022-07-18T15:08:38Z</time>
      </trkpt>
      <trkpt lat="44.42316" lon="7.10408">
        <ele>1660.2</ele>
        <time>2022-07-18T15:08:39Z</time>
      </trkpt>
      <trkpt lat="44.42315" lon="7.10408">
        <ele>1660.2</ele>
        <time>2022-07-18T15:08:40Z</time>
      </trkpt>
      <trkpt lat="44.42313" lon="7.10408">
        <ele>1660.4</ele>
        <time>2022-07-18T15:08:41Z</time>
      </trkpt>
      <trkpt lat="44.42311" lon="7.10409">
        <ele>1660.6</ele>
        <time>2022-07-18T15:08:42Z</time>
      </trkpt>
      <trkpt lat="44.42309" lon="7.10409">
        <ele>1660.6</ele>
        <time>2022-07-18T15:08:43Z</time>
      </trkpt>
      <trkpt lat="44.42307" lon="7.10409">
        <ele>1661</ele>
        <time>2022-07-18T15:08:44Z</time>
      </trkpt>
      <trkpt lat="44.42305" lon="7.10409">
        <ele>1661</ele>
        <time>2022-07-18T15:08:45Z</time>
      </trkpt>
      <trkpt lat="44.42304" lon="7.10408">
        <ele>1661.2</ele>
        <time>2022-07-18T15:08:46Z</time>
      </trkpt>
      <trkpt lat="44.42302" lon="7.10407">
        <ele>1661.2</ele>
        <time>2022-07-18T15:08:47Z</time>
      </trkpt>
      <trkpt lat="44.423" lon="7.10406">
        <ele>1661.4</ele>
        <time>2022-07-18T15:08:48Z</time>
      </trkpt>
      <trkpt lat="44.42299" lon="7.10406">
        <ele>1661.4</ele>
        <time>2022-07-18T15:08:49Z</time>
      </trkpt>
      <trkpt lat="44.42298" lon="7.10405">
        <ele>1661.8</ele>
        <time>2022-07-18T15:08:50Z</time>
      </trkpt>
      <trkpt lat="44.42296" lon="7.10404">
        <ele>1662</ele>
        <time>2022-07-18T15:08:51Z</time>
      </trkpt>
      <trkpt lat="44.42294" lon="7.10403">
        <ele>1662.2</ele>
        <time>2022-07-18T15:08:52Z</time>
      </trkpt>
      <trkpt lat="44.42292" lon="7.10403">
        <ele>1662.2</ele>
        <time>2022-07-18T15:08:53Z</time>
      </trkpt>
      <trkpt lat="44.4229" lon="7.10403">
        <ele>1662.6</ele>
        <time>2022-07-18T15:08:54Z</time>
      </trkpt>
      <trkpt lat="44.42288" lon="7.10403">
        <ele>1662.6</ele>
        <time>2022-07-18T15:08:55Z</time>
      </trkpt>
      <trkpt lat="44.42287" lon="7.10403">
        <ele>1663</ele>
        <time>2022-07-18T15:08:56Z</time>
      </trkpt>
      <trkpt lat="44.42285" lon="7.10403">
        <ele>1663.2</ele>
        <time>2022-07-18T15:08:57Z</time>
      </trkpt>
      <trkpt lat="44.42283" lon="7.10402">
        <ele>1663.2</ele>
        <time>2022-07-18T15:08:58Z</time>
      </trkpt>
      <trkpt lat="44.4228" lon="7.10402">
        <ele>1663.6</ele>
        <time>2022-07-18T15:08:59Z</time>
      </trkpt>
      <trkpt lat="44.42279" lon="7.10402">
        <ele>1663.8</ele>
        <time>2022-07-18T15:09:00Z</time>
      </trkpt>
      <trkpt lat="44.42277" lon="7.10402">
        <ele>1664</ele>
        <time>2022-07-18T15:09:01Z</time>
      </trkpt>
      <trkpt lat="44.42275" lon="7.10403">
        <ele>1664.2</ele>
        <time>2022-07-18T15:09:02Z</time>
      </trkpt>
      <trkpt lat="44.42274" lon="7.10404">
        <ele>1664.4</ele>
        <time>2022-07-18T15:09:03Z</time>
      </trkpt>
      <trkpt lat="44.42273" lon="7.10404">
        <ele>1664.8</ele>
        <time>2022-07-18T15:09:04Z</time>
      </trkpt>
      <trkpt lat="44.42272" lon="7.10404">
        <ele>1665</ele>
        <time>2022-07-18T15:09:05Z</time>
      </trkpt>
      <trkpt lat="44.42271" lon="7.10404">
        <ele>1665.2</ele>
        <time>2022-07-18T15:09:06Z</time>
      </trkpt>
      <trkpt lat="44.42269" lon="7.10404">
        <ele>1665.6</ele>
        <time>2022-07-18T15:09:07Z</time>
      </trkpt>
      <trkpt lat="44.42268" lon="7.10404">
        <ele>1665.8</ele>
        <time>2022-07-18T15:09:08Z</time>
      </trkpt>
      <trkpt lat="44.42267" lon="7.10404">
        <ele>1666</ele>
        <time>2022-07-18T15:09:09Z</time>
      </trkpt>
      <trkpt lat="44.42266" lon="7.10405">
        <ele>1666.2</ele>
        <time>2022-07-18T15:09:10Z</time>
      </trkpt>
      <trkpt lat="44.42265" lon="7.10406">
        <ele>1666.6</ele>
        <time>2022-07-18T15:09:11Z</time>
      </trkpt>
      <trkpt lat="44.42264" lon="7.10406">
        <ele>1666.8</ele>
        <time>2022-07-18T15:09:12Z</time>
      </trkpt>
      <trkpt lat="44.42263" lon="7.10407">
        <ele>1667</ele>
        <time>2022-07-18T15:09:13Z</time>
      </trkpt>
      <trkpt lat="44.42261" lon="7.10408">
        <ele>1667.4</ele>
        <time>2022-07-18T15:09:14Z</time>
      </trkpt>
      <trkpt lat="44.42259" lon="7.10408">
        <ele>1667.6</ele>
        <time>2022-07-18T15:09:15Z</time>
      </trkpt>
      <trkpt lat="44.42257" lon="7.10408">
        <ele>1667.8</ele>
        <time>2022-07-18T15:09:16Z</time>
      </trkpt>
      <trkpt lat="44.42255" lon="7.10408">
        <ele>1668.2</ele>
        <time>2022-07-18T15:09:17Z</time>
      </trkpt>
      <trkpt lat="44.42254" lon="7.10407">
        <ele>1668.4</ele>
        <time>2022-07-18T15:09:18Z</time>
      </trkpt>
      <trkpt lat="44.42252" lon="7.10406">
        <ele>1668.6</ele>
        <time>2022-07-18T15:09:19Z</time>
      </trkpt>
      <trkpt lat="44.4225" lon="7.10406">
        <ele>1668.8</ele>
        <time>2022-07-18T15:09:20Z</time>
      </trkpt>
      <trkpt lat="44.42248" lon="7.10405">
        <ele>1669.2</ele>
        <time>2022-07-18T15:09:21Z</time>
      </trkpt>
      <trkpt lat="44.42246" lon="7.10404">
        <ele>1669.4</ele>
        <time>2022-07-18T15:09:22Z</time>
      </trkpt>
      <trkpt lat="44.42244" lon="7.10403">
        <ele>1669.6</ele>
        <time>2022-07-18T15:09:23Z</time>
      </trkpt>
      <trkpt lat="44.42242" lon="7.10402">
        <ele>1670</ele>
        <time>2022-07-18T15:09:24Z</time>
      </trkpt>
      <trkpt lat="44.42241" lon="7.10402">
        <ele>1670.2</ele>
        <time>2022-07-18T15:09:25Z</time>
      </trkpt>
      <trkpt lat="44.4224" lon="7.10401">
        <ele>1670.6</ele>
        <time>2022-07-18T15:09:26Z</time>
      </trkpt>
      <trkpt lat="44.42238" lon="7.104">
        <ele>1671</ele>
        <time>2022-07-18T15:09:27Z</time>
      </trkpt>
      <trkpt lat="44.42237" lon="7.104">
        <ele>1671.2</ele>
        <time>2022-07-18T15:09:28Z</time>
      </trkpt>
      <trkpt lat="44.42235" lon="7.104">
        <ele>1671.6</ele>
        <time>2022-07-18T15:09:29Z</time>
      </trkpt>
      <trkpt lat="44.42233" lon="7.10399">
        <ele>1671.8</ele>
        <time>2022-07-18T15:09:30Z</time>
      </trkpt>
      <trkpt lat="44.42232" lon="7.10399">
        <ele>1672.2</ele>
        <time>2022-07-18T15:09:31Z</time>
      </trkpt>
      <trkpt lat="44.4223" lon="7.10399">
        <ele>1672.2</ele>
        <time>2022-07-18T15:09:32Z</time>
      </trkpt>
      <trkpt lat="44.42229" lon="7.10399">
        <ele>1672.6</ele>
        <time>2022-07-18T15:09:33Z</time>
      </trkpt>
      <trkpt lat="44.42226" lon="7.10399">
        <ele>1672.6</ele>
        <time>2022-07-18T15:09:34Z</time>
      </trkpt>
      <trkpt lat="44.42224" lon="7.10399">
        <ele>1673</ele>
        <time>2022-07-18T15:09:35Z</time>
      </trkpt>
      <trkpt lat="44.42222" lon="7.10399">
        <ele>1673</ele>
        <time>2022-07-18T15:09:36Z</time>
      </trkpt>
      <trkpt lat="44.4222" lon="7.10399">
        <ele>1673.2</ele>
        <time>2022-07-18T15:09:37Z</time>
      </trkpt>
      <trkpt lat="44.42219" lon="7.10399">
        <ele>1673.2</ele>
        <time>2022-07-18T15:09:38Z</time>
      </trkpt>
      <trkpt lat="44.42217" lon="7.10398">
        <ele>1673.6</ele>
        <time>2022-07-18T15:09:39Z</time>
      </trkpt>
      <trkpt lat="44.42215" lon="7.10398">
        <ele>1673.6</ele>
        <time>2022-07-18T15:09:40Z</time>
      </trkpt>
      <trkpt lat="44.42213" lon="7.10398">
        <ele>1673.6</ele>
        <time>2022-07-18T15:09:41Z</time>
      </trkpt>
      <trkpt lat="44.4221" lon="7.10398">
        <ele>1673.8</ele>
        <time>2022-07-18T15:09:42Z</time>
      </trkpt>
      <trkpt lat="44.42207" lon="7.10397">
        <ele>1673.8</ele>
        <time>2022-07-18T15:09:43Z</time>
      </trkpt>
      <trkpt lat="44.42204" lon="7.10398">
        <ele>1673.8</ele>
        <time>2022-07-18T15:09:44Z</time>
      </trkpt>
      <trkpt lat="44.42201" lon="7.10398">
        <ele>1673.8</ele>
        <time>2022-07-18T15:09:45Z</time>
      </trkpt>
      <trkpt lat="44.42197" lon="7.10396">
        <ele>1673.8</ele>
        <time>2022-07-18T15:09:46Z</time>
      </trkpt>
      <trkpt lat="44.42194" lon="7.10394">
        <ele>1673.8</ele>
        <time>2022-07-18T15:09:47Z</time>
      </trkpt>
      <trkpt lat="44.42191" lon="7.10392">
        <ele>1673.8</ele>
        <time>2022-07-18T15:09:48Z</time>
      </trkpt>
      <trkpt lat="44.42189" lon="7.1039">
        <ele>1674.2</ele>
        <time>2022-07-18T15:09:49Z</time>
      </trkpt>
      <trkpt lat="44.42187" lon="7.10387">
        <ele>1674.2</ele>
        <time>2022-07-18T15:09:50Z</time>
      </trkpt>
      <trkpt lat="44.42185" lon="7.10384">
        <ele>1674.4</ele>
        <time>2022-07-18T15:09:51Z</time>
      </trkpt>
      <trkpt lat="44.42184" lon="7.10382">
        <ele>1674.6</ele>
        <time>2022-07-18T15:09:52Z</time>
      </trkpt>
      <trkpt lat="44.42182" lon="7.1038">
        <ele>1674.6</ele>
        <time>2022-07-18T15:09:53Z</time>
      </trkpt>
      <trkpt lat="44.42181" lon="7.10377">
        <ele>1675</ele>
        <time>2022-07-18T15:09:54Z</time>
      </trkpt>
      <trkpt lat="44.42179" lon="7.10375">
        <ele>1675</ele>
        <time>2022-07-18T15:09:55Z</time>
      </trkpt>
      <trkpt lat="44.42177" lon="7.10372">
        <ele>1675.4</ele>
        <time>2022-07-18T15:09:56Z</time>
      </trkpt>
      <trkpt lat="44.42176" lon="7.1037">
        <ele>1675.4</ele>
        <time>2022-07-18T15:09:57Z</time>
      </trkpt>
      <trkpt lat="44.42174" lon="7.10367">
        <ele>1675.6</ele>
        <time>2022-07-18T15:09:58Z</time>
      </trkpt>
      <trkpt lat="44.42173" lon="7.10364">
        <ele>1675.6</ele>
        <time>2022-07-18T15:09:59Z</time>
      </trkpt>
      <trkpt lat="44.42171" lon="7.10361">
        <ele>1675.8</ele>
        <time>2022-07-18T15:10:00Z</time>
      </trkpt>
      <trkpt lat="44.4217" lon="7.10359">
        <ele>1675.8</ele>
        <time>2022-07-18T15:10:01Z</time>
      </trkpt>
      <trkpt lat="44.42168" lon="7.10356">
        <ele>1676.2</ele>
        <time>2022-07-18T15:10:02Z</time>
      </trkpt>
      <trkpt lat="44.42167" lon="7.10353">
        <ele>1676.2</ele>
        <time>2022-07-18T15:10:03Z</time>
      </trkpt>
      <trkpt lat="44.42165" lon="7.1035">
        <ele>1676.6</ele>
        <time>2022-07-18T15:10:04Z</time>
      </trkpt>
      <trkpt lat="44.42164" lon="7.10348">
        <ele>1676.6</ele>
        <time>2022-07-18T15:10:05Z</time>
      </trkpt>
      <trkpt lat="44.42163" lon="7.10346">
        <ele>1677.2</ele>
        <time>2022-07-18T15:10:06Z</time>
      </trkpt>
      <trkpt lat="44.42162" lon="7.10344">
        <ele>1677.2</ele>
        <time>2022-07-18T15:10:07Z</time>
      </trkpt>
      <trkpt lat="44.42161" lon="7.10342">
        <ele>1677.4</ele>
        <time>2022-07-18T15:10:08Z</time>
      </trkpt>
      <trkpt lat="44.4216" lon="7.1034">
        <ele>1677.6</ele>
        <time>2022-07-18T15:10:09Z</time>
      </trkpt>
      <trkpt lat="44.42159" lon="7.10339">
        <ele>1677.8</ele>
        <time>2022-07-18T15:10:10Z</time>
      </trkpt>
      <trkpt lat="44.42159" lon="7.10338">
        <ele>1678</ele>
        <time>2022-07-18T15:10:11Z</time>
      </trkpt>
      <trkpt lat="44.42158" lon="7.10336">
        <ele>1678.4</ele>
        <time>2022-07-18T15:10:12Z</time>
      </trkpt>
      <trkpt lat="44.42156" lon="7.10334">
        <ele>1678.6</ele>
        <time>2022-07-18T15:10:13Z</time>
      </trkpt>
      <trkpt lat="44.42155" lon="7.10331">
        <ele>1678.6</ele>
        <time>2022-07-18T15:10:14Z</time>
      </trkpt>
      <trkpt lat="44.42154" lon="7.10329">
        <ele>1679</ele>
        <time>2022-07-18T15:10:15Z</time>
      </trkpt>
      <trkpt lat="44.42152" lon="7.10327">
        <ele>1679</ele>
        <time>2022-07-18T15:10:16Z</time>
      </trkpt>
      <trkpt lat="44.4215" lon="7.10325">
        <ele>1679.4</ele>
        <time>2022-07-18T15:10:17Z</time>
      </trkpt>
      <trkpt lat="44.42148" lon="7.10323">
        <ele>1679.4</ele>
        <time>2022-07-18T15:10:18Z</time>
      </trkpt>
      <trkpt lat="44.42146" lon="7.10322">
        <ele>1679.6</ele>
        <time>2022-07-18T15:10:19Z</time>
      </trkpt>
      <trkpt lat="44.42145" lon="7.10321">
        <ele>1679.6</ele>
        <time>2022-07-18T15:10:20Z</time>
      </trkpt>
      <trkpt lat="44.42143" lon="7.10319">
        <ele>1680</ele>
        <time>2022-07-18T15:10:21Z</time>
      </trkpt>
      <trkpt lat="44.42141" lon="7.10317">
        <ele>1680</ele>
        <time>2022-07-18T15:10:22Z</time>
      </trkpt>
      <trkpt lat="44.42139" lon="7.10316">
        <ele>1680.4</ele>
        <time>2022-07-18T15:10:23Z</time>
      </trkpt>
      <trkpt lat="44.42137" lon="7.10314">
        <ele>1680.4</ele>
        <time>2022-07-18T15:10:24Z</time>
      </trkpt>
      <trkpt lat="44.42136" lon="7.10313">
        <ele>1680.8</ele>
        <time>2022-07-18T15:10:25Z</time>
      </trkpt>
      <trkpt lat="44.42134" lon="7.10311">
        <ele>1680.8</ele>
        <time>2022-07-18T15:10:26Z</time>
      </trkpt>
      <trkpt lat="44.42133" lon="7.1031">
        <ele>1681</ele>
        <time>2022-07-18T15:10:27Z</time>
      </trkpt>
      <trkpt lat="44.42132" lon="7.10307">
        <ele>1681</ele>
        <time>2022-07-18T15:10:28Z</time>
      </trkpt>
      <trkpt lat="44.42131" lon="7.10305">
        <ele>1681.4</ele>
        <time>2022-07-18T15:10:29Z</time>
      </trkpt>
      <trkpt lat="44.42129" lon="7.10303">
        <ele>1681.6</ele>
        <time>2022-07-18T15:10:30Z</time>
      </trkpt>
      <trkpt lat="44.42128" lon="7.10301">
        <ele>1681.8</ele>
        <time>2022-07-18T15:10:31Z</time>
      </trkpt>
      <trkpt lat="44.42126" lon="7.10299">
        <ele>1681.8</ele>
        <time>2022-07-18T15:10:32Z</time>
      </trkpt>
      <trkpt lat="44.42125" lon="7.10298">
        <ele>1682.2</ele>
        <time>2022-07-18T15:10:33Z</time>
      </trkpt>
      <trkpt lat="44.42124" lon="7.10296">
        <ele>1682.2</ele>
        <time>2022-07-18T15:10:34Z</time>
      </trkpt>
      <trkpt lat="44.42123" lon="7.10294">
        <ele>1682.6</ele>
        <time>2022-07-18T15:10:35Z</time>
      </trkpt>
      <trkpt lat="44.42122" lon="7.10291">
        <ele>1682.6</ele>
        <time>2022-07-18T15:10:36Z</time>
      </trkpt>
      <trkpt lat="44.42121" lon="7.10289">
        <ele>1683</ele>
        <time>2022-07-18T15:10:37Z</time>
      </trkpt>
      <trkpt lat="44.4212" lon="7.10287">
        <ele>1683</ele>
        <time>2022-07-18T15:10:38Z</time>
      </trkpt>
      <trkpt lat="44.4212" lon="7.10284">
        <ele>1683.2</ele>
        <time>2022-07-18T15:10:39Z</time>
      </trkpt>
      <trkpt lat="44.4212" lon="7.10282">
        <ele>1683.2</ele>
        <time>2022-07-18T15:10:40Z</time>
      </trkpt>
      <trkpt lat="44.42119" lon="7.10279">
        <ele>1683.6</ele>
        <time>2022-07-18T15:10:41Z</time>
      </trkpt>
      <trkpt lat="44.42119" lon="7.10276">
        <ele>1683.6</ele>
        <time>2022-07-18T15:10:42Z</time>
      </trkpt>
      <trkpt lat="44.42119" lon="7.10273">
        <ele>1683.8</ele>
        <time>2022-07-18T15:10:43Z</time>
      </trkpt>
      <trkpt lat="44.42119" lon="7.1027">
        <ele>1683.8</ele>
        <time>2022-07-18T15:10:44Z</time>
      </trkpt>
      <trkpt lat="44.42118" lon="7.10267">
        <ele>1684.2</ele>
        <time>2022-07-18T15:10:45Z</time>
      </trkpt>
      <trkpt lat="44.42118" lon="7.10265">
        <ele>1684.2</ele>
        <time>2022-07-18T15:10:46Z</time>
      </trkpt>
      <trkpt lat="44.42118" lon="7.10262">
        <ele>1684.6</ele>
        <time>2022-07-18T15:10:47Z</time>
      </trkpt>
      <trkpt lat="44.42117" lon="7.1026">
        <ele>1684.6</ele>
        <time>2022-07-18T15:10:48Z</time>
      </trkpt>
      <trkpt lat="44.42117" lon="7.10258">
        <ele>1685</ele>
        <time>2022-07-18T15:10:49Z</time>
      </trkpt>
      <trkpt lat="44.42116" lon="7.10255">
        <ele>1685</ele>
        <time>2022-07-18T15:10:50Z</time>
      </trkpt>
      <trkpt lat="44.42114" lon="7.10254">
        <ele>1685.4</ele>
        <time>2022-07-18T15:10:51Z</time>
      </trkpt>
      <trkpt lat="44.42113" lon="7.10252">
        <ele>1685.4</ele>
        <time>2022-07-18T15:10:52Z</time>
      </trkpt>
      <trkpt lat="44.42112" lon="7.10251">
        <ele>1685.6</ele>
        <time>2022-07-18T15:10:53Z</time>
      </trkpt>
      <trkpt lat="44.4211" lon="7.10249">
        <ele>1685.6</ele>
        <time>2022-07-18T15:10:54Z</time>
      </trkpt>
      <trkpt lat="44.42108" lon="7.10248">
        <ele>1686</ele>
        <time>2022-07-18T15:10:55Z</time>
      </trkpt>
      <trkpt lat="44.42107" lon="7.10246">
        <ele>1686</ele>
        <time>2022-07-18T15:10:56Z</time>
      </trkpt>
      <trkpt lat="44.42105" lon="7.10245">
        <ele>1686.2</ele>
        <time>2022-07-18T15:10:57Z</time>
      </trkpt>
      <trkpt lat="44.42103" lon="7.10243">
        <ele>1686.2</ele>
        <time>2022-07-18T15:10:58Z</time>
      </trkpt>
      <trkpt lat="44.42102" lon="7.10242">
        <ele>1686.2</ele>
        <time>2022-07-18T15:10:59Z</time>
      </trkpt>
      <trkpt lat="44.421" lon="7.10242">
        <ele>1686.6</ele>
        <time>2022-07-18T15:11:00Z</time>
      </trkpt>
      <trkpt lat="44.42097" lon="7.10242">
        <ele>1686.6</ele>
        <time>2022-07-18T15:11:01Z</time>
      </trkpt>
      <trkpt lat="44.42095" lon="7.10242">
        <ele>1686.8</ele>
        <time>2022-07-18T15:11:02Z</time>
      </trkpt>
      <trkpt lat="44.42094" lon="7.10243">
        <ele>1686.8</ele>
        <time>2022-07-18T15:11:03Z</time>
      </trkpt>
      <trkpt lat="44.42092" lon="7.10244">
        <ele>1687.2</ele>
        <time>2022-07-18T15:11:04Z</time>
      </trkpt>
      <trkpt lat="44.4209" lon="7.10245">
        <ele>1687.2</ele>
        <time>2022-07-18T15:11:05Z</time>
      </trkpt>
      <trkpt lat="44.42089" lon="7.10247">
        <ele>1687.4</ele>
        <time>2022-07-18T15:11:06Z</time>
      </trkpt>
      <trkpt lat="44.42088" lon="7.10248">
        <ele>1687.6</ele>
        <time>2022-07-18T15:11:07Z</time>
      </trkpt>
      <trkpt lat="44.42086" lon="7.1025">
        <ele>1687.8</ele>
        <time>2022-07-18T15:11:08Z</time>
      </trkpt>
      <trkpt lat="44.42085" lon="7.10252">
        <ele>1688.2</ele>
        <time>2022-07-18T15:11:09Z</time>
      </trkpt>
      <trkpt lat="44.42083" lon="7.10253">
        <ele>1688.4</ele>
        <time>2022-07-18T15:11:10Z</time>
      </trkpt>
      <trkpt lat="44.42082" lon="7.10255">
        <ele>1688.6</ele>
        <time>2022-07-18T15:11:11Z</time>
      </trkpt>
      <trkpt lat="44.42081" lon="7.10256">
        <ele>1688.6</ele>
        <time>2022-07-18T15:11:12Z</time>
      </trkpt>
      <trkpt lat="44.42079" lon="7.10258">
        <ele>1689</ele>
        <time>2022-07-18T15:11:13Z</time>
      </trkpt>
      <trkpt lat="44.42078" lon="7.1026">
        <ele>1689.2</ele>
        <time>2022-07-18T15:11:14Z</time>
      </trkpt>
      <trkpt lat="44.42076" lon="7.10262">
        <ele>1689.4</ele>
        <time>2022-07-18T15:11:15Z</time>
      </trkpt>
      <trkpt lat="44.42075" lon="7.10264">
        <ele>1689.8</ele>
        <time>2022-07-18T15:11:16Z</time>
      </trkpt>
      <trkpt lat="44.42074" lon="7.10266">
        <ele>1690</ele>
        <time>2022-07-18T15:11:17Z</time>
      </trkpt>
      <trkpt lat="44.42072" lon="7.10268">
        <ele>1690.2</ele>
        <time>2022-07-18T15:11:18Z</time>
      </trkpt>
      <trkpt lat="44.42071" lon="7.1027">
        <ele>1690.2</ele>
        <time>2022-07-18T15:11:19Z</time>
      </trkpt>
      <trkpt lat="44.42069" lon="7.10271">
        <ele>1690.4</ele>
        <time>2022-07-18T15:11:20Z</time>
      </trkpt>
      <trkpt lat="44.42068" lon="7.10273">
        <ele>1690.4</ele>
        <time>2022-07-18T15:11:21Z</time>
      </trkpt>
      <trkpt lat="44.42066" lon="7.10275">
        <ele>1690.8</ele>
        <time>2022-07-18T15:11:22Z</time>
      </trkpt>
      <trkpt lat="44.42065" lon="7.10276">
        <ele>1691</ele>
        <time>2022-07-18T15:11:23Z</time>
      </trkpt>
      <trkpt lat="44.42063" lon="7.10277">
        <ele>1691.2</ele>
        <time>2022-07-18T15:11:24Z</time>
      </trkpt>
      <trkpt lat="44.42062" lon="7.10279">
        <ele>1691.2</ele>
        <time>2022-07-18T15:11:25Z</time>
      </trkpt>
      <trkpt lat="44.42061" lon="7.1028">
        <ele>1691.6</ele>
        <time>2022-07-18T15:11:26Z</time>
      </trkpt>
      <trkpt lat="44.42059" lon="7.10282">
        <ele>1691.6</ele>
        <time>2022-07-18T15:11:27Z</time>
      </trkpt>
      <trkpt lat="44.42057" lon="7.10283">
        <ele>1692</ele>
        <time>2022-07-18T15:11:28Z</time>
      </trkpt>
      <trkpt lat="44.42056" lon="7.10284">
        <ele>1692.2</ele>
        <time>2022-07-18T15:11:29Z</time>
      </trkpt>
      <trkpt lat="44.42054" lon="7.10284">
        <ele>1692.2</ele>
        <time>2022-07-18T15:11:30Z</time>
      </trkpt>
      <trkpt lat="44.42052" lon="7.10284">
        <ele>1692.6</ele>
        <time>2022-07-18T15:11:31Z</time>
      </trkpt>
      <trkpt lat="44.4205" lon="7.10284">
        <ele>1692.6</ele>
        <time>2022-07-18T15:11:32Z</time>
      </trkpt>
      <trkpt lat="44.42048" lon="7.10285">
        <ele>1693</ele>
        <time>2022-07-18T15:11:33Z</time>
      </trkpt>
      <trkpt lat="44.42046" lon="7.10285">
        <ele>1693.2</ele>
        <time>2022-07-18T15:11:34Z</time>
      </trkpt>
      <trkpt lat="44.42044" lon="7.10285">
        <ele>1693.2</ele>
        <time>2022-07-18T15:11:35Z</time>
      </trkpt>
      <trkpt lat="44.42042" lon="7.10284">
        <ele>1693.4</ele>
        <time>2022-07-18T15:11:36Z</time>
      </trkpt>
      <trkpt lat="44.4204" lon="7.10284">
        <ele>1693.6</ele>
        <time>2022-07-18T15:11:37Z</time>
      </trkpt>
      <trkpt lat="44.42038" lon="7.10282">
        <ele>1693.6</ele>
        <time>2022-07-18T15:11:38Z</time>
      </trkpt>
      <trkpt lat="44.42036" lon="7.10281">
        <ele>1694</ele>
        <time>2022-07-18T15:11:39Z</time>
      </trkpt>
      <trkpt lat="44.42035" lon="7.10279">
        <ele>1694</ele>
        <time>2022-07-18T15:11:40Z</time>
      </trkpt>
      <trkpt lat="44.42033" lon="7.10278">
        <ele>1694.2</ele>
        <time>2022-07-18T15:11:41Z</time>
      </trkpt>
      <trkpt lat="44.4203" lon="7.10276">
        <ele>1694.2</ele>
        <time>2022-07-18T15:11:42Z</time>
      </trkpt>
      <trkpt lat="44.42028" lon="7.10275">
        <ele>1694.2</ele>
        <time>2022-07-18T15:11:43Z</time>
      </trkpt>
      <trkpt lat="44.42025" lon="7.10273">
        <ele>1694.4</ele>
        <time>2022-07-18T15:11:44Z</time>
      </trkpt>
      <trkpt lat="44.42022" lon="7.10272">
        <ele>1694.4</ele>
        <time>2022-07-18T15:11:45Z</time>
      </trkpt>
      <trkpt lat="44.4202" lon="7.10272">
        <ele>1694.4</ele>
        <time>2022-07-18T15:11:46Z</time>
      </trkpt>
      <trkpt lat="44.42017" lon="7.10271">
        <ele>1694.8</ele>
        <time>2022-07-18T15:11:47Z</time>
      </trkpt>
      <trkpt lat="44.42015" lon="7.1027">
        <ele>1694.8</ele>
        <time>2022-07-18T15:11:48Z</time>
      </trkpt>
      <trkpt lat="44.42013" lon="7.10269">
        <ele>1695.2</ele>
        <time>2022-07-18T15:11:49Z</time>
      </trkpt>
      <trkpt lat="44.42011" lon="7.10269">
        <ele>1695.2</ele>
        <time>2022-07-18T15:11:50Z</time>
      </trkpt>
      <trkpt lat="44.42009" lon="7.10268">
        <ele>1695.4</ele>
        <time>2022-07-18T15:11:51Z</time>
      </trkpt>
      <trkpt lat="44.42007" lon="7.10267">
        <ele>1695.4</ele>
        <time>2022-07-18T15:11:52Z</time>
      </trkpt>
      <trkpt lat="44.42005" lon="7.10267">
        <ele>1695.6</ele>
        <time>2022-07-18T15:11:53Z</time>
      </trkpt>
      <trkpt lat="44.42003" lon="7.10267">
        <ele>1695.6</ele>
        <time>2022-07-18T15:11:54Z</time>
      </trkpt>
      <trkpt lat="44.42001" lon="7.10267">
        <ele>1696</ele>
        <time>2022-07-18T15:11:55Z</time>
      </trkpt>
      <trkpt lat="44.41999" lon="7.10267">
        <ele>1696</ele>
        <time>2022-07-18T15:11:56Z</time>
      </trkpt>
      <trkpt lat="44.41997" lon="7.10267">
        <ele>1696.4</ele>
        <time>2022-07-18T15:11:57Z</time>
      </trkpt>
      <trkpt lat="44.41995" lon="7.10267">
        <ele>1696.6</ele>
        <time>2022-07-18T15:11:58Z</time>
      </trkpt>
      <trkpt lat="44.41993" lon="7.10266">
        <ele>1696.8</ele>
        <time>2022-07-18T15:11:59Z</time>
      </trkpt>
      <trkpt lat="44.41991" lon="7.10266">
        <ele>1697</ele>
        <time>2022-07-18T15:12:00Z</time>
      </trkpt>
      <trkpt lat="44.41988" lon="7.10266">
        <ele>1697.2</ele>
        <time>2022-07-18T15:12:01Z</time>
      </trkpt>
      <trkpt lat="44.41986" lon="7.10265">
        <ele>1697.4</ele>
        <time>2022-07-18T15:12:02Z</time>
      </trkpt>
      <trkpt lat="44.41984" lon="7.10265">
        <ele>1697.4</ele>
        <time>2022-07-18T15:12:03Z</time>
      </trkpt>
      <trkpt lat="44.41982" lon="7.10266">
        <ele>1697.6</ele>
        <time>2022-07-18T15:12:04Z</time>
      </trkpt>
      <trkpt lat="44.41981" lon="7.10266">
        <ele>1698</ele>
        <time>2022-07-18T15:12:06Z</time>
      </trkpt>
      <trkpt lat="44.41979" lon="7.10266">
        <ele>1698.2</ele>
        <time>2022-07-18T15:12:07Z</time>
      </trkpt>
      <trkpt lat="44.41977" lon="7.10266">
        <ele>1698.2</ele>
        <time>2022-07-18T15:12:08Z</time>
      </trkpt>
      <trkpt lat="44.41974" lon="7.10268">
        <ele>1698.6</ele>
        <time>2022-07-18T15:12:09Z</time>
      </trkpt>
      <trkpt lat="44.41974" lon="7.10269">
        <ele>1698.8</ele>
        <time>2022-07-18T15:12:10Z</time>
      </trkpt>
      <trkpt lat="44.41973" lon="7.10271">
        <ele>1699.2</ele>
        <time>2022-07-18T15:12:11Z</time>
      </trkpt>
      <trkpt lat="44.41972" lon="7.10273">
        <ele>1699.4</ele>
        <time>2022-07-18T15:12:12Z</time>
      </trkpt>
      <trkpt lat="44.41971" lon="7.10275">
        <ele>1699.4</ele>
        <time>2022-07-18T15:12:13Z</time>
      </trkpt>
      <trkpt lat="44.41971" lon="7.10277">
        <ele>1699.6</ele>
        <time>2022-07-18T15:12:14Z</time>
      </trkpt>
      <trkpt lat="44.41971" lon="7.10278">
        <ele>1699.8</ele>
        <time>2022-07-18T15:12:15Z</time>
      </trkpt>
      <trkpt lat="44.41972" lon="7.1028">
        <ele>1699.8</ele>
        <time>2022-07-18T15:12:16Z</time>
      </trkpt>
      <trkpt lat="44.41972" lon="7.10282">
        <ele>1700.2</ele>
        <time>2022-07-18T15:12:17Z</time>
      </trkpt>
      <trkpt lat="44.41974" lon="7.10283">
        <ele>1700.2</ele>
        <time>2022-07-18T15:12:18Z</time>
      </trkpt>
      <trkpt lat="44.41976" lon="7.10284">
        <ele>1700.4</ele>
        <time>2022-07-18T15:12:19Z</time>
      </trkpt>
      <trkpt lat="44.41977" lon="7.10285">
        <ele>1700.4</ele>
        <time>2022-07-18T15:12:20Z</time>
      </trkpt>
      <trkpt lat="44.41979" lon="7.10285">
        <ele>1700.6</ele>
        <time>2022-07-18T15:12:21Z</time>
      </trkpt>
      <trkpt lat="44.41981" lon="7.10285">
        <ele>1700.6</ele>
        <time>2022-07-18T15:12:22Z</time>
      </trkpt>
      <trkpt lat="44.41982" lon="7.10285">
        <ele>1701</ele>
        <time>2022-07-18T15:12:23Z</time>
      </trkpt>
      <trkpt lat="44.41984" lon="7.10285">
        <ele>1701.2</ele>
        <time>2022-07-18T15:12:24Z</time>
      </trkpt>
      <trkpt lat="44.41985" lon="7.10285">
        <ele>1701.2</ele>
        <time>2022-07-18T15:12:25Z</time>
      </trkpt>
      <trkpt lat="44.41987" lon="7.10285">
        <ele>1701.4</ele>
        <time>2022-07-18T15:12:26Z</time>
      </trkpt>
      <trkpt lat="44.41988" lon="7.10285">
        <ele>1701.4</ele>
        <time>2022-07-18T15:12:27Z</time>
      </trkpt>
      <trkpt lat="44.4199" lon="7.10284">
        <ele>1701.6</ele>
        <time>2022-07-18T15:12:28Z</time>
      </trkpt>
      <trkpt lat="44.41992" lon="7.10284">
        <ele>1701.6</ele>
        <time>2022-07-18T15:12:29Z</time>
      </trkpt>
      <trkpt lat="44.41994" lon="7.10284">
        <ele>1702</ele>
        <time>2022-07-18T15:12:30Z</time>
      </trkpt>
      <trkpt lat="44.41996" lon="7.10284">
        <ele>1702</ele>
        <time>2022-07-18T15:12:31Z</time>
      </trkpt>
      <trkpt lat="44.41998" lon="7.10285">
        <ele>1702.2</ele>
        <time>2022-07-18T15:12:32Z</time>
      </trkpt>
      <trkpt lat="44.42" lon="7.10285">
        <ele>1702.2</ele>
        <time>2022-07-18T15:12:33Z</time>
      </trkpt>
      <trkpt lat="44.42002" lon="7.10286">
        <ele>1702.4</ele>
        <time>2022-07-18T15:12:34Z</time>
      </trkpt>
      <trkpt lat="44.42004" lon="7.10287">
        <ele>1702.4</ele>
        <time>2022-07-18T15:12:35Z</time>
      </trkpt>
      <trkpt lat="44.42005" lon="7.10287">
        <ele>1702.6</ele>
        <time>2022-07-18T15:12:36Z</time>
      </trkpt>
      <trkpt lat="44.42007" lon="7.10288">
        <ele>1702.6</ele>
        <time>2022-07-18T15:12:37Z</time>
      </trkpt>
      <trkpt lat="44.42009" lon="7.1029">
        <ele>1703</ele>
        <time>2022-07-18T15:12:38Z</time>
      </trkpt>
      <trkpt lat="44.4201" lon="7.10291">
        <ele>1703</ele>
        <time>2022-07-18T15:12:39Z</time>
      </trkpt>
      <trkpt lat="44.42012" lon="7.10292">
        <ele>1703.4</ele>
        <time>2022-07-18T15:12:40Z</time>
      </trkpt>
      <trkpt lat="44.42013" lon="7.10293">
        <ele>1703.4</ele>
        <time>2022-07-18T15:12:41Z</time>
      </trkpt>
      <trkpt lat="44.42014" lon="7.10295">
        <ele>1703.8</ele>
        <time>2022-07-18T15:12:42Z</time>
      </trkpt>
      <trkpt lat="44.42016" lon="7.10297">
        <ele>1703.8</ele>
        <time>2022-07-18T15:12:43Z</time>
      </trkpt>
      <trkpt lat="44.42017" lon="7.10299">
        <ele>1704.2</ele>
        <time>2022-07-18T15:12:44Z</time>
      </trkpt>
      <trkpt lat="44.42019" lon="7.10301">
        <ele>1704.2</ele>
        <time>2022-07-18T15:12:45Z</time>
      </trkpt>
      <trkpt lat="44.42021" lon="7.10302">
        <ele>1704.6</ele>
        <time>2022-07-18T15:12:46Z</time>
      </trkpt>
      <trkpt lat="44.42022" lon="7.10303">
        <ele>1704.6</ele>
        <time>2022-07-18T15:12:47Z</time>
      </trkpt>
      <trkpt lat="44.42024" lon="7.10305">
        <ele>1705</ele>
        <time>2022-07-18T15:12:48Z</time>
      </trkpt>
      <trkpt lat="44.42025" lon="7.10307">
        <ele>1705.2</ele>
        <time>2022-07-18T15:12:49Z</time>
      </trkpt>
      <trkpt lat="44.42027" lon="7.10308">
        <ele>1705.6</ele>
        <time>2022-07-18T15:12:50Z</time>
      </trkpt>
      <trkpt lat="44.42028" lon="7.1031">
        <ele>1706</ele>
        <time>2022-07-18T15:12:51Z</time>
      </trkpt>
      <trkpt lat="44.42029" lon="7.10312">
        <ele>1706.4</ele>
        <time>2022-07-18T15:12:52Z</time>
      </trkpt>
      <trkpt lat="44.42031" lon="7.10313">
        <ele>1706.6</ele>
        <time>2022-07-18T15:12:53Z</time>
      </trkpt>
      <trkpt lat="44.42033" lon="7.10313">
        <ele>1707</ele>
        <time>2022-07-18T15:12:54Z</time>
      </trkpt>
      <trkpt lat="44.42035" lon="7.10313">
        <ele>1707.2</ele>
        <time>2022-07-18T15:12:55Z</time>
      </trkpt>
      <trkpt lat="44.42036" lon="7.10313">
        <ele>1707.4</ele>
        <time>2022-07-18T15:12:56Z</time>
      </trkpt>
      <trkpt lat="44.42038" lon="7.10312">
        <ele>1707.8</ele>
        <time>2022-07-18T15:12:57Z</time>
      </trkpt>
      <trkpt lat="44.4204" lon="7.10312">
        <ele>1707.8</ele>
        <time>2022-07-18T15:12:58Z</time>
      </trkpt>
      <trkpt lat="44.42041" lon="7.10312">
        <ele>1708</ele>
        <time>2022-07-18T15:12:59Z</time>
      </trkpt>
      <trkpt lat="44.42043" lon="7.10312">
        <ele>1708.4</ele>
        <time>2022-07-18T15:13:00Z</time>
      </trkpt>
      <trkpt lat="44.42044" lon="7.10313">
        <ele>1708.6</ele>
        <time>2022-07-18T15:13:01Z</time>
      </trkpt>
      <trkpt lat="44.42046" lon="7.10313">
        <ele>1708.8</ele>
        <time>2022-07-18T15:13:02Z</time>
      </trkpt>
      <trkpt lat="44.42048" lon="7.10313">
        <ele>1708.8</ele>
        <time>2022-07-18T15:13:03Z</time>
      </trkpt>
      <trkpt lat="44.42049" lon="7.10314">
        <ele>1709.2</ele>
        <time>2022-07-18T15:13:04Z</time>
      </trkpt>
      <trkpt lat="44.42051" lon="7.10314">
        <ele>1709.2</ele>
        <time>2022-07-18T15:13:05Z</time>
      </trkpt>
      <trkpt lat="44.42053" lon="7.10314">
        <ele>1709.4</ele>
        <time>2022-07-18T15:13:06Z</time>
      </trkpt>
      <trkpt lat="44.42055" lon="7.10315">
        <ele>1709.4</ele>
        <time>2022-07-18T15:13:07Z</time>
      </trkpt>
      <trkpt lat="44.42057" lon="7.10316">
        <ele>1709.8</ele>
        <time>2022-07-18T15:13:08Z</time>
      </trkpt>
      <trkpt lat="44.42058" lon="7.10317">
        <ele>1709.8</ele>
        <time>2022-07-18T15:13:09Z</time>
      </trkpt>
      <trkpt lat="44.4206" lon="7.10319">
        <ele>1710</ele>
        <time>2022-07-18T15:13:10Z</time>
      </trkpt>
      <trkpt lat="44.42061" lon="7.10321">
        <ele>1710</ele>
        <time>2022-07-18T15:13:11Z</time>
      </trkpt>
      <trkpt lat="44.42061" lon="7.10323">
        <ele>1710.4</ele>
        <time>2022-07-18T15:13:12Z</time>
      </trkpt>
      <trkpt lat="44.4206" lon="7.10326">
        <ele>1710.4</ele>
        <time>2022-07-18T15:13:13Z</time>
      </trkpt>
      <trkpt lat="44.42059" lon="7.10329">
        <ele>1710.8</ele>
        <time>2022-07-18T15:13:14Z</time>
      </trkpt>
      <trkpt lat="44.42058" lon="7.10331">
        <ele>1711</ele>
        <time>2022-07-18T15:13:15Z</time>
      </trkpt>
      <trkpt lat="44.42057" lon="7.10331">
        <ele>1711.2</ele>
        <time>2022-07-18T15:13:16Z</time>
      </trkpt>
      <trkpt lat="44.42056" lon="7.10332">
        <ele>1711.2</ele>
        <time>2022-07-18T15:13:17Z</time>
      </trkpt>
      <trkpt lat="44.42054" lon="7.10332">
        <ele>1711.6</ele>
        <time>2022-07-18T15:13:18Z</time>
      </trkpt>
      <trkpt lat="44.42053" lon="7.10332">
        <ele>1711.8</ele>
        <time>2022-07-18T15:13:19Z</time>
      </trkpt>
      <trkpt lat="44.42052" lon="7.10331">
        <ele>1712.2</ele>
        <time>2022-07-18T15:13:20Z</time>
      </trkpt>
      <trkpt lat="44.42051" lon="7.10331">
        <ele>1712.4</ele>
        <time>2022-07-18T15:13:21Z</time>
      </trkpt>
      <trkpt lat="44.4205" lon="7.10331">
        <ele>1712.6</ele>
        <time>2022-07-18T15:13:22Z</time>
      </trkpt>
      <trkpt lat="44.42049" lon="7.10331">
        <ele>1712.6</ele>
        <time>2022-07-18T15:13:23Z</time>
      </trkpt>
      <trkpt lat="44.42048" lon="7.10331">
        <ele>1713</ele>
        <time>2022-07-18T15:13:24Z</time>
      </trkpt>
      <trkpt lat="44.42046" lon="7.10331">
        <ele>1713.2</ele>
        <time>2022-07-18T15:13:25Z</time>
      </trkpt>
      <trkpt lat="44.42045" lon="7.10331">
        <ele>1713.2</ele>
        <time>2022-07-18T15:13:26Z</time>
      </trkpt>
      <trkpt lat="44.42043" lon="7.10331">
        <ele>1713.6</ele>
        <time>2022-07-18T15:13:27Z</time>
      </trkpt>
      <trkpt lat="44.42042" lon="7.10332">
        <ele>1713.8</ele>
        <time>2022-07-18T15:13:28Z</time>
      </trkpt>
      <trkpt lat="44.4204" lon="7.10332">
        <ele>1713.8</ele>
        <time>2022-07-18T15:13:29Z</time>
      </trkpt>
      <trkpt lat="44.42039" lon="7.10333">
        <ele>1714.2</ele>
        <time>2022-07-18T15:13:30Z</time>
      </trkpt>
      <trkpt lat="44.42037" lon="7.10333">
        <ele>1714.2</ele>
        <time>2022-07-18T15:13:31Z</time>
      </trkpt>
      <trkpt lat="44.42035" lon="7.10333">
        <ele>1714.6</ele>
        <time>2022-07-18T15:13:32Z</time>
      </trkpt>
      <trkpt lat="44.42034" lon="7.10333">
        <ele>1714.8</ele>
        <time>2022-07-18T15:13:33Z</time>
      </trkpt>
      <trkpt lat="44.42032" lon="7.10333">
        <ele>1714.8</ele>
        <time>2022-07-18T15:13:34Z</time>
      </trkpt>
      <trkpt lat="44.4203" lon="7.10333">
        <ele>1715.2</ele>
        <time>2022-07-18T15:13:35Z</time>
      </trkpt>
      <trkpt lat="44.42029" lon="7.10333">
        <ele>1715.2</ele>
        <time>2022-07-18T15:13:36Z</time>
      </trkpt>
      <trkpt lat="44.42027" lon="7.10333">
        <ele>1715.4</ele>
        <time>2022-07-18T15:13:37Z</time>
      </trkpt>
      <trkpt lat="44.42025" lon="7.10332">
        <ele>1715.4</ele>
        <time>2022-07-18T15:13:38Z</time>
      </trkpt>
      <trkpt lat="44.42023" lon="7.10332">
        <ele>1715.4</ele>
        <time>2022-07-18T15:13:39Z</time>
      </trkpt>
      <trkpt lat="44.42021" lon="7.10332">
        <ele>1715.6</ele>
        <time>2022-07-18T15:13:40Z</time>
      </trkpt>
      <trkpt lat="44.42019" lon="7.10331">
        <ele>1715.6</ele>
        <time>2022-07-18T15:13:41Z</time>
      </trkpt>
      <trkpt lat="44.42017" lon="7.10331">
        <ele>1715.6</ele>
        <time>2022-07-18T15:13:42Z</time>
      </trkpt>
      <trkpt lat="44.42015" lon="7.1033">
        <ele>1715.6</ele>
        <time>2022-07-18T15:13:43Z</time>
      </trkpt>
      <trkpt lat="44.42012" lon="7.10329">
        <ele>1715.6</ele>
        <time>2022-07-18T15:13:44Z</time>
      </trkpt>
      <trkpt lat="44.4201" lon="7.10328">
        <ele>1715.6</ele>
        <time>2022-07-18T15:13:45Z</time>
      </trkpt>
      <trkpt lat="44.42008" lon="7.10327">
        <ele>1715.8</ele>
        <time>2022-07-18T15:13:46Z</time>
      </trkpt>
      <trkpt lat="44.42006" lon="7.10327">
        <ele>1715.8</ele>
        <time>2022-07-18T15:13:47Z</time>
      </trkpt>
      <trkpt lat="44.42004" lon="7.10328">
        <ele>1716.2</ele>
        <time>2022-07-18T15:13:48Z</time>
      </trkpt>
      <trkpt lat="44.42002" lon="7.10328">
        <ele>1716.2</ele>
        <time>2022-07-18T15:13:49Z</time>
      </trkpt>
      <trkpt lat="44.42" lon="7.10329">
        <ele>1716.6</ele>
        <time>2022-07-18T15:13:50Z</time>
      </trkpt>
      <trkpt lat="44.41998" lon="7.10329">
        <ele>1716.8</ele>
        <time>2022-07-18T15:13:51Z</time>
      </trkpt>
      <trkpt lat="44.41997" lon="7.10329">
        <ele>1717</ele>
        <time>2022-07-18T15:13:52Z</time>
      </trkpt>
      <trkpt lat="44.41995" lon="7.1033">
        <ele>1717.2</ele>
        <time>2022-07-18T15:13:53Z</time>
      </trkpt>
      <trkpt lat="44.41993" lon="7.1033">
        <ele>1717.6</ele>
        <time>2022-07-18T15:13:54Z</time>
      </trkpt>
      <trkpt lat="44.41991" lon="7.10331">
        <ele>1717.8</ele>
        <time>2022-07-18T15:13:55Z</time>
      </trkpt>
      <trkpt lat="44.41989" lon="7.10331">
        <ele>1718</ele>
        <time>2022-07-18T15:13:56Z</time>
      </trkpt>
      <trkpt lat="44.41987" lon="7.10332">
        <ele>1718.4</ele>
        <time>2022-07-18T15:13:57Z</time>
      </trkpt>
      <trkpt lat="44.41985" lon="7.10332">
        <ele>1718.6</ele>
        <time>2022-07-18T15:13:58Z</time>
      </trkpt>
      <trkpt lat="44.41983" lon="7.10332">
        <ele>1718.8</ele>
        <time>2022-07-18T15:13:59Z</time>
      </trkpt>
      <trkpt lat="44.41981" lon="7.10332">
        <ele>1719</ele>
        <time>2022-07-18T15:14:00Z</time>
      </trkpt>
      <trkpt lat="44.41979" lon="7.10333">
        <ele>1719.2</ele>
        <time>2022-07-18T15:14:01Z</time>
      </trkpt>
      <trkpt lat="44.41977" lon="7.10333">
        <ele>1719.4</ele>
        <time>2022-07-18T15:14:02Z</time>
      </trkpt>
      <trkpt lat="44.41975" lon="7.10334">
        <ele>1719.4</ele>
        <time>2022-07-18T15:14:03Z</time>
      </trkpt>
      <trkpt lat="44.41973" lon="7.10335">
        <ele>1720</ele>
        <time>2022-07-18T15:14:04Z</time>
      </trkpt>
      <trkpt lat="44.41972" lon="7.10336">
        <ele>1720.2</ele>
        <time>2022-07-18T15:14:05Z</time>
      </trkpt>
      <trkpt lat="44.4197" lon="7.10337">
        <ele>1720.4</ele>
        <time>2022-07-18T15:14:06Z</time>
      </trkpt>
      <trkpt lat="44.41968" lon="7.10337">
        <ele>1720.4</ele>
        <time>2022-07-18T15:14:07Z</time>
      </trkpt>
      <trkpt lat="44.41966" lon="7.10338">
        <ele>1720.8</ele>
        <time>2022-07-18T15:14:08Z</time>
      </trkpt>
      <trkpt lat="44.41964" lon="7.10339">
        <ele>1721.2</ele>
        <time>2022-07-18T15:14:09Z</time>
      </trkpt>
      <trkpt lat="44.41963" lon="7.1034">
        <ele>1721.4</ele>
        <time>2022-07-18T15:14:10Z</time>
      </trkpt>
      <trkpt lat="44.41962" lon="7.10341">
        <ele>1721.6</ele>
        <time>2022-07-18T15:14:11Z</time>
      </trkpt>
      <trkpt lat="44.41961" lon="7.10342">
        <ele>1721.6</ele>
        <time>2022-07-18T15:14:12Z</time>
      </trkpt>
      <trkpt lat="44.41959" lon="7.10343">
        <ele>1722</ele>
        <time>2022-07-18T15:14:13Z</time>
      </trkpt>
      <trkpt lat="44.41958" lon="7.10343">
        <ele>1722.2</ele>
        <time>2022-07-18T15:14:14Z</time>
      </trkpt>
      <trkpt lat="44.41956" lon="7.10344">
        <ele>1722.4</ele>
        <time>2022-07-18T15:14:15Z</time>
      </trkpt>
      <trkpt lat="44.41954" lon="7.10344">
        <ele>1722.8</ele>
        <time>2022-07-18T15:14:16Z</time>
      </trkpt>
      <trkpt lat="44.41953" lon="7.10344">
        <ele>1723</ele>
        <time>2022-07-18T15:14:17Z</time>
      </trkpt>
      <trkpt lat="44.41951" lon="7.10344">
        <ele>1723.2</ele>
        <time>2022-07-18T15:14:18Z</time>
      </trkpt>
      <trkpt lat="44.41949" lon="7.10344">
        <ele>1723.4</ele>
        <time>2022-07-18T15:14:19Z</time>
      </trkpt>
      <trkpt lat="44.41948" lon="7.10344">
        <ele>1723.8</ele>
        <time>2022-07-18T15:14:20Z</time>
      </trkpt>
      <trkpt lat="44.41946" lon="7.10344">
        <ele>1723.8</ele>
        <time>2022-07-18T15:14:21Z</time>
      </trkpt>
      <trkpt lat="44.41944" lon="7.10343">
        <ele>1724.2</ele>
        <time>2022-07-18T15:14:22Z</time>
      </trkpt>
      <trkpt lat="44.41942" lon="7.10343">
        <ele>1724.2</ele>
        <time>2022-07-18T15:14:23Z</time>
      </trkpt>
      <trkpt lat="44.4194" lon="7.10343">
        <ele>1724.6</ele>
        <time>2022-07-18T15:14:24Z</time>
      </trkpt>
      <trkpt lat="44.41938" lon="7.10343">
        <ele>1724.8</ele>
        <time>2022-07-18T15:14:25Z</time>
      </trkpt>
      <trkpt lat="44.41937" lon="7.10343">
        <ele>1725</ele>
        <time>2022-07-18T15:14:26Z</time>
      </trkpt>
      <trkpt lat="44.41935" lon="7.10343">
        <ele>1725</ele>
        <time>2022-07-18T15:14:27Z</time>
      </trkpt>
      <trkpt lat="44.41933" lon="7.10344">
        <ele>1725.2</ele>
        <time>2022-07-18T15:14:28Z</time>
      </trkpt>
      <trkpt lat="44.41931" lon="7.10344">
        <ele>1725.4</ele>
        <time>2022-07-18T15:14:29Z</time>
      </trkpt>
      <trkpt lat="44.41929" lon="7.10344">
        <ele>1725.8</ele>
        <time>2022-07-18T15:14:30Z</time>
      </trkpt>
      <trkpt lat="44.41928" lon="7.10344">
        <ele>1725.8</ele>
        <time>2022-07-18T15:14:31Z</time>
      </trkpt>
      <trkpt lat="44.41926" lon="7.10343">
        <ele>1726.2</ele>
        <time>2022-07-18T15:14:32Z</time>
      </trkpt>
      <trkpt lat="44.41925" lon="7.10343">
        <ele>1726.2</ele>
        <time>2022-07-18T15:14:33Z</time>
      </trkpt>
      <trkpt lat="44.41923" lon="7.10343">
        <ele>1726.4</ele>
        <time>2022-07-18T15:14:34Z</time>
      </trkpt>
      <trkpt lat="44.41921" lon="7.10343">
        <ele>1726.4</ele>
        <time>2022-07-18T15:14:35Z</time>
      </trkpt>
      <trkpt lat="44.41919" lon="7.10343">
        <ele>1726.8</ele>
        <time>2022-07-18T15:14:36Z</time>
      </trkpt>
      <trkpt lat="44.41918" lon="7.10343">
        <ele>1727</ele>
        <time>2022-07-18T15:14:37Z</time>
      </trkpt>
      <trkpt lat="44.41916" lon="7.10343">
        <ele>1727.2</ele>
        <time>2022-07-18T15:14:38Z</time>
      </trkpt>
      <trkpt lat="44.41914" lon="7.10343">
        <ele>1727.2</ele>
        <time>2022-07-18T15:14:39Z</time>
      </trkpt>
      <trkpt lat="44.41912" lon="7.10343">
        <ele>1727.6</ele>
        <time>2022-07-18T15:14:40Z</time>
      </trkpt>
      <trkpt lat="44.4191" lon="7.10343">
        <ele>1727.6</ele>
        <time>2022-07-18T15:14:41Z</time>
      </trkpt>
      <trkpt lat="44.41908" lon="7.10344">
        <ele>1728</ele>
        <time>2022-07-18T15:14:42Z</time>
      </trkpt>
      <trkpt lat="44.41906" lon="7.10344">
        <ele>1728</ele>
        <time>2022-07-18T15:14:43Z</time>
      </trkpt>
      <trkpt lat="44.41904" lon="7.10344">
        <ele>1728.4</ele>
        <time>2022-07-18T15:14:44Z</time>
      </trkpt>
      <trkpt lat="44.41902" lon="7.10345">
        <ele>1728.6</ele>
        <time>2022-07-18T15:14:45Z</time>
      </trkpt>
      <trkpt lat="44.419" lon="7.10346">
        <ele>1729</ele>
        <time>2022-07-18T15:14:46Z</time>
      </trkpt>
      <trkpt lat="44.41899" lon="7.10346">
        <ele>1729</ele>
        <time>2022-07-18T15:14:47Z</time>
      </trkpt>
      <trkpt lat="44.41897" lon="7.10346">
        <ele>1729.4</ele>
        <time>2022-07-18T15:14:48Z</time>
      </trkpt>
      <trkpt lat="44.41895" lon="7.10346">
        <ele>1729.4</ele>
        <time>2022-07-18T15:14:49Z</time>
      </trkpt>
      <trkpt lat="44.41894" lon="7.10346">
        <ele>1729.6</ele>
        <time>2022-07-18T15:14:50Z</time>
      </trkpt>
      <trkpt lat="44.41892" lon="7.10346">
        <ele>1729.6</ele>
        <time>2022-07-18T15:14:51Z</time>
      </trkpt>
      <trkpt lat="44.41891" lon="7.10347">
        <ele>1730</ele>
        <time>2022-07-18T15:14:52Z</time>
      </trkpt>
      <trkpt lat="44.41889" lon="7.10347">
        <ele>1730.2</ele>
        <time>2022-07-18T15:14:53Z</time>
      </trkpt>
      <trkpt lat="44.41888" lon="7.10347">
        <ele>1730.2</ele>
        <time>2022-07-18T15:14:54Z</time>
      </trkpt>
      <trkpt lat="44.41886" lon="7.10347">
        <ele>1730.6</ele>
        <time>2022-07-18T15:14:55Z</time>
      </trkpt>
      <trkpt lat="44.41884" lon="7.10347">
        <ele>1730.6</ele>
        <time>2022-07-18T15:14:56Z</time>
      </trkpt>
      <trkpt lat="44.41883" lon="7.10347">
        <ele>1731</ele>
        <time>2022-07-18T15:14:57Z</time>
      </trkpt>
      <trkpt lat="44.41881" lon="7.10346">
        <ele>1731.2</ele>
        <time>2022-07-18T15:14:58Z</time>
      </trkpt>
      <trkpt lat="44.41879" lon="7.10346">
        <ele>1731.2</ele>
        <time>2022-07-18T15:14:59Z</time>
      </trkpt>
      <trkpt lat="44.41877" lon="7.10346">
        <ele>1731.6</ele>
        <time>2022-07-18T15:15:00Z</time>
      </trkpt>
      <trkpt lat="44.41875" lon="7.10346">
        <ele>1731.8</ele>
        <time>2022-07-18T15:15:01Z</time>
      </trkpt>
      <trkpt lat="44.41873" lon="7.10346">
        <ele>1731.8</ele>
        <time>2022-07-18T15:15:02Z</time>
      </trkpt>
      <trkpt lat="44.41871" lon="7.10347">
        <ele>1732.2</ele>
        <time>2022-07-18T15:15:03Z</time>
      </trkpt>
      <trkpt lat="44.41869" lon="7.10346">
        <ele>1732.2</ele>
        <time>2022-07-18T15:15:04Z</time>
      </trkpt>
      <trkpt lat="44.41867" lon="7.10346">
        <ele>1732.4</ele>
        <time>2022-07-18T15:15:05Z</time>
      </trkpt>
      <trkpt lat="44.41865" lon="7.10346">
        <ele>1732.4</ele>
        <time>2022-07-18T15:15:06Z</time>
      </trkpt>
      <trkpt lat="44.41862" lon="7.10346">
        <ele>1732.8</ele>
        <time>2022-07-18T15:15:07Z</time>
      </trkpt>
      <trkpt lat="44.4186" lon="7.10345">
        <ele>1732.8</ele>
        <time>2022-07-18T15:15:08Z</time>
      </trkpt>
      <trkpt lat="44.41858" lon="7.10344">
        <ele>1733</ele>
        <time>2022-07-18T15:15:09Z</time>
      </trkpt>
      <trkpt lat="44.41856" lon="7.10344">
        <ele>1733</ele>
        <time>2022-07-18T15:15:10Z</time>
      </trkpt>
      <trkpt lat="44.41854" lon="7.10343">
        <ele>1733.4</ele>
        <time>2022-07-18T15:15:11Z</time>
      </trkpt>
      <trkpt lat="44.41852" lon="7.10342">
        <ele>1733.4</ele>
        <time>2022-07-18T15:15:12Z</time>
      </trkpt>
      <trkpt lat="44.4185" lon="7.10341">
        <ele>1733.4</ele>
        <time>2022-07-18T15:15:13Z</time>
      </trkpt>
      <trkpt lat="44.41848" lon="7.1034">
        <ele>1733.4</ele>
        <time>2022-07-18T15:15:14Z</time>
      </trkpt>
      <trkpt lat="44.41846" lon="7.10339">
        <ele>1733.6</ele>
        <time>2022-07-18T15:15:15Z</time>
      </trkpt>
      <trkpt lat="44.41843" lon="7.10339">
        <ele>1733.6</ele>
        <time>2022-07-18T15:15:16Z</time>
      </trkpt>
      <trkpt lat="44.41841" lon="7.1034">
        <ele>1734</ele>
        <time>2022-07-18T15:15:17Z</time>
      </trkpt>
      <trkpt lat="44.41838" lon="7.1034">
        <ele>1734</ele>
        <time>2022-07-18T15:15:18Z</time>
      </trkpt>
      <trkpt lat="44.41836" lon="7.10339">
        <ele>1734</ele>
        <time>2022-07-18T15:15:19Z</time>
      </trkpt>
      <trkpt lat="44.41834" lon="7.1034">
        <ele>1734.2</ele>
        <time>2022-07-18T15:15:20Z</time>
      </trkpt>
      <trkpt lat="44.41832" lon="7.1034">
        <ele>1734.2</ele>
        <time>2022-07-18T15:15:21Z</time>
      </trkpt>
      <trkpt lat="44.4183" lon="7.1034">
        <ele>1734.4</ele>
        <time>2022-07-18T15:15:22Z</time>
      </trkpt>
      <trkpt lat="44.41828" lon="7.1034">
        <ele>1734.4</ele>
        <time>2022-07-18T15:15:23Z</time>
      </trkpt>
      <trkpt lat="44.41826" lon="7.10339">
        <ele>1734.8</ele>
        <time>2022-07-18T15:15:24Z</time>
      </trkpt>
      <trkpt lat="44.41824" lon="7.10338">
        <ele>1734.8</ele>
        <time>2022-07-18T15:15:25Z</time>
      </trkpt>
      <trkpt lat="44.41822" lon="7.10337">
        <ele>1735.2</ele>
        <time>2022-07-18T15:15:26Z</time>
      </trkpt>
      <trkpt lat="44.4182" lon="7.10336">
        <ele>1735.2</ele>
        <time>2022-07-18T15:15:27Z</time>
      </trkpt>
      <trkpt lat="44.41818" lon="7.10336">
        <ele>1735.4</ele>
        <time>2022-07-18T15:15:28Z</time>
      </trkpt>
      <trkpt lat="44.41816" lon="7.10336">
        <ele>1735.6</ele>
        <time>2022-07-18T15:15:29Z</time>
      </trkpt>
      <trkpt lat="44.41814" lon="7.10335">
        <ele>1736</ele>
        <time>2022-07-18T15:15:30Z</time>
      </trkpt>
      <trkpt lat="44.41812" lon="7.10335">
        <ele>1736.2</ele>
        <time>2022-07-18T15:15:31Z</time>
      </trkpt>
      <trkpt lat="44.4181" lon="7.10336">
        <ele>1736.6</ele>
        <time>2022-07-18T15:15:32Z</time>
      </trkpt>
      <trkpt lat="44.41809" lon="7.10336">
        <ele>1736.8</ele>
        <time>2022-07-18T15:15:33Z</time>
      </trkpt>
      <trkpt lat="44.41807" lon="7.10336">
        <ele>1737.2</ele>
        <time>2022-07-18T15:15:34Z</time>
      </trkpt>
      <trkpt lat="44.41805" lon="7.10335">
        <ele>1737.4</ele>
        <time>2022-07-18T15:15:35Z</time>
      </trkpt>
      <trkpt lat="44.41803" lon="7.10335">
        <ele>1737.8</ele>
        <time>2022-07-18T15:15:36Z</time>
      </trkpt>
      <trkpt lat="44.41801" lon="7.10335">
        <ele>1738</ele>
        <time>2022-07-18T15:15:37Z</time>
      </trkpt>
      <trkpt lat="44.418" lon="7.10334">
        <ele>1738.2</ele>
        <time>2022-07-18T15:15:38Z</time>
      </trkpt>
      <trkpt lat="44.41798" lon="7.10334">
        <ele>1738.4</ele>
        <time>2022-07-18T15:15:39Z</time>
      </trkpt>
      <trkpt lat="44.41796" lon="7.10335">
        <ele>1738.6</ele>
        <time>2022-07-18T15:15:40Z</time>
      </trkpt>
      <trkpt lat="44.41794" lon="7.10335">
        <ele>1738.6</ele>
        <time>2022-07-18T15:15:41Z</time>
      </trkpt>
      <trkpt lat="44.41793" lon="7.10336">
        <ele>1739</ele>
        <time>2022-07-18T15:15:42Z</time>
      </trkpt>
      <trkpt lat="44.41792" lon="7.10337">
        <ele>1739</ele>
        <time>2022-07-18T15:15:43Z</time>
      </trkpt>
      <trkpt lat="44.41791" lon="7.10338">
        <ele>1739.2</ele>
        <time>2022-07-18T15:15:44Z</time>
      </trkpt>
      <trkpt lat="44.4179" lon="7.10339">
        <ele>1739.2</ele>
        <time>2022-07-18T15:15:45Z</time>
      </trkpt>
      <trkpt lat="44.41788" lon="7.10341">
        <ele>1739.6</ele>
        <time>2022-07-18T15:15:46Z</time>
      </trkpt>
      <trkpt lat="44.41788" lon="7.10344">
        <ele>1739.6</ele>
        <time>2022-07-18T15:15:47Z</time>
      </trkpt>
      <trkpt lat="44.41787" lon="7.10346">
        <ele>1739.8</ele>
        <time>2022-07-18T15:15:48Z</time>
      </trkpt>
      <trkpt lat="44.41788" lon="7.10349">
        <ele>1739.8</ele>
        <time>2022-07-18T15:15:49Z</time>
      </trkpt>
      <trkpt lat="44.41789" lon="7.10352">
        <ele>1739.8</ele>
        <time>2022-07-18T15:15:50Z</time>
      </trkpt>
      <trkpt lat="44.41792" lon="7.10355">
        <ele>1739.8</ele>
        <time>2022-07-18T15:15:51Z</time>
      </trkpt>
      <trkpt lat="44.41795" lon="7.10357">
        <ele>1739.8</ele>
        <time>2022-07-18T15:15:52Z</time>
      </trkpt>
      <trkpt lat="44.41798" lon="7.10358">
        <ele>1739.8</ele>
        <time>2022-07-18T15:15:53Z</time>
      </trkpt>
      <trkpt lat="44.41801" lon="7.10358">
        <ele>1739.8</ele>
        <time>2022-07-18T15:15:54Z</time>
      </trkpt>
      <trkpt lat="44.41804" lon="7.10358">
        <ele>1739.8</ele>
        <time>2022-07-18T15:15:55Z</time>
      </trkpt>
      <trkpt lat="44.41807" lon="7.10358">
        <ele>1740</ele>
        <time>2022-07-18T15:15:56Z</time>
      </trkpt>
      <trkpt lat="44.41809" lon="7.10358">
        <ele>1740.4</ele>
        <time>2022-07-18T15:15:57Z</time>
      </trkpt>
      <trkpt lat="44.41812" lon="7.10358">
        <ele>1740.4</ele>
        <time>2022-07-18T15:15:58Z</time>
      </trkpt>
      <trkpt lat="44.41814" lon="7.10359">
        <ele>1740.6</ele>
        <time>2022-07-18T15:15:59Z</time>
      </trkpt>
      <trkpt lat="44.41816" lon="7.10361">
        <ele>1740.6</ele>
        <time>2022-07-18T15:16:00Z</time>
      </trkpt>
      <trkpt lat="44.41818" lon="7.10362">
        <ele>1741</ele>
        <time>2022-07-18T15:16:01Z</time>
      </trkpt>
      <trkpt lat="44.4182" lon="7.10364">
        <ele>1741</ele>
        <time>2022-07-18T15:16:02Z</time>
      </trkpt>
      <trkpt lat="44.41822" lon="7.10365">
        <ele>1741.4</ele>
        <time>2022-07-18T15:16:03Z</time>
      </trkpt>
      <trkpt lat="44.41824" lon="7.10367">
        <ele>1741.4</ele>
        <time>2022-07-18T15:16:04Z</time>
      </trkpt>
      <trkpt lat="44.41826" lon="7.10368">
        <ele>1741.8</ele>
        <time>2022-07-18T15:16:05Z</time>
      </trkpt>
      <trkpt lat="44.41828" lon="7.1037">
        <ele>1741.8</ele>
        <time>2022-07-18T15:16:06Z</time>
      </trkpt>
      <trkpt lat="44.4183" lon="7.10372">
        <ele>1742.2</ele>
        <time>2022-07-18T15:16:07Z</time>
      </trkpt>
      <trkpt lat="44.41831" lon="7.10373">
        <ele>1742.4</ele>
        <time>2022-07-18T15:16:08Z</time>
      </trkpt>
      <trkpt lat="44.41833" lon="7.10375">
        <ele>1742.6</ele>
        <time>2022-07-18T15:16:09Z</time>
      </trkpt>
      <trkpt lat="44.41834" lon="7.10376">
        <ele>1742.8</ele>
        <time>2022-07-18T15:16:10Z</time>
      </trkpt>
      <trkpt lat="44.41836" lon="7.10377">
        <ele>1743</ele>
        <time>2022-07-18T15:16:11Z</time>
      </trkpt>
      <trkpt lat="44.41837" lon="7.10377">
        <ele>1743.4</ele>
        <time>2022-07-18T15:16:12Z</time>
      </trkpt>
      <trkpt lat="44.41839" lon="7.10377">
        <ele>1743.4</ele>
        <time>2022-07-18T15:16:13Z</time>
      </trkpt>
      <trkpt lat="44.4184" lon="7.10378">
        <ele>1743.6</ele>
        <time>2022-07-18T15:16:14Z</time>
      </trkpt>
      <trkpt lat="44.41842" lon="7.10378">
        <ele>1743.6</ele>
        <time>2022-07-18T15:16:15Z</time>
      </trkpt>
      <trkpt lat="44.41844" lon="7.10379">
        <ele>1744</ele>
        <time>2022-07-18T15:16:16Z</time>
      </trkpt>
      <trkpt lat="44.41846" lon="7.1038">
        <ele>1744</ele>
        <time>2022-07-18T15:16:17Z</time>
      </trkpt>
      <trkpt lat="44.41848" lon="7.10381">
        <ele>1744.2</ele>
        <time>2022-07-18T15:16:18Z</time>
      </trkpt>
      <trkpt lat="44.41849" lon="7.10381">
        <ele>1744.2</ele>
        <time>2022-07-18T15:16:19Z</time>
      </trkpt>
      <trkpt lat="44.41851" lon="7.10382">
        <ele>1744.4</ele>
        <time>2022-07-18T15:16:20Z</time>
      </trkpt>
      <trkpt lat="44.41853" lon="7.10383">
        <ele>1744.4</ele>
        <time>2022-07-18T15:16:21Z</time>
      </trkpt>
      <trkpt lat="44.41854" lon="7.10385">
        <ele>1744.8</ele>
        <time>2022-07-18T15:16:22Z</time>
      </trkpt>
      <trkpt lat="44.41855" lon="7.10387">
        <ele>1744.8</ele>
        <time>2022-07-18T15:16:23Z</time>
      </trkpt>
      <trkpt lat="44.41856" lon="7.10389">
        <ele>1745</ele>
        <time>2022-07-18T15:16:24Z</time>
      </trkpt>
      <trkpt lat="44.41856" lon="7.10392">
        <ele>1745</ele>
        <time>2022-07-18T15:16:25Z</time>
      </trkpt>
      <trkpt lat="44.41856" lon="7.10395">
        <ele>1745.4</ele>
        <time>2022-07-18T15:16:26Z</time>
      </trkpt>
      <trkpt lat="44.41856" lon="7.10398">
        <ele>1745.6</ele>
        <time>2022-07-18T15:16:27Z</time>
      </trkpt>
      <trkpt lat="44.41854" lon="7.104">
        <ele>1745.8</ele>
        <time>2022-07-18T15:16:28Z</time>
      </trkpt>
      <trkpt lat="44.41853" lon="7.10402">
        <ele>1745.8</ele>
        <time>2022-07-18T15:16:29Z</time>
      </trkpt>
      <trkpt lat="44.41852" lon="7.10403">
        <ele>1746.2</ele>
        <time>2022-07-18T15:16:30Z</time>
      </trkpt>
      <trkpt lat="44.4185" lon="7.10403">
        <ele>1746.2</ele>
        <time>2022-07-18T15:16:31Z</time>
      </trkpt>
      <trkpt lat="44.41848" lon="7.10403">
        <ele>1746.4</ele>
        <time>2022-07-18T15:16:32Z</time>
      </trkpt>
      <trkpt lat="44.41847" lon="7.10403">
        <ele>1746.4</ele>
        <time>2022-07-18T15:16:33Z</time>
      </trkpt>
      <trkpt lat="44.41845" lon="7.10402">
        <ele>1746.8</ele>
        <time>2022-07-18T15:16:34Z</time>
      </trkpt>
      <trkpt lat="44.41843" lon="7.10401">
        <ele>1747</ele>
        <time>2022-07-18T15:16:35Z</time>
      </trkpt>
      <trkpt lat="44.41841" lon="7.10401">
        <ele>1747</ele>
        <time>2022-07-18T15:16:36Z</time>
      </trkpt>
      <trkpt lat="44.41839" lon="7.10401">
        <ele>1747.4</ele>
        <time>2022-07-18T15:16:37Z</time>
      </trkpt>
      <trkpt lat="44.41837" lon="7.104">
        <ele>1747.4</ele>
        <time>2022-07-18T15:16:38Z</time>
      </trkpt>
      <trkpt lat="44.41835" lon="7.104">
        <ele>1747.6</ele>
        <time>2022-07-18T15:16:39Z</time>
      </trkpt>
      <trkpt lat="44.41833" lon="7.10399">
        <ele>1747.6</ele>
        <time>2022-07-18T15:16:40Z</time>
      </trkpt>
      <trkpt lat="44.41831" lon="7.10399">
        <ele>1748</ele>
        <time>2022-07-18T15:16:41Z</time>
      </trkpt>
      <trkpt lat="44.41829" lon="7.10398">
        <ele>1748.2</ele>
        <time>2022-07-18T15:16:42Z</time>
      </trkpt>
      <trkpt lat="44.41828" lon="7.10397">
        <ele>1748.2</ele>
        <time>2022-07-18T15:16:43Z</time>
      </trkpt>
      <trkpt lat="44.41826" lon="7.10397">
        <ele>1748.6</ele>
        <time>2022-07-18T15:16:44Z</time>
      </trkpt>
      <trkpt lat="44.41824" lon="7.10396">
        <ele>1748.8</ele>
        <time>2022-07-18T15:16:45Z</time>
      </trkpt>
      <trkpt lat="44.41823" lon="7.10396">
        <ele>1748.8</ele>
        <time>2022-07-18T15:16:46Z</time>
      </trkpt>
      <trkpt lat="44.41821" lon="7.10396">
        <ele>1749.4</ele>
        <time>2022-07-18T15:16:47Z</time>
      </trkpt>
      <trkpt lat="44.4182" lon="7.10396">
        <ele>1749.6</ele>
        <time>2022-07-18T15:16:48Z</time>
      </trkpt>
      <trkpt lat="44.41818" lon="7.10396">
        <ele>1749.8</ele>
        <time>2022-07-18T15:16:49Z</time>
      </trkpt>
      <trkpt lat="44.41816" lon="7.10397">
        <ele>1749.8</ele>
        <time>2022-07-18T15:16:50Z</time>
      </trkpt>
      <trkpt lat="44.41814" lon="7.10397">
        <ele>1750</ele>
        <time>2022-07-18T15:16:51Z</time>
      </trkpt>
      <trkpt lat="44.41812" lon="7.10397">
        <ele>1750</ele>
        <time>2022-07-18T15:16:52Z</time>
      </trkpt>
      <trkpt lat="44.4181" lon="7.10397">
        <ele>1750.4</ele>
        <time>2022-07-18T15:16:53Z</time>
      </trkpt>
      <trkpt lat="44.41808" lon="7.10397">
        <ele>1750.6</ele>
        <time>2022-07-18T15:16:54Z</time>
      </trkpt>
      <trkpt lat="44.41806" lon="7.10397">
        <ele>1750.6</ele>
        <time>2022-07-18T15:16:55Z</time>
      </trkpt>
      <trkpt lat="44.41804" lon="7.10398">
        <ele>1751</ele>
        <time>2022-07-18T15:16:56Z</time>
      </trkpt>
      <trkpt lat="44.41802" lon="7.10399">
        <ele>1751</ele>
        <time>2022-07-18T15:16:57Z</time>
      </trkpt>
      <trkpt lat="44.418" lon="7.10399">
        <ele>1751.2</ele>
        <time>2022-07-18T15:16:58Z</time>
      </trkpt>
      <trkpt lat="44.41799" lon="7.104">
        <ele>1751.2</ele>
        <time>2022-07-18T15:16:59Z</time>
      </trkpt>
      <trkpt lat="44.41797" lon="7.10401">
        <ele>1751.4</ele>
        <time>2022-07-18T15:17:00Z</time>
      </trkpt>
      <trkpt lat="44.41795" lon="7.10402">
        <ele>1751.4</ele>
        <time>2022-07-18T15:17:01Z</time>
      </trkpt>
      <trkpt lat="44.41793" lon="7.10402">
        <ele>1751.8</ele>
        <time>2022-07-18T15:17:02Z</time>
      </trkpt>
      <trkpt lat="44.41791" lon="7.10403">
        <ele>1752</ele>
        <time>2022-07-18T15:17:03Z</time>
      </trkpt>
      <trkpt lat="44.41789" lon="7.10403">
        <ele>1752</ele>
        <time>2022-07-18T15:17:04Z</time>
      </trkpt>
      <trkpt lat="44.41786" lon="7.10404">
        <ele>1752.4</ele>
        <time>2022-07-18T15:17:05Z</time>
      </trkpt>
      <trkpt lat="44.41784" lon="7.10405">
        <ele>1752.4</ele>
        <time>2022-07-18T15:17:06Z</time>
      </trkpt>
      <trkpt lat="44.41783" lon="7.10406">
        <ele>1752.6</ele>
        <time>2022-07-18T15:17:07Z</time>
      </trkpt>
      <trkpt lat="44.41781" lon="7.10406">
        <ele>1752.6</ele>
        <time>2022-07-18T15:17:08Z</time>
      </trkpt>
      <trkpt lat="44.41779" lon="7.10406">
        <ele>1753</ele>
        <time>2022-07-18T15:17:09Z</time>
      </trkpt>
      <trkpt lat="44.41778" lon="7.10407">
        <ele>1753</ele>
        <time>2022-07-18T15:17:10Z</time>
      </trkpt>
      <trkpt lat="44.41776" lon="7.10407">
        <ele>1753.2</ele>
        <time>2022-07-18T15:17:11Z</time>
      </trkpt>
      <trkpt lat="44.41774" lon="7.10408">
        <ele>1753.2</ele>
        <time>2022-07-18T15:17:12Z</time>
      </trkpt>
      <trkpt lat="44.41772" lon="7.10408">
        <ele>1753.6</ele>
        <time>2022-07-18T15:17:13Z</time>
      </trkpt>
      <trkpt lat="44.4177" lon="7.10409">
        <ele>1753.6</ele>
        <time>2022-07-18T15:17:14Z</time>
      </trkpt>
      <trkpt lat="44.41769" lon="7.10409">
        <ele>1754</ele>
        <time>2022-07-18T15:17:15Z</time>
      </trkpt>
      <trkpt lat="44.41767" lon="7.10409">
        <ele>1754</ele>
        <time>2022-07-18T15:17:16Z</time>
      </trkpt>
      <trkpt lat="44.41765" lon="7.10409">
        <ele>1754.2</ele>
        <time>2022-07-18T15:17:17Z</time>
      </trkpt>
      <trkpt lat="44.41763" lon="7.10408">
        <ele>1754.2</ele>
        <time>2022-07-18T15:17:18Z</time>
      </trkpt>
      <trkpt lat="44.41761" lon="7.10408">
        <ele>1754.6</ele>
        <time>2022-07-18T15:17:19Z</time>
      </trkpt>
      <trkpt lat="44.4176" lon="7.10407">
        <ele>1754.8</ele>
        <time>2022-07-18T15:17:20Z</time>
      </trkpt>
      <trkpt lat="44.41758" lon="7.10406">
        <ele>1754.8</ele>
        <time>2022-07-18T15:17:21Z</time>
      </trkpt>
      <trkpt lat="44.41756" lon="7.10406">
        <ele>1755.2</ele>
        <time>2022-07-18T15:17:22Z</time>
      </trkpt>
      <trkpt lat="44.41754" lon="7.10406">
        <ele>1755.4</ele>
        <time>2022-07-18T15:17:23Z</time>
      </trkpt>
      <trkpt lat="44.41753" lon="7.10405">
        <ele>1755.6</ele>
        <time>2022-07-18T15:17:24Z</time>
      </trkpt>
      <trkpt lat="44.41751" lon="7.10405">
        <ele>1756</ele>
        <time>2022-07-18T15:17:25Z</time>
      </trkpt>
      <trkpt lat="44.4175" lon="7.10404">
        <ele>1756</ele>
        <time>2022-07-18T15:17:26Z</time>
      </trkpt>
      <trkpt lat="44.41749" lon="7.10404">
        <ele>1756.2</ele>
        <time>2022-07-18T15:17:27Z</time>
      </trkpt>
      <trkpt lat="44.41747" lon="7.10403">
        <ele>1756.4</ele>
        <time>2022-07-18T15:17:28Z</time>
      </trkpt>
      <trkpt lat="44.41745" lon="7.10403">
        <ele>1756.6</ele>
        <time>2022-07-18T15:17:29Z</time>
      </trkpt>
      <trkpt lat="44.41744" lon="7.10402">
        <ele>1756.8</ele>
        <time>2022-07-18T15:17:30Z</time>
      </trkpt>
      <trkpt lat="44.41742" lon="7.10402">
        <ele>1756.8</ele>
        <time>2022-07-18T15:17:31Z</time>
      </trkpt>
      <trkpt lat="44.4174" lon="7.10401">
        <ele>1757</ele>
        <time>2022-07-18T15:17:32Z</time>
      </trkpt>
      <trkpt lat="44.41739" lon="7.10401">
        <ele>1757</ele>
        <time>2022-07-18T15:17:33Z</time>
      </trkpt>
      <trkpt lat="44.41737" lon="7.104">
        <ele>1757.4</ele>
        <time>2022-07-18T15:17:34Z</time>
      </trkpt>
      <trkpt lat="44.41735" lon="7.10399">
        <ele>1757.6</ele>
        <time>2022-07-18T15:17:35Z</time>
      </trkpt>
      <trkpt lat="44.41733" lon="7.10399">
        <ele>1757.6</ele>
        <time>2022-07-18T15:17:36Z</time>
      </trkpt>
      <trkpt lat="44.41731" lon="7.10398">
        <ele>1758</ele>
        <time>2022-07-18T15:17:37Z</time>
      </trkpt>
      <trkpt lat="44.41729" lon="7.10398">
        <ele>1758</ele>
        <time>2022-07-18T15:17:38Z</time>
      </trkpt>
      <trkpt lat="44.41727" lon="7.10398">
        <ele>1758.2</ele>
        <time>2022-07-18T15:17:39Z</time>
      </trkpt>
      <trkpt lat="44.41725" lon="7.10397">
        <ele>1758.2</ele>
        <time>2022-07-18T15:17:40Z</time>
      </trkpt>
      <trkpt lat="44.41724" lon="7.10397">
        <ele>1758.6</ele>
        <time>2022-07-18T15:17:41Z</time>
      </trkpt>
      <trkpt lat="44.41722" lon="7.10397">
        <ele>1758.6</ele>
        <time>2022-07-18T15:17:42Z</time>
      </trkpt>
      <trkpt lat="44.4172" lon="7.10396">
        <ele>1759</ele>
        <time>2022-07-18T15:17:43Z</time>
      </trkpt>
      <trkpt lat="44.41719" lon="7.10396">
        <ele>1759</ele>
        <time>2022-07-18T15:17:44Z</time>
      </trkpt>
      <trkpt lat="44.41717" lon="7.10395">
        <ele>1759.4</ele>
        <time>2022-07-18T15:17:45Z</time>
      </trkpt>
      <trkpt lat="44.41716" lon="7.10394">
        <ele>1759.4</ele>
        <time>2022-07-18T15:17:46Z</time>
      </trkpt>
      <trkpt lat="44.41714" lon="7.10393">
        <ele>1759.8</ele>
        <time>2022-07-18T15:17:47Z</time>
      </trkpt>
      <trkpt lat="44.41712" lon="7.10392">
        <ele>1760</ele>
        <time>2022-07-18T15:17:48Z</time>
      </trkpt>
      <trkpt lat="44.4171" lon="7.10391">
        <ele>1760.2</ele>
        <time>2022-07-18T15:17:49Z</time>
      </trkpt>
      <trkpt lat="44.41709" lon="7.1039">
        <ele>1760.4</ele>
        <time>2022-07-18T15:17:50Z</time>
      </trkpt>
      <trkpt lat="44.41708" lon="7.10388">
        <ele>1760.8</ele>
        <time>2022-07-18T15:17:51Z</time>
      </trkpt>
      <trkpt lat="44.41707" lon="7.10386">
        <ele>1761</ele>
        <time>2022-07-18T15:17:52Z</time>
      </trkpt>
      <trkpt lat="44.41706" lon="7.10384">
        <ele>1761</ele>
        <time>2022-07-18T15:17:53Z</time>
      </trkpt>
      <trkpt lat="44.41706" lon="7.10381">
        <ele>1761.2</ele>
        <time>2022-07-18T15:17:54Z</time>
      </trkpt>
      <trkpt lat="44.41705" lon="7.10379">
        <ele>1761.2</ele>
        <time>2022-07-18T15:17:55Z</time>
      </trkpt>
      <trkpt lat="44.41705" lon="7.10376">
        <ele>1761.6</ele>
        <time>2022-07-18T15:17:56Z</time>
      </trkpt>
      <trkpt lat="44.41704" lon="7.10373">
        <ele>1761.8</ele>
        <time>2022-07-18T15:17:57Z</time>
      </trkpt>
      <trkpt lat="44.41703" lon="7.10371">
        <ele>1761.8</ele>
        <time>2022-07-18T15:17:58Z</time>
      </trkpt>
      <trkpt lat="44.41702" lon="7.10368">
        <ele>1762.2</ele>
        <time>2022-07-18T15:17:59Z</time>
      </trkpt>
      <trkpt lat="44.41702" lon="7.10366">
        <ele>1762.2</ele>
        <time>2022-07-18T15:18:00Z</time>
      </trkpt>
      <trkpt lat="44.41701" lon="7.10363">
        <ele>1762.6</ele>
        <time>2022-07-18T15:18:01Z</time>
      </trkpt>
      <trkpt lat="44.417" lon="7.10361">
        <ele>1762.6</ele>
        <time>2022-07-18T15:18:02Z</time>
      </trkpt>
      <trkpt lat="44.41699" lon="7.10359">
        <ele>1762.8</ele>
        <time>2022-07-18T15:18:03Z</time>
      </trkpt>
      <trkpt lat="44.41698" lon="7.10358">
        <ele>1763</ele>
        <time>2022-07-18T15:18:04Z</time>
      </trkpt>
      <trkpt lat="44.41696" lon="7.10357">
        <ele>1763.2</ele>
        <time>2022-07-18T15:18:05Z</time>
      </trkpt>
      <trkpt lat="44.41695" lon="7.10356">
        <ele>1763.2</ele>
        <time>2022-07-18T15:18:06Z</time>
      </trkpt>
      <trkpt lat="44.41694" lon="7.10357">
        <ele>1763.6</ele>
        <time>2022-07-18T15:18:07Z</time>
      </trkpt>
      <trkpt lat="44.41693" lon="7.10358">
        <ele>1763.6</ele>
        <time>2022-07-18T15:18:08Z</time>
      </trkpt>
      <trkpt lat="44.41692" lon="7.1036">
        <ele>1764</ele>
        <time>2022-07-18T15:18:09Z</time>
      </trkpt>
      <trkpt lat="44.41691" lon="7.10362">
        <ele>1764</ele>
        <time>2022-07-18T15:18:10Z</time>
      </trkpt>
      <trkpt lat="44.41691" lon="7.10364">
        <ele>1764.2</ele>
        <time>2022-07-18T15:18:11Z</time>
      </trkpt>
      <trkpt lat="44.4169" lon="7.10366">
        <ele>1764.6</ele>
        <time>2022-07-18T15:18:12Z</time>
      </trkpt>
      <trkpt lat="44.4169" lon="7.10368">
        <ele>1764.8</ele>
        <time>2022-07-18T15:18:13Z</time>
      </trkpt>
      <trkpt lat="44.41691" lon="7.1037">
        <ele>1764.8</ele>
        <time>2022-07-18T15:18:14Z</time>
      </trkpt>
      <trkpt lat="44.41691" lon="7.10372">
        <ele>1765</ele>
        <time>2022-07-18T15:18:15Z</time>
      </trkpt>
      <trkpt lat="44.41692" lon="7.10375">
        <ele>1765</ele>
        <time>2022-07-18T15:18:16Z</time>
      </trkpt>
      <trkpt lat="44.41692" lon="7.10377">
        <ele>1765.4</ele>
        <time>2022-07-18T15:18:17Z</time>
      </trkpt>
      <trkpt lat="44.41692" lon="7.10379">
        <ele>1765.4</ele>
        <time>2022-07-18T15:18:18Z</time>
      </trkpt>
      <trkpt lat="44.41693" lon="7.10382">
        <ele>1765.6</ele>
        <time>2022-07-18T15:18:19Z</time>
      </trkpt>
      <trkpt lat="44.41693" lon="7.10384">
        <ele>1765.6</ele>
        <time>2022-07-18T15:18:20Z</time>
      </trkpt>
      <trkpt lat="44.41694" lon="7.10386">
        <ele>1766</ele>
        <time>2022-07-18T15:18:21Z</time>
      </trkpt>
      <trkpt lat="44.41694" lon="7.10389">
        <ele>1766.4</ele>
        <time>2022-07-18T15:18:22Z</time>
      </trkpt>
      <trkpt lat="44.41694" lon="7.10391">
        <ele>1766.6</ele>
        <time>2022-07-18T15:18:23Z</time>
      </trkpt>
      <trkpt lat="44.41695" lon="7.10393">
        <ele>1766.8</ele>
        <time>2022-07-18T15:18:24Z</time>
      </trkpt>
      <trkpt lat="44.41696" lon="7.10395">
        <ele>1767.2</ele>
        <time>2022-07-18T15:18:25Z</time>
      </trkpt>
      <trkpt lat="44.41696" lon="7.10398">
        <ele>1767.4</ele>
        <time>2022-07-18T15:18:26Z</time>
      </trkpt>
      <trkpt lat="44.41697" lon="7.104">
        <ele>1767.8</ele>
        <time>2022-07-18T15:18:27Z</time>
      </trkpt>
      <trkpt lat="44.41699" lon="7.10403">
        <ele>1768</ele>
        <time>2022-07-18T15:18:28Z</time>
      </trkpt>
      <trkpt lat="44.417" lon="7.10405">
        <ele>1768</ele>
        <time>2022-07-18T15:18:29Z</time>
      </trkpt>
      <trkpt lat="44.41701" lon="7.10407">
        <ele>1768.2</ele>
        <time>2022-07-18T15:18:30Z</time>
      </trkpt>
      <trkpt lat="44.41703" lon="7.1041">
        <ele>1768.2</ele>
        <time>2022-07-18T15:18:31Z</time>
      </trkpt>
      <trkpt lat="44.41706" lon="7.10413">
        <ele>1768.2</ele>
        <time>2022-07-18T15:18:32Z</time>
      </trkpt>
      <trkpt lat="44.41709" lon="7.10417">
        <ele>1768.2</ele>
        <time>2022-07-18T15:18:33Z</time>
      </trkpt>
      <trkpt lat="44.41712" lon="7.10421">
        <ele>1768.2</ele>
        <time>2022-07-18T15:18:34Z</time>
      </trkpt>
      <trkpt lat="44.41715" lon="7.10425">
        <ele>1768</ele>
        <time>2022-07-18T15:18:35Z</time>
      </trkpt>
      <trkpt lat="44.41717" lon="7.10428">
        <ele>1768</ele>
        <time>2022-07-18T15:18:36Z</time>
      </trkpt>
      <trkpt lat="44.4172" lon="7.10432">
        <ele>1768</ele>
        <time>2022-07-18T15:18:37Z</time>
      </trkpt>
      <trkpt lat="44.41722" lon="7.10435">
        <ele>1768</ele>
        <time>2022-07-18T15:18:38Z</time>
      </trkpt>
      <trkpt lat="44.41724" lon="7.10438">
        <ele>1768</ele>
        <time>2022-07-18T15:18:39Z</time>
      </trkpt>
      <trkpt lat="44.41726" lon="7.10441">
        <ele>1768</ele>
        <time>2022-07-18T15:18:40Z</time>
      </trkpt>
      <trkpt lat="44.41728" lon="7.10443">
        <ele>1768</ele>
        <time>2022-07-18T15:18:41Z</time>
      </trkpt>
      <trkpt lat="44.4173" lon="7.10445">
        <ele>1768.4</ele>
        <time>2022-07-18T15:18:42Z</time>
      </trkpt>
      <trkpt lat="44.41731" lon="7.10447">
        <ele>1768.4</ele>
        <time>2022-07-18T15:18:43Z</time>
      </trkpt>
      <trkpt lat="44.41733" lon="7.10448">
        <ele>1768.8</ele>
        <time>2022-07-18T15:18:44Z</time>
      </trkpt>
      <trkpt lat="44.41735" lon="7.10449">
        <ele>1768.8</ele>
        <time>2022-07-18T15:18:45Z</time>
      </trkpt>
      <trkpt lat="44.41738" lon="7.10451">
        <ele>1768.8</ele>
        <time>2022-07-18T15:18:46Z</time>
      </trkpt>
      <trkpt lat="44.4174" lon="7.10452">
        <ele>1769</ele>
        <time>2022-07-18T15:18:47Z</time>
      </trkpt>
      <trkpt lat="44.41742" lon="7.10453">
        <ele>1769</ele>
        <time>2022-07-18T15:18:48Z</time>
      </trkpt>
      <trkpt lat="44.41744" lon="7.10454">
        <ele>1769.4</ele>
        <time>2022-07-18T15:18:49Z</time>
      </trkpt>
      <trkpt lat="44.41746" lon="7.10454">
        <ele>1769.6</ele>
        <time>2022-07-18T15:18:50Z</time>
      </trkpt>
      <trkpt lat="44.41748" lon="7.10454">
        <ele>1769.8</ele>
        <time>2022-07-18T15:18:51Z</time>
      </trkpt>
      <trkpt lat="44.4175" lon="7.10454">
        <ele>1769.8</ele>
        <time>2022-07-18T15:18:52Z</time>
      </trkpt>
      <trkpt lat="44.41752" lon="7.10454">
        <ele>1770.2</ele>
        <time>2022-07-18T15:18:53Z</time>
      </trkpt>
      <trkpt lat="44.41754" lon="7.10453">
        <ele>1770.6</ele>
        <time>2022-07-18T15:18:54Z</time>
      </trkpt>
      <trkpt lat="44.41756" lon="7.10453">
        <ele>1770.6</ele>
        <time>2022-07-18T15:18:55Z</time>
      </trkpt>
      <trkpt lat="44.41758" lon="7.10454">
        <ele>1770.8</ele>
        <time>2022-07-18T15:18:56Z</time>
      </trkpt>
      <trkpt lat="44.4176" lon="7.10454">
        <ele>1771</ele>
        <time>2022-07-18T15:18:57Z</time>
      </trkpt>
      <trkpt lat="44.41762" lon="7.10455">
        <ele>1771.4</ele>
        <time>2022-07-18T15:18:58Z</time>
      </trkpt>
      <trkpt lat="44.41764" lon="7.10455">
        <ele>1771.6</ele>
        <time>2022-07-18T15:18:59Z</time>
      </trkpt>
      <trkpt lat="44.41765" lon="7.10455">
        <ele>1771.8</ele>
        <time>2022-07-18T15:19:00Z</time>
      </trkpt>
      <trkpt lat="44.41767" lon="7.10456">
        <ele>1772</ele>
        <time>2022-07-18T15:19:01Z</time>
      </trkpt>
      <trkpt lat="44.41769" lon="7.10457">
        <ele>1772.2</ele>
        <time>2022-07-18T15:19:02Z</time>
      </trkpt>
      <trkpt lat="44.4177" lon="7.10458">
        <ele>1772.2</ele>
        <time>2022-07-18T15:19:03Z</time>
      </trkpt>
      <trkpt lat="44.41772" lon="7.10459">
        <ele>1772.6</ele>
        <time>2022-07-18T15:19:04Z</time>
      </trkpt>
      <trkpt lat="44.41773" lon="7.10459">
        <ele>1772.8</ele>
        <time>2022-07-18T15:19:05Z</time>
      </trkpt>
      <trkpt lat="44.41775" lon="7.1046">
        <ele>1773.2</ele>
        <time>2022-07-18T15:19:06Z</time>
      </trkpt>
      <trkpt lat="44.41776" lon="7.1046">
        <ele>1773.4</ele>
        <time>2022-07-18T15:19:07Z</time>
      </trkpt>
      <trkpt lat="44.41778" lon="7.1046">
        <ele>1773.4</ele>
        <time>2022-07-18T15:19:08Z</time>
      </trkpt>
      <trkpt lat="44.41779" lon="7.10461">
        <ele>1773.6</ele>
        <time>2022-07-18T15:19:09Z</time>
      </trkpt>
      <trkpt lat="44.41781" lon="7.10461">
        <ele>1773.6</ele>
        <time>2022-07-18T15:19:10Z</time>
      </trkpt>
      <trkpt lat="44.41782" lon="7.10461">
        <ele>1774</ele>
        <time>2022-07-18T15:19:11Z</time>
      </trkpt>
      <trkpt lat="44.41784" lon="7.10461">
        <ele>1774</ele>
        <time>2022-07-18T15:19:12Z</time>
      </trkpt>
      <trkpt lat="44.41786" lon="7.10462">
        <ele>1774.2</ele>
        <time>2022-07-18T15:19:13Z</time>
      </trkpt>
      <trkpt lat="44.41788" lon="7.10462">
        <ele>1774.2</ele>
        <time>2022-07-18T15:19:14Z</time>
      </trkpt>
      <trkpt lat="44.4179" lon="7.10463">
        <ele>1774.6</ele>
        <time>2022-07-18T15:19:15Z</time>
      </trkpt>
      <trkpt lat="44.41791" lon="7.10464">
        <ele>1774.8</ele>
        <time>2022-07-18T15:19:16Z</time>
      </trkpt>
      <trkpt lat="44.41793" lon="7.10465">
        <ele>1774.8</ele>
        <time>2022-07-18T15:19:17Z</time>
      </trkpt>
      <trkpt lat="44.41794" lon="7.10466">
        <ele>1775</ele>
        <time>2022-07-18T15:19:18Z</time>
      </trkpt>
      <trkpt lat="44.41795" lon="7.10467">
        <ele>1775</ele>
        <time>2022-07-18T15:19:19Z</time>
      </trkpt>
      <trkpt lat="44.41796" lon="7.10467">
        <ele>1775.4</ele>
        <time>2022-07-18T15:19:20Z</time>
      </trkpt>
      <trkpt lat="44.41798" lon="7.10468">
        <ele>1775.4</ele>
        <time>2022-07-18T15:19:21Z</time>
      </trkpt>
      <trkpt lat="44.418" lon="7.10468">
        <ele>1775.6</ele>
        <time>2022-07-18T15:19:22Z</time>
      </trkpt>
      <trkpt lat="44.41801" lon="7.10469">
        <ele>1775.6</ele>
        <time>2022-07-18T15:19:23Z</time>
      </trkpt>
      <trkpt lat="44.41803" lon="7.1047">
        <ele>1776</ele>
        <time>2022-07-18T15:19:24Z</time>
      </trkpt>
      <trkpt lat="44.41804" lon="7.1047">
        <ele>1776</ele>
        <time>2022-07-18T15:19:25Z</time>
      </trkpt>
      <trkpt lat="44.41805" lon="7.10471">
        <ele>1776.2</ele>
        <time>2022-07-18T15:19:26Z</time>
      </trkpt>
      <trkpt lat="44.41806" lon="7.10471">
        <ele>1776.2</ele>
        <time>2022-07-18T15:19:27Z</time>
      </trkpt>
      <trkpt lat="44.41806" lon="7.10471">
        <ele>1776.2</ele>
        <time>2022-07-18T15:19:28Z</time>
      </trkpt>
      <trkpt lat="44.41806" lon="7.10471">
        <ele>1776.2</ele>
        <time>2022-07-18T15:19:29Z</time>
      </trkpt>
      <trkpt lat="44.41806" lon="7.10471">
        <ele>1776.4</ele>
        <time>2022-07-18T15:19:35Z</time>
      </trkpt>
      <trkpt lat="44.41806" lon="7.10471">
        <ele>1777.6</ele>
        <time>2022-07-18T15:19:46Z</time>
      </trkpt>
      <trkpt lat="44.41806" lon="7.10471">
        <ele>1778.6</ele>
        <time>2022-07-18T15:19:52Z</time>
      </trkpt>
      <trkpt lat="44.41806" lon="7.10471">
        <ele>1781.4</ele>
        <time>2022-07-18T15:20:07Z</time>
      </trkpt>
      <trkpt lat="44.41815" lon="7.10472">
        <ele>1782.2</ele>
        <time>2022-07-18T15:20:11Z</time>
      </trkpt>
      <trkpt lat="44.41815" lon="7.10472">
        <ele>1782.8</ele>
        <time>2022-07-18T15:20:14Z</time>
      </trkpt>
      <trkpt lat="44.41815" lon="7.10472">
        <ele>1784.2</ele>
        <time>2022-07-18T15:20:25Z</time>
      </trkpt>
      <trkpt lat="44.41815" lon="7.10472">
        <ele>1785.4</ele>
        <time>2022-07-18T15:20:33Z</time>
      </trkpt>
      <trkpt lat="44.41827" lon="7.10475">
        <ele>1785.8</ele>
        <time>2022-07-18T15:20:36Z</time>
      </trkpt>
      <trkpt lat="44.4183" lon="7.10476">
        <ele>1785.8</ele>
        <time>2022-07-18T15:20:37Z</time>
      </trkpt>
      <trkpt lat="44.41832" lon="7.10476">
        <ele>1786</ele>
        <time>2022-07-18T15:20:38Z</time>
      </trkpt>
      <trkpt lat="44.41834" lon="7.10478">
        <ele>1786</ele>
        <time>2022-07-18T15:20:39Z</time>
      </trkpt>
      <trkpt lat="44.41836" lon="7.10478">
        <ele>1786.2</ele>
        <time>2022-07-18T15:20:40Z</time>
      </trkpt>
      <trkpt lat="44.41839" lon="7.10479">
        <ele>1786.2</ele>
        <time>2022-07-18T15:20:41Z</time>
      </trkpt>
      <trkpt lat="44.41842" lon="7.10478">
        <ele>1786.2</ele>
        <time>2022-07-18T15:20:42Z</time>
      </trkpt>
      <trkpt lat="44.41844" lon="7.10479">
        <ele>1786.6</ele>
        <time>2022-07-18T15:20:43Z</time>
      </trkpt>
      <trkpt lat="44.41847" lon="7.10479">
        <ele>1786.6</ele>
        <time>2022-07-18T15:20:44Z</time>
      </trkpt>
      <trkpt lat="44.41849" lon="7.1048">
        <ele>1786.8</ele>
        <time>2022-07-18T15:20:45Z</time>
      </trkpt>
      <trkpt lat="44.41851" lon="7.1048">
        <ele>1786.8</ele>
        <time>2022-07-18T15:20:46Z</time>
      </trkpt>
      <trkpt lat="44.41852" lon="7.1048">
        <ele>1786.8</ele>
        <time>2022-07-18T15:20:47Z</time>
      </trkpt>
      <trkpt lat="44.41852" lon="7.1048">
        <ele>1786.8</ele>
        <time>2022-07-18T15:20:48Z</time>
      </trkpt>
      <trkpt lat="44.41853" lon="7.1048">
        <ele>1787</ele>
        <time>2022-07-18T15:20:49Z</time>
      </trkpt>
      <trkpt lat="44.41853" lon="7.1048">
        <ele>1787.4</ele>
        <time>2022-07-18T15:20:53Z</time>
      </trkpt>
      <trkpt lat="44.41854" lon="7.1048">
        <ele>1787.4</ele>
        <time>2022-07-18T15:20:54Z</time>
      </trkpt>
      <trkpt lat="44.41854" lon="7.1048">
        <ele>1787.4</ele>
        <time>2022-07-18T15:20:55Z</time>
      </trkpt>
      <trkpt lat="44.41855" lon="7.1048">
        <ele>1787.4</ele>
        <time>2022-07-18T15:20:56Z</time>
      </trkpt>
      <trkpt lat="44.41855" lon="7.1048">
        <ele>1787.4</ele>
        <time>2022-07-18T15:20:57Z</time>
      </trkpt>
      <trkpt lat="44.41856" lon="7.10481">
        <ele>1787.6</ele>
        <time>2022-07-18T15:21:01Z</time>
      </trkpt>
      <trkpt lat="44.41856" lon="7.10481">
        <ele>1787.6</ele>
        <time>2022-07-18T15:21:02Z</time>
      </trkpt>
      <trkpt lat="44.41857" lon="7.10481">
        <ele>1787.6</ele>
        <time>2022-07-18T15:21:11Z</time>
      </trkpt>
      <trkpt lat="44.41857" lon="7.10481">
        <ele>1787.6</ele>
        <time>2022-07-18T15:21:12Z</time>
      </trkpt>
      <trkpt lat="44.41858" lon="7.10481">
        <ele>1787.6</ele>
        <time>2022-07-18T15:21:16Z</time>
      </trkpt>
      <trkpt lat="44.41858" lon="7.10481">
        <ele>1787.6</ele>
        <time>2022-07-18T15:21:17Z</time>
      </trkpt>
      <trkpt lat="44.41859" lon="7.10481">
        <ele>1787.6</ele>
        <time>2022-07-18T15:21:18Z</time>
      </trkpt>
      <trkpt lat="44.41859" lon="7.10481">
        <ele>1787.6</ele>
        <time>2022-07-18T15:21:19Z</time>
      </trkpt>
      <trkpt lat="44.4186" lon="7.10481">
        <ele>1787.6</ele>
        <time>2022-07-18T15:21:20Z</time>
      </trkpt>
      <trkpt lat="44.4186" lon="7.10481">
        <ele>1787.6</ele>
        <time>2022-07-18T15:21:21Z</time>
      </trkpt>
      <trkpt lat="44.41861" lon="7.10482">
        <ele>1787.8</ele>
        <time>2022-07-18T15:21:22Z</time>
      </trkpt>
      <trkpt lat="44.41862" lon="7.10482">
        <ele>1787.8</ele>
        <time>2022-07-18T15:21:23Z</time>
      </trkpt>
      <trkpt lat="44.41862" lon="7.10482">
        <ele>1787.8</ele>
        <time>2022-07-18T15:21:27Z</time>
      </trkpt>
      <trkpt lat="44.41863" lon="7.10482">
        <ele>1787.8</ele>
        <time>2022-07-18T15:21:28Z</time>
      </trkpt>
      <trkpt lat="44.41864" lon="7.10483">
        <ele>1787.8</ele>
        <time>2022-07-18T15:21:29Z</time>
      </trkpt>
      <trkpt lat="44.41864" lon="7.10483">
        <ele>1787.8</ele>
        <time>2022-07-18T15:21:30Z</time>
      </trkpt>
      <trkpt lat="44.41865" lon="7.10483">
        <ele>1787.8</ele>
        <time>2022-07-18T15:21:31Z</time>
      </trkpt>
      <trkpt lat="44.41865" lon="7.10483">
        <ele>1787.8</ele>
        <time>2022-07-18T15:21:32Z</time>
      </trkpt>
      <trkpt lat="44.41866" lon="7.10483">
        <ele>1787.8</ele>
        <time>2022-07-18T15:21:34Z</time>
      </trkpt>
      <trkpt lat="44.41866" lon="7.10483">
        <ele>1787.8</ele>
        <time>2022-07-18T15:21:35Z</time>
      </trkpt>
      <trkpt lat="44.41867" lon="7.10484">
        <ele>1787.8</ele>
        <time>2022-07-18T15:21:36Z</time>
      </trkpt>
      <trkpt lat="44.41867" lon="7.10484">
        <ele>1787.8</ele>
        <time>2022-07-18T15:21:37Z</time>
      </trkpt>
      <trkpt lat="44.41868" lon="7.10484">
        <ele>1788</ele>
        <time>2022-07-18T15:21:38Z</time>
      </trkpt>
      <trkpt lat="44.41868" lon="7.10484">
        <ele>1788</ele>
        <time>2022-07-18T15:21:39Z</time>
      </trkpt>
      <trkpt lat="44.41869" lon="7.10484">
        <ele>1788.2</ele>
        <time>2022-07-18T15:21:40Z</time>
      </trkpt>
      <trkpt lat="44.4187" lon="7.10485">
        <ele>1788.2</ele>
        <time>2022-07-18T15:21:41Z</time>
      </trkpt>
      <trkpt lat="44.41872" lon="7.10486">
        <ele>1788.6</ele>
        <time>2022-07-18T15:21:42Z</time>
      </trkpt>
      <trkpt lat="44.41874" lon="7.10487">
        <ele>1788.6</ele>
        <time>2022-07-18T15:21:43Z</time>
      </trkpt>
      <trkpt lat="44.41876" lon="7.10488">
        <ele>1788.8</ele>
        <time>2022-07-18T15:21:44Z</time>
      </trkpt>
      <trkpt lat="44.41878" lon="7.10489">
        <ele>1788.8</ele>
        <time>2022-07-18T15:21:45Z</time>
      </trkpt>
      <trkpt lat="44.4188" lon="7.10489">
        <ele>1789</ele>
        <time>2022-07-18T15:21:46Z</time>
      </trkpt>
      <trkpt lat="44.41882" lon="7.10489">
        <ele>1789</ele>
        <time>2022-07-18T15:21:47Z</time>
      </trkpt>
      <trkpt lat="44.41884" lon="7.10488">
        <ele>1789.4</ele>
        <time>2022-07-18T15:21:48Z</time>
      </trkpt>
      <trkpt lat="44.41886" lon="7.10488">
        <ele>1789.4</ele>
        <time>2022-07-18T15:21:49Z</time>
      </trkpt>
      <trkpt lat="44.41888" lon="7.10489">
        <ele>1789.6</ele>
        <time>2022-07-18T15:21:50Z</time>
      </trkpt>
      <trkpt lat="44.4189" lon="7.10489">
        <ele>1789.6</ele>
        <time>2022-07-18T15:21:51Z</time>
      </trkpt>
      <trkpt lat="44.41893" lon="7.1049">
        <ele>1789.8</ele>
        <time>2022-07-18T15:21:52Z</time>
      </trkpt>
      <trkpt lat="44.41896" lon="7.1049">
        <ele>1789.8</ele>
        <time>2022-07-18T15:21:53Z</time>
      </trkpt>
      <trkpt lat="44.41897" lon="7.10491">
        <ele>1790.2</ele>
        <time>2022-07-18T15:21:54Z</time>
      </trkpt>
      <trkpt lat="44.41899" lon="7.10492">
        <ele>1790.2</ele>
        <time>2022-07-18T15:21:55Z</time>
      </trkpt>
      <trkpt lat="44.41902" lon="7.10492">
        <ele>1790.4</ele>
        <time>2022-07-18T15:21:56Z</time>
      </trkpt>
      <trkpt lat="44.41904" lon="7.10492">
        <ele>1790.4</ele>
        <time>2022-07-18T15:21:57Z</time>
      </trkpt>
      <trkpt lat="44.41907" lon="7.10492">
        <ele>1790.6</ele>
        <time>2022-07-18T15:21:58Z</time>
      </trkpt>
      <trkpt lat="44.4191" lon="7.10491">
        <ele>1790.6</ele>
        <time>2022-07-18T15:21:59Z</time>
      </trkpt>
      <trkpt lat="44.41912" lon="7.10491">
        <ele>1791</ele>
        <time>2022-07-18T15:22:00Z</time>
      </trkpt>
      <trkpt lat="44.41915" lon="7.1049">
        <ele>1791</ele>
        <time>2022-07-18T15:22:01Z</time>
      </trkpt>
      <trkpt lat="44.41917" lon="7.1049">
        <ele>1791.2</ele>
        <time>2022-07-18T15:22:02Z</time>
      </trkpt>
      <trkpt lat="44.4192" lon="7.1049">
        <ele>1791.2</ele>
        <time>2022-07-18T15:22:03Z</time>
      </trkpt>
      <trkpt lat="44.41922" lon="7.10489">
        <ele>1791.6</ele>
        <time>2022-07-18T15:22:04Z</time>
      </trkpt>
      <trkpt lat="44.41924" lon="7.10489">
        <ele>1791.6</ele>
        <time>2022-07-18T15:22:05Z</time>
      </trkpt>
      <trkpt lat="44.41925" lon="7.10489">
        <ele>1791.8</ele>
        <time>2022-07-18T15:22:06Z</time>
      </trkpt>
      <trkpt lat="44.41927" lon="7.10489">
        <ele>1791.8</ele>
        <time>2022-07-18T15:22:07Z</time>
      </trkpt>
      <trkpt lat="44.41929" lon="7.10488">
        <ele>1792.2</ele>
        <time>2022-07-18T15:22:08Z</time>
      </trkpt>
      <trkpt lat="44.41931" lon="7.10487">
        <ele>1792.2</ele>
        <time>2022-07-18T15:22:09Z</time>
      </trkpt>
      <trkpt lat="44.41933" lon="7.10487">
        <ele>1792.6</ele>
        <time>2022-07-18T15:22:10Z</time>
      </trkpt>
      <trkpt lat="44.41935" lon="7.10486">
        <ele>1792.6</ele>
        <time>2022-07-18T15:22:11Z</time>
      </trkpt>
      <trkpt lat="44.41937" lon="7.10487">
        <ele>1792.8</ele>
        <time>2022-07-18T15:22:12Z</time>
      </trkpt>
      <trkpt lat="44.4194" lon="7.10487">
        <ele>1792.8</ele>
        <time>2022-07-18T15:22:13Z</time>
      </trkpt>
      <trkpt lat="44.41942" lon="7.10488">
        <ele>1793.2</ele>
        <time>2022-07-18T15:22:14Z</time>
      </trkpt>
      <trkpt lat="44.41943" lon="7.10489">
        <ele>1793.2</ele>
        <time>2022-07-18T15:22:15Z</time>
      </trkpt>
      <trkpt lat="44.41945" lon="7.10491">
        <ele>1793.4</ele>
        <time>2022-07-18T15:22:16Z</time>
      </trkpt>
      <trkpt lat="44.41947" lon="7.10492">
        <ele>1793.4</ele>
        <time>2022-07-18T15:22:17Z</time>
      </trkpt>
      <trkpt lat="44.41949" lon="7.10493">
        <ele>1793.8</ele>
        <time>2022-07-18T15:22:18Z</time>
      </trkpt>
      <trkpt lat="44.4195" lon="7.10495">
        <ele>1793.8</ele>
        <time>2022-07-18T15:22:19Z</time>
      </trkpt>
      <trkpt lat="44.41952" lon="7.10496">
        <ele>1794</ele>
        <time>2022-07-18T15:22:20Z</time>
      </trkpt>
      <trkpt lat="44.41954" lon="7.10498">
        <ele>1794</ele>
        <time>2022-07-18T15:22:21Z</time>
      </trkpt>
      <trkpt lat="44.41956" lon="7.105">
        <ele>1794.6</ele>
        <time>2022-07-18T15:22:22Z</time>
      </trkpt>
      <trkpt lat="44.41957" lon="7.10501">
        <ele>1794.6</ele>
        <time>2022-07-18T15:22:23Z</time>
      </trkpt>
      <trkpt lat="44.41959" lon="7.10502">
        <ele>1794.8</ele>
        <time>2022-07-18T15:22:24Z</time>
      </trkpt>
      <trkpt lat="44.41961" lon="7.10504">
        <ele>1794.8</ele>
        <time>2022-07-18T15:22:25Z</time>
      </trkpt>
      <trkpt lat="44.41963" lon="7.10505">
        <ele>1795.2</ele>
        <time>2022-07-18T15:22:26Z</time>
      </trkpt>
      <trkpt lat="44.41965" lon="7.10507">
        <ele>1795.2</ele>
        <time>2022-07-18T15:22:27Z</time>
      </trkpt>
      <trkpt lat="44.41967" lon="7.10508">
        <ele>1795.4</ele>
        <time>2022-07-18T15:22:28Z</time>
      </trkpt>
      <trkpt lat="44.41968" lon="7.1051">
        <ele>1795.4</ele>
        <time>2022-07-18T15:22:29Z</time>
      </trkpt>
      <trkpt lat="44.4197" lon="7.10511">
        <ele>1795.8</ele>
        <time>2022-07-18T15:22:30Z</time>
      </trkpt>
      <trkpt lat="44.41971" lon="7.10513">
        <ele>1795.8</ele>
        <time>2022-07-18T15:22:31Z</time>
      </trkpt>
      <trkpt lat="44.41973" lon="7.10514">
        <ele>1796.2</ele>
        <time>2022-07-18T15:22:32Z</time>
      </trkpt>
      <trkpt lat="44.41974" lon="7.10515">
        <ele>1796.2</ele>
        <time>2022-07-18T15:22:33Z</time>
      </trkpt>
      <trkpt lat="44.41976" lon="7.10517">
        <ele>1796.4</ele>
        <time>2022-07-18T15:22:34Z</time>
      </trkpt>
      <trkpt lat="44.41977" lon="7.10518">
        <ele>1796.4</ele>
        <time>2022-07-18T15:22:35Z</time>
      </trkpt>
      <trkpt lat="44.41979" lon="7.10519">
        <ele>1796.8</ele>
        <time>2022-07-18T15:22:36Z</time>
      </trkpt>
      <trkpt lat="44.41981" lon="7.1052">
        <ele>1796.8</ele>
        <time>2022-07-18T15:22:37Z</time>
      </trkpt>
      <trkpt lat="44.41983" lon="7.1052">
        <ele>1797.2</ele>
        <time>2022-07-18T15:22:38Z</time>
      </trkpt>
      <trkpt lat="44.41985" lon="7.10521">
        <ele>1797.4</ele>
        <time>2022-07-18T15:22:39Z</time>
      </trkpt>
      <trkpt lat="44.41986" lon="7.10521">
        <ele>1797.4</ele>
        <time>2022-07-18T15:22:40Z</time>
      </trkpt>
      <trkpt lat="44.41988" lon="7.10522">
        <ele>1797.6</ele>
        <time>2022-07-18T15:22:41Z</time>
      </trkpt>
      <trkpt lat="44.4199" lon="7.10522">
        <ele>1797.6</ele>
        <time>2022-07-18T15:22:42Z</time>
      </trkpt>
      <trkpt lat="44.41991" lon="7.10523">
        <ele>1798</ele>
        <time>2022-07-18T15:22:43Z</time>
      </trkpt>
      <trkpt lat="44.41993" lon="7.10523">
        <ele>1798.2</ele>
        <time>2022-07-18T15:22:44Z</time>
      </trkpt>
      <trkpt lat="44.41994" lon="7.10523">
        <ele>1798.2</ele>
        <time>2022-07-18T15:22:45Z</time>
      </trkpt>
      <trkpt lat="44.41996" lon="7.10523">
        <ele>1798.6</ele>
        <time>2022-07-18T15:22:46Z</time>
      </trkpt>
      <trkpt lat="44.41998" lon="7.10524">
        <ele>1798.6</ele>
        <time>2022-07-18T15:22:47Z</time>
      </trkpt>
      <trkpt lat="44.42" lon="7.10524">
        <ele>1798.8</ele>
        <time>2022-07-18T15:22:48Z</time>
      </trkpt>
      <trkpt lat="44.42002" lon="7.10525">
        <ele>1799</ele>
        <time>2022-07-18T15:22:49Z</time>
      </trkpt>
      <trkpt lat="44.42003" lon="7.10526">
        <ele>1799</ele>
        <time>2022-07-18T15:22:50Z</time>
      </trkpt>
      <trkpt lat="44.42005" lon="7.10527">
        <ele>1799.4</ele>
        <time>2022-07-18T15:22:51Z</time>
      </trkpt>
      <trkpt lat="44.42006" lon="7.10528">
        <ele>1799.8</ele>
        <time>2022-07-18T15:22:52Z</time>
      </trkpt>
      <trkpt lat="44.42007" lon="7.10529">
        <ele>1800</ele>
        <time>2022-07-18T15:22:53Z</time>
      </trkpt>
      <trkpt lat="44.42008" lon="7.10531">
        <ele>1800.2</ele>
        <time>2022-07-18T15:22:54Z</time>
      </trkpt>
      <trkpt lat="44.42009" lon="7.10533">
        <ele>1800.4</ele>
        <time>2022-07-18T15:22:55Z</time>
      </trkpt>
      <trkpt lat="44.4201" lon="7.10535">
        <ele>1800.4</ele>
        <time>2022-07-18T15:22:56Z</time>
      </trkpt>
      <trkpt lat="44.42012" lon="7.10536">
        <ele>1800.6</ele>
        <time>2022-07-18T15:22:57Z</time>
      </trkpt>
      <trkpt lat="44.42013" lon="7.10538">
        <ele>1800.6</ele>
        <time>2022-07-18T15:22:58Z</time>
      </trkpt>
      <trkpt lat="44.42014" lon="7.1054">
        <ele>1801</ele>
        <time>2022-07-18T15:22:59Z</time>
      </trkpt>
      <trkpt lat="44.42016" lon="7.10543">
        <ele>1801</ele>
        <time>2022-07-18T15:23:00Z</time>
      </trkpt>
      <trkpt lat="44.42017" lon="7.10544">
        <ele>1801.2</ele>
        <time>2022-07-18T15:23:01Z</time>
      </trkpt>
      <trkpt lat="44.42017" lon="7.10546">
        <ele>1801.4</ele>
        <time>2022-07-18T15:23:02Z</time>
      </trkpt>
      <trkpt lat="44.42018" lon="7.10548">
        <ele>1801.6</ele>
        <time>2022-07-18T15:23:03Z</time>
      </trkpt>
      <trkpt lat="44.42019" lon="7.1055">
        <ele>1801.8</ele>
        <time>2022-07-18T15:23:04Z</time>
      </trkpt>
      <trkpt lat="44.42019" lon="7.10552">
        <ele>1801.8</ele>
        <time>2022-07-18T15:23:05Z</time>
      </trkpt>
      <trkpt lat="44.4202" lon="7.10554">
        <ele>1802.2</ele>
        <time>2022-07-18T15:23:06Z</time>
      </trkpt>
      <trkpt lat="44.4202" lon="7.10557">
        <ele>1802.2</ele>
        <time>2022-07-18T15:23:07Z</time>
      </trkpt>
      <trkpt lat="44.42019" lon="7.10559">
        <ele>1802.6</ele>
        <time>2022-07-18T15:23:08Z</time>
      </trkpt>
      <trkpt lat="44.42019" lon="7.10562">
        <ele>1802.8</ele>
        <time>2022-07-18T15:23:09Z</time>
      </trkpt>
      <trkpt lat="44.42018" lon="7.10564">
        <ele>1802.8</ele>
        <time>2022-07-18T15:23:10Z</time>
      </trkpt>
      <trkpt lat="44.42017" lon="7.10566">
        <ele>1803.2</ele>
        <time>2022-07-18T15:23:11Z</time>
      </trkpt>
      <trkpt lat="44.42016" lon="7.10568">
        <ele>1803.2</ele>
        <time>2022-07-18T15:23:12Z</time>
      </trkpt>
      <trkpt lat="44.42015" lon="7.1057">
        <ele>1803.6</ele>
        <time>2022-07-18T15:23:13Z</time>
      </trkpt>
      <trkpt lat="44.42014" lon="7.10571">
        <ele>1803.8</ele>
        <time>2022-07-18T15:23:14Z</time>
      </trkpt>
      <trkpt lat="44.42012" lon="7.10571">
        <ele>1803.8</ele>
        <time>2022-07-18T15:23:15Z</time>
      </trkpt>
      <trkpt lat="44.4201" lon="7.10572">
        <ele>1804.2</ele>
        <time>2022-07-18T15:23:16Z</time>
      </trkpt>
      <trkpt lat="44.42009" lon="7.10572">
        <ele>1804.2</ele>
        <time>2022-07-18T15:23:17Z</time>
      </trkpt>
      <trkpt lat="44.42007" lon="7.10572">
        <ele>1804.2</ele>
        <time>2022-07-18T15:23:18Z</time>
      </trkpt>
      <trkpt lat="44.42005" lon="7.10573">
        <ele>1804.4</ele>
        <time>2022-07-18T15:23:19Z</time>
      </trkpt>
      <trkpt lat="44.42002" lon="7.10573">
        <ele>1804.4</ele>
        <time>2022-07-18T15:23:20Z</time>
      </trkpt>
      <trkpt lat="44.42" lon="7.10573">
        <ele>1804.4</ele>
        <time>2022-07-18T15:23:21Z</time>
      </trkpt>
      <trkpt lat="44.41998" lon="7.10573">
        <ele>1804.6</ele>
        <time>2022-07-18T15:23:22Z</time>
      </trkpt>
      <trkpt lat="44.41996" lon="7.10573">
        <ele>1804.6</ele>
        <time>2022-07-18T15:23:23Z</time>
      </trkpt>
      <trkpt lat="44.41994" lon="7.10573">
        <ele>1805</ele>
        <time>2022-07-18T15:23:24Z</time>
      </trkpt>
      <trkpt lat="44.41992" lon="7.10573">
        <ele>1805</ele>
        <time>2022-07-18T15:23:25Z</time>
      </trkpt>
      <trkpt lat="44.4199" lon="7.10574">
        <ele>1805.2</ele>
        <time>2022-07-18T15:23:26Z</time>
      </trkpt>
      <trkpt lat="44.41988" lon="7.10574">
        <ele>1805.2</ele>
        <time>2022-07-18T15:23:27Z</time>
      </trkpt>
      <trkpt lat="44.41987" lon="7.10574">
        <ele>1805.4</ele>
        <time>2022-07-18T15:23:28Z</time>
      </trkpt>
      <trkpt lat="44.41985" lon="7.10575">
        <ele>1805.8</ele>
        <time>2022-07-18T15:23:29Z</time>
      </trkpt>
      <trkpt lat="44.41983" lon="7.10575">
        <ele>1805.8</ele>
        <time>2022-07-18T15:23:30Z</time>
      </trkpt>
      <trkpt lat="44.41981" lon="7.10575">
        <ele>1806.2</ele>
        <time>2022-07-18T15:23:31Z</time>
      </trkpt>
      <trkpt lat="44.41979" lon="7.10576">
        <ele>1806.4</ele>
        <time>2022-07-18T15:23:32Z</time>
      </trkpt>
      <trkpt lat="44.41977" lon="7.10576">
        <ele>1806.4</ele>
        <time>2022-07-18T15:23:33Z</time>
      </trkpt>
      <trkpt lat="44.41976" lon="7.10576">
        <ele>1806.8</ele>
        <time>2022-07-18T15:23:34Z</time>
      </trkpt>
      <trkpt lat="44.41974" lon="7.10576">
        <ele>1807</ele>
        <time>2022-07-18T15:23:35Z</time>
      </trkpt>
      <trkpt lat="44.41972" lon="7.10576">
        <ele>1807.2</ele>
        <time>2022-07-18T15:23:36Z</time>
      </trkpt>
      <trkpt lat="44.4197" lon="7.10577">
        <ele>1807.2</ele>
        <time>2022-07-18T15:23:37Z</time>
      </trkpt>
      <trkpt lat="44.41968" lon="7.10577">
        <ele>1807.6</ele>
        <time>2022-07-18T15:23:38Z</time>
      </trkpt>
      <trkpt lat="44.41966" lon="7.10577">
        <ele>1807.6</ele>
        <time>2022-07-18T15:23:39Z</time>
      </trkpt>
      <trkpt lat="44.41964" lon="7.10577">
        <ele>1808</ele>
        <time>2022-07-18T15:23:40Z</time>
      </trkpt>
      <trkpt lat="44.41963" lon="7.10577">
        <ele>1808</ele>
        <time>2022-07-18T15:23:41Z</time>
      </trkpt>
      <trkpt lat="44.41961" lon="7.10578">
        <ele>1808.4</ele>
        <time>2022-07-18T15:23:42Z</time>
      </trkpt>
      <trkpt lat="44.41959" lon="7.10578">
        <ele>1808.4</ele>
        <time>2022-07-18T15:23:43Z</time>
      </trkpt>
      <trkpt lat="44.41957" lon="7.10578">
        <ele>1808.6</ele>
        <time>2022-07-18T15:23:44Z</time>
      </trkpt>
      <trkpt lat="44.41955" lon="7.10578">
        <ele>1808.6</ele>
        <time>2022-07-18T15:23:45Z</time>
      </trkpt>
      <trkpt lat="44.41954" lon="7.10578">
        <ele>1809</ele>
        <time>2022-07-18T15:23:46Z</time>
      </trkpt>
      <trkpt lat="44.41952" lon="7.10578">
        <ele>1809.2</ele>
        <time>2022-07-18T15:23:47Z</time>
      </trkpt>
      <trkpt lat="44.41951" lon="7.10578">
        <ele>1809.2</ele>
        <time>2022-07-18T15:23:48Z</time>
      </trkpt>
      <trkpt lat="44.41949" lon="7.10578">
        <ele>1809.6</ele>
        <time>2022-07-18T15:23:49Z</time>
      </trkpt>
      <trkpt lat="44.41947" lon="7.10578">
        <ele>1809.6</ele>
        <time>2022-07-18T15:23:50Z</time>
      </trkpt>
      <trkpt lat="44.41945" lon="7.10578">
        <ele>1810</ele>
        <time>2022-07-18T15:23:51Z</time>
      </trkpt>
      <trkpt lat="44.41944" lon="7.10579">
        <ele>1810</ele>
        <time>2022-07-18T15:23:52Z</time>
      </trkpt>
      <trkpt lat="44.41942" lon="7.10579">
        <ele>1810.2</ele>
        <time>2022-07-18T15:23:53Z</time>
      </trkpt>
      <trkpt lat="44.4194" lon="7.10579">
        <ele>1810.4</ele>
        <time>2022-07-18T15:23:54Z</time>
      </trkpt>
      <trkpt lat="44.41939" lon="7.1058">
        <ele>1810.4</ele>
        <time>2022-07-18T15:23:55Z</time>
      </trkpt>
      <trkpt lat="44.41937" lon="7.1058">
        <ele>1810.8</ele>
        <time>2022-07-18T15:23:56Z</time>
      </trkpt>
      <trkpt lat="44.41936" lon="7.1058">
        <ele>1811</ele>
        <time>2022-07-18T15:23:57Z</time>
      </trkpt>
      <trkpt lat="44.41935" lon="7.1058">
        <ele>1811.2</ele>
        <time>2022-07-18T15:23:58Z</time>
      </trkpt>
      <trkpt lat="44.41933" lon="7.10581">
        <ele>1811.2</ele>
        <time>2022-07-18T15:23:59Z</time>
      </trkpt>
      <trkpt lat="44.41931" lon="7.10581">
        <ele>1811.4</ele>
        <time>2022-07-18T15:24:00Z</time>
      </trkpt>
      <trkpt lat="44.4193" lon="7.1058">
        <ele>1811.4</ele>
        <time>2022-07-18T15:24:01Z</time>
      </trkpt>
      <trkpt lat="44.41928" lon="7.1058">
        <ele>1811.6</ele>
        <time>2022-07-18T15:24:02Z</time>
      </trkpt>
      <trkpt lat="44.41926" lon="7.1058">
        <ele>1811.8</ele>
        <time>2022-07-18T15:24:03Z</time>
      </trkpt>
      <trkpt lat="44.41925" lon="7.1058">
        <ele>1811.8</ele>
        <time>2022-07-18T15:24:04Z</time>
      </trkpt>
      <trkpt lat="44.41923" lon="7.1058">
        <ele>1812.2</ele>
        <time>2022-07-18T15:24:05Z</time>
      </trkpt>
      <trkpt lat="44.41921" lon="7.1058">
        <ele>1812.2</ele>
        <time>2022-07-18T15:24:06Z</time>
      </trkpt>
      <trkpt lat="44.4192" lon="7.1058">
        <ele>1812.4</ele>
        <time>2022-07-18T15:24:07Z</time>
      </trkpt>
      <trkpt lat="44.41918" lon="7.10579">
        <ele>1812.4</ele>
        <time>2022-07-18T15:24:08Z</time>
      </trkpt>
      <trkpt lat="44.41917" lon="7.10579">
        <ele>1812.8</ele>
        <time>2022-07-18T15:24:09Z</time>
      </trkpt>
      <trkpt lat="44.41915" lon="7.10579">
        <ele>1812.8</ele>
        <time>2022-07-18T15:24:10Z</time>
      </trkpt>
      <trkpt lat="44.41914" lon="7.10579">
        <ele>1813</ele>
        <time>2022-07-18T15:24:11Z</time>
      </trkpt>
      <trkpt lat="44.41912" lon="7.10579">
        <ele>1813.4</ele>
        <time>2022-07-18T15:24:12Z</time>
      </trkpt>
      <trkpt lat="44.41911" lon="7.10579">
        <ele>1813.6</ele>
        <time>2022-07-18T15:24:13Z</time>
      </trkpt>
      <trkpt lat="44.41909" lon="7.10579">
        <ele>1813.6</ele>
        <time>2022-07-18T15:24:14Z</time>
      </trkpt>
      <trkpt lat="44.41907" lon="7.1058">
        <ele>1814</ele>
        <time>2022-07-18T15:24:15Z</time>
      </trkpt>
      <trkpt lat="44.41905" lon="7.1058">
        <ele>1814</ele>
        <time>2022-07-18T15:24:16Z</time>
      </trkpt>
      <trkpt lat="44.41903" lon="7.1058">
        <ele>1814.4</ele>
        <time>2022-07-18T15:24:17Z</time>
      </trkpt>
      <trkpt lat="44.41902" lon="7.1058">
        <ele>1814.4</ele>
        <time>2022-07-18T15:24:18Z</time>
      </trkpt>
      <trkpt lat="44.419" lon="7.1058">
        <ele>1814.6</ele>
        <time>2022-07-18T15:24:19Z</time>
      </trkpt>
      <trkpt lat="44.41898" lon="7.10581">
        <ele>1814.6</ele>
        <time>2022-07-18T15:24:20Z</time>
      </trkpt>
      <trkpt lat="44.41897" lon="7.10582">
        <ele>1814.8</ele>
        <time>2022-07-18T15:24:21Z</time>
      </trkpt>
      <trkpt lat="44.41895" lon="7.10583">
        <ele>1814.8</ele>
        <time>2022-07-18T15:24:22Z</time>
      </trkpt>
      <trkpt lat="44.41894" lon="7.10585">
        <ele>1815.2</ele>
        <time>2022-07-18T15:24:23Z</time>
      </trkpt>
      <trkpt lat="44.41892" lon="7.10586">
        <ele>1815.2</ele>
        <time>2022-07-18T15:24:24Z</time>
      </trkpt>
      <trkpt lat="44.41891" lon="7.10588">
        <ele>1815.4</ele>
        <time>2022-07-18T15:24:25Z</time>
      </trkpt>
      <trkpt lat="44.41889" lon="7.10589">
        <ele>1815.4</ele>
        <time>2022-07-18T15:24:26Z</time>
      </trkpt>
      <trkpt lat="44.41887" lon="7.10591">
        <ele>1815.4</ele>
        <time>2022-07-18T15:24:27Z</time>
      </trkpt>
      <trkpt lat="44.41885" lon="7.10593">
        <ele>1815.8</ele>
        <time>2022-07-18T15:24:28Z</time>
      </trkpt>
      <trkpt lat="44.41884" lon="7.10595">
        <ele>1815.8</ele>
        <time>2022-07-18T15:24:29Z</time>
      </trkpt>
      <trkpt lat="44.41882" lon="7.10597">
        <ele>1816.2</ele>
        <time>2022-07-18T15:24:30Z</time>
      </trkpt>
      <trkpt lat="44.41881" lon="7.10599">
        <ele>1816.2</ele>
        <time>2022-07-18T15:24:31Z</time>
      </trkpt>
      <trkpt lat="44.41879" lon="7.10601">
        <ele>1816.6</ele>
        <time>2022-07-18T15:24:32Z</time>
      </trkpt>
      <trkpt lat="44.41878" lon="7.10603">
        <ele>1816.6</ele>
        <time>2022-07-18T15:24:33Z</time>
      </trkpt>
      <trkpt lat="44.41877" lon="7.10604">
        <ele>1817</ele>
        <time>2022-07-18T15:24:34Z</time>
      </trkpt>
      <trkpt lat="44.41875" lon="7.10606">
        <ele>1817</ele>
        <time>2022-07-18T15:24:35Z</time>
      </trkpt>
      <trkpt lat="44.41874" lon="7.10607">
        <ele>1817.2</ele>
        <time>2022-07-18T15:24:36Z</time>
      </trkpt>
      <trkpt lat="44.41872" lon="7.10608">
        <ele>1817.6</ele>
        <time>2022-07-18T15:24:37Z</time>
      </trkpt>
      <trkpt lat="44.41871" lon="7.1061">
        <ele>1817.6</ele>
        <time>2022-07-18T15:24:38Z</time>
      </trkpt>
      <trkpt lat="44.4187" lon="7.10611">
        <ele>1817.8</ele>
        <time>2022-07-18T15:24:39Z</time>
      </trkpt>
      <trkpt lat="44.41868" lon="7.10612">
        <ele>1817.8</ele>
        <time>2022-07-18T15:24:40Z</time>
      </trkpt>
      <trkpt lat="44.41867" lon="7.10614">
        <ele>1818.2</ele>
        <time>2022-07-18T15:24:41Z</time>
      </trkpt>
      <trkpt lat="44.41865" lon="7.10616">
        <ele>1818.2</ele>
        <time>2022-07-18T15:24:42Z</time>
      </trkpt>
      <trkpt lat="44.41864" lon="7.10617">
        <ele>1818.4</ele>
        <time>2022-07-18T15:24:43Z</time>
      </trkpt>
      <trkpt lat="44.41862" lon="7.10619">
        <ele>1818.4</ele>
        <time>2022-07-18T15:24:44Z</time>
      </trkpt>
      <trkpt lat="44.41861" lon="7.10621">
        <ele>1818.6</ele>
        <time>2022-07-18T15:24:45Z</time>
      </trkpt>
      <trkpt lat="44.41859" lon="7.10622">
        <ele>1818.6</ele>
        <time>2022-07-18T15:24:46Z</time>
      </trkpt>
      <trkpt lat="44.41858" lon="7.10624">
        <ele>1818.8</ele>
        <time>2022-07-18T15:24:47Z</time>
      </trkpt>
      <trkpt lat="44.41856" lon="7.10625">
        <ele>1818.8</ele>
        <time>2022-07-18T15:24:48Z</time>
      </trkpt>
      <trkpt lat="44.41854" lon="7.10627">
        <ele>1819.2</ele>
        <time>2022-07-18T15:24:49Z</time>
      </trkpt>
      <trkpt lat="44.41853" lon="7.10628">
        <ele>1819.2</ele>
        <time>2022-07-18T15:24:50Z</time>
      </trkpt>
      <trkpt lat="44.41851" lon="7.1063">
        <ele>1819.4</ele>
        <time>2022-07-18T15:24:51Z</time>
      </trkpt>
      <trkpt lat="44.4185" lon="7.10632">
        <ele>1819.4</ele>
        <time>2022-07-18T15:24:52Z</time>
      </trkpt>
      <trkpt lat="44.41848" lon="7.10633">
        <ele>1819.6</ele>
        <time>2022-07-18T15:24:53Z</time>
      </trkpt>
      <trkpt lat="44.41847" lon="7.10635">
        <ele>1819.6</ele>
        <time>2022-07-18T15:24:54Z</time>
      </trkpt>
      <trkpt lat="44.41845" lon="7.10636">
        <ele>1819.6</ele>
        <time>2022-07-18T15:24:55Z</time>
      </trkpt>
      <trkpt lat="44.41843" lon="7.10637">
        <ele>1819.8</ele>
        <time>2022-07-18T15:24:56Z</time>
      </trkpt>
      <trkpt lat="44.41841" lon="7.10637">
        <ele>1819.8</ele>
        <time>2022-07-18T15:24:57Z</time>
      </trkpt>
      <trkpt lat="44.4184" lon="7.10638">
        <ele>1820</ele>
        <time>2022-07-18T15:24:58Z</time>
      </trkpt>
      <trkpt lat="44.41838" lon="7.10639">
        <ele>1820</ele>
        <time>2022-07-18T15:24:59Z</time>
      </trkpt>
      <trkpt lat="44.41836" lon="7.10639">
        <ele>1820.2</ele>
        <time>2022-07-18T15:25:00Z</time>
      </trkpt>
      <trkpt lat="44.41834" lon="7.10639">
        <ele>1820.2</ele>
        <time>2022-07-18T15:25:01Z</time>
      </trkpt>
      <trkpt lat="44.41833" lon="7.10639">
        <ele>1820.2</ele>
        <time>2022-07-18T15:25:02Z</time>
      </trkpt>
      <trkpt lat="44.41832" lon="7.10639">
        <ele>1820.2</ele>
        <time>2022-07-18T15:25:03Z</time>
      </trkpt>
      <trkpt lat="44.4183" lon="7.10639">
        <ele>1820.2</ele>
        <time>2022-07-18T15:25:04Z</time>
      </trkpt>
      <trkpt lat="44.41828" lon="7.10638">
        <ele>1820.2</ele>
        <time>2022-07-18T15:25:05Z</time>
      </trkpt>
      <trkpt lat="44.41826" lon="7.10637">
        <ele>1820.6</ele>
        <time>2022-07-18T15:25:06Z</time>
      </trkpt>
      <trkpt lat="44.41823" lon="7.10637">
        <ele>1820.6</ele>
        <time>2022-07-18T15:25:07Z</time>
      </trkpt>
      <trkpt lat="44.41821" lon="7.10636">
        <ele>1820.6</ele>
        <time>2022-07-18T15:25:08Z</time>
      </trkpt>
      <trkpt lat="44.41818" lon="7.10635">
        <ele>1820.6</ele>
        <time>2022-07-18T15:25:09Z</time>
      </trkpt>
      <trkpt lat="44.41816" lon="7.10634">
        <ele>1820.6</ele>
        <time>2022-07-18T15:25:10Z</time>
      </trkpt>
      <trkpt lat="44.41813" lon="7.10633">
        <ele>1820.6</ele>
        <time>2022-07-18T15:25:11Z</time>
      </trkpt>
      <trkpt lat="44.4181" lon="7.10632">
        <ele>1820.6</ele>
        <time>2022-07-18T15:25:12Z</time>
      </trkpt>
      <trkpt lat="44.41807" lon="7.10631">
        <ele>1820.8</ele>
        <time>2022-07-18T15:25:13Z</time>
      </trkpt>
      <trkpt lat="44.41805" lon="7.10631">
        <ele>1821</ele>
        <time>2022-07-18T15:25:14Z</time>
      </trkpt>
      <trkpt lat="44.41803" lon="7.10631">
        <ele>1821.2</ele>
        <time>2022-07-18T15:25:15Z</time>
      </trkpt>
      <trkpt lat="44.418" lon="7.10631">
        <ele>1821.4</ele>
        <time>2022-07-18T15:25:16Z</time>
      </trkpt>
      <trkpt lat="44.41798" lon="7.10631">
        <ele>1821.6</ele>
        <time>2022-07-18T15:25:17Z</time>
      </trkpt>
      <trkpt lat="44.41797" lon="7.10632">
        <ele>1821.8</ele>
        <time>2022-07-18T15:25:18Z</time>
      </trkpt>
      <trkpt lat="44.41795" lon="7.10633">
        <ele>1822.2</ele>
        <time>2022-07-18T15:25:19Z</time>
      </trkpt>
      <trkpt lat="44.41793" lon="7.10633">
        <ele>1822.4</ele>
        <time>2022-07-18T15:25:20Z</time>
      </trkpt>
      <trkpt lat="44.41791" lon="7.10634">
        <ele>1822.6</ele>
        <time>2022-07-18T15:25:21Z</time>
      </trkpt>
      <trkpt lat="44.41789" lon="7.10634">
        <ele>1823</ele>
        <time>2022-07-18T15:25:22Z</time>
      </trkpt>
      <trkpt lat="44.41787" lon="7.10635">
        <ele>1823.2</ele>
        <time>2022-07-18T15:25:23Z</time>
      </trkpt>
      <trkpt lat="44.41786" lon="7.10636">
        <ele>1823.4</ele>
        <time>2022-07-18T15:25:24Z</time>
      </trkpt>
      <trkpt lat="44.41784" lon="7.10637">
        <ele>1823.6</ele>
        <time>2022-07-18T15:25:25Z</time>
      </trkpt>
      <trkpt lat="44.41782" lon="7.10638">
        <ele>1823.6</ele>
        <time>2022-07-18T15:25:26Z</time>
      </trkpt>
      <trkpt lat="44.41781" lon="7.10639">
        <ele>1824.2</ele>
        <time>2022-07-18T15:25:27Z</time>
      </trkpt>
      <trkpt lat="44.41779" lon="7.1064">
        <ele>1824.2</ele>
        <time>2022-07-18T15:25:28Z</time>
      </trkpt>
      <trkpt lat="44.41777" lon="7.10641">
        <ele>1824.6</ele>
        <time>2022-07-18T15:25:29Z</time>
      </trkpt>
      <trkpt lat="44.41775" lon="7.10642">
        <ele>1824.8</ele>
        <time>2022-07-18T15:25:30Z</time>
      </trkpt>
      <trkpt lat="44.41774" lon="7.10643">
        <ele>1825</ele>
        <time>2022-07-18T15:25:31Z</time>
      </trkpt>
      <trkpt lat="44.41772" lon="7.10645">
        <ele>1825</ele>
        <time>2022-07-18T15:25:32Z</time>
      </trkpt>
      <trkpt lat="44.4177" lon="7.10646">
        <ele>1825.2</ele>
        <time>2022-07-18T15:25:33Z</time>
      </trkpt>
      <trkpt lat="44.41768" lon="7.10648">
        <ele>1825.2</ele>
        <time>2022-07-18T15:25:34Z</time>
      </trkpt>
      <trkpt lat="44.41767" lon="7.10649">
        <ele>1825.4</ele>
        <time>2022-07-18T15:25:35Z</time>
      </trkpt>
      <trkpt lat="44.41764" lon="7.1065">
        <ele>1825.4</ele>
        <time>2022-07-18T15:25:36Z</time>
      </trkpt>
      <trkpt lat="44.41762" lon="7.1065">
        <ele>1825.8</ele>
        <time>2022-07-18T15:25:37Z</time>
      </trkpt>
      <trkpt lat="44.4176" lon="7.1065">
        <ele>1825.8</ele>
        <time>2022-07-18T15:25:38Z</time>
      </trkpt>
      <trkpt lat="44.41758" lon="7.1065">
        <ele>1826</ele>
        <time>2022-07-18T15:25:39Z</time>
      </trkpt>
      <trkpt lat="44.41757" lon="7.10649">
        <ele>1826</ele>
        <time>2022-07-18T15:25:40Z</time>
      </trkpt>
      <trkpt lat="44.41755" lon="7.10648">
        <ele>1826.4</ele>
        <time>2022-07-18T15:25:41Z</time>
      </trkpt>
      <trkpt lat="44.41753" lon="7.10647">
        <ele>1826.6</ele>
        <time>2022-07-18T15:25:42Z</time>
      </trkpt>
      <trkpt lat="44.41751" lon="7.10646">
        <ele>1826.8</ele>
        <time>2022-07-18T15:25:43Z</time>
      </trkpt>
      <trkpt lat="44.4175" lon="7.10645">
        <ele>1826.8</ele>
        <time>2022-07-18T15:25:44Z</time>
      </trkpt>
      <trkpt lat="44.41748" lon="7.10644">
        <ele>1827.2</ele>
        <time>2022-07-18T15:25:45Z</time>
      </trkpt>
      <trkpt lat="44.41747" lon="7.10643">
        <ele>1827.2</ele>
        <time>2022-07-18T15:25:46Z</time>
      </trkpt>
      <trkpt lat="44.41745" lon="7.10642">
        <ele>1827.6</ele>
        <time>2022-07-18T15:25:47Z</time>
      </trkpt>
      <trkpt lat="44.41744" lon="7.10642">
        <ele>1827.6</ele>
        <time>2022-07-18T15:25:48Z</time>
      </trkpt>
      <trkpt lat="44.41742" lon="7.10641">
        <ele>1828</ele>
        <time>2022-07-18T15:25:49Z</time>
      </trkpt>
      <trkpt lat="44.4174" lon="7.10641">
        <ele>1828.2</ele>
        <time>2022-07-18T15:25:50Z</time>
      </trkpt>
      <trkpt lat="44.41738" lon="7.1064">
        <ele>1828.4</ele>
        <time>2022-07-18T15:25:51Z</time>
      </trkpt>
      <trkpt lat="44.41736" lon="7.10639">
        <ele>1828.4</ele>
        <time>2022-07-18T15:25:52Z</time>
      </trkpt>
      <trkpt lat="44.41734" lon="7.10639">
        <ele>1828.8</ele>
        <time>2022-07-18T15:25:53Z</time>
      </trkpt>
      <trkpt lat="44.41733" lon="7.10638">
        <ele>1828.8</ele>
        <time>2022-07-18T15:25:54Z</time>
      </trkpt>
      <trkpt lat="44.41731" lon="7.10638">
        <ele>1828.8</ele>
        <time>2022-07-18T15:25:55Z</time>
      </trkpt>
      <trkpt lat="44.41729" lon="7.10637">
        <ele>1829</ele>
        <time>2022-07-18T15:25:56Z</time>
      </trkpt>
      <trkpt lat="44.41728" lon="7.10637">
        <ele>1829</ele>
        <time>2022-07-18T15:25:57Z</time>
      </trkpt>
      <trkpt lat="44.41726" lon="7.10637">
        <ele>1829.4</ele>
        <time>2022-07-18T15:25:58Z</time>
      </trkpt>
      <trkpt lat="44.41725" lon="7.10637">
        <ele>1829.8</ele>
        <time>2022-07-18T15:25:59Z</time>
      </trkpt>
      <trkpt lat="44.41723" lon="7.10637">
        <ele>1830</ele>
        <time>2022-07-18T15:26:00Z</time>
      </trkpt>
      <trkpt lat="44.41721" lon="7.10636">
        <ele>1830</ele>
        <time>2022-07-18T15:26:01Z</time>
      </trkpt>
      <trkpt lat="44.41719" lon="7.10636">
        <ele>1830.4</ele>
        <time>2022-07-18T15:26:02Z</time>
      </trkpt>
      <trkpt lat="44.41718" lon="7.10636">
        <ele>1830.4</ele>
        <time>2022-07-18T15:26:03Z</time>
      </trkpt>
      <trkpt lat="44.41716" lon="7.10636">
        <ele>1830.8</ele>
        <time>2022-07-18T15:26:04Z</time>
      </trkpt>
      <trkpt lat="44.41715" lon="7.10636">
        <ele>1830.8</ele>
        <time>2022-07-18T15:26:05Z</time>
      </trkpt>
      <trkpt lat="44.41713" lon="7.10636">
        <ele>1831</ele>
        <time>2022-07-18T15:26:06Z</time>
      </trkpt>
      <trkpt lat="44.41711" lon="7.10636">
        <ele>1831</ele>
        <time>2022-07-18T15:26:07Z</time>
      </trkpt>
      <trkpt lat="44.41709" lon="7.10636">
        <ele>1831.4</ele>
        <time>2022-07-18T15:26:08Z</time>
      </trkpt>
      <trkpt lat="44.41708" lon="7.10636">
        <ele>1831.4</ele>
        <time>2022-07-18T15:26:09Z</time>
      </trkpt>
      <trkpt lat="44.41706" lon="7.10636">
        <ele>1831.6</ele>
        <time>2022-07-18T15:26:10Z</time>
      </trkpt>
      <trkpt lat="44.41704" lon="7.10637">
        <ele>1831.6</ele>
        <time>2022-07-18T15:26:11Z</time>
      </trkpt>
      <trkpt lat="44.41703" lon="7.10637">
        <ele>1832</ele>
        <time>2022-07-18T15:26:12Z</time>
      </trkpt>
      <trkpt lat="44.41701" lon="7.10638">
        <ele>1832</ele>
        <time>2022-07-18T15:26:13Z</time>
      </trkpt>
      <trkpt lat="44.41699" lon="7.10639">
        <ele>1832.2</ele>
        <time>2022-07-18T15:26:14Z</time>
      </trkpt>
      <trkpt lat="44.41697" lon="7.1064">
        <ele>1832.2</ele>
        <time>2022-07-18T15:26:15Z</time>
      </trkpt>
      <trkpt lat="44.41696" lon="7.1064">
        <ele>1832.4</ele>
        <time>2022-07-18T15:26:16Z</time>
      </trkpt>
      <trkpt lat="44.41694" lon="7.10641">
        <ele>1832.4</ele>
        <time>2022-07-18T15:26:17Z</time>
      </trkpt>
      <trkpt lat="44.41693" lon="7.10642">
        <ele>1832.8</ele>
        <time>2022-07-18T15:26:18Z</time>
      </trkpt>
      <trkpt lat="44.41691" lon="7.10642">
        <ele>1832.8</ele>
        <time>2022-07-18T15:26:19Z</time>
      </trkpt>
      <trkpt lat="44.41689" lon="7.10643">
        <ele>1833</ele>
        <time>2022-07-18T15:26:20Z</time>
      </trkpt>
      <trkpt lat="44.41688" lon="7.10644">
        <ele>1833.4</ele>
        <time>2022-07-18T15:26:21Z</time>
      </trkpt>
      <trkpt lat="44.41686" lon="7.10645">
        <ele>1833.4</ele>
        <time>2022-07-18T15:26:22Z</time>
      </trkpt>
      <trkpt lat="44.41685" lon="7.10646">
        <ele>1833.6</ele>
        <time>2022-07-18T15:26:23Z</time>
      </trkpt>
      <trkpt lat="44.41683" lon="7.10647">
        <ele>1833.6</ele>
        <time>2022-07-18T15:26:24Z</time>
      </trkpt>
      <trkpt lat="44.41682" lon="7.10648">
        <ele>1834</ele>
        <time>2022-07-18T15:26:25Z</time>
      </trkpt>
      <trkpt lat="44.41679" lon="7.10648">
        <ele>1834</ele>
        <time>2022-07-18T15:26:26Z</time>
      </trkpt>
      <trkpt lat="44.41677" lon="7.10648">
        <ele>1834.2</ele>
        <time>2022-07-18T15:26:27Z</time>
      </trkpt>
      <trkpt lat="44.41674" lon="7.10647">
        <ele>1834.2</ele>
        <time>2022-07-18T15:26:28Z</time>
      </trkpt>
      <trkpt lat="44.41672" lon="7.10645">
        <ele>1834.2</ele>
        <time>2022-07-18T15:26:29Z</time>
      </trkpt>
      <trkpt lat="44.4167" lon="7.10643">
        <ele>1834.4</ele>
        <time>2022-07-18T15:26:30Z</time>
      </trkpt>
      <trkpt lat="44.41668" lon="7.10641">
        <ele>1834.4</ele>
        <time>2022-07-18T15:26:31Z</time>
      </trkpt>
      <trkpt lat="44.41666" lon="7.10638">
        <ele>1834.6</ele>
        <time>2022-07-18T15:26:32Z</time>
      </trkpt>
      <trkpt lat="44.41665" lon="7.10635">
        <ele>1834.6</ele>
        <time>2022-07-18T15:26:33Z</time>
      </trkpt>
      <trkpt lat="44.41663" lon="7.10631">
        <ele>1834.6</ele>
        <time>2022-07-18T15:26:34Z</time>
      </trkpt>
      <trkpt lat="44.41662" lon="7.10628">
        <ele>1834.6</ele>
        <time>2022-07-18T15:26:35Z</time>
      </trkpt>
      <trkpt lat="44.4166" lon="7.10625">
        <ele>1834.6</ele>
        <time>2022-07-18T15:26:36Z</time>
      </trkpt>
      <trkpt lat="44.41659" lon="7.10622">
        <ele>1834.6</ele>
        <time>2022-07-18T15:26:37Z</time>
      </trkpt>
      <trkpt lat="44.41657" lon="7.10619">
        <ele>1834.8</ele>
        <time>2022-07-18T15:26:38Z</time>
      </trkpt>
      <trkpt lat="44.41655" lon="7.10616">
        <ele>1834.8</ele>
        <time>2022-07-18T15:26:39Z</time>
      </trkpt>
      <trkpt lat="44.41653" lon="7.10614">
        <ele>1834.8</ele>
        <time>2022-07-18T15:26:40Z</time>
      </trkpt>
      <trkpt lat="44.41651" lon="7.10612">
        <ele>1834.8</ele>
        <time>2022-07-18T15:26:41Z</time>
      </trkpt>
      <trkpt lat="44.41649" lon="7.10609">
        <ele>1834.8</ele>
        <time>2022-07-18T15:26:42Z</time>
      </trkpt>
      <trkpt lat="44.41647" lon="7.10607">
        <ele>1835</ele>
        <time>2022-07-18T15:26:43Z</time>
      </trkpt>
      <trkpt lat="44.41645" lon="7.10605">
        <ele>1835</ele>
        <time>2022-07-18T15:26:44Z</time>
      </trkpt>
      <trkpt lat="44.41643" lon="7.10603">
        <ele>1835.2</ele>
        <time>2022-07-18T15:26:45Z</time>
      </trkpt>
      <trkpt lat="44.41641" lon="7.10602">
        <ele>1835.2</ele>
        <time>2022-07-18T15:26:46Z</time>
      </trkpt>
      <trkpt lat="44.41639" lon="7.106">
        <ele>1835.6</ele>
        <time>2022-07-18T15:26:47Z</time>
      </trkpt>
      <trkpt lat="44.41638" lon="7.10598">
        <ele>1835.6</ele>
        <time>2022-07-18T15:26:48Z</time>
      </trkpt>
      <trkpt lat="44.41636" lon="7.10597">
        <ele>1836</ele>
        <time>2022-07-18T15:26:49Z</time>
      </trkpt>
      <trkpt lat="44.41635" lon="7.10596">
        <ele>1836.2</ele>
        <time>2022-07-18T15:26:50Z</time>
      </trkpt>
      <trkpt lat="44.41634" lon="7.10594">
        <ele>1836.4</ele>
        <time>2022-07-18T15:26:51Z</time>
      </trkpt>
      <trkpt lat="44.41632" lon="7.10593">
        <ele>1836.4</ele>
        <time>2022-07-18T15:26:52Z</time>
      </trkpt>
      <trkpt lat="44.41631" lon="7.10592">
        <ele>1836.8</ele>
        <time>2022-07-18T15:26:53Z</time>
      </trkpt>
      <trkpt lat="44.4163" lon="7.10591">
        <ele>1836.8</ele>
        <time>2022-07-18T15:26:54Z</time>
      </trkpt>
      <trkpt lat="44.41629" lon="7.10589">
        <ele>1837</ele>
        <time>2022-07-18T15:26:55Z</time>
      </trkpt>
      <trkpt lat="44.41628" lon="7.10588">
        <ele>1837</ele>
        <time>2022-07-18T15:26:56Z</time>
      </trkpt>
      <trkpt lat="44.41626" lon="7.10587">
        <ele>1837.4</ele>
        <time>2022-07-18T15:26:57Z</time>
      </trkpt>
      <trkpt lat="44.41624" lon="7.10584">
        <ele>1837.4</ele>
        <time>2022-07-18T15:26:58Z</time>
      </trkpt>
      <trkpt lat="44.41623" lon="7.10582">
        <ele>1837.8</ele>
        <time>2022-07-18T15:26:59Z</time>
      </trkpt>
      <trkpt lat="44.41622" lon="7.10579">
        <ele>1837.8</ele>
        <time>2022-07-18T15:27:00Z</time>
      </trkpt>
      <trkpt lat="44.4162" lon="7.10576">
        <ele>1838</ele>
        <time>2022-07-18T15:27:01Z</time>
      </trkpt>
      <trkpt lat="44.41619" lon="7.10574">
        <ele>1838.2</ele>
        <time>2022-07-18T15:27:02Z</time>
      </trkpt>
      <trkpt lat="44.41617" lon="7.10571">
        <ele>1838.6</ele>
        <time>2022-07-18T15:27:03Z</time>
      </trkpt>
      <trkpt lat="44.41616" lon="7.10569">
        <ele>1838.8</ele>
        <time>2022-07-18T15:27:04Z</time>
      </trkpt>
      <trkpt lat="44.41615" lon="7.10567">
        <ele>1839</ele>
        <time>2022-07-18T15:27:05Z</time>
      </trkpt>
      <trkpt lat="44.41614" lon="7.10565">
        <ele>1839.4</ele>
        <time>2022-07-18T15:27:06Z</time>
      </trkpt>
      <trkpt lat="44.41613" lon="7.10563">
        <ele>1839.6</ele>
        <time>2022-07-18T15:27:07Z</time>
      </trkpt>
      <trkpt lat="44.41611" lon="7.1056">
        <ele>1840</ele>
        <time>2022-07-18T15:27:08Z</time>
      </trkpt>
      <trkpt lat="44.4161" lon="7.10558">
        <ele>1840.4</ele>
        <time>2022-07-18T15:27:09Z</time>
      </trkpt>
      <trkpt lat="44.41609" lon="7.10556">
        <ele>1840.6</ele>
        <time>2022-07-18T15:27:10Z</time>
      </trkpt>
      <trkpt lat="44.41608" lon="7.10555">
        <ele>1841</ele>
        <time>2022-07-18T15:27:11Z</time>
      </trkpt>
      <trkpt lat="44.41607" lon="7.10553">
        <ele>1841.4</ele>
        <time>2022-07-18T15:27:12Z</time>
      </trkpt>
      <trkpt lat="44.41605" lon="7.10551">
        <ele>1841.8</ele>
        <time>2022-07-18T15:27:13Z</time>
      </trkpt>
      <trkpt lat="44.41604" lon="7.10548">
        <ele>1842</ele>
        <time>2022-07-18T15:27:14Z</time>
      </trkpt>
      <trkpt lat="44.41603" lon="7.10546">
        <ele>1842.4</ele>
        <time>2022-07-18T15:27:15Z</time>
      </trkpt>
      <trkpt lat="44.41603" lon="7.10543">
        <ele>1842.8</ele>
        <time>2022-07-18T15:27:16Z</time>
      </trkpt>
      <trkpt lat="44.41602" lon="7.10541">
        <ele>1843</ele>
        <time>2022-07-18T15:27:17Z</time>
      </trkpt>
      <trkpt lat="44.41601" lon="7.10539">
        <ele>1843.4</ele>
        <time>2022-07-18T15:27:18Z</time>
      </trkpt>
      <trkpt lat="44.416" lon="7.10536">
        <ele>1843.6</ele>
        <time>2022-07-18T15:27:19Z</time>
      </trkpt>
      <trkpt lat="44.41599" lon="7.10534">
        <ele>1843.8</ele>
        <time>2022-07-18T15:27:20Z</time>
      </trkpt>
      <trkpt lat="44.41598" lon="7.10532">
        <ele>1843.8</ele>
        <time>2022-07-18T15:27:21Z</time>
      </trkpt>
      <trkpt lat="44.41598" lon="7.1053">
        <ele>1844.2</ele>
        <time>2022-07-18T15:27:22Z</time>
      </trkpt>
      <trkpt lat="44.41597" lon="7.10528">
        <ele>1844.6</ele>
        <time>2022-07-18T15:27:23Z</time>
      </trkpt>
      <trkpt lat="44.41596" lon="7.10526">
        <ele>1844.8</ele>
        <time>2022-07-18T15:27:24Z</time>
      </trkpt>
      <trkpt lat="44.41595" lon="7.10525">
        <ele>1844.8</ele>
        <time>2022-07-18T15:27:25Z</time>
      </trkpt>
      <trkpt lat="44.41594" lon="7.10523">
        <ele>1844.8</ele>
        <time>2022-07-18T15:27:26Z</time>
      </trkpt>
      <trkpt lat="44.41593" lon="7.10521">
        <ele>1845.2</ele>
        <time>2022-07-18T15:27:27Z</time>
      </trkpt>
      <trkpt lat="44.41592" lon="7.10518">
        <ele>1845.2</ele>
        <time>2022-07-18T15:27:28Z</time>
      </trkpt>
      <trkpt lat="44.41591" lon="7.10516">
        <ele>1845.6</ele>
        <time>2022-07-18T15:27:29Z</time>
      </trkpt>
      <trkpt lat="44.4159" lon="7.10514">
        <ele>1845.6</ele>
        <time>2022-07-18T15:27:30Z</time>
      </trkpt>
      <trkpt lat="44.41589" lon="7.10512">
        <ele>1845.8</ele>
        <time>2022-07-18T15:27:31Z</time>
      </trkpt>
      <trkpt lat="44.41587" lon="7.10511">
        <ele>1845.8</ele>
        <time>2022-07-18T15:27:32Z</time>
      </trkpt>
      <trkpt lat="44.41586" lon="7.10509">
        <ele>1846.2</ele>
        <time>2022-07-18T15:27:33Z</time>
      </trkpt>
      <trkpt lat="44.41585" lon="7.10507">
        <ele>1846.2</ele>
        <time>2022-07-18T15:27:34Z</time>
      </trkpt>
      <trkpt lat="44.41584" lon="7.10505">
        <ele>1846.6</ele>
        <time>2022-07-18T15:27:35Z</time>
      </trkpt>
      <trkpt lat="44.41582" lon="7.10503">
        <ele>1846.6</ele>
        <time>2022-07-18T15:27:36Z</time>
      </trkpt>
      <trkpt lat="44.41581" lon="7.105">
        <ele>1846.8</ele>
        <time>2022-07-18T15:27:37Z</time>
      </trkpt>
      <trkpt lat="44.4158" lon="7.10498">
        <ele>1846.8</ele>
        <time>2022-07-18T15:27:38Z</time>
      </trkpt>
      <trkpt lat="44.41579" lon="7.10496">
        <ele>1847</ele>
        <time>2022-07-18T15:27:39Z</time>
      </trkpt>
      <trkpt lat="44.41577" lon="7.10494">
        <ele>1847</ele>
        <time>2022-07-18T15:27:40Z</time>
      </trkpt>
      <trkpt lat="44.41575" lon="7.10491">
        <ele>1847.4</ele>
        <time>2022-07-18T15:27:41Z</time>
      </trkpt>
      <trkpt lat="44.41573" lon="7.10489">
        <ele>1847.6</ele>
        <time>2022-07-18T15:27:42Z</time>
      </trkpt>
      <trkpt lat="44.41572" lon="7.10488">
        <ele>1847.8</ele>
        <time>2022-07-18T15:27:43Z</time>
      </trkpt>
      <trkpt lat="44.4157" lon="7.10486">
        <ele>1848</ele>
        <time>2022-07-18T15:27:44Z</time>
      </trkpt>
      <trkpt lat="44.41569" lon="7.10484">
        <ele>1848.2</ele>
        <time>2022-07-18T15:27:45Z</time>
      </trkpt>
      <trkpt lat="44.41567" lon="7.10482">
        <ele>1848.4</ele>
        <time>2022-07-18T15:27:46Z</time>
      </trkpt>
      <trkpt lat="44.41566" lon="7.10481">
        <ele>1848.8</ele>
        <time>2022-07-18T15:27:47Z</time>
      </trkpt>
      <trkpt lat="44.41564" lon="7.1048">
        <ele>1849</ele>
        <time>2022-07-18T15:27:48Z</time>
      </trkpt>
      <trkpt lat="44.41562" lon="7.10479">
        <ele>1849</ele>
        <time>2022-07-18T15:27:49Z</time>
      </trkpt>
      <trkpt lat="44.4156" lon="7.10478">
        <ele>1849.2</ele>
        <time>2022-07-18T15:27:50Z</time>
      </trkpt>
      <trkpt lat="44.41558" lon="7.10478">
        <ele>1849.2</ele>
        <time>2022-07-18T15:27:51Z</time>
      </trkpt>
      <trkpt lat="44.41557" lon="7.10477">
        <ele>1849.6</ele>
        <time>2022-07-18T15:27:52Z</time>
      </trkpt>
      <trkpt lat="44.41555" lon="7.10476">
        <ele>1849.6</ele>
        <time>2022-07-18T15:27:53Z</time>
      </trkpt>
      <trkpt lat="44.41554" lon="7.10475">
        <ele>1849.8</ele>
        <time>2022-07-18T15:27:54Z</time>
      </trkpt>
      <trkpt lat="44.41552" lon="7.10474">
        <ele>1850</ele>
        <time>2022-07-18T15:27:55Z</time>
      </trkpt>
      <trkpt lat="44.41551" lon="7.10473">
        <ele>1850</ele>
        <time>2022-07-18T15:27:56Z</time>
      </trkpt>
      <trkpt lat="44.41549" lon="7.10472">
        <ele>1850.4</ele>
        <time>2022-07-18T15:27:57Z</time>
      </trkpt>
      <trkpt lat="44.41547" lon="7.10472">
        <ele>1850.6</ele>
        <time>2022-07-18T15:27:58Z</time>
      </trkpt>
      <trkpt lat="44.41545" lon="7.10471">
        <ele>1850.6</ele>
        <time>2022-07-18T15:27:59Z</time>
      </trkpt>
      <trkpt lat="44.41544" lon="7.1047">
        <ele>1851</ele>
        <time>2022-07-18T15:28:00Z</time>
      </trkpt>
      <trkpt lat="44.41542" lon="7.10469">
        <ele>1851</ele>
        <time>2022-07-18T15:28:01Z</time>
      </trkpt>
      <trkpt lat="44.41541" lon="7.10468">
        <ele>1851.2</ele>
        <time>2022-07-18T15:28:02Z</time>
      </trkpt>
      <trkpt lat="44.41539" lon="7.10467">
        <ele>1851.2</ele>
        <time>2022-07-18T15:28:03Z</time>
      </trkpt>
      <trkpt lat="44.41538" lon="7.10466">
        <ele>1851.6</ele>
        <time>2022-07-18T15:28:04Z</time>
      </trkpt>
      <trkpt lat="44.41537" lon="7.10465">
        <ele>1851.6</ele>
        <time>2022-07-18T15:28:05Z</time>
      </trkpt>
      <trkpt lat="44.41536" lon="7.10463">
        <ele>1852</ele>
        <time>2022-07-18T15:28:06Z</time>
      </trkpt>
      <trkpt lat="44.41535" lon="7.10461">
        <ele>1852</ele>
        <time>2022-07-18T15:28:07Z</time>
      </trkpt>
      <trkpt lat="44.41533" lon="7.1046">
        <ele>1852.4</ele>
        <time>2022-07-18T15:28:08Z</time>
      </trkpt>
      <trkpt lat="44.41531" lon="7.10459">
        <ele>1852.6</ele>
        <time>2022-07-18T15:28:09Z</time>
      </trkpt>
      <trkpt lat="44.4153" lon="7.10458">
        <ele>1852.6</ele>
        <time>2022-07-18T15:28:10Z</time>
      </trkpt>
      <trkpt lat="44.41529" lon="7.10457">
        <ele>1853</ele>
        <time>2022-07-18T15:28:11Z</time>
      </trkpt>
      <trkpt lat="44.41527" lon="7.10455">
        <ele>1853</ele>
        <time>2022-07-18T15:28:12Z</time>
      </trkpt>
      <trkpt lat="44.41526" lon="7.10454">
        <ele>1853.2</ele>
        <time>2022-07-18T15:28:13Z</time>
      </trkpt>
      <trkpt lat="44.41525" lon="7.10452">
        <ele>1853.4</ele>
        <time>2022-07-18T15:28:14Z</time>
      </trkpt>
      <trkpt lat="44.41524" lon="7.10451">
        <ele>1853.6</ele>
        <time>2022-07-18T15:28:15Z</time>
      </trkpt>
      <trkpt lat="44.41523" lon="7.10449">
        <ele>1853.8</ele>
        <time>2022-07-18T15:28:16Z</time>
      </trkpt>
      <trkpt lat="44.41522" lon="7.10448">
        <ele>1853.8</ele>
        <time>2022-07-18T15:28:17Z</time>
      </trkpt>
      <trkpt lat="44.41521" lon="7.10447">
        <ele>1854.2</ele>
        <time>2022-07-18T15:28:18Z</time>
      </trkpt>
      <trkpt lat="44.41519" lon="7.10445">
        <ele>1854.2</ele>
        <time>2022-07-18T15:28:19Z</time>
      </trkpt>
      <trkpt lat="44.41518" lon="7.10443">
        <ele>1854.6</ele>
        <time>2022-07-18T15:28:20Z</time>
      </trkpt>
      <trkpt lat="44.41517" lon="7.10441">
        <ele>1854.6</ele>
        <time>2022-07-18T15:28:21Z</time>
      </trkpt>
      <trkpt lat="44.41516" lon="7.1044">
        <ele>1855</ele>
        <time>2022-07-18T15:28:22Z</time>
      </trkpt>
      <trkpt lat="44.41515" lon="7.10439">
        <ele>1855.2</ele>
        <time>2022-07-18T15:28:23Z</time>
      </trkpt>
      <trkpt lat="44.41513" lon="7.10438">
        <ele>1855.2</ele>
        <time>2022-07-18T15:28:24Z</time>
      </trkpt>
      <trkpt lat="44.41512" lon="7.10437">
        <ele>1855.4</ele>
        <time>2022-07-18T15:28:25Z</time>
      </trkpt>
      <trkpt lat="44.41511" lon="7.10437">
        <ele>1855.4</ele>
        <time>2022-07-18T15:28:26Z</time>
      </trkpt>
      <trkpt lat="44.41509" lon="7.10438">
        <ele>1855.8</ele>
        <time>2022-07-18T15:28:27Z</time>
      </trkpt>
      <trkpt lat="44.41508" lon="7.1044">
        <ele>1855.8</ele>
        <time>2022-07-18T15:28:28Z</time>
      </trkpt>
      <trkpt lat="44.41507" lon="7.10441">
        <ele>1856</ele>
        <time>2022-07-18T15:28:29Z</time>
      </trkpt>
      <trkpt lat="44.41506" lon="7.10443">
        <ele>1856</ele>
        <time>2022-07-18T15:28:30Z</time>
      </trkpt>
      <trkpt lat="44.41506" lon="7.10445">
        <ele>1856.2</ele>
        <time>2022-07-18T15:28:31Z</time>
      </trkpt>
      <trkpt lat="44.41506" lon="7.10448">
        <ele>1856.2</ele>
        <time>2022-07-18T15:28:32Z</time>
      </trkpt>
      <trkpt lat="44.41506" lon="7.1045">
        <ele>1856.6</ele>
        <time>2022-07-18T15:28:33Z</time>
      </trkpt>
      <trkpt lat="44.41505" lon="7.10452">
        <ele>1856.8</ele>
        <time>2022-07-18T15:28:34Z</time>
      </trkpt>
      <trkpt lat="44.41504" lon="7.10454">
        <ele>1856.8</ele>
        <time>2022-07-18T15:28:35Z</time>
      </trkpt>
      <trkpt lat="44.41504" lon="7.10456">
        <ele>1857.2</ele>
        <time>2022-07-18T15:28:36Z</time>
      </trkpt>
      <trkpt lat="44.41504" lon="7.10458">
        <ele>1857.4</ele>
        <time>2022-07-18T15:28:37Z</time>
      </trkpt>
      <trkpt lat="44.41503" lon="7.1046">
        <ele>1857.6</ele>
        <time>2022-07-18T15:28:38Z</time>
      </trkpt>
      <trkpt lat="44.41503" lon="7.10462">
        <ele>1857.6</ele>
        <time>2022-07-18T15:28:39Z</time>
      </trkpt>
      <trkpt lat="44.41502" lon="7.10465">
        <ele>1858</ele>
        <time>2022-07-18T15:28:40Z</time>
      </trkpt>
      <trkpt lat="44.41502" lon="7.10468">
        <ele>1858</ele>
        <time>2022-07-18T15:28:41Z</time>
      </trkpt>
      <trkpt lat="44.41502" lon="7.10471">
        <ele>1858.2</ele>
        <time>2022-07-18T15:28:42Z</time>
      </trkpt>
      <trkpt lat="44.41501" lon="7.10473">
        <ele>1858.2</ele>
        <time>2022-07-18T15:28:43Z</time>
      </trkpt>
      <trkpt lat="44.41501" lon="7.10475">
        <ele>1858.6</ele>
        <time>2022-07-18T15:28:44Z</time>
      </trkpt>
      <trkpt lat="44.415" lon="7.10478">
        <ele>1858.6</ele>
        <time>2022-07-18T15:28:45Z</time>
      </trkpt>
      <trkpt lat="44.41499" lon="7.1048">
        <ele>1858.6</ele>
        <time>2022-07-18T15:28:46Z</time>
      </trkpt>
      <trkpt lat="44.41499" lon="7.10483">
        <ele>1858.8</ele>
        <time>2022-07-18T15:28:47Z</time>
      </trkpt>
      <trkpt lat="44.41498" lon="7.10485">
        <ele>1858.8</ele>
        <time>2022-07-18T15:28:48Z</time>
      </trkpt>
      <trkpt lat="44.41497" lon="7.10487">
        <ele>1859.2</ele>
        <time>2022-07-18T15:28:49Z</time>
      </trkpt>
      <trkpt lat="44.41495" lon="7.10489">
        <ele>1859.2</ele>
        <time>2022-07-18T15:28:50Z</time>
      </trkpt>
      <trkpt lat="44.41494" lon="7.10491">
        <ele>1859.4</ele>
        <time>2022-07-18T15:28:51Z</time>
      </trkpt>
      <trkpt lat="44.41493" lon="7.10493">
        <ele>1859.4</ele>
        <time>2022-07-18T15:28:52Z</time>
      </trkpt>
      <trkpt lat="44.41492" lon="7.10495">
        <ele>1859.4</ele>
        <time>2022-07-18T15:28:53Z</time>
      </trkpt>
      <trkpt lat="44.41491" lon="7.10498">
        <ele>1859.8</ele>
        <time>2022-07-18T15:28:54Z</time>
      </trkpt>
      <trkpt lat="44.4149" lon="7.105">
        <ele>1859.8</ele>
        <time>2022-07-18T15:28:55Z</time>
      </trkpt>
      <trkpt lat="44.41489" lon="7.10503">
        <ele>1860</ele>
        <time>2022-07-18T15:28:56Z</time>
      </trkpt>
      <trkpt lat="44.41487" lon="7.10505">
        <ele>1860</ele>
        <time>2022-07-18T15:28:57Z</time>
      </trkpt>
      <trkpt lat="44.41486" lon="7.10507">
        <ele>1860.2</ele>
        <time>2022-07-18T15:28:58Z</time>
      </trkpt>
      <trkpt lat="44.41485" lon="7.10509">
        <ele>1860.2</ele>
        <time>2022-07-18T15:28:59Z</time>
      </trkpt>
      <trkpt lat="44.41485" lon="7.10511">
        <ele>1860.6</ele>
        <time>2022-07-18T15:29:00Z</time>
      </trkpt>
      <trkpt lat="44.41484" lon="7.10513">
        <ele>1860.6</ele>
        <time>2022-07-18T15:29:01Z</time>
      </trkpt>
      <trkpt lat="44.41483" lon="7.10516">
        <ele>1861</ele>
        <time>2022-07-18T15:29:02Z</time>
      </trkpt>
      <trkpt lat="44.41482" lon="7.10518">
        <ele>1861</ele>
        <time>2022-07-18T15:29:03Z</time>
      </trkpt>
      <trkpt lat="44.41482" lon="7.1052">
        <ele>1861.4</ele>
        <time>2022-07-18T15:29:04Z</time>
      </trkpt>
      <trkpt lat="44.41481" lon="7.10523">
        <ele>1861.4</ele>
        <time>2022-07-18T15:29:05Z</time>
      </trkpt>
      <trkpt lat="44.4148" lon="7.10525">
        <ele>1861.6</ele>
        <time>2022-07-18T15:29:06Z</time>
      </trkpt>
      <trkpt lat="44.41479" lon="7.10527">
        <ele>1861.6</ele>
        <time>2022-07-18T15:29:07Z</time>
      </trkpt>
      <trkpt lat="44.41478" lon="7.1053">
        <ele>1862</ele>
        <time>2022-07-18T15:29:08Z</time>
      </trkpt>
      <trkpt lat="44.41477" lon="7.10532">
        <ele>1862</ele>
        <time>2022-07-18T15:29:09Z</time>
      </trkpt>
      <trkpt lat="44.41475" lon="7.10536">
        <ele>1862</ele>
        <time>2022-07-18T15:29:10Z</time>
      </trkpt>
      <trkpt lat="44.41473" lon="7.10539">
        <ele>1862</ele>
        <time>2022-07-18T15:29:11Z</time>
      </trkpt>
      <trkpt lat="44.41472" lon="7.10542">
        <ele>1862</ele>
        <time>2022-07-18T15:29:12Z</time>
      </trkpt>
      <trkpt lat="44.4147" lon="7.10545">
        <ele>1862</ele>
        <time>2022-07-18T15:29:13Z</time>
      </trkpt>
      <trkpt lat="44.41469" lon="7.10548">
        <ele>1862</ele>
        <time>2022-07-18T15:29:14Z</time>
      </trkpt>
      <trkpt lat="44.41468" lon="7.10551">
        <ele>1862.2</ele>
        <time>2022-07-18T15:29:15Z</time>
      </trkpt>
      <trkpt lat="44.41467" lon="7.10553">
        <ele>1862.2</ele>
        <time>2022-07-18T15:29:16Z</time>
      </trkpt>
      <trkpt lat="44.41467" lon="7.10555">
        <ele>1862.6</ele>
        <time>2022-07-18T15:29:17Z</time>
      </trkpt>
      <trkpt lat="44.41467" lon="7.10557">
        <ele>1862.6</ele>
        <time>2022-07-18T15:29:18Z</time>
      </trkpt>
      <trkpt lat="44.41466" lon="7.1056">
        <ele>1862.8</ele>
        <time>2022-07-18T15:29:19Z</time>
      </trkpt>
      <trkpt lat="44.41466" lon="7.10562">
        <ele>1862.8</ele>
        <time>2022-07-18T15:29:20Z</time>
      </trkpt>
      <trkpt lat="44.41465" lon="7.10564">
        <ele>1863</ele>
        <time>2022-07-18T15:29:21Z</time>
      </trkpt>
      <trkpt lat="44.41464" lon="7.10567">
        <ele>1863</ele>
        <time>2022-07-18T15:29:22Z</time>
      </trkpt>
      <trkpt lat="44.41463" lon="7.10569">
        <ele>1863.2</ele>
        <time>2022-07-18T15:29:23Z</time>
      </trkpt>
      <trkpt lat="44.41461" lon="7.10572">
        <ele>1863.2</ele>
        <time>2022-07-18T15:29:24Z</time>
      </trkpt>
      <trkpt lat="44.4146" lon="7.10574">
        <ele>1863.4</ele>
        <time>2022-07-18T15:29:25Z</time>
      </trkpt>
      <trkpt lat="44.41458" lon="7.10576">
        <ele>1863.4</ele>
        <time>2022-07-18T15:29:26Z</time>
      </trkpt>
      <trkpt lat="44.41457" lon="7.10578">
        <ele>1863.4</ele>
        <time>2022-07-18T15:29:27Z</time>
      </trkpt>
      <trkpt lat="44.41455" lon="7.1058">
        <ele>1863.8</ele>
        <time>2022-07-18T15:29:28Z</time>
      </trkpt>
      <trkpt lat="44.41453" lon="7.10581">
        <ele>1863.8</ele>
        <time>2022-07-18T15:29:29Z</time>
      </trkpt>
      <trkpt lat="44.41451" lon="7.10583">
        <ele>1864</ele>
        <time>2022-07-18T15:29:30Z</time>
      </trkpt>
      <trkpt lat="44.4145" lon="7.10584">
        <ele>1864</ele>
        <time>2022-07-18T15:29:31Z</time>
      </trkpt>
      <trkpt lat="44.41448" lon="7.10585">
        <ele>1864.4</ele>
        <time>2022-07-18T15:29:32Z</time>
      </trkpt>
      <trkpt lat="44.41447" lon="7.10587">
        <ele>1864.4</ele>
        <time>2022-07-18T15:29:33Z</time>
      </trkpt>
      <trkpt lat="44.41446" lon="7.10589">
        <ele>1864.6</ele>
        <time>2022-07-18T15:29:34Z</time>
      </trkpt>
      <trkpt lat="44.41444" lon="7.10591">
        <ele>1864.6</ele>
        <time>2022-07-18T15:29:35Z</time>
      </trkpt>
      <trkpt lat="44.41443" lon="7.10592">
        <ele>1864.8</ele>
        <time>2022-07-18T15:29:36Z</time>
      </trkpt>
      <trkpt lat="44.41441" lon="7.10594">
        <ele>1864.8</ele>
        <time>2022-07-18T15:29:37Z</time>
      </trkpt>
      <trkpt lat="44.4144" lon="7.10596">
        <ele>1865.2</ele>
        <time>2022-07-18T15:29:38Z</time>
      </trkpt>
      <trkpt lat="44.41438" lon="7.10598">
        <ele>1865.2</ele>
        <time>2022-07-18T15:29:39Z</time>
      </trkpt>
      <trkpt lat="44.41436" lon="7.106">
        <ele>1865.4</ele>
        <time>2022-07-18T15:29:40Z</time>
      </trkpt>
      <trkpt lat="44.41435" lon="7.10602">
        <ele>1865.4</ele>
        <time>2022-07-18T15:29:41Z</time>
      </trkpt>
      <trkpt lat="44.41433" lon="7.10604">
        <ele>1865.4</ele>
        <time>2022-07-18T15:29:42Z</time>
      </trkpt>
      <trkpt lat="44.41432" lon="7.10606">
        <ele>1865.6</ele>
        <time>2022-07-18T15:29:43Z</time>
      </trkpt>
      <trkpt lat="44.4143" lon="7.10608">
        <ele>1865.6</ele>
        <time>2022-07-18T15:29:44Z</time>
      </trkpt>
      <trkpt lat="44.41429" lon="7.1061">
        <ele>1866</ele>
        <time>2022-07-18T15:29:45Z</time>
      </trkpt>
      <trkpt lat="44.41427" lon="7.10612">
        <ele>1866</ele>
        <time>2022-07-18T15:29:46Z</time>
      </trkpt>
      <trkpt lat="44.41425" lon="7.10614">
        <ele>1866.2</ele>
        <time>2022-07-18T15:29:47Z</time>
      </trkpt>
      <trkpt lat="44.41423" lon="7.10616">
        <ele>1866.2</ele>
        <time>2022-07-18T15:29:48Z</time>
      </trkpt>
      <trkpt lat="44.41421" lon="7.10618">
        <ele>1866.6</ele>
        <time>2022-07-18T15:29:49Z</time>
      </trkpt>
      <trkpt lat="44.4142" lon="7.10619">
        <ele>1866.6</ele>
        <time>2022-07-18T15:29:50Z</time>
      </trkpt>
      <trkpt lat="44.41418" lon="7.1062">
        <ele>1866.8</ele>
        <time>2022-07-18T15:29:51Z</time>
      </trkpt>
      <trkpt lat="44.41417" lon="7.1062">
        <ele>1866.8</ele>
        <time>2022-07-18T15:29:52Z</time>
      </trkpt>
      <trkpt lat="44.41415" lon="7.1062">
        <ele>1867</ele>
        <time>2022-07-18T15:29:53Z</time>
      </trkpt>
      <trkpt lat="44.41414" lon="7.1062">
        <ele>1867</ele>
        <time>2022-07-18T15:29:54Z</time>
      </trkpt>
      <trkpt lat="44.41412" lon="7.1062">
        <ele>1867.2</ele>
        <time>2022-07-18T15:29:55Z</time>
      </trkpt>
      <trkpt lat="44.4141" lon="7.10621">
        <ele>1867.2</ele>
        <time>2022-07-18T15:29:56Z</time>
      </trkpt>
      <trkpt lat="44.41408" lon="7.10621">
        <ele>1867.6</ele>
        <time>2022-07-18T15:29:57Z</time>
      </trkpt>
      <trkpt lat="44.41406" lon="7.10622">
        <ele>1867.6</ele>
        <time>2022-07-18T15:29:58Z</time>
      </trkpt>
      <trkpt lat="44.41405" lon="7.10623">
        <ele>1868</ele>
        <time>2022-07-18T15:29:59Z</time>
      </trkpt>
      <trkpt lat="44.41403" lon="7.10624">
        <ele>1868</ele>
        <time>2022-07-18T15:30:00Z</time>
      </trkpt>
      <trkpt lat="44.41401" lon="7.10626">
        <ele>1868.2</ele>
        <time>2022-07-18T15:30:01Z</time>
      </trkpt>
      <trkpt lat="44.41399" lon="7.10627">
        <ele>1868.2</ele>
        <time>2022-07-18T15:30:02Z</time>
      </trkpt>
      <trkpt lat="44.41397" lon="7.10628">
        <ele>1868.2</ele>
        <time>2022-07-18T15:30:03Z</time>
      </trkpt>
      <trkpt lat="44.41394" lon="7.1063">
        <ele>1868.4</ele>
        <time>2022-07-18T15:30:04Z</time>
      </trkpt>
      <trkpt lat="44.41393" lon="7.10632">
        <ele>1868.4</ele>
        <time>2022-07-18T15:30:05Z</time>
      </trkpt>
      <trkpt lat="44.41391" lon="7.10634">
        <ele>1868.8</ele>
        <time>2022-07-18T15:30:06Z</time>
      </trkpt>
      <trkpt lat="44.41389" lon="7.10635">
        <ele>1869</ele>
        <time>2022-07-18T15:30:07Z</time>
      </trkpt>
      <trkpt lat="44.41388" lon="7.10637">
        <ele>1869.2</ele>
        <time>2022-07-18T15:30:09Z</time>
      </trkpt>
      <trkpt lat="44.41386" lon="7.10639">
        <ele>1869.2</ele>
        <time>2022-07-18T15:30:10Z</time>
      </trkpt>
      <trkpt lat="44.41384" lon="7.1064">
        <ele>1869.2</ele>
        <time>2022-07-18T15:30:11Z</time>
      </trkpt>
      <trkpt lat="44.41381" lon="7.10643">
        <ele>1869.4</ele>
        <time>2022-07-18T15:30:12Z</time>
      </trkpt>
      <trkpt lat="44.41379" lon="7.10644">
        <ele>1869.4</ele>
        <time>2022-07-18T15:30:13Z</time>
      </trkpt>
      <trkpt lat="44.41377" lon="7.10644">
        <ele>1869.8</ele>
        <time>2022-07-18T15:30:14Z</time>
      </trkpt>
      <trkpt lat="44.41375" lon="7.10645">
        <ele>1869.8</ele>
        <time>2022-07-18T15:30:15Z</time>
      </trkpt>
      <trkpt lat="44.41373" lon="7.10645">
        <ele>1869.8</ele>
        <time>2022-07-18T15:30:16Z</time>
      </trkpt>
      <trkpt lat="44.41371" lon="7.10646">
        <ele>1870.2</ele>
        <time>2022-07-18T15:30:17Z</time>
      </trkpt>
      <trkpt lat="44.41369" lon="7.10646">
        <ele>1870.2</ele>
        <time>2022-07-18T15:30:18Z</time>
      </trkpt>
      <trkpt lat="44.41367" lon="7.10646">
        <ele>1870.6</ele>
        <time>2022-07-18T15:30:19Z</time>
      </trkpt>
      <trkpt lat="44.41365" lon="7.10646">
        <ele>1870.6</ele>
        <time>2022-07-18T15:30:20Z</time>
      </trkpt>
      <trkpt lat="44.41364" lon="7.10646">
        <ele>1870.8</ele>
        <time>2022-07-18T15:30:21Z</time>
      </trkpt>
      <trkpt lat="44.41362" lon="7.10646">
        <ele>1870.8</ele>
        <time>2022-07-18T15:30:22Z</time>
      </trkpt>
      <trkpt lat="44.4136" lon="7.10647">
        <ele>1870.8</ele>
        <time>2022-07-18T15:30:23Z</time>
      </trkpt>
      <trkpt lat="44.41358" lon="7.10647">
        <ele>1871</ele>
        <time>2022-07-18T15:30:24Z</time>
      </trkpt>
      <trkpt lat="44.41356" lon="7.10648">
        <ele>1871</ele>
        <time>2022-07-18T15:30:25Z</time>
      </trkpt>
      <trkpt lat="44.41354" lon="7.10648">
        <ele>1871.4</ele>
        <time>2022-07-18T15:30:26Z</time>
      </trkpt>
      <trkpt lat="44.41353" lon="7.10649">
        <ele>1871.4</ele>
        <time>2022-07-18T15:30:27Z</time>
      </trkpt>
      <trkpt lat="44.41351" lon="7.1065">
        <ele>1871.4</ele>
        <time>2022-07-18T15:30:28Z</time>
      </trkpt>
      <trkpt lat="44.41349" lon="7.10651">
        <ele>1871.6</ele>
        <time>2022-07-18T15:30:29Z</time>
      </trkpt>
      <trkpt lat="44.41347" lon="7.10651">
        <ele>1871.6</ele>
        <time>2022-07-18T15:30:30Z</time>
      </trkpt>
      <trkpt lat="44.41345" lon="7.10651">
        <ele>1871.8</ele>
        <time>2022-07-18T15:30:31Z</time>
      </trkpt>
      <trkpt lat="44.41343" lon="7.10651">
        <ele>1871.8</ele>
        <time>2022-07-18T15:30:32Z</time>
      </trkpt>
      <trkpt lat="44.41341" lon="7.10651">
        <ele>1872.2</ele>
        <time>2022-07-18T15:30:33Z</time>
      </trkpt>
      <trkpt lat="44.41339" lon="7.10651">
        <ele>1872.2</ele>
        <time>2022-07-18T15:30:34Z</time>
      </trkpt>
      <trkpt lat="44.41337" lon="7.10651">
        <ele>1872.4</ele>
        <time>2022-07-18T15:30:35Z</time>
      </trkpt>
      <trkpt lat="44.41335" lon="7.10652">
        <ele>1872.4</ele>
        <time>2022-07-18T15:30:36Z</time>
      </trkpt>
      <trkpt lat="44.41333" lon="7.10653">
        <ele>1872.4</ele>
        <time>2022-07-18T15:30:37Z</time>
      </trkpt>
      <trkpt lat="44.4133" lon="7.10654">
        <ele>1872.8</ele>
        <time>2022-07-18T15:30:38Z</time>
      </trkpt>
      <trkpt lat="44.41328" lon="7.10655">
        <ele>1872.8</ele>
        <time>2022-07-18T15:30:39Z</time>
      </trkpt>
      <trkpt lat="44.41326" lon="7.10658">
        <ele>1873</ele>
        <time>2022-07-18T15:30:40Z</time>
      </trkpt>
      <trkpt lat="44.41325" lon="7.1066">
        <ele>1873</ele>
        <time>2022-07-18T15:30:41Z</time>
      </trkpt>
      <trkpt lat="44.41323" lon="7.10663">
        <ele>1873.2</ele>
        <time>2022-07-18T15:30:42Z</time>
      </trkpt>
      <trkpt lat="44.41322" lon="7.10667">
        <ele>1873.2</ele>
        <time>2022-07-18T15:30:43Z</time>
      </trkpt>
      <trkpt lat="44.41321" lon="7.10669">
        <ele>1873.4</ele>
        <time>2022-07-18T15:30:44Z</time>
      </trkpt>
      <trkpt lat="44.4132" lon="7.10672">
        <ele>1873.4</ele>
        <time>2022-07-18T15:30:45Z</time>
      </trkpt>
      <trkpt lat="44.41319" lon="7.10675">
        <ele>1873.4</ele>
        <time>2022-07-18T15:30:46Z</time>
      </trkpt>
      <trkpt lat="44.41317" lon="7.10678">
        <ele>1873.6</ele>
        <time>2022-07-18T15:30:47Z</time>
      </trkpt>
      <trkpt lat="44.41316" lon="7.10682">
        <ele>1873.6</ele>
        <time>2022-07-18T15:30:48Z</time>
      </trkpt>
      <trkpt lat="44.41315" lon="7.10685">
        <ele>1873.6</ele>
        <time>2022-07-18T15:30:49Z</time>
      </trkpt>
      <trkpt lat="44.41314" lon="7.10689">
        <ele>1873.8</ele>
        <time>2022-07-18T15:30:50Z</time>
      </trkpt>
      <trkpt lat="44.41313" lon="7.10693">
        <ele>1873.8</ele>
        <time>2022-07-18T15:30:51Z</time>
      </trkpt>
      <trkpt lat="44.41311" lon="7.10697">
        <ele>1874</ele>
        <time>2022-07-18T15:30:52Z</time>
      </trkpt>
      <trkpt lat="44.4131" lon="7.10701">
        <ele>1874</ele>
        <time>2022-07-18T15:30:53Z</time>
      </trkpt>
      <trkpt lat="44.41308" lon="7.10704">
        <ele>1874</ele>
        <time>2022-07-18T15:30:54Z</time>
      </trkpt>
      <trkpt lat="44.41306" lon="7.10707">
        <ele>1874.4</ele>
        <time>2022-07-18T15:30:55Z</time>
      </trkpt>
      <trkpt lat="44.41304" lon="7.1071">
        <ele>1874.4</ele>
        <time>2022-07-18T15:30:56Z</time>
      </trkpt>
      <trkpt lat="44.41302" lon="7.10713">
        <ele>1874.6</ele>
        <time>2022-07-18T15:30:57Z</time>
      </trkpt>
      <trkpt lat="44.413" lon="7.10716">
        <ele>1874.6</ele>
        <time>2022-07-18T15:30:58Z</time>
      </trkpt>
      <trkpt lat="44.41298" lon="7.10719">
        <ele>1875</ele>
        <time>2022-07-18T15:30:59Z</time>
      </trkpt>
      <trkpt lat="44.41295" lon="7.10722">
        <ele>1875</ele>
        <time>2022-07-18T15:31:00Z</time>
      </trkpt>
      <trkpt lat="44.41293" lon="7.10724">
        <ele>1875.2</ele>
        <time>2022-07-18T15:31:01Z</time>
      </trkpt>
      <trkpt lat="44.4129" lon="7.10727">
        <ele>1875.2</ele>
        <time>2022-07-18T15:31:02Z</time>
      </trkpt>
      <trkpt lat="44.41288" lon="7.10729">
        <ele>1875.4</ele>
        <time>2022-07-18T15:31:03Z</time>
      </trkpt>
      <trkpt lat="44.41285" lon="7.10731">
        <ele>1875.4</ele>
        <time>2022-07-18T15:31:04Z</time>
      </trkpt>
      <trkpt lat="44.41283" lon="7.10734">
        <ele>1875.8</ele>
        <time>2022-07-18T15:31:05Z</time>
      </trkpt>
      <trkpt lat="44.4128" lon="7.10737">
        <ele>1875.8</ele>
        <time>2022-07-18T15:31:06Z</time>
      </trkpt>
      <trkpt lat="44.41278" lon="7.10739">
        <ele>1876</ele>
        <time>2022-07-18T15:31:07Z</time>
      </trkpt>
      <trkpt lat="44.41276" lon="7.10742">
        <ele>1876</ele>
        <time>2022-07-18T15:31:08Z</time>
      </trkpt>
      <trkpt lat="44.41274" lon="7.10745">
        <ele>1876.4</ele>
        <time>2022-07-18T15:31:09Z</time>
      </trkpt>
      <trkpt lat="44.41272" lon="7.10748">
        <ele>1876.4</ele>
        <time>2022-07-18T15:31:10Z</time>
      </trkpt>
      <trkpt lat="44.41271" lon="7.10752">
        <ele>1876.6</ele>
        <time>2022-07-18T15:31:11Z</time>
      </trkpt>
      <trkpt lat="44.4127" lon="7.10756">
        <ele>1876.6</ele>
        <time>2022-07-18T15:31:12Z</time>
      </trkpt>
      <trkpt lat="44.4127" lon="7.1076">
        <ele>1876.6</ele>
        <time>2022-07-18T15:31:13Z</time>
      </trkpt>
      <trkpt lat="44.41269" lon="7.10765">
        <ele>1876.8</ele>
        <time>2022-07-18T15:31:14Z</time>
      </trkpt>
      <trkpt lat="44.41269" lon="7.10769">
        <ele>1876.8</ele>
        <time>2022-07-18T15:31:15Z</time>
      </trkpt>
      <trkpt lat="44.41269" lon="7.10773">
        <ele>1876.8</ele>
        <time>2022-07-18T15:31:16Z</time>
      </trkpt>
      <trkpt lat="44.41269" lon="7.10778">
        <ele>1877</ele>
        <time>2022-07-18T15:31:17Z</time>
      </trkpt>
      <trkpt lat="44.41268" lon="7.10782">
        <ele>1877</ele>
        <time>2022-07-18T15:31:18Z</time>
      </trkpt>
      <trkpt lat="44.41267" lon="7.10786">
        <ele>1877.2</ele>
        <time>2022-07-18T15:31:19Z</time>
      </trkpt>
      <trkpt lat="44.41266" lon="7.1079">
        <ele>1877.2</ele>
        <time>2022-07-18T15:31:20Z</time>
      </trkpt>
      <trkpt lat="44.41265" lon="7.10794">
        <ele>1877.6</ele>
        <time>2022-07-18T15:31:21Z</time>
      </trkpt>
      <trkpt lat="44.41264" lon="7.10798">
        <ele>1877.6</ele>
        <time>2022-07-18T15:31:22Z</time>
      </trkpt>
      <trkpt lat="44.41262" lon="7.10801">
        <ele>1877.8</ele>
        <time>2022-07-18T15:31:23Z</time>
      </trkpt>
      <trkpt lat="44.41261" lon="7.10805">
        <ele>1877.8</ele>
        <time>2022-07-18T15:31:24Z</time>
      </trkpt>
      <trkpt lat="44.41259" lon="7.10809">
        <ele>1878</ele>
        <time>2022-07-18T15:31:25Z</time>
      </trkpt>
      <trkpt lat="44.41257" lon="7.10812">
        <ele>1878</ele>
        <time>2022-07-18T15:31:26Z</time>
      </trkpt>
      <trkpt lat="44.41255" lon="7.10816">
        <ele>1878</ele>
        <time>2022-07-18T15:31:27Z</time>
      </trkpt>
      <trkpt lat="44.41254" lon="7.1082">
        <ele>1878.4</ele>
        <time>2022-07-18T15:31:28Z</time>
      </trkpt>
      <trkpt lat="44.41253" lon="7.10824">
        <ele>1878.4</ele>
        <time>2022-07-18T15:31:29Z</time>
      </trkpt>
      <trkpt lat="44.41252" lon="7.10829">
        <ele>1878.4</ele>
        <time>2022-07-18T15:31:30Z</time>
      </trkpt>
      <trkpt lat="44.41251" lon="7.10833">
        <ele>1878.6</ele>
        <time>2022-07-18T15:31:31Z</time>
      </trkpt>
      <trkpt lat="44.41251" lon="7.10838">
        <ele>1878.6</ele>
        <time>2022-07-18T15:31:32Z</time>
      </trkpt>
      <trkpt lat="44.4125" lon="7.10842">
        <ele>1878.8</ele>
        <time>2022-07-18T15:31:33Z</time>
      </trkpt>
      <trkpt lat="44.4125" lon="7.10847">
        <ele>1878.8</ele>
        <time>2022-07-18T15:31:34Z</time>
      </trkpt>
      <trkpt lat="44.41251" lon="7.10851">
        <ele>1879</ele>
        <time>2022-07-18T15:31:35Z</time>
      </trkpt>
      <trkpt lat="44.41251" lon="7.10855">
        <ele>1879</ele>
        <time>2022-07-18T15:31:36Z</time>
      </trkpt>
      <trkpt lat="44.41252" lon="7.1086">
        <ele>1879.4</ele>
        <time>2022-07-18T15:31:37Z</time>
      </trkpt>
      <trkpt lat="44.41253" lon="7.10864">
        <ele>1879.4</ele>
        <time>2022-07-18T15:31:38Z</time>
      </trkpt>
      <trkpt lat="44.41254" lon="7.10868">
        <ele>1879.4</ele>
        <time>2022-07-18T15:31:39Z</time>
      </trkpt>
      <trkpt lat="44.41254" lon="7.10871">
        <ele>1879.6</ele>
        <time>2022-07-18T15:31:40Z</time>
      </trkpt>
      <trkpt lat="44.41255" lon="7.10875">
        <ele>1879.6</ele>
        <time>2022-07-18T15:31:41Z</time>
      </trkpt>
      <trkpt lat="44.41256" lon="7.10879">
        <ele>1879.6</ele>
        <time>2022-07-18T15:31:42Z</time>
      </trkpt>
      <trkpt lat="44.41257" lon="7.10882">
        <ele>1879.8</ele>
        <time>2022-07-18T15:31:43Z</time>
      </trkpt>
      <trkpt lat="44.41257" lon="7.10886">
        <ele>1879.8</ele>
        <time>2022-07-18T15:31:44Z</time>
      </trkpt>
      <trkpt lat="44.41258" lon="7.1089">
        <ele>1880.2</ele>
        <time>2022-07-18T15:31:45Z</time>
      </trkpt>
      <trkpt lat="44.41259" lon="7.10894">
        <ele>1880.2</ele>
        <time>2022-07-18T15:31:46Z</time>
      </trkpt>
      <trkpt lat="44.41259" lon="7.10898">
        <ele>1880.4</ele>
        <time>2022-07-18T15:31:47Z</time>
      </trkpt>
      <trkpt lat="44.4126" lon="7.10901">
        <ele>1880.4</ele>
        <time>2022-07-18T15:31:48Z</time>
      </trkpt>
      <trkpt lat="44.41261" lon="7.10905">
        <ele>1880.4</ele>
        <time>2022-07-18T15:31:49Z</time>
      </trkpt>
      <trkpt lat="44.41261" lon="7.10909">
        <ele>1880.8</ele>
        <time>2022-07-18T15:31:50Z</time>
      </trkpt>
      <trkpt lat="44.41262" lon="7.10912">
        <ele>1880.8</ele>
        <time>2022-07-18T15:31:51Z</time>
      </trkpt>
      <trkpt lat="44.41262" lon="7.10916">
        <ele>1881</ele>
        <time>2022-07-18T15:31:52Z</time>
      </trkpt>
      <trkpt lat="44.41262" lon="7.10919">
        <ele>1881.4</ele>
        <time>2022-07-18T15:31:53Z</time>
      </trkpt>
      <trkpt lat="44.41262" lon="7.10922">
        <ele>1881.4</ele>
        <time>2022-07-18T15:31:54Z</time>
      </trkpt>
      <trkpt lat="44.41261" lon="7.10926">
        <ele>1881.6</ele>
        <time>2022-07-18T15:31:55Z</time>
      </trkpt>
      <trkpt lat="44.4126" lon="7.10929">
        <ele>1881.6</ele>
        <time>2022-07-18T15:31:56Z</time>
      </trkpt>
      <trkpt lat="44.41259" lon="7.10932">
        <ele>1881.8</ele>
        <time>2022-07-18T15:31:57Z</time>
      </trkpt>
      <trkpt lat="44.41258" lon="7.10935">
        <ele>1881.8</ele>
        <time>2022-07-18T15:31:58Z</time>
      </trkpt>
      <trkpt lat="44.41256" lon="7.10937">
        <ele>1882.2</ele>
        <time>2022-07-18T15:31:59Z</time>
      </trkpt>
      <trkpt lat="44.41255" lon="7.10939">
        <ele>1882.2</ele>
        <time>2022-07-18T15:32:00Z</time>
      </trkpt>
      <trkpt lat="44.41253" lon="7.10941">
        <ele>1882.6</ele>
        <time>2022-07-18T15:32:01Z</time>
      </trkpt>
      <trkpt lat="44.41251" lon="7.10942">
        <ele>1882.6</ele>
        <time>2022-07-18T15:32:02Z</time>
      </trkpt>
      <trkpt lat="44.41249" lon="7.10944">
        <ele>1882.8</ele>
        <time>2022-07-18T15:32:03Z</time>
      </trkpt>
      <trkpt lat="44.41247" lon="7.10945">
        <ele>1882.8</ele>
        <time>2022-07-18T15:32:04Z</time>
      </trkpt>
      <trkpt lat="44.41245" lon="7.10947">
        <ele>1883</ele>
        <time>2022-07-18T15:32:05Z</time>
      </trkpt>
      <trkpt lat="44.41243" lon="7.10948">
        <ele>1883</ele>
        <time>2022-07-18T15:32:06Z</time>
      </trkpt>
      <trkpt lat="44.4124" lon="7.10949">
        <ele>1883</ele>
        <time>2022-07-18T15:32:07Z</time>
      </trkpt>
      <trkpt lat="44.41238" lon="7.10949">
        <ele>1883.2</ele>
        <time>2022-07-18T15:32:08Z</time>
      </trkpt>
      <trkpt lat="44.41235" lon="7.1095">
        <ele>1883.2</ele>
        <time>2022-07-18T15:32:09Z</time>
      </trkpt>
      <trkpt lat="44.41233" lon="7.10951">
        <ele>1883.2</ele>
        <time>2022-07-18T15:32:10Z</time>
      </trkpt>
      <trkpt lat="44.4123" lon="7.10952">
        <ele>1883.6</ele>
        <time>2022-07-18T15:32:11Z</time>
      </trkpt>
      <trkpt lat="44.41228" lon="7.10954">
        <ele>1883.6</ele>
        <time>2022-07-18T15:32:12Z</time>
      </trkpt>
      <trkpt lat="44.41226" lon="7.10955">
        <ele>1883.8</ele>
        <time>2022-07-18T15:32:13Z</time>
      </trkpt>
      <trkpt lat="44.41223" lon="7.10956">
        <ele>1883.8</ele>
        <time>2022-07-18T15:32:14Z</time>
      </trkpt>
      <trkpt lat="44.41221" lon="7.10958">
        <ele>1884</ele>
        <time>2022-07-18T15:32:15Z</time>
      </trkpt>
      <trkpt lat="44.41219" lon="7.10959">
        <ele>1884</ele>
        <time>2022-07-18T15:32:16Z</time>
      </trkpt>
      <trkpt lat="44.41217" lon="7.10961">
        <ele>1884.2</ele>
        <time>2022-07-18T15:32:17Z</time>
      </trkpt>
      <trkpt lat="44.41214" lon="7.10962">
        <ele>1884.2</ele>
        <time>2022-07-18T15:32:18Z</time>
      </trkpt>
      <trkpt lat="44.41212" lon="7.10963">
        <ele>1884.6</ele>
        <time>2022-07-18T15:32:19Z</time>
      </trkpt>
      <trkpt lat="44.41209" lon="7.10965">
        <ele>1884.6</ele>
        <time>2022-07-18T15:32:20Z</time>
      </trkpt>
      <trkpt lat="44.41207" lon="7.10966">
        <ele>1884.8</ele>
        <time>2022-07-18T15:32:21Z</time>
      </trkpt>
      <trkpt lat="44.41204" lon="7.10968">
        <ele>1884.8</ele>
        <time>2022-07-18T15:32:22Z</time>
      </trkpt>
      <trkpt lat="44.41201" lon="7.10969">
        <ele>1885</ele>
        <time>2022-07-18T15:32:23Z</time>
      </trkpt>
      <trkpt lat="44.41199" lon="7.1097">
        <ele>1885</ele>
        <time>2022-07-18T15:32:24Z</time>
      </trkpt>
      <trkpt lat="44.41196" lon="7.10971">
        <ele>1885.4</ele>
        <time>2022-07-18T15:32:25Z</time>
      </trkpt>
      <trkpt lat="44.41193" lon="7.10972">
        <ele>1885.4</ele>
        <time>2022-07-18T15:32:26Z</time>
      </trkpt>
      <trkpt lat="44.4119" lon="7.10973">
        <ele>1885.8</ele>
        <time>2022-07-18T15:32:27Z</time>
      </trkpt>
      <trkpt lat="44.41187" lon="7.10974">
        <ele>1886</ele>
        <time>2022-07-18T15:32:28Z</time>
      </trkpt>
      <trkpt lat="44.41185" lon="7.10974">
        <ele>1886.2</ele>
        <time>2022-07-18T15:32:29Z</time>
      </trkpt>
      <trkpt lat="44.41182" lon="7.10975">
        <ele>1886.2</ele>
        <time>2022-07-18T15:32:30Z</time>
      </trkpt>
      <trkpt lat="44.41179" lon="7.10975">
        <ele>1886.4</ele>
        <time>2022-07-18T15:32:31Z</time>
      </trkpt>
      <trkpt lat="44.41176" lon="7.10975">
        <ele>1886.4</ele>
        <time>2022-07-18T15:32:32Z</time>
      </trkpt>
      <trkpt lat="44.41174" lon="7.10973">
        <ele>1886.8</ele>
        <time>2022-07-18T15:32:33Z</time>
      </trkpt>
      <trkpt lat="44.41171" lon="7.10972">
        <ele>1886.8</ele>
        <time>2022-07-18T15:32:34Z</time>
      </trkpt>
      <trkpt lat="44.41168" lon="7.10971">
        <ele>1887.2</ele>
        <time>2022-07-18T15:32:35Z</time>
      </trkpt>
      <trkpt lat="44.41166" lon="7.1097">
        <ele>1887.4</ele>
        <time>2022-07-18T15:32:36Z</time>
      </trkpt>
      <trkpt lat="44.41164" lon="7.10969">
        <ele>1887.8</ele>
        <time>2022-07-18T15:32:37Z</time>
      </trkpt>
      <trkpt lat="44.41161" lon="7.10968">
        <ele>1887.8</ele>
        <time>2022-07-18T15:32:38Z</time>
      </trkpt>
      <trkpt lat="44.41159" lon="7.10967">
        <ele>1888</ele>
        <time>2022-07-18T15:32:39Z</time>
      </trkpt>
      <trkpt lat="44.41156" lon="7.10966">
        <ele>1888</ele>
        <time>2022-07-18T15:32:40Z</time>
      </trkpt>
      <trkpt lat="44.41154" lon="7.10966">
        <ele>1888.4</ele>
        <time>2022-07-18T15:32:41Z</time>
      </trkpt>
      <trkpt lat="44.41151" lon="7.10965">
        <ele>1888.4</ele>
        <time>2022-07-18T15:32:42Z</time>
      </trkpt>
      <trkpt lat="44.41149" lon="7.10965">
        <ele>1888.8</ele>
        <time>2022-07-18T15:32:43Z</time>
      </trkpt>
      <trkpt lat="44.41147" lon="7.10964">
        <ele>1888.8</ele>
        <time>2022-07-18T15:32:44Z</time>
      </trkpt>
      <trkpt lat="44.41145" lon="7.10964">
        <ele>1889</ele>
        <time>2022-07-18T15:32:45Z</time>
      </trkpt>
      <trkpt lat="44.41143" lon="7.10965">
        <ele>1889</ele>
        <time>2022-07-18T15:32:46Z</time>
      </trkpt>
      <trkpt lat="44.41141" lon="7.10966">
        <ele>1889.6</ele>
        <time>2022-07-18T15:32:47Z</time>
      </trkpt>
      <trkpt lat="44.41139" lon="7.10967">
        <ele>1889.6</ele>
        <time>2022-07-18T15:32:48Z</time>
      </trkpt>
      <trkpt lat="44.41137" lon="7.10968">
        <ele>1889.8</ele>
        <time>2022-07-18T15:32:49Z</time>
      </trkpt>
      <trkpt lat="44.41135" lon="7.10969">
        <ele>1889.8</ele>
        <time>2022-07-18T15:32:50Z</time>
      </trkpt>
      <trkpt lat="44.41133" lon="7.1097">
        <ele>1890</ele>
        <time>2022-07-18T15:32:51Z</time>
      </trkpt>
      <trkpt lat="44.41132" lon="7.10971">
        <ele>1890</ele>
        <time>2022-07-18T15:32:52Z</time>
      </trkpt>
      <trkpt lat="44.4113" lon="7.10972">
        <ele>1890.2</ele>
        <time>2022-07-18T15:32:53Z</time>
      </trkpt>
      <trkpt lat="44.41127" lon="7.10974">
        <ele>1890.2</ele>
        <time>2022-07-18T15:32:54Z</time>
      </trkpt>
      <trkpt lat="44.41125" lon="7.10975">
        <ele>1890.6</ele>
        <time>2022-07-18T15:32:55Z</time>
      </trkpt>
      <trkpt lat="44.41123" lon="7.10976">
        <ele>1890.8</ele>
        <time>2022-07-18T15:32:56Z</time>
      </trkpt>
      <trkpt lat="44.41121" lon="7.10977">
        <ele>1891</ele>
        <time>2022-07-18T15:32:57Z</time>
      </trkpt>
      <trkpt lat="44.41119" lon="7.10978">
        <ele>1891</ele>
        <time>2022-07-18T15:32:58Z</time>
      </trkpt>
      <trkpt lat="44.41117" lon="7.1098">
        <ele>1891.4</ele>
        <time>2022-07-18T15:32:59Z</time>
      </trkpt>
      <trkpt lat="44.41114" lon="7.10981">
        <ele>1891.4</ele>
        <time>2022-07-18T15:33:00Z</time>
      </trkpt>
      <trkpt lat="44.41112" lon="7.10982">
        <ele>1891.4</ele>
        <time>2022-07-18T15:33:01Z</time>
      </trkpt>
      <trkpt lat="44.4111" lon="7.10983">
        <ele>1891.8</ele>
        <time>2022-07-18T15:33:02Z</time>
      </trkpt>
      <trkpt lat="44.41108" lon="7.10984">
        <ele>1891.8</ele>
        <time>2022-07-18T15:33:03Z</time>
      </trkpt>
      <trkpt lat="44.41106" lon="7.10985">
        <ele>1891.8</ele>
        <time>2022-07-18T15:33:04Z</time>
      </trkpt>
      <trkpt lat="44.41104" lon="7.10986">
        <ele>1892.2</ele>
        <time>2022-07-18T15:33:05Z</time>
      </trkpt>
      <trkpt lat="44.41102" lon="7.10986">
        <ele>1892.2</ele>
        <time>2022-07-18T15:33:06Z</time>
      </trkpt>
      <trkpt lat="44.411" lon="7.10987">
        <ele>1892.4</ele>
        <time>2022-07-18T15:33:07Z</time>
      </trkpt>
      <trkpt lat="44.41097" lon="7.10987">
        <ele>1892.4</ele>
        <time>2022-07-18T15:33:08Z</time>
      </trkpt>
      <trkpt lat="44.41095" lon="7.10988">
        <ele>1892.8</ele>
        <time>2022-07-18T15:33:09Z</time>
      </trkpt>
      <trkpt lat="44.41093" lon="7.10989">
        <ele>1893.2</ele>
        <time>2022-07-18T15:33:10Z</time>
      </trkpt>
      <trkpt lat="44.41091" lon="7.1099">
        <ele>1893.4</ele>
        <time>2022-07-18T15:33:11Z</time>
      </trkpt>
      <trkpt lat="44.41088" lon="7.10992">
        <ele>1893.6</ele>
        <time>2022-07-18T15:33:12Z</time>
      </trkpt>
      <trkpt lat="44.41086" lon="7.10993">
        <ele>1893.6</ele>
        <time>2022-07-18T15:33:13Z</time>
      </trkpt>
      <trkpt lat="44.41083" lon="7.10994">
        <ele>1893.8</ele>
        <time>2022-07-18T15:33:14Z</time>
      </trkpt>
      <trkpt lat="44.4108" lon="7.10995">
        <ele>1894</ele>
        <time>2022-07-18T15:33:15Z</time>
      </trkpt>
      <trkpt lat="44.41078" lon="7.10995">
        <ele>1894</ele>
        <time>2022-07-18T15:33:16Z</time>
      </trkpt>
      <trkpt lat="44.41075" lon="7.10995">
        <ele>1894.4</ele>
        <time>2022-07-18T15:33:17Z</time>
      </trkpt>
      <trkpt lat="44.41072" lon="7.10995">
        <ele>1894.6</ele>
        <time>2022-07-18T15:33:18Z</time>
      </trkpt>
      <trkpt lat="44.4107" lon="7.10996">
        <ele>1894.6</ele>
        <time>2022-07-18T15:33:19Z</time>
      </trkpt>
      <trkpt lat="44.41067" lon="7.10997">
        <ele>1895</ele>
        <time>2022-07-18T15:33:20Z</time>
      </trkpt>
      <trkpt lat="44.41065" lon="7.10997">
        <ele>1895</ele>
        <time>2022-07-18T15:33:21Z</time>
      </trkpt>
      <trkpt lat="44.41062" lon="7.10998">
        <ele>1895.2</ele>
        <time>2022-07-18T15:33:22Z</time>
      </trkpt>
      <trkpt lat="44.41059" lon="7.10999">
        <ele>1895.2</ele>
        <time>2022-07-18T15:33:23Z</time>
      </trkpt>
      <trkpt lat="44.41057" lon="7.11">
        <ele>1895.6</ele>
        <time>2022-07-18T15:33:24Z</time>
      </trkpt>
      <trkpt lat="44.41054" lon="7.11">
        <ele>1895.6</ele>
        <time>2022-07-18T15:33:25Z</time>
      </trkpt>
      <trkpt lat="44.41052" lon="7.11001">
        <ele>1895.8</ele>
        <time>2022-07-18T15:33:26Z</time>
      </trkpt>
      <trkpt lat="44.4105" lon="7.11002">
        <ele>1895.8</ele>
        <time>2022-07-18T15:33:27Z</time>
      </trkpt>
      <trkpt lat="44.41047" lon="7.11002">
        <ele>1896.2</ele>
        <time>2022-07-18T15:33:28Z</time>
      </trkpt>
      <trkpt lat="44.41045" lon="7.11003">
        <ele>1896.2</ele>
        <time>2022-07-18T15:33:29Z</time>
      </trkpt>
      <trkpt lat="44.41043" lon="7.11003">
        <ele>1896.6</ele>
        <time>2022-07-18T15:33:30Z</time>
      </trkpt>
      <trkpt lat="44.41041" lon="7.11004">
        <ele>1896.8</ele>
        <time>2022-07-18T15:33:31Z</time>
      </trkpt>
      <trkpt lat="44.41038" lon="7.11004">
        <ele>1896.8</ele>
        <time>2022-07-18T15:33:32Z</time>
      </trkpt>
      <trkpt lat="44.41036" lon="7.11004">
        <ele>1897.2</ele>
        <time>2022-07-18T15:33:33Z</time>
      </trkpt>
      <trkpt lat="44.41034" lon="7.11004">
        <ele>1897.2</ele>
        <time>2022-07-18T15:33:34Z</time>
      </trkpt>
      <trkpt lat="44.41031" lon="7.11005">
        <ele>1897.6</ele>
        <time>2022-07-18T15:33:35Z</time>
      </trkpt>
      <trkpt lat="44.41029" lon="7.11005">
        <ele>1897.6</ele>
        <time>2022-07-18T15:33:36Z</time>
      </trkpt>
      <trkpt lat="44.41027" lon="7.11005">
        <ele>1897.8</ele>
        <time>2022-07-18T15:33:37Z</time>
      </trkpt>
      <trkpt lat="44.41025" lon="7.11005">
        <ele>1897.8</ele>
        <time>2022-07-18T15:33:38Z</time>
      </trkpt>
      <trkpt lat="44.41022" lon="7.11005">
        <ele>1898</ele>
        <time>2022-07-18T15:33:39Z</time>
      </trkpt>
      <trkpt lat="44.4102" lon="7.11005">
        <ele>1898</ele>
        <time>2022-07-18T15:33:40Z</time>
      </trkpt>
      <trkpt lat="44.41017" lon="7.11004">
        <ele>1898.4</ele>
        <time>2022-07-18T15:33:42Z</time>
      </trkpt>
      <trkpt lat="44.41015" lon="7.11002">
        <ele>1898.6</ele>
        <time>2022-07-18T15:33:43Z</time>
      </trkpt>
      <trkpt lat="44.41013" lon="7.11001">
        <ele>1898.6</ele>
        <time>2022-07-18T15:33:44Z</time>
      </trkpt>
      <trkpt lat="44.41009" lon="7.10997">
        <ele>1899</ele>
        <time>2022-07-18T15:33:45Z</time>
      </trkpt>
      <trkpt lat="44.41007" lon="7.10994">
        <ele>1899</ele>
        <time>2022-07-18T15:33:46Z</time>
      </trkpt>
      <trkpt lat="44.41005" lon="7.10992">
        <ele>1899</ele>
        <time>2022-07-18T15:33:47Z</time>
      </trkpt>
      <trkpt lat="44.41003" lon="7.1099">
        <ele>1899.2</ele>
        <time>2022-07-18T15:33:48Z</time>
      </trkpt>
      <trkpt lat="44.41001" lon="7.10989">
        <ele>1899.2</ele>
        <time>2022-07-18T15:33:49Z</time>
      </trkpt>
      <trkpt lat="44.40999" lon="7.10988">
        <ele>1899.4</ele>
        <time>2022-07-18T15:33:50Z</time>
      </trkpt>
      <trkpt lat="44.40997" lon="7.10986">
        <ele>1899.4</ele>
        <time>2022-07-18T15:33:51Z</time>
      </trkpt>
      <trkpt lat="44.40995" lon="7.10985">
        <ele>1899.6</ele>
        <time>2022-07-18T15:33:52Z</time>
      </trkpt>
      <trkpt lat="44.40992" lon="7.10983">
        <ele>1899.8</ele>
        <time>2022-07-18T15:33:53Z</time>
      </trkpt>
      <trkpt lat="44.4099" lon="7.10982">
        <ele>1899.8</ele>
        <time>2022-07-18T15:33:54Z</time>
      </trkpt>
      <trkpt lat="44.40988" lon="7.1098">
        <ele>1900.2</ele>
        <time>2022-07-18T15:33:55Z</time>
      </trkpt>
      <trkpt lat="44.40986" lon="7.10978">
        <ele>1900.2</ele>
        <time>2022-07-18T15:33:56Z</time>
      </trkpt>
      <trkpt lat="44.40984" lon="7.10976">
        <ele>1900.4</ele>
        <time>2022-07-18T15:33:57Z</time>
      </trkpt>
      <trkpt lat="44.40982" lon="7.10974">
        <ele>1900.6</ele>
        <time>2022-07-18T15:33:58Z</time>
      </trkpt>
      <trkpt lat="44.4098" lon="7.10973">
        <ele>1900.6</ele>
        <time>2022-07-18T15:33:59Z</time>
      </trkpt>
      <trkpt lat="44.40978" lon="7.1097">
        <ele>1901</ele>
        <time>2022-07-18T15:34:00Z</time>
      </trkpt>
      <trkpt lat="44.40976" lon="7.10967">
        <ele>1901.2</ele>
        <time>2022-07-18T15:34:01Z</time>
      </trkpt>
      <trkpt lat="44.40974" lon="7.10965">
        <ele>1901.2</ele>
        <time>2022-07-18T15:34:02Z</time>
      </trkpt>
      <trkpt lat="44.40972" lon="7.10962">
        <ele>1901.6</ele>
        <time>2022-07-18T15:34:03Z</time>
      </trkpt>
      <trkpt lat="44.40971" lon="7.10958">
        <ele>1901.6</ele>
        <time>2022-07-18T15:34:04Z</time>
      </trkpt>
      <trkpt lat="44.4097" lon="7.10955">
        <ele>1902</ele>
        <time>2022-07-18T15:34:05Z</time>
      </trkpt>
      <trkpt lat="44.40968" lon="7.10951">
        <ele>1902</ele>
        <time>2022-07-18T15:34:06Z</time>
      </trkpt>
      <trkpt lat="44.40967" lon="7.10948">
        <ele>1902</ele>
        <time>2022-07-18T15:34:07Z</time>
      </trkpt>
      <trkpt lat="44.40966" lon="7.10945">
        <ele>1902.2</ele>
        <time>2022-07-18T15:34:08Z</time>
      </trkpt>
      <trkpt lat="44.40965" lon="7.10941">
        <ele>1902.2</ele>
        <time>2022-07-18T15:34:09Z</time>
      </trkpt>
      <trkpt lat="44.40963" lon="7.10938">
        <ele>1902.6</ele>
        <time>2022-07-18T15:34:10Z</time>
      </trkpt>
      <trkpt lat="44.40962" lon="7.10936">
        <ele>1902.8</ele>
        <time>2022-07-18T15:34:11Z</time>
      </trkpt>
      <trkpt lat="44.4096" lon="7.10934">
        <ele>1903</ele>
        <time>2022-07-18T15:34:12Z</time>
      </trkpt>
      <trkpt lat="44.40958" lon="7.10931">
        <ele>1903</ele>
        <time>2022-07-18T15:34:13Z</time>
      </trkpt>
      <trkpt lat="44.40956" lon="7.10929">
        <ele>1903.4</ele>
        <time>2022-07-18T15:34:14Z</time>
      </trkpt>
      <trkpt lat="44.40954" lon="7.10927">
        <ele>1903.4</ele>
        <time>2022-07-18T15:34:15Z</time>
      </trkpt>
      <trkpt lat="44.40951" lon="7.10925">
        <ele>1903.8</ele>
        <time>2022-07-18T15:34:16Z</time>
      </trkpt>
      <trkpt lat="44.40949" lon="7.10924">
        <ele>1904</ele>
        <time>2022-07-18T15:34:17Z</time>
      </trkpt>
      <trkpt lat="44.40947" lon="7.10922">
        <ele>1904</ele>
        <time>2022-07-18T15:34:18Z</time>
      </trkpt>
      <trkpt lat="44.40945" lon="7.1092">
        <ele>1904.4</ele>
        <time>2022-07-18T15:34:19Z</time>
      </trkpt>
      <trkpt lat="44.40943" lon="7.10918">
        <ele>1904.4</ele>
        <time>2022-07-18T15:34:20Z</time>
      </trkpt>
      <trkpt lat="44.40941" lon="7.10916">
        <ele>1904.6</ele>
        <time>2022-07-18T15:34:21Z</time>
      </trkpt>
      <trkpt lat="44.40939" lon="7.10914">
        <ele>1904.6</ele>
        <time>2022-07-18T15:34:22Z</time>
      </trkpt>
      <trkpt lat="44.40937" lon="7.10913">
        <ele>1905</ele>
        <time>2022-07-18T15:34:23Z</time>
      </trkpt>
      <trkpt lat="44.40935" lon="7.10911">
        <ele>1905</ele>
        <time>2022-07-18T15:34:24Z</time>
      </trkpt>
      <trkpt lat="44.40933" lon="7.10909">
        <ele>1905.4</ele>
        <time>2022-07-18T15:34:25Z</time>
      </trkpt>
      <trkpt lat="44.40931" lon="7.10907">
        <ele>1905.4</ele>
        <time>2022-07-18T15:34:26Z</time>
      </trkpt>
      <trkpt lat="44.40929" lon="7.10905">
        <ele>1905.8</ele>
        <time>2022-07-18T15:34:27Z</time>
      </trkpt>
      <trkpt lat="44.40927" lon="7.10902">
        <ele>1905.8</ele>
        <time>2022-07-18T15:34:28Z</time>
      </trkpt>
      <trkpt lat="44.40926" lon="7.10899">
        <ele>1906.2</ele>
        <time>2022-07-18T15:34:29Z</time>
      </trkpt>
      <trkpt lat="44.40924" lon="7.10897">
        <ele>1906.4</ele>
        <time>2022-07-18T15:34:30Z</time>
      </trkpt>
      <trkpt lat="44.40923" lon="7.10894">
        <ele>1906.4</ele>
        <time>2022-07-18T15:34:31Z</time>
      </trkpt>
      <trkpt lat="44.40922" lon="7.10891">
        <ele>1906.6</ele>
        <time>2022-07-18T15:34:32Z</time>
      </trkpt>
      <trkpt lat="44.40921" lon="7.10888">
        <ele>1906.6</ele>
        <time>2022-07-18T15:34:33Z</time>
      </trkpt>
      <trkpt lat="44.4092" lon="7.10885">
        <ele>1907</ele>
        <time>2022-07-18T15:34:34Z</time>
      </trkpt>
      <trkpt lat="44.40919" lon="7.10883">
        <ele>1907</ele>
        <time>2022-07-18T15:34:35Z</time>
      </trkpt>
      <trkpt lat="44.40919" lon="7.10879">
        <ele>1907.2</ele>
        <time>2022-07-18T15:34:36Z</time>
      </trkpt>
      <trkpt lat="44.40918" lon="7.10876">
        <ele>1907.2</ele>
        <time>2022-07-18T15:34:37Z</time>
      </trkpt>
      <trkpt lat="44.40917" lon="7.10873">
        <ele>1907.6</ele>
        <time>2022-07-18T15:34:38Z</time>
      </trkpt>
      <trkpt lat="44.40916" lon="7.1087">
        <ele>1907.6</ele>
        <time>2022-07-18T15:34:39Z</time>
      </trkpt>
      <trkpt lat="44.40914" lon="7.10867">
        <ele>1908</ele>
        <time>2022-07-18T15:34:40Z</time>
      </trkpt>
      <trkpt lat="44.40913" lon="7.10865">
        <ele>1908.2</ele>
        <time>2022-07-18T15:34:41Z</time>
      </trkpt>
      <trkpt lat="44.40911" lon="7.10863">
        <ele>1908.2</ele>
        <time>2022-07-18T15:34:42Z</time>
      </trkpt>
      <trkpt lat="44.40909" lon="7.10861">
        <ele>1908.6</ele>
        <time>2022-07-18T15:34:43Z</time>
      </trkpt>
      <trkpt lat="44.40907" lon="7.10859">
        <ele>1908.6</ele>
        <time>2022-07-18T15:34:44Z</time>
      </trkpt>
      <trkpt lat="44.40905" lon="7.10858">
        <ele>1909</ele>
        <time>2022-07-18T15:34:45Z</time>
      </trkpt>
      <trkpt lat="44.40903" lon="7.10858">
        <ele>1909</ele>
        <time>2022-07-18T15:34:46Z</time>
      </trkpt>
      <trkpt lat="44.409" lon="7.10858">
        <ele>1909.2</ele>
        <time>2022-07-18T15:34:47Z</time>
      </trkpt>
      <trkpt lat="44.40898" lon="7.10858">
        <ele>1909.2</ele>
        <time>2022-07-18T15:34:48Z</time>
      </trkpt>
      <trkpt lat="44.40895" lon="7.10858">
        <ele>1909.4</ele>
        <time>2022-07-18T15:34:49Z</time>
      </trkpt>
      <trkpt lat="44.40893" lon="7.10859">
        <ele>1909.4</ele>
        <time>2022-07-18T15:34:50Z</time>
      </trkpt>
      <trkpt lat="44.4089" lon="7.1086">
        <ele>1909.8</ele>
        <time>2022-07-18T15:34:51Z</time>
      </trkpt>
      <trkpt lat="44.40888" lon="7.10861">
        <ele>1909.8</ele>
        <time>2022-07-18T15:34:52Z</time>
      </trkpt>
      <trkpt lat="44.40885" lon="7.10862">
        <ele>1910.2</ele>
        <time>2022-07-18T15:34:53Z</time>
      </trkpt>
      <trkpt lat="44.40882" lon="7.10862">
        <ele>1910.2</ele>
        <time>2022-07-18T15:34:54Z</time>
      </trkpt>
      <trkpt lat="44.4088" lon="7.10862">
        <ele>1910.4</ele>
        <time>2022-07-18T15:34:55Z</time>
      </trkpt>
      <trkpt lat="44.40878" lon="7.10861">
        <ele>1910.4</ele>
        <time>2022-07-18T15:34:56Z</time>
      </trkpt>
      <trkpt lat="44.40876" lon="7.1086">
        <ele>1910.8</ele>
        <time>2022-07-18T15:34:57Z</time>
      </trkpt>
      <trkpt lat="44.40874" lon="7.10858">
        <ele>1910.8</ele>
        <time>2022-07-18T15:34:58Z</time>
      </trkpt>
      <trkpt lat="44.40872" lon="7.10856">
        <ele>1911.2</ele>
        <time>2022-07-18T15:34:59Z</time>
      </trkpt>
      <trkpt lat="44.4087" lon="7.10854">
        <ele>1911.4</ele>
        <time>2022-07-18T15:35:00Z</time>
      </trkpt>
      <trkpt lat="44.40868" lon="7.10852">
        <ele>1911.6</ele>
        <time>2022-07-18T15:35:01Z</time>
      </trkpt>
      <trkpt lat="44.40867" lon="7.1085">
        <ele>1911.8</ele>
        <time>2022-07-18T15:35:02Z</time>
      </trkpt>
      <trkpt lat="44.40866" lon="7.10849">
        <ele>1911.8</ele>
        <time>2022-07-18T15:35:03Z</time>
      </trkpt>
      <trkpt lat="44.40865" lon="7.10847">
        <ele>1912</ele>
        <time>2022-07-18T15:35:04Z</time>
      </trkpt>
      <trkpt lat="44.40863" lon="7.10846">
        <ele>1912</ele>
        <time>2022-07-18T15:35:05Z</time>
      </trkpt>
      <trkpt lat="44.40861" lon="7.10845">
        <ele>1912.4</ele>
        <time>2022-07-18T15:35:06Z</time>
      </trkpt>
      <trkpt lat="44.40859" lon="7.10844">
        <ele>1912.6</ele>
        <time>2022-07-18T15:35:07Z</time>
      </trkpt>
      <trkpt lat="44.40858" lon="7.10843">
        <ele>1912.6</ele>
        <time>2022-07-18T15:35:08Z</time>
      </trkpt>
      <trkpt lat="44.40856" lon="7.10842">
        <ele>1913</ele>
        <time>2022-07-18T15:35:09Z</time>
      </trkpt>
      <trkpt lat="44.40853" lon="7.10842">
        <ele>1913.2</ele>
        <time>2022-07-18T15:35:10Z</time>
      </trkpt>
      <trkpt lat="44.40851" lon="7.10841">
        <ele>1913.4</ele>
        <time>2022-07-18T15:35:11Z</time>
      </trkpt>
      <trkpt lat="44.4085" lon="7.1084">
        <ele>1913.6</ele>
        <time>2022-07-18T15:35:12Z</time>
      </trkpt>
      <trkpt lat="44.40848" lon="7.1084">
        <ele>1913.6</ele>
        <time>2022-07-18T15:35:13Z</time>
      </trkpt>
      <trkpt lat="44.40846" lon="7.10839">
        <ele>1914</ele>
        <time>2022-07-18T15:35:14Z</time>
      </trkpt>
      <trkpt lat="44.40844" lon="7.10837">
        <ele>1914.4</ele>
        <time>2022-07-18T15:35:15Z</time>
      </trkpt>
      <trkpt lat="44.40843" lon="7.10836">
        <ele>1914.4</ele>
        <time>2022-07-18T15:35:16Z</time>
      </trkpt>
      <trkpt lat="44.40841" lon="7.10834">
        <ele>1914.6</ele>
        <time>2022-07-18T15:35:17Z</time>
      </trkpt>
      <trkpt lat="44.4084" lon="7.10832">
        <ele>1915</ele>
        <time>2022-07-18T15:35:18Z</time>
      </trkpt>
      <trkpt lat="44.40839" lon="7.1083">
        <ele>1915</ele>
        <time>2022-07-18T15:35:19Z</time>
      </trkpt>
      <trkpt lat="44.40837" lon="7.10828">
        <ele>1915.2</ele>
        <time>2022-07-18T15:35:20Z</time>
      </trkpt>
      <trkpt lat="44.40836" lon="7.10827">
        <ele>1915.2</ele>
        <time>2022-07-18T15:35:21Z</time>
      </trkpt>
      <trkpt lat="44.40835" lon="7.10825">
        <ele>1915.6</ele>
        <time>2022-07-18T15:35:22Z</time>
      </trkpt>
      <trkpt lat="44.40833" lon="7.10823">
        <ele>1915.6</ele>
        <time>2022-07-18T15:35:23Z</time>
      </trkpt>
      <trkpt lat="44.40832" lon="7.10822">
        <ele>1916</ele>
        <time>2022-07-18T15:35:24Z</time>
      </trkpt>
      <trkpt lat="44.4083" lon="7.10822">
        <ele>1916</ele>
        <time>2022-07-18T15:35:25Z</time>
      </trkpt>
      <trkpt lat="44.40828" lon="7.10822">
        <ele>1916.2</ele>
        <time>2022-07-18T15:35:26Z</time>
      </trkpt>
      <trkpt lat="44.40827" lon="7.10822">
        <ele>1916.4</ele>
        <time>2022-07-18T15:35:27Z</time>
      </trkpt>
      <trkpt lat="44.40825" lon="7.10822">
        <ele>1916.6</ele>
        <time>2022-07-18T15:35:28Z</time>
      </trkpt>
      <trkpt lat="44.40824" lon="7.10821">
        <ele>1916.6</ele>
        <time>2022-07-18T15:35:29Z</time>
      </trkpt>
      <trkpt lat="44.40822" lon="7.10821">
        <ele>1917</ele>
        <time>2022-07-18T15:35:30Z</time>
      </trkpt>
      <trkpt lat="44.40821" lon="7.10821">
        <ele>1917</ele>
        <time>2022-07-18T15:35:31Z</time>
      </trkpt>
      <trkpt lat="44.40819" lon="7.10821">
        <ele>1917.4</ele>
        <time>2022-07-18T15:35:32Z</time>
      </trkpt>
      <trkpt lat="44.40818" lon="7.10821">
        <ele>1917.4</ele>
        <time>2022-07-18T15:35:33Z</time>
      </trkpt>
      <trkpt lat="44.40816" lon="7.10821">
        <ele>1917.6</ele>
        <time>2022-07-18T15:35:34Z</time>
      </trkpt>
      <trkpt lat="44.40814" lon="7.10822">
        <ele>1917.6</ele>
        <time>2022-07-18T15:35:35Z</time>
      </trkpt>
      <trkpt lat="44.40813" lon="7.10822">
        <ele>1917.8</ele>
        <time>2022-07-18T15:35:36Z</time>
      </trkpt>
      <trkpt lat="44.40811" lon="7.10822">
        <ele>1917.8</ele>
        <time>2022-07-18T15:35:37Z</time>
      </trkpt>
      <trkpt lat="44.40809" lon="7.10823">
        <ele>1918.2</ele>
        <time>2022-07-18T15:35:38Z</time>
      </trkpt>
      <trkpt lat="44.40808" lon="7.10822">
        <ele>1918.4</ele>
        <time>2022-07-18T15:35:39Z</time>
      </trkpt>
      <trkpt lat="44.40806" lon="7.10823">
        <ele>1918.4</ele>
        <time>2022-07-18T15:35:40Z</time>
      </trkpt>
      <trkpt lat="44.40804" lon="7.10823">
        <ele>1918.6</ele>
        <time>2022-07-18T15:35:41Z</time>
      </trkpt>
      <trkpt lat="44.40803" lon="7.10823">
        <ele>1918.6</ele>
        <time>2022-07-18T15:35:42Z</time>
      </trkpt>
      <trkpt lat="44.40801" lon="7.10823">
        <ele>1919</ele>
        <time>2022-07-18T15:35:43Z</time>
      </trkpt>
      <trkpt lat="44.40799" lon="7.10823">
        <ele>1919.2</ele>
        <time>2022-07-18T15:35:44Z</time>
      </trkpt>
      <trkpt lat="44.40797" lon="7.10823">
        <ele>1919.2</ele>
        <time>2022-07-18T15:35:45Z</time>
      </trkpt>
      <trkpt lat="44.40795" lon="7.10823">
        <ele>1919.4</ele>
        <time>2022-07-18T15:35:46Z</time>
      </trkpt>
      <trkpt lat="44.40793" lon="7.10823">
        <ele>1919.4</ele>
        <time>2022-07-18T15:35:47Z</time>
      </trkpt>
      <trkpt lat="44.40791" lon="7.10824">
        <ele>1919.8</ele>
        <time>2022-07-18T15:35:48Z</time>
      </trkpt>
      <trkpt lat="44.40789" lon="7.10824">
        <ele>1919.8</ele>
        <time>2022-07-18T15:35:49Z</time>
      </trkpt>
      <trkpt lat="44.40787" lon="7.10825">
        <ele>1920.2</ele>
        <time>2022-07-18T15:35:50Z</time>
      </trkpt>
      <trkpt lat="44.40785" lon="7.10825">
        <ele>1920.2</ele>
        <time>2022-07-18T15:35:51Z</time>
      </trkpt>
      <trkpt lat="44.40783" lon="7.10825">
        <ele>1920.4</ele>
        <time>2022-07-18T15:35:52Z</time>
      </trkpt>
      <trkpt lat="44.40781" lon="7.10825">
        <ele>1920.4</ele>
        <time>2022-07-18T15:35:53Z</time>
      </trkpt>
      <trkpt lat="44.40779" lon="7.10825">
        <ele>1920.6</ele>
        <time>2022-07-18T15:35:54Z</time>
      </trkpt>
      <trkpt lat="44.40777" lon="7.10826">
        <ele>1920.6</ele>
        <time>2022-07-18T15:35:55Z</time>
      </trkpt>
      <trkpt lat="44.40775" lon="7.10826">
        <ele>1921</ele>
        <time>2022-07-18T15:35:56Z</time>
      </trkpt>
      <trkpt lat="44.40773" lon="7.10826">
        <ele>1921.2</ele>
        <time>2022-07-18T15:35:57Z</time>
      </trkpt>
      <trkpt lat="44.40771" lon="7.10826">
        <ele>1921.2</ele>
        <time>2022-07-18T15:35:58Z</time>
      </trkpt>
      <trkpt lat="44.40769" lon="7.10827">
        <ele>1921.6</ele>
        <time>2022-07-18T15:35:59Z</time>
      </trkpt>
      <trkpt lat="44.40767" lon="7.10827">
        <ele>1921.8</ele>
        <time>2022-07-18T15:36:00Z</time>
      </trkpt>
      <trkpt lat="44.40765" lon="7.10827">
        <ele>1922</ele>
        <time>2022-07-18T15:36:01Z</time>
      </trkpt>
      <trkpt lat="44.40763" lon="7.10828">
        <ele>1922</ele>
        <time>2022-07-18T15:36:02Z</time>
      </trkpt>
      <trkpt lat="44.40761" lon="7.10828">
        <ele>1922.2</ele>
        <time>2022-07-18T15:36:03Z</time>
      </trkpt>
      <trkpt lat="44.40759" lon="7.10829">
        <ele>1922.2</ele>
        <time>2022-07-18T15:36:04Z</time>
      </trkpt>
      <trkpt lat="44.40757" lon="7.10829">
        <ele>1922.6</ele>
        <time>2022-07-18T15:36:05Z</time>
      </trkpt>
      <trkpt lat="44.40755" lon="7.1083">
        <ele>1922.6</ele>
        <time>2022-07-18T15:36:06Z</time>
      </trkpt>
      <trkpt lat="44.40753" lon="7.1083">
        <ele>1922.8</ele>
        <time>2022-07-18T15:36:07Z</time>
      </trkpt>
      <trkpt lat="44.40751" lon="7.10829">
        <ele>1922.8</ele>
        <time>2022-07-18T15:36:08Z</time>
      </trkpt>
      <trkpt lat="44.40749" lon="7.10829">
        <ele>1923.2</ele>
        <time>2022-07-18T15:36:09Z</time>
      </trkpt>
      <trkpt lat="44.40747" lon="7.10828">
        <ele>1923.2</ele>
        <time>2022-07-18T15:36:10Z</time>
      </trkpt>
      <trkpt lat="44.40745" lon="7.10828">
        <ele>1923.6</ele>
        <time>2022-07-18T15:36:11Z</time>
      </trkpt>
      <trkpt lat="44.40743" lon="7.10827">
        <ele>1923.6</ele>
        <time>2022-07-18T15:36:12Z</time>
      </trkpt>
      <trkpt lat="44.40741" lon="7.10827">
        <ele>1923.8</ele>
        <time>2022-07-18T15:36:13Z</time>
      </trkpt>
      <trkpt lat="44.40739" lon="7.10827">
        <ele>1923.8</ele>
        <time>2022-07-18T15:36:14Z</time>
      </trkpt>
      <trkpt lat="44.40737" lon="7.10827">
        <ele>1924</ele>
        <time>2022-07-18T15:36:15Z</time>
      </trkpt>
      <trkpt lat="44.40736" lon="7.10826">
        <ele>1924</ele>
        <time>2022-07-18T15:36:16Z</time>
      </trkpt>
      <trkpt lat="44.40734" lon="7.10826">
        <ele>1924.4</ele>
        <time>2022-07-18T15:36:17Z</time>
      </trkpt>
      <trkpt lat="44.40732" lon="7.10825">
        <ele>1924.4</ele>
        <time>2022-07-18T15:36:18Z</time>
      </trkpt>
      <trkpt lat="44.4073" lon="7.10825">
        <ele>1924.8</ele>
        <time>2022-07-18T15:36:19Z</time>
      </trkpt>
      <trkpt lat="44.40728" lon="7.10825">
        <ele>1924.8</ele>
        <time>2022-07-18T15:36:20Z</time>
      </trkpt>
      <trkpt lat="44.40726" lon="7.10825">
        <ele>1925</ele>
        <time>2022-07-18T15:36:21Z</time>
      </trkpt>
      <trkpt lat="44.40724" lon="7.10826">
        <ele>1925</ele>
        <time>2022-07-18T15:36:22Z</time>
      </trkpt>
      <trkpt lat="44.40723" lon="7.10826">
        <ele>1925.4</ele>
        <time>2022-07-18T15:36:23Z</time>
      </trkpt>
      <trkpt lat="44.40721" lon="7.10826">
        <ele>1925.4</ele>
        <time>2022-07-18T15:36:24Z</time>
      </trkpt>
      <trkpt lat="44.40719" lon="7.10826">
        <ele>1925.6</ele>
        <time>2022-07-18T15:36:25Z</time>
      </trkpt>
      <trkpt lat="44.40717" lon="7.10827">
        <ele>1925.6</ele>
        <time>2022-07-18T15:36:26Z</time>
      </trkpt>
      <trkpt lat="44.40716" lon="7.10827">
        <ele>1926</ele>
        <time>2022-07-18T15:36:27Z</time>
      </trkpt>
      <trkpt lat="44.40714" lon="7.10828">
        <ele>1926</ele>
        <time>2022-07-18T15:36:28Z</time>
      </trkpt>
      <trkpt lat="44.40712" lon="7.10829">
        <ele>1926.2</ele>
        <time>2022-07-18T15:36:29Z</time>
      </trkpt>
      <trkpt lat="44.4071" lon="7.1083">
        <ele>1926.2</ele>
        <time>2022-07-18T15:36:30Z</time>
      </trkpt>
      <trkpt lat="44.40708" lon="7.10831">
        <ele>1926.6</ele>
        <time>2022-07-18T15:36:31Z</time>
      </trkpt>
      <trkpt lat="44.40706" lon="7.10831">
        <ele>1926.6</ele>
        <time>2022-07-18T15:36:32Z</time>
      </trkpt>
      <trkpt lat="44.40704" lon="7.10832">
        <ele>1926.8</ele>
        <time>2022-07-18T15:36:33Z</time>
      </trkpt>
      <trkpt lat="44.40702" lon="7.10832">
        <ele>1926.8</ele>
        <time>2022-07-18T15:36:34Z</time>
      </trkpt>
      <trkpt lat="44.407" lon="7.10833">
        <ele>1927</ele>
        <time>2022-07-18T15:36:35Z</time>
      </trkpt>
      <trkpt lat="44.40698" lon="7.10833">
        <ele>1927</ele>
        <time>2022-07-18T15:36:36Z</time>
      </trkpt>
      <trkpt lat="44.40697" lon="7.10833">
        <ele>1927.4</ele>
        <time>2022-07-18T15:36:37Z</time>
      </trkpt>
      <trkpt lat="44.40695" lon="7.10833">
        <ele>1927.6</ele>
        <time>2022-07-18T15:36:38Z</time>
      </trkpt>
      <trkpt lat="44.40694" lon="7.10833">
        <ele>1927.8</ele>
        <time>2022-07-18T15:36:39Z</time>
      </trkpt>
      <trkpt lat="44.40692" lon="7.10834">
        <ele>1928</ele>
        <time>2022-07-18T15:36:40Z</time>
      </trkpt>
      <trkpt lat="44.4069" lon="7.10835">
        <ele>1928</ele>
        <time>2022-07-18T15:36:41Z</time>
      </trkpt>
      <trkpt lat="44.40689" lon="7.10837">
        <ele>1928.4</ele>
        <time>2022-07-18T15:36:42Z</time>
      </trkpt>
      <trkpt lat="44.40687" lon="7.10838">
        <ele>1928.6</ele>
        <time>2022-07-18T15:36:43Z</time>
      </trkpt>
      <trkpt lat="44.40685" lon="7.10839">
        <ele>1928.8</ele>
        <time>2022-07-18T15:36:44Z</time>
      </trkpt>
      <trkpt lat="44.40684" lon="7.10841">
        <ele>1928.8</ele>
        <time>2022-07-18T15:36:45Z</time>
      </trkpt>
      <trkpt lat="44.40683" lon="7.10842">
        <ele>1929.2</ele>
        <time>2022-07-18T15:36:46Z</time>
      </trkpt>
      <trkpt lat="44.40681" lon="7.10843">
        <ele>1929.2</ele>
        <time>2022-07-18T15:36:47Z</time>
      </trkpt>
      <trkpt lat="44.4068" lon="7.10844">
        <ele>1929.4</ele>
        <time>2022-07-18T15:36:48Z</time>
      </trkpt>
      <trkpt lat="44.40678" lon="7.10845">
        <ele>1929.4</ele>
        <time>2022-07-18T15:36:49Z</time>
      </trkpt>
      <trkpt lat="44.40677" lon="7.10846">
        <ele>1929.8</ele>
        <time>2022-07-18T15:36:50Z</time>
      </trkpt>
      <trkpt lat="44.40675" lon="7.10846">
        <ele>1930</ele>
        <time>2022-07-18T15:36:51Z</time>
      </trkpt>
      <trkpt lat="44.40673" lon="7.10846">
        <ele>1930</ele>
        <time>2022-07-18T15:36:52Z</time>
      </trkpt>
      <trkpt lat="44.40672" lon="7.10846">
        <ele>1930.4</ele>
        <time>2022-07-18T15:36:53Z</time>
      </trkpt>
      <trkpt lat="44.4067" lon="7.10845">
        <ele>1930.4</ele>
        <time>2022-07-18T15:36:54Z</time>
      </trkpt>
      <trkpt lat="44.40668" lon="7.10844">
        <ele>1930.6</ele>
        <time>2022-07-18T15:36:55Z</time>
      </trkpt>
      <trkpt lat="44.40666" lon="7.10843">
        <ele>1930.6</ele>
        <time>2022-07-18T15:36:56Z</time>
      </trkpt>
      <trkpt lat="44.40664" lon="7.10842">
        <ele>1931</ele>
        <time>2022-07-18T15:36:57Z</time>
      </trkpt>
      <trkpt lat="44.40662" lon="7.10842">
        <ele>1931</ele>
        <time>2022-07-18T15:36:58Z</time>
      </trkpt>
      <trkpt lat="44.4066" lon="7.10841">
        <ele>1931.2</ele>
        <time>2022-07-18T15:36:59Z</time>
      </trkpt>
      <trkpt lat="44.40658" lon="7.10839">
        <ele>1931.2</ele>
        <time>2022-07-18T15:37:00Z</time>
      </trkpt>
      <trkpt lat="44.40656" lon="7.10838">
        <ele>1931.4</ele>
        <time>2022-07-18T15:37:01Z</time>
      </trkpt>
      <trkpt lat="44.40655" lon="7.10837">
        <ele>1931.4</ele>
        <time>2022-07-18T15:37:02Z</time>
      </trkpt>
      <trkpt lat="44.40653" lon="7.10836">
        <ele>1931.6</ele>
        <time>2022-07-18T15:37:03Z</time>
      </trkpt>
      <trkpt lat="44.40651" lon="7.10835">
        <ele>1931.6</ele>
        <time>2022-07-18T15:37:04Z</time>
      </trkpt>
      <trkpt lat="44.40649" lon="7.10834">
        <ele>1932</ele>
        <time>2022-07-18T15:37:05Z</time>
      </trkpt>
      <trkpt lat="44.40647" lon="7.10833">
        <ele>1932</ele>
        <time>2022-07-18T15:37:06Z</time>
      </trkpt>
      <trkpt lat="44.40645" lon="7.10831">
        <ele>1932.4</ele>
        <time>2022-07-18T15:37:07Z</time>
      </trkpt>
      <trkpt lat="44.40644" lon="7.10829">
        <ele>1932.4</ele>
        <time>2022-07-18T15:37:08Z</time>
      </trkpt>
      <trkpt lat="44.40643" lon="7.10827">
        <ele>1932.6</ele>
        <time>2022-07-18T15:37:09Z</time>
      </trkpt>
      <trkpt lat="44.40642" lon="7.10824">
        <ele>1932.6</ele>
        <time>2022-07-18T15:37:10Z</time>
      </trkpt>
      <trkpt lat="44.40641" lon="7.10822">
        <ele>1933</ele>
        <time>2022-07-18T15:37:11Z</time>
      </trkpt>
      <trkpt lat="44.40639" lon="7.1082">
        <ele>1933.2</ele>
        <time>2022-07-18T15:37:12Z</time>
      </trkpt>
      <trkpt lat="44.40638" lon="7.10818">
        <ele>1933.2</ele>
        <time>2022-07-18T15:37:13Z</time>
      </trkpt>
      <trkpt lat="44.40637" lon="7.10815">
        <ele>1933.6</ele>
        <time>2022-07-18T15:37:14Z</time>
      </trkpt>
      <trkpt lat="44.40635" lon="7.10813">
        <ele>1933.6</ele>
        <time>2022-07-18T15:37:15Z</time>
      </trkpt>
      <trkpt lat="44.40634" lon="7.10811">
        <ele>1933.8</ele>
        <time>2022-07-18T15:37:16Z</time>
      </trkpt>
      <trkpt lat="44.40633" lon="7.10808">
        <ele>1933.8</ele>
        <time>2022-07-18T15:37:17Z</time>
      </trkpt>
      <trkpt lat="44.40632" lon="7.10805">
        <ele>1934</ele>
        <time>2022-07-18T15:37:18Z</time>
      </trkpt>
      <trkpt lat="44.40631" lon="7.10803">
        <ele>1934</ele>
        <time>2022-07-18T15:37:19Z</time>
      </trkpt>
      <trkpt lat="44.40629" lon="7.108">
        <ele>1934.2</ele>
        <time>2022-07-18T15:37:20Z</time>
      </trkpt>
      <trkpt lat="44.40628" lon="7.10797">
        <ele>1934.2</ele>
        <time>2022-07-18T15:37:21Z</time>
      </trkpt>
      <trkpt lat="44.40627" lon="7.10795">
        <ele>1934.2</ele>
        <time>2022-07-18T15:37:22Z</time>
      </trkpt>
      <trkpt lat="44.40626" lon="7.10792">
        <ele>1934.6</ele>
        <time>2022-07-18T15:37:23Z</time>
      </trkpt>
      <trkpt lat="44.40625" lon="7.10789">
        <ele>1934.6</ele>
        <time>2022-07-18T15:37:24Z</time>
      </trkpt>
      <trkpt lat="44.40624" lon="7.10786">
        <ele>1934.8</ele>
        <time>2022-07-18T15:37:25Z</time>
      </trkpt>
      <trkpt lat="44.40623" lon="7.10783">
        <ele>1934.8</ele>
        <time>2022-07-18T15:37:26Z</time>
      </trkpt>
      <trkpt lat="44.40622" lon="7.1078">
        <ele>1935.2</ele>
        <time>2022-07-18T15:37:27Z</time>
      </trkpt>
      <trkpt lat="44.40621" lon="7.10777">
        <ele>1935.2</ele>
        <time>2022-07-18T15:37:28Z</time>
      </trkpt>
      <trkpt lat="44.4062" lon="7.10774">
        <ele>1935.6</ele>
        <time>2022-07-18T15:37:29Z</time>
      </trkpt>
      <trkpt lat="44.40619" lon="7.10772">
        <ele>1935.6</ele>
        <time>2022-07-18T15:37:30Z</time>
      </trkpt>
      <trkpt lat="44.40617" lon="7.1077">
        <ele>1935.8</ele>
        <time>2022-07-18T15:37:31Z</time>
      </trkpt>
      <trkpt lat="44.40615" lon="7.10768">
        <ele>1935.8</ele>
        <time>2022-07-18T15:37:32Z</time>
      </trkpt>
      <trkpt lat="44.40614" lon="7.10767">
        <ele>1936</ele>
        <time>2022-07-18T15:37:33Z</time>
      </trkpt>
      <trkpt lat="44.40612" lon="7.10765">
        <ele>1936</ele>
        <time>2022-07-18T15:37:34Z</time>
      </trkpt>
      <trkpt lat="44.4061" lon="7.10764">
        <ele>1936.4</ele>
        <time>2022-07-18T15:37:35Z</time>
      </trkpt>
      <trkpt lat="44.40608" lon="7.10762">
        <ele>1936.4</ele>
        <time>2022-07-18T15:37:36Z</time>
      </trkpt>
      <trkpt lat="44.40606" lon="7.10761">
        <ele>1936.8</ele>
        <time>2022-07-18T15:37:37Z</time>
      </trkpt>
      <trkpt lat="44.40604" lon="7.1076">
        <ele>1937</ele>
        <time>2022-07-18T15:37:38Z</time>
      </trkpt>
      <trkpt lat="44.40602" lon="7.10759">
        <ele>1937.2</ele>
        <time>2022-07-18T15:37:39Z</time>
      </trkpt>
      <trkpt lat="44.406" lon="7.10757">
        <ele>1937.2</ele>
        <time>2022-07-18T15:37:40Z</time>
      </trkpt>
      <trkpt lat="44.40598" lon="7.10755">
        <ele>1937.6</ele>
        <time>2022-07-18T15:37:41Z</time>
      </trkpt>
      <trkpt lat="44.40597" lon="7.10753">
        <ele>1937.8</ele>
        <time>2022-07-18T15:37:42Z</time>
      </trkpt>
      <trkpt lat="44.40596" lon="7.1075">
        <ele>1937.8</ele>
        <time>2022-07-18T15:37:43Z</time>
      </trkpt>
      <trkpt lat="44.40594" lon="7.10748">
        <ele>1938.2</ele>
        <time>2022-07-18T15:37:44Z</time>
      </trkpt>
      <trkpt lat="44.40593" lon="7.10746">
        <ele>1938.4</ele>
        <time>2022-07-18T15:37:45Z</time>
      </trkpt>
      <trkpt lat="44.40592" lon="7.10744">
        <ele>1938.6</ele>
        <time>2022-07-18T15:37:46Z</time>
      </trkpt>
      <trkpt lat="44.4059" lon="7.10743">
        <ele>1938.6</ele>
        <time>2022-07-18T15:37:47Z</time>
      </trkpt>
      <trkpt lat="44.40589" lon="7.10741">
        <ele>1939</ele>
        <time>2022-07-18T15:37:48Z</time>
      </trkpt>
      <trkpt lat="44.40587" lon="7.1074">
        <ele>1939.4</ele>
        <time>2022-07-18T15:37:49Z</time>
      </trkpt>
      <trkpt lat="44.40585" lon="7.10739">
        <ele>1939.6</ele>
        <time>2022-07-18T15:37:50Z</time>
      </trkpt>
      <trkpt lat="44.40584" lon="7.10739">
        <ele>1939.8</ele>
        <time>2022-07-18T15:37:51Z</time>
      </trkpt>
      <trkpt lat="44.40582" lon="7.10738">
        <ele>1939.8</ele>
        <time>2022-07-18T15:37:52Z</time>
      </trkpt>
      <trkpt lat="44.4058" lon="7.10738">
        <ele>1940</ele>
        <time>2022-07-18T15:37:53Z</time>
      </trkpt>
      <trkpt lat="44.40578" lon="7.10739">
        <ele>1940</ele>
        <time>2022-07-18T15:37:54Z</time>
      </trkpt>
      <trkpt lat="44.40575" lon="7.10739">
        <ele>1940.4</ele>
        <time>2022-07-18T15:37:55Z</time>
      </trkpt>
      <trkpt lat="44.40573" lon="7.1074">
        <ele>1940.6</ele>
        <time>2022-07-18T15:37:56Z</time>
      </trkpt>
      <trkpt lat="44.40572" lon="7.10741">
        <ele>1940.6</ele>
        <time>2022-07-18T15:37:57Z</time>
      </trkpt>
      <trkpt lat="44.4057" lon="7.10742">
        <ele>1941</ele>
        <time>2022-07-18T15:37:58Z</time>
      </trkpt>
      <trkpt lat="44.40568" lon="7.10743">
        <ele>1941</ele>
        <time>2022-07-18T15:37:59Z</time>
      </trkpt>
      <trkpt lat="44.40566" lon="7.10744">
        <ele>1941.4</ele>
        <time>2022-07-18T15:38:00Z</time>
      </trkpt>
      <trkpt lat="44.40564" lon="7.10745">
        <ele>1941.4</ele>
        <time>2022-07-18T15:38:01Z</time>
      </trkpt>
      <trkpt lat="44.40562" lon="7.10745">
        <ele>1941.6</ele>
        <time>2022-07-18T15:38:02Z</time>
      </trkpt>
      <trkpt lat="44.4056" lon="7.10746">
        <ele>1941.6</ele>
        <time>2022-07-18T15:38:03Z</time>
      </trkpt>
      <trkpt lat="44.40558" lon="7.10747">
        <ele>1942</ele>
        <time>2022-07-18T15:38:04Z</time>
      </trkpt>
      <trkpt lat="44.40556" lon="7.10747">
        <ele>1942</ele>
        <time>2022-07-18T15:38:05Z</time>
      </trkpt>
      <trkpt lat="44.40554" lon="7.10748">
        <ele>1942.4</ele>
        <time>2022-07-18T15:38:06Z</time>
      </trkpt>
      <trkpt lat="44.40552" lon="7.10748">
        <ele>1942.6</ele>
        <time>2022-07-18T15:38:07Z</time>
      </trkpt>
      <trkpt lat="44.4055" lon="7.10748">
        <ele>1942.6</ele>
        <time>2022-07-18T15:38:08Z</time>
      </trkpt>
      <trkpt lat="44.40548" lon="7.10749">
        <ele>1943</ele>
        <time>2022-07-18T15:38:09Z</time>
      </trkpt>
      <trkpt lat="44.40546" lon="7.10749">
        <ele>1943</ele>
        <time>2022-07-18T15:38:10Z</time>
      </trkpt>
      <trkpt lat="44.40544" lon="7.1075">
        <ele>1943.2</ele>
        <time>2022-07-18T15:38:11Z</time>
      </trkpt>
      <trkpt lat="44.40542" lon="7.10751">
        <ele>1943.2</ele>
        <time>2022-07-18T15:38:12Z</time>
      </trkpt>
      <trkpt lat="44.4054" lon="7.10751">
        <ele>1943.6</ele>
        <time>2022-07-18T15:38:13Z</time>
      </trkpt>
      <trkpt lat="44.40538" lon="7.10752">
        <ele>1943.8</ele>
        <time>2022-07-18T15:38:14Z</time>
      </trkpt>
      <trkpt lat="44.40536" lon="7.10753">
        <ele>1943.8</ele>
        <time>2022-07-18T15:38:15Z</time>
      </trkpt>
      <trkpt lat="44.40534" lon="7.10754">
        <ele>1944.2</ele>
        <time>2022-07-18T15:38:16Z</time>
      </trkpt>
      <trkpt lat="44.40532" lon="7.10755">
        <ele>1944.2</ele>
        <time>2022-07-18T15:38:17Z</time>
      </trkpt>
      <trkpt lat="44.4053" lon="7.10755">
        <ele>1944.6</ele>
        <time>2022-07-18T15:38:18Z</time>
      </trkpt>
      <trkpt lat="44.40528" lon="7.10756">
        <ele>1944.8</ele>
        <time>2022-07-18T15:38:19Z</time>
      </trkpt>
      <trkpt lat="44.40526" lon="7.10756">
        <ele>1945.2</ele>
        <time>2022-07-18T15:38:20Z</time>
      </trkpt>
      <trkpt lat="44.40525" lon="7.10756">
        <ele>1945.4</ele>
        <time>2022-07-18T15:38:21Z</time>
      </trkpt>
      <trkpt lat="44.40523" lon="7.10756">
        <ele>1945.6</ele>
        <time>2022-07-18T15:38:22Z</time>
      </trkpt>
      <trkpt lat="44.40521" lon="7.10756">
        <ele>1945.6</ele>
        <time>2022-07-18T15:38:23Z</time>
      </trkpt>
      <trkpt lat="44.40519" lon="7.10756">
        <ele>1946</ele>
        <time>2022-07-18T15:38:24Z</time>
      </trkpt>
      <trkpt lat="44.40516" lon="7.10756">
        <ele>1946.2</ele>
        <time>2022-07-18T15:38:25Z</time>
      </trkpt>
      <trkpt lat="44.40514" lon="7.10756">
        <ele>1946.6</ele>
        <time>2022-07-18T15:38:26Z</time>
      </trkpt>
      <trkpt lat="44.40512" lon="7.10756">
        <ele>1946.8</ele>
        <time>2022-07-18T15:38:27Z</time>
      </trkpt>
      <trkpt lat="44.4051" lon="7.10757">
        <ele>1946.8</ele>
        <time>2022-07-18T15:38:28Z</time>
      </trkpt>
      <trkpt lat="44.40509" lon="7.10757">
        <ele>1947</ele>
        <time>2022-07-18T15:38:29Z</time>
      </trkpt>
      <trkpt lat="44.40507" lon="7.10757">
        <ele>1947</ele>
        <time>2022-07-18T15:38:30Z</time>
      </trkpt>
      <trkpt lat="44.40505" lon="7.10757">
        <ele>1947.4</ele>
        <time>2022-07-18T15:38:31Z</time>
      </trkpt>
      <trkpt lat="44.40503" lon="7.10758">
        <ele>1947.4</ele>
        <time>2022-07-18T15:38:32Z</time>
      </trkpt>
      <trkpt lat="44.40501" lon="7.10758">
        <ele>1947.6</ele>
        <time>2022-07-18T15:38:33Z</time>
      </trkpt>
      <trkpt lat="44.40499" lon="7.10758">
        <ele>1947.8</ele>
        <time>2022-07-18T15:38:34Z</time>
      </trkpt>
      <trkpt lat="44.40497" lon="7.10759">
        <ele>1948.2</ele>
        <time>2022-07-18T15:38:35Z</time>
      </trkpt>
      <trkpt lat="44.40496" lon="7.10761">
        <ele>1948.4</ele>
        <time>2022-07-18T15:38:36Z</time>
      </trkpt>
      <trkpt lat="44.40494" lon="7.10762">
        <ele>1948.6</ele>
        <time>2022-07-18T15:38:37Z</time>
      </trkpt>
      <trkpt lat="44.40492" lon="7.10764">
        <ele>1948.6</ele>
        <time>2022-07-18T15:38:38Z</time>
      </trkpt>
      <trkpt lat="44.40491" lon="7.10764">
        <ele>1949</ele>
        <time>2022-07-18T15:38:39Z</time>
      </trkpt>
      <trkpt lat="44.40489" lon="7.10765">
        <ele>1949.2</ele>
        <time>2022-07-18T15:38:40Z</time>
      </trkpt>
      <trkpt lat="44.40487" lon="7.10765">
        <ele>1949.2</ele>
        <time>2022-07-18T15:38:41Z</time>
      </trkpt>
      <trkpt lat="44.40486" lon="7.10766">
        <ele>1949.4</ele>
        <time>2022-07-18T15:38:42Z</time>
      </trkpt>
      <trkpt lat="44.40484" lon="7.10766">
        <ele>1949.4</ele>
        <time>2022-07-18T15:38:43Z</time>
      </trkpt>
      <trkpt lat="44.40482" lon="7.10766">
        <ele>1949.8</ele>
        <time>2022-07-18T15:38:44Z</time>
      </trkpt>
      <trkpt lat="44.4048" lon="7.10766">
        <ele>1949.8</ele>
        <time>2022-07-18T15:38:45Z</time>
      </trkpt>
      <trkpt lat="44.40479" lon="7.10766">
        <ele>1950.2</ele>
        <time>2022-07-18T15:38:46Z</time>
      </trkpt>
      <trkpt lat="44.40477" lon="7.10767">
        <ele>1950.4</ele>
        <time>2022-07-18T15:38:47Z</time>
      </trkpt>
      <trkpt lat="44.40475" lon="7.10767">
        <ele>1950.6</ele>
        <time>2022-07-18T15:38:48Z</time>
      </trkpt>
      <trkpt lat="44.40473" lon="7.10767">
        <ele>1950.6</ele>
        <time>2022-07-18T15:38:49Z</time>
      </trkpt>
      <trkpt lat="44.40471" lon="7.10767">
        <ele>1950.8</ele>
        <time>2022-07-18T15:38:50Z</time>
      </trkpt>
      <trkpt lat="44.40469" lon="7.10767">
        <ele>1950.8</ele>
        <time>2022-07-18T15:38:51Z</time>
      </trkpt>
      <trkpt lat="44.40467" lon="7.10767">
        <ele>1951.2</ele>
        <time>2022-07-18T15:38:52Z</time>
      </trkpt>
      <trkpt lat="44.40465" lon="7.10767">
        <ele>1951.2</ele>
        <time>2022-07-18T15:38:53Z</time>
      </trkpt>
      <trkpt lat="44.40463" lon="7.10767">
        <ele>1951.4</ele>
        <time>2022-07-18T15:38:54Z</time>
      </trkpt>
      <trkpt lat="44.40461" lon="7.10767">
        <ele>1951.4</ele>
        <time>2022-07-18T15:38:55Z</time>
      </trkpt>
      <trkpt lat="44.40459" lon="7.10767">
        <ele>1951.8</ele>
        <time>2022-07-18T15:38:56Z</time>
      </trkpt>
      <trkpt lat="44.40457" lon="7.10767">
        <ele>1952</ele>
        <time>2022-07-18T15:38:57Z</time>
      </trkpt>
      <trkpt lat="44.40455" lon="7.10766">
        <ele>1952.2</ele>
        <time>2022-07-18T15:38:58Z</time>
      </trkpt>
      <trkpt lat="44.40453" lon="7.10766">
        <ele>1952.4</ele>
        <time>2022-07-18T15:38:59Z</time>
      </trkpt>
      <trkpt lat="44.40452" lon="7.10766">
        <ele>1952.6</ele>
        <time>2022-07-18T15:39:00Z</time>
      </trkpt>
      <trkpt lat="44.4045" lon="7.10765">
        <ele>1952.6</ele>
        <time>2022-07-18T15:39:01Z</time>
      </trkpt>
      <trkpt lat="44.40448" lon="7.10765">
        <ele>1953</ele>
        <time>2022-07-18T15:39:02Z</time>
      </trkpt>
      <trkpt lat="44.40447" lon="7.10765">
        <ele>1953.2</ele>
        <time>2022-07-18T15:39:03Z</time>
      </trkpt>
      <trkpt lat="44.40445" lon="7.10765">
        <ele>1953.6</ele>
        <time>2022-07-18T15:39:04Z</time>
      </trkpt>
      <trkpt lat="44.40443" lon="7.10765">
        <ele>1953.8</ele>
        <time>2022-07-18T15:39:05Z</time>
      </trkpt>
      <trkpt lat="44.40441" lon="7.10765">
        <ele>1953.8</ele>
        <time>2022-07-18T15:39:06Z</time>
      </trkpt>
      <trkpt lat="44.40439" lon="7.10765">
        <ele>1954.2</ele>
        <time>2022-07-18T15:39:07Z</time>
      </trkpt>
      <trkpt lat="44.40437" lon="7.10764">
        <ele>1954.4</ele>
        <time>2022-07-18T15:39:08Z</time>
      </trkpt>
      <trkpt lat="44.40435" lon="7.10764">
        <ele>1954.4</ele>
        <time>2022-07-18T15:39:09Z</time>
      </trkpt>
      <trkpt lat="44.40433" lon="7.10764">
        <ele>1954.6</ele>
        <time>2022-07-18T15:39:10Z</time>
      </trkpt>
      <trkpt lat="44.40432" lon="7.10763">
        <ele>1954.6</ele>
        <time>2022-07-18T15:39:11Z</time>
      </trkpt>
      <trkpt lat="44.4043" lon="7.10763">
        <ele>1955</ele>
        <time>2022-07-18T15:39:12Z</time>
      </trkpt>
      <trkpt lat="44.40428" lon="7.10763">
        <ele>1955</ele>
        <time>2022-07-18T15:39:13Z</time>
      </trkpt>
      <trkpt lat="44.40426" lon="7.10762">
        <ele>1955.2</ele>
        <time>2022-07-18T15:39:14Z</time>
      </trkpt>
      <trkpt lat="44.40424" lon="7.10762">
        <ele>1955.2</ele>
        <time>2022-07-18T15:39:15Z</time>
      </trkpt>
      <trkpt lat="44.40422" lon="7.10762">
        <ele>1955.6</ele>
        <time>2022-07-18T15:39:16Z</time>
      </trkpt>
      <trkpt lat="44.4042" lon="7.10762">
        <ele>1955.6</ele>
        <time>2022-07-18T15:39:17Z</time>
      </trkpt>
      <trkpt lat="44.40419" lon="7.10761">
        <ele>1956</ele>
        <time>2022-07-18T15:39:18Z</time>
      </trkpt>
      <trkpt lat="44.40417" lon="7.10761">
        <ele>1956</ele>
        <time>2022-07-18T15:39:19Z</time>
      </trkpt>
      <trkpt lat="44.40415" lon="7.1076">
        <ele>1956.4</ele>
        <time>2022-07-18T15:39:20Z</time>
      </trkpt>
      <trkpt lat="44.40414" lon="7.10759">
        <ele>1956.4</ele>
        <time>2022-07-18T15:39:21Z</time>
      </trkpt>
      <trkpt lat="44.40412" lon="7.10759">
        <ele>1956.6</ele>
        <time>2022-07-18T15:39:22Z</time>
      </trkpt>
      <trkpt lat="44.4041" lon="7.10758">
        <ele>1956.6</ele>
        <time>2022-07-18T15:39:23Z</time>
      </trkpt>
      <trkpt lat="44.40409" lon="7.10757">
        <ele>1957.2</ele>
        <time>2022-07-18T15:39:24Z</time>
      </trkpt>
      <trkpt lat="44.40407" lon="7.10756">
        <ele>1957.2</ele>
        <time>2022-07-18T15:39:25Z</time>
      </trkpt>
      <trkpt lat="44.40405" lon="7.10755">
        <ele>1957.4</ele>
        <time>2022-07-18T15:39:26Z</time>
      </trkpt>
      <trkpt lat="44.40404" lon="7.10755">
        <ele>1957.6</ele>
        <time>2022-07-18T15:39:27Z</time>
      </trkpt>
      <trkpt lat="44.40402" lon="7.10755">
        <ele>1957.8</ele>
        <time>2022-07-18T15:39:28Z</time>
      </trkpt>
      <trkpt lat="44.404" lon="7.10754">
        <ele>1957.8</ele>
        <time>2022-07-18T15:39:29Z</time>
      </trkpt>
      <trkpt lat="44.40398" lon="7.10754">
        <ele>1958.2</ele>
        <time>2022-07-18T15:39:30Z</time>
      </trkpt>
      <trkpt lat="44.40397" lon="7.10754">
        <ele>1958.2</ele>
        <time>2022-07-18T15:39:31Z</time>
      </trkpt>
      <trkpt lat="44.40395" lon="7.10753">
        <ele>1958.4</ele>
        <time>2022-07-18T15:39:32Z</time>
      </trkpt>
      <trkpt lat="44.40393" lon="7.10752">
        <ele>1958.4</ele>
        <time>2022-07-18T15:39:33Z</time>
      </trkpt>
      <trkpt lat="44.40392" lon="7.10751">
        <ele>1958.8</ele>
        <time>2022-07-18T15:39:34Z</time>
      </trkpt>
      <trkpt lat="44.4039" lon="7.10751">
        <ele>1958.8</ele>
        <time>2022-07-18T15:39:35Z</time>
      </trkpt>
      <trkpt lat="44.40388" lon="7.1075">
        <ele>1959</ele>
        <time>2022-07-18T15:39:36Z</time>
      </trkpt>
      <trkpt lat="44.40386" lon="7.1075">
        <ele>1959</ele>
        <time>2022-07-18T15:39:37Z</time>
      </trkpt>
      <trkpt lat="44.40385" lon="7.1075">
        <ele>1959.4</ele>
        <time>2022-07-18T15:39:38Z</time>
      </trkpt>
      <trkpt lat="44.40383" lon="7.10749">
        <ele>1959.4</ele>
        <time>2022-07-18T15:39:39Z</time>
      </trkpt>
      <trkpt lat="44.40381" lon="7.10748">
        <ele>1959.6</ele>
        <time>2022-07-18T15:39:40Z</time>
      </trkpt>
      <trkpt lat="44.40379" lon="7.10748">
        <ele>1959.6</ele>
        <time>2022-07-18T15:39:41Z</time>
      </trkpt>
      <trkpt lat="44.40377" lon="7.10747">
        <ele>1960</ele>
        <time>2022-07-18T15:39:42Z</time>
      </trkpt>
      <trkpt lat="44.40376" lon="7.10747">
        <ele>1960</ele>
        <time>2022-07-18T15:39:43Z</time>
      </trkpt>
      <trkpt lat="44.40374" lon="7.10747">
        <ele>1960.4</ele>
        <time>2022-07-18T15:39:44Z</time>
      </trkpt>
      <trkpt lat="44.40372" lon="7.10747">
        <ele>1960.6</ele>
        <time>2022-07-18T15:39:45Z</time>
      </trkpt>
      <trkpt lat="44.4037" lon="7.10747">
        <ele>1960.6</ele>
        <time>2022-07-18T15:39:46Z</time>
      </trkpt>
      <trkpt lat="44.40369" lon="7.10747">
        <ele>1960.8</ele>
        <time>2022-07-18T15:39:47Z</time>
      </trkpt>
      <trkpt lat="44.40367" lon="7.10746">
        <ele>1960.8</ele>
        <time>2022-07-18T15:39:48Z</time>
      </trkpt>
      <trkpt lat="44.40365" lon="7.10746">
        <ele>1961.2</ele>
        <time>2022-07-18T15:39:49Z</time>
      </trkpt>
      <trkpt lat="44.40363" lon="7.10745">
        <ele>1961.4</ele>
        <time>2022-07-18T15:39:50Z</time>
      </trkpt>
      <trkpt lat="44.40362" lon="7.10744">
        <ele>1961.6</ele>
        <time>2022-07-18T15:39:51Z</time>
      </trkpt>
      <trkpt lat="44.4036" lon="7.10743">
        <ele>1961.6</ele>
        <time>2022-07-18T15:39:52Z</time>
      </trkpt>
      <trkpt lat="44.40359" lon="7.10741">
        <ele>1961.8</ele>
        <time>2022-07-18T15:39:53Z</time>
      </trkpt>
      <trkpt lat="44.40358" lon="7.10739">
        <ele>1962.2</ele>
        <time>2022-07-18T15:39:54Z</time>
      </trkpt>
      <trkpt lat="44.40357" lon="7.10737">
        <ele>1962.4</ele>
        <time>2022-07-18T15:39:55Z</time>
      </trkpt>
      <trkpt lat="44.40356" lon="7.10735">
        <ele>1962.4</ele>
        <time>2022-07-18T15:39:56Z</time>
      </trkpt>
      <trkpt lat="44.40355" lon="7.10733">
        <ele>1962.8</ele>
        <time>2022-07-18T15:39:57Z</time>
      </trkpt>
      <trkpt lat="44.40354" lon="7.10731">
        <ele>1962.8</ele>
        <time>2022-07-18T15:39:58Z</time>
      </trkpt>
      <trkpt lat="44.40353" lon="7.1073">
        <ele>1963</ele>
        <time>2022-07-18T15:39:59Z</time>
      </trkpt>
      <trkpt lat="44.40351" lon="7.10729">
        <ele>1963</ele>
        <time>2022-07-18T15:40:00Z</time>
      </trkpt>
      <trkpt lat="44.4035" lon="7.10727">
        <ele>1963.4</ele>
        <time>2022-07-18T15:40:01Z</time>
      </trkpt>
      <trkpt lat="44.40349" lon="7.10726">
        <ele>1963.4</ele>
        <time>2022-07-18T15:40:02Z</time>
      </trkpt>
      <trkpt lat="44.40348" lon="7.10724">
        <ele>1963.8</ele>
        <time>2022-07-18T15:40:03Z</time>
      </trkpt>
      <trkpt lat="44.40346" lon="7.10723">
        <ele>1963.8</ele>
        <time>2022-07-18T15:40:04Z</time>
      </trkpt>
      <trkpt lat="44.40345" lon="7.10721">
        <ele>1964.2</ele>
        <time>2022-07-18T15:40:05Z</time>
      </trkpt>
      <trkpt lat="44.40344" lon="7.1072">
        <ele>1964.2</ele>
        <time>2022-07-18T15:40:06Z</time>
      </trkpt>
      <trkpt lat="44.40343" lon="7.10718">
        <ele>1964.6</ele>
        <time>2022-07-18T15:40:07Z</time>
      </trkpt>
      <trkpt lat="44.40342" lon="7.10717">
        <ele>1964.8</ele>
        <time>2022-07-18T15:40:08Z</time>
      </trkpt>
      <trkpt lat="44.40341" lon="7.10715">
        <ele>1965</ele>
        <time>2022-07-18T15:40:09Z</time>
      </trkpt>
      <trkpt lat="44.40339" lon="7.10714">
        <ele>1965</ele>
        <time>2022-07-18T15:40:10Z</time>
      </trkpt>
      <trkpt lat="44.40338" lon="7.10712">
        <ele>1965.2</ele>
        <time>2022-07-18T15:40:11Z</time>
      </trkpt>
      <trkpt lat="44.40336" lon="7.10711">
        <ele>1965.4</ele>
        <time>2022-07-18T15:40:12Z</time>
      </trkpt>
      <trkpt lat="44.40335" lon="7.1071">
        <ele>1965.4</ele>
        <time>2022-07-18T15:40:13Z</time>
      </trkpt>
      <trkpt lat="44.40334" lon="7.10708">
        <ele>1965.8</ele>
        <time>2022-07-18T15:40:14Z</time>
      </trkpt>
      <trkpt lat="44.40333" lon="7.10706">
        <ele>1965.8</ele>
        <time>2022-07-18T15:40:15Z</time>
      </trkpt>
      <trkpt lat="44.40332" lon="7.10704">
        <ele>1966.2</ele>
        <time>2022-07-18T15:40:16Z</time>
      </trkpt>
      <trkpt lat="44.40331" lon="7.10703">
        <ele>1966.4</ele>
        <time>2022-07-18T15:40:17Z</time>
      </trkpt>
      <trkpt lat="44.40329" lon="7.10702">
        <ele>1966.6</ele>
        <time>2022-07-18T15:40:18Z</time>
      </trkpt>
      <trkpt lat="44.40328" lon="7.107">
        <ele>1966.8</ele>
        <time>2022-07-18T15:40:19Z</time>
      </trkpt>
      <trkpt lat="44.40328" lon="7.10698">
        <ele>1967</ele>
        <time>2022-07-18T15:40:20Z</time>
      </trkpt>
      <trkpt lat="44.40327" lon="7.10696">
        <ele>1967</ele>
        <time>2022-07-18T15:40:21Z</time>
      </trkpt>
      <trkpt lat="44.40327" lon="7.10693">
        <ele>1967.2</ele>
        <time>2022-07-18T15:40:22Z</time>
      </trkpt>
      <trkpt lat="44.40326" lon="7.10691">
        <ele>1967.2</ele>
        <time>2022-07-18T15:40:23Z</time>
      </trkpt>
      <trkpt lat="44.40326" lon="7.10689">
        <ele>1967.6</ele>
        <time>2022-07-18T15:40:24Z</time>
      </trkpt>
      <trkpt lat="44.40325" lon="7.10686">
        <ele>1967.6</ele>
        <time>2022-07-18T15:40:25Z</time>
      </trkpt>
      <trkpt lat="44.40325" lon="7.10684">
        <ele>1968</ele>
        <time>2022-07-18T15:40:26Z</time>
      </trkpt>
      <trkpt lat="44.40325" lon="7.10681">
        <ele>1968</ele>
        <time>2022-07-18T15:40:27Z</time>
      </trkpt>
      <trkpt lat="44.40324" lon="7.10679">
        <ele>1968.4</ele>
        <time>2022-07-18T15:40:28Z</time>
      </trkpt>
      <trkpt lat="44.40324" lon="7.10677">
        <ele>1968.4</ele>
        <time>2022-07-18T15:40:29Z</time>
      </trkpt>
      <trkpt lat="44.40324" lon="7.10674">
        <ele>1968.8</ele>
        <time>2022-07-18T15:40:30Z</time>
      </trkpt>
      <trkpt lat="44.40324" lon="7.10672">
        <ele>1968.8</ele>
        <time>2022-07-18T15:40:31Z</time>
      </trkpt>
      <trkpt lat="44.40324" lon="7.1067">
        <ele>1969.2</ele>
        <time>2022-07-18T15:40:32Z</time>
      </trkpt>
      <trkpt lat="44.40324" lon="7.10667">
        <ele>1969.2</ele>
        <time>2022-07-18T15:40:33Z</time>
      </trkpt>
      <trkpt lat="44.40323" lon="7.10665">
        <ele>1969.4</ele>
        <time>2022-07-18T15:40:34Z</time>
      </trkpt>
      <trkpt lat="44.40323" lon="7.10663">
        <ele>1969.4</ele>
        <time>2022-07-18T15:40:35Z</time>
      </trkpt>
      <trkpt lat="44.40322" lon="7.10661">
        <ele>1969.6</ele>
        <time>2022-07-18T15:40:36Z</time>
      </trkpt>
      <trkpt lat="44.40322" lon="7.10659">
        <ele>1969.6</ele>
        <time>2022-07-18T15:40:37Z</time>
      </trkpt>
      <trkpt lat="44.40321" lon="7.10657">
        <ele>1970</ele>
        <time>2022-07-18T15:40:38Z</time>
      </trkpt>
      <trkpt lat="44.40321" lon="7.10655">
        <ele>1970</ele>
        <time>2022-07-18T15:40:39Z</time>
      </trkpt>
      <trkpt lat="44.40321" lon="7.10653">
        <ele>1970.2</ele>
        <time>2022-07-18T15:40:40Z</time>
      </trkpt>
      <trkpt lat="44.40321" lon="7.10651">
        <ele>1970.4</ele>
        <time>2022-07-18T15:40:41Z</time>
      </trkpt>
      <trkpt lat="44.40321" lon="7.10649">
        <ele>1970.4</ele>
        <time>2022-07-18T15:40:42Z</time>
      </trkpt>
      <trkpt lat="44.4032" lon="7.10647">
        <ele>1970.8</ele>
        <time>2022-07-18T15:40:43Z</time>
      </trkpt>
      <trkpt lat="44.4032" lon="7.10645">
        <ele>1971</ele>
        <time>2022-07-18T15:40:44Z</time>
      </trkpt>
      <trkpt lat="44.4032" lon="7.10642">
        <ele>1971</ele>
        <time>2022-07-18T15:40:45Z</time>
      </trkpt>
      <trkpt lat="44.4032" lon="7.1064">
        <ele>1971</ele>
        <time>2022-07-18T15:40:46Z</time>
      </trkpt>
      <trkpt lat="44.4032" lon="7.10638">
        <ele>1971.2</ele>
        <time>2022-07-18T15:40:47Z</time>
      </trkpt>
      <trkpt lat="44.4032" lon="7.10636">
        <ele>1971.2</ele>
        <time>2022-07-18T15:40:48Z</time>
      </trkpt>
      <trkpt lat="44.40319" lon="7.10634">
        <ele>1971.6</ele>
        <time>2022-07-18T15:40:49Z</time>
      </trkpt>
      <trkpt lat="44.40319" lon="7.10632">
        <ele>1971.6</ele>
        <time>2022-07-18T15:40:50Z</time>
      </trkpt>
      <trkpt lat="44.40319" lon="7.1063">
        <ele>1971.6</ele>
        <time>2022-07-18T15:40:51Z</time>
      </trkpt>
      <trkpt lat="44.40319" lon="7.10628">
        <ele>1971.8</ele>
        <time>2022-07-18T15:40:52Z</time>
      </trkpt>
      <trkpt lat="44.40318" lon="7.10626">
        <ele>1971.8</ele>
        <time>2022-07-18T15:40:53Z</time>
      </trkpt>
      <trkpt lat="44.40318" lon="7.10623">
        <ele>1972.2</ele>
        <time>2022-07-18T15:40:54Z</time>
      </trkpt>
      <trkpt lat="44.40318" lon="7.10621">
        <ele>1972.2</ele>
        <time>2022-07-18T15:40:55Z</time>
      </trkpt>
      <trkpt lat="44.40318" lon="7.10619">
        <ele>1972.6</ele>
        <time>2022-07-18T15:40:56Z</time>
      </trkpt>
      <trkpt lat="44.40318" lon="7.10617">
        <ele>1972.8</ele>
        <time>2022-07-18T15:40:57Z</time>
      </trkpt>
      <trkpt lat="44.40318" lon="7.10615">
        <ele>1972.8</ele>
        <time>2022-07-18T15:40:58Z</time>
      </trkpt>
      <trkpt lat="44.40318" lon="7.10612">
        <ele>1972.8</ele>
        <time>2022-07-18T15:40:59Z</time>
      </trkpt>
      <trkpt lat="44.40317" lon="7.1061">
        <ele>1973</ele>
        <time>2022-07-18T15:41:00Z</time>
      </trkpt>
      <trkpt lat="44.40317" lon="7.10608">
        <ele>1973</ele>
        <time>2022-07-18T15:41:01Z</time>
      </trkpt>
      <trkpt lat="44.40317" lon="7.10606">
        <ele>1973.2</ele>
        <time>2022-07-18T15:41:02Z</time>
      </trkpt>
      <trkpt lat="44.40316" lon="7.10603">
        <ele>1973.2</ele>
        <time>2022-07-18T15:41:03Z</time>
      </trkpt>
      <trkpt lat="44.40316" lon="7.10601">
        <ele>1973.6</ele>
        <time>2022-07-18T15:41:04Z</time>
      </trkpt>
      <trkpt lat="44.40316" lon="7.10599">
        <ele>1973.6</ele>
        <time>2022-07-18T15:41:05Z</time>
      </trkpt>
      <trkpt lat="44.40316" lon="7.10597">
        <ele>1973.8</ele>
        <time>2022-07-18T15:41:06Z</time>
      </trkpt>
      <trkpt lat="44.40315" lon="7.10595">
        <ele>1973.8</ele>
        <time>2022-07-18T15:41:07Z</time>
      </trkpt>
      <trkpt lat="44.40315" lon="7.10592">
        <ele>1974.2</ele>
        <time>2022-07-18T15:41:08Z</time>
      </trkpt>
      <trkpt lat="44.40314" lon="7.1059">
        <ele>1974.2</ele>
        <time>2022-07-18T15:41:09Z</time>
      </trkpt>
      <trkpt lat="44.40314" lon="7.10588">
        <ele>1974.4</ele>
        <time>2022-07-18T15:41:10Z</time>
      </trkpt>
      <trkpt lat="44.40313" lon="7.10586">
        <ele>1974.4</ele>
        <time>2022-07-18T15:41:11Z</time>
      </trkpt>
      <trkpt lat="44.40313" lon="7.10583">
        <ele>1974.8</ele>
        <time>2022-07-18T15:41:12Z</time>
      </trkpt>
      <trkpt lat="44.40312" lon="7.10581">
        <ele>1974.8</ele>
        <time>2022-07-18T15:41:13Z</time>
      </trkpt>
      <trkpt lat="44.40312" lon="7.10579">
        <ele>1974.8</ele>
        <time>2022-07-18T15:41:14Z</time>
      </trkpt>
      <trkpt lat="44.40312" lon="7.10576">
        <ele>1975.2</ele>
        <time>2022-07-18T15:41:15Z</time>
      </trkpt>
      <trkpt lat="44.40312" lon="7.10574">
        <ele>1975.2</ele>
        <time>2022-07-18T15:41:16Z</time>
      </trkpt>
      <trkpt lat="44.40311" lon="7.10571">
        <ele>1975.4</ele>
        <time>2022-07-18T15:41:17Z</time>
      </trkpt>
      <trkpt lat="44.40311" lon="7.10569">
        <ele>1975.6</ele>
        <time>2022-07-18T15:41:18Z</time>
      </trkpt>
      <trkpt lat="44.4031" lon="7.10567">
        <ele>1975.6</ele>
        <time>2022-07-18T15:41:19Z</time>
      </trkpt>
      <trkpt lat="44.40308" lon="7.10564">
        <ele>1975.8</ele>
        <time>2022-07-18T15:41:20Z</time>
      </trkpt>
      <trkpt lat="44.40307" lon="7.10562">
        <ele>1975.8</ele>
        <time>2022-07-18T15:41:21Z</time>
      </trkpt>
      <trkpt lat="44.40306" lon="7.1056">
        <ele>1976.2</ele>
        <time>2022-07-18T15:41:22Z</time>
      </trkpt>
      <trkpt lat="44.40304" lon="7.10559">
        <ele>1976.2</ele>
        <time>2022-07-18T15:41:23Z</time>
      </trkpt>
      <trkpt lat="44.40303" lon="7.10557">
        <ele>1976.2</ele>
        <time>2022-07-18T15:41:24Z</time>
      </trkpt>
      <trkpt lat="44.40301" lon="7.10556">
        <ele>1976.4</ele>
        <time>2022-07-18T15:41:25Z</time>
      </trkpt>
      <trkpt lat="44.403" lon="7.10554">
        <ele>1976.4</ele>
        <time>2022-07-18T15:41:26Z</time>
      </trkpt>
      <trkpt lat="44.40298" lon="7.10554">
        <ele>1976.8</ele>
        <time>2022-07-18T15:41:27Z</time>
      </trkpt>
      <trkpt lat="44.40296" lon="7.10552">
        <ele>1976.8</ele>
        <time>2022-07-18T15:41:28Z</time>
      </trkpt>
      <trkpt lat="44.40294" lon="7.10552">
        <ele>1977</ele>
        <time>2022-07-18T15:41:29Z</time>
      </trkpt>
      <trkpt lat="44.40293" lon="7.10551">
        <ele>1977</ele>
        <time>2022-07-18T15:41:30Z</time>
      </trkpt>
      <trkpt lat="44.40291" lon="7.1055">
        <ele>1977.4</ele>
        <time>2022-07-18T15:41:31Z</time>
      </trkpt>
      <trkpt lat="44.40289" lon="7.1055">
        <ele>1977.4</ele>
        <time>2022-07-18T15:41:32Z</time>
      </trkpt>
      <trkpt lat="44.40287" lon="7.10549">
        <ele>1977.4</ele>
        <time>2022-07-18T15:41:33Z</time>
      </trkpt>
      <trkpt lat="44.40286" lon="7.10548">
        <ele>1977.6</ele>
        <time>2022-07-18T15:41:35Z</time>
      </trkpt>
      <trkpt lat="44.40284" lon="7.10547">
        <ele>1977.6</ele>
        <time>2022-07-18T15:41:36Z</time>
      </trkpt>
      <trkpt lat="44.40282" lon="7.10547">
        <ele>1977.8</ele>
        <time>2022-07-18T15:41:37Z</time>
      </trkpt>
      <trkpt lat="44.4028" lon="7.10547">
        <ele>1977.8</ele>
        <time>2022-07-18T15:41:38Z</time>
      </trkpt>
      <trkpt lat="44.40278" lon="7.10546">
        <ele>1978</ele>
        <time>2022-07-18T15:41:39Z</time>
      </trkpt>
      <trkpt lat="44.40276" lon="7.10546">
        <ele>1978</ele>
        <time>2022-07-18T15:41:40Z</time>
      </trkpt>
      <trkpt lat="44.40272" lon="7.10545">
        <ele>1978.4</ele>
        <time>2022-07-18T15:41:41Z</time>
      </trkpt>
      <trkpt lat="44.4027" lon="7.10544">
        <ele>1978.4</ele>
        <time>2022-07-18T15:41:42Z</time>
      </trkpt>
      <trkpt lat="44.40268" lon="7.10544">
        <ele>1978.6</ele>
        <time>2022-07-18T15:41:43Z</time>
      </trkpt>
      <trkpt lat="44.40266" lon="7.10544">
        <ele>1978.6</ele>
        <time>2022-07-18T15:41:44Z</time>
      </trkpt>
      <trkpt lat="44.40264" lon="7.10545">
        <ele>1979</ele>
        <time>2022-07-18T15:41:45Z</time>
      </trkpt>
      <trkpt lat="44.40262" lon="7.10545">
        <ele>1979</ele>
        <time>2022-07-18T15:41:46Z</time>
      </trkpt>
      <trkpt lat="44.4026" lon="7.10545">
        <ele>1979.2</ele>
        <time>2022-07-18T15:41:47Z</time>
      </trkpt>
      <trkpt lat="44.40258" lon="7.10545">
        <ele>1979.2</ele>
        <time>2022-07-18T15:41:48Z</time>
      </trkpt>
      <trkpt lat="44.40256" lon="7.10546">
        <ele>1979.4</ele>
        <time>2022-07-18T15:41:49Z</time>
      </trkpt>
      <trkpt lat="44.40254" lon="7.10546">
        <ele>1979.4</ele>
        <time>2022-07-18T15:41:50Z</time>
      </trkpt>
      <trkpt lat="44.40252" lon="7.10546">
        <ele>1979.6</ele>
        <time>2022-07-18T15:41:51Z</time>
      </trkpt>
      <trkpt lat="44.4025" lon="7.10547">
        <ele>1979.6</ele>
        <time>2022-07-18T15:41:52Z</time>
      </trkpt>
      <trkpt lat="44.40248" lon="7.10547">
        <ele>1980</ele>
        <time>2022-07-18T15:41:53Z</time>
      </trkpt>
      <trkpt lat="44.40246" lon="7.10548">
        <ele>1980</ele>
        <time>2022-07-18T15:41:54Z</time>
      </trkpt>
      <trkpt lat="44.40244" lon="7.10548">
        <ele>1980.2</ele>
        <time>2022-07-18T15:41:55Z</time>
      </trkpt>
      <trkpt lat="44.40242" lon="7.10549">
        <ele>1980.2</ele>
        <time>2022-07-18T15:41:56Z</time>
      </trkpt>
      <trkpt lat="44.4024" lon="7.10549">
        <ele>1980.6</ele>
        <time>2022-07-18T15:41:57Z</time>
      </trkpt>
      <trkpt lat="44.40238" lon="7.1055">
        <ele>1980.6</ele>
        <time>2022-07-18T15:41:58Z</time>
      </trkpt>
      <trkpt lat="44.40236" lon="7.1055">
        <ele>1981</ele>
        <time>2022-07-18T15:41:59Z</time>
      </trkpt>
      <trkpt lat="44.40234" lon="7.10551">
        <ele>1981.2</ele>
        <time>2022-07-18T15:42:00Z</time>
      </trkpt>
      <trkpt lat="44.40232" lon="7.10551">
        <ele>1981.4</ele>
        <time>2022-07-18T15:42:01Z</time>
      </trkpt>
      <trkpt lat="44.40231" lon="7.10551">
        <ele>1981.6</ele>
        <time>2022-07-18T15:42:02Z</time>
      </trkpt>
      <trkpt lat="44.40228" lon="7.10552">
        <ele>1981.8</ele>
        <time>2022-07-18T15:42:03Z</time>
      </trkpt>
      <trkpt lat="44.40226" lon="7.10552">
        <ele>1981.8</ele>
        <time>2022-07-18T15:42:04Z</time>
      </trkpt>
      <trkpt lat="44.40224" lon="7.10553">
        <ele>1982.2</ele>
        <time>2022-07-18T15:42:05Z</time>
      </trkpt>
      <trkpt lat="44.40222" lon="7.10553">
        <ele>1982.2</ele>
        <time>2022-07-18T15:42:06Z</time>
      </trkpt>
      <trkpt lat="44.40219" lon="7.10554">
        <ele>1982.4</ele>
        <time>2022-07-18T15:42:07Z</time>
      </trkpt>
      <trkpt lat="44.40217" lon="7.10555">
        <ele>1982.4</ele>
        <time>2022-07-18T15:42:08Z</time>
      </trkpt>
      <trkpt lat="44.40215" lon="7.10556">
        <ele>1982.8</ele>
        <time>2022-07-18T15:42:09Z</time>
      </trkpt>
      <trkpt lat="44.40213" lon="7.10557">
        <ele>1982.8</ele>
        <time>2022-07-18T15:42:10Z</time>
      </trkpt>
      <trkpt lat="44.40211" lon="7.10558">
        <ele>1983</ele>
        <time>2022-07-18T15:42:11Z</time>
      </trkpt>
      <trkpt lat="44.40208" lon="7.10559">
        <ele>1983</ele>
        <time>2022-07-18T15:42:12Z</time>
      </trkpt>
      <trkpt lat="44.40206" lon="7.1056">
        <ele>1983.4</ele>
        <time>2022-07-18T15:42:13Z</time>
      </trkpt>
      <trkpt lat="44.40204" lon="7.10561">
        <ele>1983.4</ele>
        <time>2022-07-18T15:42:14Z</time>
      </trkpt>
      <trkpt lat="44.40202" lon="7.10561">
        <ele>1983.6</ele>
        <time>2022-07-18T15:42:15Z</time>
      </trkpt>
      <trkpt lat="44.402" lon="7.10562">
        <ele>1983.6</ele>
        <time>2022-07-18T15:42:16Z</time>
      </trkpt>
      <trkpt lat="44.40198" lon="7.10563">
        <ele>1983.6</ele>
        <time>2022-07-18T15:42:17Z</time>
      </trkpt>
      <trkpt lat="44.40195" lon="7.10563">
        <ele>1984</ele>
        <time>2022-07-18T15:42:18Z</time>
      </trkpt>
      <trkpt lat="44.40193" lon="7.10564">
        <ele>1984</ele>
        <time>2022-07-18T15:42:19Z</time>
      </trkpt>
      <trkpt lat="44.40191" lon="7.10564">
        <ele>1984.2</ele>
        <time>2022-07-18T15:42:20Z</time>
      </trkpt>
      <trkpt lat="44.40189" lon="7.10565">
        <ele>1984.2</ele>
        <time>2022-07-18T15:42:21Z</time>
      </trkpt>
      <trkpt lat="44.40186" lon="7.10565">
        <ele>1984.4</ele>
        <time>2022-07-18T15:42:22Z</time>
      </trkpt>
      <trkpt lat="44.40184" lon="7.10565">
        <ele>1984.4</ele>
        <time>2022-07-18T15:42:23Z</time>
      </trkpt>
      <trkpt lat="44.40182" lon="7.10565">
        <ele>1984.8</ele>
        <time>2022-07-18T15:42:24Z</time>
      </trkpt>
      <trkpt lat="44.4018" lon="7.10565">
        <ele>1984.8</ele>
        <time>2022-07-18T15:42:25Z</time>
      </trkpt>
      <trkpt lat="44.40178" lon="7.10565">
        <ele>1985</ele>
        <time>2022-07-18T15:42:26Z</time>
      </trkpt>
      <trkpt lat="44.40176" lon="7.10565">
        <ele>1985</ele>
        <time>2022-07-18T15:42:27Z</time>
      </trkpt>
      <trkpt lat="44.40173" lon="7.10565">
        <ele>1985.4</ele>
        <time>2022-07-18T15:42:28Z</time>
      </trkpt>
      <trkpt lat="44.40171" lon="7.10565">
        <ele>1985.4</ele>
        <time>2022-07-18T15:42:29Z</time>
      </trkpt>
      <trkpt lat="44.40169" lon="7.10565">
        <ele>1985.6</ele>
        <time>2022-07-18T15:42:30Z</time>
      </trkpt>
      <trkpt lat="44.40167" lon="7.10565">
        <ele>1985.6</ele>
        <time>2022-07-18T15:42:31Z</time>
      </trkpt>
      <trkpt lat="44.40165" lon="7.10565">
        <ele>1985.8</ele>
        <time>2022-07-18T15:42:32Z</time>
      </trkpt>
      <trkpt lat="44.40163" lon="7.10565">
        <ele>1985.8</ele>
        <time>2022-07-18T15:42:33Z</time>
      </trkpt>
      <trkpt lat="44.40161" lon="7.10565">
        <ele>1986.2</ele>
        <time>2022-07-18T15:42:34Z</time>
      </trkpt>
      <trkpt lat="44.40159" lon="7.10565">
        <ele>1986.2</ele>
        <time>2022-07-18T15:42:35Z</time>
      </trkpt>
      <trkpt lat="44.40157" lon="7.10565">
        <ele>1986.4</ele>
        <time>2022-07-18T15:42:36Z</time>
      </trkpt>
      <trkpt lat="44.40155" lon="7.10565">
        <ele>1986.4</ele>
        <time>2022-07-18T15:42:37Z</time>
      </trkpt>
      <trkpt lat="44.40153" lon="7.10566">
        <ele>1986.6</ele>
        <time>2022-07-18T15:42:38Z</time>
      </trkpt>
      <trkpt lat="44.40151" lon="7.10566">
        <ele>1986.6</ele>
        <time>2022-07-18T15:42:39Z</time>
      </trkpt>
      <trkpt lat="44.40149" lon="7.10566">
        <ele>1987</ele>
        <time>2022-07-18T15:42:40Z</time>
      </trkpt>
      <trkpt lat="44.40147" lon="7.10567">
        <ele>1987</ele>
        <time>2022-07-18T15:42:41Z</time>
      </trkpt>
      <trkpt lat="44.40145" lon="7.10567">
        <ele>1987.2</ele>
        <time>2022-07-18T15:42:42Z</time>
      </trkpt>
      <trkpt lat="44.40143" lon="7.10568">
        <ele>1987.2</ele>
        <time>2022-07-18T15:42:43Z</time>
      </trkpt>
      <trkpt lat="44.40141" lon="7.10568">
        <ele>1987.4</ele>
        <time>2022-07-18T15:42:44Z</time>
      </trkpt>
      <trkpt lat="44.40138" lon="7.10569">
        <ele>1987.4</ele>
        <time>2022-07-18T15:42:45Z</time>
      </trkpt>
      <trkpt lat="44.40136" lon="7.1057">
        <ele>1987.8</ele>
        <time>2022-07-18T15:42:46Z</time>
      </trkpt>
      <trkpt lat="44.40134" lon="7.1057">
        <ele>1987.8</ele>
        <time>2022-07-18T15:42:47Z</time>
      </trkpt>
      <trkpt lat="44.40132" lon="7.10571">
        <ele>1988.2</ele>
        <time>2022-07-18T15:42:48Z</time>
      </trkpt>
      <trkpt lat="44.4013" lon="7.10571">
        <ele>1988.2</ele>
        <time>2022-07-18T15:42:49Z</time>
      </trkpt>
      <trkpt lat="44.40128" lon="7.10572">
        <ele>1988.4</ele>
        <time>2022-07-18T15:42:50Z</time>
      </trkpt>
      <trkpt lat="44.40126" lon="7.10573">
        <ele>1988.4</ele>
        <time>2022-07-18T15:42:51Z</time>
      </trkpt>
      <trkpt lat="44.40123" lon="7.10573">
        <ele>1988.6</ele>
        <time>2022-07-18T15:42:52Z</time>
      </trkpt>
      <trkpt lat="44.40121" lon="7.10574">
        <ele>1988.6</ele>
        <time>2022-07-18T15:42:53Z</time>
      </trkpt>
      <trkpt lat="44.40119" lon="7.10574">
        <ele>1988.8</ele>
        <time>2022-07-18T15:42:54Z</time>
      </trkpt>
      <trkpt lat="44.40117" lon="7.10574">
        <ele>1988.8</ele>
        <time>2022-07-18T15:42:55Z</time>
      </trkpt>
      <trkpt lat="44.40115" lon="7.10575">
        <ele>1989.2</ele>
        <time>2022-07-18T15:42:56Z</time>
      </trkpt>
      <trkpt lat="44.40113" lon="7.10575">
        <ele>1989.2</ele>
        <time>2022-07-18T15:42:57Z</time>
      </trkpt>
      <trkpt lat="44.4011" lon="7.10575">
        <ele>1989.4</ele>
        <time>2022-07-18T15:42:58Z</time>
      </trkpt>
      <trkpt lat="44.40108" lon="7.10575">
        <ele>1989.4</ele>
        <time>2022-07-18T15:42:59Z</time>
      </trkpt>
      <trkpt lat="44.40106" lon="7.10575">
        <ele>1989.8</ele>
        <time>2022-07-18T15:43:00Z</time>
      </trkpt>
      <trkpt lat="44.40104" lon="7.10576">
        <ele>1989.8</ele>
        <time>2022-07-18T15:43:01Z</time>
      </trkpt>
      <trkpt lat="44.40102" lon="7.10576">
        <ele>1990</ele>
        <time>2022-07-18T15:43:02Z</time>
      </trkpt>
      <trkpt lat="44.401" lon="7.10577">
        <ele>1990</ele>
        <time>2022-07-18T15:43:03Z</time>
      </trkpt>
      <trkpt lat="44.40098" lon="7.10578">
        <ele>1990.4</ele>
        <time>2022-07-18T15:43:04Z</time>
      </trkpt>
      <trkpt lat="44.40096" lon="7.10579">
        <ele>1990.4</ele>
        <time>2022-07-18T15:43:05Z</time>
      </trkpt>
      <trkpt lat="44.40094" lon="7.10579">
        <ele>1990.6</ele>
        <time>2022-07-18T15:43:06Z</time>
      </trkpt>
      <trkpt lat="44.40092" lon="7.1058">
        <ele>1990.6</ele>
        <time>2022-07-18T15:43:07Z</time>
      </trkpt>
      <trkpt lat="44.4009" lon="7.10581">
        <ele>1991</ele>
        <time>2022-07-18T15:43:08Z</time>
      </trkpt>
      <trkpt lat="44.40088" lon="7.10581">
        <ele>1991</ele>
        <time>2022-07-18T15:43:09Z</time>
      </trkpt>
      <trkpt lat="44.40086" lon="7.10581">
        <ele>1991.4</ele>
        <time>2022-07-18T15:43:10Z</time>
      </trkpt>
      <trkpt lat="44.40084" lon="7.10581">
        <ele>1991.4</ele>
        <time>2022-07-18T15:43:11Z</time>
      </trkpt>
      <trkpt lat="44.40082" lon="7.10582">
        <ele>1991.6</ele>
        <time>2022-07-18T15:43:12Z</time>
      </trkpt>
      <trkpt lat="44.4008" lon="7.10583">
        <ele>1991.6</ele>
        <time>2022-07-18T15:43:13Z</time>
      </trkpt>
      <trkpt lat="44.40078" lon="7.10583">
        <ele>1992</ele>
        <time>2022-07-18T15:43:14Z</time>
      </trkpt>
      <trkpt lat="44.40076" lon="7.10583">
        <ele>1992</ele>
        <time>2022-07-18T15:43:15Z</time>
      </trkpt>
      <trkpt lat="44.40074" lon="7.10584">
        <ele>1992</ele>
        <time>2022-07-18T15:43:16Z</time>
      </trkpt>
      <trkpt lat="44.40072" lon="7.10584">
        <ele>1992.2</ele>
        <time>2022-07-18T15:43:17Z</time>
      </trkpt>
      <trkpt lat="44.4007" lon="7.10585">
        <ele>1992.2</ele>
        <time>2022-07-18T15:43:18Z</time>
      </trkpt>
      <trkpt lat="44.40069" lon="7.10585">
        <ele>1992.4</ele>
        <time>2022-07-18T15:43:19Z</time>
      </trkpt>
      <trkpt lat="44.40067" lon="7.10586">
        <ele>1992.4</ele>
        <time>2022-07-18T15:43:20Z</time>
      </trkpt>
      <trkpt lat="44.40065" lon="7.10587">
        <ele>1992.4</ele>
        <time>2022-07-18T15:43:21Z</time>
      </trkpt>
      <trkpt lat="44.40063" lon="7.10589">
        <ele>1992.8</ele>
        <time>2022-07-18T15:43:22Z</time>
      </trkpt>
      <trkpt lat="44.40062" lon="7.1059">
        <ele>1992.8</ele>
        <time>2022-07-18T15:43:23Z</time>
      </trkpt>
      <trkpt lat="44.4006" lon="7.10592">
        <ele>1993</ele>
        <time>2022-07-18T15:43:24Z</time>
      </trkpt>
      <trkpt lat="44.40059" lon="7.10593">
        <ele>1993</ele>
        <time>2022-07-18T15:43:25Z</time>
      </trkpt>
      <trkpt lat="44.40058" lon="7.10595">
        <ele>1993.4</ele>
        <time>2022-07-18T15:43:26Z</time>
      </trkpt>
      <trkpt lat="44.40056" lon="7.10598">
        <ele>1993.4</ele>
        <time>2022-07-18T15:43:27Z</time>
      </trkpt>
      <trkpt lat="44.40055" lon="7.106">
        <ele>1993.6</ele>
        <time>2022-07-18T15:43:28Z</time>
      </trkpt>
      <trkpt lat="44.40054" lon="7.10602">
        <ele>1993.6</ele>
        <time>2022-07-18T15:43:29Z</time>
      </trkpt>
      <trkpt lat="44.40053" lon="7.10605">
        <ele>1994</ele>
        <time>2022-07-18T15:43:30Z</time>
      </trkpt>
      <trkpt lat="44.40051" lon="7.10607">
        <ele>1994</ele>
        <time>2022-07-18T15:43:31Z</time>
      </trkpt>
      <trkpt lat="44.4005" lon="7.10609">
        <ele>1994.2</ele>
        <time>2022-07-18T15:43:32Z</time>
      </trkpt>
      <trkpt lat="44.40048" lon="7.10611">
        <ele>1994.4</ele>
        <time>2022-07-18T15:43:33Z</time>
      </trkpt>
      <trkpt lat="44.40046" lon="7.10613">
        <ele>1994.4</ele>
        <time>2022-07-18T15:43:34Z</time>
      </trkpt>
      <trkpt lat="44.40045" lon="7.10614">
        <ele>1994.6</ele>
        <time>2022-07-18T15:43:35Z</time>
      </trkpt>
      <trkpt lat="44.40043" lon="7.10616">
        <ele>1994.6</ele>
        <time>2022-07-18T15:43:36Z</time>
      </trkpt>
      <trkpt lat="44.40041" lon="7.10617">
        <ele>1995</ele>
        <time>2022-07-18T15:43:37Z</time>
      </trkpt>
      <trkpt lat="44.40039" lon="7.10618">
        <ele>1995.2</ele>
        <time>2022-07-18T15:43:38Z</time>
      </trkpt>
      <trkpt lat="44.40038" lon="7.10619">
        <ele>1995.2</ele>
        <time>2022-07-18T15:43:39Z</time>
      </trkpt>
      <trkpt lat="44.40036" lon="7.1062">
        <ele>1995.4</ele>
        <time>2022-07-18T15:43:40Z</time>
      </trkpt>
      <trkpt lat="44.40034" lon="7.10621">
        <ele>1995.4</ele>
        <time>2022-07-18T15:43:41Z</time>
      </trkpt>
      <trkpt lat="44.40032" lon="7.10621">
        <ele>1995.6</ele>
        <time>2022-07-18T15:43:42Z</time>
      </trkpt>
      <trkpt lat="44.4003" lon="7.10622">
        <ele>1996</ele>
        <time>2022-07-18T15:43:43Z</time>
      </trkpt>
      <trkpt lat="44.40028" lon="7.10623">
        <ele>1996</ele>
        <time>2022-07-18T15:43:44Z</time>
      </trkpt>
      <trkpt lat="44.40026" lon="7.10623">
        <ele>1996.2</ele>
        <time>2022-07-18T15:43:45Z</time>
      </trkpt>
      <trkpt lat="44.40024" lon="7.10623">
        <ele>1996.2</ele>
        <time>2022-07-18T15:43:46Z</time>
      </trkpt>
      <trkpt lat="44.40022" lon="7.10623">
        <ele>1996.6</ele>
        <time>2022-07-18T15:43:47Z</time>
      </trkpt>
      <trkpt lat="44.4002" lon="7.10623">
        <ele>1996.6</ele>
        <time>2022-07-18T15:43:48Z</time>
      </trkpt>
      <trkpt lat="44.40019" lon="7.10623">
        <ele>1996.8</ele>
        <time>2022-07-18T15:43:49Z</time>
      </trkpt>
      <trkpt lat="44.40017" lon="7.10623">
        <ele>1996.8</ele>
        <time>2022-07-18T15:43:50Z</time>
      </trkpt>
      <trkpt lat="44.40015" lon="7.10622">
        <ele>1997</ele>
        <time>2022-07-18T15:43:51Z</time>
      </trkpt>
      <trkpt lat="44.40013" lon="7.10622">
        <ele>1997</ele>
        <time>2022-07-18T15:43:52Z</time>
      </trkpt>
      <trkpt lat="44.40011" lon="7.10622">
        <ele>1997.4</ele>
        <time>2022-07-18T15:43:53Z</time>
      </trkpt>
      <trkpt lat="44.40009" lon="7.10622">
        <ele>1997.4</ele>
        <time>2022-07-18T15:43:54Z</time>
      </trkpt>
      <trkpt lat="44.40007" lon="7.10622">
        <ele>1997.6</ele>
        <time>2022-07-18T15:43:55Z</time>
      </trkpt>
      <trkpt lat="44.40004" lon="7.10623">
        <ele>1997.6</ele>
        <time>2022-07-18T15:43:56Z</time>
      </trkpt>
      <trkpt lat="44.40002" lon="7.10623">
        <ele>1998</ele>
        <time>2022-07-18T15:43:57Z</time>
      </trkpt>
      <trkpt lat="44.4" lon="7.10623">
        <ele>1998</ele>
        <time>2022-07-18T15:43:58Z</time>
      </trkpt>
      <trkpt lat="44.39998" lon="7.10624">
        <ele>1998</ele>
        <time>2022-07-18T15:43:59Z</time>
      </trkpt>
      <trkpt lat="44.39996" lon="7.10627">
        <ele>1998.2</ele>
        <time>2022-07-18T15:44:01Z</time>
      </trkpt>
      <trkpt lat="44.39994" lon="7.10629">
        <ele>1998.4</ele>
        <time>2022-07-18T15:44:02Z</time>
      </trkpt>
      <trkpt lat="44.39993" lon="7.10632">
        <ele>1998.4</ele>
        <time>2022-07-18T15:44:03Z</time>
      </trkpt>
      <trkpt lat="44.39992" lon="7.10634">
        <ele>1998.8</ele>
        <time>2022-07-18T15:44:04Z</time>
      </trkpt>
      <trkpt lat="44.39991" lon="7.10637">
        <ele>1998.8</ele>
        <time>2022-07-18T15:44:05Z</time>
      </trkpt>
      <trkpt lat="44.39989" lon="7.10639">
        <ele>1999</ele>
        <time>2022-07-18T15:44:06Z</time>
      </trkpt>
      <trkpt lat="44.39988" lon="7.10641">
        <ele>1999</ele>
        <time>2022-07-18T15:44:07Z</time>
      </trkpt>
      <trkpt lat="44.39987" lon="7.10643">
        <ele>1999.4</ele>
        <time>2022-07-18T15:44:08Z</time>
      </trkpt>
      <trkpt lat="44.39985" lon="7.10645">
        <ele>1999.6</ele>
        <time>2022-07-18T15:44:09Z</time>
      </trkpt>
      <trkpt lat="44.39983" lon="7.10647">
        <ele>1999.6</ele>
        <time>2022-07-18T15:44:10Z</time>
      </trkpt>
      <trkpt lat="44.39981" lon="7.10649">
        <ele>1999.6</ele>
        <time>2022-07-18T15:44:11Z</time>
      </trkpt>
      <trkpt lat="44.39979" lon="7.1065">
        <ele>2000</ele>
        <time>2022-07-18T15:44:12Z</time>
      </trkpt>
      <trkpt lat="44.39978" lon="7.10652">
        <ele>2000.2</ele>
        <time>2022-07-18T15:44:13Z</time>
      </trkpt>
      <trkpt lat="44.39976" lon="7.10654">
        <ele>2000.2</ele>
        <time>2022-07-18T15:44:14Z</time>
      </trkpt>
      <trkpt lat="44.39974" lon="7.10655">
        <ele>2000.4</ele>
        <time>2022-07-18T15:44:15Z</time>
      </trkpt>
      <trkpt lat="44.39971" lon="7.10655">
        <ele>2000.4</ele>
        <time>2022-07-18T15:44:16Z</time>
      </trkpt>
      <trkpt lat="44.39969" lon="7.10656">
        <ele>2000.4</ele>
        <time>2022-07-18T15:44:17Z</time>
      </trkpt>
      <trkpt lat="44.39967" lon="7.10657">
        <ele>2000.8</ele>
        <time>2022-07-18T15:44:18Z</time>
      </trkpt>
      <trkpt lat="44.39965" lon="7.10658">
        <ele>2000.8</ele>
        <time>2022-07-18T15:44:19Z</time>
      </trkpt>
      <trkpt lat="44.39963" lon="7.10658">
        <ele>2001</ele>
        <time>2022-07-18T15:44:20Z</time>
      </trkpt>
      <trkpt lat="44.39961" lon="7.10659">
        <ele>2001</ele>
        <time>2022-07-18T15:44:21Z</time>
      </trkpt>
      <trkpt lat="44.39958" lon="7.10659">
        <ele>2001.4</ele>
        <time>2022-07-18T15:44:22Z</time>
      </trkpt>
      <trkpt lat="44.39956" lon="7.1066">
        <ele>2001.4</ele>
        <time>2022-07-18T15:44:23Z</time>
      </trkpt>
      <trkpt lat="44.39953" lon="7.10661">
        <ele>2001.6</ele>
        <time>2022-07-18T15:44:24Z</time>
      </trkpt>
      <trkpt lat="44.3995" lon="7.10661">
        <ele>2001.6</ele>
        <time>2022-07-18T15:44:25Z</time>
      </trkpt>
      <trkpt lat="44.39948" lon="7.10662">
        <ele>2002</ele>
        <time>2022-07-18T15:44:26Z</time>
      </trkpt>
      <trkpt lat="44.39945" lon="7.10663">
        <ele>2002</ele>
        <time>2022-07-18T15:44:27Z</time>
      </trkpt>
      <trkpt lat="44.39943" lon="7.10664">
        <ele>2002.2</ele>
        <time>2022-07-18T15:44:28Z</time>
      </trkpt>
      <trkpt lat="44.3994" lon="7.10665">
        <ele>2002.2</ele>
        <time>2022-07-18T15:44:29Z</time>
      </trkpt>
      <trkpt lat="44.39938" lon="7.10667">
        <ele>2002.2</ele>
        <time>2022-07-18T15:44:30Z</time>
      </trkpt>
      <trkpt lat="44.39936" lon="7.10668">
        <ele>2002.6</ele>
        <time>2022-07-18T15:44:31Z</time>
      </trkpt>
      <trkpt lat="44.39933" lon="7.1067">
        <ele>2002.6</ele>
        <time>2022-07-18T15:44:32Z</time>
      </trkpt>
      <trkpt lat="44.39931" lon="7.10671">
        <ele>2002.8</ele>
        <time>2022-07-18T15:44:33Z</time>
      </trkpt>
      <trkpt lat="44.39928" lon="7.10672">
        <ele>2002.8</ele>
        <time>2022-07-18T15:44:34Z</time>
      </trkpt>
      <trkpt lat="44.39925" lon="7.10674">
        <ele>2003</ele>
        <time>2022-07-18T15:44:35Z</time>
      </trkpt>
      <trkpt lat="44.39923" lon="7.10675">
        <ele>2003</ele>
        <time>2022-07-18T15:44:36Z</time>
      </trkpt>
      <trkpt lat="44.3992" lon="7.10675">
        <ele>2003</ele>
        <time>2022-07-18T15:44:37Z</time>
      </trkpt>
      <trkpt lat="44.39917" lon="7.10676">
        <ele>2003.4</ele>
        <time>2022-07-18T15:44:38Z</time>
      </trkpt>
      <trkpt lat="44.39915" lon="7.10676">
        <ele>2003.4</ele>
        <time>2022-07-18T15:44:39Z</time>
      </trkpt>
      <trkpt lat="44.39912" lon="7.10677">
        <ele>2003.4</ele>
        <time>2022-07-18T15:44:40Z</time>
      </trkpt>
      <trkpt lat="44.39909" lon="7.10678">
        <ele>2003.8</ele>
        <time>2022-07-18T15:44:41Z</time>
      </trkpt>
      <trkpt lat="44.39907" lon="7.10678">
        <ele>2003.8</ele>
        <time>2022-07-18T15:44:42Z</time>
      </trkpt>
      <trkpt lat="44.39904" lon="7.10679">
        <ele>2004.2</ele>
        <time>2022-07-18T15:44:43Z</time>
      </trkpt>
      <trkpt lat="44.39902" lon="7.1068">
        <ele>2004.2</ele>
        <time>2022-07-18T15:44:44Z</time>
      </trkpt>
      <trkpt lat="44.399" lon="7.10681">
        <ele>2004.4</ele>
        <time>2022-07-18T15:44:45Z</time>
      </trkpt>
      <trkpt lat="44.39898" lon="7.10683">
        <ele>2004.4</ele>
        <time>2022-07-18T15:44:46Z</time>
      </trkpt>
      <trkpt lat="44.39896" lon="7.10685">
        <ele>2004.8</ele>
        <time>2022-07-18T15:44:47Z</time>
      </trkpt>
      <trkpt lat="44.39894" lon="7.10687">
        <ele>2004.8</ele>
        <time>2022-07-18T15:44:48Z</time>
      </trkpt>
      <trkpt lat="44.39891" lon="7.1069">
        <ele>2005</ele>
        <time>2022-07-18T15:44:49Z</time>
      </trkpt>
      <trkpt lat="44.39889" lon="7.10692">
        <ele>2005</ele>
        <time>2022-07-18T15:44:50Z</time>
      </trkpt>
      <trkpt lat="44.39887" lon="7.10694">
        <ele>2005.4</ele>
        <time>2022-07-18T15:44:51Z</time>
      </trkpt>
      <trkpt lat="44.39885" lon="7.10696">
        <ele>2005.4</ele>
        <time>2022-07-18T15:44:52Z</time>
      </trkpt>
      <trkpt lat="44.39883" lon="7.10698">
        <ele>2005.6</ele>
        <time>2022-07-18T15:44:53Z</time>
      </trkpt>
      <trkpt lat="44.3988" lon="7.107">
        <ele>2005.6</ele>
        <time>2022-07-18T15:44:54Z</time>
      </trkpt>
      <trkpt lat="44.39878" lon="7.10702">
        <ele>2005.8</ele>
        <time>2022-07-18T15:44:55Z</time>
      </trkpt>
      <trkpt lat="44.39876" lon="7.10704">
        <ele>2005.8</ele>
        <time>2022-07-18T15:44:56Z</time>
      </trkpt>
      <trkpt lat="44.39873" lon="7.10706">
        <ele>2006.2</ele>
        <time>2022-07-18T15:44:57Z</time>
      </trkpt>
      <trkpt lat="44.39871" lon="7.10708">
        <ele>2006.2</ele>
        <time>2022-07-18T15:44:58Z</time>
      </trkpt>
      <trkpt lat="44.39869" lon="7.1071">
        <ele>2006.4</ele>
        <time>2022-07-18T15:44:59Z</time>
      </trkpt>
      <trkpt lat="44.39867" lon="7.10712">
        <ele>2006.4</ele>
        <time>2022-07-18T15:45:00Z</time>
      </trkpt>
      <trkpt lat="44.39865" lon="7.10714">
        <ele>2006.8</ele>
        <time>2022-07-18T15:45:01Z</time>
      </trkpt>
      <trkpt lat="44.39862" lon="7.10715">
        <ele>2006.8</ele>
        <time>2022-07-18T15:45:02Z</time>
      </trkpt>
      <trkpt lat="44.39859" lon="7.10716">
        <ele>2006.8</ele>
        <time>2022-07-18T15:45:03Z</time>
      </trkpt>
      <trkpt lat="44.39857" lon="7.10717">
        <ele>2007</ele>
        <time>2022-07-18T15:45:04Z</time>
      </trkpt>
      <trkpt lat="44.39854" lon="7.10718">
        <ele>2007.4</ele>
        <time>2022-07-18T15:45:05Z</time>
      </trkpt>
      <trkpt lat="44.39852" lon="7.10719">
        <ele>2007.4</ele>
        <time>2022-07-18T15:45:06Z</time>
      </trkpt>
      <trkpt lat="44.39849" lon="7.10719">
        <ele>2007.6</ele>
        <time>2022-07-18T15:45:07Z</time>
      </trkpt>
      <trkpt lat="44.39846" lon="7.1072">
        <ele>2007.6</ele>
        <time>2022-07-18T15:45:08Z</time>
      </trkpt>
      <trkpt lat="44.39844" lon="7.1072">
        <ele>2007.6</ele>
        <time>2022-07-18T15:45:09Z</time>
      </trkpt>
      <trkpt lat="44.39841" lon="7.1072">
        <ele>2008</ele>
        <time>2022-07-18T15:45:10Z</time>
      </trkpt>
      <trkpt lat="44.39838" lon="7.1072">
        <ele>2008</ele>
        <time>2022-07-18T15:45:11Z</time>
      </trkpt>
      <trkpt lat="44.39836" lon="7.10721">
        <ele>2008.2</ele>
        <time>2022-07-18T15:45:12Z</time>
      </trkpt>
      <trkpt lat="44.39833" lon="7.10721">
        <ele>2008.2</ele>
        <time>2022-07-18T15:45:13Z</time>
      </trkpt>
      <trkpt lat="44.3983" lon="7.10722">
        <ele>2008.4</ele>
        <time>2022-07-18T15:45:14Z</time>
      </trkpt>
      <trkpt lat="44.39828" lon="7.10723">
        <ele>2008.4</ele>
        <time>2022-07-18T15:45:15Z</time>
      </trkpt>
      <trkpt lat="44.39825" lon="7.10724">
        <ele>2008.6</ele>
        <time>2022-07-18T15:45:16Z</time>
      </trkpt>
      <trkpt lat="44.39823" lon="7.10726">
        <ele>2008.6</ele>
        <time>2022-07-18T15:45:17Z</time>
      </trkpt>
      <trkpt lat="44.39821" lon="7.10729">
        <ele>2008.8</ele>
        <time>2022-07-18T15:45:18Z</time>
      </trkpt>
      <trkpt lat="44.39819" lon="7.10731">
        <ele>2008.8</ele>
        <time>2022-07-18T15:45:19Z</time>
      </trkpt>
      <trkpt lat="44.39818" lon="7.10735">
        <ele>2009</ele>
        <time>2022-07-18T15:45:20Z</time>
      </trkpt>
      <trkpt lat="44.39817" lon="7.10738">
        <ele>2009</ele>
        <time>2022-07-18T15:45:21Z</time>
      </trkpt>
      <trkpt lat="44.39816" lon="7.10742">
        <ele>2009</ele>
        <time>2022-07-18T15:45:22Z</time>
      </trkpt>
      <trkpt lat="44.39815" lon="7.10745">
        <ele>2009.2</ele>
        <time>2022-07-18T15:45:23Z</time>
      </trkpt>
      <trkpt lat="44.39814" lon="7.10749">
        <ele>2009.2</ele>
        <time>2022-07-18T15:45:24Z</time>
      </trkpt>
      <trkpt lat="44.39813" lon="7.10753">
        <ele>2009.6</ele>
        <time>2022-07-18T15:45:25Z</time>
      </trkpt>
      <trkpt lat="44.39813" lon="7.10757">
        <ele>2009.6</ele>
        <time>2022-07-18T15:45:26Z</time>
      </trkpt>
      <trkpt lat="44.39813" lon="7.10761">
        <ele>2009.6</ele>
        <time>2022-07-18T15:45:27Z</time>
      </trkpt>
      <trkpt lat="44.39813" lon="7.10765">
        <ele>2009.6</ele>
        <time>2022-07-18T15:45:28Z</time>
      </trkpt>
      <trkpt lat="44.39814" lon="7.1077">
        <ele>2009.6</ele>
        <time>2022-07-18T15:45:29Z</time>
      </trkpt>
      <trkpt lat="44.39814" lon="7.10774">
        <ele>2009.6</ele>
        <time>2022-07-18T15:45:30Z</time>
      </trkpt>
      <trkpt lat="44.39814" lon="7.10779">
        <ele>2009.6</ele>
        <time>2022-07-18T15:45:31Z</time>
      </trkpt>
      <trkpt lat="44.39814" lon="7.10784">
        <ele>2009.6</ele>
        <time>2022-07-18T15:45:32Z</time>
      </trkpt>
      <trkpt lat="44.39814" lon="7.10789">
        <ele>2009.6</ele>
        <time>2022-07-18T15:45:33Z</time>
      </trkpt>
      <trkpt lat="44.39814" lon="7.10793">
        <ele>2009.8</ele>
        <time>2022-07-18T15:45:34Z</time>
      </trkpt>
      <trkpt lat="44.39815" lon="7.10798">
        <ele>2009.8</ele>
        <time>2022-07-18T15:45:35Z</time>
      </trkpt>
      <trkpt lat="44.39815" lon="7.10802">
        <ele>2010</ele>
        <time>2022-07-18T15:45:36Z</time>
      </trkpt>
      <trkpt lat="44.39816" lon="7.10807">
        <ele>2010</ele>
        <time>2022-07-18T15:45:37Z</time>
      </trkpt>
      <trkpt lat="44.39818" lon="7.1081">
        <ele>2010.4</ele>
        <time>2022-07-18T15:45:38Z</time>
      </trkpt>
      <trkpt lat="44.39819" lon="7.10812">
        <ele>2010.6</ele>
        <time>2022-07-18T15:45:39Z</time>
      </trkpt>
      <trkpt lat="44.39821" lon="7.10815">
        <ele>2011</ele>
        <time>2022-07-18T15:45:40Z</time>
      </trkpt>
      <trkpt lat="44.39823" lon="7.10817">
        <ele>2011</ele>
        <time>2022-07-18T15:45:41Z</time>
      </trkpt>
      <trkpt lat="44.39826" lon="7.10819">
        <ele>2011.2</ele>
        <time>2022-07-18T15:45:42Z</time>
      </trkpt>
      <trkpt lat="44.39828" lon="7.10821">
        <ele>2011.2</ele>
        <time>2022-07-18T15:45:43Z</time>
      </trkpt>
      <trkpt lat="44.39831" lon="7.10823">
        <ele>2011.6</ele>
        <time>2022-07-18T15:45:44Z</time>
      </trkpt>
      <trkpt lat="44.39833" lon="7.10824">
        <ele>2011.6</ele>
        <time>2022-07-18T15:45:45Z</time>
      </trkpt>
      <trkpt lat="44.39836" lon="7.10825">
        <ele>2011.8</ele>
        <time>2022-07-18T15:45:46Z</time>
      </trkpt>
      <trkpt lat="44.39838" lon="7.10826">
        <ele>2011.8</ele>
        <time>2022-07-18T15:45:47Z</time>
      </trkpt>
      <trkpt lat="44.39841" lon="7.10827">
        <ele>2012.2</ele>
        <time>2022-07-18T15:45:48Z</time>
      </trkpt>
      <trkpt lat="44.39843" lon="7.10827">
        <ele>2012.2</ele>
        <time>2022-07-18T15:45:49Z</time>
      </trkpt>
      <trkpt lat="44.39846" lon="7.10829">
        <ele>2012.6</ele>
        <time>2022-07-18T15:45:50Z</time>
      </trkpt>
      <trkpt lat="44.39848" lon="7.1083">
        <ele>2012.6</ele>
        <time>2022-07-18T15:45:51Z</time>
      </trkpt>
      <trkpt lat="44.3985" lon="7.10832">
        <ele>2012.8</ele>
        <time>2022-07-18T15:45:52Z</time>
      </trkpt>
      <trkpt lat="44.39853" lon="7.10834">
        <ele>2012.8</ele>
        <time>2022-07-18T15:45:53Z</time>
      </trkpt>
      <trkpt lat="44.39855" lon="7.10836">
        <ele>2013.2</ele>
        <time>2022-07-18T15:45:54Z</time>
      </trkpt>
      <trkpt lat="44.39857" lon="7.10838">
        <ele>2013.2</ele>
        <time>2022-07-18T15:45:55Z</time>
      </trkpt>
      <trkpt lat="44.39859" lon="7.1084">
        <ele>2013.4</ele>
        <time>2022-07-18T15:45:56Z</time>
      </trkpt>
      <trkpt lat="44.39862" lon="7.10843">
        <ele>2013.4</ele>
        <time>2022-07-18T15:45:57Z</time>
      </trkpt>
      <trkpt lat="44.39864" lon="7.10846">
        <ele>2013.8</ele>
        <time>2022-07-18T15:45:58Z</time>
      </trkpt>
      <trkpt lat="44.39866" lon="7.10848">
        <ele>2013.8</ele>
        <time>2022-07-18T15:45:59Z</time>
      </trkpt>
      <trkpt lat="44.39868" lon="7.1085">
        <ele>2014</ele>
        <time>2022-07-18T15:46:00Z</time>
      </trkpt>
      <trkpt lat="44.3987" lon="7.10852">
        <ele>2014.2</ele>
        <time>2022-07-18T15:46:01Z</time>
      </trkpt>
      <trkpt lat="44.39872" lon="7.10854">
        <ele>2014.2</ele>
        <time>2022-07-18T15:46:02Z</time>
      </trkpt>
      <trkpt lat="44.39874" lon="7.10856">
        <ele>2014.6</ele>
        <time>2022-07-18T15:46:03Z</time>
      </trkpt>
      <trkpt lat="44.39876" lon="7.10859">
        <ele>2014.6</ele>
        <time>2022-07-18T15:46:04Z</time>
      </trkpt>
      <trkpt lat="44.39878" lon="7.10862">
        <ele>2014.8</ele>
        <time>2022-07-18T15:46:05Z</time>
      </trkpt>
      <trkpt lat="44.3988" lon="7.10865">
        <ele>2014.8</ele>
        <time>2022-07-18T15:46:06Z</time>
      </trkpt>
      <trkpt lat="44.39882" lon="7.10869">
        <ele>2015</ele>
        <time>2022-07-18T15:46:07Z</time>
      </trkpt>
      <trkpt lat="44.39883" lon="7.10872">
        <ele>2015</ele>
        <time>2022-07-18T15:46:08Z</time>
      </trkpt>
      <trkpt lat="44.39885" lon="7.10875">
        <ele>2015</ele>
        <time>2022-07-18T15:46:09Z</time>
      </trkpt>
      <trkpt lat="44.39886" lon="7.10878">
        <ele>2015.4</ele>
        <time>2022-07-18T15:46:10Z</time>
      </trkpt>
      <trkpt lat="44.39887" lon="7.10881">
        <ele>2015.4</ele>
        <time>2022-07-18T15:46:11Z</time>
      </trkpt>
      <trkpt lat="44.39889" lon="7.10885">
        <ele>2015.6</ele>
        <time>2022-07-18T15:46:12Z</time>
      </trkpt>
      <trkpt lat="44.3989" lon="7.10888">
        <ele>2015.6</ele>
        <time>2022-07-18T15:46:13Z</time>
      </trkpt>
      <trkpt lat="44.3989" lon="7.10891">
        <ele>2016</ele>
        <time>2022-07-18T15:46:14Z</time>
      </trkpt>
      <trkpt lat="44.39891" lon="7.10894">
        <ele>2016</ele>
        <time>2022-07-18T15:46:15Z</time>
      </trkpt>
      <trkpt lat="44.39892" lon="7.10898">
        <ele>2016.2</ele>
        <time>2022-07-18T15:46:16Z</time>
      </trkpt>
      <trkpt lat="44.39892" lon="7.10901">
        <ele>2016.2</ele>
        <time>2022-07-18T15:46:17Z</time>
      </trkpt>
      <trkpt lat="44.39893" lon="7.10904">
        <ele>2016.4</ele>
        <time>2022-07-18T15:46:18Z</time>
      </trkpt>
      <trkpt lat="44.39893" lon="7.10907">
        <ele>2016.4</ele>
        <time>2022-07-18T15:46:19Z</time>
      </trkpt>
      <trkpt lat="44.39894" lon="7.10911">
        <ele>2016.6</ele>
        <time>2022-07-18T15:46:20Z</time>
      </trkpt>
      <trkpt lat="44.39894" lon="7.10914">
        <ele>2016.6</ele>
        <time>2022-07-18T15:46:21Z</time>
      </trkpt>
      <trkpt lat="44.39894" lon="7.10917">
        <ele>2016.8</ele>
        <time>2022-07-18T15:46:22Z</time>
      </trkpt>
      <trkpt lat="44.39894" lon="7.10921">
        <ele>2016.8</ele>
        <time>2022-07-18T15:46:23Z</time>
      </trkpt>
      <trkpt lat="44.39894" lon="7.10924">
        <ele>2017.2</ele>
        <time>2022-07-18T15:46:24Z</time>
      </trkpt>
      <trkpt lat="44.39895" lon="7.10928">
        <ele>2017.2</ele>
        <time>2022-07-18T15:46:25Z</time>
      </trkpt>
      <trkpt lat="44.39895" lon="7.10931">
        <ele>2017.6</ele>
        <time>2022-07-18T15:46:26Z</time>
      </trkpt>
      <trkpt lat="44.39895" lon="7.10934">
        <ele>2017.8</ele>
        <time>2022-07-18T15:46:27Z</time>
      </trkpt>
      <trkpt lat="44.39896" lon="7.10938">
        <ele>2017.8</ele>
        <time>2022-07-18T15:46:28Z</time>
      </trkpt>
      <trkpt lat="44.39896" lon="7.10941">
        <ele>2018.2</ele>
        <time>2022-07-18T15:46:29Z</time>
      </trkpt>
      <trkpt lat="44.39896" lon="7.10945">
        <ele>2018.2</ele>
        <time>2022-07-18T15:46:30Z</time>
      </trkpt>
      <trkpt lat="44.39896" lon="7.10948">
        <ele>2018.4</ele>
        <time>2022-07-18T15:46:31Z</time>
      </trkpt>
      <trkpt lat="44.39897" lon="7.10952">
        <ele>2018.4</ele>
        <time>2022-07-18T15:46:32Z</time>
      </trkpt>
      <trkpt lat="44.39897" lon="7.10955">
        <ele>2018.8</ele>
        <time>2022-07-18T15:46:33Z</time>
      </trkpt>
      <trkpt lat="44.39897" lon="7.10959">
        <ele>2018.8</ele>
        <time>2022-07-18T15:46:34Z</time>
      </trkpt>
      <trkpt lat="44.39897" lon="7.10962">
        <ele>2019</ele>
        <time>2022-07-18T15:46:35Z</time>
      </trkpt>
      <trkpt lat="44.39897" lon="7.10966">
        <ele>2019</ele>
        <time>2022-07-18T15:46:36Z</time>
      </trkpt>
      <trkpt lat="44.39897" lon="7.10969">
        <ele>2019.2</ele>
        <time>2022-07-18T15:46:37Z</time>
      </trkpt>
      <trkpt lat="44.39896" lon="7.10972">
        <ele>2019.2</ele>
        <time>2022-07-18T15:46:38Z</time>
      </trkpt>
      <trkpt lat="44.39896" lon="7.10976">
        <ele>2019.6</ele>
        <time>2022-07-18T15:46:39Z</time>
      </trkpt>
      <trkpt lat="44.39896" lon="7.10979">
        <ele>2020</ele>
        <time>2022-07-18T15:46:40Z</time>
      </trkpt>
      <trkpt lat="44.39896" lon="7.10982">
        <ele>2020.2</ele>
        <time>2022-07-18T15:46:41Z</time>
      </trkpt>
      <trkpt lat="44.39895" lon="7.10985">
        <ele>2020.4</ele>
        <time>2022-07-18T15:46:42Z</time>
      </trkpt>
      <trkpt lat="44.39895" lon="7.10988">
        <ele>2020.4</ele>
        <time>2022-07-18T15:46:43Z</time>
      </trkpt>
      <trkpt lat="44.39895" lon="7.10992">
        <ele>2020.6</ele>
        <time>2022-07-18T15:46:44Z</time>
      </trkpt>
      <trkpt lat="44.39895" lon="7.10995">
        <ele>2020.6</ele>
        <time>2022-07-18T15:46:45Z</time>
      </trkpt>
      <trkpt lat="44.39894" lon="7.10998">
        <ele>2021</ele>
        <time>2022-07-18T15:46:46Z</time>
      </trkpt>
      <trkpt lat="44.39894" lon="7.11001">
        <ele>2021</ele>
        <time>2022-07-18T15:46:47Z</time>
      </trkpt>
      <trkpt lat="44.39894" lon="7.11004">
        <ele>2021.4</ele>
        <time>2022-07-18T15:46:48Z</time>
      </trkpt>
      <trkpt lat="44.39894" lon="7.11007">
        <ele>2021.6</ele>
        <time>2022-07-18T15:46:49Z</time>
      </trkpt>
      <trkpt lat="44.39893" lon="7.11011">
        <ele>2021.6</ele>
        <time>2022-07-18T15:46:50Z</time>
      </trkpt>
      <trkpt lat="44.39893" lon="7.11014">
        <ele>2022</ele>
        <time>2022-07-18T15:46:51Z</time>
      </trkpt>
      <trkpt lat="44.39892" lon="7.11017">
        <ele>2022.2</ele>
        <time>2022-07-18T15:46:52Z</time>
      </trkpt>
      <trkpt lat="44.39892" lon="7.11021">
        <ele>2022.2</ele>
        <time>2022-07-18T15:46:53Z</time>
      </trkpt>
      <trkpt lat="44.39892" lon="7.11025">
        <ele>2022.4</ele>
        <time>2022-07-18T15:46:54Z</time>
      </trkpt>
      <trkpt lat="44.39891" lon="7.11028">
        <ele>2022.4</ele>
        <time>2022-07-18T15:46:55Z</time>
      </trkpt>
      <trkpt lat="44.39891" lon="7.11032">
        <ele>2022.6</ele>
        <time>2022-07-18T15:46:56Z</time>
      </trkpt>
      <trkpt lat="44.3989" lon="7.11035">
        <ele>2022.6</ele>
        <time>2022-07-18T15:46:57Z</time>
      </trkpt>
      <trkpt lat="44.39889" lon="7.11038">
        <ele>2023</ele>
        <time>2022-07-18T15:46:58Z</time>
      </trkpt>
      <trkpt lat="44.39889" lon="7.11042">
        <ele>2023.2</ele>
        <time>2022-07-18T15:46:59Z</time>
      </trkpt>
      <trkpt lat="44.39889" lon="7.11045">
        <ele>2023.2</ele>
        <time>2022-07-18T15:47:00Z</time>
      </trkpt>
      <trkpt lat="44.39888" lon="7.11048">
        <ele>2023.6</ele>
        <time>2022-07-18T15:47:01Z</time>
      </trkpt>
      <trkpt lat="44.39888" lon="7.11052">
        <ele>2023.6</ele>
        <time>2022-07-18T15:47:02Z</time>
      </trkpt>
      <trkpt lat="44.39888" lon="7.11055">
        <ele>2023.8</ele>
        <time>2022-07-18T15:47:03Z</time>
      </trkpt>
      <trkpt lat="44.39889" lon="7.11059">
        <ele>2023.8</ele>
        <time>2022-07-18T15:47:04Z</time>
      </trkpt>
      <trkpt lat="44.39889" lon="7.11062">
        <ele>2024.2</ele>
        <time>2022-07-18T15:47:05Z</time>
      </trkpt>
      <trkpt lat="44.39889" lon="7.11066">
        <ele>2024.2</ele>
        <time>2022-07-18T15:47:06Z</time>
      </trkpt>
      <trkpt lat="44.3989" lon="7.11069">
        <ele>2024.4</ele>
        <time>2022-07-18T15:47:07Z</time>
      </trkpt>
      <trkpt lat="44.3989" lon="7.11073">
        <ele>2024.4</ele>
        <time>2022-07-18T15:47:08Z</time>
      </trkpt>
      <trkpt lat="44.3989" lon="7.11076">
        <ele>2024.6</ele>
        <time>2022-07-18T15:47:09Z</time>
      </trkpt>
      <trkpt lat="44.3989" lon="7.1108">
        <ele>2025</ele>
        <time>2022-07-18T15:47:10Z</time>
      </trkpt>
      <trkpt lat="44.3989" lon="7.11083">
        <ele>2025</ele>
        <time>2022-07-18T15:47:11Z</time>
      </trkpt>
      <trkpt lat="44.39889" lon="7.11086">
        <ele>2025.2</ele>
        <time>2022-07-18T15:47:12Z</time>
      </trkpt>
      <trkpt lat="44.39889" lon="7.11089">
        <ele>2025.2</ele>
        <time>2022-07-18T15:47:13Z</time>
      </trkpt>
      <trkpt lat="44.39889" lon="7.11092">
        <ele>2025.6</ele>
        <time>2022-07-18T15:47:14Z</time>
      </trkpt>
      <trkpt lat="44.3989" lon="7.11095">
        <ele>2025.6</ele>
        <time>2022-07-18T15:47:15Z</time>
      </trkpt>
      <trkpt lat="44.3989" lon="7.11098">
        <ele>2025.8</ele>
        <time>2022-07-18T15:47:16Z</time>
      </trkpt>
      <trkpt lat="44.3989" lon="7.111">
        <ele>2025.8</ele>
        <time>2022-07-18T15:47:17Z</time>
      </trkpt>
      <trkpt lat="44.3989" lon="7.11104">
        <ele>2026.2</ele>
        <time>2022-07-18T15:47:18Z</time>
      </trkpt>
      <trkpt lat="44.3989" lon="7.11107">
        <ele>2026.2</ele>
        <time>2022-07-18T15:47:19Z</time>
      </trkpt>
      <trkpt lat="44.3989" lon="7.1111">
        <ele>2026.4</ele>
        <time>2022-07-18T15:47:20Z</time>
      </trkpt>
      <trkpt lat="44.39891" lon="7.11113">
        <ele>2026.8</ele>
        <time>2022-07-18T15:47:21Z</time>
      </trkpt>
      <trkpt lat="44.39892" lon="7.11116">
        <ele>2027</ele>
        <time>2022-07-18T15:47:22Z</time>
      </trkpt>
      <trkpt lat="44.39892" lon="7.11119">
        <ele>2027</ele>
        <time>2022-07-18T15:47:23Z</time>
      </trkpt>
      <trkpt lat="44.39892" lon="7.11123">
        <ele>2027.2</ele>
        <time>2022-07-18T15:47:24Z</time>
      </trkpt>
      <trkpt lat="44.39892" lon="7.11126">
        <ele>2027.2</ele>
        <time>2022-07-18T15:47:25Z</time>
      </trkpt>
      <trkpt lat="44.39892" lon="7.11129">
        <ele>2027.4</ele>
        <time>2022-07-18T15:47:26Z</time>
      </trkpt>
      <trkpt lat="44.39892" lon="7.11133">
        <ele>2027.4</ele>
        <time>2022-07-18T15:47:27Z</time>
      </trkpt>
      <trkpt lat="44.39893" lon="7.11136">
        <ele>2027.8</ele>
        <time>2022-07-18T15:47:28Z</time>
      </trkpt>
      <trkpt lat="44.39893" lon="7.1114">
        <ele>2027.8</ele>
        <time>2022-07-18T15:47:29Z</time>
      </trkpt>
      <trkpt lat="44.39894" lon="7.11143">
        <ele>2028.2</ele>
        <time>2022-07-18T15:47:30Z</time>
      </trkpt>
      <trkpt lat="44.39895" lon="7.11145">
        <ele>2028.2</ele>
        <time>2022-07-18T15:47:31Z</time>
      </trkpt>
      <trkpt lat="44.39896" lon="7.11148">
        <ele>2028.6</ele>
        <time>2022-07-18T15:47:32Z</time>
      </trkpt>
      <trkpt lat="44.39896" lon="7.11151">
        <ele>2028.6</ele>
        <time>2022-07-18T15:47:33Z</time>
      </trkpt>
      <trkpt lat="44.39897" lon="7.11153">
        <ele>2028.8</ele>
        <time>2022-07-18T15:47:34Z</time>
      </trkpt>
      <trkpt lat="44.39898" lon="7.11156">
        <ele>2028.8</ele>
        <time>2022-07-18T15:47:35Z</time>
      </trkpt>
      <trkpt lat="44.39899" lon="7.11159">
        <ele>2029.2</ele>
        <time>2022-07-18T15:47:36Z</time>
      </trkpt>
      <trkpt lat="44.399" lon="7.11162">
        <ele>2029.4</ele>
        <time>2022-07-18T15:47:37Z</time>
      </trkpt>
      <trkpt lat="44.399" lon="7.11164">
        <ele>2029.4</ele>
        <time>2022-07-18T15:47:38Z</time>
      </trkpt>
      <trkpt lat="44.39901" lon="7.11167">
        <ele>2029.8</ele>
        <time>2022-07-18T15:47:39Z</time>
      </trkpt>
      <trkpt lat="44.39902" lon="7.1117">
        <ele>2029.8</ele>
        <time>2022-07-18T15:47:40Z</time>
      </trkpt>
      <trkpt lat="44.39903" lon="7.11173">
        <ele>2030.2</ele>
        <time>2022-07-18T15:47:41Z</time>
      </trkpt>
      <trkpt lat="44.39904" lon="7.11175">
        <ele>2030.2</ele>
        <time>2022-07-18T15:47:42Z</time>
      </trkpt>
      <trkpt lat="44.39904" lon="7.11178">
        <ele>2030.4</ele>
        <time>2022-07-18T15:47:43Z</time>
      </trkpt>
      <trkpt lat="44.39905" lon="7.11181">
        <ele>2030.4</ele>
        <time>2022-07-18T15:47:44Z</time>
      </trkpt>
      <trkpt lat="44.39905" lon="7.11184">
        <ele>2030.8</ele>
        <time>2022-07-18T15:47:45Z</time>
      </trkpt>
      <trkpt lat="44.39906" lon="7.11187">
        <ele>2031</ele>
        <time>2022-07-18T15:47:46Z</time>
      </trkpt>
      <trkpt lat="44.39906" lon="7.1119">
        <ele>2031</ele>
        <time>2022-07-18T15:47:47Z</time>
      </trkpt>
      <trkpt lat="44.39906" lon="7.11193">
        <ele>2031.4</ele>
        <time>2022-07-18T15:47:48Z</time>
      </trkpt>
      <trkpt lat="44.39906" lon="7.11195">
        <ele>2031.4</ele>
        <time>2022-07-18T15:47:49Z</time>
      </trkpt>
      <trkpt lat="44.39905" lon="7.11198">
        <ele>2031.8</ele>
        <time>2022-07-18T15:47:50Z</time>
      </trkpt>
      <trkpt lat="44.39905" lon="7.112">
        <ele>2031.8</ele>
        <time>2022-07-18T15:47:51Z</time>
      </trkpt>
      <trkpt lat="44.39904" lon="7.11203">
        <ele>2032.2</ele>
        <time>2022-07-18T15:47:52Z</time>
      </trkpt>
      <trkpt lat="44.39904" lon="7.11206">
        <ele>2032.2</ele>
        <time>2022-07-18T15:47:53Z</time>
      </trkpt>
      <trkpt lat="44.39904" lon="7.11208">
        <ele>2032.6</ele>
        <time>2022-07-18T15:47:54Z</time>
      </trkpt>
      <trkpt lat="44.39904" lon="7.11211">
        <ele>2032.6</ele>
        <time>2022-07-18T15:47:55Z</time>
      </trkpt>
      <trkpt lat="44.39904" lon="7.11214">
        <ele>2033</ele>
        <time>2022-07-18T15:47:56Z</time>
      </trkpt>
      <trkpt lat="44.39904" lon="7.11217">
        <ele>2033</ele>
        <time>2022-07-18T15:47:57Z</time>
      </trkpt>
      <trkpt lat="44.39904" lon="7.11219">
        <ele>2033.4</ele>
        <time>2022-07-18T15:47:58Z</time>
      </trkpt>
      <trkpt lat="44.39905" lon="7.11221">
        <ele>2033.6</ele>
        <time>2022-07-18T15:47:59Z</time>
      </trkpt>
      <trkpt lat="44.39905" lon="7.11223">
        <ele>2033.8</ele>
        <time>2022-07-18T15:48:00Z</time>
      </trkpt>
      <trkpt lat="44.39906" lon="7.11226">
        <ele>2033.8</ele>
        <time>2022-07-18T15:48:01Z</time>
      </trkpt>
      <trkpt lat="44.39906" lon="7.11228">
        <ele>2034.2</ele>
        <time>2022-07-18T15:48:02Z</time>
      </trkpt>
      <trkpt lat="44.39907" lon="7.11231">
        <ele>2034.4</ele>
        <time>2022-07-18T15:48:03Z</time>
      </trkpt>
      <trkpt lat="44.39907" lon="7.11234">
        <ele>2034.4</ele>
        <time>2022-07-18T15:48:04Z</time>
      </trkpt>
      <trkpt lat="44.39907" lon="7.11237">
        <ele>2034.8</ele>
        <time>2022-07-18T15:48:05Z</time>
      </trkpt>
      <trkpt lat="44.39907" lon="7.11239">
        <ele>2034.8</ele>
        <time>2022-07-18T15:48:06Z</time>
      </trkpt>
      <trkpt lat="44.39907" lon="7.11242">
        <ele>2035.2</ele>
        <time>2022-07-18T15:48:07Z</time>
      </trkpt>
      <trkpt lat="44.39907" lon="7.11244">
        <ele>2035.2</ele>
        <time>2022-07-18T15:48:08Z</time>
      </trkpt>
      <trkpt lat="44.39906" lon="7.11248">
        <ele>2035.4</ele>
        <time>2022-07-18T15:48:09Z</time>
      </trkpt>
      <trkpt lat="44.39906" lon="7.11251">
        <ele>2035.4</ele>
        <time>2022-07-18T15:48:10Z</time>
      </trkpt>
      <trkpt lat="44.39907" lon="7.11254">
        <ele>2035.8</ele>
        <time>2022-07-18T15:48:11Z</time>
      </trkpt>
      <trkpt lat="44.39907" lon="7.11258">
        <ele>2035.8</ele>
        <time>2022-07-18T15:48:12Z</time>
      </trkpt>
      <trkpt lat="44.39907" lon="7.11261">
        <ele>2036.2</ele>
        <time>2022-07-18T15:48:13Z</time>
      </trkpt>
      <trkpt lat="44.39907" lon="7.11264">
        <ele>2036.2</ele>
        <time>2022-07-18T15:48:14Z</time>
      </trkpt>
      <trkpt lat="44.39908" lon="7.11266">
        <ele>2036.6</ele>
        <time>2022-07-18T15:48:15Z</time>
      </trkpt>
      <trkpt lat="44.39908" lon="7.11268">
        <ele>2036.8</ele>
        <time>2022-07-18T15:48:16Z</time>
      </trkpt>
      <trkpt lat="44.39909" lon="7.11271">
        <ele>2036.8</ele>
        <time>2022-07-18T15:48:17Z</time>
      </trkpt>
      <trkpt lat="44.39909" lon="7.11273">
        <ele>2037.2</ele>
        <time>2022-07-18T15:48:18Z</time>
      </trkpt>
      <trkpt lat="44.39909" lon="7.11275">
        <ele>2037.4</ele>
        <time>2022-07-18T15:48:19Z</time>
      </trkpt>
      <trkpt lat="44.39909" lon="7.11277">
        <ele>2037.4</ele>
        <time>2022-07-18T15:48:20Z</time>
      </trkpt>
      <trkpt lat="44.3991" lon="7.1128">
        <ele>2037.4</ele>
        <time>2022-07-18T15:48:21Z</time>
      </trkpt>
      <trkpt lat="44.3991" lon="7.11282">
        <ele>2037.8</ele>
        <time>2022-07-18T15:48:22Z</time>
      </trkpt>
      <trkpt lat="44.39911" lon="7.11285">
        <ele>2037.8</ele>
        <time>2022-07-18T15:48:23Z</time>
      </trkpt>
      <trkpt lat="44.39912" lon="7.11287">
        <ele>2038</ele>
        <time>2022-07-18T15:48:24Z</time>
      </trkpt>
      <trkpt lat="44.39913" lon="7.1129">
        <ele>2038</ele>
        <time>2022-07-18T15:48:25Z</time>
      </trkpt>
      <trkpt lat="44.39914" lon="7.11292">
        <ele>2038.4</ele>
        <time>2022-07-18T15:48:26Z</time>
      </trkpt>
      <trkpt lat="44.39914" lon="7.11294">
        <ele>2038.6</ele>
        <time>2022-07-18T15:48:27Z</time>
      </trkpt>
      <trkpt lat="44.39915" lon="7.11296">
        <ele>2038.8</ele>
        <time>2022-07-18T15:48:28Z</time>
      </trkpt>
      <trkpt lat="44.39916" lon="7.11298">
        <ele>2039</ele>
        <time>2022-07-18T15:48:29Z</time>
      </trkpt>
      <trkpt lat="44.39917" lon="7.113">
        <ele>2039.2</ele>
        <time>2022-07-18T15:48:30Z</time>
      </trkpt>
      <trkpt lat="44.39917" lon="7.11303">
        <ele>2039.4</ele>
        <time>2022-07-18T15:48:31Z</time>
      </trkpt>
      <trkpt lat="44.39918" lon="7.11305">
        <ele>2039.4</ele>
        <time>2022-07-18T15:48:32Z</time>
      </trkpt>
      <trkpt lat="44.3992" lon="7.11307">
        <ele>2039.8</ele>
        <time>2022-07-18T15:48:33Z</time>
      </trkpt>
      <trkpt lat="44.3992" lon="7.11309">
        <ele>2039.8</ele>
        <time>2022-07-18T15:48:34Z</time>
      </trkpt>
      <trkpt lat="44.39921" lon="7.11311">
        <ele>2040</ele>
        <time>2022-07-18T15:48:35Z</time>
      </trkpt>
      <trkpt lat="44.39922" lon="7.11313">
        <ele>2040</ele>
        <time>2022-07-18T15:48:36Z</time>
      </trkpt>
      <trkpt lat="44.39923" lon="7.11314">
        <ele>2040.2</ele>
        <time>2022-07-18T15:48:37Z</time>
      </trkpt>
      <trkpt lat="44.39924" lon="7.11316">
        <ele>2040.2</ele>
        <time>2022-07-18T15:48:38Z</time>
      </trkpt>
      <trkpt lat="44.39924" lon="7.11318">
        <ele>2040.6</ele>
        <time>2022-07-18T15:48:39Z</time>
      </trkpt>
      <trkpt lat="44.39925" lon="7.11319">
        <ele>2040.6</ele>
        <time>2022-07-18T15:48:40Z</time>
      </trkpt>
      <trkpt lat="44.39926" lon="7.11321">
        <ele>2040.8</ele>
        <time>2022-07-18T15:48:41Z</time>
      </trkpt>
      <trkpt lat="44.39927" lon="7.11323">
        <ele>2040.8</ele>
        <time>2022-07-18T15:48:42Z</time>
      </trkpt>
      <trkpt lat="44.39928" lon="7.11324">
        <ele>2041</ele>
        <time>2022-07-18T15:48:43Z</time>
      </trkpt>
      <trkpt lat="44.39929" lon="7.11326">
        <ele>2041.2</ele>
        <time>2022-07-18T15:48:44Z</time>
      </trkpt>
      <trkpt lat="44.3993" lon="7.11328">
        <ele>2041.4</ele>
        <time>2022-07-18T15:48:45Z</time>
      </trkpt>
      <trkpt lat="44.39931" lon="7.1133">
        <ele>2041.4</ele>
        <time>2022-07-18T15:48:46Z</time>
      </trkpt>
      <trkpt lat="44.39931" lon="7.11332">
        <ele>2041.8</ele>
        <time>2022-07-18T15:48:47Z</time>
      </trkpt>
      <trkpt lat="44.39932" lon="7.11335">
        <ele>2042</ele>
        <time>2022-07-18T15:48:48Z</time>
      </trkpt>
      <trkpt lat="44.39932" lon="7.11336">
        <ele>2042.2</ele>
        <time>2022-07-18T15:48:49Z</time>
      </trkpt>
      <trkpt lat="44.39933" lon="7.11339">
        <ele>2042.6</ele>
        <time>2022-07-18T15:48:50Z</time>
      </trkpt>
      <trkpt lat="44.39934" lon="7.11341">
        <ele>2042.8</ele>
        <time>2022-07-18T15:48:51Z</time>
      </trkpt>
      <trkpt lat="44.39935" lon="7.11342">
        <ele>2042.8</ele>
        <time>2022-07-18T15:48:52Z</time>
      </trkpt>
      <trkpt lat="44.39935" lon="7.11344">
        <ele>2043</ele>
        <time>2022-07-18T15:48:53Z</time>
      </trkpt>
      <trkpt lat="44.39936" lon="7.11346">
        <ele>2043</ele>
        <time>2022-07-18T15:48:54Z</time>
      </trkpt>
      <trkpt lat="44.39937" lon="7.11347">
        <ele>2043.4</ele>
        <time>2022-07-18T15:48:55Z</time>
      </trkpt>
      <trkpt lat="44.39938" lon="7.11349">
        <ele>2043.6</ele>
        <time>2022-07-18T15:48:56Z</time>
      </trkpt>
      <trkpt lat="44.39939" lon="7.1135">
        <ele>2043.6</ele>
        <time>2022-07-18T15:48:57Z</time>
      </trkpt>
      <trkpt lat="44.3994" lon="7.11352">
        <ele>2044</ele>
        <time>2022-07-18T15:48:58Z</time>
      </trkpt>
      <trkpt lat="44.39941" lon="7.11354">
        <ele>2044</ele>
        <time>2022-07-18T15:48:59Z</time>
      </trkpt>
      <trkpt lat="44.39941" lon="7.11356">
        <ele>2044</ele>
        <time>2022-07-18T15:49:00Z</time>
      </trkpt>
      <trkpt lat="44.39942" lon="7.11358">
        <ele>2044.2</ele>
        <time>2022-07-18T15:49:01Z</time>
      </trkpt>
      <trkpt lat="44.39942" lon="7.1136">
        <ele>2044.2</ele>
        <time>2022-07-18T15:49:02Z</time>
      </trkpt>
      <trkpt lat="44.39943" lon="7.11361">
        <ele>2044.4</ele>
        <time>2022-07-18T15:49:03Z</time>
      </trkpt>
      <trkpt lat="44.39943" lon="7.11363">
        <ele>2044.4</ele>
        <time>2022-07-18T15:49:04Z</time>
      </trkpt>
      <trkpt lat="44.39943" lon="7.11366">
        <ele>2044.8</ele>
        <time>2022-07-18T15:49:05Z</time>
      </trkpt>
      <trkpt lat="44.39943" lon="7.11368">
        <ele>2045</ele>
        <time>2022-07-18T15:49:06Z</time>
      </trkpt>
      <trkpt lat="44.39943" lon="7.1137">
        <ele>2045.4</ele>
        <time>2022-07-18T15:49:07Z</time>
      </trkpt>
      <trkpt lat="44.39943" lon="7.11373">
        <ele>2045.6</ele>
        <time>2022-07-18T15:49:08Z</time>
      </trkpt>
      <trkpt lat="44.39943" lon="7.11375">
        <ele>2045.8</ele>
        <time>2022-07-18T15:49:09Z</time>
      </trkpt>
      <trkpt lat="44.39943" lon="7.11378">
        <ele>2045.8</ele>
        <time>2022-07-18T15:49:10Z</time>
      </trkpt>
      <trkpt lat="44.39943" lon="7.1138">
        <ele>2046</ele>
        <time>2022-07-18T15:49:11Z</time>
      </trkpt>
      <trkpt lat="44.39943" lon="7.11383">
        <ele>2046</ele>
        <time>2022-07-18T15:49:12Z</time>
      </trkpt>
      <trkpt lat="44.39943" lon="7.11386">
        <ele>2046.4</ele>
        <time>2022-07-18T15:49:13Z</time>
      </trkpt>
      <trkpt lat="44.39943" lon="7.11389">
        <ele>2046.4</ele>
        <time>2022-07-18T15:49:14Z</time>
      </trkpt>
      <trkpt lat="44.39943" lon="7.11392">
        <ele>2046.6</ele>
        <time>2022-07-18T15:49:15Z</time>
      </trkpt>
      <trkpt lat="44.39942" lon="7.11394">
        <ele>2046.6</ele>
        <time>2022-07-18T15:49:16Z</time>
      </trkpt>
      <trkpt lat="44.39942" lon="7.11397">
        <ele>2047</ele>
        <time>2022-07-18T15:49:17Z</time>
      </trkpt>
      <trkpt lat="44.39941" lon="7.11399">
        <ele>2047</ele>
        <time>2022-07-18T15:49:18Z</time>
      </trkpt>
      <trkpt lat="44.39941" lon="7.11401">
        <ele>2047.2</ele>
        <time>2022-07-18T15:49:19Z</time>
      </trkpt>
      <trkpt lat="44.39941" lon="7.11404">
        <ele>2047.2</ele>
        <time>2022-07-18T15:49:20Z</time>
      </trkpt>
      <trkpt lat="44.39941" lon="7.11406">
        <ele>2047.6</ele>
        <time>2022-07-18T15:49:21Z</time>
      </trkpt>
      <trkpt lat="44.39941" lon="7.11409">
        <ele>2047.8</ele>
        <time>2022-07-18T15:49:22Z</time>
      </trkpt>
      <trkpt lat="44.39941" lon="7.11411">
        <ele>2048</ele>
        <time>2022-07-18T15:49:23Z</time>
      </trkpt>
      <trkpt lat="44.39941" lon="7.11413">
        <ele>2048.2</ele>
        <time>2022-07-18T15:49:24Z</time>
      </trkpt>
      <trkpt lat="44.39941" lon="7.11416">
        <ele>2048.2</ele>
        <time>2022-07-18T15:49:25Z</time>
      </trkpt>
      <trkpt lat="44.39941" lon="7.11418">
        <ele>2048.4</ele>
        <time>2022-07-18T15:49:26Z</time>
      </trkpt>
      <trkpt lat="44.39942" lon="7.11421">
        <ele>2048.4</ele>
        <time>2022-07-18T15:49:27Z</time>
      </trkpt>
      <trkpt lat="44.39943" lon="7.11423">
        <ele>2048.4</ele>
        <time>2022-07-18T15:49:28Z</time>
      </trkpt>
      <trkpt lat="44.39943" lon="7.11425">
        <ele>2048.8</ele>
        <time>2022-07-18T15:49:29Z</time>
      </trkpt>
      <trkpt lat="44.39944" lon="7.11427">
        <ele>2048.8</ele>
        <time>2022-07-18T15:49:30Z</time>
      </trkpt>
      <trkpt lat="44.39945" lon="7.11429">
        <ele>2049.2</ele>
        <time>2022-07-18T15:49:31Z</time>
      </trkpt>
      <trkpt lat="44.39946" lon="7.11431">
        <ele>2049.4</ele>
        <time>2022-07-18T15:49:32Z</time>
      </trkpt>
      <trkpt lat="44.39946" lon="7.11432">
        <ele>2049.6</ele>
        <time>2022-07-18T15:49:33Z</time>
      </trkpt>
      <trkpt lat="44.39947" lon="7.11434">
        <ele>2049.6</ele>
        <time>2022-07-18T15:49:34Z</time>
      </trkpt>
      <trkpt lat="44.39948" lon="7.11436">
        <ele>2050</ele>
        <time>2022-07-18T15:49:35Z</time>
      </trkpt>
      <trkpt lat="44.39949" lon="7.11438">
        <ele>2050.2</ele>
        <time>2022-07-18T15:49:36Z</time>
      </trkpt>
      <trkpt lat="44.39949" lon="7.1144">
        <ele>2050.2</ele>
        <time>2022-07-18T15:49:37Z</time>
      </trkpt>
      <trkpt lat="44.3995" lon="7.11442">
        <ele>2050.6</ele>
        <time>2022-07-18T15:49:38Z</time>
      </trkpt>
      <trkpt lat="44.39951" lon="7.11444">
        <ele>2050.6</ele>
        <time>2022-07-18T15:49:39Z</time>
      </trkpt>
      <trkpt lat="44.39952" lon="7.11446">
        <ele>2051</ele>
        <time>2022-07-18T15:49:40Z</time>
      </trkpt>
      <trkpt lat="44.39952" lon="7.11449">
        <ele>2051</ele>
        <time>2022-07-18T15:49:41Z</time>
      </trkpt>
      <trkpt lat="44.39952" lon="7.11451">
        <ele>2051.2</ele>
        <time>2022-07-18T15:49:42Z</time>
      </trkpt>
      <trkpt lat="44.39952" lon="7.11453">
        <ele>2051.2</ele>
        <time>2022-07-18T15:49:43Z</time>
      </trkpt>
      <trkpt lat="44.39952" lon="7.11455">
        <ele>2051.6</ele>
        <time>2022-07-18T15:49:44Z</time>
      </trkpt>
      <trkpt lat="44.39952" lon="7.11457">
        <ele>2051.6</ele>
        <time>2022-07-18T15:49:45Z</time>
      </trkpt>
      <trkpt lat="44.39953" lon="7.11459">
        <ele>2052</ele>
        <time>2022-07-18T15:49:46Z</time>
      </trkpt>
      <trkpt lat="44.39953" lon="7.11461">
        <ele>2052</ele>
        <time>2022-07-18T15:49:47Z</time>
      </trkpt>
      <trkpt lat="44.39954" lon="7.11463">
        <ele>2052.2</ele>
        <time>2022-07-18T15:49:48Z</time>
      </trkpt>
      <trkpt lat="44.39955" lon="7.11464">
        <ele>2052.2</ele>
        <time>2022-07-18T15:49:49Z</time>
      </trkpt>
      <trkpt lat="44.39956" lon="7.11466">
        <ele>2052.4</ele>
        <time>2022-07-18T15:49:50Z</time>
      </trkpt>
      <trkpt lat="44.39957" lon="7.11468">
        <ele>2052.4</ele>
        <time>2022-07-18T15:49:51Z</time>
      </trkpt>
      <trkpt lat="44.39958" lon="7.1147">
        <ele>2052.8</ele>
        <time>2022-07-18T15:49:52Z</time>
      </trkpt>
      <trkpt lat="44.3996" lon="7.11471">
        <ele>2053</ele>
        <time>2022-07-18T15:49:53Z</time>
      </trkpt>
      <trkpt lat="44.39961" lon="7.11471">
        <ele>2053</ele>
        <time>2022-07-18T15:49:54Z</time>
      </trkpt>
      <trkpt lat="44.39963" lon="7.11471">
        <ele>2053.4</ele>
        <time>2022-07-18T15:49:55Z</time>
      </trkpt>
      <trkpt lat="44.39965" lon="7.11471">
        <ele>2053.4</ele>
        <time>2022-07-18T15:49:56Z</time>
      </trkpt>
      <trkpt lat="44.39967" lon="7.11471">
        <ele>2053.6</ele>
        <time>2022-07-18T15:49:57Z</time>
      </trkpt>
      <trkpt lat="44.39969" lon="7.11471">
        <ele>2053.6</ele>
        <time>2022-07-18T15:49:58Z</time>
      </trkpt>
      <trkpt lat="44.39971" lon="7.1147">
        <ele>2053.6</ele>
        <time>2022-07-18T15:49:59Z</time>
      </trkpt>
      <trkpt lat="44.39973" lon="7.11469">
        <ele>2054</ele>
        <time>2022-07-18T15:50:00Z</time>
      </trkpt>
      <trkpt lat="44.39975" lon="7.11468">
        <ele>2054</ele>
        <time>2022-07-18T15:50:01Z</time>
      </trkpt>
      <trkpt lat="44.39977" lon="7.11467">
        <ele>2054.2</ele>
        <time>2022-07-18T15:50:02Z</time>
      </trkpt>
      <trkpt lat="44.3998" lon="7.11466">
        <ele>2054.2</ele>
        <time>2022-07-18T15:50:03Z</time>
      </trkpt>
      <trkpt lat="44.39982" lon="7.11465">
        <ele>2054.2</ele>
        <time>2022-07-18T15:50:04Z</time>
      </trkpt>
      <trkpt lat="44.39984" lon="7.11463">
        <ele>2054.4</ele>
        <time>2022-07-18T15:50:05Z</time>
      </trkpt>
      <trkpt lat="44.39985" lon="7.11462">
        <ele>2054.4</ele>
        <time>2022-07-18T15:50:06Z</time>
      </trkpt>
      <trkpt lat="44.39987" lon="7.11461">
        <ele>2054.6</ele>
        <time>2022-07-18T15:50:07Z</time>
      </trkpt>
      <trkpt lat="44.39989" lon="7.1146">
        <ele>2054.6</ele>
        <time>2022-07-18T15:50:08Z</time>
      </trkpt>
      <trkpt lat="44.39991" lon="7.11459">
        <ele>2055</ele>
        <time>2022-07-18T15:50:09Z</time>
      </trkpt>
      <trkpt lat="44.39993" lon="7.11458">
        <ele>2055</ele>
        <time>2022-07-18T15:50:10Z</time>
      </trkpt>
      <trkpt lat="44.39994" lon="7.11457">
        <ele>2055.2</ele>
        <time>2022-07-18T15:50:11Z</time>
      </trkpt>
      <trkpt lat="44.39996" lon="7.11455">
        <ele>2055.2</ele>
        <time>2022-07-18T15:50:12Z</time>
      </trkpt>
      <trkpt lat="44.39997" lon="7.11453">
        <ele>2055.6</ele>
        <time>2022-07-18T15:50:13Z</time>
      </trkpt>
      <trkpt lat="44.39998" lon="7.11451">
        <ele>2055.6</ele>
        <time>2022-07-18T15:50:14Z</time>
      </trkpt>
      <trkpt lat="44.39999" lon="7.11449">
        <ele>2055.8</ele>
        <time>2022-07-18T15:50:15Z</time>
      </trkpt>
      <trkpt lat="44.4" lon="7.11447">
        <ele>2055.8</ele>
        <time>2022-07-18T15:50:16Z</time>
      </trkpt>
      <trkpt lat="44.40002" lon="7.11445">
        <ele>2056.2</ele>
        <time>2022-07-18T15:50:17Z</time>
      </trkpt>
      <trkpt lat="44.40002" lon="7.11442">
        <ele>2056.4</ele>
        <time>2022-07-18T15:50:18Z</time>
      </trkpt>
      <trkpt lat="44.40003" lon="7.1144">
        <ele>2056.4</ele>
        <time>2022-07-18T15:50:19Z</time>
      </trkpt>
      <trkpt lat="44.40004" lon="7.11437">
        <ele>2056.8</ele>
        <time>2022-07-18T15:50:20Z</time>
      </trkpt>
      <trkpt lat="44.40004" lon="7.11435">
        <ele>2056.8</ele>
        <time>2022-07-18T15:50:21Z</time>
      </trkpt>
      <trkpt lat="44.40005" lon="7.11433">
        <ele>2057</ele>
        <time>2022-07-18T15:50:22Z</time>
      </trkpt>
      <trkpt lat="44.40007" lon="7.11431">
        <ele>2057.4</ele>
        <time>2022-07-18T15:50:23Z</time>
      </trkpt>
      <trkpt lat="44.40008" lon="7.11429">
        <ele>2057.4</ele>
        <time>2022-07-18T15:50:24Z</time>
      </trkpt>
      <trkpt lat="44.4001" lon="7.11428">
        <ele>2057.6</ele>
        <time>2022-07-18T15:50:25Z</time>
      </trkpt>
      <trkpt lat="44.40012" lon="7.11427">
        <ele>2057.6</ele>
        <time>2022-07-18T15:50:26Z</time>
      </trkpt>
      <trkpt lat="44.40013" lon="7.11427">
        <ele>2057.8</ele>
        <time>2022-07-18T15:50:27Z</time>
      </trkpt>
      <trkpt lat="44.40016" lon="7.11427">
        <ele>2057.8</ele>
        <time>2022-07-18T15:50:28Z</time>
      </trkpt>
      <trkpt lat="44.40017" lon="7.11427">
        <ele>2058.2</ele>
        <time>2022-07-18T15:50:29Z</time>
      </trkpt>
      <trkpt lat="44.40019" lon="7.11428">
        <ele>2058.2</ele>
        <time>2022-07-18T15:50:30Z</time>
      </trkpt>
      <trkpt lat="44.40021" lon="7.11428">
        <ele>2058.6</ele>
        <time>2022-07-18T15:50:31Z</time>
      </trkpt>
      <trkpt lat="44.40023" lon="7.11429">
        <ele>2058.6</ele>
        <time>2022-07-18T15:50:32Z</time>
      </trkpt>
      <trkpt lat="44.40025" lon="7.11429">
        <ele>2058.8</ele>
        <time>2022-07-18T15:50:33Z</time>
      </trkpt>
      <trkpt lat="44.40027" lon="7.1143">
        <ele>2059.2</ele>
        <time>2022-07-18T15:50:34Z</time>
      </trkpt>
      <trkpt lat="44.40029" lon="7.11431">
        <ele>2059.2</ele>
        <time>2022-07-18T15:50:35Z</time>
      </trkpt>
      <trkpt lat="44.40031" lon="7.11432">
        <ele>2059.4</ele>
        <time>2022-07-18T15:50:36Z</time>
      </trkpt>
      <trkpt lat="44.40033" lon="7.11432">
        <ele>2059.4</ele>
        <time>2022-07-18T15:50:37Z</time>
      </trkpt>
      <trkpt lat="44.40035" lon="7.11432">
        <ele>2059.8</ele>
        <time>2022-07-18T15:50:38Z</time>
      </trkpt>
      <trkpt lat="44.40037" lon="7.11432">
        <ele>2059.8</ele>
        <time>2022-07-18T15:50:39Z</time>
      </trkpt>
      <trkpt lat="44.40038" lon="7.11433">
        <ele>2060</ele>
        <time>2022-07-18T15:50:40Z</time>
      </trkpt>
      <trkpt lat="44.4004" lon="7.11433">
        <ele>2060</ele>
        <time>2022-07-18T15:50:41Z</time>
      </trkpt>
      <trkpt lat="44.40042" lon="7.11434">
        <ele>2060.4</ele>
        <time>2022-07-18T15:50:42Z</time>
      </trkpt>
      <trkpt lat="44.40044" lon="7.11434">
        <ele>2060.4</ele>
        <time>2022-07-18T15:50:43Z</time>
      </trkpt>
      <trkpt lat="44.40046" lon="7.11434">
        <ele>2060.6</ele>
        <time>2022-07-18T15:50:44Z</time>
      </trkpt>
      <trkpt lat="44.40048" lon="7.11434">
        <ele>2060.6</ele>
        <time>2022-07-18T15:50:45Z</time>
      </trkpt>
      <trkpt lat="44.4005" lon="7.11433">
        <ele>2060.8</ele>
        <time>2022-07-18T15:50:46Z</time>
      </trkpt>
      <trkpt lat="44.40051" lon="7.11432">
        <ele>2060.8</ele>
        <time>2022-07-18T15:50:47Z</time>
      </trkpt>
      <trkpt lat="44.40053" lon="7.1143">
        <ele>2060.8</ele>
        <time>2022-07-18T15:50:48Z</time>
      </trkpt>
      <trkpt lat="44.40054" lon="7.11428">
        <ele>2061.2</ele>
        <time>2022-07-18T15:50:49Z</time>
      </trkpt>
      <trkpt lat="44.40056" lon="7.11425">
        <ele>2061.4</ele>
        <time>2022-07-18T15:50:50Z</time>
      </trkpt>
      <trkpt lat="44.40057" lon="7.11423">
        <ele>2061.4</ele>
        <time>2022-07-18T15:50:51Z</time>
      </trkpt>
      <trkpt lat="44.40058" lon="7.11421">
        <ele>2061.8</ele>
        <time>2022-07-18T15:50:52Z</time>
      </trkpt>
      <trkpt lat="44.4006" lon="7.11416">
        <ele>2061.8</ele>
        <time>2022-07-18T15:50:53Z</time>
      </trkpt>
      <trkpt lat="44.40061" lon="7.11414">
        <ele>2062</ele>
        <time>2022-07-18T15:50:54Z</time>
      </trkpt>
      <trkpt lat="44.40062" lon="7.11411">
        <ele>2062</ele>
        <time>2022-07-18T15:50:55Z</time>
      </trkpt>
      <trkpt lat="44.40063" lon="7.11409">
        <ele>2062</ele>
        <time>2022-07-18T15:50:56Z</time>
      </trkpt>
      <trkpt lat="44.40064" lon="7.11407">
        <ele>2062.4</ele>
        <time>2022-07-18T15:50:57Z</time>
      </trkpt>
      <trkpt lat="44.40065" lon="7.11405">
        <ele>2062.6</ele>
        <time>2022-07-18T15:50:58Z</time>
      </trkpt>
      <trkpt lat="44.40066" lon="7.11402">
        <ele>2062.6</ele>
        <time>2022-07-18T15:50:59Z</time>
      </trkpt>
      <trkpt lat="44.40067" lon="7.114">
        <ele>2062.8</ele>
        <time>2022-07-18T15:51:00Z</time>
      </trkpt>
      <trkpt lat="44.40067" lon="7.11398">
        <ele>2062.8</ele>
        <time>2022-07-18T15:51:01Z</time>
      </trkpt>
      <trkpt lat="44.40068" lon="7.11396">
        <ele>2063.2</ele>
        <time>2022-07-18T15:51:02Z</time>
      </trkpt>
      <trkpt lat="44.40069" lon="7.11394">
        <ele>2063.4</ele>
        <time>2022-07-18T15:51:03Z</time>
      </trkpt>
      <trkpt lat="44.4007" lon="7.11392">
        <ele>2063.4</ele>
        <time>2022-07-18T15:51:04Z</time>
      </trkpt>
      <trkpt lat="44.40072" lon="7.1139">
        <ele>2063.6</ele>
        <time>2022-07-18T15:51:05Z</time>
      </trkpt>
      <trkpt lat="44.40073" lon="7.11389">
        <ele>2063.6</ele>
        <time>2022-07-18T15:51:06Z</time>
      </trkpt>
      <trkpt lat="44.40074" lon="7.11387">
        <ele>2064.2</ele>
        <time>2022-07-18T15:51:07Z</time>
      </trkpt>
      <trkpt lat="44.40076" lon="7.11385">
        <ele>2064.4</ele>
        <time>2022-07-18T15:51:08Z</time>
      </trkpt>
      <trkpt lat="44.40077" lon="7.11383">
        <ele>2064.4</ele>
        <time>2022-07-18T15:51:09Z</time>
      </trkpt>
      <trkpt lat="44.40079" lon="7.11382">
        <ele>2064.6</ele>
        <time>2022-07-18T15:51:10Z</time>
      </trkpt>
      <trkpt lat="44.4008" lon="7.11381">
        <ele>2064.6</ele>
        <time>2022-07-18T15:51:11Z</time>
      </trkpt>
      <trkpt lat="44.40082" lon="7.11379">
        <ele>2065</ele>
        <time>2022-07-18T15:51:12Z</time>
      </trkpt>
      <trkpt lat="44.40083" lon="7.11377">
        <ele>2065</ele>
        <time>2022-07-18T15:51:13Z</time>
      </trkpt>
      <trkpt lat="44.40084" lon="7.11375">
        <ele>2065</ele>
        <time>2022-07-18T15:51:14Z</time>
      </trkpt>
      <trkpt lat="44.40085" lon="7.11373">
        <ele>2065.4</ele>
        <time>2022-07-18T15:51:15Z</time>
      </trkpt>
      <trkpt lat="44.40085" lon="7.11371">
        <ele>2065.4</ele>
        <time>2022-07-18T15:51:16Z</time>
      </trkpt>
      <trkpt lat="44.40086" lon="7.11368">
        <ele>2065.4</ele>
        <time>2022-07-18T15:51:17Z</time>
      </trkpt>
      <trkpt lat="44.40086" lon="7.11366">
        <ele>2065.8</ele>
        <time>2022-07-18T15:51:18Z</time>
      </trkpt>
      <trkpt lat="44.40087" lon="7.11364">
        <ele>2065.8</ele>
        <time>2022-07-18T15:51:19Z</time>
      </trkpt>
      <trkpt lat="44.40087" lon="7.11361">
        <ele>2066</ele>
        <time>2022-07-18T15:51:20Z</time>
      </trkpt>
      <trkpt lat="44.40088" lon="7.11359">
        <ele>2066</ele>
        <time>2022-07-18T15:51:21Z</time>
      </trkpt>
      <trkpt lat="44.40088" lon="7.11356">
        <ele>2066.4</ele>
        <time>2022-07-18T15:51:22Z</time>
      </trkpt>
      <trkpt lat="44.40088" lon="7.11354">
        <ele>2066.4</ele>
        <time>2022-07-18T15:51:23Z</time>
      </trkpt>
      <trkpt lat="44.40088" lon="7.11352">
        <ele>2066.6</ele>
        <time>2022-07-18T15:51:24Z</time>
      </trkpt>
      <trkpt lat="44.40089" lon="7.1135">
        <ele>2066.6</ele>
        <time>2022-07-18T15:51:25Z</time>
      </trkpt>
      <trkpt lat="44.40089" lon="7.11347">
        <ele>2067</ele>
        <time>2022-07-18T15:51:26Z</time>
      </trkpt>
      <trkpt lat="44.4009" lon="7.11345">
        <ele>2067</ele>
        <time>2022-07-18T15:51:27Z</time>
      </trkpt>
      <trkpt lat="44.40091" lon="7.11343">
        <ele>2067.4</ele>
        <time>2022-07-18T15:51:28Z</time>
      </trkpt>
      <trkpt lat="44.40092" lon="7.11341">
        <ele>2067.4</ele>
        <time>2022-07-18T15:51:29Z</time>
      </trkpt>
      <trkpt lat="44.40093" lon="7.11339">
        <ele>2067.8</ele>
        <time>2022-07-18T15:51:30Z</time>
      </trkpt>
      <trkpt lat="44.40094" lon="7.11338">
        <ele>2067.8</ele>
        <time>2022-07-18T15:51:31Z</time>
      </trkpt>
      <trkpt lat="44.40095" lon="7.11336">
        <ele>2068</ele>
        <time>2022-07-18T15:51:32Z</time>
      </trkpt>
      <trkpt lat="44.40096" lon="7.11334">
        <ele>2068</ele>
        <time>2022-07-18T15:51:33Z</time>
      </trkpt>
      <trkpt lat="44.40097" lon="7.11332">
        <ele>2068.2</ele>
        <time>2022-07-18T15:51:34Z</time>
      </trkpt>
      <trkpt lat="44.40097" lon="7.1133">
        <ele>2068.2</ele>
        <time>2022-07-18T15:51:35Z</time>
      </trkpt>
      <trkpt lat="44.40098" lon="7.11329">
        <ele>2068.6</ele>
        <time>2022-07-18T15:51:36Z</time>
      </trkpt>
      <trkpt lat="44.40099" lon="7.11327">
        <ele>2068.6</ele>
        <time>2022-07-18T15:51:37Z</time>
      </trkpt>
      <trkpt lat="44.401" lon="7.11325">
        <ele>2068.8</ele>
        <time>2022-07-18T15:51:38Z</time>
      </trkpt>
      <trkpt lat="44.40101" lon="7.11324">
        <ele>2068.8</ele>
        <time>2022-07-18T15:51:39Z</time>
      </trkpt>
      <trkpt lat="44.40103" lon="7.11322">
        <ele>2069.2</ele>
        <time>2022-07-18T15:51:40Z</time>
      </trkpt>
      <trkpt lat="44.40104" lon="7.11321">
        <ele>2069.2</ele>
        <time>2022-07-18T15:51:41Z</time>
      </trkpt>
      <trkpt lat="44.40105" lon="7.11319">
        <ele>2069.4</ele>
        <time>2022-07-18T15:51:42Z</time>
      </trkpt>
      <trkpt lat="44.40107" lon="7.11318">
        <ele>2069.4</ele>
        <time>2022-07-18T15:51:43Z</time>
      </trkpt>
      <trkpt lat="44.40109" lon="7.11317">
        <ele>2069.6</ele>
        <time>2022-07-18T15:51:44Z</time>
      </trkpt>
      <trkpt lat="44.40111" lon="7.11315">
        <ele>2069.6</ele>
        <time>2022-07-18T15:51:45Z</time>
      </trkpt>
      <trkpt lat="44.40113" lon="7.11315">
        <ele>2070</ele>
        <time>2022-07-18T15:51:46Z</time>
      </trkpt>
      <trkpt lat="44.40114" lon="7.11314">
        <ele>2070</ele>
        <time>2022-07-18T15:51:47Z</time>
      </trkpt>
      <trkpt lat="44.40116" lon="7.11314">
        <ele>2070.2</ele>
        <time>2022-07-18T15:51:48Z</time>
      </trkpt>
      <trkpt lat="44.40118" lon="7.11314">
        <ele>2070.2</ele>
        <time>2022-07-18T15:51:49Z</time>
      </trkpt>
      <trkpt lat="44.4012" lon="7.11314">
        <ele>2070.6</ele>
        <time>2022-07-18T15:51:50Z</time>
      </trkpt>
      <trkpt lat="44.40122" lon="7.11314">
        <ele>2070.6</ele>
        <time>2022-07-18T15:51:51Z</time>
      </trkpt>
      <trkpt lat="44.40124" lon="7.11314">
        <ele>2070.8</ele>
        <time>2022-07-18T15:51:52Z</time>
      </trkpt>
      <trkpt lat="44.40126" lon="7.11314">
        <ele>2070.8</ele>
        <time>2022-07-18T15:51:53Z</time>
      </trkpt>
      <trkpt lat="44.40127" lon="7.11314">
        <ele>2071.2</ele>
        <time>2022-07-18T15:51:54Z</time>
      </trkpt>
      <trkpt lat="44.40129" lon="7.11314">
        <ele>2071.2</ele>
        <time>2022-07-18T15:51:55Z</time>
      </trkpt>
      <trkpt lat="44.40131" lon="7.11314">
        <ele>2071.6</ele>
        <time>2022-07-18T15:51:56Z</time>
      </trkpt>
      <trkpt lat="44.40133" lon="7.11313">
        <ele>2071.6</ele>
        <time>2022-07-18T15:51:57Z</time>
      </trkpt>
      <trkpt lat="44.40135" lon="7.11313">
        <ele>2071.8</ele>
        <time>2022-07-18T15:51:58Z</time>
      </trkpt>
      <trkpt lat="44.40136" lon="7.11313">
        <ele>2071.8</ele>
        <time>2022-07-18T15:51:59Z</time>
      </trkpt>
      <trkpt lat="44.40138" lon="7.11313">
        <ele>2071.8</ele>
        <time>2022-07-18T15:52:00Z</time>
      </trkpt>
      <trkpt lat="44.4014" lon="7.11313">
        <ele>2072.2</ele>
        <time>2022-07-18T15:52:01Z</time>
      </trkpt>
      <trkpt lat="44.40142" lon="7.11313">
        <ele>2072.2</ele>
        <time>2022-07-18T15:52:02Z</time>
      </trkpt>
      <trkpt lat="44.40144" lon="7.11313">
        <ele>2072.2</ele>
        <time>2022-07-18T15:52:03Z</time>
      </trkpt>
      <trkpt lat="44.40146" lon="7.11313">
        <ele>2072.6</ele>
        <time>2022-07-18T15:52:04Z</time>
      </trkpt>
      <trkpt lat="44.40147" lon="7.11313">
        <ele>2072.6</ele>
        <time>2022-07-18T15:52:05Z</time>
      </trkpt>
      <trkpt lat="44.40149" lon="7.11313">
        <ele>2072.8</ele>
        <time>2022-07-18T15:52:06Z</time>
      </trkpt>
      <trkpt lat="44.40151" lon="7.11314">
        <ele>2072.8</ele>
        <time>2022-07-18T15:52:07Z</time>
      </trkpt>
      <trkpt lat="44.40153" lon="7.11314">
        <ele>2073</ele>
        <time>2022-07-18T15:52:08Z</time>
      </trkpt>
      <trkpt lat="44.40154" lon="7.11315">
        <ele>2073</ele>
        <time>2022-07-18T15:52:09Z</time>
      </trkpt>
      <trkpt lat="44.40156" lon="7.11315">
        <ele>2073.4</ele>
        <time>2022-07-18T15:52:10Z</time>
      </trkpt>
      <trkpt lat="44.40157" lon="7.11316">
        <ele>2073.4</ele>
        <time>2022-07-18T15:52:11Z</time>
      </trkpt>
      <trkpt lat="44.40159" lon="7.11318">
        <ele>2073.8</ele>
        <time>2022-07-18T15:52:12Z</time>
      </trkpt>
      <trkpt lat="44.4016" lon="7.11319">
        <ele>2073.8</ele>
        <time>2022-07-18T15:52:13Z</time>
      </trkpt>
      <trkpt lat="44.40162" lon="7.1132">
        <ele>2074.2</ele>
        <time>2022-07-18T15:52:14Z</time>
      </trkpt>
      <trkpt lat="44.40163" lon="7.11321">
        <ele>2074.2</ele>
        <time>2022-07-18T15:52:15Z</time>
      </trkpt>
      <trkpt lat="44.40165" lon="7.11323">
        <ele>2074.4</ele>
        <time>2022-07-18T15:52:16Z</time>
      </trkpt>
      <trkpt lat="44.40166" lon="7.11324">
        <ele>2074.4</ele>
        <time>2022-07-18T15:52:17Z</time>
      </trkpt>
      <trkpt lat="44.40168" lon="7.11325">
        <ele>2074.8</ele>
        <time>2022-07-18T15:52:18Z</time>
      </trkpt>
      <trkpt lat="44.40169" lon="7.11326">
        <ele>2075</ele>
        <time>2022-07-18T15:52:19Z</time>
      </trkpt>
      <trkpt lat="44.4017" lon="7.11327">
        <ele>2075</ele>
        <time>2022-07-18T15:52:20Z</time>
      </trkpt>
      <trkpt lat="44.40172" lon="7.11328">
        <ele>2075.2</ele>
        <time>2022-07-18T15:52:21Z</time>
      </trkpt>
      <trkpt lat="44.40173" lon="7.11329">
        <ele>2075.2</ele>
        <time>2022-07-18T15:52:22Z</time>
      </trkpt>
      <trkpt lat="44.40175" lon="7.11331">
        <ele>2075.6</ele>
        <time>2022-07-18T15:52:23Z</time>
      </trkpt>
      <trkpt lat="44.40176" lon="7.11332">
        <ele>2075.6</ele>
        <time>2022-07-18T15:52:24Z</time>
      </trkpt>
      <trkpt lat="44.40177" lon="7.11333">
        <ele>2075.8</ele>
        <time>2022-07-18T15:52:25Z</time>
      </trkpt>
      <trkpt lat="44.40179" lon="7.11334">
        <ele>2075.8</ele>
        <time>2022-07-18T15:52:26Z</time>
      </trkpt>
      <trkpt lat="44.4018" lon="7.11335">
        <ele>2076.2</ele>
        <time>2022-07-18T15:52:27Z</time>
      </trkpt>
      <trkpt lat="44.40182" lon="7.11336">
        <ele>2076.2</ele>
        <time>2022-07-18T15:52:28Z</time>
      </trkpt>
      <trkpt lat="44.40183" lon="7.11338">
        <ele>2076.2</ele>
        <time>2022-07-18T15:52:29Z</time>
      </trkpt>
      <trkpt lat="44.40185" lon="7.11338">
        <ele>2076.6</ele>
        <time>2022-07-18T15:52:30Z</time>
      </trkpt>
      <trkpt lat="44.40186" lon="7.11339">
        <ele>2076.6</ele>
        <time>2022-07-18T15:52:31Z</time>
      </trkpt>
      <trkpt lat="44.40188" lon="7.11341">
        <ele>2077</ele>
        <time>2022-07-18T15:52:32Z</time>
      </trkpt>
      <trkpt lat="44.40189" lon="7.11342">
        <ele>2077</ele>
        <time>2022-07-18T15:52:33Z</time>
      </trkpt>
      <trkpt lat="44.40191" lon="7.11343">
        <ele>2077.2</ele>
        <time>2022-07-18T15:52:34Z</time>
      </trkpt>
      <trkpt lat="44.40192" lon="7.11344">
        <ele>2077.2</ele>
        <time>2022-07-18T15:52:35Z</time>
      </trkpt>
      <trkpt lat="44.40194" lon="7.11346">
        <ele>2077.6</ele>
        <time>2022-07-18T15:52:36Z</time>
      </trkpt>
      <trkpt lat="44.40195" lon="7.11347">
        <ele>2077.6</ele>
        <time>2022-07-18T15:52:37Z</time>
      </trkpt>
      <trkpt lat="44.40197" lon="7.11348">
        <ele>2077.8</ele>
        <time>2022-07-18T15:52:38Z</time>
      </trkpt>
      <trkpt lat="44.40198" lon="7.1135">
        <ele>2078</ele>
        <time>2022-07-18T15:52:39Z</time>
      </trkpt>
      <trkpt lat="44.402" lon="7.11351">
        <ele>2078.4</ele>
        <time>2022-07-18T15:52:40Z</time>
      </trkpt>
      <trkpt lat="44.40202" lon="7.11352">
        <ele>2078.4</ele>
        <time>2022-07-18T15:52:41Z</time>
      </trkpt>
      <trkpt lat="44.40203" lon="7.11353">
        <ele>2078.8</ele>
        <time>2022-07-18T15:52:42Z</time>
      </trkpt>
      <trkpt lat="44.40205" lon="7.11354">
        <ele>2078.8</ele>
        <time>2022-07-18T15:52:43Z</time>
      </trkpt>
      <trkpt lat="44.40207" lon="7.11354">
        <ele>2079</ele>
        <time>2022-07-18T15:52:44Z</time>
      </trkpt>
      <trkpt lat="44.40209" lon="7.11354">
        <ele>2079</ele>
        <time>2022-07-18T15:52:45Z</time>
      </trkpt>
      <trkpt lat="44.40211" lon="7.11354">
        <ele>2079.2</ele>
        <time>2022-07-18T15:52:46Z</time>
      </trkpt>
      <trkpt lat="44.40213" lon="7.11354">
        <ele>2079.4</ele>
        <time>2022-07-18T15:52:47Z</time>
      </trkpt>
      <trkpt lat="44.40214" lon="7.11354">
        <ele>2079.4</ele>
        <time>2022-07-18T15:52:48Z</time>
      </trkpt>
      <trkpt lat="44.40216" lon="7.11355">
        <ele>2079.8</ele>
        <time>2022-07-18T15:52:49Z</time>
      </trkpt>
      <trkpt lat="44.40218" lon="7.11355">
        <ele>2079.8</ele>
        <time>2022-07-18T15:52:50Z</time>
      </trkpt>
      <trkpt lat="44.4022" lon="7.11355">
        <ele>2080</ele>
        <time>2022-07-18T15:52:51Z</time>
      </trkpt>
      <trkpt lat="44.40222" lon="7.11356">
        <ele>2080</ele>
        <time>2022-07-18T15:52:52Z</time>
      </trkpt>
      <trkpt lat="44.40224" lon="7.11356">
        <ele>2080.2</ele>
        <time>2022-07-18T15:52:53Z</time>
      </trkpt>
      <trkpt lat="44.40225" lon="7.11357">
        <ele>2080.2</ele>
        <time>2022-07-18T15:52:54Z</time>
      </trkpt>
      <trkpt lat="44.40227" lon="7.11358">
        <ele>2080.6</ele>
        <time>2022-07-18T15:52:55Z</time>
      </trkpt>
      <trkpt lat="44.40229" lon="7.11359">
        <ele>2080.6</ele>
        <time>2022-07-18T15:52:56Z</time>
      </trkpt>
      <trkpt lat="44.4023" lon="7.11361">
        <ele>2081</ele>
        <time>2022-07-18T15:52:57Z</time>
      </trkpt>
      <trkpt lat="44.40231" lon="7.11363">
        <ele>2081</ele>
        <time>2022-07-18T15:52:58Z</time>
      </trkpt>
      <trkpt lat="44.40233" lon="7.11365">
        <ele>2081.2</ele>
        <time>2022-07-18T15:52:59Z</time>
      </trkpt>
      <trkpt lat="44.40234" lon="7.11367">
        <ele>2081.2</ele>
        <time>2022-07-18T15:53:00Z</time>
      </trkpt>
      <trkpt lat="44.40235" lon="7.11369">
        <ele>2081.2</ele>
        <time>2022-07-18T15:53:01Z</time>
      </trkpt>
      <trkpt lat="44.40237" lon="7.1137">
        <ele>2081.6</ele>
        <time>2022-07-18T15:53:02Z</time>
      </trkpt>
      <trkpt lat="44.40238" lon="7.11372">
        <ele>2081.6</ele>
        <time>2022-07-18T15:53:03Z</time>
      </trkpt>
      <trkpt lat="44.4024" lon="7.11374">
        <ele>2081.6</ele>
        <time>2022-07-18T15:53:04Z</time>
      </trkpt>
      <trkpt lat="44.40242" lon="7.11376">
        <ele>2081.8</ele>
        <time>2022-07-18T15:53:05Z</time>
      </trkpt>
      <trkpt lat="44.40243" lon="7.11377">
        <ele>2081.8</ele>
        <time>2022-07-18T15:53:06Z</time>
      </trkpt>
      <trkpt lat="44.40245" lon="7.11379">
        <ele>2082.2</ele>
        <time>2022-07-18T15:53:07Z</time>
      </trkpt>
      <trkpt lat="44.40246" lon="7.1138">
        <ele>2082.2</ele>
        <time>2022-07-18T15:53:08Z</time>
      </trkpt>
      <trkpt lat="44.40248" lon="7.11381">
        <ele>2082.6</ele>
        <time>2022-07-18T15:53:09Z</time>
      </trkpt>
      <trkpt lat="44.40249" lon="7.11383">
        <ele>2082.6</ele>
        <time>2022-07-18T15:53:10Z</time>
      </trkpt>
      <trkpt lat="44.40251" lon="7.11384">
        <ele>2082.8</ele>
        <time>2022-07-18T15:53:11Z</time>
      </trkpt>
      <trkpt lat="44.40253" lon="7.11385">
        <ele>2082.8</ele>
        <time>2022-07-18T15:53:12Z</time>
      </trkpt>
      <trkpt lat="44.40254" lon="7.11385">
        <ele>2083.2</ele>
        <time>2022-07-18T15:53:13Z</time>
      </trkpt>
      <trkpt lat="44.40256" lon="7.11385">
        <ele>2083.2</ele>
        <time>2022-07-18T15:53:14Z</time>
      </trkpt>
      <trkpt lat="44.40258" lon="7.11385">
        <ele>2083.4</ele>
        <time>2022-07-18T15:53:15Z</time>
      </trkpt>
      <trkpt lat="44.40259" lon="7.11385">
        <ele>2083.4</ele>
        <time>2022-07-18T15:53:16Z</time>
      </trkpt>
      <trkpt lat="44.40261" lon="7.11384">
        <ele>2083.8</ele>
        <time>2022-07-18T15:53:17Z</time>
      </trkpt>
      <trkpt lat="44.40263" lon="7.11384">
        <ele>2084</ele>
        <time>2022-07-18T15:53:18Z</time>
      </trkpt>
      <trkpt lat="44.40265" lon="7.11384">
        <ele>2084</ele>
        <time>2022-07-18T15:53:19Z</time>
      </trkpt>
      <trkpt lat="44.40267" lon="7.11383">
        <ele>2084.2</ele>
        <time>2022-07-18T15:53:20Z</time>
      </trkpt>
      <trkpt lat="44.40269" lon="7.11382">
        <ele>2084.2</ele>
        <time>2022-07-18T15:53:21Z</time>
      </trkpt>
      <trkpt lat="44.4027" lon="7.1138">
        <ele>2084.6</ele>
        <time>2022-07-18T15:53:22Z</time>
      </trkpt>
      <trkpt lat="44.40272" lon="7.11378">
        <ele>2084.6</ele>
        <time>2022-07-18T15:53:23Z</time>
      </trkpt>
      <trkpt lat="44.40273" lon="7.11376">
        <ele>2084.8</ele>
        <time>2022-07-18T15:53:24Z</time>
      </trkpt>
      <trkpt lat="44.40275" lon="7.11375">
        <ele>2084.8</ele>
        <time>2022-07-18T15:53:25Z</time>
      </trkpt>
      <trkpt lat="44.40276" lon="7.11373">
        <ele>2085</ele>
        <time>2022-07-18T15:53:26Z</time>
      </trkpt>
      <trkpt lat="44.40278" lon="7.11372">
        <ele>2085</ele>
        <time>2022-07-18T15:53:27Z</time>
      </trkpt>
      <trkpt lat="44.40279" lon="7.1137">
        <ele>2085.4</ele>
        <time>2022-07-18T15:53:29Z</time>
      </trkpt>
      <trkpt lat="44.40281" lon="7.11368">
        <ele>2085.6</ele>
        <time>2022-07-18T15:53:30Z</time>
      </trkpt>
      <trkpt lat="44.40282" lon="7.11367">
        <ele>2085.6</ele>
        <time>2022-07-18T15:53:31Z</time>
      </trkpt>
      <trkpt lat="44.40284" lon="7.11365">
        <ele>2085.8</ele>
        <time>2022-07-18T15:53:32Z</time>
      </trkpt>
      <trkpt lat="44.40286" lon="7.11364">
        <ele>2085.8</ele>
        <time>2022-07-18T15:53:33Z</time>
      </trkpt>
      <trkpt lat="44.40287" lon="7.11363">
        <ele>2086</ele>
        <time>2022-07-18T15:53:34Z</time>
      </trkpt>
      <trkpt lat="44.40289" lon="7.11362">
        <ele>2086</ele>
        <time>2022-07-18T15:53:35Z</time>
      </trkpt>
      <trkpt lat="44.4029" lon="7.1136">
        <ele>2086.2</ele>
        <time>2022-07-18T15:53:36Z</time>
      </trkpt>
      <trkpt lat="44.40291" lon="7.11359">
        <ele>2086.4</ele>
        <time>2022-07-18T15:53:37Z</time>
      </trkpt>
      <trkpt lat="44.40292" lon="7.11357">
        <ele>2086.4</ele>
        <time>2022-07-18T15:53:38Z</time>
      </trkpt>
      <trkpt lat="44.40293" lon="7.11355">
        <ele>2086.8</ele>
        <time>2022-07-18T15:53:39Z</time>
      </trkpt>
      <trkpt lat="44.40294" lon="7.11353">
        <ele>2086.8</ele>
        <time>2022-07-18T15:53:40Z</time>
      </trkpt>
      <trkpt lat="44.40295" lon="7.11352">
        <ele>2087.2</ele>
        <time>2022-07-18T15:53:41Z</time>
      </trkpt>
      <trkpt lat="44.40296" lon="7.11349">
        <ele>2087.2</ele>
        <time>2022-07-18T15:53:42Z</time>
      </trkpt>
      <trkpt lat="44.40297" lon="7.11347">
        <ele>2087.4</ele>
        <time>2022-07-18T15:53:43Z</time>
      </trkpt>
      <trkpt lat="44.40298" lon="7.11345">
        <ele>2087.4</ele>
        <time>2022-07-18T15:53:44Z</time>
      </trkpt>
      <trkpt lat="44.40299" lon="7.11343">
        <ele>2087.8</ele>
        <time>2022-07-18T15:53:45Z</time>
      </trkpt>
      <trkpt lat="44.403" lon="7.1134">
        <ele>2087.8</ele>
        <time>2022-07-18T15:53:46Z</time>
      </trkpt>
      <trkpt lat="44.40301" lon="7.11338">
        <ele>2088</ele>
        <time>2022-07-18T15:53:47Z</time>
      </trkpt>
      <trkpt lat="44.40301" lon="7.11335">
        <ele>2088</ele>
        <time>2022-07-18T15:53:48Z</time>
      </trkpt>
      <trkpt lat="44.40302" lon="7.11333">
        <ele>2088.4</ele>
        <time>2022-07-18T15:53:49Z</time>
      </trkpt>
      <trkpt lat="44.40303" lon="7.11331">
        <ele>2088.4</ele>
        <time>2022-07-18T15:53:50Z</time>
      </trkpt>
      <trkpt lat="44.40305" lon="7.11329">
        <ele>2088.8</ele>
        <time>2022-07-18T15:53:51Z</time>
      </trkpt>
      <trkpt lat="44.40306" lon="7.11327">
        <ele>2088.8</ele>
        <time>2022-07-18T15:53:52Z</time>
      </trkpt>
      <trkpt lat="44.40307" lon="7.11325">
        <ele>2089</ele>
        <time>2022-07-18T15:53:53Z</time>
      </trkpt>
      <trkpt lat="44.40309" lon="7.11324">
        <ele>2089</ele>
        <time>2022-07-18T15:53:54Z</time>
      </trkpt>
      <trkpt lat="44.4031" lon="7.11322">
        <ele>2089.4</ele>
        <time>2022-07-18T15:53:55Z</time>
      </trkpt>
      <trkpt lat="44.40312" lon="7.11321">
        <ele>2089.4</ele>
        <time>2022-07-18T15:53:56Z</time>
      </trkpt>
      <trkpt lat="44.40314" lon="7.1132">
        <ele>2089.8</ele>
        <time>2022-07-18T15:53:57Z</time>
      </trkpt>
      <trkpt lat="44.40316" lon="7.1132">
        <ele>2089.8</ele>
        <time>2022-07-18T15:53:58Z</time>
      </trkpt>
      <trkpt lat="44.40318" lon="7.11319">
        <ele>2090.2</ele>
        <time>2022-07-18T15:53:59Z</time>
      </trkpt>
      <trkpt lat="44.40319" lon="7.11319">
        <ele>2090.2</ele>
        <time>2022-07-18T15:54:00Z</time>
      </trkpt>
      <trkpt lat="44.40321" lon="7.11319">
        <ele>2090.4</ele>
        <time>2022-07-18T15:54:01Z</time>
      </trkpt>
      <trkpt lat="44.40323" lon="7.11319">
        <ele>2090.4</ele>
        <time>2022-07-18T15:54:02Z</time>
      </trkpt>
      <trkpt lat="44.40325" lon="7.1132">
        <ele>2090.8</ele>
        <time>2022-07-18T15:54:03Z</time>
      </trkpt>
      <trkpt lat="44.40326" lon="7.11321">
        <ele>2091</ele>
        <time>2022-07-18T15:54:04Z</time>
      </trkpt>
      <trkpt lat="44.40327" lon="7.11323">
        <ele>2091</ele>
        <time>2022-07-18T15:54:05Z</time>
      </trkpt>
      <trkpt lat="44.40329" lon="7.11325">
        <ele>2091.4</ele>
        <time>2022-07-18T15:54:06Z</time>
      </trkpt>
      <trkpt lat="44.4033" lon="7.11327">
        <ele>2091.4</ele>
        <time>2022-07-18T15:54:07Z</time>
      </trkpt>
      <trkpt lat="44.40331" lon="7.11329">
        <ele>2091.6</ele>
        <time>2022-07-18T15:54:08Z</time>
      </trkpt>
      <trkpt lat="44.40332" lon="7.11331">
        <ele>2091.6</ele>
        <time>2022-07-18T15:54:09Z</time>
      </trkpt>
      <trkpt lat="44.40333" lon="7.11333">
        <ele>2091.8</ele>
        <time>2022-07-18T15:54:10Z</time>
      </trkpt>
      <trkpt lat="44.40334" lon="7.11336">
        <ele>2091.8</ele>
        <time>2022-07-18T15:54:11Z</time>
      </trkpt>
      <trkpt lat="44.40336" lon="7.11338">
        <ele>2092.2</ele>
        <time>2022-07-18T15:54:12Z</time>
      </trkpt>
      <trkpt lat="44.40337" lon="7.1134">
        <ele>2092.2</ele>
        <time>2022-07-18T15:54:13Z</time>
      </trkpt>
      <trkpt lat="44.40339" lon="7.11342">
        <ele>2092.6</ele>
        <time>2022-07-18T15:54:14Z</time>
      </trkpt>
      <trkpt lat="44.4034" lon="7.11343">
        <ele>2092.6</ele>
        <time>2022-07-18T15:54:15Z</time>
      </trkpt>
      <trkpt lat="44.40341" lon="7.11345">
        <ele>2092.6</ele>
        <time>2022-07-18T15:54:16Z</time>
      </trkpt>
      <trkpt lat="44.40343" lon="7.11347">
        <ele>2092.8</ele>
        <time>2022-07-18T15:54:17Z</time>
      </trkpt>
      <trkpt lat="44.40344" lon="7.11349">
        <ele>2092.8</ele>
        <time>2022-07-18T15:54:18Z</time>
      </trkpt>
      <trkpt lat="44.40345" lon="7.11351">
        <ele>2093.2</ele>
        <time>2022-07-18T15:54:19Z</time>
      </trkpt>
      <trkpt lat="44.40347" lon="7.11352">
        <ele>2093.2</ele>
        <time>2022-07-18T15:54:20Z</time>
      </trkpt>
      <trkpt lat="44.40348" lon="7.11354">
        <ele>2093.2</ele>
        <time>2022-07-18T15:54:21Z</time>
      </trkpt>
      <trkpt lat="44.40349" lon="7.11356">
        <ele>2093.6</ele>
        <time>2022-07-18T15:54:22Z</time>
      </trkpt>
      <trkpt lat="44.40351" lon="7.11358">
        <ele>2093.6</ele>
        <time>2022-07-18T15:54:23Z</time>
      </trkpt>
      <trkpt lat="44.40352" lon="7.1136">
        <ele>2093.8</ele>
        <time>2022-07-18T15:54:24Z</time>
      </trkpt>
      <trkpt lat="44.40354" lon="7.11362">
        <ele>2094.2</ele>
        <time>2022-07-18T15:54:25Z</time>
      </trkpt>
      <trkpt lat="44.40355" lon="7.11363">
        <ele>2094.2</ele>
        <time>2022-07-18T15:54:26Z</time>
      </trkpt>
      <trkpt lat="44.40357" lon="7.11365">
        <ele>2094.4</ele>
        <time>2022-07-18T15:54:27Z</time>
      </trkpt>
      <trkpt lat="44.40358" lon="7.11367">
        <ele>2094.4</ele>
        <time>2022-07-18T15:54:28Z</time>
      </trkpt>
      <trkpt lat="44.4036" lon="7.11369">
        <ele>2094.6</ele>
        <time>2022-07-18T15:54:29Z</time>
      </trkpt>
      <trkpt lat="44.40361" lon="7.11372">
        <ele>2094.6</ele>
        <time>2022-07-18T15:54:30Z</time>
      </trkpt>
      <trkpt lat="44.40363" lon="7.11373">
        <ele>2095</ele>
        <time>2022-07-18T15:54:31Z</time>
      </trkpt>
      <trkpt lat="44.40364" lon="7.11375">
        <ele>2095</ele>
        <time>2022-07-18T15:54:32Z</time>
      </trkpt>
      <trkpt lat="44.40366" lon="7.11376">
        <ele>2095.4</ele>
        <time>2022-07-18T15:54:33Z</time>
      </trkpt>
      <trkpt lat="44.40368" lon="7.11378">
        <ele>2095.4</ele>
        <time>2022-07-18T15:54:34Z</time>
      </trkpt>
      <trkpt lat="44.40369" lon="7.11379">
        <ele>2095.8</ele>
        <time>2022-07-18T15:54:35Z</time>
      </trkpt>
      <trkpt lat="44.40371" lon="7.11381">
        <ele>2096</ele>
        <time>2022-07-18T15:54:36Z</time>
      </trkpt>
      <trkpt lat="44.40372" lon="7.11382">
        <ele>2096</ele>
        <time>2022-07-18T15:54:37Z</time>
      </trkpt>
      <trkpt lat="44.40374" lon="7.11384">
        <ele>2096.2</ele>
        <time>2022-07-18T15:54:38Z</time>
      </trkpt>
      <trkpt lat="44.40375" lon="7.11385">
        <ele>2096.2</ele>
        <time>2022-07-18T15:54:39Z</time>
      </trkpt>
      <trkpt lat="44.40377" lon="7.11387">
        <ele>2096.6</ele>
        <time>2022-07-18T15:54:40Z</time>
      </trkpt>
      <trkpt lat="44.40378" lon="7.11388">
        <ele>2096.6</ele>
        <time>2022-07-18T15:54:41Z</time>
      </trkpt>
      <trkpt lat="44.4038" lon="7.1139">
        <ele>2097</ele>
        <time>2022-07-18T15:54:42Z</time>
      </trkpt>
      <trkpt lat="44.40381" lon="7.11391">
        <ele>2097</ele>
        <time>2022-07-18T15:54:43Z</time>
      </trkpt>
      <trkpt lat="44.40383" lon="7.11391">
        <ele>2097.4</ele>
        <time>2022-07-18T15:54:44Z</time>
      </trkpt>
      <trkpt lat="44.40385" lon="7.11391">
        <ele>2097.4</ele>
        <time>2022-07-18T15:54:45Z</time>
      </trkpt>
      <trkpt lat="44.40387" lon="7.11391">
        <ele>2097.6</ele>
        <time>2022-07-18T15:54:46Z</time>
      </trkpt>
      <trkpt lat="44.40389" lon="7.11391">
        <ele>2097.6</ele>
        <time>2022-07-18T15:54:47Z</time>
      </trkpt>
      <trkpt lat="44.40391" lon="7.11391">
        <ele>2097.8</ele>
        <time>2022-07-18T15:54:48Z</time>
      </trkpt>
      <trkpt lat="44.40392" lon="7.1139">
        <ele>2097.8</ele>
        <time>2022-07-18T15:54:49Z</time>
      </trkpt>
      <trkpt lat="44.40394" lon="7.11389">
        <ele>2098.2</ele>
        <time>2022-07-18T15:54:50Z</time>
      </trkpt>
      <trkpt lat="44.40395" lon="7.11388">
        <ele>2098.2</ele>
        <time>2022-07-18T15:54:51Z</time>
      </trkpt>
      <trkpt lat="44.40397" lon="7.11387">
        <ele>2098.4</ele>
        <time>2022-07-18T15:54:52Z</time>
      </trkpt>
      <trkpt lat="44.40398" lon="7.11386">
        <ele>2098.4</ele>
        <time>2022-07-18T15:54:53Z</time>
      </trkpt>
      <trkpt lat="44.404" lon="7.11385">
        <ele>2098.8</ele>
        <time>2022-07-18T15:54:54Z</time>
      </trkpt>
      <trkpt lat="44.40402" lon="7.11384">
        <ele>2098.8</ele>
        <time>2022-07-18T15:54:55Z</time>
      </trkpt>
      <trkpt lat="44.40404" lon="7.11383">
        <ele>2099</ele>
        <time>2022-07-18T15:54:56Z</time>
      </trkpt>
      <trkpt lat="44.40405" lon="7.11382">
        <ele>2099</ele>
        <time>2022-07-18T15:54:57Z</time>
      </trkpt>
      <trkpt lat="44.40407" lon="7.11381">
        <ele>2099.4</ele>
        <time>2022-07-18T15:54:58Z</time>
      </trkpt>
      <trkpt lat="44.40408" lon="7.1138">
        <ele>2099.4</ele>
        <time>2022-07-18T15:54:59Z</time>
      </trkpt>
      <trkpt lat="44.4041" lon="7.11379">
        <ele>2099.6</ele>
        <time>2022-07-18T15:55:00Z</time>
      </trkpt>
      <trkpt lat="44.40412" lon="7.11378">
        <ele>2099.8</ele>
        <time>2022-07-18T15:55:01Z</time>
      </trkpt>
      <trkpt lat="44.40413" lon="7.11377">
        <ele>2100</ele>
        <time>2022-07-18T15:55:02Z</time>
      </trkpt>
      <trkpt lat="44.40415" lon="7.11376">
        <ele>2100</ele>
        <time>2022-07-18T15:55:03Z</time>
      </trkpt>
      <trkpt lat="44.40417" lon="7.11375">
        <ele>2100.2</ele>
        <time>2022-07-18T15:55:04Z</time>
      </trkpt>
      <trkpt lat="44.40418" lon="7.11374">
        <ele>2100.2</ele>
        <time>2022-07-18T15:55:05Z</time>
      </trkpt>
      <trkpt lat="44.4042" lon="7.11373">
        <ele>2100.6</ele>
        <time>2022-07-18T15:55:06Z</time>
      </trkpt>
      <trkpt lat="44.40421" lon="7.11371">
        <ele>2100.8</ele>
        <time>2022-07-18T15:55:07Z</time>
      </trkpt>
      <trkpt lat="44.40422" lon="7.11369">
        <ele>2101</ele>
        <time>2022-07-18T15:55:08Z</time>
      </trkpt>
      <trkpt lat="44.40423" lon="7.11368">
        <ele>2101</ele>
        <time>2022-07-18T15:55:09Z</time>
      </trkpt>
      <trkpt lat="44.40425" lon="7.11367">
        <ele>2101.4</ele>
        <time>2022-07-18T15:55:10Z</time>
      </trkpt>
      <trkpt lat="44.40426" lon="7.11366">
        <ele>2101.6</ele>
        <time>2022-07-18T15:55:11Z</time>
      </trkpt>
      <trkpt lat="44.40428" lon="7.11365">
        <ele>2101.6</ele>
        <time>2022-07-18T15:55:12Z</time>
      </trkpt>
      <trkpt lat="44.40429" lon="7.11365">
        <ele>2102</ele>
        <time>2022-07-18T15:55:13Z</time>
      </trkpt>
      <trkpt lat="44.40431" lon="7.11366">
        <ele>2102</ele>
        <time>2022-07-18T15:55:14Z</time>
      </trkpt>
      <trkpt lat="44.40433" lon="7.11366">
        <ele>2102.4</ele>
        <time>2022-07-18T15:55:15Z</time>
      </trkpt>
      <trkpt lat="44.40434" lon="7.11366">
        <ele>2102.4</ele>
        <time>2022-07-18T15:55:16Z</time>
      </trkpt>
      <trkpt lat="44.40436" lon="7.11367">
        <ele>2102.6</ele>
        <time>2022-07-18T15:55:17Z</time>
      </trkpt>
      <trkpt lat="44.40438" lon="7.11368">
        <ele>2102.6</ele>
        <time>2022-07-18T15:55:18Z</time>
      </trkpt>
      <trkpt lat="44.40439" lon="7.11369">
        <ele>2103</ele>
        <time>2022-07-18T15:55:19Z</time>
      </trkpt>
      <trkpt lat="44.40441" lon="7.1137">
        <ele>2103</ele>
        <time>2022-07-18T15:55:20Z</time>
      </trkpt>
      <trkpt lat="44.40442" lon="7.11372">
        <ele>2103.4</ele>
        <time>2022-07-18T15:55:21Z</time>
      </trkpt>
      <trkpt lat="44.40444" lon="7.11373">
        <ele>2103.4</ele>
        <time>2022-07-18T15:55:22Z</time>
      </trkpt>
      <trkpt lat="44.40446" lon="7.11374">
        <ele>2103.6</ele>
        <time>2022-07-18T15:55:23Z</time>
      </trkpt>
      <trkpt lat="44.40447" lon="7.11374">
        <ele>2103.6</ele>
        <time>2022-07-18T15:55:24Z</time>
      </trkpt>
      <trkpt lat="44.40449" lon="7.11374">
        <ele>2103.8</ele>
        <time>2022-07-18T15:55:25Z</time>
      </trkpt>
      <trkpt lat="44.40451" lon="7.11374">
        <ele>2103.8</ele>
        <time>2022-07-18T15:55:26Z</time>
      </trkpt>
      <trkpt lat="44.40452" lon="7.11375">
        <ele>2104.2</ele>
        <time>2022-07-18T15:55:27Z</time>
      </trkpt>
      <trkpt lat="44.40454" lon="7.11375">
        <ele>2104.2</ele>
        <time>2022-07-18T15:55:28Z</time>
      </trkpt>
      <trkpt lat="44.40455" lon="7.11375">
        <ele>2104.6</ele>
        <time>2022-07-18T15:55:29Z</time>
      </trkpt>
      <trkpt lat="44.40457" lon="7.11375">
        <ele>2104.6</ele>
        <time>2022-07-18T15:55:30Z</time>
      </trkpt>
      <trkpt lat="44.40459" lon="7.11375">
        <ele>2104.8</ele>
        <time>2022-07-18T15:55:31Z</time>
      </trkpt>
      <trkpt lat="44.4046" lon="7.11375">
        <ele>2105</ele>
        <time>2022-07-18T15:55:32Z</time>
      </trkpt>
      <trkpt lat="44.40462" lon="7.11375">
        <ele>2105</ele>
        <time>2022-07-18T15:55:33Z</time>
      </trkpt>
      <trkpt lat="44.40463" lon="7.11376">
        <ele>2105.4</ele>
        <time>2022-07-18T15:55:34Z</time>
      </trkpt>
      <trkpt lat="44.40465" lon="7.11376">
        <ele>2105.4</ele>
        <time>2022-07-18T15:55:35Z</time>
      </trkpt>
      <trkpt lat="44.40467" lon="7.11375">
        <ele>2105.6</ele>
        <time>2022-07-18T15:55:36Z</time>
      </trkpt>
      <trkpt lat="44.40469" lon="7.11375">
        <ele>2105.6</ele>
        <time>2022-07-18T15:55:37Z</time>
      </trkpt>
      <trkpt lat="44.4047" lon="7.11376">
        <ele>2106</ele>
        <time>2022-07-18T15:55:38Z</time>
      </trkpt>
      <trkpt lat="44.40472" lon="7.11377">
        <ele>2106</ele>
        <time>2022-07-18T15:55:39Z</time>
      </trkpt>
      <trkpt lat="44.40473" lon="7.11378">
        <ele>2106.2</ele>
        <time>2022-07-18T15:55:40Z</time>
      </trkpt>
      <trkpt lat="44.40474" lon="7.11378">
        <ele>2106.6</ele>
        <time>2022-07-18T15:55:41Z</time>
      </trkpt>
      <trkpt lat="44.40476" lon="7.11379">
        <ele>2106.8</ele>
        <time>2022-07-18T15:55:42Z</time>
      </trkpt>
      <trkpt lat="44.40478" lon="7.1138">
        <ele>2106.8</ele>
        <time>2022-07-18T15:55:43Z</time>
      </trkpt>
      <trkpt lat="44.4048" lon="7.1138">
        <ele>2107</ele>
        <time>2022-07-18T15:55:44Z</time>
      </trkpt>
      <trkpt lat="44.40481" lon="7.11381">
        <ele>2107</ele>
        <time>2022-07-18T15:55:45Z</time>
      </trkpt>
      <trkpt lat="44.40483" lon="7.11382">
        <ele>2107.4</ele>
        <time>2022-07-18T15:55:46Z</time>
      </trkpt>
      <trkpt lat="44.40485" lon="7.11383">
        <ele>2107.4</ele>
        <time>2022-07-18T15:55:47Z</time>
      </trkpt>
      <trkpt lat="44.40486" lon="7.11384">
        <ele>2107.8</ele>
        <time>2022-07-18T15:55:48Z</time>
      </trkpt>
      <trkpt lat="44.40487" lon="7.11385">
        <ele>2107.8</ele>
        <time>2022-07-18T15:55:49Z</time>
      </trkpt>
      <trkpt lat="44.40489" lon="7.11386">
        <ele>2108</ele>
        <time>2022-07-18T15:55:50Z</time>
      </trkpt>
      <trkpt lat="44.4049" lon="7.11387">
        <ele>2108</ele>
        <time>2022-07-18T15:55:51Z</time>
      </trkpt>
      <trkpt lat="44.40492" lon="7.11388">
        <ele>2108.2</ele>
        <time>2022-07-18T15:55:52Z</time>
      </trkpt>
      <trkpt lat="44.40494" lon="7.11389">
        <ele>2108.2</ele>
        <time>2022-07-18T15:55:53Z</time>
      </trkpt>
      <trkpt lat="44.40496" lon="7.11389">
        <ele>2108.6</ele>
        <time>2022-07-18T15:55:54Z</time>
      </trkpt>
      <trkpt lat="44.40497" lon="7.1139">
        <ele>2108.6</ele>
        <time>2022-07-18T15:55:55Z</time>
      </trkpt>
      <trkpt lat="44.40499" lon="7.11391">
        <ele>2109</ele>
        <time>2022-07-18T15:55:56Z</time>
      </trkpt>
      <trkpt lat="44.40501" lon="7.11391">
        <ele>2109</ele>
        <time>2022-07-18T15:55:57Z</time>
      </trkpt>
      <trkpt lat="44.40502" lon="7.11391">
        <ele>2109.2</ele>
        <time>2022-07-18T15:55:58Z</time>
      </trkpt>
      <trkpt lat="44.40504" lon="7.11392">
        <ele>2109.2</ele>
        <time>2022-07-18T15:55:59Z</time>
      </trkpt>
      <trkpt lat="44.40506" lon="7.11392">
        <ele>2109.6</ele>
        <time>2022-07-18T15:56:00Z</time>
      </trkpt>
      <trkpt lat="44.40507" lon="7.11393">
        <ele>2109.6</ele>
        <time>2022-07-18T15:56:01Z</time>
      </trkpt>
      <trkpt lat="44.40509" lon="7.11393">
        <ele>2109.6</ele>
        <time>2022-07-18T15:56:02Z</time>
      </trkpt>
      <trkpt lat="44.40511" lon="7.11393">
        <ele>2110</ele>
        <time>2022-07-18T15:56:03Z</time>
      </trkpt>
      <trkpt lat="44.40513" lon="7.11393">
        <ele>2110.2</ele>
        <time>2022-07-18T15:56:04Z</time>
      </trkpt>
      <trkpt lat="44.40515" lon="7.11394">
        <ele>2110.4</ele>
        <time>2022-07-18T15:56:05Z</time>
      </trkpt>
      <trkpt lat="44.40517" lon="7.11394">
        <ele>2110.6</ele>
        <time>2022-07-18T15:56:06Z</time>
      </trkpt>
      <trkpt lat="44.40519" lon="7.11395">
        <ele>2110.8</ele>
        <time>2022-07-18T15:56:07Z</time>
      </trkpt>
      <trkpt lat="44.40521" lon="7.11396">
        <ele>2111.2</ele>
        <time>2022-07-18T15:56:08Z</time>
      </trkpt>
      <trkpt lat="44.40523" lon="7.11396">
        <ele>2111.2</ele>
        <time>2022-07-18T15:56:09Z</time>
      </trkpt>
      <trkpt lat="44.40525" lon="7.11397">
        <ele>2111.6</ele>
        <time>2022-07-18T15:56:10Z</time>
      </trkpt>
      <trkpt lat="44.40527" lon="7.11398">
        <ele>2111.6</ele>
        <time>2022-07-18T15:56:11Z</time>
      </trkpt>
      <trkpt lat="44.40528" lon="7.114">
        <ele>2112</ele>
        <time>2022-07-18T15:56:12Z</time>
      </trkpt>
      <trkpt lat="44.4053" lon="7.11402">
        <ele>2112</ele>
        <time>2022-07-18T15:56:13Z</time>
      </trkpt>
      <trkpt lat="44.40531" lon="7.11404">
        <ele>2112.2</ele>
        <time>2022-07-18T15:56:14Z</time>
      </trkpt>
      <trkpt lat="44.40532" lon="7.11406">
        <ele>2112.2</ele>
        <time>2022-07-18T15:56:15Z</time>
      </trkpt>
      <trkpt lat="44.40533" lon="7.11409">
        <ele>2112.6</ele>
        <time>2022-07-18T15:56:16Z</time>
      </trkpt>
      <trkpt lat="44.40534" lon="7.11411">
        <ele>2112.6</ele>
        <time>2022-07-18T15:56:17Z</time>
      </trkpt>
      <trkpt lat="44.40534" lon="7.11413">
        <ele>2113</ele>
        <time>2022-07-18T15:56:18Z</time>
      </trkpt>
      <trkpt lat="44.40535" lon="7.11415">
        <ele>2113</ele>
        <time>2022-07-18T15:56:19Z</time>
      </trkpt>
      <trkpt lat="44.40536" lon="7.11417">
        <ele>2113.4</ele>
        <time>2022-07-18T15:56:20Z</time>
      </trkpt>
      <trkpt lat="44.40537" lon="7.11419">
        <ele>2113.4</ele>
        <time>2022-07-18T15:56:21Z</time>
      </trkpt>
      <trkpt lat="44.40539" lon="7.1142">
        <ele>2113.8</ele>
        <time>2022-07-18T15:56:22Z</time>
      </trkpt>
      <trkpt lat="44.4054" lon="7.11421">
        <ele>2113.8</ele>
        <time>2022-07-18T15:56:23Z</time>
      </trkpt>
      <trkpt lat="44.40542" lon="7.11422">
        <ele>2114</ele>
        <time>2022-07-18T15:56:24Z</time>
      </trkpt>
      <trkpt lat="44.40543" lon="7.11424">
        <ele>2114</ele>
        <time>2022-07-18T15:56:25Z</time>
      </trkpt>
      <trkpt lat="44.40545" lon="7.11425">
        <ele>2114</ele>
        <time>2022-07-18T15:56:26Z</time>
      </trkpt>
      <trkpt lat="44.40547" lon="7.11426">
        <ele>2114.4</ele>
        <time>2022-07-18T15:56:27Z</time>
      </trkpt>
      <trkpt lat="44.40549" lon="7.11427">
        <ele>2114.4</ele>
        <time>2022-07-18T15:56:28Z</time>
      </trkpt>
      <trkpt lat="44.4055" lon="7.11428">
        <ele>2114.6</ele>
        <time>2022-07-18T15:56:29Z</time>
      </trkpt>
      <trkpt lat="44.40552" lon="7.11428">
        <ele>2114.6</ele>
        <time>2022-07-18T15:56:30Z</time>
      </trkpt>
      <trkpt lat="44.40554" lon="7.11429">
        <ele>2115</ele>
        <time>2022-07-18T15:56:31Z</time>
      </trkpt>
      <trkpt lat="44.40555" lon="7.1143">
        <ele>2115</ele>
        <time>2022-07-18T15:56:32Z</time>
      </trkpt>
      <trkpt lat="44.40557" lon="7.11431">
        <ele>2115.4</ele>
        <time>2022-07-18T15:56:33Z</time>
      </trkpt>
      <trkpt lat="44.40558" lon="7.11432">
        <ele>2115.4</ele>
        <time>2022-07-18T15:56:34Z</time>
      </trkpt>
      <trkpt lat="44.4056" lon="7.11433">
        <ele>2115.6</ele>
        <time>2022-07-18T15:56:35Z</time>
      </trkpt>
      <trkpt lat="44.40561" lon="7.11435">
        <ele>2115.8</ele>
        <time>2022-07-18T15:56:36Z</time>
      </trkpt>
      <trkpt lat="44.40563" lon="7.11437">
        <ele>2115.8</ele>
        <time>2022-07-18T15:56:37Z</time>
      </trkpt>
      <trkpt lat="44.40564" lon="7.11439">
        <ele>2116.2</ele>
        <time>2022-07-18T15:56:38Z</time>
      </trkpt>
      <trkpt lat="44.40565" lon="7.11441">
        <ele>2116.2</ele>
        <time>2022-07-18T15:56:39Z</time>
      </trkpt>
      <trkpt lat="44.40567" lon="7.11444">
        <ele>2116.4</ele>
        <time>2022-07-18T15:56:40Z</time>
      </trkpt>
      <trkpt lat="44.40569" lon="7.11445">
        <ele>2116.4</ele>
        <time>2022-07-18T15:56:41Z</time>
      </trkpt>
      <trkpt lat="44.4057" lon="7.11448">
        <ele>2116.8</ele>
        <time>2022-07-18T15:56:42Z</time>
      </trkpt>
      <trkpt lat="44.40572" lon="7.1145">
        <ele>2116.8</ele>
        <time>2022-07-18T15:56:43Z</time>
      </trkpt>
      <trkpt lat="44.40573" lon="7.11451">
        <ele>2117.2</ele>
        <time>2022-07-18T15:56:44Z</time>
      </trkpt>
      <trkpt lat="44.40575" lon="7.11453">
        <ele>2117.4</ele>
        <time>2022-07-18T15:56:45Z</time>
      </trkpt>
      <trkpt lat="44.40577" lon="7.11454">
        <ele>2117.4</ele>
        <time>2022-07-18T15:56:46Z</time>
      </trkpt>
      <trkpt lat="44.40579" lon="7.11455">
        <ele>2117.6</ele>
        <time>2022-07-18T15:56:47Z</time>
      </trkpt>
      <trkpt lat="44.40581" lon="7.11456">
        <ele>2117.6</ele>
        <time>2022-07-18T15:56:48Z</time>
      </trkpt>
      <trkpt lat="44.40582" lon="7.11456">
        <ele>2118</ele>
        <time>2022-07-18T15:56:49Z</time>
      </trkpt>
      <trkpt lat="44.40584" lon="7.11457">
        <ele>2118</ele>
        <time>2022-07-18T15:56:50Z</time>
      </trkpt>
      <trkpt lat="44.40586" lon="7.11458">
        <ele>2118</ele>
        <time>2022-07-18T15:56:51Z</time>
      </trkpt>
      <trkpt lat="44.40588" lon="7.11459">
        <ele>2118.2</ele>
        <time>2022-07-18T15:56:52Z</time>
      </trkpt>
      <trkpt lat="44.4059" lon="7.11459">
        <ele>2118.2</ele>
        <time>2022-07-18T15:56:53Z</time>
      </trkpt>
      <trkpt lat="44.40592" lon="7.1146">
        <ele>2118.6</ele>
        <time>2022-07-18T15:56:54Z</time>
      </trkpt>
      <trkpt lat="44.40593" lon="7.11461">
        <ele>2118.6</ele>
        <time>2022-07-18T15:56:55Z</time>
      </trkpt>
      <trkpt lat="44.40595" lon="7.11461">
        <ele>2118.8</ele>
        <time>2022-07-18T15:56:56Z</time>
      </trkpt>
      <trkpt lat="44.40597" lon="7.11461">
        <ele>2118.8</ele>
        <time>2022-07-18T15:56:57Z</time>
      </trkpt>
      <trkpt lat="44.40598" lon="7.11461">
        <ele>2119.2</ele>
        <time>2022-07-18T15:56:58Z</time>
      </trkpt>
      <trkpt lat="44.406" lon="7.11462">
        <ele>2119.4</ele>
        <time>2022-07-18T15:56:59Z</time>
      </trkpt>
      <trkpt lat="44.40602" lon="7.11462">
        <ele>2119.4</ele>
        <time>2022-07-18T15:57:00Z</time>
      </trkpt>
      <trkpt lat="44.40604" lon="7.11463">
        <ele>2119.4</ele>
        <time>2022-07-18T15:57:01Z</time>
      </trkpt>
      <trkpt lat="44.40605" lon="7.11464">
        <ele>2119.8</ele>
        <time>2022-07-18T15:57:02Z</time>
      </trkpt>
      <trkpt lat="44.40607" lon="7.11465">
        <ele>2120</ele>
        <time>2022-07-18T15:57:03Z</time>
      </trkpt>
      <trkpt lat="44.40609" lon="7.11465">
        <ele>2120</ele>
        <time>2022-07-18T15:57:04Z</time>
      </trkpt>
      <trkpt lat="44.40611" lon="7.11466">
        <ele>2120.2</ele>
        <time>2022-07-18T15:57:05Z</time>
      </trkpt>
      <trkpt lat="44.40613" lon="7.11467">
        <ele>2120.2</ele>
        <time>2022-07-18T15:57:06Z</time>
      </trkpt>
      <trkpt lat="44.40615" lon="7.11468">
        <ele>2120.4</ele>
        <time>2022-07-18T15:57:07Z</time>
      </trkpt>
      <trkpt lat="44.40616" lon="7.11469">
        <ele>2120.4</ele>
        <time>2022-07-18T15:57:08Z</time>
      </trkpt>
      <trkpt lat="44.40618" lon="7.1147">
        <ele>2120.8</ele>
        <time>2022-07-18T15:57:09Z</time>
      </trkpt>
      <trkpt lat="44.40619" lon="7.11471">
        <ele>2121</ele>
        <time>2022-07-18T15:57:10Z</time>
      </trkpt>
      <trkpt lat="44.40621" lon="7.11472">
        <ele>2121</ele>
        <time>2022-07-18T15:57:11Z</time>
      </trkpt>
      <trkpt lat="44.40622" lon="7.11472">
        <ele>2121.2</ele>
        <time>2022-07-18T15:57:12Z</time>
      </trkpt>
      <trkpt lat="44.40624" lon="7.11472">
        <ele>2121.4</ele>
        <time>2022-07-18T15:57:13Z</time>
      </trkpt>
      <trkpt lat="44.40625" lon="7.11473">
        <ele>2121.4</ele>
        <time>2022-07-18T15:57:14Z</time>
      </trkpt>
      <trkpt lat="44.40627" lon="7.11474">
        <ele>2121.8</ele>
        <time>2022-07-18T15:57:15Z</time>
      </trkpt>
      <trkpt lat="44.40628" lon="7.11474">
        <ele>2121.8</ele>
        <time>2022-07-18T15:57:16Z</time>
      </trkpt>
      <trkpt lat="44.4063" lon="7.11474">
        <ele>2122.2</ele>
        <time>2022-07-18T15:57:17Z</time>
      </trkpt>
      <trkpt lat="44.40631" lon="7.11475">
        <ele>2122.2</ele>
        <time>2022-07-18T15:57:18Z</time>
      </trkpt>
      <trkpt lat="44.40633" lon="7.11476">
        <ele>2122.6</ele>
        <time>2022-07-18T15:57:19Z</time>
      </trkpt>
      <trkpt lat="44.40634" lon="7.11477">
        <ele>2122.6</ele>
        <time>2022-07-18T15:57:20Z</time>
      </trkpt>
      <trkpt lat="44.40636" lon="7.11478">
        <ele>2122.8</ele>
        <time>2022-07-18T15:57:21Z</time>
      </trkpt>
      <trkpt lat="44.40637" lon="7.1148">
        <ele>2122.8</ele>
        <time>2022-07-18T15:57:22Z</time>
      </trkpt>
      <trkpt lat="44.40638" lon="7.11482">
        <ele>2123.2</ele>
        <time>2022-07-18T15:57:23Z</time>
      </trkpt>
      <trkpt lat="44.40639" lon="7.11484">
        <ele>2123.2</ele>
        <time>2022-07-18T15:57:24Z</time>
      </trkpt>
      <trkpt lat="44.40641" lon="7.11486">
        <ele>2123.4</ele>
        <time>2022-07-18T15:57:25Z</time>
      </trkpt>
      <trkpt lat="44.40642" lon="7.11488">
        <ele>2123.4</ele>
        <time>2022-07-18T15:57:26Z</time>
      </trkpt>
      <trkpt lat="44.40643" lon="7.1149">
        <ele>2123.6</ele>
        <time>2022-07-18T15:57:27Z</time>
      </trkpt>
      <trkpt lat="44.40644" lon="7.11492">
        <ele>2123.6</ele>
        <time>2022-07-18T15:57:28Z</time>
      </trkpt>
      <trkpt lat="44.40645" lon="7.11494">
        <ele>2123.6</ele>
        <time>2022-07-18T15:57:29Z</time>
      </trkpt>
      <trkpt lat="44.40647" lon="7.11496">
        <ele>2124</ele>
        <time>2022-07-18T15:57:30Z</time>
      </trkpt>
      <trkpt lat="44.40648" lon="7.11498">
        <ele>2124</ele>
        <time>2022-07-18T15:57:31Z</time>
      </trkpt>
      <trkpt lat="44.4065" lon="7.11499">
        <ele>2124.2</ele>
        <time>2022-07-18T15:57:32Z</time>
      </trkpt>
      <trkpt lat="44.40651" lon="7.11501">
        <ele>2124.2</ele>
        <time>2022-07-18T15:57:33Z</time>
      </trkpt>
      <trkpt lat="44.40652" lon="7.11502">
        <ele>2124.4</ele>
        <time>2022-07-18T15:57:34Z</time>
      </trkpt>
      <trkpt lat="44.40654" lon="7.11504">
        <ele>2124.4</ele>
        <time>2022-07-18T15:57:35Z</time>
      </trkpt>
      <trkpt lat="44.40655" lon="7.11505">
        <ele>2124.8</ele>
        <time>2022-07-18T15:57:36Z</time>
      </trkpt>
      <trkpt lat="44.40657" lon="7.11506">
        <ele>2124.8</ele>
        <time>2022-07-18T15:57:37Z</time>
      </trkpt>
      <trkpt lat="44.40658" lon="7.11507">
        <ele>2124.8</ele>
        <time>2022-07-18T15:57:38Z</time>
      </trkpt>
      <trkpt lat="44.4066" lon="7.11508">
        <ele>2125</ele>
        <time>2022-07-18T15:57:40Z</time>
      </trkpt>
      <trkpt lat="44.40662" lon="7.11508">
        <ele>2125.2</ele>
        <time>2022-07-18T15:57:41Z</time>
      </trkpt>
      <trkpt lat="44.40664" lon="7.11508">
        <ele>2125.4</ele>
        <time>2022-07-18T15:57:42Z</time>
      </trkpt>
      <trkpt lat="44.40665" lon="7.11507">
        <ele>2125.4</ele>
        <time>2022-07-18T15:57:43Z</time>
      </trkpt>
      <trkpt lat="44.40667" lon="7.11506">
        <ele>2125.8</ele>
        <time>2022-07-18T15:57:44Z</time>
      </trkpt>
      <trkpt lat="44.40669" lon="7.11505">
        <ele>2125.8</ele>
        <time>2022-07-18T15:57:45Z</time>
      </trkpt>
      <trkpt lat="44.40671" lon="7.11504">
        <ele>2126</ele>
        <time>2022-07-18T15:57:46Z</time>
      </trkpt>
      <trkpt lat="44.40673" lon="7.11503">
        <ele>2126</ele>
        <time>2022-07-18T15:57:47Z</time>
      </trkpt>
      <trkpt lat="44.40675" lon="7.11503">
        <ele>2126</ele>
        <time>2022-07-18T15:57:48Z</time>
      </trkpt>
      <trkpt lat="44.40677" lon="7.11502">
        <ele>2126.2</ele>
        <time>2022-07-18T15:57:49Z</time>
      </trkpt>
      <trkpt lat="44.40679" lon="7.11502">
        <ele>2126.2</ele>
        <time>2022-07-18T15:57:50Z</time>
      </trkpt>
      <trkpt lat="44.4068" lon="7.11501">
        <ele>2126.6</ele>
        <time>2022-07-18T15:57:51Z</time>
      </trkpt>
      <trkpt lat="44.40682" lon="7.115">
        <ele>2126.6</ele>
        <time>2022-07-18T15:57:52Z</time>
      </trkpt>
      <trkpt lat="44.40684" lon="7.115">
        <ele>2126.8</ele>
        <time>2022-07-18T15:57:53Z</time>
      </trkpt>
      <trkpt lat="44.40686" lon="7.11499">
        <ele>2126.8</ele>
        <time>2022-07-18T15:57:54Z</time>
      </trkpt>
      <trkpt lat="44.40688" lon="7.11499">
        <ele>2127.2</ele>
        <time>2022-07-18T15:57:55Z</time>
      </trkpt>
      <trkpt lat="44.4069" lon="7.11499">
        <ele>2127.2</ele>
        <time>2022-07-18T15:57:56Z</time>
      </trkpt>
      <trkpt lat="44.40692" lon="7.11499">
        <ele>2127.2</ele>
        <time>2022-07-18T15:57:57Z</time>
      </trkpt>
      <trkpt lat="44.40694" lon="7.11499">
        <ele>2127.4</ele>
        <time>2022-07-18T15:57:58Z</time>
      </trkpt>
      <trkpt lat="44.40696" lon="7.11499">
        <ele>2127.4</ele>
        <time>2022-07-18T15:57:59Z</time>
      </trkpt>
      <trkpt lat="44.40698" lon="7.11499">
        <ele>2127.4</ele>
        <time>2022-07-18T15:58:00Z</time>
      </trkpt>
      <trkpt lat="44.407" lon="7.11499">
        <ele>2127.6</ele>
        <time>2022-07-18T15:58:01Z</time>
      </trkpt>
      <trkpt lat="44.40702" lon="7.11499">
        <ele>2127.6</ele>
        <time>2022-07-18T15:58:02Z</time>
      </trkpt>
      <trkpt lat="44.40704" lon="7.11499">
        <ele>2127.6</ele>
        <time>2022-07-18T15:58:03Z</time>
      </trkpt>
      <trkpt lat="44.40706" lon="7.11499">
        <ele>2127.6</ele>
        <time>2022-07-18T15:58:04Z</time>
      </trkpt>
      <trkpt lat="44.40709" lon="7.11499">
        <ele>2128</ele>
        <time>2022-07-18T15:58:05Z</time>
      </trkpt>
      <trkpt lat="44.40711" lon="7.11498">
        <ele>2128</ele>
        <time>2022-07-18T15:58:06Z</time>
      </trkpt>
      <trkpt lat="44.40713" lon="7.11499">
        <ele>2128</ele>
        <time>2022-07-18T15:58:07Z</time>
      </trkpt>
      <trkpt lat="44.40716" lon="7.11499">
        <ele>2128.2</ele>
        <time>2022-07-18T15:58:08Z</time>
      </trkpt>
      <trkpt lat="44.40719" lon="7.11499">
        <ele>2128.2</ele>
        <time>2022-07-18T15:58:09Z</time>
      </trkpt>
      <trkpt lat="44.40721" lon="7.11498">
        <ele>2128.2</ele>
        <time>2022-07-18T15:58:10Z</time>
      </trkpt>
      <trkpt lat="44.40723" lon="7.11497">
        <ele>2128.4</ele>
        <time>2022-07-18T15:58:11Z</time>
      </trkpt>
      <trkpt lat="44.40726" lon="7.11496">
        <ele>2128.4</ele>
        <time>2022-07-18T15:58:12Z</time>
      </trkpt>
      <trkpt lat="44.40729" lon="7.11495">
        <ele>2128.4</ele>
        <time>2022-07-18T15:58:13Z</time>
      </trkpt>
      <trkpt lat="44.40731" lon="7.11493">
        <ele>2128.6</ele>
        <time>2022-07-18T15:58:14Z</time>
      </trkpt>
      <trkpt lat="44.40733" lon="7.11491">
        <ele>2128.6</ele>
        <time>2022-07-18T15:58:15Z</time>
      </trkpt>
      <trkpt lat="44.40736" lon="7.11488">
        <ele>2128.8</ele>
        <time>2022-07-18T15:58:16Z</time>
      </trkpt>
      <trkpt lat="44.40738" lon="7.11486">
        <ele>2128.8</ele>
        <time>2022-07-18T15:58:17Z</time>
      </trkpt>
      <trkpt lat="44.40739" lon="7.11483">
        <ele>2129</ele>
        <time>2022-07-18T15:58:18Z</time>
      </trkpt>
      <trkpt lat="44.40741" lon="7.1148">
        <ele>2129.4</ele>
        <time>2022-07-18T15:58:19Z</time>
      </trkpt>
      <trkpt lat="44.40743" lon="7.11477">
        <ele>2129.4</ele>
        <time>2022-07-18T15:58:20Z</time>
      </trkpt>
      <trkpt lat="44.40744" lon="7.11475">
        <ele>2129.6</ele>
        <time>2022-07-18T15:58:21Z</time>
      </trkpt>
      <trkpt lat="44.40746" lon="7.11473">
        <ele>2129.6</ele>
        <time>2022-07-18T15:58:22Z</time>
      </trkpt>
      <trkpt lat="44.40748" lon="7.11472">
        <ele>2129.8</ele>
        <time>2022-07-18T15:58:23Z</time>
      </trkpt>
      <trkpt lat="44.4075" lon="7.11472">
        <ele>2129.8</ele>
        <time>2022-07-18T15:58:24Z</time>
      </trkpt>
      <trkpt lat="44.40752" lon="7.11472">
        <ele>2130</ele>
        <time>2022-07-18T15:58:25Z</time>
      </trkpt>
      <trkpt lat="44.40754" lon="7.11473">
        <ele>2130</ele>
        <time>2022-07-18T15:58:26Z</time>
      </trkpt>
      <trkpt lat="44.40756" lon="7.11475">
        <ele>2130.4</ele>
        <time>2022-07-18T15:58:27Z</time>
      </trkpt>
      <trkpt lat="44.40757" lon="7.11477">
        <ele>2130.4</ele>
        <time>2022-07-18T15:58:28Z</time>
      </trkpt>
      <trkpt lat="44.40758" lon="7.1148">
        <ele>2130.8</ele>
        <time>2022-07-18T15:58:29Z</time>
      </trkpt>
      <trkpt lat="44.40758" lon="7.11483">
        <ele>2131</ele>
        <time>2022-07-18T15:58:30Z</time>
      </trkpt>
      <trkpt lat="44.40757" lon="7.11485">
        <ele>2131.2</ele>
        <time>2022-07-18T15:58:31Z</time>
      </trkpt>
      <trkpt lat="44.40756" lon="7.11488">
        <ele>2131.2</ele>
        <time>2022-07-18T15:58:32Z</time>
      </trkpt>
      <trkpt lat="44.40755" lon="7.1149">
        <ele>2131.6</ele>
        <time>2022-07-18T15:58:33Z</time>
      </trkpt>
      <trkpt lat="44.40754" lon="7.11492">
        <ele>2131.6</ele>
        <time>2022-07-18T15:58:34Z</time>
      </trkpt>
      <trkpt lat="44.40752" lon="7.11494">
        <ele>2131.6</ele>
        <time>2022-07-18T15:58:35Z</time>
      </trkpt>
      <trkpt lat="44.40751" lon="7.11497">
        <ele>2132</ele>
        <time>2022-07-18T15:58:36Z</time>
      </trkpt>
      <trkpt lat="44.4075" lon="7.11499">
        <ele>2132</ele>
        <time>2022-07-18T15:58:37Z</time>
      </trkpt>
      <trkpt lat="44.40748" lon="7.11501">
        <ele>2132.2</ele>
        <time>2022-07-18T15:58:38Z</time>
      </trkpt>
      <trkpt lat="44.40747" lon="7.11503">
        <ele>2132.2</ele>
        <time>2022-07-18T15:58:39Z</time>
      </trkpt>
      <trkpt lat="44.40745" lon="7.11505">
        <ele>2132.6</ele>
        <time>2022-07-18T15:58:40Z</time>
      </trkpt>
      <trkpt lat="44.40744" lon="7.11507">
        <ele>2132.6</ele>
        <time>2022-07-18T15:58:41Z</time>
      </trkpt>
      <trkpt lat="44.40742" lon="7.11509">
        <ele>2132.8</ele>
        <time>2022-07-18T15:58:42Z</time>
      </trkpt>
      <trkpt lat="44.4074" lon="7.11511">
        <ele>2132.8</ele>
        <time>2022-07-18T15:58:43Z</time>
      </trkpt>
      <trkpt lat="44.40739" lon="7.11513">
        <ele>2133.2</ele>
        <time>2022-07-18T15:58:44Z</time>
      </trkpt>
      <trkpt lat="44.40737" lon="7.11516">
        <ele>2133.4</ele>
        <time>2022-07-18T15:58:45Z</time>
      </trkpt>
      <trkpt lat="44.40736" lon="7.11518">
        <ele>2133.6</ele>
        <time>2022-07-18T15:58:46Z</time>
      </trkpt>
      <trkpt lat="44.40735" lon="7.11521">
        <ele>2133.6</ele>
        <time>2022-07-18T15:58:47Z</time>
      </trkpt>
      <trkpt lat="44.40734" lon="7.11523">
        <ele>2134</ele>
        <time>2022-07-18T15:58:48Z</time>
      </trkpt>
      <trkpt lat="44.40733" lon="7.11526">
        <ele>2134</ele>
        <time>2022-07-18T15:58:49Z</time>
      </trkpt>
      <trkpt lat="44.40732" lon="7.11528">
        <ele>2134.2</ele>
        <time>2022-07-18T15:58:50Z</time>
      </trkpt>
      <trkpt lat="44.4073" lon="7.1153">
        <ele>2134.2</ele>
        <time>2022-07-18T15:58:51Z</time>
      </trkpt>
      <trkpt lat="44.40729" lon="7.11532">
        <ele>2134.6</ele>
        <time>2022-07-18T15:58:52Z</time>
      </trkpt>
      <trkpt lat="44.40727" lon="7.11534">
        <ele>2134.8</ele>
        <time>2022-07-18T15:58:53Z</time>
      </trkpt>
      <trkpt lat="44.40725" lon="7.11536">
        <ele>2135</ele>
        <time>2022-07-18T15:58:54Z</time>
      </trkpt>
      <trkpt lat="44.40724" lon="7.11538">
        <ele>2135</ele>
        <time>2022-07-18T15:58:55Z</time>
      </trkpt>
      <trkpt lat="44.40723" lon="7.1154">
        <ele>2135.4</ele>
        <time>2022-07-18T15:58:56Z</time>
      </trkpt>
      <trkpt lat="44.40721" lon="7.11542">
        <ele>2135.4</ele>
        <time>2022-07-18T15:58:57Z</time>
      </trkpt>
      <trkpt lat="44.40719" lon="7.11543">
        <ele>2135.8</ele>
        <time>2022-07-18T15:58:58Z</time>
      </trkpt>
      <trkpt lat="44.40718" lon="7.11545">
        <ele>2136</ele>
        <time>2022-07-18T15:58:59Z</time>
      </trkpt>
      <trkpt lat="44.40716" lon="7.11546">
        <ele>2136.2</ele>
        <time>2022-07-18T15:59:00Z</time>
      </trkpt>
      <trkpt lat="44.40714" lon="7.11547">
        <ele>2136.6</ele>
        <time>2022-07-18T15:59:01Z</time>
      </trkpt>
      <trkpt lat="44.40712" lon="7.11548">
        <ele>2136.8</ele>
        <time>2022-07-18T15:59:02Z</time>
      </trkpt>
      <trkpt lat="44.4071" lon="7.11549">
        <ele>2136.8</ele>
        <time>2022-07-18T15:59:03Z</time>
      </trkpt>
      <trkpt lat="44.40708" lon="7.11549">
        <ele>2137</ele>
        <time>2022-07-18T15:59:04Z</time>
      </trkpt>
      <trkpt lat="44.40706" lon="7.11549">
        <ele>2137.2</ele>
        <time>2022-07-18T15:59:05Z</time>
      </trkpt>
      <trkpt lat="44.40704" lon="7.11548">
        <ele>2137.2</ele>
        <time>2022-07-18T15:59:06Z</time>
      </trkpt>
      <trkpt lat="44.40702" lon="7.11548">
        <ele>2137.6</ele>
        <time>2022-07-18T15:59:07Z</time>
      </trkpt>
      <trkpt lat="44.40701" lon="7.11547">
        <ele>2137.6</ele>
        <time>2022-07-18T15:59:08Z</time>
      </trkpt>
      <trkpt lat="44.40699" lon="7.11546">
        <ele>2137.8</ele>
        <time>2022-07-18T15:59:09Z</time>
      </trkpt>
      <trkpt lat="44.40697" lon="7.11545">
        <ele>2138</ele>
        <time>2022-07-18T15:59:10Z</time>
      </trkpt>
      <trkpt lat="44.40695" lon="7.11545">
        <ele>2138.2</ele>
        <time>2022-07-18T15:59:11Z</time>
      </trkpt>
      <trkpt lat="44.40694" lon="7.11545">
        <ele>2138.2</ele>
        <time>2022-07-18T15:59:12Z</time>
      </trkpt>
      <trkpt lat="44.40692" lon="7.11545">
        <ele>2138.6</ele>
        <time>2022-07-18T15:59:13Z</time>
      </trkpt>
      <trkpt lat="44.4069" lon="7.11546">
        <ele>2138.6</ele>
        <time>2022-07-18T15:59:14Z</time>
      </trkpt>
      <trkpt lat="44.40688" lon="7.11547">
        <ele>2138.8</ele>
        <time>2022-07-18T15:59:15Z</time>
      </trkpt>
      <trkpt lat="44.40686" lon="7.11547">
        <ele>2138.8</ele>
        <time>2022-07-18T15:59:16Z</time>
      </trkpt>
      <trkpt lat="44.40685" lon="7.11548">
        <ele>2139</ele>
        <time>2022-07-18T15:59:17Z</time>
      </trkpt>
      <trkpt lat="44.40683" lon="7.11549">
        <ele>2139</ele>
        <time>2022-07-18T15:59:18Z</time>
      </trkpt>
      <trkpt lat="44.40681" lon="7.1155">
        <ele>2139.4</ele>
        <time>2022-07-18T15:59:19Z</time>
      </trkpt>
      <trkpt lat="44.4068" lon="7.1155">
        <ele>2139.4</ele>
        <time>2022-07-18T15:59:20Z</time>
      </trkpt>
      <trkpt lat="44.40678" lon="7.11552">
        <ele>2139.8</ele>
        <time>2022-07-18T15:59:21Z</time>
      </trkpt>
      <trkpt lat="44.40677" lon="7.11553">
        <ele>2140</ele>
        <time>2022-07-18T15:59:22Z</time>
      </trkpt>
      <trkpt lat="44.40675" lon="7.11553">
        <ele>2140</ele>
        <time>2022-07-18T15:59:23Z</time>
      </trkpt>
      <trkpt lat="44.40674" lon="7.11554">
        <ele>2140</ele>
        <time>2022-07-18T15:59:24Z</time>
      </trkpt>
      <trkpt lat="44.40672" lon="7.11556">
        <ele>2140.4</ele>
        <time>2022-07-18T15:59:25Z</time>
      </trkpt>
      <trkpt lat="44.40671" lon="7.11557">
        <ele>2140.4</ele>
        <time>2022-07-18T15:59:26Z</time>
      </trkpt>
      <trkpt lat="44.40669" lon="7.11558">
        <ele>2140.6</ele>
        <time>2022-07-18T15:59:27Z</time>
      </trkpt>
      <trkpt lat="44.40667" lon="7.11558">
        <ele>2140.6</ele>
        <time>2022-07-18T15:59:28Z</time>
      </trkpt>
      <trkpt lat="44.40666" lon="7.11559">
        <ele>2141</ele>
        <time>2022-07-18T15:59:29Z</time>
      </trkpt>
      <trkpt lat="44.40663" lon="7.1156">
        <ele>2141</ele>
        <time>2022-07-18T15:59:30Z</time>
      </trkpt>
      <trkpt lat="44.40661" lon="7.1156">
        <ele>2141</ele>
        <time>2022-07-18T15:59:31Z</time>
      </trkpt>
      <trkpt lat="44.4066" lon="7.1156">
        <ele>2141.2</ele>
        <time>2022-07-18T15:59:32Z</time>
      </trkpt>
      <trkpt lat="44.40658" lon="7.11561">
        <ele>2141.2</ele>
        <time>2022-07-18T15:59:33Z</time>
      </trkpt>
      <trkpt lat="44.40656" lon="7.11561">
        <ele>2141.6</ele>
        <time>2022-07-18T15:59:34Z</time>
      </trkpt>
      <trkpt lat="44.40654" lon="7.11563">
        <ele>2141.6</ele>
        <time>2022-07-18T15:59:35Z</time>
      </trkpt>
      <trkpt lat="44.40652" lon="7.11564">
        <ele>2141.8</ele>
        <time>2022-07-18T15:59:36Z</time>
      </trkpt>
      <trkpt lat="44.4065" lon="7.11564">
        <ele>2141.8</ele>
        <time>2022-07-18T15:59:37Z</time>
      </trkpt>
      <trkpt lat="44.40648" lon="7.11565">
        <ele>2142.2</ele>
        <time>2022-07-18T15:59:38Z</time>
      </trkpt>
      <trkpt lat="44.40646" lon="7.11566">
        <ele>2142.2</ele>
        <time>2022-07-18T15:59:39Z</time>
      </trkpt>
      <trkpt lat="44.40645" lon="7.11565">
        <ele>2142.4</ele>
        <time>2022-07-18T15:59:40Z</time>
      </trkpt>
      <trkpt lat="44.40643" lon="7.11565">
        <ele>2142.6</ele>
        <time>2022-07-18T15:59:41Z</time>
      </trkpt>
      <trkpt lat="44.40641" lon="7.11564">
        <ele>2142.6</ele>
        <time>2022-07-18T15:59:42Z</time>
      </trkpt>
      <trkpt lat="44.4064" lon="7.11564">
        <ele>2143</ele>
        <time>2022-07-18T15:59:43Z</time>
      </trkpt>
      <trkpt lat="44.40638" lon="7.11563">
        <ele>2143</ele>
        <time>2022-07-18T15:59:44Z</time>
      </trkpt>
      <trkpt lat="44.40637" lon="7.11561">
        <ele>2143.4</ele>
        <time>2022-07-18T15:59:45Z</time>
      </trkpt>
      <trkpt lat="44.40635" lon="7.1156">
        <ele>2143.4</ele>
        <time>2022-07-18T15:59:46Z</time>
      </trkpt>
      <trkpt lat="44.40634" lon="7.11559">
        <ele>2143.6</ele>
        <time>2022-07-18T15:59:47Z</time>
      </trkpt>
      <trkpt lat="44.40633" lon="7.11557">
        <ele>2143.6</ele>
        <time>2022-07-18T15:59:48Z</time>
      </trkpt>
      <trkpt lat="44.40631" lon="7.11556">
        <ele>2143.8</ele>
        <time>2022-07-18T15:59:49Z</time>
      </trkpt>
      <trkpt lat="44.4063" lon="7.11555">
        <ele>2143.8</ele>
        <time>2022-07-18T15:59:50Z</time>
      </trkpt>
      <trkpt lat="44.40629" lon="7.11555">
        <ele>2144.2</ele>
        <time>2022-07-18T15:59:51Z</time>
      </trkpt>
      <trkpt lat="44.40627" lon="7.11554">
        <ele>2144.2</ele>
        <time>2022-07-18T15:59:52Z</time>
      </trkpt>
      <trkpt lat="44.40625" lon="7.11554">
        <ele>2144.4</ele>
        <time>2022-07-18T15:59:53Z</time>
      </trkpt>
      <trkpt lat="44.40623" lon="7.11554">
        <ele>2144.8</ele>
        <time>2022-07-18T15:59:54Z</time>
      </trkpt>
      <trkpt lat="44.40621" lon="7.11554">
        <ele>2144.8</ele>
        <time>2022-07-18T15:59:55Z</time>
      </trkpt>
      <trkpt lat="44.40619" lon="7.11554">
        <ele>2145.2</ele>
        <time>2022-07-18T15:59:56Z</time>
      </trkpt>
      <trkpt lat="44.40617" lon="7.11553">
        <ele>2145.2</ele>
        <time>2022-07-18T15:59:57Z</time>
      </trkpt>
      <trkpt lat="44.40616" lon="7.11553">
        <ele>2145.2</ele>
        <time>2022-07-18T15:59:58Z</time>
      </trkpt>
      <trkpt lat="44.40614" lon="7.11552">
        <ele>2145.4</ele>
        <time>2022-07-18T15:59:59Z</time>
      </trkpt>
      <trkpt lat="44.40612" lon="7.11552">
        <ele>2145.4</ele>
        <time>2022-07-18T16:00:00Z</time>
      </trkpt>
      <trkpt lat="44.40611" lon="7.11552">
        <ele>2145.8</ele>
        <time>2022-07-18T16:00:01Z</time>
      </trkpt>
      <trkpt lat="44.40609" lon="7.11552">
        <ele>2145.8</ele>
        <time>2022-07-18T16:00:02Z</time>
      </trkpt>
      <trkpt lat="44.40607" lon="7.11552">
        <ele>2146</ele>
        <time>2022-07-18T16:00:03Z</time>
      </trkpt>
      <trkpt lat="44.40605" lon="7.11552">
        <ele>2146</ele>
        <time>2022-07-18T16:00:04Z</time>
      </trkpt>
      <trkpt lat="44.40604" lon="7.11552">
        <ele>2146.4</ele>
        <time>2022-07-18T16:00:05Z</time>
      </trkpt>
      <trkpt lat="44.40602" lon="7.11551">
        <ele>2146.4</ele>
        <time>2022-07-18T16:00:06Z</time>
      </trkpt>
      <trkpt lat="44.40601" lon="7.11551">
        <ele>2146.6</ele>
        <time>2022-07-18T16:00:07Z</time>
      </trkpt>
      <trkpt lat="44.406" lon="7.11551">
        <ele>2146.6</ele>
        <time>2022-07-18T16:00:08Z</time>
      </trkpt>
      <trkpt lat="44.40598" lon="7.1155">
        <ele>2147</ele>
        <time>2022-07-18T16:00:09Z</time>
      </trkpt>
      <trkpt lat="44.40596" lon="7.1155">
        <ele>2147</ele>
        <time>2022-07-18T16:00:10Z</time>
      </trkpt>
      <trkpt lat="44.40595" lon="7.11549">
        <ele>2147.4</ele>
        <time>2022-07-18T16:00:11Z</time>
      </trkpt>
      <trkpt lat="44.40593" lon="7.11549">
        <ele>2147.4</ele>
        <time>2022-07-18T16:00:12Z</time>
      </trkpt>
      <trkpt lat="44.40592" lon="7.11548">
        <ele>2147.6</ele>
        <time>2022-07-18T16:00:13Z</time>
      </trkpt>
      <trkpt lat="44.40591" lon="7.11547">
        <ele>2147.6</ele>
        <time>2022-07-18T16:00:14Z</time>
      </trkpt>
      <trkpt lat="44.40589" lon="7.11546">
        <ele>2147.6</ele>
        <time>2022-07-18T16:00:15Z</time>
      </trkpt>
      <trkpt lat="44.40588" lon="7.11545">
        <ele>2147.8</ele>
        <time>2022-07-18T16:00:16Z</time>
      </trkpt>
      <trkpt lat="44.40586" lon="7.11544">
        <ele>2147.8</ele>
        <time>2022-07-18T16:00:17Z</time>
      </trkpt>
      <trkpt lat="44.40585" lon="7.11543">
        <ele>2148.2</ele>
        <time>2022-07-18T16:00:18Z</time>
      </trkpt>
      <trkpt lat="44.40583" lon="7.11542">
        <ele>2148.2</ele>
        <time>2022-07-18T16:00:19Z</time>
      </trkpt>
      <trkpt lat="44.40582" lon="7.11541">
        <ele>2148.4</ele>
        <time>2022-07-18T16:00:20Z</time>
      </trkpt>
      <trkpt lat="44.4058" lon="7.1154">
        <ele>2148.4</ele>
        <time>2022-07-18T16:00:21Z</time>
      </trkpt>
      <trkpt lat="44.40579" lon="7.1154">
        <ele>2148.6</ele>
        <time>2022-07-18T16:00:22Z</time>
      </trkpt>
      <trkpt lat="44.40577" lon="7.11539">
        <ele>2148.8</ele>
        <time>2022-07-18T16:00:23Z</time>
      </trkpt>
      <trkpt lat="44.40575" lon="7.11538">
        <ele>2149</ele>
        <time>2022-07-18T16:00:24Z</time>
      </trkpt>
      <trkpt lat="44.40574" lon="7.11538">
        <ele>2149</ele>
        <time>2022-07-18T16:00:25Z</time>
      </trkpt>
      <trkpt lat="44.40572" lon="7.11537">
        <ele>2149.4</ele>
        <time>2022-07-18T16:00:26Z</time>
      </trkpt>
      <trkpt lat="44.4057" lon="7.11537">
        <ele>2149.4</ele>
        <time>2022-07-18T16:00:27Z</time>
      </trkpt>
      <trkpt lat="44.40569" lon="7.11536">
        <ele>2149.8</ele>
        <time>2022-07-18T16:00:28Z</time>
      </trkpt>
      <trkpt lat="44.40567" lon="7.11535">
        <ele>2149.8</ele>
        <time>2022-07-18T16:00:29Z</time>
      </trkpt>
      <trkpt lat="44.40566" lon="7.11534">
        <ele>2150.2</ele>
        <time>2022-07-18T16:00:30Z</time>
      </trkpt>
      <trkpt lat="44.40564" lon="7.11533">
        <ele>2150.2</ele>
        <time>2022-07-18T16:00:31Z</time>
      </trkpt>
      <trkpt lat="44.40562" lon="7.11532">
        <ele>2150.4</ele>
        <time>2022-07-18T16:00:32Z</time>
      </trkpt>
      <trkpt lat="44.40561" lon="7.11531">
        <ele>2150.6</ele>
        <time>2022-07-18T16:00:33Z</time>
      </trkpt>
      <trkpt lat="44.40559" lon="7.11531">
        <ele>2150.6</ele>
        <time>2022-07-18T16:00:34Z</time>
      </trkpt>
      <trkpt lat="44.40557" lon="7.1153">
        <ele>2151</ele>
        <time>2022-07-18T16:00:35Z</time>
      </trkpt>
      <trkpt lat="44.40555" lon="7.11529">
        <ele>2151.2</ele>
        <time>2022-07-18T16:00:36Z</time>
      </trkpt>
      <trkpt lat="44.40553" lon="7.11528">
        <ele>2151.4</ele>
        <time>2022-07-18T16:00:37Z</time>
      </trkpt>
      <trkpt lat="44.40552" lon="7.11527">
        <ele>2151.4</ele>
        <time>2022-07-18T16:00:38Z</time>
      </trkpt>
      <trkpt lat="44.4055" lon="7.11526">
        <ele>2151.6</ele>
        <time>2022-07-18T16:00:39Z</time>
      </trkpt>
      <trkpt lat="44.40549" lon="7.11525">
        <ele>2151.6</ele>
        <time>2022-07-18T16:00:40Z</time>
      </trkpt>
      <trkpt lat="44.40547" lon="7.11524">
        <ele>2152</ele>
        <time>2022-07-18T16:00:41Z</time>
      </trkpt>
      <trkpt lat="44.40546" lon="7.11523">
        <ele>2152</ele>
        <time>2022-07-18T16:00:42Z</time>
      </trkpt>
      <trkpt lat="44.40544" lon="7.11523">
        <ele>2152.4</ele>
        <time>2022-07-18T16:00:43Z</time>
      </trkpt>
      <trkpt lat="44.40542" lon="7.11523">
        <ele>2152.6</ele>
        <time>2022-07-18T16:00:44Z</time>
      </trkpt>
      <trkpt lat="44.4054" lon="7.11523">
        <ele>2152.6</ele>
        <time>2022-07-18T16:00:45Z</time>
      </trkpt>
      <trkpt lat="44.40539" lon="7.11524">
        <ele>2153</ele>
        <time>2022-07-18T16:00:46Z</time>
      </trkpt>
      <trkpt lat="44.40538" lon="7.11525">
        <ele>2153.2</ele>
        <time>2022-07-18T16:00:47Z</time>
      </trkpt>
      <trkpt lat="44.40536" lon="7.11526">
        <ele>2153.2</ele>
        <time>2022-07-18T16:00:48Z</time>
      </trkpt>
      <trkpt lat="44.40534" lon="7.11527">
        <ele>2153.4</ele>
        <time>2022-07-18T16:00:49Z</time>
      </trkpt>
      <trkpt lat="44.40532" lon="7.11528">
        <ele>2153.4</ele>
        <time>2022-07-18T16:00:50Z</time>
      </trkpt>
      <trkpt lat="44.40529" lon="7.11529">
        <ele>2153.8</ele>
        <time>2022-07-18T16:00:51Z</time>
      </trkpt>
      <trkpt lat="44.40528" lon="7.1153">
        <ele>2153.8</ele>
        <time>2022-07-18T16:00:52Z</time>
      </trkpt>
      <trkpt lat="44.40526" lon="7.11531">
        <ele>2154</ele>
        <time>2022-07-18T16:00:53Z</time>
      </trkpt>
      <trkpt lat="44.40524" lon="7.11532">
        <ele>2154.4</ele>
        <time>2022-07-18T16:00:54Z</time>
      </trkpt>
      <trkpt lat="44.40523" lon="7.11533">
        <ele>2154.4</ele>
        <time>2022-07-18T16:00:55Z</time>
      </trkpt>
      <trkpt lat="44.40521" lon="7.11534">
        <ele>2154.6</ele>
        <time>2022-07-18T16:00:56Z</time>
      </trkpt>
      <trkpt lat="44.4052" lon="7.11535">
        <ele>2154.8</ele>
        <time>2022-07-18T16:00:57Z</time>
      </trkpt>
      <trkpt lat="44.40518" lon="7.11536">
        <ele>2154.8</ele>
        <time>2022-07-18T16:00:58Z</time>
      </trkpt>
      <trkpt lat="44.40516" lon="7.11536">
        <ele>2155</ele>
        <time>2022-07-18T16:00:59Z</time>
      </trkpt>
      <trkpt lat="44.40515" lon="7.11536">
        <ele>2155</ele>
        <time>2022-07-18T16:01:00Z</time>
      </trkpt>
      <trkpt lat="44.40513" lon="7.11537">
        <ele>2155.4</ele>
        <time>2022-07-18T16:01:01Z</time>
      </trkpt>
      <trkpt lat="44.40512" lon="7.11537">
        <ele>2155.4</ele>
        <time>2022-07-18T16:01:02Z</time>
      </trkpt>
      <trkpt lat="44.4051" lon="7.11538">
        <ele>2155.8</ele>
        <time>2022-07-18T16:01:03Z</time>
      </trkpt>
      <trkpt lat="44.40508" lon="7.11539">
        <ele>2155.8</ele>
        <time>2022-07-18T16:01:04Z</time>
      </trkpt>
      <trkpt lat="44.40507" lon="7.1154">
        <ele>2156.2</ele>
        <time>2022-07-18T16:01:05Z</time>
      </trkpt>
      <trkpt lat="44.40505" lon="7.11541">
        <ele>2156.2</ele>
        <time>2022-07-18T16:01:06Z</time>
      </trkpt>
      <trkpt lat="44.40504" lon="7.11542">
        <ele>2156.4</ele>
        <time>2022-07-18T16:01:07Z</time>
      </trkpt>
      <trkpt lat="44.40502" lon="7.11543">
        <ele>2156.4</ele>
        <time>2022-07-18T16:01:08Z</time>
      </trkpt>
      <trkpt lat="44.405" lon="7.11544">
        <ele>2156.8</ele>
        <time>2022-07-18T16:01:09Z</time>
      </trkpt>
      <trkpt lat="44.40499" lon="7.11545">
        <ele>2156.8</ele>
        <time>2022-07-18T16:01:10Z</time>
      </trkpt>
      <trkpt lat="44.40497" lon="7.11547">
        <ele>2157</ele>
        <time>2022-07-18T16:01:11Z</time>
      </trkpt>
      <trkpt lat="44.40495" lon="7.11548">
        <ele>2157</ele>
        <time>2022-07-18T16:01:12Z</time>
      </trkpt>
      <trkpt lat="44.40494" lon="7.11549">
        <ele>2157.4</ele>
        <time>2022-07-18T16:01:13Z</time>
      </trkpt>
      <trkpt lat="44.40492" lon="7.1155">
        <ele>2157.4</ele>
        <time>2022-07-18T16:01:14Z</time>
      </trkpt>
      <trkpt lat="44.4049" lon="7.11551">
        <ele>2157.6</ele>
        <time>2022-07-18T16:01:15Z</time>
      </trkpt>
      <trkpt lat="44.40488" lon="7.11552">
        <ele>2157.6</ele>
        <time>2022-07-18T16:01:16Z</time>
      </trkpt>
      <trkpt lat="44.40487" lon="7.11552">
        <ele>2158</ele>
        <time>2022-07-18T16:01:17Z</time>
      </trkpt>
      <trkpt lat="44.40485" lon="7.11552">
        <ele>2158</ele>
        <time>2022-07-18T16:01:18Z</time>
      </trkpt>
      <trkpt lat="44.40483" lon="7.11552">
        <ele>2158.4</ele>
        <time>2022-07-18T16:01:19Z</time>
      </trkpt>
      <trkpt lat="44.40482" lon="7.11552">
        <ele>2158.6</ele>
        <time>2022-07-18T16:01:20Z</time>
      </trkpt>
      <trkpt lat="44.4048" lon="7.11551">
        <ele>2158.6</ele>
        <time>2022-07-18T16:01:21Z</time>
      </trkpt>
      <trkpt lat="44.40478" lon="7.11551">
        <ele>2159</ele>
        <time>2022-07-18T16:01:22Z</time>
      </trkpt>
      <trkpt lat="44.40476" lon="7.11551">
        <ele>2159</ele>
        <time>2022-07-18T16:01:23Z</time>
      </trkpt>
      <trkpt lat="44.40474" lon="7.11552">
        <ele>2159.2</ele>
        <time>2022-07-18T16:01:24Z</time>
      </trkpt>
      <trkpt lat="44.40472" lon="7.11552">
        <ele>2159.2</ele>
        <time>2022-07-18T16:01:25Z</time>
      </trkpt>
      <trkpt lat="44.4047" lon="7.11553">
        <ele>2159.6</ele>
        <time>2022-07-18T16:01:26Z</time>
      </trkpt>
      <trkpt lat="44.40469" lon="7.11553">
        <ele>2159.6</ele>
        <time>2022-07-18T16:01:27Z</time>
      </trkpt>
      <trkpt lat="44.40467" lon="7.11554">
        <ele>2160</ele>
        <time>2022-07-18T16:01:28Z</time>
      </trkpt>
      <trkpt lat="44.40465" lon="7.11554">
        <ele>2160</ele>
        <time>2022-07-18T16:01:29Z</time>
      </trkpt>
      <trkpt lat="44.40464" lon="7.11554">
        <ele>2160.2</ele>
        <time>2022-07-18T16:01:30Z</time>
      </trkpt>
      <trkpt lat="44.40462" lon="7.11554">
        <ele>2160.2</ele>
        <time>2022-07-18T16:01:31Z</time>
      </trkpt>
      <trkpt lat="44.4046" lon="7.11554">
        <ele>2160.6</ele>
        <time>2022-07-18T16:01:32Z</time>
      </trkpt>
      <trkpt lat="44.40458" lon="7.11554">
        <ele>2160.8</ele>
        <time>2022-07-18T16:01:33Z</time>
      </trkpt>
      <trkpt lat="44.40457" lon="7.11555">
        <ele>2160.8</ele>
        <time>2022-07-18T16:01:34Z</time>
      </trkpt>
      <trkpt lat="44.40455" lon="7.11555">
        <ele>2161.2</ele>
        <time>2022-07-18T16:01:35Z</time>
      </trkpt>
      <trkpt lat="44.40454" lon="7.11555">
        <ele>2161.2</ele>
        <time>2022-07-18T16:01:36Z</time>
      </trkpt>
      <trkpt lat="44.40452" lon="7.11556">
        <ele>2161.4</ele>
        <time>2022-07-18T16:01:37Z</time>
      </trkpt>
      <trkpt lat="44.40451" lon="7.11558">
        <ele>2161.6</ele>
        <time>2022-07-18T16:01:38Z</time>
      </trkpt>
      <trkpt lat="44.40449" lon="7.11559">
        <ele>2161.6</ele>
        <time>2022-07-18T16:01:39Z</time>
      </trkpt>
      <trkpt lat="44.40448" lon="7.1156">
        <ele>2162</ele>
        <time>2022-07-18T16:01:40Z</time>
      </trkpt>
      <trkpt lat="44.40447" lon="7.11561">
        <ele>2162.2</ele>
        <time>2022-07-18T16:01:41Z</time>
      </trkpt>
      <trkpt lat="44.40445" lon="7.11562">
        <ele>2162.2</ele>
        <time>2022-07-18T16:01:42Z</time>
      </trkpt>
      <trkpt lat="44.40444" lon="7.11562">
        <ele>2162.6</ele>
        <time>2022-07-18T16:01:43Z</time>
      </trkpt>
      <trkpt lat="44.40442" lon="7.11562">
        <ele>2162.6</ele>
        <time>2022-07-18T16:01:44Z</time>
      </trkpt>
      <trkpt lat="44.40441" lon="7.11563">
        <ele>2162.8</ele>
        <time>2022-07-18T16:01:45Z</time>
      </trkpt>
      <trkpt lat="44.4044" lon="7.11564">
        <ele>2163</ele>
        <time>2022-07-18T16:01:46Z</time>
      </trkpt>
      <trkpt lat="44.40439" lon="7.11565">
        <ele>2163</ele>
        <time>2022-07-18T16:01:47Z</time>
      </trkpt>
      <trkpt lat="44.40437" lon="7.11566">
        <ele>2163.4</ele>
        <time>2022-07-18T16:01:48Z</time>
      </trkpt>
      <trkpt lat="44.40436" lon="7.11567">
        <ele>2163.4</ele>
        <time>2022-07-18T16:01:49Z</time>
      </trkpt>
      <trkpt lat="44.40435" lon="7.11568">
        <ele>2163.6</ele>
        <time>2022-07-18T16:01:50Z</time>
      </trkpt>
      <trkpt lat="44.40433" lon="7.1157">
        <ele>2163.6</ele>
        <time>2022-07-18T16:01:51Z</time>
      </trkpt>
      <trkpt lat="44.40432" lon="7.11571">
        <ele>2163.8</ele>
        <time>2022-07-18T16:01:52Z</time>
      </trkpt>
      <trkpt lat="44.40431" lon="7.11571">
        <ele>2163.8</ele>
        <time>2022-07-18T16:01:53Z</time>
      </trkpt>
      <trkpt lat="44.40429" lon="7.11571">
        <ele>2164.2</ele>
        <time>2022-07-18T16:01:54Z</time>
      </trkpt>
      <trkpt lat="44.40428" lon="7.11571">
        <ele>2164.4</ele>
        <time>2022-07-18T16:01:55Z</time>
      </trkpt>
      <trkpt lat="44.40426" lon="7.11571">
        <ele>2164.4</ele>
        <time>2022-07-18T16:01:56Z</time>
      </trkpt>
      <trkpt lat="44.40424" lon="7.11572">
        <ele>2164.8</ele>
        <time>2022-07-18T16:01:57Z</time>
      </trkpt>
      <trkpt lat="44.40423" lon="7.11573">
        <ele>2164.8</ele>
        <time>2022-07-18T16:01:58Z</time>
      </trkpt>
      <trkpt lat="44.40421" lon="7.11574">
        <ele>2165.2</ele>
        <time>2022-07-18T16:01:59Z</time>
      </trkpt>
      <trkpt lat="44.40419" lon="7.11574">
        <ele>2165.2</ele>
        <time>2022-07-18T16:02:00Z</time>
      </trkpt>
      <trkpt lat="44.40417" lon="7.11575">
        <ele>2165.6</ele>
        <time>2022-07-18T16:02:01Z</time>
      </trkpt>
      <trkpt lat="44.40416" lon="7.11576">
        <ele>2165.6</ele>
        <time>2022-07-18T16:02:02Z</time>
      </trkpt>
      <trkpt lat="44.40414" lon="7.11577">
        <ele>2166</ele>
        <time>2022-07-18T16:02:03Z</time>
      </trkpt>
      <trkpt lat="44.40412" lon="7.11578">
        <ele>2166</ele>
        <time>2022-07-18T16:02:04Z</time>
      </trkpt>
      <trkpt lat="44.4041" lon="7.11579">
        <ele>2166.4</ele>
        <time>2022-07-18T16:02:05Z</time>
      </trkpt>
      <trkpt lat="44.40409" lon="7.1158">
        <ele>2166.4</ele>
        <time>2022-07-18T16:02:06Z</time>
      </trkpt>
      <trkpt lat="44.40407" lon="7.11581">
        <ele>2166.6</ele>
        <time>2022-07-18T16:02:07Z</time>
      </trkpt>
      <trkpt lat="44.40405" lon="7.11581">
        <ele>2166.6</ele>
        <time>2022-07-18T16:02:08Z</time>
      </trkpt>
      <trkpt lat="44.40403" lon="7.11582">
        <ele>2167</ele>
        <time>2022-07-18T16:02:09Z</time>
      </trkpt>
      <trkpt lat="44.40401" lon="7.11583">
        <ele>2167</ele>
        <time>2022-07-18T16:02:10Z</time>
      </trkpt>
      <trkpt lat="44.40399" lon="7.11585">
        <ele>2167.2</ele>
        <time>2022-07-18T16:02:11Z</time>
      </trkpt>
      <trkpt lat="44.40397" lon="7.11586">
        <ele>2167.2</ele>
        <time>2022-07-18T16:02:12Z</time>
      </trkpt>
      <trkpt lat="44.40396" lon="7.11587">
        <ele>2167.6</ele>
        <time>2022-07-18T16:02:13Z</time>
      </trkpt>
      <trkpt lat="44.40394" lon="7.11588">
        <ele>2167.6</ele>
        <time>2022-07-18T16:02:14Z</time>
      </trkpt>
      <trkpt lat="44.40392" lon="7.1159">
        <ele>2168</ele>
        <time>2022-07-18T16:02:15Z</time>
      </trkpt>
      <trkpt lat="44.40391" lon="7.11591">
        <ele>2168.2</ele>
        <time>2022-07-18T16:02:16Z</time>
      </trkpt>
      <trkpt lat="44.40389" lon="7.11593">
        <ele>2168.2</ele>
        <time>2022-07-18T16:02:17Z</time>
      </trkpt>
      <trkpt lat="44.40388" lon="7.11594">
        <ele>2168.6</ele>
        <time>2022-07-18T16:02:18Z</time>
      </trkpt>
      <trkpt lat="44.40386" lon="7.11596">
        <ele>2168.6</ele>
        <time>2022-07-18T16:02:19Z</time>
      </trkpt>
      <trkpt lat="44.40385" lon="7.11597">
        <ele>2168.8</ele>
        <time>2022-07-18T16:02:20Z</time>
      </trkpt>
      <trkpt lat="44.40384" lon="7.11599">
        <ele>2168.8</ele>
        <time>2022-07-18T16:02:21Z</time>
      </trkpt>
      <trkpt lat="44.40382" lon="7.11601">
        <ele>2169.2</ele>
        <time>2022-07-18T16:02:22Z</time>
      </trkpt>
      <trkpt lat="44.40381" lon="7.11602">
        <ele>2169.2</ele>
        <time>2022-07-18T16:02:23Z</time>
      </trkpt>
      <trkpt lat="44.4038" lon="7.11605">
        <ele>2169.4</ele>
        <time>2022-07-18T16:02:24Z</time>
      </trkpt>
      <trkpt lat="44.40379" lon="7.11607">
        <ele>2169.4</ele>
        <time>2022-07-18T16:02:25Z</time>
      </trkpt>
      <trkpt lat="44.40378" lon="7.11609">
        <ele>2169.8</ele>
        <time>2022-07-18T16:02:26Z</time>
      </trkpt>
      <trkpt lat="44.40377" lon="7.11611">
        <ele>2169.8</ele>
        <time>2022-07-18T16:02:27Z</time>
      </trkpt>
      <trkpt lat="44.40376" lon="7.11613">
        <ele>2170</ele>
        <time>2022-07-18T16:02:28Z</time>
      </trkpt>
      <trkpt lat="44.40375" lon="7.11615">
        <ele>2170</ele>
        <time>2022-07-18T16:02:29Z</time>
      </trkpt>
      <trkpt lat="44.40374" lon="7.11618">
        <ele>2170.4</ele>
        <time>2022-07-18T16:02:30Z</time>
      </trkpt>
      <trkpt lat="44.40373" lon="7.1162">
        <ele>2170.6</ele>
        <time>2022-07-18T16:02:31Z</time>
      </trkpt>
      <trkpt lat="44.40372" lon="7.11622">
        <ele>2170.8</ele>
        <time>2022-07-18T16:02:32Z</time>
      </trkpt>
      <trkpt lat="44.40371" lon="7.11624">
        <ele>2171</ele>
        <time>2022-07-18T16:02:33Z</time>
      </trkpt>
      <trkpt lat="44.4037" lon="7.11626">
        <ele>2171</ele>
        <time>2022-07-18T16:02:34Z</time>
      </trkpt>
      <trkpt lat="44.40368" lon="7.11628">
        <ele>2171.4</ele>
        <time>2022-07-18T16:02:35Z</time>
      </trkpt>
      <trkpt lat="44.40367" lon="7.1163">
        <ele>2171.4</ele>
        <time>2022-07-18T16:02:36Z</time>
      </trkpt>
      <trkpt lat="44.40365" lon="7.11632">
        <ele>2171.6</ele>
        <time>2022-07-18T16:02:37Z</time>
      </trkpt>
      <trkpt lat="44.40364" lon="7.11633">
        <ele>2171.8</ele>
        <time>2022-07-18T16:02:38Z</time>
      </trkpt>
      <trkpt lat="44.40362" lon="7.11635">
        <ele>2172</ele>
        <time>2022-07-18T16:02:39Z</time>
      </trkpt>
      <trkpt lat="44.40361" lon="7.11637">
        <ele>2172</ele>
        <time>2022-07-18T16:02:40Z</time>
      </trkpt>
      <trkpt lat="44.4036" lon="7.11639">
        <ele>2172.4</ele>
        <time>2022-07-18T16:02:41Z</time>
      </trkpt>
      <trkpt lat="44.40358" lon="7.11641">
        <ele>2172.4</ele>
        <time>2022-07-18T16:02:42Z</time>
      </trkpt>
      <trkpt lat="44.40357" lon="7.11643">
        <ele>2172.6</ele>
        <time>2022-07-18T16:02:43Z</time>
      </trkpt>
      <trkpt lat="44.40356" lon="7.11645">
        <ele>2172.6</ele>
        <time>2022-07-18T16:02:44Z</time>
      </trkpt>
      <trkpt lat="44.40355" lon="7.11647">
        <ele>2173</ele>
        <time>2022-07-18T16:02:45Z</time>
      </trkpt>
      <trkpt lat="44.40353" lon="7.11649">
        <ele>2173</ele>
        <time>2022-07-18T16:02:46Z</time>
      </trkpt>
      <trkpt lat="44.40352" lon="7.1165">
        <ele>2173.2</ele>
        <time>2022-07-18T16:02:47Z</time>
      </trkpt>
      <trkpt lat="44.40351" lon="7.11652">
        <ele>2173.2</ele>
        <time>2022-07-18T16:02:48Z</time>
      </trkpt>
      <trkpt lat="44.4035" lon="7.11654">
        <ele>2173.6</ele>
        <time>2022-07-18T16:02:49Z</time>
      </trkpt>
      <trkpt lat="44.40349" lon="7.11656">
        <ele>2173.6</ele>
        <time>2022-07-18T16:02:50Z</time>
      </trkpt>
      <trkpt lat="44.40348" lon="7.11658">
        <ele>2174</ele>
        <time>2022-07-18T16:02:51Z</time>
      </trkpt>
      <trkpt lat="44.40347" lon="7.1166">
        <ele>2174</ele>
        <time>2022-07-18T16:02:52Z</time>
      </trkpt>
      <trkpt lat="44.40346" lon="7.11662">
        <ele>2174.2</ele>
        <time>2022-07-18T16:02:53Z</time>
      </trkpt>
      <trkpt lat="44.40345" lon="7.11664">
        <ele>2174.2</ele>
        <time>2022-07-18T16:02:54Z</time>
      </trkpt>
      <trkpt lat="44.40343" lon="7.11666">
        <ele>2174.6</ele>
        <time>2022-07-18T16:02:55Z</time>
      </trkpt>
      <trkpt lat="44.40342" lon="7.11668">
        <ele>2174.6</ele>
        <time>2022-07-18T16:02:56Z</time>
      </trkpt>
      <trkpt lat="44.40341" lon="7.1167">
        <ele>2175</ele>
        <time>2022-07-18T16:02:57Z</time>
      </trkpt>
      <trkpt lat="44.4034" lon="7.11672">
        <ele>2175.2</ele>
        <time>2022-07-18T16:02:58Z</time>
      </trkpt>
      <trkpt lat="44.40339" lon="7.11674">
        <ele>2175.4</ele>
        <time>2022-07-18T16:02:59Z</time>
      </trkpt>
      <trkpt lat="44.40339" lon="7.11676">
        <ele>2175.4</ele>
        <time>2022-07-18T16:03:00Z</time>
      </trkpt>
      <trkpt lat="44.40339" lon="7.11677">
        <ele>2175.8</ele>
        <time>2022-07-18T16:03:01Z</time>
      </trkpt>
      <trkpt lat="44.40339" lon="7.11676">
        <ele>2175.8</ele>
        <time>2022-07-18T16:03:02Z</time>
      </trkpt>
      <trkpt lat="44.40339" lon="7.11676">
        <ele>2176</ele>
        <time>2022-07-18T16:03:06Z</time>
      </trkpt>
      <trkpt lat="44.40339" lon="7.11676">
        <ele>2176</ele>
        <time>2022-07-18T16:03:12Z</time>
      </trkpt>
      <trkpt lat="44.40339" lon="7.11676">
        <ele>2176</ele>
        <time>2022-07-18T16:03:16Z</time>
      </trkpt>
      <trkpt lat="44.40338" lon="7.1168">
        <ele>2176</ele>
        <time>2022-07-18T16:03:17Z</time>
      </trkpt>
      <trkpt lat="44.40338" lon="7.11681">
        <ele>2176.2</ele>
        <time>2022-07-18T16:03:18Z</time>
      </trkpt>
      <trkpt lat="44.40337" lon="7.11683">
        <ele>2176.2</ele>
        <time>2022-07-18T16:03:19Z</time>
      </trkpt>
      <trkpt lat="44.40337" lon="7.11684">
        <ele>2176.4</ele>
        <time>2022-07-18T16:03:20Z</time>
      </trkpt>
      <trkpt lat="44.40336" lon="7.11685">
        <ele>2176.4</ele>
        <time>2022-07-18T16:03:21Z</time>
      </trkpt>
      <trkpt lat="44.40336" lon="7.11687">
        <ele>2176.4</ele>
        <time>2022-07-18T16:03:22Z</time>
      </trkpt>
      <trkpt lat="44.40336" lon="7.11688">
        <ele>2176.4</ele>
        <time>2022-07-18T16:03:23Z</time>
      </trkpt>
      <trkpt lat="44.40336" lon="7.1169">
        <ele>2176.4</ele>
        <time>2022-07-18T16:03:24Z</time>
      </trkpt>
      <trkpt lat="44.40336" lon="7.11691">
        <ele>2176.6</ele>
        <time>2022-07-18T16:03:25Z</time>
      </trkpt>
      <trkpt lat="44.40336" lon="7.11693">
        <ele>2176.6</ele>
        <time>2022-07-18T16:03:26Z</time>
      </trkpt>
      <trkpt lat="44.40336" lon="7.11695">
        <ele>2177</ele>
        <time>2022-07-18T16:03:27Z</time>
      </trkpt>
      <trkpt lat="44.40336" lon="7.11696">
        <ele>2177</ele>
        <time>2022-07-18T16:03:28Z</time>
      </trkpt>
      <trkpt lat="44.40336" lon="7.11698">
        <ele>2177</ele>
        <time>2022-07-18T16:03:29Z</time>
      </trkpt>
      <trkpt lat="44.40336" lon="7.117">
        <ele>2177.2</ele>
        <time>2022-07-18T16:03:30Z</time>
      </trkpt>
      <trkpt lat="44.40336" lon="7.11702">
        <ele>2177.2</ele>
        <time>2022-07-18T16:03:31Z</time>
      </trkpt>
      <trkpt lat="44.40336" lon="7.11703">
        <ele>2177.4</ele>
        <time>2022-07-18T16:03:32Z</time>
      </trkpt>
      <trkpt lat="44.40336" lon="7.11705">
        <ele>2177.4</ele>
        <time>2022-07-18T16:03:33Z</time>
      </trkpt>
      <trkpt lat="44.40336" lon="7.11707">
        <ele>2177.4</ele>
        <time>2022-07-18T16:03:34Z</time>
      </trkpt>
      <trkpt lat="44.40336" lon="7.11708">
        <ele>2177.4</ele>
        <time>2022-07-18T16:03:35Z</time>
      </trkpt>
      <trkpt lat="44.40336" lon="7.1171">
        <ele>2177.6</ele>
        <time>2022-07-18T16:03:36Z</time>
      </trkpt>
      <trkpt lat="44.40336" lon="7.11712">
        <ele>2177.6</ele>
        <time>2022-07-18T16:03:37Z</time>
      </trkpt>
      <trkpt lat="44.40335" lon="7.11714">
        <ele>2177.6</ele>
        <time>2022-07-18T16:03:38Z</time>
      </trkpt>
      <trkpt lat="44.40335" lon="7.11715">
        <ele>2177.8</ele>
        <time>2022-07-18T16:03:39Z</time>
      </trkpt>
      <trkpt lat="44.40335" lon="7.11717">
        <ele>2177.8</ele>
        <time>2022-07-18T16:03:40Z</time>
      </trkpt>
      <trkpt lat="44.40335" lon="7.11718">
        <ele>2177.8</ele>
        <time>2022-07-18T16:03:41Z</time>
      </trkpt>
      <trkpt lat="44.40334" lon="7.11719">
        <ele>2178.2</ele>
        <time>2022-07-18T16:03:42Z</time>
      </trkpt>
      <trkpt lat="44.40334" lon="7.11721">
        <ele>2178.2</ele>
        <time>2022-07-18T16:03:43Z</time>
      </trkpt>
      <trkpt lat="44.40334" lon="7.11722">
        <ele>2178.4</ele>
        <time>2022-07-18T16:03:44Z</time>
      </trkpt>
      <trkpt lat="44.40334" lon="7.11724">
        <ele>2178.4</ele>
        <time>2022-07-18T16:03:45Z</time>
      </trkpt>
      <trkpt lat="44.40334" lon="7.11725">
        <ele>2178.4</ele>
        <time>2022-07-18T16:03:46Z</time>
      </trkpt>
      <trkpt lat="44.40334" lon="7.11727">
        <ele>2178.4</ele>
        <time>2022-07-18T16:03:47Z</time>
      </trkpt>
      <trkpt lat="44.40334" lon="7.11728">
        <ele>2178.6</ele>
        <time>2022-07-18T16:03:48Z</time>
      </trkpt>
      <trkpt lat="44.40334" lon="7.1173">
        <ele>2178.6</ele>
        <time>2022-07-18T16:03:49Z</time>
      </trkpt>
      <trkpt lat="44.40334" lon="7.11731">
        <ele>2178.6</ele>
        <time>2022-07-18T16:03:50Z</time>
      </trkpt>
      <trkpt lat="44.40334" lon="7.11732">
        <ele>2179</ele>
        <time>2022-07-18T16:03:51Z</time>
      </trkpt>
      <trkpt lat="44.40333" lon="7.11733">
        <ele>2179</ele>
        <time>2022-07-18T16:03:52Z</time>
      </trkpt>
      <trkpt lat="44.40333" lon="7.11735">
        <ele>2179</ele>
        <time>2022-07-18T16:03:53Z</time>
      </trkpt>
      <trkpt lat="44.40333" lon="7.11736">
        <ele>2179.4</ele>
        <time>2022-07-18T16:03:54Z</time>
      </trkpt>
      <trkpt lat="44.40333" lon="7.11737">
        <ele>2179.4</ele>
        <time>2022-07-18T16:03:55Z</time>
      </trkpt>
      <trkpt lat="44.40333" lon="7.11738">
        <ele>2179.8</ele>
        <time>2022-07-18T16:03:56Z</time>
      </trkpt>
      <trkpt lat="44.40332" lon="7.1174">
        <ele>2179.8</ele>
        <time>2022-07-18T16:03:57Z</time>
      </trkpt>
      <trkpt lat="44.40332" lon="7.11741">
        <ele>2180</ele>
        <time>2022-07-18T16:03:58Z</time>
      </trkpt>
      <trkpt lat="44.40332" lon="7.11743">
        <ele>2180</ele>
        <time>2022-07-18T16:03:59Z</time>
      </trkpt>
      <trkpt lat="44.40331" lon="7.11744">
        <ele>2180</ele>
        <time>2022-07-18T16:04:00Z</time>
      </trkpt>
      <trkpt lat="44.40331" lon="7.11746">
        <ele>2180.4</ele>
        <time>2022-07-18T16:04:01Z</time>
      </trkpt>
      <trkpt lat="44.40331" lon="7.11747">
        <ele>2180.4</ele>
        <time>2022-07-18T16:04:02Z</time>
      </trkpt>
      <trkpt lat="44.4033" lon="7.11748">
        <ele>2180.4</ele>
        <time>2022-07-18T16:04:03Z</time>
      </trkpt>
      <trkpt lat="44.4033" lon="7.1175">
        <ele>2180.6</ele>
        <time>2022-07-18T16:04:04Z</time>
      </trkpt>
      <trkpt lat="44.40329" lon="7.11751">
        <ele>2180.6</ele>
        <time>2022-07-18T16:04:05Z</time>
      </trkpt>
      <trkpt lat="44.40328" lon="7.11753">
        <ele>2180.8</ele>
        <time>2022-07-18T16:04:06Z</time>
      </trkpt>
      <trkpt lat="44.40327" lon="7.11754">
        <ele>2180.8</ele>
        <time>2022-07-18T16:04:07Z</time>
      </trkpt>
      <trkpt lat="44.40326" lon="7.11755">
        <ele>2181</ele>
        <time>2022-07-18T16:04:08Z</time>
      </trkpt>
      <trkpt lat="44.40326" lon="7.11756">
        <ele>2181</ele>
        <time>2022-07-18T16:04:09Z</time>
      </trkpt>
      <trkpt lat="44.40325" lon="7.11757">
        <ele>2181</ele>
        <time>2022-07-18T16:04:10Z</time>
      </trkpt>
      <trkpt lat="44.40324" lon="7.11757">
        <ele>2181.4</ele>
        <time>2022-07-18T16:04:11Z</time>
      </trkpt>
      <trkpt lat="44.40323" lon="7.11758">
        <ele>2181.4</ele>
        <time>2022-07-18T16:04:12Z</time>
      </trkpt>
      <trkpt lat="44.40322" lon="7.11758">
        <ele>2181.6</ele>
        <time>2022-07-18T16:04:13Z</time>
      </trkpt>
      <trkpt lat="44.40321" lon="7.11759">
        <ele>2181.6</ele>
        <time>2022-07-18T16:04:14Z</time>
      </trkpt>
      <trkpt lat="44.4032" lon="7.11759">
        <ele>2181.8</ele>
        <time>2022-07-18T16:04:15Z</time>
      </trkpt>
      <trkpt lat="44.4032" lon="7.11759">
        <ele>2181.8</ele>
        <time>2022-07-18T16:04:16Z</time>
      </trkpt>
      <trkpt lat="44.4032" lon="7.11759">
        <ele>2182.2</ele>
        <time>2022-07-18T16:04:21Z</time>
      </trkpt>
      <trkpt lat="44.4032" lon="7.11759">
        <ele>2182.2</ele>
        <time>2022-07-18T16:04:25Z</time>
      </trkpt>
      <trkpt lat="44.4032" lon="7.11759">
        <ele>2182.2</ele>
        <time>2022-07-18T16:05:39Z</time>
      </trkpt>
      <trkpt lat="44.4032" lon="7.11759">
        <ele>2182.2</ele>
        <time>2022-07-18T16:05:45Z</time>
      </trkpt>
      <trkpt lat="44.40317" lon="7.11762">
        <ele>2182.4</ele>
        <time>2022-07-18T16:05:48Z</time>
      </trkpt>
      <trkpt lat="44.40317" lon="7.11763">
        <ele>2182.4</ele>
        <time>2022-07-18T16:05:49Z</time>
      </trkpt>
      <trkpt lat="44.40316" lon="7.11764">
        <ele>2182.4</ele>
        <time>2022-07-18T16:05:50Z</time>
      </trkpt>
      <trkpt lat="44.40315" lon="7.11765">
        <ele>2182.4</ele>
        <time>2022-07-18T16:05:51Z</time>
      </trkpt>
      <trkpt lat="44.40315" lon="7.11766">
        <ele>2182.6</ele>
        <time>2022-07-18T16:05:52Z</time>
      </trkpt>
      <trkpt lat="44.40314" lon="7.11767">
        <ele>2182.6</ele>
        <time>2022-07-18T16:05:53Z</time>
      </trkpt>
      <trkpt lat="44.40313" lon="7.11768">
        <ele>2182.6</ele>
        <time>2022-07-18T16:05:54Z</time>
      </trkpt>
      <trkpt lat="44.40312" lon="7.11769">
        <ele>2182.8</ele>
        <time>2022-07-18T16:05:55Z</time>
      </trkpt>
      <trkpt lat="44.40312" lon="7.1177">
        <ele>2182.8</ele>
        <time>2022-07-18T16:05:56Z</time>
      </trkpt>
      <trkpt lat="44.40311" lon="7.11771">
        <ele>2182.8</ele>
        <time>2022-07-18T16:05:57Z</time>
      </trkpt>
      <trkpt lat="44.4031" lon="7.11773">
        <ele>2183.2</ele>
        <time>2022-07-18T16:05:58Z</time>
      </trkpt>
      <trkpt lat="44.40309" lon="7.11774">
        <ele>2183.2</ele>
        <time>2022-07-18T16:05:59Z</time>
      </trkpt>
      <trkpt lat="44.40308" lon="7.11776">
        <ele>2183.2</ele>
        <time>2022-07-18T16:06:00Z</time>
      </trkpt>
      <trkpt lat="44.40307" lon="7.11777">
        <ele>2183.4</ele>
        <time>2022-07-18T16:06:01Z</time>
      </trkpt>
      <trkpt lat="44.40306" lon="7.11778">
        <ele>2183.4</ele>
        <time>2022-07-18T16:06:02Z</time>
      </trkpt>
      <trkpt lat="44.40306" lon="7.1178">
        <ele>2183.4</ele>
        <time>2022-07-18T16:06:03Z</time>
      </trkpt>
      <trkpt lat="44.40304" lon="7.11781">
        <ele>2183.8</ele>
        <time>2022-07-18T16:06:04Z</time>
      </trkpt>
      <trkpt lat="44.40303" lon="7.11782">
        <ele>2183.8</ele>
        <time>2022-07-18T16:06:05Z</time>
      </trkpt>
      <trkpt lat="44.40303" lon="7.11783">
        <ele>2183.8</ele>
        <time>2022-07-18T16:06:06Z</time>
      </trkpt>
      <trkpt lat="44.40302" lon="7.11785">
        <ele>2183.8</ele>
        <time>2022-07-18T16:06:07Z</time>
      </trkpt>
      <trkpt lat="44.40301" lon="7.11786">
        <ele>2184</ele>
        <time>2022-07-18T16:06:08Z</time>
      </trkpt>
      <trkpt lat="44.403" lon="7.11787">
        <ele>2184</ele>
        <time>2022-07-18T16:06:09Z</time>
      </trkpt>
      <trkpt lat="44.40299" lon="7.11788">
        <ele>2184</ele>
        <time>2022-07-18T16:06:10Z</time>
      </trkpt>
      <trkpt lat="44.40298" lon="7.11789">
        <ele>2184.2</ele>
        <time>2022-07-18T16:06:11Z</time>
      </trkpt>
      <trkpt lat="44.40297" lon="7.1179">
        <ele>2184.2</ele>
        <time>2022-07-18T16:06:12Z</time>
      </trkpt>
      <trkpt lat="44.40297" lon="7.11791">
        <ele>2184.6</ele>
        <time>2022-07-18T16:06:13Z</time>
      </trkpt>
      <trkpt lat="44.40296" lon="7.11792">
        <ele>2184.6</ele>
        <time>2022-07-18T16:06:14Z</time>
      </trkpt>
      <trkpt lat="44.40295" lon="7.11793">
        <ele>2184.8</ele>
        <time>2022-07-18T16:06:15Z</time>
      </trkpt>
      <trkpt lat="44.40294" lon="7.11794">
        <ele>2184.8</ele>
        <time>2022-07-18T16:06:16Z</time>
      </trkpt>
      <trkpt lat="44.40293" lon="7.11795">
        <ele>2185</ele>
        <time>2022-07-18T16:06:17Z</time>
      </trkpt>
      <trkpt lat="44.40293" lon="7.11796">
        <ele>2185</ele>
        <time>2022-07-18T16:06:18Z</time>
      </trkpt>
      <trkpt lat="44.40292" lon="7.11798">
        <ele>2185</ele>
        <time>2022-07-18T16:06:19Z</time>
      </trkpt>
      <trkpt lat="44.40291" lon="7.11799">
        <ele>2185.4</ele>
        <time>2022-07-18T16:06:20Z</time>
      </trkpt>
      <trkpt lat="44.4029" lon="7.118">
        <ele>2185.4</ele>
        <time>2022-07-18T16:06:21Z</time>
      </trkpt>
      <trkpt lat="44.4029" lon="7.11801">
        <ele>2185.8</ele>
        <time>2022-07-18T16:06:22Z</time>
      </trkpt>
      <trkpt lat="44.40289" lon="7.11802">
        <ele>2185.8</ele>
        <time>2022-07-18T16:06:23Z</time>
      </trkpt>
      <trkpt lat="44.40288" lon="7.11803">
        <ele>2186</ele>
        <time>2022-07-18T16:06:24Z</time>
      </trkpt>
      <trkpt lat="44.40288" lon="7.11804">
        <ele>2186</ele>
        <time>2022-07-18T16:06:25Z</time>
      </trkpt>
      <trkpt lat="44.40287" lon="7.11805">
        <ele>2186</ele>
        <time>2022-07-18T16:06:26Z</time>
      </trkpt>
      <trkpt lat="44.40287" lon="7.11807">
        <ele>2186.2</ele>
        <time>2022-07-18T16:06:27Z</time>
      </trkpt>
      <trkpt lat="44.40286" lon="7.11808">
        <ele>2186.2</ele>
        <time>2022-07-18T16:06:28Z</time>
      </trkpt>
      <trkpt lat="44.40286" lon="7.11809">
        <ele>2186.6</ele>
        <time>2022-07-18T16:06:29Z</time>
      </trkpt>
      <trkpt lat="44.40286" lon="7.1181">
        <ele>2186.6</ele>
        <time>2022-07-18T16:06:30Z</time>
      </trkpt>
      <trkpt lat="44.40285" lon="7.11812">
        <ele>2186.6</ele>
        <time>2022-07-18T16:06:31Z</time>
      </trkpt>
      <trkpt lat="44.40285" lon="7.11813">
        <ele>2186.8</ele>
        <time>2022-07-18T16:06:32Z</time>
      </trkpt>
      <trkpt lat="44.40284" lon="7.11814">
        <ele>2186.8</ele>
        <time>2022-07-18T16:06:33Z</time>
      </trkpt>
      <trkpt lat="44.40283" lon="7.11815">
        <ele>2186.8</ele>
        <time>2022-07-18T16:06:34Z</time>
      </trkpt>
      <trkpt lat="44.40282" lon="7.11817">
        <ele>2187</ele>
        <time>2022-07-18T16:06:35Z</time>
      </trkpt>
      <trkpt lat="44.40282" lon="7.11818">
        <ele>2187</ele>
        <time>2022-07-18T16:06:36Z</time>
      </trkpt>
      <trkpt lat="44.40281" lon="7.11819">
        <ele>2187.4</ele>
        <time>2022-07-18T16:06:37Z</time>
      </trkpt>
      <trkpt lat="44.4028" lon="7.1182">
        <ele>2187.4</ele>
        <time>2022-07-18T16:06:38Z</time>
      </trkpt>
      <trkpt lat="44.40279" lon="7.11821">
        <ele>2187.6</ele>
        <time>2022-07-18T16:06:39Z</time>
      </trkpt>
      <trkpt lat="44.40278" lon="7.11822">
        <ele>2187.6</ele>
        <time>2022-07-18T16:06:40Z</time>
      </trkpt>
      <trkpt lat="44.40277" lon="7.11823">
        <ele>2187.6</ele>
        <time>2022-07-18T16:06:41Z</time>
      </trkpt>
      <trkpt lat="44.40276" lon="7.11824">
        <ele>2187.8</ele>
        <time>2022-07-18T16:06:42Z</time>
      </trkpt>
      <trkpt lat="44.40275" lon="7.11824">
        <ele>2187.8</ele>
        <time>2022-07-18T16:06:43Z</time>
      </trkpt>
      <trkpt lat="44.40274" lon="7.11825">
        <ele>2188.2</ele>
        <time>2022-07-18T16:06:44Z</time>
      </trkpt>
      <trkpt lat="44.40273" lon="7.11825">
        <ele>2188.2</ele>
        <time>2022-07-18T16:06:45Z</time>
      </trkpt>
      <trkpt lat="44.4027" lon="7.11826">
        <ele>2188.4</ele>
        <time>2022-07-18T16:06:46Z</time>
      </trkpt>
      <trkpt lat="44.40269" lon="7.11826">
        <ele>2188.4</ele>
        <time>2022-07-18T16:06:47Z</time>
      </trkpt>
      <trkpt lat="44.40267" lon="7.11827">
        <ele>2188.6</ele>
        <time>2022-07-18T16:06:48Z</time>
      </trkpt>
      <trkpt lat="44.40266" lon="7.11827">
        <ele>2188.6</ele>
        <time>2022-07-18T16:06:49Z</time>
      </trkpt>
      <trkpt lat="44.40265" lon="7.11828">
        <ele>2188.8</ele>
        <time>2022-07-18T16:06:50Z</time>
      </trkpt>
      <trkpt lat="44.40264" lon="7.11828">
        <ele>2188.8</ele>
        <time>2022-07-18T16:06:51Z</time>
      </trkpt>
      <trkpt lat="44.40262" lon="7.11828">
        <ele>2189</ele>
        <time>2022-07-18T16:06:52Z</time>
      </trkpt>
      <trkpt lat="44.40261" lon="7.11829">
        <ele>2189</ele>
        <time>2022-07-18T16:06:53Z</time>
      </trkpt>
      <trkpt lat="44.4026" lon="7.1183">
        <ele>2189</ele>
        <time>2022-07-18T16:06:54Z</time>
      </trkpt>
      <trkpt lat="44.40259" lon="7.1183">
        <ele>2189.2</ele>
        <time>2022-07-18T16:06:55Z</time>
      </trkpt>
      <trkpt lat="44.40258" lon="7.1183">
        <ele>2189.2</ele>
        <time>2022-07-18T16:06:56Z</time>
      </trkpt>
      <trkpt lat="44.40256" lon="7.11831">
        <ele>2189.2</ele>
        <time>2022-07-18T16:06:57Z</time>
      </trkpt>
      <trkpt lat="44.40255" lon="7.11831">
        <ele>2189.2</ele>
        <time>2022-07-18T16:06:58Z</time>
      </trkpt>
      <trkpt lat="44.40254" lon="7.11832">
        <ele>2189.6</ele>
        <time>2022-07-18T16:06:59Z</time>
      </trkpt>
      <trkpt lat="44.40253" lon="7.11832">
        <ele>2189.6</ele>
        <time>2022-07-18T16:07:00Z</time>
      </trkpt>
      <trkpt lat="44.40251" lon="7.11832">
        <ele>2189.8</ele>
        <time>2022-07-18T16:07:01Z</time>
      </trkpt>
      <trkpt lat="44.4025" lon="7.11833">
        <ele>2189.8</ele>
        <time>2022-07-18T16:07:02Z</time>
      </trkpt>
      <trkpt lat="44.40249" lon="7.11833">
        <ele>2190</ele>
        <time>2022-07-18T16:07:03Z</time>
      </trkpt>
      <trkpt lat="44.40248" lon="7.11833">
        <ele>2190</ele>
        <time>2022-07-18T16:07:04Z</time>
      </trkpt>
      <trkpt lat="44.40247" lon="7.11833">
        <ele>2190</ele>
        <time>2022-07-18T16:07:05Z</time>
      </trkpt>
      <trkpt lat="44.40245" lon="7.11833">
        <ele>2190</ele>
        <time>2022-07-18T16:07:06Z</time>
      </trkpt>
      <trkpt lat="44.40244" lon="7.11834">
        <ele>2190.2</ele>
        <time>2022-07-18T16:07:07Z</time>
      </trkpt>
      <trkpt lat="44.40243" lon="7.11834">
        <ele>2190.6</ele>
        <time>2022-07-18T16:07:08Z</time>
      </trkpt>
      <trkpt lat="44.40242" lon="7.11834">
        <ele>2190.6</ele>
        <time>2022-07-18T16:07:09Z</time>
      </trkpt>
      <trkpt lat="44.40241" lon="7.11835">
        <ele>2190.8</ele>
        <time>2022-07-18T16:07:10Z</time>
      </trkpt>
      <trkpt lat="44.4024" lon="7.11835">
        <ele>2190.8</ele>
        <time>2022-07-18T16:07:11Z</time>
      </trkpt>
      <trkpt lat="44.40239" lon="7.11835">
        <ele>2191</ele>
        <time>2022-07-18T16:07:12Z</time>
      </trkpt>
      <trkpt lat="44.40238" lon="7.11835">
        <ele>2191</ele>
        <time>2022-07-18T16:07:13Z</time>
      </trkpt>
      <trkpt lat="44.40237" lon="7.11835">
        <ele>2191.2</ele>
        <time>2022-07-18T16:07:14Z</time>
      </trkpt>
      <trkpt lat="44.40236" lon="7.11836">
        <ele>2191.2</ele>
        <time>2022-07-18T16:07:15Z</time>
      </trkpt>
      <trkpt lat="44.40235" lon="7.11836">
        <ele>2191.2</ele>
        <time>2022-07-18T16:07:16Z</time>
      </trkpt>
      <trkpt lat="44.40233" lon="7.11836">
        <ele>2191.6</ele>
        <time>2022-07-18T16:07:17Z</time>
      </trkpt>
      <trkpt lat="44.40232" lon="7.11837">
        <ele>2191.6</ele>
        <time>2022-07-18T16:07:18Z</time>
      </trkpt>
      <trkpt lat="44.40231" lon="7.11837">
        <ele>2191.8</ele>
        <time>2022-07-18T16:07:19Z</time>
      </trkpt>
      <trkpt lat="44.4023" lon="7.11837">
        <ele>2191.8</ele>
        <time>2022-07-18T16:07:20Z</time>
      </trkpt>
      <trkpt lat="44.40229" lon="7.11837">
        <ele>2191.8</ele>
        <time>2022-07-18T16:07:21Z</time>
      </trkpt>
      <trkpt lat="44.40228" lon="7.11837">
        <ele>2192</ele>
        <time>2022-07-18T16:07:22Z</time>
      </trkpt>
      <trkpt lat="44.40227" lon="7.11838">
        <ele>2192</ele>
        <time>2022-07-18T16:07:23Z</time>
      </trkpt>
      <trkpt lat="44.40226" lon="7.11839">
        <ele>2192.2</ele>
        <time>2022-07-18T16:07:24Z</time>
      </trkpt>
      <trkpt lat="44.40225" lon="7.11839">
        <ele>2192.2</ele>
        <time>2022-07-18T16:07:25Z</time>
      </trkpt>
      <trkpt lat="44.40224" lon="7.1184">
        <ele>2192.6</ele>
        <time>2022-07-18T16:07:26Z</time>
      </trkpt>
      <trkpt lat="44.40223" lon="7.1184">
        <ele>2192.6</ele>
        <time>2022-07-18T16:07:27Z</time>
      </trkpt>
      <trkpt lat="44.40222" lon="7.1184">
        <ele>2192.8</ele>
        <time>2022-07-18T16:07:28Z</time>
      </trkpt>
      <trkpt lat="44.40221" lon="7.1184">
        <ele>2192.8</ele>
        <time>2022-07-18T16:07:29Z</time>
      </trkpt>
      <trkpt lat="44.4022" lon="7.11841">
        <ele>2193</ele>
        <time>2022-07-18T16:07:30Z</time>
      </trkpt>
      <trkpt lat="44.40219" lon="7.11841">
        <ele>2193</ele>
        <time>2022-07-18T16:07:31Z</time>
      </trkpt>
      <trkpt lat="44.40218" lon="7.11841">
        <ele>2193</ele>
        <time>2022-07-18T16:07:32Z</time>
      </trkpt>
      <trkpt lat="44.40217" lon="7.11842">
        <ele>2193.4</ele>
        <time>2022-07-18T16:07:33Z</time>
      </trkpt>
      <trkpt lat="44.40216" lon="7.11842">
        <ele>2193.4</ele>
        <time>2022-07-18T16:07:34Z</time>
      </trkpt>
      <trkpt lat="44.40215" lon="7.11842">
        <ele>2193.6</ele>
        <time>2022-07-18T16:07:35Z</time>
      </trkpt>
      <trkpt lat="44.40214" lon="7.11842">
        <ele>2193.6</ele>
        <time>2022-07-18T16:07:36Z</time>
      </trkpt>
      <trkpt lat="44.40213" lon="7.11842">
        <ele>2193.8</ele>
        <time>2022-07-18T16:07:37Z</time>
      </trkpt>
      <trkpt lat="44.40212" lon="7.11843">
        <ele>2193.8</ele>
        <time>2022-07-18T16:07:38Z</time>
      </trkpt>
      <trkpt lat="44.40211" lon="7.11843">
        <ele>2193.8</ele>
        <time>2022-07-18T16:07:39Z</time>
      </trkpt>
      <trkpt lat="44.4021" lon="7.11843">
        <ele>2194</ele>
        <time>2022-07-18T16:07:40Z</time>
      </trkpt>
      <trkpt lat="44.40209" lon="7.11844">
        <ele>2194</ele>
        <time>2022-07-18T16:07:41Z</time>
      </trkpt>
      <trkpt lat="44.40208" lon="7.11844">
        <ele>2194</ele>
        <time>2022-07-18T16:07:42Z</time>
      </trkpt>
      <trkpt lat="44.40207" lon="7.11845">
        <ele>2194.4</ele>
        <time>2022-07-18T16:07:43Z</time>
      </trkpt>
      <trkpt lat="44.40206" lon="7.11845">
        <ele>2194.4</ele>
        <time>2022-07-18T16:07:44Z</time>
      </trkpt>
      <trkpt lat="44.40205" lon="7.11846">
        <ele>2194.4</ele>
        <time>2022-07-18T16:07:45Z</time>
      </trkpt>
      <trkpt lat="44.40204" lon="7.11846">
        <ele>2194.6</ele>
        <time>2022-07-18T16:07:46Z</time>
      </trkpt>
      <trkpt lat="44.40203" lon="7.11847">
        <ele>2194.6</ele>
        <time>2022-07-18T16:07:47Z</time>
      </trkpt>
      <trkpt lat="44.40202" lon="7.11848">
        <ele>2194.6</ele>
        <time>2022-07-18T16:07:48Z</time>
      </trkpt>
      <trkpt lat="44.40201" lon="7.11848">
        <ele>2194.8</ele>
        <time>2022-07-18T16:07:49Z</time>
      </trkpt>
      <trkpt lat="44.40199" lon="7.11849">
        <ele>2194.8</ele>
        <time>2022-07-18T16:07:50Z</time>
      </trkpt>
      <trkpt lat="44.40198" lon="7.11849">
        <ele>2194.8</ele>
        <time>2022-07-18T16:07:51Z</time>
      </trkpt>
      <trkpt lat="44.40197" lon="7.1185">
        <ele>2195.2</ele>
        <time>2022-07-18T16:07:52Z</time>
      </trkpt>
      <trkpt lat="44.40196" lon="7.11851">
        <ele>2195.2</ele>
        <time>2022-07-18T16:07:53Z</time>
      </trkpt>
      <trkpt lat="44.40195" lon="7.11851">
        <ele>2195.2</ele>
        <time>2022-07-18T16:07:54Z</time>
      </trkpt>
      <trkpt lat="44.40194" lon="7.11852">
        <ele>2195.4</ele>
        <time>2022-07-18T16:07:55Z</time>
      </trkpt>
      <trkpt lat="44.40193" lon="7.11853">
        <ele>2195.4</ele>
        <time>2022-07-18T16:07:56Z</time>
      </trkpt>
      <trkpt lat="44.40192" lon="7.11854">
        <ele>2195.4</ele>
        <time>2022-07-18T16:07:57Z</time>
      </trkpt>
      <trkpt lat="44.40191" lon="7.11854">
        <ele>2195.4</ele>
        <time>2022-07-18T16:07:58Z</time>
      </trkpt>
      <trkpt lat="44.4019" lon="7.11855">
        <ele>2195.6</ele>
        <time>2022-07-18T16:07:59Z</time>
      </trkpt>
      <trkpt lat="44.40189" lon="7.11856">
        <ele>2195.6</ele>
        <time>2022-07-18T16:08:00Z</time>
      </trkpt>
      <trkpt lat="44.40188" lon="7.11856">
        <ele>2195.6</ele>
        <time>2022-07-18T16:08:01Z</time>
      </trkpt>
      <trkpt lat="44.40187" lon="7.11857">
        <ele>2196</ele>
        <time>2022-07-18T16:08:02Z</time>
      </trkpt>
      <trkpt lat="44.40186" lon="7.11858">
        <ele>2196</ele>
        <time>2022-07-18T16:08:03Z</time>
      </trkpt>
      <trkpt lat="44.40186" lon="7.11858">
        <ele>2196.2</ele>
        <time>2022-07-18T16:08:04Z</time>
      </trkpt>
      <trkpt lat="44.40185" lon="7.11859">
        <ele>2196.4</ele>
        <time>2022-07-18T16:08:05Z</time>
      </trkpt>
      <trkpt lat="44.40184" lon="7.11859">
        <ele>2196.4</ele>
        <time>2022-07-18T16:08:06Z</time>
      </trkpt>
      <trkpt lat="44.40183" lon="7.1186">
        <ele>2196.8</ele>
        <time>2022-07-18T16:08:07Z</time>
      </trkpt>
      <trkpt lat="44.40182" lon="7.11861">
        <ele>2196.8</ele>
        <time>2022-07-18T16:08:08Z</time>
      </trkpt>
      <trkpt lat="44.40181" lon="7.11862">
        <ele>2197</ele>
        <time>2022-07-18T16:08:09Z</time>
      </trkpt>
      <trkpt lat="44.4018" lon="7.11863">
        <ele>2197</ele>
        <time>2022-07-18T16:08:10Z</time>
      </trkpt>
      <trkpt lat="44.4018" lon="7.11863">
        <ele>2197.4</ele>
        <time>2022-07-18T16:08:11Z</time>
      </trkpt>
      <trkpt lat="44.40179" lon="7.11864">
        <ele>2197.4</ele>
        <time>2022-07-18T16:08:12Z</time>
      </trkpt>
      <trkpt lat="44.40178" lon="7.11866">
        <ele>2197.6</ele>
        <time>2022-07-18T16:08:13Z</time>
      </trkpt>
      <trkpt lat="44.40178" lon="7.11867">
        <ele>2197.6</ele>
        <time>2022-07-18T16:08:14Z</time>
      </trkpt>
      <trkpt lat="44.40177" lon="7.11868">
        <ele>2197.6</ele>
        <time>2022-07-18T16:08:15Z</time>
      </trkpt>
      <trkpt lat="44.40177" lon="7.11869">
        <ele>2197.8</ele>
        <time>2022-07-18T16:08:16Z</time>
      </trkpt>
      <trkpt lat="44.40176" lon="7.1187">
        <ele>2197.8</ele>
        <time>2022-07-18T16:08:17Z</time>
      </trkpt>
      <trkpt lat="44.40176" lon="7.11872">
        <ele>2198.2</ele>
        <time>2022-07-18T16:08:18Z</time>
      </trkpt>
      <trkpt lat="44.40175" lon="7.11873">
        <ele>2198.2</ele>
        <time>2022-07-18T16:08:19Z</time>
      </trkpt>
      <trkpt lat="44.40175" lon="7.11874">
        <ele>2198.2</ele>
        <time>2022-07-18T16:08:20Z</time>
      </trkpt>
      <trkpt lat="44.40175" lon="7.11876">
        <ele>2198.2</ele>
        <time>2022-07-18T16:08:21Z</time>
      </trkpt>
      <trkpt lat="44.40174" lon="7.11877">
        <ele>2198.4</ele>
        <time>2022-07-18T16:08:22Z</time>
      </trkpt>
      <trkpt lat="44.40174" lon="7.11879">
        <ele>2198.4</ele>
        <time>2022-07-18T16:08:23Z</time>
      </trkpt>
      <trkpt lat="44.40174" lon="7.1188">
        <ele>2198.6</ele>
        <time>2022-07-18T16:08:24Z</time>
      </trkpt>
      <trkpt lat="44.40174" lon="7.11882">
        <ele>2198.6</ele>
        <time>2022-07-18T16:08:25Z</time>
      </trkpt>
      <trkpt lat="44.40173" lon="7.11883">
        <ele>2198.6</ele>
        <time>2022-07-18T16:08:26Z</time>
      </trkpt>
      <trkpt lat="44.40173" lon="7.11885">
        <ele>2198.6</ele>
        <time>2022-07-18T16:08:27Z</time>
      </trkpt>
      <trkpt lat="44.40173" lon="7.11886">
        <ele>2198.6</ele>
        <time>2022-07-18T16:08:28Z</time>
      </trkpt>
      <trkpt lat="44.40172" lon="7.11888">
        <ele>2199</ele>
        <time>2022-07-18T16:08:29Z</time>
      </trkpt>
      <trkpt lat="44.40172" lon="7.1189">
        <ele>2199</ele>
        <time>2022-07-18T16:08:30Z</time>
      </trkpt>
      <trkpt lat="44.40172" lon="7.11891">
        <ele>2199</ele>
        <time>2022-07-18T16:08:31Z</time>
      </trkpt>
      <trkpt lat="44.40172" lon="7.11893">
        <ele>2199</ele>
        <time>2022-07-18T16:08:32Z</time>
      </trkpt>
      <trkpt lat="44.40172" lon="7.11895">
        <ele>2199</ele>
        <time>2022-07-18T16:08:33Z</time>
      </trkpt>
      <trkpt lat="44.40171" lon="7.11896">
        <ele>2199.2</ele>
        <time>2022-07-18T16:08:34Z</time>
      </trkpt>
      <trkpt lat="44.40171" lon="7.11897">
        <ele>2199.2</ele>
        <time>2022-07-18T16:08:35Z</time>
      </trkpt>
      <trkpt lat="44.40171" lon="7.11899">
        <ele>2199.2</ele>
        <time>2022-07-18T16:08:36Z</time>
      </trkpt>
      <trkpt lat="44.4017" lon="7.119">
        <ele>2199.2</ele>
        <time>2022-07-18T16:08:37Z</time>
      </trkpt>
      <trkpt lat="44.4017" lon="7.11902">
        <ele>2199.4</ele>
        <time>2022-07-18T16:08:38Z</time>
      </trkpt>
      <trkpt lat="44.4017" lon="7.11903">
        <ele>2199.4</ele>
        <time>2022-07-18T16:08:39Z</time>
      </trkpt>
      <trkpt lat="44.40169" lon="7.11905">
        <ele>2199.6</ele>
        <time>2022-07-18T16:08:40Z</time>
      </trkpt>
      <trkpt lat="44.40169" lon="7.11906">
        <ele>2199.6</ele>
        <time>2022-07-18T16:08:41Z</time>
      </trkpt>
      <trkpt lat="44.40168" lon="7.11908">
        <ele>2199.6</ele>
        <time>2022-07-18T16:08:42Z</time>
      </trkpt>
      <trkpt lat="44.40168" lon="7.11909">
        <ele>2200</ele>
        <time>2022-07-18T16:08:43Z</time>
      </trkpt>
      <trkpt lat="44.40167" lon="7.11911">
        <ele>2200</ele>
        <time>2022-07-18T16:08:44Z</time>
      </trkpt>
      <trkpt lat="44.40167" lon="7.11912">
        <ele>2200</ele>
        <time>2022-07-18T16:08:45Z</time>
      </trkpt>
      <trkpt lat="44.40167" lon="7.11913">
        <ele>2200.2</ele>
        <time>2022-07-18T16:08:46Z</time>
      </trkpt>
      <trkpt lat="44.40166" lon="7.11915">
        <ele>2200.2</ele>
        <time>2022-07-18T16:08:47Z</time>
      </trkpt>
      <trkpt lat="44.40165" lon="7.11916">
        <ele>2200.4</ele>
        <time>2022-07-18T16:08:48Z</time>
      </trkpt>
      <trkpt lat="44.40165" lon="7.11918">
        <ele>2200.4</ele>
        <time>2022-07-18T16:08:49Z</time>
      </trkpt>
      <trkpt lat="44.40164" lon="7.11919">
        <ele>2200.8</ele>
        <time>2022-07-18T16:08:50Z</time>
      </trkpt>
      <trkpt lat="44.40163" lon="7.11921">
        <ele>2200.8</ele>
        <time>2022-07-18T16:08:51Z</time>
      </trkpt>
      <trkpt lat="44.40163" lon="7.11922">
        <ele>2201</ele>
        <time>2022-07-18T16:08:52Z</time>
      </trkpt>
      <trkpt lat="44.40163" lon="7.11923">
        <ele>2201</ele>
        <time>2022-07-18T16:08:53Z</time>
      </trkpt>
      <trkpt lat="44.40162" lon="7.11925">
        <ele>2201.2</ele>
        <time>2022-07-18T16:08:54Z</time>
      </trkpt>
      <trkpt lat="44.40162" lon="7.11926">
        <ele>2201.2</ele>
        <time>2022-07-18T16:08:55Z</time>
      </trkpt>
      <trkpt lat="44.40161" lon="7.11927">
        <ele>2201.4</ele>
        <time>2022-07-18T16:08:56Z</time>
      </trkpt>
      <trkpt lat="44.4016" lon="7.11928">
        <ele>2201.4</ele>
        <time>2022-07-18T16:08:57Z</time>
      </trkpt>
      <trkpt lat="44.4016" lon="7.11929">
        <ele>2201.4</ele>
        <time>2022-07-18T16:08:58Z</time>
      </trkpt>
      <trkpt lat="44.4016" lon="7.11931">
        <ele>2201.8</ele>
        <time>2022-07-18T16:08:59Z</time>
      </trkpt>
      <trkpt lat="44.40159" lon="7.11932">
        <ele>2201.8</ele>
        <time>2022-07-18T16:09:00Z</time>
      </trkpt>
      <trkpt lat="44.40159" lon="7.11933">
        <ele>2202</ele>
        <time>2022-07-18T16:09:01Z</time>
      </trkpt>
      <trkpt lat="44.40159" lon="7.11934">
        <ele>2202</ele>
        <time>2022-07-18T16:09:02Z</time>
      </trkpt>
      <trkpt lat="44.40158" lon="7.11936">
        <ele>2202.2</ele>
        <time>2022-07-18T16:09:03Z</time>
      </trkpt>
      <trkpt lat="44.40157" lon="7.11937">
        <ele>2202.2</ele>
        <time>2022-07-18T16:09:04Z</time>
      </trkpt>
      <trkpt lat="44.40157" lon="7.11938">
        <ele>2202.2</ele>
        <time>2022-07-18T16:09:05Z</time>
      </trkpt>
      <trkpt lat="44.40157" lon="7.1194">
        <ele>2202.4</ele>
        <time>2022-07-18T16:09:06Z</time>
      </trkpt>
      <trkpt lat="44.40156" lon="7.11941">
        <ele>2202.4</ele>
        <time>2022-07-18T16:09:07Z</time>
      </trkpt>
      <trkpt lat="44.40156" lon="7.11942">
        <ele>2202.6</ele>
        <time>2022-07-18T16:09:08Z</time>
      </trkpt>
      <trkpt lat="44.40155" lon="7.11944">
        <ele>2202.6</ele>
        <time>2022-07-18T16:09:09Z</time>
      </trkpt>
      <trkpt lat="44.40155" lon="7.11945">
        <ele>2202.6</ele>
        <time>2022-07-18T16:09:10Z</time>
      </trkpt>
      <trkpt lat="44.40155" lon="7.11947">
        <ele>2203</ele>
        <time>2022-07-18T16:09:11Z</time>
      </trkpt>
      <trkpt lat="44.40155" lon="7.11948">
        <ele>2203</ele>
        <time>2022-07-18T16:09:12Z</time>
      </trkpt>
      <trkpt lat="44.40155" lon="7.1195">
        <ele>2203.2</ele>
        <time>2022-07-18T16:09:13Z</time>
      </trkpt>
      <trkpt lat="44.40155" lon="7.11952">
        <ele>2203.2</ele>
        <time>2022-07-18T16:09:14Z</time>
      </trkpt>
      <trkpt lat="44.40154" lon="7.11953">
        <ele>2203.4</ele>
        <time>2022-07-18T16:09:15Z</time>
      </trkpt>
      <trkpt lat="44.40154" lon="7.11955">
        <ele>2203.4</ele>
        <time>2022-07-18T16:09:16Z</time>
      </trkpt>
      <trkpt lat="44.40154" lon="7.11957">
        <ele>2203.8</ele>
        <time>2022-07-18T16:09:17Z</time>
      </trkpt>
      <trkpt lat="44.40154" lon="7.11958">
        <ele>2203.8</ele>
        <time>2022-07-18T16:09:18Z</time>
      </trkpt>
      <trkpt lat="44.40154" lon="7.1196">
        <ele>2203.8</ele>
        <time>2022-07-18T16:09:19Z</time>
      </trkpt>
      <trkpt lat="44.40154" lon="7.11962">
        <ele>2204</ele>
        <time>2022-07-18T16:09:20Z</time>
      </trkpt>
      <trkpt lat="44.40154" lon="7.11964">
        <ele>2204</ele>
        <time>2022-07-18T16:09:21Z</time>
      </trkpt>
      <trkpt lat="44.40153" lon="7.11965">
        <ele>2204.2</ele>
        <time>2022-07-18T16:09:22Z</time>
      </trkpt>
      <trkpt lat="44.40153" lon="7.11967">
        <ele>2204.2</ele>
        <time>2022-07-18T16:09:23Z</time>
      </trkpt>
      <trkpt lat="44.40153" lon="7.11968">
        <ele>2204.6</ele>
        <time>2022-07-18T16:09:24Z</time>
      </trkpt>
      <trkpt lat="44.40153" lon="7.1197">
        <ele>2204.6</ele>
        <time>2022-07-18T16:09:25Z</time>
      </trkpt>
      <trkpt lat="44.40153" lon="7.11972">
        <ele>2204.6</ele>
        <time>2022-07-18T16:09:26Z</time>
      </trkpt>
      <trkpt lat="44.40153" lon="7.11973">
        <ele>2204.8</ele>
        <time>2022-07-18T16:09:27Z</time>
      </trkpt>
      <trkpt lat="44.40153" lon="7.11974">
        <ele>2204.8</ele>
        <time>2022-07-18T16:09:28Z</time>
      </trkpt>
      <trkpt lat="44.40153" lon="7.11976">
        <ele>2205</ele>
        <time>2022-07-18T16:09:30Z</time>
      </trkpt>
      <trkpt lat="44.40152" lon="7.11978">
        <ele>2205</ele>
        <time>2022-07-18T16:09:31Z</time>
      </trkpt>
      <trkpt lat="44.40152" lon="7.11979">
        <ele>2205</ele>
        <time>2022-07-18T16:09:32Z</time>
      </trkpt>
      <trkpt lat="44.40152" lon="7.1198">
        <ele>2205.2</ele>
        <time>2022-07-18T16:09:33Z</time>
      </trkpt>
      <trkpt lat="44.40152" lon="7.11982">
        <ele>2205.2</ele>
        <time>2022-07-18T16:09:34Z</time>
      </trkpt>
      <trkpt lat="44.40152" lon="7.11983">
        <ele>2205.2</ele>
        <time>2022-07-18T16:09:35Z</time>
      </trkpt>
      <trkpt lat="44.40152" lon="7.11985">
        <ele>2205.6</ele>
        <time>2022-07-18T16:09:36Z</time>
      </trkpt>
      <trkpt lat="44.40151" lon="7.11986">
        <ele>2205.6</ele>
        <time>2022-07-18T16:09:37Z</time>
      </trkpt>
      <trkpt lat="44.40151" lon="7.11988">
        <ele>2205.8</ele>
        <time>2022-07-18T16:09:38Z</time>
      </trkpt>
      <trkpt lat="44.40151" lon="7.11989">
        <ele>2205.8</ele>
        <time>2022-07-18T16:09:39Z</time>
      </trkpt>
      <trkpt lat="44.4015" lon="7.11991">
        <ele>2205.8</ele>
        <time>2022-07-18T16:09:40Z</time>
      </trkpt>
      <trkpt lat="44.4015" lon="7.11992">
        <ele>2206.2</ele>
        <time>2022-07-18T16:09:41Z</time>
      </trkpt>
      <trkpt lat="44.4015" lon="7.11994">
        <ele>2206.2</ele>
        <time>2022-07-18T16:09:42Z</time>
      </trkpt>
      <trkpt lat="44.40149" lon="7.11995">
        <ele>2206.2</ele>
        <time>2022-07-18T16:09:43Z</time>
      </trkpt>
      <trkpt lat="44.40149" lon="7.11997">
        <ele>2206.4</ele>
        <time>2022-07-18T16:09:44Z</time>
      </trkpt>
      <trkpt lat="44.40149" lon="7.11998">
        <ele>2206.4</ele>
        <time>2022-07-18T16:09:45Z</time>
      </trkpt>
      <trkpt lat="44.40149" lon="7.12">
        <ele>2206.4</ele>
        <time>2022-07-18T16:09:46Z</time>
      </trkpt>
      <trkpt lat="44.40149" lon="7.12001">
        <ele>2206.6</ele>
        <time>2022-07-18T16:09:47Z</time>
      </trkpt>
      <trkpt lat="44.40149" lon="7.12003">
        <ele>2206.6</ele>
        <time>2022-07-18T16:09:48Z</time>
      </trkpt>
      <trkpt lat="44.40149" lon="7.12004">
        <ele>2206.6</ele>
        <time>2022-07-18T16:09:49Z</time>
      </trkpt>
      <trkpt lat="44.40149" lon="7.12006">
        <ele>2206.8</ele>
        <time>2022-07-18T16:09:50Z</time>
      </trkpt>
      <trkpt lat="44.40148" lon="7.12007">
        <ele>2206.8</ele>
        <time>2022-07-18T16:09:51Z</time>
      </trkpt>
      <trkpt lat="44.40149" lon="7.12009">
        <ele>2206.8</ele>
        <time>2022-07-18T16:09:52Z</time>
      </trkpt>
      <trkpt lat="44.40149" lon="7.1201">
        <ele>2207</ele>
        <time>2022-07-18T16:09:53Z</time>
      </trkpt>
      <trkpt lat="44.40149" lon="7.12012">
        <ele>2207</ele>
        <time>2022-07-18T16:09:54Z</time>
      </trkpt>
      <trkpt lat="44.40149" lon="7.12014">
        <ele>2207</ele>
        <time>2022-07-18T16:09:55Z</time>
      </trkpt>
      <trkpt lat="44.40149" lon="7.12015">
        <ele>2207</ele>
        <time>2022-07-18T16:09:56Z</time>
      </trkpt>
      <trkpt lat="44.40149" lon="7.12017">
        <ele>2207.2</ele>
        <time>2022-07-18T16:09:57Z</time>
      </trkpt>
      <trkpt lat="44.40148" lon="7.12018">
        <ele>2207.2</ele>
        <time>2022-07-18T16:09:58Z</time>
      </trkpt>
      <trkpt lat="44.40148" lon="7.1202">
        <ele>2207.2</ele>
        <time>2022-07-18T16:09:59Z</time>
      </trkpt>
      <trkpt lat="44.40148" lon="7.12021">
        <ele>2207.6</ele>
        <time>2022-07-18T16:10:00Z</time>
      </trkpt>
      <trkpt lat="44.40148" lon="7.12022">
        <ele>2207.6</ele>
        <time>2022-07-18T16:10:01Z</time>
      </trkpt>
      <trkpt lat="44.40148" lon="7.12024">
        <ele>2207.8</ele>
        <time>2022-07-18T16:10:02Z</time>
      </trkpt>
      <trkpt lat="44.40147" lon="7.12025">
        <ele>2207.8</ele>
        <time>2022-07-18T16:10:03Z</time>
      </trkpt>
      <trkpt lat="44.40147" lon="7.12027">
        <ele>2208.2</ele>
        <time>2022-07-18T16:10:04Z</time>
      </trkpt>
      <trkpt lat="44.40147" lon="7.12028">
        <ele>2208.2</ele>
        <time>2022-07-18T16:10:05Z</time>
      </trkpt>
      <trkpt lat="44.40147" lon="7.1203">
        <ele>2208.2</ele>
        <time>2022-07-18T16:10:06Z</time>
      </trkpt>
      <trkpt lat="44.40146" lon="7.12031">
        <ele>2208.4</ele>
        <time>2022-07-18T16:10:07Z</time>
      </trkpt>
      <trkpt lat="44.40145" lon="7.12032">
        <ele>2208.4</ele>
        <time>2022-07-18T16:10:08Z</time>
      </trkpt>
      <trkpt lat="44.40145" lon="7.12034">
        <ele>2208.4</ele>
        <time>2022-07-18T16:10:09Z</time>
      </trkpt>
      <trkpt lat="44.40144" lon="7.12035">
        <ele>2208.4</ele>
        <time>2022-07-18T16:10:10Z</time>
      </trkpt>
      <trkpt lat="44.40144" lon="7.12037">
        <ele>2208.6</ele>
        <time>2022-07-18T16:10:11Z</time>
      </trkpt>
      <trkpt lat="44.40143" lon="7.12039">
        <ele>2208.6</ele>
        <time>2022-07-18T16:10:12Z</time>
      </trkpt>
      <trkpt lat="44.40143" lon="7.12041">
        <ele>2208.8</ele>
        <time>2022-07-18T16:10:13Z</time>
      </trkpt>
      <trkpt lat="44.40142" lon="7.12042">
        <ele>2208.8</ele>
        <time>2022-07-18T16:10:14Z</time>
      </trkpt>
      <trkpt lat="44.40142" lon="7.12043">
        <ele>2209.2</ele>
        <time>2022-07-18T16:10:15Z</time>
      </trkpt>
      <trkpt lat="44.40142" lon="7.12045">
        <ele>2209.2</ele>
        <time>2022-07-18T16:10:16Z</time>
      </trkpt>
      <trkpt lat="44.40141" lon="7.12046">
        <ele>2209.2</ele>
        <time>2022-07-18T16:10:17Z</time>
      </trkpt>
      <trkpt lat="44.40141" lon="7.12047">
        <ele>2209.4</ele>
        <time>2022-07-18T16:10:18Z</time>
      </trkpt>
      <trkpt lat="44.40141" lon="7.12049">
        <ele>2209.4</ele>
        <time>2022-07-18T16:10:19Z</time>
      </trkpt>
      <trkpt lat="44.4014" lon="7.1205">
        <ele>2209.4</ele>
        <time>2022-07-18T16:10:20Z</time>
      </trkpt>
      <trkpt lat="44.4014" lon="7.12051">
        <ele>2209.6</ele>
        <time>2022-07-18T16:10:21Z</time>
      </trkpt>
      <trkpt lat="44.4014" lon="7.12053">
        <ele>2209.6</ele>
        <time>2022-07-18T16:10:22Z</time>
      </trkpt>
      <trkpt lat="44.40139" lon="7.12054">
        <ele>2210</ele>
        <time>2022-07-18T16:10:23Z</time>
      </trkpt>
      <trkpt lat="44.40139" lon="7.12055">
        <ele>2210</ele>
        <time>2022-07-18T16:10:24Z</time>
      </trkpt>
      <trkpt lat="44.40139" lon="7.12057">
        <ele>2210.2</ele>
        <time>2022-07-18T16:10:25Z</time>
      </trkpt>
      <trkpt lat="44.40138" lon="7.12058">
        <ele>2210.2</ele>
        <time>2022-07-18T16:10:26Z</time>
      </trkpt>
      <trkpt lat="44.40138" lon="7.12059">
        <ele>2210.4</ele>
        <time>2022-07-18T16:10:27Z</time>
      </trkpt>
      <trkpt lat="44.40138" lon="7.12061">
        <ele>2210.4</ele>
        <time>2022-07-18T16:10:28Z</time>
      </trkpt>
      <trkpt lat="44.40137" lon="7.12062">
        <ele>2210.4</ele>
        <time>2022-07-18T16:10:29Z</time>
      </trkpt>
      <trkpt lat="44.40137" lon="7.12063">
        <ele>2210.8</ele>
        <time>2022-07-18T16:10:30Z</time>
      </trkpt>
      <trkpt lat="44.40136" lon="7.12065">
        <ele>2210.8</ele>
        <time>2022-07-18T16:10:31Z</time>
      </trkpt>
      <trkpt lat="44.40136" lon="7.12066">
        <ele>2210.8</ele>
        <time>2022-07-18T16:10:32Z</time>
      </trkpt>
      <trkpt lat="44.40136" lon="7.12067">
        <ele>2211</ele>
        <time>2022-07-18T16:10:33Z</time>
      </trkpt>
      <trkpt lat="44.40135" lon="7.12069">
        <ele>2211</ele>
        <time>2022-07-18T16:10:34Z</time>
      </trkpt>
      <trkpt lat="44.40135" lon="7.1207">
        <ele>2211.2</ele>
        <time>2022-07-18T16:10:35Z</time>
      </trkpt>
      <trkpt lat="44.40135" lon="7.12071">
        <ele>2211.2</ele>
        <time>2022-07-18T16:10:36Z</time>
      </trkpt>
      <trkpt lat="44.40134" lon="7.12073">
        <ele>2211.2</ele>
        <time>2022-07-18T16:10:37Z</time>
      </trkpt>
      <trkpt lat="44.40134" lon="7.12074">
        <ele>2211.2</ele>
        <time>2022-07-18T16:10:38Z</time>
      </trkpt>
      <trkpt lat="44.40134" lon="7.12075">
        <ele>2211.4</ele>
        <time>2022-07-18T16:10:39Z</time>
      </trkpt>
      <trkpt lat="44.40133" lon="7.12077">
        <ele>2211.4</ele>
        <time>2022-07-18T16:10:40Z</time>
      </trkpt>
      <trkpt lat="44.40133" lon="7.12078">
        <ele>2211.4</ele>
        <time>2022-07-18T16:10:41Z</time>
      </trkpt>
      <trkpt lat="44.40133" lon="7.12079">
        <ele>2211.4</ele>
        <time>2022-07-18T16:10:42Z</time>
      </trkpt>
      <trkpt lat="44.40132" lon="7.12081">
        <ele>2211.6</ele>
        <time>2022-07-18T16:10:43Z</time>
      </trkpt>
      <trkpt lat="44.40132" lon="7.12082">
        <ele>2211.6</ele>
        <time>2022-07-18T16:10:44Z</time>
      </trkpt>
      <trkpt lat="44.40132" lon="7.12083">
        <ele>2211.6</ele>
        <time>2022-07-18T16:10:45Z</time>
      </trkpt>
      <trkpt lat="44.40131" lon="7.12085">
        <ele>2211.6</ele>
        <time>2022-07-18T16:10:46Z</time>
      </trkpt>
      <trkpt lat="44.40131" lon="7.12086">
        <ele>2212</ele>
        <time>2022-07-18T16:10:47Z</time>
      </trkpt>
      <trkpt lat="44.40131" lon="7.12087">
        <ele>2212</ele>
        <time>2022-07-18T16:10:48Z</time>
      </trkpt>
      <trkpt lat="44.4013" lon="7.12089">
        <ele>2212.2</ele>
        <time>2022-07-18T16:10:49Z</time>
      </trkpt>
      <trkpt lat="44.4013" lon="7.1209">
        <ele>2212.2</ele>
        <time>2022-07-18T16:10:50Z</time>
      </trkpt>
      <trkpt lat="44.4013" lon="7.12091">
        <ele>2212.2</ele>
        <time>2022-07-18T16:10:51Z</time>
      </trkpt>
      <trkpt lat="44.40129" lon="7.12093">
        <ele>2212.4</ele>
        <time>2022-07-18T16:10:52Z</time>
      </trkpt>
      <trkpt lat="44.40129" lon="7.12094">
        <ele>2212.4</ele>
        <time>2022-07-18T16:10:53Z</time>
      </trkpt>
      <trkpt lat="44.40129" lon="7.12095">
        <ele>2212.4</ele>
        <time>2022-07-18T16:10:54Z</time>
      </trkpt>
      <trkpt lat="44.40128" lon="7.12097">
        <ele>2212.6</ele>
        <time>2022-07-18T16:10:55Z</time>
      </trkpt>
      <trkpt lat="44.40128" lon="7.12098">
        <ele>2212.6</ele>
        <time>2022-07-18T16:10:56Z</time>
      </trkpt>
      <trkpt lat="44.40128" lon="7.12099">
        <ele>2212.8</ele>
        <time>2022-07-18T16:10:57Z</time>
      </trkpt>
      <trkpt lat="44.40127" lon="7.12101">
        <ele>2212.8</ele>
        <time>2022-07-18T16:10:58Z</time>
      </trkpt>
      <trkpt lat="44.40127" lon="7.12102">
        <ele>2212.8</ele>
        <time>2022-07-18T16:10:59Z</time>
      </trkpt>
      <trkpt lat="44.40127" lon="7.12103">
        <ele>2213.2</ele>
        <time>2022-07-18T16:11:00Z</time>
      </trkpt>
      <trkpt lat="44.40126" lon="7.12105">
        <ele>2213.2</ele>
        <time>2022-07-18T16:11:01Z</time>
      </trkpt>
      <trkpt lat="44.40126" lon="7.12106">
        <ele>2213.4</ele>
        <time>2022-07-18T16:11:02Z</time>
      </trkpt>
      <trkpt lat="44.40126" lon="7.12107">
        <ele>2213.4</ele>
        <time>2022-07-18T16:11:03Z</time>
      </trkpt>
      <trkpt lat="44.40125" lon="7.12109">
        <ele>2213.4</ele>
        <time>2022-07-18T16:11:04Z</time>
      </trkpt>
      <trkpt lat="44.40125" lon="7.1211">
        <ele>2213.6</ele>
        <time>2022-07-18T16:11:05Z</time>
      </trkpt>
      <trkpt lat="44.40125" lon="7.12111">
        <ele>2213.6</ele>
        <time>2022-07-18T16:11:06Z</time>
      </trkpt>
      <trkpt lat="44.40124" lon="7.12113">
        <ele>2213.6</ele>
        <time>2022-07-18T16:11:07Z</time>
      </trkpt>
      <trkpt lat="44.40124" lon="7.12114">
        <ele>2213.6</ele>
        <time>2022-07-18T16:11:08Z</time>
      </trkpt>
      <trkpt lat="44.40124" lon="7.12115">
        <ele>2213.8</ele>
        <time>2022-07-18T16:11:09Z</time>
      </trkpt>
      <trkpt lat="44.40123" lon="7.12117">
        <ele>2213.8</ele>
        <time>2022-07-18T16:11:10Z</time>
      </trkpt>
      <trkpt lat="44.40123" lon="7.12118">
        <ele>2213.8</ele>
        <time>2022-07-18T16:11:11Z</time>
      </trkpt>
      <trkpt lat="44.40123" lon="7.12119">
        <ele>2213.8</ele>
        <time>2022-07-18T16:11:12Z</time>
      </trkpt>
      <trkpt lat="44.40122" lon="7.12121">
        <ele>2214.2</ele>
        <time>2022-07-18T16:11:13Z</time>
      </trkpt>
      <trkpt lat="44.40122" lon="7.12122">
        <ele>2214.2</ele>
        <time>2022-07-18T16:11:14Z</time>
      </trkpt>
      <trkpt lat="44.40122" lon="7.12123">
        <ele>2214.2</ele>
        <time>2022-07-18T16:11:15Z</time>
      </trkpt>
      <trkpt lat="44.40121" lon="7.12125">
        <ele>2214.4</ele>
        <time>2022-07-18T16:11:16Z</time>
      </trkpt>
      <trkpt lat="44.40121" lon="7.12126">
        <ele>2214.4</ele>
        <time>2022-07-18T16:11:17Z</time>
      </trkpt>
      <trkpt lat="44.40121" lon="7.12127">
        <ele>2214.6</ele>
        <time>2022-07-18T16:11:18Z</time>
      </trkpt>
      <trkpt lat="44.4012" lon="7.12129">
        <ele>2214.6</ele>
        <time>2022-07-18T16:11:19Z</time>
      </trkpt>
      <trkpt lat="44.4012" lon="7.1213">
        <ele>2214.6</ele>
        <time>2022-07-18T16:11:20Z</time>
      </trkpt>
      <trkpt lat="44.40119" lon="7.12131">
        <ele>2215</ele>
        <time>2022-07-18T16:11:21Z</time>
      </trkpt>
      <trkpt lat="44.40118" lon="7.12132">
        <ele>2215</ele>
        <time>2022-07-18T16:11:22Z</time>
      </trkpt>
      <trkpt lat="44.40117" lon="7.12133">
        <ele>2215.2</ele>
        <time>2022-07-18T16:11:23Z</time>
      </trkpt>
      <trkpt lat="44.40116" lon="7.12134">
        <ele>2215.2</ele>
        <time>2022-07-18T16:11:24Z</time>
      </trkpt>
      <trkpt lat="44.40115" lon="7.12135">
        <ele>2215.4</ele>
        <time>2022-07-18T16:11:25Z</time>
      </trkpt>
      <trkpt lat="44.40114" lon="7.12135">
        <ele>2215.4</ele>
        <time>2022-07-18T16:11:26Z</time>
      </trkpt>
      <trkpt lat="44.40113" lon="7.12136">
        <ele>2215.4</ele>
        <time>2022-07-18T16:11:27Z</time>
      </trkpt>
      <trkpt lat="44.40112" lon="7.12137">
        <ele>2215.4</ele>
        <time>2022-07-18T16:11:28Z</time>
      </trkpt>
      <trkpt lat="44.40111" lon="7.12138">
        <ele>2215.6</ele>
        <time>2022-07-18T16:11:29Z</time>
      </trkpt>
      <trkpt lat="44.4011" lon="7.12139">
        <ele>2215.6</ele>
        <time>2022-07-18T16:11:30Z</time>
      </trkpt>
      <trkpt lat="44.40109" lon="7.1214">
        <ele>2215.6</ele>
        <time>2022-07-18T16:11:31Z</time>
      </trkpt>
      <trkpt lat="44.40108" lon="7.12141">
        <ele>2215.6</ele>
        <time>2022-07-18T16:11:32Z</time>
      </trkpt>
      <trkpt lat="44.40108" lon="7.12142">
        <ele>2215.8</ele>
        <time>2022-07-18T16:11:33Z</time>
      </trkpt>
      <trkpt lat="44.40107" lon="7.12143">
        <ele>2215.8</ele>
        <time>2022-07-18T16:11:34Z</time>
      </trkpt>
      <trkpt lat="44.40107" lon="7.12144">
        <ele>2215.8</ele>
        <time>2022-07-18T16:11:35Z</time>
      </trkpt>
      <trkpt lat="44.40106" lon="7.12146">
        <ele>2215.8</ele>
        <time>2022-07-18T16:11:36Z</time>
      </trkpt>
      <trkpt lat="44.40106" lon="7.12147">
        <ele>2216.2</ele>
        <time>2022-07-18T16:11:37Z</time>
      </trkpt>
      <trkpt lat="44.40106" lon="7.12148">
        <ele>2216.2</ele>
        <time>2022-07-18T16:11:38Z</time>
      </trkpt>
      <trkpt lat="44.40106" lon="7.12149">
        <ele>2216.2</ele>
        <time>2022-07-18T16:11:39Z</time>
      </trkpt>
      <trkpt lat="44.40105" lon="7.12151">
        <ele>2216.2</ele>
        <time>2022-07-18T16:11:40Z</time>
      </trkpt>
      <trkpt lat="44.40105" lon="7.12152">
        <ele>2216.4</ele>
        <time>2022-07-18T16:11:41Z</time>
      </trkpt>
      <trkpt lat="44.40105" lon="7.12153">
        <ele>2216.4</ele>
        <time>2022-07-18T16:11:42Z</time>
      </trkpt>
      <trkpt lat="44.40105" lon="7.12154">
        <ele>2216.4</ele>
        <time>2022-07-18T16:11:43Z</time>
      </trkpt>
      <trkpt lat="44.40105" lon="7.12155">
        <ele>2216.6</ele>
        <time>2022-07-18T16:11:44Z</time>
      </trkpt>
      <trkpt lat="44.40104" lon="7.12156">
        <ele>2216.6</ele>
        <time>2022-07-18T16:11:45Z</time>
      </trkpt>
      <trkpt lat="44.40104" lon="7.12159">
        <ele>2216.8</ele>
        <time>2022-07-18T16:11:47Z</time>
      </trkpt>
      <trkpt lat="44.40104" lon="7.12159">
        <ele>2216.8</ele>
        <time>2022-07-18T16:11:48Z</time>
      </trkpt>
      <trkpt lat="44.40103" lon="7.1216">
        <ele>2217.2</ele>
        <time>2022-07-18T16:11:49Z</time>
      </trkpt>
      <trkpt lat="44.40103" lon="7.1216">
        <ele>2217.2</ele>
        <time>2022-07-18T16:11:54Z</time>
      </trkpt>
      <trkpt lat="44.40103" lon="7.12162">
        <ele>2217.4</ele>
        <time>2022-07-18T16:11:57Z</time>
      </trkpt>
      <trkpt lat="44.40102" lon="7.12164">
        <ele>2217.4</ele>
        <time>2022-07-18T16:11:58Z</time>
      </trkpt>
      <trkpt lat="44.40102" lon="7.12165">
        <ele>2217.6</ele>
        <time>2022-07-18T16:11:59Z</time>
      </trkpt>
      <trkpt lat="44.40101" lon="7.12166">
        <ele>2217.6</ele>
        <time>2022-07-18T16:12:00Z</time>
      </trkpt>
      <trkpt lat="44.401" lon="7.12167">
        <ele>2217.6</ele>
        <time>2022-07-18T16:12:01Z</time>
      </trkpt>
      <trkpt lat="44.401" lon="7.12168">
        <ele>2217.8</ele>
        <time>2022-07-18T16:12:02Z</time>
      </trkpt>
      <trkpt lat="44.40099" lon="7.12169">
        <ele>2217.8</ele>
        <time>2022-07-18T16:12:03Z</time>
      </trkpt>
      <trkpt lat="44.40099" lon="7.12171">
        <ele>2217.8</ele>
        <time>2022-07-18T16:12:04Z</time>
      </trkpt>
      <trkpt lat="44.40098" lon="7.12172">
        <ele>2217.8</ele>
        <time>2022-07-18T16:12:05Z</time>
      </trkpt>
      <trkpt lat="44.40097" lon="7.12172">
        <ele>2218</ele>
        <time>2022-07-18T16:12:06Z</time>
      </trkpt>
      <trkpt lat="44.40096" lon="7.12173">
        <ele>2218</ele>
        <time>2022-07-18T16:12:07Z</time>
      </trkpt>
      <trkpt lat="44.40096" lon="7.12173">
        <ele>2218</ele>
        <time>2022-07-18T16:12:08Z</time>
      </trkpt>
      <trkpt lat="44.40096" lon="7.12173">
        <ele>2218.2</ele>
        <time>2022-07-18T16:12:13Z</time>
      </trkpt>
      <trkpt lat="44.40093" lon="7.12176">
        <ele>2218.6</ele>
        <time>2022-07-18T16:12:18Z</time>
      </trkpt>
      <trkpt lat="44.40092" lon="7.12177">
        <ele>2218.6</ele>
        <time>2022-07-18T16:12:19Z</time>
      </trkpt>
      <trkpt lat="44.4009" lon="7.12177">
        <ele>2218.8</ele>
        <time>2022-07-18T16:12:20Z</time>
      </trkpt>
      <trkpt lat="44.40089" lon="7.12178">
        <ele>2218.8</ele>
        <time>2022-07-18T16:12:21Z</time>
      </trkpt>
      <trkpt lat="44.40087" lon="7.12178">
        <ele>2218.8</ele>
        <time>2022-07-18T16:12:22Z</time>
      </trkpt>
      <trkpt lat="44.40086" lon="7.12179">
        <ele>2219</ele>
        <time>2022-07-18T16:12:23Z</time>
      </trkpt>
      <trkpt lat="44.40084" lon="7.12179">
        <ele>2219</ele>
        <time>2022-07-18T16:12:24Z</time>
      </trkpt>
      <trkpt lat="44.40082" lon="7.1218">
        <ele>2219.2</ele>
        <time>2022-07-18T16:12:25Z</time>
      </trkpt>
      <trkpt lat="44.40081" lon="7.1218">
        <ele>2219.2</ele>
        <time>2022-07-18T16:12:26Z</time>
      </trkpt>
      <trkpt lat="44.40079" lon="7.1218">
        <ele>2219.4</ele>
        <time>2022-07-18T16:12:27Z</time>
      </trkpt>
      <trkpt lat="44.40077" lon="7.1218">
        <ele>2219.4</ele>
        <time>2022-07-18T16:12:28Z</time>
      </trkpt>
      <trkpt lat="44.40076" lon="7.12181">
        <ele>2219.8</ele>
        <time>2022-07-18T16:12:29Z</time>
      </trkpt>
      <trkpt lat="44.40074" lon="7.12181">
        <ele>2219.8</ele>
        <time>2022-07-18T16:12:30Z</time>
      </trkpt>
      <trkpt lat="44.40072" lon="7.12181">
        <ele>2219.8</ele>
        <time>2022-07-18T16:12:31Z</time>
      </trkpt>
      <trkpt lat="44.4007" lon="7.12182">
        <ele>2220</ele>
        <time>2022-07-18T16:12:32Z</time>
      </trkpt>
      <trkpt lat="44.40068" lon="7.12182">
        <ele>2220</ele>
        <time>2022-07-18T16:12:33Z</time>
      </trkpt>
      <trkpt lat="44.40066" lon="7.12182">
        <ele>2220</ele>
        <time>2022-07-18T16:12:34Z</time>
      </trkpt>
      <trkpt lat="44.40064" lon="7.12182">
        <ele>2220.2</ele>
        <time>2022-07-18T16:12:35Z</time>
      </trkpt>
      <trkpt lat="44.40063" lon="7.12182">
        <ele>2220.2</ele>
        <time>2022-07-18T16:12:36Z</time>
      </trkpt>
      <trkpt lat="44.40061" lon="7.12183">
        <ele>2220.2</ele>
        <time>2022-07-18T16:12:37Z</time>
      </trkpt>
      <trkpt lat="44.40059" lon="7.12183">
        <ele>2220.6</ele>
        <time>2022-07-18T16:12:38Z</time>
      </trkpt>
      <trkpt lat="44.40057" lon="7.12183">
        <ele>2220.6</ele>
        <time>2022-07-18T16:12:39Z</time>
      </trkpt>
      <trkpt lat="44.40055" lon="7.12184">
        <ele>2220.6</ele>
        <time>2022-07-18T16:12:40Z</time>
      </trkpt>
      <trkpt lat="44.40053" lon="7.12184">
        <ele>2220.8</ele>
        <time>2022-07-18T16:12:41Z</time>
      </trkpt>
      <trkpt lat="44.40052" lon="7.12184">
        <ele>2220.8</ele>
        <time>2022-07-18T16:12:42Z</time>
      </trkpt>
      <trkpt lat="44.4005" lon="7.12184">
        <ele>2221.2</ele>
        <time>2022-07-18T16:12:43Z</time>
      </trkpt>
      <trkpt lat="44.40049" lon="7.12183">
        <ele>2221.4</ele>
        <time>2022-07-18T16:12:44Z</time>
      </trkpt>
      <trkpt lat="44.40047" lon="7.12183">
        <ele>2221.4</ele>
        <time>2022-07-18T16:12:45Z</time>
      </trkpt>
      <trkpt lat="44.40046" lon="7.12182">
        <ele>2221.6</ele>
        <time>2022-07-18T16:12:46Z</time>
      </trkpt>
      <trkpt lat="44.40044" lon="7.12181">
        <ele>2221.6</ele>
        <time>2022-07-18T16:12:47Z</time>
      </trkpt>
      <trkpt lat="44.40043" lon="7.12179">
        <ele>2222</ele>
        <time>2022-07-18T16:12:48Z</time>
      </trkpt>
      <trkpt lat="44.40042" lon="7.12178">
        <ele>2222</ele>
        <time>2022-07-18T16:12:49Z</time>
      </trkpt>
      <trkpt lat="44.40041" lon="7.12177">
        <ele>2222.2</ele>
        <time>2022-07-18T16:12:50Z</time>
      </trkpt>
      <trkpt lat="44.4004" lon="7.12176">
        <ele>2222.2</ele>
        <time>2022-07-18T16:12:51Z</time>
      </trkpt>
      <trkpt lat="44.40038" lon="7.12174">
        <ele>2222.6</ele>
        <time>2022-07-18T16:12:52Z</time>
      </trkpt>
      <trkpt lat="44.40037" lon="7.12173">
        <ele>2222.6</ele>
        <time>2022-07-18T16:12:53Z</time>
      </trkpt>
      <trkpt lat="44.40036" lon="7.12172">
        <ele>2223</ele>
        <time>2022-07-18T16:12:54Z</time>
      </trkpt>
      <trkpt lat="44.40035" lon="7.1217">
        <ele>2223.2</ele>
        <time>2022-07-18T16:12:55Z</time>
      </trkpt>
      <trkpt lat="44.40033" lon="7.12169">
        <ele>2223.2</ele>
        <time>2022-07-18T16:12:56Z</time>
      </trkpt>
      <trkpt lat="44.40032" lon="7.12168">
        <ele>2223.4</ele>
        <time>2022-07-18T16:12:57Z</time>
      </trkpt>
      <trkpt lat="44.40031" lon="7.12166">
        <ele>2223.4</ele>
        <time>2022-07-18T16:12:58Z</time>
      </trkpt>
      <trkpt lat="44.4003" lon="7.12165">
        <ele>2223.6</ele>
        <time>2022-07-18T16:12:59Z</time>
      </trkpt>
      <trkpt lat="44.40029" lon="7.12164">
        <ele>2223.6</ele>
        <time>2022-07-18T16:13:00Z</time>
      </trkpt>
      <trkpt lat="44.40028" lon="7.12162">
        <ele>2224</ele>
        <time>2022-07-18T16:13:01Z</time>
      </trkpt>
      <trkpt lat="44.40027" lon="7.12161">
        <ele>2224</ele>
        <time>2022-07-18T16:13:02Z</time>
      </trkpt>
      <trkpt lat="44.40027" lon="7.12159">
        <ele>2224.4</ele>
        <time>2022-07-18T16:13:03Z</time>
      </trkpt>
      <trkpt lat="44.40026" lon="7.12158">
        <ele>2224.4</ele>
        <time>2022-07-18T16:13:04Z</time>
      </trkpt>
      <trkpt lat="44.40025" lon="7.12156">
        <ele>2224.6</ele>
        <time>2022-07-18T16:13:05Z</time>
      </trkpt>
      <trkpt lat="44.40024" lon="7.12155">
        <ele>2224.6</ele>
        <time>2022-07-18T16:13:06Z</time>
      </trkpt>
      <trkpt lat="44.40023" lon="7.12153">
        <ele>2225</ele>
        <time>2022-07-18T16:13:07Z</time>
      </trkpt>
      <trkpt lat="44.40023" lon="7.12151">
        <ele>2225</ele>
        <time>2022-07-18T16:13:08Z</time>
      </trkpt>
      <trkpt lat="44.40022" lon="7.1215">
        <ele>2225.2</ele>
        <time>2022-07-18T16:13:09Z</time>
      </trkpt>
      <trkpt lat="44.40021" lon="7.12148">
        <ele>2225.2</ele>
        <time>2022-07-18T16:13:10Z</time>
      </trkpt>
      <trkpt lat="44.4002" lon="7.12146">
        <ele>2225.6</ele>
        <time>2022-07-18T16:13:11Z</time>
      </trkpt>
      <trkpt lat="44.40019" lon="7.12144">
        <ele>2225.6</ele>
        <time>2022-07-18T16:13:12Z</time>
      </trkpt>
      <trkpt lat="44.40019" lon="7.12143">
        <ele>2225.8</ele>
        <time>2022-07-18T16:13:13Z</time>
      </trkpt>
      <trkpt lat="44.40018" lon="7.12141">
        <ele>2225.8</ele>
        <time>2022-07-18T16:13:14Z</time>
      </trkpt>
      <trkpt lat="44.40017" lon="7.12139">
        <ele>2226.2</ele>
        <time>2022-07-18T16:13:15Z</time>
      </trkpt>
      <trkpt lat="44.40017" lon="7.12137">
        <ele>2226.2</ele>
        <time>2022-07-18T16:13:16Z</time>
      </trkpt>
      <trkpt lat="44.40016" lon="7.12136">
        <ele>2226.4</ele>
        <time>2022-07-18T16:13:17Z</time>
      </trkpt>
      <trkpt lat="44.40015" lon="7.12134">
        <ele>2226.4</ele>
        <time>2022-07-18T16:13:18Z</time>
      </trkpt>
      <trkpt lat="44.40014" lon="7.12132">
        <ele>2226.8</ele>
        <time>2022-07-18T16:13:19Z</time>
      </trkpt>
      <trkpt lat="44.40013" lon="7.12131">
        <ele>2226.8</ele>
        <time>2022-07-18T16:13:20Z</time>
      </trkpt>
      <trkpt lat="44.40012" lon="7.12129">
        <ele>2227.2</ele>
        <time>2022-07-18T16:13:21Z</time>
      </trkpt>
      <trkpt lat="44.40011" lon="7.12127">
        <ele>2227.2</ele>
        <time>2022-07-18T16:13:22Z</time>
      </trkpt>
      <trkpt lat="44.4001" lon="7.12125">
        <ele>2227.4</ele>
        <time>2022-07-18T16:13:23Z</time>
      </trkpt>
      <trkpt lat="44.40009" lon="7.12123">
        <ele>2227.4</ele>
        <time>2022-07-18T16:13:24Z</time>
      </trkpt>
      <trkpt lat="44.40008" lon="7.12121">
        <ele>2227.6</ele>
        <time>2022-07-18T16:13:25Z</time>
      </trkpt>
      <trkpt lat="44.40007" lon="7.1212">
        <ele>2227.6</ele>
        <time>2022-07-18T16:13:26Z</time>
      </trkpt>
      <trkpt lat="44.40006" lon="7.12118">
        <ele>2227.8</ele>
        <time>2022-07-18T16:13:27Z</time>
      </trkpt>
      <trkpt lat="44.40006" lon="7.12116">
        <ele>2227.8</ele>
        <time>2022-07-18T16:13:28Z</time>
      </trkpt>
      <trkpt lat="44.40005" lon="7.12114">
        <ele>2228</ele>
        <time>2022-07-18T16:13:29Z</time>
      </trkpt>
      <trkpt lat="44.40005" lon="7.12112">
        <ele>2228.2</ele>
        <time>2022-07-18T16:13:30Z</time>
      </trkpt>
      <trkpt lat="44.40004" lon="7.1211">
        <ele>2228.2</ele>
        <time>2022-07-18T16:13:31Z</time>
      </trkpt>
      <trkpt lat="44.40003" lon="7.12109">
        <ele>2228.6</ele>
        <time>2022-07-18T16:13:32Z</time>
      </trkpt>
      <trkpt lat="44.40002" lon="7.12107">
        <ele>2228.6</ele>
        <time>2022-07-18T16:13:33Z</time>
      </trkpt>
      <trkpt lat="44.40001" lon="7.12105">
        <ele>2228.6</ele>
        <time>2022-07-18T16:13:34Z</time>
      </trkpt>
      <trkpt lat="44.4" lon="7.12104">
        <ele>2228.8</ele>
        <time>2022-07-18T16:13:35Z</time>
      </trkpt>
      <trkpt lat="44.39999" lon="7.12103">
        <ele>2228.8</ele>
        <time>2022-07-18T16:13:36Z</time>
      </trkpt>
      <trkpt lat="44.39998" lon="7.12101">
        <ele>2229.2</ele>
        <time>2022-07-18T16:13:37Z</time>
      </trkpt>
      <trkpt lat="44.39997" lon="7.121">
        <ele>2229.2</ele>
        <time>2022-07-18T16:13:38Z</time>
      </trkpt>
      <trkpt lat="44.39996" lon="7.12099">
        <ele>2229.4</ele>
        <time>2022-07-18T16:13:39Z</time>
      </trkpt>
      <trkpt lat="44.39995" lon="7.12098">
        <ele>2229.4</ele>
        <time>2022-07-18T16:13:40Z</time>
      </trkpt>
      <trkpt lat="44.39994" lon="7.12097">
        <ele>2229.6</ele>
        <time>2022-07-18T16:13:41Z</time>
      </trkpt>
      <trkpt lat="44.39992" lon="7.12096">
        <ele>2229.6</ele>
        <time>2022-07-18T16:13:42Z</time>
      </trkpt>
      <trkpt lat="44.39991" lon="7.12095">
        <ele>2230</ele>
        <time>2022-07-18T16:13:43Z</time>
      </trkpt>
      <trkpt lat="44.39989" lon="7.12095">
        <ele>2230</ele>
        <time>2022-07-18T16:13:44Z</time>
      </trkpt>
      <trkpt lat="44.39988" lon="7.12094">
        <ele>2230.2</ele>
        <time>2022-07-18T16:13:45Z</time>
      </trkpt>
      <trkpt lat="44.39987" lon="7.12093">
        <ele>2230.2</ele>
        <time>2022-07-18T16:13:46Z</time>
      </trkpt>
      <trkpt lat="44.39986" lon="7.12092">
        <ele>2230.6</ele>
        <time>2022-07-18T16:13:47Z</time>
      </trkpt>
      <trkpt lat="44.39985" lon="7.12091">
        <ele>2230.6</ele>
        <time>2022-07-18T16:13:48Z</time>
      </trkpt>
      <trkpt lat="44.39983" lon="7.1209">
        <ele>2230.8</ele>
        <time>2022-07-18T16:13:49Z</time>
      </trkpt>
      <trkpt lat="44.39982" lon="7.12089">
        <ele>2230.8</ele>
        <time>2022-07-18T16:13:50Z</time>
      </trkpt>
      <trkpt lat="44.39981" lon="7.12088">
        <ele>2231.2</ele>
        <time>2022-07-18T16:13:51Z</time>
      </trkpt>
      <trkpt lat="44.3998" lon="7.12086">
        <ele>2231.2</ele>
        <time>2022-07-18T16:13:52Z</time>
      </trkpt>
      <trkpt lat="44.39978" lon="7.12085">
        <ele>2231.2</ele>
        <time>2022-07-18T16:13:53Z</time>
      </trkpt>
      <trkpt lat="44.39977" lon="7.12085">
        <ele>2231.4</ele>
        <time>2022-07-18T16:13:54Z</time>
      </trkpt>
      <trkpt lat="44.39975" lon="7.12084">
        <ele>2231.4</ele>
        <time>2022-07-18T16:13:55Z</time>
      </trkpt>
      <trkpt lat="44.39974" lon="7.12083">
        <ele>2231.6</ele>
        <time>2022-07-18T16:13:56Z</time>
      </trkpt>
      <trkpt lat="44.39973" lon="7.12082">
        <ele>2231.6</ele>
        <time>2022-07-18T16:13:57Z</time>
      </trkpt>
      <trkpt lat="44.39971" lon="7.12081">
        <ele>2232</ele>
        <time>2022-07-18T16:13:58Z</time>
      </trkpt>
      <trkpt lat="44.3997" lon="7.1208">
        <ele>2232</ele>
        <time>2022-07-18T16:13:59Z</time>
      </trkpt>
      <trkpt lat="44.39968" lon="7.1208">
        <ele>2232.2</ele>
        <time>2022-07-18T16:14:00Z</time>
      </trkpt>
      <trkpt lat="44.39967" lon="7.12079">
        <ele>2232.2</ele>
        <time>2022-07-18T16:14:01Z</time>
      </trkpt>
      <trkpt lat="44.39966" lon="7.12079">
        <ele>2232.6</ele>
        <time>2022-07-18T16:14:02Z</time>
      </trkpt>
      <trkpt lat="44.39964" lon="7.12078">
        <ele>2232.8</ele>
        <time>2022-07-18T16:14:03Z</time>
      </trkpt>
      <trkpt lat="44.39963" lon="7.12078">
        <ele>2232.8</ele>
        <time>2022-07-18T16:14:04Z</time>
      </trkpt>
      <trkpt lat="44.39962" lon="7.12077">
        <ele>2233.2</ele>
        <time>2022-07-18T16:14:05Z</time>
      </trkpt>
      <trkpt lat="44.3996" lon="7.12077">
        <ele>2233.2</ele>
        <time>2022-07-18T16:14:06Z</time>
      </trkpt>
      <trkpt lat="44.39959" lon="7.12076">
        <ele>2233.6</ele>
        <time>2022-07-18T16:14:07Z</time>
      </trkpt>
      <trkpt lat="44.39957" lon="7.12076">
        <ele>2233.6</ele>
        <time>2022-07-18T16:14:08Z</time>
      </trkpt>
      <trkpt lat="44.39956" lon="7.12076">
        <ele>2233.8</ele>
        <time>2022-07-18T16:14:09Z</time>
      </trkpt>
      <trkpt lat="44.39954" lon="7.12076">
        <ele>2233.8</ele>
        <time>2022-07-18T16:14:10Z</time>
      </trkpt>
      <trkpt lat="44.39953" lon="7.12075">
        <ele>2233.8</ele>
        <time>2022-07-18T16:14:11Z</time>
      </trkpt>
      <trkpt lat="44.39952" lon="7.12075">
        <ele>2234.2</ele>
        <time>2022-07-18T16:14:12Z</time>
      </trkpt>
      <trkpt lat="44.3995" lon="7.12076">
        <ele>2234.2</ele>
        <time>2022-07-18T16:14:13Z</time>
      </trkpt>
      <trkpt lat="44.39949" lon="7.12076">
        <ele>2234.2</ele>
        <time>2022-07-18T16:14:14Z</time>
      </trkpt>
      <trkpt lat="44.39947" lon="7.12076">
        <ele>2234.4</ele>
        <time>2022-07-18T16:14:15Z</time>
      </trkpt>
      <trkpt lat="44.39946" lon="7.12076">
        <ele>2234.4</ele>
        <time>2022-07-18T16:14:16Z</time>
      </trkpt>
      <trkpt lat="44.39944" lon="7.12076">
        <ele>2234.6</ele>
        <time>2022-07-18T16:14:17Z</time>
      </trkpt>
      <trkpt lat="44.39943" lon="7.12076">
        <ele>2234.6</ele>
        <time>2022-07-18T16:14:18Z</time>
      </trkpt>
      <trkpt lat="44.39941" lon="7.12076">
        <ele>2234.8</ele>
        <time>2022-07-18T16:14:19Z</time>
      </trkpt>
      <trkpt lat="44.3994" lon="7.12076">
        <ele>2234.8</ele>
        <time>2022-07-18T16:14:20Z</time>
      </trkpt>
      <trkpt lat="44.39939" lon="7.12076">
        <ele>2235.2</ele>
        <time>2022-07-18T16:14:21Z</time>
      </trkpt>
      <trkpt lat="44.39937" lon="7.12075">
        <ele>2235.2</ele>
        <time>2022-07-18T16:14:22Z</time>
      </trkpt>
      <trkpt lat="44.39936" lon="7.12075">
        <ele>2235.6</ele>
        <time>2022-07-18T16:14:23Z</time>
      </trkpt>
      <trkpt lat="44.39934" lon="7.12074">
        <ele>2235.6</ele>
        <time>2022-07-18T16:14:24Z</time>
      </trkpt>
      <trkpt lat="44.39932" lon="7.12074">
        <ele>2235.8</ele>
        <time>2022-07-18T16:14:25Z</time>
      </trkpt>
      <trkpt lat="44.3993" lon="7.12074">
        <ele>2235.8</ele>
        <time>2022-07-18T16:14:26Z</time>
      </trkpt>
      <trkpt lat="44.39928" lon="7.12073">
        <ele>2236</ele>
        <time>2022-07-18T16:14:27Z</time>
      </trkpt>
      <trkpt lat="44.39927" lon="7.12073">
        <ele>2236</ele>
        <time>2022-07-18T16:14:28Z</time>
      </trkpt>
      <trkpt lat="44.39925" lon="7.12073">
        <ele>2236.4</ele>
        <time>2022-07-18T16:14:29Z</time>
      </trkpt>
      <trkpt lat="44.39924" lon="7.12073">
        <ele>2236.4</ele>
        <time>2022-07-18T16:14:30Z</time>
      </trkpt>
      <trkpt lat="44.39922" lon="7.12073">
        <ele>2236.6</ele>
        <time>2022-07-18T16:14:31Z</time>
      </trkpt>
      <trkpt lat="44.39921" lon="7.12073">
        <ele>2236.6</ele>
        <time>2022-07-18T16:14:32Z</time>
      </trkpt>
      <trkpt lat="44.39919" lon="7.12072">
        <ele>2237</ele>
        <time>2022-07-18T16:14:33Z</time>
      </trkpt>
      <trkpt lat="44.39918" lon="7.12072">
        <ele>2237</ele>
        <time>2022-07-18T16:14:34Z</time>
      </trkpt>
      <trkpt lat="44.39916" lon="7.12072">
        <ele>2237.4</ele>
        <time>2022-07-18T16:14:35Z</time>
      </trkpt>
      <trkpt lat="44.39915" lon="7.12073">
        <ele>2237.4</ele>
        <time>2022-07-18T16:14:36Z</time>
      </trkpt>
      <trkpt lat="44.39913" lon="7.12073">
        <ele>2237.6</ele>
        <time>2022-07-18T16:14:37Z</time>
      </trkpt>
      <trkpt lat="44.39912" lon="7.12074">
        <ele>2237.6</ele>
        <time>2022-07-18T16:14:38Z</time>
      </trkpt>
      <trkpt lat="44.3991" lon="7.12075">
        <ele>2238</ele>
        <time>2022-07-18T16:14:39Z</time>
      </trkpt>
      <trkpt lat="44.39909" lon="7.12077">
        <ele>2238</ele>
        <time>2022-07-18T16:14:40Z</time>
      </trkpt>
      <trkpt lat="44.39908" lon="7.12078">
        <ele>2238.2</ele>
        <time>2022-07-18T16:14:41Z</time>
      </trkpt>
      <trkpt lat="44.39906" lon="7.12079">
        <ele>2238.2</ele>
        <time>2022-07-18T16:14:42Z</time>
      </trkpt>
      <trkpt lat="44.39905" lon="7.1208">
        <ele>2238.4</ele>
        <time>2022-07-18T16:14:43Z</time>
      </trkpt>
      <trkpt lat="44.39903" lon="7.1208">
        <ele>2238.4</ele>
        <time>2022-07-18T16:14:44Z</time>
      </trkpt>
      <trkpt lat="44.39902" lon="7.12081">
        <ele>2238.6</ele>
        <time>2022-07-18T16:14:45Z</time>
      </trkpt>
      <trkpt lat="44.39901" lon="7.12082">
        <ele>2238.6</ele>
        <time>2022-07-18T16:14:46Z</time>
      </trkpt>
      <trkpt lat="44.39899" lon="7.12082">
        <ele>2238.8</ele>
        <time>2022-07-18T16:14:47Z</time>
      </trkpt>
      <trkpt lat="44.39898" lon="7.12083">
        <ele>2238.8</ele>
        <time>2022-07-18T16:14:48Z</time>
      </trkpt>
      <trkpt lat="44.39897" lon="7.12084">
        <ele>2239.2</ele>
        <time>2022-07-18T16:14:49Z</time>
      </trkpt>
      <trkpt lat="44.39895" lon="7.12085">
        <ele>2239.2</ele>
        <time>2022-07-18T16:14:50Z</time>
      </trkpt>
      <trkpt lat="44.39894" lon="7.12086">
        <ele>2239.4</ele>
        <time>2022-07-18T16:14:51Z</time>
      </trkpt>
      <trkpt lat="44.39893" lon="7.12086">
        <ele>2239.4</ele>
        <time>2022-07-18T16:14:52Z</time>
      </trkpt>
      <trkpt lat="44.39891" lon="7.12087">
        <ele>2239.8</ele>
        <time>2022-07-18T16:14:53Z</time>
      </trkpt>
      <trkpt lat="44.3989" lon="7.12087">
        <ele>2239.8</ele>
        <time>2022-07-18T16:14:54Z</time>
      </trkpt>
      <trkpt lat="44.39889" lon="7.12088">
        <ele>2240.2</ele>
        <time>2022-07-18T16:14:55Z</time>
      </trkpt>
      <trkpt lat="44.39887" lon="7.12088">
        <ele>2240.2</ele>
        <time>2022-07-18T16:14:56Z</time>
      </trkpt>
      <trkpt lat="44.39886" lon="7.12089">
        <ele>2240.2</ele>
        <time>2022-07-18T16:14:57Z</time>
      </trkpt>
      <trkpt lat="44.39885" lon="7.12089">
        <ele>2240.4</ele>
        <time>2022-07-18T16:14:58Z</time>
      </trkpt>
      <trkpt lat="44.39883" lon="7.12089">
        <ele>2240.4</ele>
        <time>2022-07-18T16:14:59Z</time>
      </trkpt>
      <trkpt lat="44.39882" lon="7.1209">
        <ele>2240.8</ele>
        <time>2022-07-18T16:15:00Z</time>
      </trkpt>
      <trkpt lat="44.3988" lon="7.1209">
        <ele>2240.8</ele>
        <time>2022-07-18T16:15:01Z</time>
      </trkpt>
      <trkpt lat="44.39878" lon="7.12091">
        <ele>2241</ele>
        <time>2022-07-18T16:15:02Z</time>
      </trkpt>
      <trkpt lat="44.39877" lon="7.12091">
        <ele>2241</ele>
        <time>2022-07-18T16:15:03Z</time>
      </trkpt>
      <trkpt lat="44.39875" lon="7.12091">
        <ele>2241.2</ele>
        <time>2022-07-18T16:15:04Z</time>
      </trkpt>
      <trkpt lat="44.39874" lon="7.12091">
        <ele>2241.2</ele>
        <time>2022-07-18T16:15:05Z</time>
      </trkpt>
      <trkpt lat="44.39872" lon="7.12091">
        <ele>2241.6</ele>
        <time>2022-07-18T16:15:06Z</time>
      </trkpt>
      <trkpt lat="44.39871" lon="7.12092">
        <ele>2241.6</ele>
        <time>2022-07-18T16:15:07Z</time>
      </trkpt>
      <trkpt lat="44.3987" lon="7.12092">
        <ele>2242</ele>
        <time>2022-07-18T16:15:08Z</time>
      </trkpt>
      <trkpt lat="44.39868" lon="7.12092">
        <ele>2242</ele>
        <time>2022-07-18T16:15:09Z</time>
      </trkpt>
      <trkpt lat="44.39867" lon="7.12092">
        <ele>2242.2</ele>
        <time>2022-07-18T16:15:10Z</time>
      </trkpt>
      <trkpt lat="44.39865" lon="7.12093">
        <ele>2242.2</ele>
        <time>2022-07-18T16:15:11Z</time>
      </trkpt>
      <trkpt lat="44.39863" lon="7.12093">
        <ele>2242.2</ele>
        <time>2022-07-18T16:15:12Z</time>
      </trkpt>
      <trkpt lat="44.39862" lon="7.12093">
        <ele>2242.6</ele>
        <time>2022-07-18T16:15:13Z</time>
      </trkpt>
      <trkpt lat="44.3986" lon="7.12094">
        <ele>2242.8</ele>
        <time>2022-07-18T16:15:14Z</time>
      </trkpt>
      <trkpt lat="44.39859" lon="7.12094">
        <ele>2242.8</ele>
        <time>2022-07-18T16:15:15Z</time>
      </trkpt>
      <trkpt lat="44.39857" lon="7.12095">
        <ele>2243</ele>
        <time>2022-07-18T16:15:16Z</time>
      </trkpt>
      <trkpt lat="44.39855" lon="7.12096">
        <ele>2243</ele>
        <time>2022-07-18T16:15:17Z</time>
      </trkpt>
      <trkpt lat="44.39854" lon="7.12097">
        <ele>2243.2</ele>
        <time>2022-07-18T16:15:18Z</time>
      </trkpt>
      <trkpt lat="44.39852" lon="7.12098">
        <ele>2243.2</ele>
        <time>2022-07-18T16:15:19Z</time>
      </trkpt>
      <trkpt lat="44.3985" lon="7.12099">
        <ele>2243.6</ele>
        <time>2022-07-18T16:15:20Z</time>
      </trkpt>
      <trkpt lat="44.39849" lon="7.121">
        <ele>2243.6</ele>
        <time>2022-07-18T16:15:21Z</time>
      </trkpt>
      <trkpt lat="44.39847" lon="7.12101">
        <ele>2243.8</ele>
        <time>2022-07-18T16:15:22Z</time>
      </trkpt>
      <trkpt lat="44.39846" lon="7.12102">
        <ele>2243.8</ele>
        <time>2022-07-18T16:15:23Z</time>
      </trkpt>
      <trkpt lat="44.39844" lon="7.12103">
        <ele>2244.2</ele>
        <time>2022-07-18T16:15:24Z</time>
      </trkpt>
      <trkpt lat="44.39843" lon="7.12104">
        <ele>2244.2</ele>
        <time>2022-07-18T16:15:25Z</time>
      </trkpt>
      <trkpt lat="44.39841" lon="7.12105">
        <ele>2244.4</ele>
        <time>2022-07-18T16:15:26Z</time>
      </trkpt>
      <trkpt lat="44.39839" lon="7.12106">
        <ele>2244.4</ele>
        <time>2022-07-18T16:15:27Z</time>
      </trkpt>
      <trkpt lat="44.39838" lon="7.12107">
        <ele>2244.4</ele>
        <time>2022-07-18T16:15:28Z</time>
      </trkpt>
      <trkpt lat="44.39836" lon="7.12108">
        <ele>2244.8</ele>
        <time>2022-07-18T16:15:29Z</time>
      </trkpt>
      <trkpt lat="44.39834" lon="7.12108">
        <ele>2244.8</ele>
        <time>2022-07-18T16:15:30Z</time>
      </trkpt>
      <trkpt lat="44.39833" lon="7.12109">
        <ele>2244.8</ele>
        <time>2022-07-18T16:15:31Z</time>
      </trkpt>
      <trkpt lat="44.39831" lon="7.12109">
        <ele>2245</ele>
        <time>2022-07-18T16:15:32Z</time>
      </trkpt>
      <trkpt lat="44.39829" lon="7.12108">
        <ele>2245</ele>
        <time>2022-07-18T16:15:33Z</time>
      </trkpt>
      <trkpt lat="44.39827" lon="7.12107">
        <ele>2245</ele>
        <time>2022-07-18T16:15:34Z</time>
      </trkpt>
      <trkpt lat="44.39825" lon="7.12107">
        <ele>2245.2</ele>
        <time>2022-07-18T16:15:35Z</time>
      </trkpt>
      <trkpt lat="44.39824" lon="7.12106">
        <ele>2245.2</ele>
        <time>2022-07-18T16:15:36Z</time>
      </trkpt>
      <trkpt lat="44.39822" lon="7.12106">
        <ele>2245.6</ele>
        <time>2022-07-18T16:15:37Z</time>
      </trkpt>
      <trkpt lat="44.3982" lon="7.12106">
        <ele>2245.6</ele>
        <time>2022-07-18T16:15:38Z</time>
      </trkpt>
      <trkpt lat="44.39819" lon="7.12106">
        <ele>2246</ele>
        <time>2022-07-18T16:15:39Z</time>
      </trkpt>
      <trkpt lat="44.39817" lon="7.12106">
        <ele>2246</ele>
        <time>2022-07-18T16:15:40Z</time>
      </trkpt>
      <trkpt lat="44.39815" lon="7.12107">
        <ele>2246.2</ele>
        <time>2022-07-18T16:15:41Z</time>
      </trkpt>
      <trkpt lat="44.39814" lon="7.12108">
        <ele>2246.2</ele>
        <time>2022-07-18T16:15:42Z</time>
      </trkpt>
      <trkpt lat="44.39813" lon="7.12109">
        <ele>2246.6</ele>
        <time>2022-07-18T16:15:43Z</time>
      </trkpt>
      <trkpt lat="44.39811" lon="7.1211">
        <ele>2246.6</ele>
        <time>2022-07-18T16:15:44Z</time>
      </trkpt>
      <trkpt lat="44.3981" lon="7.12111">
        <ele>2247</ele>
        <time>2022-07-18T16:15:45Z</time>
      </trkpt>
      <trkpt lat="44.39808" lon="7.12112">
        <ele>2247</ele>
        <time>2022-07-18T16:15:46Z</time>
      </trkpt>
      <trkpt lat="44.39807" lon="7.12114">
        <ele>2247</ele>
        <time>2022-07-18T16:15:47Z</time>
      </trkpt>
      <trkpt lat="44.39806" lon="7.12115">
        <ele>2247.2</ele>
        <time>2022-07-18T16:15:48Z</time>
      </trkpt>
      <trkpt lat="44.39804" lon="7.12116">
        <ele>2247.2</ele>
        <time>2022-07-18T16:15:49Z</time>
      </trkpt>
      <trkpt lat="44.39803" lon="7.12117">
        <ele>2247.4</ele>
        <time>2022-07-18T16:15:50Z</time>
      </trkpt>
      <trkpt lat="44.39801" lon="7.12118">
        <ele>2247.6</ele>
        <time>2022-07-18T16:15:51Z</time>
      </trkpt>
      <trkpt lat="44.398" lon="7.12119">
        <ele>2247.6</ele>
        <time>2022-07-18T16:15:52Z</time>
      </trkpt>
      <trkpt lat="44.39798" lon="7.12121">
        <ele>2248</ele>
        <time>2022-07-18T16:15:53Z</time>
      </trkpt>
      <trkpt lat="44.39797" lon="7.12122">
        <ele>2248</ele>
        <time>2022-07-18T16:15:54Z</time>
      </trkpt>
      <trkpt lat="44.39795" lon="7.12123">
        <ele>2248.4</ele>
        <time>2022-07-18T16:15:55Z</time>
      </trkpt>
      <trkpt lat="44.39793" lon="7.12124">
        <ele>2248.4</ele>
        <time>2022-07-18T16:15:56Z</time>
      </trkpt>
      <trkpt lat="44.39792" lon="7.12124">
        <ele>2248.8</ele>
        <time>2022-07-18T16:15:57Z</time>
      </trkpt>
      <trkpt lat="44.3979" lon="7.12125">
        <ele>2248.8</ele>
        <time>2022-07-18T16:15:58Z</time>
      </trkpt>
      <trkpt lat="44.39789" lon="7.12126">
        <ele>2249</ele>
        <time>2022-07-18T16:15:59Z</time>
      </trkpt>
      <trkpt lat="44.39787" lon="7.12127">
        <ele>2249</ele>
        <time>2022-07-18T16:16:00Z</time>
      </trkpt>
      <trkpt lat="44.39785" lon="7.12128">
        <ele>2249.4</ele>
        <time>2022-07-18T16:16:01Z</time>
      </trkpt>
      <trkpt lat="44.39783" lon="7.12129">
        <ele>2249.4</ele>
        <time>2022-07-18T16:16:02Z</time>
      </trkpt>
      <trkpt lat="44.39782" lon="7.1213">
        <ele>2249.8</ele>
        <time>2022-07-18T16:16:03Z</time>
      </trkpt>
      <trkpt lat="44.3978" lon="7.12131">
        <ele>2249.8</ele>
        <time>2022-07-18T16:16:04Z</time>
      </trkpt>
      <trkpt lat="44.39779" lon="7.12132">
        <ele>2250</ele>
        <time>2022-07-18T16:16:05Z</time>
      </trkpt>
      <trkpt lat="44.39777" lon="7.12133">
        <ele>2250</ele>
        <time>2022-07-18T16:16:06Z</time>
      </trkpt>
      <trkpt lat="44.39776" lon="7.12134">
        <ele>2250.2</ele>
        <time>2022-07-18T16:16:08Z</time>
      </trkpt>
      <trkpt lat="44.39775" lon="7.12136">
        <ele>2250.2</ele>
        <time>2022-07-18T16:16:09Z</time>
      </trkpt>
      <trkpt lat="44.39773" lon="7.12137">
        <ele>2250.4</ele>
        <time>2022-07-18T16:16:10Z</time>
      </trkpt>
      <trkpt lat="44.39772" lon="7.12138">
        <ele>2250.4</ele>
        <time>2022-07-18T16:16:11Z</time>
      </trkpt>
      <trkpt lat="44.3977" lon="7.12139">
        <ele>2250.8</ele>
        <time>2022-07-18T16:16:12Z</time>
      </trkpt>
      <trkpt lat="44.39769" lon="7.1214">
        <ele>2250.8</ele>
        <time>2022-07-18T16:16:13Z</time>
      </trkpt>
      <trkpt lat="44.39767" lon="7.12142">
        <ele>2251.2</ele>
        <time>2022-07-18T16:16:14Z</time>
      </trkpt>
      <trkpt lat="44.39766" lon="7.12144">
        <ele>2251.2</ele>
        <time>2022-07-18T16:16:15Z</time>
      </trkpt>
      <trkpt lat="44.39764" lon="7.12145">
        <ele>2251.2</ele>
        <time>2022-07-18T16:16:16Z</time>
      </trkpt>
      <trkpt lat="44.39763" lon="7.12147">
        <ele>2251.4</ele>
        <time>2022-07-18T16:16:17Z</time>
      </trkpt>
      <trkpt lat="44.39761" lon="7.12149">
        <ele>2251.4</ele>
        <time>2022-07-18T16:16:18Z</time>
      </trkpt>
      <trkpt lat="44.39759" lon="7.1215">
        <ele>2251.6</ele>
        <time>2022-07-18T16:16:19Z</time>
      </trkpt>
      <trkpt lat="44.39757" lon="7.12152">
        <ele>2251.6</ele>
        <time>2022-07-18T16:16:20Z</time>
      </trkpt>
      <trkpt lat="44.39756" lon="7.12153">
        <ele>2251.8</ele>
        <time>2022-07-18T16:16:21Z</time>
      </trkpt>
      <trkpt lat="44.39754" lon="7.12155">
        <ele>2251.8</ele>
        <time>2022-07-18T16:16:22Z</time>
      </trkpt>
      <trkpt lat="44.39753" lon="7.12157">
        <ele>2252.2</ele>
        <time>2022-07-18T16:16:23Z</time>
      </trkpt>
      <trkpt lat="44.39751" lon="7.12159">
        <ele>2252.4</ele>
        <time>2022-07-18T16:16:24Z</time>
      </trkpt>
      <trkpt lat="44.3975" lon="7.12161">
        <ele>2252.4</ele>
        <time>2022-07-18T16:16:25Z</time>
      </trkpt>
      <trkpt lat="44.39749" lon="7.12164">
        <ele>2252.8</ele>
        <time>2022-07-18T16:16:26Z</time>
      </trkpt>
      <trkpt lat="44.39748" lon="7.12166">
        <ele>2252.8</ele>
        <time>2022-07-18T16:16:27Z</time>
      </trkpt>
      <trkpt lat="44.39747" lon="7.12168">
        <ele>2253.2</ele>
        <time>2022-07-18T16:16:28Z</time>
      </trkpt>
      <trkpt lat="44.39747" lon="7.1217">
        <ele>2253.4</ele>
        <time>2022-07-18T16:16:29Z</time>
      </trkpt>
      <trkpt lat="44.39745" lon="7.12172">
        <ele>2253.4</ele>
        <time>2022-07-18T16:16:30Z</time>
      </trkpt>
      <trkpt lat="44.39744" lon="7.12175">
        <ele>2253.6</ele>
        <time>2022-07-18T16:16:31Z</time>
      </trkpt>
      <trkpt lat="44.39743" lon="7.12177">
        <ele>2253.6</ele>
        <time>2022-07-18T16:16:32Z</time>
      </trkpt>
      <trkpt lat="44.39743" lon="7.12179">
        <ele>2253.8</ele>
        <time>2022-07-18T16:16:33Z</time>
      </trkpt>
      <trkpt lat="44.39742" lon="7.12182">
        <ele>2253.8</ele>
        <time>2022-07-18T16:16:34Z</time>
      </trkpt>
      <trkpt lat="44.39741" lon="7.12184">
        <ele>2254.2</ele>
        <time>2022-07-18T16:16:35Z</time>
      </trkpt>
      <trkpt lat="44.39741" lon="7.12186">
        <ele>2254.2</ele>
        <time>2022-07-18T16:16:36Z</time>
      </trkpt>
      <trkpt lat="44.3974" lon="7.12189">
        <ele>2254.6</ele>
        <time>2022-07-18T16:16:37Z</time>
      </trkpt>
      <trkpt lat="44.39739" lon="7.12191">
        <ele>2254.6</ele>
        <time>2022-07-18T16:16:38Z</time>
      </trkpt>
      <trkpt lat="44.39739" lon="7.12193">
        <ele>2255</ele>
        <time>2022-07-18T16:16:39Z</time>
      </trkpt>
      <trkpt lat="44.39738" lon="7.12196">
        <ele>2255</ele>
        <time>2022-07-18T16:16:40Z</time>
      </trkpt>
      <trkpt lat="44.39738" lon="7.12198">
        <ele>2255.2</ele>
        <time>2022-07-18T16:16:41Z</time>
      </trkpt>
      <trkpt lat="44.39737" lon="7.12201">
        <ele>2255.2</ele>
        <time>2022-07-18T16:16:42Z</time>
      </trkpt>
      <trkpt lat="44.39737" lon="7.12203">
        <ele>2255.6</ele>
        <time>2022-07-18T16:16:43Z</time>
      </trkpt>
      <trkpt lat="44.39736" lon="7.12206">
        <ele>2255.6</ele>
        <time>2022-07-18T16:16:44Z</time>
      </trkpt>
      <trkpt lat="44.39736" lon="7.12208">
        <ele>2256</ele>
        <time>2022-07-18T16:16:45Z</time>
      </trkpt>
      <trkpt lat="44.39736" lon="7.1221">
        <ele>2256</ele>
        <time>2022-07-18T16:16:46Z</time>
      </trkpt>
      <trkpt lat="44.39735" lon="7.12213">
        <ele>2256.2</ele>
        <time>2022-07-18T16:16:47Z</time>
      </trkpt>
      <trkpt lat="44.39735" lon="7.12215">
        <ele>2256.2</ele>
        <time>2022-07-18T16:16:48Z</time>
      </trkpt>
      <trkpt lat="44.39735" lon="7.12218">
        <ele>2256.2</ele>
        <time>2022-07-18T16:16:49Z</time>
      </trkpt>
      <trkpt lat="44.39734" lon="7.1222">
        <ele>2256.6</ele>
        <time>2022-07-18T16:16:50Z</time>
      </trkpt>
      <trkpt lat="44.39734" lon="7.12222">
        <ele>2256.6</ele>
        <time>2022-07-18T16:16:51Z</time>
      </trkpt>
      <trkpt lat="44.39733" lon="7.12225">
        <ele>2256.8</ele>
        <time>2022-07-18T16:16:52Z</time>
      </trkpt>
      <trkpt lat="44.39733" lon="7.12227">
        <ele>2256.8</ele>
        <time>2022-07-18T16:16:53Z</time>
      </trkpt>
      <trkpt lat="44.39732" lon="7.12229">
        <ele>2257.2</ele>
        <time>2022-07-18T16:16:54Z</time>
      </trkpt>
      <trkpt lat="44.39731" lon="7.12231">
        <ele>2257.2</ele>
        <time>2022-07-18T16:16:55Z</time>
      </trkpt>
      <trkpt lat="44.3973" lon="7.12233">
        <ele>2257.8</ele>
        <time>2022-07-18T16:16:56Z</time>
      </trkpt>
      <trkpt lat="44.3973" lon="7.12235">
        <ele>2257.8</ele>
        <time>2022-07-18T16:16:57Z</time>
      </trkpt>
      <trkpt lat="44.39729" lon="7.12237">
        <ele>2258</ele>
        <time>2022-07-18T16:16:58Z</time>
      </trkpt>
      <trkpt lat="44.39728" lon="7.12239">
        <ele>2258</ele>
        <time>2022-07-18T16:16:59Z</time>
      </trkpt>
      <trkpt lat="44.39727" lon="7.12241">
        <ele>2258.2</ele>
        <time>2022-07-18T16:17:00Z</time>
      </trkpt>
      <trkpt lat="44.39726" lon="7.12242">
        <ele>2258.2</ele>
        <time>2022-07-18T16:17:01Z</time>
      </trkpt>
      <trkpt lat="44.39726" lon="7.12244">
        <ele>2258.6</ele>
        <time>2022-07-18T16:17:02Z</time>
      </trkpt>
      <trkpt lat="44.39725" lon="7.12247">
        <ele>2258.6</ele>
        <time>2022-07-18T16:17:03Z</time>
      </trkpt>
      <trkpt lat="44.39724" lon="7.12249">
        <ele>2258.6</ele>
        <time>2022-07-18T16:17:04Z</time>
      </trkpt>
      <trkpt lat="44.39724" lon="7.12251">
        <ele>2258.8</ele>
        <time>2022-07-18T16:17:05Z</time>
      </trkpt>
      <trkpt lat="44.39724" lon="7.12254">
        <ele>2258.8</ele>
        <time>2022-07-18T16:17:06Z</time>
      </trkpt>
      <trkpt lat="44.39723" lon="7.12256">
        <ele>2259</ele>
        <time>2022-07-18T16:17:07Z</time>
      </trkpt>
      <trkpt lat="44.39723" lon="7.12259">
        <ele>2259</ele>
        <time>2022-07-18T16:17:08Z</time>
      </trkpt>
      <trkpt lat="44.39722" lon="7.12261">
        <ele>2259.4</ele>
        <time>2022-07-18T16:17:09Z</time>
      </trkpt>
      <trkpt lat="44.39721" lon="7.12264">
        <ele>2259.4</ele>
        <time>2022-07-18T16:17:10Z</time>
      </trkpt>
      <trkpt lat="44.39721" lon="7.12266">
        <ele>2259.6</ele>
        <time>2022-07-18T16:17:11Z</time>
      </trkpt>
      <trkpt lat="44.39719" lon="7.12268">
        <ele>2259.6</ele>
        <time>2022-07-18T16:17:12Z</time>
      </trkpt>
      <trkpt lat="44.39718" lon="7.12271">
        <ele>2260</ele>
        <time>2022-07-18T16:17:13Z</time>
      </trkpt>
      <trkpt lat="44.39718" lon="7.12273">
        <ele>2260</ele>
        <time>2022-07-18T16:17:14Z</time>
      </trkpt>
      <trkpt lat="44.39717" lon="7.12275">
        <ele>2260.2</ele>
        <time>2022-07-18T16:17:15Z</time>
      </trkpt>
      <trkpt lat="44.39717" lon="7.12277">
        <ele>2260.2</ele>
        <time>2022-07-18T16:17:16Z</time>
      </trkpt>
      <trkpt lat="44.39716" lon="7.12279">
        <ele>2260.6</ele>
        <time>2022-07-18T16:17:17Z</time>
      </trkpt>
      <trkpt lat="44.39715" lon="7.12281">
        <ele>2260.8</ele>
        <time>2022-07-18T16:17:18Z</time>
      </trkpt>
      <trkpt lat="44.39714" lon="7.12283">
        <ele>2261</ele>
        <time>2022-07-18T16:17:19Z</time>
      </trkpt>
      <trkpt lat="44.39713" lon="7.12285">
        <ele>2261.2</ele>
        <time>2022-07-18T16:17:20Z</time>
      </trkpt>
      <trkpt lat="44.39712" lon="7.12287">
        <ele>2261.2</ele>
        <time>2022-07-18T16:17:21Z</time>
      </trkpt>
      <trkpt lat="44.39711" lon="7.12289">
        <ele>2261.2</ele>
        <time>2022-07-18T16:17:22Z</time>
      </trkpt>
      <trkpt lat="44.3971" lon="7.12291">
        <ele>2261.6</ele>
        <time>2022-07-18T16:17:23Z</time>
      </trkpt>
      <trkpt lat="44.39709" lon="7.12293">
        <ele>2261.6</ele>
        <time>2022-07-18T16:17:24Z</time>
      </trkpt>
      <trkpt lat="44.39709" lon="7.12295">
        <ele>2261.6</ele>
        <time>2022-07-18T16:17:25Z</time>
      </trkpt>
      <trkpt lat="44.39708" lon="7.12298">
        <ele>2261.6</ele>
        <time>2022-07-18T16:17:26Z</time>
      </trkpt>
      <trkpt lat="44.39707" lon="7.12299">
        <ele>2261.8</ele>
        <time>2022-07-18T16:17:27Z</time>
      </trkpt>
      <trkpt lat="44.39705" lon="7.12301">
        <ele>2261.8</ele>
        <time>2022-07-18T16:17:28Z</time>
      </trkpt>
      <trkpt lat="44.39704" lon="7.12303">
        <ele>2262.2</ele>
        <time>2022-07-18T16:17:29Z</time>
      </trkpt>
      <trkpt lat="44.39703" lon="7.12305">
        <ele>2262.2</ele>
        <time>2022-07-18T16:17:30Z</time>
      </trkpt>
      <trkpt lat="44.39702" lon="7.12307">
        <ele>2262.4</ele>
        <time>2022-07-18T16:17:31Z</time>
      </trkpt>
      <trkpt lat="44.39701" lon="7.12309">
        <ele>2262.4</ele>
        <time>2022-07-18T16:17:32Z</time>
      </trkpt>
      <trkpt lat="44.397" lon="7.12311">
        <ele>2262.8</ele>
        <time>2022-07-18T16:17:33Z</time>
      </trkpt>
      <trkpt lat="44.39699" lon="7.12313">
        <ele>2262.8</ele>
        <time>2022-07-18T16:17:34Z</time>
      </trkpt>
      <trkpt lat="44.39697" lon="7.12315">
        <ele>2263</ele>
        <time>2022-07-18T16:17:35Z</time>
      </trkpt>
      <trkpt lat="44.39696" lon="7.12317">
        <ele>2263</ele>
        <time>2022-07-18T16:17:36Z</time>
      </trkpt>
      <trkpt lat="44.39696" lon="7.12319">
        <ele>2263.2</ele>
        <time>2022-07-18T16:17:37Z</time>
      </trkpt>
      <trkpt lat="44.39695" lon="7.12321">
        <ele>2263.2</ele>
        <time>2022-07-18T16:17:38Z</time>
      </trkpt>
      <trkpt lat="44.39693" lon="7.12323">
        <ele>2263.4</ele>
        <time>2022-07-18T16:17:39Z</time>
      </trkpt>
      <trkpt lat="44.39692" lon="7.12325">
        <ele>2263.6</ele>
        <time>2022-07-18T16:17:40Z</time>
      </trkpt>
      <trkpt lat="44.39691" lon="7.12327">
        <ele>2263.6</ele>
        <time>2022-07-18T16:17:41Z</time>
      </trkpt>
      <trkpt lat="44.3969" lon="7.12329">
        <ele>2264</ele>
        <time>2022-07-18T16:17:42Z</time>
      </trkpt>
      <trkpt lat="44.39689" lon="7.12331">
        <ele>2264</ele>
        <time>2022-07-18T16:17:43Z</time>
      </trkpt>
      <trkpt lat="44.39688" lon="7.12333">
        <ele>2264.2</ele>
        <time>2022-07-18T16:17:44Z</time>
      </trkpt>
      <trkpt lat="44.39687" lon="7.12335">
        <ele>2264.2</ele>
        <time>2022-07-18T16:17:45Z</time>
      </trkpt>
      <trkpt lat="44.39686" lon="7.12337">
        <ele>2264.6</ele>
        <time>2022-07-18T16:17:46Z</time>
      </trkpt>
      <trkpt lat="44.39684" lon="7.12339">
        <ele>2264.6</ele>
        <time>2022-07-18T16:17:47Z</time>
      </trkpt>
      <trkpt lat="44.39683" lon="7.12341">
        <ele>2264.8</ele>
        <time>2022-07-18T16:17:48Z</time>
      </trkpt>
      <trkpt lat="44.39682" lon="7.12343">
        <ele>2264.8</ele>
        <time>2022-07-18T16:17:49Z</time>
      </trkpt>
      <trkpt lat="44.39681" lon="7.12345">
        <ele>2265.2</ele>
        <time>2022-07-18T16:17:50Z</time>
      </trkpt>
      <trkpt lat="44.39681" lon="7.12348">
        <ele>2265.2</ele>
        <time>2022-07-18T16:17:51Z</time>
      </trkpt>
      <trkpt lat="44.3968" lon="7.1235">
        <ele>2265.2</ele>
        <time>2022-07-18T16:17:52Z</time>
      </trkpt>
      <trkpt lat="44.39679" lon="7.12352">
        <ele>2265.4</ele>
        <time>2022-07-18T16:17:53Z</time>
      </trkpt>
      <trkpt lat="44.39678" lon="7.12354">
        <ele>2265.4</ele>
        <time>2022-07-18T16:17:54Z</time>
      </trkpt>
      <trkpt lat="44.39678" lon="7.12357">
        <ele>2265.8</ele>
        <time>2022-07-18T16:17:55Z</time>
      </trkpt>
      <trkpt lat="44.39677" lon="7.12359">
        <ele>2266</ele>
        <time>2022-07-18T16:17:56Z</time>
      </trkpt>
      <trkpt lat="44.39676" lon="7.12361">
        <ele>2266</ele>
        <time>2022-07-18T16:17:57Z</time>
      </trkpt>
      <trkpt lat="44.39675" lon="7.12363">
        <ele>2266.2</ele>
        <time>2022-07-18T16:17:58Z</time>
      </trkpt>
      <trkpt lat="44.39675" lon="7.12366">
        <ele>2266.2</ele>
        <time>2022-07-18T16:17:59Z</time>
      </trkpt>
      <trkpt lat="44.39674" lon="7.12368">
        <ele>2266.4</ele>
        <time>2022-07-18T16:18:00Z</time>
      </trkpt>
      <trkpt lat="44.39674" lon="7.1237">
        <ele>2266.4</ele>
        <time>2022-07-18T16:18:01Z</time>
      </trkpt>
      <trkpt lat="44.39674" lon="7.12373">
        <ele>2266.8</ele>
        <time>2022-07-18T16:18:02Z</time>
      </trkpt>
      <trkpt lat="44.39673" lon="7.12375">
        <ele>2266.8</ele>
        <time>2022-07-18T16:18:03Z</time>
      </trkpt>
      <trkpt lat="44.39673" lon="7.12378">
        <ele>2267</ele>
        <time>2022-07-18T16:18:04Z</time>
      </trkpt>
      <trkpt lat="44.39672" lon="7.1238">
        <ele>2267</ele>
        <time>2022-07-18T16:18:05Z</time>
      </trkpt>
      <trkpt lat="44.39671" lon="7.12383">
        <ele>2267</ele>
        <time>2022-07-18T16:18:06Z</time>
      </trkpt>
      <trkpt lat="44.3967" lon="7.12385">
        <ele>2267</ele>
        <time>2022-07-18T16:18:07Z</time>
      </trkpt>
      <trkpt lat="44.3967" lon="7.12388">
        <ele>2267</ele>
        <time>2022-07-18T16:18:08Z</time>
      </trkpt>
      <trkpt lat="44.39669" lon="7.12391">
        <ele>2267</ele>
        <time>2022-07-18T16:18:09Z</time>
      </trkpt>
      <trkpt lat="44.39667" lon="7.12394">
        <ele>2267</ele>
        <time>2022-07-18T16:18:10Z</time>
      </trkpt>
      <trkpt lat="44.39665" lon="7.12398">
        <ele>2267</ele>
        <time>2022-07-18T16:18:11Z</time>
      </trkpt>
      <trkpt lat="44.39663" lon="7.12402">
        <ele>2266.6</ele>
        <time>2022-07-18T16:18:12Z</time>
      </trkpt>
      <trkpt lat="44.39661" lon="7.12407">
        <ele>2266.4</ele>
        <time>2022-07-18T16:18:13Z</time>
      </trkpt>
      <trkpt lat="44.39658" lon="7.12412">
        <ele>2266.2</ele>
        <time>2022-07-18T16:18:14Z</time>
      </trkpt>
      <trkpt lat="44.39655" lon="7.12417">
        <ele>2265.8</ele>
        <time>2022-07-18T16:18:15Z</time>
      </trkpt>
      <trkpt lat="44.39651" lon="7.12422">
        <ele>2265.2</ele>
        <time>2022-07-18T16:18:16Z</time>
      </trkpt>
      <trkpt lat="44.39648" lon="7.12427">
        <ele>2264.8</ele>
        <time>2022-07-18T16:18:17Z</time>
      </trkpt>
      <trkpt lat="44.39644" lon="7.12432">
        <ele>2264.4</ele>
        <time>2022-07-18T16:18:18Z</time>
      </trkpt>
      <trkpt lat="44.39641" lon="7.12438">
        <ele>2263.8</ele>
        <time>2022-07-18T16:18:19Z</time>
      </trkpt>
      <trkpt lat="44.39639" lon="7.12444">
        <ele>2263.4</ele>
        <time>2022-07-18T16:18:20Z</time>
      </trkpt>
      <trkpt lat="44.39636" lon="7.12451">
        <ele>2262.8</ele>
        <time>2022-07-18T16:18:21Z</time>
      </trkpt>
      <trkpt lat="44.39633" lon="7.12457">
        <ele>2262.6</ele>
        <time>2022-07-18T16:18:22Z</time>
      </trkpt>
      <trkpt lat="44.39629" lon="7.12463">
        <ele>2262.6</ele>
        <time>2022-07-18T16:18:23Z</time>
      </trkpt>
      <trkpt lat="44.39625" lon="7.12468">
        <ele>2262.6</ele>
        <time>2022-07-18T16:18:24Z</time>
      </trkpt>
      <trkpt lat="44.39621" lon="7.12471">
        <ele>2262.6</ele>
        <time>2022-07-18T16:18:25Z</time>
      </trkpt>
      <trkpt lat="44.39617" lon="7.12473">
        <ele>2262.6</ele>
        <time>2022-07-18T16:18:26Z</time>
      </trkpt>
      <trkpt lat="44.39614" lon="7.12474">
        <ele>2262.6</ele>
        <time>2022-07-18T16:18:27Z</time>
      </trkpt>
      <trkpt lat="44.3961" lon="7.12476">
        <ele>2262.8</ele>
        <time>2022-07-18T16:18:28Z</time>
      </trkpt>
      <trkpt lat="44.39607" lon="7.12477">
        <ele>2263</ele>
        <time>2022-07-18T16:18:29Z</time>
      </trkpt>
      <trkpt lat="44.39604" lon="7.12478">
        <ele>2263.4</ele>
        <time>2022-07-18T16:18:30Z</time>
      </trkpt>
      <trkpt lat="44.39601" lon="7.12478">
        <ele>2263.6</ele>
        <time>2022-07-18T16:18:31Z</time>
      </trkpt>
      <trkpt lat="44.39598" lon="7.12479">
        <ele>2263.6</ele>
        <time>2022-07-18T16:18:32Z</time>
      </trkpt>
      <trkpt lat="44.39596" lon="7.12479">
        <ele>2263.8</ele>
        <time>2022-07-18T16:18:33Z</time>
      </trkpt>
      <trkpt lat="44.39593" lon="7.12479">
        <ele>2264.2</ele>
        <time>2022-07-18T16:18:34Z</time>
      </trkpt>
      <trkpt lat="44.39591" lon="7.12479">
        <ele>2264.4</ele>
        <time>2022-07-18T16:18:35Z</time>
      </trkpt>
      <trkpt lat="44.39588" lon="7.12478">
        <ele>2264.4</ele>
        <time>2022-07-18T16:18:36Z</time>
      </trkpt>
      <trkpt lat="44.39585" lon="7.12478">
        <ele>2264.8</ele>
        <time>2022-07-18T16:18:37Z</time>
      </trkpt>
      <trkpt lat="44.39583" lon="7.12478">
        <ele>2265</ele>
        <time>2022-07-18T16:18:38Z</time>
      </trkpt>
      <trkpt lat="44.3958" lon="7.12478">
        <ele>2265.2</ele>
        <time>2022-07-18T16:18:39Z</time>
      </trkpt>
      <trkpt lat="44.39578" lon="7.12477">
        <ele>2265.6</ele>
        <time>2022-07-18T16:18:40Z</time>
      </trkpt>
      <trkpt lat="44.39576" lon="7.12478">
        <ele>2265.6</ele>
        <time>2022-07-18T16:18:41Z</time>
      </trkpt>
      <trkpt lat="44.39574" lon="7.12479">
        <ele>2265.8</ele>
        <time>2022-07-18T16:18:42Z</time>
      </trkpt>
      <trkpt lat="44.39571" lon="7.1248">
        <ele>2266</ele>
        <time>2022-07-18T16:18:43Z</time>
      </trkpt>
      <trkpt lat="44.39569" lon="7.1248">
        <ele>2266.2</ele>
        <time>2022-07-18T16:18:44Z</time>
      </trkpt>
      <trkpt lat="44.39566" lon="7.12481">
        <ele>2266.2</ele>
        <time>2022-07-18T16:18:45Z</time>
      </trkpt>
      <trkpt lat="44.39564" lon="7.1248">
        <ele>2266.6</ele>
        <time>2022-07-18T16:18:46Z</time>
      </trkpt>
      <trkpt lat="44.39562" lon="7.1248">
        <ele>2266.8</ele>
        <time>2022-07-18T16:18:47Z</time>
      </trkpt>
      <trkpt lat="44.39559" lon="7.12481">
        <ele>2267</ele>
        <time>2022-07-18T16:18:48Z</time>
      </trkpt>
      <trkpt lat="44.39557" lon="7.12481">
        <ele>2267</ele>
        <time>2022-07-18T16:18:49Z</time>
      </trkpt>
      <trkpt lat="44.39555" lon="7.12481">
        <ele>2267.4</ele>
        <time>2022-07-18T16:18:50Z</time>
      </trkpt>
      <trkpt lat="44.39552" lon="7.12481">
        <ele>2267.4</ele>
        <time>2022-07-18T16:18:51Z</time>
      </trkpt>
      <trkpt lat="44.3955" lon="7.12481">
        <ele>2267.8</ele>
        <time>2022-07-18T16:18:52Z</time>
      </trkpt>
      <trkpt lat="44.39548" lon="7.12482">
        <ele>2267.8</ele>
        <time>2022-07-18T16:18:53Z</time>
      </trkpt>
      <trkpt lat="44.39545" lon="7.12482">
        <ele>2268</ele>
        <time>2022-07-18T16:18:54Z</time>
      </trkpt>
      <trkpt lat="44.39543" lon="7.12482">
        <ele>2268</ele>
        <time>2022-07-18T16:18:55Z</time>
      </trkpt>
      <trkpt lat="44.3954" lon="7.12481">
        <ele>2268.4</ele>
        <time>2022-07-18T16:18:56Z</time>
      </trkpt>
      <trkpt lat="44.39538" lon="7.12481">
        <ele>2268.4</ele>
        <time>2022-07-18T16:18:57Z</time>
      </trkpt>
      <trkpt lat="44.39536" lon="7.1248">
        <ele>2268.6</ele>
        <time>2022-07-18T16:18:58Z</time>
      </trkpt>
      <trkpt lat="44.39534" lon="7.12479">
        <ele>2268.6</ele>
        <time>2022-07-18T16:18:59Z</time>
      </trkpt>
      <trkpt lat="44.39531" lon="7.12478">
        <ele>2268.6</ele>
        <time>2022-07-18T16:19:00Z</time>
      </trkpt>
      <trkpt lat="44.39529" lon="7.12477">
        <ele>2269.2</ele>
        <time>2022-07-18T16:19:01Z</time>
      </trkpt>
      <trkpt lat="44.39527" lon="7.12476">
        <ele>2269.2</ele>
        <time>2022-07-18T16:19:02Z</time>
      </trkpt>
      <trkpt lat="44.39525" lon="7.12475">
        <ele>2269.4</ele>
        <time>2022-07-18T16:19:03Z</time>
      </trkpt>
      <trkpt lat="44.39523" lon="7.12475">
        <ele>2269.4</ele>
        <time>2022-07-18T16:19:04Z</time>
      </trkpt>
      <trkpt lat="44.39522" lon="7.12474">
        <ele>2269.8</ele>
        <time>2022-07-18T16:19:05Z</time>
      </trkpt>
      <trkpt lat="44.3952" lon="7.12473">
        <ele>2270</ele>
        <time>2022-07-18T16:19:06Z</time>
      </trkpt>
      <trkpt lat="44.39517" lon="7.12472">
        <ele>2270</ele>
        <time>2022-07-18T16:19:07Z</time>
      </trkpt>
      <trkpt lat="44.39515" lon="7.12472">
        <ele>2270.2</ele>
        <time>2022-07-18T16:19:08Z</time>
      </trkpt>
      <trkpt lat="44.39513" lon="7.12471">
        <ele>2270.2</ele>
        <time>2022-07-18T16:19:09Z</time>
      </trkpt>
      <trkpt lat="44.3951" lon="7.1247">
        <ele>2270.4</ele>
        <time>2022-07-18T16:19:10Z</time>
      </trkpt>
      <trkpt lat="44.39508" lon="7.12469">
        <ele>2270.4</ele>
        <time>2022-07-18T16:19:11Z</time>
      </trkpt>
      <trkpt lat="44.39505" lon="7.12468">
        <ele>2270.8</ele>
        <time>2022-07-18T16:19:12Z</time>
      </trkpt>
      <trkpt lat="44.39503" lon="7.12468">
        <ele>2270.8</ele>
        <time>2022-07-18T16:19:13Z</time>
      </trkpt>
      <trkpt lat="44.395" lon="7.12468">
        <ele>2271</ele>
        <time>2022-07-18T16:19:14Z</time>
      </trkpt>
      <trkpt lat="44.39497" lon="7.12468">
        <ele>2271</ele>
        <time>2022-07-18T16:19:15Z</time>
      </trkpt>
      <trkpt lat="44.39495" lon="7.12468">
        <ele>2271.2</ele>
        <time>2022-07-18T16:19:16Z</time>
      </trkpt>
      <trkpt lat="44.39492" lon="7.12469">
        <ele>2271.2</ele>
        <time>2022-07-18T16:19:17Z</time>
      </trkpt>
      <trkpt lat="44.3949" lon="7.1247">
        <ele>2271.4</ele>
        <time>2022-07-18T16:19:18Z</time>
      </trkpt>
      <trkpt lat="44.39487" lon="7.12472">
        <ele>2271.4</ele>
        <time>2022-07-18T16:19:19Z</time>
      </trkpt>
      <trkpt lat="44.39485" lon="7.12472">
        <ele>2271.4</ele>
        <time>2022-07-18T16:19:20Z</time>
      </trkpt>
      <trkpt lat="44.39482" lon="7.12473">
        <ele>2271.8</ele>
        <time>2022-07-18T16:19:21Z</time>
      </trkpt>
      <trkpt lat="44.3948" lon="7.12473">
        <ele>2271.8</ele>
        <time>2022-07-18T16:19:22Z</time>
      </trkpt>
      <trkpt lat="44.39477" lon="7.12472">
        <ele>2272.2</ele>
        <time>2022-07-18T16:19:23Z</time>
      </trkpt>
      <trkpt lat="44.39475" lon="7.12471">
        <ele>2272.2</ele>
        <time>2022-07-18T16:19:24Z</time>
      </trkpt>
      <trkpt lat="44.39472" lon="7.12469">
        <ele>2272.2</ele>
        <time>2022-07-18T16:19:25Z</time>
      </trkpt>
      <trkpt lat="44.3947" lon="7.12468">
        <ele>2272.4</ele>
        <time>2022-07-18T16:19:26Z</time>
      </trkpt>
      <trkpt lat="44.39468" lon="7.12465">
        <ele>2272.6</ele>
        <time>2022-07-18T16:19:27Z</time>
      </trkpt>
      <trkpt lat="44.39466" lon="7.12463">
        <ele>2272.6</ele>
        <time>2022-07-18T16:19:28Z</time>
      </trkpt>
      <trkpt lat="44.39464" lon="7.12461">
        <ele>2273</ele>
        <time>2022-07-18T16:19:29Z</time>
      </trkpt>
      <trkpt lat="44.39462" lon="7.12459">
        <ele>2273</ele>
        <time>2022-07-18T16:19:30Z</time>
      </trkpt>
      <trkpt lat="44.39461" lon="7.12457">
        <ele>2273.2</ele>
        <time>2022-07-18T16:19:31Z</time>
      </trkpt>
      <trkpt lat="44.39459" lon="7.12455">
        <ele>2273.2</ele>
        <time>2022-07-18T16:19:32Z</time>
      </trkpt>
      <trkpt lat="44.39457" lon="7.12453">
        <ele>2273.6</ele>
        <time>2022-07-18T16:19:33Z</time>
      </trkpt>
      <trkpt lat="44.39456" lon="7.12451">
        <ele>2273.6</ele>
        <time>2022-07-18T16:19:34Z</time>
      </trkpt>
      <trkpt lat="44.39455" lon="7.12449">
        <ele>2273.8</ele>
        <time>2022-07-18T16:19:35Z</time>
      </trkpt>
      <trkpt lat="44.39453" lon="7.12447">
        <ele>2274</ele>
        <time>2022-07-18T16:19:36Z</time>
      </trkpt>
      <trkpt lat="44.39452" lon="7.12445">
        <ele>2274.4</ele>
        <time>2022-07-18T16:19:37Z</time>
      </trkpt>
      <trkpt lat="44.39451" lon="7.12444">
        <ele>2274.4</ele>
        <time>2022-07-18T16:19:38Z</time>
      </trkpt>
      <trkpt lat="44.39449" lon="7.12443">
        <ele>2274.8</ele>
        <time>2022-07-18T16:19:39Z</time>
      </trkpt>
      <trkpt lat="44.39447" lon="7.12441">
        <ele>2275</ele>
        <time>2022-07-18T16:19:40Z</time>
      </trkpt>
      <trkpt lat="44.39446" lon="7.1244">
        <ele>2275.2</ele>
        <time>2022-07-18T16:19:41Z</time>
      </trkpt>
      <trkpt lat="44.39445" lon="7.12438">
        <ele>2275.2</ele>
        <time>2022-07-18T16:19:42Z</time>
      </trkpt>
      <trkpt lat="44.39444" lon="7.12436">
        <ele>2275.6</ele>
        <time>2022-07-18T16:19:43Z</time>
      </trkpt>
      <trkpt lat="44.39442" lon="7.12434">
        <ele>2275.8</ele>
        <time>2022-07-18T16:19:44Z</time>
      </trkpt>
      <trkpt lat="44.39441" lon="7.12432">
        <ele>2276</ele>
        <time>2022-07-18T16:19:45Z</time>
      </trkpt>
      <trkpt lat="44.3944" lon="7.1243">
        <ele>2276</ele>
        <time>2022-07-18T16:19:46Z</time>
      </trkpt>
      <trkpt lat="44.39438" lon="7.12429">
        <ele>2276.4</ele>
        <time>2022-07-18T16:19:47Z</time>
      </trkpt>
      <trkpt lat="44.39437" lon="7.12428">
        <ele>2276.4</ele>
        <time>2022-07-18T16:19:48Z</time>
      </trkpt>
      <trkpt lat="44.39435" lon="7.12426">
        <ele>2276.8</ele>
        <time>2022-07-18T16:19:49Z</time>
      </trkpt>
      <trkpt lat="44.39434" lon="7.12425">
        <ele>2277.2</ele>
        <time>2022-07-18T16:19:50Z</time>
      </trkpt>
      <trkpt lat="44.39432" lon="7.12424">
        <ele>2277.2</ele>
        <time>2022-07-18T16:19:51Z</time>
      </trkpt>
      <trkpt lat="44.3943" lon="7.12423">
        <ele>2277.4</ele>
        <time>2022-07-18T16:19:52Z</time>
      </trkpt>
      <trkpt lat="44.39429" lon="7.12422">
        <ele>2277.6</ele>
        <time>2022-07-18T16:19:53Z</time>
      </trkpt>
      <trkpt lat="44.39427" lon="7.12422">
        <ele>2277.6</ele>
        <time>2022-07-18T16:19:54Z</time>
      </trkpt>
      <trkpt lat="44.39426" lon="7.12421">
        <ele>2278</ele>
        <time>2022-07-18T16:19:55Z</time>
      </trkpt>
      <trkpt lat="44.39424" lon="7.12421">
        <ele>2278</ele>
        <time>2022-07-18T16:19:56Z</time>
      </trkpt>
      <trkpt lat="44.39422" lon="7.1242">
        <ele>2278.4</ele>
        <time>2022-07-18T16:19:57Z</time>
      </trkpt>
      <trkpt lat="44.39421" lon="7.12419">
        <ele>2278.4</ele>
        <time>2022-07-18T16:19:58Z</time>
      </trkpt>
      <trkpt lat="44.39419" lon="7.12418">
        <ele>2278.6</ele>
        <time>2022-07-18T16:19:59Z</time>
      </trkpt>
      <trkpt lat="44.39418" lon="7.12417">
        <ele>2279</ele>
        <time>2022-07-18T16:20:00Z</time>
      </trkpt>
      <trkpt lat="44.39416" lon="7.12417">
        <ele>2279.2</ele>
        <time>2022-07-18T16:20:01Z</time>
      </trkpt>
      <trkpt lat="44.39414" lon="7.12416">
        <ele>2279.4</ele>
        <time>2022-07-18T16:20:02Z</time>
      </trkpt>
      <trkpt lat="44.39413" lon="7.12415">
        <ele>2279.6</ele>
        <time>2022-07-18T16:20:03Z</time>
      </trkpt>
      <trkpt lat="44.39411" lon="7.12414">
        <ele>2279.6</ele>
        <time>2022-07-18T16:20:04Z</time>
      </trkpt>
      <trkpt lat="44.39409" lon="7.12414">
        <ele>2280</ele>
        <time>2022-07-18T16:20:05Z</time>
      </trkpt>
      <trkpt lat="44.39408" lon="7.12413">
        <ele>2280</ele>
        <time>2022-07-18T16:20:06Z</time>
      </trkpt>
      <trkpt lat="44.39406" lon="7.12413">
        <ele>2280.2</ele>
        <time>2022-07-18T16:20:07Z</time>
      </trkpt>
      <trkpt lat="44.39405" lon="7.12412">
        <ele>2280.6</ele>
        <time>2022-07-18T16:20:08Z</time>
      </trkpt>
      <trkpt lat="44.39403" lon="7.12411">
        <ele>2280.8</ele>
        <time>2022-07-18T16:20:09Z</time>
      </trkpt>
      <trkpt lat="44.39401" lon="7.1241">
        <ele>2280.8</ele>
        <time>2022-07-18T16:20:10Z</time>
      </trkpt>
      <trkpt lat="44.394" lon="7.12409">
        <ele>2281</ele>
        <time>2022-07-18T16:20:11Z</time>
      </trkpt>
      <trkpt lat="44.39398" lon="7.12408">
        <ele>2281</ele>
        <time>2022-07-18T16:20:12Z</time>
      </trkpt>
      <trkpt lat="44.39396" lon="7.12407">
        <ele>2281</ele>
        <time>2022-07-18T16:20:13Z</time>
      </trkpt>
      <trkpt lat="44.39395" lon="7.12406">
        <ele>2281.4</ele>
        <time>2022-07-18T16:20:14Z</time>
      </trkpt>
      <trkpt lat="44.39393" lon="7.12405">
        <ele>2281.6</ele>
        <time>2022-07-18T16:20:15Z</time>
      </trkpt>
      <trkpt lat="44.39391" lon="7.12405">
        <ele>2281.8</ele>
        <time>2022-07-18T16:20:16Z</time>
      </trkpt>
      <trkpt lat="44.39389" lon="7.12404">
        <ele>2282</ele>
        <time>2022-07-18T16:20:17Z</time>
      </trkpt>
      <trkpt lat="44.39388" lon="7.12403">
        <ele>2282</ele>
        <time>2022-07-18T16:20:18Z</time>
      </trkpt>
      <trkpt lat="44.39386" lon="7.12402">
        <ele>2282.4</ele>
        <time>2022-07-18T16:20:19Z</time>
      </trkpt>
      <trkpt lat="44.39385" lon="7.12401">
        <ele>2282.6</ele>
        <time>2022-07-18T16:20:20Z</time>
      </trkpt>
      <trkpt lat="44.39383" lon="7.124">
        <ele>2282.6</ele>
        <time>2022-07-18T16:20:21Z</time>
      </trkpt>
      <trkpt lat="44.39382" lon="7.12399">
        <ele>2283</ele>
        <time>2022-07-18T16:20:22Z</time>
      </trkpt>
      <trkpt lat="44.3938" lon="7.12398">
        <ele>2283</ele>
        <time>2022-07-18T16:20:23Z</time>
      </trkpt>
      <trkpt lat="44.39378" lon="7.12397">
        <ele>2283.4</ele>
        <time>2022-07-18T16:20:24Z</time>
      </trkpt>
      <trkpt lat="44.39376" lon="7.12397">
        <ele>2283.6</ele>
        <time>2022-07-18T16:20:25Z</time>
      </trkpt>
      <trkpt lat="44.39375" lon="7.12396">
        <ele>2283.8</ele>
        <time>2022-07-18T16:20:26Z</time>
      </trkpt>
      <trkpt lat="44.39373" lon="7.12395">
        <ele>2283.8</ele>
        <time>2022-07-18T16:20:27Z</time>
      </trkpt>
      <trkpt lat="44.39372" lon="7.12393">
        <ele>2284.2</ele>
        <time>2022-07-18T16:20:28Z</time>
      </trkpt>
      <trkpt lat="44.3937" lon="7.12392">
        <ele>2284.2</ele>
        <time>2022-07-18T16:20:29Z</time>
      </trkpt>
      <trkpt lat="44.39369" lon="7.1239">
        <ele>2284.4</ele>
        <time>2022-07-18T16:20:30Z</time>
      </trkpt>
      <trkpt lat="44.39367" lon="7.12389">
        <ele>2284.4</ele>
        <time>2022-07-18T16:20:31Z</time>
      </trkpt>
      <trkpt lat="44.39366" lon="7.12387">
        <ele>2284.8</ele>
        <time>2022-07-18T16:20:32Z</time>
      </trkpt>
      <trkpt lat="44.39364" lon="7.12386">
        <ele>2284.8</ele>
        <time>2022-07-18T16:20:33Z</time>
      </trkpt>
      <trkpt lat="44.39363" lon="7.12384">
        <ele>2285</ele>
        <time>2022-07-18T16:20:34Z</time>
      </trkpt>
      <trkpt lat="44.39361" lon="7.12383">
        <ele>2285.2</ele>
        <time>2022-07-18T16:20:35Z</time>
      </trkpt>
      <trkpt lat="44.3936" lon="7.12382">
        <ele>2285.2</ele>
        <time>2022-07-18T16:20:36Z</time>
      </trkpt>
      <trkpt lat="44.39358" lon="7.12381">
        <ele>2285.6</ele>
        <time>2022-07-18T16:20:37Z</time>
      </trkpt>
      <trkpt lat="44.39356" lon="7.12379">
        <ele>2285.6</ele>
        <time>2022-07-18T16:20:38Z</time>
      </trkpt>
      <trkpt lat="44.39355" lon="7.12378">
        <ele>2285.6</ele>
        <time>2022-07-18T16:20:39Z</time>
      </trkpt>
      <trkpt lat="44.39353" lon="7.12376">
        <ele>2285.8</ele>
        <time>2022-07-18T16:20:40Z</time>
      </trkpt>
      <trkpt lat="44.39352" lon="7.12374">
        <ele>2285.8</ele>
        <time>2022-07-18T16:20:41Z</time>
      </trkpt>
      <trkpt lat="44.39351" lon="7.12372">
        <ele>2286.4</ele>
        <time>2022-07-18T16:20:42Z</time>
      </trkpt>
      <trkpt lat="44.3935" lon="7.1237">
        <ele>2286.6</ele>
        <time>2022-07-18T16:20:43Z</time>
      </trkpt>
      <trkpt lat="44.39349" lon="7.12368">
        <ele>2286.6</ele>
        <time>2022-07-18T16:20:44Z</time>
      </trkpt>
      <trkpt lat="44.39348" lon="7.12366">
        <ele>2287</ele>
        <time>2022-07-18T16:20:45Z</time>
      </trkpt>
      <trkpt lat="44.39347" lon="7.12363">
        <ele>2287</ele>
        <time>2022-07-18T16:20:46Z</time>
      </trkpt>
      <trkpt lat="44.39346" lon="7.12361">
        <ele>2287.2</ele>
        <time>2022-07-18T16:20:47Z</time>
      </trkpt>
      <trkpt lat="44.39343" lon="7.12357">
        <ele>2287.4</ele>
        <time>2022-07-18T16:20:48Z</time>
      </trkpt>
      <trkpt lat="44.39342" lon="7.12355">
        <ele>2287.8</ele>
        <time>2022-07-18T16:20:49Z</time>
      </trkpt>
      <trkpt lat="44.39342" lon="7.12353">
        <ele>2287.8</ele>
        <time>2022-07-18T16:20:50Z</time>
      </trkpt>
      <trkpt lat="44.39341" lon="7.1235">
        <ele>2288.2</ele>
        <time>2022-07-18T16:20:51Z</time>
      </trkpt>
      <trkpt lat="44.3934" lon="7.12348">
        <ele>2288.2</ele>
        <time>2022-07-18T16:20:52Z</time>
      </trkpt>
      <trkpt lat="44.3934" lon="7.12345">
        <ele>2288.4</ele>
        <time>2022-07-18T16:20:53Z</time>
      </trkpt>
      <trkpt lat="44.39339" lon="7.12344">
        <ele>2288.8</ele>
        <time>2022-07-18T16:20:54Z</time>
      </trkpt>
      <trkpt lat="44.39339" lon="7.12343">
        <ele>2288.8</ele>
        <time>2022-07-18T16:20:55Z</time>
      </trkpt>
      <trkpt lat="44.39338" lon="7.1234">
        <ele>2289</ele>
        <time>2022-07-18T16:20:56Z</time>
      </trkpt>
      <trkpt lat="44.39338" lon="7.12338">
        <ele>2289.4</ele>
        <time>2022-07-18T16:20:57Z</time>
      </trkpt>
      <trkpt lat="44.39337" lon="7.12335">
        <ele>2289.4</ele>
        <time>2022-07-18T16:20:58Z</time>
      </trkpt>
      <trkpt lat="44.39336" lon="7.12333">
        <ele>2289.6</ele>
        <time>2022-07-18T16:20:59Z</time>
      </trkpt>
      <trkpt lat="44.39335" lon="7.12331">
        <ele>2289.6</ele>
        <time>2022-07-18T16:21:00Z</time>
      </trkpt>
      <trkpt lat="44.39334" lon="7.12328">
        <ele>2289.8</ele>
        <time>2022-07-18T16:21:01Z</time>
      </trkpt>
      <trkpt lat="44.39333" lon="7.12326">
        <ele>2290</ele>
        <time>2022-07-18T16:21:02Z</time>
      </trkpt>
      <trkpt lat="44.39333" lon="7.12323">
        <ele>2290</ele>
        <time>2022-07-18T16:21:03Z</time>
      </trkpt>
      <trkpt lat="44.39332" lon="7.12321">
        <ele>2290.4</ele>
        <time>2022-07-18T16:21:04Z</time>
      </trkpt>
      <trkpt lat="44.39331" lon="7.12319">
        <ele>2290.4</ele>
        <time>2022-07-18T16:21:05Z</time>
      </trkpt>
      <trkpt lat="44.39329" lon="7.12317">
        <ele>2290.8</ele>
        <time>2022-07-18T16:21:06Z</time>
      </trkpt>
      <trkpt lat="44.39328" lon="7.12315">
        <ele>2291</ele>
        <time>2022-07-18T16:21:07Z</time>
      </trkpt>
      <trkpt lat="44.39327" lon="7.12313">
        <ele>2291.2</ele>
        <time>2022-07-18T16:21:08Z</time>
      </trkpt>
      <trkpt lat="44.39327" lon="7.12312">
        <ele>2291.2</ele>
        <time>2022-07-18T16:21:09Z</time>
      </trkpt>
      <trkpt lat="44.39325" lon="7.1231">
        <ele>2291.6</ele>
        <time>2022-07-18T16:21:10Z</time>
      </trkpt>
      <trkpt lat="44.39324" lon="7.12308">
        <ele>2291.6</ele>
        <time>2022-07-18T16:21:11Z</time>
      </trkpt>
      <trkpt lat="44.39323" lon="7.12307">
        <ele>2291.8</ele>
        <time>2022-07-18T16:21:12Z</time>
      </trkpt>
      <trkpt lat="44.39322" lon="7.12305">
        <ele>2291.8</ele>
        <time>2022-07-18T16:21:13Z</time>
      </trkpt>
      <trkpt lat="44.39321" lon="7.12303">
        <ele>2292.2</ele>
        <time>2022-07-18T16:21:14Z</time>
      </trkpt>
      <trkpt lat="44.3932" lon="7.12302">
        <ele>2292.4</ele>
        <time>2022-07-18T16:21:15Z</time>
      </trkpt>
      <trkpt lat="44.39319" lon="7.123">
        <ele>2292.4</ele>
        <time>2022-07-18T16:21:16Z</time>
      </trkpt>
      <trkpt lat="44.39317" lon="7.12299">
        <ele>2292.8</ele>
        <time>2022-07-18T16:21:17Z</time>
      </trkpt>
      <trkpt lat="44.39316" lon="7.12298">
        <ele>2292.8</ele>
        <time>2022-07-18T16:21:18Z</time>
      </trkpt>
      <trkpt lat="44.39315" lon="7.12296">
        <ele>2292.8</ele>
        <time>2022-07-18T16:21:19Z</time>
      </trkpt>
      <trkpt lat="44.39314" lon="7.12294">
        <ele>2293</ele>
        <time>2022-07-18T16:21:20Z</time>
      </trkpt>
      <trkpt lat="44.39313" lon="7.12293">
        <ele>2293</ele>
        <time>2022-07-18T16:21:21Z</time>
      </trkpt>
      <trkpt lat="44.39311" lon="7.12292">
        <ele>2293.4</ele>
        <time>2022-07-18T16:21:22Z</time>
      </trkpt>
      <trkpt lat="44.3931" lon="7.12291">
        <ele>2293.4</ele>
        <time>2022-07-18T16:21:23Z</time>
      </trkpt>
      <trkpt lat="44.39309" lon="7.12289">
        <ele>2293.6</ele>
        <time>2022-07-18T16:21:24Z</time>
      </trkpt>
      <trkpt lat="44.39307" lon="7.12288">
        <ele>2293.6</ele>
        <time>2022-07-18T16:21:25Z</time>
      </trkpt>
      <trkpt lat="44.39306" lon="7.12287">
        <ele>2294</ele>
        <time>2022-07-18T16:21:26Z</time>
      </trkpt>
      <trkpt lat="44.39305" lon="7.12285">
        <ele>2294</ele>
        <time>2022-07-18T16:21:27Z</time>
      </trkpt>
      <trkpt lat="44.39303" lon="7.12284">
        <ele>2294.4</ele>
        <time>2022-07-18T16:21:28Z</time>
      </trkpt>
      <trkpt lat="44.39302" lon="7.12283">
        <ele>2294.4</ele>
        <time>2022-07-18T16:21:29Z</time>
      </trkpt>
      <trkpt lat="44.393" lon="7.12282">
        <ele>2294.6</ele>
        <time>2022-07-18T16:21:30Z</time>
      </trkpt>
      <trkpt lat="44.39299" lon="7.12281">
        <ele>2294.8</ele>
        <time>2022-07-18T16:21:31Z</time>
      </trkpt>
      <trkpt lat="44.39298" lon="7.12279">
        <ele>2294.8</ele>
        <time>2022-07-18T16:21:32Z</time>
      </trkpt>
      <trkpt lat="44.39296" lon="7.12278">
        <ele>2295.2</ele>
        <time>2022-07-18T16:21:33Z</time>
      </trkpt>
      <trkpt lat="44.39295" lon="7.12276">
        <ele>2295.4</ele>
        <time>2022-07-18T16:21:34Z</time>
      </trkpt>
      <trkpt lat="44.39294" lon="7.12274">
        <ele>2295.8</ele>
        <time>2022-07-18T16:21:35Z</time>
      </trkpt>
      <trkpt lat="44.39292" lon="7.12273">
        <ele>2296</ele>
        <time>2022-07-18T16:21:36Z</time>
      </trkpt>
      <trkpt lat="44.39291" lon="7.12272">
        <ele>2296.2</ele>
        <time>2022-07-18T16:21:37Z</time>
      </trkpt>
      <trkpt lat="44.3929" lon="7.12271">
        <ele>2296.2</ele>
        <time>2022-07-18T16:21:38Z</time>
      </trkpt>
      <trkpt lat="44.39288" lon="7.12269">
        <ele>2296.6</ele>
        <time>2022-07-18T16:21:39Z</time>
      </trkpt>
      <trkpt lat="44.39287" lon="7.12268">
        <ele>2296.6</ele>
        <time>2022-07-18T16:21:40Z</time>
      </trkpt>
      <trkpt lat="44.39286" lon="7.12266">
        <ele>2296.8</ele>
        <time>2022-07-18T16:21:41Z</time>
      </trkpt>
      <trkpt lat="44.39284" lon="7.12265">
        <ele>2296.8</ele>
        <time>2022-07-18T16:21:42Z</time>
      </trkpt>
      <trkpt lat="44.39283" lon="7.12264">
        <ele>2297.2</ele>
        <time>2022-07-18T16:21:43Z</time>
      </trkpt>
      <trkpt lat="44.39282" lon="7.12262">
        <ele>2297.4</ele>
        <time>2022-07-18T16:21:44Z</time>
      </trkpt>
      <trkpt lat="44.3928" lon="7.12261">
        <ele>2297.4</ele>
        <time>2022-07-18T16:21:45Z</time>
      </trkpt>
      <trkpt lat="44.39278" lon="7.1226">
        <ele>2297.6</ele>
        <time>2022-07-18T16:21:46Z</time>
      </trkpt>
      <trkpt lat="44.39277" lon="7.12258">
        <ele>2297.6</ele>
        <time>2022-07-18T16:21:47Z</time>
      </trkpt>
      <trkpt lat="44.39275" lon="7.12257">
        <ele>2297.8</ele>
        <time>2022-07-18T16:21:48Z</time>
      </trkpt>
      <trkpt lat="44.39274" lon="7.12256">
        <ele>2297.8</ele>
        <time>2022-07-18T16:21:49Z</time>
      </trkpt>
      <trkpt lat="44.39272" lon="7.12256">
        <ele>2298.2</ele>
        <time>2022-07-18T16:21:50Z</time>
      </trkpt>
      <trkpt lat="44.39271" lon="7.12256">
        <ele>2298.4</ele>
        <time>2022-07-18T16:21:51Z</time>
      </trkpt>
      <trkpt lat="44.39269" lon="7.12255">
        <ele>2298.6</ele>
        <time>2022-07-18T16:21:52Z</time>
      </trkpt>
      <trkpt lat="44.39268" lon="7.12255">
        <ele>2298.6</ele>
        <time>2022-07-18T16:21:53Z</time>
      </trkpt>
      <trkpt lat="44.39266" lon="7.12254">
        <ele>2299</ele>
        <time>2022-07-18T16:21:54Z</time>
      </trkpt>
      <trkpt lat="44.39265" lon="7.12253">
        <ele>2299</ele>
        <time>2022-07-18T16:21:55Z</time>
      </trkpt>
      <trkpt lat="44.39263" lon="7.12252">
        <ele>2299.2</ele>
        <time>2022-07-18T16:21:56Z</time>
      </trkpt>
      <trkpt lat="44.39261" lon="7.12251">
        <ele>2299.2</ele>
        <time>2022-07-18T16:21:57Z</time>
      </trkpt>
      <trkpt lat="44.3926" lon="7.1225">
        <ele>2299.4</ele>
        <time>2022-07-18T16:21:58Z</time>
      </trkpt>
      <trkpt lat="44.39258" lon="7.1225">
        <ele>2299.6</ele>
        <time>2022-07-18T16:21:59Z</time>
      </trkpt>
      <trkpt lat="44.39256" lon="7.12248">
        <ele>2299.8</ele>
        <time>2022-07-18T16:22:00Z</time>
      </trkpt>
      <trkpt lat="44.39255" lon="7.12247">
        <ele>2299.8</ele>
        <time>2022-07-18T16:22:01Z</time>
      </trkpt>
      <trkpt lat="44.39253" lon="7.12247">
        <ele>2300.2</ele>
        <time>2022-07-18T16:22:02Z</time>
      </trkpt>
      <trkpt lat="44.39251" lon="7.12246">
        <ele>2300.2</ele>
        <time>2022-07-18T16:22:03Z</time>
      </trkpt>
      <trkpt lat="44.3925" lon="7.12245">
        <ele>2300.4</ele>
        <time>2022-07-18T16:22:04Z</time>
      </trkpt>
      <trkpt lat="44.39248" lon="7.12244">
        <ele>2300.8</ele>
        <time>2022-07-18T16:22:05Z</time>
      </trkpt>
      <trkpt lat="44.39246" lon="7.12243">
        <ele>2301</ele>
        <time>2022-07-18T16:22:06Z</time>
      </trkpt>
      <trkpt lat="44.39245" lon="7.12242">
        <ele>2301</ele>
        <time>2022-07-18T16:22:07Z</time>
      </trkpt>
      <trkpt lat="44.39243" lon="7.12242">
        <ele>2301.4</ele>
        <time>2022-07-18T16:22:08Z</time>
      </trkpt>
      <trkpt lat="44.39241" lon="7.12241">
        <ele>2301.4</ele>
        <time>2022-07-18T16:22:09Z</time>
      </trkpt>
      <trkpt lat="44.3924" lon="7.1224">
        <ele>2301.6</ele>
        <time>2022-07-18T16:22:10Z</time>
      </trkpt>
      <trkpt lat="44.39239" lon="7.12238">
        <ele>2301.8</ele>
        <time>2022-07-18T16:22:11Z</time>
      </trkpt>
      <trkpt lat="44.39237" lon="7.12237">
        <ele>2301.8</ele>
        <time>2022-07-18T16:22:12Z</time>
      </trkpt>
      <trkpt lat="44.39236" lon="7.12236">
        <ele>2302.2</ele>
        <time>2022-07-18T16:22:13Z</time>
      </trkpt>
      <trkpt lat="44.39234" lon="7.12236">
        <ele>2302.2</ele>
        <time>2022-07-18T16:22:14Z</time>
      </trkpt>
      <trkpt lat="44.39232" lon="7.12235">
        <ele>2302.2</ele>
        <time>2022-07-18T16:22:15Z</time>
      </trkpt>
      <trkpt lat="44.3923" lon="7.12235">
        <ele>2302.4</ele>
        <time>2022-07-18T16:22:16Z</time>
      </trkpt>
      <trkpt lat="44.39228" lon="7.12235">
        <ele>2302.4</ele>
        <time>2022-07-18T16:22:17Z</time>
      </trkpt>
      <trkpt lat="44.39226" lon="7.12235">
        <ele>2302.8</ele>
        <time>2022-07-18T16:22:18Z</time>
      </trkpt>
      <trkpt lat="44.39225" lon="7.12235">
        <ele>2302.8</ele>
        <time>2022-07-18T16:22:19Z</time>
      </trkpt>
      <trkpt lat="44.39223" lon="7.12235">
        <ele>2303</ele>
        <time>2022-07-18T16:22:20Z</time>
      </trkpt>
      <trkpt lat="44.39221" lon="7.12235">
        <ele>2303</ele>
        <time>2022-07-18T16:22:21Z</time>
      </trkpt>
      <trkpt lat="44.39219" lon="7.12235">
        <ele>2303</ele>
        <time>2022-07-18T16:22:22Z</time>
      </trkpt>
      <trkpt lat="44.39218" lon="7.12234">
        <ele>2303.4</ele>
        <time>2022-07-18T16:22:23Z</time>
      </trkpt>
      <trkpt lat="44.39216" lon="7.12234">
        <ele>2303.4</ele>
        <time>2022-07-18T16:22:24Z</time>
      </trkpt>
      <trkpt lat="44.39214" lon="7.12234">
        <ele>2303.8</ele>
        <time>2022-07-18T16:22:25Z</time>
      </trkpt>
      <trkpt lat="44.39213" lon="7.12234">
        <ele>2304</ele>
        <time>2022-07-18T16:22:26Z</time>
      </trkpt>
      <trkpt lat="44.39211" lon="7.12233">
        <ele>2304</ele>
        <time>2022-07-18T16:22:27Z</time>
      </trkpt>
      <trkpt lat="44.39209" lon="7.12233">
        <ele>2304.2</ele>
        <time>2022-07-18T16:22:28Z</time>
      </trkpt>
      <trkpt lat="44.39208" lon="7.12232">
        <ele>2304.2</ele>
        <time>2022-07-18T16:22:29Z</time>
      </trkpt>
      <trkpt lat="44.39206" lon="7.12232">
        <ele>2304.6</ele>
        <time>2022-07-18T16:22:30Z</time>
      </trkpt>
      <trkpt lat="44.39204" lon="7.12231">
        <ele>2304.6</ele>
        <time>2022-07-18T16:22:31Z</time>
      </trkpt>
      <trkpt lat="44.39203" lon="7.12231">
        <ele>2305</ele>
        <time>2022-07-18T16:22:32Z</time>
      </trkpt>
      <trkpt lat="44.39201" lon="7.12231">
        <ele>2305</ele>
        <time>2022-07-18T16:22:33Z</time>
      </trkpt>
      <trkpt lat="44.392" lon="7.1223">
        <ele>2305.2</ele>
        <time>2022-07-18T16:22:34Z</time>
      </trkpt>
      <trkpt lat="44.39198" lon="7.1223">
        <ele>2305.2</ele>
        <time>2022-07-18T16:22:35Z</time>
      </trkpt>
      <trkpt lat="44.39197" lon="7.1223">
        <ele>2305.6</ele>
        <time>2022-07-18T16:22:36Z</time>
      </trkpt>
      <trkpt lat="44.39195" lon="7.12229">
        <ele>2305.6</ele>
        <time>2022-07-18T16:22:37Z</time>
      </trkpt>
      <trkpt lat="44.39194" lon="7.12228">
        <ele>2306</ele>
        <time>2022-07-18T16:22:38Z</time>
      </trkpt>
      <trkpt lat="44.39192" lon="7.12227">
        <ele>2306.2</ele>
        <time>2022-07-18T16:22:39Z</time>
      </trkpt>
      <trkpt lat="44.39191" lon="7.12226">
        <ele>2306.4</ele>
        <time>2022-07-18T16:22:40Z</time>
      </trkpt>
      <trkpt lat="44.39189" lon="7.12225">
        <ele>2306.4</ele>
        <time>2022-07-18T16:22:41Z</time>
      </trkpt>
      <trkpt lat="44.39188" lon="7.12224">
        <ele>2306.8</ele>
        <time>2022-07-18T16:22:42Z</time>
      </trkpt>
      <trkpt lat="44.39186" lon="7.12223">
        <ele>2307</ele>
        <time>2022-07-18T16:22:43Z</time>
      </trkpt>
      <trkpt lat="44.39185" lon="7.12222">
        <ele>2307.2</ele>
        <time>2022-07-18T16:22:44Z</time>
      </trkpt>
      <trkpt lat="44.39184" lon="7.12221">
        <ele>2307.2</ele>
        <time>2022-07-18T16:22:45Z</time>
      </trkpt>
      <trkpt lat="44.39182" lon="7.1222">
        <ele>2307.6</ele>
        <time>2022-07-18T16:22:46Z</time>
      </trkpt>
      <trkpt lat="44.39181" lon="7.1222">
        <ele>2307.8</ele>
        <time>2022-07-18T16:22:47Z</time>
      </trkpt>
      <trkpt lat="44.39179" lon="7.1222">
        <ele>2307.8</ele>
        <time>2022-07-18T16:22:48Z</time>
      </trkpt>
      <trkpt lat="44.39178" lon="7.12219">
        <ele>2308.2</ele>
        <time>2022-07-18T16:22:49Z</time>
      </trkpt>
      <trkpt lat="44.39176" lon="7.12219">
        <ele>2308.2</ele>
        <time>2022-07-18T16:22:50Z</time>
      </trkpt>
      <trkpt lat="44.39175" lon="7.12219">
        <ele>2308.4</ele>
        <time>2022-07-18T16:22:51Z</time>
      </trkpt>
      <trkpt lat="44.39174" lon="7.12219">
        <ele>2308.4</ele>
        <time>2022-07-18T16:22:52Z</time>
      </trkpt>
      <trkpt lat="44.39172" lon="7.12218">
        <ele>2308.4</ele>
        <time>2022-07-18T16:22:53Z</time>
      </trkpt>
      <trkpt lat="44.39171" lon="7.12218">
        <ele>2308.8</ele>
        <time>2022-07-18T16:22:54Z</time>
      </trkpt>
      <trkpt lat="44.39169" lon="7.12218">
        <ele>2308.8</ele>
        <time>2022-07-18T16:22:55Z</time>
      </trkpt>
      <trkpt lat="44.39168" lon="7.12217">
        <ele>2309.2</ele>
        <time>2022-07-18T16:22:56Z</time>
      </trkpt>
      <trkpt lat="44.39166" lon="7.12216">
        <ele>2309.2</ele>
        <time>2022-07-18T16:22:57Z</time>
      </trkpt>
      <trkpt lat="44.39165" lon="7.12215">
        <ele>2309.4</ele>
        <time>2022-07-18T16:22:58Z</time>
      </trkpt>
      <trkpt lat="44.39164" lon="7.12215">
        <ele>2309.4</ele>
        <time>2022-07-18T16:22:59Z</time>
      </trkpt>
      <trkpt lat="44.39162" lon="7.12214">
        <ele>2309.8</ele>
        <time>2022-07-18T16:23:00Z</time>
      </trkpt>
      <trkpt lat="44.39161" lon="7.12213">
        <ele>2309.8</ele>
        <time>2022-07-18T16:23:01Z</time>
      </trkpt>
      <trkpt lat="44.3916" lon="7.12212">
        <ele>2310</ele>
        <time>2022-07-18T16:23:02Z</time>
      </trkpt>
      <trkpt lat="44.39158" lon="7.12212">
        <ele>2310</ele>
        <time>2022-07-18T16:23:03Z</time>
      </trkpt>
      <trkpt lat="44.39157" lon="7.1221">
        <ele>2310.4</ele>
        <time>2022-07-18T16:23:04Z</time>
      </trkpt>
      <trkpt lat="44.39155" lon="7.12209">
        <ele>2310.4</ele>
        <time>2022-07-18T16:23:05Z</time>
      </trkpt>
      <trkpt lat="44.39154" lon="7.12208">
        <ele>2310.8</ele>
        <time>2022-07-18T16:23:06Z</time>
      </trkpt>
      <trkpt lat="44.39152" lon="7.12207">
        <ele>2310.8</ele>
        <time>2022-07-18T16:23:07Z</time>
      </trkpt>
      <trkpt lat="44.39151" lon="7.12206">
        <ele>2311.2</ele>
        <time>2022-07-18T16:23:08Z</time>
      </trkpt>
      <trkpt lat="44.39149" lon="7.12206">
        <ele>2311.2</ele>
        <time>2022-07-18T16:23:09Z</time>
      </trkpt>
      <trkpt lat="44.39147" lon="7.12205">
        <ele>2311.6</ele>
        <time>2022-07-18T16:23:10Z</time>
      </trkpt>
      <trkpt lat="44.39146" lon="7.12204">
        <ele>2311.6</ele>
        <time>2022-07-18T16:23:11Z</time>
      </trkpt>
      <trkpt lat="44.39145" lon="7.12203">
        <ele>2311.6</ele>
        <time>2022-07-18T16:23:12Z</time>
      </trkpt>
      <trkpt lat="44.39143" lon="7.12201">
        <ele>2311.8</ele>
        <time>2022-07-18T16:23:13Z</time>
      </trkpt>
      <trkpt lat="44.39142" lon="7.122">
        <ele>2311.8</ele>
        <time>2022-07-18T16:23:14Z</time>
      </trkpt>
      <trkpt lat="44.3914" lon="7.12199">
        <ele>2312.2</ele>
        <time>2022-07-18T16:23:15Z</time>
      </trkpt>
      <trkpt lat="44.39139" lon="7.12198">
        <ele>2312.2</ele>
        <time>2022-07-18T16:23:16Z</time>
      </trkpt>
      <trkpt lat="44.39138" lon="7.12197">
        <ele>2312.4</ele>
        <time>2022-07-18T16:23:17Z</time>
      </trkpt>
      <trkpt lat="44.39137" lon="7.12196">
        <ele>2312.6</ele>
        <time>2022-07-18T16:23:18Z</time>
      </trkpt>
      <trkpt lat="44.39135" lon="7.12194">
        <ele>2313</ele>
        <time>2022-07-18T16:23:19Z</time>
      </trkpt>
      <trkpt lat="44.39134" lon="7.12193">
        <ele>2313</ele>
        <time>2022-07-18T16:23:20Z</time>
      </trkpt>
      <trkpt lat="44.39133" lon="7.12192">
        <ele>2313.4</ele>
        <time>2022-07-18T16:23:21Z</time>
      </trkpt>
      <trkpt lat="44.39132" lon="7.1219">
        <ele>2313.4</ele>
        <time>2022-07-18T16:23:22Z</time>
      </trkpt>
      <trkpt lat="44.39131" lon="7.12188">
        <ele>2313.8</ele>
        <time>2022-07-18T16:23:23Z</time>
      </trkpt>
      <trkpt lat="44.3913" lon="7.12186">
        <ele>2313.8</ele>
        <time>2022-07-18T16:23:24Z</time>
      </trkpt>
      <trkpt lat="44.39129" lon="7.12185">
        <ele>2314</ele>
        <time>2022-07-18T16:23:25Z</time>
      </trkpt>
      <trkpt lat="44.39128" lon="7.12183">
        <ele>2314</ele>
        <time>2022-07-18T16:23:26Z</time>
      </trkpt>
      <trkpt lat="44.39127" lon="7.12181">
        <ele>2314.4</ele>
        <time>2022-07-18T16:23:27Z</time>
      </trkpt>
      <trkpt lat="44.39126" lon="7.12179">
        <ele>2314.6</ele>
        <time>2022-07-18T16:23:28Z</time>
      </trkpt>
      <trkpt lat="44.39125" lon="7.12177">
        <ele>2314.6</ele>
        <time>2022-07-18T16:23:29Z</time>
      </trkpt>
      <trkpt lat="44.39124" lon="7.12175">
        <ele>2315</ele>
        <time>2022-07-18T16:23:30Z</time>
      </trkpt>
      <trkpt lat="44.39122" lon="7.12174">
        <ele>2315.2</ele>
        <time>2022-07-18T16:23:31Z</time>
      </trkpt>
      <trkpt lat="44.39121" lon="7.12172">
        <ele>2315.4</ele>
        <time>2022-07-18T16:23:32Z</time>
      </trkpt>
      <trkpt lat="44.3912" lon="7.1217">
        <ele>2315.4</ele>
        <time>2022-07-18T16:23:33Z</time>
      </trkpt>
      <trkpt lat="44.39119" lon="7.12168">
        <ele>2315.8</ele>
        <time>2022-07-18T16:23:34Z</time>
      </trkpt>
      <trkpt lat="44.39118" lon="7.12166">
        <ele>2316</ele>
        <time>2022-07-18T16:23:35Z</time>
      </trkpt>
      <trkpt lat="44.39117" lon="7.12164">
        <ele>2316.2</ele>
        <time>2022-07-18T16:23:36Z</time>
      </trkpt>
      <trkpt lat="44.39115" lon="7.12163">
        <ele>2316.2</ele>
        <time>2022-07-18T16:23:37Z</time>
      </trkpt>
      <trkpt lat="44.39114" lon="7.12161">
        <ele>2316.6</ele>
        <time>2022-07-18T16:23:38Z</time>
      </trkpt>
      <trkpt lat="44.39113" lon="7.1216">
        <ele>2316.6</ele>
        <time>2022-07-18T16:23:39Z</time>
      </trkpt>
      <trkpt lat="44.39112" lon="7.12158">
        <ele>2317</ele>
        <time>2022-07-18T16:23:40Z</time>
      </trkpt>
      <trkpt lat="44.3911" lon="7.12156">
        <ele>2317</ele>
        <time>2022-07-18T16:23:41Z</time>
      </trkpt>
      <trkpt lat="44.39109" lon="7.12155">
        <ele>2317.2</ele>
        <time>2022-07-18T16:23:42Z</time>
      </trkpt>
      <trkpt lat="44.39108" lon="7.12153">
        <ele>2317.2</ele>
        <time>2022-07-18T16:23:43Z</time>
      </trkpt>
      <trkpt lat="44.39107" lon="7.12152">
        <ele>2317.6</ele>
        <time>2022-07-18T16:23:44Z</time>
      </trkpt>
      <trkpt lat="44.39105" lon="7.1215">
        <ele>2317.8</ele>
        <time>2022-07-18T16:23:45Z</time>
      </trkpt>
      <trkpt lat="44.39104" lon="7.12149">
        <ele>2317.8</ele>
        <time>2022-07-18T16:23:46Z</time>
      </trkpt>
      <trkpt lat="44.39102" lon="7.12148">
        <ele>2318.2</ele>
        <time>2022-07-18T16:23:47Z</time>
      </trkpt>
      <trkpt lat="44.39101" lon="7.12146">
        <ele>2318.2</ele>
        <time>2022-07-18T16:23:48Z</time>
      </trkpt>
      <trkpt lat="44.391" lon="7.12145">
        <ele>2318.4</ele>
        <time>2022-07-18T16:23:49Z</time>
      </trkpt>
      <trkpt lat="44.39098" lon="7.12144">
        <ele>2318.6</ele>
        <time>2022-07-18T16:23:50Z</time>
      </trkpt>
      <trkpt lat="44.39097" lon="7.12143">
        <ele>2318.8</ele>
        <time>2022-07-18T16:23:51Z</time>
      </trkpt>
      <trkpt lat="44.39096" lon="7.12141">
        <ele>2318.8</ele>
        <time>2022-07-18T16:23:52Z</time>
      </trkpt>
      <trkpt lat="44.39095" lon="7.1214">
        <ele>2319.2</ele>
        <time>2022-07-18T16:23:53Z</time>
      </trkpt>
      <trkpt lat="44.39093" lon="7.12138">
        <ele>2319.2</ele>
        <time>2022-07-18T16:23:54Z</time>
      </trkpt>
      <trkpt lat="44.39092" lon="7.12136">
        <ele>2319.4</ele>
        <time>2022-07-18T16:23:55Z</time>
      </trkpt>
      <trkpt lat="44.39091" lon="7.12135">
        <ele>2319.4</ele>
        <time>2022-07-18T16:23:56Z</time>
      </trkpt>
      <trkpt lat="44.3909" lon="7.12133">
        <ele>2319.8</ele>
        <time>2022-07-18T16:23:57Z</time>
      </trkpt>
      <trkpt lat="44.39089" lon="7.12132">
        <ele>2319.8</ele>
        <time>2022-07-18T16:23:58Z</time>
      </trkpt>
      <trkpt lat="44.39088" lon="7.1213">
        <ele>2320</ele>
        <time>2022-07-18T16:23:59Z</time>
      </trkpt>
      <trkpt lat="44.39087" lon="7.12129">
        <ele>2320</ele>
        <time>2022-07-18T16:24:00Z</time>
      </trkpt>
      <trkpt lat="44.39086" lon="7.12127">
        <ele>2320.2</ele>
        <time>2022-07-18T16:24:01Z</time>
      </trkpt>
      <trkpt lat="44.39085" lon="7.12126">
        <ele>2320.2</ele>
        <time>2022-07-18T16:24:02Z</time>
      </trkpt>
      <trkpt lat="44.39083" lon="7.12125">
        <ele>2320.6</ele>
        <time>2022-07-18T16:24:03Z</time>
      </trkpt>
      <trkpt lat="44.39082" lon="7.12124">
        <ele>2320.8</ele>
        <time>2022-07-18T16:24:04Z</time>
      </trkpt>
      <trkpt lat="44.39081" lon="7.12122">
        <ele>2320.8</ele>
        <time>2022-07-18T16:24:05Z</time>
      </trkpt>
      <trkpt lat="44.3908" lon="7.12121">
        <ele>2321.2</ele>
        <time>2022-07-18T16:24:06Z</time>
      </trkpt>
      <trkpt lat="44.39079" lon="7.1212">
        <ele>2321.2</ele>
        <time>2022-07-18T16:24:07Z</time>
      </trkpt>
      <trkpt lat="44.39078" lon="7.12119">
        <ele>2321.6</ele>
        <time>2022-07-18T16:24:08Z</time>
      </trkpt>
      <trkpt lat="44.39076" lon="7.12118">
        <ele>2321.6</ele>
        <time>2022-07-18T16:24:09Z</time>
      </trkpt>
      <trkpt lat="44.39075" lon="7.12117">
        <ele>2322</ele>
        <time>2022-07-18T16:24:10Z</time>
      </trkpt>
      <trkpt lat="44.39074" lon="7.12116">
        <ele>2322.2</ele>
        <time>2022-07-18T16:24:11Z</time>
      </trkpt>
      <trkpt lat="44.39073" lon="7.12114">
        <ele>2322.2</ele>
        <time>2022-07-18T16:24:12Z</time>
      </trkpt>
      <trkpt lat="44.39071" lon="7.12111">
        <ele>2322.6</ele>
        <time>2022-07-18T16:24:14Z</time>
      </trkpt>
      <trkpt lat="44.3907" lon="7.1211">
        <ele>2322.6</ele>
        <time>2022-07-18T16:24:15Z</time>
      </trkpt>
      <trkpt lat="44.39069" lon="7.12109">
        <ele>2322.8</ele>
        <time>2022-07-18T16:24:16Z</time>
      </trkpt>
      <trkpt lat="44.39068" lon="7.12108">
        <ele>2322.8</ele>
        <time>2022-07-18T16:24:17Z</time>
      </trkpt>
      <trkpt lat="44.39066" lon="7.12107">
        <ele>2323</ele>
        <time>2022-07-18T16:24:18Z</time>
      </trkpt>
      <trkpt lat="44.39065" lon="7.12106">
        <ele>2323</ele>
        <time>2022-07-18T16:24:19Z</time>
      </trkpt>
      <trkpt lat="44.39064" lon="7.12105">
        <ele>2323.2</ele>
        <time>2022-07-18T16:24:20Z</time>
      </trkpt>
      <trkpt lat="44.39062" lon="7.12104">
        <ele>2323.2</ele>
        <time>2022-07-18T16:24:21Z</time>
      </trkpt>
      <trkpt lat="44.39061" lon="7.12103">
        <ele>2323.6</ele>
        <time>2022-07-18T16:24:22Z</time>
      </trkpt>
      <trkpt lat="44.3906" lon="7.12101">
        <ele>2323.6</ele>
        <time>2022-07-18T16:24:23Z</time>
      </trkpt>
      <trkpt lat="44.39059" lon="7.12099">
        <ele>2323.8</ele>
        <time>2022-07-18T16:24:24Z</time>
      </trkpt>
      <trkpt lat="44.39058" lon="7.12098">
        <ele>2323.8</ele>
        <time>2022-07-18T16:24:25Z</time>
      </trkpt>
      <trkpt lat="44.39057" lon="7.12096">
        <ele>2324</ele>
        <time>2022-07-18T16:24:26Z</time>
      </trkpt>
      <trkpt lat="44.39056" lon="7.12094">
        <ele>2324</ele>
        <time>2022-07-18T16:24:27Z</time>
      </trkpt>
      <trkpt lat="44.39054" lon="7.12093">
        <ele>2324.4</ele>
        <time>2022-07-18T16:24:28Z</time>
      </trkpt>
      <trkpt lat="44.39053" lon="7.12091">
        <ele>2324.4</ele>
        <time>2022-07-18T16:24:29Z</time>
      </trkpt>
      <trkpt lat="44.39051" lon="7.1209">
        <ele>2324.6</ele>
        <time>2022-07-18T16:24:30Z</time>
      </trkpt>
      <trkpt lat="44.3905" lon="7.12088">
        <ele>2324.6</ele>
        <time>2022-07-18T16:24:31Z</time>
      </trkpt>
      <trkpt lat="44.39048" lon="7.12086">
        <ele>2324.8</ele>
        <time>2022-07-18T16:24:32Z</time>
      </trkpt>
      <trkpt lat="44.39047" lon="7.12085">
        <ele>2324.8</ele>
        <time>2022-07-18T16:24:33Z</time>
      </trkpt>
      <trkpt lat="44.39045" lon="7.12083">
        <ele>2325</ele>
        <time>2022-07-18T16:24:34Z</time>
      </trkpt>
      <trkpt lat="44.39043" lon="7.12082">
        <ele>2325.2</ele>
        <time>2022-07-18T16:24:35Z</time>
      </trkpt>
      <trkpt lat="44.39042" lon="7.12081">
        <ele>2325.2</ele>
        <time>2022-07-18T16:24:36Z</time>
      </trkpt>
      <trkpt lat="44.3904" lon="7.1208">
        <ele>2325.6</ele>
        <time>2022-07-18T16:24:37Z</time>
      </trkpt>
      <trkpt lat="44.39038" lon="7.12079">
        <ele>2325.6</ele>
        <time>2022-07-18T16:24:38Z</time>
      </trkpt>
      <trkpt lat="44.39037" lon="7.12078">
        <ele>2325.8</ele>
        <time>2022-07-18T16:24:39Z</time>
      </trkpt>
      <trkpt lat="44.39035" lon="7.12077">
        <ele>2325.8</ele>
        <time>2022-07-18T16:24:40Z</time>
      </trkpt>
      <trkpt lat="44.39034" lon="7.12076">
        <ele>2326</ele>
        <time>2022-07-18T16:24:41Z</time>
      </trkpt>
      <trkpt lat="44.39032" lon="7.12075">
        <ele>2326</ele>
        <time>2022-07-18T16:24:42Z</time>
      </trkpt>
      <trkpt lat="44.3903" lon="7.12075">
        <ele>2326.4</ele>
        <time>2022-07-18T16:24:43Z</time>
      </trkpt>
      <trkpt lat="44.39028" lon="7.12074">
        <ele>2326.4</ele>
        <time>2022-07-18T16:24:44Z</time>
      </trkpt>
      <trkpt lat="44.39027" lon="7.12073">
        <ele>2326.6</ele>
        <time>2022-07-18T16:24:45Z</time>
      </trkpt>
      <trkpt lat="44.39025" lon="7.12072">
        <ele>2326.6</ele>
        <time>2022-07-18T16:24:46Z</time>
      </trkpt>
      <trkpt lat="44.39023" lon="7.12072">
        <ele>2327</ele>
        <time>2022-07-18T16:24:47Z</time>
      </trkpt>
      <trkpt lat="44.39021" lon="7.12071">
        <ele>2327</ele>
        <time>2022-07-18T16:24:48Z</time>
      </trkpt>
      <trkpt lat="44.39019" lon="7.1207">
        <ele>2327.2</ele>
        <time>2022-07-18T16:24:49Z</time>
      </trkpt>
      <trkpt lat="44.39018" lon="7.12069">
        <ele>2327.2</ele>
        <time>2022-07-18T16:24:50Z</time>
      </trkpt>
      <trkpt lat="44.39016" lon="7.12068">
        <ele>2327.2</ele>
        <time>2022-07-18T16:24:51Z</time>
      </trkpt>
      <trkpt lat="44.39014" lon="7.12067">
        <ele>2327.4</ele>
        <time>2022-07-18T16:24:52Z</time>
      </trkpt>
      <trkpt lat="44.39012" lon="7.12066">
        <ele>2327.4</ele>
        <time>2022-07-18T16:24:53Z</time>
      </trkpt>
      <trkpt lat="44.3901" lon="7.12065">
        <ele>2327.6</ele>
        <time>2022-07-18T16:24:54Z</time>
      </trkpt>
      <trkpt lat="44.39008" lon="7.12065">
        <ele>2327.6</ele>
        <time>2022-07-18T16:24:55Z</time>
      </trkpt>
      <trkpt lat="44.39006" lon="7.12064">
        <ele>2328</ele>
        <time>2022-07-18T16:24:56Z</time>
      </trkpt>
      <trkpt lat="44.39004" lon="7.12063">
        <ele>2328</ele>
        <time>2022-07-18T16:24:57Z</time>
      </trkpt>
      <trkpt lat="44.39002" lon="7.12062">
        <ele>2328.2</ele>
        <time>2022-07-18T16:24:58Z</time>
      </trkpt>
      <trkpt lat="44.39" lon="7.12062">
        <ele>2328.2</ele>
        <time>2022-07-18T16:24:59Z</time>
      </trkpt>
      <trkpt lat="44.38998" lon="7.12061">
        <ele>2328.4</ele>
        <time>2022-07-18T16:25:00Z</time>
      </trkpt>
      <trkpt lat="44.38996" lon="7.1206">
        <ele>2328.4</ele>
        <time>2022-07-18T16:25:01Z</time>
      </trkpt>
      <trkpt lat="44.38994" lon="7.12059">
        <ele>2328.8</ele>
        <time>2022-07-18T16:25:02Z</time>
      </trkpt>
      <trkpt lat="44.38992" lon="7.12058">
        <ele>2328.8</ele>
        <time>2022-07-18T16:25:03Z</time>
      </trkpt>
      <trkpt lat="44.3899" lon="7.12057">
        <ele>2329.2</ele>
        <time>2022-07-18T16:25:04Z</time>
      </trkpt>
      <trkpt lat="44.38988" lon="7.12056">
        <ele>2329.2</ele>
        <time>2022-07-18T16:25:05Z</time>
      </trkpt>
      <trkpt lat="44.38986" lon="7.12055">
        <ele>2329.4</ele>
        <time>2022-07-18T16:25:06Z</time>
      </trkpt>
      <trkpt lat="44.38984" lon="7.12054">
        <ele>2329.4</ele>
        <time>2022-07-18T16:25:07Z</time>
      </trkpt>
      <trkpt lat="44.38982" lon="7.12053">
        <ele>2329.6</ele>
        <time>2022-07-18T16:25:08Z</time>
      </trkpt>
      <trkpt lat="44.3898" lon="7.12051">
        <ele>2329.6</ele>
        <time>2022-07-18T16:25:09Z</time>
      </trkpt>
      <trkpt lat="44.38978" lon="7.1205">
        <ele>2329.8</ele>
        <time>2022-07-18T16:25:10Z</time>
      </trkpt>
      <trkpt lat="44.38976" lon="7.12049">
        <ele>2329.8</ele>
        <time>2022-07-18T16:25:11Z</time>
      </trkpt>
      <trkpt lat="44.38974" lon="7.12048">
        <ele>2330.2</ele>
        <time>2022-07-18T16:25:12Z</time>
      </trkpt>
      <trkpt lat="44.38972" lon="7.12047">
        <ele>2330.4</ele>
        <time>2022-07-18T16:25:13Z</time>
      </trkpt>
      <trkpt lat="44.38971" lon="7.12046">
        <ele>2330.4</ele>
        <time>2022-07-18T16:25:14Z</time>
      </trkpt>
      <trkpt lat="44.38969" lon="7.12045">
        <ele>2330.6</ele>
        <time>2022-07-18T16:25:15Z</time>
      </trkpt>
      <trkpt lat="44.38967" lon="7.12044">
        <ele>2330.6</ele>
        <time>2022-07-18T16:25:16Z</time>
      </trkpt>
      <trkpt lat="44.38965" lon="7.12043">
        <ele>2330.8</ele>
        <time>2022-07-18T16:25:17Z</time>
      </trkpt>
      <trkpt lat="44.38963" lon="7.12042">
        <ele>2330.8</ele>
        <time>2022-07-18T16:25:18Z</time>
      </trkpt>
      <trkpt lat="44.3896" lon="7.12041">
        <ele>2331.2</ele>
        <time>2022-07-18T16:25:19Z</time>
      </trkpt>
      <trkpt lat="44.38958" lon="7.1204">
        <ele>2331.2</ele>
        <time>2022-07-18T16:25:20Z</time>
      </trkpt>
      <trkpt lat="44.38956" lon="7.12038">
        <ele>2331.6</ele>
        <time>2022-07-18T16:25:21Z</time>
      </trkpt>
      <trkpt lat="44.38954" lon="7.12037">
        <ele>2331.6</ele>
        <time>2022-07-18T16:25:22Z</time>
      </trkpt>
      <trkpt lat="44.38952" lon="7.12035">
        <ele>2331.8</ele>
        <time>2022-07-18T16:25:23Z</time>
      </trkpt>
      <trkpt lat="44.3895" lon="7.12034">
        <ele>2331.8</ele>
        <time>2022-07-18T16:25:24Z</time>
      </trkpt>
      <trkpt lat="44.38948" lon="7.12033">
        <ele>2332</ele>
        <time>2022-07-18T16:25:25Z</time>
      </trkpt>
      <trkpt lat="44.38946" lon="7.12031">
        <ele>2332.4</ele>
        <time>2022-07-18T16:25:26Z</time>
      </trkpt>
      <trkpt lat="44.38944" lon="7.1203">
        <ele>2332.4</ele>
        <time>2022-07-18T16:25:27Z</time>
      </trkpt>
      <trkpt lat="44.38942" lon="7.1203">
        <ele>2332.6</ele>
        <time>2022-07-18T16:25:28Z</time>
      </trkpt>
      <trkpt lat="44.3894" lon="7.12029">
        <ele>2332.6</ele>
        <time>2022-07-18T16:25:29Z</time>
      </trkpt>
      <trkpt lat="44.38937" lon="7.12028">
        <ele>2332.8</ele>
        <time>2022-07-18T16:25:30Z</time>
      </trkpt>
      <trkpt lat="44.38935" lon="7.12028">
        <ele>2332.8</ele>
        <time>2022-07-18T16:25:31Z</time>
      </trkpt>
      <trkpt lat="44.38933" lon="7.12027">
        <ele>2333.2</ele>
        <time>2022-07-18T16:25:32Z</time>
      </trkpt>
      <trkpt lat="44.38931" lon="7.12027">
        <ele>2333.2</ele>
        <time>2022-07-18T16:25:33Z</time>
      </trkpt>
      <trkpt lat="44.38929" lon="7.12027">
        <ele>2333.6</ele>
        <time>2022-07-18T16:25:34Z</time>
      </trkpt>
      <trkpt lat="44.38927" lon="7.12027">
        <ele>2333.8</ele>
        <time>2022-07-18T16:25:35Z</time>
      </trkpt>
      <trkpt lat="44.38924" lon="7.12027">
        <ele>2334</ele>
        <time>2022-07-18T16:25:36Z</time>
      </trkpt>
      <trkpt lat="44.38922" lon="7.12027">
        <ele>2334</ele>
        <time>2022-07-18T16:25:37Z</time>
      </trkpt>
      <trkpt lat="44.3892" lon="7.12027">
        <ele>2334</ele>
        <time>2022-07-18T16:25:38Z</time>
      </trkpt>
      <trkpt lat="44.38918" lon="7.12027">
        <ele>2334.4</ele>
        <time>2022-07-18T16:25:39Z</time>
      </trkpt>
      <trkpt lat="44.38915" lon="7.12027">
        <ele>2334.6</ele>
        <time>2022-07-18T16:25:40Z</time>
      </trkpt>
      <trkpt lat="44.38913" lon="7.12027">
        <ele>2334.6</ele>
        <time>2022-07-18T16:25:41Z</time>
      </trkpt>
      <trkpt lat="44.38911" lon="7.12028">
        <ele>2334.8</ele>
        <time>2022-07-18T16:25:42Z</time>
      </trkpt>
      <trkpt lat="44.38909" lon="7.12028">
        <ele>2334.8</ele>
        <time>2022-07-18T16:25:43Z</time>
      </trkpt>
      <trkpt lat="44.38907" lon="7.12029">
        <ele>2335.2</ele>
        <time>2022-07-18T16:25:44Z</time>
      </trkpt>
      <trkpt lat="44.38905" lon="7.12029">
        <ele>2335.2</ele>
        <time>2022-07-18T16:25:45Z</time>
      </trkpt>
      <trkpt lat="44.38903" lon="7.12029">
        <ele>2335.6</ele>
        <time>2022-07-18T16:25:46Z</time>
      </trkpt>
      <trkpt lat="44.38901" lon="7.12029">
        <ele>2335.6</ele>
        <time>2022-07-18T16:25:47Z</time>
      </trkpt>
      <trkpt lat="44.38899" lon="7.12028">
        <ele>2336</ele>
        <time>2022-07-18T16:25:48Z</time>
      </trkpt>
      <trkpt lat="44.38897" lon="7.12028">
        <ele>2336</ele>
        <time>2022-07-18T16:25:49Z</time>
      </trkpt>
      <trkpt lat="44.38895" lon="7.12028">
        <ele>2336.2</ele>
        <time>2022-07-18T16:25:50Z</time>
      </trkpt>
      <trkpt lat="44.38893" lon="7.12028">
        <ele>2336.2</ele>
        <time>2022-07-18T16:25:51Z</time>
      </trkpt>
      <trkpt lat="44.38891" lon="7.12027">
        <ele>2336.4</ele>
        <time>2022-07-18T16:25:52Z</time>
      </trkpt>
      <trkpt lat="44.38889" lon="7.12027">
        <ele>2336.4</ele>
        <time>2022-07-18T16:25:53Z</time>
      </trkpt>
      <trkpt lat="44.38887" lon="7.12027">
        <ele>2336.8</ele>
        <time>2022-07-18T16:25:54Z</time>
      </trkpt>
      <trkpt lat="44.38885" lon="7.12027">
        <ele>2336.8</ele>
        <time>2022-07-18T16:25:55Z</time>
      </trkpt>
      <trkpt lat="44.38882" lon="7.12028">
        <ele>2337</ele>
        <time>2022-07-18T16:25:56Z</time>
      </trkpt>
      <trkpt lat="44.3888" lon="7.12028">
        <ele>2337</ele>
        <time>2022-07-18T16:25:57Z</time>
      </trkpt>
      <trkpt lat="44.38878" lon="7.12028">
        <ele>2337.4</ele>
        <time>2022-07-18T16:25:58Z</time>
      </trkpt>
      <trkpt lat="44.38876" lon="7.12029">
        <ele>2337.6</ele>
        <time>2022-07-18T16:25:59Z</time>
      </trkpt>
      <trkpt lat="44.38874" lon="7.12029">
        <ele>2337.6</ele>
        <time>2022-07-18T16:26:00Z</time>
      </trkpt>
      <trkpt lat="44.38872" lon="7.1203">
        <ele>2338</ele>
        <time>2022-07-18T16:26:01Z</time>
      </trkpt>
      <trkpt lat="44.3887" lon="7.12031">
        <ele>2338</ele>
        <time>2022-07-18T16:26:02Z</time>
      </trkpt>
      <trkpt lat="44.38868" lon="7.12032">
        <ele>2338.2</ele>
        <time>2022-07-18T16:26:03Z</time>
      </trkpt>
      <trkpt lat="44.38866" lon="7.12033">
        <ele>2338.6</ele>
        <time>2022-07-18T16:26:04Z</time>
      </trkpt>
      <trkpt lat="44.38865" lon="7.12034">
        <ele>2338.8</ele>
        <time>2022-07-18T16:26:05Z</time>
      </trkpt>
      <trkpt lat="44.38863" lon="7.12035">
        <ele>2338.8</ele>
        <time>2022-07-18T16:26:06Z</time>
      </trkpt>
      <trkpt lat="44.38861" lon="7.12036">
        <ele>2339</ele>
        <time>2022-07-18T16:26:07Z</time>
      </trkpt>
      <trkpt lat="44.38859" lon="7.12037">
        <ele>2339</ele>
        <time>2022-07-18T16:26:08Z</time>
      </trkpt>
      <trkpt lat="44.38857" lon="7.12038">
        <ele>2339.4</ele>
        <time>2022-07-18T16:26:09Z</time>
      </trkpt>
      <trkpt lat="44.38856" lon="7.12039">
        <ele>2339.4</ele>
        <time>2022-07-18T16:26:10Z</time>
      </trkpt>
      <trkpt lat="44.38854" lon="7.12041">
        <ele>2339.6</ele>
        <time>2022-07-18T16:26:11Z</time>
      </trkpt>
      <trkpt lat="44.38853" lon="7.12042">
        <ele>2339.6</ele>
        <time>2022-07-18T16:26:12Z</time>
      </trkpt>
      <trkpt lat="44.38851" lon="7.12044">
        <ele>2339.6</ele>
        <time>2022-07-18T16:26:13Z</time>
      </trkpt>
      <trkpt lat="44.38849" lon="7.12045">
        <ele>2340</ele>
        <time>2022-07-18T16:26:14Z</time>
      </trkpt>
      <trkpt lat="44.38848" lon="7.12046">
        <ele>2340</ele>
        <time>2022-07-18T16:26:15Z</time>
      </trkpt>
      <trkpt lat="44.38846" lon="7.12048">
        <ele>2340.4</ele>
        <time>2022-07-18T16:26:16Z</time>
      </trkpt>
      <trkpt lat="44.38844" lon="7.1205">
        <ele>2340.4</ele>
        <time>2022-07-18T16:26:17Z</time>
      </trkpt>
      <trkpt lat="44.38843" lon="7.12051">
        <ele>2340.8</ele>
        <time>2022-07-18T16:26:18Z</time>
      </trkpt>
      <trkpt lat="44.38841" lon="7.12053">
        <ele>2340.8</ele>
        <time>2022-07-18T16:26:19Z</time>
      </trkpt>
      <trkpt lat="44.38839" lon="7.12055">
        <ele>2340.8</ele>
        <time>2022-07-18T16:26:20Z</time>
      </trkpt>
      <trkpt lat="44.38838" lon="7.12057">
        <ele>2341</ele>
        <time>2022-07-18T16:26:21Z</time>
      </trkpt>
      <trkpt lat="44.38836" lon="7.12058">
        <ele>2341</ele>
        <time>2022-07-18T16:26:22Z</time>
      </trkpt>
      <trkpt lat="44.38834" lon="7.1206">
        <ele>2341.2</ele>
        <time>2022-07-18T16:26:23Z</time>
      </trkpt>
      <trkpt lat="44.38833" lon="7.12061">
        <ele>2341.2</ele>
        <time>2022-07-18T16:26:24Z</time>
      </trkpt>
      <trkpt lat="44.38831" lon="7.12062">
        <ele>2341.6</ele>
        <time>2022-07-18T16:26:25Z</time>
      </trkpt>
      <trkpt lat="44.38829" lon="7.12063">
        <ele>2341.6</ele>
        <time>2022-07-18T16:26:26Z</time>
      </trkpt>
      <trkpt lat="44.38827" lon="7.12065">
        <ele>2341.8</ele>
        <time>2022-07-18T16:26:27Z</time>
      </trkpt>
      <trkpt lat="44.38826" lon="7.12066">
        <ele>2342</ele>
        <time>2022-07-18T16:26:28Z</time>
      </trkpt>
      <trkpt lat="44.38824" lon="7.12067">
        <ele>2342</ele>
        <time>2022-07-18T16:26:29Z</time>
      </trkpt>
      <trkpt lat="44.38823" lon="7.12068">
        <ele>2342.2</ele>
        <time>2022-07-18T16:26:30Z</time>
      </trkpt>
      <trkpt lat="44.38821" lon="7.12069">
        <ele>2342.6</ele>
        <time>2022-07-18T16:26:31Z</time>
      </trkpt>
      <trkpt lat="44.38819" lon="7.1207">
        <ele>2342.8</ele>
        <time>2022-07-18T16:26:32Z</time>
      </trkpt>
      <trkpt lat="44.38817" lon="7.12071">
        <ele>2342.8</ele>
        <time>2022-07-18T16:26:33Z</time>
      </trkpt>
      <trkpt lat="44.38815" lon="7.12072">
        <ele>2343</ele>
        <time>2022-07-18T16:26:34Z</time>
      </trkpt>
      <trkpt lat="44.38813" lon="7.12073">
        <ele>2343</ele>
        <time>2022-07-18T16:26:35Z</time>
      </trkpt>
      <trkpt lat="44.38811" lon="7.12074">
        <ele>2343.2</ele>
        <time>2022-07-18T16:26:36Z</time>
      </trkpt>
      <trkpt lat="44.38809" lon="7.12075">
        <ele>2343.2</ele>
        <time>2022-07-18T16:26:37Z</time>
      </trkpt>
      <trkpt lat="44.38807" lon="7.12076">
        <ele>2343.6</ele>
        <time>2022-07-18T16:26:38Z</time>
      </trkpt>
      <trkpt lat="44.38805" lon="7.12077">
        <ele>2343.6</ele>
        <time>2022-07-18T16:26:39Z</time>
      </trkpt>
      <trkpt lat="44.38803" lon="7.12078">
        <ele>2344</ele>
        <time>2022-07-18T16:26:40Z</time>
      </trkpt>
      <trkpt lat="44.38801" lon="7.12078">
        <ele>2344</ele>
        <time>2022-07-18T16:26:41Z</time>
      </trkpt>
      <trkpt lat="44.38799" lon="7.12079">
        <ele>2344.4</ele>
        <time>2022-07-18T16:26:42Z</time>
      </trkpt>
      <trkpt lat="44.38797" lon="7.12079">
        <ele>2344.4</ele>
        <time>2022-07-18T16:26:43Z</time>
      </trkpt>
      <trkpt lat="44.38796" lon="7.1208">
        <ele>2344.6</ele>
        <time>2022-07-18T16:26:44Z</time>
      </trkpt>
      <trkpt lat="44.38794" lon="7.12081">
        <ele>2344.6</ele>
        <time>2022-07-18T16:26:45Z</time>
      </trkpt>
      <trkpt lat="44.38792" lon="7.12082">
        <ele>2345</ele>
        <time>2022-07-18T16:26:46Z</time>
      </trkpt>
      <trkpt lat="44.3879" lon="7.12083">
        <ele>2345</ele>
        <time>2022-07-18T16:26:47Z</time>
      </trkpt>
      <trkpt lat="44.38788" lon="7.12085">
        <ele>2345.4</ele>
        <time>2022-07-18T16:26:48Z</time>
      </trkpt>
      <trkpt lat="44.38787" lon="7.12088">
        <ele>2345.4</ele>
        <time>2022-07-18T16:26:49Z</time>
      </trkpt>
      <trkpt lat="44.38786" lon="7.1209">
        <ele>2345.6</ele>
        <time>2022-07-18T16:26:50Z</time>
      </trkpt>
      <trkpt lat="44.38785" lon="7.12093">
        <ele>2345.6</ele>
        <time>2022-07-18T16:26:51Z</time>
      </trkpt>
      <trkpt lat="44.38784" lon="7.12095">
        <ele>2345.8</ele>
        <time>2022-07-18T16:26:52Z</time>
      </trkpt>
      <trkpt lat="44.38783" lon="7.12098">
        <ele>2345.8</ele>
        <time>2022-07-18T16:26:53Z</time>
      </trkpt>
      <trkpt lat="44.38782" lon="7.12101">
        <ele>2345.8</ele>
        <time>2022-07-18T16:26:54Z</time>
      </trkpt>
      <trkpt lat="44.38781" lon="7.12103">
        <ele>2346.2</ele>
        <time>2022-07-18T16:26:55Z</time>
      </trkpt>
      <trkpt lat="44.3878" lon="7.12106">
        <ele>2346.2</ele>
        <time>2022-07-18T16:26:56Z</time>
      </trkpt>
      <trkpt lat="44.38779" lon="7.12108">
        <ele>2346.4</ele>
        <time>2022-07-18T16:26:57Z</time>
      </trkpt>
      <trkpt lat="44.38779" lon="7.1211">
        <ele>2346.4</ele>
        <time>2022-07-18T16:26:58Z</time>
      </trkpt>
      <trkpt lat="44.38778" lon="7.12112">
        <ele>2346.8</ele>
        <time>2022-07-18T16:26:59Z</time>
      </trkpt>
      <trkpt lat="44.38777" lon="7.12115">
        <ele>2346.8</ele>
        <time>2022-07-18T16:27:00Z</time>
      </trkpt>
      <trkpt lat="44.38776" lon="7.12117">
        <ele>2347.2</ele>
        <time>2022-07-18T16:27:01Z</time>
      </trkpt>
      <trkpt lat="44.38775" lon="7.1212">
        <ele>2347.2</ele>
        <time>2022-07-18T16:27:02Z</time>
      </trkpt>
      <trkpt lat="44.38774" lon="7.12122">
        <ele>2347.6</ele>
        <time>2022-07-18T16:27:03Z</time>
      </trkpt>
      <trkpt lat="44.38774" lon="7.12124">
        <ele>2347.6</ele>
        <time>2022-07-18T16:27:04Z</time>
      </trkpt>
      <trkpt lat="44.38773" lon="7.12127">
        <ele>2347.8</ele>
        <time>2022-07-18T16:27:05Z</time>
      </trkpt>
      <trkpt lat="44.38772" lon="7.1213">
        <ele>2347.8</ele>
        <time>2022-07-18T16:27:06Z</time>
      </trkpt>
      <trkpt lat="44.38771" lon="7.12132">
        <ele>2348.2</ele>
        <time>2022-07-18T16:27:07Z</time>
      </trkpt>
      <trkpt lat="44.38771" lon="7.12135">
        <ele>2348.2</ele>
        <time>2022-07-18T16:27:08Z</time>
      </trkpt>
      <trkpt lat="44.3877" lon="7.12138">
        <ele>2348.6</ele>
        <time>2022-07-18T16:27:09Z</time>
      </trkpt>
      <trkpt lat="44.38769" lon="7.1214">
        <ele>2348.8</ele>
        <time>2022-07-18T16:27:10Z</time>
      </trkpt>
      <trkpt lat="44.38768" lon="7.12142">
        <ele>2348.8</ele>
        <time>2022-07-18T16:27:11Z</time>
      </trkpt>
      <trkpt lat="44.38767" lon="7.12144">
        <ele>2349.2</ele>
        <time>2022-07-18T16:27:12Z</time>
      </trkpt>
      <trkpt lat="44.38766" lon="7.12147">
        <ele>2349.2</ele>
        <time>2022-07-18T16:27:13Z</time>
      </trkpt>
      <trkpt lat="44.38765" lon="7.12149">
        <ele>2349.6</ele>
        <time>2022-07-18T16:27:14Z</time>
      </trkpt>
      <trkpt lat="44.38764" lon="7.12152">
        <ele>2349.8</ele>
        <time>2022-07-18T16:27:15Z</time>
      </trkpt>
      <trkpt lat="44.38763" lon="7.12154">
        <ele>2350</ele>
        <time>2022-07-18T16:27:16Z</time>
      </trkpt>
      <trkpt lat="44.38761" lon="7.12156">
        <ele>2350.4</ele>
        <time>2022-07-18T16:27:17Z</time>
      </trkpt>
      <trkpt lat="44.38759" lon="7.12158">
        <ele>2350.6</ele>
        <time>2022-07-18T16:27:18Z</time>
      </trkpt>
      <trkpt lat="44.38757" lon="7.12159">
        <ele>2350.8</ele>
        <time>2022-07-18T16:27:19Z</time>
      </trkpt>
      <trkpt lat="44.38756" lon="7.1216">
        <ele>2351</ele>
        <time>2022-07-18T16:27:20Z</time>
      </trkpt>
      <trkpt lat="44.38754" lon="7.12161">
        <ele>2351.2</ele>
        <time>2022-07-18T16:27:21Z</time>
      </trkpt>
      <trkpt lat="44.38753" lon="7.12163">
        <ele>2351.2</ele>
        <time>2022-07-18T16:27:22Z</time>
      </trkpt>
      <trkpt lat="44.38751" lon="7.12163">
        <ele>2351.4</ele>
        <time>2022-07-18T16:27:23Z</time>
      </trkpt>
      <trkpt lat="44.38749" lon="7.12164">
        <ele>2351.6</ele>
        <time>2022-07-18T16:27:24Z</time>
      </trkpt>
      <trkpt lat="44.38748" lon="7.12165">
        <ele>2352</ele>
        <time>2022-07-18T16:27:25Z</time>
      </trkpt>
      <trkpt lat="44.38747" lon="7.12165">
        <ele>2352.2</ele>
        <time>2022-07-18T16:27:26Z</time>
      </trkpt>
      <trkpt lat="44.38745" lon="7.12166">
        <ele>2352.6</ele>
        <time>2022-07-18T16:27:27Z</time>
      </trkpt>
      <trkpt lat="44.38744" lon="7.12168">
        <ele>2352.8</ele>
        <time>2022-07-18T16:27:28Z</time>
      </trkpt>
      <trkpt lat="44.38742" lon="7.12169">
        <ele>2353</ele>
        <time>2022-07-18T16:27:29Z</time>
      </trkpt>
      <trkpt lat="44.38741" lon="7.1217">
        <ele>2353.4</ele>
        <time>2022-07-18T16:27:30Z</time>
      </trkpt>
      <trkpt lat="44.38739" lon="7.1217">
        <ele>2353.6</ele>
        <time>2022-07-18T16:27:31Z</time>
      </trkpt>
      <trkpt lat="44.38738" lon="7.12171">
        <ele>2353.8</ele>
        <time>2022-07-18T16:27:32Z</time>
      </trkpt>
      <trkpt lat="44.38736" lon="7.12172">
        <ele>2354.2</ele>
        <time>2022-07-18T16:27:33Z</time>
      </trkpt>
      <trkpt lat="44.38735" lon="7.12173">
        <ele>2354.4</ele>
        <time>2022-07-18T16:27:34Z</time>
      </trkpt>
      <trkpt lat="44.38733" lon="7.12174">
        <ele>2354.4</ele>
        <time>2022-07-18T16:27:35Z</time>
      </trkpt>
      <trkpt lat="44.38732" lon="7.12174">
        <ele>2354.8</ele>
        <time>2022-07-18T16:27:36Z</time>
      </trkpt>
      <trkpt lat="44.3873" lon="7.12175">
        <ele>2355</ele>
        <time>2022-07-18T16:27:37Z</time>
      </trkpt>
      <trkpt lat="44.38729" lon="7.12175">
        <ele>2355</ele>
        <time>2022-07-18T16:27:38Z</time>
      </trkpt>
      <trkpt lat="44.38727" lon="7.12174">
        <ele>2355.4</ele>
        <time>2022-07-18T16:27:39Z</time>
      </trkpt>
      <trkpt lat="44.38726" lon="7.12174">
        <ele>2355.4</ele>
        <time>2022-07-18T16:27:40Z</time>
      </trkpt>
      <trkpt lat="44.38724" lon="7.12174">
        <ele>2355.8</ele>
        <time>2022-07-18T16:27:41Z</time>
      </trkpt>
      <trkpt lat="44.38723" lon="7.12174">
        <ele>2356</ele>
        <time>2022-07-18T16:27:42Z</time>
      </trkpt>
      <trkpt lat="44.38721" lon="7.12175">
        <ele>2356</ele>
        <time>2022-07-18T16:27:43Z</time>
      </trkpt>
      <trkpt lat="44.3872" lon="7.12175">
        <ele>2356.4</ele>
        <time>2022-07-18T16:27:44Z</time>
      </trkpt>
      <trkpt lat="44.38718" lon="7.12175">
        <ele>2356.6</ele>
        <time>2022-07-18T16:27:45Z</time>
      </trkpt>
      <trkpt lat="44.38717" lon="7.12176">
        <ele>2356.6</ele>
        <time>2022-07-18T16:27:46Z</time>
      </trkpt>
      <trkpt lat="44.38715" lon="7.12176">
        <ele>2357</ele>
        <time>2022-07-18T16:27:47Z</time>
      </trkpt>
      <trkpt lat="44.38714" lon="7.12177">
        <ele>2357</ele>
        <time>2022-07-18T16:27:48Z</time>
      </trkpt>
      <trkpt lat="44.38712" lon="7.12177">
        <ele>2357.4</ele>
        <time>2022-07-18T16:27:49Z</time>
      </trkpt>
      <trkpt lat="44.38711" lon="7.12176">
        <ele>2357.8</ele>
        <time>2022-07-18T16:27:50Z</time>
      </trkpt>
      <trkpt lat="44.3871" lon="7.12177">
        <ele>2357.8</ele>
        <time>2022-07-18T16:27:51Z</time>
      </trkpt>
      <trkpt lat="44.38708" lon="7.12177">
        <ele>2358.2</ele>
        <time>2022-07-18T16:27:52Z</time>
      </trkpt>
      <trkpt lat="44.38707" lon="7.12177">
        <ele>2358.2</ele>
        <time>2022-07-18T16:27:53Z</time>
      </trkpt>
      <trkpt lat="44.38705" lon="7.12177">
        <ele>2358.6</ele>
        <time>2022-07-18T16:27:54Z</time>
      </trkpt>
      <trkpt lat="44.38704" lon="7.12177">
        <ele>2358.6</ele>
        <time>2022-07-18T16:27:55Z</time>
      </trkpt>
      <trkpt lat="44.38702" lon="7.12177">
        <ele>2359</ele>
        <time>2022-07-18T16:27:56Z</time>
      </trkpt>
      <trkpt lat="44.38701" lon="7.12178">
        <ele>2359</ele>
        <time>2022-07-18T16:27:57Z</time>
      </trkpt>
      <trkpt lat="44.387" lon="7.12178">
        <ele>2359.2</ele>
        <time>2022-07-18T16:27:58Z</time>
      </trkpt>
      <trkpt lat="44.38698" lon="7.12178">
        <ele>2359.2</ele>
        <time>2022-07-18T16:27:59Z</time>
      </trkpt>
      <trkpt lat="44.38697" lon="7.12179">
        <ele>2359.6</ele>
        <time>2022-07-18T16:28:00Z</time>
      </trkpt>
      <trkpt lat="44.38696" lon="7.12179">
        <ele>2359.6</ele>
        <time>2022-07-18T16:28:01Z</time>
      </trkpt>
      <trkpt lat="44.38694" lon="7.12178">
        <ele>2359.8</ele>
        <time>2022-07-18T16:28:02Z</time>
      </trkpt>
      <trkpt lat="44.38693" lon="7.12178">
        <ele>2360</ele>
        <time>2022-07-18T16:28:03Z</time>
      </trkpt>
      <trkpt lat="44.38691" lon="7.12178">
        <ele>2360</ele>
        <time>2022-07-18T16:28:04Z</time>
      </trkpt>
      <trkpt lat="44.3869" lon="7.12178">
        <ele>2360.4</ele>
        <time>2022-07-18T16:28:05Z</time>
      </trkpt>
      <trkpt lat="44.38689" lon="7.12177">
        <ele>2360.4</ele>
        <time>2022-07-18T16:28:06Z</time>
      </trkpt>
      <trkpt lat="44.38687" lon="7.12177">
        <ele>2360.8</ele>
        <time>2022-07-18T16:28:07Z</time>
      </trkpt>
      <trkpt lat="44.38686" lon="7.12177">
        <ele>2360.8</ele>
        <time>2022-07-18T16:28:08Z</time>
      </trkpt>
      <trkpt lat="44.38684" lon="7.12177">
        <ele>2361</ele>
        <time>2022-07-18T16:28:09Z</time>
      </trkpt>
      <trkpt lat="44.38683" lon="7.12177">
        <ele>2361</ele>
        <time>2022-07-18T16:28:10Z</time>
      </trkpt>
      <trkpt lat="44.38681" lon="7.12178">
        <ele>2361.4</ele>
        <time>2022-07-18T16:28:11Z</time>
      </trkpt>
      <trkpt lat="44.3868" lon="7.12178">
        <ele>2361.4</ele>
        <time>2022-07-18T16:28:12Z</time>
      </trkpt>
      <trkpt lat="44.38678" lon="7.12179">
        <ele>2361.6</ele>
        <time>2022-07-18T16:28:13Z</time>
      </trkpt>
      <trkpt lat="44.38677" lon="7.12179">
        <ele>2361.8</ele>
        <time>2022-07-18T16:28:14Z</time>
      </trkpt>
      <trkpt lat="44.38675" lon="7.12179">
        <ele>2362</ele>
        <time>2022-07-18T16:28:15Z</time>
      </trkpt>
      <trkpt lat="44.38674" lon="7.1218">
        <ele>2362</ele>
        <time>2022-07-18T16:28:16Z</time>
      </trkpt>
      <trkpt lat="44.38672" lon="7.12181">
        <ele>2362.4</ele>
        <time>2022-07-18T16:28:17Z</time>
      </trkpt>
      <trkpt lat="44.38671" lon="7.12181">
        <ele>2362.6</ele>
        <time>2022-07-18T16:28:18Z</time>
      </trkpt>
      <trkpt lat="44.38669" lon="7.12181">
        <ele>2362.8</ele>
        <time>2022-07-18T16:28:19Z</time>
      </trkpt>
      <trkpt lat="44.38668" lon="7.12181">
        <ele>2362.8</ele>
        <time>2022-07-18T16:28:20Z</time>
      </trkpt>
      <trkpt lat="44.38667" lon="7.12181">
        <ele>2363.2</ele>
        <time>2022-07-18T16:28:21Z</time>
      </trkpt>
      <trkpt lat="44.38665" lon="7.12181">
        <ele>2363.2</ele>
        <time>2022-07-18T16:28:22Z</time>
      </trkpt>
      <trkpt lat="44.38664" lon="7.12182">
        <ele>2363.6</ele>
        <time>2022-07-18T16:28:23Z</time>
      </trkpt>
      <trkpt lat="44.38662" lon="7.12182">
        <ele>2363.6</ele>
        <time>2022-07-18T16:28:24Z</time>
      </trkpt>
      <trkpt lat="44.38661" lon="7.12182">
        <ele>2364</ele>
        <time>2022-07-18T16:28:25Z</time>
      </trkpt>
      <trkpt lat="44.38659" lon="7.12182">
        <ele>2364.2</ele>
        <time>2022-07-18T16:28:26Z</time>
      </trkpt>
      <trkpt lat="44.38658" lon="7.12182">
        <ele>2364.2</ele>
        <time>2022-07-18T16:28:27Z</time>
      </trkpt>
      <trkpt lat="44.38656" lon="7.12182">
        <ele>2364.4</ele>
        <time>2022-07-18T16:28:28Z</time>
      </trkpt>
      <trkpt lat="44.38655" lon="7.12183">
        <ele>2364.8</ele>
        <time>2022-07-18T16:28:29Z</time>
      </trkpt>
      <trkpt lat="44.38653" lon="7.12183">
        <ele>2364.8</ele>
        <time>2022-07-18T16:28:30Z</time>
      </trkpt>
      <trkpt lat="44.38652" lon="7.12183">
        <ele>2365</ele>
        <time>2022-07-18T16:28:31Z</time>
      </trkpt>
      <trkpt lat="44.3865" lon="7.12183">
        <ele>2365</ele>
        <time>2022-07-18T16:28:32Z</time>
      </trkpt>
      <trkpt lat="44.38649" lon="7.12182">
        <ele>2365.4</ele>
        <time>2022-07-18T16:28:33Z</time>
      </trkpt>
      <trkpt lat="44.38648" lon="7.12181">
        <ele>2365.4</ele>
        <time>2022-07-18T16:28:34Z</time>
      </trkpt>
      <trkpt lat="44.38647" lon="7.12179">
        <ele>2365.8</ele>
        <time>2022-07-18T16:28:35Z</time>
      </trkpt>
      <trkpt lat="44.38646" lon="7.12177">
        <ele>2365.8</ele>
        <time>2022-07-18T16:28:36Z</time>
      </trkpt>
      <trkpt lat="44.38645" lon="7.12175">
        <ele>2366</ele>
        <time>2022-07-18T16:28:37Z</time>
      </trkpt>
      <trkpt lat="44.38644" lon="7.12173">
        <ele>2366</ele>
        <time>2022-07-18T16:28:38Z</time>
      </trkpt>
      <trkpt lat="44.38644" lon="7.12171">
        <ele>2366.2</ele>
        <time>2022-07-18T16:28:39Z</time>
      </trkpt>
      <trkpt lat="44.38644" lon="7.12168">
        <ele>2366.4</ele>
        <time>2022-07-18T16:28:40Z</time>
      </trkpt>
      <trkpt lat="44.38643" lon="7.12165">
        <ele>2366.6</ele>
        <time>2022-07-18T16:28:41Z</time>
      </trkpt>
      <trkpt lat="44.38643" lon="7.12163">
        <ele>2366.6</ele>
        <time>2022-07-18T16:28:42Z</time>
      </trkpt>
      <trkpt lat="44.38642" lon="7.1216">
        <ele>2367</ele>
        <time>2022-07-18T16:28:43Z</time>
      </trkpt>
      <trkpt lat="44.38642" lon="7.12157">
        <ele>2367</ele>
        <time>2022-07-18T16:28:44Z</time>
      </trkpt>
      <trkpt lat="44.38641" lon="7.12155">
        <ele>2367.4</ele>
        <time>2022-07-18T16:28:45Z</time>
      </trkpt>
      <trkpt lat="44.3864" lon="7.12153">
        <ele>2367.4</ele>
        <time>2022-07-18T16:28:46Z</time>
      </trkpt>
      <trkpt lat="44.38639" lon="7.12151">
        <ele>2367.6</ele>
        <time>2022-07-18T16:28:47Z</time>
      </trkpt>
      <trkpt lat="44.38637" lon="7.1215">
        <ele>2367.6</ele>
        <time>2022-07-18T16:28:48Z</time>
      </trkpt>
      <trkpt lat="44.38636" lon="7.12148">
        <ele>2368</ele>
        <time>2022-07-18T16:28:49Z</time>
      </trkpt>
      <trkpt lat="44.38635" lon="7.12148">
        <ele>2368</ele>
        <time>2022-07-18T16:28:50Z</time>
      </trkpt>
      <trkpt lat="44.38633" lon="7.12147">
        <ele>2368.4</ele>
        <time>2022-07-18T16:28:51Z</time>
      </trkpt>
      <trkpt lat="44.38631" lon="7.12147">
        <ele>2368.4</ele>
        <time>2022-07-18T16:28:52Z</time>
      </trkpt>
      <trkpt lat="44.3863" lon="7.12147">
        <ele>2368.6</ele>
        <time>2022-07-18T16:28:53Z</time>
      </trkpt>
      <trkpt lat="44.38629" lon="7.12148">
        <ele>2368.6</ele>
        <time>2022-07-18T16:28:54Z</time>
      </trkpt>
      <trkpt lat="44.38627" lon="7.12149">
        <ele>2368.6</ele>
        <time>2022-07-18T16:28:55Z</time>
      </trkpt>
      <trkpt lat="44.38625" lon="7.12149">
        <ele>2368.8</ele>
        <time>2022-07-18T16:28:56Z</time>
      </trkpt>
      <trkpt lat="44.38624" lon="7.12149">
        <ele>2368.8</ele>
        <time>2022-07-18T16:28:57Z</time>
      </trkpt>
      <trkpt lat="44.38622" lon="7.1215">
        <ele>2369.2</ele>
        <time>2022-07-18T16:28:58Z</time>
      </trkpt>
      <trkpt lat="44.38621" lon="7.1215">
        <ele>2369.2</ele>
        <time>2022-07-18T16:28:59Z</time>
      </trkpt>
      <trkpt lat="44.38619" lon="7.1215">
        <ele>2369.6</ele>
        <time>2022-07-18T16:29:00Z</time>
      </trkpt>
      <trkpt lat="44.38618" lon="7.12151">
        <ele>2369.6</ele>
        <time>2022-07-18T16:29:01Z</time>
      </trkpt>
      <trkpt lat="44.38616" lon="7.12152">
        <ele>2369.8</ele>
        <time>2022-07-18T16:29:02Z</time>
      </trkpt>
      <trkpt lat="44.38615" lon="7.12153">
        <ele>2369.8</ele>
        <time>2022-07-18T16:29:03Z</time>
      </trkpt>
      <trkpt lat="44.38614" lon="7.12155">
        <ele>2370.2</ele>
        <time>2022-07-18T16:29:04Z</time>
      </trkpt>
      <trkpt lat="44.38612" lon="7.12156">
        <ele>2370.2</ele>
        <time>2022-07-18T16:29:05Z</time>
      </trkpt>
      <trkpt lat="44.38611" lon="7.12157">
        <ele>2370.6</ele>
        <time>2022-07-18T16:29:06Z</time>
      </trkpt>
      <trkpt lat="44.38609" lon="7.12158">
        <ele>2370.8</ele>
        <time>2022-07-18T16:29:07Z</time>
      </trkpt>
      <trkpt lat="44.38608" lon="7.1216">
        <ele>2370.8</ele>
        <time>2022-07-18T16:29:08Z</time>
      </trkpt>
      <trkpt lat="44.38607" lon="7.12161">
        <ele>2371.2</ele>
        <time>2022-07-18T16:29:09Z</time>
      </trkpt>
      <trkpt lat="44.38605" lon="7.12162">
        <ele>2371.4</ele>
        <time>2022-07-18T16:29:10Z</time>
      </trkpt>
      <trkpt lat="44.38604" lon="7.12163">
        <ele>2371.4</ele>
        <time>2022-07-18T16:29:11Z</time>
      </trkpt>
      <trkpt lat="44.38603" lon="7.12165">
        <ele>2371.8</ele>
        <time>2022-07-18T16:29:12Z</time>
      </trkpt>
      <trkpt lat="44.38602" lon="7.12166">
        <ele>2372</ele>
        <time>2022-07-18T16:29:13Z</time>
      </trkpt>
      <trkpt lat="44.386" lon="7.12167">
        <ele>2372.2</ele>
        <time>2022-07-18T16:29:14Z</time>
      </trkpt>
      <trkpt lat="44.38599" lon="7.12169">
        <ele>2372.4</ele>
        <time>2022-07-18T16:29:15Z</time>
      </trkpt>
      <trkpt lat="44.38597" lon="7.1217">
        <ele>2372.4</ele>
        <time>2022-07-18T16:29:16Z</time>
      </trkpt>
      <trkpt lat="44.38596" lon="7.12171">
        <ele>2372.8</ele>
        <time>2022-07-18T16:29:17Z</time>
      </trkpt>
      <trkpt lat="44.38595" lon="7.12173">
        <ele>2372.8</ele>
        <time>2022-07-18T16:29:18Z</time>
      </trkpt>
      <trkpt lat="44.38593" lon="7.12173">
        <ele>2373.2</ele>
        <time>2022-07-18T16:29:19Z</time>
      </trkpt>
      <trkpt lat="44.38592" lon="7.12174">
        <ele>2373.4</ele>
        <time>2022-07-18T16:29:20Z</time>
      </trkpt>
      <trkpt lat="44.38591" lon="7.12175">
        <ele>2373.4</ele>
        <time>2022-07-18T16:29:21Z</time>
      </trkpt>
      <trkpt lat="44.38589" lon="7.12177">
        <ele>2373.6</ele>
        <time>2022-07-18T16:29:22Z</time>
      </trkpt>
      <trkpt lat="44.38587" lon="7.12177">
        <ele>2373.6</ele>
        <time>2022-07-18T16:29:23Z</time>
      </trkpt>
      <trkpt lat="44.38586" lon="7.12178">
        <ele>2374</ele>
        <time>2022-07-18T16:29:24Z</time>
      </trkpt>
      <trkpt lat="44.38584" lon="7.12178">
        <ele>2374</ele>
        <time>2022-07-18T16:29:25Z</time>
      </trkpt>
      <trkpt lat="44.38583" lon="7.12178">
        <ele>2374.4</ele>
        <time>2022-07-18T16:29:26Z</time>
      </trkpt>
      <trkpt lat="44.38581" lon="7.12179">
        <ele>2374.4</ele>
        <time>2022-07-18T16:29:27Z</time>
      </trkpt>
      <trkpt lat="44.3858" lon="7.12179">
        <ele>2374.8</ele>
        <time>2022-07-18T16:29:28Z</time>
      </trkpt>
      <trkpt lat="44.38579" lon="7.1218">
        <ele>2374.8</ele>
        <time>2022-07-18T16:29:29Z</time>
      </trkpt>
      <trkpt lat="44.38577" lon="7.1218">
        <ele>2375</ele>
        <time>2022-07-18T16:29:30Z</time>
      </trkpt>
      <trkpt lat="44.38576" lon="7.1218">
        <ele>2375</ele>
        <time>2022-07-18T16:29:31Z</time>
      </trkpt>
      <trkpt lat="44.38574" lon="7.1218">
        <ele>2375.4</ele>
        <time>2022-07-18T16:29:32Z</time>
      </trkpt>
      <trkpt lat="44.38573" lon="7.1218">
        <ele>2375.4</ele>
        <time>2022-07-18T16:29:33Z</time>
      </trkpt>
      <trkpt lat="44.38571" lon="7.1218">
        <ele>2375.4</ele>
        <time>2022-07-18T16:29:34Z</time>
      </trkpt>
      <trkpt lat="44.38569" lon="7.12179">
        <ele>2375.6</ele>
        <time>2022-07-18T16:29:35Z</time>
      </trkpt>
      <trkpt lat="44.38568" lon="7.12178">
        <ele>2375.6</ele>
        <time>2022-07-18T16:29:36Z</time>
      </trkpt>
      <trkpt lat="44.38567" lon="7.12177">
        <ele>2375.6</ele>
        <time>2022-07-18T16:29:37Z</time>
      </trkpt>
      <trkpt lat="44.38566" lon="7.12177">
        <ele>2375.6</ele>
        <time>2022-07-18T16:29:38Z</time>
      </trkpt>
      <trkpt lat="44.38566" lon="7.12177">
        <ele>2375.6</ele>
        <time>2022-07-18T16:29:39Z</time>
      </trkpt>
      <trkpt lat="44.38566" lon="7.12177">
        <ele>2375.6</ele>
        <time>2022-07-18T16:29:40Z</time>
      </trkpt>
      <trkpt lat="44.38566" lon="7.12176">
        <ele>2375.8</ele>
        <time>2022-07-18T16:29:41Z</time>
      </trkpt>
      <trkpt lat="44.38566" lon="7.12176">
        <ele>2375.8</ele>
        <time>2022-07-18T16:29:42Z</time>
      </trkpt>
      <trkpt lat="44.38566" lon="7.12176">
        <ele>2375.8</ele>
        <time>2022-07-18T16:29:43Z</time>
      </trkpt>
      <trkpt lat="44.38566" lon="7.12176">
        <ele>2375.8</ele>
        <time>2022-07-18T16:29:44Z</time>
      </trkpt>
      <trkpt lat="44.38566" lon="7.12176">
        <ele>2375.8</ele>
        <time>2022-07-18T16:29:45Z</time>
      </trkpt>
      <trkpt lat="44.38566" lon="7.12176">
        <ele>2375.8</ele>
        <time>2022-07-18T16:29:48Z</time>
      </trkpt>
      <trkpt lat="44.38566" lon="7.12176">
        <ele>2375.8</ele>
        <time>2022-07-18T16:29:49Z</time>
      </trkpt>
      <trkpt lat="44.38566" lon="7.12175">
        <ele>2375.8</ele>
        <time>2022-07-18T16:29:51Z</time>
      </trkpt>
      <trkpt lat="44.38566" lon="7.12175">
        <ele>2375.8</ele>
        <time>2022-07-18T16:29:52Z</time>
      </trkpt>
      <trkpt lat="44.38566" lon="7.12175">
        <ele>2375.8</ele>
        <time>2022-07-18T16:29:53Z</time>
      </trkpt>
      <trkpt lat="44.38566" lon="7.12175">
        <ele>2375.8</ele>
        <time>2022-07-18T16:29:54Z</time>
      </trkpt>
      <trkpt lat="44.38566" lon="7.12175">
        <ele>2375.8</ele>
        <time>2022-07-18T16:29:55Z</time>
      </trkpt>
      <trkpt lat="44.38566" lon="7.12175">
        <ele>2375.8</ele>
        <time>2022-07-18T16:29:56Z</time>
      </trkpt>
      <trkpt lat="44.38566" lon="7.12174">
        <ele>2376</ele>
        <time>2022-07-18T16:29:57Z</time>
      </trkpt>
      <trkpt lat="44.38566" lon="7.12174">
        <ele>2376</ele>
        <time>2022-07-18T16:29:58Z</time>
      </trkpt>
      <trkpt lat="44.38566" lon="7.12174">
        <ele>2376</ele>
        <time>2022-07-18T16:30:00Z</time>
      </trkpt>
      <trkpt lat="44.38566" lon="7.12174">
        <ele>2376</ele>
        <time>2022-07-18T16:30:01Z</time>
      </trkpt>
      <trkpt lat="44.38566" lon="7.12174">
        <ele>2376</ele>
        <time>2022-07-18T16:30:02Z</time>
      </trkpt>
      <trkpt lat="44.38566" lon="7.12174">
        <ele>2376</ele>
        <time>2022-07-18T16:30:03Z</time>
      </trkpt>
      <trkpt lat="44.38566" lon="7.12174">
        <ele>2376</ele>
        <time>2022-07-18T16:30:04Z</time>
      </trkpt>
      <trkpt lat="44.38566" lon="7.12173">
        <ele>2376</ele>
        <time>2022-07-18T16:30:05Z</time>
      </trkpt>
      <trkpt lat="44.38566" lon="7.12173">
        <ele>2376.6</ele>
        <time>2022-07-18T16:35:30Z</time>
      </trkpt>
      <trkpt lat="44.38566" lon="7.12173">
        <ele>2376.6</ele>
        <time>2022-07-18T16:35:31Z</time>
      </trkpt>
      <trkpt lat="44.38566" lon="7.12173">
        <ele>2376.6</ele>
        <time>2022-07-18T16:35:32Z</time>
      </trkpt>
      <trkpt lat="44.38565" lon="7.12173">
        <ele>2376.6</ele>
        <time>2022-07-18T16:35:33Z</time>
      </trkpt>
      <trkpt lat="44.38565" lon="7.12173">
        <ele>2376.6</ele>
        <time>2022-07-18T16:35:34Z</time>
      </trkpt>
      <trkpt lat="44.38565" lon="7.12173">
        <ele>2376.6</ele>
        <time>2022-07-18T16:35:35Z</time>
      </trkpt>
      <trkpt lat="44.38565" lon="7.12172">
        <ele>2376.6</ele>
        <time>2022-07-18T16:35:36Z</time>
      </trkpt>
      <trkpt lat="44.38565" lon="7.12172">
        <ele>2376.6</ele>
        <time>2022-07-18T16:35:47Z</time>
      </trkpt>
      <trkpt lat="44.38565" lon="7.12172">
        <ele>2376.6</ele>
        <time>2022-07-18T16:35:48Z</time>
      </trkpt>
      <trkpt lat="44.38565" lon="7.12172">
        <ele>2376.6</ele>
        <time>2022-07-18T16:35:49Z</time>
      </trkpt>
      <trkpt lat="44.38565" lon="7.12172">
        <ele>2376.6</ele>
        <time>2022-07-18T16:35:50Z</time>
      </trkpt>
      <trkpt lat="44.38565" lon="7.12172">
        <ele>2376.6</ele>
        <time>2022-07-18T16:35:51Z</time>
      </trkpt>
      <trkpt lat="44.38565" lon="7.12171">
        <ele>2376.6</ele>
        <time>2022-07-18T16:35:52Z</time>
      </trkpt>
      <trkpt lat="44.38565" lon="7.12171">
        <ele>2376.8</ele>
        <time>2022-07-18T16:35:55Z</time>
      </trkpt>
      <trkpt lat="44.38565" lon="7.12171">
        <ele>2376.8</ele>
        <time>2022-07-18T16:35:56Z</time>
      </trkpt>
      <trkpt lat="44.38565" lon="7.12171">
        <ele>2376.8</ele>
        <time>2022-07-18T16:35:57Z</time>
      </trkpt>
      <trkpt lat="44.38565" lon="7.12171">
        <ele>2376.8</ele>
        <time>2022-07-18T16:36:01Z</time>
      </trkpt>
      <trkpt lat="44.38565" lon="7.12171">
        <ele>2376.8</ele>
        <time>2022-07-18T16:36:02Z</time>
      </trkpt>
      <trkpt lat="44.38565" lon="7.12171">
        <ele>2376.8</ele>
        <time>2022-07-18T16:36:03Z</time>
      </trkpt>
      <trkpt lat="44.38565" lon="7.1217">
        <ele>2376.8</ele>
        <time>2022-07-18T16:36:04Z</time>
      </trkpt>
      <trkpt lat="44.38565" lon="7.12168">
        <ele>2376.8</ele>
        <time>2022-07-18T16:36:05Z</time>
      </trkpt>
      <trkpt lat="44.38564" lon="7.12166">
        <ele>2376.6</ele>
        <time>2022-07-18T16:36:07Z</time>
      </trkpt>
      <trkpt lat="44.38564" lon="7.12163">
        <ele>2376.6</ele>
        <time>2022-07-18T16:36:08Z</time>
      </trkpt>
      <trkpt lat="44.38564" lon="7.12161">
        <ele>2376.6</ele>
        <time>2022-07-18T16:36:09Z</time>
      </trkpt>
      <trkpt lat="44.38564" lon="7.12158">
        <ele>2376.6</ele>
        <time>2022-07-18T16:36:10Z</time>
      </trkpt>
      <trkpt lat="44.38565" lon="7.12156">
        <ele>2376.6</ele>
        <time>2022-07-18T16:36:11Z</time>
      </trkpt>
      <trkpt lat="44.38566" lon="7.12152">
        <ele>2376.6</ele>
        <time>2022-07-18T16:36:12Z</time>
      </trkpt>
      <trkpt lat="44.38566" lon="7.1215">
        <ele>2376.6</ele>
        <time>2022-07-18T16:36:13Z</time>
      </trkpt>
      <trkpt lat="44.38567" lon="7.12147">
        <ele>2376.6</ele>
        <time>2022-07-18T16:36:14Z</time>
      </trkpt>
      <trkpt lat="44.38567" lon="7.12144">
        <ele>2376.6</ele>
        <time>2022-07-18T16:36:15Z</time>
      </trkpt>
      <trkpt lat="44.38568" lon="7.1214">
        <ele>2376.6</ele>
        <time>2022-07-18T16:36:16Z</time>
      </trkpt>
      <trkpt lat="44.38568" lon="7.12136">
        <ele>2376.6</ele>
        <time>2022-07-18T16:36:17Z</time>
      </trkpt>
      <trkpt lat="44.38569" lon="7.12131">
        <ele>2376.6</ele>
        <time>2022-07-18T16:36:18Z</time>
      </trkpt>
      <trkpt lat="44.38569" lon="7.12127">
        <ele>2376.6</ele>
        <time>2022-07-18T16:36:19Z</time>
      </trkpt>
      <trkpt lat="44.38569" lon="7.12123">
        <ele>2376.6</ele>
        <time>2022-07-18T16:36:20Z</time>
      </trkpt>
      <trkpt lat="44.38569" lon="7.12119">
        <ele>2376.8</ele>
        <time>2022-07-18T16:36:21Z</time>
      </trkpt>
      <trkpt lat="44.38569" lon="7.12115">
        <ele>2376.8</ele>
        <time>2022-07-18T16:36:22Z</time>
      </trkpt>
      <trkpt lat="44.38569" lon="7.12108">
        <ele>2376.8</ele>
        <time>2022-07-18T16:36:23Z</time>
      </trkpt>
      <trkpt lat="44.38569" lon="7.12106">
        <ele>2376.8</ele>
        <time>2022-07-18T16:36:24Z</time>
      </trkpt>
      <trkpt lat="44.38569" lon="7.12101">
        <ele>2376.8</ele>
        <time>2022-07-18T16:36:25Z</time>
      </trkpt>
      <trkpt lat="44.38569" lon="7.12097">
        <ele>2377.2</ele>
        <time>2022-07-18T16:36:26Z</time>
      </trkpt>
      <trkpt lat="44.3857" lon="7.12092">
        <ele>2377.2</ele>
        <time>2022-07-18T16:36:27Z</time>
      </trkpt>
      <trkpt lat="44.3857" lon="7.12088">
        <ele>2377.2</ele>
        <time>2022-07-18T16:36:28Z</time>
      </trkpt>
      <trkpt lat="44.3857" lon="7.12083">
        <ele>2377.2</ele>
        <time>2022-07-18T16:36:29Z</time>
      </trkpt>
      <trkpt lat="44.38571" lon="7.12079">
        <ele>2377.4</ele>
        <time>2022-07-18T16:36:30Z</time>
      </trkpt>
      <trkpt lat="44.38571" lon="7.12074">
        <ele>2377.4</ele>
        <time>2022-07-18T16:36:31Z</time>
      </trkpt>
      <trkpt lat="44.3857" lon="7.12067">
        <ele>2377.4</ele>
        <time>2022-07-18T16:36:32Z</time>
      </trkpt>
      <trkpt lat="44.3857" lon="7.12064">
        <ele>2377.4</ele>
        <time>2022-07-18T16:36:33Z</time>
      </trkpt>
      <trkpt lat="44.3857" lon="7.1206">
        <ele>2377.4</ele>
        <time>2022-07-18T16:36:34Z</time>
      </trkpt>
      <trkpt lat="44.3857" lon="7.12052">
        <ele>2377.4</ele>
        <time>2022-07-18T16:36:35Z</time>
      </trkpt>
      <trkpt lat="44.3857" lon="7.12049">
        <ele>2377.4</ele>
        <time>2022-07-18T16:36:36Z</time>
      </trkpt>
      <trkpt lat="44.38569" lon="7.12043">
        <ele>2377.4</ele>
        <time>2022-07-18T16:36:37Z</time>
      </trkpt>
      <trkpt lat="44.38569" lon="7.12038">
        <ele>2377.4</ele>
        <time>2022-07-18T16:36:38Z</time>
      </trkpt>
      <trkpt lat="44.38569" lon="7.12029">
        <ele>2377.4</ele>
        <time>2022-07-18T16:36:39Z</time>
      </trkpt>
      <trkpt lat="44.38569" lon="7.12026">
        <ele>2377.4</ele>
        <time>2022-07-18T16:36:40Z</time>
      </trkpt>
      <trkpt lat="44.3857" lon="7.12018">
        <ele>2377.4</ele>
        <time>2022-07-18T16:36:41Z</time>
      </trkpt>
      <trkpt lat="44.38571" lon="7.12015">
        <ele>2377.4</ele>
        <time>2022-07-18T16:36:42Z</time>
      </trkpt>
      <trkpt lat="44.38572" lon="7.12006">
        <ele>2377.4</ele>
        <time>2022-07-18T16:36:43Z</time>
      </trkpt>
      <trkpt lat="44.38572" lon="7.12003">
        <ele>2377.4</ele>
        <time>2022-07-18T16:36:44Z</time>
      </trkpt>
      <trkpt lat="44.38572" lon="7.11997">
        <ele>2377.6</ele>
        <time>2022-07-18T16:36:45Z</time>
      </trkpt>
      <trkpt lat="44.38573" lon="7.11991">
        <ele>2377.6</ele>
        <time>2022-07-18T16:36:46Z</time>
      </trkpt>
      <trkpt lat="44.38572" lon="7.11982">
        <ele>2377.6</ele>
        <time>2022-07-18T16:36:47Z</time>
      </trkpt>
      <trkpt lat="44.38572" lon="7.11979">
        <ele>2377.6</ele>
        <time>2022-07-18T16:36:48Z</time>
      </trkpt>
      <trkpt lat="44.38571" lon="7.11973">
        <ele>2377.6</ele>
        <time>2022-07-18T16:36:49Z</time>
      </trkpt>
      <trkpt lat="44.38571" lon="7.11968">
        <ele>2377.6</ele>
        <time>2022-07-18T16:36:50Z</time>
      </trkpt>
      <trkpt lat="44.38571" lon="7.11962">
        <ele>2378</ele>
        <time>2022-07-18T16:36:51Z</time>
      </trkpt>
      <trkpt lat="44.3857" lon="7.11953">
        <ele>2378</ele>
        <time>2022-07-18T16:36:52Z</time>
      </trkpt>
      <trkpt lat="44.38569" lon="7.1195">
        <ele>2378</ele>
        <time>2022-07-18T16:36:53Z</time>
      </trkpt>
      <trkpt lat="44.38568" lon="7.11944">
        <ele>2378</ele>
        <time>2022-07-18T16:36:54Z</time>
      </trkpt>
      <trkpt lat="44.38565" lon="7.11936">
        <ele>2378</ele>
        <time>2022-07-18T16:36:55Z</time>
      </trkpt>
      <trkpt lat="44.38563" lon="7.11933">
        <ele>2377.8</ele>
        <time>2022-07-18T16:36:56Z</time>
      </trkpt>
      <trkpt lat="44.3856" lon="7.11927">
        <ele>2377.8</ele>
        <time>2022-07-18T16:36:57Z</time>
      </trkpt>
      <trkpt lat="44.38557" lon="7.1192">
        <ele>2377.4</ele>
        <time>2022-07-18T16:36:58Z</time>
      </trkpt>
      <trkpt lat="44.38552" lon="7.11909">
        <ele>2377</ele>
        <time>2022-07-18T16:36:59Z</time>
      </trkpt>
      <trkpt lat="44.3855" lon="7.11905">
        <ele>2376.6</ele>
        <time>2022-07-18T16:37:00Z</time>
      </trkpt>
      <trkpt lat="44.38547" lon="7.11896">
        <ele>2376</ele>
        <time>2022-07-18T16:37:01Z</time>
      </trkpt>
      <trkpt lat="44.38545" lon="7.11887">
        <ele>2375.4</ele>
        <time>2022-07-18T16:37:02Z</time>
      </trkpt>
      <trkpt lat="44.38542" lon="7.11878">
        <ele>2374.6</ele>
        <time>2022-07-18T16:37:03Z</time>
      </trkpt>
      <trkpt lat="44.38536" lon="7.11865">
        <ele>2374</ele>
        <time>2022-07-18T16:37:04Z</time>
      </trkpt>
      <trkpt lat="44.38534" lon="7.11861">
        <ele>2373.4</ele>
        <time>2022-07-18T16:37:05Z</time>
      </trkpt>
      <trkpt lat="44.3853" lon="7.11852">
        <ele>2372.6</ele>
        <time>2022-07-18T16:37:06Z</time>
      </trkpt>
      <trkpt lat="44.38527" lon="7.11843">
        <ele>2371.8</ele>
        <time>2022-07-18T16:37:07Z</time>
      </trkpt>
      <trkpt lat="44.38525" lon="7.11831">
        <ele>2371</ele>
        <time>2022-07-18T16:37:08Z</time>
      </trkpt>
      <trkpt lat="44.38521" lon="7.11813">
        <ele>2370.4</ele>
        <time>2022-07-18T16:37:09Z</time>
      </trkpt>
      <trkpt lat="44.38519" lon="7.11806">
        <ele>2369.6</ele>
        <time>2022-07-18T16:37:10Z</time>
      </trkpt>
      <trkpt lat="44.38516" lon="7.11793">
        <ele>2368.8</ele>
        <time>2022-07-18T16:37:11Z</time>
      </trkpt>
      <trkpt lat="44.38514" lon="7.1178">
        <ele>2368.4</ele>
        <time>2022-07-18T16:37:12Z</time>
      </trkpt>
      <trkpt lat="44.38513" lon="7.11767">
        <ele>2367.8</ele>
        <time>2022-07-18T16:37:13Z</time>
      </trkpt>
      <trkpt lat="44.38514" lon="7.11754">
        <ele>2367.6</ele>
        <time>2022-07-18T16:37:14Z</time>
      </trkpt>
      <trkpt lat="44.38515" lon="7.11736">
        <ele>2367.6</ele>
        <time>2022-07-18T16:37:15Z</time>
      </trkpt>
      <trkpt lat="44.38515" lon="7.1173">
        <ele>2367.4</ele>
        <time>2022-07-18T16:37:16Z</time>
      </trkpt>
      <trkpt lat="44.38517" lon="7.11719">
        <ele>2367.4</ele>
        <time>2022-07-18T16:37:17Z</time>
      </trkpt>
      <trkpt lat="44.3852" lon="7.11708">
        <ele>2367.2</ele>
        <time>2022-07-18T16:37:18Z</time>
      </trkpt>
      <trkpt lat="44.38522" lon="7.11699">
        <ele>2367.2</ele>
        <time>2022-07-18T16:37:19Z</time>
      </trkpt>
      <trkpt lat="44.38524" lon="7.11686">
        <ele>2367</ele>
        <time>2022-07-18T16:37:20Z</time>
      </trkpt>
      <trkpt lat="44.38525" lon="7.11682">
        <ele>2367</ele>
        <time>2022-07-18T16:37:21Z</time>
      </trkpt>
      <trkpt lat="44.38525" lon="7.1167">
        <ele>2367</ele>
        <time>2022-07-18T16:37:22Z</time>
      </trkpt>
      <trkpt lat="44.38525" lon="7.11666">
        <ele>2366.6</ele>
        <time>2022-07-18T16:37:23Z</time>
      </trkpt>
      <trkpt lat="44.38525" lon="7.11657">
        <ele>2366.6</ele>
        <time>2022-07-18T16:37:24Z</time>
      </trkpt>
      <trkpt lat="44.38525" lon="7.11649">
        <ele>2366.4</ele>
        <time>2022-07-18T16:37:25Z</time>
      </trkpt>
      <trkpt lat="44.38524" lon="7.11636">
        <ele>2366.4</ele>
        <time>2022-07-18T16:37:26Z</time>
      </trkpt>
      <trkpt lat="44.38524" lon="7.11632">
        <ele>2366.4</ele>
        <time>2022-07-18T16:37:27Z</time>
      </trkpt>
      <trkpt lat="44.38524" lon="7.11624">
        <ele>2366.4</ele>
        <time>2022-07-18T16:37:28Z</time>
      </trkpt>
      <trkpt lat="44.38523" lon="7.11612">
        <ele>2366.4</ele>
        <time>2022-07-18T16:37:29Z</time>
      </trkpt>
      <trkpt lat="44.38524" lon="7.11608">
        <ele>2366.2</ele>
        <time>2022-07-18T16:37:30Z</time>
      </trkpt>
      <trkpt lat="44.38524" lon="7.11597">
        <ele>2366.2</ele>
        <time>2022-07-18T16:37:31Z</time>
      </trkpt>
      <trkpt lat="44.38524" lon="7.11593">
        <ele>2365.8</ele>
        <time>2022-07-18T16:37:32Z</time>
      </trkpt>
      <trkpt lat="44.38524" lon="7.11582">
        <ele>2365.8</ele>
        <time>2022-07-18T16:37:33Z</time>
      </trkpt>
      <trkpt lat="44.38523" lon="7.11579">
        <ele>2365.8</ele>
        <time>2022-07-18T16:37:34Z</time>
      </trkpt>
      <trkpt lat="44.38521" lon="7.1157">
        <ele>2365.8</ele>
        <time>2022-07-18T16:37:35Z</time>
      </trkpt>
      <trkpt lat="44.38519" lon="7.11568">
        <ele>2365.6</ele>
        <time>2022-07-18T16:37:36Z</time>
      </trkpt>
      <trkpt lat="44.38517" lon="7.11563">
        <ele>2365.6</ele>
        <time>2022-07-18T16:37:37Z</time>
      </trkpt>
      <trkpt lat="44.38514" lon="7.11556">
        <ele>2365.6</ele>
        <time>2022-07-18T16:37:38Z</time>
      </trkpt>
      <trkpt lat="44.38514" lon="7.11553">
        <ele>2365.4</ele>
        <time>2022-07-18T16:37:39Z</time>
      </trkpt>
      <trkpt lat="44.38513" lon="7.11543">
        <ele>2365.4</ele>
        <time>2022-07-18T16:37:40Z</time>
      </trkpt>
      <trkpt lat="44.38513" lon="7.1154">
        <ele>2365</ele>
        <time>2022-07-18T16:37:41Z</time>
      </trkpt>
      <trkpt lat="44.38514" lon="7.11533">
        <ele>2364.6</ele>
        <time>2022-07-18T16:37:42Z</time>
      </trkpt>
      <trkpt lat="44.38514" lon="7.11526">
        <ele>2364.4</ele>
        <time>2022-07-18T16:37:43Z</time>
      </trkpt>
      <trkpt lat="44.38515" lon="7.11521">
        <ele>2364</ele>
        <time>2022-07-18T16:37:44Z</time>
      </trkpt>
      <trkpt lat="44.38516" lon="7.11516">
        <ele>2363.8</ele>
        <time>2022-07-18T16:37:45Z</time>
      </trkpt>
      <trkpt lat="44.3852" lon="7.11509">
        <ele>2363.4</ele>
        <time>2022-07-18T16:37:46Z</time>
      </trkpt>
      <trkpt lat="44.38521" lon="7.11507">
        <ele>2363</ele>
        <time>2022-07-18T16:37:47Z</time>
      </trkpt>
      <trkpt lat="44.38526" lon="7.115">
        <ele>2362.4</ele>
        <time>2022-07-18T16:37:48Z</time>
      </trkpt>
      <trkpt lat="44.38528" lon="7.11497">
        <ele>2362</ele>
        <time>2022-07-18T16:37:49Z</time>
      </trkpt>
      <trkpt lat="44.38532" lon="7.1149">
        <ele>2361.4</ele>
        <time>2022-07-18T16:37:50Z</time>
      </trkpt>
      <trkpt lat="44.38535" lon="7.11482">
        <ele>2360.8</ele>
        <time>2022-07-18T16:37:51Z</time>
      </trkpt>
      <trkpt lat="44.3854" lon="7.11471">
        <ele>2360</ele>
        <time>2022-07-18T16:37:52Z</time>
      </trkpt>
      <trkpt lat="44.38541" lon="7.11468">
        <ele>2359.4</ele>
        <time>2022-07-18T16:37:53Z</time>
      </trkpt>
      <trkpt lat="44.38545" lon="7.1146">
        <ele>2358.6</ele>
        <time>2022-07-18T16:37:54Z</time>
      </trkpt>
      <trkpt lat="44.3855" lon="7.11453">
        <ele>2358</ele>
        <time>2022-07-18T16:37:55Z</time>
      </trkpt>
      <trkpt lat="44.38555" lon="7.11447">
        <ele>2357.2</ele>
        <time>2022-07-18T16:37:56Z</time>
      </trkpt>
      <trkpt lat="44.38563" lon="7.11437">
        <ele>2356.4</ele>
        <time>2022-07-18T16:37:57Z</time>
      </trkpt>
      <trkpt lat="44.38565" lon="7.11433">
        <ele>2355.6</ele>
        <time>2022-07-18T16:37:58Z</time>
      </trkpt>
      <trkpt lat="44.38571" lon="7.11427">
        <ele>2354.8</ele>
        <time>2022-07-18T16:37:59Z</time>
      </trkpt>
      <trkpt lat="44.38578" lon="7.11422">
        <ele>2353.2</ele>
        <time>2022-07-18T16:38:00Z</time>
      </trkpt>
      <trkpt lat="44.38585" lon="7.11416">
        <ele>2352.2</ele>
        <time>2022-07-18T16:38:01Z</time>
      </trkpt>
      <trkpt lat="44.38594" lon="7.11408">
        <ele>2351.6</ele>
        <time>2022-07-18T16:38:02Z</time>
      </trkpt>
      <trkpt lat="44.38596" lon="7.11406">
        <ele>2350.6</ele>
        <time>2022-07-18T16:38:03Z</time>
      </trkpt>
      <trkpt lat="44.38602" lon="7.11401">
        <ele>2349.8</ele>
        <time>2022-07-18T16:38:04Z</time>
      </trkpt>
      <trkpt lat="44.38608" lon="7.11392">
        <ele>2349</ele>
        <time>2022-07-18T16:38:05Z</time>
      </trkpt>
      <trkpt lat="44.38609" lon="7.11389">
        <ele>2348.2</ele>
        <time>2022-07-18T16:38:06Z</time>
      </trkpt>
      <trkpt lat="44.3861" lon="7.11379">
        <ele>2347.4</ele>
        <time>2022-07-18T16:38:07Z</time>
      </trkpt>
      <trkpt lat="44.38609" lon="7.11368">
        <ele>2346.6</ele>
        <time>2022-07-18T16:38:08Z</time>
      </trkpt>
      <trkpt lat="44.38607" lon="7.11357">
        <ele>2345.6</ele>
        <time>2022-07-18T16:38:09Z</time>
      </trkpt>
      <trkpt lat="44.38603" lon="7.1134">
        <ele>2344.6</ele>
        <time>2022-07-18T16:38:10Z</time>
      </trkpt>
      <trkpt lat="44.38602" lon="7.11335">
        <ele>2343.8</ele>
        <time>2022-07-18T16:38:11Z</time>
      </trkpt>
      <trkpt lat="44.38597" lon="7.11319">
        <ele>2342.8</ele>
        <time>2022-07-18T16:38:12Z</time>
      </trkpt>
      <trkpt lat="44.38595" lon="7.11314">
        <ele>2341.8</ele>
        <time>2022-07-18T16:38:13Z</time>
      </trkpt>
      <trkpt lat="44.3859" lon="7.11305">
        <ele>2340.8</ele>
        <time>2022-07-18T16:38:14Z</time>
      </trkpt>
      <trkpt lat="44.38583" lon="7.11291">
        <ele>2339.8</ele>
        <time>2022-07-18T16:38:15Z</time>
      </trkpt>
      <trkpt lat="44.38581" lon="7.11286">
        <ele>2338.8</ele>
        <time>2022-07-18T16:38:16Z</time>
      </trkpt>
      <trkpt lat="44.38577" lon="7.11276">
        <ele>2337.8</ele>
        <time>2022-07-18T16:38:17Z</time>
      </trkpt>
      <trkpt lat="44.38569" lon="7.11262">
        <ele>2336.8</ele>
        <time>2022-07-18T16:38:18Z</time>
      </trkpt>
      <trkpt lat="44.38567" lon="7.11258">
        <ele>2335.8</ele>
        <time>2022-07-18T16:38:19Z</time>
      </trkpt>
      <trkpt lat="44.38563" lon="7.11248">
        <ele>2334.8</ele>
        <time>2022-07-18T16:38:20Z</time>
      </trkpt>
      <trkpt lat="44.38558" lon="7.11238">
        <ele>2333.8</ele>
        <time>2022-07-18T16:38:21Z</time>
      </trkpt>
      <trkpt lat="44.38552" lon="7.11224">
        <ele>2332.8</ele>
        <time>2022-07-18T16:38:22Z</time>
      </trkpt>
      <trkpt lat="44.38549" lon="7.11219">
        <ele>2331.6</ele>
        <time>2022-07-18T16:38:23Z</time>
      </trkpt>
      <trkpt lat="44.3854" lon="7.11206">
        <ele>2330.6</ele>
        <time>2022-07-18T16:38:24Z</time>
      </trkpt>
      <trkpt lat="44.38537" lon="7.11203">
        <ele>2329.6</ele>
        <time>2022-07-18T16:38:25Z</time>
      </trkpt>
      <trkpt lat="44.3853" lon="7.11195">
        <ele>2328.6</ele>
        <time>2022-07-18T16:38:26Z</time>
      </trkpt>
      <trkpt lat="44.38524" lon="7.11189">
        <ele>2327.8</ele>
        <time>2022-07-18T16:38:27Z</time>
      </trkpt>
      <trkpt lat="44.38515" lon="7.1118">
        <ele>2327</ele>
        <time>2022-07-18T16:38:28Z</time>
      </trkpt>
      <trkpt lat="44.38512" lon="7.11176">
        <ele>2326.2</ele>
        <time>2022-07-18T16:38:29Z</time>
      </trkpt>
      <trkpt lat="44.38507" lon="7.11169">
        <ele>2325.4</ele>
        <time>2022-07-18T16:38:30Z</time>
      </trkpt>
      <trkpt lat="44.38502" lon="7.1116">
        <ele>2324.6</ele>
        <time>2022-07-18T16:38:31Z</time>
      </trkpt>
      <trkpt lat="44.38497" lon="7.11149">
        <ele>2323.6</ele>
        <time>2022-07-18T16:38:32Z</time>
      </trkpt>
      <trkpt lat="44.38492" lon="7.11138">
        <ele>2322.8</ele>
        <time>2022-07-18T16:38:33Z</time>
      </trkpt>
      <trkpt lat="44.38484" lon="7.11121">
        <ele>2322</ele>
        <time>2022-07-18T16:38:34Z</time>
      </trkpt>
      <trkpt lat="44.38482" lon="7.11115">
        <ele>2321.4</ele>
        <time>2022-07-18T16:38:35Z</time>
      </trkpt>
      <trkpt lat="44.38477" lon="7.11102">
        <ele>2320.6</ele>
        <time>2022-07-18T16:38:36Z</time>
      </trkpt>
      <trkpt lat="44.38473" lon="7.11089">
        <ele>2320</ele>
        <time>2022-07-18T16:38:37Z</time>
      </trkpt>
      <trkpt lat="44.38469" lon="7.11077">
        <ele>2319.4</ele>
        <time>2022-07-18T16:38:38Z</time>
      </trkpt>
      <trkpt lat="44.38464" lon="7.11066">
        <ele>2319.2</ele>
        <time>2022-07-18T16:38:39Z</time>
      </trkpt>
      <trkpt lat="44.38457" lon="7.11051">
        <ele>2319</ele>
        <time>2022-07-18T16:38:40Z</time>
      </trkpt>
      <trkpt lat="44.38454" lon="7.11046">
        <ele>2318.6</ele>
        <time>2022-07-18T16:38:41Z</time>
      </trkpt>
      <trkpt lat="44.38448" lon="7.11037">
        <ele>2318.2</ele>
        <time>2022-07-18T16:38:42Z</time>
      </trkpt>
      <trkpt lat="44.38441" lon="7.11029">
        <ele>2318</ele>
        <time>2022-07-18T16:38:43Z</time>
      </trkpt>
      <trkpt lat="44.38435" lon="7.11022">
        <ele>2318</ele>
        <time>2022-07-18T16:38:44Z</time>
      </trkpt>
      <trkpt lat="44.38429" lon="7.11016">
        <ele>2317.6</ele>
        <time>2022-07-18T16:38:45Z</time>
      </trkpt>
      <trkpt lat="44.38421" lon="7.11004">
        <ele>2317.4</ele>
        <time>2022-07-18T16:38:46Z</time>
      </trkpt>
      <trkpt lat="44.38419" lon="7.11">
        <ele>2317.4</ele>
        <time>2022-07-18T16:38:47Z</time>
      </trkpt>
      <trkpt lat="44.38416" lon="7.10991">
        <ele>2317.2</ele>
        <time>2022-07-18T16:38:48Z</time>
      </trkpt>
      <trkpt lat="44.38413" lon="7.10982">
        <ele>2317.2</ele>
        <time>2022-07-18T16:38:49Z</time>
      </trkpt>
      <trkpt lat="44.38411" lon="7.10972">
        <ele>2317</ele>
        <time>2022-07-18T16:38:50Z</time>
      </trkpt>
      <trkpt lat="44.38408" lon="7.10957">
        <ele>2317</ele>
        <time>2022-07-18T16:38:51Z</time>
      </trkpt>
      <trkpt lat="44.38407" lon="7.10953">
        <ele>2316.6</ele>
        <time>2022-07-18T16:38:52Z</time>
      </trkpt>
      <trkpt lat="44.38406" lon="7.10938">
        <ele>2316.6</ele>
        <time>2022-07-18T16:38:53Z</time>
      </trkpt>
      <trkpt lat="44.38406" lon="7.10933">
        <ele>2316.4</ele>
        <time>2022-07-18T16:38:54Z</time>
      </trkpt>
      <trkpt lat="44.38405" lon="7.10923">
        <ele>2316.4</ele>
        <time>2022-07-18T16:38:55Z</time>
      </trkpt>
      <trkpt lat="44.38405" lon="7.10913">
        <ele>2316.2</ele>
        <time>2022-07-18T16:38:56Z</time>
      </trkpt>
      <trkpt lat="44.38405" lon="7.10899">
        <ele>2316.2</ele>
        <time>2022-07-18T16:38:57Z</time>
      </trkpt>
      <trkpt lat="44.38405" lon="7.10894">
        <ele>2315.8</ele>
        <time>2022-07-18T16:38:58Z</time>
      </trkpt>
      <trkpt lat="44.38405" lon="7.10884">
        <ele>2315.8</ele>
        <time>2022-07-18T16:38:59Z</time>
      </trkpt>
      <trkpt lat="44.38405" lon="7.10875">
        <ele>2315.8</ele>
        <time>2022-07-18T16:39:00Z</time>
      </trkpt>
      <trkpt lat="44.38406" lon="7.1086">
        <ele>2315.8</ele>
        <time>2022-07-18T16:39:01Z</time>
      </trkpt>
      <trkpt lat="44.38406" lon="7.10855">
        <ele>2315.6</ele>
        <time>2022-07-18T16:39:02Z</time>
      </trkpt>
      <trkpt lat="44.38406" lon="7.10845">
        <ele>2315.2</ele>
        <time>2022-07-18T16:39:03Z</time>
      </trkpt>
      <trkpt lat="44.38406" lon="7.10835">
        <ele>2314.8</ele>
        <time>2022-07-18T16:39:04Z</time>
      </trkpt>
      <trkpt lat="44.38407" lon="7.10826">
        <ele>2314.6</ele>
        <time>2022-07-18T16:39:05Z</time>
      </trkpt>
      <trkpt lat="44.38407" lon="7.10819">
        <ele>2314.4</ele>
        <time>2022-07-18T16:39:06Z</time>
      </trkpt>
      <trkpt lat="44.38408" lon="7.10811">
        <ele>2314.2</ele>
        <time>2022-07-18T16:39:07Z</time>
      </trkpt>
      <trkpt lat="44.38408" lon="7.10803">
        <ele>2314.2</ele>
        <time>2022-07-18T16:39:08Z</time>
      </trkpt>
      <trkpt lat="44.38408" lon="7.10792">
        <ele>2313.8</ele>
        <time>2022-07-18T16:39:09Z</time>
      </trkpt>
      <trkpt lat="44.38408" lon="7.10788">
        <ele>2313.8</ele>
        <time>2022-07-18T16:39:10Z</time>
      </trkpt>
      <trkpt lat="44.38407" lon="7.1078">
        <ele>2313.6</ele>
        <time>2022-07-18T16:39:11Z</time>
      </trkpt>
      <trkpt lat="44.38406" lon="7.10768">
        <ele>2313.6</ele>
        <time>2022-07-18T16:39:12Z</time>
      </trkpt>
      <trkpt lat="44.38405" lon="7.10764">
        <ele>2313</ele>
        <time>2022-07-18T16:39:13Z</time>
      </trkpt>
      <trkpt lat="44.38405" lon="7.10757">
        <ele>2312.8</ele>
        <time>2022-07-18T16:39:14Z</time>
      </trkpt>
      <trkpt lat="44.38404" lon="7.10748">
        <ele>2312.4</ele>
        <time>2022-07-18T16:39:15Z</time>
      </trkpt>
      <trkpt lat="44.38404" lon="7.10739">
        <ele>2312</ele>
        <time>2022-07-18T16:39:16Z</time>
      </trkpt>
      <trkpt lat="44.38404" lon="7.1073">
        <ele>2312</ele>
        <time>2022-07-18T16:39:17Z</time>
      </trkpt>
      <trkpt lat="44.38403" lon="7.10717">
        <ele>2311.6</ele>
        <time>2022-07-18T16:39:18Z</time>
      </trkpt>
      <trkpt lat="44.38403" lon="7.10712">
        <ele>2311.4</ele>
        <time>2022-07-18T16:39:19Z</time>
      </trkpt>
      <trkpt lat="44.38403" lon="7.10699">
        <ele>2311.2</ele>
        <time>2022-07-18T16:39:20Z</time>
      </trkpt>
      <trkpt lat="44.38403" lon="7.10694">
        <ele>2311.2</ele>
        <time>2022-07-18T16:39:21Z</time>
      </trkpt>
      <trkpt lat="44.38403" lon="7.10686">
        <ele>2310.8</ele>
        <time>2022-07-18T16:39:22Z</time>
      </trkpt>
      <trkpt lat="44.38402" lon="7.10677">
        <ele>2310.8</ele>
        <time>2022-07-18T16:39:23Z</time>
      </trkpt>
      <trkpt lat="44.38401" lon="7.10665">
        <ele>2310.8</ele>
        <time>2022-07-18T16:39:24Z</time>
      </trkpt>
      <trkpt lat="44.384" lon="7.10661">
        <ele>2310.6</ele>
        <time>2022-07-18T16:39:25Z</time>
      </trkpt>
      <trkpt lat="44.38399" lon="7.10653">
        <ele>2310.6</ele>
        <time>2022-07-18T16:39:26Z</time>
      </trkpt>
      <trkpt lat="44.38397" lon="7.10646">
        <ele>2310.6</ele>
        <time>2022-07-18T16:39:27Z</time>
      </trkpt>
      <trkpt lat="44.38394" lon="7.10639">
        <ele>2310.4</ele>
        <time>2022-07-18T16:39:28Z</time>
      </trkpt>
      <trkpt lat="44.38391" lon="7.10632">
        <ele>2310.4</ele>
        <time>2022-07-18T16:39:29Z</time>
      </trkpt>
      <trkpt lat="44.38388" lon="7.10626">
        <ele>2310.4</ele>
        <time>2022-07-18T16:39:30Z</time>
      </trkpt>
      <trkpt lat="44.38384" lon="7.10619">
        <ele>2310</ele>
        <time>2022-07-18T16:39:31Z</time>
      </trkpt>
      <trkpt lat="44.3838" lon="7.10609">
        <ele>2310</ele>
        <time>2022-07-18T16:39:32Z</time>
      </trkpt>
      <trkpt lat="44.38378" lon="7.10605">
        <ele>2309.8</ele>
        <time>2022-07-18T16:39:33Z</time>
      </trkpt>
      <trkpt lat="44.38374" lon="7.10593">
        <ele>2309.8</ele>
        <time>2022-07-18T16:39:34Z</time>
      </trkpt>
      <trkpt lat="44.38373" lon="7.1059">
        <ele>2309.8</ele>
        <time>2022-07-18T16:39:35Z</time>
      </trkpt>
      <trkpt lat="44.3837" lon="7.10582">
        <ele>2309.6</ele>
        <time>2022-07-18T16:39:36Z</time>
      </trkpt>
      <trkpt lat="44.38367" lon="7.10575">
        <ele>2309.6</ele>
        <time>2022-07-18T16:39:37Z</time>
      </trkpt>
      <trkpt lat="44.38363" lon="7.10569">
        <ele>2309.2</ele>
        <time>2022-07-18T16:39:38Z</time>
      </trkpt>
      <trkpt lat="44.3836" lon="7.10562">
        <ele>2309.2</ele>
        <time>2022-07-18T16:39:39Z</time>
      </trkpt>
      <trkpt lat="44.38356" lon="7.10555">
        <ele>2309</ele>
        <time>2022-07-18T16:39:40Z</time>
      </trkpt>
      <trkpt lat="44.38351" lon="7.10543">
        <ele>2309</ele>
        <time>2022-07-18T16:39:41Z</time>
      </trkpt>
      <trkpt lat="44.38349" lon="7.1054">
        <ele>2308.6</ele>
        <time>2022-07-18T16:39:42Z</time>
      </trkpt>
      <trkpt lat="44.38346" lon="7.10532">
        <ele>2308.6</ele>
        <time>2022-07-18T16:39:43Z</time>
      </trkpt>
      <trkpt lat="44.38343" lon="7.10524">
        <ele>2308.4</ele>
        <time>2022-07-18T16:39:44Z</time>
      </trkpt>
      <trkpt lat="44.3834" lon="7.10516">
        <ele>2308.4</ele>
        <time>2022-07-18T16:39:45Z</time>
      </trkpt>
      <trkpt lat="44.38338" lon="7.10508">
        <ele>2308.4</ele>
        <time>2022-07-18T16:39:46Z</time>
      </trkpt>
      <trkpt lat="44.38336" lon="7.105">
        <ele>2308.4</ele>
        <time>2022-07-18T16:39:47Z</time>
      </trkpt>
      <trkpt lat="44.38335" lon="7.10492">
        <ele>2308.4</ele>
        <time>2022-07-18T16:39:48Z</time>
      </trkpt>
      <trkpt lat="44.38333" lon="7.10484">
        <ele>2308.4</ele>
        <time>2022-07-18T16:39:49Z</time>
      </trkpt>
      <trkpt lat="44.38331" lon="7.10476">
        <ele>2308.4</ele>
        <time>2022-07-18T16:39:50Z</time>
      </trkpt>
      <trkpt lat="44.38328" lon="7.10469">
        <ele>2308.4</ele>
        <time>2022-07-18T16:39:51Z</time>
      </trkpt>
      <trkpt lat="44.38326" lon="7.10461">
        <ele>2308.4</ele>
        <time>2022-07-18T16:39:52Z</time>
      </trkpt>
      <trkpt lat="44.38324" lon="7.10453">
        <ele>2308.4</ele>
        <time>2022-07-18T16:39:53Z</time>
      </trkpt>
      <trkpt lat="44.38322" lon="7.10446">
        <ele>2308.4</ele>
        <time>2022-07-18T16:39:54Z</time>
      </trkpt>
      <trkpt lat="44.3832" lon="7.10439">
        <ele>2308.8</ele>
        <time>2022-07-18T16:39:55Z</time>
      </trkpt>
      <trkpt lat="44.38319" lon="7.10429">
        <ele>2309</ele>
        <time>2022-07-18T16:39:56Z</time>
      </trkpt>
      <trkpt lat="44.38319" lon="7.10426">
        <ele>2309.2</ele>
        <time>2022-07-18T16:39:57Z</time>
      </trkpt>
      <trkpt lat="44.38319" lon="7.1042">
        <ele>2309.2</ele>
        <time>2022-07-18T16:39:58Z</time>
      </trkpt>
      <trkpt lat="44.38319" lon="7.10414">
        <ele>2309.6</ele>
        <time>2022-07-18T16:39:59Z</time>
      </trkpt>
      <trkpt lat="44.38317" lon="7.10408">
        <ele>2309.6</ele>
        <time>2022-07-18T16:40:00Z</time>
      </trkpt>
      <trkpt lat="44.38313" lon="7.10403">
        <ele>2310</ele>
        <time>2022-07-18T16:40:01Z</time>
      </trkpt>
      <trkpt lat="44.38311" lon="7.10402">
        <ele>2310</ele>
        <time>2022-07-18T16:40:02Z</time>
      </trkpt>
      <trkpt lat="44.38307" lon="7.10401">
        <ele>2310.2</ele>
        <time>2022-07-18T16:40:03Z</time>
      </trkpt>
      <trkpt lat="44.38303" lon="7.104">
        <ele>2310.2</ele>
        <time>2022-07-18T16:40:04Z</time>
      </trkpt>
      <trkpt lat="44.38298" lon="7.10399">
        <ele>2310.4</ele>
        <time>2022-07-18T16:40:05Z</time>
      </trkpt>
      <trkpt lat="44.38293" lon="7.10395">
        <ele>2310.4</ele>
        <time>2022-07-18T16:40:06Z</time>
      </trkpt>
      <trkpt lat="44.38291" lon="7.10393">
        <ele>2310.4</ele>
        <time>2022-07-18T16:40:07Z</time>
      </trkpt>
      <trkpt lat="44.38288" lon="7.10389">
        <ele>2310.4</ele>
        <time>2022-07-18T16:40:08Z</time>
      </trkpt>
      <trkpt lat="44.38284" lon="7.10386">
        <ele>2310.6</ele>
        <time>2022-07-18T16:40:09Z</time>
      </trkpt>
      <trkpt lat="44.3828" lon="7.10384">
        <ele>2310.6</ele>
        <time>2022-07-18T16:40:10Z</time>
      </trkpt>
      <trkpt lat="44.38276" lon="7.10384">
        <ele>2311</ele>
        <time>2022-07-18T16:40:11Z</time>
      </trkpt>
      <trkpt lat="44.3827" lon="7.10386">
        <ele>2311</ele>
        <time>2022-07-18T16:40:12Z</time>
      </trkpt>
      <trkpt lat="44.38268" lon="7.10386">
        <ele>2311.4</ele>
        <time>2022-07-18T16:40:13Z</time>
      </trkpt>
      <trkpt lat="44.38262" lon="7.10387">
        <ele>2311.4</ele>
        <time>2022-07-18T16:40:14Z</time>
      </trkpt>
      <trkpt lat="44.3826" lon="7.10388">
        <ele>2311.4</ele>
        <time>2022-07-18T16:40:15Z</time>
      </trkpt>
      <trkpt lat="44.38256" lon="7.10388">
        <ele>2311.4</ele>
        <time>2022-07-18T16:40:16Z</time>
      </trkpt>
      <trkpt lat="44.3825" lon="7.10386">
        <ele>2311.4</ele>
        <time>2022-07-18T16:40:17Z</time>
      </trkpt>
      <trkpt lat="44.38248" lon="7.10384">
        <ele>2311.4</ele>
        <time>2022-07-18T16:40:18Z</time>
      </trkpt>
      <trkpt lat="44.38245" lon="7.10381">
        <ele>2311.4</ele>
        <time>2022-07-18T16:40:19Z</time>
      </trkpt>
      <trkpt lat="44.38242" lon="7.10373">
        <ele>2311.4</ele>
        <time>2022-07-18T16:40:20Z</time>
      </trkpt>
      <trkpt lat="44.38241" lon="7.1037">
        <ele>2311.4</ele>
        <time>2022-07-18T16:40:21Z</time>
      </trkpt>
      <trkpt lat="44.38241" lon="7.10364">
        <ele>2311.4</ele>
        <time>2022-07-18T16:40:22Z</time>
      </trkpt>
      <trkpt lat="44.3824" lon="7.10355">
        <ele>2311</ele>
        <time>2022-07-18T16:40:23Z</time>
      </trkpt>
      <trkpt lat="44.38239" lon="7.10352">
        <ele>2311</ele>
        <time>2022-07-18T16:40:24Z</time>
      </trkpt>
      <trkpt lat="44.38238" lon="7.10347">
        <ele>2310.8</ele>
        <time>2022-07-18T16:40:25Z</time>
      </trkpt>
      <trkpt lat="44.38234" lon="7.1034">
        <ele>2310.8</ele>
        <time>2022-07-18T16:40:26Z</time>
      </trkpt>
      <trkpt lat="44.38233" lon="7.10338">
        <ele>2310.8</ele>
        <time>2022-07-18T16:40:27Z</time>
      </trkpt>
      <trkpt lat="44.38229" lon="7.10336">
        <ele>2310.8</ele>
        <time>2022-07-18T16:40:28Z</time>
      </trkpt>
      <trkpt lat="44.38224" lon="7.10335">
        <ele>2310.8</ele>
        <time>2022-07-18T16:40:29Z</time>
      </trkpt>
      <trkpt lat="44.38222" lon="7.10335">
        <ele>2310.8</ele>
        <time>2022-07-18T16:40:30Z</time>
      </trkpt>
      <trkpt lat="44.38218" lon="7.10335">
        <ele>2310.8</ele>
        <time>2022-07-18T16:40:31Z</time>
      </trkpt>
      <trkpt lat="44.38213" lon="7.10331">
        <ele>2310.8</ele>
        <time>2022-07-18T16:40:32Z</time>
      </trkpt>
      <trkpt lat="44.38211" lon="7.10329">
        <ele>2310.8</ele>
        <time>2022-07-18T16:40:33Z</time>
      </trkpt>
      <trkpt lat="44.38208" lon="7.10321">
        <ele>2310.6</ele>
        <time>2022-07-18T16:40:34Z</time>
      </trkpt>
      <trkpt lat="44.38207" lon="7.10319">
        <ele>2310.6</ele>
        <time>2022-07-18T16:40:35Z</time>
      </trkpt>
      <trkpt lat="44.38205" lon="7.10313">
        <ele>2310.2</ele>
        <time>2022-07-18T16:40:36Z</time>
      </trkpt>
      <trkpt lat="44.38202" lon="7.10304">
        <ele>2310.2</ele>
        <time>2022-07-18T16:40:37Z</time>
      </trkpt>
      <trkpt lat="44.382" lon="7.10301">
        <ele>2310.2</ele>
        <time>2022-07-18T16:40:38Z</time>
      </trkpt>
      <trkpt lat="44.38197" lon="7.10297">
        <ele>2310.2</ele>
        <time>2022-07-18T16:40:39Z</time>
      </trkpt>
      <trkpt lat="44.38192" lon="7.10293">
        <ele>2310</ele>
        <time>2022-07-18T16:40:40Z</time>
      </trkpt>
      <trkpt lat="44.38187" lon="7.1029">
        <ele>2310</ele>
        <time>2022-07-18T16:40:41Z</time>
      </trkpt>
      <trkpt lat="44.38183" lon="7.10286">
        <ele>2310</ele>
        <time>2022-07-18T16:40:42Z</time>
      </trkpt>
      <trkpt lat="44.38177" lon="7.1028">
        <ele>2310</ele>
        <time>2022-07-18T16:40:43Z</time>
      </trkpt>
      <trkpt lat="44.38175" lon="7.10278">
        <ele>2310</ele>
        <time>2022-07-18T16:40:44Z</time>
      </trkpt>
      <trkpt lat="44.38171" lon="7.10273">
        <ele>2309.8</ele>
        <time>2022-07-18T16:40:45Z</time>
      </trkpt>
      <trkpt lat="44.38168" lon="7.10269">
        <ele>2309.8</ele>
        <time>2022-07-18T16:40:46Z</time>
      </trkpt>
      <trkpt lat="44.38162" lon="7.10262">
        <ele>2309.4</ele>
        <time>2022-07-18T16:40:47Z</time>
      </trkpt>
      <trkpt lat="44.3816" lon="7.1026">
        <ele>2309.4</ele>
        <time>2022-07-18T16:40:48Z</time>
      </trkpt>
      <trkpt lat="44.38156" lon="7.10256">
        <ele>2309.2</ele>
        <time>2022-07-18T16:40:49Z</time>
      </trkpt>
      <trkpt lat="44.3815" lon="7.10251">
        <ele>2309.2</ele>
        <time>2022-07-18T16:40:50Z</time>
      </trkpt>
      <trkpt lat="44.38148" lon="7.1025">
        <ele>2309.2</ele>
        <time>2022-07-18T16:40:51Z</time>
      </trkpt>
      <trkpt lat="44.38144" lon="7.10247">
        <ele>2309.2</ele>
        <time>2022-07-18T16:40:52Z</time>
      </trkpt>
      <trkpt lat="44.3814" lon="7.10244">
        <ele>2308.8</ele>
        <time>2022-07-18T16:40:53Z</time>
      </trkpt>
      <trkpt lat="44.38135" lon="7.10241">
        <ele>2308.6</ele>
        <time>2022-07-18T16:40:54Z</time>
      </trkpt>
      <trkpt lat="44.3813" lon="7.10237">
        <ele>2308.4</ele>
        <time>2022-07-18T16:40:55Z</time>
      </trkpt>
      <trkpt lat="44.38123" lon="7.10233">
        <ele>2307.8</ele>
        <time>2022-07-18T16:40:56Z</time>
      </trkpt>
      <trkpt lat="44.3812" lon="7.10232">
        <ele>2307.4</ele>
        <time>2022-07-18T16:40:57Z</time>
      </trkpt>
      <trkpt lat="44.38115" lon="7.10229">
        <ele>2306.8</ele>
        <time>2022-07-18T16:40:58Z</time>
      </trkpt>
      <trkpt lat="44.3811" lon="7.10228">
        <ele>2306.2</ele>
        <time>2022-07-18T16:40:59Z</time>
      </trkpt>
      <trkpt lat="44.38104" lon="7.10227">
        <ele>2305.6</ele>
        <time>2022-07-18T16:41:00Z</time>
      </trkpt>
      <trkpt lat="44.381" lon="7.10228">
        <ele>2305</ele>
        <time>2022-07-18T16:41:01Z</time>
      </trkpt>
      <trkpt lat="44.38091" lon="7.10233">
        <ele>2304.2</ele>
        <time>2022-07-18T16:41:02Z</time>
      </trkpt>
      <trkpt lat="44.38089" lon="7.10235">
        <ele>2303.4</ele>
        <time>2022-07-18T16:41:03Z</time>
      </trkpt>
      <trkpt lat="44.3808" lon="7.10243">
        <ele>2302.6</ele>
        <time>2022-07-18T16:41:04Z</time>
      </trkpt>
      <trkpt lat="44.38078" lon="7.10247">
        <ele>2301.8</ele>
        <time>2022-07-18T16:41:05Z</time>
      </trkpt>
      <trkpt lat="44.38073" lon="7.10255">
        <ele>2300.8</ele>
        <time>2022-07-18T16:41:06Z</time>
      </trkpt>
      <trkpt lat="44.38069" lon="7.10264">
        <ele>2300</ele>
        <time>2022-07-18T16:41:07Z</time>
      </trkpt>
      <trkpt lat="44.38065" lon="7.10274">
        <ele>2299.4</ele>
        <time>2022-07-18T16:41:08Z</time>
      </trkpt>
      <trkpt lat="44.3806" lon="7.10284">
        <ele>2298.4</ele>
        <time>2022-07-18T16:41:09Z</time>
      </trkpt>
      <trkpt lat="44.38053" lon="7.10299">
        <ele>2297.6</ele>
        <time>2022-07-18T16:41:10Z</time>
      </trkpt>
      <trkpt lat="44.3805" lon="7.10303">
        <ele>2296.6</ele>
        <time>2022-07-18T16:41:11Z</time>
      </trkpt>
      <trkpt lat="44.38045" lon="7.10313">
        <ele>2295.6</ele>
        <time>2022-07-18T16:41:12Z</time>
      </trkpt>
      <trkpt lat="44.38041" lon="7.10321">
        <ele>2294.8</ele>
        <time>2022-07-18T16:41:13Z</time>
      </trkpt>
      <trkpt lat="44.38034" lon="7.10333">
        <ele>2293.8</ele>
        <time>2022-07-18T16:41:14Z</time>
      </trkpt>
      <trkpt lat="44.38031" lon="7.10336">
        <ele>2293</ele>
        <time>2022-07-18T16:41:15Z</time>
      </trkpt>
      <trkpt lat="44.38026" lon="7.10343">
        <ele>2292</ele>
        <time>2022-07-18T16:41:16Z</time>
      </trkpt>
      <trkpt lat="44.38015" lon="7.10352">
        <ele>2290.8</ele>
        <time>2022-07-18T16:41:17Z</time>
      </trkpt>
      <trkpt lat="44.38011" lon="7.10355">
        <ele>2289.8</ele>
        <time>2022-07-18T16:41:18Z</time>
      </trkpt>
      <trkpt lat="44.38" lon="7.10364">
        <ele>2288.8</ele>
        <time>2022-07-18T16:41:19Z</time>
      </trkpt>
      <trkpt lat="44.37997" lon="7.10368">
        <ele>2287.8</ele>
        <time>2022-07-18T16:41:20Z</time>
      </trkpt>
      <trkpt lat="44.3799" lon="7.10376">
        <ele>2287.8</ele>
        <time>2022-07-18T16:41:21Z</time>
      </trkpt>
      <trkpt lat="44.37984" lon="7.10384">
        <ele>2286.8</ele>
        <time>2022-07-18T16:41:22Z</time>
      </trkpt>
      <trkpt lat="44.37979" lon="7.10392">
        <ele>2285.8</ele>
        <time>2022-07-18T16:41:23Z</time>
      </trkpt>
      <trkpt lat="44.37973" lon="7.10406">
        <ele>2284.6</ele>
        <time>2022-07-18T16:41:24Z</time>
      </trkpt>
      <trkpt lat="44.37971" lon="7.10411">
        <ele>2283.6</ele>
        <time>2022-07-18T16:41:25Z</time>
      </trkpt>
      <trkpt lat="44.37966" lon="7.10426">
        <ele>2282.6</ele>
        <time>2022-07-18T16:41:26Z</time>
      </trkpt>
      <trkpt lat="44.37964" lon="7.1043">
        <ele>2281.6</ele>
        <time>2022-07-18T16:41:27Z</time>
      </trkpt>
      <trkpt lat="44.37959" lon="7.10443">
        <ele>2280.6</ele>
        <time>2022-07-18T16:41:28Z</time>
      </trkpt>
      <trkpt lat="44.37958" lon="7.10446">
        <ele>2279.8</ele>
        <time>2022-07-18T16:41:29Z</time>
      </trkpt>
      <trkpt lat="44.37956" lon="7.10453">
        <ele>2278.8</ele>
        <time>2022-07-18T16:41:30Z</time>
      </trkpt>
      <trkpt lat="44.37956" lon="7.1046">
        <ele>2278</ele>
        <time>2022-07-18T16:41:31Z</time>
      </trkpt>
      <trkpt lat="44.37958" lon="7.10466">
        <ele>2277</ele>
        <time>2022-07-18T16:41:32Z</time>
      </trkpt>
      <trkpt lat="44.37966" lon="7.10468">
        <ele>2276.2</ele>
        <time>2022-07-18T16:41:33Z</time>
      </trkpt>
      <trkpt lat="44.37969" lon="7.10467">
        <ele>2275.4</ele>
        <time>2022-07-18T16:41:34Z</time>
      </trkpt>
      <trkpt lat="44.3798" lon="7.10463">
        <ele>2274.4</ele>
        <time>2022-07-18T16:41:35Z</time>
      </trkpt>
      <trkpt lat="44.37984" lon="7.10462">
        <ele>2273.6</ele>
        <time>2022-07-18T16:41:36Z</time>
      </trkpt>
      <trkpt lat="44.37991" lon="7.10459">
        <ele>2272.6</ele>
        <time>2022-07-18T16:41:37Z</time>
      </trkpt>
      <trkpt lat="44.37999" lon="7.10459">
        <ele>2271.6</ele>
        <time>2022-07-18T16:41:38Z</time>
      </trkpt>
      <trkpt lat="44.38008" lon="7.10461">
        <ele>2270.6</ele>
        <time>2022-07-18T16:41:39Z</time>
      </trkpt>
      <trkpt lat="44.38015" lon="7.10466">
        <ele>2269.6</ele>
        <time>2022-07-18T16:41:40Z</time>
      </trkpt>
      <trkpt lat="44.38023" lon="7.10471">
        <ele>2268.8</ele>
        <time>2022-07-18T16:41:41Z</time>
      </trkpt>
      <trkpt lat="44.3803" lon="7.10477">
        <ele>2267.8</ele>
        <time>2022-07-18T16:41:42Z</time>
      </trkpt>
      <trkpt lat="44.38035" lon="7.10482">
        <ele>2267</ele>
        <time>2022-07-18T16:41:43Z</time>
      </trkpt>
      <trkpt lat="44.38038" lon="7.10492">
        <ele>2266.2</ele>
        <time>2022-07-18T16:41:44Z</time>
      </trkpt>
      <trkpt lat="44.38037" lon="7.10496">
        <ele>2265.6</ele>
        <time>2022-07-18T16:41:45Z</time>
      </trkpt>
      <trkpt lat="44.38034" lon="7.10508">
        <ele>2264.8</ele>
        <time>2022-07-18T16:41:46Z</time>
      </trkpt>
      <trkpt lat="44.38032" lon="7.10512">
        <ele>2264</ele>
        <time>2022-07-18T16:41:47Z</time>
      </trkpt>
      <trkpt lat="44.38026" lon="7.10519">
        <ele>2263.2</ele>
        <time>2022-07-18T16:41:48Z</time>
      </trkpt>
      <trkpt lat="44.38018" lon="7.10526">
        <ele>2262.4</ele>
        <time>2022-07-18T16:41:49Z</time>
      </trkpt>
      <trkpt lat="44.38011" lon="7.10534">
        <ele>2261.4</ele>
        <time>2022-07-18T16:41:50Z</time>
      </trkpt>
      <trkpt lat="44.38005" lon="7.10545">
        <ele>2260.2</ele>
        <time>2022-07-18T16:41:51Z</time>
      </trkpt>
      <trkpt lat="44.38002" lon="7.10566">
        <ele>2259.2</ele>
        <time>2022-07-18T16:41:52Z</time>
      </trkpt>
      <trkpt lat="44.38001" lon="7.10574">
        <ele>2258</ele>
        <time>2022-07-18T16:41:53Z</time>
      </trkpt>
      <trkpt lat="44.38" lon="7.10588">
        <ele>2256.8</ele>
        <time>2022-07-18T16:41:54Z</time>
      </trkpt>
      <trkpt lat="44.37999" lon="7.10602">
        <ele>2255.8</ele>
        <time>2022-07-18T16:41:55Z</time>
      </trkpt>
      <trkpt lat="44.37999" lon="7.10606">
        <ele>2254.8</ele>
        <time>2022-07-18T16:41:56Z</time>
      </trkpt>
      <trkpt lat="44.37998" lon="7.10613">
        <ele>2253.8</ele>
        <time>2022-07-18T16:41:57Z</time>
      </trkpt>
      <trkpt lat="44.37997" lon="7.10626">
        <ele>2253</ele>
        <time>2022-07-18T16:41:58Z</time>
      </trkpt>
      <trkpt lat="44.37997" lon="7.10631">
        <ele>2252.2</ele>
        <time>2022-07-18T16:41:59Z</time>
      </trkpt>
      <trkpt lat="44.37996" lon="7.1064">
        <ele>2251.4</ele>
        <time>2022-07-18T16:42:00Z</time>
      </trkpt>
      <trkpt lat="44.37995" lon="7.10651">
        <ele>2250.6</ele>
        <time>2022-07-18T16:42:01Z</time>
      </trkpt>
      <trkpt lat="44.37993" lon="7.10663">
        <ele>2249.8</ele>
        <time>2022-07-18T16:42:02Z</time>
      </trkpt>
      <trkpt lat="44.37991" lon="7.10681">
        <ele>2248.8</ele>
        <time>2022-07-18T16:42:03Z</time>
      </trkpt>
      <trkpt lat="44.3799" lon="7.10688">
        <ele>2248</ele>
        <time>2022-07-18T16:42:04Z</time>
      </trkpt>
      <trkpt lat="44.37989" lon="7.107">
        <ele>2247</ele>
        <time>2022-07-18T16:42:05Z</time>
      </trkpt>
      <trkpt lat="44.37988" lon="7.10713">
        <ele>2246</ele>
        <time>2022-07-18T16:42:06Z</time>
      </trkpt>
      <trkpt lat="44.37985" lon="7.10725">
        <ele>2245.2</ele>
        <time>2022-07-18T16:42:07Z</time>
      </trkpt>
      <trkpt lat="44.37984" lon="7.10737">
        <ele>2244.4</ele>
        <time>2022-07-18T16:42:08Z</time>
      </trkpt>
      <trkpt lat="44.37983" lon="7.10751">
        <ele>2243.6</ele>
        <time>2022-07-18T16:42:09Z</time>
      </trkpt>
      <trkpt lat="44.37981" lon="7.10771">
        <ele>2242.8</ele>
        <time>2022-07-18T16:42:10Z</time>
      </trkpt>
      <trkpt lat="44.37981" lon="7.10778">
        <ele>2242</ele>
        <time>2022-07-18T16:42:11Z</time>
      </trkpt>
      <trkpt lat="44.37979" lon="7.10797">
        <ele>2241.2</ele>
        <time>2022-07-18T16:42:12Z</time>
      </trkpt>
      <trkpt lat="44.37978" lon="7.10804">
        <ele>2240.4</ele>
        <time>2022-07-18T16:42:13Z</time>
      </trkpt>
      <trkpt lat="44.37976" lon="7.10818">
        <ele>2239.6</ele>
        <time>2022-07-18T16:42:14Z</time>
      </trkpt>
      <trkpt lat="44.37973" lon="7.10836">
        <ele>2238.8</ele>
        <time>2022-07-18T16:42:15Z</time>
      </trkpt>
      <trkpt lat="44.37972" lon="7.10841">
        <ele>2238</ele>
        <time>2022-07-18T16:42:16Z</time>
      </trkpt>
      <trkpt lat="44.37971" lon="7.10853">
        <ele>2237.2</ele>
        <time>2022-07-18T16:42:17Z</time>
      </trkpt>
      <trkpt lat="44.37968" lon="7.10863">
        <ele>2236.4</ele>
        <time>2022-07-18T16:42:18Z</time>
      </trkpt>
      <trkpt lat="44.37963" lon="7.10877">
        <ele>2235.8</ele>
        <time>2022-07-18T16:42:19Z</time>
      </trkpt>
      <trkpt lat="44.37962" lon="7.10881">
        <ele>2235.2</ele>
        <time>2022-07-18T16:42:20Z</time>
      </trkpt>
      <trkpt lat="44.3796" lon="7.1089">
        <ele>2234.6</ele>
        <time>2022-07-18T16:42:21Z</time>
      </trkpt>
      <trkpt lat="44.37959" lon="7.10905">
        <ele>2234</ele>
        <time>2022-07-18T16:42:22Z</time>
      </trkpt>
      <trkpt lat="44.37959" lon="7.1091">
        <ele>2233.2</ele>
        <time>2022-07-18T16:42:23Z</time>
      </trkpt>
      <trkpt lat="44.37959" lon="7.10921">
        <ele>2232.6</ele>
        <time>2022-07-18T16:42:24Z</time>
      </trkpt>
      <trkpt lat="44.37958" lon="7.10931">
        <ele>2232</ele>
        <time>2022-07-18T16:42:25Z</time>
      </trkpt>
      <trkpt lat="44.37958" lon="7.10941">
        <ele>2231.4</ele>
        <time>2022-07-18T16:42:26Z</time>
      </trkpt>
      <trkpt lat="44.37957" lon="7.1095">
        <ele>2230.8</ele>
        <time>2022-07-18T16:42:27Z</time>
      </trkpt>
      <trkpt lat="44.37954" lon="7.10959">
        <ele>2230.2</ele>
        <time>2022-07-18T16:42:28Z</time>
      </trkpt>
      <trkpt lat="44.37952" lon="7.10962">
        <ele>2229.6</ele>
        <time>2022-07-18T16:42:29Z</time>
      </trkpt>
      <trkpt lat="44.37948" lon="7.10967">
        <ele>2229</ele>
        <time>2022-07-18T16:42:30Z</time>
      </trkpt>
      <trkpt lat="44.37942" lon="7.10969">
        <ele>2228.4</ele>
        <time>2022-07-18T16:42:31Z</time>
      </trkpt>
      <trkpt lat="44.37934" lon="7.10972">
        <ele>2227.6</ele>
        <time>2022-07-18T16:42:32Z</time>
      </trkpt>
      <trkpt lat="44.37932" lon="7.10974">
        <ele>2227</ele>
        <time>2022-07-18T16:42:33Z</time>
      </trkpt>
      <trkpt lat="44.37925" lon="7.10982">
        <ele>2226.4</ele>
        <time>2022-07-18T16:42:34Z</time>
      </trkpt>
      <trkpt lat="44.37923" lon="7.10986">
        <ele>2225.8</ele>
        <time>2022-07-18T16:42:35Z</time>
      </trkpt>
      <trkpt lat="44.37921" lon="7.10996">
        <ele>2225.2</ele>
        <time>2022-07-18T16:42:36Z</time>
      </trkpt>
      <trkpt lat="44.37918" lon="7.11006">
        <ele>2224.4</ele>
        <time>2022-07-18T16:42:37Z</time>
      </trkpt>
      <trkpt lat="44.37914" lon="7.11017">
        <ele>2223.8</ele>
        <time>2022-07-18T16:42:38Z</time>
      </trkpt>
      <trkpt lat="44.37911" lon="7.11027">
        <ele>2223.2</ele>
        <time>2022-07-18T16:42:39Z</time>
      </trkpt>
      <trkpt lat="44.37907" lon="7.11041">
        <ele>2222.6</ele>
        <time>2022-07-18T16:42:40Z</time>
      </trkpt>
      <trkpt lat="44.37905" lon="7.11045">
        <ele>2221.8</ele>
        <time>2022-07-18T16:42:41Z</time>
      </trkpt>
      <trkpt lat="44.37902" lon="7.11053">
        <ele>2221.2</ele>
        <time>2022-07-18T16:42:42Z</time>
      </trkpt>
      <trkpt lat="44.37895" lon="7.11059">
        <ele>2220.6</ele>
        <time>2022-07-18T16:42:43Z</time>
      </trkpt>
      <trkpt lat="44.37892" lon="7.11059">
        <ele>2219.8</ele>
        <time>2022-07-18T16:42:44Z</time>
      </trkpt>
      <trkpt lat="44.37883" lon="7.11059">
        <ele>2219</ele>
        <time>2022-07-18T16:42:45Z</time>
      </trkpt>
      <trkpt lat="44.3788" lon="7.11058">
        <ele>2218.4</ele>
        <time>2022-07-18T16:42:46Z</time>
      </trkpt>
      <trkpt lat="44.37873" lon="7.11058">
        <ele>2217.4</ele>
        <time>2022-07-18T16:42:47Z</time>
      </trkpt>
      <trkpt lat="44.37864" lon="7.11063">
        <ele>2216.8</ele>
        <time>2022-07-18T16:42:48Z</time>
      </trkpt>
      <trkpt lat="44.37862" lon="7.11066">
        <ele>2216</ele>
        <time>2022-07-18T16:42:49Z</time>
      </trkpt>
      <trkpt lat="44.37857" lon="7.11074">
        <ele>2215.2</ele>
        <time>2022-07-18T16:42:50Z</time>
      </trkpt>
      <trkpt lat="44.37853" lon="7.11085">
        <ele>2214.4</ele>
        <time>2022-07-18T16:42:51Z</time>
      </trkpt>
      <trkpt lat="44.37849" lon="7.11096">
        <ele>2213.4</ele>
        <time>2022-07-18T16:42:52Z</time>
      </trkpt>
      <trkpt lat="44.37843" lon="7.11113">
        <ele>2212.6</ele>
        <time>2022-07-18T16:42:53Z</time>
      </trkpt>
      <trkpt lat="44.37841" lon="7.11118">
        <ele>2211.6</ele>
        <time>2022-07-18T16:42:54Z</time>
      </trkpt>
      <trkpt lat="44.37837" lon="7.11128">
        <ele>2210.8</ele>
        <time>2022-07-18T16:42:55Z</time>
      </trkpt>
      <trkpt lat="44.3783" lon="7.11139">
        <ele>2210.2</ele>
        <time>2022-07-18T16:42:56Z</time>
      </trkpt>
      <trkpt lat="44.37827" lon="7.11142">
        <ele>2209.4</ele>
        <time>2022-07-18T16:42:57Z</time>
      </trkpt>
      <trkpt lat="44.37822" lon="7.11147">
        <ele>2208.8</ele>
        <time>2022-07-18T16:42:58Z</time>
      </trkpt>
      <trkpt lat="44.37817" lon="7.1115">
        <ele>2208.2</ele>
        <time>2022-07-18T16:42:59Z</time>
      </trkpt>
      <trkpt lat="44.37814" lon="7.11154">
        <ele>2207.8</ele>
        <time>2022-07-18T16:43:00Z</time>
      </trkpt>
      <trkpt lat="44.37812" lon="7.1116">
        <ele>2207.2</ele>
        <time>2022-07-18T16:43:01Z</time>
      </trkpt>
      <trkpt lat="44.37815" lon="7.11168">
        <ele>2206.8</ele>
        <time>2022-07-18T16:43:02Z</time>
      </trkpt>
      <trkpt lat="44.37816" lon="7.11171">
        <ele>2206.4</ele>
        <time>2022-07-18T16:43:03Z</time>
      </trkpt>
      <trkpt lat="44.37821" lon="7.11173">
        <ele>2206</ele>
        <time>2022-07-18T16:43:04Z</time>
      </trkpt>
      <trkpt lat="44.37823" lon="7.11174">
        <ele>2205.8</ele>
        <time>2022-07-18T16:43:05Z</time>
      </trkpt>
      <trkpt lat="44.37828" lon="7.11172">
        <ele>2205.6</ele>
        <time>2022-07-18T16:43:06Z</time>
      </trkpt>
      <trkpt lat="44.37832" lon="7.11169">
        <ele>2205.4</ele>
        <time>2022-07-18T16:43:07Z</time>
      </trkpt>
      <trkpt lat="44.37837" lon="7.11161">
        <ele>2205.2</ele>
        <time>2022-07-18T16:43:08Z</time>
      </trkpt>
      <trkpt lat="44.37839" lon="7.11158">
        <ele>2205</ele>
        <time>2022-07-18T16:43:09Z</time>
      </trkpt>
      <trkpt lat="44.37842" lon="7.11152">
        <ele>2204.6</ele>
        <time>2022-07-18T16:43:10Z</time>
      </trkpt>
      <trkpt lat="44.37847" lon="7.11142">
        <ele>2204.6</ele>
        <time>2022-07-18T16:43:11Z</time>
      </trkpt>
      <trkpt lat="44.37849" lon="7.11139">
        <ele>2204.6</ele>
        <time>2022-07-18T16:43:12Z</time>
      </trkpt>
      <trkpt lat="44.37852" lon="7.11133">
        <ele>2204.4</ele>
        <time>2022-07-18T16:43:13Z</time>
      </trkpt>
      <trkpt lat="44.37857" lon="7.11123">
        <ele>2204.2</ele>
        <time>2022-07-18T16:43:14Z</time>
      </trkpt>
      <trkpt lat="44.37859" lon="7.11119">
        <ele>2204.2</ele>
        <time>2022-07-18T16:43:15Z</time>
      </trkpt>
      <trkpt lat="44.37862" lon="7.11113">
        <ele>2203.8</ele>
        <time>2022-07-18T16:43:16Z</time>
      </trkpt>
      <trkpt lat="44.37865" lon="7.11106">
        <ele>2203.8</ele>
        <time>2022-07-18T16:43:17Z</time>
      </trkpt>
      <trkpt lat="44.37869" lon="7.11099">
        <ele>2203.8</ele>
        <time>2022-07-18T16:43:18Z</time>
      </trkpt>
      <trkpt lat="44.37873" lon="7.11094">
        <ele>2203.8</ele>
        <time>2022-07-18T16:43:19Z</time>
      </trkpt>
      <trkpt lat="44.37878" lon="7.11093">
        <ele>2203.8</ele>
        <time>2022-07-18T16:43:20Z</time>
      </trkpt>
      <trkpt lat="44.37883" lon="7.11095">
        <ele>2203.8</ele>
        <time>2022-07-18T16:43:21Z</time>
      </trkpt>
      <trkpt lat="44.37888" lon="7.11097">
        <ele>2203.8</ele>
        <time>2022-07-18T16:43:22Z</time>
      </trkpt>
      <trkpt lat="44.37895" lon="7.11099">
        <ele>2203.8</ele>
        <time>2022-07-18T16:43:23Z</time>
      </trkpt>
      <trkpt lat="44.37898" lon="7.11099">
        <ele>2203.8</ele>
        <time>2022-07-18T16:43:24Z</time>
      </trkpt>
      <trkpt lat="44.37902" lon="7.11097">
        <ele>2203.8</ele>
        <time>2022-07-18T16:43:25Z</time>
      </trkpt>
      <trkpt lat="44.37906" lon="7.11093">
        <ele>2203.8</ele>
        <time>2022-07-18T16:43:26Z</time>
      </trkpt>
      <trkpt lat="44.37911" lon="7.11085">
        <ele>2203.8</ele>
        <time>2022-07-18T16:43:27Z</time>
      </trkpt>
      <trkpt lat="44.37913" lon="7.11082">
        <ele>2203.8</ele>
        <time>2022-07-18T16:43:28Z</time>
      </trkpt>
      <trkpt lat="44.37917" lon="7.11076">
        <ele>2203.8</ele>
        <time>2022-07-18T16:43:29Z</time>
      </trkpt>
      <trkpt lat="44.37921" lon="7.11067">
        <ele>2203.8</ele>
        <time>2022-07-18T16:43:30Z</time>
      </trkpt>
      <trkpt lat="44.37923" lon="7.11064">
        <ele>2203.6</ele>
        <time>2022-07-18T16:43:31Z</time>
      </trkpt>
      <trkpt lat="44.37926" lon="7.11058">
        <ele>2203.6</ele>
        <time>2022-07-18T16:43:32Z</time>
      </trkpt>
      <trkpt lat="44.37931" lon="7.1105">
        <ele>2203.6</ele>
        <time>2022-07-18T16:43:33Z</time>
      </trkpt>
      <trkpt lat="44.37933" lon="7.11047">
        <ele>2203.2</ele>
        <time>2022-07-18T16:43:34Z</time>
      </trkpt>
      <trkpt lat="44.37937" lon="7.11041">
        <ele>2203.2</ele>
        <time>2022-07-18T16:43:35Z</time>
      </trkpt>
      <trkpt lat="44.37943" lon="7.11035">
        <ele>2203.2</ele>
        <time>2022-07-18T16:43:36Z</time>
      </trkpt>
      <trkpt lat="44.37945" lon="7.11033">
        <ele>2203.2</ele>
        <time>2022-07-18T16:43:37Z</time>
      </trkpt>
      <trkpt lat="44.37949" lon="7.1103">
        <ele>2203.2</ele>
        <time>2022-07-18T16:43:38Z</time>
      </trkpt>
      <trkpt lat="44.37954" lon="7.11031">
        <ele>2203.2</ele>
        <time>2022-07-18T16:43:39Z</time>
      </trkpt>
      <trkpt lat="44.37959" lon="7.11033">
        <ele>2203.2</ele>
        <time>2022-07-18T16:43:40Z</time>
      </trkpt>
      <trkpt lat="44.37963" lon="7.11037">
        <ele>2203.2</ele>
        <time>2022-07-18T16:43:41Z</time>
      </trkpt>
      <trkpt lat="44.3797" lon="7.11042">
        <ele>2203.2</ele>
        <time>2022-07-18T16:43:42Z</time>
      </trkpt>
      <trkpt lat="44.37972" lon="7.11044">
        <ele>2203</ele>
        <time>2022-07-18T16:43:43Z</time>
      </trkpt>
      <trkpt lat="44.37975" lon="7.11048">
        <ele>2203</ele>
        <time>2022-07-18T16:43:44Z</time>
      </trkpt>
      <trkpt lat="44.3798" lon="7.11056">
        <ele>2202.8</ele>
        <time>2022-07-18T16:43:45Z</time>
      </trkpt>
      <trkpt lat="44.37982" lon="7.11059">
        <ele>2202.6</ele>
        <time>2022-07-18T16:43:46Z</time>
      </trkpt>
      <trkpt lat="44.37985" lon="7.11065">
        <ele>2202.2</ele>
        <time>2022-07-18T16:43:47Z</time>
      </trkpt>
      <trkpt lat="44.37987" lon="7.11076">
        <ele>2201.8</ele>
        <time>2022-07-18T16:43:48Z</time>
      </trkpt>
      <trkpt lat="44.37988" lon="7.11081">
        <ele>2201.6</ele>
        <time>2022-07-18T16:43:49Z</time>
      </trkpt>
      <trkpt lat="44.3799" lon="7.11093">
        <ele>2201.2</ele>
        <time>2022-07-18T16:43:50Z</time>
      </trkpt>
      <trkpt lat="44.37991" lon="7.11098">
        <ele>2200.8</ele>
        <time>2022-07-18T16:43:51Z</time>
      </trkpt>
      <trkpt lat="44.37993" lon="7.11112">
        <ele>2200.4</ele>
        <time>2022-07-18T16:43:52Z</time>
      </trkpt>
      <trkpt lat="44.37994" lon="7.11117">
        <ele>2199.8</ele>
        <time>2022-07-18T16:43:53Z</time>
      </trkpt>
      <trkpt lat="44.37996" lon="7.11132">
        <ele>2199.2</ele>
        <time>2022-07-18T16:43:54Z</time>
      </trkpt>
      <trkpt lat="44.37997" lon="7.11136">
        <ele>2198.8</ele>
        <time>2022-07-18T16:43:55Z</time>
      </trkpt>
      <trkpt lat="44.37998" lon="7.11146">
        <ele>2198.2</ele>
        <time>2022-07-18T16:43:56Z</time>
      </trkpt>
      <trkpt lat="44.38" lon="7.11155">
        <ele>2197.8</ele>
        <time>2022-07-18T16:43:57Z</time>
      </trkpt>
      <trkpt lat="44.38001" lon="7.11164">
        <ele>2197.2</ele>
        <time>2022-07-18T16:43:58Z</time>
      </trkpt>
      <trkpt lat="44.38004" lon="7.11174">
        <ele>2196.8</ele>
        <time>2022-07-18T16:43:59Z</time>
      </trkpt>
      <trkpt lat="44.38006" lon="7.11177">
        <ele>2196.2</ele>
        <time>2022-07-18T16:44:00Z</time>
      </trkpt>
      <trkpt lat="44.38009" lon="7.11182">
        <ele>2195.8</ele>
        <time>2022-07-18T16:44:01Z</time>
      </trkpt>
      <trkpt lat="44.38015" lon="7.11187">
        <ele>2195.4</ele>
        <time>2022-07-18T16:44:02Z</time>
      </trkpt>
      <trkpt lat="44.38016" lon="7.11189">
        <ele>2195.2</ele>
        <time>2022-07-18T16:44:03Z</time>
      </trkpt>
      <trkpt lat="44.38018" lon="7.11192">
        <ele>2194.8</ele>
        <time>2022-07-18T16:44:04Z</time>
      </trkpt>
      <trkpt lat="44.38018" lon="7.11197">
        <ele>2194.4</ele>
        <time>2022-07-18T16:44:05Z</time>
      </trkpt>
      <trkpt lat="44.38016" lon="7.11201">
        <ele>2194</ele>
        <time>2022-07-18T16:44:06Z</time>
      </trkpt>
      <trkpt lat="44.38013" lon="7.11203">
        <ele>2193.6</ele>
        <time>2022-07-18T16:44:07Z</time>
      </trkpt>
      <trkpt lat="44.38008" lon="7.11202">
        <ele>2193.4</ele>
        <time>2022-07-18T16:44:08Z</time>
      </trkpt>
      <trkpt lat="44.38007" lon="7.11201">
        <ele>2193</ele>
        <time>2022-07-18T16:44:09Z</time>
      </trkpt>
      <trkpt lat="44.38003" lon="7.11197">
        <ele>2192.6</ele>
        <time>2022-07-18T16:44:10Z</time>
      </trkpt>
      <trkpt lat="44.38" lon="7.11192">
        <ele>2192.4</ele>
        <time>2022-07-18T16:44:11Z</time>
      </trkpt>
      <trkpt lat="44.37994" lon="7.11185">
        <ele>2192</ele>
        <time>2022-07-18T16:44:12Z</time>
      </trkpt>
      <trkpt lat="44.37993" lon="7.11182">
        <ele>2191.8</ele>
        <time>2022-07-18T16:44:13Z</time>
      </trkpt>
      <trkpt lat="44.37989" lon="7.11176">
        <ele>2191.4</ele>
        <time>2022-07-18T16:44:14Z</time>
      </trkpt>
      <trkpt lat="44.37986" lon="7.11169">
        <ele>2191.2</ele>
        <time>2022-07-18T16:44:15Z</time>
      </trkpt>
      <trkpt lat="44.37983" lon="7.11161">
        <ele>2191</ele>
        <time>2022-07-18T16:44:16Z</time>
      </trkpt>
      <trkpt lat="44.37981" lon="7.11152">
        <ele>2190.6</ele>
        <time>2022-07-18T16:44:17Z</time>
      </trkpt>
      <trkpt lat="44.37977" lon="7.11139">
        <ele>2190.2</ele>
        <time>2022-07-18T16:44:18Z</time>
      </trkpt>
      <trkpt lat="44.37976" lon="7.11135">
        <ele>2190</ele>
        <time>2022-07-18T16:44:19Z</time>
      </trkpt>
      <trkpt lat="44.37971" lon="7.11123">
        <ele>2189.6</ele>
        <time>2022-07-18T16:44:20Z</time>
      </trkpt>
      <trkpt lat="44.37969" lon="7.1112">
        <ele>2189.2</ele>
        <time>2022-07-18T16:44:21Z</time>
      </trkpt>
      <trkpt lat="44.37965" lon="7.11112">
        <ele>2188.8</ele>
        <time>2022-07-18T16:44:22Z</time>
      </trkpt>
      <trkpt lat="44.37961" lon="7.11106">
        <ele>2188.2</ele>
        <time>2022-07-18T16:44:23Z</time>
      </trkpt>
      <trkpt lat="44.37953" lon="7.11101">
        <ele>2187.8</ele>
        <time>2022-07-18T16:44:24Z</time>
      </trkpt>
      <trkpt lat="44.37951" lon="7.111">
        <ele>2187.2</ele>
        <time>2022-07-18T16:44:25Z</time>
      </trkpt>
      <trkpt lat="44.3794" lon="7.11107">
        <ele>2186.8</ele>
        <time>2022-07-18T16:44:26Z</time>
      </trkpt>
      <trkpt lat="44.37934" lon="7.11116">
        <ele>2186.2</ele>
        <time>2022-07-18T16:44:27Z</time>
      </trkpt>
      <trkpt lat="44.37929" lon="7.11126">
        <ele>2185.4</ele>
        <time>2022-07-18T16:44:28Z</time>
      </trkpt>
      <trkpt lat="44.3792" lon="7.11154">
        <ele>2183.6</ele>
        <time>2022-07-18T16:44:30Z</time>
      </trkpt>
      <trkpt lat="44.3792" lon="7.11156">
        <ele>2182.6</ele>
        <time>2022-07-18T16:44:31Z</time>
      </trkpt>
      <trkpt lat="44.37918" lon="7.11162">
        <ele>2181.6</ele>
        <time>2022-07-18T16:44:32Z</time>
      </trkpt>
      <trkpt lat="44.37917" lon="7.11173">
        <ele>2180.6</ele>
        <time>2022-07-18T16:44:33Z</time>
      </trkpt>
      <trkpt lat="44.37914" lon="7.11184">
        <ele>2179.6</ele>
        <time>2022-07-18T16:44:34Z</time>
      </trkpt>
      <trkpt lat="44.37911" lon="7.11193">
        <ele>2178.6</ele>
        <time>2022-07-18T16:44:35Z</time>
      </trkpt>
      <trkpt lat="44.37904" lon="7.11206">
        <ele>2177.6</ele>
        <time>2022-07-18T16:44:36Z</time>
      </trkpt>
      <trkpt lat="44.37902" lon="7.11211">
        <ele>2176.8</ele>
        <time>2022-07-18T16:44:37Z</time>
      </trkpt>
      <trkpt lat="44.37898" lon="7.11221">
        <ele>2175.8</ele>
        <time>2022-07-18T16:44:38Z</time>
      </trkpt>
      <trkpt lat="44.37894" lon="7.11236">
        <ele>2175</ele>
        <time>2022-07-18T16:44:39Z</time>
      </trkpt>
      <trkpt lat="44.37894" lon="7.1124">
        <ele>2174.4</ele>
        <time>2022-07-18T16:44:40Z</time>
      </trkpt>
      <trkpt lat="44.37892" lon="7.11249">
        <ele>2173.8</ele>
        <time>2022-07-18T16:44:41Z</time>
      </trkpt>
      <trkpt lat="44.37897" lon="7.11259">
        <ele>2173.2</ele>
        <time>2022-07-18T16:44:42Z</time>
      </trkpt>
      <trkpt lat="44.37899" lon="7.11262">
        <ele>2172.6</ele>
        <time>2022-07-18T16:44:43Z</time>
      </trkpt>
      <trkpt lat="44.37906" lon="7.11269">
        <ele>2171.8</ele>
        <time>2022-07-18T16:44:44Z</time>
      </trkpt>
      <trkpt lat="44.37909" lon="7.11271">
        <ele>2171.2</ele>
        <time>2022-07-18T16:44:45Z</time>
      </trkpt>
      <trkpt lat="44.37915" lon="7.11275">
        <ele>2170.4</ele>
        <time>2022-07-18T16:44:46Z</time>
      </trkpt>
      <trkpt lat="44.37919" lon="7.11281">
        <ele>2169.8</ele>
        <time>2022-07-18T16:44:47Z</time>
      </trkpt>
      <trkpt lat="44.37922" lon="7.11294">
        <ele>2169</ele>
        <time>2022-07-18T16:44:48Z</time>
      </trkpt>
      <trkpt lat="44.37921" lon="7.113">
        <ele>2168.2</ele>
        <time>2022-07-18T16:44:49Z</time>
      </trkpt>
      <trkpt lat="44.37921" lon="7.1131">
        <ele>2167.4</ele>
        <time>2022-07-18T16:44:50Z</time>
      </trkpt>
      <trkpt lat="44.3792" lon="7.11321">
        <ele>2166.8</ele>
        <time>2022-07-18T16:44:51Z</time>
      </trkpt>
      <trkpt lat="44.37919" lon="7.11334">
        <ele>2165.8</ele>
        <time>2022-07-18T16:44:52Z</time>
      </trkpt>
      <trkpt lat="44.37917" lon="7.11346">
        <ele>2165.2</ele>
        <time>2022-07-18T16:44:53Z</time>
      </trkpt>
      <trkpt lat="44.37914" lon="7.11364">
        <ele>2164.4</ele>
        <time>2022-07-18T16:44:54Z</time>
      </trkpt>
      <trkpt lat="44.37913" lon="7.1137">
        <ele>2163.4</ele>
        <time>2022-07-18T16:44:55Z</time>
      </trkpt>
      <trkpt lat="44.37912" lon="7.11382">
        <ele>2162.6</ele>
        <time>2022-07-18T16:44:56Z</time>
      </trkpt>
      <trkpt lat="44.37911" lon="7.11394">
        <ele>2161.6</ele>
        <time>2022-07-18T16:44:57Z</time>
      </trkpt>
      <trkpt lat="44.37911" lon="7.11405">
        <ele>2160.8</ele>
        <time>2022-07-18T16:44:58Z</time>
      </trkpt>
      <trkpt lat="44.37912" lon="7.11415">
        <ele>2160</ele>
        <time>2022-07-18T16:44:59Z</time>
      </trkpt>
      <trkpt lat="44.37914" lon="7.11425">
        <ele>2159.2</ele>
        <time>2022-07-18T16:45:00Z</time>
      </trkpt>
      <trkpt lat="44.37914" lon="7.11438">
        <ele>2158.6</ele>
        <time>2022-07-18T16:45:01Z</time>
      </trkpt>
      <trkpt lat="44.37914" lon="7.11443">
        <ele>2158</ele>
        <time>2022-07-18T16:45:02Z</time>
      </trkpt>
      <trkpt lat="44.37914" lon="7.11453">
        <ele>2157.4</ele>
        <time>2022-07-18T16:45:03Z</time>
      </trkpt>
      <trkpt lat="44.37912" lon="7.11463">
        <ele>2156.8</ele>
        <time>2022-07-18T16:45:04Z</time>
      </trkpt>
      <trkpt lat="44.3791" lon="7.11474">
        <ele>2156</ele>
        <time>2022-07-18T16:45:05Z</time>
      </trkpt>
      <trkpt lat="44.37907" lon="7.11485">
        <ele>2155.4</ele>
        <time>2022-07-18T16:45:06Z</time>
      </trkpt>
      <trkpt lat="44.37903" lon="7.11496">
        <ele>2154.4</ele>
        <time>2022-07-18T16:45:07Z</time>
      </trkpt>
      <trkpt lat="44.37899" lon="7.11506">
        <ele>2153.6</ele>
        <time>2022-07-18T16:45:08Z</time>
      </trkpt>
      <trkpt lat="44.37893" lon="7.11522">
        <ele>2153</ele>
        <time>2022-07-18T16:45:09Z</time>
      </trkpt>
      <trkpt lat="44.37891" lon="7.11528">
        <ele>2152.2</ele>
        <time>2022-07-18T16:45:10Z</time>
      </trkpt>
      <trkpt lat="44.37887" lon="7.11539">
        <ele>2151.4</ele>
        <time>2022-07-18T16:45:11Z</time>
      </trkpt>
      <trkpt lat="44.37883" lon="7.11558">
        <ele>2150.8</ele>
        <time>2022-07-18T16:45:12Z</time>
      </trkpt>
      <trkpt lat="44.37882" lon="7.11564">
        <ele>2150</ele>
        <time>2022-07-18T16:45:13Z</time>
      </trkpt>
      <trkpt lat="44.3788" lon="7.11575">
        <ele>2149.2</ele>
        <time>2022-07-18T16:45:14Z</time>
      </trkpt>
      <trkpt lat="44.3788" lon="7.11592">
        <ele>2148.4</ele>
        <time>2022-07-18T16:45:15Z</time>
      </trkpt>
      <trkpt lat="44.37881" lon="7.11598">
        <ele>2147.6</ele>
        <time>2022-07-18T16:45:16Z</time>
      </trkpt>
      <trkpt lat="44.37884" lon="7.11609">
        <ele>2146.6</ele>
        <time>2022-07-18T16:45:17Z</time>
      </trkpt>
      <trkpt lat="44.37888" lon="7.11619">
        <ele>2145.8</ele>
        <time>2022-07-18T16:45:18Z</time>
      </trkpt>
      <trkpt lat="44.37891" lon="7.11629">
        <ele>2145.2</ele>
        <time>2022-07-18T16:45:19Z</time>
      </trkpt>
      <trkpt lat="44.37893" lon="7.1164">
        <ele>2144.4</ele>
        <time>2022-07-18T16:45:20Z</time>
      </trkpt>
      <trkpt lat="44.37893" lon="7.11652">
        <ele>2143.6</ele>
        <time>2022-07-18T16:45:21Z</time>
      </trkpt>
      <trkpt lat="44.37892" lon="7.11664">
        <ele>2142.8</ele>
        <time>2022-07-18T16:45:22Z</time>
      </trkpt>
      <trkpt lat="44.3789" lon="7.11676">
        <ele>2141.8</ele>
        <time>2022-07-18T16:45:23Z</time>
      </trkpt>
      <trkpt lat="44.37885" lon="7.11695">
        <ele>2140.8</ele>
        <time>2022-07-18T16:45:24Z</time>
      </trkpt>
      <trkpt lat="44.37883" lon="7.11701">
        <ele>2139.6</ele>
        <time>2022-07-18T16:45:25Z</time>
      </trkpt>
      <trkpt lat="44.37877" lon="7.11718">
        <ele>2138.6</ele>
        <time>2022-07-18T16:45:26Z</time>
      </trkpt>
      <trkpt lat="44.37875" lon="7.11724">
        <ele>2137.6</ele>
        <time>2022-07-18T16:45:27Z</time>
      </trkpt>
      <trkpt lat="44.3787" lon="7.11734">
        <ele>2136.6</ele>
        <time>2022-07-18T16:45:28Z</time>
      </trkpt>
      <trkpt lat="44.37863" lon="7.11743">
        <ele>2135.4</ele>
        <time>2022-07-18T16:45:29Z</time>
      </trkpt>
      <trkpt lat="44.37851" lon="7.11754">
        <ele>2134.4</ele>
        <time>2022-07-18T16:45:30Z</time>
      </trkpt>
      <trkpt lat="44.37847" lon="7.11758">
        <ele>2133.2</ele>
        <time>2022-07-18T16:45:31Z</time>
      </trkpt>
      <trkpt lat="44.37838" lon="7.11765">
        <ele>2132</ele>
        <time>2022-07-18T16:45:32Z</time>
      </trkpt>
      <trkpt lat="44.37827" lon="7.1178">
        <ele>2130.8</ele>
        <time>2022-07-18T16:45:33Z</time>
      </trkpt>
      <trkpt lat="44.37824" lon="7.11785">
        <ele>2129.8</ele>
        <time>2022-07-18T16:45:34Z</time>
      </trkpt>
      <trkpt lat="44.37817" lon="7.11796">
        <ele>2128.6</ele>
        <time>2022-07-18T16:45:35Z</time>
      </trkpt>
      <trkpt lat="44.37811" lon="7.11814">
        <ele>2127.4</ele>
        <time>2022-07-18T16:45:36Z</time>
      </trkpt>
      <trkpt lat="44.3781" lon="7.11819">
        <ele>2126.2</ele>
        <time>2022-07-18T16:45:37Z</time>
      </trkpt>
      <trkpt lat="44.37806" lon="7.1183">
        <ele>2125.2</ele>
        <time>2022-07-18T16:45:38Z</time>
      </trkpt>
      <trkpt lat="44.37803" lon="7.11838">
        <ele>2124.2</ele>
        <time>2022-07-18T16:45:39Z</time>
      </trkpt>
      <trkpt lat="44.37798" lon="7.11844">
        <ele>2123.4</ele>
        <time>2022-07-18T16:45:40Z</time>
      </trkpt>
      <trkpt lat="44.37792" lon="7.11847">
        <ele>2122.6</ele>
        <time>2022-07-18T16:45:41Z</time>
      </trkpt>
      <trkpt lat="44.37782" lon="7.11845">
        <ele>2121.8</ele>
        <time>2022-07-18T16:45:42Z</time>
      </trkpt>
      <trkpt lat="44.37779" lon="7.11845">
        <ele>2121.2</ele>
        <time>2022-07-18T16:45:43Z</time>
      </trkpt>
      <trkpt lat="44.37773" lon="7.11844">
        <ele>2120.4</ele>
        <time>2022-07-18T16:45:44Z</time>
      </trkpt>
      <trkpt lat="44.37768" lon="7.11846">
        <ele>2120</ele>
        <time>2022-07-18T16:45:45Z</time>
      </trkpt>
      <trkpt lat="44.37763" lon="7.11849">
        <ele>2119.6</ele>
        <time>2022-07-18T16:45:46Z</time>
      </trkpt>
      <trkpt lat="44.37755" lon="7.11856">
        <ele>2119.4</ele>
        <time>2022-07-18T16:45:47Z</time>
      </trkpt>
      <trkpt lat="44.37753" lon="7.11859">
        <ele>2119.4</ele>
        <time>2022-07-18T16:45:48Z</time>
      </trkpt>
      <trkpt lat="44.3775" lon="7.11865">
        <ele>2119</ele>
        <time>2022-07-18T16:45:49Z</time>
      </trkpt>
      <trkpt lat="44.37747" lon="7.11871">
        <ele>2119</ele>
        <time>2022-07-18T16:45:50Z</time>
      </trkpt>
      <trkpt lat="44.37743" lon="7.11878">
        <ele>2119</ele>
        <time>2022-07-18T16:45:51Z</time>
      </trkpt>
      <trkpt lat="44.37738" lon="7.11887">
        <ele>2119</ele>
        <time>2022-07-18T16:45:52Z</time>
      </trkpt>
      <trkpt lat="44.37736" lon="7.1189">
        <ele>2119</ele>
        <time>2022-07-18T16:45:53Z</time>
      </trkpt>
      <trkpt lat="44.37733" lon="7.11896">
        <ele>2119</ele>
        <time>2022-07-18T16:45:54Z</time>
      </trkpt>
      <trkpt lat="44.3773" lon="7.11902">
        <ele>2118.6</ele>
        <time>2022-07-18T16:45:55Z</time>
      </trkpt>
      <trkpt lat="44.37727" lon="7.11908">
        <ele>2118.6</ele>
        <time>2022-07-18T16:45:56Z</time>
      </trkpt>
      <trkpt lat="44.37724" lon="7.11914">
        <ele>2118.4</ele>
        <time>2022-07-18T16:45:57Z</time>
      </trkpt>
      <trkpt lat="44.37721" lon="7.11919">
        <ele>2118.4</ele>
        <time>2022-07-18T16:45:58Z</time>
      </trkpt>
      <trkpt lat="44.37715" lon="7.11924">
        <ele>2117.8</ele>
        <time>2022-07-18T16:45:59Z</time>
      </trkpt>
      <trkpt lat="44.37713" lon="7.11925">
        <ele>2117.6</ele>
        <time>2022-07-18T16:46:00Z</time>
      </trkpt>
      <trkpt lat="44.37708" lon="7.11924">
        <ele>2117.2</ele>
        <time>2022-07-18T16:46:01Z</time>
      </trkpt>
      <trkpt lat="44.37702" lon="7.11921">
        <ele>2116.8</ele>
        <time>2022-07-18T16:46:02Z</time>
      </trkpt>
      <trkpt lat="44.37696" lon="7.1192">
        <ele>2116.2</ele>
        <time>2022-07-18T16:46:03Z</time>
      </trkpt>
      <trkpt lat="44.37692" lon="7.11922">
        <ele>2115.8</ele>
        <time>2022-07-18T16:46:04Z</time>
      </trkpt>
      <trkpt lat="44.37686" lon="7.11925">
        <ele>2115.4</ele>
        <time>2022-07-18T16:46:05Z</time>
      </trkpt>
      <trkpt lat="44.37681" lon="7.1193">
        <ele>2114.8</ele>
        <time>2022-07-18T16:46:06Z</time>
      </trkpt>
      <trkpt lat="44.37676" lon="7.11936">
        <ele>2114.6</ele>
        <time>2022-07-18T16:46:07Z</time>
      </trkpt>
      <trkpt lat="44.37673" lon="7.11944">
        <ele>2114.2</ele>
        <time>2022-07-18T16:46:08Z</time>
      </trkpt>
      <trkpt lat="44.37669" lon="7.11956">
        <ele>2113.6</ele>
        <time>2022-07-18T16:46:09Z</time>
      </trkpt>
      <trkpt lat="44.37667" lon="7.1196">
        <ele>2113.2</ele>
        <time>2022-07-18T16:46:10Z</time>
      </trkpt>
      <trkpt lat="44.37665" lon="7.11968">
        <ele>2112.8</ele>
        <time>2022-07-18T16:46:11Z</time>
      </trkpt>
      <trkpt lat="44.37658" lon="7.11975">
        <ele>2112.2</ele>
        <time>2022-07-18T16:46:12Z</time>
      </trkpt>
      <trkpt lat="44.37655" lon="7.11976">
        <ele>2111.8</ele>
        <time>2022-07-18T16:46:13Z</time>
      </trkpt>
      <trkpt lat="44.37647" lon="7.11976">
        <ele>2111.2</ele>
        <time>2022-07-18T16:46:14Z</time>
      </trkpt>
      <trkpt lat="44.37645" lon="7.11975">
        <ele>2110.6</ele>
        <time>2022-07-18T16:46:15Z</time>
      </trkpt>
      <trkpt lat="44.37636" lon="7.11968">
        <ele>2110</ele>
        <time>2022-07-18T16:46:16Z</time>
      </trkpt>
      <trkpt lat="44.37633" lon="7.11965">
        <ele>2109.4</ele>
        <time>2022-07-18T16:46:17Z</time>
      </trkpt>
      <trkpt lat="44.37628" lon="7.11959">
        <ele>2108.8</ele>
        <time>2022-07-18T16:46:18Z</time>
      </trkpt>
      <trkpt lat="44.37622" lon="7.11956">
        <ele>2108.2</ele>
        <time>2022-07-18T16:46:19Z</time>
      </trkpt>
      <trkpt lat="44.37616" lon="7.11958">
        <ele>2107.6</ele>
        <time>2022-07-18T16:46:20Z</time>
      </trkpt>
      <trkpt lat="44.3761" lon="7.11962">
        <ele>2107</ele>
        <time>2022-07-18T16:46:21Z</time>
      </trkpt>
      <trkpt lat="44.37604" lon="7.11968">
        <ele>2106.4</ele>
        <time>2022-07-18T16:46:22Z</time>
      </trkpt>
      <trkpt lat="44.37599" lon="7.11976">
        <ele>2105.8</ele>
        <time>2022-07-18T16:46:23Z</time>
      </trkpt>
      <trkpt lat="44.37595" lon="7.11992">
        <ele>2105</ele>
        <time>2022-07-18T16:46:24Z</time>
      </trkpt>
      <trkpt lat="44.37594" lon="7.11997">
        <ele>2104.4</ele>
        <time>2022-07-18T16:46:25Z</time>
      </trkpt>
      <trkpt lat="44.37595" lon="7.1201">
        <ele>2103.4</ele>
        <time>2022-07-18T16:46:26Z</time>
      </trkpt>
      <trkpt lat="44.37595" lon="7.12023">
        <ele>2102.6</ele>
        <time>2022-07-18T16:46:27Z</time>
      </trkpt>
      <trkpt lat="44.37596" lon="7.12036">
        <ele>2101.6</ele>
        <time>2022-07-18T16:46:28Z</time>
      </trkpt>
      <trkpt lat="44.37596" lon="7.12048">
        <ele>2100.6</ele>
        <time>2022-07-18T16:46:29Z</time>
      </trkpt>
      <trkpt lat="44.37596" lon="7.12059">
        <ele>2099.8</ele>
        <time>2022-07-18T16:46:30Z</time>
      </trkpt>
      <trkpt lat="44.37596" lon="7.12069">
        <ele>2098.8</ele>
        <time>2022-07-18T16:46:31Z</time>
      </trkpt>
      <trkpt lat="44.37596" lon="7.12077">
        <ele>2098</ele>
        <time>2022-07-18T16:46:32Z</time>
      </trkpt>
      <trkpt lat="44.37602" lon="7.12086">
        <ele>2097.2</ele>
        <time>2022-07-18T16:46:33Z</time>
      </trkpt>
      <trkpt lat="44.37604" lon="7.12088">
        <ele>2096.2</ele>
        <time>2022-07-18T16:46:34Z</time>
      </trkpt>
      <trkpt lat="44.3761" lon="7.1209">
        <ele>2095.2</ele>
        <time>2022-07-18T16:46:35Z</time>
      </trkpt>
      <trkpt lat="44.3762" lon="7.12084">
        <ele>2094.4</ele>
        <time>2022-07-18T16:46:36Z</time>
      </trkpt>
      <trkpt lat="44.37624" lon="7.12081">
        <ele>2093.4</ele>
        <time>2022-07-18T16:46:37Z</time>
      </trkpt>
      <trkpt lat="44.37634" lon="7.12072">
        <ele>2092.4</ele>
        <time>2022-07-18T16:46:38Z</time>
      </trkpt>
      <trkpt lat="44.37637" lon="7.12068">
        <ele>2091.4</ele>
        <time>2022-07-18T16:46:39Z</time>
      </trkpt>
      <trkpt lat="44.37643" lon="7.1206">
        <ele>2090.6</ele>
        <time>2022-07-18T16:46:40Z</time>
      </trkpt>
      <trkpt lat="44.37649" lon="7.12054">
        <ele>2089.8</ele>
        <time>2022-07-18T16:46:41Z</time>
      </trkpt>
      <trkpt lat="44.37656" lon="7.12052">
        <ele>2089</ele>
        <time>2022-07-18T16:46:42Z</time>
      </trkpt>
      <trkpt lat="44.37662" lon="7.12052">
        <ele>2088.4</ele>
        <time>2022-07-18T16:46:43Z</time>
      </trkpt>
      <trkpt lat="44.37669" lon="7.12056">
        <ele>2087.6</ele>
        <time>2022-07-18T16:46:44Z</time>
      </trkpt>
      <trkpt lat="44.37676" lon="7.12062">
        <ele>2086.6</ele>
        <time>2022-07-18T16:46:45Z</time>
      </trkpt>
      <trkpt lat="44.37683" lon="7.12069">
        <ele>2085.8</ele>
        <time>2022-07-18T16:46:46Z</time>
      </trkpt>
      <trkpt lat="44.37689" lon="7.12077">
        <ele>2084.8</ele>
        <time>2022-07-18T16:46:47Z</time>
      </trkpt>
      <trkpt lat="44.37698" lon="7.12091">
        <ele>2083.8</ele>
        <time>2022-07-18T16:46:48Z</time>
      </trkpt>
      <trkpt lat="44.37701" lon="7.12096">
        <ele>2082.8</ele>
        <time>2022-07-18T16:46:49Z</time>
      </trkpt>
      <trkpt lat="44.37708" lon="7.12113">
        <ele>2081.6</ele>
        <time>2022-07-18T16:46:50Z</time>
      </trkpt>
      <trkpt lat="44.37709" lon="7.12119">
        <ele>2080.6</ele>
        <time>2022-07-18T16:46:51Z</time>
      </trkpt>
      <trkpt lat="44.37712" lon="7.12133">
        <ele>2079.4</ele>
        <time>2022-07-18T16:46:52Z</time>
      </trkpt>
      <trkpt lat="44.37713" lon="7.12148">
        <ele>2078.2</ele>
        <time>2022-07-18T16:46:53Z</time>
      </trkpt>
      <trkpt lat="44.37714" lon="7.12162">
        <ele>2077</ele>
        <time>2022-07-18T16:46:54Z</time>
      </trkpt>
      <trkpt lat="44.37715" lon="7.12184">
        <ele>2075.6</ele>
        <time>2022-07-18T16:46:55Z</time>
      </trkpt>
      <trkpt lat="44.37715" lon="7.12191">
        <ele>2074.6</ele>
        <time>2022-07-18T16:46:56Z</time>
      </trkpt>
      <trkpt lat="44.37714" lon="7.12205">
        <ele>2073.4</ele>
        <time>2022-07-18T16:46:57Z</time>
      </trkpt>
      <trkpt lat="44.37713" lon="7.12219">
        <ele>2072</ele>
        <time>2022-07-18T16:46:58Z</time>
      </trkpt>
      <trkpt lat="44.37712" lon="7.12234">
        <ele>2070.8</ele>
        <time>2022-07-18T16:46:59Z</time>
      </trkpt>
      <trkpt lat="44.37711" lon="7.1225">
        <ele>2069.4</ele>
        <time>2022-07-18T16:47:00Z</time>
      </trkpt>
      <trkpt lat="44.3771" lon="7.12265">
        <ele>2068</ele>
        <time>2022-07-18T16:47:01Z</time>
      </trkpt>
      <trkpt lat="44.37708" lon="7.12287">
        <ele>2066.6</ele>
        <time>2022-07-18T16:47:02Z</time>
      </trkpt>
      <trkpt lat="44.37708" lon="7.12294">
        <ele>2065.4</ele>
        <time>2022-07-18T16:47:03Z</time>
      </trkpt>
      <trkpt lat="44.37707" lon="7.12316">
        <ele>2064.2</ele>
        <time>2022-07-18T16:47:04Z</time>
      </trkpt>
      <trkpt lat="44.37706" lon="7.12323">
        <ele>2063</ele>
        <time>2022-07-18T16:47:05Z</time>
      </trkpt>
      <trkpt lat="44.37706" lon="7.12338">
        <ele>2061.8</ele>
        <time>2022-07-18T16:47:06Z</time>
      </trkpt>
      <trkpt lat="44.37705" lon="7.12351">
        <ele>2060.8</ele>
        <time>2022-07-18T16:47:07Z</time>
      </trkpt>
      <trkpt lat="44.37704" lon="7.12362">
        <ele>2059.6</ele>
        <time>2022-07-18T16:47:08Z</time>
      </trkpt>
      <trkpt lat="44.37704" lon="7.12376">
        <ele>2058.8</ele>
        <time>2022-07-18T16:47:09Z</time>
      </trkpt>
      <trkpt lat="44.37704" lon="7.1238">
        <ele>2058</ele>
        <time>2022-07-18T16:47:10Z</time>
      </trkpt>
      <trkpt lat="44.37705" lon="7.12385">
        <ele>2057.2</ele>
        <time>2022-07-18T16:47:11Z</time>
      </trkpt>
      <trkpt lat="44.37708" lon="7.12388">
        <ele>2056.4</ele>
        <time>2022-07-18T16:47:12Z</time>
      </trkpt>
      <trkpt lat="44.37712" lon="7.12388">
        <ele>2056</ele>
        <time>2022-07-18T16:47:13Z</time>
      </trkpt>
      <trkpt lat="44.37716" lon="7.12387">
        <ele>2055.4</ele>
        <time>2022-07-18T16:47:14Z</time>
      </trkpt>
      <trkpt lat="44.37721" lon="7.12385">
        <ele>2055</ele>
        <time>2022-07-18T16:47:15Z</time>
      </trkpt>
      <trkpt lat="44.37722" lon="7.12385">
        <ele>2054.6</ele>
        <time>2022-07-18T16:47:16Z</time>
      </trkpt>
      <trkpt lat="44.37726" lon="7.12383">
        <ele>2054</ele>
        <time>2022-07-18T16:47:17Z</time>
      </trkpt>
      <trkpt lat="44.3773" lon="7.1238">
        <ele>2053.6</ele>
        <time>2022-07-18T16:47:18Z</time>
      </trkpt>
      <trkpt lat="44.37736" lon="7.12374">
        <ele>2053.2</ele>
        <time>2022-07-18T16:47:19Z</time>
      </trkpt>
      <trkpt lat="44.37738" lon="7.12371">
        <ele>2052.8</ele>
        <time>2022-07-18T16:47:20Z</time>
      </trkpt>
      <trkpt lat="44.37743" lon="7.12366">
        <ele>2052.4</ele>
        <time>2022-07-18T16:47:21Z</time>
      </trkpt>
      <trkpt lat="44.3775" lon="7.12357">
        <ele>2051.8</ele>
        <time>2022-07-18T16:47:22Z</time>
      </trkpt>
      <trkpt lat="44.37753" lon="7.12354">
        <ele>2051.2</ele>
        <time>2022-07-18T16:47:23Z</time>
      </trkpt>
      <trkpt lat="44.37759" lon="7.12348">
        <ele>2050.6</ele>
        <time>2022-07-18T16:47:24Z</time>
      </trkpt>
      <trkpt lat="44.37766" lon="7.12343">
        <ele>2050.2</ele>
        <time>2022-07-18T16:47:25Z</time>
      </trkpt>
      <trkpt lat="44.37773" lon="7.12337">
        <ele>2049.6</ele>
        <time>2022-07-18T16:47:26Z</time>
      </trkpt>
      <trkpt lat="44.3778" lon="7.12331">
        <ele>2048.8</ele>
        <time>2022-07-18T16:47:27Z</time>
      </trkpt>
      <trkpt lat="44.37788" lon="7.12321">
        <ele>2048.2</ele>
        <time>2022-07-18T16:47:28Z</time>
      </trkpt>
      <trkpt lat="44.37791" lon="7.12318">
        <ele>2047.8</ele>
        <time>2022-07-18T16:47:29Z</time>
      </trkpt>
      <trkpt lat="44.37796" lon="7.12311">
        <ele>2047.2</ele>
        <time>2022-07-18T16:47:30Z</time>
      </trkpt>
      <trkpt lat="44.37803" lon="7.12306">
        <ele>2046.8</ele>
        <time>2022-07-18T16:47:31Z</time>
      </trkpt>
      <trkpt lat="44.37806" lon="7.12305">
        <ele>2046.4</ele>
        <time>2022-07-18T16:47:32Z</time>
      </trkpt>
      <trkpt lat="44.37811" lon="7.12304">
        <ele>2046</ele>
        <time>2022-07-18T16:47:33Z</time>
      </trkpt>
      <trkpt lat="44.37815" lon="7.1231">
        <ele>2045.6</ele>
        <time>2022-07-18T16:47:34Z</time>
      </trkpt>
      <trkpt lat="44.37815" lon="7.12313">
        <ele>2045.2</ele>
        <time>2022-07-18T16:47:35Z</time>
      </trkpt>
      <trkpt lat="44.37813" lon="7.1232">
        <ele>2045</ele>
        <time>2022-07-18T16:47:36Z</time>
      </trkpt>
      <trkpt lat="44.3781" lon="7.12327">
        <ele>2044.4</ele>
        <time>2022-07-18T16:47:37Z</time>
      </trkpt>
      <trkpt lat="44.37806" lon="7.12335">
        <ele>2043.8</ele>
        <time>2022-07-18T16:47:38Z</time>
      </trkpt>
      <trkpt lat="44.37802" lon="7.1235">
        <ele>2043.2</ele>
        <time>2022-07-18T16:47:39Z</time>
      </trkpt>
      <trkpt lat="44.37801" lon="7.12355">
        <ele>2042.4</ele>
        <time>2022-07-18T16:47:40Z</time>
      </trkpt>
      <trkpt lat="44.37801" lon="7.12368">
        <ele>2041.4</ele>
        <time>2022-07-18T16:47:41Z</time>
      </trkpt>
      <trkpt lat="44.37801" lon="7.1238">
        <ele>2040.6</ele>
        <time>2022-07-18T16:47:42Z</time>
      </trkpt>
      <trkpt lat="44.37801" lon="7.12393">
        <ele>2039.6</ele>
        <time>2022-07-18T16:47:43Z</time>
      </trkpt>
      <trkpt lat="44.37801" lon="7.12411">
        <ele>2038.6</ele>
        <time>2022-07-18T16:47:44Z</time>
      </trkpt>
      <trkpt lat="44.37802" lon="7.12418">
        <ele>2037.6</ele>
        <time>2022-07-18T16:47:45Z</time>
      </trkpt>
      <trkpt lat="44.37803" lon="7.1243">
        <ele>2036.6</ele>
        <time>2022-07-18T16:47:46Z</time>
      </trkpt>
      <trkpt lat="44.37803" lon="7.1245">
        <ele>2035.2</ele>
        <time>2022-07-18T16:47:47Z</time>
      </trkpt>
      <trkpt lat="44.37804" lon="7.12457">
        <ele>2034</ele>
        <time>2022-07-18T16:47:48Z</time>
      </trkpt>
      <trkpt lat="44.37804" lon="7.12471">
        <ele>2032.8</ele>
        <time>2022-07-18T16:47:49Z</time>
      </trkpt>
      <trkpt lat="44.37806" lon="7.12492">
        <ele>2031.8</ele>
        <time>2022-07-18T16:47:50Z</time>
      </trkpt>
      <trkpt lat="44.37807" lon="7.12499">
        <ele>2030.8</ele>
        <time>2022-07-18T16:47:51Z</time>
      </trkpt>
      <trkpt lat="44.37808" lon="7.12514">
        <ele>2029.6</ele>
        <time>2022-07-18T16:47:52Z</time>
      </trkpt>
      <trkpt lat="44.3781" lon="7.12536">
        <ele>2028.4</ele>
        <time>2022-07-18T16:47:53Z</time>
      </trkpt>
      <trkpt lat="44.3781" lon="7.12543">
        <ele>2027.2</ele>
        <time>2022-07-18T16:47:54Z</time>
      </trkpt>
      <trkpt lat="44.37811" lon="7.12558">
        <ele>2025.8</ele>
        <time>2022-07-18T16:47:55Z</time>
      </trkpt>
      <trkpt lat="44.37812" lon="7.12574">
        <ele>2024.2</ele>
        <time>2022-07-18T16:47:56Z</time>
      </trkpt>
      <trkpt lat="44.37813" lon="7.12589">
        <ele>2022.8</ele>
        <time>2022-07-18T16:47:57Z</time>
      </trkpt>
      <trkpt lat="44.37813" lon="7.12603">
        <ele>2021.4</ele>
        <time>2022-07-18T16:47:58Z</time>
      </trkpt>
      <trkpt lat="44.37813" lon="7.12625">
        <ele>2020</ele>
        <time>2022-07-18T16:47:59Z</time>
      </trkpt>
      <trkpt lat="44.37813" lon="7.12633">
        <ele>2018.6</ele>
        <time>2022-07-18T16:48:00Z</time>
      </trkpt>
      <trkpt lat="44.37814" lon="7.12648">
        <ele>2017.2</ele>
        <time>2022-07-18T16:48:01Z</time>
      </trkpt>
      <trkpt lat="44.37815" lon="7.12663">
        <ele>2016</ele>
        <time>2022-07-18T16:48:02Z</time>
      </trkpt>
      <trkpt lat="44.37816" lon="7.12686">
        <ele>2014.8</ele>
        <time>2022-07-18T16:48:03Z</time>
      </trkpt>
      <trkpt lat="44.37816" lon="7.12693">
        <ele>2013.6</ele>
        <time>2022-07-18T16:48:04Z</time>
      </trkpt>
      <trkpt lat="44.37817" lon="7.12716">
        <ele>2012.4</ele>
        <time>2022-07-18T16:48:05Z</time>
      </trkpt>
      <trkpt lat="44.37817" lon="7.12723">
        <ele>2011.2</ele>
        <time>2022-07-18T16:48:06Z</time>
      </trkpt>
      <trkpt lat="44.37817" lon="7.12745">
        <ele>2010.2</ele>
        <time>2022-07-18T16:48:07Z</time>
      </trkpt>
      <trkpt lat="44.37816" lon="7.12752">
        <ele>2009</ele>
        <time>2022-07-18T16:48:08Z</time>
      </trkpt>
      <trkpt lat="44.37816" lon="7.12767">
        <ele>2008</ele>
        <time>2022-07-18T16:48:09Z</time>
      </trkpt>
      <trkpt lat="44.37816" lon="7.1279">
        <ele>2006.8</ele>
        <time>2022-07-18T16:48:10Z</time>
      </trkpt>
      <trkpt lat="44.37816" lon="7.12798">
        <ele>2005.6</ele>
        <time>2022-07-18T16:48:11Z</time>
      </trkpt>
      <trkpt lat="44.37816" lon="7.12822">
        <ele>2004.8</ele>
        <time>2022-07-18T16:48:12Z</time>
      </trkpt>
      <trkpt lat="44.37816" lon="7.1283">
        <ele>2003.6</ele>
        <time>2022-07-18T16:48:13Z</time>
      </trkpt>
      <trkpt lat="44.37816" lon="7.12847">
        <ele>2002.6</ele>
        <time>2022-07-18T16:48:14Z</time>
      </trkpt>
      <trkpt lat="44.37814" lon="7.12863">
        <ele>2001.6</ele>
        <time>2022-07-18T16:48:15Z</time>
      </trkpt>
      <trkpt lat="44.37812" lon="7.1288">
        <ele>2000.4</ele>
        <time>2022-07-18T16:48:16Z</time>
      </trkpt>
      <trkpt lat="44.37809" lon="7.12898">
        <ele>1999.2</ele>
        <time>2022-07-18T16:48:17Z</time>
      </trkpt>
      <trkpt lat="44.37806" lon="7.12916">
        <ele>1997.8</ele>
        <time>2022-07-18T16:48:18Z</time>
      </trkpt>
      <trkpt lat="44.37802" lon="7.12943">
        <ele>1996.2</ele>
        <time>2022-07-18T16:48:19Z</time>
      </trkpt>
      <trkpt lat="44.378" lon="7.12952">
        <ele>1994.6</ele>
        <time>2022-07-18T16:48:20Z</time>
      </trkpt>
      <trkpt lat="44.37798" lon="7.1297">
        <ele>1993.2</ele>
        <time>2022-07-18T16:48:21Z</time>
      </trkpt>
      <trkpt lat="44.37794" lon="7.12996">
        <ele>1991.6</ele>
        <time>2022-07-18T16:48:22Z</time>
      </trkpt>
      <trkpt lat="44.37792" lon="7.13004">
        <ele>1990.4</ele>
        <time>2022-07-18T16:48:23Z</time>
      </trkpt>
      <trkpt lat="44.37788" lon="7.13029">
        <ele>1989.2</ele>
        <time>2022-07-18T16:48:24Z</time>
      </trkpt>
      <trkpt lat="44.37787" lon="7.13037">
        <ele>1988</ele>
        <time>2022-07-18T16:48:25Z</time>
      </trkpt>
      <trkpt lat="44.37783" lon="7.13053">
        <ele>1987</ele>
        <time>2022-07-18T16:48:26Z</time>
      </trkpt>
      <trkpt lat="44.37779" lon="7.13069">
        <ele>1985.8</ele>
        <time>2022-07-18T16:48:27Z</time>
      </trkpt>
      <trkpt lat="44.37771" lon="7.13091">
        <ele>1984.8</ele>
        <time>2022-07-18T16:48:28Z</time>
      </trkpt>
      <trkpt lat="44.37768" lon="7.13098">
        <ele>1983.8</ele>
        <time>2022-07-18T16:48:29Z</time>
      </trkpt>
      <trkpt lat="44.37763" lon="7.13114">
        <ele>1983</ele>
        <time>2022-07-18T16:48:30Z</time>
      </trkpt>
      <trkpt lat="44.37759" lon="7.1313">
        <ele>1982</ele>
        <time>2022-07-18T16:48:31Z</time>
      </trkpt>
      <trkpt lat="44.37757" lon="7.13145">
        <ele>1981.2</ele>
        <time>2022-07-18T16:48:32Z</time>
      </trkpt>
      <trkpt lat="44.37757" lon="7.13162">
        <ele>1980.2</ele>
        <time>2022-07-18T16:48:33Z</time>
      </trkpt>
      <trkpt lat="44.37758" lon="7.13188">
        <ele>1978.4</ele>
        <time>2022-07-18T16:48:34Z</time>
      </trkpt>
      <trkpt lat="44.37759" lon="7.13196">
        <ele>1977.6</ele>
        <time>2022-07-18T16:48:35Z</time>
      </trkpt>
      <trkpt lat="44.37761" lon="7.13222">
        <ele>1976.8</ele>
        <time>2022-07-18T16:48:36Z</time>
      </trkpt>
      <trkpt lat="44.37761" lon="7.1323">
        <ele>1976</ele>
        <time>2022-07-18T16:48:37Z</time>
      </trkpt>
      <trkpt lat="44.3776" lon="7.13246">
        <ele>1975.2</ele>
        <time>2022-07-18T16:48:38Z</time>
      </trkpt>
      <trkpt lat="44.37759" lon="7.1326">
        <ele>1974.6</ele>
        <time>2022-07-18T16:48:39Z</time>
      </trkpt>
      <trkpt lat="44.37758" lon="7.13275">
        <ele>1974</ele>
        <time>2022-07-18T16:48:40Z</time>
      </trkpt>
      <trkpt lat="44.37755" lon="7.13296">
        <ele>1973.2</ele>
        <time>2022-07-18T16:48:41Z</time>
      </trkpt>
      <trkpt lat="44.37754" lon="7.13303">
        <ele>1972.6</ele>
        <time>2022-07-18T16:48:42Z</time>
      </trkpt>
      <trkpt lat="44.37753" lon="7.13316">
        <ele>1971.8</ele>
        <time>2022-07-18T16:48:43Z</time>
      </trkpt>
      <trkpt lat="44.3775" lon="7.13329">
        <ele>1971.2</ele>
        <time>2022-07-18T16:48:44Z</time>
      </trkpt>
      <trkpt lat="44.37748" lon="7.13342">
        <ele>1970.6</ele>
        <time>2022-07-18T16:48:45Z</time>
      </trkpt>
      <trkpt lat="44.37744" lon="7.13362">
        <ele>1970.2</ele>
        <time>2022-07-18T16:48:46Z</time>
      </trkpt>
      <trkpt lat="44.37742" lon="7.13369">
        <ele>1969.6</ele>
        <time>2022-07-18T16:48:47Z</time>
      </trkpt>
      <trkpt lat="44.37738" lon="7.13382">
        <ele>1969</ele>
        <time>2022-07-18T16:48:48Z</time>
      </trkpt>
      <trkpt lat="44.37735" lon="7.13396">
        <ele>1968.6</ele>
        <time>2022-07-18T16:48:49Z</time>
      </trkpt>
      <trkpt lat="44.3773" lon="7.13414">
        <ele>1968.2</ele>
        <time>2022-07-18T16:48:50Z</time>
      </trkpt>
      <trkpt lat="44.37728" lon="7.1342">
        <ele>1967.6</ele>
        <time>2022-07-18T16:48:51Z</time>
      </trkpt>
      <trkpt lat="44.37726" lon="7.13431">
        <ele>1967.4</ele>
        <time>2022-07-18T16:48:52Z</time>
      </trkpt>
      <trkpt lat="44.37724" lon="7.13445">
        <ele>1967.4</ele>
        <time>2022-07-18T16:48:53Z</time>
      </trkpt>
      <trkpt lat="44.37724" lon="7.13449">
        <ele>1967.4</ele>
        <time>2022-07-18T16:48:54Z</time>
      </trkpt>
      <trkpt lat="44.37723" lon="7.13457">
        <ele>1967.4</ele>
        <time>2022-07-18T16:48:55Z</time>
      </trkpt>
      <trkpt lat="44.37723" lon="7.13463">
        <ele>1967.4</ele>
        <time>2022-07-18T16:48:56Z</time>
      </trkpt>
      <trkpt lat="44.37723" lon="7.13468">
        <ele>1967.2</ele>
        <time>2022-07-18T16:48:57Z</time>
      </trkpt>
      <trkpt lat="44.37724" lon="7.13473">
        <ele>1967</ele>
        <time>2022-07-18T16:48:58Z</time>
      </trkpt>
      <trkpt lat="44.37725" lon="7.13478">
        <ele>1967</ele>
        <time>2022-07-18T16:48:59Z</time>
      </trkpt>
      <trkpt lat="44.37726" lon="7.13483">
        <ele>1966.6</ele>
        <time>2022-07-18T16:49:00Z</time>
      </trkpt>
      <trkpt lat="44.37728" lon="7.1349">
        <ele>1966.4</ele>
        <time>2022-07-18T16:49:01Z</time>
      </trkpt>
      <trkpt lat="44.37729" lon="7.13496">
        <ele>1966</ele>
        <time>2022-07-18T16:49:02Z</time>
      </trkpt>
      <trkpt lat="44.3773" lon="7.13507">
        <ele>1965.8</ele>
        <time>2022-07-18T16:49:03Z</time>
      </trkpt>
      <trkpt lat="44.3773" lon="7.13511">
        <ele>1965.6</ele>
        <time>2022-07-18T16:49:04Z</time>
      </trkpt>
      <trkpt lat="44.37731" lon="7.13519">
        <ele>1965.4</ele>
        <time>2022-07-18T16:49:05Z</time>
      </trkpt>
      <trkpt lat="44.3773" lon="7.13528">
        <ele>1965.4</ele>
        <time>2022-07-18T16:49:06Z</time>
      </trkpt>
      <trkpt lat="44.37729" lon="7.13536">
        <ele>1964.8</ele>
        <time>2022-07-18T16:49:07Z</time>
      </trkpt>
      <trkpt lat="44.37728" lon="7.1355">
        <ele>1964.4</ele>
        <time>2022-07-18T16:49:08Z</time>
      </trkpt>
      <trkpt lat="44.37728" lon="7.13554">
        <ele>1964.2</ele>
        <time>2022-07-18T16:49:09Z</time>
      </trkpt>
      <trkpt lat="44.37727" lon="7.13564">
        <ele>1963.8</ele>
        <time>2022-07-18T16:49:10Z</time>
      </trkpt>
      <trkpt lat="44.37727" lon="7.13579">
        <ele>1963.6</ele>
        <time>2022-07-18T16:49:11Z</time>
      </trkpt>
      <trkpt lat="44.37727" lon="7.13584">
        <ele>1963.2</ele>
        <time>2022-07-18T16:49:12Z</time>
      </trkpt>
      <trkpt lat="44.37728" lon="7.13595">
        <ele>1962.8</ele>
        <time>2022-07-18T16:49:13Z</time>
      </trkpt>
      <trkpt lat="44.3773" lon="7.13611">
        <ele>1962.6</ele>
        <time>2022-07-18T16:49:14Z</time>
      </trkpt>
      <trkpt lat="44.3773" lon="7.13616">
        <ele>1962.2</ele>
        <time>2022-07-18T16:49:15Z</time>
      </trkpt>
      <trkpt lat="44.3773" lon="7.13627">
        <ele>1961.8</ele>
        <time>2022-07-18T16:49:16Z</time>
      </trkpt>
      <trkpt lat="44.37727" lon="7.13638">
        <ele>1961.2</ele>
        <time>2022-07-18T16:49:17Z</time>
      </trkpt>
      <trkpt lat="44.37724" lon="7.13648">
        <ele>1960.8</ele>
        <time>2022-07-18T16:49:18Z</time>
      </trkpt>
      <trkpt lat="44.3772" lon="7.13658">
        <ele>1960.4</ele>
        <time>2022-07-18T16:49:19Z</time>
      </trkpt>
      <trkpt lat="44.37716" lon="7.13668">
        <ele>1960</ele>
        <time>2022-07-18T16:49:20Z</time>
      </trkpt>
      <trkpt lat="44.37709" lon="7.13684">
        <ele>1959.6</ele>
        <time>2022-07-18T16:49:21Z</time>
      </trkpt>
      <trkpt lat="44.37707" lon="7.13689">
        <ele>1959.2</ele>
        <time>2022-07-18T16:49:22Z</time>
      </trkpt>
      <trkpt lat="44.377" lon="7.13705">
        <ele>1959</ele>
        <time>2022-07-18T16:49:23Z</time>
      </trkpt>
      <trkpt lat="44.37698" lon="7.1371">
        <ele>1958.4</ele>
        <time>2022-07-18T16:49:24Z</time>
      </trkpt>
      <trkpt lat="44.37693" lon="7.13727">
        <ele>1957.8</ele>
        <time>2022-07-18T16:49:25Z</time>
      </trkpt>
      <trkpt lat="44.37691" lon="7.13733">
        <ele>1957.4</ele>
        <time>2022-07-18T16:49:26Z</time>
      </trkpt>
      <trkpt lat="44.37689" lon="7.13744">
        <ele>1956.8</ele>
        <time>2022-07-18T16:49:27Z</time>
      </trkpt>
      <trkpt lat="44.37688" lon="7.13756">
        <ele>1956.2</ele>
        <time>2022-07-18T16:49:28Z</time>
      </trkpt>
      <trkpt lat="44.37685" lon="7.13773">
        <ele>1955.4</ele>
        <time>2022-07-18T16:49:29Z</time>
      </trkpt>
      <trkpt lat="44.37683" lon="7.13779">
        <ele>1954.6</ele>
        <time>2022-07-18T16:49:30Z</time>
      </trkpt>
      <trkpt lat="44.3768" lon="7.1379">
        <ele>1953.8</ele>
        <time>2022-07-18T16:49:31Z</time>
      </trkpt>
      <trkpt lat="44.37671" lon="7.13806">
        <ele>1952.6</ele>
        <time>2022-07-18T16:49:32Z</time>
      </trkpt>
      <trkpt lat="44.37668" lon="7.13812">
        <ele>1951.6</ele>
        <time>2022-07-18T16:49:33Z</time>
      </trkpt>
      <trkpt lat="44.37662" lon="7.13823">
        <ele>1950.6</ele>
        <time>2022-07-18T16:49:34Z</time>
      </trkpt>
      <trkpt lat="44.37655" lon="7.13835">
        <ele>1949.4</ele>
        <time>2022-07-18T16:49:35Z</time>
      </trkpt>
      <trkpt lat="44.37648" lon="7.13846">
        <ele>1948.2</ele>
        <time>2022-07-18T16:49:36Z</time>
      </trkpt>
      <trkpt lat="44.37637" lon="7.13862">
        <ele>1947</ele>
        <time>2022-07-18T16:49:37Z</time>
      </trkpt>
      <trkpt lat="44.37633" lon="7.13868">
        <ele>1945.8</ele>
        <time>2022-07-18T16:49:38Z</time>
      </trkpt>
      <trkpt lat="44.37626" lon="7.13878">
        <ele>1944.6</ele>
        <time>2022-07-18T16:49:39Z</time>
      </trkpt>
      <trkpt lat="44.3762" lon="7.13889">
        <ele>1943.2</ele>
        <time>2022-07-18T16:49:40Z</time>
      </trkpt>
      <trkpt lat="44.37613" lon="7.13898">
        <ele>1942</ele>
        <time>2022-07-18T16:49:41Z</time>
      </trkpt>
      <trkpt lat="44.37608" lon="7.13906">
        <ele>1940.8</ele>
        <time>2022-07-18T16:49:42Z</time>
      </trkpt>
      <trkpt lat="44.37603" lon="7.13913">
        <ele>1939.8</ele>
        <time>2022-07-18T16:49:43Z</time>
      </trkpt>
      <trkpt lat="44.37594" lon="7.13919">
        <ele>1938.8</ele>
        <time>2022-07-18T16:49:44Z</time>
      </trkpt>
      <trkpt lat="44.37591" lon="7.1392">
        <ele>1937.8</ele>
        <time>2022-07-18T16:49:45Z</time>
      </trkpt>
      <trkpt lat="44.37585" lon="7.13921">
        <ele>1936.8</ele>
        <time>2022-07-18T16:49:46Z</time>
      </trkpt>
      <trkpt lat="44.37578" lon="7.13919">
        <ele>1935.8</ele>
        <time>2022-07-18T16:49:47Z</time>
      </trkpt>
      <trkpt lat="44.37568" lon="7.13913">
        <ele>1934.8</ele>
        <time>2022-07-18T16:49:48Z</time>
      </trkpt>
      <trkpt lat="44.37565" lon="7.13911">
        <ele>1933.8</ele>
        <time>2022-07-18T16:49:49Z</time>
      </trkpt>
      <trkpt lat="44.37558" lon="7.13905">
        <ele>1933</ele>
        <time>2022-07-18T16:49:50Z</time>
      </trkpt>
      <trkpt lat="44.37556" lon="7.13903">
        <ele>1932.2</ele>
        <time>2022-07-18T16:49:51Z</time>
      </trkpt>
      <trkpt lat="44.37554" lon="7.13903">
        <ele>1931.4</ele>
        <time>2022-07-18T16:49:52Z</time>
      </trkpt>
      <trkpt lat="44.37551" lon="7.13908">
        <ele>1930.6</ele>
        <time>2022-07-18T16:49:53Z</time>
      </trkpt>
      <trkpt lat="44.37551" lon="7.13915">
        <ele>1929.8</ele>
        <time>2022-07-18T16:49:54Z</time>
      </trkpt>
      <trkpt lat="44.37554" lon="7.13927">
        <ele>1929.2</ele>
        <time>2022-07-18T16:49:55Z</time>
      </trkpt>
      <trkpt lat="44.37556" lon="7.13931">
        <ele>1928.4</ele>
        <time>2022-07-18T16:49:56Z</time>
      </trkpt>
      <trkpt lat="44.37561" lon="7.13939">
        <ele>1927.4</ele>
        <time>2022-07-18T16:49:57Z</time>
      </trkpt>
      <trkpt lat="44.37565" lon="7.13949">
        <ele>1926.4</ele>
        <time>2022-07-18T16:49:58Z</time>
      </trkpt>
      <trkpt lat="44.37571" lon="7.13965">
        <ele>1925.4</ele>
        <time>2022-07-18T16:49:59Z</time>
      </trkpt>
      <trkpt lat="44.37573" lon="7.13971">
        <ele>1924.2</ele>
        <time>2022-07-18T16:50:00Z</time>
      </trkpt>
      <trkpt lat="44.37577" lon="7.13984">
        <ele>1923</ele>
        <time>2022-07-18T16:50:01Z</time>
      </trkpt>
      <trkpt lat="44.37581" lon="7.14002">
        <ele>1922</ele>
        <time>2022-07-18T16:50:02Z</time>
      </trkpt>
      <trkpt lat="44.37583" lon="7.14007">
        <ele>1920.8</ele>
        <time>2022-07-18T16:50:03Z</time>
      </trkpt>
      <trkpt lat="44.37587" lon="7.14018">
        <ele>1919.8</ele>
        <time>2022-07-18T16:50:04Z</time>
      </trkpt>
      <trkpt lat="44.37588" lon="7.14029">
        <ele>1918.6</ele>
        <time>2022-07-18T16:50:05Z</time>
      </trkpt>
      <trkpt lat="44.37587" lon="7.14041">
        <ele>1917.6</ele>
        <time>2022-07-18T16:50:06Z</time>
      </trkpt>
      <trkpt lat="44.37584" lon="7.14059">
        <ele>1916.4</ele>
        <time>2022-07-18T16:50:07Z</time>
      </trkpt>
      <trkpt lat="44.37583" lon="7.14066">
        <ele>1915.4</ele>
        <time>2022-07-18T16:50:08Z</time>
      </trkpt>
      <trkpt lat="44.3758" lon="7.14084">
        <ele>1914.4</ele>
        <time>2022-07-18T16:50:09Z</time>
      </trkpt>
      <trkpt lat="44.37579" lon="7.1409">
        <ele>1913.4</ele>
        <time>2022-07-18T16:50:10Z</time>
      </trkpt>
      <trkpt lat="44.37577" lon="7.14101">
        <ele>1912.4</ele>
        <time>2022-07-18T16:50:11Z</time>
      </trkpt>
      <trkpt lat="44.37576" lon="7.14118">
        <ele>1911.4</ele>
        <time>2022-07-18T16:50:12Z</time>
      </trkpt>
      <trkpt lat="44.37575" lon="7.14123">
        <ele>1910.4</ele>
        <time>2022-07-18T16:50:13Z</time>
      </trkpt>
      <trkpt lat="44.37575" lon="7.14133">
        <ele>1909.4</ele>
        <time>2022-07-18T16:50:14Z</time>
      </trkpt>
      <trkpt lat="44.37572" lon="7.14143">
        <ele>1908.4</ele>
        <time>2022-07-18T16:50:15Z</time>
      </trkpt>
      <trkpt lat="44.37565" lon="7.14157">
        <ele>1907.4</ele>
        <time>2022-07-18T16:50:16Z</time>
      </trkpt>
      <trkpt lat="44.37562" lon="7.14162">
        <ele>1906.4</ele>
        <time>2022-07-18T16:50:17Z</time>
      </trkpt>
      <trkpt lat="44.37555" lon="7.14175">
        <ele>1905.4</ele>
        <time>2022-07-18T16:50:18Z</time>
      </trkpt>
      <trkpt lat="44.37552" lon="7.14179">
        <ele>1904.6</ele>
        <time>2022-07-18T16:50:19Z</time>
      </trkpt>
      <trkpt lat="44.37548" lon="7.14188">
        <ele>1903.6</ele>
        <time>2022-07-18T16:50:20Z</time>
      </trkpt>
      <trkpt lat="44.37544" lon="7.14198">
        <ele>1902.8</ele>
        <time>2022-07-18T16:50:21Z</time>
      </trkpt>
      <trkpt lat="44.37541" lon="7.14209">
        <ele>1901.8</ele>
        <time>2022-07-18T16:50:22Z</time>
      </trkpt>
      <trkpt lat="44.37538" lon="7.14221">
        <ele>1901</ele>
        <time>2022-07-18T16:50:23Z</time>
      </trkpt>
      <trkpt lat="44.37533" lon="7.14239">
        <ele>1900</ele>
        <time>2022-07-18T16:50:24Z</time>
      </trkpt>
      <trkpt lat="44.37531" lon="7.14245">
        <ele>1899</ele>
        <time>2022-07-18T16:50:25Z</time>
      </trkpt>
      <trkpt lat="44.37525" lon="7.14261">
        <ele>1898</ele>
        <time>2022-07-18T16:50:26Z</time>
      </trkpt>
      <trkpt lat="44.37523" lon="7.14266">
        <ele>1897</ele>
        <time>2022-07-18T16:50:27Z</time>
      </trkpt>
      <trkpt lat="44.37518" lon="7.14275">
        <ele>1896</ele>
        <time>2022-07-18T16:50:28Z</time>
      </trkpt>
      <trkpt lat="44.37513" lon="7.14284">
        <ele>1895.2</ele>
        <time>2022-07-18T16:50:29Z</time>
      </trkpt>
      <trkpt lat="44.37509" lon="7.14293">
        <ele>1894.2</ele>
        <time>2022-07-18T16:50:30Z</time>
      </trkpt>
      <trkpt lat="44.37506" lon="7.14303">
        <ele>1893.2</ele>
        <time>2022-07-18T16:50:31Z</time>
      </trkpt>
      <trkpt lat="44.37504" lon="7.14315">
        <ele>1892.2</ele>
        <time>2022-07-18T16:50:32Z</time>
      </trkpt>
      <trkpt lat="44.37501" lon="7.14326">
        <ele>1891.4</ele>
        <time>2022-07-18T16:50:33Z</time>
      </trkpt>
      <trkpt lat="44.37497" lon="7.14343">
        <ele>1890.6</ele>
        <time>2022-07-18T16:50:34Z</time>
      </trkpt>
      <trkpt lat="44.37495" lon="7.14349">
        <ele>1889.6</ele>
        <time>2022-07-18T16:50:35Z</time>
      </trkpt>
      <trkpt lat="44.37493" lon="7.14361">
        <ele>1888.6</ele>
        <time>2022-07-18T16:50:36Z</time>
      </trkpt>
      <trkpt lat="44.37491" lon="7.14374">
        <ele>1887.6</ele>
        <time>2022-07-18T16:50:37Z</time>
      </trkpt>
      <trkpt lat="44.37488" lon="7.14393">
        <ele>1886.6</ele>
        <time>2022-07-18T16:50:38Z</time>
      </trkpt>
      <trkpt lat="44.37487" lon="7.144">
        <ele>1885.6</ele>
        <time>2022-07-18T16:50:39Z</time>
      </trkpt>
      <trkpt lat="44.37484" lon="7.14412">
        <ele>1884.6</ele>
        <time>2022-07-18T16:50:40Z</time>
      </trkpt>
      <trkpt lat="44.37478" lon="7.14427">
        <ele>1883.6</ele>
        <time>2022-07-18T16:50:41Z</time>
      </trkpt>
      <trkpt lat="44.37476" lon="7.14432">
        <ele>1882.8</ele>
        <time>2022-07-18T16:50:42Z</time>
      </trkpt>
      <trkpt lat="44.37471" lon="7.14441">
        <ele>1881.8</ele>
        <time>2022-07-18T16:50:43Z</time>
      </trkpt>
      <trkpt lat="44.37465" lon="7.1445">
        <ele>1881</ele>
        <time>2022-07-18T16:50:44Z</time>
      </trkpt>
      <trkpt lat="44.3746" lon="7.14458">
        <ele>1880.2</ele>
        <time>2022-07-18T16:50:45Z</time>
      </trkpt>
      <trkpt lat="44.37454" lon="7.14471">
        <ele>1879.4</ele>
        <time>2022-07-18T16:50:46Z</time>
      </trkpt>
      <trkpt lat="44.37452" lon="7.14476">
        <ele>1878.6</ele>
        <time>2022-07-18T16:50:47Z</time>
      </trkpt>
      <trkpt lat="44.3745" lon="7.14485">
        <ele>1877.8</ele>
        <time>2022-07-18T16:50:48Z</time>
      </trkpt>
      <trkpt lat="44.37449" lon="7.14495">
        <ele>1877.2</ele>
        <time>2022-07-18T16:50:49Z</time>
      </trkpt>
      <trkpt lat="44.37449" lon="7.14505">
        <ele>1876.4</ele>
        <time>2022-07-18T16:50:50Z</time>
      </trkpt>
      <trkpt lat="44.3745" lon="7.14517">
        <ele>1875.6</ele>
        <time>2022-07-18T16:50:51Z</time>
      </trkpt>
      <trkpt lat="44.37451" lon="7.14534">
        <ele>1874.8</ele>
        <time>2022-07-18T16:50:52Z</time>
      </trkpt>
      <trkpt lat="44.37451" lon="7.1454">
        <ele>1874.2</ele>
        <time>2022-07-18T16:50:53Z</time>
      </trkpt>
      <trkpt lat="44.37452" lon="7.14552">
        <ele>1873.4</ele>
        <time>2022-07-18T16:50:54Z</time>
      </trkpt>
      <trkpt lat="44.3745" lon="7.14562">
        <ele>1872.6</ele>
        <time>2022-07-18T16:50:55Z</time>
      </trkpt>
      <trkpt lat="44.37448" lon="7.14573">
        <ele>1871.8</ele>
        <time>2022-07-18T16:50:56Z</time>
      </trkpt>
      <trkpt lat="44.37445" lon="7.14582">
        <ele>1871.2</ele>
        <time>2022-07-18T16:50:57Z</time>
      </trkpt>
      <trkpt lat="44.37438" lon="7.14596">
        <ele>1870.6</ele>
        <time>2022-07-18T16:50:58Z</time>
      </trkpt>
      <trkpt lat="44.37436" lon="7.146">
        <ele>1869.8</ele>
        <time>2022-07-18T16:50:59Z</time>
      </trkpt>
      <trkpt lat="44.37431" lon="7.14608">
        <ele>1869</ele>
        <time>2022-07-18T16:51:00Z</time>
      </trkpt>
      <trkpt lat="44.37425" lon="7.14615">
        <ele>1868.4</ele>
        <time>2022-07-18T16:51:01Z</time>
      </trkpt>
      <trkpt lat="44.37416" lon="7.14626">
        <ele>1867.6</ele>
        <time>2022-07-18T16:51:02Z</time>
      </trkpt>
      <trkpt lat="44.37413" lon="7.1463">
        <ele>1866.8</ele>
        <time>2022-07-18T16:51:03Z</time>
      </trkpt>
      <trkpt lat="44.37406" lon="7.14642">
        <ele>1866</ele>
        <time>2022-07-18T16:51:04Z</time>
      </trkpt>
      <trkpt lat="44.37403" lon="7.14647">
        <ele>1865.2</ele>
        <time>2022-07-18T16:51:05Z</time>
      </trkpt>
      <trkpt lat="44.37399" lon="7.14657">
        <ele>1864.4</ele>
        <time>2022-07-18T16:51:06Z</time>
      </trkpt>
      <trkpt lat="44.37394" lon="7.14674">
        <ele>1863.6</ele>
        <time>2022-07-18T16:51:07Z</time>
      </trkpt>
      <trkpt lat="44.37392" lon="7.1468">
        <ele>1862.8</ele>
        <time>2022-07-18T16:51:08Z</time>
      </trkpt>
      <trkpt lat="44.3739" lon="7.14692">
        <ele>1862</ele>
        <time>2022-07-18T16:51:09Z</time>
      </trkpt>
      <trkpt lat="44.37387" lon="7.14705">
        <ele>1861.2</ele>
        <time>2022-07-18T16:51:10Z</time>
      </trkpt>
      <trkpt lat="44.37385" lon="7.14719">
        <ele>1860.6</ele>
        <time>2022-07-18T16:51:11Z</time>
      </trkpt>
      <trkpt lat="44.37383" lon="7.14732">
        <ele>1859.8</ele>
        <time>2022-07-18T16:51:12Z</time>
      </trkpt>
      <trkpt lat="44.37381" lon="7.14745">
        <ele>1859</ele>
        <time>2022-07-18T16:51:13Z</time>
      </trkpt>
      <trkpt lat="44.37379" lon="7.14755">
        <ele>1858.2</ele>
        <time>2022-07-18T16:51:14Z</time>
      </trkpt>
      <trkpt lat="44.37378" lon="7.14765">
        <ele>1857.6</ele>
        <time>2022-07-18T16:51:15Z</time>
      </trkpt>
      <trkpt lat="44.37379" lon="7.14776">
        <ele>1856.8</ele>
        <time>2022-07-18T16:51:16Z</time>
      </trkpt>
      <trkpt lat="44.37382" lon="7.14786">
        <ele>1856.2</ele>
        <time>2022-07-18T16:51:17Z</time>
      </trkpt>
      <trkpt lat="44.37383" lon="7.14796">
        <ele>1855.4</ele>
        <time>2022-07-18T16:51:18Z</time>
      </trkpt>
      <trkpt lat="44.37383" lon="7.14806">
        <ele>1854.8</ele>
        <time>2022-07-18T16:51:19Z</time>
      </trkpt>
      <trkpt lat="44.37381" lon="7.14817">
        <ele>1854</ele>
        <time>2022-07-18T16:51:20Z</time>
      </trkpt>
      <trkpt lat="44.37377" lon="7.14827">
        <ele>1853.2</ele>
        <time>2022-07-18T16:51:21Z</time>
      </trkpt>
      <trkpt lat="44.37373" lon="7.14838">
        <ele>1852.6</ele>
        <time>2022-07-18T16:51:22Z</time>
      </trkpt>
      <trkpt lat="44.37368" lon="7.14853">
        <ele>1851.8</ele>
        <time>2022-07-18T16:51:23Z</time>
      </trkpt>
      <trkpt lat="44.37366" lon="7.14858">
        <ele>1851.2</ele>
        <time>2022-07-18T16:51:24Z</time>
      </trkpt>
      <trkpt lat="44.37362" lon="7.14867">
        <ele>1850.6</ele>
        <time>2022-07-18T16:51:25Z</time>
      </trkpt>
      <trkpt lat="44.37358" lon="7.14875">
        <ele>1849.8</ele>
        <time>2022-07-18T16:51:26Z</time>
      </trkpt>
      <trkpt lat="44.37352" lon="7.14881">
        <ele>1849.2</ele>
        <time>2022-07-18T16:51:27Z</time>
      </trkpt>
      <trkpt lat="44.37342" lon="7.14886">
        <ele>1848.6</ele>
        <time>2022-07-18T16:51:28Z</time>
      </trkpt>
      <trkpt lat="44.37338" lon="7.14888">
        <ele>1848</ele>
        <time>2022-07-18T16:51:29Z</time>
      </trkpt>
      <trkpt lat="44.37331" lon="7.14891">
        <ele>1847.4</ele>
        <time>2022-07-18T16:51:30Z</time>
      </trkpt>
      <trkpt lat="44.3732" lon="7.14897">
        <ele>1846.8</ele>
        <time>2022-07-18T16:51:31Z</time>
      </trkpt>
      <trkpt lat="44.37316" lon="7.149">
        <ele>1846.2</ele>
        <time>2022-07-18T16:51:32Z</time>
      </trkpt>
      <trkpt lat="44.37306" lon="7.14908">
        <ele>1845.4</ele>
        <time>2022-07-18T16:51:33Z</time>
      </trkpt>
      <trkpt lat="44.37302" lon="7.14911">
        <ele>1844.8</ele>
        <time>2022-07-18T16:51:34Z</time>
      </trkpt>
      <trkpt lat="44.37296" lon="7.14919">
        <ele>1844</ele>
        <time>2022-07-18T16:51:35Z</time>
      </trkpt>
      <trkpt lat="44.37289" lon="7.14927">
        <ele>1843.2</ele>
        <time>2022-07-18T16:51:36Z</time>
      </trkpt>
      <trkpt lat="44.37283" lon="7.14935">
        <ele>1842.4</ele>
        <time>2022-07-18T16:51:37Z</time>
      </trkpt>
      <trkpt lat="44.37275" lon="7.14943">
        <ele>1841.8</ele>
        <time>2022-07-18T16:51:38Z</time>
      </trkpt>
      <trkpt lat="44.37268" lon="7.14951">
        <ele>1841.2</ele>
        <time>2022-07-18T16:51:39Z</time>
      </trkpt>
      <trkpt lat="44.37259" lon="7.14963">
        <ele>1840.4</ele>
        <time>2022-07-18T16:51:40Z</time>
      </trkpt>
      <trkpt lat="44.37256" lon="7.14968">
        <ele>1839.8</ele>
        <time>2022-07-18T16:51:41Z</time>
      </trkpt>
      <trkpt lat="44.3725" lon="7.14976">
        <ele>1839.2</ele>
        <time>2022-07-18T16:51:42Z</time>
      </trkpt>
      <trkpt lat="44.37245" lon="7.14984">
        <ele>1838.4</ele>
        <time>2022-07-18T16:51:43Z</time>
      </trkpt>
      <trkpt lat="44.3724" lon="7.14993">
        <ele>1838</ele>
        <time>2022-07-18T16:51:44Z</time>
      </trkpt>
      <trkpt lat="44.37236" lon="7.15001">
        <ele>1837.4</ele>
        <time>2022-07-18T16:51:45Z</time>
      </trkpt>
      <trkpt lat="44.37229" lon="7.1501">
        <ele>1837</ele>
        <time>2022-07-18T16:51:46Z</time>
      </trkpt>
      <trkpt lat="44.37227" lon="7.15011">
        <ele>1836.4</ele>
        <time>2022-07-18T16:51:47Z</time>
      </trkpt>
      <trkpt lat="44.37219" lon="7.15014">
        <ele>1835.8</ele>
        <time>2022-07-18T16:51:48Z</time>
      </trkpt>
      <trkpt lat="44.37216" lon="7.15013">
        <ele>1835.2</ele>
        <time>2022-07-18T16:51:49Z</time>
      </trkpt>
      <trkpt lat="44.37211" lon="7.15012">
        <ele>1834.6</ele>
        <time>2022-07-18T16:51:50Z</time>
      </trkpt>
      <trkpt lat="44.37205" lon="7.15002">
        <ele>1834</ele>
        <time>2022-07-18T16:51:51Z</time>
      </trkpt>
      <trkpt lat="44.37204" lon="7.14998">
        <ele>1833.4</ele>
        <time>2022-07-18T16:51:52Z</time>
      </trkpt>
      <trkpt lat="44.37203" lon="7.14989">
        <ele>1833</ele>
        <time>2022-07-18T16:51:53Z</time>
      </trkpt>
      <trkpt lat="44.37203" lon="7.1498">
        <ele>1832.6</ele>
        <time>2022-07-18T16:51:54Z</time>
      </trkpt>
      <trkpt lat="44.37208" lon="7.14968">
        <ele>1832</ele>
        <time>2022-07-18T16:51:55Z</time>
      </trkpt>
      <trkpt lat="44.3721" lon="7.14964">
        <ele>1831.6</ele>
        <time>2022-07-18T16:51:56Z</time>
      </trkpt>
      <trkpt lat="44.37214" lon="7.14952">
        <ele>1831.2</ele>
        <time>2022-07-18T16:51:57Z</time>
      </trkpt>
      <trkpt lat="44.37215" lon="7.14949">
        <ele>1830.6</ele>
        <time>2022-07-18T16:51:58Z</time>
      </trkpt>
      <trkpt lat="44.37215" lon="7.14941">
        <ele>1830.2</ele>
        <time>2022-07-18T16:51:59Z</time>
      </trkpt>
      <trkpt lat="44.37209" lon="7.14932">
        <ele>1829.6</ele>
        <time>2022-07-18T16:52:00Z</time>
      </trkpt>
      <trkpt lat="44.37206" lon="7.1493">
        <ele>1829</ele>
        <time>2022-07-18T16:52:01Z</time>
      </trkpt>
      <trkpt lat="44.37201" lon="7.14926">
        <ele>1828.4</ele>
        <time>2022-07-18T16:52:02Z</time>
      </trkpt>
      <trkpt lat="44.37191" lon="7.14929">
        <ele>1828</ele>
        <time>2022-07-18T16:52:03Z</time>
      </trkpt>
      <trkpt lat="44.37188" lon="7.14931">
        <ele>1828</ele>
        <time>2022-07-18T16:52:04Z</time>
      </trkpt>
      <trkpt lat="44.37178" lon="7.14937">
        <ele>1827.6</ele>
        <time>2022-07-18T16:52:05Z</time>
      </trkpt>
      <trkpt lat="44.37174" lon="7.1494">
        <ele>1827</ele>
        <time>2022-07-18T16:52:06Z</time>
      </trkpt>
      <trkpt lat="44.37168" lon="7.14945">
        <ele>1826.4</ele>
        <time>2022-07-18T16:52:07Z</time>
      </trkpt>
      <trkpt lat="44.37157" lon="7.14952">
        <ele>1826</ele>
        <time>2022-07-18T16:52:08Z</time>
      </trkpt>
      <trkpt lat="44.37154" lon="7.14955">
        <ele>1825.6</ele>
        <time>2022-07-18T16:52:09Z</time>
      </trkpt>
      <trkpt lat="44.37147" lon="7.14961">
        <ele>1825.2</ele>
        <time>2022-07-18T16:52:10Z</time>
      </trkpt>
      <trkpt lat="44.37142" lon="7.14969">
        <ele>1825</ele>
        <time>2022-07-18T16:52:11Z</time>
      </trkpt>
      <trkpt lat="44.37136" lon="7.14982">
        <ele>1824.6</ele>
        <time>2022-07-18T16:52:12Z</time>
      </trkpt>
      <trkpt lat="44.37134" lon="7.14987">
        <ele>1824.2</ele>
        <time>2022-07-18T16:52:13Z</time>
      </trkpt>
      <trkpt lat="44.37132" lon="7.14996">
        <ele>1823.8</ele>
        <time>2022-07-18T16:52:14Z</time>
      </trkpt>
      <trkpt lat="44.37131" lon="7.15007">
        <ele>1823.2</ele>
        <time>2022-07-18T16:52:15Z</time>
      </trkpt>
      <trkpt lat="44.3713" lon="7.15018">
        <ele>1822.6</ele>
        <time>2022-07-18T16:52:16Z</time>
      </trkpt>
      <trkpt lat="44.3713" lon="7.15029">
        <ele>1821.8</ele>
        <time>2022-07-18T16:52:17Z</time>
      </trkpt>
      <trkpt lat="44.37129" lon="7.1504">
        <ele>1821.2</ele>
        <time>2022-07-18T16:52:18Z</time>
      </trkpt>
      <trkpt lat="44.3713" lon="7.1505">
        <ele>1820.4</ele>
        <time>2022-07-18T16:52:19Z</time>
      </trkpt>
      <trkpt lat="44.37134" lon="7.15063">
        <ele>1819.6</ele>
        <time>2022-07-18T16:52:20Z</time>
      </trkpt>
      <trkpt lat="44.37136" lon="7.15067">
        <ele>1818.8</ele>
        <time>2022-07-18T16:52:21Z</time>
      </trkpt>
      <trkpt lat="44.3714" lon="7.15075">
        <ele>1818</ele>
        <time>2022-07-18T16:52:22Z</time>
      </trkpt>
      <trkpt lat="44.37143" lon="7.15082">
        <ele>1817.2</ele>
        <time>2022-07-18T16:52:23Z</time>
      </trkpt>
      <trkpt lat="44.37145" lon="7.15089">
        <ele>1816.4</ele>
        <time>2022-07-18T16:52:24Z</time>
      </trkpt>
      <trkpt lat="44.37145" lon="7.15096">
        <ele>1815.8</ele>
        <time>2022-07-18T16:52:25Z</time>
      </trkpt>
      <trkpt lat="44.3714" lon="7.15101">
        <ele>1815.2</ele>
        <time>2022-07-18T16:52:26Z</time>
      </trkpt>
      <trkpt lat="44.37138" lon="7.15102">
        <ele>1814.4</ele>
        <time>2022-07-18T16:52:27Z</time>
      </trkpt>
      <trkpt lat="44.37133" lon="7.151">
        <ele>1813.8</ele>
        <time>2022-07-18T16:52:28Z</time>
      </trkpt>
      <trkpt lat="44.37128" lon="7.15097">
        <ele>1813.4</ele>
        <time>2022-07-18T16:52:29Z</time>
      </trkpt>
      <trkpt lat="44.37122" lon="7.15093">
        <ele>1812.6</ele>
        <time>2022-07-18T16:52:30Z</time>
      </trkpt>
      <trkpt lat="44.37119" lon="7.15092">
        <ele>1812.2</ele>
        <time>2022-07-18T16:52:31Z</time>
      </trkpt>
      <trkpt lat="44.37115" lon="7.15094">
        <ele>1811.4</ele>
        <time>2022-07-18T16:52:32Z</time>
      </trkpt>
      <trkpt lat="44.3711" lon="7.15098">
        <ele>1810.8</ele>
        <time>2022-07-18T16:52:33Z</time>
      </trkpt>
      <trkpt lat="44.37104" lon="7.15105">
        <ele>1810</ele>
        <time>2022-07-18T16:52:34Z</time>
      </trkpt>
      <trkpt lat="44.37096" lon="7.15118">
        <ele>1809.4</ele>
        <time>2022-07-18T16:52:35Z</time>
      </trkpt>
      <trkpt lat="44.37093" lon="7.15122">
        <ele>1808.6</ele>
        <time>2022-07-18T16:52:36Z</time>
      </trkpt>
      <trkpt lat="44.37085" lon="7.15136">
        <ele>1807.8</ele>
        <time>2022-07-18T16:52:37Z</time>
      </trkpt>
      <trkpt lat="44.37083" lon="7.1514">
        <ele>1807</ele>
        <time>2022-07-18T16:52:38Z</time>
      </trkpt>
      <trkpt lat="44.37078" lon="7.15149">
        <ele>1806</ele>
        <time>2022-07-18T16:52:39Z</time>
      </trkpt>
      <trkpt lat="44.37073" lon="7.15157">
        <ele>1805.4</ele>
        <time>2022-07-18T16:52:40Z</time>
      </trkpt>
      <trkpt lat="44.37064" lon="7.15166">
        <ele>1804.6</ele>
        <time>2022-07-18T16:52:41Z</time>
      </trkpt>
      <trkpt lat="44.37061" lon="7.15168">
        <ele>1804</ele>
        <time>2022-07-18T16:52:42Z</time>
      </trkpt>
      <trkpt lat="44.37055" lon="7.15172">
        <ele>1803.2</ele>
        <time>2022-07-18T16:52:43Z</time>
      </trkpt>
      <trkpt lat="44.37046" lon="7.15174">
        <ele>1802.6</ele>
        <time>2022-07-18T16:52:44Z</time>
      </trkpt>
      <trkpt lat="44.37043" lon="7.15175">
        <ele>1801.8</ele>
        <time>2022-07-18T16:52:45Z</time>
      </trkpt>
      <trkpt lat="44.37036" lon="7.15177">
        <ele>1801.2</ele>
        <time>2022-07-18T16:52:46Z</time>
      </trkpt>
      <trkpt lat="44.37028" lon="7.15184">
        <ele>1800.6</ele>
        <time>2022-07-18T16:52:47Z</time>
      </trkpt>
      <trkpt lat="44.37025" lon="7.15188">
        <ele>1800</ele>
        <time>2022-07-18T16:52:48Z</time>
      </trkpt>
      <trkpt lat="44.3702" lon="7.15196">
        <ele>1799.4</ele>
        <time>2022-07-18T16:52:49Z</time>
      </trkpt>
      <trkpt lat="44.37011" lon="7.15207">
        <ele>1798.6</ele>
        <time>2022-07-18T16:52:50Z</time>
      </trkpt>
      <trkpt lat="44.37008" lon="7.15211">
        <ele>1798</ele>
        <time>2022-07-18T16:52:51Z</time>
      </trkpt>
      <trkpt lat="44.37002" lon="7.15218">
        <ele>1797.2</ele>
        <time>2022-07-18T16:52:52Z</time>
      </trkpt>
      <trkpt lat="44.36996" lon="7.15225">
        <ele>1796.4</ele>
        <time>2022-07-18T16:52:53Z</time>
      </trkpt>
      <trkpt lat="44.36988" lon="7.15237">
        <ele>1795.6</ele>
        <time>2022-07-18T16:52:54Z</time>
      </trkpt>
      <trkpt lat="44.36986" lon="7.15242">
        <ele>1794.8</ele>
        <time>2022-07-18T16:52:55Z</time>
      </trkpt>
      <trkpt lat="44.3698" lon="7.15255">
        <ele>1794.2</ele>
        <time>2022-07-18T16:52:56Z</time>
      </trkpt>
      <trkpt lat="44.36978" lon="7.1526">
        <ele>1793.6</ele>
        <time>2022-07-18T16:52:57Z</time>
      </trkpt>
      <trkpt lat="44.36974" lon="7.15267">
        <ele>1793.2</ele>
        <time>2022-07-18T16:52:58Z</time>
      </trkpt>
      <trkpt lat="44.36965" lon="7.15272">
        <ele>1792.6</ele>
        <time>2022-07-18T16:52:59Z</time>
      </trkpt>
      <trkpt lat="44.36962" lon="7.15272">
        <ele>1792.2</ele>
        <time>2022-07-18T16:53:00Z</time>
      </trkpt>
      <trkpt lat="44.36955" lon="7.15273">
        <ele>1791.6</ele>
        <time>2022-07-18T16:53:01Z</time>
      </trkpt>
      <trkpt lat="44.36944" lon="7.15274">
        <ele>1791.2</ele>
        <time>2022-07-18T16:53:02Z</time>
      </trkpt>
      <trkpt lat="44.3694" lon="7.15274">
        <ele>1790.6</ele>
        <time>2022-07-18T16:53:03Z</time>
      </trkpt>
      <trkpt lat="44.36932" lon="7.15274">
        <ele>1790</ele>
        <time>2022-07-18T16:53:04Z</time>
      </trkpt>
      <trkpt lat="44.36924" lon="7.15274">
        <ele>1789.6</ele>
        <time>2022-07-18T16:53:05Z</time>
      </trkpt>
      <trkpt lat="44.36912" lon="7.15274">
        <ele>1788.8</ele>
        <time>2022-07-18T16:53:06Z</time>
      </trkpt>
      <trkpt lat="44.36908" lon="7.15273">
        <ele>1788.2</ele>
        <time>2022-07-18T16:53:07Z</time>
      </trkpt>
      <trkpt lat="44.36895" lon="7.15273">
        <ele>1787.4</ele>
        <time>2022-07-18T16:53:08Z</time>
      </trkpt>
      <trkpt lat="44.36891" lon="7.15272">
        <ele>1786.6</ele>
        <time>2022-07-18T16:53:09Z</time>
      </trkpt>
      <trkpt lat="44.36883" lon="7.15272">
        <ele>1785.8</ele>
        <time>2022-07-18T16:53:10Z</time>
      </trkpt>
      <trkpt lat="44.3687" lon="7.15276">
        <ele>1784.8</ele>
        <time>2022-07-18T16:53:11Z</time>
      </trkpt>
      <trkpt lat="44.36865" lon="7.15278">
        <ele>1783.8</ele>
        <time>2022-07-18T16:53:12Z</time>
      </trkpt>
      <trkpt lat="44.36852" lon="7.15288">
        <ele>1782.8</ele>
        <time>2022-07-18T16:53:13Z</time>
      </trkpt>
      <trkpt lat="44.36838" lon="7.15297">
        <ele>1781.6</ele>
        <time>2022-07-18T16:53:14Z</time>
      </trkpt>
      <trkpt lat="44.36829" lon="7.15304">
        <ele>1779.6</ele>
        <time>2022-07-18T16:53:16Z</time>
      </trkpt>
      <trkpt lat="44.3682" lon="7.15311">
        <ele>1778.4</ele>
        <time>2022-07-18T16:53:17Z</time>
      </trkpt>
      <trkpt lat="44.36811" lon="7.15317">
        <ele>1777.2</ele>
        <time>2022-07-18T16:53:18Z</time>
      </trkpt>
      <trkpt lat="44.36801" lon="7.15321">
        <ele>1776</ele>
        <time>2022-07-18T16:53:19Z</time>
      </trkpt>
      <trkpt lat="44.36786" lon="7.15329">
        <ele>1774.8</ele>
        <time>2022-07-18T16:53:20Z</time>
      </trkpt>
      <trkpt lat="44.36781" lon="7.15331">
        <ele>1773.8</ele>
        <time>2022-07-18T16:53:21Z</time>
      </trkpt>
      <trkpt lat="44.36771" lon="7.15336">
        <ele>1772.6</ele>
        <time>2022-07-18T16:53:22Z</time>
      </trkpt>
      <trkpt lat="44.36762" lon="7.15342">
        <ele>1771.4</ele>
        <time>2022-07-18T16:53:23Z</time>
      </trkpt>
      <trkpt lat="44.36753" lon="7.15348">
        <ele>1770.2</ele>
        <time>2022-07-18T16:53:24Z</time>
      </trkpt>
      <trkpt lat="44.3674" lon="7.15356">
        <ele>1769.2</ele>
        <time>2022-07-18T16:53:25Z</time>
      </trkpt>
      <trkpt lat="44.36736" lon="7.15358">
        <ele>1768.2</ele>
        <time>2022-07-18T16:53:26Z</time>
      </trkpt>
      <trkpt lat="44.36724" lon="7.15364">
        <ele>1767.2</ele>
        <time>2022-07-18T16:53:27Z</time>
      </trkpt>
      <trkpt lat="44.36721" lon="7.15366">
        <ele>1766</ele>
        <time>2022-07-18T16:53:28Z</time>
      </trkpt>
      <trkpt lat="44.36713" lon="7.1537">
        <ele>1765</ele>
        <time>2022-07-18T16:53:29Z</time>
      </trkpt>
      <trkpt lat="44.36701" lon="7.15375">
        <ele>1764.2</ele>
        <time>2022-07-18T16:53:30Z</time>
      </trkpt>
      <trkpt lat="44.36698" lon="7.15378">
        <ele>1763.2</ele>
        <time>2022-07-18T16:53:31Z</time>
      </trkpt>
      <trkpt lat="44.36691" lon="7.15382">
        <ele>1762.4</ele>
        <time>2022-07-18T16:53:32Z</time>
      </trkpt>
      <trkpt lat="44.36685" lon="7.15387">
        <ele>1761.4</ele>
        <time>2022-07-18T16:53:33Z</time>
      </trkpt>
      <trkpt lat="44.36677" lon="7.15396">
        <ele>1760.6</ele>
        <time>2022-07-18T16:53:34Z</time>
      </trkpt>
      <trkpt lat="44.36674" lon="7.15399">
        <ele>1759.6</ele>
        <time>2022-07-18T16:53:35Z</time>
      </trkpt>
      <trkpt lat="44.36668" lon="7.15404">
        <ele>1758.8</ele>
        <time>2022-07-18T16:53:36Z</time>
      </trkpt>
      <trkpt lat="44.36657" lon="7.15411">
        <ele>1758.2</ele>
        <time>2022-07-18T16:53:37Z</time>
      </trkpt>
      <trkpt lat="44.36654" lon="7.15413">
        <ele>1757.6</ele>
        <time>2022-07-18T16:53:38Z</time>
      </trkpt>
      <trkpt lat="44.36647" lon="7.15419">
        <ele>1757.2</ele>
        <time>2022-07-18T16:53:39Z</time>
      </trkpt>
      <trkpt lat="44.3664" lon="7.15426">
        <ele>1756.6</ele>
        <time>2022-07-18T16:53:40Z</time>
      </trkpt>
      <trkpt lat="44.36631" lon="7.15438">
        <ele>1756</ele>
        <time>2022-07-18T16:53:41Z</time>
      </trkpt>
      <trkpt lat="44.36628" lon="7.15443">
        <ele>1755.4</ele>
        <time>2022-07-18T16:53:42Z</time>
      </trkpt>
      <trkpt lat="44.36622" lon="7.15452">
        <ele>1754.8</ele>
        <time>2022-07-18T16:53:43Z</time>
      </trkpt>
      <trkpt lat="44.36615" lon="7.15461">
        <ele>1754.2</ele>
        <time>2022-07-18T16:53:44Z</time>
      </trkpt>
      <trkpt lat="44.36608" lon="7.1547">
        <ele>1753.6</ele>
        <time>2022-07-18T16:53:45Z</time>
      </trkpt>
      <trkpt lat="44.36601" lon="7.15478">
        <ele>1752.8</ele>
        <time>2022-07-18T16:53:46Z</time>
      </trkpt>
      <trkpt lat="44.36592" lon="7.15485">
        <ele>1752.2</ele>
        <time>2022-07-18T16:53:47Z</time>
      </trkpt>
      <trkpt lat="44.36583" lon="7.1549">
        <ele>1751.6</ele>
        <time>2022-07-18T16:53:48Z</time>
      </trkpt>
      <trkpt lat="44.36574" lon="7.15493">
        <ele>1751</ele>
        <time>2022-07-18T16:53:49Z</time>
      </trkpt>
      <trkpt lat="44.36565" lon="7.15497">
        <ele>1750.4</ele>
        <time>2022-07-18T16:53:50Z</time>
      </trkpt>
      <trkpt lat="44.36556" lon="7.15501">
        <ele>1749.8</ele>
        <time>2022-07-18T16:53:51Z</time>
      </trkpt>
      <trkpt lat="44.36542" lon="7.15505">
        <ele>1749</ele>
        <time>2022-07-18T16:53:52Z</time>
      </trkpt>
      <trkpt lat="44.36538" lon="7.15507">
        <ele>1748.4</ele>
        <time>2022-07-18T16:53:53Z</time>
      </trkpt>
      <trkpt lat="44.36528" lon="7.15509">
        <ele>1747.6</ele>
        <time>2022-07-18T16:53:54Z</time>
      </trkpt>
      <trkpt lat="44.36515" lon="7.15513">
        <ele>1747</ele>
        <time>2022-07-18T16:53:55Z</time>
      </trkpt>
      <trkpt lat="44.36511" lon="7.15514">
        <ele>1746.4</ele>
        <time>2022-07-18T16:53:56Z</time>
      </trkpt>
      <trkpt lat="44.36499" lon="7.15517">
        <ele>1745.8</ele>
        <time>2022-07-18T16:53:57Z</time>
      </trkpt>
      <trkpt lat="44.36495" lon="7.15518">
        <ele>1745.4</ele>
        <time>2022-07-18T16:53:58Z</time>
      </trkpt>
      <trkpt lat="44.36488" lon="7.1552">
        <ele>1745</ele>
        <time>2022-07-18T16:53:59Z</time>
      </trkpt>
      <trkpt lat="44.36479" lon="7.15524">
        <ele>1744.6</ele>
        <time>2022-07-18T16:54:00Z</time>
      </trkpt>
      <trkpt lat="44.36476" lon="7.15525">
        <ele>1744.2</ele>
        <time>2022-07-18T16:54:01Z</time>
      </trkpt>
      <trkpt lat="44.36472" lon="7.1553">
        <ele>1743.8</ele>
        <time>2022-07-18T16:54:02Z</time>
      </trkpt>
      <trkpt lat="44.36469" lon="7.15536">
        <ele>1743.6</ele>
        <time>2022-07-18T16:54:03Z</time>
      </trkpt>
      <trkpt lat="44.36466" lon="7.15548">
        <ele>1743.2</ele>
        <time>2022-07-18T16:54:04Z</time>
      </trkpt>
      <trkpt lat="44.36464" lon="7.15553">
        <ele>1742.8</ele>
        <time>2022-07-18T16:54:05Z</time>
      </trkpt>
      <trkpt lat="44.36461" lon="7.15566">
        <ele>1742.2</ele>
        <time>2022-07-18T16:54:06Z</time>
      </trkpt>
      <trkpt lat="44.3646" lon="7.1557">
        <ele>1741.8</ele>
        <time>2022-07-18T16:54:07Z</time>
      </trkpt>
      <trkpt lat="44.36459" lon="7.1558">
        <ele>1741.4</ele>
        <time>2022-07-18T16:54:08Z</time>
      </trkpt>
      <trkpt lat="44.36456" lon="7.15593">
        <ele>1741</ele>
        <time>2022-07-18T16:54:09Z</time>
      </trkpt>
      <trkpt lat="44.36454" lon="7.15597">
        <ele>1740.6</ele>
        <time>2022-07-18T16:54:10Z</time>
      </trkpt>
      <trkpt lat="44.36448" lon="7.15608">
        <ele>1740.2</ele>
        <time>2022-07-18T16:54:11Z</time>
      </trkpt>
      <trkpt lat="44.36446" lon="7.15611">
        <ele>1739.8</ele>
        <time>2022-07-18T16:54:12Z</time>
      </trkpt>
      <trkpt lat="44.3644" lon="7.15615">
        <ele>1739.4</ele>
        <time>2022-07-18T16:54:13Z</time>
      </trkpt>
      <trkpt lat="44.36431" lon="7.15619">
        <ele>1739</ele>
        <time>2022-07-18T16:54:14Z</time>
      </trkpt>
      <trkpt lat="44.36428" lon="7.1562">
        <ele>1738.6</ele>
        <time>2022-07-18T16:54:15Z</time>
      </trkpt>
      <trkpt lat="44.36421" lon="7.15622">
        <ele>1738.2</ele>
        <time>2022-07-18T16:54:16Z</time>
      </trkpt>
      <trkpt lat="44.36413" lon="7.15628">
        <ele>1737.8</ele>
        <time>2022-07-18T16:54:17Z</time>
      </trkpt>
      <trkpt lat="44.3641" lon="7.15631">
        <ele>1737.4</ele>
        <time>2022-07-18T16:54:18Z</time>
      </trkpt>
      <trkpt lat="44.36406" lon="7.15638">
        <ele>1737</ele>
        <time>2022-07-18T16:54:19Z</time>
      </trkpt>
      <trkpt lat="44.36402" lon="7.15646">
        <ele>1736.6</ele>
        <time>2022-07-18T16:54:20Z</time>
      </trkpt>
      <trkpt lat="44.36398" lon="7.15655">
        <ele>1736.2</ele>
        <time>2022-07-18T16:54:21Z</time>
      </trkpt>
      <trkpt lat="44.36393" lon="7.15663">
        <ele>1735.8</ele>
        <time>2022-07-18T16:54:22Z</time>
      </trkpt>
      <trkpt lat="44.36388" lon="7.15669">
        <ele>1735.4</ele>
        <time>2022-07-18T16:54:23Z</time>
      </trkpt>
      <trkpt lat="44.36382" lon="7.15673">
        <ele>1735</ele>
        <time>2022-07-18T16:54:24Z</time>
      </trkpt>
      <trkpt lat="44.36376" lon="7.15677">
        <ele>1734.6</ele>
        <time>2022-07-18T16:54:25Z</time>
      </trkpt>
      <trkpt lat="44.3637" lon="7.15683">
        <ele>1734.2</ele>
        <time>2022-07-18T16:54:26Z</time>
      </trkpt>
      <trkpt lat="44.36363" lon="7.15693">
        <ele>1733.6</ele>
        <time>2022-07-18T16:54:27Z</time>
      </trkpt>
      <trkpt lat="44.3636" lon="7.15697">
        <ele>1733</ele>
        <time>2022-07-18T16:54:28Z</time>
      </trkpt>
      <trkpt lat="44.36356" lon="7.15705">
        <ele>1732.6</ele>
        <time>2022-07-18T16:54:29Z</time>
      </trkpt>
      <trkpt lat="44.36351" lon="7.15713">
        <ele>1732.2</ele>
        <time>2022-07-18T16:54:30Z</time>
      </trkpt>
      <trkpt lat="44.36347" lon="7.15722">
        <ele>1731.8</ele>
        <time>2022-07-18T16:54:31Z</time>
      </trkpt>
      <trkpt lat="44.36343" lon="7.1573">
        <ele>1731.4</ele>
        <time>2022-07-18T16:54:32Z</time>
      </trkpt>
      <trkpt lat="44.3634" lon="7.15737">
        <ele>1730.8</ele>
        <time>2022-07-18T16:54:33Z</time>
      </trkpt>
      <trkpt lat="44.36337" lon="7.15748">
        <ele>1730.6</ele>
        <time>2022-07-18T16:54:34Z</time>
      </trkpt>
      <trkpt lat="44.36336" lon="7.15751">
        <ele>1730.2</ele>
        <time>2022-07-18T16:54:35Z</time>
      </trkpt>
      <trkpt lat="44.36336" lon="7.15756">
        <ele>1730.2</ele>
        <time>2022-07-18T16:54:36Z</time>
      </trkpt>
      <trkpt lat="44.36336" lon="7.1576">
        <ele>1729.8</ele>
        <time>2022-07-18T16:54:37Z</time>
      </trkpt>
      <trkpt lat="44.36336" lon="7.15763">
        <ele>1729.8</ele>
        <time>2022-07-18T16:54:38Z</time>
      </trkpt>
      <trkpt lat="44.36336" lon="7.15765">
        <ele>1729.4</ele>
        <time>2022-07-18T16:54:39Z</time>
      </trkpt>
      <trkpt lat="44.36336" lon="7.15765">
        <ele>1729.4</ele>
        <time>2022-07-18T16:54:40Z</time>
      </trkpt>
      <trkpt lat="44.36336" lon="7.15765">
        <ele>1729.2</ele>
        <time>2022-07-18T16:54:44Z</time>
      </trkpt>
      <trkpt lat="44.36336" lon="7.15765">
        <ele>1729</ele>
        <time>2022-07-18T16:54:48Z</time>
      </trkpt>
      <trkpt lat="44.36336" lon="7.15765">
        <ele>1729</ele>
        <time>2022-07-18T16:55:27Z</time>
      </trkpt>
      <trkpt lat="44.36337" lon="7.15768">
        <ele>1729</ele>
        <time>2022-07-18T16:55:28Z</time>
      </trkpt>
      <trkpt lat="44.36337" lon="7.1577">
        <ele>1729</ele>
        <time>2022-07-18T16:55:29Z</time>
      </trkpt>
      <trkpt lat="44.36337" lon="7.15773">
        <ele>1728.8</ele>
        <time>2022-07-18T16:55:30Z</time>
      </trkpt>
      <trkpt lat="44.36336" lon="7.15777">
        <ele>1728.8</ele>
        <time>2022-07-18T16:55:31Z</time>
      </trkpt>
      <trkpt lat="44.36334" lon="7.15779">
        <ele>1728.2</ele>
        <time>2022-07-18T16:55:33Z</time>
      </trkpt>
      <trkpt lat="44.36331" lon="7.1578">
        <ele>1728</ele>
        <time>2022-07-18T16:55:34Z</time>
      </trkpt>
      <trkpt lat="44.3633" lon="7.1578">
        <ele>1727.8</ele>
        <time>2022-07-18T16:55:35Z</time>
      </trkpt>
      <trkpt lat="44.36326" lon="7.15778">
        <ele>1727.4</ele>
        <time>2022-07-18T16:55:36Z</time>
      </trkpt>
      <trkpt lat="44.36325" lon="7.15776">
        <ele>1727.2</ele>
        <time>2022-07-18T16:55:37Z</time>
      </trkpt>
      <trkpt lat="44.36323" lon="7.1577">
        <ele>1726.8</ele>
        <time>2022-07-18T16:55:38Z</time>
      </trkpt>
      <trkpt lat="44.36322" lon="7.15768">
        <ele>1726.6</ele>
        <time>2022-07-18T16:55:39Z</time>
      </trkpt>
      <trkpt lat="44.36323" lon="7.15762">
        <ele>1726.2</ele>
        <time>2022-07-18T16:55:40Z</time>
      </trkpt>
      <trkpt lat="44.36324" lon="7.15752">
        <ele>1726</ele>
        <time>2022-07-18T16:55:41Z</time>
      </trkpt>
      <trkpt lat="44.36325" lon="7.15748">
        <ele>1725.6</ele>
        <time>2022-07-18T16:55:42Z</time>
      </trkpt>
      <trkpt lat="44.36326" lon="7.1574">
        <ele>1725.2</ele>
        <time>2022-07-18T16:55:43Z</time>
      </trkpt>
      <trkpt lat="44.36327" lon="7.15732">
        <ele>1724.8</ele>
        <time>2022-07-18T16:55:44Z</time>
      </trkpt>
      <trkpt lat="44.36328" lon="7.15724">
        <ele>1724.4</ele>
        <time>2022-07-18T16:55:45Z</time>
      </trkpt>
      <trkpt lat="44.36329" lon="7.15716">
        <ele>1723.8</ele>
        <time>2022-07-18T16:55:46Z</time>
      </trkpt>
      <trkpt lat="44.36331" lon="7.15708">
        <ele>1723.4</ele>
        <time>2022-07-18T16:55:47Z</time>
      </trkpt>
      <trkpt lat="44.36334" lon="7.15693">
        <ele>1722.6</ele>
        <time>2022-07-18T16:55:48Z</time>
      </trkpt>
      <trkpt lat="44.36336" lon="7.15689">
        <ele>1722</ele>
        <time>2022-07-18T16:55:49Z</time>
      </trkpt>
      <trkpt lat="44.36338" lon="7.15679">
        <ele>1721</ele>
        <time>2022-07-18T16:55:50Z</time>
      </trkpt>
      <trkpt lat="44.36342" lon="7.15669">
        <ele>1720.2</ele>
        <time>2022-07-18T16:55:51Z</time>
      </trkpt>
      <trkpt lat="44.36345" lon="7.15659">
        <ele>1719.4</ele>
        <time>2022-07-18T16:55:52Z</time>
      </trkpt>
      <trkpt lat="44.36348" lon="7.1565">
        <ele>1718.6</ele>
        <time>2022-07-18T16:55:53Z</time>
      </trkpt>
      <trkpt lat="44.36351" lon="7.15636">
        <ele>1717.8</ele>
        <time>2022-07-18T16:55:54Z</time>
      </trkpt>
      <trkpt lat="44.36353" lon="7.15631">
        <ele>1717.2</ele>
        <time>2022-07-18T16:55:55Z</time>
      </trkpt>
      <trkpt lat="44.36355" lon="7.15622">
        <ele>1716.4</ele>
        <time>2022-07-18T16:55:56Z</time>
      </trkpt>
      <trkpt lat="44.36357" lon="7.15613">
        <ele>1715.6</ele>
        <time>2022-07-18T16:55:57Z</time>
      </trkpt>
      <trkpt lat="44.36359" lon="7.15604">
        <ele>1714.8</ele>
        <time>2022-07-18T16:55:58Z</time>
      </trkpt>
      <trkpt lat="44.36361" lon="7.15595">
        <ele>1714</ele>
        <time>2022-07-18T16:55:59Z</time>
      </trkpt>
      <trkpt lat="44.36365" lon="7.15582">
        <ele>1713.4</ele>
        <time>2022-07-18T16:56:00Z</time>
      </trkpt>
      <trkpt lat="44.36367" lon="7.15578">
        <ele>1712.6</ele>
        <time>2022-07-18T16:56:01Z</time>
      </trkpt>
      <trkpt lat="44.36372" lon="7.15564">
        <ele>1711.6</ele>
        <time>2022-07-18T16:56:02Z</time>
      </trkpt>
      <trkpt lat="44.36374" lon="7.1556">
        <ele>1710.8</ele>
        <time>2022-07-18T16:56:03Z</time>
      </trkpt>
      <trkpt lat="44.36381" lon="7.15547">
        <ele>1710</ele>
        <time>2022-07-18T16:56:04Z</time>
      </trkpt>
      <trkpt lat="44.36383" lon="7.15543">
        <ele>1709.2</ele>
        <time>2022-07-18T16:56:05Z</time>
      </trkpt>
      <trkpt lat="44.36386" lon="7.15535">
        <ele>1708.4</ele>
        <time>2022-07-18T16:56:06Z</time>
      </trkpt>
      <trkpt lat="44.3639" lon="7.15525">
        <ele>1707.8</ele>
        <time>2022-07-18T16:56:07Z</time>
      </trkpt>
      <trkpt lat="44.36394" lon="7.15509">
        <ele>1707</ele>
        <time>2022-07-18T16:56:08Z</time>
      </trkpt>
      <trkpt lat="44.36396" lon="7.15504">
        <ele>1706.2</ele>
        <time>2022-07-18T16:56:09Z</time>
      </trkpt>
      <trkpt lat="44.36399" lon="7.15493">
        <ele>1705</ele>
        <time>2022-07-18T16:56:10Z</time>
      </trkpt>
      <trkpt lat="44.36402" lon="7.15482">
        <ele>1704</ele>
        <time>2022-07-18T16:56:11Z</time>
      </trkpt>
      <trkpt lat="44.36406" lon="7.15466">
        <ele>1703</ele>
        <time>2022-07-18T16:56:12Z</time>
      </trkpt>
      <trkpt lat="44.36408" lon="7.15461">
        <ele>1702.2</ele>
        <time>2022-07-18T16:56:13Z</time>
      </trkpt>
      <trkpt lat="44.36413" lon="7.15447">
        <ele>1701.2</ele>
        <time>2022-07-18T16:56:14Z</time>
      </trkpt>
      <trkpt lat="44.36415" lon="7.15442">
        <ele>1700.4</ele>
        <time>2022-07-18T16:56:15Z</time>
      </trkpt>
      <trkpt lat="44.36419" lon="7.15433">
        <ele>1699.4</ele>
        <time>2022-07-18T16:56:16Z</time>
      </trkpt>
      <trkpt lat="44.36424" lon="7.15424">
        <ele>1698.4</ele>
        <time>2022-07-18T16:56:17Z</time>
      </trkpt>
      <trkpt lat="44.36429" lon="7.15415">
        <ele>1697.6</ele>
        <time>2022-07-18T16:56:18Z</time>
      </trkpt>
      <trkpt lat="44.36433" lon="7.15407">
        <ele>1696.8</ele>
        <time>2022-07-18T16:56:19Z</time>
      </trkpt>
      <trkpt lat="44.36436" lon="7.154">
        <ele>1696</ele>
        <time>2022-07-18T16:56:20Z</time>
      </trkpt>
      <trkpt lat="44.3644" lon="7.15394">
        <ele>1695.2</ele>
        <time>2022-07-18T16:56:21Z</time>
      </trkpt>
      <trkpt lat="44.36443" lon="7.15388">
        <ele>1694.4</ele>
        <time>2022-07-18T16:56:22Z</time>
      </trkpt>
      <trkpt lat="44.36448" lon="7.15382">
        <ele>1693.8</ele>
        <time>2022-07-18T16:56:23Z</time>
      </trkpt>
      <trkpt lat="44.36454" lon="7.15374">
        <ele>1693</ele>
        <time>2022-07-18T16:56:24Z</time>
      </trkpt>
      <trkpt lat="44.36456" lon="7.15372">
        <ele>1692.4</ele>
        <time>2022-07-18T16:56:25Z</time>
      </trkpt>
      <trkpt lat="44.36461" lon="7.15367">
        <ele>1691.8</ele>
        <time>2022-07-18T16:56:26Z</time>
      </trkpt>
      <trkpt lat="44.36465" lon="7.15363">
        <ele>1691.2</ele>
        <time>2022-07-18T16:56:27Z</time>
      </trkpt>
      <trkpt lat="44.36469" lon="7.1536">
        <ele>1690.4</ele>
        <time>2022-07-18T16:56:28Z</time>
      </trkpt>
      <trkpt lat="44.36473" lon="7.15355">
        <ele>1689.8</ele>
        <time>2022-07-18T16:56:29Z</time>
      </trkpt>
      <trkpt lat="44.36481" lon="7.15348">
        <ele>1689.2</ele>
        <time>2022-07-18T16:56:30Z</time>
      </trkpt>
      <trkpt lat="44.36483" lon="7.15346">
        <ele>1688.6</ele>
        <time>2022-07-18T16:56:31Z</time>
      </trkpt>
      <trkpt lat="44.36491" lon="7.15339">
        <ele>1688</ele>
        <time>2022-07-18T16:56:32Z</time>
      </trkpt>
      <trkpt lat="44.36494" lon="7.15336">
        <ele>1687.4</ele>
        <time>2022-07-18T16:56:33Z</time>
      </trkpt>
      <trkpt lat="44.36501" lon="7.15327">
        <ele>1687</ele>
        <time>2022-07-18T16:56:34Z</time>
      </trkpt>
      <trkpt lat="44.36503" lon="7.15323">
        <ele>1686.4</ele>
        <time>2022-07-18T16:56:35Z</time>
      </trkpt>
      <trkpt lat="44.36507" lon="7.15315">
        <ele>1685.8</ele>
        <time>2022-07-18T16:56:36Z</time>
      </trkpt>
      <trkpt lat="44.3651" lon="7.15306">
        <ele>1685</ele>
        <time>2022-07-18T16:56:37Z</time>
      </trkpt>
      <trkpt lat="44.36512" lon="7.15297">
        <ele>1684.4</ele>
        <time>2022-07-18T16:56:38Z</time>
      </trkpt>
      <trkpt lat="44.36514" lon="7.15289">
        <ele>1683.8</ele>
        <time>2022-07-18T16:56:39Z</time>
      </trkpt>
      <trkpt lat="44.36516" lon="7.15281">
        <ele>1683</ele>
        <time>2022-07-18T16:56:40Z</time>
      </trkpt>
      <trkpt lat="44.36516" lon="7.1527">
        <ele>1682.6</ele>
        <time>2022-07-18T16:56:41Z</time>
      </trkpt>
      <trkpt lat="44.36516" lon="7.15266">
        <ele>1682</ele>
        <time>2022-07-18T16:56:42Z</time>
      </trkpt>
      <trkpt lat="44.36515" lon="7.15259">
        <ele>1681.4</ele>
        <time>2022-07-18T16:56:43Z</time>
      </trkpt>
      <trkpt lat="44.36513" lon="7.15252">
        <ele>1680.8</ele>
        <time>2022-07-18T16:56:44Z</time>
      </trkpt>
      <trkpt lat="44.36511" lon="7.15245">
        <ele>1680.4</ele>
        <time>2022-07-18T16:56:45Z</time>
      </trkpt>
      <trkpt lat="44.3651" lon="7.15234">
        <ele>1679.8</ele>
        <time>2022-07-18T16:56:46Z</time>
      </trkpt>
      <trkpt lat="44.3651" lon="7.1523">
        <ele>1679.2</ele>
        <time>2022-07-18T16:56:47Z</time>
      </trkpt>
      <trkpt lat="44.36511" lon="7.15224">
        <ele>1678.8</ele>
        <time>2022-07-18T16:56:48Z</time>
      </trkpt>
      <trkpt lat="44.36512" lon="7.15216">
        <ele>1678.4</ele>
        <time>2022-07-18T16:56:49Z</time>
      </trkpt>
      <trkpt lat="44.36511" lon="7.15213">
        <ele>1678</ele>
        <time>2022-07-18T16:56:50Z</time>
      </trkpt>
      <trkpt lat="44.36509" lon="7.1521">
        <ele>1677.6</ele>
        <time>2022-07-18T16:56:51Z</time>
      </trkpt>
      <trkpt lat="44.36503" lon="7.15212">
        <ele>1677.2</ele>
        <time>2022-07-18T16:56:52Z</time>
      </trkpt>
      <trkpt lat="44.36502" lon="7.15214">
        <ele>1676.8</ele>
        <time>2022-07-18T16:56:53Z</time>
      </trkpt>
      <trkpt lat="44.36499" lon="7.1522">
        <ele>1676.4</ele>
        <time>2022-07-18T16:56:54Z</time>
      </trkpt>
      <trkpt lat="44.36498" lon="7.15228">
        <ele>1676</ele>
        <time>2022-07-18T16:56:55Z</time>
      </trkpt>
      <trkpt lat="44.36498" lon="7.15237">
        <ele>1675.4</ele>
        <time>2022-07-18T16:56:56Z</time>
      </trkpt>
      <trkpt lat="44.36498" lon="7.15245">
        <ele>1675</ele>
        <time>2022-07-18T16:56:57Z</time>
      </trkpt>
      <trkpt lat="44.36496" lon="7.15257">
        <ele>1674.4</ele>
        <time>2022-07-18T16:56:58Z</time>
      </trkpt>
      <trkpt lat="44.36495" lon="7.15261">
        <ele>1673.8</ele>
        <time>2022-07-18T16:56:59Z</time>
      </trkpt>
      <trkpt lat="44.36494" lon="7.15268">
        <ele>1673.2</ele>
        <time>2022-07-18T16:57:00Z</time>
      </trkpt>
      <trkpt lat="44.3649" lon="7.15275">
        <ele>1672.6</ele>
        <time>2022-07-18T16:57:01Z</time>
      </trkpt>
      <trkpt lat="44.36485" lon="7.15282">
        <ele>1672</ele>
        <time>2022-07-18T16:57:02Z</time>
      </trkpt>
      <trkpt lat="44.3648" lon="7.15288">
        <ele>1671.2</ele>
        <time>2022-07-18T16:57:03Z</time>
      </trkpt>
      <trkpt lat="44.36469" lon="7.15295">
        <ele>1670.4</ele>
        <time>2022-07-18T16:57:04Z</time>
      </trkpt>
      <trkpt lat="44.36465" lon="7.15297">
        <ele>1669.6</ele>
        <time>2022-07-18T16:57:05Z</time>
      </trkpt>
      <trkpt lat="44.36457" lon="7.153">
        <ele>1668.6</ele>
        <time>2022-07-18T16:57:06Z</time>
      </trkpt>
      <trkpt lat="44.36449" lon="7.15303">
        <ele>1667.8</ele>
        <time>2022-07-18T16:57:07Z</time>
      </trkpt>
      <trkpt lat="44.36441" lon="7.15305">
        <ele>1666.8</ele>
        <time>2022-07-18T16:57:08Z</time>
      </trkpt>
      <trkpt lat="44.3643" lon="7.1531">
        <ele>1666</ele>
        <time>2022-07-18T16:57:09Z</time>
      </trkpt>
      <trkpt lat="44.36426" lon="7.15312">
        <ele>1665.2</ele>
        <time>2022-07-18T16:57:10Z</time>
      </trkpt>
      <trkpt lat="44.36419" lon="7.15316">
        <ele>1664.4</ele>
        <time>2022-07-18T16:57:11Z</time>
      </trkpt>
      <trkpt lat="44.36409" lon="7.15323">
        <ele>1663.6</ele>
        <time>2022-07-18T16:57:12Z</time>
      </trkpt>
      <trkpt lat="44.36406" lon="7.15326">
        <ele>1662.6</ele>
        <time>2022-07-18T16:57:13Z</time>
      </trkpt>
      <trkpt lat="44.36399" lon="7.15332">
        <ele>1661.6</ele>
        <time>2022-07-18T16:57:14Z</time>
      </trkpt>
      <trkpt lat="44.36392" lon="7.15338">
        <ele>1660.6</ele>
        <time>2022-07-18T16:57:15Z</time>
      </trkpt>
      <trkpt lat="44.36382" lon="7.15349">
        <ele>1659.8</ele>
        <time>2022-07-18T16:57:16Z</time>
      </trkpt>
      <trkpt lat="44.36378" lon="7.15352">
        <ele>1658.8</ele>
        <time>2022-07-18T16:57:17Z</time>
      </trkpt>
      <trkpt lat="44.36371" lon="7.15358">
        <ele>1657.8</ele>
        <time>2022-07-18T16:57:18Z</time>
      </trkpt>
      <trkpt lat="44.36365" lon="7.15363">
        <ele>1656.8</ele>
        <time>2022-07-18T16:57:19Z</time>
      </trkpt>
      <trkpt lat="44.36359" lon="7.15368">
        <ele>1656</ele>
        <time>2022-07-18T16:57:20Z</time>
      </trkpt>
      <trkpt lat="44.36354" lon="7.15373">
        <ele>1655.2</ele>
        <time>2022-07-18T16:57:21Z</time>
      </trkpt>
      <trkpt lat="44.3635" lon="7.1538">
        <ele>1654.4</ele>
        <time>2022-07-18T16:57:22Z</time>
      </trkpt>
      <trkpt lat="44.36346" lon="7.15388">
        <ele>1653.4</ele>
        <time>2022-07-18T16:57:23Z</time>
      </trkpt>
      <trkpt lat="44.36342" lon="7.15397">
        <ele>1652.4</ele>
        <time>2022-07-18T16:57:24Z</time>
      </trkpt>
      <trkpt lat="44.36337" lon="7.15407">
        <ele>1651.4</ele>
        <time>2022-07-18T16:57:25Z</time>
      </trkpt>
      <trkpt lat="44.36332" lon="7.15416">
        <ele>1650.4</ele>
        <time>2022-07-18T16:57:26Z</time>
      </trkpt>
      <trkpt lat="44.36323" lon="7.15428">
        <ele>1649.6</ele>
        <time>2022-07-18T16:57:27Z</time>
      </trkpt>
      <trkpt lat="44.36319" lon="7.15432">
        <ele>1648.6</ele>
        <time>2022-07-18T16:57:28Z</time>
      </trkpt>
      <trkpt lat="44.36311" lon="7.15439">
        <ele>1647.6</ele>
        <time>2022-07-18T16:57:29Z</time>
      </trkpt>
      <trkpt lat="44.36304" lon="7.15445">
        <ele>1646.6</ele>
        <time>2022-07-18T16:57:30Z</time>
      </trkpt>
      <trkpt lat="44.36292" lon="7.15456">
        <ele>1645.6</ele>
        <time>2022-07-18T16:57:31Z</time>
      </trkpt>
      <trkpt lat="44.36288" lon="7.1546">
        <ele>1644.6</ele>
        <time>2022-07-18T16:57:32Z</time>
      </trkpt>
      <trkpt lat="44.3628" lon="7.15468">
        <ele>1643.8</ele>
        <time>2022-07-18T16:57:33Z</time>
      </trkpt>
      <trkpt lat="44.36271" lon="7.15476">
        <ele>1643</ele>
        <time>2022-07-18T16:57:34Z</time>
      </trkpt>
      <trkpt lat="44.36264" lon="7.15484">
        <ele>1642.2</ele>
        <time>2022-07-18T16:57:35Z</time>
      </trkpt>
      <trkpt lat="44.36258" lon="7.15492">
        <ele>1641.4</ele>
        <time>2022-07-18T16:57:36Z</time>
      </trkpt>
      <trkpt lat="44.3625" lon="7.15504">
        <ele>1640.6</ele>
        <time>2022-07-18T16:57:37Z</time>
      </trkpt>
      <trkpt lat="44.36247" lon="7.15509">
        <ele>1640</ele>
        <time>2022-07-18T16:57:38Z</time>
      </trkpt>
      <trkpt lat="44.36243" lon="7.15517">
        <ele>1639.2</ele>
        <time>2022-07-18T16:57:39Z</time>
      </trkpt>
      <trkpt lat="44.36236" lon="7.15533">
        <ele>1638.4</ele>
        <time>2022-07-18T16:57:40Z</time>
      </trkpt>
      <trkpt lat="44.36234" lon="7.15539">
        <ele>1637.6</ele>
        <time>2022-07-18T16:57:41Z</time>
      </trkpt>
      <trkpt lat="44.36229" lon="7.15551">
        <ele>1636.8</ele>
        <time>2022-07-18T16:57:42Z</time>
      </trkpt>
      <trkpt lat="44.36224" lon="7.15562">
        <ele>1635.8</ele>
        <time>2022-07-18T16:57:43Z</time>
      </trkpt>
      <trkpt lat="44.36218" lon="7.15573">
        <ele>1634.6</ele>
        <time>2022-07-18T16:57:44Z</time>
      </trkpt>
      <trkpt lat="44.36212" lon="7.15583">
        <ele>1633.6</ele>
        <time>2022-07-18T16:57:45Z</time>
      </trkpt>
      <trkpt lat="44.36204" lon="7.15598">
        <ele>1632.6</ele>
        <time>2022-07-18T16:57:46Z</time>
      </trkpt>
      <trkpt lat="44.36202" lon="7.15603">
        <ele>1631.8</ele>
        <time>2022-07-18T16:57:47Z</time>
      </trkpt>
      <trkpt lat="44.36198" lon="7.15613">
        <ele>1631</ele>
        <time>2022-07-18T16:57:48Z</time>
      </trkpt>
      <trkpt lat="44.36194" lon="7.15623">
        <ele>1630</ele>
        <time>2022-07-18T16:57:49Z</time>
      </trkpt>
      <trkpt lat="44.36191" lon="7.15633">
        <ele>1629.2</ele>
        <time>2022-07-18T16:57:50Z</time>
      </trkpt>
      <trkpt lat="44.36188" lon="7.15641">
        <ele>1628.2</ele>
        <time>2022-07-18T16:57:51Z</time>
      </trkpt>
      <trkpt lat="44.36184" lon="7.15648">
        <ele>1627.6</ele>
        <time>2022-07-18T16:57:52Z</time>
      </trkpt>
      <trkpt lat="44.36177" lon="7.15657">
        <ele>1626.8</ele>
        <time>2022-07-18T16:57:53Z</time>
      </trkpt>
      <trkpt lat="44.36174" lon="7.1566">
        <ele>1626</ele>
        <time>2022-07-18T16:57:54Z</time>
      </trkpt>
      <trkpt lat="44.36169" lon="7.15666">
        <ele>1625.2</ele>
        <time>2022-07-18T16:57:55Z</time>
      </trkpt>
      <trkpt lat="44.36164" lon="7.15673">
        <ele>1624.4</ele>
        <time>2022-07-18T16:57:56Z</time>
      </trkpt>
      <trkpt lat="44.36159" lon="7.15681">
        <ele>1623.6</ele>
        <time>2022-07-18T16:57:57Z</time>
      </trkpt>
      <trkpt lat="44.36153" lon="7.15695">
        <ele>1622.8</ele>
        <time>2022-07-18T16:57:58Z</time>
      </trkpt>
      <trkpt lat="44.36152" lon="7.15701">
        <ele>1621.8</ele>
        <time>2022-07-18T16:57:59Z</time>
      </trkpt>
      <trkpt lat="44.36149" lon="7.15711">
        <ele>1621</ele>
        <time>2022-07-18T16:58:00Z</time>
      </trkpt>
      <trkpt lat="44.36145" lon="7.15728">
        <ele>1620</ele>
        <time>2022-07-18T16:58:01Z</time>
      </trkpt>
      <trkpt lat="44.36144" lon="7.15733">
        <ele>1619</ele>
        <time>2022-07-18T16:58:02Z</time>
      </trkpt>
      <trkpt lat="44.36141" lon="7.15744">
        <ele>1618</ele>
        <time>2022-07-18T16:58:03Z</time>
      </trkpt>
      <trkpt lat="44.36138" lon="7.1576">
        <ele>1617</ele>
        <time>2022-07-18T16:58:04Z</time>
      </trkpt>
      <trkpt lat="44.36138" lon="7.15766">
        <ele>1616.2</ele>
        <time>2022-07-18T16:58:05Z</time>
      </trkpt>
      <trkpt lat="44.36137" lon="7.15779">
        <ele>1615.2</ele>
        <time>2022-07-18T16:58:06Z</time>
      </trkpt>
      <trkpt lat="44.36136" lon="7.15792">
        <ele>1614.2</ele>
        <time>2022-07-18T16:58:07Z</time>
      </trkpt>
      <trkpt lat="44.36137" lon="7.15813">
        <ele>1613.2</ele>
        <time>2022-07-18T16:58:08Z</time>
      </trkpt>
      <trkpt lat="44.36137" lon="7.1582">
        <ele>1612</ele>
        <time>2022-07-18T16:58:09Z</time>
      </trkpt>
      <trkpt lat="44.36138" lon="7.15834">
        <ele>1611</ele>
        <time>2022-07-18T16:58:10Z</time>
      </trkpt>
      <trkpt lat="44.36136" lon="7.15851">
        <ele>1609.8</ele>
        <time>2022-07-18T16:58:11Z</time>
      </trkpt>
      <trkpt lat="44.36135" lon="7.15857">
        <ele>1608.8</ele>
        <time>2022-07-18T16:58:12Z</time>
      </trkpt>
      <trkpt lat="44.36134" lon="7.15867">
        <ele>1608</ele>
        <time>2022-07-18T16:58:13Z</time>
      </trkpt>
      <trkpt lat="44.36134" lon="7.15877">
        <ele>1607</ele>
        <time>2022-07-18T16:58:14Z</time>
      </trkpt>
      <trkpt lat="44.36135" lon="7.15891">
        <ele>1606.2</ele>
        <time>2022-07-18T16:58:15Z</time>
      </trkpt>
      <trkpt lat="44.36136" lon="7.15896">
        <ele>1605.2</ele>
        <time>2022-07-18T16:58:16Z</time>
      </trkpt>
      <trkpt lat="44.36138" lon="7.15906">
        <ele>1604.4</ele>
        <time>2022-07-18T16:58:17Z</time>
      </trkpt>
      <trkpt lat="44.3614" lon="7.15916">
        <ele>1603.6</ele>
        <time>2022-07-18T16:58:18Z</time>
      </trkpt>
      <trkpt lat="44.36142" lon="7.15925">
        <ele>1602.6</ele>
        <time>2022-07-18T16:58:19Z</time>
      </trkpt>
      <trkpt lat="44.36143" lon="7.15934">
        <ele>1601.8</ele>
        <time>2022-07-18T16:58:20Z</time>
      </trkpt>
      <trkpt lat="44.36143" lon="7.15943">
        <ele>1601</ele>
        <time>2022-07-18T16:58:21Z</time>
      </trkpt>
      <trkpt lat="44.36142" lon="7.15951">
        <ele>1600.4</ele>
        <time>2022-07-18T16:58:22Z</time>
      </trkpt>
      <trkpt lat="44.36141" lon="7.1596">
        <ele>1599.8</ele>
        <time>2022-07-18T16:58:23Z</time>
      </trkpt>
      <trkpt lat="44.3614" lon="7.15969">
        <ele>1599</ele>
        <time>2022-07-18T16:58:24Z</time>
      </trkpt>
      <trkpt lat="44.36139" lon="7.15981">
        <ele>1598.4</ele>
        <time>2022-07-18T16:58:25Z</time>
      </trkpt>
      <trkpt lat="44.36138" lon="7.15985">
        <ele>1597.6</ele>
        <time>2022-07-18T16:58:26Z</time>
      </trkpt>
      <trkpt lat="44.36138" lon="7.15993">
        <ele>1597</ele>
        <time>2022-07-18T16:58:27Z</time>
      </trkpt>
      <trkpt lat="44.36138" lon="7.16001">
        <ele>1596.4</ele>
        <time>2022-07-18T16:58:28Z</time>
      </trkpt>
      <trkpt lat="44.36141" lon="7.16011">
        <ele>1596</ele>
        <time>2022-07-18T16:58:29Z</time>
      </trkpt>
      <trkpt lat="44.36143" lon="7.16014">
        <ele>1595.4</ele>
        <time>2022-07-18T16:58:30Z</time>
      </trkpt>
      <trkpt lat="44.36148" lon="7.16021">
        <ele>1595</ele>
        <time>2022-07-18T16:58:31Z</time>
      </trkpt>
      <trkpt lat="44.36151" lon="7.16023">
        <ele>1594.4</ele>
        <time>2022-07-18T16:58:32Z</time>
      </trkpt>
      <trkpt lat="44.36155" lon="7.16025">
        <ele>1593.6</ele>
        <time>2022-07-18T16:58:33Z</time>
      </trkpt>
      <trkpt lat="44.3616" lon="7.16028">
        <ele>1592.8</ele>
        <time>2022-07-18T16:58:34Z</time>
      </trkpt>
      <trkpt lat="44.36164" lon="7.16032">
        <ele>1592.2</ele>
        <time>2022-07-18T16:58:35Z</time>
      </trkpt>
      <trkpt lat="44.36167" lon="7.16038">
        <ele>1591.4</ele>
        <time>2022-07-18T16:58:36Z</time>
      </trkpt>
      <trkpt lat="44.3617" lon="7.16046">
        <ele>1590.8</ele>
        <time>2022-07-18T16:58:37Z</time>
      </trkpt>
      <trkpt lat="44.36171" lon="7.16053">
        <ele>1590</ele>
        <time>2022-07-18T16:58:38Z</time>
      </trkpt>
      <trkpt lat="44.36173" lon="7.16061">
        <ele>1589.6</ele>
        <time>2022-07-18T16:58:39Z</time>
      </trkpt>
      <trkpt lat="44.36175" lon="7.16072">
        <ele>1588.8</ele>
        <time>2022-07-18T16:58:40Z</time>
      </trkpt>
      <trkpt lat="44.36176" lon="7.16076">
        <ele>1588.2</ele>
        <time>2022-07-18T16:58:41Z</time>
      </trkpt>
      <trkpt lat="44.36176" lon="7.16082">
        <ele>1587.6</ele>
        <time>2022-07-18T16:58:42Z</time>
      </trkpt>
      <trkpt lat="44.36175" lon="7.16088">
        <ele>1587.2</ele>
        <time>2022-07-18T16:58:43Z</time>
      </trkpt>
      <trkpt lat="44.36172" lon="7.16091">
        <ele>1586.6</ele>
        <time>2022-07-18T16:58:44Z</time>
      </trkpt>
      <trkpt lat="44.36166" lon="7.1609">
        <ele>1586</ele>
        <time>2022-07-18T16:58:45Z</time>
      </trkpt>
      <trkpt lat="44.36165" lon="7.16089">
        <ele>1585.2</ele>
        <time>2022-07-18T16:58:46Z</time>
      </trkpt>
      <trkpt lat="44.3616" lon="7.16081">
        <ele>1584.6</ele>
        <time>2022-07-18T16:58:47Z</time>
      </trkpt>
      <trkpt lat="44.36158" lon="7.16077">
        <ele>1584</ele>
        <time>2022-07-18T16:58:48Z</time>
      </trkpt>
      <trkpt lat="44.36156" lon="7.16071">
        <ele>1583.6</ele>
        <time>2022-07-18T16:58:49Z</time>
      </trkpt>
      <trkpt lat="44.36151" lon="7.16061">
        <ele>1583</ele>
        <time>2022-07-18T16:58:50Z</time>
      </trkpt>
      <trkpt lat="44.36149" lon="7.16058">
        <ele>1582.4</ele>
        <time>2022-07-18T16:58:51Z</time>
      </trkpt>
      <trkpt lat="44.36143" lon="7.16053">
        <ele>1581.8</ele>
        <time>2022-07-18T16:58:52Z</time>
      </trkpt>
      <trkpt lat="44.36134" lon="7.16046">
        <ele>1581.2</ele>
        <time>2022-07-18T16:58:53Z</time>
      </trkpt>
      <trkpt lat="44.36131" lon="7.16044">
        <ele>1580.4</ele>
        <time>2022-07-18T16:58:54Z</time>
      </trkpt>
      <trkpt lat="44.36125" lon="7.16041">
        <ele>1580</ele>
        <time>2022-07-18T16:58:55Z</time>
      </trkpt>
      <trkpt lat="44.36117" lon="7.16032">
        <ele>1579.4</ele>
        <time>2022-07-18T16:58:56Z</time>
      </trkpt>
      <trkpt lat="44.36114" lon="7.16028">
        <ele>1578.6</ele>
        <time>2022-07-18T16:58:57Z</time>
      </trkpt>
      <trkpt lat="44.36109" lon="7.16022">
        <ele>1578</ele>
        <time>2022-07-18T16:58:58Z</time>
      </trkpt>
      <trkpt lat="44.36102" lon="7.16008">
        <ele>1577.2</ele>
        <time>2022-07-18T16:58:59Z</time>
      </trkpt>
      <trkpt lat="44.361" lon="7.16002">
        <ele>1576.4</ele>
        <time>2022-07-18T16:59:00Z</time>
      </trkpt>
      <trkpt lat="44.36094" lon="7.15986">
        <ele>1575.6</ele>
        <time>2022-07-18T16:59:01Z</time>
      </trkpt>
      <trkpt lat="44.36093" lon="7.15981">
        <ele>1574.6</ele>
        <time>2022-07-18T16:59:02Z</time>
      </trkpt>
      <trkpt lat="44.36089" lon="7.15971">
        <ele>1573.8</ele>
        <time>2022-07-18T16:59:03Z</time>
      </trkpt>
      <trkpt lat="44.36085" lon="7.15958">
        <ele>1573.2</ele>
        <time>2022-07-18T16:59:04Z</time>
      </trkpt>
      <trkpt lat="44.36084" lon="7.15954">
        <ele>1572.4</ele>
        <time>2022-07-18T16:59:05Z</time>
      </trkpt>
      <trkpt lat="44.36083" lon="7.15944">
        <ele>1571.8</ele>
        <time>2022-07-18T16:59:06Z</time>
      </trkpt>
      <trkpt lat="44.36083" lon="7.15936">
        <ele>1571.2</ele>
        <time>2022-07-18T16:59:07Z</time>
      </trkpt>
      <trkpt lat="44.36083" lon="7.15927">
        <ele>1570.8</ele>
        <time>2022-07-18T16:59:08Z</time>
      </trkpt>
      <trkpt lat="44.36083" lon="7.15925">
        <ele>1570.4</ele>
        <time>2022-07-18T16:59:09Z</time>
      </trkpt>
      <trkpt lat="44.36081" lon="7.15921">
        <ele>1570</ele>
        <time>2022-07-18T16:59:10Z</time>
      </trkpt>
      <trkpt lat="44.36078" lon="7.1592">
        <ele>1569.8</ele>
        <time>2022-07-18T16:59:11Z</time>
      </trkpt>
      <trkpt lat="44.36075" lon="7.15923">
        <ele>1569.4</ele>
        <time>2022-07-18T16:59:12Z</time>
      </trkpt>
      <trkpt lat="44.36074" lon="7.15924">
        <ele>1569</ele>
        <time>2022-07-18T16:59:13Z</time>
      </trkpt>
      <trkpt lat="44.36073" lon="7.15932">
        <ele>1568.6</ele>
        <time>2022-07-18T16:59:14Z</time>
      </trkpt>
      <trkpt lat="44.36073" lon="7.15935">
        <ele>1568.2</ele>
        <time>2022-07-18T16:59:15Z</time>
      </trkpt>
      <trkpt lat="44.36074" lon="7.15942">
        <ele>1567.8</ele>
        <time>2022-07-18T16:59:16Z</time>
      </trkpt>
      <trkpt lat="44.36074" lon="7.15949">
        <ele>1567.2</ele>
        <time>2022-07-18T16:59:17Z</time>
      </trkpt>
      <trkpt lat="44.36075" lon="7.15958">
        <ele>1566.8</ele>
        <time>2022-07-18T16:59:18Z</time>
      </trkpt>
      <trkpt lat="44.36076" lon="7.15967">
        <ele>1566.2</ele>
        <time>2022-07-18T16:59:19Z</time>
      </trkpt>
      <trkpt lat="44.36077" lon="7.15976">
        <ele>1565.4</ele>
        <time>2022-07-18T16:59:20Z</time>
      </trkpt>
      <trkpt lat="44.36079" lon="7.15986">
        <ele>1564.6</ele>
        <time>2022-07-18T16:59:21Z</time>
      </trkpt>
      <trkpt lat="44.3608" lon="7.15997">
        <ele>1563.8</ele>
        <time>2022-07-18T16:59:22Z</time>
      </trkpt>
      <trkpt lat="44.36083" lon="7.16012">
        <ele>1563</ele>
        <time>2022-07-18T16:59:23Z</time>
      </trkpt>
      <trkpt lat="44.36085" lon="7.16016">
        <ele>1562.2</ele>
        <time>2022-07-18T16:59:24Z</time>
      </trkpt>
      <trkpt lat="44.36088" lon="7.16026">
        <ele>1561.2</ele>
        <time>2022-07-18T16:59:25Z</time>
      </trkpt>
      <trkpt lat="44.36092" lon="7.1604">
        <ele>1560.4</ele>
        <time>2022-07-18T16:59:26Z</time>
      </trkpt>
      <trkpt lat="44.36092" lon="7.16045">
        <ele>1559.4</ele>
        <time>2022-07-18T16:59:27Z</time>
      </trkpt>
      <trkpt lat="44.36094" lon="7.16055">
        <ele>1558.4</ele>
        <time>2022-07-18T16:59:28Z</time>
      </trkpt>
      <trkpt lat="44.36093" lon="7.16067">
        <ele>1557.6</ele>
        <time>2022-07-18T16:59:29Z</time>
      </trkpt>
      <trkpt lat="44.36091" lon="7.16084">
        <ele>1556.6</ele>
        <time>2022-07-18T16:59:30Z</time>
      </trkpt>
      <trkpt lat="44.36091" lon="7.1609">
        <ele>1555.6</ele>
        <time>2022-07-18T16:59:31Z</time>
      </trkpt>
      <trkpt lat="44.3609" lon="7.16108">
        <ele>1554.6</ele>
        <time>2022-07-18T16:59:32Z</time>
      </trkpt>
      <trkpt lat="44.36089" lon="7.16114">
        <ele>1553.6</ele>
        <time>2022-07-18T16:59:33Z</time>
      </trkpt>
      <trkpt lat="44.3609" lon="7.16131">
        <ele>1552.6</ele>
        <time>2022-07-18T16:59:34Z</time>
      </trkpt>
      <trkpt lat="44.3609" lon="7.16137">
        <ele>1551.6</ele>
        <time>2022-07-18T16:59:35Z</time>
      </trkpt>
      <trkpt lat="44.36091" lon="7.16151">
        <ele>1550.8</ele>
        <time>2022-07-18T16:59:36Z</time>
      </trkpt>
      <trkpt lat="44.36092" lon="7.16156">
        <ele>1550</ele>
        <time>2022-07-18T16:59:37Z</time>
      </trkpt>
      <trkpt lat="44.36095" lon="7.16168">
        <ele>1549.2</ele>
        <time>2022-07-18T16:59:38Z</time>
      </trkpt>
      <trkpt lat="44.36097" lon="7.16171">
        <ele>1548.4</ele>
        <time>2022-07-18T16:59:39Z</time>
      </trkpt>
      <trkpt lat="44.36102" lon="7.16182">
        <ele>1547.6</ele>
        <time>2022-07-18T16:59:40Z</time>
      </trkpt>
      <trkpt lat="44.36103" lon="7.16185">
        <ele>1546.8</ele>
        <time>2022-07-18T16:59:41Z</time>
      </trkpt>
      <trkpt lat="44.36104" lon="7.16193">
        <ele>1546</ele>
        <time>2022-07-18T16:59:42Z</time>
      </trkpt>
      <trkpt lat="44.36102" lon="7.16207">
        <ele>1545.4</ele>
        <time>2022-07-18T16:59:43Z</time>
      </trkpt>
      <trkpt lat="44.36101" lon="7.16211">
        <ele>1544.6</ele>
        <time>2022-07-18T16:59:44Z</time>
      </trkpt>
      <trkpt lat="44.36099" lon="7.1622">
        <ele>1543.8</ele>
        <time>2022-07-18T16:59:45Z</time>
      </trkpt>
      <trkpt lat="44.36096" lon="7.16237">
        <ele>1542.8</ele>
        <time>2022-07-18T16:59:46Z</time>
      </trkpt>
      <trkpt lat="44.36096" lon="7.16243">
        <ele>1541.8</ele>
        <time>2022-07-18T16:59:47Z</time>
      </trkpt>
      <trkpt lat="44.36094" lon="7.16255">
        <ele>1540.8</ele>
        <time>2022-07-18T16:59:48Z</time>
      </trkpt>
      <trkpt lat="44.36093" lon="7.16275">
        <ele>1539.6</ele>
        <time>2022-07-18T16:59:49Z</time>
      </trkpt>
      <trkpt lat="44.36092" lon="7.16282">
        <ele>1538.6</ele>
        <time>2022-07-18T16:59:50Z</time>
      </trkpt>
      <trkpt lat="44.3609" lon="7.16296">
        <ele>1537.4</ele>
        <time>2022-07-18T16:59:51Z</time>
      </trkpt>
      <trkpt lat="44.36083" lon="7.16316">
        <ele>1536.2</ele>
        <time>2022-07-18T16:59:52Z</time>
      </trkpt>
      <trkpt lat="44.3608" lon="7.16322">
        <ele>1535</ele>
        <time>2022-07-18T16:59:53Z</time>
      </trkpt>
      <trkpt lat="44.36074" lon="7.16335">
        <ele>1533.8</ele>
        <time>2022-07-18T16:59:54Z</time>
      </trkpt>
      <trkpt lat="44.36067" lon="7.16353">
        <ele>1532.6</ele>
        <time>2022-07-18T16:59:55Z</time>
      </trkpt>
      <trkpt lat="44.36065" lon="7.16359">
        <ele>1531.4</ele>
        <time>2022-07-18T16:59:56Z</time>
      </trkpt>
      <trkpt lat="44.36059" lon="7.16371">
        <ele>1530</ele>
        <time>2022-07-18T16:59:57Z</time>
      </trkpt>
      <trkpt lat="44.36056" lon="7.16382">
        <ele>1529</ele>
        <time>2022-07-18T16:59:58Z</time>
      </trkpt>
      <trkpt lat="44.36053" lon="7.16394">
        <ele>1527.8</ele>
        <time>2022-07-18T16:59:59Z</time>
      </trkpt>
      <trkpt lat="44.36052" lon="7.16405">
        <ele>1526.8</ele>
        <time>2022-07-18T17:00:00Z</time>
      </trkpt>
      <trkpt lat="44.36049" lon="7.1642">
        <ele>1525.8</ele>
        <time>2022-07-18T17:00:01Z</time>
      </trkpt>
      <trkpt lat="44.36048" lon="7.16425">
        <ele>1524.8</ele>
        <time>2022-07-18T17:00:02Z</time>
      </trkpt>
      <trkpt lat="44.36044" lon="7.16434">
        <ele>1523.8</ele>
        <time>2022-07-18T17:00:03Z</time>
      </trkpt>
      <trkpt lat="44.36038" lon="7.16443">
        <ele>1522.8</ele>
        <time>2022-07-18T17:00:04Z</time>
      </trkpt>
      <trkpt lat="44.36028" lon="7.16456">
        <ele>1521.6</ele>
        <time>2022-07-18T17:00:05Z</time>
      </trkpt>
      <trkpt lat="44.36025" lon="7.1646">
        <ele>1520.2</ele>
        <time>2022-07-18T17:00:06Z</time>
      </trkpt>
      <trkpt lat="44.36016" lon="7.16476">
        <ele>1519</ele>
        <time>2022-07-18T17:00:07Z</time>
      </trkpt>
      <trkpt lat="44.36014" lon="7.16481">
        <ele>1517.8</ele>
        <time>2022-07-18T17:00:08Z</time>
      </trkpt>
      <trkpt lat="44.36006" lon="7.16498">
        <ele>1516.6</ele>
        <time>2022-07-18T17:00:09Z</time>
      </trkpt>
      <trkpt lat="44.36003" lon="7.16504">
        <ele>1515.4</ele>
        <time>2022-07-18T17:00:10Z</time>
      </trkpt>
      <trkpt lat="44.35996" lon="7.16522">
        <ele>1514.2</ele>
        <time>2022-07-18T17:00:11Z</time>
      </trkpt>
      <trkpt lat="44.35994" lon="7.16528">
        <ele>1513</ele>
        <time>2022-07-18T17:00:12Z</time>
      </trkpt>
      <trkpt lat="44.3599" lon="7.1654">
        <ele>1511.8</ele>
        <time>2022-07-18T17:00:13Z</time>
      </trkpt>
      <trkpt lat="44.35987" lon="7.1655">
        <ele>1511</ele>
        <time>2022-07-18T17:00:14Z</time>
      </trkpt>
      <trkpt lat="44.35982" lon="7.16562">
        <ele>1510.2</ele>
        <time>2022-07-18T17:00:15Z</time>
      </trkpt>
      <trkpt lat="44.35979" lon="7.16566">
        <ele>1509.4</ele>
        <time>2022-07-18T17:00:16Z</time>
      </trkpt>
      <trkpt lat="44.35971" lon="7.16576">
        <ele>1508.6</ele>
        <time>2022-07-18T17:00:17Z</time>
      </trkpt>
      <trkpt lat="44.35969" lon="7.16579">
        <ele>1507.8</ele>
        <time>2022-07-18T17:00:18Z</time>
      </trkpt>
      <trkpt lat="44.35963" lon="7.16586">
        <ele>1507</ele>
        <time>2022-07-18T17:00:19Z</time>
      </trkpt>
      <trkpt lat="44.35957" lon="7.16594">
        <ele>1506.2</ele>
        <time>2022-07-18T17:00:20Z</time>
      </trkpt>
      <trkpt lat="44.3595" lon="7.16606">
        <ele>1505.6</ele>
        <time>2022-07-18T17:00:21Z</time>
      </trkpt>
      <trkpt lat="44.35947" lon="7.16611">
        <ele>1504.8</ele>
        <time>2022-07-18T17:00:22Z</time>
      </trkpt>
      <trkpt lat="44.3594" lon="7.16622">
        <ele>1504</ele>
        <time>2022-07-18T17:00:23Z</time>
      </trkpt>
      <trkpt lat="44.35937" lon="7.16624">
        <ele>1503.2</ele>
        <time>2022-07-18T17:00:24Z</time>
      </trkpt>
      <trkpt lat="44.35932" lon="7.16629">
        <ele>1502.6</ele>
        <time>2022-07-18T17:00:25Z</time>
      </trkpt>
      <trkpt lat="44.35926" lon="7.16635">
        <ele>1501.6</ele>
        <time>2022-07-18T17:00:26Z</time>
      </trkpt>
      <trkpt lat="44.35921" lon="7.16643">
        <ele>1500.8</ele>
        <time>2022-07-18T17:00:27Z</time>
      </trkpt>
      <trkpt lat="44.35916" lon="7.16652">
        <ele>1499.6</ele>
        <time>2022-07-18T17:00:28Z</time>
      </trkpt>
      <trkpt lat="44.3591" lon="7.16662">
        <ele>1498.6</ele>
        <time>2022-07-18T17:00:29Z</time>
      </trkpt>
      <trkpt lat="44.35901" lon="7.1668">
        <ele>1497.2</ele>
        <time>2022-07-18T17:00:30Z</time>
      </trkpt>
      <trkpt lat="44.35898" lon="7.16686">
        <ele>1496</ele>
        <time>2022-07-18T17:00:31Z</time>
      </trkpt>
      <trkpt lat="44.35893" lon="7.16698">
        <ele>1494.6</ele>
        <time>2022-07-18T17:00:32Z</time>
      </trkpt>
      <trkpt lat="44.35887" lon="7.1671">
        <ele>1493.4</ele>
        <time>2022-07-18T17:00:33Z</time>
      </trkpt>
      <trkpt lat="44.35882" lon="7.16723">
        <ele>1492</ele>
        <time>2022-07-18T17:00:34Z</time>
      </trkpt>
      <trkpt lat="44.35874" lon="7.16744">
        <ele>1490.8</ele>
        <time>2022-07-18T17:00:35Z</time>
      </trkpt>
      <trkpt lat="44.35871" lon="7.1675">
        <ele>1489.4</ele>
        <time>2022-07-18T17:00:36Z</time>
      </trkpt>
      <trkpt lat="44.35866" lon="7.16764">
        <ele>1488</ele>
        <time>2022-07-18T17:00:37Z</time>
      </trkpt>
      <trkpt lat="44.3586" lon="7.16777">
        <ele>1486.6</ele>
        <time>2022-07-18T17:00:38Z</time>
      </trkpt>
      <trkpt lat="44.35853" lon="7.16798">
        <ele>1485.4</ele>
        <time>2022-07-18T17:00:39Z</time>
      </trkpt>
      <trkpt lat="44.3585" lon="7.16806">
        <ele>1484</ele>
        <time>2022-07-18T17:00:40Z</time>
      </trkpt>
      <trkpt lat="44.35845" lon="7.1682">
        <ele>1482.6</ele>
        <time>2022-07-18T17:00:41Z</time>
      </trkpt>
      <trkpt lat="44.35838" lon="7.16842">
        <ele>1481.2</ele>
        <time>2022-07-18T17:00:42Z</time>
      </trkpt>
      <trkpt lat="44.35836" lon="7.16848">
        <ele>1479.8</ele>
        <time>2022-07-18T17:00:43Z</time>
      </trkpt>
      <trkpt lat="44.35832" lon="7.16862">
        <ele>1478.6</ele>
        <time>2022-07-18T17:00:44Z</time>
      </trkpt>
      <trkpt lat="44.35828" lon="7.16874">
        <ele>1477.6</ele>
        <time>2022-07-18T17:00:45Z</time>
      </trkpt>
      <trkpt lat="44.35823" lon="7.16889">
        <ele>1476.8</ele>
        <time>2022-07-18T17:00:46Z</time>
      </trkpt>
      <trkpt lat="44.35822" lon="7.16894">
        <ele>1476</ele>
        <time>2022-07-18T17:00:47Z</time>
      </trkpt>
      <trkpt lat="44.3582" lon="7.16902">
        <ele>1475.2</ele>
        <time>2022-07-18T17:00:48Z</time>
      </trkpt>
      <trkpt lat="44.35818" lon="7.16908">
        <ele>1474.6</ele>
        <time>2022-07-18T17:00:49Z</time>
      </trkpt>
      <trkpt lat="44.35815" lon="7.16913">
        <ele>1474.2</ele>
        <time>2022-07-18T17:00:50Z</time>
      </trkpt>
      <trkpt lat="44.3581" lon="7.16918">
        <ele>1473.6</ele>
        <time>2022-07-18T17:00:51Z</time>
      </trkpt>
      <trkpt lat="44.35806" lon="7.16917">
        <ele>1473.2</ele>
        <time>2022-07-18T17:00:52Z</time>
      </trkpt>
      <trkpt lat="44.35804" lon="7.16914">
        <ele>1472.8</ele>
        <time>2022-07-18T17:00:53Z</time>
      </trkpt>
      <trkpt lat="44.35803" lon="7.16907">
        <ele>1472.4</ele>
        <time>2022-07-18T17:00:54Z</time>
      </trkpt>
      <trkpt lat="44.35804" lon="7.169">
        <ele>1472</ele>
        <time>2022-07-18T17:00:55Z</time>
      </trkpt>
      <trkpt lat="44.35805" lon="7.16894">
        <ele>1471.8</ele>
        <time>2022-07-18T17:00:56Z</time>
      </trkpt>
      <trkpt lat="44.35808" lon="7.16887">
        <ele>1471.6</ele>
        <time>2022-07-18T17:00:57Z</time>
      </trkpt>
      <trkpt lat="44.35811" lon="7.16876">
        <ele>1471.2</ele>
        <time>2022-07-18T17:00:58Z</time>
      </trkpt>
      <trkpt lat="44.35812" lon="7.16873">
        <ele>1471</ele>
        <time>2022-07-18T17:00:59Z</time>
      </trkpt>
      <trkpt lat="44.35816" lon="7.16863">
        <ele>1470.8</ele>
        <time>2022-07-18T17:01:00Z</time>
      </trkpt>
      <trkpt lat="44.35817" lon="7.16859">
        <ele>1470.4</ele>
        <time>2022-07-18T17:01:01Z</time>
      </trkpt>
      <trkpt lat="44.35819" lon="7.16853">
        <ele>1470.2</ele>
        <time>2022-07-18T17:01:02Z</time>
      </trkpt>
      <trkpt lat="44.35821" lon="7.16846">
        <ele>1470</ele>
        <time>2022-07-18T17:01:03Z</time>
      </trkpt>
      <trkpt lat="44.35822" lon="7.1684">
        <ele>1470</ele>
        <time>2022-07-18T17:01:04Z</time>
      </trkpt>
      <trkpt lat="44.35819" lon="7.16833">
        <ele>1469.6</ele>
        <time>2022-07-18T17:01:05Z</time>
      </trkpt>
      <trkpt lat="44.35818" lon="7.16831">
        <ele>1469.4</ele>
        <time>2022-07-18T17:01:06Z</time>
      </trkpt>
      <trkpt lat="44.35814" lon="7.1683">
        <ele>1469</ele>
        <time>2022-07-18T17:01:07Z</time>
      </trkpt>
      <trkpt lat="44.35807" lon="7.16835">
        <ele>1468.8</ele>
        <time>2022-07-18T17:01:08Z</time>
      </trkpt>
      <trkpt lat="44.35805" lon="7.16838">
        <ele>1468.4</ele>
        <time>2022-07-18T17:01:09Z</time>
      </trkpt>
      <trkpt lat="44.35803" lon="7.16845">
        <ele>1468</ele>
        <time>2022-07-18T17:01:10Z</time>
      </trkpt>
      <trkpt lat="44.35798" lon="7.16858">
        <ele>1467.4</ele>
        <time>2022-07-18T17:01:11Z</time>
      </trkpt>
      <trkpt lat="44.35797" lon="7.16863">
        <ele>1467</ele>
        <time>2022-07-18T17:01:12Z</time>
      </trkpt>
      <trkpt lat="44.35793" lon="7.16872">
        <ele>1466.4</ele>
        <time>2022-07-18T17:01:13Z</time>
      </trkpt>
      <trkpt lat="44.3579" lon="7.1688">
        <ele>1465.8</ele>
        <time>2022-07-18T17:01:14Z</time>
      </trkpt>
      <trkpt lat="44.35786" lon="7.16889">
        <ele>1465</ele>
        <time>2022-07-18T17:01:15Z</time>
      </trkpt>
      <trkpt lat="44.35781" lon="7.16902">
        <ele>1464.4</ele>
        <time>2022-07-18T17:01:16Z</time>
      </trkpt>
      <trkpt lat="44.3578" lon="7.16906">
        <ele>1463.8</ele>
        <time>2022-07-18T17:01:17Z</time>
      </trkpt>
      <trkpt lat="44.35777" lon="7.16921">
        <ele>1463</ele>
        <time>2022-07-18T17:01:18Z</time>
      </trkpt>
      <trkpt lat="44.35776" lon="7.16927">
        <ele>1462.2</ele>
        <time>2022-07-18T17:01:19Z</time>
      </trkpt>
      <trkpt lat="44.35775" lon="7.16938">
        <ele>1461.2</ele>
        <time>2022-07-18T17:01:20Z</time>
      </trkpt>
      <trkpt lat="44.35773" lon="7.1695">
        <ele>1460.2</ele>
        <time>2022-07-18T17:01:21Z</time>
      </trkpt>
      <trkpt lat="44.35772" lon="7.16964">
        <ele>1459</ele>
        <time>2022-07-18T17:01:22Z</time>
      </trkpt>
      <trkpt lat="44.35771" lon="7.16979">
        <ele>1458</ele>
        <time>2022-07-18T17:01:23Z</time>
      </trkpt>
      <trkpt lat="44.35766" lon="7.17001">
        <ele>1456.8</ele>
        <time>2022-07-18T17:01:24Z</time>
      </trkpt>
      <trkpt lat="44.35764" lon="7.17009">
        <ele>1455.6</ele>
        <time>2022-07-18T17:01:25Z</time>
      </trkpt>
      <trkpt lat="44.35761" lon="7.17023">
        <ele>1454.4</ele>
        <time>2022-07-18T17:01:26Z</time>
      </trkpt>
      <trkpt lat="44.35757" lon="7.17038">
        <ele>1453.2</ele>
        <time>2022-07-18T17:01:27Z</time>
      </trkpt>
      <trkpt lat="44.35754" lon="7.17053">
        <ele>1451.8</ele>
        <time>2022-07-18T17:01:28Z</time>
      </trkpt>
      <trkpt lat="44.35751" lon="7.17068">
        <ele>1450.6</ele>
        <time>2022-07-18T17:01:29Z</time>
      </trkpt>
      <trkpt lat="44.35748" lon="7.17084">
        <ele>1449.2</ele>
        <time>2022-07-18T17:01:30Z</time>
      </trkpt>
      <trkpt lat="44.35745" lon="7.171">
        <ele>1448</ele>
        <time>2022-07-18T17:01:31Z</time>
      </trkpt>
      <trkpt lat="44.35743" lon="7.17113">
        <ele>1447</ele>
        <time>2022-07-18T17:01:32Z</time>
      </trkpt>
      <trkpt lat="44.35739" lon="7.17132">
        <ele>1446</ele>
        <time>2022-07-18T17:01:33Z</time>
      </trkpt>
      <trkpt lat="44.35737" lon="7.17137">
        <ele>1445.2</ele>
        <time>2022-07-18T17:01:34Z</time>
      </trkpt>
      <trkpt lat="44.35731" lon="7.17152">
        <ele>1444.6</ele>
        <time>2022-07-18T17:01:35Z</time>
      </trkpt>
      <trkpt lat="44.35728" lon="7.17157">
        <ele>1444.2</ele>
        <time>2022-07-18T17:01:36Z</time>
      </trkpt>
      <trkpt lat="44.3572" lon="7.17168">
        <ele>1443.6</ele>
        <time>2022-07-18T17:01:37Z</time>
      </trkpt>
      <trkpt lat="44.35716" lon="7.17172">
        <ele>1442.8</ele>
        <time>2022-07-18T17:01:38Z</time>
      </trkpt>
      <trkpt lat="44.35708" lon="7.17178">
        <ele>1442</ele>
        <time>2022-07-18T17:01:39Z</time>
      </trkpt>
      <trkpt lat="44.357" lon="7.17185">
        <ele>1441.2</ele>
        <time>2022-07-18T17:01:40Z</time>
      </trkpt>
      <trkpt lat="44.35687" lon="7.17197">
        <ele>1440.4</ele>
        <time>2022-07-18T17:01:41Z</time>
      </trkpt>
      <trkpt lat="44.35683" lon="7.17202">
        <ele>1439.8</ele>
        <time>2022-07-18T17:01:42Z</time>
      </trkpt>
      <trkpt lat="44.35675" lon="7.17211">
        <ele>1439.2</ele>
        <time>2022-07-18T17:01:43Z</time>
      </trkpt>
      <trkpt lat="44.35667" lon="7.17221">
        <ele>1438.4</ele>
        <time>2022-07-18T17:01:44Z</time>
      </trkpt>
      <trkpt lat="44.35654" lon="7.17234">
        <ele>1437.8</ele>
        <time>2022-07-18T17:01:45Z</time>
      </trkpt>
      <trkpt lat="44.35649" lon="7.17237">
        <ele>1437.2</ele>
        <time>2022-07-18T17:01:46Z</time>
      </trkpt>
      <trkpt lat="44.35634" lon="7.17248">
        <ele>1436.4</ele>
        <time>2022-07-18T17:01:47Z</time>
      </trkpt>
      <trkpt lat="44.3563" lon="7.17253">
        <ele>1435.8</ele>
        <time>2022-07-18T17:01:48Z</time>
      </trkpt>
      <trkpt lat="44.35621" lon="7.17261">
        <ele>1435.4</ele>
        <time>2022-07-18T17:01:49Z</time>
      </trkpt>
      <trkpt lat="44.35607" lon="7.17275">
        <ele>1435.4</ele>
        <time>2022-07-18T17:01:50Z</time>
      </trkpt>
      <trkpt lat="44.35603" lon="7.17279">
        <ele>1434.8</ele>
        <time>2022-07-18T17:01:51Z</time>
      </trkpt>
      <trkpt lat="44.3559" lon="7.1729">
        <ele>1434.4</ele>
        <time>2022-07-18T17:01:52Z</time>
      </trkpt>
      <trkpt lat="44.35586" lon="7.17294">
        <ele>1434</ele>
        <time>2022-07-18T17:01:53Z</time>
      </trkpt>
      <trkpt lat="44.35579" lon="7.173">
        <ele>1433.8</ele>
        <time>2022-07-18T17:01:54Z</time>
      </trkpt>
      <trkpt lat="44.35573" lon="7.17307">
        <ele>1433.8</ele>
        <time>2022-07-18T17:01:55Z</time>
      </trkpt>
      <trkpt lat="44.35568" lon="7.17315">
        <ele>1433.8</ele>
        <time>2022-07-18T17:01:56Z</time>
      </trkpt>
      <trkpt lat="44.35563" lon="7.17323">
        <ele>1433.6</ele>
        <time>2022-07-18T17:01:57Z</time>
      </trkpt>
      <trkpt lat="44.35556" lon="7.17336">
        <ele>1433.6</ele>
        <time>2022-07-18T17:01:58Z</time>
      </trkpt>
      <trkpt lat="44.35553" lon="7.1734">
        <ele>1433.6</ele>
        <time>2022-07-18T17:01:59Z</time>
      </trkpt>
      <trkpt lat="44.35548" lon="7.17347">
        <ele>1433.6</ele>
        <time>2022-07-18T17:02:00Z</time>
      </trkpt>
      <trkpt lat="44.35542" lon="7.17354">
        <ele>1433.6</ele>
        <time>2022-07-18T17:02:01Z</time>
      </trkpt>
      <trkpt lat="44.35536" lon="7.17361">
        <ele>1433.6</ele>
        <time>2022-07-18T17:02:02Z</time>
      </trkpt>
      <trkpt lat="44.35529" lon="7.17371">
        <ele>1434</ele>
        <time>2022-07-18T17:02:03Z</time>
      </trkpt>
      <trkpt lat="44.35527" lon="7.17375">
        <ele>1434</ele>
        <time>2022-07-18T17:02:04Z</time>
      </trkpt>
      <trkpt lat="44.35522" lon="7.17382">
        <ele>1434</ele>
        <time>2022-07-18T17:02:05Z</time>
      </trkpt>
      <trkpt lat="44.35518" lon="7.17389">
        <ele>1434</ele>
        <time>2022-07-18T17:02:06Z</time>
      </trkpt>
      <trkpt lat="44.35514" lon="7.17396">
        <ele>1434</ele>
        <time>2022-07-18T17:02:07Z</time>
      </trkpt>
      <trkpt lat="44.35508" lon="7.17407">
        <ele>1434</ele>
        <time>2022-07-18T17:02:08Z</time>
      </trkpt>
      <trkpt lat="44.35506" lon="7.17411">
        <ele>1434</ele>
        <time>2022-07-18T17:02:09Z</time>
      </trkpt>
      <trkpt lat="44.355" lon="7.17421">
        <ele>1434</ele>
        <time>2022-07-18T17:02:10Z</time>
      </trkpt>
      <trkpt lat="44.35498" lon="7.17424">
        <ele>1434</ele>
        <time>2022-07-18T17:02:11Z</time>
      </trkpt>
      <trkpt lat="44.35493" lon="7.17431">
        <ele>1434</ele>
        <time>2022-07-18T17:02:12Z</time>
      </trkpt>
      <trkpt lat="44.35489" lon="7.17437">
        <ele>1434</ele>
        <time>2022-07-18T17:02:13Z</time>
      </trkpt>
      <trkpt lat="44.35485" lon="7.17443">
        <ele>1434</ele>
        <time>2022-07-18T17:02:14Z</time>
      </trkpt>
      <trkpt lat="44.3548" lon="7.17453">
        <ele>1434</ele>
        <time>2022-07-18T17:02:15Z</time>
      </trkpt>
      <trkpt lat="44.35478" lon="7.17456">
        <ele>1433.8</ele>
        <time>2022-07-18T17:02:16Z</time>
      </trkpt>
      <trkpt lat="44.35475" lon="7.17462">
        <ele>1433.8</ele>
        <time>2022-07-18T17:02:17Z</time>
      </trkpt>
      <trkpt lat="44.35471" lon="7.1747">
        <ele>1433.8</ele>
        <time>2022-07-18T17:02:18Z</time>
      </trkpt>
      <trkpt lat="44.35467" lon="7.1748">
        <ele>1433.8</ele>
        <time>2022-07-18T17:02:19Z</time>
      </trkpt>
      <trkpt lat="44.35465" lon="7.17484">
        <ele>1433.4</ele>
        <time>2022-07-18T17:02:20Z</time>
      </trkpt>
      <trkpt lat="44.35462" lon="7.17492">
        <ele>1433.2</ele>
        <time>2022-07-18T17:02:21Z</time>
      </trkpt>
      <trkpt lat="44.35456" lon="7.17501">
        <ele>1433.2</ele>
        <time>2022-07-18T17:02:22Z</time>
      </trkpt>
      <trkpt lat="44.35454" lon="7.17504">
        <ele>1432.8</ele>
        <time>2022-07-18T17:02:23Z</time>
      </trkpt>
      <trkpt lat="44.3545" lon="7.1751">
        <ele>1432.8</ele>
        <time>2022-07-18T17:02:24Z</time>
      </trkpt>
      <trkpt lat="44.35445" lon="7.17516">
        <ele>1432.6</ele>
        <time>2022-07-18T17:02:25Z</time>
      </trkpt>
      <trkpt lat="44.35437" lon="7.17526">
        <ele>1432.2</ele>
        <time>2022-07-18T17:02:26Z</time>
      </trkpt>
      <trkpt lat="44.35434" lon="7.1753">
        <ele>1431.6</ele>
        <time>2022-07-18T17:02:27Z</time>
      </trkpt>
      <trkpt lat="44.35426" lon="7.17543">
        <ele>1431.2</ele>
        <time>2022-07-18T17:02:28Z</time>
      </trkpt>
      <trkpt lat="44.35424" lon="7.17547">
        <ele>1430.6</ele>
        <time>2022-07-18T17:02:29Z</time>
      </trkpt>
      <trkpt lat="44.35419" lon="7.17556">
        <ele>1430.2</ele>
        <time>2022-07-18T17:02:30Z</time>
      </trkpt>
      <trkpt lat="44.35413" lon="7.17566">
        <ele>1429.6</ele>
        <time>2022-07-18T17:02:31Z</time>
      </trkpt>
      <trkpt lat="44.35408" lon="7.17575">
        <ele>1429</ele>
        <time>2022-07-18T17:02:32Z</time>
      </trkpt>
      <trkpt lat="44.35403" lon="7.17583">
        <ele>1428.4</ele>
        <time>2022-07-18T17:02:33Z</time>
      </trkpt>
      <trkpt lat="44.35394" lon="7.17595">
        <ele>1428</ele>
        <time>2022-07-18T17:02:34Z</time>
      </trkpt>
      <trkpt lat="44.35391" lon="7.17599">
        <ele>1427.4</ele>
        <time>2022-07-18T17:02:35Z</time>
      </trkpt>
      <trkpt lat="44.35384" lon="7.17606">
        <ele>1426.8</ele>
        <time>2022-07-18T17:02:36Z</time>
      </trkpt>
      <trkpt lat="44.35377" lon="7.17613">
        <ele>1426.2</ele>
        <time>2022-07-18T17:02:37Z</time>
      </trkpt>
      <trkpt lat="44.3537" lon="7.1762">
        <ele>1425.6</ele>
        <time>2022-07-18T17:02:38Z</time>
      </trkpt>
      <trkpt lat="44.35363" lon="7.17627">
        <ele>1425</ele>
        <time>2022-07-18T17:02:39Z</time>
      </trkpt>
      <trkpt lat="44.35354" lon="7.17637">
        <ele>1424.6</ele>
        <time>2022-07-18T17:02:40Z</time>
      </trkpt>
      <trkpt lat="44.3535" lon="7.17641">
        <ele>1424.2</ele>
        <time>2022-07-18T17:02:41Z</time>
      </trkpt>
      <trkpt lat="44.35341" lon="7.17652">
        <ele>1423.6</ele>
        <time>2022-07-18T17:02:42Z</time>
      </trkpt>
      <trkpt lat="44.35338" lon="7.17656">
        <ele>1423.2</ele>
        <time>2022-07-18T17:02:43Z</time>
      </trkpt>
      <trkpt lat="44.35333" lon="7.17665">
        <ele>1422.4</ele>
        <time>2022-07-18T17:02:44Z</time>
      </trkpt>
      <trkpt lat="44.35325" lon="7.17682">
        <ele>1421.6</ele>
        <time>2022-07-18T17:02:45Z</time>
      </trkpt>
      <trkpt lat="44.35322" lon="7.17688">
        <ele>1420.8</ele>
        <time>2022-07-18T17:02:46Z</time>
      </trkpt>
      <trkpt lat="44.35317" lon="7.17702">
        <ele>1419.8</ele>
        <time>2022-07-18T17:02:47Z</time>
      </trkpt>
      <trkpt lat="44.35309" lon="7.17722">
        <ele>1418.8</ele>
        <time>2022-07-18T17:02:48Z</time>
      </trkpt>
      <trkpt lat="44.35307" lon="7.17729">
        <ele>1417.8</ele>
        <time>2022-07-18T17:02:49Z</time>
      </trkpt>
      <trkpt lat="44.35302" lon="7.17743">
        <ele>1416.8</ele>
        <time>2022-07-18T17:02:50Z</time>
      </trkpt>
      <trkpt lat="44.35297" lon="7.17758">
        <ele>1415.6</ele>
        <time>2022-07-18T17:02:51Z</time>
      </trkpt>
      <trkpt lat="44.35289" lon="7.17779">
        <ele>1414.6</ele>
        <time>2022-07-18T17:02:52Z</time>
      </trkpt>
      <trkpt lat="44.35286" lon="7.17786">
        <ele>1413.6</ele>
        <time>2022-07-18T17:02:53Z</time>
      </trkpt>
      <trkpt lat="44.3528" lon="7.17801">
        <ele>1412.6</ele>
        <time>2022-07-18T17:02:54Z</time>
      </trkpt>
      <trkpt lat="44.35275" lon="7.17817">
        <ele>1411.4</ele>
        <time>2022-07-18T17:02:55Z</time>
      </trkpt>
      <trkpt lat="44.35268" lon="7.17832">
        <ele>1410.2</ele>
        <time>2022-07-18T17:02:56Z</time>
      </trkpt>
      <trkpt lat="44.3526" lon="7.17847">
        <ele>1408.8</ele>
        <time>2022-07-18T17:02:57Z</time>
      </trkpt>
      <trkpt lat="44.35248" lon="7.17868">
        <ele>1407.6</ele>
        <time>2022-07-18T17:02:58Z</time>
      </trkpt>
      <trkpt lat="44.35243" lon="7.17875">
        <ele>1406.2</ele>
        <time>2022-07-18T17:02:59Z</time>
      </trkpt>
      <trkpt lat="44.35235" lon="7.1789">
        <ele>1405</ele>
        <time>2022-07-18T17:03:00Z</time>
      </trkpt>
      <trkpt lat="44.35228" lon="7.17906">
        <ele>1403.6</ele>
        <time>2022-07-18T17:03:01Z</time>
      </trkpt>
      <trkpt lat="44.35218" lon="7.17932">
        <ele>1402.4</ele>
        <time>2022-07-18T17:03:02Z</time>
      </trkpt>
      <trkpt lat="44.35214" lon="7.1794">
        <ele>1401.4</ele>
        <time>2022-07-18T17:03:03Z</time>
      </trkpt>
      <trkpt lat="44.35204" lon="7.17966">
        <ele>1400.2</ele>
        <time>2022-07-18T17:03:04Z</time>
      </trkpt>
      <trkpt lat="44.352" lon="7.17974">
        <ele>1399</ele>
        <time>2022-07-18T17:03:05Z</time>
      </trkpt>
      <trkpt lat="44.35192" lon="7.1799">
        <ele>1398</ele>
        <time>2022-07-18T17:03:06Z</time>
      </trkpt>
      <trkpt lat="44.35185" lon="7.18006">
        <ele>1397</ele>
        <time>2022-07-18T17:03:07Z</time>
      </trkpt>
      <trkpt lat="44.35177" lon="7.18021">
        <ele>1396.2</ele>
        <time>2022-07-18T17:03:08Z</time>
      </trkpt>
      <trkpt lat="44.3517" lon="7.18035">
        <ele>1395.4</ele>
        <time>2022-07-18T17:03:09Z</time>
      </trkpt>
      <trkpt lat="44.35159" lon="7.18055">
        <ele>1394.8</ele>
        <time>2022-07-18T17:03:10Z</time>
      </trkpt>
      <trkpt lat="44.35156" lon="7.18061">
        <ele>1394</ele>
        <time>2022-07-18T17:03:11Z</time>
      </trkpt>
      <trkpt lat="44.35149" lon="7.18073">
        <ele>1393.4</ele>
        <time>2022-07-18T17:03:12Z</time>
      </trkpt>
      <trkpt lat="44.35142" lon="7.18083">
        <ele>1392.8</ele>
        <time>2022-07-18T17:03:13Z</time>
      </trkpt>
      <trkpt lat="44.35136" lon="7.18091">
        <ele>1392.2</ele>
        <time>2022-07-18T17:03:14Z</time>
      </trkpt>
      <trkpt lat="44.3513" lon="7.18101">
        <ele>1391.6</ele>
        <time>2022-07-18T17:03:15Z</time>
      </trkpt>
      <trkpt lat="44.35121" lon="7.18117">
        <ele>1391</ele>
        <time>2022-07-18T17:03:16Z</time>
      </trkpt>
      <trkpt lat="44.35118" lon="7.18122">
        <ele>1390.2</ele>
        <time>2022-07-18T17:03:17Z</time>
      </trkpt>
      <trkpt lat="44.35111" lon="7.18139">
        <ele>1389.4</ele>
        <time>2022-07-18T17:03:18Z</time>
      </trkpt>
      <trkpt lat="44.35109" lon="7.18143">
        <ele>1388.6</ele>
        <time>2022-07-18T17:03:19Z</time>
      </trkpt>
      <trkpt lat="44.35105" lon="7.18153">
        <ele>1388</ele>
        <time>2022-07-18T17:03:20Z</time>
      </trkpt>
      <trkpt lat="44.35102" lon="7.18171">
        <ele>1387.2</ele>
        <time>2022-07-18T17:03:21Z</time>
      </trkpt>
      <trkpt lat="44.35102" lon="7.18179">
        <ele>1386.2</ele>
        <time>2022-07-18T17:03:22Z</time>
      </trkpt>
      <trkpt lat="44.35099" lon="7.18201">
        <ele>1385.2</ele>
        <time>2022-07-18T17:03:23Z</time>
      </trkpt>
      <trkpt lat="44.35098" lon="7.18208">
        <ele>1384.2</ele>
        <time>2022-07-18T17:03:24Z</time>
      </trkpt>
      <trkpt lat="44.35096" lon="7.18223">
        <ele>1383.2</ele>
        <time>2022-07-18T17:03:25Z</time>
      </trkpt>
      <trkpt lat="44.35089" lon="7.18244">
        <ele>1382.2</ele>
        <time>2022-07-18T17:03:26Z</time>
      </trkpt>
      <trkpt lat="44.35086" lon="7.1825">
        <ele>1381.2</ele>
        <time>2022-07-18T17:03:27Z</time>
      </trkpt>
      <trkpt lat="44.3508" lon="7.18263">
        <ele>1380.4</ele>
        <time>2022-07-18T17:03:28Z</time>
      </trkpt>
      <trkpt lat="44.3507" lon="7.18279">
        <ele>1379.6</ele>
        <time>2022-07-18T17:03:29Z</time>
      </trkpt>
      <trkpt lat="44.35066" lon="7.18284">
        <ele>1378.6</ele>
        <time>2022-07-18T17:03:30Z</time>
      </trkpt>
      <trkpt lat="44.35058" lon="7.18295">
        <ele>1377.8</ele>
        <time>2022-07-18T17:03:31Z</time>
      </trkpt>
      <trkpt lat="44.35051" lon="7.18305">
        <ele>1377</ele>
        <time>2022-07-18T17:03:32Z</time>
      </trkpt>
      <trkpt lat="44.35043" lon="7.18315">
        <ele>1376.4</ele>
        <time>2022-07-18T17:03:33Z</time>
      </trkpt>
      <trkpt lat="44.35035" lon="7.18324">
        <ele>1376</ele>
        <time>2022-07-18T17:03:34Z</time>
      </trkpt>
      <trkpt lat="44.35029" lon="7.18333">
        <ele>1375.4</ele>
        <time>2022-07-18T17:03:35Z</time>
      </trkpt>
      <trkpt lat="44.35022" lon="7.18342">
        <ele>1375</ele>
        <time>2022-07-18T17:03:36Z</time>
      </trkpt>
      <trkpt lat="44.35016" lon="7.18349">
        <ele>1374.4</ele>
        <time>2022-07-18T17:03:37Z</time>
      </trkpt>
      <trkpt lat="44.3501" lon="7.18356">
        <ele>1374</ele>
        <time>2022-07-18T17:03:38Z</time>
      </trkpt>
      <trkpt lat="44.35002" lon="7.18371">
        <ele>1373.6</ele>
        <time>2022-07-18T17:03:39Z</time>
      </trkpt>
      <trkpt lat="44.35" lon="7.18376">
        <ele>1373</ele>
        <time>2022-07-18T17:03:40Z</time>
      </trkpt>
      <trkpt lat="44.34995" lon="7.18388">
        <ele>1372.6</ele>
        <time>2022-07-18T17:03:41Z</time>
      </trkpt>
      <trkpt lat="44.34991" lon="7.18408">
        <ele>1372</ele>
        <time>2022-07-18T17:03:42Z</time>
      </trkpt>
      <trkpt lat="44.34989" lon="7.18415">
        <ele>1371.6</ele>
        <time>2022-07-18T17:03:43Z</time>
      </trkpt>
      <trkpt lat="44.34986" lon="7.18428">
        <ele>1371.4</ele>
        <time>2022-07-18T17:03:44Z</time>
      </trkpt>
      <trkpt lat="44.34982" lon="7.18447">
        <ele>1371</ele>
        <time>2022-07-18T17:03:45Z</time>
      </trkpt>
      <trkpt lat="44.3498" lon="7.18452">
        <ele>1370.4</ele>
        <time>2022-07-18T17:03:46Z</time>
      </trkpt>
      <trkpt lat="44.34976" lon="7.18464">
        <ele>1370</ele>
        <time>2022-07-18T17:03:47Z</time>
      </trkpt>
      <trkpt lat="44.3497" lon="7.18484">
        <ele>1369.4</ele>
        <time>2022-07-18T17:03:48Z</time>
      </trkpt>
      <trkpt lat="44.34968" lon="7.18491">
        <ele>1368.8</ele>
        <time>2022-07-18T17:03:49Z</time>
      </trkpt>
      <trkpt lat="44.34964" lon="7.18506">
        <ele>1367.8</ele>
        <time>2022-07-18T17:03:50Z</time>
      </trkpt>
      <trkpt lat="44.34958" lon="7.18521">
        <ele>1367</ele>
        <time>2022-07-18T17:03:51Z</time>
      </trkpt>
      <trkpt lat="44.34949" lon="7.18543">
        <ele>1366</ele>
        <time>2022-07-18T17:03:52Z</time>
      </trkpt>
      <trkpt lat="44.34946" lon="7.18551">
        <ele>1365</ele>
        <time>2022-07-18T17:03:53Z</time>
      </trkpt>
      <trkpt lat="44.34939" lon="7.18566">
        <ele>1364.2</ele>
        <time>2022-07-18T17:03:54Z</time>
      </trkpt>
      <trkpt lat="44.34932" lon="7.18589">
        <ele>1363.2</ele>
        <time>2022-07-18T17:03:55Z</time>
      </trkpt>
      <trkpt lat="44.3493" lon="7.18596">
        <ele>1362.4</ele>
        <time>2022-07-18T17:03:56Z</time>
      </trkpt>
      <trkpt lat="44.34924" lon="7.18617">
        <ele>1361.6</ele>
        <time>2022-07-18T17:03:57Z</time>
      </trkpt>
      <trkpt lat="44.34922" lon="7.18623">
        <ele>1361.2</ele>
        <time>2022-07-18T17:03:58Z</time>
      </trkpt>
      <trkpt lat="44.34918" lon="7.18635">
        <ele>1360.6</ele>
        <time>2022-07-18T17:03:59Z</time>
      </trkpt>
      <trkpt lat="44.34912" lon="7.18646">
        <ele>1360.2</ele>
        <time>2022-07-18T17:04:00Z</time>
      </trkpt>
      <trkpt lat="44.34902" lon="7.18662">
        <ele>1359.6</ele>
        <time>2022-07-18T17:04:01Z</time>
      </trkpt>
      <trkpt lat="44.34898" lon="7.18666">
        <ele>1359</ele>
        <time>2022-07-18T17:04:02Z</time>
      </trkpt>
      <trkpt lat="44.3489" lon="7.18675">
        <ele>1358.2</ele>
        <time>2022-07-18T17:04:03Z</time>
      </trkpt>
      <trkpt lat="44.3488" lon="7.18684">
        <ele>1357.6</ele>
        <time>2022-07-18T17:04:04Z</time>
      </trkpt>
      <trkpt lat="44.34867" lon="7.18699">
        <ele>1357.2</ele>
        <time>2022-07-18T17:04:05Z</time>
      </trkpt>
      <trkpt lat="44.34863" lon="7.18705">
        <ele>1356.6</ele>
        <time>2022-07-18T17:04:06Z</time>
      </trkpt>
      <trkpt lat="44.34856" lon="7.18716">
        <ele>1356.2</ele>
        <time>2022-07-18T17:04:07Z</time>
      </trkpt>
      <trkpt lat="44.34846" lon="7.18735">
        <ele>1355.8</ele>
        <time>2022-07-18T17:04:08Z</time>
      </trkpt>
      <trkpt lat="44.34843" lon="7.1874">
        <ele>1355.4</ele>
        <time>2022-07-18T17:04:09Z</time>
      </trkpt>
      <trkpt lat="44.34835" lon="7.18756">
        <ele>1355.4</ele>
        <time>2022-07-18T17:04:10Z</time>
      </trkpt>
      <trkpt lat="44.34832" lon="7.18761">
        <ele>1355</ele>
        <time>2022-07-18T17:04:11Z</time>
      </trkpt>
      <trkpt lat="44.34823" lon="7.18775">
        <ele>1354.8</ele>
        <time>2022-07-18T17:04:12Z</time>
      </trkpt>
      <trkpt lat="44.3482" lon="7.1878">
        <ele>1354.2</ele>
        <time>2022-07-18T17:04:13Z</time>
      </trkpt>
      <trkpt lat="44.34814" lon="7.18791">
        <ele>1353.8</ele>
        <time>2022-07-18T17:04:14Z</time>
      </trkpt>
      <trkpt lat="44.34807" lon="7.18806">
        <ele>1353.2</ele>
        <time>2022-07-18T17:04:15Z</time>
      </trkpt>
      <trkpt lat="44.34805" lon="7.18811">
        <ele>1352.6</ele>
        <time>2022-07-18T17:04:16Z</time>
      </trkpt>
      <trkpt lat="44.34801" lon="7.18824">
        <ele>1352</ele>
        <time>2022-07-18T17:04:17Z</time>
      </trkpt>
      <trkpt lat="44.34797" lon="7.18845">
        <ele>1351.2</ele>
        <time>2022-07-18T17:04:18Z</time>
      </trkpt>
      <trkpt lat="44.34792" lon="7.1887">
        <ele>1350.6</ele>
        <time>2022-07-18T17:04:19Z</time>
      </trkpt>
      <trkpt lat="44.34791" lon="7.18873">
        <ele>1349.6</ele>
        <time>2022-07-18T17:04:20Z</time>
      </trkpt>
      <trkpt lat="44.34789" lon="7.1888">
        <ele>1348.8</ele>
        <time>2022-07-18T17:04:21Z</time>
      </trkpt>
      <trkpt lat="44.34784" lon="7.18902">
        <ele>1347.8</ele>
        <time>2022-07-18T17:04:22Z</time>
      </trkpt>
      <trkpt lat="44.34782" lon="7.18909">
        <ele>1347</ele>
        <time>2022-07-18T17:04:23Z</time>
      </trkpt>
      <trkpt lat="44.34779" lon="7.18924">
        <ele>1346.2</ele>
        <time>2022-07-18T17:04:24Z</time>
      </trkpt>
      <trkpt lat="44.34777" lon="7.18937">
        <ele>1345.4</ele>
        <time>2022-07-18T17:04:25Z</time>
      </trkpt>
      <trkpt lat="44.34774" lon="7.18955">
        <ele>1344.6</ele>
        <time>2022-07-18T17:04:26Z</time>
      </trkpt>
      <trkpt lat="44.34774" lon="7.18961">
        <ele>1344</ele>
        <time>2022-07-18T17:04:27Z</time>
      </trkpt>
      <trkpt lat="44.34773" lon="7.18979">
        <ele>1343.4</ele>
        <time>2022-07-18T17:04:28Z</time>
      </trkpt>
      <trkpt lat="44.34772" lon="7.18984">
        <ele>1342.6</ele>
        <time>2022-07-18T17:04:29Z</time>
      </trkpt>
      <trkpt lat="44.34771" lon="7.18996">
        <ele>1341.8</ele>
        <time>2022-07-18T17:04:30Z</time>
      </trkpt>
      <trkpt lat="44.34769" lon="7.19009">
        <ele>1340.8</ele>
        <time>2022-07-18T17:04:31Z</time>
      </trkpt>
      <trkpt lat="44.34764" lon="7.1903">
        <ele>1339.8</ele>
        <time>2022-07-18T17:04:32Z</time>
      </trkpt>
      <trkpt lat="44.34763" lon="7.19037">
        <ele>1338.8</ele>
        <time>2022-07-18T17:04:33Z</time>
      </trkpt>
      <trkpt lat="44.3476" lon="7.19052">
        <ele>1337.6</ele>
        <time>2022-07-18T17:04:34Z</time>
      </trkpt>
      <trkpt lat="44.34757" lon="7.19067">
        <ele>1336.4</ele>
        <time>2022-07-18T17:04:35Z</time>
      </trkpt>
      <trkpt lat="44.34756" lon="7.19082">
        <ele>1335</ele>
        <time>2022-07-18T17:04:36Z</time>
      </trkpt>
      <trkpt lat="44.34755" lon="7.19095">
        <ele>1333.8</ele>
        <time>2022-07-18T17:04:37Z</time>
      </trkpt>
      <trkpt lat="44.34753" lon="7.19108">
        <ele>1332.6</ele>
        <time>2022-07-18T17:04:38Z</time>
      </trkpt>
      <trkpt lat="44.34751" lon="7.19121">
        <ele>1331.6</ele>
        <time>2022-07-18T17:04:39Z</time>
      </trkpt>
      <trkpt lat="44.34748" lon="7.19136">
        <ele>1330.2</ele>
        <time>2022-07-18T17:04:40Z</time>
      </trkpt>
      <trkpt lat="44.34741" lon="7.1916">
        <ele>1329</ele>
        <time>2022-07-18T17:04:41Z</time>
      </trkpt>
      <trkpt lat="44.3474" lon="7.19168">
        <ele>1327.8</ele>
        <time>2022-07-18T17:04:42Z</time>
      </trkpt>
      <trkpt lat="44.34736" lon="7.19185">
        <ele>1326.6</ele>
        <time>2022-07-18T17:04:43Z</time>
      </trkpt>
      <trkpt lat="44.34732" lon="7.1921">
        <ele>1325.4</ele>
        <time>2022-07-18T17:04:44Z</time>
      </trkpt>
      <trkpt lat="44.3473" lon="7.19218">
        <ele>1324.6</ele>
        <time>2022-07-18T17:04:45Z</time>
      </trkpt>
      <trkpt lat="44.34727" lon="7.19235">
        <ele>1323.6</ele>
        <time>2022-07-18T17:04:46Z</time>
      </trkpt>
      <trkpt lat="44.34724" lon="7.19251">
        <ele>1322.6</ele>
        <time>2022-07-18T17:04:47Z</time>
      </trkpt>
      <trkpt lat="44.34721" lon="7.19268">
        <ele>1321.4</ele>
        <time>2022-07-18T17:04:48Z</time>
      </trkpt>
      <trkpt lat="44.34717" lon="7.19293">
        <ele>1320.2</ele>
        <time>2022-07-18T17:04:49Z</time>
      </trkpt>
      <trkpt lat="44.34716" lon="7.19302">
        <ele>1319.2</ele>
        <time>2022-07-18T17:04:50Z</time>
      </trkpt>
      <trkpt lat="44.34713" lon="7.19329">
        <ele>1318.2</ele>
        <time>2022-07-18T17:04:51Z</time>
      </trkpt>
      <trkpt lat="44.34712" lon="7.19338">
        <ele>1317.4</ele>
        <time>2022-07-18T17:04:52Z</time>
      </trkpt>
      <trkpt lat="44.34709" lon="7.19365">
        <ele>1316.4</ele>
        <time>2022-07-18T17:04:53Z</time>
      </trkpt>
      <trkpt lat="44.34708" lon="7.19374">
        <ele>1315.4</ele>
        <time>2022-07-18T17:04:54Z</time>
      </trkpt>
      <trkpt lat="44.34706" lon="7.19391">
        <ele>1314.6</ele>
        <time>2022-07-18T17:04:55Z</time>
      </trkpt>
      <trkpt lat="44.34704" lon="7.19406">
        <ele>1313.8</ele>
        <time>2022-07-18T17:04:56Z</time>
      </trkpt>
      <trkpt lat="44.34702" lon="7.19423">
        <ele>1312.8</ele>
        <time>2022-07-18T17:04:57Z</time>
      </trkpt>
      <trkpt lat="44.347" lon="7.19439">
        <ele>1312</ele>
        <time>2022-07-18T17:04:58Z</time>
      </trkpt>
      <trkpt lat="44.34698" lon="7.19463">
        <ele>1311.2</ele>
        <time>2022-07-18T17:04:59Z</time>
      </trkpt>
      <trkpt lat="44.34697" lon="7.1947">
        <ele>1310.6</ele>
        <time>2022-07-18T17:05:00Z</time>
      </trkpt>
      <trkpt lat="44.34694" lon="7.19492">
        <ele>1309.8</ele>
        <time>2022-07-18T17:05:01Z</time>
      </trkpt>
      <trkpt lat="44.34693" lon="7.19499">
        <ele>1309</ele>
        <time>2022-07-18T17:05:02Z</time>
      </trkpt>
      <trkpt lat="44.3469" lon="7.19514">
        <ele>1308.2</ele>
        <time>2022-07-18T17:05:03Z</time>
      </trkpt>
      <trkpt lat="44.34689" lon="7.19525">
        <ele>1307.6</ele>
        <time>2022-07-18T17:05:04Z</time>
      </trkpt>
      <trkpt lat="44.34688" lon="7.19542">
        <ele>1306.8</ele>
        <time>2022-07-18T17:05:05Z</time>
      </trkpt>
      <trkpt lat="44.34688" lon="7.19547">
        <ele>1306</ele>
        <time>2022-07-18T17:05:06Z</time>
      </trkpt>
      <trkpt lat="44.34687" lon="7.1956">
        <ele>1305.4</ele>
        <time>2022-07-18T17:05:07Z</time>
      </trkpt>
      <trkpt lat="44.34687" lon="7.19564">
        <ele>1305</ele>
        <time>2022-07-18T17:05:08Z</time>
      </trkpt>
      <trkpt lat="44.34684" lon="7.19569">
        <ele>1304.4</ele>
        <time>2022-07-18T17:05:09Z</time>
      </trkpt>
      <trkpt lat="44.34679" lon="7.1957">
        <ele>1304</ele>
        <time>2022-07-18T17:05:10Z</time>
      </trkpt>
      <trkpt lat="44.34672" lon="7.19565">
        <ele>1303.4</ele>
        <time>2022-07-18T17:05:11Z</time>
      </trkpt>
      <trkpt lat="44.3467" lon="7.19562">
        <ele>1303</ele>
        <time>2022-07-18T17:05:12Z</time>
      </trkpt>
      <trkpt lat="44.34668" lon="7.19555">
        <ele>1302.4</ele>
        <time>2022-07-18T17:05:13Z</time>
      </trkpt>
      <trkpt lat="44.34666" lon="7.19546">
        <ele>1302</ele>
        <time>2022-07-18T17:05:14Z</time>
      </trkpt>
      <trkpt lat="44.34664" lon="7.19536">
        <ele>1301.4</ele>
        <time>2022-07-18T17:05:15Z</time>
      </trkpt>
      <trkpt lat="44.34661" lon="7.19521">
        <ele>1300.8</ele>
        <time>2022-07-18T17:05:16Z</time>
      </trkpt>
      <trkpt lat="44.3466" lon="7.19516">
        <ele>1300.2</ele>
        <time>2022-07-18T17:05:17Z</time>
      </trkpt>
      <trkpt lat="44.34657" lon="7.19504">
        <ele>1299.6</ele>
        <time>2022-07-18T17:05:18Z</time>
      </trkpt>
      <trkpt lat="44.34655" lon="7.19492">
        <ele>1298.8</ele>
        <time>2022-07-18T17:05:19Z</time>
      </trkpt>
      <trkpt lat="44.34652" lon="7.19479">
        <ele>1298.2</ele>
        <time>2022-07-18T17:05:20Z</time>
      </trkpt>
      <trkpt lat="44.34651" lon="7.1947">
        <ele>1297.6</ele>
        <time>2022-07-18T17:05:21Z</time>
      </trkpt>
      <trkpt lat="44.34649" lon="7.19461">
        <ele>1297.2</ele>
        <time>2022-07-18T17:05:22Z</time>
      </trkpt>
      <trkpt lat="44.34648" lon="7.19454">
        <ele>1296.6</ele>
        <time>2022-07-18T17:05:23Z</time>
      </trkpt>
      <trkpt lat="44.34644" lon="7.1945">
        <ele>1296.4</ele>
        <time>2022-07-18T17:05:24Z</time>
      </trkpt>
      <trkpt lat="44.34642" lon="7.19451">
        <ele>1296</ele>
        <time>2022-07-18T17:05:25Z</time>
      </trkpt>
      <trkpt lat="44.3464" lon="7.19456">
        <ele>1295.6</ele>
        <time>2022-07-18T17:05:26Z</time>
      </trkpt>
      <trkpt lat="44.34638" lon="7.19463">
        <ele>1295.2</ele>
        <time>2022-07-18T17:05:27Z</time>
      </trkpt>
      <trkpt lat="44.34637" lon="7.19472">
        <ele>1294.8</ele>
        <time>2022-07-18T17:05:28Z</time>
      </trkpt>
      <trkpt lat="44.34637" lon="7.19488">
        <ele>1294.4</ele>
        <time>2022-07-18T17:05:29Z</time>
      </trkpt>
      <trkpt lat="44.34636" lon="7.19494">
        <ele>1293.8</ele>
        <time>2022-07-18T17:05:30Z</time>
      </trkpt>
      <trkpt lat="44.34636" lon="7.19506">
        <ele>1293</ele>
        <time>2022-07-18T17:05:31Z</time>
      </trkpt>
      <trkpt lat="44.34635" lon="7.19519">
        <ele>1292.2</ele>
        <time>2022-07-18T17:05:32Z</time>
      </trkpt>
      <trkpt lat="44.34634" lon="7.19533">
        <ele>1291.2</ele>
        <time>2022-07-18T17:05:33Z</time>
      </trkpt>
      <trkpt lat="44.34631" lon="7.19547">
        <ele>1290.4</ele>
        <time>2022-07-18T17:05:34Z</time>
      </trkpt>
      <trkpt lat="44.34629" lon="7.19561">
        <ele>1289.4</ele>
        <time>2022-07-18T17:05:35Z</time>
      </trkpt>
      <trkpt lat="44.34628" lon="7.19585">
        <ele>1288.6</ele>
        <time>2022-07-18T17:05:36Z</time>
      </trkpt>
      <trkpt lat="44.34628" lon="7.19593">
        <ele>1287.8</ele>
        <time>2022-07-18T17:05:37Z</time>
      </trkpt>
      <trkpt lat="44.34628" lon="7.19616">
        <ele>1287.2</ele>
        <time>2022-07-18T17:05:38Z</time>
      </trkpt>
      <trkpt lat="44.34628" lon="7.19623">
        <ele>1286.6</ele>
        <time>2022-07-18T17:05:39Z</time>
      </trkpt>
      <trkpt lat="44.34629" lon="7.19637">
        <ele>1286.2</ele>
        <time>2022-07-18T17:05:40Z</time>
      </trkpt>
      <trkpt lat="44.34632" lon="7.19654">
        <ele>1285.8</ele>
        <time>2022-07-18T17:05:41Z</time>
      </trkpt>
      <trkpt lat="44.34633" lon="7.19661">
        <ele>1285.4</ele>
        <time>2022-07-18T17:05:42Z</time>
      </trkpt>
      <trkpt lat="44.34636" lon="7.19673">
        <ele>1285.2</ele>
        <time>2022-07-18T17:05:43Z</time>
      </trkpt>
      <trkpt lat="44.34639" lon="7.19685">
        <ele>1284.8</ele>
        <time>2022-07-18T17:05:44Z</time>
      </trkpt>
      <trkpt lat="44.34641" lon="7.19698">
        <ele>1284.2</ele>
        <time>2022-07-18T17:05:45Z</time>
      </trkpt>
      <trkpt lat="44.34641" lon="7.19711">
        <ele>1283.6</ele>
        <time>2022-07-18T17:05:46Z</time>
      </trkpt>
      <trkpt lat="44.3464" lon="7.19725">
        <ele>1283</ele>
        <time>2022-07-18T17:05:47Z</time>
      </trkpt>
      <trkpt lat="44.34638" lon="7.19747">
        <ele>1282.4</ele>
        <time>2022-07-18T17:05:48Z</time>
      </trkpt>
      <trkpt lat="44.34637" lon="7.19755">
        <ele>1281.6</ele>
        <time>2022-07-18T17:05:49Z</time>
      </trkpt>
      <trkpt lat="44.34636" lon="7.19771">
        <ele>1280.6</ele>
        <time>2022-07-18T17:05:50Z</time>
      </trkpt>
      <trkpt lat="44.34636" lon="7.19793">
        <ele>1280</ele>
        <time>2022-07-18T17:05:51Z</time>
      </trkpt>
      <trkpt lat="44.34636" lon="7.198">
        <ele>1279.4</ele>
        <time>2022-07-18T17:05:52Z</time>
      </trkpt>
      <trkpt lat="44.34635" lon="7.1982">
        <ele>1278.8</ele>
        <time>2022-07-18T17:05:53Z</time>
      </trkpt>
      <trkpt lat="44.34634" lon="7.19826">
        <ele>1278.4</ele>
        <time>2022-07-18T17:05:54Z</time>
      </trkpt>
      <trkpt lat="44.34632" lon="7.19838">
        <ele>1278</ele>
        <time>2022-07-18T17:05:55Z</time>
      </trkpt>
      <trkpt lat="44.34627" lon="7.19849">
        <ele>1277.6</ele>
        <time>2022-07-18T17:05:56Z</time>
      </trkpt>
      <trkpt lat="44.34622" lon="7.19857">
        <ele>1277.2</ele>
        <time>2022-07-18T17:05:57Z</time>
      </trkpt>
      <trkpt lat="44.34616" lon="7.19871">
        <ele>1277</ele>
        <time>2022-07-18T17:05:58Z</time>
      </trkpt>
      <trkpt lat="44.34615" lon="7.19876">
        <ele>1276.6</ele>
        <time>2022-07-18T17:05:59Z</time>
      </trkpt>
      <trkpt lat="44.34613" lon="7.19886">
        <ele>1276.4</ele>
        <time>2022-07-18T17:06:00Z</time>
      </trkpt>
      <trkpt lat="44.34612" lon="7.19898">
        <ele>1276.2</ele>
        <time>2022-07-18T17:06:01Z</time>
      </trkpt>
      <trkpt lat="44.34612" lon="7.19909">
        <ele>1276</ele>
        <time>2022-07-18T17:06:02Z</time>
      </trkpt>
      <trkpt lat="44.34614" lon="7.19926">
        <ele>1275.6</ele>
        <time>2022-07-18T17:06:03Z</time>
      </trkpt>
      <trkpt lat="44.34615" lon="7.19931">
        <ele>1275.4</ele>
        <time>2022-07-18T17:06:04Z</time>
      </trkpt>
      <trkpt lat="44.34617" lon="7.19941">
        <ele>1275.4</ele>
        <time>2022-07-18T17:06:05Z</time>
      </trkpt>
      <trkpt lat="44.34621" lon="7.19957">
        <ele>1275.2</ele>
        <time>2022-07-18T17:06:06Z</time>
      </trkpt>
      <trkpt lat="44.34622" lon="7.19963">
        <ele>1275.2</ele>
        <time>2022-07-18T17:06:07Z</time>
      </trkpt>
      <trkpt lat="44.34625" lon="7.19974">
        <ele>1274.8</ele>
        <time>2022-07-18T17:06:08Z</time>
      </trkpt>
      <trkpt lat="44.34628" lon="7.19985">
        <ele>1274.4</ele>
        <time>2022-07-18T17:06:09Z</time>
      </trkpt>
      <trkpt lat="44.34631" lon="7.20002">
        <ele>1274.2</ele>
        <time>2022-07-18T17:06:10Z</time>
      </trkpt>
      <trkpt lat="44.34631" lon="7.20008">
        <ele>1273.8</ele>
        <time>2022-07-18T17:06:11Z</time>
      </trkpt>
      <trkpt lat="44.34632" lon="7.20019">
        <ele>1273.8</ele>
        <time>2022-07-18T17:06:12Z</time>
      </trkpt>
      <trkpt lat="44.34633" lon="7.20031">
        <ele>1273.6</ele>
        <time>2022-07-18T17:06:13Z</time>
      </trkpt>
      <trkpt lat="44.34633" lon="7.20042">
        <ele>1273.4</ele>
        <time>2022-07-18T17:06:14Z</time>
      </trkpt>
      <trkpt lat="44.34633" lon="7.20053">
        <ele>1273.4</ele>
        <time>2022-07-18T17:06:15Z</time>
      </trkpt>
      <trkpt lat="44.34633" lon="7.20069">
        <ele>1273</ele>
        <time>2022-07-18T17:06:16Z</time>
      </trkpt>
      <trkpt lat="44.34633" lon="7.20074">
        <ele>1273</ele>
        <time>2022-07-18T17:06:17Z</time>
      </trkpt>
      <trkpt lat="44.34633" lon="7.20085">
        <ele>1272.8</ele>
        <time>2022-07-18T17:06:18Z</time>
      </trkpt>
      <trkpt lat="44.34632" lon="7.20101">
        <ele>1272.8</ele>
        <time>2022-07-18T17:06:19Z</time>
      </trkpt>
      <trkpt lat="44.34631" lon="7.20106">
        <ele>1272.6</ele>
        <time>2022-07-18T17:06:20Z</time>
      </trkpt>
      <trkpt lat="44.3463" lon="7.20117">
        <ele>1272.6</ele>
        <time>2022-07-18T17:06:21Z</time>
      </trkpt>
      <trkpt lat="44.34628" lon="7.20133">
        <ele>1272.6</ele>
        <time>2022-07-18T17:06:22Z</time>
      </trkpt>
      <trkpt lat="44.34628" lon="7.20138">
        <ele>1272.2</ele>
        <time>2022-07-18T17:06:23Z</time>
      </trkpt>
      <trkpt lat="44.34626" lon="7.20148">
        <ele>1272</ele>
        <time>2022-07-18T17:06:24Z</time>
      </trkpt>
      <trkpt lat="44.34625" lon="7.20159">
        <ele>1272</ele>
        <time>2022-07-18T17:06:25Z</time>
      </trkpt>
      <trkpt lat="44.34623" lon="7.20169">
        <ele>1272</ele>
        <time>2022-07-18T17:06:26Z</time>
      </trkpt>
      <trkpt lat="44.34621" lon="7.20179">
        <ele>1272</ele>
        <time>2022-07-18T17:06:27Z</time>
      </trkpt>
      <trkpt lat="44.34618" lon="7.20194">
        <ele>1271.8</ele>
        <time>2022-07-18T17:06:28Z</time>
      </trkpt>
      <trkpt lat="44.34618" lon="7.20199">
        <ele>1271.8</ele>
        <time>2022-07-18T17:06:29Z</time>
      </trkpt>
      <trkpt lat="44.34616" lon="7.20208">
        <ele>1271.8</ele>
        <time>2022-07-18T17:06:30Z</time>
      </trkpt>
      <trkpt lat="44.34614" lon="7.20218">
        <ele>1271.8</ele>
        <time>2022-07-18T17:06:31Z</time>
      </trkpt>
      <trkpt lat="44.34612" lon="7.20228">
        <ele>1271.4</ele>
        <time>2022-07-18T17:06:32Z</time>
      </trkpt>
      <trkpt lat="44.34609" lon="7.20242">
        <ele>1271.4</ele>
        <time>2022-07-18T17:06:33Z</time>
      </trkpt>
      <trkpt lat="44.34609" lon="7.20247">
        <ele>1271.4</ele>
        <time>2022-07-18T17:06:34Z</time>
      </trkpt>
      <trkpt lat="44.34606" lon="7.20262">
        <ele>1271.2</ele>
        <time>2022-07-18T17:06:35Z</time>
      </trkpt>
      <trkpt lat="44.34606" lon="7.20267">
        <ele>1271.2</ele>
        <time>2022-07-18T17:06:36Z</time>
      </trkpt>
      <trkpt lat="44.34604" lon="7.20277">
        <ele>1271</ele>
        <time>2022-07-18T17:06:37Z</time>
      </trkpt>
      <trkpt lat="44.34603" lon="7.20288">
        <ele>1270.6</ele>
        <time>2022-07-18T17:06:38Z</time>
      </trkpt>
      <trkpt lat="44.34602" lon="7.20298">
        <ele>1270.4</ele>
        <time>2022-07-18T17:06:39Z</time>
      </trkpt>
      <trkpt lat="44.34602" lon="7.20307">
        <ele>1270.2</ele>
        <time>2022-07-18T17:06:40Z</time>
      </trkpt>
      <trkpt lat="44.34602" lon="7.20319">
        <ele>1269.8</ele>
        <time>2022-07-18T17:06:41Z</time>
      </trkpt>
      <trkpt lat="44.34602" lon="7.20323">
        <ele>1269.4</ele>
        <time>2022-07-18T17:06:42Z</time>
      </trkpt>
      <trkpt lat="44.34602" lon="7.20331">
        <ele>1269.2</ele>
        <time>2022-07-18T17:06:43Z</time>
      </trkpt>
      <trkpt lat="44.34602" lon="7.20339">
        <ele>1268.6</ele>
        <time>2022-07-18T17:06:44Z</time>
      </trkpt>
      <trkpt lat="44.34603" lon="7.20347">
        <ele>1268</ele>
        <time>2022-07-18T17:06:45Z</time>
      </trkpt>
      <trkpt lat="44.34607" lon="7.20361">
        <ele>1267.4</ele>
        <time>2022-07-18T17:06:46Z</time>
      </trkpt>
      <trkpt lat="44.34608" lon="7.20366">
        <ele>1266.8</ele>
        <time>2022-07-18T17:06:47Z</time>
      </trkpt>
      <trkpt lat="44.34612" lon="7.20375">
        <ele>1266.2</ele>
        <time>2022-07-18T17:06:48Z</time>
      </trkpt>
      <trkpt lat="44.34616" lon="7.20383">
        <ele>1265.4</ele>
        <time>2022-07-18T17:06:49Z</time>
      </trkpt>
      <trkpt lat="44.3462" lon="7.20391">
        <ele>1264.8</ele>
        <time>2022-07-18T17:06:50Z</time>
      </trkpt>
      <trkpt lat="44.34625" lon="7.20399">
        <ele>1264</ele>
        <time>2022-07-18T17:06:51Z</time>
      </trkpt>
      <trkpt lat="44.3463" lon="7.20406">
        <ele>1263.4</ele>
        <time>2022-07-18T17:06:52Z</time>
      </trkpt>
      <trkpt lat="44.34633" lon="7.20413">
        <ele>1262.8</ele>
        <time>2022-07-18T17:06:53Z</time>
      </trkpt>
      <trkpt lat="44.34635" lon="7.2042">
        <ele>1262.2</ele>
        <time>2022-07-18T17:06:54Z</time>
      </trkpt>
      <trkpt lat="44.34635" lon="7.20427">
        <ele>1261.6</ele>
        <time>2022-07-18T17:06:55Z</time>
      </trkpt>
      <trkpt lat="44.34631" lon="7.20436">
        <ele>1261</ele>
        <time>2022-07-18T17:06:56Z</time>
      </trkpt>
      <trkpt lat="44.34629" lon="7.20439">
        <ele>1260.8</ele>
        <time>2022-07-18T17:06:57Z</time>
      </trkpt>
      <trkpt lat="44.34626" lon="7.20444">
        <ele>1260.4</ele>
        <time>2022-07-18T17:06:58Z</time>
      </trkpt>
      <trkpt lat="44.34619" lon="7.20445">
        <ele>1260.2</ele>
        <time>2022-07-18T17:06:59Z</time>
      </trkpt>
      <trkpt lat="44.34617" lon="7.20445">
        <ele>1260.2</ele>
        <time>2022-07-18T17:07:00Z</time>
      </trkpt>
      <trkpt lat="44.34613" lon="7.20445">
        <ele>1260</ele>
        <time>2022-07-18T17:07:01Z</time>
      </trkpt>
      <trkpt lat="44.34608" lon="7.20445">
        <ele>1260</ele>
        <time>2022-07-18T17:07:02Z</time>
      </trkpt>
      <trkpt lat="44.34604" lon="7.20444">
        <ele>1259.6</ele>
        <time>2022-07-18T17:07:03Z</time>
      </trkpt>
      <trkpt lat="44.346" lon="7.20444">
        <ele>1259.6</ele>
        <time>2022-07-18T17:07:04Z</time>
      </trkpt>
      <trkpt lat="44.34593" lon="7.20445">
        <ele>1259.6</ele>
        <time>2022-07-18T17:07:05Z</time>
      </trkpt>
      <trkpt lat="44.34591" lon="7.20445">
        <ele>1259.6</ele>
        <time>2022-07-18T17:07:06Z</time>
      </trkpt>
      <trkpt lat="44.34584" lon="7.20449">
        <ele>1259.4</ele>
        <time>2022-07-18T17:07:07Z</time>
      </trkpt>
      <trkpt lat="44.34581" lon="7.20451">
        <ele>1259.4</ele>
        <time>2022-07-18T17:07:08Z</time>
      </trkpt>
      <trkpt lat="44.34577" lon="7.20454">
        <ele>1259.4</ele>
        <time>2022-07-18T17:07:09Z</time>
      </trkpt>
      <trkpt lat="44.3457" lon="7.20458">
        <ele>1259.2</ele>
        <time>2022-07-18T17:07:10Z</time>
      </trkpt>
      <trkpt lat="44.34568" lon="7.2046">
        <ele>1259.2</ele>
        <time>2022-07-18T17:07:11Z</time>
      </trkpt>
      <trkpt lat="44.34564" lon="7.20462">
        <ele>1259.2</ele>
        <time>2022-07-18T17:07:12Z</time>
      </trkpt>
      <trkpt lat="44.3456" lon="7.20465">
        <ele>1258.8</ele>
        <time>2022-07-18T17:07:13Z</time>
      </trkpt>
      <trkpt lat="44.34556" lon="7.20468">
        <ele>1258.8</ele>
        <time>2022-07-18T17:07:14Z</time>
      </trkpt>
      <trkpt lat="44.34552" lon="7.20472">
        <ele>1258.8</ele>
        <time>2022-07-18T17:07:15Z</time>
      </trkpt>
      <trkpt lat="44.34546" lon="7.20477">
        <ele>1258.8</ele>
        <time>2022-07-18T17:07:16Z</time>
      </trkpt>
      <trkpt lat="44.34544" lon="7.20479">
        <ele>1258.6</ele>
        <time>2022-07-18T17:07:17Z</time>
      </trkpt>
      <trkpt lat="44.34537" lon="7.20486">
        <ele>1258.6</ele>
        <time>2022-07-18T17:07:18Z</time>
      </trkpt>
      <trkpt lat="44.34535" lon="7.20489">
        <ele>1258.2</ele>
        <time>2022-07-18T17:07:19Z</time>
      </trkpt>
      <trkpt lat="44.34531" lon="7.20495">
        <ele>1258</ele>
        <time>2022-07-18T17:07:20Z</time>
      </trkpt>
      <trkpt lat="44.34526" lon="7.20501">
        <ele>1257.6</ele>
        <time>2022-07-18T17:07:21Z</time>
      </trkpt>
      <trkpt lat="44.34517" lon="7.2051">
        <ele>1257.2</ele>
        <time>2022-07-18T17:07:22Z</time>
      </trkpt>
      <trkpt lat="44.34515" lon="7.20513">
        <ele>1256.6</ele>
        <time>2022-07-18T17:07:23Z</time>
      </trkpt>
      <trkpt lat="44.34506" lon="7.20523">
        <ele>1255.8</ele>
        <time>2022-07-18T17:07:24Z</time>
      </trkpt>
      <trkpt lat="44.34503" lon="7.20527">
        <ele>1255.2</ele>
        <time>2022-07-18T17:07:25Z</time>
      </trkpt>
      <trkpt lat="44.34498" lon="7.20534">
        <ele>1254.6</ele>
        <time>2022-07-18T17:07:26Z</time>
      </trkpt>
      <trkpt lat="44.34493" lon="7.20543">
        <ele>1254</ele>
        <time>2022-07-18T17:07:27Z</time>
      </trkpt>
      <trkpt lat="44.34487" lon="7.20559">
        <ele>1253.4</ele>
        <time>2022-07-18T17:07:28Z</time>
      </trkpt>
      <trkpt lat="44.34486" lon="7.20564">
        <ele>1252.6</ele>
        <time>2022-07-18T17:07:29Z</time>
      </trkpt>
      <trkpt lat="44.34481" lon="7.20583">
        <ele>1252</ele>
        <time>2022-07-18T17:07:30Z</time>
      </trkpt>
      <trkpt lat="44.3448" lon="7.20591">
        <ele>1251.2</ele>
        <time>2022-07-18T17:07:31Z</time>
      </trkpt>
      <trkpt lat="44.34478" lon="7.20605">
        <ele>1250.6</ele>
        <time>2022-07-18T17:07:32Z</time>
      </trkpt>
      <trkpt lat="44.34475" lon="7.2062">
        <ele>1249.8</ele>
        <time>2022-07-18T17:07:33Z</time>
      </trkpt>
      <trkpt lat="44.3447" lon="7.20644">
        <ele>1249</ele>
        <time>2022-07-18T17:07:34Z</time>
      </trkpt>
      <trkpt lat="44.34469" lon="7.20652">
        <ele>1248</ele>
        <time>2022-07-18T17:07:35Z</time>
      </trkpt>
      <trkpt lat="44.34465" lon="7.20668">
        <ele>1247.2</ele>
        <time>2022-07-18T17:07:36Z</time>
      </trkpt>
      <trkpt lat="44.34461" lon="7.20693">
        <ele>1246.2</ele>
        <time>2022-07-18T17:07:37Z</time>
      </trkpt>
      <trkpt lat="44.34459" lon="7.20701">
        <ele>1245.2</ele>
        <time>2022-07-18T17:07:38Z</time>
      </trkpt>
      <trkpt lat="44.34457" lon="7.20718">
        <ele>1244.4</ele>
        <time>2022-07-18T17:07:39Z</time>
      </trkpt>
      <trkpt lat="44.34454" lon="7.20744">
        <ele>1243.4</ele>
        <time>2022-07-18T17:07:40Z</time>
      </trkpt>
      <trkpt lat="44.34453" lon="7.20752">
        <ele>1242.8</ele>
        <time>2022-07-18T17:07:41Z</time>
      </trkpt>
      <trkpt lat="44.34452" lon="7.2077">
        <ele>1242</ele>
        <time>2022-07-18T17:07:42Z</time>
      </trkpt>
      <trkpt lat="44.3445" lon="7.20788">
        <ele>1241</ele>
        <time>2022-07-18T17:07:43Z</time>
      </trkpt>
      <trkpt lat="44.34449" lon="7.20806">
        <ele>1240.4</ele>
        <time>2022-07-18T17:07:44Z</time>
      </trkpt>
      <trkpt lat="44.34447" lon="7.20825">
        <ele>1239.6</ele>
        <time>2022-07-18T17:07:45Z</time>
      </trkpt>
      <trkpt lat="44.34445" lon="7.20842">
        <ele>1239</ele>
        <time>2022-07-18T17:07:46Z</time>
      </trkpt>
      <trkpt lat="44.34442" lon="7.20858">
        <ele>1238.4</ele>
        <time>2022-07-18T17:07:47Z</time>
      </trkpt>
      <trkpt lat="44.34437" lon="7.20875">
        <ele>1237.8</ele>
        <time>2022-07-18T17:07:48Z</time>
      </trkpt>
      <trkpt lat="44.34428" lon="7.20898">
        <ele>1237.4</ele>
        <time>2022-07-18T17:07:49Z</time>
      </trkpt>
      <trkpt lat="44.34425" lon="7.20905">
        <ele>1237</ele>
        <time>2022-07-18T17:07:50Z</time>
      </trkpt>
      <trkpt lat="44.3442" lon="7.2092">
        <ele>1236.8</ele>
        <time>2022-07-18T17:07:51Z</time>
      </trkpt>
      <trkpt lat="44.34408" lon="7.20938">
        <ele>1236.8</ele>
        <time>2022-07-18T17:07:52Z</time>
      </trkpt>
      <trkpt lat="44.34405" lon="7.20944">
        <ele>1236.4</ele>
        <time>2022-07-18T17:07:53Z</time>
      </trkpt>
      <trkpt lat="44.34397" lon="7.20956">
        <ele>1236.4</ele>
        <time>2022-07-18T17:07:54Z</time>
      </trkpt>
      <trkpt lat="44.34388" lon="7.20973">
        <ele>1236.4</ele>
        <time>2022-07-18T17:07:55Z</time>
      </trkpt>
      <trkpt lat="44.34385" lon="7.20979">
        <ele>1236.4</ele>
        <time>2022-07-18T17:07:56Z</time>
      </trkpt>
      <trkpt lat="44.3438" lon="7.20992">
        <ele>1236.4</ele>
        <time>2022-07-18T17:07:57Z</time>
      </trkpt>
      <trkpt lat="44.34376" lon="7.21004">
        <ele>1236.2</ele>
        <time>2022-07-18T17:07:58Z</time>
      </trkpt>
      <trkpt lat="44.34372" lon="7.21015">
        <ele>1236.2</ele>
        <time>2022-07-18T17:07:59Z</time>
      </trkpt>
      <trkpt lat="44.34367" lon="7.21026">
        <ele>1236.2</ele>
        <time>2022-07-18T17:08:00Z</time>
      </trkpt>
      <trkpt lat="44.3436" lon="7.21036">
        <ele>1236.2</ele>
        <time>2022-07-18T17:08:01Z</time>
      </trkpt>
      <trkpt lat="44.34351" lon="7.21047">
        <ele>1236.2</ele>
        <time>2022-07-18T17:08:02Z</time>
      </trkpt>
      <trkpt lat="44.34348" lon="7.21051">
        <ele>1236</ele>
        <time>2022-07-18T17:08:03Z</time>
      </trkpt>
      <trkpt lat="44.34338" lon="7.21062">
        <ele>1236</ele>
        <time>2022-07-18T17:08:04Z</time>
      </trkpt>
      <trkpt lat="44.34335" lon="7.21066">
        <ele>1235.8</ele>
        <time>2022-07-18T17:08:05Z</time>
      </trkpt>
      <trkpt lat="44.34328" lon="7.21073">
        <ele>1235.8</ele>
        <time>2022-07-18T17:08:06Z</time>
      </trkpt>
      <trkpt lat="44.34322" lon="7.21081">
        <ele>1235.6</ele>
        <time>2022-07-18T17:08:07Z</time>
      </trkpt>
      <trkpt lat="44.34312" lon="7.21093">
        <ele>1235.6</ele>
        <time>2022-07-18T17:08:08Z</time>
      </trkpt>
      <trkpt lat="44.34309" lon="7.21097">
        <ele>1235.2</ele>
        <time>2022-07-18T17:08:09Z</time>
      </trkpt>
      <trkpt lat="44.34302" lon="7.21105">
        <ele>1235.2</ele>
        <time>2022-07-18T17:08:10Z</time>
      </trkpt>
      <trkpt lat="44.34293" lon="7.21115">
        <ele>1235</ele>
        <time>2022-07-18T17:08:11Z</time>
      </trkpt>
      <trkpt lat="44.3429" lon="7.21118">
        <ele>1235</ele>
        <time>2022-07-18T17:08:12Z</time>
      </trkpt>
      <trkpt lat="44.34284" lon="7.21125">
        <ele>1235</ele>
        <time>2022-07-18T17:08:13Z</time>
      </trkpt>
      <trkpt lat="44.34275" lon="7.21136">
        <ele>1235</ele>
        <time>2022-07-18T17:08:14Z</time>
      </trkpt>
      <trkpt lat="44.34272" lon="7.21139">
        <ele>1234.6</ele>
        <time>2022-07-18T17:08:15Z</time>
      </trkpt>
      <trkpt lat="44.34264" lon="7.21149">
        <ele>1234.6</ele>
        <time>2022-07-18T17:08:16Z</time>
      </trkpt>
      <trkpt lat="44.34261" lon="7.21153">
        <ele>1234.6</ele>
        <time>2022-07-18T17:08:17Z</time>
      </trkpt>
      <trkpt lat="44.34256" lon="7.21161">
        <ele>1234.8</ele>
        <time>2022-07-18T17:08:18Z</time>
      </trkpt>
      <trkpt lat="44.34252" lon="7.21168">
        <ele>1234.8</ele>
        <time>2022-07-18T17:08:19Z</time>
      </trkpt>
      <trkpt lat="44.34247" lon="7.21174">
        <ele>1234.8</ele>
        <time>2022-07-18T17:08:20Z</time>
      </trkpt>
      <trkpt lat="44.34242" lon="7.21181">
        <ele>1234.8</ele>
        <time>2022-07-18T17:08:21Z</time>
      </trkpt>
      <trkpt lat="44.34234" lon="7.21191">
        <ele>1234.8</ele>
        <time>2022-07-18T17:08:22Z</time>
      </trkpt>
      <trkpt lat="44.34232" lon="7.21194">
        <ele>1234.8</ele>
        <time>2022-07-18T17:08:23Z</time>
      </trkpt>
      <trkpt lat="44.34227" lon="7.21201">
        <ele>1234.8</ele>
        <time>2022-07-18T17:08:24Z</time>
      </trkpt>
      <trkpt lat="44.34222" lon="7.21207">
        <ele>1234.8</ele>
        <time>2022-07-18T17:08:25Z</time>
      </trkpt>
      <trkpt lat="44.34216" lon="7.21214">
        <ele>1234.8</ele>
        <time>2022-07-18T17:08:26Z</time>
      </trkpt>
      <trkpt lat="44.34211" lon="7.2122">
        <ele>1234.8</ele>
        <time>2022-07-18T17:08:27Z</time>
      </trkpt>
      <trkpt lat="44.34202" lon="7.21229">
        <ele>1234.6</ele>
        <time>2022-07-18T17:08:28Z</time>
      </trkpt>
      <trkpt lat="44.34199" lon="7.21233">
        <ele>1234.6</ele>
        <time>2022-07-18T17:08:29Z</time>
      </trkpt>
      <trkpt lat="44.34194" lon="7.21239">
        <ele>1234.4</ele>
        <time>2022-07-18T17:08:30Z</time>
      </trkpt>
      <trkpt lat="44.34189" lon="7.21246">
        <ele>1234.4</ele>
        <time>2022-07-18T17:08:31Z</time>
      </trkpt>
      <trkpt lat="44.34185" lon="7.21254">
        <ele>1234.2</ele>
        <time>2022-07-18T17:08:32Z</time>
      </trkpt>
      <trkpt lat="44.3418" lon="7.21261">
        <ele>1234.2</ele>
        <time>2022-07-18T17:08:33Z</time>
      </trkpt>
      <trkpt lat="44.34173" lon="7.21271">
        <ele>1234.2</ele>
        <time>2022-07-18T17:08:34Z</time>
      </trkpt>
      <trkpt lat="44.3417" lon="7.21275">
        <ele>1233.8</ele>
        <time>2022-07-18T17:08:35Z</time>
      </trkpt>
      <trkpt lat="44.34165" lon="7.21281">
        <ele>1233.8</ele>
        <time>2022-07-18T17:08:36Z</time>
      </trkpt>
      <trkpt lat="44.3416" lon="7.21286">
        <ele>1233.8</ele>
        <time>2022-07-18T17:08:37Z</time>
      </trkpt>
      <trkpt lat="44.34156" lon="7.21291">
        <ele>1233.8</ele>
        <time>2022-07-18T17:08:38Z</time>
      </trkpt>
      <trkpt lat="44.34151" lon="7.21296">
        <ele>1233.8</ele>
        <time>2022-07-18T17:08:39Z</time>
      </trkpt>
      <trkpt lat="44.34144" lon="7.21303">
        <ele>1233.6</ele>
        <time>2022-07-18T17:08:40Z</time>
      </trkpt>
      <trkpt lat="44.34141" lon="7.21306">
        <ele>1233.6</ele>
        <time>2022-07-18T17:08:41Z</time>
      </trkpt>
      <trkpt lat="44.34136" lon="7.21311">
        <ele>1233.6</ele>
        <time>2022-07-18T17:08:42Z</time>
      </trkpt>
      <trkpt lat="44.34131" lon="7.21315">
        <ele>1233.6</ele>
        <time>2022-07-18T17:08:43Z</time>
      </trkpt>
      <trkpt lat="44.34126" lon="7.21318">
        <ele>1233.4</ele>
        <time>2022-07-18T17:08:44Z</time>
      </trkpt>
      <trkpt lat="44.34121" lon="7.21321">
        <ele>1233.4</ele>
        <time>2022-07-18T17:08:45Z</time>
      </trkpt>
      <trkpt lat="44.34116" lon="7.21323">
        <ele>1233.4</ele>
        <time>2022-07-18T17:08:46Z</time>
      </trkpt>
      <trkpt lat="44.3411" lon="7.21326">
        <ele>1233.2</ele>
        <time>2022-07-18T17:08:47Z</time>
      </trkpt>
      <trkpt lat="44.34103" lon="7.2133">
        <ele>1233.2</ele>
        <time>2022-07-18T17:08:48Z</time>
      </trkpt>
      <trkpt lat="44.341" lon="7.21331">
        <ele>1233.2</ele>
        <time>2022-07-18T17:08:49Z</time>
      </trkpt>
      <trkpt lat="44.34095" lon="7.21334">
        <ele>1233</ele>
        <time>2022-07-18T17:08:50Z</time>
      </trkpt>
      <trkpt lat="44.34091" lon="7.21337">
        <ele>1233</ele>
        <time>2022-07-18T17:08:51Z</time>
      </trkpt>
      <trkpt lat="44.34083" lon="7.21341">
        <ele>1233</ele>
        <time>2022-07-18T17:08:52Z</time>
      </trkpt>
      <trkpt lat="44.3408" lon="7.21342">
        <ele>1233</ele>
        <time>2022-07-18T17:08:53Z</time>
      </trkpt>
      <trkpt lat="44.34076" lon="7.21344">
        <ele>1233</ele>
        <time>2022-07-18T17:08:54Z</time>
      </trkpt>
      <trkpt lat="44.34071" lon="7.21347">
        <ele>1233</ele>
        <time>2022-07-18T17:08:55Z</time>
      </trkpt>
      <trkpt lat="44.34066" lon="7.21351">
        <ele>1233</ele>
        <time>2022-07-18T17:08:56Z</time>
      </trkpt>
      <trkpt lat="44.34062" lon="7.21355">
        <ele>1232.8</ele>
        <time>2022-07-18T17:08:57Z</time>
      </trkpt>
      <trkpt lat="44.34055" lon="7.21363">
        <ele>1232.8</ele>
        <time>2022-07-18T17:08:58Z</time>
      </trkpt>
      <trkpt lat="44.34052" lon="7.21366">
        <ele>1232.8</ele>
        <time>2022-07-18T17:08:59Z</time>
      </trkpt>
      <trkpt lat="44.34048" lon="7.21373">
        <ele>1232.4</ele>
        <time>2022-07-18T17:09:00Z</time>
      </trkpt>
      <trkpt lat="44.34044" lon="7.2138">
        <ele>1232.4</ele>
        <time>2022-07-18T17:09:01Z</time>
      </trkpt>
      <trkpt lat="44.34039" lon="7.21392">
        <ele>1232.4</ele>
        <time>2022-07-18T17:09:02Z</time>
      </trkpt>
      <trkpt lat="44.34038" lon="7.21396">
        <ele>1232.4</ele>
        <time>2022-07-18T17:09:03Z</time>
      </trkpt>
      <trkpt lat="44.34035" lon="7.21405">
        <ele>1232.4</ele>
        <time>2022-07-18T17:09:04Z</time>
      </trkpt>
      <trkpt lat="44.34033" lon="7.21412">
        <ele>1232.4</ele>
        <time>2022-07-18T17:09:05Z</time>
      </trkpt>
      <trkpt lat="44.34031" lon="7.2142">
        <ele>1232.4</ele>
        <time>2022-07-18T17:09:06Z</time>
      </trkpt>
      <trkpt lat="44.3403" lon="7.21426">
        <ele>1232.6</ele>
        <time>2022-07-18T17:09:07Z</time>
      </trkpt>
      <trkpt lat="44.34028" lon="7.21436">
        <ele>1232.6</ele>
        <time>2022-07-18T17:09:08Z</time>
      </trkpt>
      <trkpt lat="44.34027" lon="7.21439">
        <ele>1233</ele>
        <time>2022-07-18T17:09:09Z</time>
      </trkpt>
      <trkpt lat="44.34026" lon="7.21445">
        <ele>1233</ele>
        <time>2022-07-18T17:09:10Z</time>
      </trkpt>
      <trkpt lat="44.34023" lon="7.21454">
        <ele>1233.4</ele>
        <time>2022-07-18T17:09:11Z</time>
      </trkpt>
      <trkpt lat="44.34023" lon="7.21457">
        <ele>1233.4</ele>
        <time>2022-07-18T17:09:12Z</time>
      </trkpt>
      <trkpt lat="44.34021" lon="7.21463">
        <ele>1233.8</ele>
        <time>2022-07-18T17:09:13Z</time>
      </trkpt>
      <trkpt lat="44.3402" lon="7.21468">
        <ele>1234</ele>
        <time>2022-07-18T17:09:14Z</time>
      </trkpt>
      <trkpt lat="44.34017" lon="7.21477">
        <ele>1234.2</ele>
        <time>2022-07-18T17:09:15Z</time>
      </trkpt>
      <trkpt lat="44.34017" lon="7.21479">
        <ele>1234.2</ele>
        <time>2022-07-18T17:09:16Z</time>
      </trkpt>
      <trkpt lat="44.34015" lon="7.21484">
        <ele>1234.6</ele>
        <time>2022-07-18T17:09:17Z</time>
      </trkpt>
      <trkpt lat="44.34013" lon="7.21489">
        <ele>1234.6</ele>
        <time>2022-07-18T17:09:18Z</time>
      </trkpt>
      <trkpt lat="44.34011" lon="7.21493">
        <ele>1235</ele>
        <time>2022-07-18T17:09:19Z</time>
      </trkpt>
      <trkpt lat="44.34009" lon="7.21496">
        <ele>1235.2</ele>
        <time>2022-07-18T17:09:20Z</time>
      </trkpt>
      <trkpt lat="44.34007" lon="7.215">
        <ele>1235.4</ele>
        <time>2022-07-18T17:09:21Z</time>
      </trkpt>
      <trkpt lat="44.34005" lon="7.21504">
        <ele>1235.6</ele>
        <time>2022-07-18T17:09:22Z</time>
      </trkpt>
      <trkpt lat="44.34003" lon="7.21508">
        <ele>1235.6</ele>
        <time>2022-07-18T17:09:23Z</time>
      </trkpt>
      <trkpt lat="44.34001" lon="7.21512">
        <ele>1236</ele>
        <time>2022-07-18T17:09:24Z</time>
      </trkpt>
      <trkpt lat="44.33996" lon="7.2152">
        <ele>1236.2</ele>
        <time>2022-07-18T17:09:25Z</time>
      </trkpt>
      <trkpt lat="44.33994" lon="7.21524">
        <ele>1236.4</ele>
        <time>2022-07-18T17:09:26Z</time>
      </trkpt>
      <trkpt lat="44.33993" lon="7.21526">
        <ele>1236.4</ele>
        <time>2022-07-18T17:09:27Z</time>
      </trkpt>
      <trkpt lat="44.33992" lon="7.21528">
        <ele>1236.8</ele>
        <time>2022-07-18T17:09:28Z</time>
      </trkpt>
      <trkpt lat="44.3399" lon="7.21535">
        <ele>1236.8</ele>
        <time>2022-07-18T17:09:29Z</time>
      </trkpt>
      <trkpt lat="44.33989" lon="7.21537">
        <ele>1237.2</ele>
        <time>2022-07-18T17:09:30Z</time>
      </trkpt>
      <trkpt lat="44.33987" lon="7.21541">
        <ele>1237.2</ele>
        <time>2022-07-18T17:09:31Z</time>
      </trkpt>
      <trkpt lat="44.33986" lon="7.21546">
        <ele>1237.4</ele>
        <time>2022-07-18T17:09:32Z</time>
      </trkpt>
      <trkpt lat="44.33983" lon="7.21553">
        <ele>1237.6</ele>
        <time>2022-07-18T17:09:33Z</time>
      </trkpt>
      <trkpt lat="44.33983" lon="7.21556">
        <ele>1238</ele>
        <time>2022-07-18T17:09:34Z</time>
      </trkpt>
      <trkpt lat="44.33981" lon="7.2156">
        <ele>1238</ele>
        <time>2022-07-18T17:09:35Z</time>
      </trkpt>
      <trkpt lat="44.33979" lon="7.21567">
        <ele>1238.4</ele>
        <time>2022-07-18T17:09:36Z</time>
      </trkpt>
      <trkpt lat="44.33979" lon="7.2157">
        <ele>1238.4</ele>
        <time>2022-07-18T17:09:37Z</time>
      </trkpt>
      <trkpt lat="44.33979" lon="7.21577">
        <ele>1238.6</ele>
        <time>2022-07-18T17:09:38Z</time>
      </trkpt>
      <trkpt lat="44.33979" lon="7.2158">
        <ele>1238.6</ele>
        <time>2022-07-18T17:09:39Z</time>
      </trkpt>
      <trkpt lat="44.3398" lon="7.21585">
        <ele>1238.8</ele>
        <time>2022-07-18T17:09:40Z</time>
      </trkpt>
      <trkpt lat="44.33981" lon="7.21594">
        <ele>1238.8</ele>
        <time>2022-07-18T17:09:41Z</time>
      </trkpt>
      <trkpt lat="44.33981" lon="7.21597">
        <ele>1238.8</ele>
        <time>2022-07-18T17:09:42Z</time>
      </trkpt>
      <trkpt lat="44.33981" lon="7.21605">
        <ele>1239.2</ele>
        <time>2022-07-18T17:09:43Z</time>
      </trkpt>
      <trkpt lat="44.33981" lon="7.21608">
        <ele>1239.2</ele>
        <time>2022-07-18T17:09:44Z</time>
      </trkpt>
      <trkpt lat="44.33981" lon="7.21614">
        <ele>1239.2</ele>
        <time>2022-07-18T17:09:45Z</time>
      </trkpt>
      <trkpt lat="44.33981" lon="7.21621">
        <ele>1239.2</ele>
        <time>2022-07-18T17:09:46Z</time>
      </trkpt>
      <trkpt lat="44.33981" lon="7.21627">
        <ele>1239.2</ele>
        <time>2022-07-18T17:09:47Z</time>
      </trkpt>
      <trkpt lat="44.33981" lon="7.21633">
        <ele>1239.2</ele>
        <time>2022-07-18T17:09:48Z</time>
      </trkpt>
      <trkpt lat="44.33981" lon="7.2164">
        <ele>1239.2</ele>
        <time>2022-07-18T17:09:49Z</time>
      </trkpt>
      <trkpt lat="44.33979" lon="7.21649">
        <ele>1239.2</ele>
        <time>2022-07-18T17:09:50Z</time>
      </trkpt>
      <trkpt lat="44.33979" lon="7.21652">
        <ele>1238.8</ele>
        <time>2022-07-18T17:09:51Z</time>
      </trkpt>
      <trkpt lat="44.33978" lon="7.21661">
        <ele>1238.8</ele>
        <time>2022-07-18T17:09:52Z</time>
      </trkpt>
      <trkpt lat="44.33978" lon="7.21664">
        <ele>1238.8</ele>
        <time>2022-07-18T17:09:53Z</time>
      </trkpt>
      <trkpt lat="44.33976" lon="7.2167">
        <ele>1238.8</ele>
        <time>2022-07-18T17:09:54Z</time>
      </trkpt>
      <trkpt lat="44.33975" lon="7.21676">
        <ele>1238.6</ele>
        <time>2022-07-18T17:09:55Z</time>
      </trkpt>
      <trkpt lat="44.33971" lon="7.21684">
        <ele>1238.6</ele>
        <time>2022-07-18T17:09:56Z</time>
      </trkpt>
      <trkpt lat="44.33969" lon="7.21687">
        <ele>1238.2</ele>
        <time>2022-07-18T17:09:57Z</time>
      </trkpt>
      <trkpt lat="44.33966" lon="7.21693">
        <ele>1238</ele>
        <time>2022-07-18T17:09:58Z</time>
      </trkpt>
      <trkpt lat="44.33962" lon="7.21699">
        <ele>1237.6</ele>
        <time>2022-07-18T17:09:59Z</time>
      </trkpt>
      <trkpt lat="44.33955" lon="7.21708">
        <ele>1237.2</ele>
        <time>2022-07-18T17:10:00Z</time>
      </trkpt>
      <trkpt lat="44.33953" lon="7.21712">
        <ele>1236.8</ele>
        <time>2022-07-18T17:10:01Z</time>
      </trkpt>
      <trkpt lat="44.33945" lon="7.21723">
        <ele>1236.2</ele>
        <time>2022-07-18T17:10:02Z</time>
      </trkpt>
      <trkpt lat="44.33943" lon="7.21727">
        <ele>1235.6</ele>
        <time>2022-07-18T17:10:03Z</time>
      </trkpt>
      <trkpt lat="44.33939" lon="7.21736">
        <ele>1235</ele>
        <time>2022-07-18T17:10:04Z</time>
      </trkpt>
      <trkpt lat="44.33935" lon="7.21746">
        <ele>1234.4</ele>
        <time>2022-07-18T17:10:05Z</time>
      </trkpt>
      <trkpt lat="44.3393" lon="7.21756">
        <ele>1233.8</ele>
        <time>2022-07-18T17:10:06Z</time>
      </trkpt>
      <trkpt lat="44.33926" lon="7.21766">
        <ele>1233.2</ele>
        <time>2022-07-18T17:10:07Z</time>
      </trkpt>
      <trkpt lat="44.33921" lon="7.21776">
        <ele>1232.8</ele>
        <time>2022-07-18T17:10:08Z</time>
      </trkpt>
      <trkpt lat="44.33916" lon="7.21786">
        <ele>1232.2</ele>
        <time>2022-07-18T17:10:09Z</time>
      </trkpt>
      <trkpt lat="44.33908" lon="7.21801">
        <ele>1231.8</ele>
        <time>2022-07-18T17:10:10Z</time>
      </trkpt>
      <trkpt lat="44.33905" lon="7.21806">
        <ele>1231.4</ele>
        <time>2022-07-18T17:10:11Z</time>
      </trkpt>
      <trkpt lat="44.33897" lon="7.21821">
        <ele>1231</ele>
        <time>2022-07-18T17:10:12Z</time>
      </trkpt>
      <trkpt lat="44.33895" lon="7.21827">
        <ele>1230.6</ele>
        <time>2022-07-18T17:10:13Z</time>
      </trkpt>
      <trkpt lat="44.3389" lon="7.21839">
        <ele>1230.4</ele>
        <time>2022-07-18T17:10:14Z</time>
      </trkpt>
      <trkpt lat="44.33887" lon="7.21857">
        <ele>1230.4</ele>
        <time>2022-07-18T17:10:15Z</time>
      </trkpt>
      <trkpt lat="44.33886" lon="7.21863">
        <ele>1230.4</ele>
        <time>2022-07-18T17:10:16Z</time>
      </trkpt>
      <trkpt lat="44.33886" lon="7.21881">
        <ele>1230.4</ele>
        <time>2022-07-18T17:10:17Z</time>
      </trkpt>
      <trkpt lat="44.33886" lon="7.21887">
        <ele>1230.4</ele>
        <time>2022-07-18T17:10:18Z</time>
      </trkpt>
      <trkpt lat="44.33887" lon="7.21897">
        <ele>1230.4</ele>
        <time>2022-07-18T17:10:19Z</time>
      </trkpt>
      <trkpt lat="44.33887" lon="7.21913">
        <ele>1230.4</ele>
        <time>2022-07-18T17:10:20Z</time>
      </trkpt>
      <trkpt lat="44.33887" lon="7.21918">
        <ele>1230.4</ele>
        <time>2022-07-18T17:10:21Z</time>
      </trkpt>
      <trkpt lat="44.33886" lon="7.21929">
        <ele>1230</ele>
        <time>2022-07-18T17:10:22Z</time>
      </trkpt>
      <trkpt lat="44.33884" lon="7.21944">
        <ele>1230</ele>
        <time>2022-07-18T17:10:23Z</time>
      </trkpt>
      <trkpt lat="44.33883" lon="7.21949">
        <ele>1229.6</ele>
        <time>2022-07-18T17:10:24Z</time>
      </trkpt>
      <trkpt lat="44.33882" lon="7.21965">
        <ele>1229.2</ele>
        <time>2022-07-18T17:10:25Z</time>
      </trkpt>
      <trkpt lat="44.33882" lon="7.21971">
        <ele>1229</ele>
        <time>2022-07-18T17:10:26Z</time>
      </trkpt>
      <trkpt lat="44.33881" lon="7.21982">
        <ele>1228.4</ele>
        <time>2022-07-18T17:10:27Z</time>
      </trkpt>
      <trkpt lat="44.33881" lon="7.21993">
        <ele>1228</ele>
        <time>2022-07-18T17:10:28Z</time>
      </trkpt>
      <trkpt lat="44.33881" lon="7.22006">
        <ele>1227.4</ele>
        <time>2022-07-18T17:10:29Z</time>
      </trkpt>
      <trkpt lat="44.33881" lon="7.22025">
        <ele>1227</ele>
        <time>2022-07-18T17:10:30Z</time>
      </trkpt>
      <trkpt lat="44.33881" lon="7.22031">
        <ele>1226.4</ele>
        <time>2022-07-18T17:10:31Z</time>
      </trkpt>
      <trkpt lat="44.3388" lon="7.22051">
        <ele>1226</ele>
        <time>2022-07-18T17:10:32Z</time>
      </trkpt>
      <trkpt lat="44.3388" lon="7.22059">
        <ele>1225.6</ele>
        <time>2022-07-18T17:10:33Z</time>
      </trkpt>
      <trkpt lat="44.3388" lon="7.2208">
        <ele>1225</ele>
        <time>2022-07-18T17:10:34Z</time>
      </trkpt>
      <trkpt lat="44.33879" lon="7.22087">
        <ele>1224.6</ele>
        <time>2022-07-18T17:10:35Z</time>
      </trkpt>
      <trkpt lat="44.33879" lon="7.22102">
        <ele>1224.4</ele>
        <time>2022-07-18T17:10:36Z</time>
      </trkpt>
      <trkpt lat="44.33881" lon="7.22123">
        <ele>1223.8</ele>
        <time>2022-07-18T17:10:37Z</time>
      </trkpt>
      <trkpt lat="44.33882" lon="7.2213">
        <ele>1223.4</ele>
        <time>2022-07-18T17:10:38Z</time>
      </trkpt>
      <trkpt lat="44.33883" lon="7.22144">
        <ele>1223</ele>
        <time>2022-07-18T17:10:39Z</time>
      </trkpt>
      <trkpt lat="44.33886" lon="7.22158">
        <ele>1222.6</ele>
        <time>2022-07-18T17:10:40Z</time>
      </trkpt>
      <trkpt lat="44.33891" lon="7.2217">
        <ele>1222.2</ele>
        <time>2022-07-18T17:10:41Z</time>
      </trkpt>
      <trkpt lat="44.33895" lon="7.2219">
        <ele>1221.6</ele>
        <time>2022-07-18T17:10:42Z</time>
      </trkpt>
      <trkpt lat="44.33896" lon="7.22197">
        <ele>1221.2</ele>
        <time>2022-07-18T17:10:43Z</time>
      </trkpt>
      <trkpt lat="44.33898" lon="7.22211">
        <ele>1220.8</ele>
        <time>2022-07-18T17:10:44Z</time>
      </trkpt>
      <trkpt lat="44.33896" lon="7.22224">
        <ele>1220.4</ele>
        <time>2022-07-18T17:10:45Z</time>
      </trkpt>
      <trkpt lat="44.33893" lon="7.22238">
        <ele>1220</ele>
        <time>2022-07-18T17:10:46Z</time>
      </trkpt>
      <trkpt lat="44.33889" lon="7.2225">
        <ele>1219.6</ele>
        <time>2022-07-18T17:10:47Z</time>
      </trkpt>
      <trkpt lat="44.33885" lon="7.22263">
        <ele>1219.2</ele>
        <time>2022-07-18T17:10:48Z</time>
      </trkpt>
      <trkpt lat="44.33882" lon="7.22276">
        <ele>1218.8</ele>
        <time>2022-07-18T17:10:49Z</time>
      </trkpt>
      <trkpt lat="44.3388" lon="7.22297">
        <ele>1218.4</ele>
        <time>2022-07-18T17:10:50Z</time>
      </trkpt>
      <trkpt lat="44.33879" lon="7.22304">
        <ele>1218</ele>
        <time>2022-07-18T17:10:51Z</time>
      </trkpt>
      <trkpt lat="44.33878" lon="7.22319">
        <ele>1217.6</ele>
        <time>2022-07-18T17:10:52Z</time>
      </trkpt>
      <trkpt lat="44.33874" lon="7.2234">
        <ele>1217.2</ele>
        <time>2022-07-18T17:10:53Z</time>
      </trkpt>
      <trkpt lat="44.33873" lon="7.22347">
        <ele>1217</ele>
        <time>2022-07-18T17:10:54Z</time>
      </trkpt>
      <trkpt lat="44.33869" lon="7.22361">
        <ele>1216.6</ele>
        <time>2022-07-18T17:10:55Z</time>
      </trkpt>
      <trkpt lat="44.33866" lon="7.22375">
        <ele>1216.2</ele>
        <time>2022-07-18T17:10:56Z</time>
      </trkpt>
      <trkpt lat="44.33862" lon="7.22388">
        <ele>1215.6</ele>
        <time>2022-07-18T17:10:57Z</time>
      </trkpt>
      <trkpt lat="44.33857" lon="7.22401">
        <ele>1215</ele>
        <time>2022-07-18T17:10:58Z</time>
      </trkpt>
      <trkpt lat="44.33851" lon="7.22413">
        <ele>1214.6</ele>
        <time>2022-07-18T17:10:59Z</time>
      </trkpt>
      <trkpt lat="44.33844" lon="7.22425">
        <ele>1214</ele>
        <time>2022-07-18T17:11:00Z</time>
      </trkpt>
      <trkpt lat="44.33838" lon="7.22436">
        <ele>1213.2</ele>
        <time>2022-07-18T17:11:01Z</time>
      </trkpt>
      <trkpt lat="44.33831" lon="7.22446">
        <ele>1212.6</ele>
        <time>2022-07-18T17:11:02Z</time>
      </trkpt>
      <trkpt lat="44.33825" lon="7.22454">
        <ele>1212</ele>
        <time>2022-07-18T17:11:03Z</time>
      </trkpt>
      <trkpt lat="44.33819" lon="7.22466">
        <ele>1211.2</ele>
        <time>2022-07-18T17:11:04Z</time>
      </trkpt>
      <trkpt lat="44.33811" lon="7.22483">
        <ele>1210.2</ele>
        <time>2022-07-18T17:11:05Z</time>
      </trkpt>
      <trkpt lat="44.3381" lon="7.22489">
        <ele>1209.2</ele>
        <time>2022-07-18T17:11:06Z</time>
      </trkpt>
      <trkpt lat="44.33807" lon="7.22503">
        <ele>1208.4</ele>
        <time>2022-07-18T17:11:07Z</time>
      </trkpt>
      <trkpt lat="44.33805" lon="7.22525">
        <ele>1207.6</ele>
        <time>2022-07-18T17:11:08Z</time>
      </trkpt>
      <trkpt lat="44.33805" lon="7.22532">
        <ele>1207</ele>
        <time>2022-07-18T17:11:09Z</time>
      </trkpt>
      <trkpt lat="44.33806" lon="7.22548">
        <ele>1206.4</ele>
        <time>2022-07-18T17:11:10Z</time>
      </trkpt>
      <trkpt lat="44.33806" lon="7.22563">
        <ele>1206</ele>
        <time>2022-07-18T17:11:11Z</time>
      </trkpt>
      <trkpt lat="44.33804" lon="7.22577">
        <ele>1205.6</ele>
        <time>2022-07-18T17:11:12Z</time>
      </trkpt>
      <trkpt lat="44.338" lon="7.2259">
        <ele>1205.2</ele>
        <time>2022-07-18T17:11:13Z</time>
      </trkpt>
      <trkpt lat="44.33795" lon="7.22609">
        <ele>1204.8</ele>
        <time>2022-07-18T17:11:14Z</time>
      </trkpt>
      <trkpt lat="44.33794" lon="7.22615">
        <ele>1204.2</ele>
        <time>2022-07-18T17:11:15Z</time>
      </trkpt>
      <trkpt lat="44.33792" lon="7.22629">
        <ele>1203.4</ele>
        <time>2022-07-18T17:11:16Z</time>
      </trkpt>
      <trkpt lat="44.33791" lon="7.2265">
        <ele>1202.4</ele>
        <time>2022-07-18T17:11:17Z</time>
      </trkpt>
      <trkpt lat="44.33792" lon="7.22657">
        <ele>1201.6</ele>
        <time>2022-07-18T17:11:18Z</time>
      </trkpt>
      <trkpt lat="44.33793" lon="7.22678">
        <ele>1200.4</ele>
        <time>2022-07-18T17:11:19Z</time>
      </trkpt>
      <trkpt lat="44.33794" lon="7.22685">
        <ele>1199.4</ele>
        <time>2022-07-18T17:11:20Z</time>
      </trkpt>
      <trkpt lat="44.33796" lon="7.22697">
        <ele>1198.4</ele>
        <time>2022-07-18T17:11:21Z</time>
      </trkpt>
      <trkpt lat="44.33794" lon="7.22709">
        <ele>1197.4</ele>
        <time>2022-07-18T17:11:22Z</time>
      </trkpt>
      <trkpt lat="44.33788" lon="7.22723">
        <ele>1196.4</ele>
        <time>2022-07-18T17:11:23Z</time>
      </trkpt>
      <trkpt lat="44.33785" lon="7.22727">
        <ele>1195.4</ele>
        <time>2022-07-18T17:11:24Z</time>
      </trkpt>
      <trkpt lat="44.33776" lon="7.22739">
        <ele>1194.6</ele>
        <time>2022-07-18T17:11:25Z</time>
      </trkpt>
      <trkpt lat="44.33773" lon="7.22743">
        <ele>1193.8</ele>
        <time>2022-07-18T17:11:26Z</time>
      </trkpt>
      <trkpt lat="44.33767" lon="7.2275">
        <ele>1193</ele>
        <time>2022-07-18T17:11:27Z</time>
      </trkpt>
      <trkpt lat="44.33762" lon="7.22766">
        <ele>1192.4</ele>
        <time>2022-07-18T17:11:28Z</time>
      </trkpt>
      <trkpt lat="44.33761" lon="7.22772">
        <ele>1191.6</ele>
        <time>2022-07-18T17:11:29Z</time>
      </trkpt>
      <trkpt lat="44.33758" lon="7.22784">
        <ele>1190.8</ele>
        <time>2022-07-18T17:11:30Z</time>
      </trkpt>
      <trkpt lat="44.33754" lon="7.22796">
        <ele>1190</ele>
        <time>2022-07-18T17:11:31Z</time>
      </trkpt>
      <trkpt lat="44.33746" lon="7.22811">
        <ele>1189</ele>
        <time>2022-07-18T17:11:32Z</time>
      </trkpt>
      <trkpt lat="44.33743" lon="7.22816">
        <ele>1188</ele>
        <time>2022-07-18T17:11:33Z</time>
      </trkpt>
      <trkpt lat="44.33737" lon="7.22827">
        <ele>1187</ele>
        <time>2022-07-18T17:11:34Z</time>
      </trkpt>
      <trkpt lat="44.33731" lon="7.22839">
        <ele>1186</ele>
        <time>2022-07-18T17:11:35Z</time>
      </trkpt>
      <trkpt lat="44.33727" lon="7.22853">
        <ele>1184.8</ele>
        <time>2022-07-18T17:11:36Z</time>
      </trkpt>
      <trkpt lat="44.33724" lon="7.22868">
        <ele>1183.6</ele>
        <time>2022-07-18T17:11:37Z</time>
      </trkpt>
      <trkpt lat="44.33722" lon="7.22884">
        <ele>1182.4</ele>
        <time>2022-07-18T17:11:38Z</time>
      </trkpt>
      <trkpt lat="44.3372" lon="7.2291">
        <ele>1181.2</ele>
        <time>2022-07-18T17:11:39Z</time>
      </trkpt>
      <trkpt lat="44.3372" lon="7.2292">
        <ele>1180</ele>
        <time>2022-07-18T17:11:40Z</time>
      </trkpt>
      <trkpt lat="44.33719" lon="7.22939">
        <ele>1179</ele>
        <time>2022-07-18T17:11:41Z</time>
      </trkpt>
      <trkpt lat="44.33717" lon="7.22957">
        <ele>1178</ele>
        <time>2022-07-18T17:11:42Z</time>
      </trkpt>
      <trkpt lat="44.33716" lon="7.22976">
        <ele>1177</ele>
        <time>2022-07-18T17:11:43Z</time>
      </trkpt>
      <trkpt lat="44.33715" lon="7.22994">
        <ele>1176.2</ele>
        <time>2022-07-18T17:11:44Z</time>
      </trkpt>
      <trkpt lat="44.33712" lon="7.23012">
        <ele>1175.4</ele>
        <time>2022-07-18T17:11:45Z</time>
      </trkpt>
      <trkpt lat="44.33709" lon="7.23037">
        <ele>1174.8</ele>
        <time>2022-07-18T17:11:46Z</time>
      </trkpt>
      <trkpt lat="44.33707" lon="7.23046">
        <ele>1174.2</ele>
        <time>2022-07-18T17:11:47Z</time>
      </trkpt>
      <trkpt lat="44.33705" lon="7.23063">
        <ele>1173.8</ele>
        <time>2022-07-18T17:11:48Z</time>
      </trkpt>
      <trkpt lat="44.33703" lon="7.2308">
        <ele>1173.2</ele>
        <time>2022-07-18T17:11:49Z</time>
      </trkpt>
      <trkpt lat="44.33699" lon="7.23097">
        <ele>1172.8</ele>
        <time>2022-07-18T17:11:50Z</time>
      </trkpt>
      <trkpt lat="44.33696" lon="7.23114">
        <ele>1172.4</ele>
        <time>2022-07-18T17:11:51Z</time>
      </trkpt>
      <trkpt lat="44.33691" lon="7.2313">
        <ele>1172</ele>
        <time>2022-07-18T17:11:52Z</time>
      </trkpt>
      <trkpt lat="44.33684" lon="7.23153">
        <ele>1171.6</ele>
        <time>2022-07-18T17:11:53Z</time>
      </trkpt>
      <trkpt lat="44.33681" lon="7.2316">
        <ele>1171.4</ele>
        <time>2022-07-18T17:11:54Z</time>
      </trkpt>
      <trkpt lat="44.33676" lon="7.23175">
        <ele>1171</ele>
        <time>2022-07-18T17:11:55Z</time>
      </trkpt>
      <trkpt lat="44.33671" lon="7.2319">
        <ele>1170.6</ele>
        <time>2022-07-18T17:11:56Z</time>
      </trkpt>
      <trkpt lat="44.33667" lon="7.23205">
        <ele>1170.2</ele>
        <time>2022-07-18T17:11:57Z</time>
      </trkpt>
      <trkpt lat="44.33662" lon="7.23219">
        <ele>1169.6</ele>
        <time>2022-07-18T17:11:58Z</time>
      </trkpt>
      <trkpt lat="44.33653" lon="7.2324">
        <ele>1169</ele>
        <time>2022-07-18T17:11:59Z</time>
      </trkpt>
      <trkpt lat="44.3365" lon="7.23247">
        <ele>1168.2</ele>
        <time>2022-07-18T17:12:00Z</time>
      </trkpt>
      <trkpt lat="44.33643" lon="7.23261">
        <ele>1167.2</ele>
        <time>2022-07-18T17:12:01Z</time>
      </trkpt>
      <trkpt lat="44.33637" lon="7.23273">
        <ele>1166.4</ele>
        <time>2022-07-18T17:12:02Z</time>
      </trkpt>
      <trkpt lat="44.3363" lon="7.23284">
        <ele>1165.8</ele>
        <time>2022-07-18T17:12:03Z</time>
      </trkpt>
      <trkpt lat="44.33623" lon="7.23294">
        <ele>1165</ele>
        <time>2022-07-18T17:12:04Z</time>
      </trkpt>
      <trkpt lat="44.33613" lon="7.23307">
        <ele>1164.2</ele>
        <time>2022-07-18T17:12:05Z</time>
      </trkpt>
      <trkpt lat="44.3361" lon="7.23311">
        <ele>1164.2</ele>
        <time>2022-07-18T17:12:06Z</time>
      </trkpt>
      <trkpt lat="44.33604" lon="7.23319">
        <ele>1163.4</ele>
        <time>2022-07-18T17:12:07Z</time>
      </trkpt>
      <trkpt lat="44.33593" lon="7.23329">
        <ele>1162.4</ele>
        <time>2022-07-18T17:12:08Z</time>
      </trkpt>
      <trkpt lat="44.33589" lon="7.23332">
        <ele>1161.4</ele>
        <time>2022-07-18T17:12:09Z</time>
      </trkpt>
      <trkpt lat="44.33581" lon="7.23336">
        <ele>1160.4</ele>
        <time>2022-07-18T17:12:10Z</time>
      </trkpt>
      <trkpt lat="44.3357" lon="7.23342">
        <ele>1159.6</ele>
        <time>2022-07-18T17:12:11Z</time>
      </trkpt>
      <trkpt lat="44.33567" lon="7.23345">
        <ele>1159</ele>
        <time>2022-07-18T17:12:12Z</time>
      </trkpt>
      <trkpt lat="44.33561" lon="7.23351">
        <ele>1158.4</ele>
        <time>2022-07-18T17:12:13Z</time>
      </trkpt>
      <trkpt lat="44.33557" lon="7.2336">
        <ele>1157.8</ele>
        <time>2022-07-18T17:12:14Z</time>
      </trkpt>
      <trkpt lat="44.33552" lon="7.23374">
        <ele>1157.2</ele>
        <time>2022-07-18T17:12:15Z</time>
      </trkpt>
      <trkpt lat="44.3355" lon="7.23379">
        <ele>1156.8</ele>
        <time>2022-07-18T17:12:16Z</time>
      </trkpt>
      <trkpt lat="44.33548" lon="7.23387">
        <ele>1156.2</ele>
        <time>2022-07-18T17:12:17Z</time>
      </trkpt>
      <trkpt lat="44.33547" lon="7.23394">
        <ele>1155.8</ele>
        <time>2022-07-18T17:12:18Z</time>
      </trkpt>
      <trkpt lat="44.33548" lon="7.23401">
        <ele>1155.2</ele>
        <time>2022-07-18T17:12:19Z</time>
      </trkpt>
      <trkpt lat="44.33552" lon="7.23408">
        <ele>1154.6</ele>
        <time>2022-07-18T17:12:20Z</time>
      </trkpt>
      <trkpt lat="44.33559" lon="7.23417">
        <ele>1153.8</ele>
        <time>2022-07-18T17:12:21Z</time>
      </trkpt>
      <trkpt lat="44.33562" lon="7.2342">
        <ele>1153.2</ele>
        <time>2022-07-18T17:12:22Z</time>
      </trkpt>
      <trkpt lat="44.33567" lon="7.23427">
        <ele>1152.4</ele>
        <time>2022-07-18T17:12:23Z</time>
      </trkpt>
      <trkpt lat="44.33568" lon="7.23435">
        <ele>1151.6</ele>
        <time>2022-07-18T17:12:24Z</time>
      </trkpt>
      <trkpt lat="44.33567" lon="7.23444">
        <ele>1150.8</ele>
        <time>2022-07-18T17:12:25Z</time>
      </trkpt>
      <trkpt lat="44.33563" lon="7.23451">
        <ele>1150</ele>
        <time>2022-07-18T17:12:26Z</time>
      </trkpt>
      <trkpt lat="44.33558" lon="7.23458">
        <ele>1149.2</ele>
        <time>2022-07-18T17:12:27Z</time>
      </trkpt>
      <trkpt lat="44.33546" lon="7.23469">
        <ele>1148.4</ele>
        <time>2022-07-18T17:12:28Z</time>
      </trkpt>
      <trkpt lat="44.33542" lon="7.23473">
        <ele>1147.4</ele>
        <time>2022-07-18T17:12:29Z</time>
      </trkpt>
      <trkpt lat="44.33533" lon="7.23481">
        <ele>1146.4</ele>
        <time>2022-07-18T17:12:30Z</time>
      </trkpt>
      <trkpt lat="44.33523" lon="7.2349">
        <ele>1145.2</ele>
        <time>2022-07-18T17:12:31Z</time>
      </trkpt>
      <trkpt lat="44.33509" lon="7.23506">
        <ele>1144</ele>
        <time>2022-07-18T17:12:32Z</time>
      </trkpt>
      <trkpt lat="44.33505" lon="7.23512">
        <ele>1142.8</ele>
        <time>2022-07-18T17:12:33Z</time>
      </trkpt>
      <trkpt lat="44.33497" lon="7.23525">
        <ele>1141.6</ele>
        <time>2022-07-18T17:12:34Z</time>
      </trkpt>
      <trkpt lat="44.33485" lon="7.23543">
        <ele>1140.6</ele>
        <time>2022-07-18T17:12:35Z</time>
      </trkpt>
      <trkpt lat="44.33481" lon="7.23549">
        <ele>1139.6</ele>
        <time>2022-07-18T17:12:36Z</time>
      </trkpt>
      <trkpt lat="44.33474" lon="7.23562">
        <ele>1138.6</ele>
        <time>2022-07-18T17:12:37Z</time>
      </trkpt>
      <trkpt lat="44.33468" lon="7.23573">
        <ele>1137.6</ele>
        <time>2022-07-18T17:12:38Z</time>
      </trkpt>
      <trkpt lat="44.3346" lon="7.23589">
        <ele>1136.8</ele>
        <time>2022-07-18T17:12:39Z</time>
      </trkpt>
      <trkpt lat="44.33458" lon="7.23594">
        <ele>1136</ele>
        <time>2022-07-18T17:12:40Z</time>
      </trkpt>
      <trkpt lat="44.33455" lon="7.23606">
        <ele>1135.2</ele>
        <time>2022-07-18T17:12:41Z</time>
      </trkpt>
      <trkpt lat="44.33455" lon="7.23618">
        <ele>1134.6</ele>
        <time>2022-07-18T17:12:42Z</time>
      </trkpt>
      <trkpt lat="44.33459" lon="7.23646">
        <ele>1133.4</ele>
        <time>2022-07-18T17:12:43Z</time>
      </trkpt>
      <trkpt lat="44.33462" lon="7.23659">
        <ele>1132.8</ele>
        <time>2022-07-18T17:12:44Z</time>
      </trkpt>
      <trkpt lat="44.33465" lon="7.23672">
        <ele>1132.4</ele>
        <time>2022-07-18T17:12:45Z</time>
      </trkpt>
      <trkpt lat="44.33467" lon="7.23686">
        <ele>1131.8</ele>
        <time>2022-07-18T17:12:46Z</time>
      </trkpt>
      <trkpt lat="44.33469" lon="7.23699">
        <ele>1131.4</ele>
        <time>2022-07-18T17:12:47Z</time>
      </trkpt>
      <trkpt lat="44.3347" lon="7.23712">
        <ele>1131</ele>
        <time>2022-07-18T17:12:48Z</time>
      </trkpt>
      <trkpt lat="44.3347" lon="7.23725">
        <ele>1130.6</ele>
        <time>2022-07-18T17:12:49Z</time>
      </trkpt>
      <trkpt lat="44.33469" lon="7.2374">
        <ele>1130.4</ele>
        <time>2022-07-18T17:12:50Z</time>
      </trkpt>
      <trkpt lat="44.33472" lon="7.23751">
        <ele>1130.4</ele>
        <time>2022-07-18T17:12:51Z</time>
      </trkpt>
      <trkpt lat="44.33475" lon="7.23763">
        <ele>1130.2</ele>
        <time>2022-07-18T17:12:52Z</time>
      </trkpt>
      <trkpt lat="44.33477" lon="7.23774">
        <ele>1130.2</ele>
        <time>2022-07-18T17:12:53Z</time>
      </trkpt>
      <trkpt lat="44.33479" lon="7.23785">
        <ele>1130</ele>
        <time>2022-07-18T17:12:54Z</time>
      </trkpt>
      <trkpt lat="44.3348" lon="7.23797">
        <ele>1130</ele>
        <time>2022-07-18T17:12:55Z</time>
      </trkpt>
      <trkpt lat="44.33481" lon="7.23808">
        <ele>1129.6</ele>
        <time>2022-07-18T17:12:56Z</time>
      </trkpt>
      <trkpt lat="44.33481" lon="7.2382">
        <ele>1129.4</ele>
        <time>2022-07-18T17:12:57Z</time>
      </trkpt>
      <trkpt lat="44.33481" lon="7.23833">
        <ele>1129</ele>
        <time>2022-07-18T17:12:58Z</time>
      </trkpt>
      <trkpt lat="44.3348" lon="7.23845">
        <ele>1128.8</ele>
        <time>2022-07-18T17:12:59Z</time>
      </trkpt>
      <trkpt lat="44.33479" lon="7.23858">
        <ele>1128.2</ele>
        <time>2022-07-18T17:13:00Z</time>
      </trkpt>
      <trkpt lat="44.33478" lon="7.23872">
        <ele>1127.8</ele>
        <time>2022-07-18T17:13:01Z</time>
      </trkpt>
      <trkpt lat="44.33477" lon="7.23885">
        <ele>1127.2</ele>
        <time>2022-07-18T17:13:02Z</time>
      </trkpt>
      <trkpt lat="44.33476" lon="7.239">
        <ele>1126.6</ele>
        <time>2022-07-18T17:13:03Z</time>
      </trkpt>
      <trkpt lat="44.33474" lon="7.23915">
        <ele>1125.8</ele>
        <time>2022-07-18T17:13:04Z</time>
      </trkpt>
      <trkpt lat="44.33472" lon="7.2393">
        <ele>1125</ele>
        <time>2022-07-18T17:13:05Z</time>
      </trkpt>
      <trkpt lat="44.33471" lon="7.23945">
        <ele>1124.2</ele>
        <time>2022-07-18T17:13:06Z</time>
      </trkpt>
      <trkpt lat="44.33469" lon="7.2396">
        <ele>1123.4</ele>
        <time>2022-07-18T17:13:07Z</time>
      </trkpt>
      <trkpt lat="44.33468" lon="7.23976">
        <ele>1122.4</ele>
        <time>2022-07-18T17:13:09Z</time>
      </trkpt>
      <trkpt lat="44.33466" lon="7.23992">
        <ele>1121.4</ele>
        <time>2022-07-18T17:13:10Z</time>
      </trkpt>
      <trkpt lat="44.33465" lon="7.24009">
        <ele>1120.4</ele>
        <time>2022-07-18T17:13:11Z</time>
      </trkpt>
      <trkpt lat="44.33465" lon="7.24027">
        <ele>1119.2</ele>
        <time>2022-07-18T17:13:12Z</time>
      </trkpt>
      <trkpt lat="44.33467" lon="7.24045">
        <ele>1117.8</ele>
        <time>2022-07-18T17:13:13Z</time>
      </trkpt>
      <trkpt lat="44.33469" lon="7.2406">
        <ele>1116.6</ele>
        <time>2022-07-18T17:13:14Z</time>
      </trkpt>
      <trkpt lat="44.3347" lon="7.24076">
        <ele>1115.4</ele>
        <time>2022-07-18T17:13:15Z</time>
      </trkpt>
      <trkpt lat="44.33469" lon="7.24091">
        <ele>1114</ele>
        <time>2022-07-18T17:13:16Z</time>
      </trkpt>
      <trkpt lat="44.33468" lon="7.24104">
        <ele>1112.8</ele>
        <time>2022-07-18T17:13:17Z</time>
      </trkpt>
      <trkpt lat="44.33467" lon="7.24116">
        <ele>1111.8</ele>
        <time>2022-07-18T17:13:18Z</time>
      </trkpt>
      <trkpt lat="44.33468" lon="7.24127">
        <ele>1110.6</ele>
        <time>2022-07-18T17:13:19Z</time>
      </trkpt>
      <trkpt lat="44.33469" lon="7.24138">
        <ele>1109.6</ele>
        <time>2022-07-18T17:13:20Z</time>
      </trkpt>
      <trkpt lat="44.33466" lon="7.2415">
        <ele>1108.4</ele>
        <time>2022-07-18T17:13:21Z</time>
      </trkpt>
      <trkpt lat="44.33462" lon="7.2416">
        <ele>1107.2</ele>
        <time>2022-07-18T17:13:22Z</time>
      </trkpt>
      <trkpt lat="44.33458" lon="7.24169">
        <ele>1106.2</ele>
        <time>2022-07-18T17:13:23Z</time>
      </trkpt>
      <trkpt lat="44.33455" lon="7.2418">
        <ele>1105</ele>
        <time>2022-07-18T17:13:24Z</time>
      </trkpt>
      <trkpt lat="44.33452" lon="7.24192">
        <ele>1103.8</ele>
        <time>2022-07-18T17:13:25Z</time>
      </trkpt>
      <trkpt lat="44.33451" lon="7.24204">
        <ele>1102.8</ele>
        <time>2022-07-18T17:13:26Z</time>
      </trkpt>
      <trkpt lat="44.33451" lon="7.24216">
        <ele>1101.8</ele>
        <time>2022-07-18T17:13:27Z</time>
      </trkpt>
      <trkpt lat="44.33455" lon="7.24228">
        <ele>1100.6</ele>
        <time>2022-07-18T17:13:28Z</time>
      </trkpt>
      <trkpt lat="44.33458" lon="7.24239">
        <ele>1099.4</ele>
        <time>2022-07-18T17:13:29Z</time>
      </trkpt>
      <trkpt lat="44.33459" lon="7.24251">
        <ele>1098.4</ele>
        <time>2022-07-18T17:13:30Z</time>
      </trkpt>
      <trkpt lat="44.33458" lon="7.24262">
        <ele>1097.2</ele>
        <time>2022-07-18T17:13:31Z</time>
      </trkpt>
      <trkpt lat="44.33454" lon="7.24272">
        <ele>1096.2</ele>
        <time>2022-07-18T17:13:32Z</time>
      </trkpt>
      <trkpt lat="44.33446" lon="7.2428">
        <ele>1095.2</ele>
        <time>2022-07-18T17:13:33Z</time>
      </trkpt>
      <trkpt lat="44.33439" lon="7.24287">
        <ele>1094.2</ele>
        <time>2022-07-18T17:13:34Z</time>
      </trkpt>
      <trkpt lat="44.33431" lon="7.24295">
        <ele>1093</ele>
        <time>2022-07-18T17:13:35Z</time>
      </trkpt>
      <trkpt lat="44.33424" lon="7.24303">
        <ele>1092</ele>
        <time>2022-07-18T17:13:36Z</time>
      </trkpt>
      <trkpt lat="44.33418" lon="7.24314">
        <ele>1090.8</ele>
        <time>2022-07-18T17:13:37Z</time>
      </trkpt>
      <trkpt lat="44.33413" lon="7.24329">
        <ele>1089.8</ele>
        <time>2022-07-18T17:13:38Z</time>
      </trkpt>
      <trkpt lat="44.33408" lon="7.24343">
        <ele>1088.6</ele>
        <time>2022-07-18T17:13:39Z</time>
      </trkpt>
      <trkpt lat="44.33404" lon="7.24358">
        <ele>1087.4</ele>
        <time>2022-07-18T17:13:40Z</time>
      </trkpt>
      <trkpt lat="44.33402" lon="7.2437">
        <ele>1086.4</ele>
        <time>2022-07-18T17:13:41Z</time>
      </trkpt>
      <trkpt lat="44.33402" lon="7.24385">
        <ele>1085.2</ele>
        <time>2022-07-18T17:13:42Z</time>
      </trkpt>
      <trkpt lat="44.33405" lon="7.24399">
        <ele>1084.2</ele>
        <time>2022-07-18T17:13:43Z</time>
      </trkpt>
      <trkpt lat="44.33407" lon="7.24413">
        <ele>1083</ele>
        <time>2022-07-18T17:13:44Z</time>
      </trkpt>
      <trkpt lat="44.33408" lon="7.24428">
        <ele>1081.8</ele>
        <time>2022-07-18T17:13:45Z</time>
      </trkpt>
      <trkpt lat="44.33408" lon="7.24441">
        <ele>1080.8</ele>
        <time>2022-07-18T17:13:46Z</time>
      </trkpt>
      <trkpt lat="44.33406" lon="7.24456">
        <ele>1079.6</ele>
        <time>2022-07-18T17:13:47Z</time>
      </trkpt>
      <trkpt lat="44.33401" lon="7.2447">
        <ele>1078.4</ele>
        <time>2022-07-18T17:13:48Z</time>
      </trkpt>
      <trkpt lat="44.33398" lon="7.24486">
        <ele>1077.2</ele>
        <time>2022-07-18T17:13:49Z</time>
      </trkpt>
      <trkpt lat="44.33396" lon="7.24502">
        <ele>1075.8</ele>
        <time>2022-07-18T17:13:50Z</time>
      </trkpt>
      <trkpt lat="44.33393" lon="7.24521">
        <ele>1074.4</ele>
        <time>2022-07-18T17:13:51Z</time>
      </trkpt>
      <trkpt lat="44.33391" lon="7.2454">
        <ele>1072.8</ele>
        <time>2022-07-18T17:13:52Z</time>
      </trkpt>
      <trkpt lat="44.33389" lon="7.2456">
        <ele>1071.2</ele>
        <time>2022-07-18T17:13:53Z</time>
      </trkpt>
      <trkpt lat="44.33388" lon="7.24582">
        <ele>1069.6</ele>
        <time>2022-07-18T17:13:54Z</time>
      </trkpt>
      <trkpt lat="44.33388" lon="7.24604">
        <ele>1068.2</ele>
        <time>2022-07-18T17:13:55Z</time>
      </trkpt>
      <trkpt lat="44.33389" lon="7.24623">
        <ele>1066.8</ele>
        <time>2022-07-18T17:13:56Z</time>
      </trkpt>
      <trkpt lat="44.33388" lon="7.24643">
        <ele>1065.6</ele>
        <time>2022-07-18T17:13:57Z</time>
      </trkpt>
      <trkpt lat="44.33387" lon="7.24663">
        <ele>1064.4</ele>
        <time>2022-07-18T17:13:58Z</time>
      </trkpt>
      <trkpt lat="44.33386" lon="7.24683">
        <ele>1063.2</ele>
        <time>2022-07-18T17:13:59Z</time>
      </trkpt>
      <trkpt lat="44.33384" lon="7.24702">
        <ele>1062</ele>
        <time>2022-07-18T17:14:00Z</time>
      </trkpt>
      <trkpt lat="44.3338" lon="7.24721">
        <ele>1060.8</ele>
        <time>2022-07-18T17:14:01Z</time>
      </trkpt>
      <trkpt lat="44.33378" lon="7.24741">
        <ele>1059.6</ele>
        <time>2022-07-18T17:14:02Z</time>
      </trkpt>
      <trkpt lat="44.33375" lon="7.24761">
        <ele>1058.4</ele>
        <time>2022-07-18T17:14:03Z</time>
      </trkpt>
      <trkpt lat="44.33371" lon="7.24779">
        <ele>1057.4</ele>
        <time>2022-07-18T17:14:04Z</time>
      </trkpt>
      <trkpt lat="44.33368" lon="7.24797">
        <ele>1056.4</ele>
        <time>2022-07-18T17:14:05Z</time>
      </trkpt>
      <trkpt lat="44.33364" lon="7.24815">
        <ele>1055.4</ele>
        <time>2022-07-18T17:14:06Z</time>
      </trkpt>
      <trkpt lat="44.3336" lon="7.24831">
        <ele>1054.4</ele>
        <time>2022-07-18T17:14:07Z</time>
      </trkpt>
      <trkpt lat="44.33356" lon="7.24844">
        <ele>1053.4</ele>
        <time>2022-07-18T17:14:08Z</time>
      </trkpt>
      <trkpt lat="44.33352" lon="7.24855">
        <ele>1052.4</ele>
        <time>2022-07-18T17:14:09Z</time>
      </trkpt>
      <trkpt lat="44.33348" lon="7.24866">
        <ele>1051.6</ele>
        <time>2022-07-18T17:14:10Z</time>
      </trkpt>
      <trkpt lat="44.33344" lon="7.24877">
        <ele>1050.8</ele>
        <time>2022-07-18T17:14:11Z</time>
      </trkpt>
      <trkpt lat="44.33341" lon="7.24885">
        <ele>1050</ele>
        <time>2022-07-18T17:14:12Z</time>
      </trkpt>
      <trkpt lat="44.33338" lon="7.24891">
        <ele>1049.4</ele>
        <time>2022-07-18T17:14:13Z</time>
      </trkpt>
      <trkpt lat="44.33334" lon="7.24893">
        <ele>1048.8</ele>
        <time>2022-07-18T17:14:14Z</time>
      </trkpt>
      <trkpt lat="44.3333" lon="7.2489">
        <ele>1048.4</ele>
        <time>2022-07-18T17:14:15Z</time>
      </trkpt>
      <trkpt lat="44.33327" lon="7.24885">
        <ele>1047.8</ele>
        <time>2022-07-18T17:14:16Z</time>
      </trkpt>
      <trkpt lat="44.33327" lon="7.24877">
        <ele>1047.4</ele>
        <time>2022-07-18T17:14:17Z</time>
      </trkpt>
      <trkpt lat="44.33329" lon="7.24868">
        <ele>1047</ele>
        <time>2022-07-18T17:14:18Z</time>
      </trkpt>
      <trkpt lat="44.33332" lon="7.24858">
        <ele>1046.4</ele>
        <time>2022-07-18T17:14:19Z</time>
      </trkpt>
      <trkpt lat="44.33335" lon="7.24847">
        <ele>1046</ele>
        <time>2022-07-18T17:14:20Z</time>
      </trkpt>
      <trkpt lat="44.33337" lon="7.24836">
        <ele>1045.2</ele>
        <time>2022-07-18T17:14:21Z</time>
      </trkpt>
      <trkpt lat="44.33338" lon="7.24824">
        <ele>1044.6</ele>
        <time>2022-07-18T17:14:22Z</time>
      </trkpt>
      <trkpt lat="44.3334" lon="7.24812">
        <ele>1044</ele>
        <time>2022-07-18T17:14:23Z</time>
      </trkpt>
      <trkpt lat="44.33341" lon="7.24798">
        <ele>1043.2</ele>
        <time>2022-07-18T17:14:24Z</time>
      </trkpt>
      <trkpt lat="44.33342" lon="7.24786">
        <ele>1042.6</ele>
        <time>2022-07-18T17:14:25Z</time>
      </trkpt>
      <trkpt lat="44.33343" lon="7.24776">
        <ele>1041.8</ele>
        <time>2022-07-18T17:14:26Z</time>
      </trkpt>
      <trkpt lat="44.33343" lon="7.24767">
        <ele>1041.2</ele>
        <time>2022-07-18T17:14:27Z</time>
      </trkpt>
      <trkpt lat="44.33342" lon="7.24762">
        <ele>1040.6</ele>
        <time>2022-07-18T17:14:28Z</time>
      </trkpt>
      <trkpt lat="44.33337" lon="7.2476">
        <ele>1040.2</ele>
        <time>2022-07-18T17:14:29Z</time>
      </trkpt>
      <trkpt lat="44.33333" lon="7.24761">
        <ele>1039.8</ele>
        <time>2022-07-18T17:14:30Z</time>
      </trkpt>
      <trkpt lat="44.33329" lon="7.24765">
        <ele>1039.2</ele>
        <time>2022-07-18T17:14:31Z</time>
      </trkpt>
      <trkpt lat="44.33325" lon="7.24774">
        <ele>1038.6</ele>
        <time>2022-07-18T17:14:32Z</time>
      </trkpt>
      <trkpt lat="44.33322" lon="7.24784">
        <ele>1038</ele>
        <time>2022-07-18T17:14:33Z</time>
      </trkpt>
      <trkpt lat="44.33318" lon="7.24796">
        <ele>1037.2</ele>
        <time>2022-07-18T17:14:34Z</time>
      </trkpt>
      <trkpt lat="44.33313" lon="7.24809">
        <ele>1036.4</ele>
        <time>2022-07-18T17:14:35Z</time>
      </trkpt>
      <trkpt lat="44.33308" lon="7.24821">
        <ele>1035.4</ele>
        <time>2022-07-18T17:14:36Z</time>
      </trkpt>
      <trkpt lat="44.33303" lon="7.24834">
        <ele>1034.4</ele>
        <time>2022-07-18T17:14:37Z</time>
      </trkpt>
      <trkpt lat="44.33297" lon="7.24847">
        <ele>1033.6</ele>
        <time>2022-07-18T17:14:38Z</time>
      </trkpt>
      <trkpt lat="44.33289" lon="7.24859">
        <ele>1032.8</ele>
        <time>2022-07-18T17:14:39Z</time>
      </trkpt>
      <trkpt lat="44.33281" lon="7.24871">
        <ele>1031.8</ele>
        <time>2022-07-18T17:14:40Z</time>
      </trkpt>
      <trkpt lat="44.33272" lon="7.24882">
        <ele>1030.6</ele>
        <time>2022-07-18T17:14:41Z</time>
      </trkpt>
      <trkpt lat="44.33263" lon="7.24893">
        <ele>1029.4</ele>
        <time>2022-07-18T17:14:42Z</time>
      </trkpt>
      <trkpt lat="44.33254" lon="7.24903">
        <ele>1028.4</ele>
        <time>2022-07-18T17:14:43Z</time>
      </trkpt>
      <trkpt lat="44.33247" lon="7.24913">
        <ele>1027.4</ele>
        <time>2022-07-18T17:14:44Z</time>
      </trkpt>
      <trkpt lat="44.33239" lon="7.24922">
        <ele>1026.2</ele>
        <time>2022-07-18T17:14:45Z</time>
      </trkpt>
      <trkpt lat="44.33231" lon="7.2493">
        <ele>1025</ele>
        <time>2022-07-18T17:14:46Z</time>
      </trkpt>
      <trkpt lat="44.33221" lon="7.24936">
        <ele>1023.8</ele>
        <time>2022-07-18T17:14:47Z</time>
      </trkpt>
      <trkpt lat="44.33211" lon="7.24938">
        <ele>1022.6</ele>
        <time>2022-07-18T17:14:48Z</time>
      </trkpt>
      <trkpt lat="44.33202" lon="7.24941">
        <ele>1021.4</ele>
        <time>2022-07-18T17:14:49Z</time>
      </trkpt>
      <trkpt lat="44.33195" lon="7.24945">
        <ele>1020.2</ele>
        <time>2022-07-18T17:14:50Z</time>
      </trkpt>
      <trkpt lat="44.3319" lon="7.24954">
        <ele>1019</ele>
        <time>2022-07-18T17:14:51Z</time>
      </trkpt>
      <trkpt lat="44.33185" lon="7.24967">
        <ele>1018</ele>
        <time>2022-07-18T17:14:52Z</time>
      </trkpt>
      <trkpt lat="44.33183" lon="7.24983">
        <ele>1017</ele>
        <time>2022-07-18T17:14:53Z</time>
      </trkpt>
      <trkpt lat="44.33178" lon="7.24995">
        <ele>1016</ele>
        <time>2022-07-18T17:14:54Z</time>
      </trkpt>
      <trkpt lat="44.33171" lon="7.25004">
        <ele>1014.8</ele>
        <time>2022-07-18T17:14:55Z</time>
      </trkpt>
      <trkpt lat="44.33164" lon="7.25013">
        <ele>1013.8</ele>
        <time>2022-07-18T17:14:56Z</time>
      </trkpt>
      <trkpt lat="44.33159" lon="7.25021">
        <ele>1012.8</ele>
        <time>2022-07-18T17:14:57Z</time>
      </trkpt>
      <trkpt lat="44.33154" lon="7.25033">
        <ele>1012</ele>
        <time>2022-07-18T17:14:58Z</time>
      </trkpt>
      <trkpt lat="44.33151" lon="7.25047">
        <ele>1011</ele>
        <time>2022-07-18T17:14:59Z</time>
      </trkpt>
      <trkpt lat="44.33149" lon="7.25062">
        <ele>1010</ele>
        <time>2022-07-18T17:15:00Z</time>
      </trkpt>
      <trkpt lat="44.33147" lon="7.25077">
        <ele>1009</ele>
        <time>2022-07-18T17:15:01Z</time>
      </trkpt>
      <trkpt lat="44.33146" lon="7.25093">
        <ele>1008</ele>
        <time>2022-07-18T17:15:02Z</time>
      </trkpt>
      <trkpt lat="44.33146" lon="7.2511">
        <ele>1007</ele>
        <time>2022-07-18T17:15:03Z</time>
      </trkpt>
      <trkpt lat="44.33147" lon="7.25127">
        <ele>1006.2</ele>
        <time>2022-07-18T17:15:04Z</time>
      </trkpt>
      <trkpt lat="44.3315" lon="7.25142">
        <ele>1005.2</ele>
        <time>2022-07-18T17:15:05Z</time>
      </trkpt>
      <trkpt lat="44.33153" lon="7.25158">
        <ele>1004.4</ele>
        <time>2022-07-18T17:15:06Z</time>
      </trkpt>
      <trkpt lat="44.33153" lon="7.25173">
        <ele>1003.6</ele>
        <time>2022-07-18T17:15:07Z</time>
      </trkpt>
      <trkpt lat="44.33153" lon="7.25188">
        <ele>1002.8</ele>
        <time>2022-07-18T17:15:08Z</time>
      </trkpt>
      <trkpt lat="44.33155" lon="7.25203">
        <ele>1002.2</ele>
        <time>2022-07-18T17:15:09Z</time>
      </trkpt>
      <trkpt lat="44.33158" lon="7.25217">
        <ele>1001.6</ele>
        <time>2022-07-18T17:15:10Z</time>
      </trkpt>
      <trkpt lat="44.33162" lon="7.2523">
        <ele>1001.2</ele>
        <time>2022-07-18T17:15:11Z</time>
      </trkpt>
      <trkpt lat="44.33168" lon="7.25242">
        <ele>1000.8</ele>
        <time>2022-07-18T17:15:12Z</time>
      </trkpt>
      <trkpt lat="44.33173" lon="7.25254">
        <ele>1000.6</ele>
        <time>2022-07-18T17:15:13Z</time>
      </trkpt>
      <trkpt lat="44.33181" lon="7.25261">
        <ele>1000.2</ele>
        <time>2022-07-18T17:15:14Z</time>
      </trkpt>
      <trkpt lat="44.33189" lon="7.25269">
        <ele>1000.2</ele>
        <time>2022-07-18T17:15:15Z</time>
      </trkpt>
      <trkpt lat="44.33196" lon="7.25279">
        <ele>1000</ele>
        <time>2022-07-18T17:15:16Z</time>
      </trkpt>
      <trkpt lat="44.33201" lon="7.25289">
        <ele>1000</ele>
        <time>2022-07-18T17:15:17Z</time>
      </trkpt>
      <trkpt lat="44.33205" lon="7.25299">
        <ele>1000.2</ele>
        <time>2022-07-18T17:15:18Z</time>
      </trkpt>
      <trkpt lat="44.33208" lon="7.2531">
        <ele>1000.2</ele>
        <time>2022-07-18T17:15:19Z</time>
      </trkpt>
      <trkpt lat="44.33211" lon="7.2532">
        <ele>1000.2</ele>
        <time>2022-07-18T17:15:20Z</time>
      </trkpt>
      <trkpt lat="44.33213" lon="7.25331">
        <ele>1000.2</ele>
        <time>2022-07-18T17:15:21Z</time>
      </trkpt>
      <trkpt lat="44.33215" lon="7.25341">
        <ele>1000.6</ele>
        <time>2022-07-18T17:15:22Z</time>
      </trkpt>
      <trkpt lat="44.33217" lon="7.25351">
        <ele>1000.6</ele>
        <time>2022-07-18T17:15:23Z</time>
      </trkpt>
      <trkpt lat="44.33218" lon="7.25361">
        <ele>1000.6</ele>
        <time>2022-07-18T17:15:24Z</time>
      </trkpt>
      <trkpt lat="44.33219" lon="7.25371">
        <ele>1000.6</ele>
        <time>2022-07-18T17:15:25Z</time>
      </trkpt>
      <trkpt lat="44.3322" lon="7.25383">
        <ele>1000</ele>
        <time>2022-07-18T17:15:26Z</time>
      </trkpt>
      <trkpt lat="44.3322" lon="7.25395">
        <ele>999.6</ele>
        <time>2022-07-18T17:15:27Z</time>
      </trkpt>
      <trkpt lat="44.3322" lon="7.25408">
        <ele>999</ele>
        <time>2022-07-18T17:15:28Z</time>
      </trkpt>
      <trkpt lat="44.33221" lon="7.25423">
        <ele>998.2</ele>
        <time>2022-07-18T17:15:29Z</time>
      </trkpt>
      <trkpt lat="44.33219" lon="7.25438">
        <ele>997.2</ele>
        <time>2022-07-18T17:15:30Z</time>
      </trkpt>
      <trkpt lat="44.33217" lon="7.25455">
        <ele>996.2</ele>
        <time>2022-07-18T17:15:31Z</time>
      </trkpt>
      <trkpt lat="44.33214" lon="7.25472">
        <ele>995</ele>
        <time>2022-07-18T17:15:32Z</time>
      </trkpt>
      <trkpt lat="44.33211" lon="7.25489">
        <ele>994</ele>
        <time>2022-07-18T17:15:33Z</time>
      </trkpt>
      <trkpt lat="44.3321" lon="7.25508">
        <ele>992.8</ele>
        <time>2022-07-18T17:15:34Z</time>
      </trkpt>
      <trkpt lat="44.33208" lon="7.25527">
        <ele>991.4</ele>
        <time>2022-07-18T17:15:35Z</time>
      </trkpt>
      <trkpt lat="44.33206" lon="7.25546">
        <ele>990</ele>
        <time>2022-07-18T17:15:36Z</time>
      </trkpt>
      <trkpt lat="44.33203" lon="7.25566">
        <ele>988.8</ele>
        <time>2022-07-18T17:15:37Z</time>
      </trkpt>
      <trkpt lat="44.33201" lon="7.25585">
        <ele>987.4</ele>
        <time>2022-07-18T17:15:38Z</time>
      </trkpt>
      <trkpt lat="44.33198" lon="7.25603">
        <ele>986.4</ele>
        <time>2022-07-18T17:15:39Z</time>
      </trkpt>
      <trkpt lat="44.33195" lon="7.2562">
        <ele>985.4</ele>
        <time>2022-07-18T17:15:40Z</time>
      </trkpt>
      <trkpt lat="44.33191" lon="7.25635">
        <ele>984.4</ele>
        <time>2022-07-18T17:15:41Z</time>
      </trkpt>
      <trkpt lat="44.33187" lon="7.2565">
        <ele>983.6</ele>
        <time>2022-07-18T17:15:42Z</time>
      </trkpt>
      <trkpt lat="44.33182" lon="7.25664">
        <ele>982.8</ele>
        <time>2022-07-18T17:15:43Z</time>
      </trkpt>
      <trkpt lat="44.33177" lon="7.25677">
        <ele>982</ele>
        <time>2022-07-18T17:15:44Z</time>
      </trkpt>
      <trkpt lat="44.33171" lon="7.25689">
        <ele>981.2</ele>
        <time>2022-07-18T17:15:45Z</time>
      </trkpt>
      <trkpt lat="44.33165" lon="7.25701">
        <ele>980.2</ele>
        <time>2022-07-18T17:15:46Z</time>
      </trkpt>
      <trkpt lat="44.33158" lon="7.25711">
        <ele>979.2</ele>
        <time>2022-07-18T17:15:47Z</time>
      </trkpt>
      <trkpt lat="44.3315" lon="7.25719">
        <ele>978.2</ele>
        <time>2022-07-18T17:15:48Z</time>
      </trkpt>
      <trkpt lat="44.3314" lon="7.25722">
        <ele>977.2</ele>
        <time>2022-07-18T17:15:49Z</time>
      </trkpt>
      <trkpt lat="44.33131" lon="7.25724">
        <ele>976</ele>
        <time>2022-07-18T17:15:50Z</time>
      </trkpt>
      <trkpt lat="44.33122" lon="7.25727">
        <ele>975</ele>
        <time>2022-07-18T17:15:51Z</time>
      </trkpt>
      <trkpt lat="44.33113" lon="7.25732">
        <ele>973.8</ele>
        <time>2022-07-18T17:15:52Z</time>
      </trkpt>
      <trkpt lat="44.33105" lon="7.25741">
        <ele>972.8</ele>
        <time>2022-07-18T17:15:53Z</time>
      </trkpt>
      <trkpt lat="44.33098" lon="7.25751">
        <ele>971.6</ele>
        <time>2022-07-18T17:15:54Z</time>
      </trkpt>
      <trkpt lat="44.33092" lon="7.25761">
        <ele>970.4</ele>
        <time>2022-07-18T17:15:55Z</time>
      </trkpt>
      <trkpt lat="44.33087" lon="7.25774">
        <ele>969.2</ele>
        <time>2022-07-18T17:15:56Z</time>
      </trkpt>
      <trkpt lat="44.33083" lon="7.2579">
        <ele>967.8</ele>
        <time>2022-07-18T17:15:57Z</time>
      </trkpt>
      <trkpt lat="44.3308" lon="7.25805">
        <ele>966.6</ele>
        <time>2022-07-18T17:15:58Z</time>
      </trkpt>
      <trkpt lat="44.33078" lon="7.25818">
        <ele>965.2</ele>
        <time>2022-07-18T17:15:59Z</time>
      </trkpt>
      <trkpt lat="44.33075" lon="7.2583">
        <ele>964</ele>
        <time>2022-07-18T17:16:00Z</time>
      </trkpt>
      <trkpt lat="44.3307" lon="7.25839">
        <ele>963</ele>
        <time>2022-07-18T17:16:01Z</time>
      </trkpt>
      <trkpt lat="44.33064" lon="7.25845">
        <ele>962</ele>
        <time>2022-07-18T17:16:02Z</time>
      </trkpt>
      <trkpt lat="44.33058" lon="7.25849">
        <ele>961.4</ele>
        <time>2022-07-18T17:16:03Z</time>
      </trkpt>
      <trkpt lat="44.33052" lon="7.25853">
        <ele>960.8</ele>
        <time>2022-07-18T17:16:04Z</time>
      </trkpt>
      <trkpt lat="44.33047" lon="7.2586">
        <ele>960.2</ele>
        <time>2022-07-18T17:16:05Z</time>
      </trkpt>
      <trkpt lat="44.33044" lon="7.25869">
        <ele>959.8</ele>
        <time>2022-07-18T17:16:06Z</time>
      </trkpt>
      <trkpt lat="44.33042" lon="7.2588">
        <ele>959.4</ele>
        <time>2022-07-18T17:16:07Z</time>
      </trkpt>
      <trkpt lat="44.33041" lon="7.25892">
        <ele>958.8</ele>
        <time>2022-07-18T17:16:08Z</time>
      </trkpt>
      <trkpt lat="44.3304" lon="7.25905">
        <ele>958.2</ele>
        <time>2022-07-18T17:16:09Z</time>
      </trkpt>
      <trkpt lat="44.33039" lon="7.25918">
        <ele>957.4</ele>
        <time>2022-07-18T17:16:10Z</time>
      </trkpt>
      <trkpt lat="44.33038" lon="7.25931">
        <ele>957</ele>
        <time>2022-07-18T17:16:11Z</time>
      </trkpt>
      <trkpt lat="44.33037" lon="7.25945">
        <ele>956.6</ele>
        <time>2022-07-18T17:16:12Z</time>
      </trkpt>
      <trkpt lat="44.33037" lon="7.25958">
        <ele>956.2</ele>
        <time>2022-07-18T17:16:13Z</time>
      </trkpt>
      <trkpt lat="44.33035" lon="7.25972">
        <ele>955.8</ele>
        <time>2022-07-18T17:16:14Z</time>
      </trkpt>
      <trkpt lat="44.33034" lon="7.25985">
        <ele>955.6</ele>
        <time>2022-07-18T17:16:15Z</time>
      </trkpt>
      <trkpt lat="44.3303" lon="7.25997">
        <ele>955.6</ele>
        <time>2022-07-18T17:16:16Z</time>
      </trkpt>
      <trkpt lat="44.33027" lon="7.26008">
        <ele>955.2</ele>
        <time>2022-07-18T17:16:17Z</time>
      </trkpt>
      <trkpt lat="44.33021" lon="7.26019">
        <ele>955</ele>
        <time>2022-07-18T17:16:18Z</time>
      </trkpt>
      <trkpt lat="44.33016" lon="7.26029">
        <ele>954.4</ele>
        <time>2022-07-18T17:16:20Z</time>
      </trkpt>
      <trkpt lat="44.33011" lon="7.2604">
        <ele>954</ele>
        <time>2022-07-18T17:16:21Z</time>
      </trkpt>
      <trkpt lat="44.33007" lon="7.26052">
        <ele>953.6</ele>
        <time>2022-07-18T17:16:22Z</time>
      </trkpt>
      <trkpt lat="44.33003" lon="7.26063">
        <ele>953.4</ele>
        <time>2022-07-18T17:16:23Z</time>
      </trkpt>
      <trkpt lat="44.32998" lon="7.26074">
        <ele>953</ele>
        <time>2022-07-18T17:16:24Z</time>
      </trkpt>
      <trkpt lat="44.32993" lon="7.26085">
        <ele>952.8</ele>
        <time>2022-07-18T17:16:25Z</time>
      </trkpt>
      <trkpt lat="44.32989" lon="7.26096">
        <ele>952.6</ele>
        <time>2022-07-18T17:16:26Z</time>
      </trkpt>
      <trkpt lat="44.32986" lon="7.26108">
        <ele>952.4</ele>
        <time>2022-07-18T17:16:27Z</time>
      </trkpt>
      <trkpt lat="44.32983" lon="7.2612">
        <ele>952.2</ele>
        <time>2022-07-18T17:16:28Z</time>
      </trkpt>
      <trkpt lat="44.32982" lon="7.26132">
        <ele>952</ele>
        <time>2022-07-18T17:16:29Z</time>
      </trkpt>
      <trkpt lat="44.32981" lon="7.26144">
        <ele>951.6</ele>
        <time>2022-07-18T17:16:30Z</time>
      </trkpt>
      <trkpt lat="44.32983" lon="7.26156">
        <ele>951.4</ele>
        <time>2022-07-18T17:16:31Z</time>
      </trkpt>
      <trkpt lat="44.32984" lon="7.26168">
        <ele>951</ele>
        <time>2022-07-18T17:16:32Z</time>
      </trkpt>
      <trkpt lat="44.32984" lon="7.2618">
        <ele>950.6</ele>
        <time>2022-07-18T17:16:33Z</time>
      </trkpt>
      <trkpt lat="44.32984" lon="7.26192">
        <ele>950.2</ele>
        <time>2022-07-18T17:16:34Z</time>
      </trkpt>
      <trkpt lat="44.32982" lon="7.26203">
        <ele>949.8</ele>
        <time>2022-07-18T17:16:35Z</time>
      </trkpt>
      <trkpt lat="44.3298" lon="7.26211">
        <ele>949.4</ele>
        <time>2022-07-18T17:16:36Z</time>
      </trkpt>
      <trkpt lat="44.32978" lon="7.26217">
        <ele>949.2</ele>
        <time>2022-07-18T17:16:37Z</time>
      </trkpt>
      <trkpt lat="44.32976" lon="7.26221">
        <ele>948.8</ele>
        <time>2022-07-18T17:16:38Z</time>
      </trkpt>
      <trkpt lat="44.32976" lon="7.26223">
        <ele>948.6</ele>
        <time>2022-07-18T17:16:39Z</time>
      </trkpt>
      <trkpt lat="44.32976" lon="7.26224">
        <ele>948.6</ele>
        <time>2022-07-18T17:16:40Z</time>
      </trkpt>
      <trkpt lat="44.32976" lon="7.26225">
        <ele>948.4</ele>
        <time>2022-07-18T17:16:41Z</time>
      </trkpt>
      <trkpt lat="44.32976" lon="7.26225">
        <ele>948.4</ele>
        <time>2022-07-18T17:16:42Z</time>
      </trkpt>
      <trkpt lat="44.32976" lon="7.26225">
        <ele>948.2</ele>
        <time>2022-07-18T17:16:46Z</time>
      </trkpt>
      <trkpt lat="44.32976" lon="7.26225">
        <ele>948</ele>
        <time>2022-07-18T17:16:57Z</time>
      </trkpt>
      <trkpt lat="44.32976" lon="7.26225">
        <ele>947.8</ele>
        <time>2022-07-18T17:17:01Z</time>
      </trkpt>
      <trkpt lat="44.32976" lon="7.26225">
        <ele>947.8</ele>
        <time>2022-07-18T17:17:07Z</time>
      </trkpt>
      <trkpt lat="44.32976" lon="7.26225">
        <ele>947.4</ele>
        <time>2022-07-18T17:17:11Z</time>
      </trkpt>
      <trkpt lat="44.32976" lon="7.26225">
        <ele>947.2</ele>
        <time>2022-07-18T17:17:17Z</time>
      </trkpt>
      <trkpt lat="44.32976" lon="7.26225">
        <ele>947.2</ele>
        <time>2022-07-18T17:17:21Z</time>
      </trkpt>
      <trkpt lat="44.32976" lon="7.26225">
        <ele>947</ele>
        <time>2022-07-18T17:17:54Z</time>
      </trkpt>
      <trkpt lat="44.32976" lon="7.26225">
        <ele>947.2</ele>
        <time>2022-07-18T17:18:50Z</time>
      </trkpt>
      <trkpt lat="44.32976" lon="7.26225">
        <ele>946.8</ele>
        <time>2022-07-18T17:22:31Z</time>
      </trkpt>
      <trkpt lat="44.32976" lon="7.26225">
        <ele>946.6</ele>
        <time>2022-07-18T17:22:52Z</time>
      </trkpt>
      <trkpt lat="44.32976" lon="7.26225">
        <ele>946.6</ele>
        <time>2022-07-18T17:23:03Z</time>
      </trkpt>
      <trkpt lat="44.32976" lon="7.26225">
        <ele>946.6</ele>
        <time>2022-07-18T17:23:15Z</time>
      </trkpt>
      <trkpt lat="44.32976" lon="7.26225">
        <ele>946.6</ele>
        <time>2022-07-18T17:23:23Z</time>
      </trkpt>
      <trkpt lat="44.32976" lon="7.26225">
        <ele>946.6</ele>
        <time>2022-07-18T17:25:09Z</time>
      </trkpt>
      <trkpt lat="44.32976" lon="7.26225">
        <ele>946.6</ele>
        <time>2022-07-18T17:26:08Z</time>
      </trkpt>
      <trkpt lat="44.32976" lon="7.26225">
        <ele>946.8</ele>
        <time>2022-07-18T17:26:56Z</time>
      </trkpt>
      <trkpt lat="44.32976" lon="7.26225">
        <ele>947</ele>
        <time>2022-07-18T17:27:22Z</time>
      </trkpt>
      <trkpt lat="44.32976" lon="7.26225">
        <ele>947.2</ele>
        <time>2022-07-18T17:27:26Z</time>
      </trkpt>
      <trkpt lat="44.32976" lon="7.26225">
        <ele>947.6</ele>
        <time>2022-07-18T17:27:39Z</time>
      </trkpt>
      <trkpt lat="44.32976" lon="7.26225">
        <ele>947.6</ele>
        <time>2022-07-18T17:27:43Z</time>
      </trkpt>
      <trkpt lat="44.32976" lon="7.26225">
        <ele>947.6</ele>
        <time>2022-07-18T17:28:13Z</time>
      </trkpt>
      <trkpt lat="44.32976" lon="7.26225">
        <ele>947.6</ele>
        <time>2022-07-18T17:28:48Z</time>
      </trkpt>
      <trkpt lat="44.32976" lon="7.26225">
        <ele>947.8</ele>
        <time>2022-07-18T17:29:21Z</time>
      </trkpt>
      <trkpt lat="44.32976" lon="7.26225">
        <ele>947.8</ele>
        <time>2022-07-18T17:29:25Z</time>
      </trkpt>
      <trkpt lat="44.32976" lon="7.26225">
        <ele>947.8</ele>
        <time>2022-07-18T17:29:30Z</time>
      </trkpt>
      <trkpt lat="44.32976" lon="7.26225">
        <ele>947.8</ele>
        <time>2022-07-18T17:29:34Z</time>
      </trkpt>
      <trkpt lat="44.32976" lon="7.26225">
        <ele>947.8</ele>
        <time>2022-07-18T17:29:51Z</time>
      </trkpt>
      <trkpt lat="44.32976" lon="7.26225">
        <ele>947.8</ele>
        <time>2022-07-18T17:29:55Z</time>
      </trkpt>
      <trkpt lat="44.32976" lon="7.26225">
        <ele>947.8</ele>
        <time>2022-07-18T17:29:59Z</time>
      </trkpt>
      <trkpt lat="44.32976" lon="7.26225">
        <ele>947.8</ele>
        <time>2022-07-18T17:30:10Z</time>
      </trkpt>
      <trkpt lat="44.32976" lon="7.26225">
        <ele>947.8</ele>
        <time>2022-07-18T17:30:20Z</time>
      </trkpt>
      <trkpt lat="44.32976" lon="7.26225">
        <ele>948</ele>
        <time>2022-07-18T17:30:40Z</time>
      </trkpt>
      <trkpt lat="44.32976" lon="7.26225">
        <ele>948</ele>
        <time>2022-07-18T17:30:44Z</time>
      </trkpt>
      <trkpt lat="44.32976" lon="7.26225">
        <ele>948</ele>
        <time>2022-07-18T17:32:21Z</time>
      </trkpt>
      <trkpt lat="44.32976" lon="7.26225">
        <ele>947.8</ele>
        <time>2022-07-18T17:32:25Z</time>
      </trkpt>
      <trkpt lat="44.32976" lon="7.26225">
        <ele>947.6</ele>
        <time>2022-07-18T17:35:40Z</time>
      </trkpt>
      <trkpt lat="44.32978" lon="7.26226">
        <ele>948</ele>
        <time>2022-07-18T17:35:42Z</time>
      </trkpt>
      <trkpt lat="44.32977" lon="7.26226">
        <ele>948.2</ele>
        <time>2022-07-18T17:35:43Z</time>
      </trkpt>
      <trkpt lat="44.32978" lon="7.26227">
        <ele>948.2</ele>
        <time>2022-07-18T17:35:44Z</time>
      </trkpt>
      <trkpt lat="44.32978" lon="7.26227">
        <ele>948.2</ele>
        <time>2022-07-18T17:35:45Z</time>
      </trkpt>
      <trkpt lat="44.32978" lon="7.26227">
        <ele>948.4</ele>
        <time>2022-07-18T17:35:49Z</time>
      </trkpt>
      <trkpt lat="44.32977" lon="7.26231">
        <ele>948.4</ele>
        <time>2022-07-18T17:35:52Z</time>
      </trkpt>
      <trkpt lat="44.32977" lon="7.26234">
        <ele>948.4</ele>
        <time>2022-07-18T17:35:53Z</time>
      </trkpt>
      <trkpt lat="44.32976" lon="7.26238">
        <ele>948.4</ele>
        <time>2022-07-18T17:35:54Z</time>
      </trkpt>
      <trkpt lat="44.32975" lon="7.26242">
        <ele>948.2</ele>
        <time>2022-07-18T17:35:55Z</time>
      </trkpt>
      <trkpt lat="44.32975" lon="7.26248">
        <ele>948.2</ele>
        <time>2022-07-18T17:35:56Z</time>
      </trkpt>
      <trkpt lat="44.32973" lon="7.26253">
        <ele>948</ele>
        <time>2022-07-18T17:35:57Z</time>
      </trkpt>
      <trkpt lat="44.32972" lon="7.2626">
        <ele>948</ele>
        <time>2022-07-18T17:35:58Z</time>
      </trkpt>
      <trkpt lat="44.3297" lon="7.26266">
        <ele>947.4</ele>
        <time>2022-07-18T17:35:59Z</time>
      </trkpt>
      <trkpt lat="44.32968" lon="7.26273">
        <ele>947.2</ele>
        <time>2022-07-18T17:36:00Z</time>
      </trkpt>
      <trkpt lat="44.32966" lon="7.2628">
        <ele>947</ele>
        <time>2022-07-18T17:36:01Z</time>
      </trkpt>
      <trkpt lat="44.32964" lon="7.26288">
        <ele>946.8</ele>
        <time>2022-07-18T17:36:02Z</time>
      </trkpt>
      <trkpt lat="44.32963" lon="7.26295">
        <ele>946.6</ele>
        <time>2022-07-18T17:36:03Z</time>
      </trkpt>
      <trkpt lat="44.32961" lon="7.26303">
        <ele>946.6</ele>
        <time>2022-07-18T17:36:04Z</time>
      </trkpt>
      <trkpt lat="44.3296" lon="7.26311">
        <ele>946.2</ele>
        <time>2022-07-18T17:36:05Z</time>
      </trkpt>
      <trkpt lat="44.32958" lon="7.2632">
        <ele>946.2</ele>
        <time>2022-07-18T17:36:06Z</time>
      </trkpt>
      <trkpt lat="44.32957" lon="7.26328">
        <ele>945.8</ele>
        <time>2022-07-18T17:36:07Z</time>
      </trkpt>
      <trkpt lat="44.32957" lon="7.26336">
        <ele>945.8</ele>
        <time>2022-07-18T17:36:08Z</time>
      </trkpt>
      <trkpt lat="44.32956" lon="7.26344">
        <ele>945.6</ele>
        <time>2022-07-18T17:36:09Z</time>
      </trkpt>
      <trkpt lat="44.32955" lon="7.26352">
        <ele>945.6</ele>
        <time>2022-07-18T17:36:10Z</time>
      </trkpt>
      <trkpt lat="44.32953" lon="7.26361">
        <ele>945.2</ele>
        <time>2022-07-18T17:36:11Z</time>
      </trkpt>
      <trkpt lat="44.32951" lon="7.2637">
        <ele>945</ele>
        <time>2022-07-18T17:36:12Z</time>
      </trkpt>
      <trkpt lat="44.32948" lon="7.26379">
        <ele>944.6</ele>
        <time>2022-07-18T17:36:13Z</time>
      </trkpt>
      <trkpt lat="44.32945" lon="7.2639">
        <ele>944.2</ele>
        <time>2022-07-18T17:36:14Z</time>
      </trkpt>
      <trkpt lat="44.32942" lon="7.26401">
        <ele>943.6</ele>
        <time>2022-07-18T17:36:15Z</time>
      </trkpt>
      <trkpt lat="44.32938" lon="7.26412">
        <ele>942.8</ele>
        <time>2022-07-18T17:36:16Z</time>
      </trkpt>
      <trkpt lat="44.32934" lon="7.26425">
        <ele>942</ele>
        <time>2022-07-18T17:36:17Z</time>
      </trkpt>
      <trkpt lat="44.32929" lon="7.26439">
        <ele>941.4</ele>
        <time>2022-07-18T17:36:18Z</time>
      </trkpt>
      <trkpt lat="44.32924" lon="7.26452">
        <ele>940.8</ele>
        <time>2022-07-18T17:36:19Z</time>
      </trkpt>
      <trkpt lat="44.32918" lon="7.26464">
        <ele>940.2</ele>
        <time>2022-07-18T17:36:20Z</time>
      </trkpt>
      <trkpt lat="44.32912" lon="7.26475">
        <ele>940</ele>
        <time>2022-07-18T17:36:21Z</time>
      </trkpt>
      <trkpt lat="44.32906" lon="7.26487">
        <ele>940</ele>
        <time>2022-07-18T17:36:22Z</time>
      </trkpt>
      <trkpt lat="44.32902" lon="7.26496">
        <ele>940</ele>
        <time>2022-07-18T17:36:23Z</time>
      </trkpt>
      <trkpt lat="44.32897" lon="7.26505">
        <ele>940</ele>
        <time>2022-07-18T17:36:24Z</time>
      </trkpt>
      <trkpt lat="44.32893" lon="7.26514">
        <ele>940.2</ele>
        <time>2022-07-18T17:36:25Z</time>
      </trkpt>
      <trkpt lat="44.32888" lon="7.2652">
        <ele>940.4</ele>
        <time>2022-07-18T17:36:26Z</time>
      </trkpt>
      <trkpt lat="44.32883" lon="7.26526">
        <ele>940.6</ele>
        <time>2022-07-18T17:36:27Z</time>
      </trkpt>
      <trkpt lat="44.32877" lon="7.26532">
        <ele>941</ele>
        <time>2022-07-18T17:36:28Z</time>
      </trkpt>
      <trkpt lat="44.32872" lon="7.26537">
        <ele>941.4</ele>
        <time>2022-07-18T17:36:29Z</time>
      </trkpt>
      <trkpt lat="44.32867" lon="7.26541">
        <ele>941.6</ele>
        <time>2022-07-18T17:36:30Z</time>
      </trkpt>
      <trkpt lat="44.32862" lon="7.26546">
        <ele>942</ele>
        <time>2022-07-18T17:36:31Z</time>
      </trkpt>
      <trkpt lat="44.32858" lon="7.2655">
        <ele>942</ele>
        <time>2022-07-18T17:36:32Z</time>
      </trkpt>
      <trkpt lat="44.32853" lon="7.26554">
        <ele>942.4</ele>
        <time>2022-07-18T17:36:33Z</time>
      </trkpt>
      <trkpt lat="44.32849" lon="7.26558">
        <ele>942.4</ele>
        <time>2022-07-18T17:36:34Z</time>
      </trkpt>
      <trkpt lat="44.32845" lon="7.26562">
        <ele>942.8</ele>
        <time>2022-07-18T17:36:35Z</time>
      </trkpt>
      <trkpt lat="44.32841" lon="7.26567">
        <ele>943</ele>
        <time>2022-07-18T17:36:36Z</time>
      </trkpt>
      <trkpt lat="44.32838" lon="7.26572">
        <ele>943.2</ele>
        <time>2022-07-18T17:36:37Z</time>
      </trkpt>
      <trkpt lat="44.32835" lon="7.26578">
        <ele>943.2</ele>
        <time>2022-07-18T17:36:38Z</time>
      </trkpt>
      <trkpt lat="44.32832" lon="7.26583">
        <ele>943.4</ele>
        <time>2022-07-18T17:36:39Z</time>
      </trkpt>
      <trkpt lat="44.3283" lon="7.26589">
        <ele>943.6</ele>
        <time>2022-07-18T17:36:40Z</time>
      </trkpt>
      <trkpt lat="44.32827" lon="7.26594">
        <ele>944</ele>
        <time>2022-07-18T17:36:41Z</time>
      </trkpt>
      <trkpt lat="44.32826" lon="7.266">
        <ele>944.2</ele>
        <time>2022-07-18T17:36:42Z</time>
      </trkpt>
      <trkpt lat="44.32824" lon="7.26606">
        <ele>944.6</ele>
        <time>2022-07-18T17:36:43Z</time>
      </trkpt>
      <trkpt lat="44.32822" lon="7.26611">
        <ele>945</ele>
        <time>2022-07-18T17:36:44Z</time>
      </trkpt>
      <trkpt lat="44.3282" lon="7.26616">
        <ele>945.4</ele>
        <time>2022-07-18T17:36:45Z</time>
      </trkpt>
      <trkpt lat="44.32818" lon="7.2662">
        <ele>945.6</ele>
        <time>2022-07-18T17:36:46Z</time>
      </trkpt>
      <trkpt lat="44.32816" lon="7.26625">
        <ele>946</ele>
        <time>2022-07-18T17:36:47Z</time>
      </trkpt>
      <trkpt lat="44.32814" lon="7.26629">
        <ele>946.4</ele>
        <time>2022-07-18T17:36:48Z</time>
      </trkpt>
      <trkpt lat="44.32812" lon="7.26634">
        <ele>946.8</ele>
        <time>2022-07-18T17:36:49Z</time>
      </trkpt>
      <trkpt lat="44.32811" lon="7.26639">
        <ele>947.2</ele>
        <time>2022-07-18T17:36:50Z</time>
      </trkpt>
      <trkpt lat="44.3281" lon="7.26644">
        <ele>947.4</ele>
        <time>2022-07-18T17:36:51Z</time>
      </trkpt>
      <trkpt lat="44.32809" lon="7.26648">
        <ele>947.8</ele>
        <time>2022-07-18T17:36:52Z</time>
      </trkpt>
      <trkpt lat="44.32808" lon="7.26652">
        <ele>948</ele>
        <time>2022-07-18T17:36:53Z</time>
      </trkpt>
      <trkpt lat="44.32806" lon="7.26656">
        <ele>948.2</ele>
        <time>2022-07-18T17:36:54Z</time>
      </trkpt>
      <trkpt lat="44.32805" lon="7.2666">
        <ele>948.6</ele>
        <time>2022-07-18T17:36:55Z</time>
      </trkpt>
      <trkpt lat="44.32803" lon="7.26664">
        <ele>948.6</ele>
        <time>2022-07-18T17:36:56Z</time>
      </trkpt>
      <trkpt lat="44.32802" lon="7.26669">
        <ele>949</ele>
        <time>2022-07-18T17:36:57Z</time>
      </trkpt>
      <trkpt lat="44.32801" lon="7.26672">
        <ele>949</ele>
        <time>2022-07-18T17:36:58Z</time>
      </trkpt>
      <trkpt lat="44.32799" lon="7.26677">
        <ele>949.2</ele>
        <time>2022-07-18T17:36:59Z</time>
      </trkpt>
      <trkpt lat="44.32798" lon="7.26683">
        <ele>949.2</ele>
        <time>2022-07-18T17:37:00Z</time>
      </trkpt>
      <trkpt lat="44.32797" lon="7.26689">
        <ele>949.2</ele>
        <time>2022-07-18T17:37:01Z</time>
      </trkpt>
      <trkpt lat="44.32795" lon="7.26695">
        <ele>949.2</ele>
        <time>2022-07-18T17:37:02Z</time>
      </trkpt>
      <trkpt lat="44.32793" lon="7.26701">
        <ele>949.4</ele>
        <time>2022-07-18T17:37:03Z</time>
      </trkpt>
      <trkpt lat="44.32791" lon="7.26708">
        <ele>949.4</ele>
        <time>2022-07-18T17:37:04Z</time>
      </trkpt>
      <trkpt lat="44.32789" lon="7.26715">
        <ele>949.4</ele>
        <time>2022-07-18T17:37:05Z</time>
      </trkpt>
      <trkpt lat="44.32787" lon="7.26722">
        <ele>949.4</ele>
        <time>2022-07-18T17:37:06Z</time>
      </trkpt>
      <trkpt lat="44.32785" lon="7.26728">
        <ele>949.4</ele>
        <time>2022-07-18T17:37:07Z</time>
      </trkpt>
      <trkpt lat="44.32783" lon="7.26735">
        <ele>949.4</ele>
        <time>2022-07-18T17:37:08Z</time>
      </trkpt>
      <trkpt lat="44.32781" lon="7.26741">
        <ele>949.4</ele>
        <time>2022-07-18T17:37:09Z</time>
      </trkpt>
      <trkpt lat="44.32778" lon="7.26747">
        <ele>949.4</ele>
        <time>2022-07-18T17:37:10Z</time>
      </trkpt>
      <trkpt lat="44.32776" lon="7.26753">
        <ele>949.4</ele>
        <time>2022-07-18T17:37:11Z</time>
      </trkpt>
      <trkpt lat="44.32773" lon="7.26759">
        <ele>949.4</ele>
        <time>2022-07-18T17:37:12Z</time>
      </trkpt>
      <trkpt lat="44.3277" lon="7.26764">
        <ele>949.2</ele>
        <time>2022-07-18T17:37:13Z</time>
      </trkpt>
      <trkpt lat="44.32767" lon="7.26771">
        <ele>949.2</ele>
        <time>2022-07-18T17:37:14Z</time>
      </trkpt>
      <trkpt lat="44.32764" lon="7.26777">
        <ele>949.2</ele>
        <time>2022-07-18T17:37:15Z</time>
      </trkpt>
      <trkpt lat="44.32762" lon="7.26784">
        <ele>949.2</ele>
        <time>2022-07-18T17:37:16Z</time>
      </trkpt>
      <trkpt lat="44.3276" lon="7.26791">
        <ele>949.2</ele>
        <time>2022-07-18T17:37:17Z</time>
      </trkpt>
      <trkpt lat="44.32758" lon="7.26797">
        <ele>949.2</ele>
        <time>2022-07-18T17:37:18Z</time>
      </trkpt>
      <trkpt lat="44.32756" lon="7.26804">
        <ele>949.4</ele>
        <time>2022-07-18T17:37:19Z</time>
      </trkpt>
      <trkpt lat="44.32754" lon="7.2681">
        <ele>949.4</ele>
        <time>2022-07-18T17:37:20Z</time>
      </trkpt>
      <trkpt lat="44.32752" lon="7.26816">
        <ele>949.8</ele>
        <time>2022-07-18T17:37:21Z</time>
      </trkpt>
      <trkpt lat="44.3275" lon="7.26821">
        <ele>949.8</ele>
        <time>2022-07-18T17:37:22Z</time>
      </trkpt>
      <trkpt lat="44.32748" lon="7.26825">
        <ele>950</ele>
        <time>2022-07-18T17:37:23Z</time>
      </trkpt>
      <trkpt lat="44.32745" lon="7.26827">
        <ele>950.4</ele>
        <time>2022-07-18T17:37:24Z</time>
      </trkpt>
      <trkpt lat="44.32743" lon="7.26829">
        <ele>950.6</ele>
        <time>2022-07-18T17:37:25Z</time>
      </trkpt>
      <trkpt lat="44.3274" lon="7.2683">
        <ele>950.8</ele>
        <time>2022-07-18T17:37:26Z</time>
      </trkpt>
      <trkpt lat="44.32738" lon="7.26832">
        <ele>951.2</ele>
        <time>2022-07-18T17:37:27Z</time>
      </trkpt>
      <trkpt lat="44.32735" lon="7.26833">
        <ele>951.4</ele>
        <time>2022-07-18T17:37:28Z</time>
      </trkpt>
      <trkpt lat="44.32733" lon="7.26835">
        <ele>951.6</ele>
        <time>2022-07-18T17:37:29Z</time>
      </trkpt>
      <trkpt lat="44.3273" lon="7.26837">
        <ele>952</ele>
        <time>2022-07-18T17:37:30Z</time>
      </trkpt>
      <trkpt lat="44.32728" lon="7.26838">
        <ele>952.4</ele>
        <time>2022-07-18T17:37:31Z</time>
      </trkpt>
      <trkpt lat="44.32725" lon="7.26841">
        <ele>952.6</ele>
        <time>2022-07-18T17:37:32Z</time>
      </trkpt>
      <trkpt lat="44.32723" lon="7.26843">
        <ele>953</ele>
        <time>2022-07-18T17:37:33Z</time>
      </trkpt>
      <trkpt lat="44.3272" lon="7.26845">
        <ele>953.4</ele>
        <time>2022-07-18T17:37:34Z</time>
      </trkpt>
      <trkpt lat="44.32718" lon="7.26847">
        <ele>953.6</ele>
        <time>2022-07-18T17:37:35Z</time>
      </trkpt>
      <trkpt lat="44.32716" lon="7.2685">
        <ele>953.8</ele>
        <time>2022-07-18T17:37:36Z</time>
      </trkpt>
      <trkpt lat="44.32714" lon="7.26852">
        <ele>954</ele>
        <time>2022-07-18T17:37:37Z</time>
      </trkpt>
      <trkpt lat="44.32713" lon="7.26855">
        <ele>954</ele>
        <time>2022-07-18T17:37:38Z</time>
      </trkpt>
      <trkpt lat="44.32711" lon="7.26859">
        <ele>954.4</ele>
        <time>2022-07-18T17:37:39Z</time>
      </trkpt>
      <trkpt lat="44.3271" lon="7.26864">
        <ele>954.6</ele>
        <time>2022-07-18T17:37:40Z</time>
      </trkpt>
      <trkpt lat="44.32707" lon="7.26869">
        <ele>954.6</ele>
        <time>2022-07-18T17:37:41Z</time>
      </trkpt>
      <trkpt lat="44.32705" lon="7.26872">
        <ele>955</ele>
        <time>2022-07-18T17:37:42Z</time>
      </trkpt>
      <trkpt lat="44.32703" lon="7.26876">
        <ele>955</ele>
        <time>2022-07-18T17:37:43Z</time>
      </trkpt>
      <trkpt lat="44.32701" lon="7.26879">
        <ele>955</ele>
        <time>2022-07-18T17:37:44Z</time>
      </trkpt>
      <trkpt lat="44.32699" lon="7.26883">
        <ele>955.2</ele>
        <time>2022-07-18T17:37:45Z</time>
      </trkpt>
      <trkpt lat="44.32696" lon="7.26888">
        <ele>955.2</ele>
        <time>2022-07-18T17:37:46Z</time>
      </trkpt>
      <trkpt lat="44.32694" lon="7.26893">
        <ele>955.2</ele>
        <time>2022-07-18T17:37:47Z</time>
      </trkpt>
      <trkpt lat="44.32691" lon="7.26898">
        <ele>955.4</ele>
        <time>2022-07-18T17:37:48Z</time>
      </trkpt>
      <trkpt lat="44.32688" lon="7.26902">
        <ele>955.4</ele>
        <time>2022-07-18T17:37:49Z</time>
      </trkpt>
      <trkpt lat="44.32685" lon="7.26906">
        <ele>955.4</ele>
        <time>2022-07-18T17:37:50Z</time>
      </trkpt>
      <trkpt lat="44.32683" lon="7.2691">
        <ele>955.4</ele>
        <time>2022-07-18T17:37:51Z</time>
      </trkpt>
      <trkpt lat="44.32679" lon="7.26913">
        <ele>955.4</ele>
        <time>2022-07-18T17:37:52Z</time>
      </trkpt>
      <trkpt lat="44.32676" lon="7.26916">
        <ele>955.4</ele>
        <time>2022-07-18T17:37:53Z</time>
      </trkpt>
      <trkpt lat="44.32672" lon="7.26919">
        <ele>955.6</ele>
        <time>2022-07-18T17:37:54Z</time>
      </trkpt>
      <trkpt lat="44.32669" lon="7.26921">
        <ele>955.6</ele>
        <time>2022-07-18T17:37:55Z</time>
      </trkpt>
      <trkpt lat="44.32667" lon="7.26924">
        <ele>955.6</ele>
        <time>2022-07-18T17:37:56Z</time>
      </trkpt>
      <trkpt lat="44.32666" lon="7.26927">
        <ele>955.6</ele>
        <time>2022-07-18T17:37:57Z</time>
      </trkpt>
      <trkpt lat="44.32664" lon="7.26933">
        <ele>955.6</ele>
        <time>2022-07-18T17:37:58Z</time>
      </trkpt>
      <trkpt lat="44.32662" lon="7.26943">
        <ele>955.8</ele>
        <time>2022-07-18T17:37:59Z</time>
      </trkpt>
      <trkpt lat="44.3266" lon="7.26952">
        <ele>955.8</ele>
        <time>2022-07-18T17:38:00Z</time>
      </trkpt>
      <trkpt lat="44.32659" lon="7.2696">
        <ele>955.8</ele>
        <time>2022-07-18T17:38:01Z</time>
      </trkpt>
      <trkpt lat="44.32659" lon="7.26969">
        <ele>955.8</ele>
        <time>2022-07-18T17:38:02Z</time>
      </trkpt>
      <trkpt lat="44.32658" lon="7.26977">
        <ele>955.8</ele>
        <time>2022-07-18T17:38:03Z</time>
      </trkpt>
      <trkpt lat="44.32656" lon="7.26985">
        <ele>955.8</ele>
        <time>2022-07-18T17:38:04Z</time>
      </trkpt>
      <trkpt lat="44.32653" lon="7.26993">
        <ele>955.8</ele>
        <time>2022-07-18T17:38:05Z</time>
      </trkpt>
      <trkpt lat="44.3265" lon="7.26999">
        <ele>955.8</ele>
        <time>2022-07-18T17:38:06Z</time>
      </trkpt>
      <trkpt lat="44.32647" lon="7.27006">
        <ele>955.6</ele>
        <time>2022-07-18T17:38:07Z</time>
      </trkpt>
      <trkpt lat="44.32645" lon="7.27013">
        <ele>955.6</ele>
        <time>2022-07-18T17:38:08Z</time>
      </trkpt>
      <trkpt lat="44.32642" lon="7.2702">
        <ele>955.6</ele>
        <time>2022-07-18T17:38:09Z</time>
      </trkpt>
      <trkpt lat="44.3264" lon="7.27027">
        <ele>955.6</ele>
        <time>2022-07-18T17:38:10Z</time>
      </trkpt>
      <trkpt lat="44.32638" lon="7.27034">
        <ele>955.6</ele>
        <time>2022-07-18T17:38:11Z</time>
      </trkpt>
      <trkpt lat="44.32635" lon="7.2704">
        <ele>955.6</ele>
        <time>2022-07-18T17:38:12Z</time>
      </trkpt>
      <trkpt lat="44.32632" lon="7.27045">
        <ele>955.6</ele>
        <time>2022-07-18T17:38:13Z</time>
      </trkpt>
      <trkpt lat="44.32629" lon="7.27051">
        <ele>955.6</ele>
        <time>2022-07-18T17:38:14Z</time>
      </trkpt>
      <trkpt lat="44.32626" lon="7.27057">
        <ele>955.2</ele>
        <time>2022-07-18T17:38:15Z</time>
      </trkpt>
      <trkpt lat="44.32622" lon="7.27064">
        <ele>955</ele>
        <time>2022-07-18T17:38:16Z</time>
      </trkpt>
      <trkpt lat="44.32618" lon="7.27073">
        <ele>954.4</ele>
        <time>2022-07-18T17:38:17Z</time>
      </trkpt>
      <trkpt lat="44.32614" lon="7.27082">
        <ele>953.8</ele>
        <time>2022-07-18T17:38:18Z</time>
      </trkpt>
      <trkpt lat="44.32609" lon="7.27092">
        <ele>953.2</ele>
        <time>2022-07-18T17:38:19Z</time>
      </trkpt>
      <trkpt lat="44.32604" lon="7.27102">
        <ele>952.4</ele>
        <time>2022-07-18T17:38:20Z</time>
      </trkpt>
      <trkpt lat="44.32598" lon="7.27114">
        <ele>951.6</ele>
        <time>2022-07-18T17:38:21Z</time>
      </trkpt>
      <trkpt lat="44.32593" lon="7.27124">
        <ele>950.8</ele>
        <time>2022-07-18T17:38:22Z</time>
      </trkpt>
      <trkpt lat="44.32586" lon="7.27134">
        <ele>949.8</ele>
        <time>2022-07-18T17:38:23Z</time>
      </trkpt>
      <trkpt lat="44.32578" lon="7.27142">
        <ele>949</ele>
        <time>2022-07-18T17:38:24Z</time>
      </trkpt>
      <trkpt lat="44.32571" lon="7.27149">
        <ele>948.4</ele>
        <time>2022-07-18T17:38:25Z</time>
      </trkpt>
      <trkpt lat="44.32563" lon="7.27156">
        <ele>947.8</ele>
        <time>2022-07-18T17:38:26Z</time>
      </trkpt>
      <trkpt lat="44.32557" lon="7.27163">
        <ele>947.2</ele>
        <time>2022-07-18T17:38:27Z</time>
      </trkpt>
      <trkpt lat="44.32552" lon="7.27171">
        <ele>946.6</ele>
        <time>2022-07-18T17:38:28Z</time>
      </trkpt>
      <trkpt lat="44.32548" lon="7.2718">
        <ele>946</ele>
        <time>2022-07-18T17:38:29Z</time>
      </trkpt>
      <trkpt lat="44.32544" lon="7.2719">
        <ele>945.4</ele>
        <time>2022-07-18T17:38:30Z</time>
      </trkpt>
      <trkpt lat="44.32541" lon="7.27201">
        <ele>945</ele>
        <time>2022-07-18T17:38:31Z</time>
      </trkpt>
      <trkpt lat="44.32539" lon="7.27213">
        <ele>944.4</ele>
        <time>2022-07-18T17:38:32Z</time>
      </trkpt>
      <trkpt lat="44.32536" lon="7.27226">
        <ele>943.8</ele>
        <time>2022-07-18T17:38:33Z</time>
      </trkpt>
      <trkpt lat="44.32533" lon="7.27241">
        <ele>943.2</ele>
        <time>2022-07-18T17:38:34Z</time>
      </trkpt>
      <trkpt lat="44.3253" lon="7.27256">
        <ele>942.8</ele>
        <time>2022-07-18T17:38:35Z</time>
      </trkpt>
      <trkpt lat="44.32527" lon="7.2727">
        <ele>942.4</ele>
        <time>2022-07-18T17:38:36Z</time>
      </trkpt>
      <trkpt lat="44.32523" lon="7.27284">
        <ele>942.2</ele>
        <time>2022-07-18T17:38:37Z</time>
      </trkpt>
      <trkpt lat="44.32521" lon="7.27297">
        <ele>942</ele>
        <time>2022-07-18T17:38:38Z</time>
      </trkpt>
      <trkpt lat="44.32518" lon="7.27309">
        <ele>942</ele>
        <time>2022-07-18T17:38:39Z</time>
      </trkpt>
      <trkpt lat="44.32515" lon="7.27319">
        <ele>941.6</ele>
        <time>2022-07-18T17:38:40Z</time>
      </trkpt>
      <trkpt lat="44.32511" lon="7.27329">
        <ele>941.6</ele>
        <time>2022-07-18T17:38:41Z</time>
      </trkpt>
      <trkpt lat="44.32508" lon="7.27339">
        <ele>941.6</ele>
        <time>2022-07-18T17:38:42Z</time>
      </trkpt>
      <trkpt lat="44.32505" lon="7.27347">
        <ele>941.6</ele>
        <time>2022-07-18T17:38:43Z</time>
      </trkpt>
      <trkpt lat="44.32501" lon="7.27355">
        <ele>941.6</ele>
        <time>2022-07-18T17:38:44Z</time>
      </trkpt>
      <trkpt lat="44.32498" lon="7.27363">
        <ele>941.4</ele>
        <time>2022-07-18T17:38:45Z</time>
      </trkpt>
      <trkpt lat="44.32494" lon="7.27373">
        <ele>941.2</ele>
        <time>2022-07-18T17:38:46Z</time>
      </trkpt>
      <trkpt lat="44.3249" lon="7.27382">
        <ele>940.6</ele>
        <time>2022-07-18T17:38:47Z</time>
      </trkpt>
      <trkpt lat="44.32487" lon="7.27393">
        <ele>940</ele>
        <time>2022-07-18T17:38:48Z</time>
      </trkpt>
      <trkpt lat="44.32483" lon="7.27405">
        <ele>939.2</ele>
        <time>2022-07-18T17:38:49Z</time>
      </trkpt>
      <trkpt lat="44.3248" lon="7.27416">
        <ele>938.4</ele>
        <time>2022-07-18T17:38:50Z</time>
      </trkpt>
      <trkpt lat="44.32477" lon="7.27428">
        <ele>937.6</ele>
        <time>2022-07-18T17:38:51Z</time>
      </trkpt>
      <trkpt lat="44.32474" lon="7.2744">
        <ele>936.6</ele>
        <time>2022-07-18T17:38:52Z</time>
      </trkpt>
      <trkpt lat="44.32469" lon="7.27452">
        <ele>935.6</ele>
        <time>2022-07-18T17:38:53Z</time>
      </trkpt>
      <trkpt lat="44.32467" lon="7.27464">
        <ele>934.6</ele>
        <time>2022-07-18T17:38:54Z</time>
      </trkpt>
      <trkpt lat="44.32464" lon="7.27475">
        <ele>933.8</ele>
        <time>2022-07-18T17:38:55Z</time>
      </trkpt>
      <trkpt lat="44.32461" lon="7.27485">
        <ele>933</ele>
        <time>2022-07-18T17:38:56Z</time>
      </trkpt>
      <trkpt lat="44.32456" lon="7.27495">
        <ele>932.2</ele>
        <time>2022-07-18T17:38:57Z</time>
      </trkpt>
      <trkpt lat="44.32451" lon="7.27504">
        <ele>931.4</ele>
        <time>2022-07-18T17:38:58Z</time>
      </trkpt>
      <trkpt lat="44.32447" lon="7.27513">
        <ele>930.6</ele>
        <time>2022-07-18T17:38:59Z</time>
      </trkpt>
      <trkpt lat="44.32442" lon="7.27523">
        <ele>930</ele>
        <time>2022-07-18T17:39:00Z</time>
      </trkpt>
      <trkpt lat="44.32437" lon="7.27532">
        <ele>929</ele>
        <time>2022-07-18T17:39:01Z</time>
      </trkpt>
      <trkpt lat="44.32431" lon="7.27542">
        <ele>928</ele>
        <time>2022-07-18T17:39:02Z</time>
      </trkpt>
      <trkpt lat="44.32425" lon="7.27553">
        <ele>927.2</ele>
        <time>2022-07-18T17:39:03Z</time>
      </trkpt>
      <trkpt lat="44.32419" lon="7.27565">
        <ele>926.2</ele>
        <time>2022-07-18T17:39:04Z</time>
      </trkpt>
      <trkpt lat="44.32415" lon="7.27575">
        <ele>925.4</ele>
        <time>2022-07-18T17:39:05Z</time>
      </trkpt>
      <trkpt lat="44.32411" lon="7.27585">
        <ele>924.4</ele>
        <time>2022-07-18T17:39:06Z</time>
      </trkpt>
      <trkpt lat="44.32407" lon="7.27596">
        <ele>923.4</ele>
        <time>2022-07-18T17:39:07Z</time>
      </trkpt>
      <trkpt lat="44.32401" lon="7.27607">
        <ele>922.6</ele>
        <time>2022-07-18T17:39:08Z</time>
      </trkpt>
      <trkpt lat="44.32395" lon="7.27618">
        <ele>921.8</ele>
        <time>2022-07-18T17:39:09Z</time>
      </trkpt>
      <trkpt lat="44.32388" lon="7.27629">
        <ele>921</ele>
        <time>2022-07-18T17:39:10Z</time>
      </trkpt>
      <trkpt lat="44.32381" lon="7.2764">
        <ele>920</ele>
        <time>2022-07-18T17:39:11Z</time>
      </trkpt>
      <trkpt lat="44.32377" lon="7.27651">
        <ele>919.2</ele>
        <time>2022-07-18T17:39:12Z</time>
      </trkpt>
      <trkpt lat="44.32373" lon="7.27664">
        <ele>918.4</ele>
        <time>2022-07-18T17:39:13Z</time>
      </trkpt>
      <trkpt lat="44.32369" lon="7.27677">
        <ele>917.4</ele>
        <time>2022-07-18T17:39:14Z</time>
      </trkpt>
      <trkpt lat="44.32365" lon="7.27692">
        <ele>916.6</ele>
        <time>2022-07-18T17:39:15Z</time>
      </trkpt>
      <trkpt lat="44.32361" lon="7.27708">
        <ele>915.4</ele>
        <time>2022-07-18T17:39:16Z</time>
      </trkpt>
      <trkpt lat="44.32358" lon="7.27724">
        <ele>914.2</ele>
        <time>2022-07-18T17:39:17Z</time>
      </trkpt>
      <trkpt lat="44.32354" lon="7.27741">
        <ele>913.2</ele>
        <time>2022-07-18T17:39:18Z</time>
      </trkpt>
      <trkpt lat="44.32351" lon="7.27757">
        <ele>912</ele>
        <time>2022-07-18T17:39:19Z</time>
      </trkpt>
      <trkpt lat="44.32348" lon="7.27774">
        <ele>910.8</ele>
        <time>2022-07-18T17:39:20Z</time>
      </trkpt>
      <trkpt lat="44.32343" lon="7.27791">
        <ele>909.6</ele>
        <time>2022-07-18T17:39:21Z</time>
      </trkpt>
      <trkpt lat="44.32339" lon="7.27809">
        <ele>908.4</ele>
        <time>2022-07-18T17:39:22Z</time>
      </trkpt>
      <trkpt lat="44.32333" lon="7.27826">
        <ele>907</ele>
        <time>2022-07-18T17:39:23Z</time>
      </trkpt>
      <trkpt lat="44.32327" lon="7.27844">
        <ele>905.6</ele>
        <time>2022-07-18T17:39:24Z</time>
      </trkpt>
      <trkpt lat="44.32319" lon="7.27859">
        <ele>904.4</ele>
        <time>2022-07-18T17:39:25Z</time>
      </trkpt>
      <trkpt lat="44.3231" lon="7.27874">
        <ele>903</ele>
        <time>2022-07-18T17:39:26Z</time>
      </trkpt>
      <trkpt lat="44.32301" lon="7.27889">
        <ele>901.4</ele>
        <time>2022-07-18T17:39:27Z</time>
      </trkpt>
      <trkpt lat="44.32291" lon="7.27902">
        <ele>899.8</ele>
        <time>2022-07-18T17:39:28Z</time>
      </trkpt>
      <trkpt lat="44.32281" lon="7.27916">
        <ele>898.4</ele>
        <time>2022-07-18T17:39:29Z</time>
      </trkpt>
      <trkpt lat="44.32271" lon="7.2793">
        <ele>896.8</ele>
        <time>2022-07-18T17:39:30Z</time>
      </trkpt>
      <trkpt lat="44.32261" lon="7.27945">
        <ele>895.2</ele>
        <time>2022-07-18T17:39:31Z</time>
      </trkpt>
      <trkpt lat="44.32251" lon="7.27958">
        <ele>893.8</ele>
        <time>2022-07-18T17:39:32Z</time>
      </trkpt>
      <trkpt lat="44.3224" lon="7.27971">
        <ele>892.4</ele>
        <time>2022-07-18T17:39:33Z</time>
      </trkpt>
      <trkpt lat="44.3223" lon="7.27982">
        <ele>891.2</ele>
        <time>2022-07-18T17:39:34Z</time>
      </trkpt>
      <trkpt lat="44.3222" lon="7.27994">
        <ele>890</ele>
        <time>2022-07-18T17:39:35Z</time>
      </trkpt>
      <trkpt lat="44.32212" lon="7.28004">
        <ele>888.8</ele>
        <time>2022-07-18T17:39:36Z</time>
      </trkpt>
      <trkpt lat="44.32204" lon="7.28015">
        <ele>887.4</ele>
        <time>2022-07-18T17:39:37Z</time>
      </trkpt>
      <trkpt lat="44.32197" lon="7.28025">
        <ele>886.4</ele>
        <time>2022-07-18T17:39:38Z</time>
      </trkpt>
      <trkpt lat="44.32192" lon="7.28037">
        <ele>885.4</ele>
        <time>2022-07-18T17:39:39Z</time>
      </trkpt>
      <trkpt lat="44.32188" lon="7.28048">
        <ele>884.4</ele>
        <time>2022-07-18T17:39:40Z</time>
      </trkpt>
      <trkpt lat="44.32185" lon="7.28059">
        <ele>883.4</ele>
        <time>2022-07-18T17:39:41Z</time>
      </trkpt>
      <trkpt lat="44.32183" lon="7.2807">
        <ele>882.6</ele>
        <time>2022-07-18T17:39:42Z</time>
      </trkpt>
      <trkpt lat="44.32182" lon="7.28084">
        <ele>882</ele>
        <time>2022-07-18T17:39:43Z</time>
      </trkpt>
      <trkpt lat="44.32183" lon="7.28096">
        <ele>881.4</ele>
        <time>2022-07-18T17:39:44Z</time>
      </trkpt>
      <trkpt lat="44.32184" lon="7.28108">
        <ele>880.8</ele>
        <time>2022-07-18T17:39:45Z</time>
      </trkpt>
      <trkpt lat="44.32188" lon="7.2812">
        <ele>880</ele>
        <time>2022-07-18T17:39:46Z</time>
      </trkpt>
      <trkpt lat="44.32193" lon="7.28132">
        <ele>879.6</ele>
        <time>2022-07-18T17:39:47Z</time>
      </trkpt>
      <trkpt lat="44.32198" lon="7.28144">
        <ele>879</ele>
        <time>2022-07-18T17:39:48Z</time>
      </trkpt>
      <trkpt lat="44.32203" lon="7.28155">
        <ele>878.6</ele>
        <time>2022-07-18T17:39:49Z</time>
      </trkpt>
      <trkpt lat="44.32208" lon="7.28165">
        <ele>878.2</ele>
        <time>2022-07-18T17:39:50Z</time>
      </trkpt>
      <trkpt lat="44.32213" lon="7.28176">
        <ele>877.8</ele>
        <time>2022-07-18T17:39:51Z</time>
      </trkpt>
      <trkpt lat="44.32218" lon="7.28187">
        <ele>877.4</ele>
        <time>2022-07-18T17:39:52Z</time>
      </trkpt>
      <trkpt lat="44.32223" lon="7.28198">
        <ele>877</ele>
        <time>2022-07-18T17:39:53Z</time>
      </trkpt>
      <trkpt lat="44.32228" lon="7.2821">
        <ele>876.8</ele>
        <time>2022-07-18T17:39:54Z</time>
      </trkpt>
      <trkpt lat="44.32232" lon="7.2822">
        <ele>876.6</ele>
        <time>2022-07-18T17:39:55Z</time>
      </trkpt>
      <trkpt lat="44.32237" lon="7.28232">
        <ele>876.4</ele>
        <time>2022-07-18T17:39:56Z</time>
      </trkpt>
      <trkpt lat="44.32241" lon="7.28243">
        <ele>876.4</ele>
        <time>2022-07-18T17:39:57Z</time>
      </trkpt>
      <trkpt lat="44.32246" lon="7.28254">
        <ele>876</ele>
        <time>2022-07-18T17:39:58Z</time>
      </trkpt>
      <trkpt lat="44.3225" lon="7.28266">
        <ele>875.8</ele>
        <time>2022-07-18T17:39:59Z</time>
      </trkpt>
      <trkpt lat="44.32256" lon="7.28278">
        <ele>875.6</ele>
        <time>2022-07-18T17:40:00Z</time>
      </trkpt>
      <trkpt lat="44.3226" lon="7.2829">
        <ele>875.6</ele>
        <time>2022-07-18T17:40:01Z</time>
      </trkpt>
      <trkpt lat="44.32264" lon="7.283">
        <ele>875</ele>
        <time>2022-07-18T17:40:02Z</time>
      </trkpt>
      <trkpt lat="44.32268" lon="7.28311">
        <ele>875</ele>
        <time>2022-07-18T17:40:03Z</time>
      </trkpt>
      <trkpt lat="44.32272" lon="7.28321">
        <ele>874.8</ele>
        <time>2022-07-18T17:40:04Z</time>
      </trkpt>
      <trkpt lat="44.32276" lon="7.28331">
        <ele>874.8</ele>
        <time>2022-07-18T17:40:05Z</time>
      </trkpt>
      <trkpt lat="44.3228" lon="7.28341">
        <ele>874.8</ele>
        <time>2022-07-18T17:40:06Z</time>
      </trkpt>
      <trkpt lat="44.32284" lon="7.28351">
        <ele>874.4</ele>
        <time>2022-07-18T17:40:07Z</time>
      </trkpt>
      <trkpt lat="44.32288" lon="7.2836">
        <ele>874.4</ele>
        <time>2022-07-18T17:40:08Z</time>
      </trkpt>
      <trkpt lat="44.32292" lon="7.28371">
        <ele>873.8</ele>
        <time>2022-07-18T17:40:09Z</time>
      </trkpt>
      <trkpt lat="44.32295" lon="7.28383">
        <ele>873.4</ele>
        <time>2022-07-18T17:40:10Z</time>
      </trkpt>
      <trkpt lat="44.32299" lon="7.28395">
        <ele>872.8</ele>
        <time>2022-07-18T17:40:11Z</time>
      </trkpt>
      <trkpt lat="44.32303" lon="7.28407">
        <ele>872</ele>
        <time>2022-07-18T17:40:12Z</time>
      </trkpt>
      <trkpt lat="44.32309" lon="7.28419">
        <ele>871.2</ele>
        <time>2022-07-18T17:40:13Z</time>
      </trkpt>
      <trkpt lat="44.32315" lon="7.28431">
        <ele>870.4</ele>
        <time>2022-07-18T17:40:14Z</time>
      </trkpt>
      <trkpt lat="44.3232" lon="7.28442">
        <ele>869.6</ele>
        <time>2022-07-18T17:40:15Z</time>
      </trkpt>
      <trkpt lat="44.32325" lon="7.28453">
        <ele>868.8</ele>
        <time>2022-07-18T17:40:16Z</time>
      </trkpt>
      <trkpt lat="44.32327" lon="7.28464">
        <ele>867.8</ele>
        <time>2022-07-18T17:40:17Z</time>
      </trkpt>
      <trkpt lat="44.32326" lon="7.28475">
        <ele>866.8</ele>
        <time>2022-07-18T17:40:18Z</time>
      </trkpt>
      <trkpt lat="44.32322" lon="7.28487">
        <ele>865.8</ele>
        <time>2022-07-18T17:40:19Z</time>
      </trkpt>
      <trkpt lat="44.32316" lon="7.28499">
        <ele>865</ele>
        <time>2022-07-18T17:40:20Z</time>
      </trkpt>
      <trkpt lat="44.3231" lon="7.28511">
        <ele>864.2</ele>
        <time>2022-07-18T17:40:21Z</time>
      </trkpt>
      <trkpt lat="44.32306" lon="7.28523">
        <ele>863.2</ele>
        <time>2022-07-18T17:40:22Z</time>
      </trkpt>
      <trkpt lat="44.32302" lon="7.28536">
        <ele>862.4</ele>
        <time>2022-07-18T17:40:23Z</time>
      </trkpt>
      <trkpt lat="44.32299" lon="7.2855">
        <ele>861.8</ele>
        <time>2022-07-18T17:40:24Z</time>
      </trkpt>
      <trkpt lat="44.32296" lon="7.28563">
        <ele>861.2</ele>
        <time>2022-07-18T17:40:25Z</time>
      </trkpt>
      <trkpt lat="44.32294" lon="7.28574">
        <ele>860.8</ele>
        <time>2022-07-18T17:40:26Z</time>
      </trkpt>
      <trkpt lat="44.32291" lon="7.28583">
        <ele>860.6</ele>
        <time>2022-07-18T17:40:27Z</time>
      </trkpt>
      <trkpt lat="44.32287" lon="7.28591">
        <ele>860.6</ele>
        <time>2022-07-18T17:40:28Z</time>
      </trkpt>
      <trkpt lat="44.32282" lon="7.28597">
        <ele>860.2</ele>
        <time>2022-07-18T17:40:29Z</time>
      </trkpt>
      <trkpt lat="44.32278" lon="7.28604">
        <ele>859.8</ele>
        <time>2022-07-18T17:40:30Z</time>
      </trkpt>
      <trkpt lat="44.32271" lon="7.2861">
        <ele>859.4</ele>
        <time>2022-07-18T17:40:31Z</time>
      </trkpt>
      <trkpt lat="44.32264" lon="7.28616">
        <ele>859</ele>
        <time>2022-07-18T17:40:32Z</time>
      </trkpt>
      <trkpt lat="44.32256" lon="7.28623">
        <ele>858.4</ele>
        <time>2022-07-18T17:40:33Z</time>
      </trkpt>
      <trkpt lat="44.32249" lon="7.2863">
        <ele>857.6</ele>
        <time>2022-07-18T17:40:34Z</time>
      </trkpt>
      <trkpt lat="44.32239" lon="7.2864">
        <ele>856.6</ele>
        <time>2022-07-18T17:40:35Z</time>
      </trkpt>
      <trkpt lat="44.3223" lon="7.28649">
        <ele>855.6</ele>
        <time>2022-07-18T17:40:36Z</time>
      </trkpt>
      <trkpt lat="44.3222" lon="7.28659">
        <ele>853.6</ele>
        <time>2022-07-18T17:40:37Z</time>
      </trkpt>
      <trkpt lat="44.32211" lon="7.28669">
        <ele>852.4</ele>
        <time>2022-07-18T17:40:38Z</time>
      </trkpt>
      <trkpt lat="44.32202" lon="7.2868">
        <ele>851.4</ele>
        <time>2022-07-18T17:40:39Z</time>
      </trkpt>
      <trkpt lat="44.32192" lon="7.28691">
        <ele>850.2</ele>
        <time>2022-07-18T17:40:40Z</time>
      </trkpt>
      <trkpt lat="44.32181" lon="7.28701">
        <ele>849</ele>
        <time>2022-07-18T17:40:41Z</time>
      </trkpt>
      <trkpt lat="44.32172" lon="7.28711">
        <ele>847.8</ele>
        <time>2022-07-18T17:40:42Z</time>
      </trkpt>
      <trkpt lat="44.32161" lon="7.28721">
        <ele>846.8</ele>
        <time>2022-07-18T17:40:43Z</time>
      </trkpt>
      <trkpt lat="44.3215" lon="7.28729">
        <ele>845.8</ele>
        <time>2022-07-18T17:40:44Z</time>
      </trkpt>
      <trkpt lat="44.32141" lon="7.28735">
        <ele>844.8</ele>
        <time>2022-07-18T17:40:45Z</time>
      </trkpt>
      <trkpt lat="44.32131" lon="7.28742">
        <ele>843.6</ele>
        <time>2022-07-18T17:40:46Z</time>
      </trkpt>
      <trkpt lat="44.32121" lon="7.2875">
        <ele>842.6</ele>
        <time>2022-07-18T17:40:47Z</time>
      </trkpt>
      <trkpt lat="44.32112" lon="7.2876">
        <ele>841.4</ele>
        <time>2022-07-18T17:40:48Z</time>
      </trkpt>
      <trkpt lat="44.32101" lon="7.2877">
        <ele>840.2</ele>
        <time>2022-07-18T17:40:49Z</time>
      </trkpt>
      <trkpt lat="44.3209" lon="7.28777">
        <ele>838.8</ele>
        <time>2022-07-18T17:40:50Z</time>
      </trkpt>
      <trkpt lat="44.32078" lon="7.28783">
        <ele>837.4</ele>
        <time>2022-07-18T17:40:51Z</time>
      </trkpt>
      <trkpt lat="44.32066" lon="7.28788">
        <ele>836</ele>
        <time>2022-07-18T17:40:52Z</time>
      </trkpt>
      <trkpt lat="44.32054" lon="7.28796">
        <ele>834.8</ele>
        <time>2022-07-18T17:40:53Z</time>
      </trkpt>
      <trkpt lat="44.32044" lon="7.28806">
        <ele>833.8</ele>
        <time>2022-07-18T17:40:54Z</time>
      </trkpt>
      <trkpt lat="44.32033" lon="7.28816">
        <ele>833</ele>
        <time>2022-07-18T17:40:55Z</time>
      </trkpt>
      <trkpt lat="44.32023" lon="7.28825">
        <ele>832.2</ele>
        <time>2022-07-18T17:40:56Z</time>
      </trkpt>
      <trkpt lat="44.32012" lon="7.28833">
        <ele>831.6</ele>
        <time>2022-07-18T17:40:57Z</time>
      </trkpt>
      <trkpt lat="44.32003" lon="7.2884">
        <ele>831</ele>
        <time>2022-07-18T17:40:58Z</time>
      </trkpt>
      <trkpt lat="44.31994" lon="7.28846">
        <ele>830.6</ele>
        <time>2022-07-18T17:40:59Z</time>
      </trkpt>
      <trkpt lat="44.31986" lon="7.28847">
        <ele>830.4</ele>
        <time>2022-07-18T17:41:00Z</time>
      </trkpt>
      <trkpt lat="44.3198" lon="7.28849">
        <ele>830</ele>
        <time>2022-07-18T17:41:01Z</time>
      </trkpt>
      <trkpt lat="44.31974" lon="7.28852">
        <ele>829.6</ele>
        <time>2022-07-18T17:41:02Z</time>
      </trkpt>
      <trkpt lat="44.3197" lon="7.28857">
        <ele>829.2</ele>
        <time>2022-07-18T17:41:03Z</time>
      </trkpt>
      <trkpt lat="44.31968" lon="7.28864">
        <ele>828.8</ele>
        <time>2022-07-18T17:41:04Z</time>
      </trkpt>
      <trkpt lat="44.31966" lon="7.28874">
        <ele>828.2</ele>
        <time>2022-07-18T17:41:05Z</time>
      </trkpt>
      <trkpt lat="44.31965" lon="7.28885">
        <ele>827.6</ele>
        <time>2022-07-18T17:41:06Z</time>
      </trkpt>
      <trkpt lat="44.31964" lon="7.28895">
        <ele>827</ele>
        <time>2022-07-18T17:41:07Z</time>
      </trkpt>
      <trkpt lat="44.31961" lon="7.28905">
        <ele>826.4</ele>
        <time>2022-07-18T17:41:08Z</time>
      </trkpt>
      <trkpt lat="44.31957" lon="7.28912">
        <ele>825.8</ele>
        <time>2022-07-18T17:41:09Z</time>
      </trkpt>
      <trkpt lat="44.31951" lon="7.28914">
        <ele>825.4</ele>
        <time>2022-07-18T17:41:10Z</time>
      </trkpt>
      <trkpt lat="44.31945" lon="7.28912">
        <ele>825</ele>
        <time>2022-07-18T17:41:11Z</time>
      </trkpt>
      <trkpt lat="44.31939" lon="7.28908">
        <ele>824.4</ele>
        <time>2022-07-18T17:41:12Z</time>
      </trkpt>
      <trkpt lat="44.31933" lon="7.28902">
        <ele>823.8</ele>
        <time>2022-07-18T17:41:13Z</time>
      </trkpt>
      <trkpt lat="44.31926" lon="7.28896">
        <ele>823.2</ele>
        <time>2022-07-18T17:41:14Z</time>
      </trkpt>
      <trkpt lat="44.31919" lon="7.28891">
        <ele>822.6</ele>
        <time>2022-07-18T17:41:15Z</time>
      </trkpt>
      <trkpt lat="44.31912" lon="7.28884">
        <ele>822</ele>
        <time>2022-07-18T17:41:16Z</time>
      </trkpt>
      <trkpt lat="44.31905" lon="7.28876">
        <ele>821.4</ele>
        <time>2022-07-18T17:41:17Z</time>
      </trkpt>
      <trkpt lat="44.31901" lon="7.28865">
        <ele>820.8</ele>
        <time>2022-07-18T17:41:18Z</time>
      </trkpt>
      <trkpt lat="44.31898" lon="7.28853">
        <ele>820.2</ele>
        <time>2022-07-18T17:41:19Z</time>
      </trkpt>
      <trkpt lat="44.31896" lon="7.28842">
        <ele>819.6</ele>
        <time>2022-07-18T17:41:20Z</time>
      </trkpt>
      <trkpt lat="44.31897" lon="7.28831">
        <ele>819.2</ele>
        <time>2022-07-18T17:41:21Z</time>
      </trkpt>
      <trkpt lat="44.31898" lon="7.28822">
        <ele>818.8</ele>
        <time>2022-07-18T17:41:22Z</time>
      </trkpt>
      <trkpt lat="44.31899" lon="7.28814">
        <ele>818.2</ele>
        <time>2022-07-18T17:41:23Z</time>
      </trkpt>
      <trkpt lat="44.31898" lon="7.28809">
        <ele>817.8</ele>
        <time>2022-07-18T17:41:24Z</time>
      </trkpt>
      <trkpt lat="44.31895" lon="7.28806">
        <ele>817.6</ele>
        <time>2022-07-18T17:41:25Z</time>
      </trkpt>
      <trkpt lat="44.31891" lon="7.28807">
        <ele>817.2</ele>
        <time>2022-07-18T17:41:26Z</time>
      </trkpt>
      <trkpt lat="44.31887" lon="7.28812">
        <ele>816.8</ele>
        <time>2022-07-18T17:41:27Z</time>
      </trkpt>
      <trkpt lat="44.31883" lon="7.28819">
        <ele>816.4</ele>
        <time>2022-07-18T17:41:28Z</time>
      </trkpt>
      <trkpt lat="44.3188" lon="7.28828">
        <ele>816</ele>
        <time>2022-07-18T17:41:29Z</time>
      </trkpt>
      <trkpt lat="44.31879" lon="7.28838">
        <ele>815.6</ele>
        <time>2022-07-18T17:41:30Z</time>
      </trkpt>
      <trkpt lat="44.31878" lon="7.28849">
        <ele>815.2</ele>
        <time>2022-07-18T17:41:31Z</time>
      </trkpt>
      <trkpt lat="44.31878" lon="7.28861">
        <ele>814.6</ele>
        <time>2022-07-18T17:41:32Z</time>
      </trkpt>
      <trkpt lat="44.31879" lon="7.28873">
        <ele>814</ele>
        <time>2022-07-18T17:41:33Z</time>
      </trkpt>
      <trkpt lat="44.3188" lon="7.28887">
        <ele>813.2</ele>
        <time>2022-07-18T17:41:34Z</time>
      </trkpt>
      <trkpt lat="44.31882" lon="7.28901">
        <ele>812.4</ele>
        <time>2022-07-18T17:41:35Z</time>
      </trkpt>
      <trkpt lat="44.31884" lon="7.28916">
        <ele>811.4</ele>
        <time>2022-07-18T17:41:36Z</time>
      </trkpt>
      <trkpt lat="44.31886" lon="7.28931">
        <ele>810.4</ele>
        <time>2022-07-18T17:41:37Z</time>
      </trkpt>
      <trkpt lat="44.31889" lon="7.28947">
        <ele>809.2</ele>
        <time>2022-07-18T17:41:38Z</time>
      </trkpt>
      <trkpt lat="44.31892" lon="7.28964">
        <ele>808.2</ele>
        <time>2022-07-18T17:41:39Z</time>
      </trkpt>
      <trkpt lat="44.31894" lon="7.28981">
        <ele>807</ele>
        <time>2022-07-18T17:41:40Z</time>
      </trkpt>
      <trkpt lat="44.31894" lon="7.28998">
        <ele>805.8</ele>
        <time>2022-07-18T17:41:41Z</time>
      </trkpt>
      <trkpt lat="44.31893" lon="7.29014">
        <ele>804.4</ele>
        <time>2022-07-18T17:41:42Z</time>
      </trkpt>
      <trkpt lat="44.31892" lon="7.29031">
        <ele>803.2</ele>
        <time>2022-07-18T17:41:43Z</time>
      </trkpt>
      <trkpt lat="44.3189" lon="7.29047">
        <ele>802</ele>
        <time>2022-07-18T17:41:44Z</time>
      </trkpt>
      <trkpt lat="44.31885" lon="7.29062">
        <ele>800.6</ele>
        <time>2022-07-18T17:41:45Z</time>
      </trkpt>
      <trkpt lat="44.31881" lon="7.29077">
        <ele>799.4</ele>
        <time>2022-07-18T17:41:46Z</time>
      </trkpt>
      <trkpt lat="44.31878" lon="7.29091">
        <ele>798.2</ele>
        <time>2022-07-18T17:41:47Z</time>
      </trkpt>
      <trkpt lat="44.31876" lon="7.29103">
        <ele>797</ele>
        <time>2022-07-18T17:41:48Z</time>
      </trkpt>
      <trkpt lat="44.31873" lon="7.29116">
        <ele>796</ele>
        <time>2022-07-18T17:41:49Z</time>
      </trkpt>
      <trkpt lat="44.31871" lon="7.29126">
        <ele>795</ele>
        <time>2022-07-18T17:41:50Z</time>
      </trkpt>
      <trkpt lat="44.31869" lon="7.29137">
        <ele>794</ele>
        <time>2022-07-18T17:41:51Z</time>
      </trkpt>
      <trkpt lat="44.31867" lon="7.29147">
        <ele>793.2</ele>
        <time>2022-07-18T17:41:52Z</time>
      </trkpt>
      <trkpt lat="44.31864" lon="7.29155">
        <ele>792.4</ele>
        <time>2022-07-18T17:41:53Z</time>
      </trkpt>
      <trkpt lat="44.3186" lon="7.29162">
        <ele>791.6</ele>
        <time>2022-07-18T17:41:54Z</time>
      </trkpt>
      <trkpt lat="44.31855" lon="7.29167">
        <ele>790.8</ele>
        <time>2022-07-18T17:41:55Z</time>
      </trkpt>
      <trkpt lat="44.3185" lon="7.29172">
        <ele>790.2</ele>
        <time>2022-07-18T17:41:56Z</time>
      </trkpt>
      <trkpt lat="44.31844" lon="7.29176">
        <ele>789.6</ele>
        <time>2022-07-18T17:41:57Z</time>
      </trkpt>
      <trkpt lat="44.31838" lon="7.29181">
        <ele>788.8</ele>
        <time>2022-07-18T17:41:58Z</time>
      </trkpt>
      <trkpt lat="44.3183" lon="7.29184">
        <ele>788.2</ele>
        <time>2022-07-18T17:41:59Z</time>
      </trkpt>
      <trkpt lat="44.31822" lon="7.29186">
        <ele>787.2</ele>
        <time>2022-07-18T17:42:00Z</time>
      </trkpt>
      <trkpt lat="44.31814" lon="7.29188">
        <ele>786.4</ele>
        <time>2022-07-18T17:42:01Z</time>
      </trkpt>
      <trkpt lat="44.31806" lon="7.2919">
        <ele>785.6</ele>
        <time>2022-07-18T17:42:02Z</time>
      </trkpt>
      <trkpt lat="44.31798" lon="7.29193">
        <ele>784.8</ele>
        <time>2022-07-18T17:42:03Z</time>
      </trkpt>
      <trkpt lat="44.3179" lon="7.29198">
        <ele>783.8</ele>
        <time>2022-07-18T17:42:04Z</time>
      </trkpt>
      <trkpt lat="44.31782" lon="7.29207">
        <ele>783</ele>
        <time>2022-07-18T17:42:05Z</time>
      </trkpt>
      <trkpt lat="44.31775" lon="7.29217">
        <ele>782.2</ele>
        <time>2022-07-18T17:42:06Z</time>
      </trkpt>
      <trkpt lat="44.31767" lon="7.29225">
        <ele>781.6</ele>
        <time>2022-07-18T17:42:07Z</time>
      </trkpt>
      <trkpt lat="44.31758" lon="7.29232">
        <ele>781.2</ele>
        <time>2022-07-18T17:42:08Z</time>
      </trkpt>
      <trkpt lat="44.31749" lon="7.29239">
        <ele>780.6</ele>
        <time>2022-07-18T17:42:09Z</time>
      </trkpt>
      <trkpt lat="44.3174" lon="7.29247">
        <ele>780.2</ele>
        <time>2022-07-18T17:42:10Z</time>
      </trkpt>
      <trkpt lat="44.31732" lon="7.29256">
        <ele>779.8</ele>
        <time>2022-07-18T17:42:11Z</time>
      </trkpt>
      <trkpt lat="44.31724" lon="7.29264">
        <ele>779.6</ele>
        <time>2022-07-18T17:42:12Z</time>
      </trkpt>
      <trkpt lat="44.31717" lon="7.29273">
        <ele>779.4</ele>
        <time>2022-07-18T17:42:13Z</time>
      </trkpt>
      <trkpt lat="44.3171" lon="7.29281">
        <ele>779.4</ele>
        <time>2022-07-18T17:42:14Z</time>
      </trkpt>
      <trkpt lat="44.31703" lon="7.29289">
        <ele>779</ele>
        <time>2022-07-18T17:42:15Z</time>
      </trkpt>
      <trkpt lat="44.31695" lon="7.29296">
        <ele>779</ele>
        <time>2022-07-18T17:42:16Z</time>
      </trkpt>
      <trkpt lat="44.31686" lon="7.29302">
        <ele>779</ele>
        <time>2022-07-18T17:42:17Z</time>
      </trkpt>
      <trkpt lat="44.31678" lon="7.29305">
        <ele>778.8</ele>
        <time>2022-07-18T17:42:18Z</time>
      </trkpt>
      <trkpt lat="44.31669" lon="7.29307">
        <ele>778.8</ele>
        <time>2022-07-18T17:42:19Z</time>
      </trkpt>
      <trkpt lat="44.31661" lon="7.29309">
        <ele>778.6</ele>
        <time>2022-07-18T17:42:20Z</time>
      </trkpt>
      <trkpt lat="44.31654" lon="7.29312">
        <ele>778.6</ele>
        <time>2022-07-18T17:42:21Z</time>
      </trkpt>
      <trkpt lat="44.31648" lon="7.29315">
        <ele>778.4</ele>
        <time>2022-07-18T17:42:22Z</time>
      </trkpt>
      <trkpt lat="44.31642" lon="7.29321">
        <ele>778.4</ele>
        <time>2022-07-18T17:42:23Z</time>
      </trkpt>
      <trkpt lat="44.31637" lon="7.29329">
        <ele>778.4</ele>
        <time>2022-07-18T17:42:24Z</time>
      </trkpt>
      <trkpt lat="44.31633" lon="7.29337">
        <ele>778.4</ele>
        <time>2022-07-18T17:42:25Z</time>
      </trkpt>
      <trkpt lat="44.31629" lon="7.29346">
        <ele>778.4</ele>
        <time>2022-07-18T17:42:26Z</time>
      </trkpt>
      <trkpt lat="44.31625" lon="7.29355">
        <ele>778.4</ele>
        <time>2022-07-18T17:42:27Z</time>
      </trkpt>
      <trkpt lat="44.31621" lon="7.29363">
        <ele>778.2</ele>
        <time>2022-07-18T17:42:28Z</time>
      </trkpt>
      <trkpt lat="44.31618" lon="7.29372">
        <ele>778.2</ele>
        <time>2022-07-18T17:42:29Z</time>
      </trkpt>
      <trkpt lat="44.31614" lon="7.2938">
        <ele>778.2</ele>
        <time>2022-07-18T17:42:30Z</time>
      </trkpt>
      <trkpt lat="44.3161" lon="7.29387">
        <ele>778.2</ele>
        <time>2022-07-18T17:42:31Z</time>
      </trkpt>
      <trkpt lat="44.31604" lon="7.29393">
        <ele>778.2</ele>
        <time>2022-07-18T17:42:32Z</time>
      </trkpt>
      <trkpt lat="44.31598" lon="7.29397">
        <ele>778.2</ele>
        <time>2022-07-18T17:42:33Z</time>
      </trkpt>
      <trkpt lat="44.31592" lon="7.29397">
        <ele>778.2</ele>
        <time>2022-07-18T17:42:34Z</time>
      </trkpt>
      <trkpt lat="44.31586" lon="7.29394">
        <ele>778</ele>
        <time>2022-07-18T17:42:35Z</time>
      </trkpt>
      <trkpt lat="44.3158" lon="7.2939">
        <ele>778</ele>
        <time>2022-07-18T17:42:36Z</time>
      </trkpt>
      <trkpt lat="44.31574" lon="7.29386">
        <ele>778</ele>
        <time>2022-07-18T17:42:37Z</time>
      </trkpt>
      <trkpt lat="44.31567" lon="7.29382">
        <ele>778</ele>
        <time>2022-07-18T17:42:38Z</time>
      </trkpt>
      <trkpt lat="44.31561" lon="7.29379">
        <ele>777.6</ele>
        <time>2022-07-18T17:42:39Z</time>
      </trkpt>
      <trkpt lat="44.31554" lon="7.29375">
        <ele>777.6</ele>
        <time>2022-07-18T17:42:40Z</time>
      </trkpt>
      <trkpt lat="44.31547" lon="7.29372">
        <ele>777.4</ele>
        <time>2022-07-18T17:42:41Z</time>
      </trkpt>
      <trkpt lat="44.31541" lon="7.29368">
        <ele>777.4</ele>
        <time>2022-07-18T17:42:42Z</time>
      </trkpt>
      <trkpt lat="44.31534" lon="7.29363">
        <ele>777.4</ele>
        <time>2022-07-18T17:42:43Z</time>
      </trkpt>
      <trkpt lat="44.31528" lon="7.29358">
        <ele>777.2</ele>
        <time>2022-07-18T17:42:44Z</time>
      </trkpt>
      <trkpt lat="44.31522" lon="7.29352">
        <ele>777.2</ele>
        <time>2022-07-18T17:42:45Z</time>
      </trkpt>
      <trkpt lat="44.31517" lon="7.29347">
        <ele>776.8</ele>
        <time>2022-07-18T17:42:46Z</time>
      </trkpt>
      <trkpt lat="44.3151" lon="7.29341">
        <ele>776.6</ele>
        <time>2022-07-18T17:42:47Z</time>
      </trkpt>
      <trkpt lat="44.31504" lon="7.29336">
        <ele>776.2</ele>
        <time>2022-07-18T17:42:48Z</time>
      </trkpt>
      <trkpt lat="44.31499" lon="7.29332">
        <ele>775.8</ele>
        <time>2022-07-18T17:42:49Z</time>
      </trkpt>
      <trkpt lat="44.31493" lon="7.2933">
        <ele>775.4</ele>
        <time>2022-07-18T17:42:50Z</time>
      </trkpt>
      <trkpt lat="44.31487" lon="7.2933">
        <ele>775</ele>
        <time>2022-07-18T17:42:51Z</time>
      </trkpt>
      <trkpt lat="44.31482" lon="7.29333">
        <ele>774.6</ele>
        <time>2022-07-18T17:42:52Z</time>
      </trkpt>
      <trkpt lat="44.31478" lon="7.29338">
        <ele>774</ele>
        <time>2022-07-18T17:42:53Z</time>
      </trkpt>
      <trkpt lat="44.31475" lon="7.29344">
        <ele>773.6</ele>
        <time>2022-07-18T17:42:54Z</time>
      </trkpt>
      <trkpt lat="44.31474" lon="7.29353">
        <ele>773.2</ele>
        <time>2022-07-18T17:42:55Z</time>
      </trkpt>
      <trkpt lat="44.31474" lon="7.29362">
        <ele>772.8</ele>
        <time>2022-07-18T17:42:56Z</time>
      </trkpt>
      <trkpt lat="44.31475" lon="7.29372">
        <ele>772.4</ele>
        <time>2022-07-18T17:42:57Z</time>
      </trkpt>
      <trkpt lat="44.31476" lon="7.29382">
        <ele>772</ele>
        <time>2022-07-18T17:42:58Z</time>
      </trkpt>
      <trkpt lat="44.31477" lon="7.29392">
        <ele>771.6</ele>
        <time>2022-07-18T17:42:59Z</time>
      </trkpt>
      <trkpt lat="44.31479" lon="7.29401">
        <ele>771.2</ele>
        <time>2022-07-18T17:43:00Z</time>
      </trkpt>
      <trkpt lat="44.31481" lon="7.2941">
        <ele>770.8</ele>
        <time>2022-07-18T17:43:01Z</time>
      </trkpt>
      <trkpt lat="44.31484" lon="7.29418">
        <ele>770.4</ele>
        <time>2022-07-18T17:43:02Z</time>
      </trkpt>
      <trkpt lat="44.31487" lon="7.29425">
        <ele>770.4</ele>
        <time>2022-07-18T17:43:03Z</time>
      </trkpt>
      <trkpt lat="44.31489" lon="7.2943">
        <ele>770</ele>
        <time>2022-07-18T17:43:04Z</time>
      </trkpt>
      <trkpt lat="44.3149" lon="7.29436">
        <ele>770</ele>
        <time>2022-07-18T17:43:05Z</time>
      </trkpt>
      <trkpt lat="44.3149" lon="7.29441">
        <ele>769.8</ele>
        <time>2022-07-18T17:43:06Z</time>
      </trkpt>
      <trkpt lat="44.31489" lon="7.29446">
        <ele>769.8</ele>
        <time>2022-07-18T17:43:07Z</time>
      </trkpt>
      <trkpt lat="44.31487" lon="7.29449">
        <ele>769.4</ele>
        <time>2022-07-18T17:43:08Z</time>
      </trkpt>
      <trkpt lat="44.31484" lon="7.2945">
        <ele>769.4</ele>
        <time>2022-07-18T17:43:09Z</time>
      </trkpt>
      <trkpt lat="44.3148" lon="7.29447">
        <ele>769.2</ele>
        <time>2022-07-18T17:43:10Z</time>
      </trkpt>
      <trkpt lat="44.31478" lon="7.29442">
        <ele>769.2</ele>
        <time>2022-07-18T17:43:11Z</time>
      </trkpt>
      <trkpt lat="44.31475" lon="7.29437">
        <ele>769.2</ele>
        <time>2022-07-18T17:43:12Z</time>
      </trkpt>
      <trkpt lat="44.31473" lon="7.2943">
        <ele>769.2</ele>
        <time>2022-07-18T17:43:13Z</time>
      </trkpt>
      <trkpt lat="44.3147" lon="7.29424">
        <ele>769.2</ele>
        <time>2022-07-18T17:43:14Z</time>
      </trkpt>
      <trkpt lat="44.31468" lon="7.29418">
        <ele>769.2</ele>
        <time>2022-07-18T17:43:15Z</time>
      </trkpt>
      <trkpt lat="44.31465" lon="7.29412">
        <ele>769.2</ele>
        <time>2022-07-18T17:43:16Z</time>
      </trkpt>
      <trkpt lat="44.31462" lon="7.29405">
        <ele>769.2</ele>
        <time>2022-07-18T17:43:17Z</time>
      </trkpt>
      <trkpt lat="44.31459" lon="7.29399">
        <ele>769.2</ele>
        <time>2022-07-18T17:43:18Z</time>
      </trkpt>
      <trkpt lat="44.31455" lon="7.29393">
        <ele>769.2</ele>
        <time>2022-07-18T17:43:19Z</time>
      </trkpt>
      <trkpt lat="44.31452" lon="7.29386">
        <ele>769.2</ele>
        <time>2022-07-18T17:43:20Z</time>
      </trkpt>
      <trkpt lat="44.31449" lon="7.2938">
        <ele>769.2</ele>
        <time>2022-07-18T17:43:21Z</time>
      </trkpt>
      <trkpt lat="44.31445" lon="7.29373">
        <ele>769.2</ele>
        <time>2022-07-18T17:43:22Z</time>
      </trkpt>
      <trkpt lat="44.31441" lon="7.29366">
        <ele>769.2</ele>
        <time>2022-07-18T17:43:23Z</time>
      </trkpt>
      <trkpt lat="44.31438" lon="7.29359">
        <ele>769.2</ele>
        <time>2022-07-18T17:43:24Z</time>
      </trkpt>
      <trkpt lat="44.31434" lon="7.29352">
        <ele>769.2</ele>
        <time>2022-07-18T17:43:25Z</time>
      </trkpt>
      <trkpt lat="44.3143" lon="7.29344">
        <ele>768.8</ele>
        <time>2022-07-18T17:43:26Z</time>
      </trkpt>
      <trkpt lat="44.31426" lon="7.29337">
        <ele>768.8</ele>
        <time>2022-07-18T17:43:27Z</time>
      </trkpt>
      <trkpt lat="44.31422" lon="7.29329">
        <ele>768.8</ele>
        <time>2022-07-18T17:43:28Z</time>
      </trkpt>
      <trkpt lat="44.31417" lon="7.29322">
        <ele>768.8</ele>
        <time>2022-07-18T17:43:29Z</time>
      </trkpt>
      <trkpt lat="44.31413" lon="7.29314">
        <ele>768.8</ele>
        <time>2022-07-18T17:43:30Z</time>
      </trkpt>
      <trkpt lat="44.31409" lon="7.29307">
        <ele>768.8</ele>
        <time>2022-07-18T17:43:31Z</time>
      </trkpt>
      <trkpt lat="44.31405" lon="7.293">
        <ele>768.8</ele>
        <time>2022-07-18T17:43:32Z</time>
      </trkpt>
      <trkpt lat="44.31401" lon="7.29293">
        <ele>768.8</ele>
        <time>2022-07-18T17:43:33Z</time>
      </trkpt>
      <trkpt lat="44.31398" lon="7.29285">
        <ele>768.8</ele>
        <time>2022-07-18T17:43:34Z</time>
      </trkpt>
      <trkpt lat="44.31394" lon="7.29279">
        <ele>768.8</ele>
        <time>2022-07-18T17:43:35Z</time>
      </trkpt>
      <trkpt lat="44.31391" lon="7.29272">
        <ele>768.8</ele>
        <time>2022-07-18T17:43:36Z</time>
      </trkpt>
      <trkpt lat="44.31388" lon="7.29265">
        <ele>768.8</ele>
        <time>2022-07-18T17:43:37Z</time>
      </trkpt>
      <trkpt lat="44.31385" lon="7.29258">
        <ele>768.8</ele>
        <time>2022-07-18T17:43:38Z</time>
      </trkpt>
      <trkpt lat="44.31382" lon="7.29252">
        <ele>768.8</ele>
        <time>2022-07-18T17:43:39Z</time>
      </trkpt>
      <trkpt lat="44.31379" lon="7.29246">
        <ele>768.8</ele>
        <time>2022-07-18T17:43:40Z</time>
      </trkpt>
      <trkpt lat="44.31375" lon="7.29239">
        <ele>768.6</ele>
        <time>2022-07-18T17:43:41Z</time>
      </trkpt>
      <trkpt lat="44.31371" lon="7.29232">
        <ele>768.6</ele>
        <time>2022-07-18T17:43:42Z</time>
      </trkpt>
      <trkpt lat="44.31368" lon="7.29225">
        <ele>768.6</ele>
        <time>2022-07-18T17:43:43Z</time>
      </trkpt>
      <trkpt lat="44.31364" lon="7.29218">
        <ele>768.6</ele>
        <time>2022-07-18T17:43:44Z</time>
      </trkpt>
      <trkpt lat="44.3136" lon="7.29211">
        <ele>768.6</ele>
        <time>2022-07-18T17:43:45Z</time>
      </trkpt>
      <trkpt lat="44.31356" lon="7.29204">
        <ele>768.4</ele>
        <time>2022-07-18T17:43:46Z</time>
      </trkpt>
      <trkpt lat="44.31352" lon="7.29196">
        <ele>768.4</ele>
        <time>2022-07-18T17:43:47Z</time>
      </trkpt>
      <trkpt lat="44.31349" lon="7.29188">
        <ele>768.4</ele>
        <time>2022-07-18T17:43:48Z</time>
      </trkpt>
      <trkpt lat="44.31345" lon="7.29181">
        <ele>768.4</ele>
        <time>2022-07-18T17:43:49Z</time>
      </trkpt>
      <trkpt lat="44.31341" lon="7.29173">
        <ele>768.4</ele>
        <time>2022-07-18T17:43:50Z</time>
      </trkpt>
      <trkpt lat="44.31338" lon="7.29167">
        <ele>768.4</ele>
        <time>2022-07-18T17:43:51Z</time>
      </trkpt>
      <trkpt lat="44.31334" lon="7.2916">
        <ele>768.4</ele>
        <time>2022-07-18T17:43:52Z</time>
      </trkpt>
      <trkpt lat="44.3133" lon="7.29153">
        <ele>768.4</ele>
        <time>2022-07-18T17:43:53Z</time>
      </trkpt>
      <trkpt lat="44.31327" lon="7.29146">
        <ele>768.4</ele>
        <time>2022-07-18T17:43:54Z</time>
      </trkpt>
      <trkpt lat="44.31325" lon="7.29138">
        <ele>768.4</ele>
        <time>2022-07-18T17:43:55Z</time>
      </trkpt>
      <trkpt lat="44.31322" lon="7.2913">
        <ele>768.4</ele>
        <time>2022-07-18T17:43:56Z</time>
      </trkpt>
      <trkpt lat="44.3132" lon="7.29122">
        <ele>768.4</ele>
        <time>2022-07-18T17:43:57Z</time>
      </trkpt>
      <trkpt lat="44.31317" lon="7.29113">
        <ele>768.4</ele>
        <time>2022-07-18T17:43:58Z</time>
      </trkpt>
      <trkpt lat="44.31315" lon="7.29104">
        <ele>768.4</ele>
        <time>2022-07-18T17:43:59Z</time>
      </trkpt>
      <trkpt lat="44.31313" lon="7.29095">
        <ele>768.2</ele>
        <time>2022-07-18T17:44:00Z</time>
      </trkpt>
      <trkpt lat="44.31312" lon="7.29086">
        <ele>768.2</ele>
        <time>2022-07-18T17:44:01Z</time>
      </trkpt>
      <trkpt lat="44.31312" lon="7.29077">
        <ele>768.2</ele>
        <time>2022-07-18T17:44:02Z</time>
      </trkpt>
      <trkpt lat="44.31311" lon="7.29069">
        <ele>768.2</ele>
        <time>2022-07-18T17:44:03Z</time>
      </trkpt>
      <trkpt lat="44.31311" lon="7.2906">
        <ele>768.2</ele>
        <time>2022-07-18T17:44:04Z</time>
      </trkpt>
      <trkpt lat="44.31311" lon="7.29051">
        <ele>768.2</ele>
        <time>2022-07-18T17:44:05Z</time>
      </trkpt>
      <trkpt lat="44.31311" lon="7.29041">
        <ele>768.2</ele>
        <time>2022-07-18T17:44:06Z</time>
      </trkpt>
      <trkpt lat="44.31312" lon="7.29032">
        <ele>768</ele>
        <time>2022-07-18T17:44:07Z</time>
      </trkpt>
      <trkpt lat="44.31312" lon="7.29023">
        <ele>768</ele>
        <time>2022-07-18T17:44:08Z</time>
      </trkpt>
      <trkpt lat="44.31313" lon="7.29013">
        <ele>768</ele>
        <time>2022-07-18T17:44:09Z</time>
      </trkpt>
      <trkpt lat="44.31313" lon="7.29004">
        <ele>768</ele>
        <time>2022-07-18T17:44:10Z</time>
      </trkpt>
      <trkpt lat="44.31313" lon="7.28995">
        <ele>768</ele>
        <time>2022-07-18T17:44:11Z</time>
      </trkpt>
      <trkpt lat="44.31314" lon="7.28986">
        <ele>768</ele>
        <time>2022-07-18T17:44:12Z</time>
      </trkpt>
      <trkpt lat="44.31314" lon="7.28977">
        <ele>768</ele>
        <time>2022-07-18T17:44:13Z</time>
      </trkpt>
      <trkpt lat="44.31315" lon="7.28969">
        <ele>768</ele>
        <time>2022-07-18T17:44:14Z</time>
      </trkpt>
      <trkpt lat="44.31315" lon="7.2896">
        <ele>768</ele>
        <time>2022-07-18T17:44:15Z</time>
      </trkpt>
      <trkpt lat="44.31316" lon="7.28951">
        <ele>768</ele>
        <time>2022-07-18T17:44:16Z</time>
      </trkpt>
      <trkpt lat="44.31316" lon="7.28942">
        <ele>768</ele>
        <time>2022-07-18T17:44:17Z</time>
      </trkpt>
      <trkpt lat="44.31317" lon="7.28934">
        <ele>768</ele>
        <time>2022-07-18T17:44:18Z</time>
      </trkpt>
      <trkpt lat="44.31317" lon="7.28925">
        <ele>767.8</ele>
        <time>2022-07-18T17:44:19Z</time>
      </trkpt>
      <trkpt lat="44.31317" lon="7.28917">
        <ele>767.8</ele>
        <time>2022-07-18T17:44:20Z</time>
      </trkpt>
      <trkpt lat="44.31318" lon="7.28908">
        <ele>767.8</ele>
        <time>2022-07-18T17:44:21Z</time>
      </trkpt>
      <trkpt lat="44.31318" lon="7.28899">
        <ele>767.8</ele>
        <time>2022-07-18T17:44:22Z</time>
      </trkpt>
      <trkpt lat="44.31319" lon="7.2889">
        <ele>767.8</ele>
        <time>2022-07-18T17:44:23Z</time>
      </trkpt>
      <trkpt lat="44.31319" lon="7.28881">
        <ele>767.8</ele>
        <time>2022-07-18T17:44:24Z</time>
      </trkpt>
      <trkpt lat="44.31319" lon="7.28872">
        <ele>767.8</ele>
        <time>2022-07-18T17:44:25Z</time>
      </trkpt>
      <trkpt lat="44.3132" lon="7.28863">
        <ele>767.8</ele>
        <time>2022-07-18T17:44:26Z</time>
      </trkpt>
      <trkpt lat="44.3132" lon="7.28855">
        <ele>767.6</ele>
        <time>2022-07-18T17:44:27Z</time>
      </trkpt>
      <trkpt lat="44.31321" lon="7.28846">
        <ele>767.6</ele>
        <time>2022-07-18T17:44:28Z</time>
      </trkpt>
      <trkpt lat="44.31321" lon="7.28838">
        <ele>767.6</ele>
        <time>2022-07-18T17:44:29Z</time>
      </trkpt>
      <trkpt lat="44.31322" lon="7.2883">
        <ele>767.6</ele>
        <time>2022-07-18T17:44:30Z</time>
      </trkpt>
      <trkpt lat="44.31322" lon="7.28822">
        <ele>767.6</ele>
        <time>2022-07-18T17:44:31Z</time>
      </trkpt>
      <trkpt lat="44.31322" lon="7.28814">
        <ele>767.6</ele>
        <time>2022-07-18T17:44:32Z</time>
      </trkpt>
      <trkpt lat="44.31323" lon="7.28807">
        <ele>767.6</ele>
        <time>2022-07-18T17:44:33Z</time>
      </trkpt>
      <trkpt lat="44.31323" lon="7.288">
        <ele>767.6</ele>
        <time>2022-07-18T17:44:34Z</time>
      </trkpt>
      <trkpt lat="44.31323" lon="7.28792">
        <ele>767.6</ele>
        <time>2022-07-18T17:44:35Z</time>
      </trkpt>
      <trkpt lat="44.31322" lon="7.28784">
        <ele>767.6</ele>
        <time>2022-07-18T17:44:36Z</time>
      </trkpt>
      <trkpt lat="44.31321" lon="7.28776">
        <ele>767.6</ele>
        <time>2022-07-18T17:44:37Z</time>
      </trkpt>
      <trkpt lat="44.31321" lon="7.28769">
        <ele>767.6</ele>
        <time>2022-07-18T17:44:38Z</time>
      </trkpt>
      <trkpt lat="44.3132" lon="7.28761">
        <ele>767.6</ele>
        <time>2022-07-18T17:44:39Z</time>
      </trkpt>
      <trkpt lat="44.3132" lon="7.28754">
        <ele>767.6</ele>
        <time>2022-07-18T17:44:40Z</time>
      </trkpt>
      <trkpt lat="44.31321" lon="7.28746">
        <ele>767.4</ele>
        <time>2022-07-18T17:44:41Z</time>
      </trkpt>
      <trkpt lat="44.31321" lon="7.28739">
        <ele>767.4</ele>
        <time>2022-07-18T17:44:42Z</time>
      </trkpt>
      <trkpt lat="44.31322" lon="7.28731">
        <ele>766.8</ele>
        <time>2022-07-18T17:44:43Z</time>
      </trkpt>
      <trkpt lat="44.31323" lon="7.28723">
        <ele>766.4</ele>
        <time>2022-07-18T17:44:44Z</time>
      </trkpt>
      <trkpt lat="44.31323" lon="7.28714">
        <ele>766</ele>
        <time>2022-07-18T17:44:45Z</time>
      </trkpt>
      <trkpt lat="44.31324" lon="7.28704">
        <ele>765.8</ele>
        <time>2022-07-18T17:44:46Z</time>
      </trkpt>
      <trkpt lat="44.31323" lon="7.28694">
        <ele>765.2</ele>
        <time>2022-07-18T17:44:47Z</time>
      </trkpt>
      <trkpt lat="44.31322" lon="7.28683">
        <ele>764.8</ele>
        <time>2022-07-18T17:44:48Z</time>
      </trkpt>
      <trkpt lat="44.31321" lon="7.28672">
        <ele>764.4</ele>
        <time>2022-07-18T17:44:49Z</time>
      </trkpt>
      <trkpt lat="44.31319" lon="7.28661">
        <ele>764</ele>
        <time>2022-07-18T17:44:50Z</time>
      </trkpt>
      <trkpt lat="44.31317" lon="7.28649">
        <ele>763.6</ele>
        <time>2022-07-18T17:44:51Z</time>
      </trkpt>
      <trkpt lat="44.31316" lon="7.28637">
        <ele>763.2</ele>
        <time>2022-07-18T17:44:52Z</time>
      </trkpt>
      <trkpt lat="44.31315" lon="7.28625">
        <ele>763</ele>
        <time>2022-07-18T17:44:53Z</time>
      </trkpt>
      <trkpt lat="44.31316" lon="7.28613">
        <ele>762.8</ele>
        <time>2022-07-18T17:44:54Z</time>
      </trkpt>
      <trkpt lat="44.31317" lon="7.28601">
        <ele>762.4</ele>
        <time>2022-07-18T17:44:55Z</time>
      </trkpt>
      <trkpt lat="44.31318" lon="7.28589">
        <ele>762</ele>
        <time>2022-07-18T17:44:56Z</time>
      </trkpt>
      <trkpt lat="44.3132" lon="7.28577">
        <ele>761.6</ele>
        <time>2022-07-18T17:44:57Z</time>
      </trkpt>
      <trkpt lat="44.31321" lon="7.28552">
        <ele>761.4</ele>
        <time>2022-07-18T17:44:58Z</time>
      </trkpt>
      <trkpt lat="44.31322" lon="7.28538">
        <ele>761</ele>
        <time>2022-07-18T17:44:59Z</time>
      </trkpt>
      <trkpt lat="44.31324" lon="7.28525">
        <ele>760.6</ele>
        <time>2022-07-18T17:45:00Z</time>
      </trkpt>
      <trkpt lat="44.31326" lon="7.28511">
        <ele>760</ele>
        <time>2022-07-18T17:45:01Z</time>
      </trkpt>
      <trkpt lat="44.31328" lon="7.28498">
        <ele>759.6</ele>
        <time>2022-07-18T17:45:02Z</time>
      </trkpt>
      <trkpt lat="44.31331" lon="7.28483">
        <ele>759</ele>
        <time>2022-07-18T17:45:03Z</time>
      </trkpt>
      <trkpt lat="44.31332" lon="7.28469">
        <ele>758.2</ele>
        <time>2022-07-18T17:45:04Z</time>
      </trkpt>
      <trkpt lat="44.31333" lon="7.28454">
        <ele>757.4</ele>
        <time>2022-07-18T17:45:05Z</time>
      </trkpt>
      <trkpt lat="44.31335" lon="7.28438">
        <ele>756.8</ele>
        <time>2022-07-18T17:45:06Z</time>
      </trkpt>
      <trkpt lat="44.31335" lon="7.28422">
        <ele>756</ele>
        <time>2022-07-18T17:45:07Z</time>
      </trkpt>
      <trkpt lat="44.31335" lon="7.28406">
        <ele>755.4</ele>
        <time>2022-07-18T17:45:08Z</time>
      </trkpt>
      <trkpt lat="44.31335" lon="7.2839">
        <ele>754.6</ele>
        <time>2022-07-18T17:45:09Z</time>
      </trkpt>
      <trkpt lat="44.31335" lon="7.28374">
        <ele>753.8</ele>
        <time>2022-07-18T17:45:10Z</time>
      </trkpt>
      <trkpt lat="44.31335" lon="7.28357">
        <ele>753.8</ele>
        <time>2022-07-18T17:45:11Z</time>
      </trkpt>
      <trkpt lat="44.31334" lon="7.28339">
        <ele>753.2</ele>
        <time>2022-07-18T17:45:12Z</time>
      </trkpt>
      <trkpt lat="44.31335" lon="7.28322">
        <ele>752.6</ele>
        <time>2022-07-18T17:45:13Z</time>
      </trkpt>
      <trkpt lat="44.31335" lon="7.28306">
        <ele>752</ele>
        <time>2022-07-18T17:45:14Z</time>
      </trkpt>
      <trkpt lat="44.31336" lon="7.2829">
        <ele>751.4</ele>
        <time>2022-07-18T17:45:15Z</time>
      </trkpt>
      <trkpt lat="44.31336" lon="7.28275">
        <ele>751</ele>
        <time>2022-07-18T17:45:16Z</time>
      </trkpt>
      <trkpt lat="44.31335" lon="7.2826">
        <ele>750.8</ele>
        <time>2022-07-18T17:45:17Z</time>
      </trkpt>
      <trkpt lat="44.31335" lon="7.28246">
        <ele>750.4</ele>
        <time>2022-07-18T17:45:18Z</time>
      </trkpt>
      <trkpt lat="44.31335" lon="7.28231">
        <ele>750.2</ele>
        <time>2022-07-18T17:45:19Z</time>
      </trkpt>
      <trkpt lat="44.31335" lon="7.28217">
        <ele>749.8</ele>
        <time>2022-07-18T17:45:20Z</time>
      </trkpt>
      <trkpt lat="44.31334" lon="7.28202">
        <ele>749.6</ele>
        <time>2022-07-18T17:45:21Z</time>
      </trkpt>
      <trkpt lat="44.31334" lon="7.28189">
        <ele>749.2</ele>
        <time>2022-07-18T17:45:22Z</time>
      </trkpt>
      <trkpt lat="44.31335" lon="7.28176">
        <ele>749</ele>
        <time>2022-07-18T17:45:23Z</time>
      </trkpt>
      <trkpt lat="44.31335" lon="7.28163">
        <ele>748.6</ele>
        <time>2022-07-18T17:45:24Z</time>
      </trkpt>
      <trkpt lat="44.31336" lon="7.2815">
        <ele>748.4</ele>
        <time>2022-07-18T17:45:25Z</time>
      </trkpt>
      <trkpt lat="44.31337" lon="7.28137">
        <ele>748.2</ele>
        <time>2022-07-18T17:45:26Z</time>
      </trkpt>
      <trkpt lat="44.31338" lon="7.28123">
        <ele>748</ele>
        <time>2022-07-18T17:45:27Z</time>
      </trkpt>
      <trkpt lat="44.31339" lon="7.2811">
        <ele>748</ele>
        <time>2022-07-18T17:45:28Z</time>
      </trkpt>
      <trkpt lat="44.3134" lon="7.28098">
        <ele>747.6</ele>
        <time>2022-07-18T17:45:29Z</time>
      </trkpt>
      <trkpt lat="44.31341" lon="7.28086">
        <ele>747.6</ele>
        <time>2022-07-18T17:45:30Z</time>
      </trkpt>
      <trkpt lat="44.31341" lon="7.28074">
        <ele>747.4</ele>
        <time>2022-07-18T17:45:31Z</time>
      </trkpt>
      <trkpt lat="44.31341" lon="7.28063">
        <ele>747.4</ele>
        <time>2022-07-18T17:45:33Z</time>
      </trkpt>
      <trkpt lat="44.3134" lon="7.28052">
        <ele>747.2</ele>
        <time>2022-07-18T17:45:34Z</time>
      </trkpt>
      <trkpt lat="44.31339" lon="7.28041">
        <ele>747.2</ele>
        <time>2022-07-18T17:45:35Z</time>
      </trkpt>
      <trkpt lat="44.31337" lon="7.28029">
        <ele>747.2</ele>
        <time>2022-07-18T17:45:36Z</time>
      </trkpt>
      <trkpt lat="44.31336" lon="7.28017">
        <ele>746.8</ele>
        <time>2022-07-18T17:45:37Z</time>
      </trkpt>
      <trkpt lat="44.31335" lon="7.28006">
        <ele>746.8</ele>
        <time>2022-07-18T17:45:38Z</time>
      </trkpt>
      <trkpt lat="44.31335" lon="7.27994">
        <ele>746.6</ele>
        <time>2022-07-18T17:45:39Z</time>
      </trkpt>
      <trkpt lat="44.31335" lon="7.27983">
        <ele>746.6</ele>
        <time>2022-07-18T17:45:40Z</time>
      </trkpt>
      <trkpt lat="44.31335" lon="7.27971">
        <ele>746.2</ele>
        <time>2022-07-18T17:45:41Z</time>
      </trkpt>
      <trkpt lat="44.31335" lon="7.27959">
        <ele>746.2</ele>
        <time>2022-07-18T17:45:42Z</time>
      </trkpt>
      <trkpt lat="44.31336" lon="7.27947">
        <ele>745.8</ele>
        <time>2022-07-18T17:45:43Z</time>
      </trkpt>
      <trkpt lat="44.31336" lon="7.27935">
        <ele>745.8</ele>
        <time>2022-07-18T17:45:44Z</time>
      </trkpt>
      <trkpt lat="44.31337" lon="7.27918">
        <ele>745.6</ele>
        <time>2022-07-18T17:45:45Z</time>
      </trkpt>
      <trkpt lat="44.31338" lon="7.27912">
        <ele>745</ele>
        <time>2022-07-18T17:45:46Z</time>
      </trkpt>
      <trkpt lat="44.31338" lon="7.279">
        <ele>745</ele>
        <time>2022-07-18T17:45:47Z</time>
      </trkpt>
      <trkpt lat="44.31339" lon="7.27889">
        <ele>745</ele>
        <time>2022-07-18T17:45:48Z</time>
      </trkpt>
      <trkpt lat="44.31341" lon="7.27867">
        <ele>744.8</ele>
        <time>2022-07-18T17:45:49Z</time>
      </trkpt>
      <trkpt lat="44.31343" lon="7.27857">
        <ele>744.8</ele>
        <time>2022-07-18T17:45:50Z</time>
      </trkpt>
      <trkpt lat="44.31344" lon="7.27847">
        <ele>744.8</ele>
        <time>2022-07-18T17:45:51Z</time>
      </trkpt>
      <trkpt lat="44.31345" lon="7.27837">
        <ele>744.4</ele>
        <time>2022-07-18T17:45:52Z</time>
      </trkpt>
      <trkpt lat="44.31346" lon="7.27828">
        <ele>744.4</ele>
        <time>2022-07-18T17:45:53Z</time>
      </trkpt>
      <trkpt lat="44.31347" lon="7.27818">
        <ele>744.4</ele>
        <time>2022-07-18T17:45:54Z</time>
      </trkpt>
      <trkpt lat="44.31348" lon="7.27809">
        <ele>744.4</ele>
        <time>2022-07-18T17:45:55Z</time>
      </trkpt>
      <trkpt lat="44.31349" lon="7.278">
        <ele>744.4</ele>
        <time>2022-07-18T17:45:56Z</time>
      </trkpt>
      <trkpt lat="44.3135" lon="7.27791">
        <ele>744.4</ele>
        <time>2022-07-18T17:45:57Z</time>
      </trkpt>
      <trkpt lat="44.3135" lon="7.27781">
        <ele>744.4</ele>
        <time>2022-07-18T17:45:58Z</time>
      </trkpt>
      <trkpt lat="44.31351" lon="7.27772">
        <ele>744.4</ele>
        <time>2022-07-18T17:45:59Z</time>
      </trkpt>
      <trkpt lat="44.31351" lon="7.27762">
        <ele>744.4</ele>
        <time>2022-07-18T17:46:00Z</time>
      </trkpt>
      <trkpt lat="44.31351" lon="7.27753">
        <ele>744.4</ele>
        <time>2022-07-18T17:46:01Z</time>
      </trkpt>
      <trkpt lat="44.31351" lon="7.27743">
        <ele>744.4</ele>
        <time>2022-07-18T17:46:02Z</time>
      </trkpt>
      <trkpt lat="44.3135" lon="7.27734">
        <ele>744.4</ele>
        <time>2022-07-18T17:46:03Z</time>
      </trkpt>
      <trkpt lat="44.3135" lon="7.27725">
        <ele>744.4</ele>
        <time>2022-07-18T17:46:04Z</time>
      </trkpt>
      <trkpt lat="44.3135" lon="7.27715">
        <ele>744.4</ele>
        <time>2022-07-18T17:46:05Z</time>
      </trkpt>
      <trkpt lat="44.31349" lon="7.27706">
        <ele>744.4</ele>
        <time>2022-07-18T17:46:06Z</time>
      </trkpt>
      <trkpt lat="44.31348" lon="7.27696">
        <ele>744.4</ele>
        <time>2022-07-18T17:46:07Z</time>
      </trkpt>
      <trkpt lat="44.31347" lon="7.27686">
        <ele>744.4</ele>
        <time>2022-07-18T17:46:08Z</time>
      </trkpt>
      <trkpt lat="44.31344" lon="7.27677">
        <ele>744.4</ele>
        <time>2022-07-18T17:46:09Z</time>
      </trkpt>
      <trkpt lat="44.31341" lon="7.27668">
        <ele>744.4</ele>
        <time>2022-07-18T17:46:10Z</time>
      </trkpt>
      <trkpt lat="44.31336" lon="7.27661">
        <ele>744.2</ele>
        <time>2022-07-18T17:46:11Z</time>
      </trkpt>
      <trkpt lat="44.31331" lon="7.27655">
        <ele>744.2</ele>
        <time>2022-07-18T17:46:12Z</time>
      </trkpt>
      <trkpt lat="44.31325" lon="7.2765">
        <ele>744.2</ele>
        <time>2022-07-18T17:46:13Z</time>
      </trkpt>
      <trkpt lat="44.31318" lon="7.27647">
        <ele>744.2</ele>
        <time>2022-07-18T17:46:14Z</time>
      </trkpt>
      <trkpt lat="44.31311" lon="7.27645">
        <ele>744.2</ele>
        <time>2022-07-18T17:46:15Z</time>
      </trkpt>
      <trkpt lat="44.31304" lon="7.27644">
        <ele>744.2</ele>
        <time>2022-07-18T17:46:16Z</time>
      </trkpt>
      <trkpt lat="44.31297" lon="7.27645">
        <ele>744.2</ele>
        <time>2022-07-18T17:46:17Z</time>
      </trkpt>
      <trkpt lat="44.3129" lon="7.27647">
        <ele>744</ele>
        <time>2022-07-18T17:46:18Z</time>
      </trkpt>
      <trkpt lat="44.31283" lon="7.27651">
        <ele>744</ele>
        <time>2022-07-18T17:46:19Z</time>
      </trkpt>
      <trkpt lat="44.31276" lon="7.27656">
        <ele>744</ele>
        <time>2022-07-18T17:46:20Z</time>
      </trkpt>
      <trkpt lat="44.3127" lon="7.27662">
        <ele>743.8</ele>
        <time>2022-07-18T17:46:21Z</time>
      </trkpt>
      <trkpt lat="44.31263" lon="7.27668">
        <ele>743.8</ele>
        <time>2022-07-18T17:46:22Z</time>
      </trkpt>
      <trkpt lat="44.31256" lon="7.27674">
        <ele>743.6</ele>
        <time>2022-07-18T17:46:23Z</time>
      </trkpt>
      <trkpt lat="44.31249" lon="7.2768">
        <ele>743.6</ele>
        <time>2022-07-18T17:46:24Z</time>
      </trkpt>
      <trkpt lat="44.31243" lon="7.27686">
        <ele>743.2</ele>
        <time>2022-07-18T17:46:25Z</time>
      </trkpt>
      <trkpt lat="44.31236" lon="7.27692">
        <ele>743.2</ele>
        <time>2022-07-18T17:46:26Z</time>
      </trkpt>
      <trkpt lat="44.31229" lon="7.27697">
        <ele>743</ele>
        <time>2022-07-18T17:46:27Z</time>
      </trkpt>
      <trkpt lat="44.31222" lon="7.27703">
        <ele>743</ele>
        <time>2022-07-18T17:46:28Z</time>
      </trkpt>
      <trkpt lat="44.31215" lon="7.27708">
        <ele>742.6</ele>
        <time>2022-07-18T17:46:29Z</time>
      </trkpt>
      <trkpt lat="44.31209" lon="7.27713">
        <ele>742.6</ele>
        <time>2022-07-18T17:46:30Z</time>
      </trkpt>
      <trkpt lat="44.31202" lon="7.27719">
        <ele>742.6</ele>
        <time>2022-07-18T17:46:31Z</time>
      </trkpt>
      <trkpt lat="44.31195" lon="7.27724">
        <ele>742.6</ele>
        <time>2022-07-18T17:46:32Z</time>
      </trkpt>
      <trkpt lat="44.31189" lon="7.2773">
        <ele>742.4</ele>
        <time>2022-07-18T17:46:33Z</time>
      </trkpt>
      <trkpt lat="44.31182" lon="7.27735">
        <ele>742.4</ele>
        <time>2022-07-18T17:46:34Z</time>
      </trkpt>
      <trkpt lat="44.31175" lon="7.27741">
        <ele>742.4</ele>
        <time>2022-07-18T17:46:35Z</time>
      </trkpt>
      <trkpt lat="44.31169" lon="7.27746">
        <ele>742.4</ele>
        <time>2022-07-18T17:46:36Z</time>
      </trkpt>
      <trkpt lat="44.31163" lon="7.27752">
        <ele>742.2</ele>
        <time>2022-07-18T17:46:37Z</time>
      </trkpt>
      <trkpt lat="44.31156" lon="7.27757">
        <ele>742.2</ele>
        <time>2022-07-18T17:46:38Z</time>
      </trkpt>
      <trkpt lat="44.3115" lon="7.27762">
        <ele>742.2</ele>
        <time>2022-07-18T17:46:39Z</time>
      </trkpt>
      <trkpt lat="44.31143" lon="7.27767">
        <ele>742</ele>
        <time>2022-07-18T17:46:40Z</time>
      </trkpt>
      <trkpt lat="44.31137" lon="7.27772">
        <ele>742</ele>
        <time>2022-07-18T17:46:41Z</time>
      </trkpt>
      <trkpt lat="44.31131" lon="7.27777">
        <ele>742</ele>
        <time>2022-07-18T17:46:42Z</time>
      </trkpt>
      <trkpt lat="44.31125" lon="7.27782">
        <ele>741.6</ele>
        <time>2022-07-18T17:46:43Z</time>
      </trkpt>
      <trkpt lat="44.31118" lon="7.27787">
        <ele>741.6</ele>
        <time>2022-07-18T17:46:44Z</time>
      </trkpt>
      <trkpt lat="44.31112" lon="7.27792">
        <ele>741.6</ele>
        <time>2022-07-18T17:46:45Z</time>
      </trkpt>
      <trkpt lat="44.31105" lon="7.27798">
        <ele>741.4</ele>
        <time>2022-07-18T17:46:46Z</time>
      </trkpt>
      <trkpt lat="44.31099" lon="7.27803">
        <ele>741.4</ele>
        <time>2022-07-18T17:46:47Z</time>
      </trkpt>
      <trkpt lat="44.31093" lon="7.27809">
        <ele>741.4</ele>
        <time>2022-07-18T17:46:48Z</time>
      </trkpt>
      <trkpt lat="44.31087" lon="7.27814">
        <ele>741.2</ele>
        <time>2022-07-18T17:46:49Z</time>
      </trkpt>
      <trkpt lat="44.31081" lon="7.2782">
        <ele>741.2</ele>
        <time>2022-07-18T17:46:50Z</time>
      </trkpt>
      <trkpt lat="44.31075" lon="7.27825">
        <ele>741.2</ele>
        <time>2022-07-18T17:46:51Z</time>
      </trkpt>
      <trkpt lat="44.31069" lon="7.2783">
        <ele>741</ele>
        <time>2022-07-18T17:46:52Z</time>
      </trkpt>
      <trkpt lat="44.31063" lon="7.27835">
        <ele>741</ele>
        <time>2022-07-18T17:46:53Z</time>
      </trkpt>
      <trkpt lat="44.31057" lon="7.2784">
        <ele>741</ele>
        <time>2022-07-18T17:46:54Z</time>
      </trkpt>
      <trkpt lat="44.31051" lon="7.27844">
        <ele>741</ele>
        <time>2022-07-18T17:46:55Z</time>
      </trkpt>
      <trkpt lat="44.31045" lon="7.27848">
        <ele>741.4</ele>
        <time>2022-07-18T17:46:56Z</time>
      </trkpt>
      <trkpt lat="44.3104" lon="7.27852">
        <ele>741.4</ele>
        <time>2022-07-18T17:46:57Z</time>
      </trkpt>
      <trkpt lat="44.31034" lon="7.27855">
        <ele>741.6</ele>
        <time>2022-07-18T17:46:58Z</time>
      </trkpt>
      <trkpt lat="44.31031" lon="7.27856">
        <ele>741.6</ele>
        <time>2022-07-18T17:46:59Z</time>
      </trkpt>
      <trkpt lat="44.31028" lon="7.27857">
        <ele>741.6</ele>
        <time>2022-07-18T17:47:00Z</time>
      </trkpt>
      <trkpt lat="44.31022" lon="7.27858">
        <ele>741.6</ele>
        <time>2022-07-18T17:47:01Z</time>
      </trkpt>
      <trkpt lat="44.31016" lon="7.27857">
        <ele>741.6</ele>
        <time>2022-07-18T17:47:02Z</time>
      </trkpt>
      <trkpt lat="44.3101" lon="7.27854">
        <ele>741.8</ele>
        <time>2022-07-18T17:47:03Z</time>
      </trkpt>
      <trkpt lat="44.31005" lon="7.27852">
        <ele>741.8</ele>
        <time>2022-07-18T17:47:04Z</time>
      </trkpt>
      <trkpt lat="44.31" lon="7.27848">
        <ele>741.8</ele>
        <time>2022-07-18T17:47:05Z</time>
      </trkpt>
      <trkpt lat="44.30996" lon="7.27844">
        <ele>741.8</ele>
        <time>2022-07-18T17:47:06Z</time>
      </trkpt>
      <trkpt lat="44.30991" lon="7.27839">
        <ele>741.8</ele>
        <time>2022-07-18T17:47:07Z</time>
      </trkpt>
      <trkpt lat="44.30986" lon="7.27834">
        <ele>742</ele>
        <time>2022-07-18T17:47:08Z</time>
      </trkpt>
      <trkpt lat="44.30981" lon="7.27829">
        <ele>742</ele>
        <time>2022-07-18T17:47:09Z</time>
      </trkpt>
      <trkpt lat="44.30976" lon="7.27824">
        <ele>742</ele>
        <time>2022-07-18T17:47:10Z</time>
      </trkpt>
      <trkpt lat="44.30971" lon="7.27819">
        <ele>742</ele>
        <time>2022-07-18T17:47:11Z</time>
      </trkpt>
      <trkpt lat="44.30965" lon="7.27814">
        <ele>742</ele>
        <time>2022-07-18T17:47:12Z</time>
      </trkpt>
      <trkpt lat="44.3096" lon="7.27809">
        <ele>742</ele>
        <time>2022-07-18T17:47:13Z</time>
      </trkpt>
      <trkpt lat="44.30955" lon="7.27805">
        <ele>742</ele>
        <time>2022-07-18T17:47:14Z</time>
      </trkpt>
      <trkpt lat="44.3095" lon="7.27801">
        <ele>742</ele>
        <time>2022-07-18T17:47:15Z</time>
      </trkpt>
      <trkpt lat="44.30945" lon="7.27796">
        <ele>742</ele>
        <time>2022-07-18T17:47:16Z</time>
      </trkpt>
      <trkpt lat="44.30941" lon="7.27792">
        <ele>742</ele>
        <time>2022-07-18T17:47:17Z</time>
      </trkpt>
      <trkpt lat="44.30936" lon="7.27788">
        <ele>742</ele>
        <time>2022-07-18T17:47:18Z</time>
      </trkpt>
      <trkpt lat="44.30932" lon="7.27783">
        <ele>742</ele>
        <time>2022-07-18T17:47:19Z</time>
      </trkpt>
      <trkpt lat="44.30928" lon="7.27778">
        <ele>742</ele>
        <time>2022-07-18T17:47:20Z</time>
      </trkpt>
      <trkpt lat="44.30925" lon="7.27771">
        <ele>742</ele>
        <time>2022-07-18T17:47:21Z</time>
      </trkpt>
      <trkpt lat="44.30923" lon="7.27763">
        <ele>742</ele>
        <time>2022-07-18T17:47:22Z</time>
      </trkpt>
      <trkpt lat="44.30922" lon="7.27754">
        <ele>741.8</ele>
        <time>2022-07-18T17:47:23Z</time>
      </trkpt>
      <trkpt lat="44.30921" lon="7.27745">
        <ele>741.8</ele>
        <time>2022-07-18T17:47:24Z</time>
      </trkpt>
      <trkpt lat="44.30921" lon="7.27735">
        <ele>741.8</ele>
        <time>2022-07-18T17:47:25Z</time>
      </trkpt>
      <trkpt lat="44.3092" lon="7.27726">
        <ele>741.6</ele>
        <time>2022-07-18T17:47:26Z</time>
      </trkpt>
      <trkpt lat="44.3092" lon="7.27717">
        <ele>741.6</ele>
        <time>2022-07-18T17:47:27Z</time>
      </trkpt>
      <trkpt lat="44.3092" lon="7.27707">
        <ele>741.6</ele>
        <time>2022-07-18T17:47:28Z</time>
      </trkpt>
      <trkpt lat="44.30919" lon="7.27698">
        <ele>741.6</ele>
        <time>2022-07-18T17:47:29Z</time>
      </trkpt>
      <trkpt lat="44.30919" lon="7.27689">
        <ele>741.6</ele>
        <time>2022-07-18T17:47:30Z</time>
      </trkpt>
      <trkpt lat="44.30918" lon="7.27681">
        <ele>741.6</ele>
        <time>2022-07-18T17:47:31Z</time>
      </trkpt>
      <trkpt lat="44.30917" lon="7.27672">
        <ele>741.6</ele>
        <time>2022-07-18T17:47:32Z</time>
      </trkpt>
      <trkpt lat="44.30917" lon="7.27663">
        <ele>741.6</ele>
        <time>2022-07-18T17:47:33Z</time>
      </trkpt>
      <trkpt lat="44.30916" lon="7.27655">
        <ele>741.6</ele>
        <time>2022-07-18T17:47:34Z</time>
      </trkpt>
      <trkpt lat="44.30915" lon="7.27646">
        <ele>741.6</ele>
        <time>2022-07-18T17:47:35Z</time>
      </trkpt>
      <trkpt lat="44.30915" lon="7.27638">
        <ele>741.6</ele>
        <time>2022-07-18T17:47:36Z</time>
      </trkpt>
      <trkpt lat="44.30914" lon="7.27629">
        <ele>741.6</ele>
        <time>2022-07-18T17:47:37Z</time>
      </trkpt>
      <trkpt lat="44.30914" lon="7.27621">
        <ele>741.6</ele>
        <time>2022-07-18T17:47:38Z</time>
      </trkpt>
      <trkpt lat="44.30913" lon="7.27612">
        <ele>741.6</ele>
        <time>2022-07-18T17:47:39Z</time>
      </trkpt>
      <trkpt lat="44.30912" lon="7.27604">
        <ele>741.6</ele>
        <time>2022-07-18T17:47:40Z</time>
      </trkpt>
      <trkpt lat="44.30912" lon="7.27595">
        <ele>741.6</ele>
        <time>2022-07-18T17:47:41Z</time>
      </trkpt>
      <trkpt lat="44.30912" lon="7.27587">
        <ele>741.6</ele>
        <time>2022-07-18T17:47:42Z</time>
      </trkpt>
      <trkpt lat="44.30911" lon="7.27578">
        <ele>741.8</ele>
        <time>2022-07-18T17:47:43Z</time>
      </trkpt>
      <trkpt lat="44.3091" lon="7.2757">
        <ele>741.8</ele>
        <time>2022-07-18T17:47:44Z</time>
      </trkpt>
      <trkpt lat="44.3091" lon="7.27562">
        <ele>741.8</ele>
        <time>2022-07-18T17:47:45Z</time>
      </trkpt>
      <trkpt lat="44.30909" lon="7.27553">
        <ele>741.8</ele>
        <time>2022-07-18T17:47:46Z</time>
      </trkpt>
      <trkpt lat="44.30909" lon="7.27545">
        <ele>742</ele>
        <time>2022-07-18T17:47:47Z</time>
      </trkpt>
      <trkpt lat="44.30908" lon="7.27537">
        <ele>742</ele>
        <time>2022-07-18T17:47:48Z</time>
      </trkpt>
      <trkpt lat="44.30907" lon="7.27529">
        <ele>742.2</ele>
        <time>2022-07-18T17:47:49Z</time>
      </trkpt>
      <trkpt lat="44.30906" lon="7.27521">
        <ele>742.2</ele>
        <time>2022-07-18T17:47:50Z</time>
      </trkpt>
      <trkpt lat="44.30906" lon="7.27513">
        <ele>742.2</ele>
        <time>2022-07-18T17:47:51Z</time>
      </trkpt>
      <trkpt lat="44.30906" lon="7.27505">
        <ele>742.2</ele>
        <time>2022-07-18T17:47:52Z</time>
      </trkpt>
      <trkpt lat="44.30905" lon="7.27497">
        <ele>742.4</ele>
        <time>2022-07-18T17:47:53Z</time>
      </trkpt>
      <trkpt lat="44.30905" lon="7.27489">
        <ele>742.4</ele>
        <time>2022-07-18T17:47:54Z</time>
      </trkpt>
      <trkpt lat="44.30904" lon="7.27481">
        <ele>742.6</ele>
        <time>2022-07-18T17:47:55Z</time>
      </trkpt>
      <trkpt lat="44.30904" lon="7.27473">
        <ele>742.6</ele>
        <time>2022-07-18T17:47:56Z</time>
      </trkpt>
      <trkpt lat="44.30903" lon="7.27465">
        <ele>742.6</ele>
        <time>2022-07-18T17:47:57Z</time>
      </trkpt>
      <trkpt lat="44.30902" lon="7.27457">
        <ele>742.6</ele>
        <time>2022-07-18T17:47:58Z</time>
      </trkpt>
      <trkpt lat="44.30902" lon="7.27446">
        <ele>742.8</ele>
        <time>2022-07-18T17:47:59Z</time>
      </trkpt>
      <trkpt lat="44.30902" lon="7.27443">
        <ele>742.8</ele>
        <time>2022-07-18T17:48:00Z</time>
      </trkpt>
      <trkpt lat="44.30901" lon="7.27436">
        <ele>742.8</ele>
        <time>2022-07-18T17:48:01Z</time>
      </trkpt>
      <trkpt lat="44.30901" lon="7.27429">
        <ele>742.8</ele>
        <time>2022-07-18T17:48:02Z</time>
      </trkpt>
      <trkpt lat="44.309" lon="7.27422">
        <ele>742.8</ele>
        <time>2022-07-18T17:48:03Z</time>
      </trkpt>
      <trkpt lat="44.30899" lon="7.27414">
        <ele>742.8</ele>
        <time>2022-07-18T17:48:04Z</time>
      </trkpt>
      <trkpt lat="44.30899" lon="7.27407">
        <ele>743.2</ele>
        <time>2022-07-18T17:48:05Z</time>
      </trkpt>
      <trkpt lat="44.30899" lon="7.27399">
        <ele>743.2</ele>
        <time>2022-07-18T17:48:06Z</time>
      </trkpt>
      <trkpt lat="44.30898" lon="7.27392">
        <ele>743.2</ele>
        <time>2022-07-18T17:48:07Z</time>
      </trkpt>
      <trkpt lat="44.30898" lon="7.27384">
        <ele>743.2</ele>
        <time>2022-07-18T17:48:08Z</time>
      </trkpt>
      <trkpt lat="44.30897" lon="7.27376">
        <ele>743.4</ele>
        <time>2022-07-18T17:48:09Z</time>
      </trkpt>
      <trkpt lat="44.30897" lon="7.27368">
        <ele>743.4</ele>
        <time>2022-07-18T17:48:10Z</time>
      </trkpt>
      <trkpt lat="44.30896" lon="7.27361">
        <ele>743.4</ele>
        <time>2022-07-18T17:48:11Z</time>
      </trkpt>
      <trkpt lat="44.30895" lon="7.27353">
        <ele>743.4</ele>
        <time>2022-07-18T17:48:12Z</time>
      </trkpt>
      <trkpt lat="44.30895" lon="7.27345">
        <ele>743.6</ele>
        <time>2022-07-18T17:48:13Z</time>
      </trkpt>
      <trkpt lat="44.30894" lon="7.27337">
        <ele>743.6</ele>
        <time>2022-07-18T17:48:14Z</time>
      </trkpt>
      <trkpt lat="44.30894" lon="7.27329">
        <ele>743.8</ele>
        <time>2022-07-18T17:48:15Z</time>
      </trkpt>
      <trkpt lat="44.30893" lon="7.27322">
        <ele>743.8</ele>
        <time>2022-07-18T17:48:16Z</time>
      </trkpt>
      <trkpt lat="44.30893" lon="7.27314">
        <ele>743.8</ele>
        <time>2022-07-18T17:48:17Z</time>
      </trkpt>
      <trkpt lat="44.30892" lon="7.27306">
        <ele>743.8</ele>
        <time>2022-07-18T17:48:18Z</time>
      </trkpt>
      <trkpt lat="44.30892" lon="7.27298">
        <ele>744.2</ele>
        <time>2022-07-18T17:48:19Z</time>
      </trkpt>
      <trkpt lat="44.30891" lon="7.2729">
        <ele>744.2</ele>
        <time>2022-07-18T17:48:20Z</time>
      </trkpt>
      <trkpt lat="44.30891" lon="7.27282">
        <ele>744.2</ele>
        <time>2022-07-18T17:48:21Z</time>
      </trkpt>
      <trkpt lat="44.3089" lon="7.27274">
        <ele>744.2</ele>
        <time>2022-07-18T17:48:22Z</time>
      </trkpt>
      <trkpt lat="44.30889" lon="7.27267">
        <ele>744.2</ele>
        <time>2022-07-18T17:48:23Z</time>
      </trkpt>
      <trkpt lat="44.30889" lon="7.27259">
        <ele>744.2</ele>
        <time>2022-07-18T17:48:24Z</time>
      </trkpt>
      <trkpt lat="44.30888" lon="7.27251">
        <ele>744.4</ele>
        <time>2022-07-18T17:48:25Z</time>
      </trkpt>
      <trkpt lat="44.30888" lon="7.27243">
        <ele>744.4</ele>
        <time>2022-07-18T17:48:26Z</time>
      </trkpt>
      <trkpt lat="44.30887" lon="7.27235">
        <ele>744.4</ele>
        <time>2022-07-18T17:48:27Z</time>
      </trkpt>
      <trkpt lat="44.30887" lon="7.27227">
        <ele>744.6</ele>
        <time>2022-07-18T17:48:28Z</time>
      </trkpt>
      <trkpt lat="44.30886" lon="7.27219">
        <ele>744.6</ele>
        <time>2022-07-18T17:48:29Z</time>
      </trkpt>
      <trkpt lat="44.30886" lon="7.27211">
        <ele>744.8</ele>
        <time>2022-07-18T17:48:30Z</time>
      </trkpt>
      <trkpt lat="44.30885" lon="7.27203">
        <ele>744.8</ele>
        <time>2022-07-18T17:48:31Z</time>
      </trkpt>
      <trkpt lat="44.30884" lon="7.27196">
        <ele>744.8</ele>
        <time>2022-07-18T17:48:32Z</time>
      </trkpt>
      <trkpt lat="44.30884" lon="7.27188">
        <ele>744.8</ele>
        <time>2022-07-18T17:48:33Z</time>
      </trkpt>
      <trkpt lat="44.30883" lon="7.2718">
        <ele>745.2</ele>
        <time>2022-07-18T17:48:34Z</time>
      </trkpt>
      <trkpt lat="44.30883" lon="7.27172">
        <ele>745.2</ele>
        <time>2022-07-18T17:48:35Z</time>
      </trkpt>
      <trkpt lat="44.30882" lon="7.27164">
        <ele>745.2</ele>
        <time>2022-07-18T17:48:36Z</time>
      </trkpt>
      <trkpt lat="44.30881" lon="7.27157">
        <ele>745.2</ele>
        <time>2022-07-18T17:48:37Z</time>
      </trkpt>
      <trkpt lat="44.30881" lon="7.27149">
        <ele>745.2</ele>
        <time>2022-07-18T17:48:38Z</time>
      </trkpt>
      <trkpt lat="44.3088" lon="7.27141">
        <ele>745.4</ele>
        <time>2022-07-18T17:48:39Z</time>
      </trkpt>
      <trkpt lat="44.30879" lon="7.27133">
        <ele>745.4</ele>
        <time>2022-07-18T17:48:40Z</time>
      </trkpt>
      <trkpt lat="44.30879" lon="7.27126">
        <ele>745.4</ele>
        <time>2022-07-18T17:48:41Z</time>
      </trkpt>
      <trkpt lat="44.30878" lon="7.27118">
        <ele>745.6</ele>
        <time>2022-07-18T17:48:42Z</time>
      </trkpt>
      <trkpt lat="44.30878" lon="7.27111">
        <ele>745.6</ele>
        <time>2022-07-18T17:48:43Z</time>
      </trkpt>
      <trkpt lat="44.30877" lon="7.27103">
        <ele>745.6</ele>
        <time>2022-07-18T17:48:44Z</time>
      </trkpt>
      <trkpt lat="44.30876" lon="7.27096">
        <ele>745.6</ele>
        <time>2022-07-18T17:48:45Z</time>
      </trkpt>
      <trkpt lat="44.30876" lon="7.27088">
        <ele>745.8</ele>
        <time>2022-07-18T17:48:46Z</time>
      </trkpt>
      <trkpt lat="44.30875" lon="7.27081">
        <ele>745.8</ele>
        <time>2022-07-18T17:48:47Z</time>
      </trkpt>
      <trkpt lat="44.30875" lon="7.27074">
        <ele>745.8</ele>
        <time>2022-07-18T17:48:48Z</time>
      </trkpt>
      <trkpt lat="44.30874" lon="7.27067">
        <ele>745.8</ele>
        <time>2022-07-18T17:48:49Z</time>
      </trkpt>
      <trkpt lat="44.30874" lon="7.2706">
        <ele>746</ele>
        <time>2022-07-18T17:48:50Z</time>
      </trkpt>
      <trkpt lat="44.30874" lon="7.27054">
        <ele>746</ele>
        <time>2022-07-18T17:48:51Z</time>
      </trkpt>
      <trkpt lat="44.30873" lon="7.27047">
        <ele>746</ele>
        <time>2022-07-18T17:48:52Z</time>
      </trkpt>
      <trkpt lat="44.30873" lon="7.27041">
        <ele>746</ele>
        <time>2022-07-18T17:48:53Z</time>
      </trkpt>
      <trkpt lat="44.30872" lon="7.27034">
        <ele>746.2</ele>
        <time>2022-07-18T17:48:54Z</time>
      </trkpt>
      <trkpt lat="44.30872" lon="7.27028">
        <ele>746.2</ele>
        <time>2022-07-18T17:48:55Z</time>
      </trkpt>
      <trkpt lat="44.30871" lon="7.27023">
        <ele>746.2</ele>
        <time>2022-07-18T17:48:56Z</time>
      </trkpt>
      <trkpt lat="44.30871" lon="7.27018">
        <ele>746.6</ele>
        <time>2022-07-18T17:48:57Z</time>
      </trkpt>
    </trkseg>
  </trk>
</gpx>